<?xml version="1.0" encoding="UTF-8" standalone="no" ?>
<gpx xmlns="http://www.topografix.com/GPX/1/1" xmlns:xsi="http://www.w3.org/2001/XMLSchema-instance" xsi:schemaLocation="http://www.topografix.com/GPX/1/1 http://www.topografix.com/GPX/1/1/gpx.xsd" version="1.1" creator="VisuGPX - https://www.visugpx.com">
  <metadata>
    <name>voyage total </name>
  </metadata>
  <trk>
    <name><![CDATA[T24]]></name>
    <trkseg>
      <trkpt lat="49.03328" lon="7.94531">
        <ele>161.5</ele>
        <time>2020-06-28T05:32:36Z</time>
      </trkpt>
      <trkpt lat="49.0333" lon="7.94539">
        <ele>161.5</ele>
        <time>2020-06-28T05:32:37Z</time>
      </trkpt>
      <trkpt lat="49.03333" lon="7.94544">
        <ele>161.4</ele>
        <time>2020-06-28T05:32:38Z</time>
      </trkpt>
      <trkpt lat="49.03333" lon="7.94549">
        <ele>161.4</ele>
        <time>2020-06-28T05:32:39Z</time>
      </trkpt>
      <trkpt lat="49.03337" lon="7.94557">
        <ele>161.2</ele>
        <time>2020-06-28T05:32:40Z</time>
      </trkpt>
      <trkpt lat="49.03337" lon="7.94563">
        <ele>161.1</ele>
        <time>2020-06-28T05:32:41Z</time>
      </trkpt>
      <trkpt lat="49.03337" lon="7.94577">
        <ele>160.9</ele>
        <time>2020-06-28T05:32:42Z</time>
      </trkpt>
      <trkpt lat="49.03339" lon="7.9458">
        <ele>160.9</ele>
        <time>2020-06-28T05:32:43Z</time>
      </trkpt>
      <trkpt lat="49.03341" lon="7.94586">
        <ele>160.9</ele>
        <time>2020-06-28T05:32:45Z</time>
      </trkpt>
      <trkpt lat="49.0334" lon="7.94594">
        <ele>160.8</ele>
        <time>2020-06-28T05:32:46Z</time>
      </trkpt>
      <trkpt lat="49.0334" lon="7.94598">
        <ele>160.8</ele>
        <time>2020-06-28T05:32:47Z</time>
      </trkpt>
      <trkpt lat="49.03341" lon="7.94604">
        <ele>160.8</ele>
        <time>2020-06-28T05:32:48Z</time>
      </trkpt>
      <trkpt lat="49.03341" lon="7.94612">
        <ele>160.8</ele>
        <time>2020-06-28T05:32:49Z</time>
      </trkpt>
      <trkpt lat="49.03339" lon="7.94617">
        <ele>160.7</ele>
        <time>2020-06-28T05:32:50Z</time>
      </trkpt>
      <trkpt lat="49.03337" lon="7.94623">
        <ele>160.7</ele>
        <time>2020-06-28T05:32:51Z</time>
      </trkpt>
      <trkpt lat="49.03335" lon="7.94628">
        <ele>160.7</ele>
        <time>2020-06-28T05:32:52Z</time>
      </trkpt>
      <trkpt lat="49.03333" lon="7.94634">
        <ele>160.7</ele>
        <time>2020-06-28T05:32:53Z</time>
      </trkpt>
      <trkpt lat="49.03331" lon="7.94639">
        <ele>160.7</ele>
        <time>2020-06-28T05:32:54Z</time>
      </trkpt>
      <trkpt lat="49.03329" lon="7.94644">
        <ele>160.6</ele>
        <time>2020-06-28T05:32:55Z</time>
      </trkpt>
      <trkpt lat="49.03327" lon="7.94649">
        <ele>160.6</ele>
        <time>2020-06-28T05:32:56Z</time>
      </trkpt>
      <trkpt lat="49.03325" lon="7.94654">
        <ele>160.6</ele>
        <time>2020-06-28T05:32:57Z</time>
      </trkpt>
      <trkpt lat="49.03323" lon="7.9466">
        <ele>160.5</ele>
        <time>2020-06-28T05:32:58Z</time>
      </trkpt>
      <trkpt lat="49.03322" lon="7.94665">
        <ele>160.5</ele>
        <time>2020-06-28T05:32:59Z</time>
      </trkpt>
      <trkpt lat="49.03321" lon="7.9467">
        <ele>160.5</ele>
        <time>2020-06-28T05:33:00Z</time>
      </trkpt>
      <trkpt lat="49.03318" lon="7.94674">
        <ele>160.5</ele>
        <time>2020-06-28T05:33:01Z</time>
      </trkpt>
      <trkpt lat="49.03316" lon="7.94677">
        <ele>160.4</ele>
        <time>2020-06-28T05:33:02Z</time>
      </trkpt>
      <trkpt lat="49.03315" lon="7.94681">
        <ele>160.4</ele>
        <time>2020-06-28T05:33:03Z</time>
      </trkpt>
      <trkpt lat="49.03314" lon="7.94682">
        <ele>160.4</ele>
        <time>2020-06-28T05:33:04Z</time>
      </trkpt>
      <trkpt lat="49.03315" lon="7.94683">
        <ele>160.4</ele>
        <time>2020-06-28T05:33:05Z</time>
      </trkpt>
      <trkpt lat="49.03317" lon="7.94684">
        <ele>160.4</ele>
        <time>2020-06-28T05:33:06Z</time>
      </trkpt>
      <trkpt lat="49.03317" lon="7.94683">
        <ele>160.3</ele>
        <time>2020-06-28T05:33:07Z</time>
      </trkpt>
      <trkpt lat="49.03318" lon="7.94682">
        <ele>160.3</ele>
        <time>2020-06-28T05:33:08Z</time>
      </trkpt>
      <trkpt lat="49.03318" lon="7.94681">
        <ele>160.3</ele>
        <time>2020-06-28T05:33:09Z</time>
      </trkpt>
      <trkpt lat="49.03318" lon="7.94678">
        <ele>160.3</ele>
        <time>2020-06-28T05:33:10Z</time>
      </trkpt>
      <trkpt lat="49.03318" lon="7.94676">
        <ele>160.3</ele>
        <time>2020-06-28T05:33:11Z</time>
      </trkpt>
      <trkpt lat="49.03319" lon="7.94672">
        <ele>160.3</ele>
        <time>2020-06-28T05:33:12Z</time>
      </trkpt>
      <trkpt lat="49.03319" lon="7.94667">
        <ele>160.2</ele>
        <time>2020-06-28T05:33:13Z</time>
      </trkpt>
      <trkpt lat="49.0332" lon="7.9466">
        <ele>160.3</ele>
        <time>2020-06-28T05:33:14Z</time>
      </trkpt>
      <trkpt lat="49.03321" lon="7.94655">
        <ele>160.3</ele>
        <time>2020-06-28T05:33:15Z</time>
      </trkpt>
      <trkpt lat="49.03323" lon="7.94648">
        <ele>160.4</ele>
        <time>2020-06-28T05:33:16Z</time>
      </trkpt>
      <trkpt lat="49.03326" lon="7.94642">
        <ele>160.5</ele>
        <time>2020-06-28T05:33:17Z</time>
      </trkpt>
      <trkpt lat="49.03328" lon="7.94636">
        <ele>160.5</ele>
        <time>2020-06-28T05:33:18Z</time>
      </trkpt>
      <trkpt lat="49.0333" lon="7.9463">
        <ele>160.6</ele>
        <time>2020-06-28T05:33:19Z</time>
      </trkpt>
      <trkpt lat="49.03332" lon="7.94624">
        <ele>160.6</ele>
        <time>2020-06-28T05:33:20Z</time>
      </trkpt>
      <trkpt lat="49.03333" lon="7.94618">
        <ele>160.7</ele>
        <time>2020-06-28T05:33:21Z</time>
      </trkpt>
      <trkpt lat="49.03335" lon="7.94612">
        <ele>160.7</ele>
        <time>2020-06-28T05:33:22Z</time>
      </trkpt>
      <trkpt lat="49.03336" lon="7.94606">
        <ele>160.7</ele>
        <time>2020-06-28T05:33:23Z</time>
      </trkpt>
      <trkpt lat="49.03337" lon="7.94599">
        <ele>160.8</ele>
        <time>2020-06-28T05:33:24Z</time>
      </trkpt>
      <trkpt lat="49.03338" lon="7.94593">
        <ele>160.8</ele>
        <time>2020-06-28T05:33:25Z</time>
      </trkpt>
      <trkpt lat="49.03338" lon="7.94586">
        <ele>160.9</ele>
        <time>2020-06-28T05:33:26Z</time>
      </trkpt>
      <trkpt lat="49.03339" lon="7.94581">
        <ele>160.9</ele>
        <time>2020-06-28T05:33:27Z</time>
      </trkpt>
      <trkpt lat="49.0334" lon="7.94576">
        <ele>160.9</ele>
        <time>2020-06-28T05:33:28Z</time>
      </trkpt>
      <trkpt lat="49.0334" lon="7.94571">
        <ele>160.9</ele>
        <time>2020-06-28T05:33:29Z</time>
      </trkpt>
      <trkpt lat="49.03341" lon="7.94566">
        <ele>161</ele>
        <time>2020-06-28T05:33:30Z</time>
      </trkpt>
      <trkpt lat="49.0334" lon="7.9456">
        <ele>161.1</ele>
        <time>2020-06-28T05:33:31Z</time>
      </trkpt>
      <trkpt lat="49.0334" lon="7.94555">
        <ele>161.2</ele>
        <time>2020-06-28T05:33:32Z</time>
      </trkpt>
      <trkpt lat="49.03338" lon="7.9455">
        <ele>161.3</ele>
        <time>2020-06-28T05:33:33Z</time>
      </trkpt>
      <trkpt lat="49.03335" lon="7.94546">
        <ele>161.4</ele>
        <time>2020-06-28T05:33:34Z</time>
      </trkpt>
      <trkpt lat="49.03332" lon="7.94542">
        <ele>161.4</ele>
        <time>2020-06-28T05:33:35Z</time>
      </trkpt>
      <trkpt lat="49.03329" lon="7.94539">
        <ele>161.5</ele>
        <time>2020-06-28T05:33:36Z</time>
      </trkpt>
      <trkpt lat="49.03327" lon="7.94535">
        <ele>161.5</ele>
        <time>2020-06-28T05:33:37Z</time>
      </trkpt>
      <trkpt lat="49.03326" lon="7.94531">
        <ele>161.5</ele>
        <time>2020-06-28T05:33:38Z</time>
      </trkpt>
      <trkpt lat="49.03325" lon="7.94526">
        <ele>161.4</ele>
        <time>2020-06-28T05:33:39Z</time>
      </trkpt>
      <trkpt lat="49.03323" lon="7.94522">
        <ele>161.4</ele>
        <time>2020-06-28T05:33:40Z</time>
      </trkpt>
      <trkpt lat="49.03322" lon="7.94519">
        <ele>161.4</ele>
        <time>2020-06-28T05:33:41Z</time>
      </trkpt>
      <trkpt lat="49.03319" lon="7.94517">
        <ele>161.4</ele>
        <time>2020-06-28T05:33:42Z</time>
      </trkpt>
      <trkpt lat="49.03316" lon="7.94516">
        <ele>161.5</ele>
        <time>2020-06-28T05:33:43Z</time>
      </trkpt>
      <trkpt lat="49.03311" lon="7.94515">
        <ele>161.5</ele>
        <time>2020-06-28T05:33:44Z</time>
      </trkpt>
      <trkpt lat="49.03307" lon="7.94514">
        <ele>161.5</ele>
        <time>2020-06-28T05:33:45Z</time>
      </trkpt>
      <trkpt lat="49.03302" lon="7.94514">
        <ele>161.5</ele>
        <time>2020-06-28T05:33:46Z</time>
      </trkpt>
      <trkpt lat="49.03298" lon="7.94515">
        <ele>161.5</ele>
        <time>2020-06-28T05:33:47Z</time>
      </trkpt>
      <trkpt lat="49.03294" lon="7.94515">
        <ele>161.5</ele>
        <time>2020-06-28T05:33:48Z</time>
      </trkpt>
      <trkpt lat="49.0329" lon="7.94516">
        <ele>161.5</ele>
        <time>2020-06-28T05:33:49Z</time>
      </trkpt>
      <trkpt lat="49.03287" lon="7.94516">
        <ele>161.5</ele>
        <time>2020-06-28T05:33:50Z</time>
      </trkpt>
      <trkpt lat="49.03283" lon="7.94517">
        <ele>161.5</ele>
        <time>2020-06-28T05:33:51Z</time>
      </trkpt>
      <trkpt lat="49.03279" lon="7.94518">
        <ele>161.5</ele>
        <time>2020-06-28T05:33:52Z</time>
      </trkpt>
      <trkpt lat="49.03275" lon="7.94518">
        <ele>161.5</ele>
        <time>2020-06-28T05:33:53Z</time>
      </trkpt>
      <trkpt lat="49.03272" lon="7.94519">
        <ele>161.5</ele>
        <time>2020-06-28T05:33:54Z</time>
      </trkpt>
      <trkpt lat="49.03269" lon="7.94521">
        <ele>161.4</ele>
        <time>2020-06-28T05:33:55Z</time>
      </trkpt>
      <trkpt lat="49.03266" lon="7.94523">
        <ele>161.4</ele>
        <time>2020-06-28T05:33:56Z</time>
      </trkpt>
      <trkpt lat="49.03262" lon="7.94523">
        <ele>161.4</ele>
        <time>2020-06-28T05:33:57Z</time>
      </trkpt>
      <trkpt lat="49.03257" lon="7.94525">
        <ele>161.4</ele>
        <time>2020-06-28T05:33:58Z</time>
      </trkpt>
      <trkpt lat="49.03253" lon="7.94527">
        <ele>161.4</ele>
        <time>2020-06-28T05:33:59Z</time>
      </trkpt>
      <trkpt lat="49.0325" lon="7.94529">
        <ele>161.4</ele>
        <time>2020-06-28T05:34:00Z</time>
      </trkpt>
      <trkpt lat="49.03245" lon="7.94531">
        <ele>161.4</ele>
        <time>2020-06-28T05:34:01Z</time>
      </trkpt>
      <trkpt lat="49.03241" lon="7.94533">
        <ele>161.5</ele>
        <time>2020-06-28T05:34:02Z</time>
      </trkpt>
      <trkpt lat="49.03236" lon="7.94535">
        <ele>161.5</ele>
        <time>2020-06-28T05:34:03Z</time>
      </trkpt>
      <trkpt lat="49.03232" lon="7.94537">
        <ele>161.5</ele>
        <time>2020-06-28T05:34:04Z</time>
      </trkpt>
      <trkpt lat="49.03227" lon="7.94538">
        <ele>161.6</ele>
        <time>2020-06-28T05:34:05Z</time>
      </trkpt>
      <trkpt lat="49.03222" lon="7.9454">
        <ele>161.6</ele>
        <time>2020-06-28T05:34:06Z</time>
      </trkpt>
      <trkpt lat="49.03217" lon="7.94543">
        <ele>161.6</ele>
        <time>2020-06-28T05:34:07Z</time>
      </trkpt>
      <trkpt lat="49.03213" lon="7.94544">
        <ele>161.6</ele>
        <time>2020-06-28T05:34:08Z</time>
      </trkpt>
      <trkpt lat="49.03208" lon="7.94546">
        <ele>161.7</ele>
        <time>2020-06-28T05:34:09Z</time>
      </trkpt>
      <trkpt lat="49.03203" lon="7.94549">
        <ele>161.7</ele>
        <time>2020-06-28T05:34:10Z</time>
      </trkpt>
      <trkpt lat="49.03199" lon="7.9455">
        <ele>161.7</ele>
        <time>2020-06-28T05:34:11Z</time>
      </trkpt>
      <trkpt lat="49.03194" lon="7.94552">
        <ele>161.7</ele>
        <time>2020-06-28T05:34:12Z</time>
      </trkpt>
      <trkpt lat="49.03189" lon="7.94554">
        <ele>161.8</ele>
        <time>2020-06-28T05:34:13Z</time>
      </trkpt>
      <trkpt lat="49.03184" lon="7.94556">
        <ele>161.8</ele>
        <time>2020-06-28T05:34:14Z</time>
      </trkpt>
      <trkpt lat="49.0318" lon="7.94558">
        <ele>161.8</ele>
        <time>2020-06-28T05:34:15Z</time>
      </trkpt>
      <trkpt lat="49.03175" lon="7.9456">
        <ele>161.7</ele>
        <time>2020-06-28T05:34:16Z</time>
      </trkpt>
      <trkpt lat="49.03171" lon="7.94562">
        <ele>161.7</ele>
        <time>2020-06-28T05:34:17Z</time>
      </trkpt>
      <trkpt lat="49.03166" lon="7.94564">
        <ele>161.7</ele>
        <time>2020-06-28T05:34:18Z</time>
      </trkpt>
      <trkpt lat="49.03162" lon="7.94565">
        <ele>161.7</ele>
        <time>2020-06-28T05:34:19Z</time>
      </trkpt>
      <trkpt lat="49.03157" lon="7.94568">
        <ele>161.8</ele>
        <time>2020-06-28T05:34:20Z</time>
      </trkpt>
      <trkpt lat="49.03152" lon="7.9457">
        <ele>161.8</ele>
        <time>2020-06-28T05:34:21Z</time>
      </trkpt>
      <trkpt lat="49.03147" lon="7.94573">
        <ele>161.9</ele>
        <time>2020-06-28T05:34:22Z</time>
      </trkpt>
      <trkpt lat="49.03143" lon="7.94575">
        <ele>161.9</ele>
        <time>2020-06-28T05:34:23Z</time>
      </trkpt>
      <trkpt lat="49.03138" lon="7.94578">
        <ele>162</ele>
        <time>2020-06-28T05:34:24Z</time>
      </trkpt>
      <trkpt lat="49.03133" lon="7.94581">
        <ele>162.1</ele>
        <time>2020-06-28T05:34:25Z</time>
      </trkpt>
      <trkpt lat="49.03128" lon="7.94583">
        <ele>162.2</ele>
        <time>2020-06-28T05:34:26Z</time>
      </trkpt>
      <trkpt lat="49.03124" lon="7.94585">
        <ele>162.3</ele>
        <time>2020-06-28T05:34:27Z</time>
      </trkpt>
      <trkpt lat="49.03119" lon="7.94587">
        <ele>162.3</ele>
        <time>2020-06-28T05:34:28Z</time>
      </trkpt>
      <trkpt lat="49.03114" lon="7.9459">
        <ele>162.4</ele>
        <time>2020-06-28T05:34:29Z</time>
      </trkpt>
      <trkpt lat="49.03109" lon="7.94592">
        <ele>162.5</ele>
        <time>2020-06-28T05:34:30Z</time>
      </trkpt>
      <trkpt lat="49.03104" lon="7.94594">
        <ele>162.6</ele>
        <time>2020-06-28T05:34:31Z</time>
      </trkpt>
      <trkpt lat="49.03099" lon="7.94596">
        <ele>162.7</ele>
        <time>2020-06-28T05:34:32Z</time>
      </trkpt>
      <trkpt lat="49.03095" lon="7.94599">
        <ele>162.8</ele>
        <time>2020-06-28T05:34:33Z</time>
      </trkpt>
      <trkpt lat="49.0309" lon="7.94602">
        <ele>163</ele>
        <time>2020-06-28T05:34:34Z</time>
      </trkpt>
      <trkpt lat="49.03085" lon="7.94602">
        <ele>163.1</ele>
        <time>2020-06-28T05:34:35Z</time>
      </trkpt>
      <trkpt lat="49.03081" lon="7.94603">
        <ele>163.3</ele>
        <time>2020-06-28T05:34:36Z</time>
      </trkpt>
      <trkpt lat="49.03076" lon="7.94605">
        <ele>163.4</ele>
        <time>2020-06-28T05:34:37Z</time>
      </trkpt>
      <trkpt lat="49.03072" lon="7.94607">
        <ele>163.5</ele>
        <time>2020-06-28T05:34:38Z</time>
      </trkpt>
      <trkpt lat="49.03069" lon="7.94609">
        <ele>163.7</ele>
        <time>2020-06-28T05:34:39Z</time>
      </trkpt>
      <trkpt lat="49.03064" lon="7.94611">
        <ele>163.8</ele>
        <time>2020-06-28T05:34:40Z</time>
      </trkpt>
      <trkpt lat="49.03059" lon="7.94612">
        <ele>164</ele>
        <time>2020-06-28T05:34:41Z</time>
      </trkpt>
      <trkpt lat="49.03055" lon="7.94615">
        <ele>164.1</ele>
        <time>2020-06-28T05:34:42Z</time>
      </trkpt>
      <trkpt lat="49.03051" lon="7.94616">
        <ele>164.3</ele>
        <time>2020-06-28T05:34:43Z</time>
      </trkpt>
      <trkpt lat="49.03047" lon="7.94619">
        <ele>164.4</ele>
        <time>2020-06-28T05:34:44Z</time>
      </trkpt>
      <trkpt lat="49.03042" lon="7.94621">
        <ele>164.6</ele>
        <time>2020-06-28T05:34:45Z</time>
      </trkpt>
      <trkpt lat="49.03039" lon="7.94623">
        <ele>164.7</ele>
        <time>2020-06-28T05:34:46Z</time>
      </trkpt>
      <trkpt lat="49.03035" lon="7.94623">
        <ele>164.9</ele>
        <time>2020-06-28T05:34:47Z</time>
      </trkpt>
      <trkpt lat="49.0303" lon="7.94625">
        <ele>165.1</ele>
        <time>2020-06-28T05:34:48Z</time>
      </trkpt>
      <trkpt lat="49.03026" lon="7.94627">
        <ele>165.2</ele>
        <time>2020-06-28T05:34:49Z</time>
      </trkpt>
      <trkpt lat="49.03022" lon="7.9463">
        <ele>165.4</ele>
        <time>2020-06-28T05:34:50Z</time>
      </trkpt>
      <trkpt lat="49.03018" lon="7.94631">
        <ele>165.5</ele>
        <time>2020-06-28T05:34:51Z</time>
      </trkpt>
      <trkpt lat="49.03015" lon="7.94632">
        <ele>165.6</ele>
        <time>2020-06-28T05:34:52Z</time>
      </trkpt>
      <trkpt lat="49.03009" lon="7.94637">
        <ele>165.9</ele>
        <time>2020-06-28T05:34:53Z</time>
      </trkpt>
      <trkpt lat="49.03006" lon="7.94638">
        <ele>166</ele>
        <time>2020-06-28T05:34:54Z</time>
      </trkpt>
      <trkpt lat="49.03002" lon="7.94642">
        <ele>166.2</ele>
        <time>2020-06-28T05:34:55Z</time>
      </trkpt>
      <trkpt lat="49.02997" lon="7.94642">
        <ele>166.4</ele>
        <time>2020-06-28T05:34:56Z</time>
      </trkpt>
      <trkpt lat="49.02993" lon="7.94643">
        <ele>166.6</ele>
        <time>2020-06-28T05:34:57Z</time>
      </trkpt>
      <trkpt lat="49.0299" lon="7.94645">
        <ele>166.7</ele>
        <time>2020-06-28T05:34:58Z</time>
      </trkpt>
      <trkpt lat="49.02987" lon="7.94646">
        <ele>166.9</ele>
        <time>2020-06-28T05:34:59Z</time>
      </trkpt>
      <trkpt lat="49.02983" lon="7.94648">
        <ele>167</ele>
        <time>2020-06-28T05:35:00Z</time>
      </trkpt>
      <trkpt lat="49.02978" lon="7.94647">
        <ele>167.2</ele>
        <time>2020-06-28T05:35:01Z</time>
      </trkpt>
      <trkpt lat="49.02976" lon="7.94646">
        <ele>167.3</ele>
        <time>2020-06-28T05:35:02Z</time>
      </trkpt>
      <trkpt lat="49.02972" lon="7.94648">
        <ele>167.5</ele>
        <time>2020-06-28T05:35:03Z</time>
      </trkpt>
      <trkpt lat="49.02968" lon="7.94649">
        <ele>167.6</ele>
        <time>2020-06-28T05:35:04Z</time>
      </trkpt>
      <trkpt lat="49.02964" lon="7.94651">
        <ele>167.8</ele>
        <time>2020-06-28T05:35:05Z</time>
      </trkpt>
      <trkpt lat="49.02962" lon="7.94654">
        <ele>167.9</ele>
        <time>2020-06-28T05:35:06Z</time>
      </trkpt>
      <trkpt lat="49.02961" lon="7.94659">
        <ele>167.8</ele>
        <time>2020-06-28T05:35:07Z</time>
      </trkpt>
      <trkpt lat="49.02961" lon="7.94663">
        <ele>167.8</ele>
        <time>2020-06-28T05:35:08Z</time>
      </trkpt>
      <trkpt lat="49.0296" lon="7.94668">
        <ele>167.8</ele>
        <time>2020-06-28T05:35:09Z</time>
      </trkpt>
      <trkpt lat="49.0296" lon="7.94673">
        <ele>167.7</ele>
        <time>2020-06-28T05:35:10Z</time>
      </trkpt>
      <trkpt lat="49.02961" lon="7.94678">
        <ele>167.6</ele>
        <time>2020-06-28T05:35:11Z</time>
      </trkpt>
      <trkpt lat="49.02961" lon="7.94684">
        <ele>167.5</ele>
        <time>2020-06-28T05:35:12Z</time>
      </trkpt>
      <trkpt lat="49.02961" lon="7.94689">
        <ele>167.4</ele>
        <time>2020-06-28T05:35:13Z</time>
      </trkpt>
      <trkpt lat="49.02961" lon="7.94694">
        <ele>167.3</ele>
        <time>2020-06-28T05:35:14Z</time>
      </trkpt>
      <trkpt lat="49.0296" lon="7.94701">
        <ele>167.2</ele>
        <time>2020-06-28T05:35:15Z</time>
      </trkpt>
      <trkpt lat="49.02959" lon="7.94706">
        <ele>167.1</ele>
        <time>2020-06-28T05:35:16Z</time>
      </trkpt>
      <trkpt lat="49.02959" lon="7.94713">
        <ele>166.9</ele>
        <time>2020-06-28T05:35:17Z</time>
      </trkpt>
      <trkpt lat="49.02959" lon="7.94719">
        <ele>166.8</ele>
        <time>2020-06-28T05:35:18Z</time>
      </trkpt>
      <trkpt lat="49.02958" lon="7.94726">
        <ele>166.6</ele>
        <time>2020-06-28T05:35:19Z</time>
      </trkpt>
      <trkpt lat="49.02958" lon="7.94733">
        <ele>166.4</ele>
        <time>2020-06-28T05:35:20Z</time>
      </trkpt>
      <trkpt lat="49.02957" lon="7.9474">
        <ele>166.3</ele>
        <time>2020-06-28T05:35:21Z</time>
      </trkpt>
      <trkpt lat="49.02956" lon="7.94747">
        <ele>166.1</ele>
        <time>2020-06-28T05:35:22Z</time>
      </trkpt>
      <trkpt lat="49.02957" lon="7.94755">
        <ele>165.9</ele>
        <time>2020-06-28T05:35:23Z</time>
      </trkpt>
      <trkpt lat="49.02955" lon="7.94761">
        <ele>165.8</ele>
        <time>2020-06-28T05:35:24Z</time>
      </trkpt>
      <trkpt lat="49.02955" lon="7.94769">
        <ele>165.7</ele>
        <time>2020-06-28T05:35:25Z</time>
      </trkpt>
      <trkpt lat="49.02954" lon="7.94777">
        <ele>165.5</ele>
        <time>2020-06-28T05:35:26Z</time>
      </trkpt>
      <trkpt lat="49.02953" lon="7.94785">
        <ele>165.4</ele>
        <time>2020-06-28T05:35:27Z</time>
      </trkpt>
      <trkpt lat="49.02952" lon="7.94793">
        <ele>165.2</ele>
        <time>2020-06-28T05:35:28Z</time>
      </trkpt>
      <trkpt lat="49.02952" lon="7.948">
        <ele>165.1</ele>
        <time>2020-06-28T05:35:29Z</time>
      </trkpt>
      <trkpt lat="49.02951" lon="7.94808">
        <ele>164.9</ele>
        <time>2020-06-28T05:35:30Z</time>
      </trkpt>
      <trkpt lat="49.0295" lon="7.94817">
        <ele>164.8</ele>
        <time>2020-06-28T05:35:31Z</time>
      </trkpt>
      <trkpt lat="49.02949" lon="7.94825">
        <ele>164.7</ele>
        <time>2020-06-28T05:35:32Z</time>
      </trkpt>
      <trkpt lat="49.02949" lon="7.94833">
        <ele>164.7</ele>
        <time>2020-06-28T05:35:33Z</time>
      </trkpt>
      <trkpt lat="49.02948" lon="7.94841">
        <ele>164.6</ele>
        <time>2020-06-28T05:35:34Z</time>
      </trkpt>
      <trkpt lat="49.02946" lon="7.94848">
        <ele>164.5</ele>
        <time>2020-06-28T05:35:35Z</time>
      </trkpt>
      <trkpt lat="49.02945" lon="7.94854">
        <ele>164.5</ele>
        <time>2020-06-28T05:35:36Z</time>
      </trkpt>
      <trkpt lat="49.02942" lon="7.94862">
        <ele>164.4</ele>
        <time>2020-06-28T05:35:37Z</time>
      </trkpt>
      <trkpt lat="49.02942" lon="7.94869">
        <ele>164.3</ele>
        <time>2020-06-28T05:35:38Z</time>
      </trkpt>
      <trkpt lat="49.0294" lon="7.94876">
        <ele>164.2</ele>
        <time>2020-06-28T05:35:39Z</time>
      </trkpt>
      <trkpt lat="49.02939" lon="7.94883">
        <ele>164.2</ele>
        <time>2020-06-28T05:35:40Z</time>
      </trkpt>
      <trkpt lat="49.02938" lon="7.94889">
        <ele>164.1</ele>
        <time>2020-06-28T05:35:41Z</time>
      </trkpt>
      <trkpt lat="49.02937" lon="7.94897">
        <ele>164</ele>
        <time>2020-06-28T05:35:42Z</time>
      </trkpt>
      <trkpt lat="49.02936" lon="7.94904">
        <ele>163.9</ele>
        <time>2020-06-28T05:35:43Z</time>
      </trkpt>
      <trkpt lat="49.02933" lon="7.94911">
        <ele>163.8</ele>
        <time>2020-06-28T05:35:44Z</time>
      </trkpt>
      <trkpt lat="49.02932" lon="7.94917">
        <ele>163.7</ele>
        <time>2020-06-28T05:35:45Z</time>
      </trkpt>
      <trkpt lat="49.0293" lon="7.94924">
        <ele>163.6</ele>
        <time>2020-06-28T05:35:46Z</time>
      </trkpt>
      <trkpt lat="49.02929" lon="7.9493">
        <ele>163.6</ele>
        <time>2020-06-28T05:35:47Z</time>
      </trkpt>
      <trkpt lat="49.02926" lon="7.94937">
        <ele>163.5</ele>
        <time>2020-06-28T05:35:48Z</time>
      </trkpt>
      <trkpt lat="49.02926" lon="7.94944">
        <ele>163.4</ele>
        <time>2020-06-28T05:35:49Z</time>
      </trkpt>
      <trkpt lat="49.02923" lon="7.94952">
        <ele>163.3</ele>
        <time>2020-06-28T05:35:50Z</time>
      </trkpt>
      <trkpt lat="49.0292" lon="7.94961">
        <ele>163.2</ele>
        <time>2020-06-28T05:35:51Z</time>
      </trkpt>
      <trkpt lat="49.02917" lon="7.9497">
        <ele>163.1</ele>
        <time>2020-06-28T05:35:52Z</time>
      </trkpt>
      <trkpt lat="49.02918" lon="7.9498">
        <ele>163</ele>
        <time>2020-06-28T05:35:53Z</time>
      </trkpt>
      <trkpt lat="49.02916" lon="7.9499">
        <ele>162.9</ele>
        <time>2020-06-28T05:35:54Z</time>
      </trkpt>
      <trkpt lat="49.02914" lon="7.94998">
        <ele>162.9</ele>
        <time>2020-06-28T05:35:55Z</time>
      </trkpt>
      <trkpt lat="49.02911" lon="7.95009">
        <ele>162.8</ele>
        <time>2020-06-28T05:35:56Z</time>
      </trkpt>
      <trkpt lat="49.02909" lon="7.9502">
        <ele>162.7</ele>
        <time>2020-06-28T05:35:57Z</time>
      </trkpt>
      <trkpt lat="49.02906" lon="7.95029">
        <ele>162.7</ele>
        <time>2020-06-28T05:35:58Z</time>
      </trkpt>
      <trkpt lat="49.02906" lon="7.95038">
        <ele>162.7</ele>
        <time>2020-06-28T05:35:59Z</time>
      </trkpt>
      <trkpt lat="49.02902" lon="7.95049">
        <ele>162.7</ele>
        <time>2020-06-28T05:36:00Z</time>
      </trkpt>
      <trkpt lat="49.02898" lon="7.95058">
        <ele>162.7</ele>
        <time>2020-06-28T05:36:01Z</time>
      </trkpt>
      <trkpt lat="49.02894" lon="7.95068">
        <ele>162.7</ele>
        <time>2020-06-28T05:36:02Z</time>
      </trkpt>
      <trkpt lat="49.02889" lon="7.95077">
        <ele>162.7</ele>
        <time>2020-06-28T05:36:03Z</time>
      </trkpt>
      <trkpt lat="49.02884" lon="7.95085">
        <ele>162.8</ele>
        <time>2020-06-28T05:36:04Z</time>
      </trkpt>
      <trkpt lat="49.0288" lon="7.95092">
        <ele>162.9</ele>
        <time>2020-06-28T05:36:05Z</time>
      </trkpt>
      <trkpt lat="49.02875" lon="7.95099">
        <ele>163</ele>
        <time>2020-06-28T05:36:06Z</time>
      </trkpt>
      <trkpt lat="49.0287" lon="7.95107">
        <ele>163.1</ele>
        <time>2020-06-28T05:36:07Z</time>
      </trkpt>
      <trkpt lat="49.02864" lon="7.95115">
        <ele>163.2</ele>
        <time>2020-06-28T05:36:08Z</time>
      </trkpt>
      <trkpt lat="49.02859" lon="7.95122">
        <ele>163.3</ele>
        <time>2020-06-28T05:36:09Z</time>
      </trkpt>
      <trkpt lat="49.02854" lon="7.95128">
        <ele>163.4</ele>
        <time>2020-06-28T05:36:10Z</time>
      </trkpt>
      <trkpt lat="49.02849" lon="7.95134">
        <ele>163.5</ele>
        <time>2020-06-28T05:36:11Z</time>
      </trkpt>
      <trkpt lat="49.02845" lon="7.95141">
        <ele>163.6</ele>
        <time>2020-06-28T05:36:12Z</time>
      </trkpt>
      <trkpt lat="49.0284" lon="7.95148">
        <ele>163.5</ele>
        <time>2020-06-28T05:36:13Z</time>
      </trkpt>
      <trkpt lat="49.02836" lon="7.95156">
        <ele>163.5</ele>
        <time>2020-06-28T05:36:14Z</time>
      </trkpt>
      <trkpt lat="49.02833" lon="7.95163">
        <ele>163.6</ele>
        <time>2020-06-28T05:36:15Z</time>
      </trkpt>
      <trkpt lat="49.02829" lon="7.95169">
        <ele>163.6</ele>
        <time>2020-06-28T05:36:16Z</time>
      </trkpt>
      <trkpt lat="49.02825" lon="7.95175">
        <ele>163.7</ele>
        <time>2020-06-28T05:36:17Z</time>
      </trkpt>
      <trkpt lat="49.02822" lon="7.9518">
        <ele>163.7</ele>
        <time>2020-06-28T05:36:18Z</time>
      </trkpt>
      <trkpt lat="49.02818" lon="7.95185">
        <ele>163.7</ele>
        <time>2020-06-28T05:36:19Z</time>
      </trkpt>
      <trkpt lat="49.02815" lon="7.9519">
        <ele>163.8</ele>
        <time>2020-06-28T05:36:20Z</time>
      </trkpt>
      <trkpt lat="49.02812" lon="7.95195">
        <ele>163.8</ele>
        <time>2020-06-28T05:36:21Z</time>
      </trkpt>
      <trkpt lat="49.02809" lon="7.95199">
        <ele>163.8</ele>
        <time>2020-06-28T05:36:22Z</time>
      </trkpt>
      <trkpt lat="49.02805" lon="7.95205">
        <ele>163.9</ele>
        <time>2020-06-28T05:36:23Z</time>
      </trkpt>
      <trkpt lat="49.02802" lon="7.95212">
        <ele>164</ele>
        <time>2020-06-28T05:36:24Z</time>
      </trkpt>
      <trkpt lat="49.02798" lon="7.95218">
        <ele>164</ele>
        <time>2020-06-28T05:36:25Z</time>
      </trkpt>
      <trkpt lat="49.02795" lon="7.95224">
        <ele>164.1</ele>
        <time>2020-06-28T05:36:26Z</time>
      </trkpt>
      <trkpt lat="49.02791" lon="7.95229">
        <ele>164.1</ele>
        <time>2020-06-28T05:36:27Z</time>
      </trkpt>
      <trkpt lat="49.02788" lon="7.95235">
        <ele>164.2</ele>
        <time>2020-06-28T05:36:28Z</time>
      </trkpt>
      <trkpt lat="49.02785" lon="7.9524">
        <ele>164.2</ele>
        <time>2020-06-28T05:36:29Z</time>
      </trkpt>
      <trkpt lat="49.02782" lon="7.95246">
        <ele>164.2</ele>
        <time>2020-06-28T05:36:30Z</time>
      </trkpt>
      <trkpt lat="49.02779" lon="7.95252">
        <ele>164.3</ele>
        <time>2020-06-28T05:36:31Z</time>
      </trkpt>
      <trkpt lat="49.02776" lon="7.95258">
        <ele>164.3</ele>
        <time>2020-06-28T05:36:32Z</time>
      </trkpt>
      <trkpt lat="49.02773" lon="7.95264">
        <ele>164.4</ele>
        <time>2020-06-28T05:36:33Z</time>
      </trkpt>
      <trkpt lat="49.02771" lon="7.9527">
        <ele>164.4</ele>
        <time>2020-06-28T05:36:34Z</time>
      </trkpt>
      <trkpt lat="49.02768" lon="7.95276">
        <ele>164.5</ele>
        <time>2020-06-28T05:36:35Z</time>
      </trkpt>
      <trkpt lat="49.02765" lon="7.95283">
        <ele>164.5</ele>
        <time>2020-06-28T05:36:36Z</time>
      </trkpt>
      <trkpt lat="49.02761" lon="7.95288">
        <ele>164.5</ele>
        <time>2020-06-28T05:36:37Z</time>
      </trkpt>
      <trkpt lat="49.02757" lon="7.95294">
        <ele>164.6</ele>
        <time>2020-06-28T05:36:38Z</time>
      </trkpt>
      <trkpt lat="49.02753" lon="7.953">
        <ele>164.6</ele>
        <time>2020-06-28T05:36:39Z</time>
      </trkpt>
      <trkpt lat="49.02751" lon="7.95307">
        <ele>164.6</ele>
        <time>2020-06-28T05:36:40Z</time>
      </trkpt>
      <trkpt lat="49.02747" lon="7.95313">
        <ele>164.7</ele>
        <time>2020-06-28T05:36:41Z</time>
      </trkpt>
      <trkpt lat="49.02745" lon="7.9532">
        <ele>164.7</ele>
        <time>2020-06-28T05:36:42Z</time>
      </trkpt>
      <trkpt lat="49.02742" lon="7.95326">
        <ele>164.7</ele>
        <time>2020-06-28T05:36:43Z</time>
      </trkpt>
      <trkpt lat="49.02738" lon="7.95331">
        <ele>164.8</ele>
        <time>2020-06-28T05:36:44Z</time>
      </trkpt>
      <trkpt lat="49.02735" lon="7.95337">
        <ele>164.8</ele>
        <time>2020-06-28T05:36:45Z</time>
      </trkpt>
      <trkpt lat="49.02731" lon="7.95343">
        <ele>164.8</ele>
        <time>2020-06-28T05:36:46Z</time>
      </trkpt>
      <trkpt lat="49.02728" lon="7.95349">
        <ele>164.9</ele>
        <time>2020-06-28T05:36:47Z</time>
      </trkpt>
      <trkpt lat="49.02724" lon="7.95356">
        <ele>164.9</ele>
        <time>2020-06-28T05:36:48Z</time>
      </trkpt>
      <trkpt lat="49.02721" lon="7.95363">
        <ele>165</ele>
        <time>2020-06-28T05:36:49Z</time>
      </trkpt>
      <trkpt lat="49.02717" lon="7.95369">
        <ele>165</ele>
        <time>2020-06-28T05:36:50Z</time>
      </trkpt>
      <trkpt lat="49.02713" lon="7.95375">
        <ele>165.1</ele>
        <time>2020-06-28T05:36:51Z</time>
      </trkpt>
      <trkpt lat="49.02711" lon="7.95382">
        <ele>165.1</ele>
        <time>2020-06-28T05:36:52Z</time>
      </trkpt>
      <trkpt lat="49.02707" lon="7.95388">
        <ele>165.2</ele>
        <time>2020-06-28T05:36:53Z</time>
      </trkpt>
      <trkpt lat="49.02705" lon="7.95395">
        <ele>165.2</ele>
        <time>2020-06-28T05:36:54Z</time>
      </trkpt>
      <trkpt lat="49.02701" lon="7.95402">
        <ele>165.2</ele>
        <time>2020-06-28T05:36:55Z</time>
      </trkpt>
      <trkpt lat="49.02698" lon="7.95409">
        <ele>165.2</ele>
        <time>2020-06-28T05:36:56Z</time>
      </trkpt>
      <trkpt lat="49.02695" lon="7.95416">
        <ele>165.2</ele>
        <time>2020-06-28T05:36:57Z</time>
      </trkpt>
      <trkpt lat="49.02692" lon="7.95424">
        <ele>165.2</ele>
        <time>2020-06-28T05:36:58Z</time>
      </trkpt>
      <trkpt lat="49.02689" lon="7.95431">
        <ele>165.2</ele>
        <time>2020-06-28T05:36:59Z</time>
      </trkpt>
      <trkpt lat="49.02685" lon="7.95439">
        <ele>165.2</ele>
        <time>2020-06-28T05:37:00Z</time>
      </trkpt>
      <trkpt lat="49.02681" lon="7.95447">
        <ele>165.1</ele>
        <time>2020-06-28T05:37:01Z</time>
      </trkpt>
      <trkpt lat="49.02678" lon="7.95454">
        <ele>165.1</ele>
        <time>2020-06-28T05:37:02Z</time>
      </trkpt>
      <trkpt lat="49.02675" lon="7.95461">
        <ele>165.1</ele>
        <time>2020-06-28T05:37:03Z</time>
      </trkpt>
      <trkpt lat="49.02669" lon="7.95467">
        <ele>165.1</ele>
        <time>2020-06-28T05:37:04Z</time>
      </trkpt>
      <trkpt lat="49.02663" lon="7.95471">
        <ele>165.1</ele>
        <time>2020-06-28T05:37:05Z</time>
      </trkpt>
      <trkpt lat="49.02659" lon="7.95478">
        <ele>165.1</ele>
        <time>2020-06-28T05:37:06Z</time>
      </trkpt>
      <trkpt lat="49.02656" lon="7.95485">
        <ele>165.1</ele>
        <time>2020-06-28T05:37:07Z</time>
      </trkpt>
      <trkpt lat="49.02652" lon="7.95493">
        <ele>165.1</ele>
        <time>2020-06-28T05:37:08Z</time>
      </trkpt>
      <trkpt lat="49.02649" lon="7.955">
        <ele>165.1</ele>
        <time>2020-06-28T05:37:09Z</time>
      </trkpt>
      <trkpt lat="49.02646" lon="7.95508">
        <ele>165.1</ele>
        <time>2020-06-28T05:37:10Z</time>
      </trkpt>
      <trkpt lat="49.02643" lon="7.95515">
        <ele>165</ele>
        <time>2020-06-28T05:37:11Z</time>
      </trkpt>
      <trkpt lat="49.0264" lon="7.95523">
        <ele>165</ele>
        <time>2020-06-28T05:37:12Z</time>
      </trkpt>
      <trkpt lat="49.02637" lon="7.9553">
        <ele>165</ele>
        <time>2020-06-28T05:37:13Z</time>
      </trkpt>
      <trkpt lat="49.02633" lon="7.95538">
        <ele>165</ele>
        <time>2020-06-28T05:37:14Z</time>
      </trkpt>
      <trkpt lat="49.02629" lon="7.95544">
        <ele>164.9</ele>
        <time>2020-06-28T05:37:15Z</time>
      </trkpt>
      <trkpt lat="49.02626" lon="7.95552">
        <ele>164.9</ele>
        <time>2020-06-28T05:37:16Z</time>
      </trkpt>
      <trkpt lat="49.02622" lon="7.95558">
        <ele>164.8</ele>
        <time>2020-06-28T05:37:17Z</time>
      </trkpt>
      <trkpt lat="49.02619" lon="7.95566">
        <ele>164.8</ele>
        <time>2020-06-28T05:37:18Z</time>
      </trkpt>
      <trkpt lat="49.02616" lon="7.95574">
        <ele>164.7</ele>
        <time>2020-06-28T05:37:19Z</time>
      </trkpt>
      <trkpt lat="49.02614" lon="7.95583">
        <ele>164.7</ele>
        <time>2020-06-28T05:37:20Z</time>
      </trkpt>
      <trkpt lat="49.0261" lon="7.95591">
        <ele>164.6</ele>
        <time>2020-06-28T05:37:21Z</time>
      </trkpt>
      <trkpt lat="49.02607" lon="7.95599">
        <ele>164.6</ele>
        <time>2020-06-28T05:37:22Z</time>
      </trkpt>
      <trkpt lat="49.02603" lon="7.95606">
        <ele>164.6</ele>
        <time>2020-06-28T05:37:23Z</time>
      </trkpt>
      <trkpt lat="49.02599" lon="7.95614">
        <ele>164.6</ele>
        <time>2020-06-28T05:37:24Z</time>
      </trkpt>
      <trkpt lat="49.02595" lon="7.95621">
        <ele>164.6</ele>
        <time>2020-06-28T05:37:25Z</time>
      </trkpt>
      <trkpt lat="49.0259" lon="7.95628">
        <ele>164.5</ele>
        <time>2020-06-28T05:37:26Z</time>
      </trkpt>
      <trkpt lat="49.02586" lon="7.95636">
        <ele>164.5</ele>
        <time>2020-06-28T05:37:27Z</time>
      </trkpt>
      <trkpt lat="49.02582" lon="7.95643">
        <ele>164.5</ele>
        <time>2020-06-28T05:37:28Z</time>
      </trkpt>
      <trkpt lat="49.02577" lon="7.95651">
        <ele>164.4</ele>
        <time>2020-06-28T05:37:29Z</time>
      </trkpt>
      <trkpt lat="49.02574" lon="7.95659">
        <ele>164.4</ele>
        <time>2020-06-28T05:37:30Z</time>
      </trkpt>
      <trkpt lat="49.02569" lon="7.95667">
        <ele>164.4</ele>
        <time>2020-06-28T05:37:31Z</time>
      </trkpt>
      <trkpt lat="49.02565" lon="7.95674">
        <ele>164.4</ele>
        <time>2020-06-28T05:37:32Z</time>
      </trkpt>
      <trkpt lat="49.02561" lon="7.95682">
        <ele>164.4</ele>
        <time>2020-06-28T05:37:33Z</time>
      </trkpt>
      <trkpt lat="49.02557" lon="7.95689">
        <ele>164.4</ele>
        <time>2020-06-28T05:37:34Z</time>
      </trkpt>
      <trkpt lat="49.02554" lon="7.95697">
        <ele>164.3</ele>
        <time>2020-06-28T05:37:35Z</time>
      </trkpt>
      <trkpt lat="49.0255" lon="7.95705">
        <ele>164.3</ele>
        <time>2020-06-28T05:37:36Z</time>
      </trkpt>
      <trkpt lat="49.02546" lon="7.95712">
        <ele>164.2</ele>
        <time>2020-06-28T05:37:37Z</time>
      </trkpt>
      <trkpt lat="49.02542" lon="7.9572">
        <ele>164.2</ele>
        <time>2020-06-28T05:37:38Z</time>
      </trkpt>
      <trkpt lat="49.02538" lon="7.95727">
        <ele>164.1</ele>
        <time>2020-06-28T05:37:39Z</time>
      </trkpt>
      <trkpt lat="49.02533" lon="7.95734">
        <ele>164.1</ele>
        <time>2020-06-28T05:37:40Z</time>
      </trkpt>
      <trkpt lat="49.0253" lon="7.95742">
        <ele>164.1</ele>
        <time>2020-06-28T05:37:41Z</time>
      </trkpt>
      <trkpt lat="49.02525" lon="7.9575">
        <ele>164.1</ele>
        <time>2020-06-28T05:37:42Z</time>
      </trkpt>
      <trkpt lat="49.02521" lon="7.95758">
        <ele>164.1</ele>
        <time>2020-06-28T05:37:43Z</time>
      </trkpt>
      <trkpt lat="49.02517" lon="7.95766">
        <ele>164</ele>
        <time>2020-06-28T05:37:44Z</time>
      </trkpt>
      <trkpt lat="49.02514" lon="7.95775">
        <ele>164</ele>
        <time>2020-06-28T05:37:45Z</time>
      </trkpt>
      <trkpt lat="49.0251" lon="7.95782">
        <ele>164</ele>
        <time>2020-06-28T05:37:46Z</time>
      </trkpt>
      <trkpt lat="49.02506" lon="7.9579">
        <ele>164</ele>
        <time>2020-06-28T05:37:47Z</time>
      </trkpt>
      <trkpt lat="49.02502" lon="7.95797">
        <ele>164.1</ele>
        <time>2020-06-28T05:37:48Z</time>
      </trkpt>
      <trkpt lat="49.02498" lon="7.95805">
        <ele>164.1</ele>
        <time>2020-06-28T05:37:49Z</time>
      </trkpt>
      <trkpt lat="49.02494" lon="7.95813">
        <ele>164.1</ele>
        <time>2020-06-28T05:37:50Z</time>
      </trkpt>
      <trkpt lat="49.0249" lon="7.9582">
        <ele>164.1</ele>
        <time>2020-06-28T05:37:51Z</time>
      </trkpt>
      <trkpt lat="49.02486" lon="7.95828">
        <ele>164.2</ele>
        <time>2020-06-28T05:37:52Z</time>
      </trkpt>
      <trkpt lat="49.02482" lon="7.95836">
        <ele>164.2</ele>
        <time>2020-06-28T05:37:53Z</time>
      </trkpt>
      <trkpt lat="49.02478" lon="7.95843">
        <ele>164.2</ele>
        <time>2020-06-28T05:37:54Z</time>
      </trkpt>
      <trkpt lat="49.02475" lon="7.95851">
        <ele>164.3</ele>
        <time>2020-06-28T05:37:55Z</time>
      </trkpt>
      <trkpt lat="49.02471" lon="7.95858">
        <ele>164.3</ele>
        <time>2020-06-28T05:37:56Z</time>
      </trkpt>
      <trkpt lat="49.02467" lon="7.95866">
        <ele>164.3</ele>
        <time>2020-06-28T05:37:57Z</time>
      </trkpt>
      <trkpt lat="49.02462" lon="7.95873">
        <ele>164.4</ele>
        <time>2020-06-28T05:37:58Z</time>
      </trkpt>
      <trkpt lat="49.02458" lon="7.95879">
        <ele>164.4</ele>
        <time>2020-06-28T05:37:59Z</time>
      </trkpt>
      <trkpt lat="49.02455" lon="7.95886">
        <ele>164.4</ele>
        <time>2020-06-28T05:38:00Z</time>
      </trkpt>
      <trkpt lat="49.02451" lon="7.95894">
        <ele>164.4</ele>
        <time>2020-06-28T05:38:01Z</time>
      </trkpt>
      <trkpt lat="49.02448" lon="7.95901">
        <ele>164.4</ele>
        <time>2020-06-28T05:38:02Z</time>
      </trkpt>
      <trkpt lat="49.02444" lon="7.95908">
        <ele>164.6</ele>
        <time>2020-06-28T05:38:03Z</time>
      </trkpt>
      <trkpt lat="49.0244" lon="7.95915">
        <ele>164.7</ele>
        <time>2020-06-28T05:38:04Z</time>
      </trkpt>
      <trkpt lat="49.02436" lon="7.95921">
        <ele>164.8</ele>
        <time>2020-06-28T05:38:05Z</time>
      </trkpt>
      <trkpt lat="49.02432" lon="7.95927">
        <ele>164.9</ele>
        <time>2020-06-28T05:38:06Z</time>
      </trkpt>
      <trkpt lat="49.02427" lon="7.95933">
        <ele>165</ele>
        <time>2020-06-28T05:38:07Z</time>
      </trkpt>
      <trkpt lat="49.02424" lon="7.95939">
        <ele>165.1</ele>
        <time>2020-06-28T05:38:08Z</time>
      </trkpt>
      <trkpt lat="49.02421" lon="7.95946">
        <ele>165.2</ele>
        <time>2020-06-28T05:38:09Z</time>
      </trkpt>
      <trkpt lat="49.02418" lon="7.95953">
        <ele>165.3</ele>
        <time>2020-06-28T05:38:10Z</time>
      </trkpt>
      <trkpt lat="49.02414" lon="7.95959">
        <ele>165.4</ele>
        <time>2020-06-28T05:38:11Z</time>
      </trkpt>
      <trkpt lat="49.02411" lon="7.95966">
        <ele>165.5</ele>
        <time>2020-06-28T05:38:12Z</time>
      </trkpt>
      <trkpt lat="49.02408" lon="7.95972">
        <ele>165.6</ele>
        <time>2020-06-28T05:38:13Z</time>
      </trkpt>
      <trkpt lat="49.02405" lon="7.95979">
        <ele>165.6</ele>
        <time>2020-06-28T05:38:14Z</time>
      </trkpt>
      <trkpt lat="49.02402" lon="7.95985">
        <ele>165.7</ele>
        <time>2020-06-28T05:38:15Z</time>
      </trkpt>
      <trkpt lat="49.02398" lon="7.95992">
        <ele>165.8</ele>
        <time>2020-06-28T05:38:16Z</time>
      </trkpt>
      <trkpt lat="49.02395" lon="7.95999">
        <ele>165.8</ele>
        <time>2020-06-28T05:38:17Z</time>
      </trkpt>
      <trkpt lat="49.02392" lon="7.96005">
        <ele>165.9</ele>
        <time>2020-06-28T05:38:18Z</time>
      </trkpt>
      <trkpt lat="49.02388" lon="7.96011">
        <ele>165.9</ele>
        <time>2020-06-28T05:38:19Z</time>
      </trkpt>
      <trkpt lat="49.02383" lon="7.96015">
        <ele>165.8</ele>
        <time>2020-06-28T05:38:20Z</time>
      </trkpt>
      <trkpt lat="49.02379" lon="7.96022">
        <ele>165.8</ele>
        <time>2020-06-28T05:38:21Z</time>
      </trkpt>
      <trkpt lat="49.02377" lon="7.96029">
        <ele>165.8</ele>
        <time>2020-06-28T05:38:22Z</time>
      </trkpt>
      <trkpt lat="49.02375" lon="7.96038">
        <ele>165.7</ele>
        <time>2020-06-28T05:38:23Z</time>
      </trkpt>
      <trkpt lat="49.02372" lon="7.96045">
        <ele>165.7</ele>
        <time>2020-06-28T05:38:24Z</time>
      </trkpt>
      <trkpt lat="49.02369" lon="7.96053">
        <ele>165.7</ele>
        <time>2020-06-28T05:38:25Z</time>
      </trkpt>
      <trkpt lat="49.02367" lon="7.96061">
        <ele>165.6</ele>
        <time>2020-06-28T05:38:26Z</time>
      </trkpt>
      <trkpt lat="49.02363" lon="7.96068">
        <ele>165.6</ele>
        <time>2020-06-28T05:38:27Z</time>
      </trkpt>
      <trkpt lat="49.0236" lon="7.96075">
        <ele>165.6</ele>
        <time>2020-06-28T05:38:28Z</time>
      </trkpt>
      <trkpt lat="49.02356" lon="7.96081">
        <ele>165.5</ele>
        <time>2020-06-28T05:38:29Z</time>
      </trkpt>
      <trkpt lat="49.02353" lon="7.96088">
        <ele>165.4</ele>
        <time>2020-06-28T05:38:30Z</time>
      </trkpt>
      <trkpt lat="49.02349" lon="7.96095">
        <ele>165.4</ele>
        <time>2020-06-28T05:38:31Z</time>
      </trkpt>
      <trkpt lat="49.02346" lon="7.96103">
        <ele>165.3</ele>
        <time>2020-06-28T05:38:32Z</time>
      </trkpt>
      <trkpt lat="49.02343" lon="7.96109">
        <ele>165.3</ele>
        <time>2020-06-28T05:38:33Z</time>
      </trkpt>
      <trkpt lat="49.02339" lon="7.96116">
        <ele>165.2</ele>
        <time>2020-06-28T05:38:34Z</time>
      </trkpt>
      <trkpt lat="49.02334" lon="7.96123">
        <ele>165.2</ele>
        <time>2020-06-28T05:38:35Z</time>
      </trkpt>
      <trkpt lat="49.02331" lon="7.9613">
        <ele>165.1</ele>
        <time>2020-06-28T05:38:36Z</time>
      </trkpt>
      <trkpt lat="49.02327" lon="7.96137">
        <ele>165</ele>
        <time>2020-06-28T05:38:37Z</time>
      </trkpt>
      <trkpt lat="49.02324" lon="7.96144">
        <ele>165</ele>
        <time>2020-06-28T05:38:38Z</time>
      </trkpt>
      <trkpt lat="49.02321" lon="7.96152">
        <ele>164.9</ele>
        <time>2020-06-28T05:38:39Z</time>
      </trkpt>
      <trkpt lat="49.02317" lon="7.96158">
        <ele>164.8</ele>
        <time>2020-06-28T05:38:40Z</time>
      </trkpt>
      <trkpt lat="49.02313" lon="7.96165">
        <ele>164.8</ele>
        <time>2020-06-28T05:38:41Z</time>
      </trkpt>
      <trkpt lat="49.02309" lon="7.96172">
        <ele>164.7</ele>
        <time>2020-06-28T05:38:42Z</time>
      </trkpt>
      <trkpt lat="49.02306" lon="7.96179">
        <ele>164.6</ele>
        <time>2020-06-28T05:38:43Z</time>
      </trkpt>
      <trkpt lat="49.02301" lon="7.96185">
        <ele>164.5</ele>
        <time>2020-06-28T05:38:44Z</time>
      </trkpt>
      <trkpt lat="49.02298" lon="7.96192">
        <ele>164.4</ele>
        <time>2020-06-28T05:38:45Z</time>
      </trkpt>
      <trkpt lat="49.02294" lon="7.962">
        <ele>164.3</ele>
        <time>2020-06-28T05:38:46Z</time>
      </trkpt>
      <trkpt lat="49.0229" lon="7.96205">
        <ele>164.1</ele>
        <time>2020-06-28T05:38:47Z</time>
      </trkpt>
      <trkpt lat="49.02286" lon="7.96213">
        <ele>164</ele>
        <time>2020-06-28T05:38:48Z</time>
      </trkpt>
      <trkpt lat="49.02282" lon="7.9622">
        <ele>163.9</ele>
        <time>2020-06-28T05:38:49Z</time>
      </trkpt>
      <trkpt lat="49.02278" lon="7.96228">
        <ele>163.7</ele>
        <time>2020-06-28T05:38:50Z</time>
      </trkpt>
      <trkpt lat="49.02274" lon="7.96235">
        <ele>163.5</ele>
        <time>2020-06-28T05:38:51Z</time>
      </trkpt>
      <trkpt lat="49.02271" lon="7.96244">
        <ele>163.5</ele>
        <time>2020-06-28T05:38:52Z</time>
      </trkpt>
      <trkpt lat="49.02267" lon="7.96252">
        <ele>163.4</ele>
        <time>2020-06-28T05:38:53Z</time>
      </trkpt>
      <trkpt lat="49.02264" lon="7.9626">
        <ele>163.3</ele>
        <time>2020-06-28T05:38:54Z</time>
      </trkpt>
      <trkpt lat="49.0226" lon="7.96267">
        <ele>163.2</ele>
        <time>2020-06-28T05:38:55Z</time>
      </trkpt>
      <trkpt lat="49.02256" lon="7.96275">
        <ele>163.1</ele>
        <time>2020-06-28T05:38:56Z</time>
      </trkpt>
      <trkpt lat="49.02252" lon="7.96283">
        <ele>163</ele>
        <time>2020-06-28T05:38:57Z</time>
      </trkpt>
      <trkpt lat="49.02249" lon="7.9629">
        <ele>162.9</ele>
        <time>2020-06-28T05:38:58Z</time>
      </trkpt>
      <trkpt lat="49.02245" lon="7.96298">
        <ele>162.7</ele>
        <time>2020-06-28T05:38:59Z</time>
      </trkpt>
      <trkpt lat="49.02241" lon="7.96305">
        <ele>162.6</ele>
        <time>2020-06-28T05:39:00Z</time>
      </trkpt>
      <trkpt lat="49.02237" lon="7.96312">
        <ele>162.5</ele>
        <time>2020-06-28T05:39:01Z</time>
      </trkpt>
      <trkpt lat="49.02233" lon="7.96319">
        <ele>162.3</ele>
        <time>2020-06-28T05:39:02Z</time>
      </trkpt>
      <trkpt lat="49.02229" lon="7.96326">
        <ele>162.2</ele>
        <time>2020-06-28T05:39:03Z</time>
      </trkpt>
      <trkpt lat="49.02225" lon="7.96333">
        <ele>162</ele>
        <time>2020-06-28T05:39:04Z</time>
      </trkpt>
      <trkpt lat="49.02222" lon="7.9634">
        <ele>161.9</ele>
        <time>2020-06-28T05:39:05Z</time>
      </trkpt>
      <trkpt lat="49.02218" lon="7.96347">
        <ele>161.7</ele>
        <time>2020-06-28T05:39:06Z</time>
      </trkpt>
      <trkpt lat="49.02214" lon="7.96354">
        <ele>161.6</ele>
        <time>2020-06-28T05:39:07Z</time>
      </trkpt>
      <trkpt lat="49.0221" lon="7.96362">
        <ele>161.4</ele>
        <time>2020-06-28T05:39:08Z</time>
      </trkpt>
      <trkpt lat="49.02206" lon="7.96368">
        <ele>161.3</ele>
        <time>2020-06-28T05:39:09Z</time>
      </trkpt>
      <trkpt lat="49.02202" lon="7.96376">
        <ele>161.2</ele>
        <time>2020-06-28T05:39:10Z</time>
      </trkpt>
      <trkpt lat="49.02199" lon="7.96383">
        <ele>161.1</ele>
        <time>2020-06-28T05:39:11Z</time>
      </trkpt>
      <trkpt lat="49.02194" lon="7.9639">
        <ele>160.9</ele>
        <time>2020-06-28T05:39:12Z</time>
      </trkpt>
      <trkpt lat="49.02191" lon="7.96397">
        <ele>160.8</ele>
        <time>2020-06-28T05:39:13Z</time>
      </trkpt>
      <trkpt lat="49.02188" lon="7.96405">
        <ele>160.7</ele>
        <time>2020-06-28T05:39:14Z</time>
      </trkpt>
      <trkpt lat="49.02185" lon="7.96412">
        <ele>160.6</ele>
        <time>2020-06-28T05:39:15Z</time>
      </trkpt>
      <trkpt lat="49.02181" lon="7.9642">
        <ele>160.5</ele>
        <time>2020-06-28T05:39:16Z</time>
      </trkpt>
      <trkpt lat="49.02178" lon="7.96428">
        <ele>160.4</ele>
        <time>2020-06-28T05:39:17Z</time>
      </trkpt>
      <trkpt lat="49.02174" lon="7.96435">
        <ele>160.3</ele>
        <time>2020-06-28T05:39:18Z</time>
      </trkpt>
      <trkpt lat="49.02171" lon="7.96443">
        <ele>160.2</ele>
        <time>2020-06-28T05:39:19Z</time>
      </trkpt>
      <trkpt lat="49.02168" lon="7.96451">
        <ele>160.1</ele>
        <time>2020-06-28T05:39:20Z</time>
      </trkpt>
      <trkpt lat="49.02166" lon="7.9646">
        <ele>159.9</ele>
        <time>2020-06-28T05:39:21Z</time>
      </trkpt>
      <trkpt lat="49.02164" lon="7.96468">
        <ele>159.9</ele>
        <time>2020-06-28T05:39:22Z</time>
      </trkpt>
      <trkpt lat="49.02162" lon="7.96477">
        <ele>159.8</ele>
        <time>2020-06-28T05:39:23Z</time>
      </trkpt>
      <trkpt lat="49.02162" lon="7.96485">
        <ele>159.7</ele>
        <time>2020-06-28T05:39:24Z</time>
      </trkpt>
      <trkpt lat="49.02161" lon="7.96494">
        <ele>159.7</ele>
        <time>2020-06-28T05:39:25Z</time>
      </trkpt>
      <trkpt lat="49.02159" lon="7.96502">
        <ele>159.7</ele>
        <time>2020-06-28T05:39:26Z</time>
      </trkpt>
      <trkpt lat="49.02158" lon="7.96509">
        <ele>159.6</ele>
        <time>2020-06-28T05:39:27Z</time>
      </trkpt>
      <trkpt lat="49.02157" lon="7.96516">
        <ele>159.6</ele>
        <time>2020-06-28T05:39:28Z</time>
      </trkpt>
      <trkpt lat="49.02154" lon="7.96523">
        <ele>159.6</ele>
        <time>2020-06-28T05:39:29Z</time>
      </trkpt>
      <trkpt lat="49.02151" lon="7.9653">
        <ele>159.5</ele>
        <time>2020-06-28T05:39:30Z</time>
      </trkpt>
      <trkpt lat="49.02147" lon="7.96536">
        <ele>159.4</ele>
        <time>2020-06-28T05:39:31Z</time>
      </trkpt>
      <trkpt lat="49.02142" lon="7.96542">
        <ele>159.4</ele>
        <time>2020-06-28T05:39:32Z</time>
      </trkpt>
      <trkpt lat="49.02137" lon="7.96546">
        <ele>159.3</ele>
        <time>2020-06-28T05:39:33Z</time>
      </trkpt>
      <trkpt lat="49.02131" lon="7.96549">
        <ele>159.3</ele>
        <time>2020-06-28T05:39:34Z</time>
      </trkpt>
      <trkpt lat="49.02126" lon="7.96553">
        <ele>159.3</ele>
        <time>2020-06-28T05:39:35Z</time>
      </trkpt>
      <trkpt lat="49.0212" lon="7.96557">
        <ele>159.3</ele>
        <time>2020-06-28T05:39:36Z</time>
      </trkpt>
      <trkpt lat="49.02115" lon="7.9656">
        <ele>159.4</ele>
        <time>2020-06-28T05:39:37Z</time>
      </trkpt>
      <trkpt lat="49.02109" lon="7.96563">
        <ele>159.4</ele>
        <time>2020-06-28T05:39:38Z</time>
      </trkpt>
      <trkpt lat="49.02104" lon="7.96568">
        <ele>159.4</ele>
        <time>2020-06-28T05:39:39Z</time>
      </trkpt>
      <trkpt lat="49.02098" lon="7.96571">
        <ele>159.5</ele>
        <time>2020-06-28T05:39:40Z</time>
      </trkpt>
      <trkpt lat="49.02093" lon="7.96575">
        <ele>159.6</ele>
        <time>2020-06-28T05:39:41Z</time>
      </trkpt>
      <trkpt lat="49.02087" lon="7.96577">
        <ele>159.7</ele>
        <time>2020-06-28T05:39:42Z</time>
      </trkpt>
      <trkpt lat="49.02082" lon="7.96582">
        <ele>159.8</ele>
        <time>2020-06-28T05:39:43Z</time>
      </trkpt>
      <trkpt lat="49.02077" lon="7.96585">
        <ele>159.9</ele>
        <time>2020-06-28T05:39:44Z</time>
      </trkpt>
      <trkpt lat="49.02072" lon="7.96589">
        <ele>159.9</ele>
        <time>2020-06-28T05:39:45Z</time>
      </trkpt>
      <trkpt lat="49.02067" lon="7.96593">
        <ele>159.9</ele>
        <time>2020-06-28T05:39:47Z</time>
      </trkpt>
      <trkpt lat="49.02062" lon="7.96596">
        <ele>160</ele>
        <time>2020-06-28T05:39:48Z</time>
      </trkpt>
      <trkpt lat="49.02056" lon="7.966">
        <ele>160</ele>
        <time>2020-06-28T05:39:49Z</time>
      </trkpt>
      <trkpt lat="49.02052" lon="7.96604">
        <ele>160.1</ele>
        <time>2020-06-28T05:39:50Z</time>
      </trkpt>
      <trkpt lat="49.02047" lon="7.96608">
        <ele>160.2</ele>
        <time>2020-06-28T05:39:51Z</time>
      </trkpt>
      <trkpt lat="49.02042" lon="7.96612">
        <ele>160.3</ele>
        <time>2020-06-28T05:39:52Z</time>
      </trkpt>
      <trkpt lat="49.02037" lon="7.96615">
        <ele>160.4</ele>
        <time>2020-06-28T05:39:53Z</time>
      </trkpt>
      <trkpt lat="49.02032" lon="7.96619">
        <ele>160.5</ele>
        <time>2020-06-28T05:39:54Z</time>
      </trkpt>
      <trkpt lat="49.02027" lon="7.96622">
        <ele>160.6</ele>
        <time>2020-06-28T05:39:55Z</time>
      </trkpt>
      <trkpt lat="49.02022" lon="7.96623">
        <ele>160.8</ele>
        <time>2020-06-28T05:39:56Z</time>
      </trkpt>
      <trkpt lat="49.02018" lon="7.96625">
        <ele>160.9</ele>
        <time>2020-06-28T05:39:57Z</time>
      </trkpt>
      <trkpt lat="49.02014" lon="7.96627">
        <ele>160.9</ele>
        <time>2020-06-28T05:39:58Z</time>
      </trkpt>
      <trkpt lat="49.0201" lon="7.96631">
        <ele>161</ele>
        <time>2020-06-28T05:39:59Z</time>
      </trkpt>
      <trkpt lat="49.02005" lon="7.96633">
        <ele>161.1</ele>
        <time>2020-06-28T05:40:00Z</time>
      </trkpt>
      <trkpt lat="49.02001" lon="7.96636">
        <ele>161.2</ele>
        <time>2020-06-28T05:40:01Z</time>
      </trkpt>
      <trkpt lat="49.01997" lon="7.96639">
        <ele>161.3</ele>
        <time>2020-06-28T05:40:02Z</time>
      </trkpt>
      <trkpt lat="49.01992" lon="7.96642">
        <ele>161.4</ele>
        <time>2020-06-28T05:40:03Z</time>
      </trkpt>
      <trkpt lat="49.01987" lon="7.96644">
        <ele>161.5</ele>
        <time>2020-06-28T05:40:04Z</time>
      </trkpt>
      <trkpt lat="49.01983" lon="7.96648">
        <ele>161.6</ele>
        <time>2020-06-28T05:40:05Z</time>
      </trkpt>
      <trkpt lat="49.01978" lon="7.96651">
        <ele>161.7</ele>
        <time>2020-06-28T05:40:06Z</time>
      </trkpt>
      <trkpt lat="49.01973" lon="7.96654">
        <ele>161.8</ele>
        <time>2020-06-28T05:40:07Z</time>
      </trkpt>
      <trkpt lat="49.01969" lon="7.96658">
        <ele>161.9</ele>
        <time>2020-06-28T05:40:08Z</time>
      </trkpt>
      <trkpt lat="49.01964" lon="7.96661">
        <ele>162</ele>
        <time>2020-06-28T05:40:09Z</time>
      </trkpt>
      <trkpt lat="49.01958" lon="7.96665">
        <ele>162.1</ele>
        <time>2020-06-28T05:40:10Z</time>
      </trkpt>
      <trkpt lat="49.01953" lon="7.96669">
        <ele>162.2</ele>
        <time>2020-06-28T05:40:11Z</time>
      </trkpt>
      <trkpt lat="49.01948" lon="7.96674">
        <ele>162.3</ele>
        <time>2020-06-28T05:40:12Z</time>
      </trkpt>
      <trkpt lat="49.01944" lon="7.96677">
        <ele>162.4</ele>
        <time>2020-06-28T05:40:13Z</time>
      </trkpt>
      <trkpt lat="49.01941" lon="7.9668">
        <ele>162.5</ele>
        <time>2020-06-28T05:40:14Z</time>
      </trkpt>
      <trkpt lat="49.01937" lon="7.96682">
        <ele>162.6</ele>
        <time>2020-06-28T05:40:15Z</time>
      </trkpt>
      <trkpt lat="49.01932" lon="7.96686">
        <ele>162.7</ele>
        <time>2020-06-28T05:40:16Z</time>
      </trkpt>
      <trkpt lat="49.01928" lon="7.96689">
        <ele>162.7</ele>
        <time>2020-06-28T05:40:17Z</time>
      </trkpt>
      <trkpt lat="49.01923" lon="7.96693">
        <ele>162.8</ele>
        <time>2020-06-28T05:40:18Z</time>
      </trkpt>
      <trkpt lat="49.01917" lon="7.96698">
        <ele>162.8</ele>
        <time>2020-06-28T05:40:19Z</time>
      </trkpt>
      <trkpt lat="49.01913" lon="7.96701">
        <ele>162.9</ele>
        <time>2020-06-28T05:40:20Z</time>
      </trkpt>
      <trkpt lat="49.01909" lon="7.96704">
        <ele>163</ele>
        <time>2020-06-28T05:40:21Z</time>
      </trkpt>
      <trkpt lat="49.01902" lon="7.96707">
        <ele>163.1</ele>
        <time>2020-06-28T05:40:22Z</time>
      </trkpt>
      <trkpt lat="49.01897" lon="7.96711">
        <ele>163.2</ele>
        <time>2020-06-28T05:40:23Z</time>
      </trkpt>
      <trkpt lat="49.01892" lon="7.96714">
        <ele>163.3</ele>
        <time>2020-06-28T05:40:24Z</time>
      </trkpt>
      <trkpt lat="49.01888" lon="7.96716">
        <ele>163.4</ele>
        <time>2020-06-28T05:40:25Z</time>
      </trkpt>
      <trkpt lat="49.01883" lon="7.96719">
        <ele>163.5</ele>
        <time>2020-06-28T05:40:26Z</time>
      </trkpt>
      <trkpt lat="49.01878" lon="7.96722">
        <ele>163.6</ele>
        <time>2020-06-28T05:40:27Z</time>
      </trkpt>
      <trkpt lat="49.01873" lon="7.96726">
        <ele>163.7</ele>
        <time>2020-06-28T05:40:28Z</time>
      </trkpt>
      <trkpt lat="49.01868" lon="7.96729">
        <ele>163.8</ele>
        <time>2020-06-28T05:40:29Z</time>
      </trkpt>
      <trkpt lat="49.01864" lon="7.96732">
        <ele>163.8</ele>
        <time>2020-06-28T05:40:30Z</time>
      </trkpt>
      <trkpt lat="49.0186" lon="7.96734">
        <ele>163.8</ele>
        <time>2020-06-28T05:40:31Z</time>
      </trkpt>
      <trkpt lat="49.01855" lon="7.96737">
        <ele>163.7</ele>
        <time>2020-06-28T05:40:32Z</time>
      </trkpt>
      <trkpt lat="49.0185" lon="7.9674">
        <ele>163.7</ele>
        <time>2020-06-28T05:40:33Z</time>
      </trkpt>
      <trkpt lat="49.01845" lon="7.96743">
        <ele>163.7</ele>
        <time>2020-06-28T05:40:34Z</time>
      </trkpt>
      <trkpt lat="49.0184" lon="7.96747">
        <ele>163.7</ele>
        <time>2020-06-28T05:40:35Z</time>
      </trkpt>
      <trkpt lat="49.01829" lon="7.96753">
        <ele>163.8</ele>
        <time>2020-06-28T05:40:36Z</time>
      </trkpt>
      <trkpt lat="49.01823" lon="7.96756">
        <ele>163.9</ele>
        <time>2020-06-28T05:40:37Z</time>
      </trkpt>
      <trkpt lat="49.01818" lon="7.96759">
        <ele>163.9</ele>
        <time>2020-06-28T05:40:38Z</time>
      </trkpt>
      <trkpt lat="49.01813" lon="7.96762">
        <ele>164</ele>
        <time>2020-06-28T05:40:39Z</time>
      </trkpt>
      <trkpt lat="49.01809" lon="7.96765">
        <ele>164</ele>
        <time>2020-06-28T05:40:40Z</time>
      </trkpt>
      <trkpt lat="49.01803" lon="7.96769">
        <ele>164</ele>
        <time>2020-06-28T05:40:41Z</time>
      </trkpt>
      <trkpt lat="49.01798" lon="7.96772">
        <ele>164.1</ele>
        <time>2020-06-28T05:40:42Z</time>
      </trkpt>
      <trkpt lat="49.01793" lon="7.96775">
        <ele>164.1</ele>
        <time>2020-06-28T05:40:43Z</time>
      </trkpt>
      <trkpt lat="49.01788" lon="7.96778">
        <ele>164.1</ele>
        <time>2020-06-28T05:40:44Z</time>
      </trkpt>
      <trkpt lat="49.01783" lon="7.96781">
        <ele>164.1</ele>
        <time>2020-06-28T05:40:45Z</time>
      </trkpt>
      <trkpt lat="49.01777" lon="7.96784">
        <ele>164.1</ele>
        <time>2020-06-28T05:40:46Z</time>
      </trkpt>
      <trkpt lat="49.01772" lon="7.96787">
        <ele>164.1</ele>
        <time>2020-06-28T05:40:47Z</time>
      </trkpt>
      <trkpt lat="49.01767" lon="7.96789">
        <ele>164.1</ele>
        <time>2020-06-28T05:40:48Z</time>
      </trkpt>
      <trkpt lat="49.01761" lon="7.96792">
        <ele>164.2</ele>
        <time>2020-06-28T05:40:49Z</time>
      </trkpt>
      <trkpt lat="49.01756" lon="7.96795">
        <ele>164.2</ele>
        <time>2020-06-28T05:40:50Z</time>
      </trkpt>
      <trkpt lat="49.0175" lon="7.96798">
        <ele>164.2</ele>
        <time>2020-06-28T05:40:51Z</time>
      </trkpt>
      <trkpt lat="49.01743" lon="7.968">
        <ele>164.2</ele>
        <time>2020-06-28T05:40:52Z</time>
      </trkpt>
      <trkpt lat="49.01739" lon="7.96802">
        <ele>164.2</ele>
        <time>2020-06-28T05:40:53Z</time>
      </trkpt>
      <trkpt lat="49.01734" lon="7.96805">
        <ele>164.2</ele>
        <time>2020-06-28T05:40:54Z</time>
      </trkpt>
      <trkpt lat="49.01729" lon="7.96807">
        <ele>164.3</ele>
        <time>2020-06-28T05:40:55Z</time>
      </trkpt>
      <trkpt lat="49.01725" lon="7.96811">
        <ele>164.3</ele>
        <time>2020-06-28T05:40:56Z</time>
      </trkpt>
      <trkpt lat="49.01719" lon="7.96815">
        <ele>164.3</ele>
        <time>2020-06-28T05:40:57Z</time>
      </trkpt>
      <trkpt lat="49.01714" lon="7.96818">
        <ele>164.4</ele>
        <time>2020-06-28T05:40:58Z</time>
      </trkpt>
      <trkpt lat="49.01708" lon="7.96822">
        <ele>164.4</ele>
        <time>2020-06-28T05:40:59Z</time>
      </trkpt>
      <trkpt lat="49.01702" lon="7.96825">
        <ele>164.4</ele>
        <time>2020-06-28T05:41:00Z</time>
      </trkpt>
      <trkpt lat="49.01696" lon="7.96827">
        <ele>164.5</ele>
        <time>2020-06-28T05:41:01Z</time>
      </trkpt>
      <trkpt lat="49.01691" lon="7.96831">
        <ele>164.5</ele>
        <time>2020-06-28T05:41:02Z</time>
      </trkpt>
      <trkpt lat="49.01686" lon="7.96833">
        <ele>164.5</ele>
        <time>2020-06-28T05:41:03Z</time>
      </trkpt>
      <trkpt lat="49.0168" lon="7.96837">
        <ele>164.6</ele>
        <time>2020-06-28T05:41:04Z</time>
      </trkpt>
      <trkpt lat="49.01675" lon="7.96839">
        <ele>164.6</ele>
        <time>2020-06-28T05:41:05Z</time>
      </trkpt>
      <trkpt lat="49.0167" lon="7.96842">
        <ele>164.6</ele>
        <time>2020-06-28T05:41:06Z</time>
      </trkpt>
      <trkpt lat="49.01666" lon="7.96844">
        <ele>164.7</ele>
        <time>2020-06-28T05:41:07Z</time>
      </trkpt>
      <trkpt lat="49.01661" lon="7.96847">
        <ele>164.7</ele>
        <time>2020-06-28T05:41:08Z</time>
      </trkpt>
      <trkpt lat="49.01657" lon="7.96849">
        <ele>164.8</ele>
        <time>2020-06-28T05:41:09Z</time>
      </trkpt>
      <trkpt lat="49.01653" lon="7.96852">
        <ele>164.8</ele>
        <time>2020-06-28T05:41:10Z</time>
      </trkpt>
      <trkpt lat="49.01648" lon="7.96856">
        <ele>164.8</ele>
        <time>2020-06-28T05:41:11Z</time>
      </trkpt>
      <trkpt lat="49.01645" lon="7.96859">
        <ele>164.7</ele>
        <time>2020-06-28T05:41:12Z</time>
      </trkpt>
      <trkpt lat="49.01639" lon="7.96863">
        <ele>164.6</ele>
        <time>2020-06-28T05:41:13Z</time>
      </trkpt>
      <trkpt lat="49.01634" lon="7.96865">
        <ele>164.6</ele>
        <time>2020-06-28T05:41:14Z</time>
      </trkpt>
      <trkpt lat="49.01629" lon="7.96867">
        <ele>164.5</ele>
        <time>2020-06-28T05:41:15Z</time>
      </trkpt>
      <trkpt lat="49.01624" lon="7.96869">
        <ele>164.5</ele>
        <time>2020-06-28T05:41:16Z</time>
      </trkpt>
      <trkpt lat="49.01619" lon="7.9687">
        <ele>164.5</ele>
        <time>2020-06-28T05:41:17Z</time>
      </trkpt>
      <trkpt lat="49.01614" lon="7.96872">
        <ele>164.5</ele>
        <time>2020-06-28T05:41:18Z</time>
      </trkpt>
      <trkpt lat="49.01609" lon="7.96875">
        <ele>164.6</ele>
        <time>2020-06-28T05:41:19Z</time>
      </trkpt>
      <trkpt lat="49.01604" lon="7.96876">
        <ele>164.6</ele>
        <time>2020-06-28T05:41:20Z</time>
      </trkpt>
      <trkpt lat="49.01598" lon="7.96878">
        <ele>164.7</ele>
        <time>2020-06-28T05:41:21Z</time>
      </trkpt>
      <trkpt lat="49.01594" lon="7.96879">
        <ele>164.7</ele>
        <time>2020-06-28T05:41:22Z</time>
      </trkpt>
      <trkpt lat="49.01588" lon="7.96884">
        <ele>164.8</ele>
        <time>2020-06-28T05:41:23Z</time>
      </trkpt>
      <trkpt lat="49.01583" lon="7.96887">
        <ele>164.8</ele>
        <time>2020-06-28T05:41:24Z</time>
      </trkpt>
      <trkpt lat="49.01579" lon="7.96889">
        <ele>164.9</ele>
        <time>2020-06-28T05:41:25Z</time>
      </trkpt>
      <trkpt lat="49.01574" lon="7.96892">
        <ele>164.9</ele>
        <time>2020-06-28T05:41:26Z</time>
      </trkpt>
      <trkpt lat="49.01568" lon="7.96895">
        <ele>165</ele>
        <time>2020-06-28T05:41:27Z</time>
      </trkpt>
      <trkpt lat="49.01564" lon="7.96898">
        <ele>165.1</ele>
        <time>2020-06-28T05:41:28Z</time>
      </trkpt>
      <trkpt lat="49.01559" lon="7.96901">
        <ele>165.2</ele>
        <time>2020-06-28T05:41:29Z</time>
      </trkpt>
      <trkpt lat="49.01555" lon="7.96903">
        <ele>165.2</ele>
        <time>2020-06-28T05:41:30Z</time>
      </trkpt>
      <trkpt lat="49.01551" lon="7.96907">
        <ele>165.3</ele>
        <time>2020-06-28T05:41:31Z</time>
      </trkpt>
      <trkpt lat="49.01547" lon="7.96909">
        <ele>165.3</ele>
        <time>2020-06-28T05:41:32Z</time>
      </trkpt>
      <trkpt lat="49.01543" lon="7.96911">
        <ele>165.4</ele>
        <time>2020-06-28T05:41:33Z</time>
      </trkpt>
      <trkpt lat="49.01539" lon="7.96916">
        <ele>165.4</ele>
        <time>2020-06-28T05:41:34Z</time>
      </trkpt>
      <trkpt lat="49.01535" lon="7.96922">
        <ele>165.5</ele>
        <time>2020-06-28T05:41:35Z</time>
      </trkpt>
      <trkpt lat="49.01535" lon="7.9693">
        <ele>165.4</ele>
        <time>2020-06-28T05:41:36Z</time>
      </trkpt>
      <trkpt lat="49.01537" lon="7.96937">
        <ele>165.4</ele>
        <time>2020-06-28T05:41:37Z</time>
      </trkpt>
      <trkpt lat="49.01539" lon="7.96947">
        <ele>165.3</ele>
        <time>2020-06-28T05:41:38Z</time>
      </trkpt>
      <trkpt lat="49.0154" lon="7.96956">
        <ele>165.2</ele>
        <time>2020-06-28T05:41:39Z</time>
      </trkpt>
      <trkpt lat="49.0154" lon="7.96963">
        <ele>165.2</ele>
        <time>2020-06-28T05:41:40Z</time>
      </trkpt>
      <trkpt lat="49.01539" lon="7.96971">
        <ele>165.1</ele>
        <time>2020-06-28T05:41:41Z</time>
      </trkpt>
      <trkpt lat="49.01536" lon="7.96979">
        <ele>165</ele>
        <time>2020-06-28T05:41:42Z</time>
      </trkpt>
      <trkpt lat="49.01532" lon="7.96987">
        <ele>164.9</ele>
        <time>2020-06-28T05:41:43Z</time>
      </trkpt>
      <trkpt lat="49.01528" lon="7.96996">
        <ele>164.9</ele>
        <time>2020-06-28T05:41:44Z</time>
      </trkpt>
      <trkpt lat="49.01525" lon="7.97002">
        <ele>164.8</ele>
        <time>2020-06-28T05:41:45Z</time>
      </trkpt>
      <trkpt lat="49.01521" lon="7.97008">
        <ele>164.8</ele>
        <time>2020-06-28T05:41:46Z</time>
      </trkpt>
      <trkpt lat="49.01517" lon="7.97014">
        <ele>164.7</ele>
        <time>2020-06-28T05:41:47Z</time>
      </trkpt>
      <trkpt lat="49.01512" lon="7.97021">
        <ele>164.7</ele>
        <time>2020-06-28T05:41:48Z</time>
      </trkpt>
      <trkpt lat="49.01509" lon="7.97028">
        <ele>164.7</ele>
        <time>2020-06-28T05:41:49Z</time>
      </trkpt>
      <trkpt lat="49.01505" lon="7.97034">
        <ele>164.7</ele>
        <time>2020-06-28T05:41:50Z</time>
      </trkpt>
      <trkpt lat="49.01501" lon="7.9704">
        <ele>164.7</ele>
        <time>2020-06-28T05:41:51Z</time>
      </trkpt>
      <trkpt lat="49.01495" lon="7.97048">
        <ele>164.7</ele>
        <time>2020-06-28T05:41:52Z</time>
      </trkpt>
      <trkpt lat="49.01491" lon="7.97054">
        <ele>164.7</ele>
        <time>2020-06-28T05:41:53Z</time>
      </trkpt>
      <trkpt lat="49.01486" lon="7.97058">
        <ele>164.7</ele>
        <time>2020-06-28T05:41:54Z</time>
      </trkpt>
      <trkpt lat="49.01482" lon="7.97064">
        <ele>164.8</ele>
        <time>2020-06-28T05:41:55Z</time>
      </trkpt>
      <trkpt lat="49.01477" lon="7.97069">
        <ele>164.8</ele>
        <time>2020-06-28T05:41:56Z</time>
      </trkpt>
      <trkpt lat="49.01472" lon="7.97075">
        <ele>164.9</ele>
        <time>2020-06-28T05:41:57Z</time>
      </trkpt>
      <trkpt lat="49.01466" lon="7.97081">
        <ele>164.9</ele>
        <time>2020-06-28T05:41:58Z</time>
      </trkpt>
      <trkpt lat="49.0146" lon="7.97086">
        <ele>165</ele>
        <time>2020-06-28T05:41:59Z</time>
      </trkpt>
      <trkpt lat="49.01454" lon="7.97091">
        <ele>165.1</ele>
        <time>2020-06-28T05:42:00Z</time>
      </trkpt>
      <trkpt lat="49.01449" lon="7.97097">
        <ele>165.2</ele>
        <time>2020-06-28T05:42:01Z</time>
      </trkpt>
      <trkpt lat="49.01444" lon="7.97102">
        <ele>165.2</ele>
        <time>2020-06-28T05:42:02Z</time>
      </trkpt>
      <trkpt lat="49.01439" lon="7.97107">
        <ele>165.1</ele>
        <time>2020-06-28T05:42:03Z</time>
      </trkpt>
      <trkpt lat="49.01434" lon="7.97111">
        <ele>165</ele>
        <time>2020-06-28T05:42:04Z</time>
      </trkpt>
      <trkpt lat="49.01431" lon="7.97115">
        <ele>165</ele>
        <time>2020-06-28T05:42:05Z</time>
      </trkpt>
      <trkpt lat="49.01426" lon="7.97119">
        <ele>165</ele>
        <time>2020-06-28T05:42:06Z</time>
      </trkpt>
      <trkpt lat="49.01421" lon="7.97124">
        <ele>165</ele>
        <time>2020-06-28T05:42:07Z</time>
      </trkpt>
      <trkpt lat="49.01416" lon="7.97128">
        <ele>165</ele>
        <time>2020-06-28T05:42:08Z</time>
      </trkpt>
      <trkpt lat="49.01411" lon="7.97132">
        <ele>165</ele>
        <time>2020-06-28T05:42:09Z</time>
      </trkpt>
      <trkpt lat="49.01406" lon="7.97137">
        <ele>165</ele>
        <time>2020-06-28T05:42:10Z</time>
      </trkpt>
      <trkpt lat="49.014" lon="7.97142">
        <ele>165</ele>
        <time>2020-06-28T05:42:11Z</time>
      </trkpt>
      <trkpt lat="49.01395" lon="7.97146">
        <ele>165</ele>
        <time>2020-06-28T05:42:12Z</time>
      </trkpt>
      <trkpt lat="49.01389" lon="7.97151">
        <ele>165</ele>
        <time>2020-06-28T05:42:13Z</time>
      </trkpt>
      <trkpt lat="49.01383" lon="7.97156">
        <ele>165</ele>
        <time>2020-06-28T05:42:14Z</time>
      </trkpt>
      <trkpt lat="49.01379" lon="7.97161">
        <ele>165.1</ele>
        <time>2020-06-28T05:42:15Z</time>
      </trkpt>
      <trkpt lat="49.01374" lon="7.97166">
        <ele>165.1</ele>
        <time>2020-06-28T05:42:16Z</time>
      </trkpt>
      <trkpt lat="49.01368" lon="7.97171">
        <ele>165.2</ele>
        <time>2020-06-28T05:42:17Z</time>
      </trkpt>
      <trkpt lat="49.01363" lon="7.97176">
        <ele>165.3</ele>
        <time>2020-06-28T05:42:18Z</time>
      </trkpt>
      <trkpt lat="49.01358" lon="7.97181">
        <ele>165.3</ele>
        <time>2020-06-28T05:42:19Z</time>
      </trkpt>
      <trkpt lat="49.01353" lon="7.97187">
        <ele>165.3</ele>
        <time>2020-06-28T05:42:20Z</time>
      </trkpt>
      <trkpt lat="49.01349" lon="7.97193">
        <ele>165.3</ele>
        <time>2020-06-28T05:42:21Z</time>
      </trkpt>
      <trkpt lat="49.01344" lon="7.97199">
        <ele>165.2</ele>
        <time>2020-06-28T05:42:22Z</time>
      </trkpt>
      <trkpt lat="49.0134" lon="7.97205">
        <ele>165.2</ele>
        <time>2020-06-28T05:42:23Z</time>
      </trkpt>
      <trkpt lat="49.01336" lon="7.97212">
        <ele>165.1</ele>
        <time>2020-06-28T05:42:24Z</time>
      </trkpt>
      <trkpt lat="49.01331" lon="7.97219">
        <ele>165.1</ele>
        <time>2020-06-28T05:42:25Z</time>
      </trkpt>
      <trkpt lat="49.01327" lon="7.97226">
        <ele>165.1</ele>
        <time>2020-06-28T05:42:26Z</time>
      </trkpt>
      <trkpt lat="49.01322" lon="7.97233">
        <ele>165</ele>
        <time>2020-06-28T05:42:27Z</time>
      </trkpt>
      <trkpt lat="49.01317" lon="7.9724">
        <ele>164.8</ele>
        <time>2020-06-28T05:42:28Z</time>
      </trkpt>
      <trkpt lat="49.01313" lon="7.97247">
        <ele>164.8</ele>
        <time>2020-06-28T05:42:29Z</time>
      </trkpt>
      <trkpt lat="49.01308" lon="7.97254">
        <ele>164.7</ele>
        <time>2020-06-28T05:42:30Z</time>
      </trkpt>
      <trkpt lat="49.01304" lon="7.97261">
        <ele>164.7</ele>
        <time>2020-06-28T05:42:31Z</time>
      </trkpt>
      <trkpt lat="49.013" lon="7.97268">
        <ele>164.6</ele>
        <time>2020-06-28T05:42:32Z</time>
      </trkpt>
      <trkpt lat="49.01295" lon="7.97276">
        <ele>164.6</ele>
        <time>2020-06-28T05:42:33Z</time>
      </trkpt>
      <trkpt lat="49.01291" lon="7.97283">
        <ele>164.6</ele>
        <time>2020-06-28T05:42:34Z</time>
      </trkpt>
      <trkpt lat="49.01287" lon="7.9729">
        <ele>164.7</ele>
        <time>2020-06-28T05:42:35Z</time>
      </trkpt>
      <trkpt lat="49.01283" lon="7.97297">
        <ele>164.7</ele>
        <time>2020-06-28T05:42:36Z</time>
      </trkpt>
      <trkpt lat="49.01278" lon="7.97304">
        <ele>164.7</ele>
        <time>2020-06-28T05:42:37Z</time>
      </trkpt>
      <trkpt lat="49.01273" lon="7.97312">
        <ele>164.7</ele>
        <time>2020-06-28T05:42:38Z</time>
      </trkpt>
      <trkpt lat="49.01269" lon="7.97319">
        <ele>164.7</ele>
        <time>2020-06-28T05:42:39Z</time>
      </trkpt>
      <trkpt lat="49.01265" lon="7.97325">
        <ele>164.7</ele>
        <time>2020-06-28T05:42:40Z</time>
      </trkpt>
      <trkpt lat="49.01261" lon="7.97332">
        <ele>164.7</ele>
        <time>2020-06-28T05:42:41Z</time>
      </trkpt>
      <trkpt lat="49.01257" lon="7.9734">
        <ele>164.7</ele>
        <time>2020-06-28T05:42:42Z</time>
      </trkpt>
      <trkpt lat="49.01252" lon="7.97347">
        <ele>164.7</ele>
        <time>2020-06-28T05:42:43Z</time>
      </trkpt>
      <trkpt lat="49.01248" lon="7.97354">
        <ele>164.7</ele>
        <time>2020-06-28T05:42:44Z</time>
      </trkpt>
      <trkpt lat="49.01243" lon="7.97361">
        <ele>164.7</ele>
        <time>2020-06-28T05:42:45Z</time>
      </trkpt>
      <trkpt lat="49.01239" lon="7.97368">
        <ele>164.7</ele>
        <time>2020-06-28T05:42:46Z</time>
      </trkpt>
      <trkpt lat="49.01234" lon="7.97375">
        <ele>164.7</ele>
        <time>2020-06-28T05:42:47Z</time>
      </trkpt>
      <trkpt lat="49.0123" lon="7.97383">
        <ele>164.8</ele>
        <time>2020-06-28T05:42:48Z</time>
      </trkpt>
      <trkpt lat="49.01225" lon="7.9739">
        <ele>164.8</ele>
        <time>2020-06-28T05:42:49Z</time>
      </trkpt>
      <trkpt lat="49.0122" lon="7.97398">
        <ele>164.8</ele>
        <time>2020-06-28T05:42:50Z</time>
      </trkpt>
      <trkpt lat="49.01215" lon="7.97405">
        <ele>164.8</ele>
        <time>2020-06-28T05:42:51Z</time>
      </trkpt>
      <trkpt lat="49.01211" lon="7.97412">
        <ele>164.7</ele>
        <time>2020-06-28T05:42:52Z</time>
      </trkpt>
      <trkpt lat="49.01205" lon="7.97418">
        <ele>164.6</ele>
        <time>2020-06-28T05:42:53Z</time>
      </trkpt>
      <trkpt lat="49.01199" lon="7.97424">
        <ele>164.6</ele>
        <time>2020-06-28T05:42:54Z</time>
      </trkpt>
      <trkpt lat="49.01193" lon="7.97431">
        <ele>164.6</ele>
        <time>2020-06-28T05:42:55Z</time>
      </trkpt>
      <trkpt lat="49.01187" lon="7.97437">
        <ele>164.5</ele>
        <time>2020-06-28T05:42:56Z</time>
      </trkpt>
      <trkpt lat="49.01182" lon="7.97445">
        <ele>164.5</ele>
        <time>2020-06-28T05:42:57Z</time>
      </trkpt>
      <trkpt lat="49.01176" lon="7.97452">
        <ele>164.5</ele>
        <time>2020-06-28T05:42:58Z</time>
      </trkpt>
      <trkpt lat="49.0117" lon="7.97459">
        <ele>164.5</ele>
        <time>2020-06-28T05:42:59Z</time>
      </trkpt>
      <trkpt lat="49.01164" lon="7.97466">
        <ele>164.5</ele>
        <time>2020-06-28T05:43:00Z</time>
      </trkpt>
      <trkpt lat="49.01158" lon="7.97472">
        <ele>164.4</ele>
        <time>2020-06-28T05:43:01Z</time>
      </trkpt>
      <trkpt lat="49.01153" lon="7.97478">
        <ele>164.4</ele>
        <time>2020-06-28T05:43:02Z</time>
      </trkpt>
      <trkpt lat="49.01147" lon="7.97485">
        <ele>164.4</ele>
        <time>2020-06-28T05:43:03Z</time>
      </trkpt>
      <trkpt lat="49.01142" lon="7.97491">
        <ele>164.4</ele>
        <time>2020-06-28T05:43:04Z</time>
      </trkpt>
      <trkpt lat="49.01137" lon="7.97497">
        <ele>164.4</ele>
        <time>2020-06-28T05:43:05Z</time>
      </trkpt>
      <trkpt lat="49.01132" lon="7.97504">
        <ele>164.4</ele>
        <time>2020-06-28T05:43:06Z</time>
      </trkpt>
      <trkpt lat="49.01127" lon="7.9751">
        <ele>164.4</ele>
        <time>2020-06-28T05:43:07Z</time>
      </trkpt>
      <trkpt lat="49.01122" lon="7.97516">
        <ele>164.4</ele>
        <time>2020-06-28T05:43:08Z</time>
      </trkpt>
      <trkpt lat="49.01117" lon="7.97522">
        <ele>164.4</ele>
        <time>2020-06-28T05:43:09Z</time>
      </trkpt>
      <trkpt lat="49.01112" lon="7.97527">
        <ele>164.4</ele>
        <time>2020-06-28T05:43:10Z</time>
      </trkpt>
      <trkpt lat="49.01108" lon="7.97533">
        <ele>164.4</ele>
        <time>2020-06-28T05:43:11Z</time>
      </trkpt>
      <trkpt lat="49.01103" lon="7.97538">
        <ele>164.5</ele>
        <time>2020-06-28T05:43:12Z</time>
      </trkpt>
      <trkpt lat="49.01097" lon="7.97543">
        <ele>164.5</ele>
        <time>2020-06-28T05:43:13Z</time>
      </trkpt>
      <trkpt lat="49.01093" lon="7.97548">
        <ele>164.5</ele>
        <time>2020-06-28T05:43:14Z</time>
      </trkpt>
      <trkpt lat="49.01088" lon="7.97552">
        <ele>164.6</ele>
        <time>2020-06-28T05:43:15Z</time>
      </trkpt>
      <trkpt lat="49.01084" lon="7.97557">
        <ele>164.7</ele>
        <time>2020-06-28T05:43:16Z</time>
      </trkpt>
      <trkpt lat="49.01079" lon="7.97563">
        <ele>164.8</ele>
        <time>2020-06-28T05:43:17Z</time>
      </trkpt>
      <trkpt lat="49.01075" lon="7.97569">
        <ele>164.8</ele>
        <time>2020-06-28T05:43:18Z</time>
      </trkpt>
      <trkpt lat="49.0107" lon="7.97575">
        <ele>164.9</ele>
        <time>2020-06-28T05:43:19Z</time>
      </trkpt>
      <trkpt lat="49.01065" lon="7.97581">
        <ele>165</ele>
        <time>2020-06-28T05:43:20Z</time>
      </trkpt>
      <trkpt lat="49.0106" lon="7.97587">
        <ele>165</ele>
        <time>2020-06-28T05:43:21Z</time>
      </trkpt>
      <trkpt lat="49.01055" lon="7.97593">
        <ele>165.1</ele>
        <time>2020-06-28T05:43:22Z</time>
      </trkpt>
      <trkpt lat="49.0105" lon="7.97598">
        <ele>165.1</ele>
        <time>2020-06-28T05:43:23Z</time>
      </trkpt>
      <trkpt lat="49.01045" lon="7.97604">
        <ele>165.2</ele>
        <time>2020-06-28T05:43:24Z</time>
      </trkpt>
      <trkpt lat="49.0104" lon="7.97609">
        <ele>165.2</ele>
        <time>2020-06-28T05:43:25Z</time>
      </trkpt>
      <trkpt lat="49.01035" lon="7.97615">
        <ele>165.3</ele>
        <time>2020-06-28T05:43:26Z</time>
      </trkpt>
      <trkpt lat="49.0103" lon="7.97619">
        <ele>165.3</ele>
        <time>2020-06-28T05:43:27Z</time>
      </trkpt>
      <trkpt lat="49.01025" lon="7.97624">
        <ele>165.4</ele>
        <time>2020-06-28T05:43:28Z</time>
      </trkpt>
      <trkpt lat="49.0102" lon="7.97629">
        <ele>165.4</ele>
        <time>2020-06-28T05:43:29Z</time>
      </trkpt>
      <trkpt lat="49.01014" lon="7.97633">
        <ele>165.4</ele>
        <time>2020-06-28T05:43:30Z</time>
      </trkpt>
      <trkpt lat="49.01009" lon="7.97638">
        <ele>165.4</ele>
        <time>2020-06-28T05:43:31Z</time>
      </trkpt>
      <trkpt lat="49.01003" lon="7.97643">
        <ele>165.4</ele>
        <time>2020-06-28T05:43:32Z</time>
      </trkpt>
      <trkpt lat="49.00997" lon="7.97648">
        <ele>165.4</ele>
        <time>2020-06-28T05:43:33Z</time>
      </trkpt>
      <trkpt lat="49.00992" lon="7.97652">
        <ele>165.5</ele>
        <time>2020-06-28T05:43:34Z</time>
      </trkpt>
      <trkpt lat="49.00986" lon="7.97657">
        <ele>165.5</ele>
        <time>2020-06-28T05:43:35Z</time>
      </trkpt>
      <trkpt lat="49.0098" lon="7.9766">
        <ele>165.5</ele>
        <time>2020-06-28T05:43:36Z</time>
      </trkpt>
      <trkpt lat="49.00974" lon="7.97665">
        <ele>165.5</ele>
        <time>2020-06-28T05:43:37Z</time>
      </trkpt>
      <trkpt lat="49.00968" lon="7.97669">
        <ele>165.5</ele>
        <time>2020-06-28T05:43:38Z</time>
      </trkpt>
      <trkpt lat="49.00962" lon="7.97673">
        <ele>165.5</ele>
        <time>2020-06-28T05:43:39Z</time>
      </trkpt>
      <trkpt lat="49.00956" lon="7.97678">
        <ele>165.6</ele>
        <time>2020-06-28T05:43:40Z</time>
      </trkpt>
      <trkpt lat="49.00951" lon="7.97682">
        <ele>165.6</ele>
        <time>2020-06-28T05:43:41Z</time>
      </trkpt>
      <trkpt lat="49.00945" lon="7.97687">
        <ele>165.7</ele>
        <time>2020-06-28T05:43:42Z</time>
      </trkpt>
      <trkpt lat="49.00939" lon="7.97692">
        <ele>165.7</ele>
        <time>2020-06-28T05:43:43Z</time>
      </trkpt>
      <trkpt lat="49.00934" lon="7.97697">
        <ele>165.7</ele>
        <time>2020-06-28T05:43:44Z</time>
      </trkpt>
      <trkpt lat="49.00928" lon="7.97701">
        <ele>165.7</ele>
        <time>2020-06-28T05:43:45Z</time>
      </trkpt>
      <trkpt lat="49.00922" lon="7.97705">
        <ele>165.8</ele>
        <time>2020-06-28T05:43:46Z</time>
      </trkpt>
      <trkpt lat="49.00917" lon="7.9771">
        <ele>165.8</ele>
        <time>2020-06-28T05:43:47Z</time>
      </trkpt>
      <trkpt lat="49.00912" lon="7.97715">
        <ele>165.8</ele>
        <time>2020-06-28T05:43:48Z</time>
      </trkpt>
      <trkpt lat="49.00906" lon="7.97719">
        <ele>165.8</ele>
        <time>2020-06-28T05:43:49Z</time>
      </trkpt>
      <trkpt lat="49.00901" lon="7.97724">
        <ele>165.8</ele>
        <time>2020-06-28T05:43:50Z</time>
      </trkpt>
      <trkpt lat="49.00896" lon="7.97729">
        <ele>165.9</ele>
        <time>2020-06-28T05:43:51Z</time>
      </trkpt>
      <trkpt lat="49.0089" lon="7.97735">
        <ele>166</ele>
        <time>2020-06-28T05:43:52Z</time>
      </trkpt>
      <trkpt lat="49.00885" lon="7.9774">
        <ele>166</ele>
        <time>2020-06-28T05:43:53Z</time>
      </trkpt>
      <trkpt lat="49.0088" lon="7.97745">
        <ele>166.1</ele>
        <time>2020-06-28T05:43:54Z</time>
      </trkpt>
      <trkpt lat="49.00876" lon="7.97751">
        <ele>166.1</ele>
        <time>2020-06-28T05:43:55Z</time>
      </trkpt>
      <trkpt lat="49.00871" lon="7.97756">
        <ele>166.2</ele>
        <time>2020-06-28T05:43:56Z</time>
      </trkpt>
      <trkpt lat="49.00869" lon="7.9776">
        <ele>166.4</ele>
        <time>2020-06-28T05:43:57Z</time>
      </trkpt>
      <trkpt lat="49.00866" lon="7.97765">
        <ele>166.4</ele>
        <time>2020-06-28T05:43:58Z</time>
      </trkpt>
      <trkpt lat="49.00864" lon="7.97771">
        <ele>166.4</ele>
        <time>2020-06-28T05:43:59Z</time>
      </trkpt>
      <trkpt lat="49.00864" lon="7.97778">
        <ele>166.4</ele>
        <time>2020-06-28T05:44:00Z</time>
      </trkpt>
      <trkpt lat="49.0087" lon="7.97786">
        <ele>166.4</ele>
        <time>2020-06-28T05:44:01Z</time>
      </trkpt>
      <trkpt lat="49.00872" lon="7.97791">
        <ele>166.4</ele>
        <time>2020-06-28T05:44:02Z</time>
      </trkpt>
      <trkpt lat="49.00873" lon="7.97795">
        <ele>166.4</ele>
        <time>2020-06-28T05:44:03Z</time>
      </trkpt>
      <trkpt lat="49.00872" lon="7.978">
        <ele>166.4</ele>
        <time>2020-06-28T05:44:04Z</time>
      </trkpt>
      <trkpt lat="49.00871" lon="7.97801">
        <ele>166.5</ele>
        <time>2020-06-28T05:44:05Z</time>
      </trkpt>
      <trkpt lat="49.00868" lon="7.97804">
        <ele>166.3</ele>
        <time>2020-06-28T05:44:06Z</time>
      </trkpt>
      <trkpt lat="49.00863" lon="7.97809">
        <ele>166.2</ele>
        <time>2020-06-28T05:44:07Z</time>
      </trkpt>
      <trkpt lat="49.00858" lon="7.97813">
        <ele>166.1</ele>
        <time>2020-06-28T05:44:08Z</time>
      </trkpt>
      <trkpt lat="49.00854" lon="7.97818">
        <ele>166</ele>
        <time>2020-06-28T05:44:09Z</time>
      </trkpt>
      <trkpt lat="49.00851" lon="7.97821">
        <ele>166</ele>
        <time>2020-06-28T05:44:10Z</time>
      </trkpt>
      <trkpt lat="49.00847" lon="7.97825">
        <ele>166</ele>
        <time>2020-06-28T05:44:11Z</time>
      </trkpt>
      <trkpt lat="49.00843" lon="7.97828">
        <ele>165.9</ele>
        <time>2020-06-28T05:44:12Z</time>
      </trkpt>
      <trkpt lat="49.00839" lon="7.97831">
        <ele>165.9</ele>
        <time>2020-06-28T05:44:13Z</time>
      </trkpt>
      <trkpt lat="49.00835" lon="7.97836">
        <ele>165.9</ele>
        <time>2020-06-28T05:44:14Z</time>
      </trkpt>
      <trkpt lat="49.00832" lon="7.97838">
        <ele>165.8</ele>
        <time>2020-06-28T05:44:15Z</time>
      </trkpt>
      <trkpt lat="49.00829" lon="7.97843">
        <ele>165.8</ele>
        <time>2020-06-28T05:44:16Z</time>
      </trkpt>
      <trkpt lat="49.00825" lon="7.97848">
        <ele>165.8</ele>
        <time>2020-06-28T05:44:17Z</time>
      </trkpt>
      <trkpt lat="49.00821" lon="7.97852">
        <ele>165.8</ele>
        <time>2020-06-28T05:44:18Z</time>
      </trkpt>
      <trkpt lat="49.00816" lon="7.97857">
        <ele>165.7</ele>
        <time>2020-06-28T05:44:19Z</time>
      </trkpt>
      <trkpt lat="49.00811" lon="7.97862">
        <ele>165.6</ele>
        <time>2020-06-28T05:44:20Z</time>
      </trkpt>
      <trkpt lat="49.00806" lon="7.97865">
        <ele>165.6</ele>
        <time>2020-06-28T05:44:21Z</time>
      </trkpt>
      <trkpt lat="49.00802" lon="7.9787">
        <ele>165.5</ele>
        <time>2020-06-28T05:44:22Z</time>
      </trkpt>
      <trkpt lat="49.00797" lon="7.97875">
        <ele>165.5</ele>
        <time>2020-06-28T05:44:23Z</time>
      </trkpt>
      <trkpt lat="49.00792" lon="7.97879">
        <ele>165.5</ele>
        <time>2020-06-28T05:44:24Z</time>
      </trkpt>
      <trkpt lat="49.00787" lon="7.97884">
        <ele>165.5</ele>
        <time>2020-06-28T05:44:25Z</time>
      </trkpt>
      <trkpt lat="49.00781" lon="7.97891">
        <ele>165.5</ele>
        <time>2020-06-28T05:44:26Z</time>
      </trkpt>
      <trkpt lat="49.00778" lon="7.97894">
        <ele>165.5</ele>
        <time>2020-06-28T05:44:27Z</time>
      </trkpt>
      <trkpt lat="49.00773" lon="7.97899">
        <ele>165.5</ele>
        <time>2020-06-28T05:44:28Z</time>
      </trkpt>
      <trkpt lat="49.00769" lon="7.97904">
        <ele>165.5</ele>
        <time>2020-06-28T05:44:29Z</time>
      </trkpt>
      <trkpt lat="49.00763" lon="7.9791">
        <ele>165.5</ele>
        <time>2020-06-28T05:44:30Z</time>
      </trkpt>
      <trkpt lat="49.00758" lon="7.97915">
        <ele>165.5</ele>
        <time>2020-06-28T05:44:31Z</time>
      </trkpt>
      <trkpt lat="49.00752" lon="7.97921">
        <ele>165.5</ele>
        <time>2020-06-28T05:44:32Z</time>
      </trkpt>
      <trkpt lat="49.00746" lon="7.97925">
        <ele>165.4</ele>
        <time>2020-06-28T05:44:33Z</time>
      </trkpt>
      <trkpt lat="49.0074" lon="7.97931">
        <ele>165.4</ele>
        <time>2020-06-28T05:44:34Z</time>
      </trkpt>
      <trkpt lat="49.00732" lon="7.97937">
        <ele>165.4</ele>
        <time>2020-06-28T05:44:35Z</time>
      </trkpt>
      <trkpt lat="49.00726" lon="7.97944">
        <ele>165.4</ele>
        <time>2020-06-28T05:44:36Z</time>
      </trkpt>
      <trkpt lat="49.0072" lon="7.97949">
        <ele>165.4</ele>
        <time>2020-06-28T05:44:37Z</time>
      </trkpt>
      <trkpt lat="49.00714" lon="7.97956">
        <ele>165.4</ele>
        <time>2020-06-28T05:44:38Z</time>
      </trkpt>
      <trkpt lat="49.00709" lon="7.97962">
        <ele>165.4</ele>
        <time>2020-06-28T05:44:39Z</time>
      </trkpt>
      <trkpt lat="49.00703" lon="7.97968">
        <ele>165.4</ele>
        <time>2020-06-28T05:44:40Z</time>
      </trkpt>
      <trkpt lat="49.00697" lon="7.97974">
        <ele>165.4</ele>
        <time>2020-06-28T05:44:41Z</time>
      </trkpt>
      <trkpt lat="49.00692" lon="7.9798">
        <ele>165.5</ele>
        <time>2020-06-28T05:44:42Z</time>
      </trkpt>
      <trkpt lat="49.00686" lon="7.97987">
        <ele>165.5</ele>
        <time>2020-06-28T05:44:43Z</time>
      </trkpt>
      <trkpt lat="49.0068" lon="7.97994">
        <ele>165.5</ele>
        <time>2020-06-28T05:44:44Z</time>
      </trkpt>
      <trkpt lat="49.00675" lon="7.98">
        <ele>165.5</ele>
        <time>2020-06-28T05:44:45Z</time>
      </trkpt>
      <trkpt lat="49.00668" lon="7.98006">
        <ele>165.5</ele>
        <time>2020-06-28T05:44:46Z</time>
      </trkpt>
      <trkpt lat="49.00661" lon="7.98013">
        <ele>165.4</ele>
        <time>2020-06-28T05:44:47Z</time>
      </trkpt>
      <trkpt lat="49.00655" lon="7.98019">
        <ele>165.4</ele>
        <time>2020-06-28T05:44:48Z</time>
      </trkpt>
      <trkpt lat="49.00649" lon="7.98025">
        <ele>165.4</ele>
        <time>2020-06-28T05:44:49Z</time>
      </trkpt>
      <trkpt lat="49.00643" lon="7.98033">
        <ele>165.4</ele>
        <time>2020-06-28T05:44:50Z</time>
      </trkpt>
      <trkpt lat="49.00638" lon="7.98038">
        <ele>165.5</ele>
        <time>2020-06-28T05:44:51Z</time>
      </trkpt>
      <trkpt lat="49.00632" lon="7.98043">
        <ele>165.5</ele>
        <time>2020-06-28T05:44:52Z</time>
      </trkpt>
      <trkpt lat="49.00627" lon="7.98047">
        <ele>165.5</ele>
        <time>2020-06-28T05:44:53Z</time>
      </trkpt>
      <trkpt lat="49.00623" lon="7.98052">
        <ele>165.6</ele>
        <time>2020-06-28T05:44:54Z</time>
      </trkpt>
      <trkpt lat="49.00617" lon="7.98058">
        <ele>165.6</ele>
        <time>2020-06-28T05:44:55Z</time>
      </trkpt>
      <trkpt lat="49.00611" lon="7.98064">
        <ele>165.7</ele>
        <time>2020-06-28T05:44:56Z</time>
      </trkpt>
      <trkpt lat="49.00605" lon="7.9807">
        <ele>165.8</ele>
        <time>2020-06-28T05:44:57Z</time>
      </trkpt>
      <trkpt lat="49.006" lon="7.98075">
        <ele>165.8</ele>
        <time>2020-06-28T05:44:58Z</time>
      </trkpt>
      <trkpt lat="49.00594" lon="7.9808">
        <ele>165.8</ele>
        <time>2020-06-28T05:44:59Z</time>
      </trkpt>
      <trkpt lat="49.00589" lon="7.98086">
        <ele>165.7</ele>
        <time>2020-06-28T05:45:00Z</time>
      </trkpt>
      <trkpt lat="49.00583" lon="7.98091">
        <ele>165.7</ele>
        <time>2020-06-28T05:45:01Z</time>
      </trkpt>
      <trkpt lat="49.00578" lon="7.98096">
        <ele>165.7</ele>
        <time>2020-06-28T05:45:02Z</time>
      </trkpt>
      <trkpt lat="49.00572" lon="7.98103">
        <ele>165.6</ele>
        <time>2020-06-28T05:45:03Z</time>
      </trkpt>
      <trkpt lat="49.00567" lon="7.98111">
        <ele>165.6</ele>
        <time>2020-06-28T05:45:04Z</time>
      </trkpt>
      <trkpt lat="49.00562" lon="7.98117">
        <ele>165.6</ele>
        <time>2020-06-28T05:45:05Z</time>
      </trkpt>
      <trkpt lat="49.00557" lon="7.98124">
        <ele>165.6</ele>
        <time>2020-06-28T05:45:06Z</time>
      </trkpt>
      <trkpt lat="49.00552" lon="7.9813">
        <ele>165.6</ele>
        <time>2020-06-28T05:45:07Z</time>
      </trkpt>
      <trkpt lat="49.00547" lon="7.98138">
        <ele>165.6</ele>
        <time>2020-06-28T05:45:08Z</time>
      </trkpt>
      <trkpt lat="49.00542" lon="7.98144">
        <ele>165.6</ele>
        <time>2020-06-28T05:45:09Z</time>
      </trkpt>
      <trkpt lat="49.00537" lon="7.98152">
        <ele>165.6</ele>
        <time>2020-06-28T05:45:10Z</time>
      </trkpt>
      <trkpt lat="49.00532" lon="7.98159">
        <ele>165.6</ele>
        <time>2020-06-28T05:45:11Z</time>
      </trkpt>
      <trkpt lat="49.00528" lon="7.98165">
        <ele>165.6</ele>
        <time>2020-06-28T05:45:12Z</time>
      </trkpt>
      <trkpt lat="49.00522" lon="7.98171">
        <ele>165.6</ele>
        <time>2020-06-28T05:45:13Z</time>
      </trkpt>
      <trkpt lat="49.00518" lon="7.98176">
        <ele>165.7</ele>
        <time>2020-06-28T05:45:14Z</time>
      </trkpt>
      <trkpt lat="49.00513" lon="7.98182">
        <ele>165.7</ele>
        <time>2020-06-28T05:45:15Z</time>
      </trkpt>
      <trkpt lat="49.00508" lon="7.98187">
        <ele>165.7</ele>
        <time>2020-06-28T05:45:16Z</time>
      </trkpt>
      <trkpt lat="49.00503" lon="7.98195">
        <ele>165.6</ele>
        <time>2020-06-28T05:45:17Z</time>
      </trkpt>
      <trkpt lat="49.005" lon="7.982">
        <ele>165.6</ele>
        <time>2020-06-28T05:45:18Z</time>
      </trkpt>
      <trkpt lat="49.00494" lon="7.98211">
        <ele>165.5</ele>
        <time>2020-06-28T05:45:19Z</time>
      </trkpt>
      <trkpt lat="49.00489" lon="7.9822">
        <ele>165.5</ele>
        <time>2020-06-28T05:45:20Z</time>
      </trkpt>
      <trkpt lat="49.00483" lon="7.98227">
        <ele>165.5</ele>
        <time>2020-06-28T05:45:21Z</time>
      </trkpt>
      <trkpt lat="49.00479" lon="7.98233">
        <ele>165.5</ele>
        <time>2020-06-28T05:45:22Z</time>
      </trkpt>
      <trkpt lat="49.00473" lon="7.98241">
        <ele>165.4</ele>
        <time>2020-06-28T05:45:23Z</time>
      </trkpt>
      <trkpt lat="49.00468" lon="7.98249">
        <ele>165.4</ele>
        <time>2020-06-28T05:45:24Z</time>
      </trkpt>
      <trkpt lat="49.00462" lon="7.98257">
        <ele>165.3</ele>
        <time>2020-06-28T05:45:25Z</time>
      </trkpt>
      <trkpt lat="49.00456" lon="7.98266">
        <ele>165.2</ele>
        <time>2020-06-28T05:45:26Z</time>
      </trkpt>
      <trkpt lat="49.00451" lon="7.98274">
        <ele>165.2</ele>
        <time>2020-06-28T05:45:27Z</time>
      </trkpt>
      <trkpt lat="49.00447" lon="7.98283">
        <ele>165.1</ele>
        <time>2020-06-28T05:45:28Z</time>
      </trkpt>
      <trkpt lat="49.00443" lon="7.98291">
        <ele>165</ele>
        <time>2020-06-28T05:45:29Z</time>
      </trkpt>
      <trkpt lat="49.00438" lon="7.983">
        <ele>164.9</ele>
        <time>2020-06-28T05:45:30Z</time>
      </trkpt>
      <trkpt lat="49.00434" lon="7.9831">
        <ele>164.8</ele>
        <time>2020-06-28T05:45:31Z</time>
      </trkpt>
      <trkpt lat="49.00429" lon="7.98319">
        <ele>164.8</ele>
        <time>2020-06-28T05:45:32Z</time>
      </trkpt>
      <trkpt lat="49.00425" lon="7.98329">
        <ele>164.7</ele>
        <time>2020-06-28T05:45:33Z</time>
      </trkpt>
      <trkpt lat="49.00421" lon="7.98338">
        <ele>164.7</ele>
        <time>2020-06-28T05:45:34Z</time>
      </trkpt>
      <trkpt lat="49.00416" lon="7.98349">
        <ele>164.7</ele>
        <time>2020-06-28T05:45:35Z</time>
      </trkpt>
      <trkpt lat="49.00412" lon="7.98358">
        <ele>164.6</ele>
        <time>2020-06-28T05:45:36Z</time>
      </trkpt>
      <trkpt lat="49.00408" lon="7.98368">
        <ele>164.5</ele>
        <time>2020-06-28T05:45:37Z</time>
      </trkpt>
      <trkpt lat="49.00404" lon="7.98377">
        <ele>164.5</ele>
        <time>2020-06-28T05:45:38Z</time>
      </trkpt>
      <trkpt lat="49.00399" lon="7.98386">
        <ele>164.4</ele>
        <time>2020-06-28T05:45:39Z</time>
      </trkpt>
      <trkpt lat="49.00395" lon="7.98395">
        <ele>164.4</ele>
        <time>2020-06-28T05:45:40Z</time>
      </trkpt>
      <trkpt lat="49.0039" lon="7.98406">
        <ele>164.3</ele>
        <time>2020-06-28T05:45:41Z</time>
      </trkpt>
      <trkpt lat="49.00386" lon="7.98417">
        <ele>164.3</ele>
        <time>2020-06-28T05:45:42Z</time>
      </trkpt>
      <trkpt lat="49.00382" lon="7.98426">
        <ele>164.2</ele>
        <time>2020-06-28T05:45:43Z</time>
      </trkpt>
      <trkpt lat="49.00379" lon="7.98435">
        <ele>164.2</ele>
        <time>2020-06-28T05:45:44Z</time>
      </trkpt>
      <trkpt lat="49.00375" lon="7.98444">
        <ele>164.1</ele>
        <time>2020-06-28T05:45:45Z</time>
      </trkpt>
      <trkpt lat="49.00371" lon="7.98453">
        <ele>164.1</ele>
        <time>2020-06-28T05:45:46Z</time>
      </trkpt>
      <trkpt lat="49.00367" lon="7.98462">
        <ele>164</ele>
        <time>2020-06-28T05:45:47Z</time>
      </trkpt>
      <trkpt lat="49.00363" lon="7.98471">
        <ele>163.9</ele>
        <time>2020-06-28T05:45:48Z</time>
      </trkpt>
      <trkpt lat="49.00359" lon="7.98479">
        <ele>163.9</ele>
        <time>2020-06-28T05:45:49Z</time>
      </trkpt>
      <trkpt lat="49.00356" lon="7.98488">
        <ele>163.8</ele>
        <time>2020-06-28T05:45:50Z</time>
      </trkpt>
      <trkpt lat="49.00352" lon="7.98497">
        <ele>163.8</ele>
        <time>2020-06-28T05:45:51Z</time>
      </trkpt>
      <trkpt lat="49.00347" lon="7.98508">
        <ele>163.7</ele>
        <time>2020-06-28T05:45:52Z</time>
      </trkpt>
      <trkpt lat="49.00344" lon="7.98518">
        <ele>163.7</ele>
        <time>2020-06-28T05:45:53Z</time>
      </trkpt>
      <trkpt lat="49.00341" lon="7.98529">
        <ele>163.6</ele>
        <time>2020-06-28T05:45:54Z</time>
      </trkpt>
      <trkpt lat="49.00337" lon="7.98539">
        <ele>163.5</ele>
        <time>2020-06-28T05:45:55Z</time>
      </trkpt>
      <trkpt lat="49.00334" lon="7.98549">
        <ele>163.4</ele>
        <time>2020-06-28T05:45:56Z</time>
      </trkpt>
      <trkpt lat="49.00329" lon="7.98558">
        <ele>163.4</ele>
        <time>2020-06-28T05:45:57Z</time>
      </trkpt>
      <trkpt lat="49.00326" lon="7.98568">
        <ele>163.3</ele>
        <time>2020-06-28T05:45:58Z</time>
      </trkpt>
      <trkpt lat="49.00321" lon="7.98577">
        <ele>163.2</ele>
        <time>2020-06-28T05:45:59Z</time>
      </trkpt>
      <trkpt lat="49.00318" lon="7.98587">
        <ele>163.2</ele>
        <time>2020-06-28T05:46:00Z</time>
      </trkpt>
      <trkpt lat="49.00314" lon="7.98597">
        <ele>163.1</ele>
        <time>2020-06-28T05:46:01Z</time>
      </trkpt>
      <trkpt lat="49.0031" lon="7.98606">
        <ele>163.1</ele>
        <time>2020-06-28T05:46:02Z</time>
      </trkpt>
      <trkpt lat="49.00305" lon="7.98615">
        <ele>163</ele>
        <time>2020-06-28T05:46:03Z</time>
      </trkpt>
      <trkpt lat="49.00301" lon="7.98625">
        <ele>163</ele>
        <time>2020-06-28T05:46:04Z</time>
      </trkpt>
      <trkpt lat="49.00297" lon="7.98634">
        <ele>162.9</ele>
        <time>2020-06-28T05:46:05Z</time>
      </trkpt>
      <trkpt lat="49.00293" lon="7.98644">
        <ele>162.9</ele>
        <time>2020-06-28T05:46:06Z</time>
      </trkpt>
      <trkpt lat="49.00289" lon="7.98654">
        <ele>162.8</ele>
        <time>2020-06-28T05:46:07Z</time>
      </trkpt>
      <trkpt lat="49.00285" lon="7.98663">
        <ele>162.8</ele>
        <time>2020-06-28T05:46:08Z</time>
      </trkpt>
      <trkpt lat="49.00281" lon="7.98672">
        <ele>162.7</ele>
        <time>2020-06-28T05:46:09Z</time>
      </trkpt>
      <trkpt lat="49.00277" lon="7.98682">
        <ele>162.7</ele>
        <time>2020-06-28T05:46:10Z</time>
      </trkpt>
      <trkpt lat="49.00273" lon="7.98691">
        <ele>162.7</ele>
        <time>2020-06-28T05:46:11Z</time>
      </trkpt>
      <trkpt lat="49.0027" lon="7.987">
        <ele>162.8</ele>
        <time>2020-06-28T05:46:12Z</time>
      </trkpt>
      <trkpt lat="49.00266" lon="7.98708">
        <ele>162.8</ele>
        <time>2020-06-28T05:46:13Z</time>
      </trkpt>
      <trkpt lat="49.00263" lon="7.98716">
        <ele>162.8</ele>
        <time>2020-06-28T05:46:14Z</time>
      </trkpt>
      <trkpt lat="49.00261" lon="7.98725">
        <ele>162.9</ele>
        <time>2020-06-28T05:46:15Z</time>
      </trkpt>
      <trkpt lat="49.00257" lon="7.98733">
        <ele>162.9</ele>
        <time>2020-06-28T05:46:16Z</time>
      </trkpt>
      <trkpt lat="49.00254" lon="7.98742">
        <ele>162.9</ele>
        <time>2020-06-28T05:46:17Z</time>
      </trkpt>
      <trkpt lat="49.00251" lon="7.98751">
        <ele>162.9</ele>
        <time>2020-06-28T05:46:18Z</time>
      </trkpt>
      <trkpt lat="49.00248" lon="7.98759">
        <ele>162.8</ele>
        <time>2020-06-28T05:46:19Z</time>
      </trkpt>
      <trkpt lat="49.00246" lon="7.98766">
        <ele>162.8</ele>
        <time>2020-06-28T05:46:20Z</time>
      </trkpt>
      <trkpt lat="49.00243" lon="7.98775">
        <ele>162.7</ele>
        <time>2020-06-28T05:46:21Z</time>
      </trkpt>
      <trkpt lat="49.0024" lon="7.98783">
        <ele>162.7</ele>
        <time>2020-06-28T05:46:22Z</time>
      </trkpt>
      <trkpt lat="49.00238" lon="7.98791">
        <ele>162.6</ele>
        <time>2020-06-28T05:46:23Z</time>
      </trkpt>
      <trkpt lat="49.00236" lon="7.98801">
        <ele>162.6</ele>
        <time>2020-06-28T05:46:24Z</time>
      </trkpt>
      <trkpt lat="49.00234" lon="7.9881">
        <ele>162.6</ele>
        <time>2020-06-28T05:46:25Z</time>
      </trkpt>
      <trkpt lat="49.00231" lon="7.98818">
        <ele>162.5</ele>
        <time>2020-06-28T05:46:26Z</time>
      </trkpt>
      <trkpt lat="49.0023" lon="7.98826">
        <ele>162.5</ele>
        <time>2020-06-28T05:46:27Z</time>
      </trkpt>
      <trkpt lat="49.00227" lon="7.98835">
        <ele>162.5</ele>
        <time>2020-06-28T05:46:28Z</time>
      </trkpt>
      <trkpt lat="49.00226" lon="7.98844">
        <ele>162.4</ele>
        <time>2020-06-28T05:46:29Z</time>
      </trkpt>
      <trkpt lat="49.00223" lon="7.98854">
        <ele>162.4</ele>
        <time>2020-06-28T05:46:30Z</time>
      </trkpt>
      <trkpt lat="49.00222" lon="7.98864">
        <ele>162.4</ele>
        <time>2020-06-28T05:46:31Z</time>
      </trkpt>
      <trkpt lat="49.0022" lon="7.98873">
        <ele>162.5</ele>
        <time>2020-06-28T05:46:32Z</time>
      </trkpt>
      <trkpt lat="49.00218" lon="7.9888">
        <ele>162.6</ele>
        <time>2020-06-28T05:46:33Z</time>
      </trkpt>
      <trkpt lat="49.00216" lon="7.98888">
        <ele>162.6</ele>
        <time>2020-06-28T05:46:34Z</time>
      </trkpt>
      <trkpt lat="49.00213" lon="7.98896">
        <ele>162.5</ele>
        <time>2020-06-28T05:46:35Z</time>
      </trkpt>
      <trkpt lat="49.00212" lon="7.98906">
        <ele>162.5</ele>
        <time>2020-06-28T05:46:36Z</time>
      </trkpt>
      <trkpt lat="49.00209" lon="7.98914">
        <ele>162.5</ele>
        <time>2020-06-28T05:46:37Z</time>
      </trkpt>
      <trkpt lat="49.00207" lon="7.98922">
        <ele>162.5</ele>
        <time>2020-06-28T05:46:38Z</time>
      </trkpt>
      <trkpt lat="49.00205" lon="7.9893">
        <ele>162.4</ele>
        <time>2020-06-28T05:46:39Z</time>
      </trkpt>
      <trkpt lat="49.00203" lon="7.98938">
        <ele>162.4</ele>
        <time>2020-06-28T05:46:40Z</time>
      </trkpt>
      <trkpt lat="49.002" lon="7.98946">
        <ele>162.4</ele>
        <time>2020-06-28T05:46:41Z</time>
      </trkpt>
      <trkpt lat="49.002" lon="7.98962">
        <ele>162.3</ele>
        <time>2020-06-28T05:46:42Z</time>
      </trkpt>
      <trkpt lat="49.00197" lon="7.98978">
        <ele>162.2</ele>
        <time>2020-06-28T05:46:43Z</time>
      </trkpt>
      <trkpt lat="49.00193" lon="7.98995">
        <ele>162.2</ele>
        <time>2020-06-28T05:46:44Z</time>
      </trkpt>
      <trkpt lat="49.00189" lon="7.9901">
        <ele>162.2</ele>
        <time>2020-06-28T05:46:45Z</time>
      </trkpt>
      <trkpt lat="49.00185" lon="7.99024">
        <ele>162.1</ele>
        <time>2020-06-28T05:46:46Z</time>
      </trkpt>
      <trkpt lat="49.00181" lon="7.99039">
        <ele>162.1</ele>
        <time>2020-06-28T05:46:47Z</time>
      </trkpt>
      <trkpt lat="49.00176" lon="7.99054">
        <ele>162</ele>
        <time>2020-06-28T05:46:48Z</time>
      </trkpt>
      <trkpt lat="49.00171" lon="7.99069">
        <ele>161.8</ele>
        <time>2020-06-28T05:46:49Z</time>
      </trkpt>
      <trkpt lat="49.00168" lon="7.99081">
        <ele>161.7</ele>
        <time>2020-06-28T05:46:50Z</time>
      </trkpt>
      <trkpt lat="49.00165" lon="7.99095">
        <ele>161.6</ele>
        <time>2020-06-28T05:46:51Z</time>
      </trkpt>
      <trkpt lat="49.0016" lon="7.99108">
        <ele>161.5</ele>
        <time>2020-06-28T05:46:52Z</time>
      </trkpt>
      <trkpt lat="49.00157" lon="7.99119">
        <ele>161.4</ele>
        <time>2020-06-28T05:46:53Z</time>
      </trkpt>
      <trkpt lat="49.00155" lon="7.99129">
        <ele>161.3</ele>
        <time>2020-06-28T05:46:54Z</time>
      </trkpt>
      <trkpt lat="49.00151" lon="7.99141">
        <ele>161.2</ele>
        <time>2020-06-28T05:46:55Z</time>
      </trkpt>
      <trkpt lat="49.00147" lon="7.99153">
        <ele>161.2</ele>
        <time>2020-06-28T05:46:56Z</time>
      </trkpt>
      <trkpt lat="49.00144" lon="7.99165">
        <ele>161.1</ele>
        <time>2020-06-28T05:46:57Z</time>
      </trkpt>
      <trkpt lat="49.00141" lon="7.99178">
        <ele>161.1</ele>
        <time>2020-06-28T05:46:58Z</time>
      </trkpt>
      <trkpt lat="49.00138" lon="7.99188">
        <ele>161.1</ele>
        <time>2020-06-28T05:46:59Z</time>
      </trkpt>
      <trkpt lat="49.00135" lon="7.99199">
        <ele>161.1</ele>
        <time>2020-06-28T05:47:00Z</time>
      </trkpt>
      <trkpt lat="49.00133" lon="7.99208">
        <ele>161</ele>
        <time>2020-06-28T05:47:01Z</time>
      </trkpt>
      <trkpt lat="49.00131" lon="7.99218">
        <ele>160.9</ele>
        <time>2020-06-28T05:47:02Z</time>
      </trkpt>
      <trkpt lat="49.00128" lon="7.9923">
        <ele>160.8</ele>
        <time>2020-06-28T05:47:03Z</time>
      </trkpt>
      <trkpt lat="49.00126" lon="7.99239">
        <ele>160.8</ele>
        <time>2020-06-28T05:47:04Z</time>
      </trkpt>
      <trkpt lat="49.00124" lon="7.99248">
        <ele>160.7</ele>
        <time>2020-06-28T05:47:05Z</time>
      </trkpt>
      <trkpt lat="49.00122" lon="7.99256">
        <ele>160.7</ele>
        <time>2020-06-28T05:47:06Z</time>
      </trkpt>
      <trkpt lat="49.00118" lon="7.99269">
        <ele>160.6</ele>
        <time>2020-06-28T05:47:07Z</time>
      </trkpt>
      <trkpt lat="49.00116" lon="7.99279">
        <ele>160.5</ele>
        <time>2020-06-28T05:47:08Z</time>
      </trkpt>
      <trkpt lat="49.00115" lon="7.9929">
        <ele>160.5</ele>
        <time>2020-06-28T05:47:09Z</time>
      </trkpt>
      <trkpt lat="49.00113" lon="7.99299">
        <ele>160.5</ele>
        <time>2020-06-28T05:47:10Z</time>
      </trkpt>
      <trkpt lat="49.00112" lon="7.99309">
        <ele>160.4</ele>
        <time>2020-06-28T05:47:11Z</time>
      </trkpt>
      <trkpt lat="49.0011" lon="7.99317">
        <ele>160.3</ele>
        <time>2020-06-28T05:47:12Z</time>
      </trkpt>
      <trkpt lat="49.00109" lon="7.99325">
        <ele>160.3</ele>
        <time>2020-06-28T05:47:13Z</time>
      </trkpt>
      <trkpt lat="49.00107" lon="7.99332">
        <ele>160.2</ele>
        <time>2020-06-28T05:47:14Z</time>
      </trkpt>
      <trkpt lat="49.00103" lon="7.99344">
        <ele>160.1</ele>
        <time>2020-06-28T05:47:15Z</time>
      </trkpt>
      <trkpt lat="49.00101" lon="7.99354">
        <ele>160.1</ele>
        <time>2020-06-28T05:47:16Z</time>
      </trkpt>
      <trkpt lat="49.00098" lon="7.99364">
        <ele>160</ele>
        <time>2020-06-28T05:47:17Z</time>
      </trkpt>
      <trkpt lat="49.00096" lon="7.99371">
        <ele>159.9</ele>
        <time>2020-06-28T05:47:18Z</time>
      </trkpt>
      <trkpt lat="49.00093" lon="7.99385">
        <ele>159.9</ele>
        <time>2020-06-28T05:47:19Z</time>
      </trkpt>
      <trkpt lat="49.00091" lon="7.99396">
        <ele>159.8</ele>
        <time>2020-06-28T05:47:20Z</time>
      </trkpt>
      <trkpt lat="49.00089" lon="7.99408">
        <ele>159.8</ele>
        <time>2020-06-28T05:47:21Z</time>
      </trkpt>
      <trkpt lat="49.00086" lon="7.99419">
        <ele>159.8</ele>
        <time>2020-06-28T05:47:22Z</time>
      </trkpt>
      <trkpt lat="49.00083" lon="7.99431">
        <ele>159.7</ele>
        <time>2020-06-28T05:47:23Z</time>
      </trkpt>
      <trkpt lat="49.0008" lon="7.99442">
        <ele>159.7</ele>
        <time>2020-06-28T05:47:24Z</time>
      </trkpt>
      <trkpt lat="49.00077" lon="7.99453">
        <ele>159.6</ele>
        <time>2020-06-28T05:47:25Z</time>
      </trkpt>
      <trkpt lat="49.00075" lon="7.99464">
        <ele>159.6</ele>
        <time>2020-06-28T05:47:26Z</time>
      </trkpt>
      <trkpt lat="49.00072" lon="7.99475">
        <ele>159.6</ele>
        <time>2020-06-28T05:47:27Z</time>
      </trkpt>
      <trkpt lat="49.0007" lon="7.99486">
        <ele>159.6</ele>
        <time>2020-06-28T05:47:28Z</time>
      </trkpt>
      <trkpt lat="49.00067" lon="7.99496">
        <ele>159.6</ele>
        <time>2020-06-28T05:47:29Z</time>
      </trkpt>
      <trkpt lat="49.00065" lon="7.99506">
        <ele>159.5</ele>
        <time>2020-06-28T05:47:30Z</time>
      </trkpt>
      <trkpt lat="49.00063" lon="7.99517">
        <ele>159.5</ele>
        <time>2020-06-28T05:47:31Z</time>
      </trkpt>
      <trkpt lat="49.00061" lon="7.99527">
        <ele>159.5</ele>
        <time>2020-06-28T05:47:32Z</time>
      </trkpt>
      <trkpt lat="49.00058" lon="7.99538">
        <ele>159.5</ele>
        <time>2020-06-28T05:47:33Z</time>
      </trkpt>
      <trkpt lat="49.00056" lon="7.99549">
        <ele>159.4</ele>
        <time>2020-06-28T05:47:34Z</time>
      </trkpt>
      <trkpt lat="49.00053" lon="7.9956">
        <ele>159.3</ele>
        <time>2020-06-28T05:47:35Z</time>
      </trkpt>
      <trkpt lat="49.00051" lon="7.9957">
        <ele>159.3</ele>
        <time>2020-06-28T05:47:36Z</time>
      </trkpt>
      <trkpt lat="49.00048" lon="7.99581">
        <ele>159.2</ele>
        <time>2020-06-28T05:47:37Z</time>
      </trkpt>
      <trkpt lat="49.00046" lon="7.99592">
        <ele>159.2</ele>
        <time>2020-06-28T05:47:38Z</time>
      </trkpt>
      <trkpt lat="49.00044" lon="7.99603">
        <ele>159.2</ele>
        <time>2020-06-28T05:47:39Z</time>
      </trkpt>
      <trkpt lat="49.00041" lon="7.99613">
        <ele>159.2</ele>
        <time>2020-06-28T05:47:40Z</time>
      </trkpt>
      <trkpt lat="49.00039" lon="7.99624">
        <ele>159.1</ele>
        <time>2020-06-28T05:47:41Z</time>
      </trkpt>
      <trkpt lat="49.00036" lon="7.99635">
        <ele>159.1</ele>
        <time>2020-06-28T05:47:42Z</time>
      </trkpt>
      <trkpt lat="49.00034" lon="7.99645">
        <ele>159.1</ele>
        <time>2020-06-28T05:47:43Z</time>
      </trkpt>
      <trkpt lat="49.00032" lon="7.99656">
        <ele>159</ele>
        <time>2020-06-28T05:47:44Z</time>
      </trkpt>
      <trkpt lat="49.00029" lon="7.99667">
        <ele>158.9</ele>
        <time>2020-06-28T05:47:45Z</time>
      </trkpt>
      <trkpt lat="49.00027" lon="7.99678">
        <ele>158.9</ele>
        <time>2020-06-28T05:47:46Z</time>
      </trkpt>
      <trkpt lat="49.00025" lon="7.99688">
        <ele>158.8</ele>
        <time>2020-06-28T05:47:47Z</time>
      </trkpt>
      <trkpt lat="49.00022" lon="7.99699">
        <ele>158.8</ele>
        <time>2020-06-28T05:47:48Z</time>
      </trkpt>
      <trkpt lat="49.0002" lon="7.9971">
        <ele>158.8</ele>
        <time>2020-06-28T05:47:49Z</time>
      </trkpt>
      <trkpt lat="49.00018" lon="7.99721">
        <ele>158.8</ele>
        <time>2020-06-28T05:47:50Z</time>
      </trkpt>
      <trkpt lat="49.00016" lon="7.99731">
        <ele>158.8</ele>
        <time>2020-06-28T05:47:51Z</time>
      </trkpt>
      <trkpt lat="49.00013" lon="7.9974">
        <ele>158.8</ele>
        <time>2020-06-28T05:47:52Z</time>
      </trkpt>
      <trkpt lat="49.00011" lon="7.99749">
        <ele>158.8</ele>
        <time>2020-06-28T05:47:53Z</time>
      </trkpt>
      <trkpt lat="49.00009" lon="7.99759">
        <ele>158.8</ele>
        <time>2020-06-28T05:47:54Z</time>
      </trkpt>
      <trkpt lat="49.00007" lon="7.99768">
        <ele>158.7</ele>
        <time>2020-06-28T05:47:55Z</time>
      </trkpt>
      <trkpt lat="49.00006" lon="7.99779">
        <ele>158.7</ele>
        <time>2020-06-28T05:47:56Z</time>
      </trkpt>
      <trkpt lat="49.00004" lon="7.99789">
        <ele>158.6</ele>
        <time>2020-06-28T05:47:57Z</time>
      </trkpt>
      <trkpt lat="49.00002" lon="7.99799">
        <ele>158.6</ele>
        <time>2020-06-28T05:47:58Z</time>
      </trkpt>
      <trkpt lat="49.00001" lon="7.99809">
        <ele>158.5</ele>
        <time>2020-06-28T05:47:59Z</time>
      </trkpt>
      <trkpt lat="49" lon="7.9982">
        <ele>158.5</ele>
        <time>2020-06-28T05:48:00Z</time>
      </trkpt>
      <trkpt lat="48.99998" lon="7.99831">
        <ele>158.5</ele>
        <time>2020-06-28T05:48:01Z</time>
      </trkpt>
      <trkpt lat="48.99996" lon="7.99842">
        <ele>158.4</ele>
        <time>2020-06-28T05:48:02Z</time>
      </trkpt>
      <trkpt lat="48.99994" lon="7.99853">
        <ele>158.5</ele>
        <time>2020-06-28T05:48:03Z</time>
      </trkpt>
      <trkpt lat="48.99992" lon="7.99863">
        <ele>158.5</ele>
        <time>2020-06-28T05:48:04Z</time>
      </trkpt>
      <trkpt lat="48.99989" lon="7.99873">
        <ele>158.5</ele>
        <time>2020-06-28T05:48:05Z</time>
      </trkpt>
      <trkpt lat="48.99987" lon="7.99883">
        <ele>158.6</ele>
        <time>2020-06-28T05:48:06Z</time>
      </trkpt>
      <trkpt lat="48.99986" lon="7.99892">
        <ele>158.6</ele>
        <time>2020-06-28T05:48:07Z</time>
      </trkpt>
      <trkpt lat="48.99983" lon="7.99902">
        <ele>158.5</ele>
        <time>2020-06-28T05:48:08Z</time>
      </trkpt>
      <trkpt lat="48.99981" lon="7.99912">
        <ele>158.5</ele>
        <time>2020-06-28T05:48:09Z</time>
      </trkpt>
      <trkpt lat="48.9998" lon="7.99923">
        <ele>158.4</ele>
        <time>2020-06-28T05:48:10Z</time>
      </trkpt>
      <trkpt lat="48.99979" lon="7.99934">
        <ele>158.4</ele>
        <time>2020-06-28T05:48:11Z</time>
      </trkpt>
      <trkpt lat="48.99977" lon="7.99944">
        <ele>158.3</ele>
        <time>2020-06-28T05:48:12Z</time>
      </trkpt>
      <trkpt lat="48.99976" lon="7.99954">
        <ele>158.2</ele>
        <time>2020-06-28T05:48:13Z</time>
      </trkpt>
      <trkpt lat="48.99974" lon="7.99965">
        <ele>158.1</ele>
        <time>2020-06-28T05:48:14Z</time>
      </trkpt>
      <trkpt lat="48.99972" lon="7.99975">
        <ele>158</ele>
        <time>2020-06-28T05:48:15Z</time>
      </trkpt>
      <trkpt lat="48.9997" lon="7.99986">
        <ele>158</ele>
        <time>2020-06-28T05:48:16Z</time>
      </trkpt>
      <trkpt lat="48.99968" lon="7.99997">
        <ele>158</ele>
        <time>2020-06-28T05:48:17Z</time>
      </trkpt>
      <trkpt lat="48.99966" lon="8.00007">
        <ele>158.1</ele>
        <time>2020-06-28T05:48:18Z</time>
      </trkpt>
      <trkpt lat="48.99964" lon="8.00018">
        <ele>158.1</ele>
        <time>2020-06-28T05:48:19Z</time>
      </trkpt>
      <trkpt lat="48.99962" lon="8.00028">
        <ele>158</ele>
        <time>2020-06-28T05:48:20Z</time>
      </trkpt>
      <trkpt lat="48.9996" lon="8.00039">
        <ele>157.9</ele>
        <time>2020-06-28T05:48:21Z</time>
      </trkpt>
      <trkpt lat="48.99958" lon="8.0005">
        <ele>157.8</ele>
        <time>2020-06-28T05:48:22Z</time>
      </trkpt>
      <trkpt lat="48.99956" lon="8.00061">
        <ele>157.7</ele>
        <time>2020-06-28T05:48:23Z</time>
      </trkpt>
      <trkpt lat="48.99954" lon="8.00071">
        <ele>157.7</ele>
        <time>2020-06-28T05:48:24Z</time>
      </trkpt>
      <trkpt lat="48.99951" lon="8.00082">
        <ele>157.6</ele>
        <time>2020-06-28T05:48:25Z</time>
      </trkpt>
      <trkpt lat="48.99949" lon="8.00093">
        <ele>157.6</ele>
        <time>2020-06-28T05:48:26Z</time>
      </trkpt>
      <trkpt lat="48.99946" lon="8.00105">
        <ele>157.5</ele>
        <time>2020-06-28T05:48:27Z</time>
      </trkpt>
      <trkpt lat="48.99944" lon="8.00115">
        <ele>157.4</ele>
        <time>2020-06-28T05:48:28Z</time>
      </trkpt>
      <trkpt lat="48.99942" lon="8.00127">
        <ele>157.4</ele>
        <time>2020-06-28T05:48:29Z</time>
      </trkpt>
      <trkpt lat="48.99939" lon="8.00138">
        <ele>157.4</ele>
        <time>2020-06-28T05:48:30Z</time>
      </trkpt>
      <trkpt lat="48.99937" lon="8.00148">
        <ele>157.3</ele>
        <time>2020-06-28T05:48:31Z</time>
      </trkpt>
      <trkpt lat="48.99934" lon="8.00159">
        <ele>157.3</ele>
        <time>2020-06-28T05:48:32Z</time>
      </trkpt>
      <trkpt lat="48.99932" lon="8.0017">
        <ele>157.2</ele>
        <time>2020-06-28T05:48:33Z</time>
      </trkpt>
      <trkpt lat="48.9993" lon="8.00182">
        <ele>157.2</ele>
        <time>2020-06-28T05:48:34Z</time>
      </trkpt>
      <trkpt lat="48.99928" lon="8.00193">
        <ele>157.1</ele>
        <time>2020-06-28T05:48:35Z</time>
      </trkpt>
      <trkpt lat="48.99925" lon="8.00204">
        <ele>157</ele>
        <time>2020-06-28T05:48:36Z</time>
      </trkpt>
      <trkpt lat="48.99923" lon="8.00215">
        <ele>156.9</ele>
        <time>2020-06-28T05:48:37Z</time>
      </trkpt>
      <trkpt lat="48.9992" lon="8.00226">
        <ele>156.9</ele>
        <time>2020-06-28T05:48:38Z</time>
      </trkpt>
      <trkpt lat="48.99918" lon="8.00237">
        <ele>156.8</ele>
        <time>2020-06-28T05:48:39Z</time>
      </trkpt>
      <trkpt lat="48.99917" lon="8.00249">
        <ele>156.8</ele>
        <time>2020-06-28T05:48:40Z</time>
      </trkpt>
      <trkpt lat="48.99915" lon="8.0026">
        <ele>156.7</ele>
        <time>2020-06-28T05:48:41Z</time>
      </trkpt>
      <trkpt lat="48.99913" lon="8.00272">
        <ele>156.7</ele>
        <time>2020-06-28T05:48:42Z</time>
      </trkpt>
      <trkpt lat="48.99911" lon="8.00283">
        <ele>156.6</ele>
        <time>2020-06-28T05:48:43Z</time>
      </trkpt>
      <trkpt lat="48.99909" lon="8.00295">
        <ele>156.6</ele>
        <time>2020-06-28T05:48:44Z</time>
      </trkpt>
      <trkpt lat="48.99907" lon="8.00306">
        <ele>156.5</ele>
        <time>2020-06-28T05:48:45Z</time>
      </trkpt>
      <trkpt lat="48.99905" lon="8.00318">
        <ele>156.4</ele>
        <time>2020-06-28T05:48:46Z</time>
      </trkpt>
      <trkpt lat="48.99903" lon="8.00329">
        <ele>156.3</ele>
        <time>2020-06-28T05:48:47Z</time>
      </trkpt>
      <trkpt lat="48.99901" lon="8.00341">
        <ele>156.2</ele>
        <time>2020-06-28T05:48:48Z</time>
      </trkpt>
      <trkpt lat="48.99898" lon="8.00353">
        <ele>156.2</ele>
        <time>2020-06-28T05:48:49Z</time>
      </trkpt>
      <trkpt lat="48.99896" lon="8.00365">
        <ele>156.1</ele>
        <time>2020-06-28T05:48:50Z</time>
      </trkpt>
      <trkpt lat="48.99894" lon="8.00377">
        <ele>156.1</ele>
        <time>2020-06-28T05:48:51Z</time>
      </trkpt>
      <trkpt lat="48.99892" lon="8.00389">
        <ele>156</ele>
        <time>2020-06-28T05:48:52Z</time>
      </trkpt>
      <trkpt lat="48.9989" lon="8.00401">
        <ele>156</ele>
        <time>2020-06-28T05:48:53Z</time>
      </trkpt>
      <trkpt lat="48.99887" lon="8.00413">
        <ele>155.9</ele>
        <time>2020-06-28T05:48:54Z</time>
      </trkpt>
      <trkpt lat="48.99885" lon="8.00424">
        <ele>155.9</ele>
        <time>2020-06-28T05:48:55Z</time>
      </trkpt>
      <trkpt lat="48.99883" lon="8.00437">
        <ele>155.9</ele>
        <time>2020-06-28T05:48:56Z</time>
      </trkpt>
      <trkpt lat="48.99881" lon="8.00448">
        <ele>155.9</ele>
        <time>2020-06-28T05:48:57Z</time>
      </trkpt>
      <trkpt lat="48.9988" lon="8.0046">
        <ele>155.8</ele>
        <time>2020-06-28T05:48:58Z</time>
      </trkpt>
      <trkpt lat="48.99877" lon="8.00472">
        <ele>155.7</ele>
        <time>2020-06-28T05:48:59Z</time>
      </trkpt>
      <trkpt lat="48.99875" lon="8.00484">
        <ele>155.6</ele>
        <time>2020-06-28T05:49:00Z</time>
      </trkpt>
      <trkpt lat="48.99873" lon="8.00495">
        <ele>155.5</ele>
        <time>2020-06-28T05:49:01Z</time>
      </trkpt>
      <trkpt lat="48.99871" lon="8.00507">
        <ele>155.5</ele>
        <time>2020-06-28T05:49:02Z</time>
      </trkpt>
      <trkpt lat="48.99869" lon="8.00518">
        <ele>155.4</ele>
        <time>2020-06-28T05:49:03Z</time>
      </trkpt>
      <trkpt lat="48.99867" lon="8.0053">
        <ele>155.4</ele>
        <time>2020-06-28T05:49:04Z</time>
      </trkpt>
      <trkpt lat="48.99865" lon="8.00542">
        <ele>155.4</ele>
        <time>2020-06-28T05:49:05Z</time>
      </trkpt>
      <trkpt lat="48.99863" lon="8.00554">
        <ele>155.4</ele>
        <time>2020-06-28T05:49:06Z</time>
      </trkpt>
      <trkpt lat="48.99861" lon="8.00565">
        <ele>155.4</ele>
        <time>2020-06-28T05:49:07Z</time>
      </trkpt>
      <trkpt lat="48.99859" lon="8.00577">
        <ele>155.4</ele>
        <time>2020-06-28T05:49:08Z</time>
      </trkpt>
      <trkpt lat="48.99857" lon="8.00589">
        <ele>155.3</ele>
        <time>2020-06-28T05:49:09Z</time>
      </trkpt>
      <trkpt lat="48.99855" lon="8.00601">
        <ele>155.2</ele>
        <time>2020-06-28T05:49:10Z</time>
      </trkpt>
      <trkpt lat="48.99853" lon="8.00612">
        <ele>155.2</ele>
        <time>2020-06-28T05:49:11Z</time>
      </trkpt>
      <trkpt lat="48.99851" lon="8.00624">
        <ele>155.1</ele>
        <time>2020-06-28T05:49:12Z</time>
      </trkpt>
      <trkpt lat="48.99849" lon="8.00636">
        <ele>155</ele>
        <time>2020-06-28T05:49:13Z</time>
      </trkpt>
      <trkpt lat="48.99847" lon="8.00647">
        <ele>154.9</ele>
        <time>2020-06-28T05:49:14Z</time>
      </trkpt>
      <trkpt lat="48.99845" lon="8.00659">
        <ele>154.9</ele>
        <time>2020-06-28T05:49:15Z</time>
      </trkpt>
      <trkpt lat="48.99844" lon="8.00671">
        <ele>154.8</ele>
        <time>2020-06-28T05:49:16Z</time>
      </trkpt>
      <trkpt lat="48.99842" lon="8.00683">
        <ele>154.7</ele>
        <time>2020-06-28T05:49:17Z</time>
      </trkpt>
      <trkpt lat="48.9984" lon="8.00695">
        <ele>154.7</ele>
        <time>2020-06-28T05:49:18Z</time>
      </trkpt>
      <trkpt lat="48.99838" lon="8.00707">
        <ele>154.6</ele>
        <time>2020-06-28T05:49:19Z</time>
      </trkpt>
      <trkpt lat="48.99836" lon="8.00719">
        <ele>154.6</ele>
        <time>2020-06-28T05:49:20Z</time>
      </trkpt>
      <trkpt lat="48.99834" lon="8.00731">
        <ele>154.5</ele>
        <time>2020-06-28T05:49:21Z</time>
      </trkpt>
      <trkpt lat="48.99832" lon="8.00743">
        <ele>154.5</ele>
        <time>2020-06-28T05:49:22Z</time>
      </trkpt>
      <trkpt lat="48.9983" lon="8.00755">
        <ele>154.5</ele>
        <time>2020-06-28T05:49:23Z</time>
      </trkpt>
      <trkpt lat="48.99828" lon="8.00767">
        <ele>154.4</ele>
        <time>2020-06-28T05:49:24Z</time>
      </trkpt>
      <trkpt lat="48.99826" lon="8.00779">
        <ele>154.4</ele>
        <time>2020-06-28T05:49:25Z</time>
      </trkpt>
      <trkpt lat="48.99824" lon="8.00791">
        <ele>154.3</ele>
        <time>2020-06-28T05:49:26Z</time>
      </trkpt>
      <trkpt lat="48.99822" lon="8.00803">
        <ele>154.3</ele>
        <time>2020-06-28T05:49:27Z</time>
      </trkpt>
      <trkpt lat="48.9982" lon="8.00815">
        <ele>154.2</ele>
        <time>2020-06-28T05:49:28Z</time>
      </trkpt>
      <trkpt lat="48.99818" lon="8.00827">
        <ele>154.2</ele>
        <time>2020-06-28T05:49:29Z</time>
      </trkpt>
      <trkpt lat="48.99816" lon="8.00839">
        <ele>154.2</ele>
        <time>2020-06-28T05:49:30Z</time>
      </trkpt>
      <trkpt lat="48.99814" lon="8.00851">
        <ele>154.1</ele>
        <time>2020-06-28T05:49:31Z</time>
      </trkpt>
      <trkpt lat="48.99812" lon="8.00863">
        <ele>154.1</ele>
        <time>2020-06-28T05:49:32Z</time>
      </trkpt>
      <trkpt lat="48.9981" lon="8.00875">
        <ele>154.1</ele>
        <time>2020-06-28T05:49:33Z</time>
      </trkpt>
      <trkpt lat="48.99808" lon="8.00887">
        <ele>154</ele>
        <time>2020-06-28T05:49:34Z</time>
      </trkpt>
      <trkpt lat="48.99806" lon="8.00899">
        <ele>154</ele>
        <time>2020-06-28T05:49:35Z</time>
      </trkpt>
      <trkpt lat="48.99804" lon="8.00911">
        <ele>153.9</ele>
        <time>2020-06-28T05:49:36Z</time>
      </trkpt>
      <trkpt lat="48.99802" lon="8.00923">
        <ele>153.9</ele>
        <time>2020-06-28T05:49:37Z</time>
      </trkpt>
      <trkpt lat="48.998" lon="8.00935">
        <ele>153.8</ele>
        <time>2020-06-28T05:49:38Z</time>
      </trkpt>
      <trkpt lat="48.99798" lon="8.00947">
        <ele>153.8</ele>
        <time>2020-06-28T05:49:39Z</time>
      </trkpt>
      <trkpt lat="48.99796" lon="8.00959">
        <ele>153.7</ele>
        <time>2020-06-28T05:49:40Z</time>
      </trkpt>
      <trkpt lat="48.99794" lon="8.00971">
        <ele>153.6</ele>
        <time>2020-06-28T05:49:41Z</time>
      </trkpt>
      <trkpt lat="48.99792" lon="8.00982">
        <ele>153.6</ele>
        <time>2020-06-28T05:49:42Z</time>
      </trkpt>
      <trkpt lat="48.9979" lon="8.00994">
        <ele>153.6</ele>
        <time>2020-06-28T05:49:43Z</time>
      </trkpt>
      <trkpt lat="48.99788" lon="8.01007">
        <ele>153.6</ele>
        <time>2020-06-28T05:49:44Z</time>
      </trkpt>
      <trkpt lat="48.99786" lon="8.01019">
        <ele>153.5</ele>
        <time>2020-06-28T05:49:45Z</time>
      </trkpt>
      <trkpt lat="48.99785" lon="8.01031">
        <ele>153.5</ele>
        <time>2020-06-28T05:49:46Z</time>
      </trkpt>
      <trkpt lat="48.99783" lon="8.01043">
        <ele>153.5</ele>
        <time>2020-06-28T05:49:47Z</time>
      </trkpt>
      <trkpt lat="48.99781" lon="8.01055">
        <ele>153.4</ele>
        <time>2020-06-28T05:49:48Z</time>
      </trkpt>
      <trkpt lat="48.99779" lon="8.01067">
        <ele>153.4</ele>
        <time>2020-06-28T05:49:49Z</time>
      </trkpt>
      <trkpt lat="48.99776" lon="8.01079">
        <ele>153.3</ele>
        <time>2020-06-28T05:49:50Z</time>
      </trkpt>
      <trkpt lat="48.99774" lon="8.01091">
        <ele>153.3</ele>
        <time>2020-06-28T05:49:51Z</time>
      </trkpt>
      <trkpt lat="48.99772" lon="8.01103">
        <ele>153.2</ele>
        <time>2020-06-28T05:49:52Z</time>
      </trkpt>
      <trkpt lat="48.9977" lon="8.01115">
        <ele>153.2</ele>
        <time>2020-06-28T05:49:53Z</time>
      </trkpt>
      <trkpt lat="48.99769" lon="8.01127">
        <ele>153.1</ele>
        <time>2020-06-28T05:49:54Z</time>
      </trkpt>
      <trkpt lat="48.99767" lon="8.01139">
        <ele>153.1</ele>
        <time>2020-06-28T05:49:55Z</time>
      </trkpt>
      <trkpt lat="48.99765" lon="8.01151">
        <ele>153</ele>
        <time>2020-06-28T05:49:56Z</time>
      </trkpt>
      <trkpt lat="48.99763" lon="8.01163">
        <ele>153</ele>
        <time>2020-06-28T05:49:57Z</time>
      </trkpt>
      <trkpt lat="48.99761" lon="8.01175">
        <ele>152.9</ele>
        <time>2020-06-28T05:49:58Z</time>
      </trkpt>
      <trkpt lat="48.99759" lon="8.01187">
        <ele>152.8</ele>
        <time>2020-06-28T05:49:59Z</time>
      </trkpt>
      <trkpt lat="48.99757" lon="8.01199">
        <ele>152.8</ele>
        <time>2020-06-28T05:50:00Z</time>
      </trkpt>
      <trkpt lat="48.99755" lon="8.01211">
        <ele>152.7</ele>
        <time>2020-06-28T05:50:01Z</time>
      </trkpt>
      <trkpt lat="48.99753" lon="8.01223">
        <ele>152.7</ele>
        <time>2020-06-28T05:50:02Z</time>
      </trkpt>
      <trkpt lat="48.9975" lon="8.01235">
        <ele>152.6</ele>
        <time>2020-06-28T05:50:03Z</time>
      </trkpt>
      <trkpt lat="48.99748" lon="8.01246">
        <ele>152.6</ele>
        <time>2020-06-28T05:50:04Z</time>
      </trkpt>
      <trkpt lat="48.99746" lon="8.01258">
        <ele>152.5</ele>
        <time>2020-06-28T05:50:05Z</time>
      </trkpt>
      <trkpt lat="48.99744" lon="8.0127">
        <ele>152.5</ele>
        <time>2020-06-28T05:50:06Z</time>
      </trkpt>
      <trkpt lat="48.99743" lon="8.01282">
        <ele>152.6</ele>
        <time>2020-06-28T05:50:07Z</time>
      </trkpt>
      <trkpt lat="48.99741" lon="8.01293">
        <ele>152.6</ele>
        <time>2020-06-28T05:50:08Z</time>
      </trkpt>
      <trkpt lat="48.99739" lon="8.01305">
        <ele>152.6</ele>
        <time>2020-06-28T05:50:09Z</time>
      </trkpt>
      <trkpt lat="48.99737" lon="8.01317">
        <ele>152.5</ele>
        <time>2020-06-28T05:50:10Z</time>
      </trkpt>
      <trkpt lat="48.99735" lon="8.01328">
        <ele>152.4</ele>
        <time>2020-06-28T05:50:11Z</time>
      </trkpt>
      <trkpt lat="48.99733" lon="8.0134">
        <ele>152.4</ele>
        <time>2020-06-28T05:50:12Z</time>
      </trkpt>
      <trkpt lat="48.99731" lon="8.01351">
        <ele>152.4</ele>
        <time>2020-06-28T05:50:13Z</time>
      </trkpt>
      <trkpt lat="48.99729" lon="8.01363">
        <ele>152.3</ele>
        <time>2020-06-28T05:50:14Z</time>
      </trkpt>
      <trkpt lat="48.99727" lon="8.01375">
        <ele>152.3</ele>
        <time>2020-06-28T05:50:15Z</time>
      </trkpt>
      <trkpt lat="48.99725" lon="8.01387">
        <ele>152.2</ele>
        <time>2020-06-28T05:50:16Z</time>
      </trkpt>
      <trkpt lat="48.99724" lon="8.01398">
        <ele>152.2</ele>
        <time>2020-06-28T05:50:17Z</time>
      </trkpt>
      <trkpt lat="48.99722" lon="8.0141">
        <ele>152.1</ele>
        <time>2020-06-28T05:50:18Z</time>
      </trkpt>
      <trkpt lat="48.9972" lon="8.01422">
        <ele>152</ele>
        <time>2020-06-28T05:50:19Z</time>
      </trkpt>
      <trkpt lat="48.99718" lon="8.01434">
        <ele>152</ele>
        <time>2020-06-28T05:50:20Z</time>
      </trkpt>
      <trkpt lat="48.99716" lon="8.01446">
        <ele>152</ele>
        <time>2020-06-28T05:50:21Z</time>
      </trkpt>
      <trkpt lat="48.99714" lon="8.01457">
        <ele>152</ele>
        <time>2020-06-28T05:50:22Z</time>
      </trkpt>
      <trkpt lat="48.99712" lon="8.01469">
        <ele>151.9</ele>
        <time>2020-06-28T05:50:23Z</time>
      </trkpt>
      <trkpt lat="48.9971" lon="8.01481">
        <ele>151.9</ele>
        <time>2020-06-28T05:50:24Z</time>
      </trkpt>
      <trkpt lat="48.99708" lon="8.01492">
        <ele>151.8</ele>
        <time>2020-06-28T05:50:25Z</time>
      </trkpt>
      <trkpt lat="48.99706" lon="8.01503">
        <ele>151.8</ele>
        <time>2020-06-28T05:50:26Z</time>
      </trkpt>
      <trkpt lat="48.99703" lon="8.01514">
        <ele>151.8</ele>
        <time>2020-06-28T05:50:27Z</time>
      </trkpt>
      <trkpt lat="48.99701" lon="8.01525">
        <ele>151.8</ele>
        <time>2020-06-28T05:50:28Z</time>
      </trkpt>
      <trkpt lat="48.99699" lon="8.01536">
        <ele>151.7</ele>
        <time>2020-06-28T05:50:29Z</time>
      </trkpt>
      <trkpt lat="48.99697" lon="8.01547">
        <ele>151.7</ele>
        <time>2020-06-28T05:50:30Z</time>
      </trkpt>
      <trkpt lat="48.99695" lon="8.01559">
        <ele>151.6</ele>
        <time>2020-06-28T05:50:31Z</time>
      </trkpt>
      <trkpt lat="48.99693" lon="8.0157">
        <ele>151.6</ele>
        <time>2020-06-28T05:50:32Z</time>
      </trkpt>
      <trkpt lat="48.99691" lon="8.01581">
        <ele>151.6</ele>
        <time>2020-06-28T05:50:33Z</time>
      </trkpt>
      <trkpt lat="48.99688" lon="8.01592">
        <ele>151.6</ele>
        <time>2020-06-28T05:50:34Z</time>
      </trkpt>
      <trkpt lat="48.99686" lon="8.01603">
        <ele>151.5</ele>
        <time>2020-06-28T05:50:35Z</time>
      </trkpt>
      <trkpt lat="48.99684" lon="8.01615">
        <ele>151.5</ele>
        <time>2020-06-28T05:50:36Z</time>
      </trkpt>
      <trkpt lat="48.99682" lon="8.01626">
        <ele>151.5</ele>
        <time>2020-06-28T05:50:37Z</time>
      </trkpt>
      <trkpt lat="48.9968" lon="8.01638">
        <ele>151.5</ele>
        <time>2020-06-28T05:50:38Z</time>
      </trkpt>
      <trkpt lat="48.99679" lon="8.0165">
        <ele>151.5</ele>
        <time>2020-06-28T05:50:39Z</time>
      </trkpt>
      <trkpt lat="48.99677" lon="8.01661">
        <ele>151.4</ele>
        <time>2020-06-28T05:50:40Z</time>
      </trkpt>
      <trkpt lat="48.99676" lon="8.01674">
        <ele>151.4</ele>
        <time>2020-06-28T05:50:41Z</time>
      </trkpt>
      <trkpt lat="48.99674" lon="8.01685">
        <ele>151.4</ele>
        <time>2020-06-28T05:50:42Z</time>
      </trkpt>
      <trkpt lat="48.99673" lon="8.01697">
        <ele>151.4</ele>
        <time>2020-06-28T05:50:43Z</time>
      </trkpt>
      <trkpt lat="48.99671" lon="8.01709">
        <ele>151.3</ele>
        <time>2020-06-28T05:50:44Z</time>
      </trkpt>
      <trkpt lat="48.99668" lon="8.0172">
        <ele>151.3</ele>
        <time>2020-06-28T05:50:45Z</time>
      </trkpt>
      <trkpt lat="48.99667" lon="8.01732">
        <ele>151.3</ele>
        <time>2020-06-28T05:50:46Z</time>
      </trkpt>
      <trkpt lat="48.99665" lon="8.01743">
        <ele>151.2</ele>
        <time>2020-06-28T05:50:47Z</time>
      </trkpt>
      <trkpt lat="48.99663" lon="8.01755">
        <ele>151.1</ele>
        <time>2020-06-28T05:50:48Z</time>
      </trkpt>
      <trkpt lat="48.99661" lon="8.01766">
        <ele>151.1</ele>
        <time>2020-06-28T05:50:49Z</time>
      </trkpt>
      <trkpt lat="48.9966" lon="8.01777">
        <ele>151.1</ele>
        <time>2020-06-28T05:50:50Z</time>
      </trkpt>
      <trkpt lat="48.99658" lon="8.01789">
        <ele>151.1</ele>
        <time>2020-06-28T05:50:51Z</time>
      </trkpt>
      <trkpt lat="48.99656" lon="8.01802">
        <ele>151.1</ele>
        <time>2020-06-28T05:50:52Z</time>
      </trkpt>
      <trkpt lat="48.99654" lon="8.01814">
        <ele>151.1</ele>
        <time>2020-06-28T05:50:53Z</time>
      </trkpt>
      <trkpt lat="48.99653" lon="8.01826">
        <ele>151.2</ele>
        <time>2020-06-28T05:50:54Z</time>
      </trkpt>
      <trkpt lat="48.99651" lon="8.01838">
        <ele>151</ele>
        <time>2020-06-28T05:50:55Z</time>
      </trkpt>
      <trkpt lat="48.99649" lon="8.0185">
        <ele>150.9</ele>
        <time>2020-06-28T05:50:56Z</time>
      </trkpt>
      <trkpt lat="48.99647" lon="8.01862">
        <ele>150.8</ele>
        <time>2020-06-28T05:50:57Z</time>
      </trkpt>
      <trkpt lat="48.99645" lon="8.01874">
        <ele>150.8</ele>
        <time>2020-06-28T05:50:58Z</time>
      </trkpt>
      <trkpt lat="48.99643" lon="8.01886">
        <ele>150.7</ele>
        <time>2020-06-28T05:50:59Z</time>
      </trkpt>
      <trkpt lat="48.99642" lon="8.01899">
        <ele>150.6</ele>
        <time>2020-06-28T05:51:00Z</time>
      </trkpt>
      <trkpt lat="48.9964" lon="8.01911">
        <ele>150.6</ele>
        <time>2020-06-28T05:51:01Z</time>
      </trkpt>
      <trkpt lat="48.99639" lon="8.01923">
        <ele>150.7</ele>
        <time>2020-06-28T05:51:02Z</time>
      </trkpt>
      <trkpt lat="48.99637" lon="8.01935">
        <ele>150.7</ele>
        <time>2020-06-28T05:51:03Z</time>
      </trkpt>
      <trkpt lat="48.99635" lon="8.01947">
        <ele>150.7</ele>
        <time>2020-06-28T05:51:04Z</time>
      </trkpt>
      <trkpt lat="48.99633" lon="8.01959">
        <ele>150.6</ele>
        <time>2020-06-28T05:51:05Z</time>
      </trkpt>
      <trkpt lat="48.99631" lon="8.01971">
        <ele>150.6</ele>
        <time>2020-06-28T05:51:06Z</time>
      </trkpt>
      <trkpt lat="48.9963" lon="8.01983">
        <ele>150.6</ele>
        <time>2020-06-28T05:51:07Z</time>
      </trkpt>
      <trkpt lat="48.99628" lon="8.01995">
        <ele>150.5</ele>
        <time>2020-06-28T05:51:08Z</time>
      </trkpt>
      <trkpt lat="48.99625" lon="8.02007">
        <ele>150.4</ele>
        <time>2020-06-28T05:51:09Z</time>
      </trkpt>
      <trkpt lat="48.99624" lon="8.02019">
        <ele>150.4</ele>
        <time>2020-06-28T05:51:10Z</time>
      </trkpt>
      <trkpt lat="48.99621" lon="8.02031">
        <ele>150.3</ele>
        <time>2020-06-28T05:51:11Z</time>
      </trkpt>
      <trkpt lat="48.99619" lon="8.02043">
        <ele>150.2</ele>
        <time>2020-06-28T05:51:12Z</time>
      </trkpt>
      <trkpt lat="48.99617" lon="8.02055">
        <ele>150.1</ele>
        <time>2020-06-28T05:51:13Z</time>
      </trkpt>
      <trkpt lat="48.99615" lon="8.02066">
        <ele>150.1</ele>
        <time>2020-06-28T05:51:14Z</time>
      </trkpt>
      <trkpt lat="48.99613" lon="8.02078">
        <ele>150</ele>
        <time>2020-06-28T05:51:15Z</time>
      </trkpt>
      <trkpt lat="48.99611" lon="8.02089">
        <ele>149.9</ele>
        <time>2020-06-28T05:51:16Z</time>
      </trkpt>
      <trkpt lat="48.99609" lon="8.02101">
        <ele>149.9</ele>
        <time>2020-06-28T05:51:17Z</time>
      </trkpt>
      <trkpt lat="48.99608" lon="8.02113">
        <ele>149.8</ele>
        <time>2020-06-28T05:51:18Z</time>
      </trkpt>
      <trkpt lat="48.99606" lon="8.02125">
        <ele>149.7</ele>
        <time>2020-06-28T05:51:19Z</time>
      </trkpt>
      <trkpt lat="48.99604" lon="8.02136">
        <ele>149.7</ele>
        <time>2020-06-28T05:51:20Z</time>
      </trkpt>
      <trkpt lat="48.99601" lon="8.02147">
        <ele>149.7</ele>
        <time>2020-06-28T05:51:21Z</time>
      </trkpt>
      <trkpt lat="48.99599" lon="8.02159">
        <ele>149.7</ele>
        <time>2020-06-28T05:51:22Z</time>
      </trkpt>
      <trkpt lat="48.99597" lon="8.0217">
        <ele>149.6</ele>
        <time>2020-06-28T05:51:23Z</time>
      </trkpt>
      <trkpt lat="48.99595" lon="8.02182">
        <ele>149.6</ele>
        <time>2020-06-28T05:51:24Z</time>
      </trkpt>
      <trkpt lat="48.99593" lon="8.02193">
        <ele>149.5</ele>
        <time>2020-06-28T05:51:25Z</time>
      </trkpt>
      <trkpt lat="48.99591" lon="8.02205">
        <ele>149.4</ele>
        <time>2020-06-28T05:51:26Z</time>
      </trkpt>
      <trkpt lat="48.99589" lon="8.02216">
        <ele>149.4</ele>
        <time>2020-06-28T05:51:27Z</time>
      </trkpt>
      <trkpt lat="48.99587" lon="8.02228">
        <ele>149.3</ele>
        <time>2020-06-28T05:51:28Z</time>
      </trkpt>
      <trkpt lat="48.99585" lon="8.02239">
        <ele>149.3</ele>
        <time>2020-06-28T05:51:29Z</time>
      </trkpt>
      <trkpt lat="48.99583" lon="8.0225">
        <ele>149.3</ele>
        <time>2020-06-28T05:51:30Z</time>
      </trkpt>
      <trkpt lat="48.99581" lon="8.02262">
        <ele>149.2</ele>
        <time>2020-06-28T05:51:31Z</time>
      </trkpt>
      <trkpt lat="48.99579" lon="8.02273">
        <ele>149.2</ele>
        <time>2020-06-28T05:51:32Z</time>
      </trkpt>
      <trkpt lat="48.99577" lon="8.02285">
        <ele>149.2</ele>
        <time>2020-06-28T05:51:33Z</time>
      </trkpt>
      <trkpt lat="48.99575" lon="8.02297">
        <ele>149.1</ele>
        <time>2020-06-28T05:51:34Z</time>
      </trkpt>
      <trkpt lat="48.99573" lon="8.02309">
        <ele>149.1</ele>
        <time>2020-06-28T05:51:35Z</time>
      </trkpt>
      <trkpt lat="48.99571" lon="8.02321">
        <ele>149.1</ele>
        <time>2020-06-28T05:51:36Z</time>
      </trkpt>
      <trkpt lat="48.9957" lon="8.02333">
        <ele>149</ele>
        <time>2020-06-28T05:51:37Z</time>
      </trkpt>
      <trkpt lat="48.99568" lon="8.02345">
        <ele>148.9</ele>
        <time>2020-06-28T05:51:38Z</time>
      </trkpt>
      <trkpt lat="48.99566" lon="8.02356">
        <ele>148.9</ele>
        <time>2020-06-28T05:51:39Z</time>
      </trkpt>
      <trkpt lat="48.99565" lon="8.02368">
        <ele>148.8</ele>
        <time>2020-06-28T05:51:40Z</time>
      </trkpt>
      <trkpt lat="48.99563" lon="8.0238">
        <ele>148.7</ele>
        <time>2020-06-28T05:51:41Z</time>
      </trkpt>
      <trkpt lat="48.99563" lon="8.02392">
        <ele>148.7</ele>
        <time>2020-06-28T05:51:42Z</time>
      </trkpt>
      <trkpt lat="48.99562" lon="8.02405">
        <ele>148.6</ele>
        <time>2020-06-28T05:51:43Z</time>
      </trkpt>
      <trkpt lat="48.99562" lon="8.02417">
        <ele>148.6</ele>
        <time>2020-06-28T05:51:44Z</time>
      </trkpt>
      <trkpt lat="48.99562" lon="8.02429">
        <ele>148.6</ele>
        <time>2020-06-28T05:51:45Z</time>
      </trkpt>
      <trkpt lat="48.99562" lon="8.02442">
        <ele>148.5</ele>
        <time>2020-06-28T05:51:46Z</time>
      </trkpt>
      <trkpt lat="48.99562" lon="8.02455">
        <ele>148.5</ele>
        <time>2020-06-28T05:51:47Z</time>
      </trkpt>
      <trkpt lat="48.99562" lon="8.02468">
        <ele>148.5</ele>
        <time>2020-06-28T05:51:48Z</time>
      </trkpt>
      <trkpt lat="48.99561" lon="8.0248">
        <ele>148.4</ele>
        <time>2020-06-28T05:51:49Z</time>
      </trkpt>
      <trkpt lat="48.99561" lon="8.02493">
        <ele>148.4</ele>
        <time>2020-06-28T05:51:50Z</time>
      </trkpt>
      <trkpt lat="48.9956" lon="8.02506">
        <ele>148.4</ele>
        <time>2020-06-28T05:51:51Z</time>
      </trkpt>
      <trkpt lat="48.99559" lon="8.02518">
        <ele>148.4</ele>
        <time>2020-06-28T05:51:52Z</time>
      </trkpt>
      <trkpt lat="48.99558" lon="8.0253">
        <ele>148.4</ele>
        <time>2020-06-28T05:51:53Z</time>
      </trkpt>
      <trkpt lat="48.99558" lon="8.02541">
        <ele>148.3</ele>
        <time>2020-06-28T05:51:54Z</time>
      </trkpt>
      <trkpt lat="48.99558" lon="8.02553">
        <ele>148.3</ele>
        <time>2020-06-28T05:51:55Z</time>
      </trkpt>
      <trkpt lat="48.99557" lon="8.02564">
        <ele>148.2</ele>
        <time>2020-06-28T05:51:56Z</time>
      </trkpt>
      <trkpt lat="48.99557" lon="8.02575">
        <ele>148.1</ele>
        <time>2020-06-28T05:51:57Z</time>
      </trkpt>
      <trkpt lat="48.99557" lon="8.02585">
        <ele>148.1</ele>
        <time>2020-06-28T05:51:58Z</time>
      </trkpt>
      <trkpt lat="48.99556" lon="8.02596">
        <ele>148</ele>
        <time>2020-06-28T05:51:59Z</time>
      </trkpt>
      <trkpt lat="48.99555" lon="8.02606">
        <ele>147.9</ele>
        <time>2020-06-28T05:52:00Z</time>
      </trkpt>
      <trkpt lat="48.99554" lon="8.02616">
        <ele>147.9</ele>
        <time>2020-06-28T05:52:01Z</time>
      </trkpt>
      <trkpt lat="48.99554" lon="8.02626">
        <ele>147.8</ele>
        <time>2020-06-28T05:52:02Z</time>
      </trkpt>
      <trkpt lat="48.99553" lon="8.02636">
        <ele>147.7</ele>
        <time>2020-06-28T05:52:03Z</time>
      </trkpt>
      <trkpt lat="48.99553" lon="8.02645">
        <ele>147.7</ele>
        <time>2020-06-28T05:52:04Z</time>
      </trkpt>
      <trkpt lat="48.99552" lon="8.02655">
        <ele>147.7</ele>
        <time>2020-06-28T05:52:05Z</time>
      </trkpt>
      <trkpt lat="48.99551" lon="8.02665">
        <ele>147.6</ele>
        <time>2020-06-28T05:52:06Z</time>
      </trkpt>
      <trkpt lat="48.99551" lon="8.02674">
        <ele>147.6</ele>
        <time>2020-06-28T05:52:07Z</time>
      </trkpt>
      <trkpt lat="48.99551" lon="8.02684">
        <ele>147.6</ele>
        <time>2020-06-28T05:52:08Z</time>
      </trkpt>
      <trkpt lat="48.9955" lon="8.02693">
        <ele>147.6</ele>
        <time>2020-06-28T05:52:09Z</time>
      </trkpt>
      <trkpt lat="48.9955" lon="8.02703">
        <ele>147.6</ele>
        <time>2020-06-28T05:52:10Z</time>
      </trkpt>
      <trkpt lat="48.99549" lon="8.02712">
        <ele>147.6</ele>
        <time>2020-06-28T05:52:11Z</time>
      </trkpt>
      <trkpt lat="48.99549" lon="8.02721">
        <ele>147.6</ele>
        <time>2020-06-28T05:52:12Z</time>
      </trkpt>
      <trkpt lat="48.99549" lon="8.0273">
        <ele>147.6</ele>
        <time>2020-06-28T05:52:13Z</time>
      </trkpt>
      <trkpt lat="48.99548" lon="8.02739">
        <ele>147.6</ele>
        <time>2020-06-28T05:52:14Z</time>
      </trkpt>
      <trkpt lat="48.99548" lon="8.02748">
        <ele>147.5</ele>
        <time>2020-06-28T05:52:15Z</time>
      </trkpt>
      <trkpt lat="48.99547" lon="8.02756">
        <ele>147.5</ele>
        <time>2020-06-28T05:52:16Z</time>
      </trkpt>
      <trkpt lat="48.99547" lon="8.02764">
        <ele>147.5</ele>
        <time>2020-06-28T05:52:17Z</time>
      </trkpt>
      <trkpt lat="48.99546" lon="8.02773">
        <ele>147.5</ele>
        <time>2020-06-28T05:52:18Z</time>
      </trkpt>
      <trkpt lat="48.99546" lon="8.02781">
        <ele>147.6</ele>
        <time>2020-06-28T05:52:19Z</time>
      </trkpt>
      <trkpt lat="48.99546" lon="8.0279">
        <ele>147.6</ele>
        <time>2020-06-28T05:52:20Z</time>
      </trkpt>
      <trkpt lat="48.99546" lon="8.02799">
        <ele>147.5</ele>
        <time>2020-06-28T05:52:21Z</time>
      </trkpt>
      <trkpt lat="48.99546" lon="8.02808">
        <ele>147.5</ele>
        <time>2020-06-28T05:52:22Z</time>
      </trkpt>
      <trkpt lat="48.99545" lon="8.02817">
        <ele>147.5</ele>
        <time>2020-06-28T05:52:23Z</time>
      </trkpt>
      <trkpt lat="48.99544" lon="8.02826">
        <ele>147.5</ele>
        <time>2020-06-28T05:52:24Z</time>
      </trkpt>
      <trkpt lat="48.99544" lon="8.02835">
        <ele>147.5</ele>
        <time>2020-06-28T05:52:25Z</time>
      </trkpt>
      <trkpt lat="48.99542" lon="8.02844">
        <ele>147.5</ele>
        <time>2020-06-28T05:52:26Z</time>
      </trkpt>
      <trkpt lat="48.99541" lon="8.02853">
        <ele>147.5</ele>
        <time>2020-06-28T05:52:27Z</time>
      </trkpt>
      <trkpt lat="48.99538" lon="8.02862">
        <ele>147.5</ele>
        <time>2020-06-28T05:52:28Z</time>
      </trkpt>
      <trkpt lat="48.99536" lon="8.0287">
        <ele>147.6</ele>
        <time>2020-06-28T05:52:29Z</time>
      </trkpt>
      <trkpt lat="48.99534" lon="8.02879">
        <ele>147.6</ele>
        <time>2020-06-28T05:52:30Z</time>
      </trkpt>
      <trkpt lat="48.99532" lon="8.02886">
        <ele>147.7</ele>
        <time>2020-06-28T05:52:31Z</time>
      </trkpt>
      <trkpt lat="48.99529" lon="8.02893">
        <ele>147.7</ele>
        <time>2020-06-28T05:52:32Z</time>
      </trkpt>
      <trkpt lat="48.99527" lon="8.029">
        <ele>147.7</ele>
        <time>2020-06-28T05:52:33Z</time>
      </trkpt>
      <trkpt lat="48.99526" lon="8.02908">
        <ele>147.8</ele>
        <time>2020-06-28T05:52:34Z</time>
      </trkpt>
      <trkpt lat="48.99525" lon="8.02915">
        <ele>147.8</ele>
        <time>2020-06-28T05:52:35Z</time>
      </trkpt>
      <trkpt lat="48.99524" lon="8.02922">
        <ele>147.8</ele>
        <time>2020-06-28T05:52:36Z</time>
      </trkpt>
      <trkpt lat="48.99523" lon="8.02928">
        <ele>147.8</ele>
        <time>2020-06-28T05:52:37Z</time>
      </trkpt>
      <trkpt lat="48.99523" lon="8.02933">
        <ele>147.7</ele>
        <time>2020-06-28T05:52:38Z</time>
      </trkpt>
      <trkpt lat="48.99521" lon="8.02938">
        <ele>147.6</ele>
        <time>2020-06-28T05:52:39Z</time>
      </trkpt>
      <trkpt lat="48.9952" lon="8.02942">
        <ele>147.5</ele>
        <time>2020-06-28T05:52:40Z</time>
      </trkpt>
      <trkpt lat="48.99519" lon="8.02947">
        <ele>147.4</ele>
        <time>2020-06-28T05:52:41Z</time>
      </trkpt>
      <trkpt lat="48.99518" lon="8.02952">
        <ele>147.3</ele>
        <time>2020-06-28T05:52:42Z</time>
      </trkpt>
      <trkpt lat="48.99516" lon="8.02959">
        <ele>147.2</ele>
        <time>2020-06-28T05:52:43Z</time>
      </trkpt>
      <trkpt lat="48.99515" lon="8.02967">
        <ele>147.1</ele>
        <time>2020-06-28T05:52:44Z</time>
      </trkpt>
      <trkpt lat="48.99513" lon="8.02976">
        <ele>147</ele>
        <time>2020-06-28T05:52:45Z</time>
      </trkpt>
      <trkpt lat="48.9951" lon="8.02984">
        <ele>146.9</ele>
        <time>2020-06-28T05:52:46Z</time>
      </trkpt>
      <trkpt lat="48.99507" lon="8.02992">
        <ele>146.8</ele>
        <time>2020-06-28T05:52:47Z</time>
      </trkpt>
      <trkpt lat="48.99505" lon="8.03001">
        <ele>146.7</ele>
        <time>2020-06-28T05:52:48Z</time>
      </trkpt>
      <trkpt lat="48.99502" lon="8.03008">
        <ele>146.6</ele>
        <time>2020-06-28T05:52:49Z</time>
      </trkpt>
      <trkpt lat="48.99499" lon="8.03016">
        <ele>146.6</ele>
        <time>2020-06-28T05:52:50Z</time>
      </trkpt>
      <trkpt lat="48.99497" lon="8.03023">
        <ele>146.5</ele>
        <time>2020-06-28T05:52:51Z</time>
      </trkpt>
      <trkpt lat="48.99494" lon="8.03031">
        <ele>146.5</ele>
        <time>2020-06-28T05:52:52Z</time>
      </trkpt>
      <trkpt lat="48.99491" lon="8.03038">
        <ele>146.5</ele>
        <time>2020-06-28T05:52:53Z</time>
      </trkpt>
      <trkpt lat="48.99488" lon="8.03046">
        <ele>146.5</ele>
        <time>2020-06-28T05:52:54Z</time>
      </trkpt>
      <trkpt lat="48.99487" lon="8.03055">
        <ele>146.6</ele>
        <time>2020-06-28T05:52:55Z</time>
      </trkpt>
      <trkpt lat="48.99485" lon="8.03064">
        <ele>146.5</ele>
        <time>2020-06-28T05:52:56Z</time>
      </trkpt>
      <trkpt lat="48.99482" lon="8.03072">
        <ele>146.4</ele>
        <time>2020-06-28T05:52:57Z</time>
      </trkpt>
      <trkpt lat="48.99481" lon="8.03082">
        <ele>146.4</ele>
        <time>2020-06-28T05:52:58Z</time>
      </trkpt>
      <trkpt lat="48.99478" lon="8.03091">
        <ele>146.3</ele>
        <time>2020-06-28T05:52:59Z</time>
      </trkpt>
      <trkpt lat="48.99476" lon="8.03101">
        <ele>146.2</ele>
        <time>2020-06-28T05:53:00Z</time>
      </trkpt>
      <trkpt lat="48.99474" lon="8.03111">
        <ele>146.2</ele>
        <time>2020-06-28T05:53:01Z</time>
      </trkpt>
      <trkpt lat="48.99471" lon="8.0312">
        <ele>146.2</ele>
        <time>2020-06-28T05:53:02Z</time>
      </trkpt>
      <trkpt lat="48.99469" lon="8.03129">
        <ele>146.1</ele>
        <time>2020-06-28T05:53:03Z</time>
      </trkpt>
      <trkpt lat="48.99467" lon="8.03138">
        <ele>146.1</ele>
        <time>2020-06-28T05:53:04Z</time>
      </trkpt>
      <trkpt lat="48.99464" lon="8.03147">
        <ele>146.1</ele>
        <time>2020-06-28T05:53:05Z</time>
      </trkpt>
      <trkpt lat="48.99461" lon="8.03156">
        <ele>146</ele>
        <time>2020-06-28T05:53:06Z</time>
      </trkpt>
      <trkpt lat="48.99458" lon="8.03165">
        <ele>146</ele>
        <time>2020-06-28T05:53:07Z</time>
      </trkpt>
      <trkpt lat="48.99456" lon="8.03174">
        <ele>145.9</ele>
        <time>2020-06-28T05:53:08Z</time>
      </trkpt>
      <trkpt lat="48.99453" lon="8.03183">
        <ele>145.9</ele>
        <time>2020-06-28T05:53:09Z</time>
      </trkpt>
      <trkpt lat="48.9945" lon="8.03193">
        <ele>145.9</ele>
        <time>2020-06-28T05:53:10Z</time>
      </trkpt>
      <trkpt lat="48.99448" lon="8.03202">
        <ele>145.9</ele>
        <time>2020-06-28T05:53:11Z</time>
      </trkpt>
      <trkpt lat="48.99445" lon="8.03212">
        <ele>145.8</ele>
        <time>2020-06-28T05:53:12Z</time>
      </trkpt>
      <trkpt lat="48.99442" lon="8.03221">
        <ele>145.8</ele>
        <time>2020-06-28T05:53:13Z</time>
      </trkpt>
      <trkpt lat="48.9944" lon="8.03231">
        <ele>145.7</ele>
        <time>2020-06-28T05:53:14Z</time>
      </trkpt>
      <trkpt lat="48.99438" lon="8.03241">
        <ele>145.7</ele>
        <time>2020-06-28T05:53:15Z</time>
      </trkpt>
      <trkpt lat="48.99435" lon="8.03251">
        <ele>145.6</ele>
        <time>2020-06-28T05:53:16Z</time>
      </trkpt>
      <trkpt lat="48.99432" lon="8.03261">
        <ele>145.5</ele>
        <time>2020-06-28T05:53:17Z</time>
      </trkpt>
      <trkpt lat="48.9943" lon="8.03271">
        <ele>145.5</ele>
        <time>2020-06-28T05:53:18Z</time>
      </trkpt>
      <trkpt lat="48.99427" lon="8.03281">
        <ele>145.5</ele>
        <time>2020-06-28T05:53:19Z</time>
      </trkpt>
      <trkpt lat="48.99424" lon="8.03291">
        <ele>145.5</ele>
        <time>2020-06-28T05:53:20Z</time>
      </trkpt>
      <trkpt lat="48.99422" lon="8.03301">
        <ele>145.5</ele>
        <time>2020-06-28T05:53:21Z</time>
      </trkpt>
      <trkpt lat="48.99419" lon="8.0331">
        <ele>145.5</ele>
        <time>2020-06-28T05:53:22Z</time>
      </trkpt>
      <trkpt lat="48.99416" lon="8.03319">
        <ele>145.5</ele>
        <time>2020-06-28T05:53:23Z</time>
      </trkpt>
      <trkpt lat="48.99413" lon="8.03328">
        <ele>145.4</ele>
        <time>2020-06-28T05:53:24Z</time>
      </trkpt>
      <trkpt lat="48.9941" lon="8.03338">
        <ele>145.3</ele>
        <time>2020-06-28T05:53:25Z</time>
      </trkpt>
      <trkpt lat="48.99407" lon="8.03348">
        <ele>145.3</ele>
        <time>2020-06-28T05:53:26Z</time>
      </trkpt>
      <trkpt lat="48.99404" lon="8.03358">
        <ele>145.2</ele>
        <time>2020-06-28T05:53:27Z</time>
      </trkpt>
      <trkpt lat="48.99401" lon="8.03367">
        <ele>145.2</ele>
        <time>2020-06-28T05:53:28Z</time>
      </trkpt>
      <trkpt lat="48.99398" lon="8.03377">
        <ele>145.1</ele>
        <time>2020-06-28T05:53:29Z</time>
      </trkpt>
      <trkpt lat="48.99396" lon="8.03386">
        <ele>145.1</ele>
        <time>2020-06-28T05:53:30Z</time>
      </trkpt>
      <trkpt lat="48.99393" lon="8.03395">
        <ele>145.1</ele>
        <time>2020-06-28T05:53:31Z</time>
      </trkpt>
      <trkpt lat="48.9939" lon="8.03404">
        <ele>145.1</ele>
        <time>2020-06-28T05:53:32Z</time>
      </trkpt>
      <trkpt lat="48.99387" lon="8.03413">
        <ele>145</ele>
        <time>2020-06-28T05:53:33Z</time>
      </trkpt>
      <trkpt lat="48.99385" lon="8.03421">
        <ele>145</ele>
        <time>2020-06-28T05:53:34Z</time>
      </trkpt>
      <trkpt lat="48.99382" lon="8.0343">
        <ele>145</ele>
        <time>2020-06-28T05:53:35Z</time>
      </trkpt>
      <trkpt lat="48.9938" lon="8.03439">
        <ele>145.1</ele>
        <time>2020-06-28T05:53:36Z</time>
      </trkpt>
      <trkpt lat="48.99377" lon="8.03448">
        <ele>145.1</ele>
        <time>2020-06-28T05:53:37Z</time>
      </trkpt>
      <trkpt lat="48.99374" lon="8.03456">
        <ele>145.2</ele>
        <time>2020-06-28T05:53:38Z</time>
      </trkpt>
      <trkpt lat="48.99371" lon="8.03464">
        <ele>145.2</ele>
        <time>2020-06-28T05:53:39Z</time>
      </trkpt>
      <trkpt lat="48.99369" lon="8.03473">
        <ele>145.2</ele>
        <time>2020-06-28T05:53:40Z</time>
      </trkpt>
      <trkpt lat="48.99366" lon="8.03481">
        <ele>145.3</ele>
        <time>2020-06-28T05:53:41Z</time>
      </trkpt>
      <trkpt lat="48.99363" lon="8.03489">
        <ele>145.2</ele>
        <time>2020-06-28T05:53:42Z</time>
      </trkpt>
      <trkpt lat="48.99362" lon="8.03498">
        <ele>145.1</ele>
        <time>2020-06-28T05:53:43Z</time>
      </trkpt>
      <trkpt lat="48.9936" lon="8.03507">
        <ele>145.1</ele>
        <time>2020-06-28T05:53:44Z</time>
      </trkpt>
      <trkpt lat="48.99357" lon="8.03516">
        <ele>145</ele>
        <time>2020-06-28T05:53:45Z</time>
      </trkpt>
      <trkpt lat="48.99355" lon="8.03526">
        <ele>145</ele>
        <time>2020-06-28T05:53:46Z</time>
      </trkpt>
      <trkpt lat="48.99353" lon="8.03535">
        <ele>145</ele>
        <time>2020-06-28T05:53:47Z</time>
      </trkpt>
      <trkpt lat="48.99351" lon="8.03543">
        <ele>145</ele>
        <time>2020-06-28T05:53:48Z</time>
      </trkpt>
      <trkpt lat="48.99348" lon="8.03551">
        <ele>145</ele>
        <time>2020-06-28T05:53:49Z</time>
      </trkpt>
      <trkpt lat="48.99346" lon="8.03558">
        <ele>145</ele>
        <time>2020-06-28T05:53:50Z</time>
      </trkpt>
      <trkpt lat="48.99345" lon="8.03565">
        <ele>145</ele>
        <time>2020-06-28T05:53:51Z</time>
      </trkpt>
      <trkpt lat="48.99343" lon="8.03572">
        <ele>145</ele>
        <time>2020-06-28T05:53:52Z</time>
      </trkpt>
      <trkpt lat="48.99341" lon="8.03579">
        <ele>144.9</ele>
        <time>2020-06-28T05:53:53Z</time>
      </trkpt>
      <trkpt lat="48.99339" lon="8.03588">
        <ele>144.9</ele>
        <time>2020-06-28T05:53:54Z</time>
      </trkpt>
      <trkpt lat="48.99335" lon="8.03596">
        <ele>144.9</ele>
        <time>2020-06-28T05:53:55Z</time>
      </trkpt>
      <trkpt lat="48.99332" lon="8.03605">
        <ele>144.9</ele>
        <time>2020-06-28T05:53:56Z</time>
      </trkpt>
      <trkpt lat="48.99329" lon="8.03614">
        <ele>144.8</ele>
        <time>2020-06-28T05:53:57Z</time>
      </trkpt>
      <trkpt lat="48.99326" lon="8.03623">
        <ele>144.8</ele>
        <time>2020-06-28T05:53:58Z</time>
      </trkpt>
      <trkpt lat="48.99323" lon="8.03631">
        <ele>144.8</ele>
        <time>2020-06-28T05:53:59Z</time>
      </trkpt>
      <trkpt lat="48.99322" lon="8.03641">
        <ele>144.8</ele>
        <time>2020-06-28T05:54:00Z</time>
      </trkpt>
      <trkpt lat="48.99319" lon="8.03649">
        <ele>144.8</ele>
        <time>2020-06-28T05:54:01Z</time>
      </trkpt>
      <trkpt lat="48.99317" lon="8.03657">
        <ele>144.8</ele>
        <time>2020-06-28T05:54:02Z</time>
      </trkpt>
      <trkpt lat="48.99315" lon="8.03665">
        <ele>144.8</ele>
        <time>2020-06-28T05:54:03Z</time>
      </trkpt>
      <trkpt lat="48.99313" lon="8.03673">
        <ele>144.8</ele>
        <time>2020-06-28T05:54:04Z</time>
      </trkpt>
      <trkpt lat="48.9931" lon="8.0368">
        <ele>144.8</ele>
        <time>2020-06-28T05:54:05Z</time>
      </trkpt>
      <trkpt lat="48.99307" lon="8.03688">
        <ele>144.8</ele>
        <time>2020-06-28T05:54:06Z</time>
      </trkpt>
      <trkpt lat="48.99305" lon="8.03696">
        <ele>144.8</ele>
        <time>2020-06-28T05:54:07Z</time>
      </trkpt>
      <trkpt lat="48.99302" lon="8.03703">
        <ele>144.8</ele>
        <time>2020-06-28T05:54:08Z</time>
      </trkpt>
      <trkpt lat="48.99301" lon="8.0371">
        <ele>144.8</ele>
        <time>2020-06-28T05:54:09Z</time>
      </trkpt>
      <trkpt lat="48.99299" lon="8.03717">
        <ele>144.7</ele>
        <time>2020-06-28T05:54:10Z</time>
      </trkpt>
      <trkpt lat="48.99298" lon="8.03724">
        <ele>144.7</ele>
        <time>2020-06-28T05:54:11Z</time>
      </trkpt>
      <trkpt lat="48.99296" lon="8.03731">
        <ele>144.7</ele>
        <time>2020-06-28T05:54:12Z</time>
      </trkpt>
      <trkpt lat="48.99294" lon="8.03739">
        <ele>144.6</ele>
        <time>2020-06-28T05:54:13Z</time>
      </trkpt>
      <trkpt lat="48.99293" lon="8.03747">
        <ele>144.6</ele>
        <time>2020-06-28T05:54:14Z</time>
      </trkpt>
      <trkpt lat="48.99291" lon="8.03755">
        <ele>144.6</ele>
        <time>2020-06-28T05:54:15Z</time>
      </trkpt>
      <trkpt lat="48.99288" lon="8.03763">
        <ele>144.6</ele>
        <time>2020-06-28T05:54:16Z</time>
      </trkpt>
      <trkpt lat="48.99286" lon="8.03771">
        <ele>144.6</ele>
        <time>2020-06-28T05:54:17Z</time>
      </trkpt>
      <trkpt lat="48.99283" lon="8.0378">
        <ele>144.7</ele>
        <time>2020-06-28T05:54:18Z</time>
      </trkpt>
      <trkpt lat="48.9928" lon="8.03788">
        <ele>144.7</ele>
        <time>2020-06-28T05:54:19Z</time>
      </trkpt>
      <trkpt lat="48.99277" lon="8.03797">
        <ele>144.7</ele>
        <time>2020-06-28T05:54:20Z</time>
      </trkpt>
      <trkpt lat="48.99276" lon="8.03807">
        <ele>144.7</ele>
        <time>2020-06-28T05:54:21Z</time>
      </trkpt>
      <trkpt lat="48.99273" lon="8.03814">
        <ele>144.8</ele>
        <time>2020-06-28T05:54:22Z</time>
      </trkpt>
      <trkpt lat="48.99271" lon="8.03822">
        <ele>144.9</ele>
        <time>2020-06-28T05:54:23Z</time>
      </trkpt>
      <trkpt lat="48.99269" lon="8.03829">
        <ele>144.9</ele>
        <time>2020-06-28T05:54:24Z</time>
      </trkpt>
      <trkpt lat="48.99267" lon="8.03836">
        <ele>145</ele>
        <time>2020-06-28T05:54:25Z</time>
      </trkpt>
      <trkpt lat="48.99265" lon="8.03844">
        <ele>145.2</ele>
        <time>2020-06-28T05:54:26Z</time>
      </trkpt>
      <trkpt lat="48.99263" lon="8.03851">
        <ele>145.2</ele>
        <time>2020-06-28T05:54:27Z</time>
      </trkpt>
      <trkpt lat="48.9926" lon="8.03858">
        <ele>145.2</ele>
        <time>2020-06-28T05:54:28Z</time>
      </trkpt>
      <trkpt lat="48.99258" lon="8.03865">
        <ele>145.2</ele>
        <time>2020-06-28T05:54:29Z</time>
      </trkpt>
      <trkpt lat="48.99256" lon="8.03872">
        <ele>145.1</ele>
        <time>2020-06-28T05:54:30Z</time>
      </trkpt>
      <trkpt lat="48.99254" lon="8.0388">
        <ele>145.1</ele>
        <time>2020-06-28T05:54:31Z</time>
      </trkpt>
      <trkpt lat="48.99252" lon="8.03888">
        <ele>145.1</ele>
        <time>2020-06-28T05:54:32Z</time>
      </trkpt>
      <trkpt lat="48.9925" lon="8.03896">
        <ele>145.1</ele>
        <time>2020-06-28T05:54:33Z</time>
      </trkpt>
      <trkpt lat="48.99248" lon="8.03905">
        <ele>145</ele>
        <time>2020-06-28T05:54:34Z</time>
      </trkpt>
      <trkpt lat="48.99246" lon="8.03914">
        <ele>145</ele>
        <time>2020-06-28T05:54:35Z</time>
      </trkpt>
      <trkpt lat="48.99243" lon="8.03922">
        <ele>145</ele>
        <time>2020-06-28T05:54:36Z</time>
      </trkpt>
      <trkpt lat="48.9924" lon="8.0393">
        <ele>145</ele>
        <time>2020-06-28T05:54:37Z</time>
      </trkpt>
      <trkpt lat="48.99238" lon="8.03938">
        <ele>144.9</ele>
        <time>2020-06-28T05:54:38Z</time>
      </trkpt>
      <trkpt lat="48.99237" lon="8.03946">
        <ele>144.9</ele>
        <time>2020-06-28T05:54:39Z</time>
      </trkpt>
      <trkpt lat="48.99235" lon="8.03954">
        <ele>144.9</ele>
        <time>2020-06-28T05:54:40Z</time>
      </trkpt>
      <trkpt lat="48.99231" lon="8.03961">
        <ele>144.9</ele>
        <time>2020-06-28T05:54:41Z</time>
      </trkpt>
      <trkpt lat="48.99229" lon="8.03969">
        <ele>145</ele>
        <time>2020-06-28T05:54:42Z</time>
      </trkpt>
      <trkpt lat="48.99227" lon="8.03976">
        <ele>145</ele>
        <time>2020-06-28T05:54:43Z</time>
      </trkpt>
      <trkpt lat="48.99225" lon="8.03984">
        <ele>145</ele>
        <time>2020-06-28T05:54:44Z</time>
      </trkpt>
      <trkpt lat="48.99224" lon="8.03992">
        <ele>145</ele>
        <time>2020-06-28T05:54:45Z</time>
      </trkpt>
      <trkpt lat="48.99223" lon="8.04001">
        <ele>145</ele>
        <time>2020-06-28T05:54:46Z</time>
      </trkpt>
      <trkpt lat="48.99221" lon="8.04011">
        <ele>145</ele>
        <time>2020-06-28T05:54:47Z</time>
      </trkpt>
      <trkpt lat="48.99219" lon="8.0402">
        <ele>144.9</ele>
        <time>2020-06-28T05:54:48Z</time>
      </trkpt>
      <trkpt lat="48.99218" lon="8.0403">
        <ele>144.9</ele>
        <time>2020-06-28T05:54:49Z</time>
      </trkpt>
      <trkpt lat="48.99216" lon="8.0404">
        <ele>144.9</ele>
        <time>2020-06-28T05:54:50Z</time>
      </trkpt>
      <trkpt lat="48.99215" lon="8.04049">
        <ele>144.9</ele>
        <time>2020-06-28T05:54:51Z</time>
      </trkpt>
      <trkpt lat="48.99212" lon="8.04056">
        <ele>144.9</ele>
        <time>2020-06-28T05:54:52Z</time>
      </trkpt>
      <trkpt lat="48.99209" lon="8.04064">
        <ele>144.9</ele>
        <time>2020-06-28T05:54:53Z</time>
      </trkpt>
      <trkpt lat="48.99207" lon="8.04072">
        <ele>144.9</ele>
        <time>2020-06-28T05:54:54Z</time>
      </trkpt>
      <trkpt lat="48.99205" lon="8.04079">
        <ele>144.9</ele>
        <time>2020-06-28T05:54:55Z</time>
      </trkpt>
      <trkpt lat="48.99203" lon="8.04088">
        <ele>145</ele>
        <time>2020-06-28T05:54:56Z</time>
      </trkpt>
      <trkpt lat="48.99202" lon="8.04096">
        <ele>145</ele>
        <time>2020-06-28T05:54:57Z</time>
      </trkpt>
      <trkpt lat="48.992" lon="8.04104">
        <ele>144.9</ele>
        <time>2020-06-28T05:54:58Z</time>
      </trkpt>
      <trkpt lat="48.99199" lon="8.04112">
        <ele>144.9</ele>
        <time>2020-06-28T05:54:59Z</time>
      </trkpt>
      <trkpt lat="48.99197" lon="8.04119">
        <ele>144.9</ele>
        <time>2020-06-28T05:55:00Z</time>
      </trkpt>
      <trkpt lat="48.99194" lon="8.04128">
        <ele>144.9</ele>
        <time>2020-06-28T05:55:01Z</time>
      </trkpt>
      <trkpt lat="48.99189" lon="8.04129">
        <ele>144.9</ele>
        <time>2020-06-28T05:55:02Z</time>
      </trkpt>
      <trkpt lat="48.99183" lon="8.0413">
        <ele>144.9</ele>
        <time>2020-06-28T05:55:03Z</time>
      </trkpt>
      <trkpt lat="48.99177" lon="8.04131">
        <ele>145</ele>
        <time>2020-06-28T05:55:04Z</time>
      </trkpt>
      <trkpt lat="48.99171" lon="8.04135">
        <ele>145</ele>
        <time>2020-06-28T05:55:05Z</time>
      </trkpt>
      <trkpt lat="48.99166" lon="8.04141">
        <ele>145</ele>
        <time>2020-06-28T05:55:06Z</time>
      </trkpt>
      <trkpt lat="48.99161" lon="8.04148">
        <ele>145</ele>
        <time>2020-06-28T05:55:07Z</time>
      </trkpt>
      <trkpt lat="48.99158" lon="8.04155">
        <ele>145</ele>
        <time>2020-06-28T05:55:08Z</time>
      </trkpt>
      <trkpt lat="48.99157" lon="8.04164">
        <ele>145</ele>
        <time>2020-06-28T05:55:09Z</time>
      </trkpt>
      <trkpt lat="48.99155" lon="8.04173">
        <ele>145.1</ele>
        <time>2020-06-28T05:55:10Z</time>
      </trkpt>
      <trkpt lat="48.99152" lon="8.04181">
        <ele>145.1</ele>
        <time>2020-06-28T05:55:11Z</time>
      </trkpt>
      <trkpt lat="48.9915" lon="8.04189">
        <ele>145.1</ele>
        <time>2020-06-28T05:55:12Z</time>
      </trkpt>
      <trkpt lat="48.99148" lon="8.04198">
        <ele>145.1</ele>
        <time>2020-06-28T05:55:13Z</time>
      </trkpt>
      <trkpt lat="48.99145" lon="8.04205">
        <ele>145.1</ele>
        <time>2020-06-28T05:55:14Z</time>
      </trkpt>
      <trkpt lat="48.99142" lon="8.04213">
        <ele>145.1</ele>
        <time>2020-06-28T05:55:15Z</time>
      </trkpt>
      <trkpt lat="48.9914" lon="8.04221">
        <ele>145.1</ele>
        <time>2020-06-28T05:55:16Z</time>
      </trkpt>
      <trkpt lat="48.99138" lon="8.04229">
        <ele>145.1</ele>
        <time>2020-06-28T05:55:17Z</time>
      </trkpt>
      <trkpt lat="48.99137" lon="8.04238">
        <ele>145.1</ele>
        <time>2020-06-28T05:55:18Z</time>
      </trkpt>
      <trkpt lat="48.99136" lon="8.04246">
        <ele>145.2</ele>
        <time>2020-06-28T05:55:19Z</time>
      </trkpt>
      <trkpt lat="48.99134" lon="8.04255">
        <ele>145.1</ele>
        <time>2020-06-28T05:55:20Z</time>
      </trkpt>
      <trkpt lat="48.99133" lon="8.04264">
        <ele>145.1</ele>
        <time>2020-06-28T05:55:21Z</time>
      </trkpt>
      <trkpt lat="48.9913" lon="8.04272">
        <ele>145.1</ele>
        <time>2020-06-28T05:55:22Z</time>
      </trkpt>
      <trkpt lat="48.99127" lon="8.04281">
        <ele>145.1</ele>
        <time>2020-06-28T05:55:23Z</time>
      </trkpt>
      <trkpt lat="48.99124" lon="8.04289">
        <ele>145.1</ele>
        <time>2020-06-28T05:55:24Z</time>
      </trkpt>
      <trkpt lat="48.9912" lon="8.04297">
        <ele>145.1</ele>
        <time>2020-06-28T05:55:25Z</time>
      </trkpt>
      <trkpt lat="48.99116" lon="8.04306">
        <ele>145.1</ele>
        <time>2020-06-28T05:55:26Z</time>
      </trkpt>
      <trkpt lat="48.99112" lon="8.04314">
        <ele>145.1</ele>
        <time>2020-06-28T05:55:27Z</time>
      </trkpt>
      <trkpt lat="48.99109" lon="8.04322">
        <ele>145.1</ele>
        <time>2020-06-28T05:55:28Z</time>
      </trkpt>
      <trkpt lat="48.99105" lon="8.0433">
        <ele>145.1</ele>
        <time>2020-06-28T05:55:29Z</time>
      </trkpt>
      <trkpt lat="48.99102" lon="8.04338">
        <ele>145.1</ele>
        <time>2020-06-28T05:55:30Z</time>
      </trkpt>
      <trkpt lat="48.99098" lon="8.04346">
        <ele>145</ele>
        <time>2020-06-28T05:55:31Z</time>
      </trkpt>
      <trkpt lat="48.99096" lon="8.04355">
        <ele>145</ele>
        <time>2020-06-28T05:55:32Z</time>
      </trkpt>
      <trkpt lat="48.99092" lon="8.04362">
        <ele>144.9</ele>
        <time>2020-06-28T05:55:33Z</time>
      </trkpt>
      <trkpt lat="48.99088" lon="8.04371">
        <ele>144.9</ele>
        <time>2020-06-28T05:55:34Z</time>
      </trkpt>
      <trkpt lat="48.99083" lon="8.04378">
        <ele>144.9</ele>
        <time>2020-06-28T05:55:35Z</time>
      </trkpt>
      <trkpt lat="48.9908" lon="8.04386">
        <ele>144.9</ele>
        <time>2020-06-28T05:55:36Z</time>
      </trkpt>
      <trkpt lat="48.99076" lon="8.04394">
        <ele>144.8</ele>
        <time>2020-06-28T05:55:37Z</time>
      </trkpt>
      <trkpt lat="48.99072" lon="8.04401">
        <ele>144.8</ele>
        <time>2020-06-28T05:55:38Z</time>
      </trkpt>
      <trkpt lat="48.99069" lon="8.0441">
        <ele>144.8</ele>
        <time>2020-06-28T05:55:39Z</time>
      </trkpt>
      <trkpt lat="48.99066" lon="8.04418">
        <ele>144.7</ele>
        <time>2020-06-28T05:55:40Z</time>
      </trkpt>
      <trkpt lat="48.99063" lon="8.04427">
        <ele>144.7</ele>
        <time>2020-06-28T05:55:41Z</time>
      </trkpt>
      <trkpt lat="48.9906" lon="8.04436">
        <ele>144.7</ele>
        <time>2020-06-28T05:55:42Z</time>
      </trkpt>
      <trkpt lat="48.99057" lon="8.04445">
        <ele>144.7</ele>
        <time>2020-06-28T05:55:43Z</time>
      </trkpt>
      <trkpt lat="48.99055" lon="8.04455">
        <ele>144.7</ele>
        <time>2020-06-28T05:55:44Z</time>
      </trkpt>
      <trkpt lat="48.99052" lon="8.04465">
        <ele>144.7</ele>
        <time>2020-06-28T05:55:45Z</time>
      </trkpt>
      <trkpt lat="48.9905" lon="8.04474">
        <ele>144.7</ele>
        <time>2020-06-28T05:55:46Z</time>
      </trkpt>
      <trkpt lat="48.99048" lon="8.04484">
        <ele>144.8</ele>
        <time>2020-06-28T05:55:47Z</time>
      </trkpt>
      <trkpt lat="48.99045" lon="8.04493">
        <ele>144.8</ele>
        <time>2020-06-28T05:55:48Z</time>
      </trkpt>
      <trkpt lat="48.99043" lon="8.04502">
        <ele>144.8</ele>
        <time>2020-06-28T05:55:49Z</time>
      </trkpt>
      <trkpt lat="48.9904" lon="8.04512">
        <ele>144.8</ele>
        <time>2020-06-28T05:55:50Z</time>
      </trkpt>
      <trkpt lat="48.99038" lon="8.04521">
        <ele>144.9</ele>
        <time>2020-06-28T05:55:51Z</time>
      </trkpt>
      <trkpt lat="48.99035" lon="8.04531">
        <ele>144.9</ele>
        <time>2020-06-28T05:55:52Z</time>
      </trkpt>
      <trkpt lat="48.99033" lon="8.0454">
        <ele>144.9</ele>
        <time>2020-06-28T05:55:53Z</time>
      </trkpt>
      <trkpt lat="48.9903" lon="8.04549">
        <ele>144.9</ele>
        <time>2020-06-28T05:55:54Z</time>
      </trkpt>
      <trkpt lat="48.99028" lon="8.04558">
        <ele>144.9</ele>
        <time>2020-06-28T05:55:55Z</time>
      </trkpt>
      <trkpt lat="48.99025" lon="8.04566">
        <ele>145</ele>
        <time>2020-06-28T05:55:56Z</time>
      </trkpt>
      <trkpt lat="48.99024" lon="8.04574">
        <ele>145</ele>
        <time>2020-06-28T05:55:57Z</time>
      </trkpt>
      <trkpt lat="48.99022" lon="8.04583">
        <ele>145</ele>
        <time>2020-06-28T05:55:58Z</time>
      </trkpt>
      <trkpt lat="48.99018" lon="8.0459">
        <ele>145</ele>
        <time>2020-06-28T05:55:59Z</time>
      </trkpt>
      <trkpt lat="48.99016" lon="8.04597">
        <ele>145</ele>
        <time>2020-06-28T05:56:00Z</time>
      </trkpt>
      <trkpt lat="48.99013" lon="8.04605">
        <ele>145.1</ele>
        <time>2020-06-28T05:56:01Z</time>
      </trkpt>
      <trkpt lat="48.9901" lon="8.04612">
        <ele>145.1</ele>
        <time>2020-06-28T05:56:02Z</time>
      </trkpt>
      <trkpt lat="48.99008" lon="8.0462">
        <ele>145.2</ele>
        <time>2020-06-28T05:56:03Z</time>
      </trkpt>
      <trkpt lat="48.99004" lon="8.04628">
        <ele>145.2</ele>
        <time>2020-06-28T05:56:04Z</time>
      </trkpt>
      <trkpt lat="48.99003" lon="8.04638">
        <ele>145.3</ele>
        <time>2020-06-28T05:56:05Z</time>
      </trkpt>
      <trkpt lat="48.99" lon="8.04647">
        <ele>145.3</ele>
        <time>2020-06-28T05:56:06Z</time>
      </trkpt>
      <trkpt lat="48.98994" lon="8.04654">
        <ele>145.4</ele>
        <time>2020-06-28T05:56:07Z</time>
      </trkpt>
      <trkpt lat="48.98991" lon="8.04663">
        <ele>145.4</ele>
        <time>2020-06-28T05:56:08Z</time>
      </trkpt>
      <trkpt lat="48.98988" lon="8.0467">
        <ele>145.5</ele>
        <time>2020-06-28T05:56:09Z</time>
      </trkpt>
      <trkpt lat="48.98985" lon="8.04677">
        <ele>145.5</ele>
        <time>2020-06-28T05:56:10Z</time>
      </trkpt>
      <trkpt lat="48.98982" lon="8.04684">
        <ele>145.6</ele>
        <time>2020-06-28T05:56:11Z</time>
      </trkpt>
      <trkpt lat="48.9898" lon="8.04691">
        <ele>145.7</ele>
        <time>2020-06-28T05:56:12Z</time>
      </trkpt>
      <trkpt lat="48.98977" lon="8.04697">
        <ele>145.7</ele>
        <time>2020-06-28T05:56:13Z</time>
      </trkpt>
      <trkpt lat="48.98974" lon="8.04703">
        <ele>145.8</ele>
        <time>2020-06-28T05:56:14Z</time>
      </trkpt>
      <trkpt lat="48.98972" lon="8.04709">
        <ele>145.9</ele>
        <time>2020-06-28T05:56:15Z</time>
      </trkpt>
      <trkpt lat="48.9897" lon="8.04715">
        <ele>146</ele>
        <time>2020-06-28T05:56:16Z</time>
      </trkpt>
      <trkpt lat="48.98968" lon="8.04721">
        <ele>146.1</ele>
        <time>2020-06-28T05:56:17Z</time>
      </trkpt>
      <trkpt lat="48.98968" lon="8.04726">
        <ele>146.1</ele>
        <time>2020-06-28T05:56:18Z</time>
      </trkpt>
      <trkpt lat="48.9897" lon="8.0473">
        <ele>146.1</ele>
        <time>2020-06-28T05:56:19Z</time>
      </trkpt>
      <trkpt lat="48.98974" lon="8.04732">
        <ele>146.1</ele>
        <time>2020-06-28T05:56:20Z</time>
      </trkpt>
      <trkpt lat="48.98977" lon="8.04736">
        <ele>146.1</ele>
        <time>2020-06-28T05:56:21Z</time>
      </trkpt>
      <trkpt lat="48.9898" lon="8.0474">
        <ele>146.1</ele>
        <time>2020-06-28T05:56:22Z</time>
      </trkpt>
      <trkpt lat="48.98984" lon="8.04744">
        <ele>146.1</ele>
        <time>2020-06-28T05:56:23Z</time>
      </trkpt>
      <trkpt lat="48.98988" lon="8.04747">
        <ele>146.2</ele>
        <time>2020-06-28T05:56:24Z</time>
      </trkpt>
      <trkpt lat="48.98991" lon="8.0475">
        <ele>146.2</ele>
        <time>2020-06-28T05:56:25Z</time>
      </trkpt>
      <trkpt lat="48.98994" lon="8.04753">
        <ele>146.2</ele>
        <time>2020-06-28T05:56:26Z</time>
      </trkpt>
      <trkpt lat="48.98997" lon="8.04756">
        <ele>146.3</ele>
        <time>2020-06-28T05:56:27Z</time>
      </trkpt>
      <trkpt lat="48.99" lon="8.04759">
        <ele>146.3</ele>
        <time>2020-06-28T05:56:28Z</time>
      </trkpt>
      <trkpt lat="48.99002" lon="8.04764">
        <ele>146.3</ele>
        <time>2020-06-28T05:56:29Z</time>
      </trkpt>
      <trkpt lat="48.99004" lon="8.04768">
        <ele>146</ele>
        <time>2020-06-28T05:56:30Z</time>
      </trkpt>
      <trkpt lat="48.99002" lon="8.04774">
        <ele>145.9</ele>
        <time>2020-06-28T05:56:31Z</time>
      </trkpt>
      <trkpt lat="48.98999" lon="8.04781">
        <ele>145.7</ele>
        <time>2020-06-28T05:56:32Z</time>
      </trkpt>
      <trkpt lat="48.98997" lon="8.04788">
        <ele>145.6</ele>
        <time>2020-06-28T05:56:33Z</time>
      </trkpt>
      <trkpt lat="48.98994" lon="8.04795">
        <ele>145.4</ele>
        <time>2020-06-28T05:56:34Z</time>
      </trkpt>
      <trkpt lat="48.98992" lon="8.04801">
        <ele>145.3</ele>
        <time>2020-06-28T05:56:35Z</time>
      </trkpt>
      <trkpt lat="48.98989" lon="8.04808">
        <ele>145.2</ele>
        <time>2020-06-28T05:56:36Z</time>
      </trkpt>
      <trkpt lat="48.98985" lon="8.04815">
        <ele>145.2</ele>
        <time>2020-06-28T05:56:37Z</time>
      </trkpt>
      <trkpt lat="48.98984" lon="8.04824">
        <ele>145</ele>
        <time>2020-06-28T05:56:38Z</time>
      </trkpt>
      <trkpt lat="48.98982" lon="8.04833">
        <ele>145</ele>
        <time>2020-06-28T05:56:39Z</time>
      </trkpt>
      <trkpt lat="48.9898" lon="8.04841">
        <ele>144.9</ele>
        <time>2020-06-28T05:56:40Z</time>
      </trkpt>
      <trkpt lat="48.98978" lon="8.0485">
        <ele>144.9</ele>
        <time>2020-06-28T05:56:41Z</time>
      </trkpt>
      <trkpt lat="48.98975" lon="8.04858">
        <ele>144.8</ele>
        <time>2020-06-28T05:56:42Z</time>
      </trkpt>
      <trkpt lat="48.98973" lon="8.04867">
        <ele>144.8</ele>
        <time>2020-06-28T05:56:43Z</time>
      </trkpt>
      <trkpt lat="48.9897" lon="8.04876">
        <ele>144.7</ele>
        <time>2020-06-28T05:56:44Z</time>
      </trkpt>
      <trkpt lat="48.98967" lon="8.04886">
        <ele>144.7</ele>
        <time>2020-06-28T05:56:45Z</time>
      </trkpt>
      <trkpt lat="48.98964" lon="8.04894">
        <ele>144.7</ele>
        <time>2020-06-28T05:56:46Z</time>
      </trkpt>
      <trkpt lat="48.9896" lon="8.04904">
        <ele>144.7</ele>
        <time>2020-06-28T05:56:47Z</time>
      </trkpt>
      <trkpt lat="48.98957" lon="8.04913">
        <ele>144.7</ele>
        <time>2020-06-28T05:56:48Z</time>
      </trkpt>
      <trkpt lat="48.98954" lon="8.04922">
        <ele>144.6</ele>
        <time>2020-06-28T05:56:49Z</time>
      </trkpt>
      <trkpt lat="48.9895" lon="8.04931">
        <ele>144.5</ele>
        <time>2020-06-28T05:56:50Z</time>
      </trkpt>
      <trkpt lat="48.98947" lon="8.0494">
        <ele>144.5</ele>
        <time>2020-06-28T05:56:51Z</time>
      </trkpt>
      <trkpt lat="48.98943" lon="8.04949">
        <ele>144.4</ele>
        <time>2020-06-28T05:56:52Z</time>
      </trkpt>
      <trkpt lat="48.98939" lon="8.04957">
        <ele>144.4</ele>
        <time>2020-06-28T05:56:53Z</time>
      </trkpt>
      <trkpt lat="48.98936" lon="8.04966">
        <ele>144.4</ele>
        <time>2020-06-28T05:56:54Z</time>
      </trkpt>
      <trkpt lat="48.98932" lon="8.04975">
        <ele>144.3</ele>
        <time>2020-06-28T05:56:55Z</time>
      </trkpt>
      <trkpt lat="48.98928" lon="8.04984">
        <ele>144.3</ele>
        <time>2020-06-28T05:56:56Z</time>
      </trkpt>
      <trkpt lat="48.98925" lon="8.04993">
        <ele>144.3</ele>
        <time>2020-06-28T05:56:57Z</time>
      </trkpt>
      <trkpt lat="48.98921" lon="8.05002">
        <ele>144.3</ele>
        <time>2020-06-28T05:56:58Z</time>
      </trkpt>
      <trkpt lat="48.98917" lon="8.05011">
        <ele>144.3</ele>
        <time>2020-06-28T05:56:59Z</time>
      </trkpt>
      <trkpt lat="48.98913" lon="8.05019">
        <ele>144.2</ele>
        <time>2020-06-28T05:57:00Z</time>
      </trkpt>
      <trkpt lat="48.98909" lon="8.05028">
        <ele>144.2</ele>
        <time>2020-06-28T05:57:01Z</time>
      </trkpt>
      <trkpt lat="48.98905" lon="8.05036">
        <ele>144.1</ele>
        <time>2020-06-28T05:57:02Z</time>
      </trkpt>
      <trkpt lat="48.98901" lon="8.05045">
        <ele>144.1</ele>
        <time>2020-06-28T05:57:03Z</time>
      </trkpt>
      <trkpt lat="48.98897" lon="8.05054">
        <ele>144</ele>
        <time>2020-06-28T05:57:04Z</time>
      </trkpt>
      <trkpt lat="48.98893" lon="8.05062">
        <ele>143.9</ele>
        <time>2020-06-28T05:57:05Z</time>
      </trkpt>
      <trkpt lat="48.98889" lon="8.05071">
        <ele>143.8</ele>
        <time>2020-06-28T05:57:06Z</time>
      </trkpt>
      <trkpt lat="48.98885" lon="8.05079">
        <ele>143.7</ele>
        <time>2020-06-28T05:57:07Z</time>
      </trkpt>
      <trkpt lat="48.98881" lon="8.05088">
        <ele>143.7</ele>
        <time>2020-06-28T05:57:08Z</time>
      </trkpt>
      <trkpt lat="48.98877" lon="8.05096">
        <ele>143.6</ele>
        <time>2020-06-28T05:57:09Z</time>
      </trkpt>
      <trkpt lat="48.98873" lon="8.05105">
        <ele>143.6</ele>
        <time>2020-06-28T05:57:10Z</time>
      </trkpt>
      <trkpt lat="48.98869" lon="8.05114">
        <ele>143.5</ele>
        <time>2020-06-28T05:57:11Z</time>
      </trkpt>
      <trkpt lat="48.98866" lon="8.05122">
        <ele>143.5</ele>
        <time>2020-06-28T05:57:12Z</time>
      </trkpt>
      <trkpt lat="48.98862" lon="8.05131">
        <ele>143.4</ele>
        <time>2020-06-28T05:57:13Z</time>
      </trkpt>
      <trkpt lat="48.98858" lon="8.05139">
        <ele>143.4</ele>
        <time>2020-06-28T05:57:14Z</time>
      </trkpt>
      <trkpt lat="48.98854" lon="8.05148">
        <ele>143.3</ele>
        <time>2020-06-28T05:57:15Z</time>
      </trkpt>
      <trkpt lat="48.9885" lon="8.05157">
        <ele>143.2</ele>
        <time>2020-06-28T05:57:16Z</time>
      </trkpt>
      <trkpt lat="48.98846" lon="8.05166">
        <ele>143.1</ele>
        <time>2020-06-28T05:57:17Z</time>
      </trkpt>
      <trkpt lat="48.98842" lon="8.05174">
        <ele>143.1</ele>
        <time>2020-06-28T05:57:18Z</time>
      </trkpt>
      <trkpt lat="48.98838" lon="8.05183">
        <ele>143.1</ele>
        <time>2020-06-28T05:57:19Z</time>
      </trkpt>
      <trkpt lat="48.98834" lon="8.05192">
        <ele>143.1</ele>
        <time>2020-06-28T05:57:20Z</time>
      </trkpt>
      <trkpt lat="48.9883" lon="8.05201">
        <ele>143</ele>
        <time>2020-06-28T05:57:21Z</time>
      </trkpt>
      <trkpt lat="48.98826" lon="8.05209">
        <ele>143</ele>
        <time>2020-06-28T05:57:22Z</time>
      </trkpt>
      <trkpt lat="48.98822" lon="8.05218">
        <ele>143</ele>
        <time>2020-06-28T05:57:23Z</time>
      </trkpt>
      <trkpt lat="48.98818" lon="8.05227">
        <ele>142.9</ele>
        <time>2020-06-28T05:57:24Z</time>
      </trkpt>
      <trkpt lat="48.98814" lon="8.05236">
        <ele>142.9</ele>
        <time>2020-06-28T05:57:25Z</time>
      </trkpt>
      <trkpt lat="48.9881" lon="8.05244">
        <ele>142.9</ele>
        <time>2020-06-28T05:57:26Z</time>
      </trkpt>
      <trkpt lat="48.98806" lon="8.05253">
        <ele>142.8</ele>
        <time>2020-06-28T05:57:27Z</time>
      </trkpt>
      <trkpt lat="48.98802" lon="8.05262">
        <ele>142.8</ele>
        <time>2020-06-28T05:57:28Z</time>
      </trkpt>
      <trkpt lat="48.98799" lon="8.0527">
        <ele>142.7</ele>
        <time>2020-06-28T05:57:29Z</time>
      </trkpt>
      <trkpt lat="48.98795" lon="8.05279">
        <ele>142.7</ele>
        <time>2020-06-28T05:57:30Z</time>
      </trkpt>
      <trkpt lat="48.98791" lon="8.05288">
        <ele>142.7</ele>
        <time>2020-06-28T05:57:31Z</time>
      </trkpt>
      <trkpt lat="48.98787" lon="8.05297">
        <ele>142.6</ele>
        <time>2020-06-28T05:57:32Z</time>
      </trkpt>
      <trkpt lat="48.98783" lon="8.05305">
        <ele>142.6</ele>
        <time>2020-06-28T05:57:33Z</time>
      </trkpt>
      <trkpt lat="48.98778" lon="8.05313">
        <ele>142.6</ele>
        <time>2020-06-28T05:57:34Z</time>
      </trkpt>
      <trkpt lat="48.98774" lon="8.05322">
        <ele>142.6</ele>
        <time>2020-06-28T05:57:35Z</time>
      </trkpt>
      <trkpt lat="48.98771" lon="8.05331">
        <ele>142.5</ele>
        <time>2020-06-28T05:57:36Z</time>
      </trkpt>
      <trkpt lat="48.98767" lon="8.0534">
        <ele>142.5</ele>
        <time>2020-06-28T05:57:37Z</time>
      </trkpt>
      <trkpt lat="48.98763" lon="8.05348">
        <ele>142.4</ele>
        <time>2020-06-28T05:57:38Z</time>
      </trkpt>
      <trkpt lat="48.98759" lon="8.05356">
        <ele>142.4</ele>
        <time>2020-06-28T05:57:39Z</time>
      </trkpt>
      <trkpt lat="48.98755" lon="8.05364">
        <ele>142.4</ele>
        <time>2020-06-28T05:57:40Z</time>
      </trkpt>
      <trkpt lat="48.98752" lon="8.05372">
        <ele>142.3</ele>
        <time>2020-06-28T05:57:41Z</time>
      </trkpt>
      <trkpt lat="48.98748" lon="8.0538">
        <ele>142.3</ele>
        <time>2020-06-28T05:57:42Z</time>
      </trkpt>
      <trkpt lat="48.98744" lon="8.05388">
        <ele>142.3</ele>
        <time>2020-06-28T05:57:43Z</time>
      </trkpt>
      <trkpt lat="48.9874" lon="8.05396">
        <ele>142.3</ele>
        <time>2020-06-28T05:57:44Z</time>
      </trkpt>
      <trkpt lat="48.98737" lon="8.05404">
        <ele>142.3</ele>
        <time>2020-06-28T05:57:45Z</time>
      </trkpt>
      <trkpt lat="48.98733" lon="8.05413">
        <ele>142.3</ele>
        <time>2020-06-28T05:57:46Z</time>
      </trkpt>
      <trkpt lat="48.98729" lon="8.05421">
        <ele>142.3</ele>
        <time>2020-06-28T05:57:47Z</time>
      </trkpt>
      <trkpt lat="48.98726" lon="8.0543">
        <ele>142.3</ele>
        <time>2020-06-28T05:57:48Z</time>
      </trkpt>
      <trkpt lat="48.98722" lon="8.05438">
        <ele>142.3</ele>
        <time>2020-06-28T05:57:49Z</time>
      </trkpt>
      <trkpt lat="48.98718" lon="8.05446">
        <ele>142.4</ele>
        <time>2020-06-28T05:57:50Z</time>
      </trkpt>
      <trkpt lat="48.98715" lon="8.05454">
        <ele>142.3</ele>
        <time>2020-06-28T05:57:51Z</time>
      </trkpt>
      <trkpt lat="48.98711" lon="8.05462">
        <ele>142.3</ele>
        <time>2020-06-28T05:57:52Z</time>
      </trkpt>
      <trkpt lat="48.98707" lon="8.0547">
        <ele>142.3</ele>
        <time>2020-06-28T05:57:53Z</time>
      </trkpt>
      <trkpt lat="48.98704" lon="8.05479">
        <ele>142.3</ele>
        <time>2020-06-28T05:57:54Z</time>
      </trkpt>
      <trkpt lat="48.987" lon="8.05487">
        <ele>142.3</ele>
        <time>2020-06-28T05:57:55Z</time>
      </trkpt>
      <trkpt lat="48.98696" lon="8.05495">
        <ele>142.2</ele>
        <time>2020-06-28T05:57:56Z</time>
      </trkpt>
      <trkpt lat="48.98692" lon="8.05504">
        <ele>142.2</ele>
        <time>2020-06-28T05:57:57Z</time>
      </trkpt>
      <trkpt lat="48.98689" lon="8.05513">
        <ele>142.2</ele>
        <time>2020-06-28T05:57:58Z</time>
      </trkpt>
      <trkpt lat="48.98685" lon="8.05521">
        <ele>142.2</ele>
        <time>2020-06-28T05:57:59Z</time>
      </trkpt>
      <trkpt lat="48.98681" lon="8.05529">
        <ele>142.2</ele>
        <time>2020-06-28T05:58:00Z</time>
      </trkpt>
      <trkpt lat="48.98677" lon="8.05538">
        <ele>142.1</ele>
        <time>2020-06-28T05:58:01Z</time>
      </trkpt>
      <trkpt lat="48.98673" lon="8.05546">
        <ele>142.1</ele>
        <time>2020-06-28T05:58:02Z</time>
      </trkpt>
      <trkpt lat="48.9867" lon="8.05554">
        <ele>142.1</ele>
        <time>2020-06-28T05:58:03Z</time>
      </trkpt>
      <trkpt lat="48.98666" lon="8.05562">
        <ele>142.1</ele>
        <time>2020-06-28T05:58:04Z</time>
      </trkpt>
      <trkpt lat="48.98662" lon="8.0557">
        <ele>142.1</ele>
        <time>2020-06-28T05:58:05Z</time>
      </trkpt>
      <trkpt lat="48.98658" lon="8.05579">
        <ele>142.1</ele>
        <time>2020-06-28T05:58:06Z</time>
      </trkpt>
      <trkpt lat="48.98654" lon="8.05587">
        <ele>142</ele>
        <time>2020-06-28T05:58:07Z</time>
      </trkpt>
      <trkpt lat="48.9865" lon="8.05596">
        <ele>142</ele>
        <time>2020-06-28T05:58:08Z</time>
      </trkpt>
      <trkpt lat="48.98647" lon="8.05604">
        <ele>142</ele>
        <time>2020-06-28T05:58:09Z</time>
      </trkpt>
      <trkpt lat="48.98643" lon="8.05613">
        <ele>141.9</ele>
        <time>2020-06-28T05:58:10Z</time>
      </trkpt>
      <trkpt lat="48.98639" lon="8.05621">
        <ele>141.9</ele>
        <time>2020-06-28T05:58:11Z</time>
      </trkpt>
      <trkpt lat="48.98635" lon="8.05629">
        <ele>141.9</ele>
        <time>2020-06-28T05:58:12Z</time>
      </trkpt>
      <trkpt lat="48.98631" lon="8.05637">
        <ele>141.9</ele>
        <time>2020-06-28T05:58:13Z</time>
      </trkpt>
      <trkpt lat="48.98627" lon="8.05646">
        <ele>141.9</ele>
        <time>2020-06-28T05:58:14Z</time>
      </trkpt>
      <trkpt lat="48.98624" lon="8.05654">
        <ele>142</ele>
        <time>2020-06-28T05:58:15Z</time>
      </trkpt>
      <trkpt lat="48.9862" lon="8.05661">
        <ele>142</ele>
        <time>2020-06-28T05:58:16Z</time>
      </trkpt>
      <trkpt lat="48.98617" lon="8.05669">
        <ele>142.1</ele>
        <time>2020-06-28T05:58:17Z</time>
      </trkpt>
      <trkpt lat="48.98614" lon="8.05677">
        <ele>142.1</ele>
        <time>2020-06-28T05:58:18Z</time>
      </trkpt>
      <trkpt lat="48.9861" lon="8.05684">
        <ele>142.1</ele>
        <time>2020-06-28T05:58:19Z</time>
      </trkpt>
      <trkpt lat="48.98606" lon="8.05692">
        <ele>142.2</ele>
        <time>2020-06-28T05:58:20Z</time>
      </trkpt>
      <trkpt lat="48.98603" lon="8.05699">
        <ele>142.2</ele>
        <time>2020-06-28T05:58:21Z</time>
      </trkpt>
      <trkpt lat="48.98599" lon="8.05706">
        <ele>142.2</ele>
        <time>2020-06-28T05:58:22Z</time>
      </trkpt>
      <trkpt lat="48.98595" lon="8.05713">
        <ele>142.2</ele>
        <time>2020-06-28T05:58:23Z</time>
      </trkpt>
      <trkpt lat="48.98592" lon="8.05721">
        <ele>142.2</ele>
        <time>2020-06-28T05:58:24Z</time>
      </trkpt>
      <trkpt lat="48.98588" lon="8.05728">
        <ele>142.2</ele>
        <time>2020-06-28T05:58:25Z</time>
      </trkpt>
      <trkpt lat="48.98585" lon="8.05736">
        <ele>142.2</ele>
        <time>2020-06-28T05:58:26Z</time>
      </trkpt>
      <trkpt lat="48.98582" lon="8.05744">
        <ele>142.1</ele>
        <time>2020-06-28T05:58:27Z</time>
      </trkpt>
      <trkpt lat="48.98579" lon="8.05751">
        <ele>142.1</ele>
        <time>2020-06-28T05:58:28Z</time>
      </trkpt>
      <trkpt lat="48.98576" lon="8.05759">
        <ele>142.1</ele>
        <time>2020-06-28T05:58:29Z</time>
      </trkpt>
      <trkpt lat="48.98572" lon="8.05767">
        <ele>142.1</ele>
        <time>2020-06-28T05:58:30Z</time>
      </trkpt>
      <trkpt lat="48.98569" lon="8.05775">
        <ele>142</ele>
        <time>2020-06-28T05:58:31Z</time>
      </trkpt>
      <trkpt lat="48.98566" lon="8.05783">
        <ele>142</ele>
        <time>2020-06-28T05:58:32Z</time>
      </trkpt>
      <trkpt lat="48.98562" lon="8.05792">
        <ele>142</ele>
        <time>2020-06-28T05:58:33Z</time>
      </trkpt>
      <trkpt lat="48.98559" lon="8.058">
        <ele>142.1</ele>
        <time>2020-06-28T05:58:34Z</time>
      </trkpt>
      <trkpt lat="48.98555" lon="8.05808">
        <ele>142.1</ele>
        <time>2020-06-28T05:58:35Z</time>
      </trkpt>
      <trkpt lat="48.98551" lon="8.05816">
        <ele>142.1</ele>
        <time>2020-06-28T05:58:36Z</time>
      </trkpt>
      <trkpt lat="48.98547" lon="8.05825">
        <ele>142.1</ele>
        <time>2020-06-28T05:58:37Z</time>
      </trkpt>
      <trkpt lat="48.98543" lon="8.05833">
        <ele>142.1</ele>
        <time>2020-06-28T05:58:38Z</time>
      </trkpt>
      <trkpt lat="48.98539" lon="8.05841">
        <ele>142.1</ele>
        <time>2020-06-28T05:58:39Z</time>
      </trkpt>
      <trkpt lat="48.98536" lon="8.05849">
        <ele>142.1</ele>
        <time>2020-06-28T05:58:40Z</time>
      </trkpt>
      <trkpt lat="48.98532" lon="8.05857">
        <ele>142.1</ele>
        <time>2020-06-28T05:58:41Z</time>
      </trkpt>
      <trkpt lat="48.98528" lon="8.05865">
        <ele>142.1</ele>
        <time>2020-06-28T05:58:42Z</time>
      </trkpt>
      <trkpt lat="48.98524" lon="8.05873">
        <ele>142.1</ele>
        <time>2020-06-28T05:58:43Z</time>
      </trkpt>
      <trkpt lat="48.9852" lon="8.05881">
        <ele>142.2</ele>
        <time>2020-06-28T05:58:44Z</time>
      </trkpt>
      <trkpt lat="48.98516" lon="8.05889">
        <ele>142.2</ele>
        <time>2020-06-28T05:58:45Z</time>
      </trkpt>
      <trkpt lat="48.98513" lon="8.05898">
        <ele>142.2</ele>
        <time>2020-06-28T05:58:46Z</time>
      </trkpt>
      <trkpt lat="48.98509" lon="8.05906">
        <ele>142.1</ele>
        <time>2020-06-28T05:58:47Z</time>
      </trkpt>
      <trkpt lat="48.98505" lon="8.05914">
        <ele>142.1</ele>
        <time>2020-06-28T05:58:48Z</time>
      </trkpt>
      <trkpt lat="48.98502" lon="8.05922">
        <ele>142.1</ele>
        <time>2020-06-28T05:58:49Z</time>
      </trkpt>
      <trkpt lat="48.98498" lon="8.05931">
        <ele>142</ele>
        <time>2020-06-28T05:58:50Z</time>
      </trkpt>
      <trkpt lat="48.98495" lon="8.05939">
        <ele>142</ele>
        <time>2020-06-28T05:58:51Z</time>
      </trkpt>
      <trkpt lat="48.98491" lon="8.05947">
        <ele>142</ele>
        <time>2020-06-28T05:58:52Z</time>
      </trkpt>
      <trkpt lat="48.98487" lon="8.05955">
        <ele>142</ele>
        <time>2020-06-28T05:58:53Z</time>
      </trkpt>
      <trkpt lat="48.98483" lon="8.05964">
        <ele>142</ele>
        <time>2020-06-28T05:58:54Z</time>
      </trkpt>
      <trkpt lat="48.9848" lon="8.05972">
        <ele>142</ele>
        <time>2020-06-28T05:58:55Z</time>
      </trkpt>
      <trkpt lat="48.98476" lon="8.0598">
        <ele>142</ele>
        <time>2020-06-28T05:58:56Z</time>
      </trkpt>
      <trkpt lat="48.98472" lon="8.05988">
        <ele>142</ele>
        <time>2020-06-28T05:58:57Z</time>
      </trkpt>
      <trkpt lat="48.98469" lon="8.05996">
        <ele>142</ele>
        <time>2020-06-28T05:58:58Z</time>
      </trkpt>
      <trkpt lat="48.98466" lon="8.06004">
        <ele>142</ele>
        <time>2020-06-28T05:58:59Z</time>
      </trkpt>
      <trkpt lat="48.98462" lon="8.06012">
        <ele>142.1</ele>
        <time>2020-06-28T05:59:00Z</time>
      </trkpt>
      <trkpt lat="48.98458" lon="8.06019">
        <ele>142.1</ele>
        <time>2020-06-28T05:59:01Z</time>
      </trkpt>
      <trkpt lat="48.98455" lon="8.06027">
        <ele>142.2</ele>
        <time>2020-06-28T05:59:02Z</time>
      </trkpt>
      <trkpt lat="48.98451" lon="8.06035">
        <ele>142.3</ele>
        <time>2020-06-28T05:59:03Z</time>
      </trkpt>
      <trkpt lat="48.98448" lon="8.06043">
        <ele>142.3</ele>
        <time>2020-06-28T05:59:04Z</time>
      </trkpt>
      <trkpt lat="48.98445" lon="8.0605">
        <ele>142.4</ele>
        <time>2020-06-28T05:59:05Z</time>
      </trkpt>
      <trkpt lat="48.98442" lon="8.06057">
        <ele>142.5</ele>
        <time>2020-06-28T05:59:06Z</time>
      </trkpt>
      <trkpt lat="48.98439" lon="8.06064">
        <ele>142.5</ele>
        <time>2020-06-28T05:59:07Z</time>
      </trkpt>
      <trkpt lat="48.98436" lon="8.0607">
        <ele>142.5</ele>
        <time>2020-06-28T05:59:08Z</time>
      </trkpt>
      <trkpt lat="48.98433" lon="8.06076">
        <ele>142.5</ele>
        <time>2020-06-28T05:59:09Z</time>
      </trkpt>
      <trkpt lat="48.98431" lon="8.06081">
        <ele>142.5</ele>
        <time>2020-06-28T05:59:10Z</time>
      </trkpt>
      <trkpt lat="48.98428" lon="8.06087">
        <ele>142.5</ele>
        <time>2020-06-28T05:59:11Z</time>
      </trkpt>
      <trkpt lat="48.98425" lon="8.06093">
        <ele>142.5</ele>
        <time>2020-06-28T05:59:12Z</time>
      </trkpt>
      <trkpt lat="48.98422" lon="8.06099">
        <ele>142.5</ele>
        <time>2020-06-28T05:59:13Z</time>
      </trkpt>
      <trkpt lat="48.98419" lon="8.06105">
        <ele>142.5</ele>
        <time>2020-06-28T05:59:14Z</time>
      </trkpt>
      <trkpt lat="48.98416" lon="8.06112">
        <ele>142.5</ele>
        <time>2020-06-28T05:59:15Z</time>
      </trkpt>
      <trkpt lat="48.98413" lon="8.06119">
        <ele>142.4</ele>
        <time>2020-06-28T05:59:16Z</time>
      </trkpt>
      <trkpt lat="48.9841" lon="8.06126">
        <ele>142.4</ele>
        <time>2020-06-28T05:59:17Z</time>
      </trkpt>
      <trkpt lat="48.98407" lon="8.06133">
        <ele>142.4</ele>
        <time>2020-06-28T05:59:18Z</time>
      </trkpt>
      <trkpt lat="48.98404" lon="8.06141">
        <ele>142.4</ele>
        <time>2020-06-28T05:59:19Z</time>
      </trkpt>
      <trkpt lat="48.98401" lon="8.06149">
        <ele>142.4</ele>
        <time>2020-06-28T05:59:20Z</time>
      </trkpt>
      <trkpt lat="48.98398" lon="8.06157">
        <ele>142.4</ele>
        <time>2020-06-28T05:59:21Z</time>
      </trkpt>
      <trkpt lat="48.98394" lon="8.06163">
        <ele>142.3</ele>
        <time>2020-06-28T05:59:22Z</time>
      </trkpt>
      <trkpt lat="48.98391" lon="8.06171">
        <ele>142.3</ele>
        <time>2020-06-28T05:59:23Z</time>
      </trkpt>
      <trkpt lat="48.98387" lon="8.06178">
        <ele>142.3</ele>
        <time>2020-06-28T05:59:24Z</time>
      </trkpt>
      <trkpt lat="48.98385" lon="8.06186">
        <ele>142.3</ele>
        <time>2020-06-28T05:59:25Z</time>
      </trkpt>
      <trkpt lat="48.98382" lon="8.06194">
        <ele>142.3</ele>
        <time>2020-06-28T05:59:26Z</time>
      </trkpt>
      <trkpt lat="48.98379" lon="8.06202">
        <ele>142.3</ele>
        <time>2020-06-28T05:59:27Z</time>
      </trkpt>
      <trkpt lat="48.98376" lon="8.06209">
        <ele>142.3</ele>
        <time>2020-06-28T05:59:28Z</time>
      </trkpt>
      <trkpt lat="48.98372" lon="8.06216">
        <ele>142.3</ele>
        <time>2020-06-28T05:59:29Z</time>
      </trkpt>
      <trkpt lat="48.9837" lon="8.06224">
        <ele>142.3</ele>
        <time>2020-06-28T05:59:30Z</time>
      </trkpt>
      <trkpt lat="48.98366" lon="8.06232">
        <ele>142.2</ele>
        <time>2020-06-28T05:59:31Z</time>
      </trkpt>
      <trkpt lat="48.98363" lon="8.0624">
        <ele>142.2</ele>
        <time>2020-06-28T05:59:32Z</time>
      </trkpt>
      <trkpt lat="48.9836" lon="8.06249">
        <ele>142.2</ele>
        <time>2020-06-28T05:59:33Z</time>
      </trkpt>
      <trkpt lat="48.98357" lon="8.06258">
        <ele>142.1</ele>
        <time>2020-06-28T05:59:34Z</time>
      </trkpt>
      <trkpt lat="48.98354" lon="8.06267">
        <ele>142.1</ele>
        <time>2020-06-28T05:59:35Z</time>
      </trkpt>
      <trkpt lat="48.98351" lon="8.06275">
        <ele>142.1</ele>
        <time>2020-06-28T05:59:36Z</time>
      </trkpt>
      <trkpt lat="48.98348" lon="8.06283">
        <ele>142.1</ele>
        <time>2020-06-28T05:59:37Z</time>
      </trkpt>
      <trkpt lat="48.98345" lon="8.06292">
        <ele>142</ele>
        <time>2020-06-28T05:59:38Z</time>
      </trkpt>
      <trkpt lat="48.98343" lon="8.06301">
        <ele>142</ele>
        <time>2020-06-28T05:59:39Z</time>
      </trkpt>
      <trkpt lat="48.9834" lon="8.06309">
        <ele>142</ele>
        <time>2020-06-28T05:59:40Z</time>
      </trkpt>
      <trkpt lat="48.98338" lon="8.06318">
        <ele>142</ele>
        <time>2020-06-28T05:59:41Z</time>
      </trkpt>
      <trkpt lat="48.98334" lon="8.06326">
        <ele>141.9</ele>
        <time>2020-06-28T05:59:42Z</time>
      </trkpt>
      <trkpt lat="48.98331" lon="8.06334">
        <ele>141.9</ele>
        <time>2020-06-28T05:59:43Z</time>
      </trkpt>
      <trkpt lat="48.98329" lon="8.06343">
        <ele>141.9</ele>
        <time>2020-06-28T05:59:44Z</time>
      </trkpt>
      <trkpt lat="48.98325" lon="8.06351">
        <ele>141.9</ele>
        <time>2020-06-28T05:59:45Z</time>
      </trkpt>
      <trkpt lat="48.98322" lon="8.06359">
        <ele>141.9</ele>
        <time>2020-06-28T05:59:46Z</time>
      </trkpt>
      <trkpt lat="48.98319" lon="8.06368">
        <ele>141.8</ele>
        <time>2020-06-28T05:59:47Z</time>
      </trkpt>
      <trkpt lat="48.98317" lon="8.06378">
        <ele>141.8</ele>
        <time>2020-06-28T05:59:48Z</time>
      </trkpt>
      <trkpt lat="48.98314" lon="8.06387">
        <ele>141.8</ele>
        <time>2020-06-28T05:59:49Z</time>
      </trkpt>
      <trkpt lat="48.98311" lon="8.06396">
        <ele>141.7</ele>
        <time>2020-06-28T05:59:50Z</time>
      </trkpt>
      <trkpt lat="48.98309" lon="8.06405">
        <ele>141.7</ele>
        <time>2020-06-28T05:59:51Z</time>
      </trkpt>
      <trkpt lat="48.98307" lon="8.06414">
        <ele>141.7</ele>
        <time>2020-06-28T05:59:52Z</time>
      </trkpt>
      <trkpt lat="48.98304" lon="8.06422">
        <ele>141.6</ele>
        <time>2020-06-28T05:59:53Z</time>
      </trkpt>
      <trkpt lat="48.98302" lon="8.0643">
        <ele>141.6</ele>
        <time>2020-06-28T05:59:54Z</time>
      </trkpt>
      <trkpt lat="48.983" lon="8.06439">
        <ele>141.6</ele>
        <time>2020-06-28T05:59:55Z</time>
      </trkpt>
      <trkpt lat="48.98298" lon="8.06447">
        <ele>141.5</ele>
        <time>2020-06-28T05:59:56Z</time>
      </trkpt>
      <trkpt lat="48.98296" lon="8.06454">
        <ele>141.5</ele>
        <time>2020-06-28T05:59:57Z</time>
      </trkpt>
      <trkpt lat="48.98293" lon="8.06462">
        <ele>141.5</ele>
        <time>2020-06-28T05:59:58Z</time>
      </trkpt>
      <trkpt lat="48.98291" lon="8.06471">
        <ele>141.4</ele>
        <time>2020-06-28T05:59:59Z</time>
      </trkpt>
      <trkpt lat="48.98288" lon="8.06479">
        <ele>141.4</ele>
        <time>2020-06-28T06:00:00Z</time>
      </trkpt>
      <trkpt lat="48.98286" lon="8.06487">
        <ele>141.3</ele>
        <time>2020-06-28T06:00:01Z</time>
      </trkpt>
      <trkpt lat="48.98283" lon="8.06496">
        <ele>141.3</ele>
        <time>2020-06-28T06:00:02Z</time>
      </trkpt>
      <trkpt lat="48.98279" lon="8.06505">
        <ele>141.3</ele>
        <time>2020-06-28T06:00:03Z</time>
      </trkpt>
      <trkpt lat="48.98276" lon="8.06514">
        <ele>141.3</ele>
        <time>2020-06-28T06:00:04Z</time>
      </trkpt>
      <trkpt lat="48.98274" lon="8.06524">
        <ele>141.2</ele>
        <time>2020-06-28T06:00:05Z</time>
      </trkpt>
      <trkpt lat="48.98271" lon="8.06535">
        <ele>141.2</ele>
        <time>2020-06-28T06:00:06Z</time>
      </trkpt>
      <trkpt lat="48.98268" lon="8.06546">
        <ele>141.2</ele>
        <time>2020-06-28T06:00:07Z</time>
      </trkpt>
      <trkpt lat="48.98265" lon="8.06556">
        <ele>141.1</ele>
        <time>2020-06-28T06:00:08Z</time>
      </trkpt>
      <trkpt lat="48.98262" lon="8.06566">
        <ele>141.1</ele>
        <time>2020-06-28T06:00:09Z</time>
      </trkpt>
      <trkpt lat="48.98259" lon="8.06576">
        <ele>141.1</ele>
        <time>2020-06-28T06:00:10Z</time>
      </trkpt>
      <trkpt lat="48.98256" lon="8.06586">
        <ele>141</ele>
        <time>2020-06-28T06:00:11Z</time>
      </trkpt>
      <trkpt lat="48.98253" lon="8.06595">
        <ele>141</ele>
        <time>2020-06-28T06:00:12Z</time>
      </trkpt>
      <trkpt lat="48.98251" lon="8.06604">
        <ele>141</ele>
        <time>2020-06-28T06:00:13Z</time>
      </trkpt>
      <trkpt lat="48.98248" lon="8.06614">
        <ele>141</ele>
        <time>2020-06-28T06:00:14Z</time>
      </trkpt>
      <trkpt lat="48.98245" lon="8.06623">
        <ele>141</ele>
        <time>2020-06-28T06:00:15Z</time>
      </trkpt>
      <trkpt lat="48.98243" lon="8.06632">
        <ele>141</ele>
        <time>2020-06-28T06:00:16Z</time>
      </trkpt>
      <trkpt lat="48.9824" lon="8.06641">
        <ele>141</ele>
        <time>2020-06-28T06:00:17Z</time>
      </trkpt>
      <trkpt lat="48.98237" lon="8.0665">
        <ele>141</ele>
        <time>2020-06-28T06:00:18Z</time>
      </trkpt>
      <trkpt lat="48.98235" lon="8.06658">
        <ele>141</ele>
        <time>2020-06-28T06:00:19Z</time>
      </trkpt>
      <trkpt lat="48.98232" lon="8.06667">
        <ele>141</ele>
        <time>2020-06-28T06:00:20Z</time>
      </trkpt>
      <trkpt lat="48.98228" lon="8.06676">
        <ele>140.9</ele>
        <time>2020-06-28T06:00:21Z</time>
      </trkpt>
      <trkpt lat="48.98226" lon="8.06686">
        <ele>140.9</ele>
        <time>2020-06-28T06:00:22Z</time>
      </trkpt>
      <trkpt lat="48.98223" lon="8.06695">
        <ele>140.9</ele>
        <time>2020-06-28T06:00:23Z</time>
      </trkpt>
      <trkpt lat="48.98221" lon="8.06705">
        <ele>140.8</ele>
        <time>2020-06-28T06:00:24Z</time>
      </trkpt>
      <trkpt lat="48.98218" lon="8.06714">
        <ele>140.7</ele>
        <time>2020-06-28T06:00:25Z</time>
      </trkpt>
      <trkpt lat="48.98215" lon="8.06724">
        <ele>140.6</ele>
        <time>2020-06-28T06:00:26Z</time>
      </trkpt>
      <trkpt lat="48.98213" lon="8.06733">
        <ele>140.5</ele>
        <time>2020-06-28T06:00:27Z</time>
      </trkpt>
      <trkpt lat="48.9821" lon="8.06743">
        <ele>140.5</ele>
        <time>2020-06-28T06:00:28Z</time>
      </trkpt>
      <trkpt lat="48.98207" lon="8.06752">
        <ele>140.5</ele>
        <time>2020-06-28T06:00:29Z</time>
      </trkpt>
      <trkpt lat="48.98204" lon="8.06762">
        <ele>140.4</ele>
        <time>2020-06-28T06:00:30Z</time>
      </trkpt>
      <trkpt lat="48.98201" lon="8.06772">
        <ele>140.4</ele>
        <time>2020-06-28T06:00:31Z</time>
      </trkpt>
      <trkpt lat="48.98198" lon="8.06781">
        <ele>140.4</ele>
        <time>2020-06-28T06:00:32Z</time>
      </trkpt>
      <trkpt lat="48.98195" lon="8.06791">
        <ele>140.4</ele>
        <time>2020-06-28T06:00:33Z</time>
      </trkpt>
      <trkpt lat="48.98192" lon="8.068">
        <ele>140.4</ele>
        <time>2020-06-28T06:00:34Z</time>
      </trkpt>
      <trkpt lat="48.98189" lon="8.0681">
        <ele>140.3</ele>
        <time>2020-06-28T06:00:35Z</time>
      </trkpt>
      <trkpt lat="48.98187" lon="8.06819">
        <ele>140.3</ele>
        <time>2020-06-28T06:00:36Z</time>
      </trkpt>
      <trkpt lat="48.98184" lon="8.06828">
        <ele>140.2</ele>
        <time>2020-06-28T06:00:37Z</time>
      </trkpt>
      <trkpt lat="48.98181" lon="8.06837">
        <ele>140.2</ele>
        <time>2020-06-28T06:00:38Z</time>
      </trkpt>
      <trkpt lat="48.98179" lon="8.06847">
        <ele>140.2</ele>
        <time>2020-06-28T06:00:39Z</time>
      </trkpt>
      <trkpt lat="48.98176" lon="8.06856">
        <ele>140.2</ele>
        <time>2020-06-28T06:00:40Z</time>
      </trkpt>
      <trkpt lat="48.98172" lon="8.06865">
        <ele>140.1</ele>
        <time>2020-06-28T06:00:41Z</time>
      </trkpt>
      <trkpt lat="48.98169" lon="8.06874">
        <ele>140.1</ele>
        <time>2020-06-28T06:00:42Z</time>
      </trkpt>
      <trkpt lat="48.98166" lon="8.06883">
        <ele>140.1</ele>
        <time>2020-06-28T06:00:43Z</time>
      </trkpt>
      <trkpt lat="48.98164" lon="8.06893">
        <ele>140</ele>
        <time>2020-06-28T06:00:44Z</time>
      </trkpt>
      <trkpt lat="48.98161" lon="8.06902">
        <ele>140</ele>
        <time>2020-06-28T06:00:45Z</time>
      </trkpt>
      <trkpt lat="48.98158" lon="8.06911">
        <ele>139.9</ele>
        <time>2020-06-28T06:00:46Z</time>
      </trkpt>
      <trkpt lat="48.98156" lon="8.06921">
        <ele>139.9</ele>
        <time>2020-06-28T06:00:47Z</time>
      </trkpt>
      <trkpt lat="48.98153" lon="8.0693">
        <ele>139.8</ele>
        <time>2020-06-28T06:00:48Z</time>
      </trkpt>
      <trkpt lat="48.9815" lon="8.06939">
        <ele>139.8</ele>
        <time>2020-06-28T06:00:49Z</time>
      </trkpt>
      <trkpt lat="48.98148" lon="8.06948">
        <ele>139.8</ele>
        <time>2020-06-28T06:00:50Z</time>
      </trkpt>
      <trkpt lat="48.98145" lon="8.06957">
        <ele>139.8</ele>
        <time>2020-06-28T06:00:51Z</time>
      </trkpt>
      <trkpt lat="48.98142" lon="8.06966">
        <ele>139.7</ele>
        <time>2020-06-28T06:00:52Z</time>
      </trkpt>
      <trkpt lat="48.9814" lon="8.06975">
        <ele>139.7</ele>
        <time>2020-06-28T06:00:53Z</time>
      </trkpt>
      <trkpt lat="48.98137" lon="8.06983">
        <ele>139.7</ele>
        <time>2020-06-28T06:00:54Z</time>
      </trkpt>
      <trkpt lat="48.98134" lon="8.06992">
        <ele>139.6</ele>
        <time>2020-06-28T06:00:55Z</time>
      </trkpt>
      <trkpt lat="48.98131" lon="8.07001">
        <ele>139.6</ele>
        <time>2020-06-28T06:00:56Z</time>
      </trkpt>
      <trkpt lat="48.98128" lon="8.07009">
        <ele>139.5</ele>
        <time>2020-06-28T06:00:57Z</time>
      </trkpt>
      <trkpt lat="48.98125" lon="8.07018">
        <ele>139.4</ele>
        <time>2020-06-28T06:00:58Z</time>
      </trkpt>
      <trkpt lat="48.98122" lon="8.07027">
        <ele>139.4</ele>
        <time>2020-06-28T06:00:59Z</time>
      </trkpt>
      <trkpt lat="48.9812" lon="8.07036">
        <ele>139.3</ele>
        <time>2020-06-28T06:01:00Z</time>
      </trkpt>
      <trkpt lat="48.98118" lon="8.07046">
        <ele>139.3</ele>
        <time>2020-06-28T06:01:01Z</time>
      </trkpt>
      <trkpt lat="48.98115" lon="8.07054">
        <ele>139.3</ele>
        <time>2020-06-28T06:01:02Z</time>
      </trkpt>
      <trkpt lat="48.98113" lon="8.07063">
        <ele>139.2</ele>
        <time>2020-06-28T06:01:03Z</time>
      </trkpt>
      <trkpt lat="48.9811" lon="8.07071">
        <ele>139.2</ele>
        <time>2020-06-28T06:01:04Z</time>
      </trkpt>
      <trkpt lat="48.98108" lon="8.0708">
        <ele>139.2</ele>
        <time>2020-06-28T06:01:05Z</time>
      </trkpt>
      <trkpt lat="48.98105" lon="8.07088">
        <ele>139.1</ele>
        <time>2020-06-28T06:01:06Z</time>
      </trkpt>
      <trkpt lat="48.98102" lon="8.07096">
        <ele>139.1</ele>
        <time>2020-06-28T06:01:07Z</time>
      </trkpt>
      <trkpt lat="48.981" lon="8.07104">
        <ele>139.1</ele>
        <time>2020-06-28T06:01:08Z</time>
      </trkpt>
      <trkpt lat="48.98098" lon="8.07112">
        <ele>139</ele>
        <time>2020-06-28T06:01:09Z</time>
      </trkpt>
      <trkpt lat="48.98095" lon="8.07121">
        <ele>139</ele>
        <time>2020-06-28T06:01:10Z</time>
      </trkpt>
      <trkpt lat="48.98093" lon="8.07129">
        <ele>139</ele>
        <time>2020-06-28T06:01:11Z</time>
      </trkpt>
      <trkpt lat="48.9809" lon="8.07138">
        <ele>139</ele>
        <time>2020-06-28T06:01:12Z</time>
      </trkpt>
      <trkpt lat="48.98088" lon="8.07147">
        <ele>139</ele>
        <time>2020-06-28T06:01:13Z</time>
      </trkpt>
      <trkpt lat="48.98085" lon="8.07155">
        <ele>139.1</ele>
        <time>2020-06-28T06:01:14Z</time>
      </trkpt>
      <trkpt lat="48.98083" lon="8.07164">
        <ele>139</ele>
        <time>2020-06-28T06:01:15Z</time>
      </trkpt>
      <trkpt lat="48.9808" lon="8.07172">
        <ele>139</ele>
        <time>2020-06-28T06:01:16Z</time>
      </trkpt>
      <trkpt lat="48.98077" lon="8.07181">
        <ele>139</ele>
        <time>2020-06-28T06:01:17Z</time>
      </trkpt>
      <trkpt lat="48.98075" lon="8.0719">
        <ele>139</ele>
        <time>2020-06-28T06:01:18Z</time>
      </trkpt>
      <trkpt lat="48.98072" lon="8.07199">
        <ele>138.9</ele>
        <time>2020-06-28T06:01:19Z</time>
      </trkpt>
      <trkpt lat="48.98069" lon="8.07208">
        <ele>138.9</ele>
        <time>2020-06-28T06:01:20Z</time>
      </trkpt>
      <trkpt lat="48.98066" lon="8.07217">
        <ele>138.9</ele>
        <time>2020-06-28T06:01:21Z</time>
      </trkpt>
      <trkpt lat="48.98064" lon="8.07226">
        <ele>138.9</ele>
        <time>2020-06-28T06:01:22Z</time>
      </trkpt>
      <trkpt lat="48.98061" lon="8.07236">
        <ele>138.8</ele>
        <time>2020-06-28T06:01:23Z</time>
      </trkpt>
      <trkpt lat="48.98059" lon="8.07244">
        <ele>138.8</ele>
        <time>2020-06-28T06:01:24Z</time>
      </trkpt>
      <trkpt lat="48.98056" lon="8.07253">
        <ele>138.8</ele>
        <time>2020-06-28T06:01:25Z</time>
      </trkpt>
      <trkpt lat="48.98055" lon="8.07262">
        <ele>138.8</ele>
        <time>2020-06-28T06:01:26Z</time>
      </trkpt>
      <trkpt lat="48.98053" lon="8.0727">
        <ele>138.8</ele>
        <time>2020-06-28T06:01:27Z</time>
      </trkpt>
      <trkpt lat="48.98051" lon="8.07279">
        <ele>138.8</ele>
        <time>2020-06-28T06:01:28Z</time>
      </trkpt>
      <trkpt lat="48.9805" lon="8.07288">
        <ele>138.8</ele>
        <time>2020-06-28T06:01:29Z</time>
      </trkpt>
      <trkpt lat="48.98047" lon="8.07298">
        <ele>138.8</ele>
        <time>2020-06-28T06:01:30Z</time>
      </trkpt>
      <trkpt lat="48.98045" lon="8.07307">
        <ele>138.8</ele>
        <time>2020-06-28T06:01:31Z</time>
      </trkpt>
      <trkpt lat="48.98043" lon="8.07316">
        <ele>138.8</ele>
        <time>2020-06-28T06:01:32Z</time>
      </trkpt>
      <trkpt lat="48.98039" lon="8.07324">
        <ele>138.9</ele>
        <time>2020-06-28T06:01:33Z</time>
      </trkpt>
      <trkpt lat="48.98037" lon="8.07333">
        <ele>138.9</ele>
        <time>2020-06-28T06:01:34Z</time>
      </trkpt>
      <trkpt lat="48.98033" lon="8.07342">
        <ele>139</ele>
        <time>2020-06-28T06:01:35Z</time>
      </trkpt>
      <trkpt lat="48.98031" lon="8.07351">
        <ele>139.1</ele>
        <time>2020-06-28T06:01:36Z</time>
      </trkpt>
      <trkpt lat="48.98029" lon="8.07359">
        <ele>139.2</ele>
        <time>2020-06-28T06:01:37Z</time>
      </trkpt>
      <trkpt lat="48.98026" lon="8.07367">
        <ele>139.4</ele>
        <time>2020-06-28T06:01:38Z</time>
      </trkpt>
      <trkpt lat="48.98025" lon="8.07375">
        <ele>139.5</ele>
        <time>2020-06-28T06:01:39Z</time>
      </trkpt>
      <trkpt lat="48.98022" lon="8.07382">
        <ele>139.6</ele>
        <time>2020-06-28T06:01:40Z</time>
      </trkpt>
      <trkpt lat="48.9802" lon="8.07389">
        <ele>139.7</ele>
        <time>2020-06-28T06:01:41Z</time>
      </trkpt>
      <trkpt lat="48.98018" lon="8.07396">
        <ele>139.7</ele>
        <time>2020-06-28T06:01:42Z</time>
      </trkpt>
      <trkpt lat="48.98016" lon="8.07402">
        <ele>139.7</ele>
        <time>2020-06-28T06:01:43Z</time>
      </trkpt>
      <trkpt lat="48.98015" lon="8.07408">
        <ele>139.7</ele>
        <time>2020-06-28T06:01:44Z</time>
      </trkpt>
      <trkpt lat="48.98014" lon="8.07413">
        <ele>139.6</ele>
        <time>2020-06-28T06:01:45Z</time>
      </trkpt>
      <trkpt lat="48.98013" lon="8.07418">
        <ele>139.6</ele>
        <time>2020-06-28T06:01:46Z</time>
      </trkpt>
      <trkpt lat="48.98011" lon="8.07422">
        <ele>139.6</ele>
        <time>2020-06-28T06:01:47Z</time>
      </trkpt>
      <trkpt lat="48.9801" lon="8.07427">
        <ele>139.6</ele>
        <time>2020-06-28T06:01:48Z</time>
      </trkpt>
      <trkpt lat="48.9801" lon="8.07433">
        <ele>139.5</ele>
        <time>2020-06-28T06:01:49Z</time>
      </trkpt>
      <trkpt lat="48.98007" lon="8.0744">
        <ele>139.5</ele>
        <time>2020-06-28T06:01:50Z</time>
      </trkpt>
      <trkpt lat="48.98005" lon="8.07448">
        <ele>139.4</ele>
        <time>2020-06-28T06:01:51Z</time>
      </trkpt>
      <trkpt lat="48.98003" lon="8.07456">
        <ele>139.3</ele>
        <time>2020-06-28T06:01:52Z</time>
      </trkpt>
      <trkpt lat="48.98001" lon="8.07464">
        <ele>139.3</ele>
        <time>2020-06-28T06:01:53Z</time>
      </trkpt>
      <trkpt lat="48.97999" lon="8.07473">
        <ele>139.2</ele>
        <time>2020-06-28T06:01:54Z</time>
      </trkpt>
      <trkpt lat="48.97997" lon="8.07482">
        <ele>139.2</ele>
        <time>2020-06-28T06:01:55Z</time>
      </trkpt>
      <trkpt lat="48.97996" lon="8.0749">
        <ele>139.1</ele>
        <time>2020-06-28T06:01:56Z</time>
      </trkpt>
      <trkpt lat="48.97993" lon="8.07498">
        <ele>139.1</ele>
        <time>2020-06-28T06:01:57Z</time>
      </trkpt>
      <trkpt lat="48.9799" lon="8.07506">
        <ele>139.1</ele>
        <time>2020-06-28T06:01:58Z</time>
      </trkpt>
      <trkpt lat="48.97988" lon="8.07514">
        <ele>139.1</ele>
        <time>2020-06-28T06:01:59Z</time>
      </trkpt>
      <trkpt lat="48.97986" lon="8.07522">
        <ele>139</ele>
        <time>2020-06-28T06:02:00Z</time>
      </trkpt>
      <trkpt lat="48.97984" lon="8.0753">
        <ele>139</ele>
        <time>2020-06-28T06:02:01Z</time>
      </trkpt>
      <trkpt lat="48.97981" lon="8.07538">
        <ele>139</ele>
        <time>2020-06-28T06:02:02Z</time>
      </trkpt>
      <trkpt lat="48.97979" lon="8.07547">
        <ele>139</ele>
        <time>2020-06-28T06:02:03Z</time>
      </trkpt>
      <trkpt lat="48.97977" lon="8.07555">
        <ele>139</ele>
        <time>2020-06-28T06:02:04Z</time>
      </trkpt>
      <trkpt lat="48.97974" lon="8.07563">
        <ele>139</ele>
        <time>2020-06-28T06:02:05Z</time>
      </trkpt>
      <trkpt lat="48.97971" lon="8.07571">
        <ele>139</ele>
        <time>2020-06-28T06:02:06Z</time>
      </trkpt>
      <trkpt lat="48.97968" lon="8.07579">
        <ele>139</ele>
        <time>2020-06-28T06:02:07Z</time>
      </trkpt>
      <trkpt lat="48.97965" lon="8.07586">
        <ele>139</ele>
        <time>2020-06-28T06:02:08Z</time>
      </trkpt>
      <trkpt lat="48.97963" lon="8.07595">
        <ele>139</ele>
        <time>2020-06-28T06:02:09Z</time>
      </trkpt>
      <trkpt lat="48.97961" lon="8.07603">
        <ele>139</ele>
        <time>2020-06-28T06:02:10Z</time>
      </trkpt>
      <trkpt lat="48.97958" lon="8.07612">
        <ele>139.1</ele>
        <time>2020-06-28T06:02:11Z</time>
      </trkpt>
      <trkpt lat="48.97956" lon="8.0762">
        <ele>139.1</ele>
        <time>2020-06-28T06:02:12Z</time>
      </trkpt>
      <trkpt lat="48.97955" lon="8.07628">
        <ele>139.1</ele>
        <time>2020-06-28T06:02:13Z</time>
      </trkpt>
      <trkpt lat="48.97952" lon="8.07636">
        <ele>139.1</ele>
        <time>2020-06-28T06:02:14Z</time>
      </trkpt>
      <trkpt lat="48.97949" lon="8.07645">
        <ele>139.1</ele>
        <time>2020-06-28T06:02:15Z</time>
      </trkpt>
      <trkpt lat="48.97945" lon="8.07653">
        <ele>139.1</ele>
        <time>2020-06-28T06:02:16Z</time>
      </trkpt>
      <trkpt lat="48.97941" lon="8.07661">
        <ele>139</ele>
        <time>2020-06-28T06:02:17Z</time>
      </trkpt>
      <trkpt lat="48.97938" lon="8.0767">
        <ele>139</ele>
        <time>2020-06-28T06:02:18Z</time>
      </trkpt>
      <trkpt lat="48.97935" lon="8.07678">
        <ele>139</ele>
        <time>2020-06-28T06:02:19Z</time>
      </trkpt>
      <trkpt lat="48.97932" lon="8.07686">
        <ele>138.9</ele>
        <time>2020-06-28T06:02:20Z</time>
      </trkpt>
      <trkpt lat="48.97929" lon="8.07694">
        <ele>138.9</ele>
        <time>2020-06-28T06:02:21Z</time>
      </trkpt>
      <trkpt lat="48.97927" lon="8.07702">
        <ele>138.9</ele>
        <time>2020-06-28T06:02:22Z</time>
      </trkpt>
      <trkpt lat="48.97925" lon="8.07711">
        <ele>138.9</ele>
        <time>2020-06-28T06:02:23Z</time>
      </trkpt>
      <trkpt lat="48.97922" lon="8.07719">
        <ele>138.9</ele>
        <time>2020-06-28T06:02:24Z</time>
      </trkpt>
      <trkpt lat="48.9792" lon="8.07728">
        <ele>138.9</ele>
        <time>2020-06-28T06:02:25Z</time>
      </trkpt>
      <trkpt lat="48.97917" lon="8.07736">
        <ele>139</ele>
        <time>2020-06-28T06:02:26Z</time>
      </trkpt>
      <trkpt lat="48.97914" lon="8.07746">
        <ele>139</ele>
        <time>2020-06-28T06:02:27Z</time>
      </trkpt>
      <trkpt lat="48.97911" lon="8.07753">
        <ele>139.1</ele>
        <time>2020-06-28T06:02:28Z</time>
      </trkpt>
      <trkpt lat="48.97908" lon="8.07761">
        <ele>139.1</ele>
        <time>2020-06-28T06:02:29Z</time>
      </trkpt>
      <trkpt lat="48.97906" lon="8.07769">
        <ele>139.2</ele>
        <time>2020-06-28T06:02:30Z</time>
      </trkpt>
      <trkpt lat="48.97903" lon="8.07778">
        <ele>139.3</ele>
        <time>2020-06-28T06:02:31Z</time>
      </trkpt>
      <trkpt lat="48.97901" lon="8.07785">
        <ele>139.3</ele>
        <time>2020-06-28T06:02:32Z</time>
      </trkpt>
      <trkpt lat="48.97899" lon="8.07793">
        <ele>139.4</ele>
        <time>2020-06-28T06:02:33Z</time>
      </trkpt>
      <trkpt lat="48.97896" lon="8.07802">
        <ele>139.5</ele>
        <time>2020-06-28T06:02:34Z</time>
      </trkpt>
      <trkpt lat="48.97894" lon="8.07809">
        <ele>139.5</ele>
        <time>2020-06-28T06:02:35Z</time>
      </trkpt>
      <trkpt lat="48.97891" lon="8.07816">
        <ele>139.6</ele>
        <time>2020-06-28T06:02:36Z</time>
      </trkpt>
      <trkpt lat="48.97889" lon="8.07823">
        <ele>139.6</ele>
        <time>2020-06-28T06:02:37Z</time>
      </trkpt>
      <trkpt lat="48.97887" lon="8.07828">
        <ele>139.7</ele>
        <time>2020-06-28T06:02:38Z</time>
      </trkpt>
      <trkpt lat="48.97884" lon="8.07836">
        <ele>139.7</ele>
        <time>2020-06-28T06:02:39Z</time>
      </trkpt>
      <trkpt lat="48.97882" lon="8.07843">
        <ele>139.8</ele>
        <time>2020-06-28T06:02:40Z</time>
      </trkpt>
      <trkpt lat="48.9788" lon="8.07852">
        <ele>139.8</ele>
        <time>2020-06-28T06:02:41Z</time>
      </trkpt>
      <trkpt lat="48.97878" lon="8.07858">
        <ele>139.9</ele>
        <time>2020-06-28T06:02:42Z</time>
      </trkpt>
      <trkpt lat="48.97876" lon="8.07864">
        <ele>139.9</ele>
        <time>2020-06-28T06:02:43Z</time>
      </trkpt>
      <trkpt lat="48.97875" lon="8.0787">
        <ele>140</ele>
        <time>2020-06-28T06:02:44Z</time>
      </trkpt>
      <trkpt lat="48.97873" lon="8.0788">
        <ele>140.1</ele>
        <time>2020-06-28T06:02:45Z</time>
      </trkpt>
      <trkpt lat="48.97872" lon="8.07887">
        <ele>140.2</ele>
        <time>2020-06-28T06:02:46Z</time>
      </trkpt>
      <trkpt lat="48.97872" lon="8.07894">
        <ele>140.3</ele>
        <time>2020-06-28T06:02:47Z</time>
      </trkpt>
      <trkpt lat="48.9787" lon="8.079">
        <ele>140.3</ele>
        <time>2020-06-28T06:02:48Z</time>
      </trkpt>
      <trkpt lat="48.97869" lon="8.07906">
        <ele>140.4</ele>
        <time>2020-06-28T06:02:49Z</time>
      </trkpt>
      <trkpt lat="48.97867" lon="8.0791">
        <ele>140.3</ele>
        <time>2020-06-28T06:02:50Z</time>
      </trkpt>
      <trkpt lat="48.97865" lon="8.07915">
        <ele>140.3</ele>
        <time>2020-06-28T06:02:51Z</time>
      </trkpt>
      <trkpt lat="48.97864" lon="8.07917">
        <ele>140.3</ele>
        <time>2020-06-28T06:02:52Z</time>
      </trkpt>
      <trkpt lat="48.97863" lon="8.07921">
        <ele>140.2</ele>
        <time>2020-06-28T06:02:53Z</time>
      </trkpt>
      <trkpt lat="48.97861" lon="8.07923">
        <ele>140.2</ele>
        <time>2020-06-28T06:02:54Z</time>
      </trkpt>
      <trkpt lat="48.97859" lon="8.07926">
        <ele>140.1</ele>
        <time>2020-06-28T06:02:55Z</time>
      </trkpt>
      <trkpt lat="48.97856" lon="8.07932">
        <ele>140</ele>
        <time>2020-06-28T06:02:56Z</time>
      </trkpt>
      <trkpt lat="48.97853" lon="8.07937">
        <ele>139.9</ele>
        <time>2020-06-28T06:02:57Z</time>
      </trkpt>
      <trkpt lat="48.9785" lon="8.07943">
        <ele>139.9</ele>
        <time>2020-06-28T06:02:58Z</time>
      </trkpt>
      <trkpt lat="48.97848" lon="8.07951">
        <ele>139.8</ele>
        <time>2020-06-28T06:02:59Z</time>
      </trkpt>
      <trkpt lat="48.97847" lon="8.07959">
        <ele>139.7</ele>
        <time>2020-06-28T06:03:00Z</time>
      </trkpt>
      <trkpt lat="48.97845" lon="8.07968">
        <ele>139.6</ele>
        <time>2020-06-28T06:03:01Z</time>
      </trkpt>
      <trkpt lat="48.97843" lon="8.07977">
        <ele>139.5</ele>
        <time>2020-06-28T06:03:02Z</time>
      </trkpt>
      <trkpt lat="48.9784" lon="8.07982">
        <ele>139.5</ele>
        <time>2020-06-28T06:03:03Z</time>
      </trkpt>
      <trkpt lat="48.97839" lon="8.07989">
        <ele>139.4</ele>
        <time>2020-06-28T06:03:04Z</time>
      </trkpt>
      <trkpt lat="48.97837" lon="8.07995">
        <ele>139.4</ele>
        <time>2020-06-28T06:03:05Z</time>
      </trkpt>
      <trkpt lat="48.97835" lon="8.08002">
        <ele>139.3</ele>
        <time>2020-06-28T06:03:06Z</time>
      </trkpt>
      <trkpt lat="48.97832" lon="8.08011">
        <ele>139.3</ele>
        <time>2020-06-28T06:03:07Z</time>
      </trkpt>
      <trkpt lat="48.9783" lon="8.08018">
        <ele>139.2</ele>
        <time>2020-06-28T06:03:08Z</time>
      </trkpt>
      <trkpt lat="48.97827" lon="8.08026">
        <ele>139.1</ele>
        <time>2020-06-28T06:03:09Z</time>
      </trkpt>
      <trkpt lat="48.97824" lon="8.08034">
        <ele>139.1</ele>
        <time>2020-06-28T06:03:10Z</time>
      </trkpt>
      <trkpt lat="48.9782" lon="8.08041">
        <ele>139</ele>
        <time>2020-06-28T06:03:11Z</time>
      </trkpt>
      <trkpt lat="48.97817" lon="8.0805">
        <ele>138.9</ele>
        <time>2020-06-28T06:03:12Z</time>
      </trkpt>
      <trkpt lat="48.97814" lon="8.08059">
        <ele>138.8</ele>
        <time>2020-06-28T06:03:13Z</time>
      </trkpt>
      <trkpt lat="48.9781" lon="8.08066">
        <ele>138.8</ele>
        <time>2020-06-28T06:03:14Z</time>
      </trkpt>
      <trkpt lat="48.97808" lon="8.08073">
        <ele>138.7</ele>
        <time>2020-06-28T06:03:15Z</time>
      </trkpt>
      <trkpt lat="48.97804" lon="8.08081">
        <ele>138.7</ele>
        <time>2020-06-28T06:03:16Z</time>
      </trkpt>
      <trkpt lat="48.97801" lon="8.08089">
        <ele>138.6</ele>
        <time>2020-06-28T06:03:17Z</time>
      </trkpt>
      <trkpt lat="48.97799" lon="8.08097">
        <ele>138.6</ele>
        <time>2020-06-28T06:03:18Z</time>
      </trkpt>
      <trkpt lat="48.97796" lon="8.08103">
        <ele>138.5</ele>
        <time>2020-06-28T06:03:19Z</time>
      </trkpt>
      <trkpt lat="48.97793" lon="8.0811">
        <ele>138.5</ele>
        <time>2020-06-28T06:03:20Z</time>
      </trkpt>
      <trkpt lat="48.97789" lon="8.08118">
        <ele>138.5</ele>
        <time>2020-06-28T06:03:21Z</time>
      </trkpt>
      <trkpt lat="48.97786" lon="8.08125">
        <ele>138.5</ele>
        <time>2020-06-28T06:03:22Z</time>
      </trkpt>
      <trkpt lat="48.97782" lon="8.08129">
        <ele>138.5</ele>
        <time>2020-06-28T06:03:23Z</time>
      </trkpt>
      <trkpt lat="48.97776" lon="8.08135">
        <ele>138.5</ele>
        <time>2020-06-28T06:03:24Z</time>
      </trkpt>
      <trkpt lat="48.97771" lon="8.0814">
        <ele>138.6</ele>
        <time>2020-06-28T06:03:25Z</time>
      </trkpt>
      <trkpt lat="48.97766" lon="8.08146">
        <ele>138.6</ele>
        <time>2020-06-28T06:03:26Z</time>
      </trkpt>
      <trkpt lat="48.97761" lon="8.08153">
        <ele>138.6</ele>
        <time>2020-06-28T06:03:27Z</time>
      </trkpt>
      <trkpt lat="48.97759" lon="8.08161">
        <ele>138.7</ele>
        <time>2020-06-28T06:03:28Z</time>
      </trkpt>
      <trkpt lat="48.97756" lon="8.0817">
        <ele>138.7</ele>
        <time>2020-06-28T06:03:29Z</time>
      </trkpt>
      <trkpt lat="48.97753" lon="8.08177">
        <ele>138.7</ele>
        <time>2020-06-28T06:03:30Z</time>
      </trkpt>
      <trkpt lat="48.97751" lon="8.08183">
        <ele>138.7</ele>
        <time>2020-06-28T06:03:31Z</time>
      </trkpt>
      <trkpt lat="48.97748" lon="8.0819">
        <ele>138.7</ele>
        <time>2020-06-28T06:03:32Z</time>
      </trkpt>
      <trkpt lat="48.97744" lon="8.082">
        <ele>138.7</ele>
        <time>2020-06-28T06:03:33Z</time>
      </trkpt>
      <trkpt lat="48.97741" lon="8.08208">
        <ele>138.7</ele>
        <time>2020-06-28T06:03:34Z</time>
      </trkpt>
      <trkpt lat="48.97739" lon="8.08215">
        <ele>138.8</ele>
        <time>2020-06-28T06:03:35Z</time>
      </trkpt>
      <trkpt lat="48.97736" lon="8.08223">
        <ele>138.8</ele>
        <time>2020-06-28T06:03:36Z</time>
      </trkpt>
      <trkpt lat="48.97732" lon="8.08232">
        <ele>138.8</ele>
        <time>2020-06-28T06:03:37Z</time>
      </trkpt>
      <trkpt lat="48.97729" lon="8.08242">
        <ele>138.8</ele>
        <time>2020-06-28T06:03:38Z</time>
      </trkpt>
      <trkpt lat="48.97726" lon="8.0825">
        <ele>138.9</ele>
        <time>2020-06-28T06:03:39Z</time>
      </trkpt>
      <trkpt lat="48.97723" lon="8.08257">
        <ele>138.9</ele>
        <time>2020-06-28T06:03:40Z</time>
      </trkpt>
      <trkpt lat="48.97718" lon="8.08266">
        <ele>138.9</ele>
        <time>2020-06-28T06:03:41Z</time>
      </trkpt>
      <trkpt lat="48.97714" lon="8.08275">
        <ele>138.9</ele>
        <time>2020-06-28T06:03:42Z</time>
      </trkpt>
      <trkpt lat="48.9771" lon="8.08284">
        <ele>139</ele>
        <time>2020-06-28T06:03:43Z</time>
      </trkpt>
      <trkpt lat="48.97707" lon="8.08293">
        <ele>139</ele>
        <time>2020-06-28T06:03:44Z</time>
      </trkpt>
      <trkpt lat="48.97705" lon="8.083">
        <ele>139.1</ele>
        <time>2020-06-28T06:03:45Z</time>
      </trkpt>
      <trkpt lat="48.97702" lon="8.08306">
        <ele>139.1</ele>
        <time>2020-06-28T06:03:46Z</time>
      </trkpt>
      <trkpt lat="48.977" lon="8.08313">
        <ele>139.2</ele>
        <time>2020-06-28T06:03:47Z</time>
      </trkpt>
      <trkpt lat="48.97697" lon="8.08319">
        <ele>139.2</ele>
        <time>2020-06-28T06:03:48Z</time>
      </trkpt>
      <trkpt lat="48.97695" lon="8.08324">
        <ele>139.3</ele>
        <time>2020-06-28T06:03:49Z</time>
      </trkpt>
      <trkpt lat="48.97693" lon="8.08333">
        <ele>139.4</ele>
        <time>2020-06-28T06:03:50Z</time>
      </trkpt>
      <trkpt lat="48.9769" lon="8.08339">
        <ele>139.5</ele>
        <time>2020-06-28T06:03:51Z</time>
      </trkpt>
      <trkpt lat="48.97687" lon="8.08347">
        <ele>139.6</ele>
        <time>2020-06-28T06:03:52Z</time>
      </trkpt>
      <trkpt lat="48.97683" lon="8.08355">
        <ele>139.7</ele>
        <time>2020-06-28T06:03:53Z</time>
      </trkpt>
      <trkpt lat="48.9768" lon="8.08363">
        <ele>139.8</ele>
        <time>2020-06-28T06:03:54Z</time>
      </trkpt>
      <trkpt lat="48.97676" lon="8.08372">
        <ele>139.8</ele>
        <time>2020-06-28T06:03:55Z</time>
      </trkpt>
      <trkpt lat="48.97673" lon="8.0838">
        <ele>139.8</ele>
        <time>2020-06-28T06:03:56Z</time>
      </trkpt>
      <trkpt lat="48.9767" lon="8.08387">
        <ele>139.8</ele>
        <time>2020-06-28T06:03:57Z</time>
      </trkpt>
      <trkpt lat="48.97667" lon="8.08394">
        <ele>139.8</ele>
        <time>2020-06-28T06:03:58Z</time>
      </trkpt>
      <trkpt lat="48.97664" lon="8.08401">
        <ele>139.8</ele>
        <time>2020-06-28T06:03:59Z</time>
      </trkpt>
      <trkpt lat="48.97662" lon="8.08407">
        <ele>139.8</ele>
        <time>2020-06-28T06:04:00Z</time>
      </trkpt>
      <trkpt lat="48.9766" lon="8.08414">
        <ele>139.8</ele>
        <time>2020-06-28T06:04:01Z</time>
      </trkpt>
      <trkpt lat="48.97656" lon="8.08422">
        <ele>139.8</ele>
        <time>2020-06-28T06:04:02Z</time>
      </trkpt>
      <trkpt lat="48.97654" lon="8.08429">
        <ele>139.7</ele>
        <time>2020-06-28T06:04:03Z</time>
      </trkpt>
      <trkpt lat="48.9765" lon="8.08437">
        <ele>139.7</ele>
        <time>2020-06-28T06:04:04Z</time>
      </trkpt>
      <trkpt lat="48.97647" lon="8.08443">
        <ele>139.7</ele>
        <time>2020-06-28T06:04:05Z</time>
      </trkpt>
      <trkpt lat="48.97644" lon="8.0845">
        <ele>139.7</ele>
        <time>2020-06-28T06:04:06Z</time>
      </trkpt>
      <trkpt lat="48.9764" lon="8.08458">
        <ele>139.7</ele>
        <time>2020-06-28T06:04:07Z</time>
      </trkpt>
      <trkpt lat="48.97636" lon="8.08466">
        <ele>139.7</ele>
        <time>2020-06-28T06:04:08Z</time>
      </trkpt>
      <trkpt lat="48.97633" lon="8.08475">
        <ele>139.7</ele>
        <time>2020-06-28T06:04:09Z</time>
      </trkpt>
      <trkpt lat="48.97629" lon="8.08483">
        <ele>139.7</ele>
        <time>2020-06-28T06:04:10Z</time>
      </trkpt>
      <trkpt lat="48.97625" lon="8.08492">
        <ele>139.7</ele>
        <time>2020-06-28T06:04:11Z</time>
      </trkpt>
      <trkpt lat="48.97622" lon="8.08501">
        <ele>139.7</ele>
        <time>2020-06-28T06:04:12Z</time>
      </trkpt>
      <trkpt lat="48.97618" lon="8.08509">
        <ele>139.7</ele>
        <time>2020-06-28T06:04:13Z</time>
      </trkpt>
      <trkpt lat="48.97614" lon="8.08518">
        <ele>139.7</ele>
        <time>2020-06-28T06:04:14Z</time>
      </trkpt>
      <trkpt lat="48.97611" lon="8.08526">
        <ele>139.7</ele>
        <time>2020-06-28T06:04:15Z</time>
      </trkpt>
      <trkpt lat="48.97608" lon="8.08535">
        <ele>139.7</ele>
        <time>2020-06-28T06:04:16Z</time>
      </trkpt>
      <trkpt lat="48.97605" lon="8.08541">
        <ele>139.7</ele>
        <time>2020-06-28T06:04:17Z</time>
      </trkpt>
      <trkpt lat="48.97602" lon="8.08549">
        <ele>139.8</ele>
        <time>2020-06-28T06:04:18Z</time>
      </trkpt>
      <trkpt lat="48.976" lon="8.08557">
        <ele>139.8</ele>
        <time>2020-06-28T06:04:19Z</time>
      </trkpt>
      <trkpt lat="48.97596" lon="8.08565">
        <ele>139.9</ele>
        <time>2020-06-28T06:04:20Z</time>
      </trkpt>
      <trkpt lat="48.97593" lon="8.08572">
        <ele>139.9</ele>
        <time>2020-06-28T06:04:21Z</time>
      </trkpt>
      <trkpt lat="48.9759" lon="8.08579">
        <ele>140</ele>
        <time>2020-06-28T06:04:22Z</time>
      </trkpt>
      <trkpt lat="48.97587" lon="8.08588">
        <ele>140</ele>
        <time>2020-06-28T06:04:23Z</time>
      </trkpt>
      <trkpt lat="48.97583" lon="8.08594">
        <ele>140</ele>
        <time>2020-06-28T06:04:24Z</time>
      </trkpt>
      <trkpt lat="48.9758" lon="8.08601">
        <ele>140.1</ele>
        <time>2020-06-28T06:04:25Z</time>
      </trkpt>
      <trkpt lat="48.97577" lon="8.08607">
        <ele>140.1</ele>
        <time>2020-06-28T06:04:26Z</time>
      </trkpt>
      <trkpt lat="48.97575" lon="8.08615">
        <ele>140.1</ele>
        <time>2020-06-28T06:04:27Z</time>
      </trkpt>
      <trkpt lat="48.97573" lon="8.0862">
        <ele>140.2</ele>
        <time>2020-06-28T06:04:28Z</time>
      </trkpt>
      <trkpt lat="48.97571" lon="8.08625">
        <ele>140.2</ele>
        <time>2020-06-28T06:04:29Z</time>
      </trkpt>
      <trkpt lat="48.97567" lon="8.08634">
        <ele>140.2</ele>
        <time>2020-06-28T06:04:30Z</time>
      </trkpt>
      <trkpt lat="48.97564" lon="8.08642">
        <ele>140.2</ele>
        <time>2020-06-28T06:04:31Z</time>
      </trkpt>
      <trkpt lat="48.9756" lon="8.0865">
        <ele>140.2</ele>
        <time>2020-06-28T06:04:32Z</time>
      </trkpt>
      <trkpt lat="48.97557" lon="8.08659">
        <ele>140.2</ele>
        <time>2020-06-28T06:04:33Z</time>
      </trkpt>
      <trkpt lat="48.97554" lon="8.08666">
        <ele>140.2</ele>
        <time>2020-06-28T06:04:34Z</time>
      </trkpt>
      <trkpt lat="48.9755" lon="8.08673">
        <ele>140.2</ele>
        <time>2020-06-28T06:04:35Z</time>
      </trkpt>
      <trkpt lat="48.97548" lon="8.08682">
        <ele>140.1</ele>
        <time>2020-06-28T06:04:36Z</time>
      </trkpt>
      <trkpt lat="48.97544" lon="8.0869">
        <ele>140.1</ele>
        <time>2020-06-28T06:04:37Z</time>
      </trkpt>
      <trkpt lat="48.9754" lon="8.08697">
        <ele>140.1</ele>
        <time>2020-06-28T06:04:38Z</time>
      </trkpt>
      <trkpt lat="48.97536" lon="8.08707">
        <ele>140.1</ele>
        <time>2020-06-28T06:04:39Z</time>
      </trkpt>
      <trkpt lat="48.97533" lon="8.08715">
        <ele>140.1</ele>
        <time>2020-06-28T06:04:40Z</time>
      </trkpt>
      <trkpt lat="48.97529" lon="8.08725">
        <ele>140.1</ele>
        <time>2020-06-28T06:04:41Z</time>
      </trkpt>
      <trkpt lat="48.97526" lon="8.08733">
        <ele>140.1</ele>
        <time>2020-06-28T06:04:42Z</time>
      </trkpt>
      <trkpt lat="48.97524" lon="8.0874">
        <ele>140.1</ele>
        <time>2020-06-28T06:04:43Z</time>
      </trkpt>
      <trkpt lat="48.9752" lon="8.0875">
        <ele>140</ele>
        <time>2020-06-28T06:04:44Z</time>
      </trkpt>
      <trkpt lat="48.97516" lon="8.08758">
        <ele>140</ele>
        <time>2020-06-28T06:04:45Z</time>
      </trkpt>
      <trkpt lat="48.97512" lon="8.08765">
        <ele>140</ele>
        <time>2020-06-28T06:04:46Z</time>
      </trkpt>
      <trkpt lat="48.97509" lon="8.08773">
        <ele>140</ele>
        <time>2020-06-28T06:04:47Z</time>
      </trkpt>
      <trkpt lat="48.97505" lon="8.08781">
        <ele>140</ele>
        <time>2020-06-28T06:04:48Z</time>
      </trkpt>
      <trkpt lat="48.97502" lon="8.08789">
        <ele>139.9</ele>
        <time>2020-06-28T06:04:49Z</time>
      </trkpt>
      <trkpt lat="48.97499" lon="8.08796">
        <ele>139.9</ele>
        <time>2020-06-28T06:04:50Z</time>
      </trkpt>
      <trkpt lat="48.97496" lon="8.08804">
        <ele>139.8</ele>
        <time>2020-06-28T06:04:51Z</time>
      </trkpt>
      <trkpt lat="48.97493" lon="8.0881">
        <ele>139.8</ele>
        <time>2020-06-28T06:04:52Z</time>
      </trkpt>
      <trkpt lat="48.9749" lon="8.08818">
        <ele>139.7</ele>
        <time>2020-06-28T06:04:53Z</time>
      </trkpt>
      <trkpt lat="48.97488" lon="8.08826">
        <ele>139.7</ele>
        <time>2020-06-28T06:04:54Z</time>
      </trkpt>
      <trkpt lat="48.97486" lon="8.08834">
        <ele>139.6</ele>
        <time>2020-06-28T06:04:55Z</time>
      </trkpt>
      <trkpt lat="48.97483" lon="8.08842">
        <ele>139.6</ele>
        <time>2020-06-28T06:04:56Z</time>
      </trkpt>
      <trkpt lat="48.97481" lon="8.08852">
        <ele>139.5</ele>
        <time>2020-06-28T06:04:57Z</time>
      </trkpt>
      <trkpt lat="48.97478" lon="8.08861">
        <ele>139.4</ele>
        <time>2020-06-28T06:04:58Z</time>
      </trkpt>
      <trkpt lat="48.97475" lon="8.08873">
        <ele>139.3</ele>
        <time>2020-06-28T06:04:59Z</time>
      </trkpt>
      <trkpt lat="48.97472" lon="8.08882">
        <ele>139.1</ele>
        <time>2020-06-28T06:05:00Z</time>
      </trkpt>
      <trkpt lat="48.97469" lon="8.08894">
        <ele>139</ele>
        <time>2020-06-28T06:05:01Z</time>
      </trkpt>
      <trkpt lat="48.97467" lon="8.08904">
        <ele>138.9</ele>
        <time>2020-06-28T06:05:02Z</time>
      </trkpt>
      <trkpt lat="48.97464" lon="8.08913">
        <ele>138.8</ele>
        <time>2020-06-28T06:05:03Z</time>
      </trkpt>
      <trkpt lat="48.97461" lon="8.08922">
        <ele>138.8</ele>
        <time>2020-06-28T06:05:04Z</time>
      </trkpt>
      <trkpt lat="48.97459" lon="8.08932">
        <ele>138.7</ele>
        <time>2020-06-28T06:05:05Z</time>
      </trkpt>
      <trkpt lat="48.97457" lon="8.0894">
        <ele>138.6</ele>
        <time>2020-06-28T06:05:06Z</time>
      </trkpt>
      <trkpt lat="48.97455" lon="8.08949">
        <ele>138.5</ele>
        <time>2020-06-28T06:05:07Z</time>
      </trkpt>
      <trkpt lat="48.97453" lon="8.08959">
        <ele>138.5</ele>
        <time>2020-06-28T06:05:08Z</time>
      </trkpt>
      <trkpt lat="48.97451" lon="8.08968">
        <ele>138.4</ele>
        <time>2020-06-28T06:05:09Z</time>
      </trkpt>
      <trkpt lat="48.9745" lon="8.08977">
        <ele>138.4</ele>
        <time>2020-06-28T06:05:10Z</time>
      </trkpt>
      <trkpt lat="48.97448" lon="8.08987">
        <ele>138.4</ele>
        <time>2020-06-28T06:05:11Z</time>
      </trkpt>
      <trkpt lat="48.97446" lon="8.08996">
        <ele>138.4</ele>
        <time>2020-06-28T06:05:12Z</time>
      </trkpt>
      <trkpt lat="48.97445" lon="8.09006">
        <ele>138.3</ele>
        <time>2020-06-28T06:05:13Z</time>
      </trkpt>
      <trkpt lat="48.97444" lon="8.09015">
        <ele>138.3</ele>
        <time>2020-06-28T06:05:14Z</time>
      </trkpt>
      <trkpt lat="48.97443" lon="8.09025">
        <ele>138.3</ele>
        <time>2020-06-28T06:05:15Z</time>
      </trkpt>
      <trkpt lat="48.97442" lon="8.09034">
        <ele>138.2</ele>
        <time>2020-06-28T06:05:16Z</time>
      </trkpt>
      <trkpt lat="48.97441" lon="8.09044">
        <ele>138.2</ele>
        <time>2020-06-28T06:05:17Z</time>
      </trkpt>
      <trkpt lat="48.97441" lon="8.09053">
        <ele>138.2</ele>
        <time>2020-06-28T06:05:18Z</time>
      </trkpt>
      <trkpt lat="48.97441" lon="8.09063">
        <ele>138.1</ele>
        <time>2020-06-28T06:05:19Z</time>
      </trkpt>
      <trkpt lat="48.9744" lon="8.09072">
        <ele>138.1</ele>
        <time>2020-06-28T06:05:20Z</time>
      </trkpt>
      <trkpt lat="48.9744" lon="8.09081">
        <ele>138</ele>
        <time>2020-06-28T06:05:21Z</time>
      </trkpt>
      <trkpt lat="48.9744" lon="8.09091">
        <ele>137.9</ele>
        <time>2020-06-28T06:05:22Z</time>
      </trkpt>
      <trkpt lat="48.97439" lon="8.09101">
        <ele>137.9</ele>
        <time>2020-06-28T06:05:23Z</time>
      </trkpt>
      <trkpt lat="48.97439" lon="8.0911">
        <ele>137.9</ele>
        <time>2020-06-28T06:05:24Z</time>
      </trkpt>
      <trkpt lat="48.97439" lon="8.0912">
        <ele>137.9</ele>
        <time>2020-06-28T06:05:25Z</time>
      </trkpt>
      <trkpt lat="48.97439" lon="8.09129">
        <ele>137.9</ele>
        <time>2020-06-28T06:05:26Z</time>
      </trkpt>
      <trkpt lat="48.97439" lon="8.09139">
        <ele>137.8</ele>
        <time>2020-06-28T06:05:27Z</time>
      </trkpt>
      <trkpt lat="48.97439" lon="8.09149">
        <ele>137.8</ele>
        <time>2020-06-28T06:05:28Z</time>
      </trkpt>
      <trkpt lat="48.97439" lon="8.09158">
        <ele>137.8</ele>
        <time>2020-06-28T06:05:29Z</time>
      </trkpt>
      <trkpt lat="48.97439" lon="8.09168">
        <ele>137.7</ele>
        <time>2020-06-28T06:05:30Z</time>
      </trkpt>
      <trkpt lat="48.97439" lon="8.09179">
        <ele>137.7</ele>
        <time>2020-06-28T06:05:31Z</time>
      </trkpt>
      <trkpt lat="48.97438" lon="8.09189">
        <ele>137.7</ele>
        <time>2020-06-28T06:05:32Z</time>
      </trkpt>
      <trkpt lat="48.97439" lon="8.09199">
        <ele>137.7</ele>
        <time>2020-06-28T06:05:33Z</time>
      </trkpt>
      <trkpt lat="48.97439" lon="8.09209">
        <ele>137.7</ele>
        <time>2020-06-28T06:05:34Z</time>
      </trkpt>
      <trkpt lat="48.97439" lon="8.09218">
        <ele>137.7</ele>
        <time>2020-06-28T06:05:35Z</time>
      </trkpt>
      <trkpt lat="48.97439" lon="8.09229">
        <ele>137.7</ele>
        <time>2020-06-28T06:05:36Z</time>
      </trkpt>
      <trkpt lat="48.97439" lon="8.09239">
        <ele>137.6</ele>
        <time>2020-06-28T06:05:37Z</time>
      </trkpt>
      <trkpt lat="48.97439" lon="8.09249">
        <ele>137.6</ele>
        <time>2020-06-28T06:05:38Z</time>
      </trkpt>
      <trkpt lat="48.9744" lon="8.0926">
        <ele>137.6</ele>
        <time>2020-06-28T06:05:39Z</time>
      </trkpt>
      <trkpt lat="48.9744" lon="8.0927">
        <ele>137.6</ele>
        <time>2020-06-28T06:05:40Z</time>
      </trkpt>
      <trkpt lat="48.9744" lon="8.09281">
        <ele>137.6</ele>
        <time>2020-06-28T06:05:41Z</time>
      </trkpt>
      <trkpt lat="48.9744" lon="8.0929">
        <ele>137.6</ele>
        <time>2020-06-28T06:05:42Z</time>
      </trkpt>
      <trkpt lat="48.97441" lon="8.093">
        <ele>137.5</ele>
        <time>2020-06-28T06:05:43Z</time>
      </trkpt>
      <trkpt lat="48.97441" lon="8.0931">
        <ele>137.5</ele>
        <time>2020-06-28T06:05:44Z</time>
      </trkpt>
      <trkpt lat="48.97441" lon="8.09319">
        <ele>137.5</ele>
        <time>2020-06-28T06:05:45Z</time>
      </trkpt>
      <trkpt lat="48.97441" lon="8.09328">
        <ele>137.5</ele>
        <time>2020-06-28T06:05:46Z</time>
      </trkpt>
      <trkpt lat="48.97441" lon="8.09338">
        <ele>137.5</ele>
        <time>2020-06-28T06:05:47Z</time>
      </trkpt>
      <trkpt lat="48.97441" lon="8.09347">
        <ele>137.4</ele>
        <time>2020-06-28T06:05:48Z</time>
      </trkpt>
      <trkpt lat="48.97441" lon="8.09356">
        <ele>137.4</ele>
        <time>2020-06-28T06:05:49Z</time>
      </trkpt>
      <trkpt lat="48.97441" lon="8.09365">
        <ele>137.3</ele>
        <time>2020-06-28T06:05:50Z</time>
      </trkpt>
      <trkpt lat="48.97441" lon="8.09373">
        <ele>137.3</ele>
        <time>2020-06-28T06:05:51Z</time>
      </trkpt>
      <trkpt lat="48.97441" lon="8.09381">
        <ele>137.3</ele>
        <time>2020-06-28T06:05:52Z</time>
      </trkpt>
      <trkpt lat="48.97441" lon="8.0939">
        <ele>137.2</ele>
        <time>2020-06-28T06:05:53Z</time>
      </trkpt>
      <trkpt lat="48.97442" lon="8.09398">
        <ele>137.2</ele>
        <time>2020-06-28T06:05:54Z</time>
      </trkpt>
      <trkpt lat="48.97443" lon="8.09408">
        <ele>137.2</ele>
        <time>2020-06-28T06:05:55Z</time>
      </trkpt>
      <trkpt lat="48.97443" lon="8.09417">
        <ele>137.2</ele>
        <time>2020-06-28T06:05:56Z</time>
      </trkpt>
      <trkpt lat="48.97444" lon="8.09426">
        <ele>137.2</ele>
        <time>2020-06-28T06:05:57Z</time>
      </trkpt>
      <trkpt lat="48.97444" lon="8.09435">
        <ele>137.2</ele>
        <time>2020-06-28T06:05:58Z</time>
      </trkpt>
      <trkpt lat="48.97444" lon="8.09444">
        <ele>137.2</ele>
        <time>2020-06-28T06:05:59Z</time>
      </trkpt>
      <trkpt lat="48.97444" lon="8.09454">
        <ele>137.1</ele>
        <time>2020-06-28T06:06:00Z</time>
      </trkpt>
      <trkpt lat="48.97444" lon="8.09463">
        <ele>137.1</ele>
        <time>2020-06-28T06:06:01Z</time>
      </trkpt>
      <trkpt lat="48.97444" lon="8.09472">
        <ele>137.1</ele>
        <time>2020-06-28T06:06:02Z</time>
      </trkpt>
      <trkpt lat="48.97444" lon="8.09481">
        <ele>137.1</ele>
        <time>2020-06-28T06:06:03Z</time>
      </trkpt>
      <trkpt lat="48.97444" lon="8.0949">
        <ele>137.1</ele>
        <time>2020-06-28T06:06:04Z</time>
      </trkpt>
      <trkpt lat="48.97445" lon="8.09499">
        <ele>137.1</ele>
        <time>2020-06-28T06:06:05Z</time>
      </trkpt>
      <trkpt lat="48.97445" lon="8.09507">
        <ele>137.1</ele>
        <time>2020-06-28T06:06:06Z</time>
      </trkpt>
      <trkpt lat="48.97446" lon="8.09515">
        <ele>137.1</ele>
        <time>2020-06-28T06:06:07Z</time>
      </trkpt>
      <trkpt lat="48.97445" lon="8.09523">
        <ele>137.1</ele>
        <time>2020-06-28T06:06:08Z</time>
      </trkpt>
      <trkpt lat="48.97445" lon="8.09531">
        <ele>137.2</ele>
        <time>2020-06-28T06:06:09Z</time>
      </trkpt>
      <trkpt lat="48.97446" lon="8.09539">
        <ele>137.1</ele>
        <time>2020-06-28T06:06:10Z</time>
      </trkpt>
      <trkpt lat="48.97446" lon="8.09548">
        <ele>137.1</ele>
        <time>2020-06-28T06:06:11Z</time>
      </trkpt>
      <trkpt lat="48.97446" lon="8.09556">
        <ele>137.1</ele>
        <time>2020-06-28T06:06:12Z</time>
      </trkpt>
      <trkpt lat="48.97446" lon="8.09564">
        <ele>137.2</ele>
        <time>2020-06-28T06:06:13Z</time>
      </trkpt>
      <trkpt lat="48.97446" lon="8.09572">
        <ele>137.2</ele>
        <time>2020-06-28T06:06:14Z</time>
      </trkpt>
      <trkpt lat="48.97446" lon="8.09581">
        <ele>137.2</ele>
        <time>2020-06-28T06:06:15Z</time>
      </trkpt>
      <trkpt lat="48.97447" lon="8.09588">
        <ele>137.2</ele>
        <time>2020-06-28T06:06:16Z</time>
      </trkpt>
      <trkpt lat="48.97447" lon="8.09596">
        <ele>137.3</ele>
        <time>2020-06-28T06:06:17Z</time>
      </trkpt>
      <trkpt lat="48.97447" lon="8.09603">
        <ele>137.3</ele>
        <time>2020-06-28T06:06:18Z</time>
      </trkpt>
      <trkpt lat="48.97448" lon="8.0961">
        <ele>137.3</ele>
        <time>2020-06-28T06:06:19Z</time>
      </trkpt>
      <trkpt lat="48.97448" lon="8.09616">
        <ele>137.3</ele>
        <time>2020-06-28T06:06:20Z</time>
      </trkpt>
      <trkpt lat="48.97449" lon="8.09621">
        <ele>137.4</ele>
        <time>2020-06-28T06:06:21Z</time>
      </trkpt>
      <trkpt lat="48.9745" lon="8.09626">
        <ele>137.4</ele>
        <time>2020-06-28T06:06:22Z</time>
      </trkpt>
      <trkpt lat="48.97451" lon="8.09632">
        <ele>137.5</ele>
        <time>2020-06-28T06:06:23Z</time>
      </trkpt>
      <trkpt lat="48.9745" lon="8.09638">
        <ele>137.6</ele>
        <time>2020-06-28T06:06:24Z</time>
      </trkpt>
      <trkpt lat="48.97449" lon="8.09645">
        <ele>137.6</ele>
        <time>2020-06-28T06:06:25Z</time>
      </trkpt>
      <trkpt lat="48.97449" lon="8.09652">
        <ele>137.7</ele>
        <time>2020-06-28T06:06:26Z</time>
      </trkpt>
      <trkpt lat="48.97448" lon="8.09659">
        <ele>137.8</ele>
        <time>2020-06-28T06:06:27Z</time>
      </trkpt>
      <trkpt lat="48.97447" lon="8.09664">
        <ele>137.8</ele>
        <time>2020-06-28T06:06:28Z</time>
      </trkpt>
      <trkpt lat="48.97443" lon="8.09666">
        <ele>137.8</ele>
        <time>2020-06-28T06:06:29Z</time>
      </trkpt>
      <trkpt lat="48.97438" lon="8.09669">
        <ele>137.8</ele>
        <time>2020-06-28T06:06:30Z</time>
      </trkpt>
      <trkpt lat="48.97435" lon="8.09676">
        <ele>137.9</ele>
        <time>2020-06-28T06:06:31Z</time>
      </trkpt>
      <trkpt lat="48.97436" lon="8.09684">
        <ele>137.6</ele>
        <time>2020-06-28T06:06:32Z</time>
      </trkpt>
      <trkpt lat="48.97436" lon="8.09692">
        <ele>137.6</ele>
        <time>2020-06-28T06:06:33Z</time>
      </trkpt>
      <trkpt lat="48.97437" lon="8.097">
        <ele>137.5</ele>
        <time>2020-06-28T06:06:34Z</time>
      </trkpt>
      <trkpt lat="48.9744" lon="8.09706">
        <ele>137.4</ele>
        <time>2020-06-28T06:06:35Z</time>
      </trkpt>
      <trkpt lat="48.97442" lon="8.09713">
        <ele>137.4</ele>
        <time>2020-06-28T06:06:36Z</time>
      </trkpt>
      <trkpt lat="48.97444" lon="8.09721">
        <ele>137.4</ele>
        <time>2020-06-28T06:06:37Z</time>
      </trkpt>
      <trkpt lat="48.97445" lon="8.09728">
        <ele>137.4</ele>
        <time>2020-06-28T06:06:38Z</time>
      </trkpt>
      <trkpt lat="48.97446" lon="8.09736">
        <ele>137.4</ele>
        <time>2020-06-28T06:06:39Z</time>
      </trkpt>
      <trkpt lat="48.97448" lon="8.09744">
        <ele>137.4</ele>
        <time>2020-06-28T06:06:40Z</time>
      </trkpt>
      <trkpt lat="48.9745" lon="8.09752">
        <ele>137.3</ele>
        <time>2020-06-28T06:06:41Z</time>
      </trkpt>
      <trkpt lat="48.97451" lon="8.09761">
        <ele>137.2</ele>
        <time>2020-06-28T06:06:42Z</time>
      </trkpt>
      <trkpt lat="48.97452" lon="8.0977">
        <ele>137.2</ele>
        <time>2020-06-28T06:06:43Z</time>
      </trkpt>
      <trkpt lat="48.97451" lon="8.09779">
        <ele>137.2</ele>
        <time>2020-06-28T06:06:44Z</time>
      </trkpt>
      <trkpt lat="48.97451" lon="8.09787">
        <ele>137.1</ele>
        <time>2020-06-28T06:06:45Z</time>
      </trkpt>
      <trkpt lat="48.97451" lon="8.09796">
        <ele>137.1</ele>
        <time>2020-06-28T06:06:46Z</time>
      </trkpt>
      <trkpt lat="48.97451" lon="8.09804">
        <ele>137.1</ele>
        <time>2020-06-28T06:06:47Z</time>
      </trkpt>
      <trkpt lat="48.97451" lon="8.09812">
        <ele>137.1</ele>
        <time>2020-06-28T06:06:48Z</time>
      </trkpt>
      <trkpt lat="48.97451" lon="8.0982">
        <ele>137.1</ele>
        <time>2020-06-28T06:06:49Z</time>
      </trkpt>
      <trkpt lat="48.97451" lon="8.09828">
        <ele>137.1</ele>
        <time>2020-06-28T06:06:50Z</time>
      </trkpt>
      <trkpt lat="48.97452" lon="8.09836">
        <ele>137.1</ele>
        <time>2020-06-28T06:06:51Z</time>
      </trkpt>
      <trkpt lat="48.97452" lon="8.09845">
        <ele>137.1</ele>
        <time>2020-06-28T06:06:52Z</time>
      </trkpt>
      <trkpt lat="48.97453" lon="8.09852">
        <ele>137.1</ele>
        <time>2020-06-28T06:06:53Z</time>
      </trkpt>
      <trkpt lat="48.97453" lon="8.0986">
        <ele>137</ele>
        <time>2020-06-28T06:06:54Z</time>
      </trkpt>
      <trkpt lat="48.97454" lon="8.09868">
        <ele>137</ele>
        <time>2020-06-28T06:06:55Z</time>
      </trkpt>
      <trkpt lat="48.97455" lon="8.09876">
        <ele>137</ele>
        <time>2020-06-28T06:06:56Z</time>
      </trkpt>
      <trkpt lat="48.97457" lon="8.09884">
        <ele>136.9</ele>
        <time>2020-06-28T06:06:57Z</time>
      </trkpt>
      <trkpt lat="48.97459" lon="8.09892">
        <ele>136.9</ele>
        <time>2020-06-28T06:06:58Z</time>
      </trkpt>
      <trkpt lat="48.9746" lon="8.09901">
        <ele>136.9</ele>
        <time>2020-06-28T06:06:59Z</time>
      </trkpt>
      <trkpt lat="48.97462" lon="8.0991">
        <ele>136.9</ele>
        <time>2020-06-28T06:07:00Z</time>
      </trkpt>
      <trkpt lat="48.97463" lon="8.09919">
        <ele>137</ele>
        <time>2020-06-28T06:07:01Z</time>
      </trkpt>
      <trkpt lat="48.97464" lon="8.09929">
        <ele>137</ele>
        <time>2020-06-28T06:07:02Z</time>
      </trkpt>
      <trkpt lat="48.97464" lon="8.09938">
        <ele>137</ele>
        <time>2020-06-28T06:07:03Z</time>
      </trkpt>
      <trkpt lat="48.97465" lon="8.09947">
        <ele>137.1</ele>
        <time>2020-06-28T06:07:04Z</time>
      </trkpt>
      <trkpt lat="48.97465" lon="8.09956">
        <ele>137.1</ele>
        <time>2020-06-28T06:07:05Z</time>
      </trkpt>
      <trkpt lat="48.97466" lon="8.09964">
        <ele>137.1</ele>
        <time>2020-06-28T06:07:06Z</time>
      </trkpt>
      <trkpt lat="48.97466" lon="8.09973">
        <ele>137.1</ele>
        <time>2020-06-28T06:07:07Z</time>
      </trkpt>
      <trkpt lat="48.97466" lon="8.09981">
        <ele>137.1</ele>
        <time>2020-06-28T06:07:08Z</time>
      </trkpt>
      <trkpt lat="48.97466" lon="8.09988">
        <ele>137.1</ele>
        <time>2020-06-28T06:07:09Z</time>
      </trkpt>
      <trkpt lat="48.97467" lon="8.09996">
        <ele>137</ele>
        <time>2020-06-28T06:07:10Z</time>
      </trkpt>
      <trkpt lat="48.97468" lon="8.10002">
        <ele>137</ele>
        <time>2020-06-28T06:07:11Z</time>
      </trkpt>
      <trkpt lat="48.97469" lon="8.10009">
        <ele>137</ele>
        <time>2020-06-28T06:07:12Z</time>
      </trkpt>
      <trkpt lat="48.97469" lon="8.10017">
        <ele>136.9</ele>
        <time>2020-06-28T06:07:13Z</time>
      </trkpt>
      <trkpt lat="48.9747" lon="8.10025">
        <ele>136.9</ele>
        <time>2020-06-28T06:07:14Z</time>
      </trkpt>
      <trkpt lat="48.97471" lon="8.10035">
        <ele>136.9</ele>
        <time>2020-06-28T06:07:15Z</time>
      </trkpt>
      <trkpt lat="48.97472" lon="8.10044">
        <ele>136.8</ele>
        <time>2020-06-28T06:07:16Z</time>
      </trkpt>
      <trkpt lat="48.97473" lon="8.10054">
        <ele>136.8</ele>
        <time>2020-06-28T06:07:17Z</time>
      </trkpt>
      <trkpt lat="48.97473" lon="8.10064">
        <ele>136.7</ele>
        <time>2020-06-28T06:07:18Z</time>
      </trkpt>
      <trkpt lat="48.97474" lon="8.10073">
        <ele>136.7</ele>
        <time>2020-06-28T06:07:19Z</time>
      </trkpt>
      <trkpt lat="48.97474" lon="8.10083">
        <ele>136.7</ele>
        <time>2020-06-28T06:07:20Z</time>
      </trkpt>
      <trkpt lat="48.97473" lon="8.10093">
        <ele>136.6</ele>
        <time>2020-06-28T06:07:21Z</time>
      </trkpt>
      <trkpt lat="48.97474" lon="8.10102">
        <ele>136.6</ele>
        <time>2020-06-28T06:07:22Z</time>
      </trkpt>
      <trkpt lat="48.97473" lon="8.10112">
        <ele>136.6</ele>
        <time>2020-06-28T06:07:23Z</time>
      </trkpt>
      <trkpt lat="48.97474" lon="8.10122">
        <ele>136.6</ele>
        <time>2020-06-28T06:07:24Z</time>
      </trkpt>
      <trkpt lat="48.97474" lon="8.10131">
        <ele>136.5</ele>
        <time>2020-06-28T06:07:25Z</time>
      </trkpt>
      <trkpt lat="48.97473" lon="8.10141">
        <ele>136.5</ele>
        <time>2020-06-28T06:07:26Z</time>
      </trkpt>
      <trkpt lat="48.97474" lon="8.10151">
        <ele>136.5</ele>
        <time>2020-06-28T06:07:27Z</time>
      </trkpt>
      <trkpt lat="48.97474" lon="8.10162">
        <ele>136.5</ele>
        <time>2020-06-28T06:07:28Z</time>
      </trkpt>
      <trkpt lat="48.97472" lon="8.10172">
        <ele>136.5</ele>
        <time>2020-06-28T06:07:29Z</time>
      </trkpt>
      <trkpt lat="48.97473" lon="8.10183">
        <ele>136.5</ele>
        <time>2020-06-28T06:07:30Z</time>
      </trkpt>
      <trkpt lat="48.97473" lon="8.10195">
        <ele>136.4</ele>
        <time>2020-06-28T06:07:31Z</time>
      </trkpt>
      <trkpt lat="48.97473" lon="8.10207">
        <ele>136.4</ele>
        <time>2020-06-28T06:07:32Z</time>
      </trkpt>
      <trkpt lat="48.97472" lon="8.10219">
        <ele>136.4</ele>
        <time>2020-06-28T06:07:33Z</time>
      </trkpt>
      <trkpt lat="48.97472" lon="8.1023">
        <ele>136.4</ele>
        <time>2020-06-28T06:07:34Z</time>
      </trkpt>
      <trkpt lat="48.97471" lon="8.1024">
        <ele>136.4</ele>
        <time>2020-06-28T06:07:35Z</time>
      </trkpt>
      <trkpt lat="48.97471" lon="8.10252">
        <ele>136.3</ele>
        <time>2020-06-28T06:07:36Z</time>
      </trkpt>
      <trkpt lat="48.97472" lon="8.10262">
        <ele>136.3</ele>
        <time>2020-06-28T06:07:37Z</time>
      </trkpt>
      <trkpt lat="48.97472" lon="8.10273">
        <ele>136.3</ele>
        <time>2020-06-28T06:07:38Z</time>
      </trkpt>
      <trkpt lat="48.97472" lon="8.10284">
        <ele>136.2</ele>
        <time>2020-06-28T06:07:39Z</time>
      </trkpt>
      <trkpt lat="48.97472" lon="8.10295">
        <ele>136.2</ele>
        <time>2020-06-28T06:07:40Z</time>
      </trkpt>
      <trkpt lat="48.97472" lon="8.10306">
        <ele>136.2</ele>
        <time>2020-06-28T06:07:41Z</time>
      </trkpt>
      <trkpt lat="48.97472" lon="8.10316">
        <ele>136.2</ele>
        <time>2020-06-28T06:07:42Z</time>
      </trkpt>
      <trkpt lat="48.97472" lon="8.10327">
        <ele>136.2</ele>
        <time>2020-06-28T06:07:43Z</time>
      </trkpt>
      <trkpt lat="48.97473" lon="8.10337">
        <ele>136.2</ele>
        <time>2020-06-28T06:07:44Z</time>
      </trkpt>
      <trkpt lat="48.97473" lon="8.10348">
        <ele>136.2</ele>
        <time>2020-06-28T06:07:45Z</time>
      </trkpt>
      <trkpt lat="48.97473" lon="8.10358">
        <ele>136.2</ele>
        <time>2020-06-28T06:07:46Z</time>
      </trkpt>
      <trkpt lat="48.97473" lon="8.10368">
        <ele>136.1</ele>
        <time>2020-06-28T06:07:47Z</time>
      </trkpt>
      <trkpt lat="48.97473" lon="8.10378">
        <ele>136.1</ele>
        <time>2020-06-28T06:07:48Z</time>
      </trkpt>
      <trkpt lat="48.97473" lon="8.10388">
        <ele>136.1</ele>
        <time>2020-06-28T06:07:49Z</time>
      </trkpt>
      <trkpt lat="48.97473" lon="8.10398">
        <ele>136.1</ele>
        <time>2020-06-28T06:07:50Z</time>
      </trkpt>
      <trkpt lat="48.97473" lon="8.10407">
        <ele>136.1</ele>
        <time>2020-06-28T06:07:51Z</time>
      </trkpt>
      <trkpt lat="48.97472" lon="8.10415">
        <ele>136.1</ele>
        <time>2020-06-28T06:07:52Z</time>
      </trkpt>
      <trkpt lat="48.97469" lon="8.10423">
        <ele>136.1</ele>
        <time>2020-06-28T06:07:53Z</time>
      </trkpt>
      <trkpt lat="48.97467" lon="8.10431">
        <ele>136.1</ele>
        <time>2020-06-28T06:07:54Z</time>
      </trkpt>
      <trkpt lat="48.97466" lon="8.10439">
        <ele>136.1</ele>
        <time>2020-06-28T06:07:55Z</time>
      </trkpt>
      <trkpt lat="48.97467" lon="8.10446">
        <ele>136</ele>
        <time>2020-06-28T06:07:56Z</time>
      </trkpt>
      <trkpt lat="48.97468" lon="8.10454">
        <ele>136</ele>
        <time>2020-06-28T06:07:57Z</time>
      </trkpt>
      <trkpt lat="48.9747" lon="8.1046">
        <ele>136</ele>
        <time>2020-06-28T06:07:58Z</time>
      </trkpt>
      <trkpt lat="48.97473" lon="8.10466">
        <ele>136</ele>
        <time>2020-06-28T06:07:59Z</time>
      </trkpt>
      <trkpt lat="48.97474" lon="8.10474">
        <ele>136</ele>
        <time>2020-06-28T06:08:00Z</time>
      </trkpt>
      <trkpt lat="48.97474" lon="8.10482">
        <ele>136</ele>
        <time>2020-06-28T06:08:01Z</time>
      </trkpt>
      <trkpt lat="48.97473" lon="8.10491">
        <ele>136</ele>
        <time>2020-06-28T06:08:02Z</time>
      </trkpt>
      <trkpt lat="48.97473" lon="8.10499">
        <ele>136</ele>
        <time>2020-06-28T06:08:03Z</time>
      </trkpt>
      <trkpt lat="48.97474" lon="8.10507">
        <ele>136</ele>
        <time>2020-06-28T06:08:04Z</time>
      </trkpt>
      <trkpt lat="48.97474" lon="8.10516">
        <ele>136</ele>
        <time>2020-06-28T06:08:05Z</time>
      </trkpt>
      <trkpt lat="48.97474" lon="8.10524">
        <ele>136</ele>
        <time>2020-06-28T06:08:06Z</time>
      </trkpt>
      <trkpt lat="48.97473" lon="8.10532">
        <ele>136</ele>
        <time>2020-06-28T06:08:07Z</time>
      </trkpt>
      <trkpt lat="48.97473" lon="8.10541">
        <ele>136.1</ele>
        <time>2020-06-28T06:08:08Z</time>
      </trkpt>
      <trkpt lat="48.97474" lon="8.1055">
        <ele>136.1</ele>
        <time>2020-06-28T06:08:09Z</time>
      </trkpt>
      <trkpt lat="48.97475" lon="8.10559">
        <ele>136.2</ele>
        <time>2020-06-28T06:08:10Z</time>
      </trkpt>
      <trkpt lat="48.97475" lon="8.10568">
        <ele>136.3</ele>
        <time>2020-06-28T06:08:11Z</time>
      </trkpt>
      <trkpt lat="48.97474" lon="8.10577">
        <ele>136.3</ele>
        <time>2020-06-28T06:08:12Z</time>
      </trkpt>
      <trkpt lat="48.97472" lon="8.10584">
        <ele>136.4</ele>
        <time>2020-06-28T06:08:13Z</time>
      </trkpt>
      <trkpt lat="48.97468" lon="8.10592">
        <ele>136.4</ele>
        <time>2020-06-28T06:08:14Z</time>
      </trkpt>
      <trkpt lat="48.97467" lon="8.106">
        <ele>136.4</ele>
        <time>2020-06-28T06:08:15Z</time>
      </trkpt>
      <trkpt lat="48.97466" lon="8.10609">
        <ele>136.5</ele>
        <time>2020-06-28T06:08:16Z</time>
      </trkpt>
      <trkpt lat="48.97465" lon="8.10618">
        <ele>136.5</ele>
        <time>2020-06-28T06:08:17Z</time>
      </trkpt>
      <trkpt lat="48.97465" lon="8.10626">
        <ele>136.5</ele>
        <time>2020-06-28T06:08:18Z</time>
      </trkpt>
      <trkpt lat="48.97465" lon="8.10635">
        <ele>136.5</ele>
        <time>2020-06-28T06:08:19Z</time>
      </trkpt>
      <trkpt lat="48.97465" lon="8.10645">
        <ele>136.6</ele>
        <time>2020-06-28T06:08:20Z</time>
      </trkpt>
      <trkpt lat="48.97465" lon="8.10654">
        <ele>136.5</ele>
        <time>2020-06-28T06:08:21Z</time>
      </trkpt>
      <trkpt lat="48.97465" lon="8.10663">
        <ele>136.5</ele>
        <time>2020-06-28T06:08:22Z</time>
      </trkpt>
      <trkpt lat="48.97466" lon="8.10673">
        <ele>136.5</ele>
        <time>2020-06-28T06:08:23Z</time>
      </trkpt>
      <trkpt lat="48.97466" lon="8.10683">
        <ele>136.5</ele>
        <time>2020-06-28T06:08:24Z</time>
      </trkpt>
      <trkpt lat="48.97466" lon="8.10693">
        <ele>136.5</ele>
        <time>2020-06-28T06:08:25Z</time>
      </trkpt>
      <trkpt lat="48.97466" lon="8.10703">
        <ele>136.5</ele>
        <time>2020-06-28T06:08:26Z</time>
      </trkpt>
      <trkpt lat="48.97465" lon="8.10713">
        <ele>136.5</ele>
        <time>2020-06-28T06:08:27Z</time>
      </trkpt>
      <trkpt lat="48.97465" lon="8.10723">
        <ele>136.5</ele>
        <time>2020-06-28T06:08:28Z</time>
      </trkpt>
      <trkpt lat="48.97465" lon="8.10733">
        <ele>136.5</ele>
        <time>2020-06-28T06:08:29Z</time>
      </trkpt>
      <trkpt lat="48.97465" lon="8.10743">
        <ele>136.5</ele>
        <time>2020-06-28T06:08:30Z</time>
      </trkpt>
      <trkpt lat="48.97466" lon="8.10754">
        <ele>136.5</ele>
        <time>2020-06-28T06:08:31Z</time>
      </trkpt>
      <trkpt lat="48.97466" lon="8.10764">
        <ele>136.5</ele>
        <time>2020-06-28T06:08:32Z</time>
      </trkpt>
      <trkpt lat="48.97466" lon="8.10774">
        <ele>136.6</ele>
        <time>2020-06-28T06:08:33Z</time>
      </trkpt>
      <trkpt lat="48.97466" lon="8.10785">
        <ele>136.6</ele>
        <time>2020-06-28T06:08:34Z</time>
      </trkpt>
      <trkpt lat="48.97466" lon="8.10795">
        <ele>136.5</ele>
        <time>2020-06-28T06:08:35Z</time>
      </trkpt>
      <trkpt lat="48.97466" lon="8.10806">
        <ele>136.5</ele>
        <time>2020-06-28T06:08:36Z</time>
      </trkpt>
      <trkpt lat="48.97467" lon="8.10816">
        <ele>136.5</ele>
        <time>2020-06-28T06:08:37Z</time>
      </trkpt>
      <trkpt lat="48.97467" lon="8.10826">
        <ele>136.5</ele>
        <time>2020-06-28T06:08:38Z</time>
      </trkpt>
      <trkpt lat="48.97467" lon="8.10836">
        <ele>136.5</ele>
        <time>2020-06-28T06:08:39Z</time>
      </trkpt>
      <trkpt lat="48.97467" lon="8.10847">
        <ele>136.5</ele>
        <time>2020-06-28T06:08:40Z</time>
      </trkpt>
      <trkpt lat="48.97467" lon="8.10857">
        <ele>136.5</ele>
        <time>2020-06-28T06:08:41Z</time>
      </trkpt>
      <trkpt lat="48.97467" lon="8.10867">
        <ele>136.5</ele>
        <time>2020-06-28T06:08:42Z</time>
      </trkpt>
      <trkpt lat="48.97468" lon="8.10878">
        <ele>136.5</ele>
        <time>2020-06-28T06:08:43Z</time>
      </trkpt>
      <trkpt lat="48.97468" lon="8.10889">
        <ele>136.5</ele>
        <time>2020-06-28T06:08:44Z</time>
      </trkpt>
      <trkpt lat="48.97468" lon="8.10899">
        <ele>136.5</ele>
        <time>2020-06-28T06:08:45Z</time>
      </trkpt>
      <trkpt lat="48.97468" lon="8.10909">
        <ele>136.5</ele>
        <time>2020-06-28T06:08:46Z</time>
      </trkpt>
      <trkpt lat="48.97468" lon="8.10919">
        <ele>136.5</ele>
        <time>2020-06-28T06:08:47Z</time>
      </trkpt>
      <trkpt lat="48.97468" lon="8.1093">
        <ele>136.5</ele>
        <time>2020-06-28T06:08:48Z</time>
      </trkpt>
      <trkpt lat="48.97469" lon="8.1094">
        <ele>136.5</ele>
        <time>2020-06-28T06:08:49Z</time>
      </trkpt>
      <trkpt lat="48.97469" lon="8.10951">
        <ele>136.5</ele>
        <time>2020-06-28T06:08:50Z</time>
      </trkpt>
      <trkpt lat="48.97469" lon="8.10963">
        <ele>136.5</ele>
        <time>2020-06-28T06:08:51Z</time>
      </trkpt>
      <trkpt lat="48.9747" lon="8.10975">
        <ele>136.5</ele>
        <time>2020-06-28T06:08:52Z</time>
      </trkpt>
      <trkpt lat="48.9747" lon="8.10986">
        <ele>136.5</ele>
        <time>2020-06-28T06:08:53Z</time>
      </trkpt>
      <trkpt lat="48.97469" lon="8.10996">
        <ele>136.5</ele>
        <time>2020-06-28T06:08:54Z</time>
      </trkpt>
      <trkpt lat="48.97468" lon="8.11008">
        <ele>136.5</ele>
        <time>2020-06-28T06:08:55Z</time>
      </trkpt>
      <trkpt lat="48.97468" lon="8.11019">
        <ele>136.6</ele>
        <time>2020-06-28T06:08:56Z</time>
      </trkpt>
      <trkpt lat="48.97469" lon="8.1103">
        <ele>136.6</ele>
        <time>2020-06-28T06:08:57Z</time>
      </trkpt>
      <trkpt lat="48.97469" lon="8.11039">
        <ele>136.7</ele>
        <time>2020-06-28T06:08:58Z</time>
      </trkpt>
      <trkpt lat="48.9747" lon="8.11049">
        <ele>136.8</ele>
        <time>2020-06-28T06:08:59Z</time>
      </trkpt>
      <trkpt lat="48.97471" lon="8.11059">
        <ele>136.9</ele>
        <time>2020-06-28T06:09:00Z</time>
      </trkpt>
      <trkpt lat="48.97471" lon="8.11069">
        <ele>136.8</ele>
        <time>2020-06-28T06:09:01Z</time>
      </trkpt>
      <trkpt lat="48.97471" lon="8.11078">
        <ele>136.7</ele>
        <time>2020-06-28T06:09:02Z</time>
      </trkpt>
      <trkpt lat="48.97472" lon="8.11088">
        <ele>136.6</ele>
        <time>2020-06-28T06:09:03Z</time>
      </trkpt>
      <trkpt lat="48.97473" lon="8.11098">
        <ele>136.6</ele>
        <time>2020-06-28T06:09:04Z</time>
      </trkpt>
      <trkpt lat="48.97472" lon="8.11108">
        <ele>136.6</ele>
        <time>2020-06-28T06:09:05Z</time>
      </trkpt>
      <trkpt lat="48.97472" lon="8.11119">
        <ele>136.6</ele>
        <time>2020-06-28T06:09:06Z</time>
      </trkpt>
      <trkpt lat="48.97473" lon="8.11129">
        <ele>136.6</ele>
        <time>2020-06-28T06:09:07Z</time>
      </trkpt>
      <trkpt lat="48.97472" lon="8.11139">
        <ele>136.6</ele>
        <time>2020-06-28T06:09:08Z</time>
      </trkpt>
      <trkpt lat="48.97472" lon="8.11149">
        <ele>136.6</ele>
        <time>2020-06-28T06:09:09Z</time>
      </trkpt>
      <trkpt lat="48.97472" lon="8.11159">
        <ele>136.6</ele>
        <time>2020-06-28T06:09:10Z</time>
      </trkpt>
      <trkpt lat="48.97472" lon="8.1117">
        <ele>136.6</ele>
        <time>2020-06-28T06:09:11Z</time>
      </trkpt>
      <trkpt lat="48.97472" lon="8.1118">
        <ele>136.6</ele>
        <time>2020-06-28T06:09:12Z</time>
      </trkpt>
      <trkpt lat="48.97473" lon="8.1119">
        <ele>136.6</ele>
        <time>2020-06-28T06:09:13Z</time>
      </trkpt>
      <trkpt lat="48.97473" lon="8.112">
        <ele>136.6</ele>
        <time>2020-06-28T06:09:14Z</time>
      </trkpt>
      <trkpt lat="48.97473" lon="8.1121">
        <ele>136.6</ele>
        <time>2020-06-28T06:09:15Z</time>
      </trkpt>
      <trkpt lat="48.97473" lon="8.11221">
        <ele>136.6</ele>
        <time>2020-06-28T06:09:16Z</time>
      </trkpt>
      <trkpt lat="48.97473" lon="8.11232">
        <ele>136.6</ele>
        <time>2020-06-28T06:09:17Z</time>
      </trkpt>
      <trkpt lat="48.97473" lon="8.11242">
        <ele>136.6</ele>
        <time>2020-06-28T06:09:18Z</time>
      </trkpt>
      <trkpt lat="48.97473" lon="8.11253">
        <ele>136.6</ele>
        <time>2020-06-28T06:09:19Z</time>
      </trkpt>
      <trkpt lat="48.97474" lon="8.11263">
        <ele>136.6</ele>
        <time>2020-06-28T06:09:20Z</time>
      </trkpt>
      <trkpt lat="48.97474" lon="8.11274">
        <ele>136.6</ele>
        <time>2020-06-28T06:09:21Z</time>
      </trkpt>
      <trkpt lat="48.97473" lon="8.11285">
        <ele>136.6</ele>
        <time>2020-06-28T06:09:22Z</time>
      </trkpt>
      <trkpt lat="48.97473" lon="8.11296">
        <ele>136.6</ele>
        <time>2020-06-28T06:09:23Z</time>
      </trkpt>
      <trkpt lat="48.97472" lon="8.11306">
        <ele>136.7</ele>
        <time>2020-06-28T06:09:24Z</time>
      </trkpt>
      <trkpt lat="48.9747" lon="8.11316">
        <ele>136.7</ele>
        <time>2020-06-28T06:09:25Z</time>
      </trkpt>
      <trkpt lat="48.9747" lon="8.11327">
        <ele>136.7</ele>
        <time>2020-06-28T06:09:26Z</time>
      </trkpt>
      <trkpt lat="48.97469" lon="8.11337">
        <ele>136.7</ele>
        <time>2020-06-28T06:09:27Z</time>
      </trkpt>
      <trkpt lat="48.97468" lon="8.11348">
        <ele>136.7</ele>
        <time>2020-06-28T06:09:28Z</time>
      </trkpt>
      <trkpt lat="48.97468" lon="8.11358">
        <ele>136.7</ele>
        <time>2020-06-28T06:09:29Z</time>
      </trkpt>
      <trkpt lat="48.97468" lon="8.11369">
        <ele>136.7</ele>
        <time>2020-06-28T06:09:30Z</time>
      </trkpt>
      <trkpt lat="48.97468" lon="8.11379">
        <ele>136.7</ele>
        <time>2020-06-28T06:09:31Z</time>
      </trkpt>
      <trkpt lat="48.97467" lon="8.11388">
        <ele>136.7</ele>
        <time>2020-06-28T06:09:32Z</time>
      </trkpt>
      <trkpt lat="48.97466" lon="8.11398">
        <ele>136.7</ele>
        <time>2020-06-28T06:09:33Z</time>
      </trkpt>
      <trkpt lat="48.97466" lon="8.11406">
        <ele>136.7</ele>
        <time>2020-06-28T06:09:34Z</time>
      </trkpt>
      <trkpt lat="48.97466" lon="8.11415">
        <ele>136.7</ele>
        <time>2020-06-28T06:09:35Z</time>
      </trkpt>
      <trkpt lat="48.97466" lon="8.11423">
        <ele>136.8</ele>
        <time>2020-06-28T06:09:36Z</time>
      </trkpt>
      <trkpt lat="48.97465" lon="8.11433">
        <ele>136.8</ele>
        <time>2020-06-28T06:09:37Z</time>
      </trkpt>
      <trkpt lat="48.97463" lon="8.11442">
        <ele>136.8</ele>
        <time>2020-06-28T06:09:38Z</time>
      </trkpt>
      <trkpt lat="48.97461" lon="8.11451">
        <ele>136.8</ele>
        <time>2020-06-28T06:09:39Z</time>
      </trkpt>
      <trkpt lat="48.9746" lon="8.1146">
        <ele>136.7</ele>
        <time>2020-06-28T06:09:40Z</time>
      </trkpt>
      <trkpt lat="48.97459" lon="8.11469">
        <ele>136.7</ele>
        <time>2020-06-28T06:09:41Z</time>
      </trkpt>
      <trkpt lat="48.97459" lon="8.11479">
        <ele>136.7</ele>
        <time>2020-06-28T06:09:42Z</time>
      </trkpt>
      <trkpt lat="48.97458" lon="8.11488">
        <ele>136.7</ele>
        <time>2020-06-28T06:09:43Z</time>
      </trkpt>
      <trkpt lat="48.97458" lon="8.11498">
        <ele>136.6</ele>
        <time>2020-06-28T06:09:44Z</time>
      </trkpt>
      <trkpt lat="48.97457" lon="8.11508">
        <ele>136.6</ele>
        <time>2020-06-28T06:09:45Z</time>
      </trkpt>
      <trkpt lat="48.97457" lon="8.11519">
        <ele>136.6</ele>
        <time>2020-06-28T06:09:46Z</time>
      </trkpt>
      <trkpt lat="48.97456" lon="8.11529">
        <ele>136.5</ele>
        <time>2020-06-28T06:09:47Z</time>
      </trkpt>
      <trkpt lat="48.97456" lon="8.11539">
        <ele>136.5</ele>
        <time>2020-06-28T06:09:48Z</time>
      </trkpt>
      <trkpt lat="48.97455" lon="8.1155">
        <ele>136.5</ele>
        <time>2020-06-28T06:09:49Z</time>
      </trkpt>
      <trkpt lat="48.97454" lon="8.1156">
        <ele>136.5</ele>
        <time>2020-06-28T06:09:50Z</time>
      </trkpt>
      <trkpt lat="48.97453" lon="8.11571">
        <ele>136.5</ele>
        <time>2020-06-28T06:09:51Z</time>
      </trkpt>
      <trkpt lat="48.97453" lon="8.11581">
        <ele>136.4</ele>
        <time>2020-06-28T06:09:52Z</time>
      </trkpt>
      <trkpt lat="48.97452" lon="8.11592">
        <ele>136.4</ele>
        <time>2020-06-28T06:09:53Z</time>
      </trkpt>
      <trkpt lat="48.97451" lon="8.11603">
        <ele>136.4</ele>
        <time>2020-06-28T06:09:54Z</time>
      </trkpt>
      <trkpt lat="48.9745" lon="8.11614">
        <ele>136.4</ele>
        <time>2020-06-28T06:09:55Z</time>
      </trkpt>
      <trkpt lat="48.9745" lon="8.11624">
        <ele>136.4</ele>
        <time>2020-06-28T06:09:56Z</time>
      </trkpt>
      <trkpt lat="48.97449" lon="8.11635">
        <ele>136.4</ele>
        <time>2020-06-28T06:09:57Z</time>
      </trkpt>
      <trkpt lat="48.97448" lon="8.11644">
        <ele>136.4</ele>
        <time>2020-06-28T06:09:58Z</time>
      </trkpt>
      <trkpt lat="48.97448" lon="8.11654">
        <ele>136.4</ele>
        <time>2020-06-28T06:09:59Z</time>
      </trkpt>
      <trkpt lat="48.97447" lon="8.11664">
        <ele>136.3</ele>
        <time>2020-06-28T06:10:00Z</time>
      </trkpt>
      <trkpt lat="48.97446" lon="8.11674">
        <ele>136.3</ele>
        <time>2020-06-28T06:10:01Z</time>
      </trkpt>
      <trkpt lat="48.97445" lon="8.11684">
        <ele>136.3</ele>
        <time>2020-06-28T06:10:02Z</time>
      </trkpt>
      <trkpt lat="48.97444" lon="8.11694">
        <ele>136.3</ele>
        <time>2020-06-28T06:10:03Z</time>
      </trkpt>
      <trkpt lat="48.97444" lon="8.11705">
        <ele>136.3</ele>
        <time>2020-06-28T06:10:04Z</time>
      </trkpt>
      <trkpt lat="48.97443" lon="8.11714">
        <ele>136.3</ele>
        <time>2020-06-28T06:10:05Z</time>
      </trkpt>
      <trkpt lat="48.97442" lon="8.11724">
        <ele>136.3</ele>
        <time>2020-06-28T06:10:06Z</time>
      </trkpt>
      <trkpt lat="48.97441" lon="8.11734">
        <ele>136.3</ele>
        <time>2020-06-28T06:10:07Z</time>
      </trkpt>
      <trkpt lat="48.9744" lon="8.11744">
        <ele>136.3</ele>
        <time>2020-06-28T06:10:08Z</time>
      </trkpt>
      <trkpt lat="48.9744" lon="8.11755">
        <ele>136.3</ele>
        <time>2020-06-28T06:10:09Z</time>
      </trkpt>
      <trkpt lat="48.9744" lon="8.11765">
        <ele>136.3</ele>
        <time>2020-06-28T06:10:10Z</time>
      </trkpt>
      <trkpt lat="48.97438" lon="8.11775">
        <ele>136.3</ele>
        <time>2020-06-28T06:10:11Z</time>
      </trkpt>
      <trkpt lat="48.97438" lon="8.11786">
        <ele>136.3</ele>
        <time>2020-06-28T06:10:12Z</time>
      </trkpt>
      <trkpt lat="48.97438" lon="8.11796">
        <ele>136.3</ele>
        <time>2020-06-28T06:10:13Z</time>
      </trkpt>
      <trkpt lat="48.97437" lon="8.11807">
        <ele>136.3</ele>
        <time>2020-06-28T06:10:14Z</time>
      </trkpt>
      <trkpt lat="48.97436" lon="8.11817">
        <ele>136.3</ele>
        <time>2020-06-28T06:10:15Z</time>
      </trkpt>
      <trkpt lat="48.97435" lon="8.11827">
        <ele>136.3</ele>
        <time>2020-06-28T06:10:16Z</time>
      </trkpt>
      <trkpt lat="48.97434" lon="8.11837">
        <ele>136.3</ele>
        <time>2020-06-28T06:10:17Z</time>
      </trkpt>
      <trkpt lat="48.97434" lon="8.11847">
        <ele>136.3</ele>
        <time>2020-06-28T06:10:18Z</time>
      </trkpt>
      <trkpt lat="48.97433" lon="8.11857">
        <ele>136.3</ele>
        <time>2020-06-28T06:10:19Z</time>
      </trkpt>
      <trkpt lat="48.97432" lon="8.11867">
        <ele>136.3</ele>
        <time>2020-06-28T06:10:20Z</time>
      </trkpt>
      <trkpt lat="48.97432" lon="8.11879">
        <ele>136.3</ele>
        <time>2020-06-28T06:10:21Z</time>
      </trkpt>
      <trkpt lat="48.97431" lon="8.1189">
        <ele>136.3</ele>
        <time>2020-06-28T06:10:22Z</time>
      </trkpt>
      <trkpt lat="48.97431" lon="8.119">
        <ele>136.3</ele>
        <time>2020-06-28T06:10:23Z</time>
      </trkpt>
      <trkpt lat="48.97429" lon="8.11912">
        <ele>136.3</ele>
        <time>2020-06-28T06:10:24Z</time>
      </trkpt>
      <trkpt lat="48.97428" lon="8.11923">
        <ele>136.2</ele>
        <time>2020-06-28T06:10:25Z</time>
      </trkpt>
      <trkpt lat="48.97428" lon="8.11934">
        <ele>136.2</ele>
        <time>2020-06-28T06:10:26Z</time>
      </trkpt>
      <trkpt lat="48.97426" lon="8.11945">
        <ele>136.2</ele>
        <time>2020-06-28T06:10:27Z</time>
      </trkpt>
      <trkpt lat="48.97425" lon="8.11956">
        <ele>136.2</ele>
        <time>2020-06-28T06:10:28Z</time>
      </trkpt>
      <trkpt lat="48.97424" lon="8.11967">
        <ele>136.2</ele>
        <time>2020-06-28T06:10:29Z</time>
      </trkpt>
      <trkpt lat="48.97422" lon="8.11977">
        <ele>136.1</ele>
        <time>2020-06-28T06:10:30Z</time>
      </trkpt>
      <trkpt lat="48.97422" lon="8.11989">
        <ele>136.1</ele>
        <time>2020-06-28T06:10:31Z</time>
      </trkpt>
      <trkpt lat="48.97421" lon="8.12">
        <ele>136</ele>
        <time>2020-06-28T06:10:32Z</time>
      </trkpt>
      <trkpt lat="48.97421" lon="8.12011">
        <ele>136</ele>
        <time>2020-06-28T06:10:33Z</time>
      </trkpt>
      <trkpt lat="48.9742" lon="8.12022">
        <ele>136</ele>
        <time>2020-06-28T06:10:34Z</time>
      </trkpt>
      <trkpt lat="48.9742" lon="8.12033">
        <ele>136</ele>
        <time>2020-06-28T06:10:35Z</time>
      </trkpt>
      <trkpt lat="48.97419" lon="8.12043">
        <ele>136</ele>
        <time>2020-06-28T06:10:36Z</time>
      </trkpt>
      <trkpt lat="48.97418" lon="8.12054">
        <ele>136</ele>
        <time>2020-06-28T06:10:37Z</time>
      </trkpt>
      <trkpt lat="48.97417" lon="8.12065">
        <ele>136</ele>
        <time>2020-06-28T06:10:38Z</time>
      </trkpt>
      <trkpt lat="48.97417" lon="8.12076">
        <ele>136</ele>
        <time>2020-06-28T06:10:39Z</time>
      </trkpt>
      <trkpt lat="48.97417" lon="8.12087">
        <ele>136</ele>
        <time>2020-06-28T06:10:40Z</time>
      </trkpt>
      <trkpt lat="48.97416" lon="8.12097">
        <ele>136</ele>
        <time>2020-06-28T06:10:41Z</time>
      </trkpt>
      <trkpt lat="48.97416" lon="8.12107">
        <ele>136</ele>
        <time>2020-06-28T06:10:42Z</time>
      </trkpt>
      <trkpt lat="48.97416" lon="8.12118">
        <ele>136</ele>
        <time>2020-06-28T06:10:43Z</time>
      </trkpt>
      <trkpt lat="48.97415" lon="8.12129">
        <ele>136</ele>
        <time>2020-06-28T06:10:44Z</time>
      </trkpt>
      <trkpt lat="48.97415" lon="8.12139">
        <ele>135.9</ele>
        <time>2020-06-28T06:10:45Z</time>
      </trkpt>
      <trkpt lat="48.97415" lon="8.1215">
        <ele>135.9</ele>
        <time>2020-06-28T06:10:46Z</time>
      </trkpt>
      <trkpt lat="48.97415" lon="8.12161">
        <ele>135.8</ele>
        <time>2020-06-28T06:10:47Z</time>
      </trkpt>
      <trkpt lat="48.97416" lon="8.12172">
        <ele>135.7</ele>
        <time>2020-06-28T06:10:48Z</time>
      </trkpt>
      <trkpt lat="48.97416" lon="8.12183">
        <ele>135.7</ele>
        <time>2020-06-28T06:10:49Z</time>
      </trkpt>
      <trkpt lat="48.97417" lon="8.12194">
        <ele>135.7</ele>
        <time>2020-06-28T06:10:50Z</time>
      </trkpt>
      <trkpt lat="48.97417" lon="8.12205">
        <ele>135.7</ele>
        <time>2020-06-28T06:10:51Z</time>
      </trkpt>
      <trkpt lat="48.97418" lon="8.12216">
        <ele>135.7</ele>
        <time>2020-06-28T06:10:52Z</time>
      </trkpt>
      <trkpt lat="48.97418" lon="8.12228">
        <ele>135.7</ele>
        <time>2020-06-28T06:10:53Z</time>
      </trkpt>
      <trkpt lat="48.97419" lon="8.12239">
        <ele>135.8</ele>
        <time>2020-06-28T06:10:54Z</time>
      </trkpt>
      <trkpt lat="48.97421" lon="8.12249">
        <ele>135.7</ele>
        <time>2020-06-28T06:10:55Z</time>
      </trkpt>
      <trkpt lat="48.97423" lon="8.1226">
        <ele>135.7</ele>
        <time>2020-06-28T06:10:56Z</time>
      </trkpt>
      <trkpt lat="48.97424" lon="8.1227">
        <ele>135.7</ele>
        <time>2020-06-28T06:10:57Z</time>
      </trkpt>
      <trkpt lat="48.97425" lon="8.12281">
        <ele>135.7</ele>
        <time>2020-06-28T06:10:58Z</time>
      </trkpt>
      <trkpt lat="48.97427" lon="8.12292">
        <ele>135.6</ele>
        <time>2020-06-28T06:10:59Z</time>
      </trkpt>
      <trkpt lat="48.97429" lon="8.12302">
        <ele>135.6</ele>
        <time>2020-06-28T06:11:00Z</time>
      </trkpt>
      <trkpt lat="48.97431" lon="8.12313">
        <ele>135.5</ele>
        <time>2020-06-28T06:11:01Z</time>
      </trkpt>
      <trkpt lat="48.97432" lon="8.12323">
        <ele>135.5</ele>
        <time>2020-06-28T06:11:02Z</time>
      </trkpt>
      <trkpt lat="48.97434" lon="8.12334">
        <ele>135.4</ele>
        <time>2020-06-28T06:11:03Z</time>
      </trkpt>
      <trkpt lat="48.97435" lon="8.12345">
        <ele>135.4</ele>
        <time>2020-06-28T06:11:04Z</time>
      </trkpt>
      <trkpt lat="48.97436" lon="8.12356">
        <ele>135.3</ele>
        <time>2020-06-28T06:11:05Z</time>
      </trkpt>
      <trkpt lat="48.97437" lon="8.12367">
        <ele>135.3</ele>
        <time>2020-06-28T06:11:06Z</time>
      </trkpt>
      <trkpt lat="48.97439" lon="8.12377">
        <ele>135.3</ele>
        <time>2020-06-28T06:11:07Z</time>
      </trkpt>
      <trkpt lat="48.9744" lon="8.12388">
        <ele>135.2</ele>
        <time>2020-06-28T06:11:08Z</time>
      </trkpt>
      <trkpt lat="48.97441" lon="8.12398">
        <ele>135.2</ele>
        <time>2020-06-28T06:11:09Z</time>
      </trkpt>
      <trkpt lat="48.97443" lon="8.12408">
        <ele>135.2</ele>
        <time>2020-06-28T06:11:10Z</time>
      </trkpt>
      <trkpt lat="48.97444" lon="8.12418">
        <ele>135.1</ele>
        <time>2020-06-28T06:11:11Z</time>
      </trkpt>
      <trkpt lat="48.97445" lon="8.12427">
        <ele>135.1</ele>
        <time>2020-06-28T06:11:12Z</time>
      </trkpt>
      <trkpt lat="48.97446" lon="8.12437">
        <ele>135.1</ele>
        <time>2020-06-28T06:11:13Z</time>
      </trkpt>
      <trkpt lat="48.97447" lon="8.12446">
        <ele>135.1</ele>
        <time>2020-06-28T06:11:14Z</time>
      </trkpt>
      <trkpt lat="48.97448" lon="8.12456">
        <ele>135.1</ele>
        <time>2020-06-28T06:11:15Z</time>
      </trkpt>
      <trkpt lat="48.97449" lon="8.12466">
        <ele>135</ele>
        <time>2020-06-28T06:11:16Z</time>
      </trkpt>
      <trkpt lat="48.9745" lon="8.12476">
        <ele>135</ele>
        <time>2020-06-28T06:11:17Z</time>
      </trkpt>
      <trkpt lat="48.97451" lon="8.12487">
        <ele>135</ele>
        <time>2020-06-28T06:11:18Z</time>
      </trkpt>
      <trkpt lat="48.97452" lon="8.12496">
        <ele>135</ele>
        <time>2020-06-28T06:11:19Z</time>
      </trkpt>
      <trkpt lat="48.97454" lon="8.12506">
        <ele>135</ele>
        <time>2020-06-28T06:11:20Z</time>
      </trkpt>
      <trkpt lat="48.97454" lon="8.12516">
        <ele>134.9</ele>
        <time>2020-06-28T06:11:21Z</time>
      </trkpt>
      <trkpt lat="48.97456" lon="8.12526">
        <ele>134.9</ele>
        <time>2020-06-28T06:11:22Z</time>
      </trkpt>
      <trkpt lat="48.97457" lon="8.12537">
        <ele>134.9</ele>
        <time>2020-06-28T06:11:23Z</time>
      </trkpt>
      <trkpt lat="48.97458" lon="8.12547">
        <ele>134.9</ele>
        <time>2020-06-28T06:11:24Z</time>
      </trkpt>
      <trkpt lat="48.9746" lon="8.12557">
        <ele>134.9</ele>
        <time>2020-06-28T06:11:25Z</time>
      </trkpt>
      <trkpt lat="48.97461" lon="8.12567">
        <ele>134.9</ele>
        <time>2020-06-28T06:11:26Z</time>
      </trkpt>
      <trkpt lat="48.97462" lon="8.12577">
        <ele>134.9</ele>
        <time>2020-06-28T06:11:27Z</time>
      </trkpt>
      <trkpt lat="48.97463" lon="8.12587">
        <ele>134.9</ele>
        <time>2020-06-28T06:11:28Z</time>
      </trkpt>
      <trkpt lat="48.97464" lon="8.12597">
        <ele>134.9</ele>
        <time>2020-06-28T06:11:29Z</time>
      </trkpt>
      <trkpt lat="48.97464" lon="8.12606">
        <ele>135</ele>
        <time>2020-06-28T06:11:30Z</time>
      </trkpt>
      <trkpt lat="48.97465" lon="8.12614">
        <ele>135</ele>
        <time>2020-06-28T06:11:31Z</time>
      </trkpt>
      <trkpt lat="48.97466" lon="8.12623">
        <ele>135</ele>
        <time>2020-06-28T06:11:32Z</time>
      </trkpt>
      <trkpt lat="48.97467" lon="8.12631">
        <ele>134.9</ele>
        <time>2020-06-28T06:11:33Z</time>
      </trkpt>
      <trkpt lat="48.97468" lon="8.1264">
        <ele>134.9</ele>
        <time>2020-06-28T06:11:34Z</time>
      </trkpt>
      <trkpt lat="48.97469" lon="8.12649">
        <ele>134.9</ele>
        <time>2020-06-28T06:11:35Z</time>
      </trkpt>
      <trkpt lat="48.9747" lon="8.12658">
        <ele>134.8</ele>
        <time>2020-06-28T06:11:36Z</time>
      </trkpt>
      <trkpt lat="48.97471" lon="8.12668">
        <ele>134.8</ele>
        <time>2020-06-28T06:11:37Z</time>
      </trkpt>
      <trkpt lat="48.97472" lon="8.12679">
        <ele>134.7</ele>
        <time>2020-06-28T06:11:38Z</time>
      </trkpt>
      <trkpt lat="48.97473" lon="8.1269">
        <ele>134.6</ele>
        <time>2020-06-28T06:11:39Z</time>
      </trkpt>
      <trkpt lat="48.97474" lon="8.127">
        <ele>134.6</ele>
        <time>2020-06-28T06:11:40Z</time>
      </trkpt>
      <trkpt lat="48.97475" lon="8.12711">
        <ele>134.5</ele>
        <time>2020-06-28T06:11:41Z</time>
      </trkpt>
      <trkpt lat="48.97476" lon="8.12721">
        <ele>134.5</ele>
        <time>2020-06-28T06:11:42Z</time>
      </trkpt>
      <trkpt lat="48.97478" lon="8.12732">
        <ele>134.4</ele>
        <time>2020-06-28T06:11:43Z</time>
      </trkpt>
      <trkpt lat="48.97478" lon="8.12742">
        <ele>134.4</ele>
        <time>2020-06-28T06:11:44Z</time>
      </trkpt>
      <trkpt lat="48.97479" lon="8.12753">
        <ele>134.4</ele>
        <time>2020-06-28T06:11:45Z</time>
      </trkpt>
      <trkpt lat="48.9748" lon="8.12763">
        <ele>134.4</ele>
        <time>2020-06-28T06:11:46Z</time>
      </trkpt>
      <trkpt lat="48.9748" lon="8.12774">
        <ele>134.4</ele>
        <time>2020-06-28T06:11:47Z</time>
      </trkpt>
      <trkpt lat="48.97481" lon="8.12784">
        <ele>134.4</ele>
        <time>2020-06-28T06:11:48Z</time>
      </trkpt>
      <trkpt lat="48.97483" lon="8.12793">
        <ele>134.4</ele>
        <time>2020-06-28T06:11:49Z</time>
      </trkpt>
      <trkpt lat="48.97484" lon="8.12803">
        <ele>134.4</ele>
        <time>2020-06-28T06:11:50Z</time>
      </trkpt>
      <trkpt lat="48.97485" lon="8.12811">
        <ele>134.4</ele>
        <time>2020-06-28T06:11:51Z</time>
      </trkpt>
      <trkpt lat="48.97487" lon="8.12821">
        <ele>134.4</ele>
        <time>2020-06-28T06:11:52Z</time>
      </trkpt>
      <trkpt lat="48.97489" lon="8.12832">
        <ele>134.4</ele>
        <time>2020-06-28T06:11:53Z</time>
      </trkpt>
      <trkpt lat="48.97491" lon="8.12842">
        <ele>134.3</ele>
        <time>2020-06-28T06:11:54Z</time>
      </trkpt>
      <trkpt lat="48.97493" lon="8.1285">
        <ele>134.3</ele>
        <time>2020-06-28T06:11:55Z</time>
      </trkpt>
      <trkpt lat="48.97495" lon="8.12861">
        <ele>134.2</ele>
        <time>2020-06-28T06:11:56Z</time>
      </trkpt>
      <trkpt lat="48.97496" lon="8.12872">
        <ele>134.2</ele>
        <time>2020-06-28T06:11:57Z</time>
      </trkpt>
      <trkpt lat="48.97497" lon="8.12882">
        <ele>134.2</ele>
        <time>2020-06-28T06:11:58Z</time>
      </trkpt>
      <trkpt lat="48.97498" lon="8.12891">
        <ele>134.2</ele>
        <time>2020-06-28T06:11:59Z</time>
      </trkpt>
      <trkpt lat="48.97498" lon="8.12899">
        <ele>134.2</ele>
        <time>2020-06-28T06:12:00Z</time>
      </trkpt>
      <trkpt lat="48.975" lon="8.12907">
        <ele>134.2</ele>
        <time>2020-06-28T06:12:01Z</time>
      </trkpt>
      <trkpt lat="48.975" lon="8.12914">
        <ele>134.2</ele>
        <time>2020-06-28T06:12:02Z</time>
      </trkpt>
      <trkpt lat="48.97501" lon="8.12922">
        <ele>134.2</ele>
        <time>2020-06-28T06:12:03Z</time>
      </trkpt>
      <trkpt lat="48.97503" lon="8.1293">
        <ele>134.2</ele>
        <time>2020-06-28T06:12:04Z</time>
      </trkpt>
      <trkpt lat="48.97504" lon="8.1294">
        <ele>134.2</ele>
        <time>2020-06-28T06:12:05Z</time>
      </trkpt>
      <trkpt lat="48.97505" lon="8.12952">
        <ele>134.2</ele>
        <time>2020-06-28T06:12:06Z</time>
      </trkpt>
      <trkpt lat="48.97507" lon="8.12961">
        <ele>134.2</ele>
        <time>2020-06-28T06:12:07Z</time>
      </trkpt>
      <trkpt lat="48.9751" lon="8.12969">
        <ele>134.2</ele>
        <time>2020-06-28T06:12:08Z</time>
      </trkpt>
      <trkpt lat="48.97514" lon="8.12981">
        <ele>134.2</ele>
        <time>2020-06-28T06:12:09Z</time>
      </trkpt>
      <trkpt lat="48.97517" lon="8.12989">
        <ele>134.2</ele>
        <time>2020-06-28T06:12:10Z</time>
      </trkpt>
      <trkpt lat="48.97521" lon="8.12999">
        <ele>134.3</ele>
        <time>2020-06-28T06:12:11Z</time>
      </trkpt>
      <trkpt lat="48.97524" lon="8.13007">
        <ele>134.3</ele>
        <time>2020-06-28T06:12:12Z</time>
      </trkpt>
      <trkpt lat="48.97526" lon="8.13015">
        <ele>134.3</ele>
        <time>2020-06-28T06:12:13Z</time>
      </trkpt>
      <trkpt lat="48.97528" lon="8.13023">
        <ele>134.4</ele>
        <time>2020-06-28T06:12:14Z</time>
      </trkpt>
      <trkpt lat="48.9753" lon="8.1303">
        <ele>134.4</ele>
        <time>2020-06-28T06:12:15Z</time>
      </trkpt>
      <trkpt lat="48.97533" lon="8.1304">
        <ele>134.4</ele>
        <time>2020-06-28T06:12:16Z</time>
      </trkpt>
      <trkpt lat="48.97536" lon="8.13048">
        <ele>134.3</ele>
        <time>2020-06-28T06:12:17Z</time>
      </trkpt>
      <trkpt lat="48.97539" lon="8.13048">
        <ele>134.2</ele>
        <time>2020-06-28T06:12:18Z</time>
      </trkpt>
      <trkpt lat="48.97545" lon="8.13044">
        <ele>134.1</ele>
        <time>2020-06-28T06:12:19Z</time>
      </trkpt>
      <trkpt lat="48.9755" lon="8.13039">
        <ele>134</ele>
        <time>2020-06-28T06:12:20Z</time>
      </trkpt>
      <trkpt lat="48.97557" lon="8.13038">
        <ele>133.9</ele>
        <time>2020-06-28T06:12:21Z</time>
      </trkpt>
      <trkpt lat="48.97563" lon="8.13037">
        <ele>133.7</ele>
        <time>2020-06-28T06:12:22Z</time>
      </trkpt>
      <trkpt lat="48.97569" lon="8.13036">
        <ele>133.6</ele>
        <time>2020-06-28T06:12:23Z</time>
      </trkpt>
      <trkpt lat="48.97575" lon="8.13036">
        <ele>133.5</ele>
        <time>2020-06-28T06:12:24Z</time>
      </trkpt>
      <trkpt lat="48.97582" lon="8.13035">
        <ele>133.4</ele>
        <time>2020-06-28T06:12:25Z</time>
      </trkpt>
      <trkpt lat="48.97589" lon="8.13036">
        <ele>133.2</ele>
        <time>2020-06-28T06:12:26Z</time>
      </trkpt>
      <trkpt lat="48.97595" lon="8.13037">
        <ele>133.1</ele>
        <time>2020-06-28T06:12:27Z</time>
      </trkpt>
      <trkpt lat="48.976" lon="8.13039">
        <ele>133.1</ele>
        <time>2020-06-28T06:12:28Z</time>
      </trkpt>
      <trkpt lat="48.97607" lon="8.13044">
        <ele>133</ele>
        <time>2020-06-28T06:12:29Z</time>
      </trkpt>
      <trkpt lat="48.97614" lon="8.13051">
        <ele>132.9</ele>
        <time>2020-06-28T06:12:30Z</time>
      </trkpt>
      <trkpt lat="48.9762" lon="8.13055">
        <ele>132.9</ele>
        <time>2020-06-28T06:12:31Z</time>
      </trkpt>
      <trkpt lat="48.97626" lon="8.1306">
        <ele>132.9</ele>
        <time>2020-06-28T06:12:32Z</time>
      </trkpt>
      <trkpt lat="48.97632" lon="8.13065">
        <ele>132.8</ele>
        <time>2020-06-28T06:12:33Z</time>
      </trkpt>
      <trkpt lat="48.97638" lon="8.13069">
        <ele>132.8</ele>
        <time>2020-06-28T06:12:34Z</time>
      </trkpt>
      <trkpt lat="48.97644" lon="8.13074">
        <ele>132.7</ele>
        <time>2020-06-28T06:12:35Z</time>
      </trkpt>
      <trkpt lat="48.9765" lon="8.13079">
        <ele>132.6</ele>
        <time>2020-06-28T06:12:36Z</time>
      </trkpt>
      <trkpt lat="48.97656" lon="8.13083">
        <ele>132.6</ele>
        <time>2020-06-28T06:12:37Z</time>
      </trkpt>
      <trkpt lat="48.97662" lon="8.13087">
        <ele>132.6</ele>
        <time>2020-06-28T06:12:38Z</time>
      </trkpt>
      <trkpt lat="48.97668" lon="8.13092">
        <ele>132.6</ele>
        <time>2020-06-28T06:12:39Z</time>
      </trkpt>
      <trkpt lat="48.97674" lon="8.13095">
        <ele>132.6</ele>
        <time>2020-06-28T06:12:40Z</time>
      </trkpt>
      <trkpt lat="48.97681" lon="8.13098">
        <ele>132.5</ele>
        <time>2020-06-28T06:12:41Z</time>
      </trkpt>
      <trkpt lat="48.97687" lon="8.13101">
        <ele>132.5</ele>
        <time>2020-06-28T06:12:42Z</time>
      </trkpt>
      <trkpt lat="48.97692" lon="8.13105">
        <ele>132.5</ele>
        <time>2020-06-28T06:12:43Z</time>
      </trkpt>
      <trkpt lat="48.97697" lon="8.13109">
        <ele>132.5</ele>
        <time>2020-06-28T06:12:44Z</time>
      </trkpt>
      <trkpt lat="48.97703" lon="8.13112">
        <ele>132.5</ele>
        <time>2020-06-28T06:12:45Z</time>
      </trkpt>
      <trkpt lat="48.97709" lon="8.13114">
        <ele>132.5</ele>
        <time>2020-06-28T06:12:46Z</time>
      </trkpt>
      <trkpt lat="48.97714" lon="8.13116">
        <ele>132.5</ele>
        <time>2020-06-28T06:12:47Z</time>
      </trkpt>
      <trkpt lat="48.9772" lon="8.13118">
        <ele>132.5</ele>
        <time>2020-06-28T06:12:48Z</time>
      </trkpt>
      <trkpt lat="48.97725" lon="8.13121">
        <ele>132.5</ele>
        <time>2020-06-28T06:12:49Z</time>
      </trkpt>
      <trkpt lat="48.97731" lon="8.13124">
        <ele>132.5</ele>
        <time>2020-06-28T06:12:50Z</time>
      </trkpt>
      <trkpt lat="48.97736" lon="8.13126">
        <ele>132.5</ele>
        <time>2020-06-28T06:12:51Z</time>
      </trkpt>
      <trkpt lat="48.97741" lon="8.13129">
        <ele>132.5</ele>
        <time>2020-06-28T06:12:52Z</time>
      </trkpt>
      <trkpt lat="48.97746" lon="8.13132">
        <ele>132.5</ele>
        <time>2020-06-28T06:12:53Z</time>
      </trkpt>
      <trkpt lat="48.9775" lon="8.13134">
        <ele>132.6</ele>
        <time>2020-06-28T06:12:54Z</time>
      </trkpt>
      <trkpt lat="48.97755" lon="8.13136">
        <ele>132.6</ele>
        <time>2020-06-28T06:12:55Z</time>
      </trkpt>
      <trkpt lat="48.9776" lon="8.13139">
        <ele>132.6</ele>
        <time>2020-06-28T06:12:56Z</time>
      </trkpt>
      <trkpt lat="48.97765" lon="8.13142">
        <ele>132.6</ele>
        <time>2020-06-28T06:12:57Z</time>
      </trkpt>
      <trkpt lat="48.9777" lon="8.13145">
        <ele>132.6</ele>
        <time>2020-06-28T06:12:58Z</time>
      </trkpt>
      <trkpt lat="48.97774" lon="8.13147">
        <ele>132.7</ele>
        <time>2020-06-28T06:12:59Z</time>
      </trkpt>
      <trkpt lat="48.97779" lon="8.13149">
        <ele>132.7</ele>
        <time>2020-06-28T06:13:00Z</time>
      </trkpt>
      <trkpt lat="48.97785" lon="8.1315">
        <ele>132.7</ele>
        <time>2020-06-28T06:13:01Z</time>
      </trkpt>
      <trkpt lat="48.9779" lon="8.13152">
        <ele>132.8</ele>
        <time>2020-06-28T06:13:02Z</time>
      </trkpt>
      <trkpt lat="48.97795" lon="8.13153">
        <ele>132.9</ele>
        <time>2020-06-28T06:13:03Z</time>
      </trkpt>
      <trkpt lat="48.978" lon="8.13156">
        <ele>132.9</ele>
        <time>2020-06-28T06:13:04Z</time>
      </trkpt>
      <trkpt lat="48.97804" lon="8.13157">
        <ele>133</ele>
        <time>2020-06-28T06:13:05Z</time>
      </trkpt>
      <trkpt lat="48.97809" lon="8.13159">
        <ele>133.1</ele>
        <time>2020-06-28T06:13:06Z</time>
      </trkpt>
      <trkpt lat="48.97814" lon="8.1316">
        <ele>133.2</ele>
        <time>2020-06-28T06:13:07Z</time>
      </trkpt>
      <trkpt lat="48.97819" lon="8.13162">
        <ele>133.3</ele>
        <time>2020-06-28T06:13:08Z</time>
      </trkpt>
      <trkpt lat="48.97823" lon="8.13164">
        <ele>133.4</ele>
        <time>2020-06-28T06:13:09Z</time>
      </trkpt>
      <trkpt lat="48.97828" lon="8.13166">
        <ele>133.4</ele>
        <time>2020-06-28T06:13:10Z</time>
      </trkpt>
      <trkpt lat="48.97832" lon="8.13169">
        <ele>133.4</ele>
        <time>2020-06-28T06:13:11Z</time>
      </trkpt>
      <trkpt lat="48.97836" lon="8.13173">
        <ele>133.4</ele>
        <time>2020-06-28T06:13:12Z</time>
      </trkpt>
      <trkpt lat="48.9784" lon="8.13177">
        <ele>133.3</ele>
        <time>2020-06-28T06:13:13Z</time>
      </trkpt>
      <trkpt lat="48.97845" lon="8.13182">
        <ele>133.3</ele>
        <time>2020-06-28T06:13:14Z</time>
      </trkpt>
      <trkpt lat="48.97849" lon="8.13188">
        <ele>133.2</ele>
        <time>2020-06-28T06:13:15Z</time>
      </trkpt>
      <trkpt lat="48.97854" lon="8.13192">
        <ele>133</ele>
        <time>2020-06-28T06:13:16Z</time>
      </trkpt>
      <trkpt lat="48.97858" lon="8.13198">
        <ele>132.9</ele>
        <time>2020-06-28T06:13:17Z</time>
      </trkpt>
      <trkpt lat="48.97863" lon="8.13203">
        <ele>132.8</ele>
        <time>2020-06-28T06:13:18Z</time>
      </trkpt>
      <trkpt lat="48.97867" lon="8.13207">
        <ele>132.6</ele>
        <time>2020-06-28T06:13:19Z</time>
      </trkpt>
      <trkpt lat="48.97872" lon="8.1321">
        <ele>132.5</ele>
        <time>2020-06-28T06:13:20Z</time>
      </trkpt>
      <trkpt lat="48.97877" lon="8.13214">
        <ele>132.3</ele>
        <time>2020-06-28T06:13:21Z</time>
      </trkpt>
      <trkpt lat="48.97882" lon="8.13216">
        <ele>132.2</ele>
        <time>2020-06-28T06:13:22Z</time>
      </trkpt>
      <trkpt lat="48.97886" lon="8.13219">
        <ele>132.1</ele>
        <time>2020-06-28T06:13:23Z</time>
      </trkpt>
      <trkpt lat="48.9789" lon="8.1322">
        <ele>131.9</ele>
        <time>2020-06-28T06:13:24Z</time>
      </trkpt>
      <trkpt lat="48.97893" lon="8.13221">
        <ele>131.7</ele>
        <time>2020-06-28T06:13:25Z</time>
      </trkpt>
      <trkpt lat="48.97897" lon="8.13223">
        <ele>131.6</ele>
        <time>2020-06-28T06:13:26Z</time>
      </trkpt>
      <trkpt lat="48.97901" lon="8.13223">
        <ele>131.4</ele>
        <time>2020-06-28T06:13:27Z</time>
      </trkpt>
      <trkpt lat="48.97905" lon="8.13226">
        <ele>131.1</ele>
        <time>2020-06-28T06:13:28Z</time>
      </trkpt>
      <trkpt lat="48.97909" lon="8.13231">
        <ele>130.8</ele>
        <time>2020-06-28T06:13:29Z</time>
      </trkpt>
      <trkpt lat="48.97913" lon="8.13234">
        <ele>130.5</ele>
        <time>2020-06-28T06:13:30Z</time>
      </trkpt>
      <trkpt lat="48.97918" lon="8.13237">
        <ele>130.1</ele>
        <time>2020-06-28T06:13:31Z</time>
      </trkpt>
      <trkpt lat="48.97923" lon="8.13242">
        <ele>129.8</ele>
        <time>2020-06-28T06:13:32Z</time>
      </trkpt>
      <trkpt lat="48.97928" lon="8.13247">
        <ele>129.4</ele>
        <time>2020-06-28T06:13:33Z</time>
      </trkpt>
      <trkpt lat="48.97934" lon="8.13252">
        <ele>129</ele>
        <time>2020-06-28T06:13:34Z</time>
      </trkpt>
      <trkpt lat="48.97939" lon="8.13257">
        <ele>128.6</ele>
        <time>2020-06-28T06:13:35Z</time>
      </trkpt>
      <trkpt lat="48.97945" lon="8.13263">
        <ele>128.2</ele>
        <time>2020-06-28T06:13:36Z</time>
      </trkpt>
      <trkpt lat="48.97951" lon="8.13269">
        <ele>127.8</ele>
        <time>2020-06-28T06:13:37Z</time>
      </trkpt>
      <trkpt lat="48.97957" lon="8.13277">
        <ele>127.5</ele>
        <time>2020-06-28T06:13:38Z</time>
      </trkpt>
      <trkpt lat="48.97963" lon="8.13286">
        <ele>127.1</ele>
        <time>2020-06-28T06:13:39Z</time>
      </trkpt>
      <trkpt lat="48.97969" lon="8.13295">
        <ele>126.7</ele>
        <time>2020-06-28T06:13:40Z</time>
      </trkpt>
      <trkpt lat="48.97974" lon="8.13304">
        <ele>126.3</ele>
        <time>2020-06-28T06:13:41Z</time>
      </trkpt>
      <trkpt lat="48.97981" lon="8.13312">
        <ele>125.9</ele>
        <time>2020-06-28T06:13:42Z</time>
      </trkpt>
      <trkpt lat="48.97988" lon="8.1332">
        <ele>125.5</ele>
        <time>2020-06-28T06:13:43Z</time>
      </trkpt>
      <trkpt lat="48.97994" lon="8.13328">
        <ele>125.1</ele>
        <time>2020-06-28T06:13:44Z</time>
      </trkpt>
      <trkpt lat="48.98001" lon="8.13336">
        <ele>124.7</ele>
        <time>2020-06-28T06:13:45Z</time>
      </trkpt>
      <trkpt lat="48.98006" lon="8.13346">
        <ele>124.4</ele>
        <time>2020-06-28T06:13:46Z</time>
      </trkpt>
      <trkpt lat="48.98012" lon="8.13355">
        <ele>124</ele>
        <time>2020-06-28T06:13:47Z</time>
      </trkpt>
      <trkpt lat="48.98017" lon="8.13367">
        <ele>123.7</ele>
        <time>2020-06-28T06:13:48Z</time>
      </trkpt>
      <trkpt lat="48.98022" lon="8.13378">
        <ele>123.4</ele>
        <time>2020-06-28T06:13:49Z</time>
      </trkpt>
      <trkpt lat="48.98027" lon="8.13389">
        <ele>123.2</ele>
        <time>2020-06-28T06:13:50Z</time>
      </trkpt>
      <trkpt lat="48.98032" lon="8.134">
        <ele>123</ele>
        <time>2020-06-28T06:13:51Z</time>
      </trkpt>
      <trkpt lat="48.98034" lon="8.13412">
        <ele>122.9</ele>
        <time>2020-06-28T06:13:52Z</time>
      </trkpt>
      <trkpt lat="48.98035" lon="8.13425">
        <ele>122.7</ele>
        <time>2020-06-28T06:13:53Z</time>
      </trkpt>
      <trkpt lat="48.98037" lon="8.13438">
        <ele>122.5</ele>
        <time>2020-06-28T06:13:54Z</time>
      </trkpt>
      <trkpt lat="48.98037" lon="8.1345">
        <ele>122.3</ele>
        <time>2020-06-28T06:13:55Z</time>
      </trkpt>
      <trkpt lat="48.98035" lon="8.13462">
        <ele>122.1</ele>
        <time>2020-06-28T06:13:56Z</time>
      </trkpt>
      <trkpt lat="48.98032" lon="8.13472">
        <ele>122</ele>
        <time>2020-06-28T06:13:57Z</time>
      </trkpt>
      <trkpt lat="48.98028" lon="8.13483">
        <ele>121.8</ele>
        <time>2020-06-28T06:13:58Z</time>
      </trkpt>
      <trkpt lat="48.98023" lon="8.13492">
        <ele>121.6</ele>
        <time>2020-06-28T06:13:59Z</time>
      </trkpt>
      <trkpt lat="48.98016" lon="8.135">
        <ele>121.5</ele>
        <time>2020-06-28T06:14:00Z</time>
      </trkpt>
      <trkpt lat="48.98011" lon="8.13508">
        <ele>121.4</ele>
        <time>2020-06-28T06:14:01Z</time>
      </trkpt>
      <trkpt lat="48.98005" lon="8.13515">
        <ele>121.3</ele>
        <time>2020-06-28T06:14:02Z</time>
      </trkpt>
      <trkpt lat="48.97999" lon="8.13523">
        <ele>121.2</ele>
        <time>2020-06-28T06:14:03Z</time>
      </trkpt>
      <trkpt lat="48.97994" lon="8.13532">
        <ele>121.2</ele>
        <time>2020-06-28T06:14:04Z</time>
      </trkpt>
      <trkpt lat="48.9799" lon="8.13542">
        <ele>121.1</ele>
        <time>2020-06-28T06:14:05Z</time>
      </trkpt>
      <trkpt lat="48.97986" lon="8.1355">
        <ele>121.1</ele>
        <time>2020-06-28T06:14:06Z</time>
      </trkpt>
      <trkpt lat="48.97984" lon="8.1356">
        <ele>121.1</ele>
        <time>2020-06-28T06:14:07Z</time>
      </trkpt>
      <trkpt lat="48.9798" lon="8.13568">
        <ele>121.2</ele>
        <time>2020-06-28T06:14:08Z</time>
      </trkpt>
      <trkpt lat="48.97976" lon="8.13576">
        <ele>121.3</ele>
        <time>2020-06-28T06:14:09Z</time>
      </trkpt>
      <trkpt lat="48.97972" lon="8.13583">
        <ele>121.4</ele>
        <time>2020-06-28T06:14:10Z</time>
      </trkpt>
      <trkpt lat="48.9797" lon="8.1359">
        <ele>121.5</ele>
        <time>2020-06-28T06:14:11Z</time>
      </trkpt>
      <trkpt lat="48.97967" lon="8.13596">
        <ele>121.7</ele>
        <time>2020-06-28T06:14:12Z</time>
      </trkpt>
      <trkpt lat="48.97965" lon="8.136">
        <ele>121.8</ele>
        <time>2020-06-28T06:14:13Z</time>
      </trkpt>
      <trkpt lat="48.97964" lon="8.13606">
        <ele>121.9</ele>
        <time>2020-06-28T06:14:14Z</time>
      </trkpt>
      <trkpt lat="48.97962" lon="8.13609">
        <ele>121.9</ele>
        <time>2020-06-28T06:14:15Z</time>
      </trkpt>
      <trkpt lat="48.97961" lon="8.13614">
        <ele>122</ele>
        <time>2020-06-28T06:14:16Z</time>
      </trkpt>
      <trkpt lat="48.9796" lon="8.13615">
        <ele>122</ele>
        <time>2020-06-28T06:14:17Z</time>
      </trkpt>
      <trkpt lat="48.9796" lon="8.13617">
        <ele>122.1</ele>
        <time>2020-06-28T06:14:18Z</time>
      </trkpt>
      <trkpt lat="48.97958" lon="8.13618">
        <ele>122.1</ele>
        <time>2020-06-28T06:14:19Z</time>
      </trkpt>
      <trkpt lat="48.97955" lon="8.13618">
        <ele>122.1</ele>
        <time>2020-06-28T06:14:20Z</time>
      </trkpt>
      <trkpt lat="48.97954" lon="8.13616">
        <ele>122.1</ele>
        <time>2020-06-28T06:14:21Z</time>
      </trkpt>
      <trkpt lat="48.9795" lon="8.13616">
        <ele>122</ele>
        <time>2020-06-28T06:14:22Z</time>
      </trkpt>
      <trkpt lat="48.97947" lon="8.13615">
        <ele>122</ele>
        <time>2020-06-28T06:14:23Z</time>
      </trkpt>
      <trkpt lat="48.97943" lon="8.13616">
        <ele>121.9</ele>
        <time>2020-06-28T06:14:24Z</time>
      </trkpt>
      <trkpt lat="48.97939" lon="8.13616">
        <ele>121.9</ele>
        <time>2020-06-28T06:14:25Z</time>
      </trkpt>
      <trkpt lat="48.97935" lon="8.13616">
        <ele>121.8</ele>
        <time>2020-06-28T06:14:26Z</time>
      </trkpt>
      <trkpt lat="48.97931" lon="8.13617">
        <ele>121.8</ele>
        <time>2020-06-28T06:14:27Z</time>
      </trkpt>
      <trkpt lat="48.97927" lon="8.13617">
        <ele>121.8</ele>
        <time>2020-06-28T06:14:28Z</time>
      </trkpt>
      <trkpt lat="48.97923" lon="8.13617">
        <ele>121.8</ele>
        <time>2020-06-28T06:14:29Z</time>
      </trkpt>
      <trkpt lat="48.97918" lon="8.13617">
        <ele>121.8</ele>
        <time>2020-06-28T06:14:30Z</time>
      </trkpt>
      <trkpt lat="48.97914" lon="8.13617">
        <ele>121.8</ele>
        <time>2020-06-28T06:14:31Z</time>
      </trkpt>
      <trkpt lat="48.97909" lon="8.13617">
        <ele>121.8</ele>
        <time>2020-06-28T06:14:32Z</time>
      </trkpt>
      <trkpt lat="48.97905" lon="8.13618">
        <ele>121.9</ele>
        <time>2020-06-28T06:14:33Z</time>
      </trkpt>
      <trkpt lat="48.97901" lon="8.1362">
        <ele>121.9</ele>
        <time>2020-06-28T06:14:34Z</time>
      </trkpt>
      <trkpt lat="48.97899" lon="8.13622">
        <ele>121.8</ele>
        <time>2020-06-28T06:14:35Z</time>
      </trkpt>
      <trkpt lat="48.97898" lon="8.13628">
        <ele>121.8</ele>
        <time>2020-06-28T06:14:36Z</time>
      </trkpt>
      <trkpt lat="48.97897" lon="8.13635">
        <ele>121.8</ele>
        <time>2020-06-28T06:14:37Z</time>
      </trkpt>
      <trkpt lat="48.97896" lon="8.13642">
        <ele>121.7</ele>
        <time>2020-06-28T06:14:38Z</time>
      </trkpt>
      <trkpt lat="48.97894" lon="8.13648">
        <ele>121.7</ele>
        <time>2020-06-28T06:14:39Z</time>
      </trkpt>
      <trkpt lat="48.97892" lon="8.13655">
        <ele>121.6</ele>
        <time>2020-06-28T06:14:40Z</time>
      </trkpt>
      <trkpt lat="48.9789" lon="8.13662">
        <ele>121.6</ele>
        <time>2020-06-28T06:14:41Z</time>
      </trkpt>
      <trkpt lat="48.97887" lon="8.13668">
        <ele>121.6</ele>
        <time>2020-06-28T06:14:42Z</time>
      </trkpt>
      <trkpt lat="48.97885" lon="8.13674">
        <ele>121.6</ele>
        <time>2020-06-28T06:14:43Z</time>
      </trkpt>
      <trkpt lat="48.97882" lon="8.13679">
        <ele>121.7</ele>
        <time>2020-06-28T06:14:44Z</time>
      </trkpt>
      <trkpt lat="48.9788" lon="8.13685">
        <ele>121.7</ele>
        <time>2020-06-28T06:14:45Z</time>
      </trkpt>
      <trkpt lat="48.97878" lon="8.13692">
        <ele>121.7</ele>
        <time>2020-06-28T06:14:46Z</time>
      </trkpt>
      <trkpt lat="48.97875" lon="8.13698">
        <ele>121.8</ele>
        <time>2020-06-28T06:14:47Z</time>
      </trkpt>
      <trkpt lat="48.97873" lon="8.13704">
        <ele>121.8</ele>
        <time>2020-06-28T06:14:48Z</time>
      </trkpt>
      <trkpt lat="48.97871" lon="8.1371">
        <ele>121.9</ele>
        <time>2020-06-28T06:14:49Z</time>
      </trkpt>
      <trkpt lat="48.97868" lon="8.13715">
        <ele>121.9</ele>
        <time>2020-06-28T06:14:50Z</time>
      </trkpt>
      <trkpt lat="48.97866" lon="8.1372">
        <ele>122</ele>
        <time>2020-06-28T06:14:51Z</time>
      </trkpt>
      <trkpt lat="48.97864" lon="8.13725">
        <ele>122</ele>
        <time>2020-06-28T06:14:52Z</time>
      </trkpt>
      <trkpt lat="48.97861" lon="8.13729">
        <ele>122</ele>
        <time>2020-06-28T06:14:53Z</time>
      </trkpt>
      <trkpt lat="48.97858" lon="8.13734">
        <ele>122.1</ele>
        <time>2020-06-28T06:14:54Z</time>
      </trkpt>
      <trkpt lat="48.97856" lon="8.13739">
        <ele>122.1</ele>
        <time>2020-06-28T06:14:55Z</time>
      </trkpt>
      <trkpt lat="48.97853" lon="8.13745">
        <ele>122.1</ele>
        <time>2020-06-28T06:14:56Z</time>
      </trkpt>
      <trkpt lat="48.97851" lon="8.1375">
        <ele>122.2</ele>
        <time>2020-06-28T06:14:57Z</time>
      </trkpt>
      <trkpt lat="48.97848" lon="8.13756">
        <ele>122.2</ele>
        <time>2020-06-28T06:14:58Z</time>
      </trkpt>
      <trkpt lat="48.97846" lon="8.13761">
        <ele>122.2</ele>
        <time>2020-06-28T06:14:59Z</time>
      </trkpt>
      <trkpt lat="48.97842" lon="8.13766">
        <ele>122.3</ele>
        <time>2020-06-28T06:15:00Z</time>
      </trkpt>
      <trkpt lat="48.97839" lon="8.13771">
        <ele>122.3</ele>
        <time>2020-06-28T06:15:01Z</time>
      </trkpt>
      <trkpt lat="48.97836" lon="8.13776">
        <ele>122.4</ele>
        <time>2020-06-28T06:15:02Z</time>
      </trkpt>
      <trkpt lat="48.97832" lon="8.13782">
        <ele>122.4</ele>
        <time>2020-06-28T06:15:03Z</time>
      </trkpt>
      <trkpt lat="48.97829" lon="8.13788">
        <ele>122.4</ele>
        <time>2020-06-28T06:15:04Z</time>
      </trkpt>
      <trkpt lat="48.97825" lon="8.13794">
        <ele>122.5</ele>
        <time>2020-06-28T06:15:05Z</time>
      </trkpt>
      <trkpt lat="48.97822" lon="8.13799">
        <ele>122.5</ele>
        <time>2020-06-28T06:15:06Z</time>
      </trkpt>
      <trkpt lat="48.97819" lon="8.13806">
        <ele>122.5</ele>
        <time>2020-06-28T06:15:07Z</time>
      </trkpt>
      <trkpt lat="48.97815" lon="8.13813">
        <ele>122.6</ele>
        <time>2020-06-28T06:15:08Z</time>
      </trkpt>
      <trkpt lat="48.97812" lon="8.1382">
        <ele>122.6</ele>
        <time>2020-06-28T06:15:09Z</time>
      </trkpt>
      <trkpt lat="48.97809" lon="8.13827">
        <ele>122.7</ele>
        <time>2020-06-28T06:15:10Z</time>
      </trkpt>
      <trkpt lat="48.97807" lon="8.13835">
        <ele>122.7</ele>
        <time>2020-06-28T06:15:11Z</time>
      </trkpt>
      <trkpt lat="48.97805" lon="8.13842">
        <ele>122.8</ele>
        <time>2020-06-28T06:15:12Z</time>
      </trkpt>
      <trkpt lat="48.97802" lon="8.13849">
        <ele>122.9</ele>
        <time>2020-06-28T06:15:13Z</time>
      </trkpt>
      <trkpt lat="48.978" lon="8.13856">
        <ele>123</ele>
        <time>2020-06-28T06:15:14Z</time>
      </trkpt>
      <trkpt lat="48.97798" lon="8.13863">
        <ele>123.1</ele>
        <time>2020-06-28T06:15:15Z</time>
      </trkpt>
      <trkpt lat="48.97796" lon="8.13871">
        <ele>123.2</ele>
        <time>2020-06-28T06:15:16Z</time>
      </trkpt>
      <trkpt lat="48.97794" lon="8.13879">
        <ele>123.3</ele>
        <time>2020-06-28T06:15:17Z</time>
      </trkpt>
      <trkpt lat="48.97793" lon="8.13888">
        <ele>123.4</ele>
        <time>2020-06-28T06:15:18Z</time>
      </trkpt>
      <trkpt lat="48.97792" lon="8.13895">
        <ele>123.5</ele>
        <time>2020-06-28T06:15:19Z</time>
      </trkpt>
      <trkpt lat="48.97791" lon="8.13903">
        <ele>123.6</ele>
        <time>2020-06-28T06:15:20Z</time>
      </trkpt>
      <trkpt lat="48.97789" lon="8.13911">
        <ele>123.7</ele>
        <time>2020-06-28T06:15:21Z</time>
      </trkpt>
      <trkpt lat="48.97787" lon="8.13919">
        <ele>123.8</ele>
        <time>2020-06-28T06:15:22Z</time>
      </trkpt>
      <trkpt lat="48.97785" lon="8.13926">
        <ele>124</ele>
        <time>2020-06-28T06:15:23Z</time>
      </trkpt>
      <trkpt lat="48.97783" lon="8.13933">
        <ele>124.1</ele>
        <time>2020-06-28T06:15:24Z</time>
      </trkpt>
      <trkpt lat="48.9778" lon="8.1394">
        <ele>124.3</ele>
        <time>2020-06-28T06:15:25Z</time>
      </trkpt>
      <trkpt lat="48.97777" lon="8.13947">
        <ele>124.5</ele>
        <time>2020-06-28T06:15:26Z</time>
      </trkpt>
      <trkpt lat="48.97775" lon="8.13955">
        <ele>124.7</ele>
        <time>2020-06-28T06:15:27Z</time>
      </trkpt>
      <trkpt lat="48.97772" lon="8.13961">
        <ele>124.9</ele>
        <time>2020-06-28T06:15:28Z</time>
      </trkpt>
      <trkpt lat="48.97768" lon="8.13969">
        <ele>125.1</ele>
        <time>2020-06-28T06:15:29Z</time>
      </trkpt>
      <trkpt lat="48.97766" lon="8.13976">
        <ele>125.3</ele>
        <time>2020-06-28T06:15:30Z</time>
      </trkpt>
      <trkpt lat="48.97763" lon="8.13983">
        <ele>125.4</ele>
        <time>2020-06-28T06:15:31Z</time>
      </trkpt>
      <trkpt lat="48.97759" lon="8.13989">
        <ele>125.6</ele>
        <time>2020-06-28T06:15:32Z</time>
      </trkpt>
      <trkpt lat="48.97757" lon="8.14">
        <ele>125.8</ele>
        <time>2020-06-28T06:15:33Z</time>
      </trkpt>
      <trkpt lat="48.97755" lon="8.14012">
        <ele>126.2</ele>
        <time>2020-06-28T06:15:34Z</time>
      </trkpt>
      <trkpt lat="48.97751" lon="8.14022">
        <ele>126.5</ele>
        <time>2020-06-28T06:15:35Z</time>
      </trkpt>
      <trkpt lat="48.97748" lon="8.14034">
        <ele>126.8</ele>
        <time>2020-06-28T06:15:36Z</time>
      </trkpt>
      <trkpt lat="48.97745" lon="8.14042">
        <ele>127.1</ele>
        <time>2020-06-28T06:15:37Z</time>
      </trkpt>
      <trkpt lat="48.97742" lon="8.1405">
        <ele>127.3</ele>
        <time>2020-06-28T06:15:38Z</time>
      </trkpt>
      <trkpt lat="48.97739" lon="8.14058">
        <ele>127.5</ele>
        <time>2020-06-28T06:15:39Z</time>
      </trkpt>
      <trkpt lat="48.97736" lon="8.14064">
        <ele>127.7</ele>
        <time>2020-06-28T06:15:40Z</time>
      </trkpt>
      <trkpt lat="48.97732" lon="8.1407">
        <ele>127.9</ele>
        <time>2020-06-28T06:15:41Z</time>
      </trkpt>
      <trkpt lat="48.97728" lon="8.14078">
        <ele>128.1</ele>
        <time>2020-06-28T06:15:42Z</time>
      </trkpt>
      <trkpt lat="48.97726" lon="8.14082">
        <ele>128.2</ele>
        <time>2020-06-28T06:15:43Z</time>
      </trkpt>
      <trkpt lat="48.97723" lon="8.14089">
        <ele>128.3</ele>
        <time>2020-06-28T06:15:44Z</time>
      </trkpt>
      <trkpt lat="48.97721" lon="8.14095">
        <ele>128.4</ele>
        <time>2020-06-28T06:15:45Z</time>
      </trkpt>
      <trkpt lat="48.97719" lon="8.14101">
        <ele>128.5</ele>
        <time>2020-06-28T06:15:46Z</time>
      </trkpt>
      <trkpt lat="48.97717" lon="8.14107">
        <ele>128.7</ele>
        <time>2020-06-28T06:15:47Z</time>
      </trkpt>
      <trkpt lat="48.97714" lon="8.14113">
        <ele>128.8</ele>
        <time>2020-06-28T06:15:48Z</time>
      </trkpt>
      <trkpt lat="48.97711" lon="8.1412">
        <ele>128.9</ele>
        <time>2020-06-28T06:15:49Z</time>
      </trkpt>
      <trkpt lat="48.97707" lon="8.14128">
        <ele>129</ele>
        <time>2020-06-28T06:15:50Z</time>
      </trkpt>
      <trkpt lat="48.97703" lon="8.14137">
        <ele>129.2</ele>
        <time>2020-06-28T06:15:51Z</time>
      </trkpt>
      <trkpt lat="48.977" lon="8.14145">
        <ele>129.3</ele>
        <time>2020-06-28T06:15:52Z</time>
      </trkpt>
      <trkpt lat="48.97698" lon="8.14149">
        <ele>129.4</ele>
        <time>2020-06-28T06:15:53Z</time>
      </trkpt>
      <trkpt lat="48.97697" lon="8.14155">
        <ele>129.5</ele>
        <time>2020-06-28T06:15:54Z</time>
      </trkpt>
      <trkpt lat="48.97695" lon="8.14163">
        <ele>129.6</ele>
        <time>2020-06-28T06:15:55Z</time>
      </trkpt>
      <trkpt lat="48.97694" lon="8.14169">
        <ele>129.7</ele>
        <time>2020-06-28T06:15:56Z</time>
      </trkpt>
      <trkpt lat="48.97693" lon="8.14176">
        <ele>129.8</ele>
        <time>2020-06-28T06:15:57Z</time>
      </trkpt>
      <trkpt lat="48.97692" lon="8.14184">
        <ele>129.9</ele>
        <time>2020-06-28T06:15:58Z</time>
      </trkpt>
      <trkpt lat="48.9769" lon="8.14191">
        <ele>130</ele>
        <time>2020-06-28T06:15:59Z</time>
      </trkpt>
      <trkpt lat="48.97688" lon="8.14197">
        <ele>130.2</ele>
        <time>2020-06-28T06:16:00Z</time>
      </trkpt>
      <trkpt lat="48.97687" lon="8.14206">
        <ele>130.3</ele>
        <time>2020-06-28T06:16:01Z</time>
      </trkpt>
      <trkpt lat="48.97685" lon="8.14211">
        <ele>130.3</ele>
        <time>2020-06-28T06:16:02Z</time>
      </trkpt>
      <trkpt lat="48.97684" lon="8.14218">
        <ele>130.4</ele>
        <time>2020-06-28T06:16:03Z</time>
      </trkpt>
      <trkpt lat="48.97682" lon="8.14225">
        <ele>130.4</ele>
        <time>2020-06-28T06:16:04Z</time>
      </trkpt>
      <trkpt lat="48.97681" lon="8.14231">
        <ele>130.4</ele>
        <time>2020-06-28T06:16:05Z</time>
      </trkpt>
      <trkpt lat="48.97679" lon="8.14237">
        <ele>130.4</ele>
        <time>2020-06-28T06:16:06Z</time>
      </trkpt>
      <trkpt lat="48.97678" lon="8.14244">
        <ele>130.4</ele>
        <time>2020-06-28T06:16:07Z</time>
      </trkpt>
      <trkpt lat="48.97676" lon="8.14249">
        <ele>130.4</ele>
        <time>2020-06-28T06:16:08Z</time>
      </trkpt>
      <trkpt lat="48.97676" lon="8.14255">
        <ele>130.3</ele>
        <time>2020-06-28T06:16:09Z</time>
      </trkpt>
      <trkpt lat="48.97675" lon="8.14265">
        <ele>130.3</ele>
        <time>2020-06-28T06:16:10Z</time>
      </trkpt>
      <trkpt lat="48.97675" lon="8.14274">
        <ele>130.2</ele>
        <time>2020-06-28T06:16:11Z</time>
      </trkpt>
      <trkpt lat="48.97675" lon="8.14282">
        <ele>130.2</ele>
        <time>2020-06-28T06:16:12Z</time>
      </trkpt>
      <trkpt lat="48.97675" lon="8.14291">
        <ele>130.1</ele>
        <time>2020-06-28T06:16:13Z</time>
      </trkpt>
      <trkpt lat="48.97675" lon="8.14297">
        <ele>130.1</ele>
        <time>2020-06-28T06:16:14Z</time>
      </trkpt>
      <trkpt lat="48.97675" lon="8.14307">
        <ele>130</ele>
        <time>2020-06-28T06:16:15Z</time>
      </trkpt>
      <trkpt lat="48.97675" lon="8.14316">
        <ele>130</ele>
        <time>2020-06-28T06:16:16Z</time>
      </trkpt>
      <trkpt lat="48.97675" lon="8.14326">
        <ele>130</ele>
        <time>2020-06-28T06:16:17Z</time>
      </trkpt>
      <trkpt lat="48.97675" lon="8.14337">
        <ele>130</ele>
        <time>2020-06-28T06:16:18Z</time>
      </trkpt>
      <trkpt lat="48.97675" lon="8.14345">
        <ele>129.9</ele>
        <time>2020-06-28T06:16:19Z</time>
      </trkpt>
      <trkpt lat="48.97675" lon="8.14355">
        <ele>129.8</ele>
        <time>2020-06-28T06:16:20Z</time>
      </trkpt>
      <trkpt lat="48.97676" lon="8.14366">
        <ele>129.7</ele>
        <time>2020-06-28T06:16:21Z</time>
      </trkpt>
      <trkpt lat="48.97675" lon="8.14375">
        <ele>129.7</ele>
        <time>2020-06-28T06:16:22Z</time>
      </trkpt>
      <trkpt lat="48.97676" lon="8.14383">
        <ele>129.6</ele>
        <time>2020-06-28T06:16:23Z</time>
      </trkpt>
      <trkpt lat="48.97676" lon="8.14389">
        <ele>129.6</ele>
        <time>2020-06-28T06:16:24Z</time>
      </trkpt>
      <trkpt lat="48.97676" lon="8.14397">
        <ele>129.6</ele>
        <time>2020-06-28T06:16:25Z</time>
      </trkpt>
      <trkpt lat="48.97676" lon="8.14407">
        <ele>129.5</ele>
        <time>2020-06-28T06:16:26Z</time>
      </trkpt>
      <trkpt lat="48.97676" lon="8.14417">
        <ele>129.5</ele>
        <time>2020-06-28T06:16:27Z</time>
      </trkpt>
      <trkpt lat="48.97675" lon="8.14427">
        <ele>129.4</ele>
        <time>2020-06-28T06:16:28Z</time>
      </trkpt>
      <trkpt lat="48.97675" lon="8.14438">
        <ele>129.3</ele>
        <time>2020-06-28T06:16:29Z</time>
      </trkpt>
      <trkpt lat="48.97674" lon="8.14449">
        <ele>129.2</ele>
        <time>2020-06-28T06:16:30Z</time>
      </trkpt>
      <trkpt lat="48.97673" lon="8.14459">
        <ele>129.1</ele>
        <time>2020-06-28T06:16:31Z</time>
      </trkpt>
      <trkpt lat="48.97672" lon="8.14469">
        <ele>129.1</ele>
        <time>2020-06-28T06:16:32Z</time>
      </trkpt>
      <trkpt lat="48.97672" lon="8.14479">
        <ele>129</ele>
        <time>2020-06-28T06:16:33Z</time>
      </trkpt>
      <trkpt lat="48.97672" lon="8.1449">
        <ele>129</ele>
        <time>2020-06-28T06:16:34Z</time>
      </trkpt>
      <trkpt lat="48.97672" lon="8.14499">
        <ele>129</ele>
        <time>2020-06-28T06:16:35Z</time>
      </trkpt>
      <trkpt lat="48.97672" lon="8.14509">
        <ele>128.9</ele>
        <time>2020-06-28T06:16:36Z</time>
      </trkpt>
      <trkpt lat="48.97671" lon="8.14519">
        <ele>128.9</ele>
        <time>2020-06-28T06:16:37Z</time>
      </trkpt>
      <trkpt lat="48.97671" lon="8.14529">
        <ele>128.9</ele>
        <time>2020-06-28T06:16:38Z</time>
      </trkpt>
      <trkpt lat="48.9767" lon="8.14538">
        <ele>128.8</ele>
        <time>2020-06-28T06:16:39Z</time>
      </trkpt>
      <trkpt lat="48.97669" lon="8.14547">
        <ele>128.8</ele>
        <time>2020-06-28T06:16:40Z</time>
      </trkpt>
      <trkpt lat="48.97669" lon="8.14558">
        <ele>128.7</ele>
        <time>2020-06-28T06:16:41Z</time>
      </trkpt>
      <trkpt lat="48.97669" lon="8.14568">
        <ele>128.6</ele>
        <time>2020-06-28T06:16:42Z</time>
      </trkpt>
      <trkpt lat="48.97669" lon="8.14574">
        <ele>128.6</ele>
        <time>2020-06-28T06:16:43Z</time>
      </trkpt>
      <trkpt lat="48.97669" lon="8.14581">
        <ele>128.6</ele>
        <time>2020-06-28T06:16:44Z</time>
      </trkpt>
      <trkpt lat="48.97669" lon="8.14589">
        <ele>128.5</ele>
        <time>2020-06-28T06:16:45Z</time>
      </trkpt>
      <trkpt lat="48.97669" lon="8.14599">
        <ele>128.5</ele>
        <time>2020-06-28T06:16:46Z</time>
      </trkpt>
      <trkpt lat="48.97669" lon="8.14608">
        <ele>128.5</ele>
        <time>2020-06-28T06:16:47Z</time>
      </trkpt>
      <trkpt lat="48.97669" lon="8.1462">
        <ele>128.4</ele>
        <time>2020-06-28T06:16:48Z</time>
      </trkpt>
      <trkpt lat="48.97668" lon="8.14631">
        <ele>128.4</ele>
        <time>2020-06-28T06:16:49Z</time>
      </trkpt>
      <trkpt lat="48.97667" lon="8.14641">
        <ele>128.4</ele>
        <time>2020-06-28T06:16:50Z</time>
      </trkpt>
      <trkpt lat="48.97666" lon="8.14652">
        <ele>128.3</ele>
        <time>2020-06-28T06:16:51Z</time>
      </trkpt>
      <trkpt lat="48.97665" lon="8.14663">
        <ele>128.3</ele>
        <time>2020-06-28T06:16:52Z</time>
      </trkpt>
      <trkpt lat="48.97665" lon="8.14673">
        <ele>128.2</ele>
        <time>2020-06-28T06:16:53Z</time>
      </trkpt>
      <trkpt lat="48.97664" lon="8.14683">
        <ele>128.1</ele>
        <time>2020-06-28T06:16:54Z</time>
      </trkpt>
      <trkpt lat="48.97664" lon="8.14694">
        <ele>127.9</ele>
        <time>2020-06-28T06:16:55Z</time>
      </trkpt>
      <trkpt lat="48.97663" lon="8.14705">
        <ele>127.8</ele>
        <time>2020-06-28T06:16:56Z</time>
      </trkpt>
      <trkpt lat="48.97662" lon="8.14715">
        <ele>127.8</ele>
        <time>2020-06-28T06:16:57Z</time>
      </trkpt>
      <trkpt lat="48.97661" lon="8.14726">
        <ele>127.7</ele>
        <time>2020-06-28T06:16:58Z</time>
      </trkpt>
      <trkpt lat="48.9766" lon="8.14737">
        <ele>127.7</ele>
        <time>2020-06-28T06:16:59Z</time>
      </trkpt>
      <trkpt lat="48.97658" lon="8.14746">
        <ele>127.6</ele>
        <time>2020-06-28T06:17:00Z</time>
      </trkpt>
      <trkpt lat="48.97657" lon="8.14756">
        <ele>127.5</ele>
        <time>2020-06-28T06:17:01Z</time>
      </trkpt>
      <trkpt lat="48.97656" lon="8.14767">
        <ele>127.4</ele>
        <time>2020-06-28T06:17:02Z</time>
      </trkpt>
      <trkpt lat="48.97655" lon="8.14778">
        <ele>127.3</ele>
        <time>2020-06-28T06:17:03Z</time>
      </trkpt>
      <trkpt lat="48.97653" lon="8.14789">
        <ele>127.2</ele>
        <time>2020-06-28T06:17:04Z</time>
      </trkpt>
      <trkpt lat="48.97652" lon="8.14799">
        <ele>127.1</ele>
        <time>2020-06-28T06:17:05Z</time>
      </trkpt>
      <trkpt lat="48.97652" lon="8.1481">
        <ele>127.1</ele>
        <time>2020-06-28T06:17:06Z</time>
      </trkpt>
      <trkpt lat="48.97651" lon="8.14821">
        <ele>127.1</ele>
        <time>2020-06-28T06:17:07Z</time>
      </trkpt>
      <trkpt lat="48.9765" lon="8.14832">
        <ele>127.1</ele>
        <time>2020-06-28T06:17:08Z</time>
      </trkpt>
      <trkpt lat="48.9765" lon="8.14843">
        <ele>127.1</ele>
        <time>2020-06-28T06:17:09Z</time>
      </trkpt>
      <trkpt lat="48.97649" lon="8.14853">
        <ele>127.1</ele>
        <time>2020-06-28T06:17:10Z</time>
      </trkpt>
      <trkpt lat="48.97648" lon="8.14863">
        <ele>127.1</ele>
        <time>2020-06-28T06:17:11Z</time>
      </trkpt>
      <trkpt lat="48.97647" lon="8.14873">
        <ele>127.1</ele>
        <time>2020-06-28T06:17:12Z</time>
      </trkpt>
      <trkpt lat="48.97646" lon="8.14883">
        <ele>127.1</ele>
        <time>2020-06-28T06:17:13Z</time>
      </trkpt>
      <trkpt lat="48.97645" lon="8.14893">
        <ele>127.1</ele>
        <time>2020-06-28T06:17:14Z</time>
      </trkpt>
      <trkpt lat="48.97644" lon="8.14903">
        <ele>127</ele>
        <time>2020-06-28T06:17:15Z</time>
      </trkpt>
      <trkpt lat="48.97644" lon="8.14913">
        <ele>126.9</ele>
        <time>2020-06-28T06:17:16Z</time>
      </trkpt>
      <trkpt lat="48.97643" lon="8.14923">
        <ele>126.9</ele>
        <time>2020-06-28T06:17:17Z</time>
      </trkpt>
      <trkpt lat="48.97642" lon="8.14933">
        <ele>126.8</ele>
        <time>2020-06-28T06:17:18Z</time>
      </trkpt>
      <trkpt lat="48.97641" lon="8.14944">
        <ele>126.8</ele>
        <time>2020-06-28T06:17:19Z</time>
      </trkpt>
      <trkpt lat="48.9764" lon="8.14954">
        <ele>126.8</ele>
        <time>2020-06-28T06:17:20Z</time>
      </trkpt>
      <trkpt lat="48.97638" lon="8.14964">
        <ele>126.7</ele>
        <time>2020-06-28T06:17:21Z</time>
      </trkpt>
      <trkpt lat="48.97638" lon="8.14974">
        <ele>126.7</ele>
        <time>2020-06-28T06:17:22Z</time>
      </trkpt>
      <trkpt lat="48.97637" lon="8.14983">
        <ele>126.7</ele>
        <time>2020-06-28T06:17:23Z</time>
      </trkpt>
      <trkpt lat="48.97636" lon="8.14993">
        <ele>126.8</ele>
        <time>2020-06-28T06:17:24Z</time>
      </trkpt>
      <trkpt lat="48.97634" lon="8.15002">
        <ele>126.8</ele>
        <time>2020-06-28T06:17:25Z</time>
      </trkpt>
      <trkpt lat="48.97631" lon="8.15009">
        <ele>126.8</ele>
        <time>2020-06-28T06:17:26Z</time>
      </trkpt>
      <trkpt lat="48.97626" lon="8.15012">
        <ele>126.8</ele>
        <time>2020-06-28T06:17:27Z</time>
      </trkpt>
      <trkpt lat="48.97621" lon="8.15012">
        <ele>126.7</ele>
        <time>2020-06-28T06:17:28Z</time>
      </trkpt>
      <trkpt lat="48.97615" lon="8.15013">
        <ele>126.7</ele>
        <time>2020-06-28T06:17:29Z</time>
      </trkpt>
      <trkpt lat="48.97609" lon="8.15015">
        <ele>126.7</ele>
        <time>2020-06-28T06:17:30Z</time>
      </trkpt>
      <trkpt lat="48.97603" lon="8.15016">
        <ele>126.8</ele>
        <time>2020-06-28T06:17:31Z</time>
      </trkpt>
      <trkpt lat="48.97597" lon="8.15017">
        <ele>126.8</ele>
        <time>2020-06-28T06:17:32Z</time>
      </trkpt>
      <trkpt lat="48.97591" lon="8.15017">
        <ele>126.8</ele>
        <time>2020-06-28T06:17:33Z</time>
      </trkpt>
      <trkpt lat="48.97585" lon="8.15019">
        <ele>126.9</ele>
        <time>2020-06-28T06:17:34Z</time>
      </trkpt>
      <trkpt lat="48.97579" lon="8.15021">
        <ele>127</ele>
        <time>2020-06-28T06:17:35Z</time>
      </trkpt>
      <trkpt lat="48.97573" lon="8.15022">
        <ele>127.1</ele>
        <time>2020-06-28T06:17:36Z</time>
      </trkpt>
      <trkpt lat="48.97567" lon="8.15023">
        <ele>127.3</ele>
        <time>2020-06-28T06:17:37Z</time>
      </trkpt>
      <trkpt lat="48.97561" lon="8.15024">
        <ele>127.4</ele>
        <time>2020-06-28T06:17:38Z</time>
      </trkpt>
      <trkpt lat="48.97556" lon="8.15025">
        <ele>127.6</ele>
        <time>2020-06-28T06:17:39Z</time>
      </trkpt>
      <trkpt lat="48.9755" lon="8.15025">
        <ele>127.8</ele>
        <time>2020-06-28T06:17:40Z</time>
      </trkpt>
      <trkpt lat="48.97546" lon="8.15027">
        <ele>127.9</ele>
        <time>2020-06-28T06:17:41Z</time>
      </trkpt>
      <trkpt lat="48.97542" lon="8.15028">
        <ele>127.9</ele>
        <time>2020-06-28T06:17:42Z</time>
      </trkpt>
      <trkpt lat="48.97539" lon="8.15032">
        <ele>127.9</ele>
        <time>2020-06-28T06:17:43Z</time>
      </trkpt>
      <trkpt lat="48.97539" lon="8.15038">
        <ele>127.9</ele>
        <time>2020-06-28T06:17:44Z</time>
      </trkpt>
      <trkpt lat="48.97539" lon="8.15045">
        <ele>128</ele>
        <time>2020-06-28T06:17:45Z</time>
      </trkpt>
      <trkpt lat="48.97538" lon="8.15052">
        <ele>128</ele>
        <time>2020-06-28T06:17:46Z</time>
      </trkpt>
      <trkpt lat="48.97537" lon="8.15059">
        <ele>128</ele>
        <time>2020-06-28T06:17:47Z</time>
      </trkpt>
      <trkpt lat="48.97536" lon="8.15066">
        <ele>128</ele>
        <time>2020-06-28T06:17:48Z</time>
      </trkpt>
      <trkpt lat="48.97535" lon="8.15072">
        <ele>128</ele>
        <time>2020-06-28T06:17:49Z</time>
      </trkpt>
      <trkpt lat="48.97535" lon="8.15078">
        <ele>128.1</ele>
        <time>2020-06-28T06:17:50Z</time>
      </trkpt>
      <trkpt lat="48.97534" lon="8.15084">
        <ele>128.1</ele>
        <time>2020-06-28T06:17:51Z</time>
      </trkpt>
      <trkpt lat="48.97535" lon="8.15091">
        <ele>128.2</ele>
        <time>2020-06-28T06:17:52Z</time>
      </trkpt>
      <trkpt lat="48.97535" lon="8.15097">
        <ele>128.2</ele>
        <time>2020-06-28T06:17:53Z</time>
      </trkpt>
      <trkpt lat="48.97538" lon="8.15105">
        <ele>128.2</ele>
        <time>2020-06-28T06:17:54Z</time>
      </trkpt>
      <trkpt lat="48.97539" lon="8.15113">
        <ele>128.3</ele>
        <time>2020-06-28T06:17:55Z</time>
      </trkpt>
      <trkpt lat="48.97538" lon="8.15121">
        <ele>128.3</ele>
        <time>2020-06-28T06:17:56Z</time>
      </trkpt>
      <trkpt lat="48.97536" lon="8.15129">
        <ele>128.3</ele>
        <time>2020-06-28T06:17:57Z</time>
      </trkpt>
      <trkpt lat="48.97533" lon="8.15135">
        <ele>128.3</ele>
        <time>2020-06-28T06:17:58Z</time>
      </trkpt>
      <trkpt lat="48.97529" lon="8.15141">
        <ele>128.3</ele>
        <time>2020-06-28T06:17:59Z</time>
      </trkpt>
      <trkpt lat="48.97526" lon="8.15146">
        <ele>128.4</ele>
        <time>2020-06-28T06:18:00Z</time>
      </trkpt>
      <trkpt lat="48.97525" lon="8.15153">
        <ele>128.4</ele>
        <time>2020-06-28T06:18:01Z</time>
      </trkpt>
      <trkpt lat="48.97523" lon="8.15159">
        <ele>128.4</ele>
        <time>2020-06-28T06:18:02Z</time>
      </trkpt>
      <trkpt lat="48.97523" lon="8.15166">
        <ele>128.5</ele>
        <time>2020-06-28T06:18:03Z</time>
      </trkpt>
      <trkpt lat="48.97522" lon="8.15173">
        <ele>128.6</ele>
        <time>2020-06-28T06:18:04Z</time>
      </trkpt>
      <trkpt lat="48.97521" lon="8.15181">
        <ele>128.7</ele>
        <time>2020-06-28T06:18:05Z</time>
      </trkpt>
      <trkpt lat="48.9752" lon="8.15189">
        <ele>128.8</ele>
        <time>2020-06-28T06:18:06Z</time>
      </trkpt>
      <trkpt lat="48.97519" lon="8.15198">
        <ele>128.9</ele>
        <time>2020-06-28T06:18:07Z</time>
      </trkpt>
      <trkpt lat="48.97518" lon="8.15206">
        <ele>129.1</ele>
        <time>2020-06-28T06:18:08Z</time>
      </trkpt>
      <trkpt lat="48.97517" lon="8.15214">
        <ele>129.3</ele>
        <time>2020-06-28T06:18:09Z</time>
      </trkpt>
      <trkpt lat="48.97514" lon="8.15223">
        <ele>129.5</ele>
        <time>2020-06-28T06:18:10Z</time>
      </trkpt>
      <trkpt lat="48.97513" lon="8.15232">
        <ele>129.7</ele>
        <time>2020-06-28T06:18:11Z</time>
      </trkpt>
      <trkpt lat="48.97512" lon="8.15241">
        <ele>129.9</ele>
        <time>2020-06-28T06:18:12Z</time>
      </trkpt>
      <trkpt lat="48.9751" lon="8.1525">
        <ele>130.1</ele>
        <time>2020-06-28T06:18:13Z</time>
      </trkpt>
      <trkpt lat="48.9751" lon="8.15258">
        <ele>130.3</ele>
        <time>2020-06-28T06:18:14Z</time>
      </trkpt>
      <trkpt lat="48.97509" lon="8.15266">
        <ele>130.5</ele>
        <time>2020-06-28T06:18:15Z</time>
      </trkpt>
      <trkpt lat="48.97508" lon="8.15273">
        <ele>130.7</ele>
        <time>2020-06-28T06:18:16Z</time>
      </trkpt>
      <trkpt lat="48.97506" lon="8.1528">
        <ele>130.9</ele>
        <time>2020-06-28T06:18:17Z</time>
      </trkpt>
      <trkpt lat="48.97503" lon="8.15288">
        <ele>131.2</ele>
        <time>2020-06-28T06:18:18Z</time>
      </trkpt>
      <trkpt lat="48.97502" lon="8.15296">
        <ele>131.4</ele>
        <time>2020-06-28T06:18:19Z</time>
      </trkpt>
      <trkpt lat="48.975" lon="8.15304">
        <ele>131.5</ele>
        <time>2020-06-28T06:18:20Z</time>
      </trkpt>
      <trkpt lat="48.97498" lon="8.15312">
        <ele>131.7</ele>
        <time>2020-06-28T06:18:21Z</time>
      </trkpt>
      <trkpt lat="48.97496" lon="8.15319">
        <ele>131.9</ele>
        <time>2020-06-28T06:18:22Z</time>
      </trkpt>
      <trkpt lat="48.97495" lon="8.15327">
        <ele>132</ele>
        <time>2020-06-28T06:18:23Z</time>
      </trkpt>
      <trkpt lat="48.97493" lon="8.15334">
        <ele>132.1</ele>
        <time>2020-06-28T06:18:24Z</time>
      </trkpt>
      <trkpt lat="48.97491" lon="8.15343">
        <ele>132.2</ele>
        <time>2020-06-28T06:18:25Z</time>
      </trkpt>
      <trkpt lat="48.97489" lon="8.15352">
        <ele>132.3</ele>
        <time>2020-06-28T06:18:26Z</time>
      </trkpt>
      <trkpt lat="48.97487" lon="8.1536">
        <ele>132.4</ele>
        <time>2020-06-28T06:18:27Z</time>
      </trkpt>
      <trkpt lat="48.97485" lon="8.15368">
        <ele>132.5</ele>
        <time>2020-06-28T06:18:28Z</time>
      </trkpt>
      <trkpt lat="48.97483" lon="8.15376">
        <ele>132.5</ele>
        <time>2020-06-28T06:18:29Z</time>
      </trkpt>
      <trkpt lat="48.9748" lon="8.15386">
        <ele>132.6</ele>
        <time>2020-06-28T06:18:30Z</time>
      </trkpt>
      <trkpt lat="48.97478" lon="8.15393">
        <ele>132.6</ele>
        <time>2020-06-28T06:18:31Z</time>
      </trkpt>
      <trkpt lat="48.97475" lon="8.15401">
        <ele>132.6</ele>
        <time>2020-06-28T06:18:32Z</time>
      </trkpt>
      <trkpt lat="48.97474" lon="8.15407">
        <ele>132.6</ele>
        <time>2020-06-28T06:18:33Z</time>
      </trkpt>
      <trkpt lat="48.97472" lon="8.15414">
        <ele>132.6</ele>
        <time>2020-06-28T06:18:34Z</time>
      </trkpt>
      <trkpt lat="48.9747" lon="8.1542">
        <ele>132.6</ele>
        <time>2020-06-28T06:18:35Z</time>
      </trkpt>
      <trkpt lat="48.97469" lon="8.15426">
        <ele>132.6</ele>
        <time>2020-06-28T06:18:36Z</time>
      </trkpt>
      <trkpt lat="48.97468" lon="8.15432">
        <ele>132.6</ele>
        <time>2020-06-28T06:18:37Z</time>
      </trkpt>
      <trkpt lat="48.97467" lon="8.15438">
        <ele>132.6</ele>
        <time>2020-06-28T06:18:38Z</time>
      </trkpt>
      <trkpt lat="48.97465" lon="8.15444">
        <ele>132.6</ele>
        <time>2020-06-28T06:18:39Z</time>
      </trkpt>
      <trkpt lat="48.97463" lon="8.1545">
        <ele>132.6</ele>
        <time>2020-06-28T06:18:40Z</time>
      </trkpt>
      <trkpt lat="48.9746" lon="8.15456">
        <ele>132.5</ele>
        <time>2020-06-28T06:18:41Z</time>
      </trkpt>
      <trkpt lat="48.97459" lon="8.15463">
        <ele>132.5</ele>
        <time>2020-06-28T06:18:42Z</time>
      </trkpt>
      <trkpt lat="48.97457" lon="8.15471">
        <ele>132.5</ele>
        <time>2020-06-28T06:18:43Z</time>
      </trkpt>
      <trkpt lat="48.97456" lon="8.15476">
        <ele>132.4</ele>
        <time>2020-06-28T06:18:44Z</time>
      </trkpt>
      <trkpt lat="48.97454" lon="8.15483">
        <ele>132.4</ele>
        <time>2020-06-28T06:18:45Z</time>
      </trkpt>
      <trkpt lat="48.97453" lon="8.1549">
        <ele>132.3</ele>
        <time>2020-06-28T06:18:46Z</time>
      </trkpt>
      <trkpt lat="48.97452" lon="8.15498">
        <ele>132.2</ele>
        <time>2020-06-28T06:18:47Z</time>
      </trkpt>
      <trkpt lat="48.9745" lon="8.15507">
        <ele>132</ele>
        <time>2020-06-28T06:18:48Z</time>
      </trkpt>
      <trkpt lat="48.97448" lon="8.15516">
        <ele>131.8</ele>
        <time>2020-06-28T06:18:49Z</time>
      </trkpt>
      <trkpt lat="48.97445" lon="8.15525">
        <ele>131.6</ele>
        <time>2020-06-28T06:18:50Z</time>
      </trkpt>
      <trkpt lat="48.97443" lon="8.15533">
        <ele>131.5</ele>
        <time>2020-06-28T06:18:51Z</time>
      </trkpt>
      <trkpt lat="48.97442" lon="8.15542">
        <ele>131.3</ele>
        <time>2020-06-28T06:18:52Z</time>
      </trkpt>
      <trkpt lat="48.9744" lon="8.15549">
        <ele>131.1</ele>
        <time>2020-06-28T06:18:53Z</time>
      </trkpt>
      <trkpt lat="48.97439" lon="8.15556">
        <ele>130.9</ele>
        <time>2020-06-28T06:18:54Z</time>
      </trkpt>
      <trkpt lat="48.97436" lon="8.15565">
        <ele>130.7</ele>
        <time>2020-06-28T06:18:55Z</time>
      </trkpt>
      <trkpt lat="48.97435" lon="8.15573">
        <ele>130.5</ele>
        <time>2020-06-28T06:18:56Z</time>
      </trkpt>
      <trkpt lat="48.97433" lon="8.15581">
        <ele>130.2</ele>
        <time>2020-06-28T06:18:57Z</time>
      </trkpt>
      <trkpt lat="48.97431" lon="8.15591">
        <ele>129.9</ele>
        <time>2020-06-28T06:18:58Z</time>
      </trkpt>
      <trkpt lat="48.97428" lon="8.15603">
        <ele>129.6</ele>
        <time>2020-06-28T06:18:59Z</time>
      </trkpt>
      <trkpt lat="48.97426" lon="8.15613">
        <ele>129.2</ele>
        <time>2020-06-28T06:19:00Z</time>
      </trkpt>
      <trkpt lat="48.97424" lon="8.15624">
        <ele>128.9</ele>
        <time>2020-06-28T06:19:01Z</time>
      </trkpt>
      <trkpt lat="48.97421" lon="8.15635">
        <ele>128.5</ele>
        <time>2020-06-28T06:19:02Z</time>
      </trkpt>
      <trkpt lat="48.97419" lon="8.15646">
        <ele>128.2</ele>
        <time>2020-06-28T06:19:03Z</time>
      </trkpt>
      <trkpt lat="48.97416" lon="8.15657">
        <ele>127.9</ele>
        <time>2020-06-28T06:19:04Z</time>
      </trkpt>
      <trkpt lat="48.97413" lon="8.15669">
        <ele>127.6</ele>
        <time>2020-06-28T06:19:05Z</time>
      </trkpt>
      <trkpt lat="48.97411" lon="8.15681">
        <ele>127.3</ele>
        <time>2020-06-28T06:19:06Z</time>
      </trkpt>
      <trkpt lat="48.97408" lon="8.15692">
        <ele>127.2</ele>
        <time>2020-06-28T06:19:07Z</time>
      </trkpt>
      <trkpt lat="48.97406" lon="8.15703">
        <ele>127</ele>
        <time>2020-06-28T06:19:08Z</time>
      </trkpt>
      <trkpt lat="48.97406" lon="8.15712">
        <ele>126.9</ele>
        <time>2020-06-28T06:19:09Z</time>
      </trkpt>
      <trkpt lat="48.97408" lon="8.1572">
        <ele>126.8</ele>
        <time>2020-06-28T06:19:10Z</time>
      </trkpt>
      <trkpt lat="48.97412" lon="8.15725">
        <ele>126.7</ele>
        <time>2020-06-28T06:19:11Z</time>
      </trkpt>
      <trkpt lat="48.97415" lon="8.15731">
        <ele>126.6</ele>
        <time>2020-06-28T06:19:12Z</time>
      </trkpt>
      <trkpt lat="48.97418" lon="8.15737">
        <ele>126.6</ele>
        <time>2020-06-28T06:19:13Z</time>
      </trkpt>
      <trkpt lat="48.97419" lon="8.15744">
        <ele>126.5</ele>
        <time>2020-06-28T06:19:14Z</time>
      </trkpt>
      <trkpt lat="48.9742" lon="8.1575">
        <ele>126.5</ele>
        <time>2020-06-28T06:19:15Z</time>
      </trkpt>
      <trkpt lat="48.97421" lon="8.15756">
        <ele>126.5</ele>
        <time>2020-06-28T06:19:16Z</time>
      </trkpt>
      <trkpt lat="48.97423" lon="8.1576">
        <ele>126.4</ele>
        <time>2020-06-28T06:19:17Z</time>
      </trkpt>
      <trkpt lat="48.97425" lon="8.15764">
        <ele>126.4</ele>
        <time>2020-06-28T06:19:18Z</time>
      </trkpt>
      <trkpt lat="48.97429" lon="8.15763">
        <ele>126.3</ele>
        <time>2020-06-28T06:19:19Z</time>
      </trkpt>
      <trkpt lat="48.97433" lon="8.15763">
        <ele>126.2</ele>
        <time>2020-06-28T06:19:20Z</time>
      </trkpt>
      <trkpt lat="48.97437" lon="8.15766">
        <ele>126.1</ele>
        <time>2020-06-28T06:19:21Z</time>
      </trkpt>
      <trkpt lat="48.9744" lon="8.1577">
        <ele>126.1</ele>
        <time>2020-06-28T06:19:22Z</time>
      </trkpt>
      <trkpt lat="48.97442" lon="8.15776">
        <ele>126</ele>
        <time>2020-06-28T06:19:23Z</time>
      </trkpt>
      <trkpt lat="48.97443" lon="8.15783">
        <ele>126</ele>
        <time>2020-06-28T06:19:24Z</time>
      </trkpt>
      <trkpt lat="48.97443" lon="8.15789">
        <ele>126</ele>
        <time>2020-06-28T06:19:25Z</time>
      </trkpt>
      <trkpt lat="48.97444" lon="8.15796">
        <ele>125.9</ele>
        <time>2020-06-28T06:19:26Z</time>
      </trkpt>
      <trkpt lat="48.97444" lon="8.15804">
        <ele>125.9</ele>
        <time>2020-06-28T06:19:27Z</time>
      </trkpt>
      <trkpt lat="48.97445" lon="8.15811">
        <ele>125.9</ele>
        <time>2020-06-28T06:19:28Z</time>
      </trkpt>
      <trkpt lat="48.97445" lon="8.15818">
        <ele>125.8</ele>
        <time>2020-06-28T06:19:29Z</time>
      </trkpt>
      <trkpt lat="48.97445" lon="8.15825">
        <ele>125.8</ele>
        <time>2020-06-28T06:19:30Z</time>
      </trkpt>
      <trkpt lat="48.97443" lon="8.15831">
        <ele>125.8</ele>
        <time>2020-06-28T06:19:31Z</time>
      </trkpt>
      <trkpt lat="48.97441" lon="8.15837">
        <ele>125.8</ele>
        <time>2020-06-28T06:19:32Z</time>
      </trkpt>
      <trkpt lat="48.97439" lon="8.15842">
        <ele>125.9</ele>
        <time>2020-06-28T06:19:33Z</time>
      </trkpt>
      <trkpt lat="48.97436" lon="8.15848">
        <ele>125.9</ele>
        <time>2020-06-28T06:19:34Z</time>
      </trkpt>
      <trkpt lat="48.97435" lon="8.15853">
        <ele>125.9</ele>
        <time>2020-06-28T06:19:35Z</time>
      </trkpt>
      <trkpt lat="48.97435" lon="8.15858">
        <ele>125.9</ele>
        <time>2020-06-28T06:19:36Z</time>
      </trkpt>
      <trkpt lat="48.97437" lon="8.15862">
        <ele>125.9</ele>
        <time>2020-06-28T06:19:37Z</time>
      </trkpt>
      <trkpt lat="48.97439" lon="8.15868">
        <ele>125.9</ele>
        <time>2020-06-28T06:19:38Z</time>
      </trkpt>
      <trkpt lat="48.97443" lon="8.15871">
        <ele>125.8</ele>
        <time>2020-06-28T06:19:39Z</time>
      </trkpt>
      <trkpt lat="48.97446" lon="8.15876">
        <ele>125.7</ele>
        <time>2020-06-28T06:19:40Z</time>
      </trkpt>
      <trkpt lat="48.9745" lon="8.15881">
        <ele>125.6</ele>
        <time>2020-06-28T06:19:41Z</time>
      </trkpt>
      <trkpt lat="48.97455" lon="8.15885">
        <ele>125.6</ele>
        <time>2020-06-28T06:19:42Z</time>
      </trkpt>
      <trkpt lat="48.97459" lon="8.15888">
        <ele>125.6</ele>
        <time>2020-06-28T06:19:43Z</time>
      </trkpt>
      <trkpt lat="48.97464" lon="8.15892">
        <ele>125.6</ele>
        <time>2020-06-28T06:19:44Z</time>
      </trkpt>
      <trkpt lat="48.97469" lon="8.15895">
        <ele>125.6</ele>
        <time>2020-06-28T06:19:45Z</time>
      </trkpt>
      <trkpt lat="48.97473" lon="8.159">
        <ele>125.6</ele>
        <time>2020-06-28T06:19:46Z</time>
      </trkpt>
      <trkpt lat="48.97478" lon="8.15904">
        <ele>125.6</ele>
        <time>2020-06-28T06:19:47Z</time>
      </trkpt>
      <trkpt lat="48.97482" lon="8.15909">
        <ele>125.6</ele>
        <time>2020-06-28T06:19:48Z</time>
      </trkpt>
      <trkpt lat="48.97486" lon="8.15914">
        <ele>125.6</ele>
        <time>2020-06-28T06:19:49Z</time>
      </trkpt>
      <trkpt lat="48.97491" lon="8.15919">
        <ele>125.6</ele>
        <time>2020-06-28T06:19:50Z</time>
      </trkpt>
      <trkpt lat="48.97495" lon="8.15924">
        <ele>125.6</ele>
        <time>2020-06-28T06:19:51Z</time>
      </trkpt>
      <trkpt lat="48.975" lon="8.15929">
        <ele>125.7</ele>
        <time>2020-06-28T06:19:52Z</time>
      </trkpt>
      <trkpt lat="48.97505" lon="8.15933">
        <ele>125.7</ele>
        <time>2020-06-28T06:19:53Z</time>
      </trkpt>
      <trkpt lat="48.97509" lon="8.15938">
        <ele>125.7</ele>
        <time>2020-06-28T06:19:54Z</time>
      </trkpt>
      <trkpt lat="48.97513" lon="8.15945">
        <ele>125.7</ele>
        <time>2020-06-28T06:19:55Z</time>
      </trkpt>
      <trkpt lat="48.97517" lon="8.1595">
        <ele>125.7</ele>
        <time>2020-06-28T06:19:56Z</time>
      </trkpt>
      <trkpt lat="48.97522" lon="8.15953">
        <ele>125.8</ele>
        <time>2020-06-28T06:19:57Z</time>
      </trkpt>
      <trkpt lat="48.97527" lon="8.15958">
        <ele>125.8</ele>
        <time>2020-06-28T06:19:58Z</time>
      </trkpt>
      <trkpt lat="48.97531" lon="8.15963">
        <ele>125.8</ele>
        <time>2020-06-28T06:19:59Z</time>
      </trkpt>
      <trkpt lat="48.97536" lon="8.15967">
        <ele>125.8</ele>
        <time>2020-06-28T06:20:00Z</time>
      </trkpt>
      <trkpt lat="48.9754" lon="8.15973">
        <ele>125.8</ele>
        <time>2020-06-28T06:20:01Z</time>
      </trkpt>
      <trkpt lat="48.97546" lon="8.15978">
        <ele>125.8</ele>
        <time>2020-06-28T06:20:02Z</time>
      </trkpt>
      <trkpt lat="48.9755" lon="8.15982">
        <ele>125.8</ele>
        <time>2020-06-28T06:20:03Z</time>
      </trkpt>
      <trkpt lat="48.97555" lon="8.15987">
        <ele>125.8</ele>
        <time>2020-06-28T06:20:04Z</time>
      </trkpt>
      <trkpt lat="48.97561" lon="8.15994">
        <ele>125.8</ele>
        <time>2020-06-28T06:20:05Z</time>
      </trkpt>
      <trkpt lat="48.97565" lon="8.15998">
        <ele>125.8</ele>
        <time>2020-06-28T06:20:06Z</time>
      </trkpt>
      <trkpt lat="48.9757" lon="8.16002">
        <ele>125.8</ele>
        <time>2020-06-28T06:20:07Z</time>
      </trkpt>
      <trkpt lat="48.97575" lon="8.16005">
        <ele>125.9</ele>
        <time>2020-06-28T06:20:08Z</time>
      </trkpt>
      <trkpt lat="48.97578" lon="8.16009">
        <ele>125.9</ele>
        <time>2020-06-28T06:20:09Z</time>
      </trkpt>
      <trkpt lat="48.97582" lon="8.16014">
        <ele>125.9</ele>
        <time>2020-06-28T06:20:10Z</time>
      </trkpt>
      <trkpt lat="48.97583" lon="8.16019">
        <ele>126</ele>
        <time>2020-06-28T06:20:11Z</time>
      </trkpt>
      <trkpt lat="48.97584" lon="8.16021">
        <ele>126</ele>
        <time>2020-06-28T06:20:12Z</time>
      </trkpt>
      <trkpt lat="48.97581" lon="8.16026">
        <ele>126</ele>
        <time>2020-06-28T06:20:13Z</time>
      </trkpt>
      <trkpt lat="48.97581" lon="8.16029">
        <ele>126</ele>
        <time>2020-06-28T06:20:14Z</time>
      </trkpt>
      <trkpt lat="48.97581" lon="8.16035">
        <ele>126</ele>
        <time>2020-06-28T06:20:15Z</time>
      </trkpt>
      <trkpt lat="48.97581" lon="8.16038">
        <ele>125.9</ele>
        <time>2020-06-28T06:20:16Z</time>
      </trkpt>
      <trkpt lat="48.97581" lon="8.16044">
        <ele>125.9</ele>
        <time>2020-06-28T06:20:17Z</time>
      </trkpt>
      <trkpt lat="48.9758" lon="8.1605">
        <ele>125.8</ele>
        <time>2020-06-28T06:20:18Z</time>
      </trkpt>
      <trkpt lat="48.9758" lon="8.16055">
        <ele>125.7</ele>
        <time>2020-06-28T06:20:19Z</time>
      </trkpt>
      <trkpt lat="48.97579" lon="8.16067">
        <ele>125.6</ele>
        <time>2020-06-28T06:20:20Z</time>
      </trkpt>
      <trkpt lat="48.97579" lon="8.16073">
        <ele>125.5</ele>
        <time>2020-06-28T06:20:21Z</time>
      </trkpt>
      <trkpt lat="48.97578" lon="8.16077">
        <ele>125.5</ele>
        <time>2020-06-28T06:20:22Z</time>
      </trkpt>
      <trkpt lat="48.97579" lon="8.16084">
        <ele>125.4</ele>
        <time>2020-06-28T06:20:23Z</time>
      </trkpt>
      <trkpt lat="48.97579" lon="8.16086">
        <ele>125.4</ele>
        <time>2020-06-28T06:20:24Z</time>
      </trkpt>
      <trkpt lat="48.9758" lon="8.16094">
        <ele>125.3</ele>
        <time>2020-06-28T06:20:25Z</time>
      </trkpt>
      <trkpt lat="48.9758" lon="8.16101">
        <ele>125.2</ele>
        <time>2020-06-28T06:20:26Z</time>
      </trkpt>
      <trkpt lat="48.97581" lon="8.16107">
        <ele>125.2</ele>
        <time>2020-06-28T06:20:27Z</time>
      </trkpt>
      <trkpt lat="48.97581" lon="8.16112">
        <ele>125.1</ele>
        <time>2020-06-28T06:20:28Z</time>
      </trkpt>
      <trkpt lat="48.97582" lon="8.16117">
        <ele>125.1</ele>
        <time>2020-06-28T06:20:29Z</time>
      </trkpt>
      <trkpt lat="48.97582" lon="8.16124">
        <ele>125</ele>
        <time>2020-06-28T06:20:30Z</time>
      </trkpt>
      <trkpt lat="48.97582" lon="8.1613">
        <ele>125</ele>
        <time>2020-06-28T06:20:31Z</time>
      </trkpt>
      <trkpt lat="48.97582" lon="8.16139">
        <ele>125</ele>
        <time>2020-06-28T06:20:32Z</time>
      </trkpt>
      <trkpt lat="48.97582" lon="8.16147">
        <ele>125</ele>
        <time>2020-06-28T06:20:33Z</time>
      </trkpt>
      <trkpt lat="48.97582" lon="8.16157">
        <ele>125</ele>
        <time>2020-06-28T06:20:34Z</time>
      </trkpt>
      <trkpt lat="48.97581" lon="8.16166">
        <ele>125</ele>
        <time>2020-06-28T06:20:35Z</time>
      </trkpt>
      <trkpt lat="48.97582" lon="8.16174">
        <ele>125</ele>
        <time>2020-06-28T06:20:36Z</time>
      </trkpt>
      <trkpt lat="48.9758" lon="8.16184">
        <ele>125</ele>
        <time>2020-06-28T06:20:37Z</time>
      </trkpt>
      <trkpt lat="48.97581" lon="8.16188">
        <ele>125</ele>
        <time>2020-06-28T06:20:38Z</time>
      </trkpt>
      <trkpt lat="48.97582" lon="8.16196">
        <ele>125</ele>
        <time>2020-06-28T06:20:39Z</time>
      </trkpt>
      <trkpt lat="48.97583" lon="8.16207">
        <ele>125</ele>
        <time>2020-06-28T06:20:40Z</time>
      </trkpt>
      <trkpt lat="48.97583" lon="8.16215">
        <ele>125</ele>
        <time>2020-06-28T06:20:41Z</time>
      </trkpt>
      <trkpt lat="48.97583" lon="8.16222">
        <ele>125</ele>
        <time>2020-06-28T06:20:42Z</time>
      </trkpt>
      <trkpt lat="48.97583" lon="8.1623">
        <ele>125</ele>
        <time>2020-06-28T06:20:43Z</time>
      </trkpt>
      <trkpt lat="48.97584" lon="8.16239">
        <ele>125</ele>
        <time>2020-06-28T06:20:44Z</time>
      </trkpt>
      <trkpt lat="48.97584" lon="8.16251">
        <ele>125</ele>
        <time>2020-06-28T06:20:45Z</time>
      </trkpt>
      <trkpt lat="48.97583" lon="8.16259">
        <ele>125.1</ele>
        <time>2020-06-28T06:20:46Z</time>
      </trkpt>
      <trkpt lat="48.97584" lon="8.16272">
        <ele>125</ele>
        <time>2020-06-28T06:20:47Z</time>
      </trkpt>
      <trkpt lat="48.97584" lon="8.16282">
        <ele>125</ele>
        <time>2020-06-28T06:20:48Z</time>
      </trkpt>
      <trkpt lat="48.97583" lon="8.16293">
        <ele>125</ele>
        <time>2020-06-28T06:20:49Z</time>
      </trkpt>
      <trkpt lat="48.97582" lon="8.16303">
        <ele>125</ele>
        <time>2020-06-28T06:20:50Z</time>
      </trkpt>
      <trkpt lat="48.97582" lon="8.1631">
        <ele>125</ele>
        <time>2020-06-28T06:20:51Z</time>
      </trkpt>
      <trkpt lat="48.9758" lon="8.16321">
        <ele>125</ele>
        <time>2020-06-28T06:20:52Z</time>
      </trkpt>
      <trkpt lat="48.9758" lon="8.1633">
        <ele>125</ele>
        <time>2020-06-28T06:20:53Z</time>
      </trkpt>
      <trkpt lat="48.97579" lon="8.16341">
        <ele>125</ele>
        <time>2020-06-28T06:20:54Z</time>
      </trkpt>
      <trkpt lat="48.97579" lon="8.16349">
        <ele>125</ele>
        <time>2020-06-28T06:20:55Z</time>
      </trkpt>
      <trkpt lat="48.97578" lon="8.16357">
        <ele>125</ele>
        <time>2020-06-28T06:20:56Z</time>
      </trkpt>
      <trkpt lat="48.97578" lon="8.16367">
        <ele>125</ele>
        <time>2020-06-28T06:20:57Z</time>
      </trkpt>
      <trkpt lat="48.97577" lon="8.16374">
        <ele>125</ele>
        <time>2020-06-28T06:20:58Z</time>
      </trkpt>
      <trkpt lat="48.97577" lon="8.16382">
        <ele>124.9</ele>
        <time>2020-06-28T06:20:59Z</time>
      </trkpt>
      <trkpt lat="48.97576" lon="8.16391">
        <ele>124.9</ele>
        <time>2020-06-28T06:21:00Z</time>
      </trkpt>
      <trkpt lat="48.97575" lon="8.16398">
        <ele>124.9</ele>
        <time>2020-06-28T06:21:01Z</time>
      </trkpt>
      <trkpt lat="48.97574" lon="8.16407">
        <ele>124.9</ele>
        <time>2020-06-28T06:21:02Z</time>
      </trkpt>
      <trkpt lat="48.97573" lon="8.16416">
        <ele>124.9</ele>
        <time>2020-06-28T06:21:03Z</time>
      </trkpt>
      <trkpt lat="48.97571" lon="8.16424">
        <ele>124.8</ele>
        <time>2020-06-28T06:21:04Z</time>
      </trkpt>
      <trkpt lat="48.97571" lon="8.16433">
        <ele>124.8</ele>
        <time>2020-06-28T06:21:05Z</time>
      </trkpt>
      <trkpt lat="48.97571" lon="8.16442">
        <ele>124.8</ele>
        <time>2020-06-28T06:21:06Z</time>
      </trkpt>
      <trkpt lat="48.97571" lon="8.16453">
        <ele>124.8</ele>
        <time>2020-06-28T06:21:07Z</time>
      </trkpt>
      <trkpt lat="48.97573" lon="8.1646">
        <ele>124.8</ele>
        <time>2020-06-28T06:21:08Z</time>
      </trkpt>
      <trkpt lat="48.97573" lon="8.16469">
        <ele>124.8</ele>
        <time>2020-06-28T06:21:09Z</time>
      </trkpt>
      <trkpt lat="48.97574" lon="8.16479">
        <ele>124.8</ele>
        <time>2020-06-28T06:21:10Z</time>
      </trkpt>
      <trkpt lat="48.97575" lon="8.16488">
        <ele>124.8</ele>
        <time>2020-06-28T06:21:11Z</time>
      </trkpt>
      <trkpt lat="48.97576" lon="8.16498">
        <ele>124.8</ele>
        <time>2020-06-28T06:21:12Z</time>
      </trkpt>
      <trkpt lat="48.97577" lon="8.16507">
        <ele>124.8</ele>
        <time>2020-06-28T06:21:13Z</time>
      </trkpt>
      <trkpt lat="48.97577" lon="8.16518">
        <ele>124.8</ele>
        <time>2020-06-28T06:21:14Z</time>
      </trkpt>
      <trkpt lat="48.97576" lon="8.16528">
        <ele>124.8</ele>
        <time>2020-06-28T06:21:15Z</time>
      </trkpt>
      <trkpt lat="48.97575" lon="8.1654">
        <ele>124.7</ele>
        <time>2020-06-28T06:21:16Z</time>
      </trkpt>
      <trkpt lat="48.97573" lon="8.1655">
        <ele>124.7</ele>
        <time>2020-06-28T06:21:17Z</time>
      </trkpt>
      <trkpt lat="48.97572" lon="8.16559">
        <ele>124.7</ele>
        <time>2020-06-28T06:21:18Z</time>
      </trkpt>
      <trkpt lat="48.97571" lon="8.16569">
        <ele>124.7</ele>
        <time>2020-06-28T06:21:19Z</time>
      </trkpt>
      <trkpt lat="48.9757" lon="8.16579">
        <ele>124.7</ele>
        <time>2020-06-28T06:21:20Z</time>
      </trkpt>
      <trkpt lat="48.97569" lon="8.16589">
        <ele>124.7</ele>
        <time>2020-06-28T06:21:21Z</time>
      </trkpt>
      <trkpt lat="48.97568" lon="8.16599">
        <ele>124.7</ele>
        <time>2020-06-28T06:21:22Z</time>
      </trkpt>
      <trkpt lat="48.97566" lon="8.16609">
        <ele>124.7</ele>
        <time>2020-06-28T06:21:23Z</time>
      </trkpt>
      <trkpt lat="48.97565" lon="8.16619">
        <ele>124.7</ele>
        <time>2020-06-28T06:21:24Z</time>
      </trkpt>
      <trkpt lat="48.97564" lon="8.16629">
        <ele>124.7</ele>
        <time>2020-06-28T06:21:25Z</time>
      </trkpt>
      <trkpt lat="48.97562" lon="8.16637">
        <ele>124.7</ele>
        <time>2020-06-28T06:21:26Z</time>
      </trkpt>
      <trkpt lat="48.97561" lon="8.16646">
        <ele>124.7</ele>
        <time>2020-06-28T06:21:27Z</time>
      </trkpt>
      <trkpt lat="48.97561" lon="8.16655">
        <ele>124.7</ele>
        <time>2020-06-28T06:21:28Z</time>
      </trkpt>
      <trkpt lat="48.9756" lon="8.16661">
        <ele>124.7</ele>
        <time>2020-06-28T06:21:29Z</time>
      </trkpt>
      <trkpt lat="48.97559" lon="8.1667">
        <ele>124.7</ele>
        <time>2020-06-28T06:21:30Z</time>
      </trkpt>
      <trkpt lat="48.97557" lon="8.1668">
        <ele>124.7</ele>
        <time>2020-06-28T06:21:31Z</time>
      </trkpt>
      <trkpt lat="48.97556" lon="8.16688">
        <ele>124.7</ele>
        <time>2020-06-28T06:21:32Z</time>
      </trkpt>
      <trkpt lat="48.97555" lon="8.16696">
        <ele>124.7</ele>
        <time>2020-06-28T06:21:33Z</time>
      </trkpt>
      <trkpt lat="48.97555" lon="8.16703">
        <ele>124.7</ele>
        <time>2020-06-28T06:21:34Z</time>
      </trkpt>
      <trkpt lat="48.97555" lon="8.16712">
        <ele>124.7</ele>
        <time>2020-06-28T06:21:35Z</time>
      </trkpt>
      <trkpt lat="48.97556" lon="8.1672">
        <ele>124.7</ele>
        <time>2020-06-28T06:21:36Z</time>
      </trkpt>
      <trkpt lat="48.97556" lon="8.1673">
        <ele>124.7</ele>
        <time>2020-06-28T06:21:37Z</time>
      </trkpt>
      <trkpt lat="48.97556" lon="8.16738">
        <ele>124.6</ele>
        <time>2020-06-28T06:21:38Z</time>
      </trkpt>
      <trkpt lat="48.97557" lon="8.16747">
        <ele>124.6</ele>
        <time>2020-06-28T06:21:39Z</time>
      </trkpt>
      <trkpt lat="48.97558" lon="8.16757">
        <ele>124.6</ele>
        <time>2020-06-28T06:21:40Z</time>
      </trkpt>
      <trkpt lat="48.97559" lon="8.16766">
        <ele>124.5</ele>
        <time>2020-06-28T06:21:41Z</time>
      </trkpt>
      <trkpt lat="48.9756" lon="8.16775">
        <ele>124.5</ele>
        <time>2020-06-28T06:21:42Z</time>
      </trkpt>
      <trkpt lat="48.97562" lon="8.16784">
        <ele>124.5</ele>
        <time>2020-06-28T06:21:43Z</time>
      </trkpt>
      <trkpt lat="48.97562" lon="8.16793">
        <ele>124.4</ele>
        <time>2020-06-28T06:21:44Z</time>
      </trkpt>
      <trkpt lat="48.97563" lon="8.16802">
        <ele>124.4</ele>
        <time>2020-06-28T06:21:45Z</time>
      </trkpt>
      <trkpt lat="48.97563" lon="8.16811">
        <ele>124.4</ele>
        <time>2020-06-28T06:21:46Z</time>
      </trkpt>
      <trkpt lat="48.97564" lon="8.16821">
        <ele>124.4</ele>
        <time>2020-06-28T06:21:47Z</time>
      </trkpt>
      <trkpt lat="48.97564" lon="8.16829">
        <ele>124.5</ele>
        <time>2020-06-28T06:21:48Z</time>
      </trkpt>
      <trkpt lat="48.97565" lon="8.16837">
        <ele>124.5</ele>
        <time>2020-06-28T06:21:49Z</time>
      </trkpt>
      <trkpt lat="48.97565" lon="8.16845">
        <ele>124.4</ele>
        <time>2020-06-28T06:21:50Z</time>
      </trkpt>
      <trkpt lat="48.97565" lon="8.16855">
        <ele>124.4</ele>
        <time>2020-06-28T06:21:51Z</time>
      </trkpt>
      <trkpt lat="48.97564" lon="8.16863">
        <ele>124.4</ele>
        <time>2020-06-28T06:21:52Z</time>
      </trkpt>
      <trkpt lat="48.97563" lon="8.16871">
        <ele>124.4</ele>
        <time>2020-06-28T06:21:53Z</time>
      </trkpt>
      <trkpt lat="48.97559" lon="8.16879">
        <ele>124.4</ele>
        <time>2020-06-28T06:21:54Z</time>
      </trkpt>
      <trkpt lat="48.97554" lon="8.16885">
        <ele>124.4</ele>
        <time>2020-06-28T06:21:55Z</time>
      </trkpt>
      <trkpt lat="48.9755" lon="8.16891">
        <ele>124.5</ele>
        <time>2020-06-28T06:21:56Z</time>
      </trkpt>
      <trkpt lat="48.97547" lon="8.16899">
        <ele>124.5</ele>
        <time>2020-06-28T06:21:57Z</time>
      </trkpt>
      <trkpt lat="48.97543" lon="8.16906">
        <ele>124.5</ele>
        <time>2020-06-28T06:21:58Z</time>
      </trkpt>
      <trkpt lat="48.9754" lon="8.16913">
        <ele>124.5</ele>
        <time>2020-06-28T06:21:59Z</time>
      </trkpt>
      <trkpt lat="48.97537" lon="8.16921">
        <ele>124.5</ele>
        <time>2020-06-28T06:22:00Z</time>
      </trkpt>
      <trkpt lat="48.97534" lon="8.16928">
        <ele>124.5</ele>
        <time>2020-06-28T06:22:01Z</time>
      </trkpt>
      <trkpt lat="48.97533" lon="8.16936">
        <ele>124.6</ele>
        <time>2020-06-28T06:22:02Z</time>
      </trkpt>
      <trkpt lat="48.97531" lon="8.16945">
        <ele>124.6</ele>
        <time>2020-06-28T06:22:03Z</time>
      </trkpt>
      <trkpt lat="48.97528" lon="8.16954">
        <ele>124.6</ele>
        <time>2020-06-28T06:22:04Z</time>
      </trkpt>
      <trkpt lat="48.97526" lon="8.16961">
        <ele>124.6</ele>
        <time>2020-06-28T06:22:05Z</time>
      </trkpt>
      <trkpt lat="48.97525" lon="8.16972">
        <ele>124.6</ele>
        <time>2020-06-28T06:22:06Z</time>
      </trkpt>
      <trkpt lat="48.97525" lon="8.16978">
        <ele>124.6</ele>
        <time>2020-06-28T06:22:07Z</time>
      </trkpt>
      <trkpt lat="48.97525" lon="8.16989">
        <ele>124.6</ele>
        <time>2020-06-28T06:22:08Z</time>
      </trkpt>
      <trkpt lat="48.97524" lon="8.16998">
        <ele>124.6</ele>
        <time>2020-06-28T06:22:09Z</time>
      </trkpt>
      <trkpt lat="48.97524" lon="8.17009">
        <ele>124.6</ele>
        <time>2020-06-28T06:22:10Z</time>
      </trkpt>
      <trkpt lat="48.97524" lon="8.17019">
        <ele>124.6</ele>
        <time>2020-06-28T06:22:11Z</time>
      </trkpt>
      <trkpt lat="48.97524" lon="8.17027">
        <ele>124.6</ele>
        <time>2020-06-28T06:22:12Z</time>
      </trkpt>
      <trkpt lat="48.97524" lon="8.17036">
        <ele>124.7</ele>
        <time>2020-06-28T06:22:13Z</time>
      </trkpt>
      <trkpt lat="48.97524" lon="8.17043">
        <ele>124.7</ele>
        <time>2020-06-28T06:22:14Z</time>
      </trkpt>
      <trkpt lat="48.97524" lon="8.17049">
        <ele>124.7</ele>
        <time>2020-06-28T06:22:15Z</time>
      </trkpt>
      <trkpt lat="48.97523" lon="8.17055">
        <ele>124.7</ele>
        <time>2020-06-28T06:22:16Z</time>
      </trkpt>
      <trkpt lat="48.97522" lon="8.17063">
        <ele>124.8</ele>
        <time>2020-06-28T06:22:17Z</time>
      </trkpt>
      <trkpt lat="48.97521" lon="8.17069">
        <ele>124.8</ele>
        <time>2020-06-28T06:22:18Z</time>
      </trkpt>
      <trkpt lat="48.97521" lon="8.17077">
        <ele>124.7</ele>
        <time>2020-06-28T06:22:19Z</time>
      </trkpt>
      <trkpt lat="48.97521" lon="8.17084">
        <ele>124.7</ele>
        <time>2020-06-28T06:22:20Z</time>
      </trkpt>
      <trkpt lat="48.97521" lon="8.17093">
        <ele>124.6</ele>
        <time>2020-06-28T06:22:21Z</time>
      </trkpt>
      <trkpt lat="48.97521" lon="8.171">
        <ele>124.6</ele>
        <time>2020-06-28T06:22:22Z</time>
      </trkpt>
      <trkpt lat="48.97521" lon="8.17107">
        <ele>124.5</ele>
        <time>2020-06-28T06:22:23Z</time>
      </trkpt>
      <trkpt lat="48.97519" lon="8.17113">
        <ele>124.5</ele>
        <time>2020-06-28T06:22:24Z</time>
      </trkpt>
      <trkpt lat="48.97517" lon="8.17119">
        <ele>124.5</ele>
        <time>2020-06-28T06:22:25Z</time>
      </trkpt>
      <trkpt lat="48.97516" lon="8.17125">
        <ele>124.4</ele>
        <time>2020-06-28T06:22:26Z</time>
      </trkpt>
      <trkpt lat="48.97514" lon="8.1713">
        <ele>124.4</ele>
        <time>2020-06-28T06:22:27Z</time>
      </trkpt>
      <trkpt lat="48.97513" lon="8.17138">
        <ele>124.3</ele>
        <time>2020-06-28T06:22:28Z</time>
      </trkpt>
      <trkpt lat="48.97512" lon="8.17144">
        <ele>124.3</ele>
        <time>2020-06-28T06:22:29Z</time>
      </trkpt>
      <trkpt lat="48.97511" lon="8.17148">
        <ele>124.1</ele>
        <time>2020-06-28T06:22:30Z</time>
      </trkpt>
      <trkpt lat="48.97512" lon="8.17154">
        <ele>124.1</ele>
        <time>2020-06-28T06:22:31Z</time>
      </trkpt>
      <trkpt lat="48.97514" lon="8.17159">
        <ele>124</ele>
        <time>2020-06-28T06:22:32Z</time>
      </trkpt>
      <trkpt lat="48.97516" lon="8.1716">
        <ele>124</ele>
        <time>2020-06-28T06:22:33Z</time>
      </trkpt>
      <trkpt lat="48.9752" lon="8.17166">
        <ele>123.9</ele>
        <time>2020-06-28T06:22:34Z</time>
      </trkpt>
      <trkpt lat="48.97524" lon="8.17171">
        <ele>123.8</ele>
        <time>2020-06-28T06:22:35Z</time>
      </trkpt>
      <trkpt lat="48.97529" lon="8.17179">
        <ele>123.8</ele>
        <time>2020-06-28T06:22:36Z</time>
      </trkpt>
      <trkpt lat="48.97533" lon="8.17184">
        <ele>123.7</ele>
        <time>2020-06-28T06:22:37Z</time>
      </trkpt>
      <trkpt lat="48.97537" lon="8.17189">
        <ele>123.7</ele>
        <time>2020-06-28T06:22:38Z</time>
      </trkpt>
      <trkpt lat="48.9754" lon="8.17195">
        <ele>123.6</ele>
        <time>2020-06-28T06:22:39Z</time>
      </trkpt>
      <trkpt lat="48.97543" lon="8.17204">
        <ele>123.5</ele>
        <time>2020-06-28T06:22:40Z</time>
      </trkpt>
      <trkpt lat="48.97545" lon="8.17211">
        <ele>123.5</ele>
        <time>2020-06-28T06:22:41Z</time>
      </trkpt>
      <trkpt lat="48.97544" lon="8.17219">
        <ele>123.4</ele>
        <time>2020-06-28T06:22:42Z</time>
      </trkpt>
      <trkpt lat="48.97543" lon="8.17228">
        <ele>123.3</ele>
        <time>2020-06-28T06:22:43Z</time>
      </trkpt>
      <trkpt lat="48.97542" lon="8.17236">
        <ele>123.2</ele>
        <time>2020-06-28T06:22:44Z</time>
      </trkpt>
      <trkpt lat="48.97541" lon="8.17243">
        <ele>123.2</ele>
        <time>2020-06-28T06:22:45Z</time>
      </trkpt>
      <trkpt lat="48.97539" lon="8.17251">
        <ele>123.2</ele>
        <time>2020-06-28T06:22:46Z</time>
      </trkpt>
      <trkpt lat="48.97538" lon="8.17258">
        <ele>123.2</ele>
        <time>2020-06-28T06:22:47Z</time>
      </trkpt>
      <trkpt lat="48.97536" lon="8.17267">
        <ele>123.2</ele>
        <time>2020-06-28T06:22:48Z</time>
      </trkpt>
      <trkpt lat="48.97535" lon="8.17276">
        <ele>123.2</ele>
        <time>2020-06-28T06:22:49Z</time>
      </trkpt>
      <trkpt lat="48.97532" lon="8.17283">
        <ele>123.2</ele>
        <time>2020-06-28T06:22:50Z</time>
      </trkpt>
      <trkpt lat="48.9753" lon="8.17293">
        <ele>123.3</ele>
        <time>2020-06-28T06:22:51Z</time>
      </trkpt>
      <trkpt lat="48.97528" lon="8.17302">
        <ele>123.3</ele>
        <time>2020-06-28T06:22:52Z</time>
      </trkpt>
      <trkpt lat="48.97525" lon="8.17309">
        <ele>123.3</ele>
        <time>2020-06-28T06:22:53Z</time>
      </trkpt>
      <trkpt lat="48.97524" lon="8.17315">
        <ele>123.4</ele>
        <time>2020-06-28T06:22:54Z</time>
      </trkpt>
      <trkpt lat="48.97521" lon="8.17322">
        <ele>123.4</ele>
        <time>2020-06-28T06:22:55Z</time>
      </trkpt>
      <trkpt lat="48.97519" lon="8.17328">
        <ele>123.4</ele>
        <time>2020-06-28T06:22:56Z</time>
      </trkpt>
      <trkpt lat="48.97517" lon="8.17333">
        <ele>123.4</ele>
        <time>2020-06-28T06:22:57Z</time>
      </trkpt>
      <trkpt lat="48.97514" lon="8.17342">
        <ele>123.5</ele>
        <time>2020-06-28T06:22:58Z</time>
      </trkpt>
      <trkpt lat="48.97512" lon="8.17348">
        <ele>123.5</ele>
        <time>2020-06-28T06:22:59Z</time>
      </trkpt>
      <trkpt lat="48.97511" lon="8.17353">
        <ele>123.6</ele>
        <time>2020-06-28T06:23:00Z</time>
      </trkpt>
      <trkpt lat="48.9751" lon="8.17363">
        <ele>123.5</ele>
        <time>2020-06-28T06:23:01Z</time>
      </trkpt>
      <trkpt lat="48.9751" lon="8.17372">
        <ele>123.5</ele>
        <time>2020-06-28T06:23:02Z</time>
      </trkpt>
      <trkpt lat="48.9751" lon="8.17381">
        <ele>123.4</ele>
        <time>2020-06-28T06:23:03Z</time>
      </trkpt>
      <trkpt lat="48.97511" lon="8.17391">
        <ele>123.4</ele>
        <time>2020-06-28T06:23:04Z</time>
      </trkpt>
      <trkpt lat="48.97513" lon="8.174">
        <ele>123.4</ele>
        <time>2020-06-28T06:23:05Z</time>
      </trkpt>
      <trkpt lat="48.97515" lon="8.17407">
        <ele>123.3</ele>
        <time>2020-06-28T06:23:06Z</time>
      </trkpt>
      <trkpt lat="48.97517" lon="8.17417">
        <ele>123.3</ele>
        <time>2020-06-28T06:23:07Z</time>
      </trkpt>
      <trkpt lat="48.97518" lon="8.17426">
        <ele>123.2</ele>
        <time>2020-06-28T06:23:08Z</time>
      </trkpt>
      <trkpt lat="48.97519" lon="8.17436">
        <ele>123.2</ele>
        <time>2020-06-28T06:23:09Z</time>
      </trkpt>
      <trkpt lat="48.9752" lon="8.17445">
        <ele>123.2</ele>
        <time>2020-06-28T06:23:10Z</time>
      </trkpt>
      <trkpt lat="48.97522" lon="8.17454">
        <ele>123.2</ele>
        <time>2020-06-28T06:23:11Z</time>
      </trkpt>
      <trkpt lat="48.97522" lon="8.17461">
        <ele>123.2</ele>
        <time>2020-06-28T06:23:12Z</time>
      </trkpt>
      <trkpt lat="48.97522" lon="8.17472">
        <ele>123.2</ele>
        <time>2020-06-28T06:23:13Z</time>
      </trkpt>
      <trkpt lat="48.97521" lon="8.17484">
        <ele>123.2</ele>
        <time>2020-06-28T06:23:14Z</time>
      </trkpt>
      <trkpt lat="48.97521" lon="8.17497">
        <ele>123.3</ele>
        <time>2020-06-28T06:23:15Z</time>
      </trkpt>
      <trkpt lat="48.9752" lon="8.17507">
        <ele>123.3</ele>
        <time>2020-06-28T06:23:16Z</time>
      </trkpt>
      <trkpt lat="48.97519" lon="8.17521">
        <ele>123.3</ele>
        <time>2020-06-28T06:23:17Z</time>
      </trkpt>
      <trkpt lat="48.97519" lon="8.17532">
        <ele>123.3</ele>
        <time>2020-06-28T06:23:18Z</time>
      </trkpt>
      <trkpt lat="48.97517" lon="8.17545">
        <ele>123.2</ele>
        <time>2020-06-28T06:23:19Z</time>
      </trkpt>
      <trkpt lat="48.97516" lon="8.17555">
        <ele>123.2</ele>
        <time>2020-06-28T06:23:20Z</time>
      </trkpt>
      <trkpt lat="48.97513" lon="8.17565">
        <ele>123.1</ele>
        <time>2020-06-28T06:23:21Z</time>
      </trkpt>
      <trkpt lat="48.97511" lon="8.17574">
        <ele>123</ele>
        <time>2020-06-28T06:23:22Z</time>
      </trkpt>
      <trkpt lat="48.97509" lon="8.17584">
        <ele>122.9</ele>
        <time>2020-06-28T06:23:23Z</time>
      </trkpt>
      <trkpt lat="48.97507" lon="8.17593">
        <ele>122.8</ele>
        <time>2020-06-28T06:23:24Z</time>
      </trkpt>
      <trkpt lat="48.97504" lon="8.17604">
        <ele>122.7</ele>
        <time>2020-06-28T06:23:25Z</time>
      </trkpt>
      <trkpt lat="48.97502" lon="8.17614">
        <ele>122.6</ele>
        <time>2020-06-28T06:23:26Z</time>
      </trkpt>
      <trkpt lat="48.97498" lon="8.17622">
        <ele>122.6</ele>
        <time>2020-06-28T06:23:27Z</time>
      </trkpt>
      <trkpt lat="48.97496" lon="8.1763">
        <ele>122.5</ele>
        <time>2020-06-28T06:23:28Z</time>
      </trkpt>
      <trkpt lat="48.97493" lon="8.17638">
        <ele>122.4</ele>
        <time>2020-06-28T06:23:29Z</time>
      </trkpt>
      <trkpt lat="48.97491" lon="8.17645">
        <ele>122.4</ele>
        <time>2020-06-28T06:23:30Z</time>
      </trkpt>
      <trkpt lat="48.97489" lon="8.1765">
        <ele>122.3</ele>
        <time>2020-06-28T06:23:31Z</time>
      </trkpt>
      <trkpt lat="48.97487" lon="8.17653">
        <ele>122.3</ele>
        <time>2020-06-28T06:23:32Z</time>
      </trkpt>
      <trkpt lat="48.97486" lon="8.17654">
        <ele>122.3</ele>
        <time>2020-06-28T06:23:33Z</time>
      </trkpt>
      <trkpt lat="48.97484" lon="8.17655">
        <ele>122.3</ele>
        <time>2020-06-28T06:23:34Z</time>
      </trkpt>
      <trkpt lat="48.97483" lon="8.17656">
        <ele>122.2</ele>
        <time>2020-06-28T06:23:35Z</time>
      </trkpt>
      <trkpt lat="48.97482" lon="8.17658">
        <ele>122.2</ele>
        <time>2020-06-28T06:23:36Z</time>
      </trkpt>
      <trkpt lat="48.97481" lon="8.17659">
        <ele>122.2</ele>
        <time>2020-06-28T06:23:37Z</time>
      </trkpt>
      <trkpt lat="48.97479" lon="8.17661">
        <ele>122.2</ele>
        <time>2020-06-28T06:23:38Z</time>
      </trkpt>
      <trkpt lat="48.97478" lon="8.17663">
        <ele>122.2</ele>
        <time>2020-06-28T06:23:39Z</time>
      </trkpt>
      <trkpt lat="48.97476" lon="8.17668">
        <ele>122.1</ele>
        <time>2020-06-28T06:23:40Z</time>
      </trkpt>
      <trkpt lat="48.97475" lon="8.1767">
        <ele>122.1</ele>
        <time>2020-06-28T06:23:41Z</time>
      </trkpt>
      <trkpt lat="48.97473" lon="8.17674">
        <ele>122</ele>
        <time>2020-06-28T06:23:42Z</time>
      </trkpt>
      <trkpt lat="48.97473" lon="8.17675">
        <ele>122</ele>
        <time>2020-06-28T06:23:43Z</time>
      </trkpt>
      <trkpt lat="48.97471" lon="8.1768">
        <ele>121.9</ele>
        <time>2020-06-28T06:23:44Z</time>
      </trkpt>
      <trkpt lat="48.9747" lon="8.17681">
        <ele>121.9</ele>
        <time>2020-06-28T06:23:45Z</time>
      </trkpt>
      <trkpt lat="48.97468" lon="8.17685">
        <ele>121.8</ele>
        <time>2020-06-28T06:23:46Z</time>
      </trkpt>
      <trkpt lat="48.97466" lon="8.17688">
        <ele>121.8</ele>
        <time>2020-06-28T06:23:47Z</time>
      </trkpt>
      <trkpt lat="48.97464" lon="8.17691">
        <ele>121.7</ele>
        <time>2020-06-28T06:23:48Z</time>
      </trkpt>
      <trkpt lat="48.97462" lon="8.17694">
        <ele>121.7</ele>
        <time>2020-06-28T06:23:49Z</time>
      </trkpt>
      <trkpt lat="48.97459" lon="8.17696">
        <ele>121.6</ele>
        <time>2020-06-28T06:23:50Z</time>
      </trkpt>
      <trkpt lat="48.97457" lon="8.17699">
        <ele>121.6</ele>
        <time>2020-06-28T06:23:51Z</time>
      </trkpt>
      <trkpt lat="48.97455" lon="8.17702">
        <ele>121.6</ele>
        <time>2020-06-28T06:23:52Z</time>
      </trkpt>
      <trkpt lat="48.97452" lon="8.17705">
        <ele>121.5</ele>
        <time>2020-06-28T06:23:53Z</time>
      </trkpt>
      <trkpt lat="48.97451" lon="8.1771">
        <ele>121.4</ele>
        <time>2020-06-28T06:23:54Z</time>
      </trkpt>
      <trkpt lat="48.97451" lon="8.17712">
        <ele>121.4</ele>
        <time>2020-06-28T06:23:55Z</time>
      </trkpt>
      <trkpt lat="48.97449" lon="8.17718">
        <ele>121.4</ele>
        <time>2020-06-28T06:23:56Z</time>
      </trkpt>
      <trkpt lat="48.97448" lon="8.17721">
        <ele>121.3</ele>
        <time>2020-06-28T06:23:57Z</time>
      </trkpt>
      <trkpt lat="48.97446" lon="8.17726">
        <ele>121.3</ele>
        <time>2020-06-28T06:23:58Z</time>
      </trkpt>
      <trkpt lat="48.97447" lon="8.17732">
        <ele>121.3</ele>
        <time>2020-06-28T06:23:59Z</time>
      </trkpt>
      <trkpt lat="48.97447" lon="8.17738">
        <ele>121.2</ele>
        <time>2020-06-28T06:24:00Z</time>
      </trkpt>
      <trkpt lat="48.97445" lon="8.17743">
        <ele>121.1</ele>
        <time>2020-06-28T06:24:01Z</time>
      </trkpt>
      <trkpt lat="48.97444" lon="8.17748">
        <ele>120.9</ele>
        <time>2020-06-28T06:24:02Z</time>
      </trkpt>
      <trkpt lat="48.97443" lon="8.17754">
        <ele>120.8</ele>
        <time>2020-06-28T06:24:03Z</time>
      </trkpt>
      <trkpt lat="48.97442" lon="8.17759">
        <ele>120.6</ele>
        <time>2020-06-28T06:24:04Z</time>
      </trkpt>
      <trkpt lat="48.97442" lon="8.17765">
        <ele>120.5</ele>
        <time>2020-06-28T06:24:05Z</time>
      </trkpt>
      <trkpt lat="48.97442" lon="8.1777">
        <ele>120.4</ele>
        <time>2020-06-28T06:24:06Z</time>
      </trkpt>
      <trkpt lat="48.97441" lon="8.17775">
        <ele>120.2</ele>
        <time>2020-06-28T06:24:07Z</time>
      </trkpt>
      <trkpt lat="48.97441" lon="8.1778">
        <ele>120.1</ele>
        <time>2020-06-28T06:24:08Z</time>
      </trkpt>
      <trkpt lat="48.9744" lon="8.17785">
        <ele>120</ele>
        <time>2020-06-28T06:24:09Z</time>
      </trkpt>
      <trkpt lat="48.97439" lon="8.17789">
        <ele>119.8</ele>
        <time>2020-06-28T06:24:10Z</time>
      </trkpt>
      <trkpt lat="48.9744" lon="8.17794">
        <ele>119.7</ele>
        <time>2020-06-28T06:24:11Z</time>
      </trkpt>
      <trkpt lat="48.97439" lon="8.17799">
        <ele>119.6</ele>
        <time>2020-06-28T06:24:12Z</time>
      </trkpt>
      <trkpt lat="48.97438" lon="8.17804">
        <ele>119.5</ele>
        <time>2020-06-28T06:24:13Z</time>
      </trkpt>
      <trkpt lat="48.97437" lon="8.17809">
        <ele>119.4</ele>
        <time>2020-06-28T06:24:14Z</time>
      </trkpt>
      <trkpt lat="48.97438" lon="8.17814">
        <ele>119.3</ele>
        <time>2020-06-28T06:24:15Z</time>
      </trkpt>
      <trkpt lat="48.97436" lon="8.17819">
        <ele>119.1</ele>
        <time>2020-06-28T06:24:16Z</time>
      </trkpt>
      <trkpt lat="48.97436" lon="8.17824">
        <ele>119</ele>
        <time>2020-06-28T06:24:17Z</time>
      </trkpt>
      <trkpt lat="48.97437" lon="8.17828">
        <ele>118.9</ele>
        <time>2020-06-28T06:24:18Z</time>
      </trkpt>
      <trkpt lat="48.97438" lon="8.17832">
        <ele>118.8</ele>
        <time>2020-06-28T06:24:19Z</time>
      </trkpt>
      <trkpt lat="48.97439" lon="8.17837">
        <ele>118.7</ele>
        <time>2020-06-28T06:24:20Z</time>
      </trkpt>
      <trkpt lat="48.9744" lon="8.17839">
        <ele>118.6</ele>
        <time>2020-06-28T06:24:21Z</time>
      </trkpt>
      <trkpt lat="48.97441" lon="8.17843">
        <ele>118.5</ele>
        <time>2020-06-28T06:24:22Z</time>
      </trkpt>
      <trkpt lat="48.9744" lon="8.17847">
        <ele>118.4</ele>
        <time>2020-06-28T06:24:23Z</time>
      </trkpt>
      <trkpt lat="48.97441" lon="8.17848">
        <ele>118.4</ele>
        <time>2020-06-28T06:24:24Z</time>
      </trkpt>
      <trkpt lat="48.97443" lon="8.17851">
        <ele>118.3</ele>
        <time>2020-06-28T06:24:25Z</time>
      </trkpt>
      <trkpt lat="48.97444" lon="8.17851">
        <ele>118.2</ele>
        <time>2020-06-28T06:24:26Z</time>
      </trkpt>
      <trkpt lat="48.97447" lon="8.17851">
        <ele>118.1</ele>
        <time>2020-06-28T06:24:27Z</time>
      </trkpt>
      <trkpt lat="48.97447" lon="8.17851">
        <ele>118.1</ele>
        <time>2020-06-28T06:24:28Z</time>
      </trkpt>
      <trkpt lat="48.97447" lon="8.17851">
        <ele>118.1</ele>
        <time>2020-06-28T06:24:29Z</time>
      </trkpt>
      <trkpt lat="48.97447" lon="8.17851">
        <ele>118.1</ele>
        <time>2020-06-28T06:24:30Z</time>
      </trkpt>
      <trkpt lat="48.97447" lon="8.17851">
        <ele>118.1</ele>
        <time>2020-06-28T06:24:31Z</time>
      </trkpt>
      <trkpt lat="48.97447" lon="8.1785">
        <ele>118</ele>
        <time>2020-06-28T06:24:32Z</time>
      </trkpt>
      <trkpt lat="48.97447" lon="8.17851">
        <ele>118</ele>
        <time>2020-06-28T06:24:33Z</time>
      </trkpt>
      <trkpt lat="48.97446" lon="8.17851">
        <ele>118</ele>
        <time>2020-06-28T06:24:34Z</time>
      </trkpt>
      <trkpt lat="48.97444" lon="8.17852">
        <ele>117.9</ele>
        <time>2020-06-28T06:24:35Z</time>
      </trkpt>
      <trkpt lat="48.97444" lon="8.17856">
        <ele>117.8</ele>
        <time>2020-06-28T06:24:36Z</time>
      </trkpt>
      <trkpt lat="48.97444" lon="8.17858">
        <ele>117.8</ele>
        <time>2020-06-28T06:24:37Z</time>
      </trkpt>
      <trkpt lat="48.97443" lon="8.1786">
        <ele>117.7</ele>
        <time>2020-06-28T06:24:38Z</time>
      </trkpt>
      <trkpt lat="48.97443" lon="8.17864">
        <ele>117.6</ele>
        <time>2020-06-28T06:24:39Z</time>
      </trkpt>
      <trkpt lat="48.97443" lon="8.17869">
        <ele>117.5</ele>
        <time>2020-06-28T06:24:40Z</time>
      </trkpt>
      <trkpt lat="48.97443" lon="8.17874">
        <ele>117.4</ele>
        <time>2020-06-28T06:24:41Z</time>
      </trkpt>
      <trkpt lat="48.97444" lon="8.17879">
        <ele>117.3</ele>
        <time>2020-06-28T06:24:42Z</time>
      </trkpt>
      <trkpt lat="48.97445" lon="8.17883">
        <ele>117.2</ele>
        <time>2020-06-28T06:24:43Z</time>
      </trkpt>
      <trkpt lat="48.97446" lon="8.17888">
        <ele>117.1</ele>
        <time>2020-06-28T06:24:44Z</time>
      </trkpt>
      <trkpt lat="48.97446" lon="8.17893">
        <ele>117</ele>
        <time>2020-06-28T06:24:45Z</time>
      </trkpt>
      <trkpt lat="48.97447" lon="8.17898">
        <ele>116.9</ele>
        <time>2020-06-28T06:24:46Z</time>
      </trkpt>
      <trkpt lat="48.97448" lon="8.17903">
        <ele>116.8</ele>
        <time>2020-06-28T06:24:47Z</time>
      </trkpt>
      <trkpt lat="48.97448" lon="8.17908">
        <ele>116.7</ele>
        <time>2020-06-28T06:24:48Z</time>
      </trkpt>
      <trkpt lat="48.97449" lon="8.17913">
        <ele>116.7</ele>
        <time>2020-06-28T06:24:49Z</time>
      </trkpt>
      <trkpt lat="48.9745" lon="8.17918">
        <ele>116.6</ele>
        <time>2020-06-28T06:24:50Z</time>
      </trkpt>
      <trkpt lat="48.9745" lon="8.17923">
        <ele>116.5</ele>
        <time>2020-06-28T06:24:51Z</time>
      </trkpt>
      <trkpt lat="48.97451" lon="8.17928">
        <ele>116.4</ele>
        <time>2020-06-28T06:24:52Z</time>
      </trkpt>
      <trkpt lat="48.97452" lon="8.17933">
        <ele>116.3</ele>
        <time>2020-06-28T06:24:53Z</time>
      </trkpt>
      <trkpt lat="48.97453" lon="8.17939">
        <ele>116.3</ele>
        <time>2020-06-28T06:24:54Z</time>
      </trkpt>
      <trkpt lat="48.97454" lon="8.17944">
        <ele>116.2</ele>
        <time>2020-06-28T06:24:55Z</time>
      </trkpt>
      <trkpt lat="48.97454" lon="8.1795">
        <ele>116.1</ele>
        <time>2020-06-28T06:24:56Z</time>
      </trkpt>
      <trkpt lat="48.97456" lon="8.17955">
        <ele>116.1</ele>
        <time>2020-06-28T06:24:57Z</time>
      </trkpt>
      <trkpt lat="48.97457" lon="8.1796">
        <ele>116</ele>
        <time>2020-06-28T06:24:58Z</time>
      </trkpt>
      <trkpt lat="48.9746" lon="8.17965">
        <ele>116</ele>
        <time>2020-06-28T06:24:59Z</time>
      </trkpt>
      <trkpt lat="48.97463" lon="8.1797">
        <ele>115.9</ele>
        <time>2020-06-28T06:25:00Z</time>
      </trkpt>
      <trkpt lat="48.97465" lon="8.17976">
        <ele>115.8</ele>
        <time>2020-06-28T06:25:01Z</time>
      </trkpt>
      <trkpt lat="48.97468" lon="8.17982">
        <ele>115.8</ele>
        <time>2020-06-28T06:25:02Z</time>
      </trkpt>
      <trkpt lat="48.9747" lon="8.17988">
        <ele>115.7</ele>
        <time>2020-06-28T06:25:03Z</time>
      </trkpt>
      <trkpt lat="48.97472" lon="8.17994">
        <ele>115.7</ele>
        <time>2020-06-28T06:25:04Z</time>
      </trkpt>
      <trkpt lat="48.97474" lon="8.17999">
        <ele>115.7</ele>
        <time>2020-06-28T06:25:05Z</time>
      </trkpt>
      <trkpt lat="48.97474" lon="8.18003">
        <ele>115.7</ele>
        <time>2020-06-28T06:25:06Z</time>
      </trkpt>
      <trkpt lat="48.97474" lon="8.18006">
        <ele>115.7</ele>
        <time>2020-06-28T06:25:07Z</time>
      </trkpt>
      <trkpt lat="48.97474" lon="8.18008">
        <ele>115.7</ele>
        <time>2020-06-28T06:25:08Z</time>
      </trkpt>
      <trkpt lat="48.97475" lon="8.18011">
        <ele>115.7</ele>
        <time>2020-06-28T06:25:09Z</time>
      </trkpt>
      <trkpt lat="48.97475" lon="8.18013">
        <ele>115.7</ele>
        <time>2020-06-28T06:25:10Z</time>
      </trkpt>
      <trkpt lat="48.97475" lon="8.18015">
        <ele>115.7</ele>
        <time>2020-06-28T06:25:11Z</time>
      </trkpt>
      <trkpt lat="48.97475" lon="8.18018">
        <ele>115.7</ele>
        <time>2020-06-28T06:25:12Z</time>
      </trkpt>
      <trkpt lat="48.97475" lon="8.1802">
        <ele>115.7</ele>
        <time>2020-06-28T06:25:13Z</time>
      </trkpt>
      <trkpt lat="48.97477" lon="8.18022">
        <ele>115.7</ele>
        <time>2020-06-28T06:25:14Z</time>
      </trkpt>
      <trkpt lat="48.97478" lon="8.18025">
        <ele>115.7</ele>
        <time>2020-06-28T06:25:15Z</time>
      </trkpt>
      <trkpt lat="48.97479" lon="8.18026">
        <ele>115.6</ele>
        <time>2020-06-28T06:25:16Z</time>
      </trkpt>
      <trkpt lat="48.9748" lon="8.18027">
        <ele>115.6</ele>
        <time>2020-06-28T06:25:17Z</time>
      </trkpt>
      <trkpt lat="48.97481" lon="8.18028">
        <ele>115.6</ele>
        <time>2020-06-28T06:25:18Z</time>
      </trkpt>
      <trkpt lat="48.97482" lon="8.18029">
        <ele>115.6</ele>
        <time>2020-06-28T06:25:19Z</time>
      </trkpt>
      <trkpt lat="48.97482" lon="8.1803">
        <ele>115.6</ele>
        <time>2020-06-28T06:25:20Z</time>
      </trkpt>
      <trkpt lat="48.97483" lon="8.1803">
        <ele>115.6</ele>
        <time>2020-06-28T06:25:21Z</time>
      </trkpt>
      <trkpt lat="48.97485" lon="8.18032">
        <ele>115.6</ele>
        <time>2020-06-28T06:25:22Z</time>
      </trkpt>
      <trkpt lat="48.97485" lon="8.18033">
        <ele>115.6</ele>
        <time>2020-06-28T06:25:23Z</time>
      </trkpt>
      <trkpt lat="48.97486" lon="8.18034">
        <ele>115.6</ele>
        <time>2020-06-28T06:25:24Z</time>
      </trkpt>
      <trkpt lat="48.97487" lon="8.18036">
        <ele>115.6</ele>
        <time>2020-06-28T06:25:25Z</time>
      </trkpt>
      <trkpt lat="48.97488" lon="8.18038">
        <ele>115.6</ele>
        <time>2020-06-28T06:25:26Z</time>
      </trkpt>
      <trkpt lat="48.97489" lon="8.18039">
        <ele>115.6</ele>
        <time>2020-06-28T06:25:27Z</time>
      </trkpt>
      <trkpt lat="48.9749" lon="8.1804">
        <ele>115.6</ele>
        <time>2020-06-28T06:25:28Z</time>
      </trkpt>
      <trkpt lat="48.9749" lon="8.18042">
        <ele>115.6</ele>
        <time>2020-06-28T06:25:29Z</time>
      </trkpt>
      <trkpt lat="48.9749" lon="8.18044">
        <ele>115.6</ele>
        <time>2020-06-28T06:25:30Z</time>
      </trkpt>
      <trkpt lat="48.9749" lon="8.18046">
        <ele>115.6</ele>
        <time>2020-06-28T06:25:31Z</time>
      </trkpt>
      <trkpt lat="48.9749" lon="8.18047">
        <ele>115.6</ele>
        <time>2020-06-28T06:25:32Z</time>
      </trkpt>
      <trkpt lat="48.97491" lon="8.18049">
        <ele>115.6</ele>
        <time>2020-06-28T06:25:33Z</time>
      </trkpt>
      <trkpt lat="48.97491" lon="8.18051">
        <ele>115.6</ele>
        <time>2020-06-28T06:25:34Z</time>
      </trkpt>
      <trkpt lat="48.97491" lon="8.18052">
        <ele>115.6</ele>
        <time>2020-06-28T06:25:35Z</time>
      </trkpt>
      <trkpt lat="48.97491" lon="8.18054">
        <ele>115.6</ele>
        <time>2020-06-28T06:28:45Z</time>
      </trkpt>
      <trkpt lat="48.97491" lon="8.18055">
        <ele>115.6</ele>
        <time>2020-06-28T06:28:46Z</time>
      </trkpt>
      <trkpt lat="48.97491" lon="8.18057">
        <ele>115.6</ele>
        <time>2020-06-28T06:28:47Z</time>
      </trkpt>
      <trkpt lat="48.9749" lon="8.18058">
        <ele>115.5</ele>
        <time>2020-06-28T06:28:48Z</time>
      </trkpt>
      <trkpt lat="48.9749" lon="8.18059">
        <ele>115.5</ele>
        <time>2020-06-28T06:28:49Z</time>
      </trkpt>
      <trkpt lat="48.97489" lon="8.18059">
        <ele>115.5</ele>
        <time>2020-06-28T06:28:50Z</time>
      </trkpt>
      <trkpt lat="48.97489" lon="8.1806">
        <ele>115.5</ele>
        <time>2020-06-28T06:28:51Z</time>
      </trkpt>
      <trkpt lat="48.97489" lon="8.1806">
        <ele>115.5</ele>
        <time>2020-06-28T06:28:52Z</time>
      </trkpt>
      <trkpt lat="48.97488" lon="8.18061">
        <ele>115.5</ele>
        <time>2020-06-28T06:28:53Z</time>
      </trkpt>
      <trkpt lat="48.97488" lon="8.18061">
        <ele>115.5</ele>
        <time>2020-06-28T06:28:54Z</time>
      </trkpt>
      <trkpt lat="48.97488" lon="8.18062">
        <ele>115.5</ele>
        <time>2020-06-28T06:28:55Z</time>
      </trkpt>
      <trkpt lat="48.97488" lon="8.1806">
        <ele>115.5</ele>
        <time>2020-06-28T06:28:56Z</time>
      </trkpt>
      <trkpt lat="48.97489" lon="8.18058">
        <ele>115.5</ele>
        <time>2020-06-28T06:28:57Z</time>
      </trkpt>
      <trkpt lat="48.97488" lon="8.18058">
        <ele>115.5</ele>
        <time>2020-06-28T06:28:58Z</time>
      </trkpt>
      <trkpt lat="48.97485" lon="8.18059">
        <ele>115.5</ele>
        <time>2020-06-28T06:28:59Z</time>
      </trkpt>
      <trkpt lat="48.97483" lon="8.18059">
        <ele>115.5</ele>
        <time>2020-06-28T06:29:00Z</time>
      </trkpt>
      <trkpt lat="48.97482" lon="8.18058">
        <ele>115.5</ele>
        <time>2020-06-28T06:29:01Z</time>
      </trkpt>
      <trkpt lat="48.97481" lon="8.18059">
        <ele>115.5</ele>
        <time>2020-06-28T06:29:02Z</time>
      </trkpt>
      <trkpt lat="48.9748" lon="8.18056">
        <ele>115.5</ele>
        <time>2020-06-28T06:29:03Z</time>
      </trkpt>
      <trkpt lat="48.97478" lon="8.18054">
        <ele>115.5</ele>
        <time>2020-06-28T06:29:04Z</time>
      </trkpt>
      <trkpt lat="48.97479" lon="8.18051">
        <ele>115.5</ele>
        <time>2020-06-28T06:29:05Z</time>
      </trkpt>
      <trkpt lat="48.9748" lon="8.18048">
        <ele>115.5</ele>
        <time>2020-06-28T06:29:06Z</time>
      </trkpt>
      <trkpt lat="48.97481" lon="8.18046">
        <ele>115.5</ele>
        <time>2020-06-28T06:29:07Z</time>
      </trkpt>
      <trkpt lat="48.97499" lon="8.18048">
        <ele>115.4</ele>
        <time>2020-06-28T06:29:17Z</time>
      </trkpt>
      <trkpt lat="48.97502" lon="8.18046">
        <ele>115.4</ele>
        <time>2020-06-28T06:29:18Z</time>
      </trkpt>
      <trkpt lat="48.975" lon="8.18045">
        <ele>115.4</ele>
        <time>2020-06-28T06:29:19Z</time>
      </trkpt>
      <trkpt lat="48.975" lon="8.18046">
        <ele>115.4</ele>
        <time>2020-06-28T06:29:20Z</time>
      </trkpt>
      <trkpt lat="48.97501" lon="8.18051">
        <ele>115.4</ele>
        <time>2020-06-28T06:29:21Z</time>
      </trkpt>
      <trkpt lat="48.97501" lon="8.18053">
        <ele>115.4</ele>
        <time>2020-06-28T06:29:22Z</time>
      </trkpt>
      <trkpt lat="48.97501" lon="8.1805">
        <ele>115.4</ele>
        <time>2020-06-28T06:29:23Z</time>
      </trkpt>
      <trkpt lat="48.97502" lon="8.18046">
        <ele>115.4</ele>
        <time>2020-06-28T06:29:24Z</time>
      </trkpt>
      <trkpt lat="48.97502" lon="8.18047">
        <ele>115.4</ele>
        <time>2020-06-28T06:29:25Z</time>
      </trkpt>
      <trkpt lat="48.97504" lon="8.18047">
        <ele>115.4</ele>
        <time>2020-06-28T06:29:26Z</time>
      </trkpt>
      <trkpt lat="48.97504" lon="8.18047">
        <ele>115.4</ele>
        <time>2020-06-28T06:29:27Z</time>
      </trkpt>
      <trkpt lat="48.97504" lon="8.18047">
        <ele>115.4</ele>
        <time>2020-06-28T06:29:28Z</time>
      </trkpt>
      <trkpt lat="48.97504" lon="8.18047">
        <ele>115.4</ele>
        <time>2020-06-28T06:29:29Z</time>
      </trkpt>
      <trkpt lat="48.97504" lon="8.18047">
        <ele>115.4</ele>
        <time>2020-06-28T06:29:30Z</time>
      </trkpt>
      <trkpt lat="48.97508" lon="8.18052">
        <ele>115.4</ele>
        <time>2020-06-28T06:29:46Z</time>
      </trkpt>
      <trkpt lat="48.97509" lon="8.18052">
        <ele>115.4</ele>
        <time>2020-06-28T06:29:47Z</time>
      </trkpt>
      <trkpt lat="48.97509" lon="8.18053">
        <ele>115.4</ele>
        <time>2020-06-28T06:29:48Z</time>
      </trkpt>
      <trkpt lat="48.97509" lon="8.18053">
        <ele>115.4</ele>
        <time>2020-06-28T06:29:49Z</time>
      </trkpt>
      <trkpt lat="48.97509" lon="8.18053">
        <ele>115.4</ele>
        <time>2020-06-28T06:29:50Z</time>
      </trkpt>
      <trkpt lat="48.97509" lon="8.18053">
        <ele>115.4</ele>
        <time>2020-06-28T06:29:51Z</time>
      </trkpt>
      <trkpt lat="48.9751" lon="8.18053">
        <ele>115.3</ele>
        <time>2020-06-28T06:29:52Z</time>
      </trkpt>
      <trkpt lat="48.97509" lon="8.18053">
        <ele>115.3</ele>
        <time>2020-06-28T06:29:53Z</time>
      </trkpt>
      <trkpt lat="48.97509" lon="8.18053">
        <ele>115.3</ele>
        <time>2020-06-28T06:29:54Z</time>
      </trkpt>
      <trkpt lat="48.97508" lon="8.18053">
        <ele>115.3</ele>
        <time>2020-06-28T06:29:55Z</time>
      </trkpt>
      <trkpt lat="48.97507" lon="8.18053">
        <ele>115.3</ele>
        <time>2020-06-28T06:29:56Z</time>
      </trkpt>
      <trkpt lat="48.97506" lon="8.18053">
        <ele>115.3</ele>
        <time>2020-06-28T06:29:57Z</time>
      </trkpt>
      <trkpt lat="48.97506" lon="8.18053">
        <ele>115.3</ele>
        <time>2020-06-28T06:29:58Z</time>
      </trkpt>
      <trkpt lat="48.97506" lon="8.18052">
        <ele>115.3</ele>
        <time>2020-06-28T06:29:59Z</time>
      </trkpt>
      <trkpt lat="48.97505" lon="8.18052">
        <ele>115.3</ele>
        <time>2020-06-28T06:30:00Z</time>
      </trkpt>
      <trkpt lat="48.97504" lon="8.18053">
        <ele>115.3</ele>
        <time>2020-06-28T06:30:01Z</time>
      </trkpt>
      <trkpt lat="48.97503" lon="8.18053">
        <ele>115.3</ele>
        <time>2020-06-28T06:30:02Z</time>
      </trkpt>
      <trkpt lat="48.97502" lon="8.18054">
        <ele>115.3</ele>
        <time>2020-06-28T06:30:03Z</time>
      </trkpt>
      <trkpt lat="48.97501" lon="8.18054">
        <ele>115.3</ele>
        <time>2020-06-28T06:30:04Z</time>
      </trkpt>
      <trkpt lat="48.97501" lon="8.18055">
        <ele>115.3</ele>
        <time>2020-06-28T06:30:05Z</time>
      </trkpt>
      <trkpt lat="48.97501" lon="8.18055">
        <ele>115.3</ele>
        <time>2020-06-28T06:30:06Z</time>
      </trkpt>
      <trkpt lat="48.97501" lon="8.18054">
        <ele>115.3</ele>
        <time>2020-06-28T06:30:07Z</time>
      </trkpt>
      <trkpt lat="48.97501" lon="8.18054">
        <ele>115.3</ele>
        <time>2020-06-28T06:30:08Z</time>
      </trkpt>
      <trkpt lat="48.975" lon="8.18054">
        <ele>115.3</ele>
        <time>2020-06-28T06:30:09Z</time>
      </trkpt>
      <trkpt lat="48.9748" lon="8.18058">
        <ele>115.4</ele>
        <time>2020-06-28T06:36:53Z</time>
      </trkpt>
      <trkpt lat="48.9748" lon="8.18058">
        <ele>115.4</ele>
        <time>2020-06-28T06:36:54Z</time>
      </trkpt>
      <trkpt lat="48.97479" lon="8.18059">
        <ele>115.4</ele>
        <time>2020-06-28T06:36:55Z</time>
      </trkpt>
      <trkpt lat="48.97479" lon="8.18059">
        <ele>115.4</ele>
        <time>2020-06-28T06:36:56Z</time>
      </trkpt>
      <trkpt lat="48.97478" lon="8.18059">
        <ele>115.4</ele>
        <time>2020-06-28T06:36:57Z</time>
      </trkpt>
      <trkpt lat="48.97478" lon="8.18059">
        <ele>115.4</ele>
        <time>2020-06-28T06:36:58Z</time>
      </trkpt>
      <trkpt lat="48.97478" lon="8.18059">
        <ele>115.4</ele>
        <time>2020-06-28T06:36:59Z</time>
      </trkpt>
      <trkpt lat="48.97478" lon="8.18059">
        <ele>115.4</ele>
        <time>2020-06-28T06:37:00Z</time>
      </trkpt>
      <trkpt lat="48.97478" lon="8.18059">
        <ele>115.4</ele>
        <time>2020-06-28T06:37:01Z</time>
      </trkpt>
      <trkpt lat="48.97478" lon="8.18059">
        <ele>115.4</ele>
        <time>2020-06-28T06:37:02Z</time>
      </trkpt>
      <trkpt lat="48.97478" lon="8.18059">
        <ele>115.4</ele>
        <time>2020-06-28T06:37:03Z</time>
      </trkpt>
      <trkpt lat="48.97479" lon="8.18059">
        <ele>115.4</ele>
        <time>2020-06-28T06:37:04Z</time>
      </trkpt>
      <trkpt lat="48.97478" lon="8.18059">
        <ele>115.4</ele>
        <time>2020-06-28T06:37:05Z</time>
      </trkpt>
      <trkpt lat="48.97477" lon="8.18057">
        <ele>115.4</ele>
        <time>2020-06-28T06:37:07Z</time>
      </trkpt>
      <trkpt lat="48.97476" lon="8.18057">
        <ele>115.4</ele>
        <time>2020-06-28T06:37:08Z</time>
      </trkpt>
      <trkpt lat="48.97476" lon="8.18058">
        <ele>115.4</ele>
        <time>2020-06-28T06:37:09Z</time>
      </trkpt>
      <trkpt lat="48.97475" lon="8.18059">
        <ele>115.4</ele>
        <time>2020-06-28T06:37:10Z</time>
      </trkpt>
      <trkpt lat="48.97475" lon="8.1806">
        <ele>115.4</ele>
        <time>2020-06-28T06:37:11Z</time>
      </trkpt>
      <trkpt lat="48.97475" lon="8.1806">
        <ele>115.4</ele>
        <time>2020-06-28T06:37:12Z</time>
      </trkpt>
      <trkpt lat="48.97475" lon="8.1806">
        <ele>115.4</ele>
        <time>2020-06-28T06:37:13Z</time>
      </trkpt>
      <trkpt lat="48.97476" lon="8.1806">
        <ele>115.4</ele>
        <time>2020-06-28T06:37:14Z</time>
      </trkpt>
      <trkpt lat="48.97477" lon="8.18061">
        <ele>115.4</ele>
        <time>2020-06-28T06:37:15Z</time>
      </trkpt>
      <trkpt lat="48.97477" lon="8.18061">
        <ele>115.4</ele>
        <time>2020-06-28T06:37:16Z</time>
      </trkpt>
      <trkpt lat="48.97476" lon="8.18062">
        <ele>115.4</ele>
        <time>2020-06-28T06:37:17Z</time>
      </trkpt>
      <trkpt lat="48.97476" lon="8.18062">
        <ele>115.4</ele>
        <time>2020-06-28T06:37:18Z</time>
      </trkpt>
      <trkpt lat="48.97476" lon="8.18062">
        <ele>115.4</ele>
        <time>2020-06-28T06:37:19Z</time>
      </trkpt>
      <trkpt lat="48.97475" lon="8.18062">
        <ele>115.4</ele>
        <time>2020-06-28T06:37:20Z</time>
      </trkpt>
      <trkpt lat="48.97474" lon="8.18062">
        <ele>115.4</ele>
        <time>2020-06-28T06:37:21Z</time>
      </trkpt>
      <trkpt lat="48.97474" lon="8.18062">
        <ele>115.4</ele>
        <time>2020-06-28T06:37:22Z</time>
      </trkpt>
      <trkpt lat="48.97474" lon="8.18062">
        <ele>115.4</ele>
        <time>2020-06-28T06:37:23Z</time>
      </trkpt>
      <trkpt lat="48.97473" lon="8.18062">
        <ele>115.4</ele>
        <time>2020-06-28T06:37:24Z</time>
      </trkpt>
      <trkpt lat="48.9747" lon="8.18064">
        <ele>115.4</ele>
        <time>2020-06-28T06:37:25Z</time>
      </trkpt>
      <trkpt lat="48.97467" lon="8.18066">
        <ele>115.4</ele>
        <time>2020-06-28T06:37:26Z</time>
      </trkpt>
      <trkpt lat="48.97466" lon="8.18066">
        <ele>115.4</ele>
        <time>2020-06-28T06:37:27Z</time>
      </trkpt>
      <trkpt lat="48.97463" lon="8.18069">
        <ele>115.4</ele>
        <time>2020-06-28T06:37:28Z</time>
      </trkpt>
      <trkpt lat="48.97463" lon="8.1807">
        <ele>115.4</ele>
        <time>2020-06-28T06:37:29Z</time>
      </trkpt>
      <trkpt lat="48.97461" lon="8.1807">
        <ele>115.4</ele>
        <time>2020-06-28T06:37:30Z</time>
      </trkpt>
      <trkpt lat="48.9746" lon="8.18071">
        <ele>115.4</ele>
        <time>2020-06-28T06:37:31Z</time>
      </trkpt>
      <trkpt lat="48.97458" lon="8.1807">
        <ele>115.4</ele>
        <time>2020-06-28T06:37:32Z</time>
      </trkpt>
      <trkpt lat="48.97457" lon="8.18071">
        <ele>115.4</ele>
        <time>2020-06-28T06:37:33Z</time>
      </trkpt>
      <trkpt lat="48.97455" lon="8.18071">
        <ele>115.4</ele>
        <time>2020-06-28T06:37:34Z</time>
      </trkpt>
      <trkpt lat="48.97455" lon="8.18071">
        <ele>115.4</ele>
        <time>2020-06-28T06:37:35Z</time>
      </trkpt>
      <trkpt lat="48.97454" lon="8.18071">
        <ele>115.4</ele>
        <time>2020-06-28T06:37:36Z</time>
      </trkpt>
      <trkpt lat="48.97453" lon="8.1807">
        <ele>115.4</ele>
        <time>2020-06-28T06:37:37Z</time>
      </trkpt>
      <trkpt lat="48.97452" lon="8.1807">
        <ele>115.4</ele>
        <time>2020-06-28T06:37:38Z</time>
      </trkpt>
      <trkpt lat="48.97452" lon="8.18069">
        <ele>115.4</ele>
        <time>2020-06-28T06:37:39Z</time>
      </trkpt>
      <trkpt lat="48.97452" lon="8.18069">
        <ele>115.4</ele>
        <time>2020-06-28T06:37:40Z</time>
      </trkpt>
      <trkpt lat="48.97452" lon="8.18069">
        <ele>115.4</ele>
        <time>2020-06-28T06:37:41Z</time>
      </trkpt>
      <trkpt lat="48.97453" lon="8.18069">
        <ele>115.4</ele>
        <time>2020-06-28T06:37:42Z</time>
      </trkpt>
      <trkpt lat="48.97454" lon="8.18069">
        <ele>115.4</ele>
        <time>2020-06-28T06:37:43Z</time>
      </trkpt>
      <trkpt lat="48.97454" lon="8.18069">
        <ele>115.4</ele>
        <time>2020-06-28T06:37:44Z</time>
      </trkpt>
      <trkpt lat="48.97454" lon="8.18069">
        <ele>115.4</ele>
        <time>2020-06-28T06:37:45Z</time>
      </trkpt>
      <trkpt lat="48.97454" lon="8.18068">
        <ele>115.4</ele>
        <time>2020-06-28T06:37:46Z</time>
      </trkpt>
      <trkpt lat="48.97454" lon="8.18068">
        <ele>115.4</ele>
        <time>2020-06-28T06:37:47Z</time>
      </trkpt>
      <trkpt lat="48.97455" lon="8.18066">
        <ele>115.4</ele>
        <time>2020-06-28T06:37:48Z</time>
      </trkpt>
      <trkpt lat="48.97456" lon="8.18066">
        <ele>115.4</ele>
        <time>2020-06-28T06:37:49Z</time>
      </trkpt>
      <trkpt lat="48.97456" lon="8.18066">
        <ele>115.4</ele>
        <time>2020-06-28T06:37:50Z</time>
      </trkpt>
      <trkpt lat="48.97456" lon="8.18066">
        <ele>115.4</ele>
        <time>2020-06-28T06:37:51Z</time>
      </trkpt>
      <trkpt lat="48.97456" lon="8.18065">
        <ele>115.4</ele>
        <time>2020-06-28T06:37:52Z</time>
      </trkpt>
      <trkpt lat="48.97456" lon="8.18065">
        <ele>115.4</ele>
        <time>2020-06-28T06:37:53Z</time>
      </trkpt>
      <trkpt lat="48.97455" lon="8.18065">
        <ele>115.4</ele>
        <time>2020-06-28T06:37:54Z</time>
      </trkpt>
      <trkpt lat="48.97454" lon="8.18064">
        <ele>115.4</ele>
        <time>2020-06-28T06:37:55Z</time>
      </trkpt>
      <trkpt lat="48.97455" lon="8.18064">
        <ele>115.4</ele>
        <time>2020-06-28T06:37:56Z</time>
      </trkpt>
      <trkpt lat="48.97455" lon="8.18064">
        <ele>115.4</ele>
        <time>2020-06-28T06:37:57Z</time>
      </trkpt>
      <trkpt lat="48.97456" lon="8.18063">
        <ele>115.4</ele>
        <time>2020-06-28T06:37:58Z</time>
      </trkpt>
      <trkpt lat="48.97458" lon="8.18064">
        <ele>115.4</ele>
        <time>2020-06-28T06:37:59Z</time>
      </trkpt>
      <trkpt lat="48.9746" lon="8.18066">
        <ele>115.4</ele>
        <time>2020-06-28T06:38:00Z</time>
      </trkpt>
      <trkpt lat="48.97461" lon="8.18066">
        <ele>115.4</ele>
        <time>2020-06-28T06:38:01Z</time>
      </trkpt>
      <trkpt lat="48.97463" lon="8.18068">
        <ele>115.5</ele>
        <time>2020-06-28T06:38:02Z</time>
      </trkpt>
      <trkpt lat="48.97464" lon="8.18068">
        <ele>115.5</ele>
        <time>2020-06-28T06:38:03Z</time>
      </trkpt>
      <trkpt lat="48.97464" lon="8.18069">
        <ele>115.5</ele>
        <time>2020-06-28T06:38:04Z</time>
      </trkpt>
      <trkpt lat="48.97464" lon="8.18069">
        <ele>115.5</ele>
        <time>2020-06-28T06:38:05Z</time>
      </trkpt>
      <trkpt lat="48.97464" lon="8.18069">
        <ele>115.5</ele>
        <time>2020-06-28T06:38:06Z</time>
      </trkpt>
      <trkpt lat="48.97464" lon="8.18069">
        <ele>115.5</ele>
        <time>2020-06-28T06:38:07Z</time>
      </trkpt>
      <trkpt lat="48.97492" lon="8.18052">
        <ele>115.5</ele>
        <time>2020-06-28T06:45:00Z</time>
      </trkpt>
      <trkpt lat="48.97492" lon="8.18052">
        <ele>115.5</ele>
        <time>2020-06-28T06:45:01Z</time>
      </trkpt>
      <trkpt lat="48.97492" lon="8.18051">
        <ele>115.5</ele>
        <time>2020-06-28T06:45:02Z</time>
      </trkpt>
      <trkpt lat="48.97491" lon="8.18052">
        <ele>115.5</ele>
        <time>2020-06-28T06:45:03Z</time>
      </trkpt>
      <trkpt lat="48.9749" lon="8.18056">
        <ele>115.5</ele>
        <time>2020-06-28T06:45:04Z</time>
      </trkpt>
      <trkpt lat="48.9749" lon="8.18054">
        <ele>115.5</ele>
        <time>2020-06-28T06:45:05Z</time>
      </trkpt>
      <trkpt lat="48.97489" lon="8.18057">
        <ele>115.5</ele>
        <time>2020-06-28T06:45:06Z</time>
      </trkpt>
      <trkpt lat="48.97489" lon="8.18059">
        <ele>115.5</ele>
        <time>2020-06-28T06:45:07Z</time>
      </trkpt>
      <trkpt lat="48.97488" lon="8.1806">
        <ele>115.5</ele>
        <time>2020-06-28T06:45:08Z</time>
      </trkpt>
      <trkpt lat="48.97488" lon="8.1806">
        <ele>115.5</ele>
        <time>2020-06-28T06:45:09Z</time>
      </trkpt>
      <trkpt lat="48.97488" lon="8.1806">
        <ele>115.5</ele>
        <time>2020-06-28T06:45:10Z</time>
      </trkpt>
      <trkpt lat="48.97487" lon="8.1806">
        <ele>115.5</ele>
        <time>2020-06-28T06:45:11Z</time>
      </trkpt>
      <trkpt lat="48.97487" lon="8.1806">
        <ele>115.5</ele>
        <time>2020-06-28T06:45:12Z</time>
      </trkpt>
      <trkpt lat="48.97487" lon="8.18059">
        <ele>115.5</ele>
        <time>2020-06-28T06:45:13Z</time>
      </trkpt>
      <trkpt lat="48.97487" lon="8.18059">
        <ele>115.5</ele>
        <time>2020-06-28T06:45:14Z</time>
      </trkpt>
      <trkpt lat="48.97487" lon="8.18059">
        <ele>115.5</ele>
        <time>2020-06-28T06:45:15Z</time>
      </trkpt>
      <trkpt lat="48.97487" lon="8.18059">
        <ele>115.5</ele>
        <time>2020-06-28T06:45:16Z</time>
      </trkpt>
      <trkpt lat="48.97486" lon="8.18058">
        <ele>115.5</ele>
        <time>2020-06-28T06:57:36Z</time>
      </trkpt>
      <trkpt lat="48.97486" lon="8.18058">
        <ele>115.5</ele>
        <time>2020-06-28T06:57:37Z</time>
      </trkpt>
      <trkpt lat="48.97486" lon="8.18058">
        <ele>115.5</ele>
        <time>2020-06-28T06:57:38Z</time>
      </trkpt>
      <trkpt lat="48.97486" lon="8.18058">
        <ele>115.5</ele>
        <time>2020-06-28T06:57:39Z</time>
      </trkpt>
      <trkpt lat="48.97486" lon="8.18058">
        <ele>115.5</ele>
        <time>2020-06-28T06:57:40Z</time>
      </trkpt>
      <trkpt lat="48.97485" lon="8.18057">
        <ele>115.5</ele>
        <time>2020-06-28T06:57:41Z</time>
      </trkpt>
      <trkpt lat="48.97485" lon="8.18057">
        <ele>115.5</ele>
        <time>2020-06-28T06:57:42Z</time>
      </trkpt>
      <trkpt lat="48.97486" lon="8.18057">
        <ele>115.6</ele>
        <time>2020-06-28T06:57:43Z</time>
      </trkpt>
      <trkpt lat="48.97486" lon="8.18057">
        <ele>115.6</ele>
        <time>2020-06-28T06:57:44Z</time>
      </trkpt>
      <trkpt lat="48.97486" lon="8.18057">
        <ele>115.6</ele>
        <time>2020-06-28T06:57:45Z</time>
      </trkpt>
      <trkpt lat="48.97486" lon="8.18057">
        <ele>115.6</ele>
        <time>2020-06-28T06:57:46Z</time>
      </trkpt>
      <trkpt lat="48.97486" lon="8.18058">
        <ele>115.6</ele>
        <time>2020-06-28T06:57:47Z</time>
      </trkpt>
      <trkpt lat="48.97486" lon="8.18058">
        <ele>115.6</ele>
        <time>2020-06-28T06:57:48Z</time>
      </trkpt>
      <trkpt lat="48.97486" lon="8.18058">
        <ele>115.6</ele>
        <time>2020-06-28T06:57:49Z</time>
      </trkpt>
      <trkpt lat="48.97486" lon="8.18058">
        <ele>115.6</ele>
        <time>2020-06-28T06:57:50Z</time>
      </trkpt>
      <trkpt lat="48.97487" lon="8.18057">
        <ele>115.6</ele>
        <time>2020-06-28T06:57:51Z</time>
      </trkpt>
      <trkpt lat="48.97488" lon="8.18055">
        <ele>115.6</ele>
        <time>2020-06-28T06:57:52Z</time>
      </trkpt>
      <trkpt lat="48.97488" lon="8.18055">
        <ele>115.6</ele>
        <time>2020-06-28T06:57:53Z</time>
      </trkpt>
      <trkpt lat="48.9749" lon="8.18055">
        <ele>115.6</ele>
        <time>2020-06-28T07:05:27Z</time>
      </trkpt>
      <trkpt lat="48.97489" lon="8.1805">
        <ele>115.6</ele>
        <time>2020-06-28T07:05:28Z</time>
      </trkpt>
      <trkpt lat="48.97488" lon="8.18046">
        <ele>115.6</ele>
        <time>2020-06-28T07:05:29Z</time>
      </trkpt>
      <trkpt lat="48.97486" lon="8.18042">
        <ele>115.6</ele>
        <time>2020-06-28T07:05:30Z</time>
      </trkpt>
      <trkpt lat="48.97486" lon="8.18037">
        <ele>115.6</ele>
        <time>2020-06-28T07:05:31Z</time>
      </trkpt>
      <trkpt lat="48.97484" lon="8.18033">
        <ele>115.6</ele>
        <time>2020-06-28T07:05:32Z</time>
      </trkpt>
      <trkpt lat="48.97483" lon="8.18031">
        <ele>115.6</ele>
        <time>2020-06-28T07:05:33Z</time>
      </trkpt>
      <trkpt lat="48.97481" lon="8.18028">
        <ele>115.6</ele>
        <time>2020-06-28T07:05:34Z</time>
      </trkpt>
      <trkpt lat="48.9748" lon="8.18026">
        <ele>115.6</ele>
        <time>2020-06-28T07:05:35Z</time>
      </trkpt>
      <trkpt lat="48.97477" lon="8.18024">
        <ele>115.6</ele>
        <time>2020-06-28T07:05:36Z</time>
      </trkpt>
      <trkpt lat="48.97473" lon="8.18023">
        <ele>115.5</ele>
        <time>2020-06-28T07:05:37Z</time>
      </trkpt>
      <trkpt lat="48.9747" lon="8.18024">
        <ele>115.5</ele>
        <time>2020-06-28T07:05:38Z</time>
      </trkpt>
      <trkpt lat="48.97466" lon="8.18025">
        <ele>115.5</ele>
        <time>2020-06-28T07:05:39Z</time>
      </trkpt>
      <trkpt lat="48.97462" lon="8.18027">
        <ele>115.4</ele>
        <time>2020-06-28T07:05:40Z</time>
      </trkpt>
      <trkpt lat="48.97459" lon="8.18027">
        <ele>115.4</ele>
        <time>2020-06-28T07:05:41Z</time>
      </trkpt>
      <trkpt lat="48.97456" lon="8.18026">
        <ele>115.4</ele>
        <time>2020-06-28T07:05:42Z</time>
      </trkpt>
      <trkpt lat="48.97452" lon="8.18026">
        <ele>115.4</ele>
        <time>2020-06-28T07:05:43Z</time>
      </trkpt>
      <trkpt lat="48.97448" lon="8.18028">
        <ele>115.3</ele>
        <time>2020-06-28T07:05:44Z</time>
      </trkpt>
      <trkpt lat="48.97445" lon="8.18029">
        <ele>115.3</ele>
        <time>2020-06-28T07:05:45Z</time>
      </trkpt>
      <trkpt lat="48.97442" lon="8.18029">
        <ele>115.3</ele>
        <time>2020-06-28T07:05:46Z</time>
      </trkpt>
      <trkpt lat="48.97439" lon="8.18029">
        <ele>115.4</ele>
        <time>2020-06-28T07:05:47Z</time>
      </trkpt>
      <trkpt lat="48.97436" lon="8.18029">
        <ele>115.4</ele>
        <time>2020-06-28T07:05:48Z</time>
      </trkpt>
      <trkpt lat="48.97431" lon="8.18031">
        <ele>115.4</ele>
        <time>2020-06-28T07:05:49Z</time>
      </trkpt>
      <trkpt lat="48.97428" lon="8.18032">
        <ele>115.5</ele>
        <time>2020-06-28T07:05:50Z</time>
      </trkpt>
      <trkpt lat="48.97425" lon="8.18031">
        <ele>115.5</ele>
        <time>2020-06-28T07:05:51Z</time>
      </trkpt>
      <trkpt lat="48.97422" lon="8.18032">
        <ele>115.6</ele>
        <time>2020-06-28T07:05:52Z</time>
      </trkpt>
      <trkpt lat="48.97418" lon="8.18033">
        <ele>115.7</ele>
        <time>2020-06-28T07:05:53Z</time>
      </trkpt>
      <trkpt lat="48.97414" lon="8.18035">
        <ele>115.8</ele>
        <time>2020-06-28T07:05:54Z</time>
      </trkpt>
      <trkpt lat="48.97411" lon="8.18037">
        <ele>115.8</ele>
        <time>2020-06-28T07:05:55Z</time>
      </trkpt>
      <trkpt lat="48.97408" lon="8.18038">
        <ele>115.8</ele>
        <time>2020-06-28T07:05:56Z</time>
      </trkpt>
      <trkpt lat="48.97404" lon="8.18039">
        <ele>115.9</ele>
        <time>2020-06-28T07:05:57Z</time>
      </trkpt>
      <trkpt lat="48.97401" lon="8.18038">
        <ele>115.9</ele>
        <time>2020-06-28T07:05:58Z</time>
      </trkpt>
      <trkpt lat="48.97398" lon="8.18037">
        <ele>115.9</ele>
        <time>2020-06-28T07:05:59Z</time>
      </trkpt>
      <trkpt lat="48.97394" lon="8.18038">
        <ele>116</ele>
        <time>2020-06-28T07:06:00Z</time>
      </trkpt>
      <trkpt lat="48.97391" lon="8.18039">
        <ele>116.1</ele>
        <time>2020-06-28T07:06:01Z</time>
      </trkpt>
      <trkpt lat="48.97388" lon="8.18039">
        <ele>116.2</ele>
        <time>2020-06-28T07:06:02Z</time>
      </trkpt>
      <trkpt lat="48.97385" lon="8.18039">
        <ele>116.3</ele>
        <time>2020-06-28T07:06:03Z</time>
      </trkpt>
      <trkpt lat="48.97382" lon="8.18038">
        <ele>116.5</ele>
        <time>2020-06-28T07:06:04Z</time>
      </trkpt>
      <trkpt lat="48.97378" lon="8.18038">
        <ele>116.5</ele>
        <time>2020-06-28T07:06:05Z</time>
      </trkpt>
      <trkpt lat="48.97374" lon="8.18038">
        <ele>116.5</ele>
        <time>2020-06-28T07:06:06Z</time>
      </trkpt>
      <trkpt lat="48.97371" lon="8.18039">
        <ele>116.6</ele>
        <time>2020-06-28T07:06:07Z</time>
      </trkpt>
      <trkpt lat="48.97366" lon="8.1804">
        <ele>116.7</ele>
        <time>2020-06-28T07:06:08Z</time>
      </trkpt>
      <trkpt lat="48.97362" lon="8.1804">
        <ele>116.9</ele>
        <time>2020-06-28T07:06:09Z</time>
      </trkpt>
      <trkpt lat="48.97358" lon="8.1804">
        <ele>117.1</ele>
        <time>2020-06-28T07:06:10Z</time>
      </trkpt>
      <trkpt lat="48.97354" lon="8.18039">
        <ele>117.3</ele>
        <time>2020-06-28T07:06:11Z</time>
      </trkpt>
      <trkpt lat="48.9735" lon="8.18038">
        <ele>117.6</ele>
        <time>2020-06-28T07:06:12Z</time>
      </trkpt>
      <trkpt lat="48.97346" lon="8.18038">
        <ele>117.8</ele>
        <time>2020-06-28T07:06:13Z</time>
      </trkpt>
      <trkpt lat="48.97342" lon="8.18036">
        <ele>118.1</ele>
        <time>2020-06-28T07:06:14Z</time>
      </trkpt>
      <trkpt lat="48.97339" lon="8.18035">
        <ele>118.3</ele>
        <time>2020-06-28T07:06:15Z</time>
      </trkpt>
      <trkpt lat="48.97335" lon="8.18033">
        <ele>118.4</ele>
        <time>2020-06-28T07:06:16Z</time>
      </trkpt>
      <trkpt lat="48.97332" lon="8.18032">
        <ele>118.5</ele>
        <time>2020-06-28T07:06:17Z</time>
      </trkpt>
      <trkpt lat="48.97331" lon="8.18031">
        <ele>118.6</ele>
        <time>2020-06-28T07:06:18Z</time>
      </trkpt>
      <trkpt lat="48.97328" lon="8.18029">
        <ele>118.7</ele>
        <time>2020-06-28T07:06:19Z</time>
      </trkpt>
      <trkpt lat="48.97325" lon="8.1803">
        <ele>118.8</ele>
        <time>2020-06-28T07:06:20Z</time>
      </trkpt>
      <trkpt lat="48.97323" lon="8.18034">
        <ele>119.1</ele>
        <time>2020-06-28T07:06:21Z</time>
      </trkpt>
      <trkpt lat="48.97322" lon="8.18039">
        <ele>119.3</ele>
        <time>2020-06-28T07:06:22Z</time>
      </trkpt>
      <trkpt lat="48.97321" lon="8.18041">
        <ele>119.4</ele>
        <time>2020-06-28T07:06:23Z</time>
      </trkpt>
      <trkpt lat="48.97319" lon="8.18044">
        <ele>119.6</ele>
        <time>2020-06-28T07:06:24Z</time>
      </trkpt>
      <trkpt lat="48.97318" lon="8.18045">
        <ele>119.6</ele>
        <time>2020-06-28T07:06:25Z</time>
      </trkpt>
      <trkpt lat="48.97315" lon="8.18046">
        <ele>119.8</ele>
        <time>2020-06-28T07:06:26Z</time>
      </trkpt>
      <trkpt lat="48.97311" lon="8.18048">
        <ele>120</ele>
        <time>2020-06-28T07:06:27Z</time>
      </trkpt>
      <trkpt lat="48.97308" lon="8.18049">
        <ele>120.2</ele>
        <time>2020-06-28T07:06:28Z</time>
      </trkpt>
      <trkpt lat="48.97305" lon="8.18052">
        <ele>120.4</ele>
        <time>2020-06-28T07:06:29Z</time>
      </trkpt>
      <trkpt lat="48.97302" lon="8.18053">
        <ele>120.5</ele>
        <time>2020-06-28T07:06:30Z</time>
      </trkpt>
      <trkpt lat="48.97299" lon="8.18055">
        <ele>120.7</ele>
        <time>2020-06-28T07:06:31Z</time>
      </trkpt>
      <trkpt lat="48.97295" lon="8.18057">
        <ele>121</ele>
        <time>2020-06-28T07:06:32Z</time>
      </trkpt>
      <trkpt lat="48.97293" lon="8.18058">
        <ele>121.1</ele>
        <time>2020-06-28T07:06:33Z</time>
      </trkpt>
      <trkpt lat="48.9729" lon="8.1806">
        <ele>121.3</ele>
        <time>2020-06-28T07:06:34Z</time>
      </trkpt>
      <trkpt lat="48.97286" lon="8.18062">
        <ele>121.5</ele>
        <time>2020-06-28T07:06:35Z</time>
      </trkpt>
      <trkpt lat="48.97283" lon="8.18064">
        <ele>121.7</ele>
        <time>2020-06-28T07:06:36Z</time>
      </trkpt>
      <trkpt lat="48.97279" lon="8.18065">
        <ele>121.9</ele>
        <time>2020-06-28T07:06:37Z</time>
      </trkpt>
      <trkpt lat="48.97276" lon="8.18065">
        <ele>122</ele>
        <time>2020-06-28T07:06:38Z</time>
      </trkpt>
      <trkpt lat="48.97273" lon="8.18068">
        <ele>122.1</ele>
        <time>2020-06-28T07:06:39Z</time>
      </trkpt>
      <trkpt lat="48.97269" lon="8.18069">
        <ele>122.2</ele>
        <time>2020-06-28T07:06:40Z</time>
      </trkpt>
      <trkpt lat="48.97268" lon="8.18069">
        <ele>122.2</ele>
        <time>2020-06-28T07:06:41Z</time>
      </trkpt>
      <trkpt lat="48.97263" lon="8.18073">
        <ele>122.3</ele>
        <time>2020-06-28T07:06:42Z</time>
      </trkpt>
      <trkpt lat="48.97262" lon="8.18074">
        <ele>122.3</ele>
        <time>2020-06-28T07:06:43Z</time>
      </trkpt>
      <trkpt lat="48.9726" lon="8.18076">
        <ele>122.3</ele>
        <time>2020-06-28T07:06:44Z</time>
      </trkpt>
      <trkpt lat="48.97259" lon="8.18077">
        <ele>122.4</ele>
        <time>2020-06-28T07:06:45Z</time>
      </trkpt>
      <trkpt lat="48.97255" lon="8.18078">
        <ele>122.4</ele>
        <time>2020-06-28T07:06:46Z</time>
      </trkpt>
      <trkpt lat="48.97254" lon="8.18079">
        <ele>122.4</ele>
        <time>2020-06-28T07:06:47Z</time>
      </trkpt>
      <trkpt lat="48.9725" lon="8.18081">
        <ele>122.4</ele>
        <time>2020-06-28T07:06:48Z</time>
      </trkpt>
      <trkpt lat="48.97247" lon="8.18083">
        <ele>122.4</ele>
        <time>2020-06-28T07:06:49Z</time>
      </trkpt>
      <trkpt lat="48.97244" lon="8.18085">
        <ele>122.4</ele>
        <time>2020-06-28T07:06:50Z</time>
      </trkpt>
      <trkpt lat="48.97243" lon="8.18085">
        <ele>122.4</ele>
        <time>2020-06-28T07:06:51Z</time>
      </trkpt>
      <trkpt lat="48.97241" lon="8.18087">
        <ele>122.4</ele>
        <time>2020-06-28T07:06:52Z</time>
      </trkpt>
      <trkpt lat="48.97238" lon="8.18087">
        <ele>122.4</ele>
        <time>2020-06-28T07:06:53Z</time>
      </trkpt>
      <trkpt lat="48.97234" lon="8.18088">
        <ele>122.4</ele>
        <time>2020-06-28T07:06:54Z</time>
      </trkpt>
      <trkpt lat="48.97233" lon="8.18088">
        <ele>122.4</ele>
        <time>2020-06-28T07:06:55Z</time>
      </trkpt>
      <trkpt lat="48.9723" lon="8.1809">
        <ele>122.4</ele>
        <time>2020-06-28T07:06:56Z</time>
      </trkpt>
      <trkpt lat="48.97228" lon="8.18092">
        <ele>122.3</ele>
        <time>2020-06-28T07:06:57Z</time>
      </trkpt>
      <trkpt lat="48.97224" lon="8.18092">
        <ele>122.3</ele>
        <time>2020-06-28T07:06:58Z</time>
      </trkpt>
      <trkpt lat="48.97219" lon="8.18094">
        <ele>122.2</ele>
        <time>2020-06-28T07:06:59Z</time>
      </trkpt>
      <trkpt lat="48.97216" lon="8.18094">
        <ele>122.1</ele>
        <time>2020-06-28T07:07:00Z</time>
      </trkpt>
      <trkpt lat="48.97212" lon="8.18095">
        <ele>122</ele>
        <time>2020-06-28T07:07:01Z</time>
      </trkpt>
      <trkpt lat="48.97208" lon="8.18096">
        <ele>121.8</ele>
        <time>2020-06-28T07:07:02Z</time>
      </trkpt>
      <trkpt lat="48.97205" lon="8.18098">
        <ele>121.7</ele>
        <time>2020-06-28T07:07:03Z</time>
      </trkpt>
      <trkpt lat="48.97202" lon="8.181">
        <ele>121.5</ele>
        <time>2020-06-28T07:07:04Z</time>
      </trkpt>
      <trkpt lat="48.97198" lon="8.18104">
        <ele>121.4</ele>
        <time>2020-06-28T07:07:05Z</time>
      </trkpt>
      <trkpt lat="48.97194" lon="8.18106">
        <ele>121.2</ele>
        <time>2020-06-28T07:07:06Z</time>
      </trkpt>
      <trkpt lat="48.97191" lon="8.18109">
        <ele>121</ele>
        <time>2020-06-28T07:07:07Z</time>
      </trkpt>
      <trkpt lat="48.97186" lon="8.18111">
        <ele>120.8</ele>
        <time>2020-06-28T07:07:08Z</time>
      </trkpt>
      <trkpt lat="48.97182" lon="8.18112">
        <ele>120.6</ele>
        <time>2020-06-28T07:07:09Z</time>
      </trkpt>
      <trkpt lat="48.97179" lon="8.18114">
        <ele>120.4</ele>
        <time>2020-06-28T07:07:10Z</time>
      </trkpt>
      <trkpt lat="48.97174" lon="8.18113">
        <ele>120.2</ele>
        <time>2020-06-28T07:07:11Z</time>
      </trkpt>
      <trkpt lat="48.9717" lon="8.18115">
        <ele>120</ele>
        <time>2020-06-28T07:07:12Z</time>
      </trkpt>
      <trkpt lat="48.97165" lon="8.18118">
        <ele>119.7</ele>
        <time>2020-06-28T07:07:13Z</time>
      </trkpt>
      <trkpt lat="48.97159" lon="8.18123">
        <ele>119.3</ele>
        <time>2020-06-28T07:07:14Z</time>
      </trkpt>
      <trkpt lat="48.97154" lon="8.18126">
        <ele>119</ele>
        <time>2020-06-28T07:07:15Z</time>
      </trkpt>
      <trkpt lat="48.97149" lon="8.18128">
        <ele>118.8</ele>
        <time>2020-06-28T07:07:16Z</time>
      </trkpt>
      <trkpt lat="48.97144" lon="8.18131">
        <ele>118.5</ele>
        <time>2020-06-28T07:07:17Z</time>
      </trkpt>
      <trkpt lat="48.97139" lon="8.18133">
        <ele>118.2</ele>
        <time>2020-06-28T07:07:18Z</time>
      </trkpt>
      <trkpt lat="48.97134" lon="8.18134">
        <ele>118</ele>
        <time>2020-06-28T07:07:19Z</time>
      </trkpt>
      <trkpt lat="48.97129" lon="8.18134">
        <ele>117.7</ele>
        <time>2020-06-28T07:07:20Z</time>
      </trkpt>
      <trkpt lat="48.97124" lon="8.18135">
        <ele>117.5</ele>
        <time>2020-06-28T07:07:21Z</time>
      </trkpt>
      <trkpt lat="48.97119" lon="8.18138">
        <ele>117.3</ele>
        <time>2020-06-28T07:07:22Z</time>
      </trkpt>
      <trkpt lat="48.97114" lon="8.18142">
        <ele>117</ele>
        <time>2020-06-28T07:07:23Z</time>
      </trkpt>
      <trkpt lat="48.97109" lon="8.18144">
        <ele>116.7</ele>
        <time>2020-06-28T07:07:24Z</time>
      </trkpt>
      <trkpt lat="48.97104" lon="8.18145">
        <ele>116.5</ele>
        <time>2020-06-28T07:07:25Z</time>
      </trkpt>
      <trkpt lat="48.97099" lon="8.18147">
        <ele>116.3</ele>
        <time>2020-06-28T07:07:26Z</time>
      </trkpt>
      <trkpt lat="48.97095" lon="8.18148">
        <ele>116.1</ele>
        <time>2020-06-28T07:07:27Z</time>
      </trkpt>
      <trkpt lat="48.97091" lon="8.1815">
        <ele>115.9</ele>
        <time>2020-06-28T07:07:28Z</time>
      </trkpt>
      <trkpt lat="48.97088" lon="8.18151">
        <ele>115.8</ele>
        <time>2020-06-28T07:07:29Z</time>
      </trkpt>
      <trkpt lat="48.97086" lon="8.18154">
        <ele>115.6</ele>
        <time>2020-06-28T07:07:30Z</time>
      </trkpt>
      <trkpt lat="48.97083" lon="8.1816">
        <ele>115.5</ele>
        <time>2020-06-28T07:07:31Z</time>
      </trkpt>
      <trkpt lat="48.97082" lon="8.18163">
        <ele>115.4</ele>
        <time>2020-06-28T07:07:32Z</time>
      </trkpt>
      <trkpt lat="48.97079" lon="8.18169">
        <ele>115.2</ele>
        <time>2020-06-28T07:07:33Z</time>
      </trkpt>
      <trkpt lat="48.97076" lon="8.18174">
        <ele>115</ele>
        <time>2020-06-28T07:07:34Z</time>
      </trkpt>
      <trkpt lat="48.97073" lon="8.18179">
        <ele>114.8</ele>
        <time>2020-06-28T07:07:35Z</time>
      </trkpt>
      <trkpt lat="48.97069" lon="8.18185">
        <ele>114.5</ele>
        <time>2020-06-28T07:07:36Z</time>
      </trkpt>
      <trkpt lat="48.97065" lon="8.18192">
        <ele>114.3</ele>
        <time>2020-06-28T07:07:37Z</time>
      </trkpt>
      <trkpt lat="48.97061" lon="8.18199">
        <ele>114</ele>
        <time>2020-06-28T07:07:38Z</time>
      </trkpt>
      <trkpt lat="48.97058" lon="8.18206">
        <ele>113.8</ele>
        <time>2020-06-28T07:07:39Z</time>
      </trkpt>
      <trkpt lat="48.97053" lon="8.18213">
        <ele>113.5</ele>
        <time>2020-06-28T07:07:40Z</time>
      </trkpt>
      <trkpt lat="48.9705" lon="8.18222">
        <ele>113.3</ele>
        <time>2020-06-28T07:07:41Z</time>
      </trkpt>
      <trkpt lat="48.97045" lon="8.18232">
        <ele>113</ele>
        <time>2020-06-28T07:07:42Z</time>
      </trkpt>
      <trkpt lat="48.9704" lon="8.18241">
        <ele>112.8</ele>
        <time>2020-06-28T07:07:43Z</time>
      </trkpt>
      <trkpt lat="48.97034" lon="8.18251">
        <ele>112.6</ele>
        <time>2020-06-28T07:07:44Z</time>
      </trkpt>
      <trkpt lat="48.97028" lon="8.1826">
        <ele>112.5</ele>
        <time>2020-06-28T07:07:45Z</time>
      </trkpt>
      <trkpt lat="48.97022" lon="8.18266">
        <ele>112.4</ele>
        <time>2020-06-28T07:07:46Z</time>
      </trkpt>
      <trkpt lat="48.97015" lon="8.18272">
        <ele>112.4</ele>
        <time>2020-06-28T07:07:47Z</time>
      </trkpt>
      <trkpt lat="48.97007" lon="8.18276">
        <ele>111.8</ele>
        <time>2020-06-28T07:07:48Z</time>
      </trkpt>
      <trkpt lat="48.96999" lon="8.1828">
        <ele>111.5</ele>
        <time>2020-06-28T07:07:49Z</time>
      </trkpt>
      <trkpt lat="48.96992" lon="8.18283">
        <ele>111.2</ele>
        <time>2020-06-28T07:07:50Z</time>
      </trkpt>
      <trkpt lat="48.96985" lon="8.18286">
        <ele>111</ele>
        <time>2020-06-28T07:07:51Z</time>
      </trkpt>
      <trkpt lat="48.9698" lon="8.18287">
        <ele>110.9</ele>
        <time>2020-06-28T07:07:52Z</time>
      </trkpt>
      <trkpt lat="48.96975" lon="8.18286">
        <ele>110.7</ele>
        <time>2020-06-28T07:07:53Z</time>
      </trkpt>
      <trkpt lat="48.9697" lon="8.18283">
        <ele>110.6</ele>
        <time>2020-06-28T07:07:54Z</time>
      </trkpt>
      <trkpt lat="48.96965" lon="8.18279">
        <ele>110.5</ele>
        <time>2020-06-28T07:07:55Z</time>
      </trkpt>
      <trkpt lat="48.9696" lon="8.18275">
        <ele>110.5</ele>
        <time>2020-06-28T07:07:56Z</time>
      </trkpt>
      <trkpt lat="48.96955" lon="8.18272">
        <ele>110.4</ele>
        <time>2020-06-28T07:07:57Z</time>
      </trkpt>
      <trkpt lat="48.9695" lon="8.18268">
        <ele>110.4</ele>
        <time>2020-06-28T07:07:58Z</time>
      </trkpt>
      <trkpt lat="48.96946" lon="8.18265">
        <ele>110.4</ele>
        <time>2020-06-28T07:07:59Z</time>
      </trkpt>
      <trkpt lat="48.96942" lon="8.18261">
        <ele>110.4</ele>
        <time>2020-06-28T07:08:00Z</time>
      </trkpt>
      <trkpt lat="48.96938" lon="8.18257">
        <ele>110.5</ele>
        <time>2020-06-28T07:08:01Z</time>
      </trkpt>
      <trkpt lat="48.96935" lon="8.18256">
        <ele>110.5</ele>
        <time>2020-06-28T07:08:02Z</time>
      </trkpt>
      <trkpt lat="48.96931" lon="8.18257">
        <ele>110.6</ele>
        <time>2020-06-28T07:08:03Z</time>
      </trkpt>
      <trkpt lat="48.9693" lon="8.18258">
        <ele>110.6</ele>
        <time>2020-06-28T07:08:04Z</time>
      </trkpt>
      <trkpt lat="48.96928" lon="8.18261">
        <ele>110.6</ele>
        <time>2020-06-28T07:08:05Z</time>
      </trkpt>
      <trkpt lat="48.96927" lon="8.18262">
        <ele>110.6</ele>
        <time>2020-06-28T07:08:06Z</time>
      </trkpt>
      <trkpt lat="48.96926" lon="8.18264">
        <ele>110.6</ele>
        <time>2020-06-28T07:08:07Z</time>
      </trkpt>
      <trkpt lat="48.96925" lon="8.18265">
        <ele>110.6</ele>
        <time>2020-06-28T07:08:08Z</time>
      </trkpt>
      <trkpt lat="48.96924" lon="8.18268">
        <ele>110.6</ele>
        <time>2020-06-28T07:08:09Z</time>
      </trkpt>
      <trkpt lat="48.96923" lon="8.18269">
        <ele>110.6</ele>
        <time>2020-06-28T07:08:10Z</time>
      </trkpt>
      <trkpt lat="48.96922" lon="8.1827">
        <ele>110.6</ele>
        <time>2020-06-28T07:08:11Z</time>
      </trkpt>
      <trkpt lat="48.9692" lon="8.18272">
        <ele>110.6</ele>
        <time>2020-06-28T07:08:12Z</time>
      </trkpt>
      <trkpt lat="48.96918" lon="8.18277">
        <ele>110.6</ele>
        <time>2020-06-28T07:08:13Z</time>
      </trkpt>
      <trkpt lat="48.96917" lon="8.18278">
        <ele>110.6</ele>
        <time>2020-06-28T07:08:14Z</time>
      </trkpt>
      <trkpt lat="48.96916" lon="8.18282">
        <ele>110.6</ele>
        <time>2020-06-28T07:08:15Z</time>
      </trkpt>
      <trkpt lat="48.96915" lon="8.18286">
        <ele>110.6</ele>
        <time>2020-06-28T07:08:16Z</time>
      </trkpt>
      <trkpt lat="48.96913" lon="8.1829">
        <ele>110.6</ele>
        <time>2020-06-28T07:08:17Z</time>
      </trkpt>
      <trkpt lat="48.96912" lon="8.18295">
        <ele>110.6</ele>
        <time>2020-06-28T07:08:18Z</time>
      </trkpt>
      <trkpt lat="48.96912" lon="8.18297">
        <ele>110.7</ele>
        <time>2020-06-28T07:08:19Z</time>
      </trkpt>
      <trkpt lat="48.96912" lon="8.18302">
        <ele>110.7</ele>
        <time>2020-06-28T07:08:20Z</time>
      </trkpt>
      <trkpt lat="48.9691" lon="8.18307">
        <ele>110.7</ele>
        <time>2020-06-28T07:08:21Z</time>
      </trkpt>
      <trkpt lat="48.9691" lon="8.18312">
        <ele>110.8</ele>
        <time>2020-06-28T07:08:22Z</time>
      </trkpt>
      <trkpt lat="48.96909" lon="8.18317">
        <ele>110.8</ele>
        <time>2020-06-28T07:08:23Z</time>
      </trkpt>
      <trkpt lat="48.96908" lon="8.1832">
        <ele>110.8</ele>
        <time>2020-06-28T07:08:24Z</time>
      </trkpt>
      <trkpt lat="48.96906" lon="8.1832">
        <ele>110.8</ele>
        <time>2020-06-28T07:08:25Z</time>
      </trkpt>
      <trkpt lat="48.96905" lon="8.18317">
        <ele>110.8</ele>
        <time>2020-06-28T07:08:26Z</time>
      </trkpt>
      <trkpt lat="48.96905" lon="8.18316">
        <ele>110.8</ele>
        <time>2020-06-28T07:08:27Z</time>
      </trkpt>
      <trkpt lat="48.96905" lon="8.18315">
        <ele>110.8</ele>
        <time>2020-06-28T07:08:28Z</time>
      </trkpt>
      <trkpt lat="48.96905" lon="8.18315">
        <ele>110.8</ele>
        <time>2020-06-28T07:08:29Z</time>
      </trkpt>
      <trkpt lat="48.96904" lon="8.18315">
        <ele>110.8</ele>
        <time>2020-06-28T07:08:30Z</time>
      </trkpt>
      <trkpt lat="48.96903" lon="8.18314">
        <ele>110.8</ele>
        <time>2020-06-28T07:08:31Z</time>
      </trkpt>
      <trkpt lat="48.96903" lon="8.18314">
        <ele>110.8</ele>
        <time>2020-06-28T07:08:32Z</time>
      </trkpt>
      <trkpt lat="48.96903" lon="8.18315">
        <ele>110.8</ele>
        <time>2020-06-28T07:08:33Z</time>
      </trkpt>
      <trkpt lat="48.96903" lon="8.18315">
        <ele>110.8</ele>
        <time>2020-06-28T07:08:34Z</time>
      </trkpt>
      <trkpt lat="48.96903" lon="8.18316">
        <ele>110.8</ele>
        <time>2020-06-28T07:08:35Z</time>
      </trkpt>
      <trkpt lat="48.96903" lon="8.18316">
        <ele>110.9</ele>
        <time>2020-06-28T07:08:36Z</time>
      </trkpt>
      <trkpt lat="48.96902" lon="8.18316">
        <ele>110.9</ele>
        <time>2020-06-28T07:08:37Z</time>
      </trkpt>
      <trkpt lat="48.96902" lon="8.18317">
        <ele>110.9</ele>
        <time>2020-06-28T07:08:38Z</time>
      </trkpt>
      <trkpt lat="48.96902" lon="8.18318">
        <ele>110.9</ele>
        <time>2020-06-28T07:08:39Z</time>
      </trkpt>
      <trkpt lat="48.96902" lon="8.18319">
        <ele>110.9</ele>
        <time>2020-06-28T07:08:40Z</time>
      </trkpt>
      <trkpt lat="48.96902" lon="8.18321">
        <ele>110.9</ele>
        <time>2020-06-28T07:08:41Z</time>
      </trkpt>
      <trkpt lat="48.96902" lon="8.18322">
        <ele>110.9</ele>
        <time>2020-06-28T07:08:42Z</time>
      </trkpt>
      <trkpt lat="48.96902" lon="8.18323">
        <ele>111</ele>
        <time>2020-06-28T07:08:43Z</time>
      </trkpt>
      <trkpt lat="48.96902" lon="8.18325">
        <ele>111</ele>
        <time>2020-06-28T07:08:44Z</time>
      </trkpt>
      <trkpt lat="48.96902" lon="8.18326">
        <ele>111</ele>
        <time>2020-06-28T07:08:45Z</time>
      </trkpt>
      <trkpt lat="48.96902" lon="8.18327">
        <ele>111</ele>
        <time>2020-06-28T07:09:22Z</time>
      </trkpt>
      <trkpt lat="48.96902" lon="8.18329">
        <ele>111</ele>
        <time>2020-06-28T07:09:23Z</time>
      </trkpt>
      <trkpt lat="48.969" lon="8.18331">
        <ele>111.1</ele>
        <time>2020-06-28T07:09:24Z</time>
      </trkpt>
      <trkpt lat="48.969" lon="8.18333">
        <ele>111.1</ele>
        <time>2020-06-28T07:09:25Z</time>
      </trkpt>
      <trkpt lat="48.96899" lon="8.18335">
        <ele>111.1</ele>
        <time>2020-06-28T07:09:26Z</time>
      </trkpt>
      <trkpt lat="48.969" lon="8.1834">
        <ele>111.2</ele>
        <time>2020-06-28T07:09:27Z</time>
      </trkpt>
      <trkpt lat="48.969" lon="8.18342">
        <ele>111.2</ele>
        <time>2020-06-28T07:09:28Z</time>
      </trkpt>
      <trkpt lat="48.96901" lon="8.18347">
        <ele>111.3</ele>
        <time>2020-06-28T07:09:29Z</time>
      </trkpt>
      <trkpt lat="48.969" lon="8.18352">
        <ele>111.3</ele>
        <time>2020-06-28T07:09:30Z</time>
      </trkpt>
      <trkpt lat="48.969" lon="8.18358">
        <ele>111.3</ele>
        <time>2020-06-28T07:09:31Z</time>
      </trkpt>
      <trkpt lat="48.96898" lon="8.18365">
        <ele>111.4</ele>
        <time>2020-06-28T07:09:32Z</time>
      </trkpt>
      <trkpt lat="48.96896" lon="8.18371">
        <ele>111.4</ele>
        <time>2020-06-28T07:09:33Z</time>
      </trkpt>
      <trkpt lat="48.96894" lon="8.18377">
        <ele>111.5</ele>
        <time>2020-06-28T07:09:34Z</time>
      </trkpt>
      <trkpt lat="48.96892" lon="8.18383">
        <ele>111.5</ele>
        <time>2020-06-28T07:09:35Z</time>
      </trkpt>
      <trkpt lat="48.96891" lon="8.18389">
        <ele>111.3</ele>
        <time>2020-06-28T07:09:36Z</time>
      </trkpt>
      <trkpt lat="48.9689" lon="8.18394">
        <ele>111.1</ele>
        <time>2020-06-28T07:09:37Z</time>
      </trkpt>
      <trkpt lat="48.96887" lon="8.18399">
        <ele>111</ele>
        <time>2020-06-28T07:09:38Z</time>
      </trkpt>
      <trkpt lat="48.96886" lon="8.18405">
        <ele>110.9</ele>
        <time>2020-06-28T07:09:39Z</time>
      </trkpt>
      <trkpt lat="48.96884" lon="8.18409">
        <ele>110.7</ele>
        <time>2020-06-28T07:09:40Z</time>
      </trkpt>
      <trkpt lat="48.96882" lon="8.18414">
        <ele>110.6</ele>
        <time>2020-06-28T07:09:41Z</time>
      </trkpt>
      <trkpt lat="48.96878" lon="8.18417">
        <ele>110.4</ele>
        <time>2020-06-28T07:09:42Z</time>
      </trkpt>
      <trkpt lat="48.96874" lon="8.18418">
        <ele>110.4</ele>
        <time>2020-06-28T07:09:43Z</time>
      </trkpt>
      <trkpt lat="48.96869" lon="8.18419">
        <ele>110.3</ele>
        <time>2020-06-28T07:09:44Z</time>
      </trkpt>
      <trkpt lat="48.96865" lon="8.18421">
        <ele>110.2</ele>
        <time>2020-06-28T07:09:45Z</time>
      </trkpt>
      <trkpt lat="48.96861" lon="8.18422">
        <ele>110.1</ele>
        <time>2020-06-28T07:09:46Z</time>
      </trkpt>
      <trkpt lat="48.96858" lon="8.18423">
        <ele>110</ele>
        <time>2020-06-28T07:09:47Z</time>
      </trkpt>
      <trkpt lat="48.96854" lon="8.18424">
        <ele>110</ele>
        <time>2020-06-28T07:09:48Z</time>
      </trkpt>
      <trkpt lat="48.96849" lon="8.18422">
        <ele>109.9</ele>
        <time>2020-06-28T07:09:49Z</time>
      </trkpt>
      <trkpt lat="48.96845" lon="8.1842">
        <ele>109.8</ele>
        <time>2020-06-28T07:09:50Z</time>
      </trkpt>
      <trkpt lat="48.9684" lon="8.18417">
        <ele>109.8</ele>
        <time>2020-06-28T07:09:51Z</time>
      </trkpt>
      <trkpt lat="48.96835" lon="8.18416">
        <ele>109.7</ele>
        <time>2020-06-28T07:09:52Z</time>
      </trkpt>
      <trkpt lat="48.96831" lon="8.18416">
        <ele>109.6</ele>
        <time>2020-06-28T07:09:53Z</time>
      </trkpt>
      <trkpt lat="48.96826" lon="8.18415">
        <ele>109.5</ele>
        <time>2020-06-28T07:09:54Z</time>
      </trkpt>
      <trkpt lat="48.96821" lon="8.18413">
        <ele>109.4</ele>
        <time>2020-06-28T07:09:55Z</time>
      </trkpt>
      <trkpt lat="48.96815" lon="8.18412">
        <ele>109.3</ele>
        <time>2020-06-28T07:09:56Z</time>
      </trkpt>
      <trkpt lat="48.9681" lon="8.18411">
        <ele>109.1</ele>
        <time>2020-06-28T07:09:57Z</time>
      </trkpt>
      <trkpt lat="48.96805" lon="8.18411">
        <ele>109</ele>
        <time>2020-06-28T07:09:58Z</time>
      </trkpt>
      <trkpt lat="48.96799" lon="8.1841">
        <ele>108.9</ele>
        <time>2020-06-28T07:09:59Z</time>
      </trkpt>
      <trkpt lat="48.96793" lon="8.18408">
        <ele>108.9</ele>
        <time>2020-06-28T07:10:00Z</time>
      </trkpt>
      <trkpt lat="48.96787" lon="8.18407">
        <ele>108.8</ele>
        <time>2020-06-28T07:10:01Z</time>
      </trkpt>
      <trkpt lat="48.96781" lon="8.18407">
        <ele>108.7</ele>
        <time>2020-06-28T07:10:02Z</time>
      </trkpt>
      <trkpt lat="48.96774" lon="8.18407">
        <ele>108.6</ele>
        <time>2020-06-28T07:10:03Z</time>
      </trkpt>
      <trkpt lat="48.96768" lon="8.18407">
        <ele>108.6</ele>
        <time>2020-06-28T07:10:04Z</time>
      </trkpt>
      <trkpt lat="48.96762" lon="8.18409">
        <ele>108.5</ele>
        <time>2020-06-28T07:10:05Z</time>
      </trkpt>
      <trkpt lat="48.96756" lon="8.1841">
        <ele>108.5</ele>
        <time>2020-06-28T07:10:06Z</time>
      </trkpt>
      <trkpt lat="48.96749" lon="8.18412">
        <ele>108.5</ele>
        <time>2020-06-28T07:10:07Z</time>
      </trkpt>
      <trkpt lat="48.96742" lon="8.18413">
        <ele>108.5</ele>
        <time>2020-06-28T07:10:08Z</time>
      </trkpt>
      <trkpt lat="48.96736" lon="8.18415">
        <ele>108.5</ele>
        <time>2020-06-28T07:10:09Z</time>
      </trkpt>
      <trkpt lat="48.96731" lon="8.18418">
        <ele>108.5</ele>
        <time>2020-06-28T07:10:10Z</time>
      </trkpt>
      <trkpt lat="48.96725" lon="8.18421">
        <ele>108.5</ele>
        <time>2020-06-28T07:10:11Z</time>
      </trkpt>
      <trkpt lat="48.96719" lon="8.18423">
        <ele>108.5</ele>
        <time>2020-06-28T07:10:12Z</time>
      </trkpt>
      <trkpt lat="48.96713" lon="8.18425">
        <ele>108.5</ele>
        <time>2020-06-28T07:10:13Z</time>
      </trkpt>
      <trkpt lat="48.96708" lon="8.18428">
        <ele>108.5</ele>
        <time>2020-06-28T07:10:14Z</time>
      </trkpt>
      <trkpt lat="48.96703" lon="8.18429">
        <ele>108.5</ele>
        <time>2020-06-28T07:10:15Z</time>
      </trkpt>
      <trkpt lat="48.96697" lon="8.1843">
        <ele>108.5</ele>
        <time>2020-06-28T07:10:16Z</time>
      </trkpt>
      <trkpt lat="48.96692" lon="8.18432">
        <ele>108.5</ele>
        <time>2020-06-28T07:10:17Z</time>
      </trkpt>
      <trkpt lat="48.96687" lon="8.18435">
        <ele>108.6</ele>
        <time>2020-06-28T07:10:18Z</time>
      </trkpt>
      <trkpt lat="48.96681" lon="8.18437">
        <ele>108.6</ele>
        <time>2020-06-28T07:10:19Z</time>
      </trkpt>
      <trkpt lat="48.96676" lon="8.18438">
        <ele>108.7</ele>
        <time>2020-06-28T07:10:20Z</time>
      </trkpt>
      <trkpt lat="48.96671" lon="8.1844">
        <ele>108.7</ele>
        <time>2020-06-28T07:10:21Z</time>
      </trkpt>
      <trkpt lat="48.96666" lon="8.18442">
        <ele>108.8</ele>
        <time>2020-06-28T07:10:22Z</time>
      </trkpt>
      <trkpt lat="48.96661" lon="8.18443">
        <ele>108.8</ele>
        <time>2020-06-28T07:10:23Z</time>
      </trkpt>
      <trkpt lat="48.96656" lon="8.18445">
        <ele>108.9</ele>
        <time>2020-06-28T07:10:24Z</time>
      </trkpt>
      <trkpt lat="48.96651" lon="8.18445">
        <ele>108.9</ele>
        <time>2020-06-28T07:10:25Z</time>
      </trkpt>
      <trkpt lat="48.96647" lon="8.18446">
        <ele>108.9</ele>
        <time>2020-06-28T07:10:26Z</time>
      </trkpt>
      <trkpt lat="48.96642" lon="8.18447">
        <ele>108.9</ele>
        <time>2020-06-28T07:10:27Z</time>
      </trkpt>
      <trkpt lat="48.96637" lon="8.18448">
        <ele>109</ele>
        <time>2020-06-28T07:10:28Z</time>
      </trkpt>
      <trkpt lat="48.96632" lon="8.18449">
        <ele>109</ele>
        <time>2020-06-28T07:10:29Z</time>
      </trkpt>
      <trkpt lat="48.96627" lon="8.1845">
        <ele>109</ele>
        <time>2020-06-28T07:10:30Z</time>
      </trkpt>
      <trkpt lat="48.96621" lon="8.18451">
        <ele>109.1</ele>
        <time>2020-06-28T07:10:31Z</time>
      </trkpt>
      <trkpt lat="48.96616" lon="8.18452">
        <ele>109.1</ele>
        <time>2020-06-28T07:10:32Z</time>
      </trkpt>
      <trkpt lat="48.96611" lon="8.18452">
        <ele>109.1</ele>
        <time>2020-06-28T07:10:33Z</time>
      </trkpt>
      <trkpt lat="48.96605" lon="8.18453">
        <ele>109.2</ele>
        <time>2020-06-28T07:10:34Z</time>
      </trkpt>
      <trkpt lat="48.966" lon="8.18455">
        <ele>109.2</ele>
        <time>2020-06-28T07:10:35Z</time>
      </trkpt>
      <trkpt lat="48.96596" lon="8.18456">
        <ele>109.2</ele>
        <time>2020-06-28T07:10:36Z</time>
      </trkpt>
      <trkpt lat="48.9659" lon="8.18456">
        <ele>109.3</ele>
        <time>2020-06-28T07:10:37Z</time>
      </trkpt>
      <trkpt lat="48.96585" lon="8.18456">
        <ele>109.3</ele>
        <time>2020-06-28T07:10:38Z</time>
      </trkpt>
      <trkpt lat="48.96581" lon="8.18457">
        <ele>109.4</ele>
        <time>2020-06-28T07:10:39Z</time>
      </trkpt>
      <trkpt lat="48.96576" lon="8.18458">
        <ele>109.4</ele>
        <time>2020-06-28T07:10:40Z</time>
      </trkpt>
      <trkpt lat="48.96571" lon="8.18457">
        <ele>109.5</ele>
        <time>2020-06-28T07:10:41Z</time>
      </trkpt>
      <trkpt lat="48.96566" lon="8.18459">
        <ele>109.5</ele>
        <time>2020-06-28T07:10:42Z</time>
      </trkpt>
      <trkpt lat="48.9656" lon="8.1846">
        <ele>109.5</ele>
        <time>2020-06-28T07:10:43Z</time>
      </trkpt>
      <trkpt lat="48.96555" lon="8.18462">
        <ele>109.4</ele>
        <time>2020-06-28T07:10:44Z</time>
      </trkpt>
      <trkpt lat="48.96551" lon="8.18465">
        <ele>109.4</ele>
        <time>2020-06-28T07:10:45Z</time>
      </trkpt>
      <trkpt lat="48.96547" lon="8.18468">
        <ele>109.4</ele>
        <time>2020-06-28T07:10:46Z</time>
      </trkpt>
      <trkpt lat="48.96542" lon="8.18471">
        <ele>109.4</ele>
        <time>2020-06-28T07:10:47Z</time>
      </trkpt>
      <trkpt lat="48.96537" lon="8.18474">
        <ele>109.4</ele>
        <time>2020-06-28T07:10:48Z</time>
      </trkpt>
      <trkpt lat="48.96533" lon="8.18477">
        <ele>109.4</ele>
        <time>2020-06-28T07:10:49Z</time>
      </trkpt>
      <trkpt lat="48.96528" lon="8.18481">
        <ele>109.4</ele>
        <time>2020-06-28T07:10:50Z</time>
      </trkpt>
      <trkpt lat="48.96524" lon="8.18486">
        <ele>109.3</ele>
        <time>2020-06-28T07:10:51Z</time>
      </trkpt>
      <trkpt lat="48.9652" lon="8.18491">
        <ele>109.3</ele>
        <time>2020-06-28T07:10:52Z</time>
      </trkpt>
      <trkpt lat="48.96516" lon="8.18497">
        <ele>109.3</ele>
        <time>2020-06-28T07:10:53Z</time>
      </trkpt>
      <trkpt lat="48.96512" lon="8.18505">
        <ele>109.1</ele>
        <time>2020-06-28T07:10:54Z</time>
      </trkpt>
      <trkpt lat="48.96509" lon="8.18513">
        <ele>109</ele>
        <time>2020-06-28T07:10:55Z</time>
      </trkpt>
      <trkpt lat="48.96506" lon="8.1852">
        <ele>109</ele>
        <time>2020-06-28T07:10:56Z</time>
      </trkpt>
      <trkpt lat="48.96504" lon="8.18527">
        <ele>109</ele>
        <time>2020-06-28T07:10:57Z</time>
      </trkpt>
      <trkpt lat="48.96501" lon="8.18535">
        <ele>109</ele>
        <time>2020-06-28T07:10:58Z</time>
      </trkpt>
      <trkpt lat="48.96498" lon="8.18543">
        <ele>109</ele>
        <time>2020-06-28T07:10:59Z</time>
      </trkpt>
      <trkpt lat="48.96495" lon="8.1855">
        <ele>109</ele>
        <time>2020-06-28T07:11:00Z</time>
      </trkpt>
      <trkpt lat="48.96492" lon="8.18558">
        <ele>109.1</ele>
        <time>2020-06-28T07:11:01Z</time>
      </trkpt>
      <trkpt lat="48.96491" lon="8.18567">
        <ele>109.1</ele>
        <time>2020-06-28T07:11:02Z</time>
      </trkpt>
      <trkpt lat="48.96489" lon="8.18574">
        <ele>109.1</ele>
        <time>2020-06-28T07:11:03Z</time>
      </trkpt>
      <trkpt lat="48.96487" lon="8.18582">
        <ele>109.1</ele>
        <time>2020-06-28T07:11:04Z</time>
      </trkpt>
      <trkpt lat="48.96485" lon="8.1859">
        <ele>109.1</ele>
        <time>2020-06-28T07:11:05Z</time>
      </trkpt>
      <trkpt lat="48.96484" lon="8.18597">
        <ele>109.1</ele>
        <time>2020-06-28T07:11:06Z</time>
      </trkpt>
      <trkpt lat="48.96482" lon="8.18604">
        <ele>109.1</ele>
        <time>2020-06-28T07:11:07Z</time>
      </trkpt>
      <trkpt lat="48.9648" lon="8.18611">
        <ele>109.1</ele>
        <time>2020-06-28T07:11:08Z</time>
      </trkpt>
      <trkpt lat="48.96478" lon="8.18618">
        <ele>109.1</ele>
        <time>2020-06-28T07:11:09Z</time>
      </trkpt>
      <trkpt lat="48.96477" lon="8.18626">
        <ele>109.1</ele>
        <time>2020-06-28T07:11:10Z</time>
      </trkpt>
      <trkpt lat="48.96476" lon="8.18634">
        <ele>109.1</ele>
        <time>2020-06-28T07:11:11Z</time>
      </trkpt>
      <trkpt lat="48.96473" lon="8.18642">
        <ele>109</ele>
        <time>2020-06-28T07:11:12Z</time>
      </trkpt>
      <trkpt lat="48.96471" lon="8.1865">
        <ele>108.8</ele>
        <time>2020-06-28T07:11:13Z</time>
      </trkpt>
      <trkpt lat="48.96469" lon="8.18659">
        <ele>108.7</ele>
        <time>2020-06-28T07:11:14Z</time>
      </trkpt>
      <trkpt lat="48.96466" lon="8.18667">
        <ele>108.6</ele>
        <time>2020-06-28T07:11:15Z</time>
      </trkpt>
      <trkpt lat="48.96466" lon="8.18675">
        <ele>108.5</ele>
        <time>2020-06-28T07:11:16Z</time>
      </trkpt>
      <trkpt lat="48.96464" lon="8.18683">
        <ele>108.5</ele>
        <time>2020-06-28T07:11:17Z</time>
      </trkpt>
      <trkpt lat="48.96462" lon="8.18692">
        <ele>108.5</ele>
        <time>2020-06-28T07:11:18Z</time>
      </trkpt>
      <trkpt lat="48.9646" lon="8.18701">
        <ele>108.5</ele>
        <time>2020-06-28T07:11:19Z</time>
      </trkpt>
      <trkpt lat="48.96458" lon="8.1871">
        <ele>108.5</ele>
        <time>2020-06-28T07:11:20Z</time>
      </trkpt>
      <trkpt lat="48.96455" lon="8.18719">
        <ele>108.5</ele>
        <time>2020-06-28T07:11:21Z</time>
      </trkpt>
      <trkpt lat="48.96451" lon="8.18727">
        <ele>108.5</ele>
        <time>2020-06-28T07:11:22Z</time>
      </trkpt>
      <trkpt lat="48.96449" lon="8.18736">
        <ele>108.5</ele>
        <time>2020-06-28T07:11:23Z</time>
      </trkpt>
      <trkpt lat="48.96445" lon="8.18744">
        <ele>108.5</ele>
        <time>2020-06-28T07:11:24Z</time>
      </trkpt>
      <trkpt lat="48.96441" lon="8.18751">
        <ele>108.5</ele>
        <time>2020-06-28T07:11:25Z</time>
      </trkpt>
      <trkpt lat="48.96438" lon="8.18759">
        <ele>108.5</ele>
        <time>2020-06-28T07:11:26Z</time>
      </trkpt>
      <trkpt lat="48.96435" lon="8.18768">
        <ele>108.6</ele>
        <time>2020-06-28T07:11:27Z</time>
      </trkpt>
      <trkpt lat="48.96432" lon="8.18776">
        <ele>108.6</ele>
        <time>2020-06-28T07:11:28Z</time>
      </trkpt>
      <trkpt lat="48.9643" lon="8.18784">
        <ele>108.6</ele>
        <time>2020-06-28T07:11:29Z</time>
      </trkpt>
      <trkpt lat="48.96427" lon="8.18792">
        <ele>108.6</ele>
        <time>2020-06-28T07:11:30Z</time>
      </trkpt>
      <trkpt lat="48.96423" lon="8.188">
        <ele>108.6</ele>
        <time>2020-06-28T07:11:31Z</time>
      </trkpt>
      <trkpt lat="48.96419" lon="8.18808">
        <ele>108.6</ele>
        <time>2020-06-28T07:11:32Z</time>
      </trkpt>
      <trkpt lat="48.96416" lon="8.18815">
        <ele>108.6</ele>
        <time>2020-06-28T07:11:33Z</time>
      </trkpt>
      <trkpt lat="48.96412" lon="8.18822">
        <ele>108.6</ele>
        <time>2020-06-28T07:11:34Z</time>
      </trkpt>
      <trkpt lat="48.96408" lon="8.18828">
        <ele>108.6</ele>
        <time>2020-06-28T07:11:35Z</time>
      </trkpt>
      <trkpt lat="48.96404" lon="8.18835">
        <ele>108.6</ele>
        <time>2020-06-28T07:11:36Z</time>
      </trkpt>
      <trkpt lat="48.96399" lon="8.18842">
        <ele>108.6</ele>
        <time>2020-06-28T07:11:37Z</time>
      </trkpt>
      <trkpt lat="48.96395" lon="8.18848">
        <ele>108.6</ele>
        <time>2020-06-28T07:11:38Z</time>
      </trkpt>
      <trkpt lat="48.9639" lon="8.18854">
        <ele>108.7</ele>
        <time>2020-06-28T07:11:39Z</time>
      </trkpt>
      <trkpt lat="48.96385" lon="8.18859">
        <ele>108.7</ele>
        <time>2020-06-28T07:11:40Z</time>
      </trkpt>
      <trkpt lat="48.9638" lon="8.18865">
        <ele>108.7</ele>
        <time>2020-06-28T07:11:41Z</time>
      </trkpt>
      <trkpt lat="48.96375" lon="8.18871">
        <ele>108.7</ele>
        <time>2020-06-28T07:11:42Z</time>
      </trkpt>
      <trkpt lat="48.9637" lon="8.18877">
        <ele>108.7</ele>
        <time>2020-06-28T07:11:43Z</time>
      </trkpt>
      <trkpt lat="48.96365" lon="8.18884">
        <ele>108.8</ele>
        <time>2020-06-28T07:11:44Z</time>
      </trkpt>
      <trkpt lat="48.96361" lon="8.1889">
        <ele>108.8</ele>
        <time>2020-06-28T07:11:45Z</time>
      </trkpt>
      <trkpt lat="48.96356" lon="8.18895">
        <ele>108.8</ele>
        <time>2020-06-28T07:11:46Z</time>
      </trkpt>
      <trkpt lat="48.96352" lon="8.18902">
        <ele>108.8</ele>
        <time>2020-06-28T07:11:47Z</time>
      </trkpt>
      <trkpt lat="48.96348" lon="8.18908">
        <ele>108.8</ele>
        <time>2020-06-28T07:11:48Z</time>
      </trkpt>
      <trkpt lat="48.96346" lon="8.18912">
        <ele>108.8</ele>
        <time>2020-06-28T07:11:49Z</time>
      </trkpt>
      <trkpt lat="48.96345" lon="8.18919">
        <ele>108.8</ele>
        <time>2020-06-28T07:11:50Z</time>
      </trkpt>
      <trkpt lat="48.96341" lon="8.18925">
        <ele>108.8</ele>
        <time>2020-06-28T07:11:51Z</time>
      </trkpt>
      <trkpt lat="48.96336" lon="8.18932">
        <ele>108.8</ele>
        <time>2020-06-28T07:11:52Z</time>
      </trkpt>
      <trkpt lat="48.96331" lon="8.18938">
        <ele>108.8</ele>
        <time>2020-06-28T07:11:53Z</time>
      </trkpt>
      <trkpt lat="48.96325" lon="8.18945">
        <ele>108.8</ele>
        <time>2020-06-28T07:11:54Z</time>
      </trkpt>
      <trkpt lat="48.96321" lon="8.1895">
        <ele>108.8</ele>
        <time>2020-06-28T07:11:55Z</time>
      </trkpt>
      <trkpt lat="48.96315" lon="8.18958">
        <ele>108.8</ele>
        <time>2020-06-28T07:11:56Z</time>
      </trkpt>
      <trkpt lat="48.9631" lon="8.18965">
        <ele>108.9</ele>
        <time>2020-06-28T07:11:57Z</time>
      </trkpt>
      <trkpt lat="48.96303" lon="8.18971">
        <ele>109</ele>
        <time>2020-06-28T07:11:58Z</time>
      </trkpt>
      <trkpt lat="48.96297" lon="8.18977">
        <ele>109.1</ele>
        <time>2020-06-28T07:11:59Z</time>
      </trkpt>
      <trkpt lat="48.96292" lon="8.18983">
        <ele>109.2</ele>
        <time>2020-06-28T07:12:00Z</time>
      </trkpt>
      <trkpt lat="48.96287" lon="8.18988">
        <ele>109.4</ele>
        <time>2020-06-28T07:12:01Z</time>
      </trkpt>
      <trkpt lat="48.96283" lon="8.18993">
        <ele>109.4</ele>
        <time>2020-06-28T07:12:02Z</time>
      </trkpt>
      <trkpt lat="48.96278" lon="8.18996">
        <ele>109.3</ele>
        <time>2020-06-28T07:12:03Z</time>
      </trkpt>
      <trkpt lat="48.96273" lon="8.19002">
        <ele>109.3</ele>
        <time>2020-06-28T07:12:04Z</time>
      </trkpt>
      <trkpt lat="48.96268" lon="8.19008">
        <ele>109.3</ele>
        <time>2020-06-28T07:12:05Z</time>
      </trkpt>
      <trkpt lat="48.96263" lon="8.19014">
        <ele>109.3</ele>
        <time>2020-06-28T07:12:06Z</time>
      </trkpt>
      <trkpt lat="48.96258" lon="8.19019">
        <ele>109.3</ele>
        <time>2020-06-28T07:12:07Z</time>
      </trkpt>
      <trkpt lat="48.96254" lon="8.19025">
        <ele>109.3</ele>
        <time>2020-06-28T07:12:08Z</time>
      </trkpt>
      <trkpt lat="48.9625" lon="8.19031">
        <ele>109.3</ele>
        <time>2020-06-28T07:12:09Z</time>
      </trkpt>
      <trkpt lat="48.96248" lon="8.19035">
        <ele>109.4</ele>
        <time>2020-06-28T07:12:10Z</time>
      </trkpt>
      <trkpt lat="48.96244" lon="8.19042">
        <ele>109.4</ele>
        <time>2020-06-28T07:12:11Z</time>
      </trkpt>
      <trkpt lat="48.96242" lon="8.19046">
        <ele>109.5</ele>
        <time>2020-06-28T07:12:12Z</time>
      </trkpt>
      <trkpt lat="48.96238" lon="8.19051">
        <ele>109.5</ele>
        <time>2020-06-28T07:12:13Z</time>
      </trkpt>
      <trkpt lat="48.96235" lon="8.19056">
        <ele>109.5</ele>
        <time>2020-06-28T07:12:14Z</time>
      </trkpt>
      <trkpt lat="48.96231" lon="8.19061">
        <ele>109.5</ele>
        <time>2020-06-28T07:12:15Z</time>
      </trkpt>
      <trkpt lat="48.96228" lon="8.19066">
        <ele>109.5</ele>
        <time>2020-06-28T07:12:16Z</time>
      </trkpt>
      <trkpt lat="48.96224" lon="8.19071">
        <ele>109.5</ele>
        <time>2020-06-28T07:12:17Z</time>
      </trkpt>
      <trkpt lat="48.96221" lon="8.19076">
        <ele>109.5</ele>
        <time>2020-06-28T07:12:18Z</time>
      </trkpt>
      <trkpt lat="48.96217" lon="8.19082">
        <ele>109.5</ele>
        <time>2020-06-28T07:12:19Z</time>
      </trkpt>
      <trkpt lat="48.96213" lon="8.19087">
        <ele>109.6</ele>
        <time>2020-06-28T07:12:20Z</time>
      </trkpt>
      <trkpt lat="48.9621" lon="8.19092">
        <ele>109.6</ele>
        <time>2020-06-28T07:12:21Z</time>
      </trkpt>
      <trkpt lat="48.96208" lon="8.19096">
        <ele>109.6</ele>
        <time>2020-06-28T07:12:22Z</time>
      </trkpt>
      <trkpt lat="48.96205" lon="8.19102">
        <ele>109.7</ele>
        <time>2020-06-28T07:12:23Z</time>
      </trkpt>
      <trkpt lat="48.96202" lon="8.19107">
        <ele>109.7</ele>
        <time>2020-06-28T07:12:24Z</time>
      </trkpt>
      <trkpt lat="48.96199" lon="8.19113">
        <ele>109.7</ele>
        <time>2020-06-28T07:12:25Z</time>
      </trkpt>
      <trkpt lat="48.96196" lon="8.19119">
        <ele>109.7</ele>
        <time>2020-06-28T07:12:26Z</time>
      </trkpt>
      <trkpt lat="48.96193" lon="8.19124">
        <ele>109.8</ele>
        <time>2020-06-28T07:12:28Z</time>
      </trkpt>
      <trkpt lat="48.9619" lon="8.19129">
        <ele>109.8</ele>
        <time>2020-06-28T07:12:29Z</time>
      </trkpt>
      <trkpt lat="48.96187" lon="8.19134">
        <ele>109.8</ele>
        <time>2020-06-28T07:12:30Z</time>
      </trkpt>
      <trkpt lat="48.96183" lon="8.19139">
        <ele>109.8</ele>
        <time>2020-06-28T07:12:31Z</time>
      </trkpt>
      <trkpt lat="48.9618" lon="8.19145">
        <ele>109.8</ele>
        <time>2020-06-28T07:12:32Z</time>
      </trkpt>
      <trkpt lat="48.96177" lon="8.19149">
        <ele>109.8</ele>
        <time>2020-06-28T07:12:33Z</time>
      </trkpt>
      <trkpt lat="48.96173" lon="8.19154">
        <ele>109.8</ele>
        <time>2020-06-28T07:12:34Z</time>
      </trkpt>
      <trkpt lat="48.96169" lon="8.1916">
        <ele>109.8</ele>
        <time>2020-06-28T07:12:35Z</time>
      </trkpt>
      <trkpt lat="48.96166" lon="8.19164">
        <ele>109.8</ele>
        <time>2020-06-28T07:12:36Z</time>
      </trkpt>
      <trkpt lat="48.96162" lon="8.19169">
        <ele>109.8</ele>
        <time>2020-06-28T07:12:37Z</time>
      </trkpt>
      <trkpt lat="48.96157" lon="8.19174">
        <ele>109.8</ele>
        <time>2020-06-28T07:12:38Z</time>
      </trkpt>
      <trkpt lat="48.96152" lon="8.19179">
        <ele>109.8</ele>
        <time>2020-06-28T07:12:39Z</time>
      </trkpt>
      <trkpt lat="48.96147" lon="8.19184">
        <ele>109.8</ele>
        <time>2020-06-28T07:12:40Z</time>
      </trkpt>
      <trkpt lat="48.96141" lon="8.19188">
        <ele>109.8</ele>
        <time>2020-06-28T07:12:41Z</time>
      </trkpt>
      <trkpt lat="48.96135" lon="8.19193">
        <ele>109.8</ele>
        <time>2020-06-28T07:12:42Z</time>
      </trkpt>
      <trkpt lat="48.9613" lon="8.19197">
        <ele>109.8</ele>
        <time>2020-06-28T07:12:43Z</time>
      </trkpt>
      <trkpt lat="48.96124" lon="8.192">
        <ele>109.8</ele>
        <time>2020-06-28T07:12:44Z</time>
      </trkpt>
      <trkpt lat="48.96118" lon="8.19204">
        <ele>109.7</ele>
        <time>2020-06-28T07:12:45Z</time>
      </trkpt>
      <trkpt lat="48.96113" lon="8.19207">
        <ele>109.7</ele>
        <time>2020-06-28T07:12:46Z</time>
      </trkpt>
      <trkpt lat="48.96107" lon="8.19212">
        <ele>109.7</ele>
        <time>2020-06-28T07:12:47Z</time>
      </trkpt>
      <trkpt lat="48.96095" lon="8.19222">
        <ele>109.6</ele>
        <time>2020-06-28T07:12:48Z</time>
      </trkpt>
      <trkpt lat="48.9609" lon="8.19226">
        <ele>109.6</ele>
        <time>2020-06-28T07:12:49Z</time>
      </trkpt>
      <trkpt lat="48.96085" lon="8.19231">
        <ele>109.6</ele>
        <time>2020-06-28T07:12:50Z</time>
      </trkpt>
      <trkpt lat="48.96079" lon="8.19234">
        <ele>109.5</ele>
        <time>2020-06-28T07:12:51Z</time>
      </trkpt>
      <trkpt lat="48.96076" lon="8.19236">
        <ele>109.5</ele>
        <time>2020-06-28T07:12:52Z</time>
      </trkpt>
      <trkpt lat="48.96072" lon="8.19241">
        <ele>109.5</ele>
        <time>2020-06-28T07:12:53Z</time>
      </trkpt>
      <trkpt lat="48.96067" lon="8.19245">
        <ele>109.5</ele>
        <time>2020-06-28T07:12:54Z</time>
      </trkpt>
      <trkpt lat="48.96061" lon="8.1925">
        <ele>109.5</ele>
        <time>2020-06-28T07:12:55Z</time>
      </trkpt>
      <trkpt lat="48.96055" lon="8.19254">
        <ele>109.5</ele>
        <time>2020-06-28T07:12:56Z</time>
      </trkpt>
      <trkpt lat="48.9605" lon="8.19259">
        <ele>109.5</ele>
        <time>2020-06-28T07:12:57Z</time>
      </trkpt>
      <trkpt lat="48.96044" lon="8.19262">
        <ele>109.5</ele>
        <time>2020-06-28T07:12:58Z</time>
      </trkpt>
      <trkpt lat="48.96038" lon="8.19266">
        <ele>109.5</ele>
        <time>2020-06-28T07:12:59Z</time>
      </trkpt>
      <trkpt lat="48.96033" lon="8.1927">
        <ele>109.5</ele>
        <time>2020-06-28T07:13:00Z</time>
      </trkpt>
      <trkpt lat="48.96028" lon="8.19275">
        <ele>109.5</ele>
        <time>2020-06-28T07:13:01Z</time>
      </trkpt>
      <trkpt lat="48.96022" lon="8.19279">
        <ele>109.4</ele>
        <time>2020-06-28T07:13:02Z</time>
      </trkpt>
      <trkpt lat="48.96018" lon="8.19284">
        <ele>109.4</ele>
        <time>2020-06-28T07:13:03Z</time>
      </trkpt>
      <trkpt lat="48.96013" lon="8.19288">
        <ele>109.3</ele>
        <time>2020-06-28T07:13:04Z</time>
      </trkpt>
      <trkpt lat="48.96008" lon="8.19293">
        <ele>109.3</ele>
        <time>2020-06-28T07:13:05Z</time>
      </trkpt>
      <trkpt lat="48.96004" lon="8.19298">
        <ele>109.3</ele>
        <time>2020-06-28T07:13:06Z</time>
      </trkpt>
      <trkpt lat="48.96" lon="8.19301">
        <ele>109.3</ele>
        <time>2020-06-28T07:13:07Z</time>
      </trkpt>
      <trkpt lat="48.95997" lon="8.19305">
        <ele>109.3</ele>
        <time>2020-06-28T07:13:08Z</time>
      </trkpt>
      <trkpt lat="48.95995" lon="8.1931">
        <ele>109.3</ele>
        <time>2020-06-28T07:13:09Z</time>
      </trkpt>
      <trkpt lat="48.95991" lon="8.19316">
        <ele>109.3</ele>
        <time>2020-06-28T07:13:10Z</time>
      </trkpt>
      <trkpt lat="48.95988" lon="8.19321">
        <ele>109.3</ele>
        <time>2020-06-28T07:13:11Z</time>
      </trkpt>
      <trkpt lat="48.95985" lon="8.19326">
        <ele>109.3</ele>
        <time>2020-06-28T07:13:12Z</time>
      </trkpt>
      <trkpt lat="48.95982" lon="8.1933">
        <ele>109.3</ele>
        <time>2020-06-28T07:13:13Z</time>
      </trkpt>
      <trkpt lat="48.9598" lon="8.19334">
        <ele>109.3</ele>
        <time>2020-06-28T07:13:14Z</time>
      </trkpt>
      <trkpt lat="48.95975" lon="8.19337">
        <ele>109.4</ele>
        <time>2020-06-28T07:13:15Z</time>
      </trkpt>
      <trkpt lat="48.95972" lon="8.19337">
        <ele>109.4</ele>
        <time>2020-06-28T07:13:16Z</time>
      </trkpt>
      <trkpt lat="48.95966" lon="8.19336">
        <ele>109.5</ele>
        <time>2020-06-28T07:13:17Z</time>
      </trkpt>
      <trkpt lat="48.95961" lon="8.19331">
        <ele>109.5</ele>
        <time>2020-06-28T07:13:18Z</time>
      </trkpt>
      <trkpt lat="48.95956" lon="8.19327">
        <ele>109.5</ele>
        <time>2020-06-28T07:13:19Z</time>
      </trkpt>
      <trkpt lat="48.95951" lon="8.19321">
        <ele>109.5</ele>
        <time>2020-06-28T07:13:20Z</time>
      </trkpt>
      <trkpt lat="48.95948" lon="8.19315">
        <ele>109.6</ele>
        <time>2020-06-28T07:13:21Z</time>
      </trkpt>
      <trkpt lat="48.95944" lon="8.1931">
        <ele>109.7</ele>
        <time>2020-06-28T07:13:22Z</time>
      </trkpt>
      <trkpt lat="48.95941" lon="8.19304">
        <ele>109.7</ele>
        <time>2020-06-28T07:13:23Z</time>
      </trkpt>
      <trkpt lat="48.95938" lon="8.19299">
        <ele>109.7</ele>
        <time>2020-06-28T07:13:24Z</time>
      </trkpt>
      <trkpt lat="48.95935" lon="8.19294">
        <ele>109.8</ele>
        <time>2020-06-28T07:13:25Z</time>
      </trkpt>
      <trkpt lat="48.95932" lon="8.19289">
        <ele>109.9</ele>
        <time>2020-06-28T07:13:26Z</time>
      </trkpt>
      <trkpt lat="48.95928" lon="8.19282">
        <ele>110.1</ele>
        <time>2020-06-28T07:13:27Z</time>
      </trkpt>
      <trkpt lat="48.95925" lon="8.19275">
        <ele>110.2</ele>
        <time>2020-06-28T07:13:28Z</time>
      </trkpt>
      <trkpt lat="48.95922" lon="8.1927">
        <ele>110.4</ele>
        <time>2020-06-28T07:13:29Z</time>
      </trkpt>
      <trkpt lat="48.9592" lon="8.19264">
        <ele>110.5</ele>
        <time>2020-06-28T07:13:30Z</time>
      </trkpt>
      <trkpt lat="48.95918" lon="8.19259">
        <ele>110.6</ele>
        <time>2020-06-28T07:13:31Z</time>
      </trkpt>
      <trkpt lat="48.95916" lon="8.19254">
        <ele>110.8</ele>
        <time>2020-06-28T07:13:32Z</time>
      </trkpt>
      <trkpt lat="48.95913" lon="8.19248">
        <ele>110.9</ele>
        <time>2020-06-28T07:13:33Z</time>
      </trkpt>
      <trkpt lat="48.95911" lon="8.19244">
        <ele>111</ele>
        <time>2020-06-28T07:13:34Z</time>
      </trkpt>
      <trkpt lat="48.95908" lon="8.19239">
        <ele>111.2</ele>
        <time>2020-06-28T07:13:35Z</time>
      </trkpt>
      <trkpt lat="48.95906" lon="8.19234">
        <ele>111.3</ele>
        <time>2020-06-28T07:13:36Z</time>
      </trkpt>
      <trkpt lat="48.95903" lon="8.19229">
        <ele>111.4</ele>
        <time>2020-06-28T07:13:37Z</time>
      </trkpt>
      <trkpt lat="48.95901" lon="8.19225">
        <ele>111.5</ele>
        <time>2020-06-28T07:13:38Z</time>
      </trkpt>
      <trkpt lat="48.95899" lon="8.19219">
        <ele>111.7</ele>
        <time>2020-06-28T07:13:39Z</time>
      </trkpt>
      <trkpt lat="48.95898" lon="8.19213">
        <ele>111.7</ele>
        <time>2020-06-28T07:13:40Z</time>
      </trkpt>
      <trkpt lat="48.95897" lon="8.19208">
        <ele>111.7</ele>
        <time>2020-06-28T07:13:41Z</time>
      </trkpt>
      <trkpt lat="48.95896" lon="8.19201">
        <ele>111.7</ele>
        <time>2020-06-28T07:13:42Z</time>
      </trkpt>
      <trkpt lat="48.95895" lon="8.19195">
        <ele>111.7</ele>
        <time>2020-06-28T07:13:43Z</time>
      </trkpt>
      <trkpt lat="48.95893" lon="8.1919">
        <ele>111.8</ele>
        <time>2020-06-28T07:13:44Z</time>
      </trkpt>
      <trkpt lat="48.95892" lon="8.19183">
        <ele>111.8</ele>
        <time>2020-06-28T07:13:45Z</time>
      </trkpt>
      <trkpt lat="48.9589" lon="8.19176">
        <ele>111.8</ele>
        <time>2020-06-28T07:13:46Z</time>
      </trkpt>
      <trkpt lat="48.95889" lon="8.1917">
        <ele>111.8</ele>
        <time>2020-06-28T07:13:47Z</time>
      </trkpt>
      <trkpt lat="48.95886" lon="8.19164">
        <ele>111.9</ele>
        <time>2020-06-28T07:13:48Z</time>
      </trkpt>
      <trkpt lat="48.95885" lon="8.19157">
        <ele>111.9</ele>
        <time>2020-06-28T07:13:49Z</time>
      </trkpt>
      <trkpt lat="48.95883" lon="8.1915">
        <ele>111.9</ele>
        <time>2020-06-28T07:13:50Z</time>
      </trkpt>
      <trkpt lat="48.95882" lon="8.19142">
        <ele>112</ele>
        <time>2020-06-28T07:13:51Z</time>
      </trkpt>
      <trkpt lat="48.95881" lon="8.19135">
        <ele>112</ele>
        <time>2020-06-28T07:13:52Z</time>
      </trkpt>
      <trkpt lat="48.95879" lon="8.19127">
        <ele>112</ele>
        <time>2020-06-28T07:13:53Z</time>
      </trkpt>
      <trkpt lat="48.95878" lon="8.1912">
        <ele>112</ele>
        <time>2020-06-28T07:13:54Z</time>
      </trkpt>
      <trkpt lat="48.95877" lon="8.19111">
        <ele>112</ele>
        <time>2020-06-28T07:13:55Z</time>
      </trkpt>
      <trkpt lat="48.95876" lon="8.19103">
        <ele>112</ele>
        <time>2020-06-28T07:13:56Z</time>
      </trkpt>
      <trkpt lat="48.95876" lon="8.19094">
        <ele>112</ele>
        <time>2020-06-28T07:13:57Z</time>
      </trkpt>
      <trkpt lat="48.95875" lon="8.19086">
        <ele>112</ele>
        <time>2020-06-28T07:13:58Z</time>
      </trkpt>
      <trkpt lat="48.95874" lon="8.19078">
        <ele>112</ele>
        <time>2020-06-28T07:13:59Z</time>
      </trkpt>
      <trkpt lat="48.95873" lon="8.1907">
        <ele>112</ele>
        <time>2020-06-28T07:14:00Z</time>
      </trkpt>
      <trkpt lat="48.95872" lon="8.19062">
        <ele>112</ele>
        <time>2020-06-28T07:14:01Z</time>
      </trkpt>
      <trkpt lat="48.95871" lon="8.19054">
        <ele>112</ele>
        <time>2020-06-28T07:14:02Z</time>
      </trkpt>
      <trkpt lat="48.95869" lon="8.19046">
        <ele>112</ele>
        <time>2020-06-28T07:14:03Z</time>
      </trkpt>
      <trkpt lat="48.95868" lon="8.19038">
        <ele>112</ele>
        <time>2020-06-28T07:14:04Z</time>
      </trkpt>
      <trkpt lat="48.95866" lon="8.19031">
        <ele>112</ele>
        <time>2020-06-28T07:14:05Z</time>
      </trkpt>
      <trkpt lat="48.95864" lon="8.19024">
        <ele>112</ele>
        <time>2020-06-28T07:14:06Z</time>
      </trkpt>
      <trkpt lat="48.95862" lon="8.19018">
        <ele>112</ele>
        <time>2020-06-28T07:14:07Z</time>
      </trkpt>
      <trkpt lat="48.95859" lon="8.19012">
        <ele>112.1</ele>
        <time>2020-06-28T07:14:08Z</time>
      </trkpt>
      <trkpt lat="48.95856" lon="8.19006">
        <ele>112.1</ele>
        <time>2020-06-28T07:14:09Z</time>
      </trkpt>
      <trkpt lat="48.95854" lon="8.18999">
        <ele>112.1</ele>
        <time>2020-06-28T07:14:10Z</time>
      </trkpt>
      <trkpt lat="48.95852" lon="8.18992">
        <ele>112.1</ele>
        <time>2020-06-28T07:14:11Z</time>
      </trkpt>
      <trkpt lat="48.9585" lon="8.18986">
        <ele>112.1</ele>
        <time>2020-06-28T07:14:12Z</time>
      </trkpt>
      <trkpt lat="48.95849" lon="8.18979">
        <ele>112.1</ele>
        <time>2020-06-28T07:14:13Z</time>
      </trkpt>
      <trkpt lat="48.95847" lon="8.18973">
        <ele>112</ele>
        <time>2020-06-28T07:14:14Z</time>
      </trkpt>
      <trkpt lat="48.95845" lon="8.18966">
        <ele>112</ele>
        <time>2020-06-28T07:14:15Z</time>
      </trkpt>
      <trkpt lat="48.95843" lon="8.18961">
        <ele>112</ele>
        <time>2020-06-28T07:14:16Z</time>
      </trkpt>
      <trkpt lat="48.95842" lon="8.18956">
        <ele>112</ele>
        <time>2020-06-28T07:14:17Z</time>
      </trkpt>
      <trkpt lat="48.9584" lon="8.18949">
        <ele>112</ele>
        <time>2020-06-28T07:14:18Z</time>
      </trkpt>
      <trkpt lat="48.95838" lon="8.18943">
        <ele>111.9</ele>
        <time>2020-06-28T07:14:19Z</time>
      </trkpt>
      <trkpt lat="48.95835" lon="8.18937">
        <ele>111.9</ele>
        <time>2020-06-28T07:14:20Z</time>
      </trkpt>
      <trkpt lat="48.95833" lon="8.1893">
        <ele>111.9</ele>
        <time>2020-06-28T07:14:21Z</time>
      </trkpt>
      <trkpt lat="48.95831" lon="8.18924">
        <ele>111.9</ele>
        <time>2020-06-28T07:14:22Z</time>
      </trkpt>
      <trkpt lat="48.95827" lon="8.18917">
        <ele>111.9</ele>
        <time>2020-06-28T07:14:23Z</time>
      </trkpt>
      <trkpt lat="48.95824" lon="8.18911">
        <ele>111.9</ele>
        <time>2020-06-28T07:14:24Z</time>
      </trkpt>
      <trkpt lat="48.95821" lon="8.18904">
        <ele>111.9</ele>
        <time>2020-06-28T07:14:25Z</time>
      </trkpt>
      <trkpt lat="48.95818" lon="8.18897">
        <ele>111.8</ele>
        <time>2020-06-28T07:14:26Z</time>
      </trkpt>
      <trkpt lat="48.95816" lon="8.18891">
        <ele>111.7</ele>
        <time>2020-06-28T07:14:27Z</time>
      </trkpt>
      <trkpt lat="48.95813" lon="8.18884">
        <ele>111.7</ele>
        <time>2020-06-28T07:14:28Z</time>
      </trkpt>
      <trkpt lat="48.9581" lon="8.18877">
        <ele>111.5</ele>
        <time>2020-06-28T07:14:29Z</time>
      </trkpt>
      <trkpt lat="48.95807" lon="8.18871">
        <ele>111.4</ele>
        <time>2020-06-28T07:14:30Z</time>
      </trkpt>
      <trkpt lat="48.95805" lon="8.18864">
        <ele>111.3</ele>
        <time>2020-06-28T07:14:31Z</time>
      </trkpt>
      <trkpt lat="48.95802" lon="8.18856">
        <ele>111.1</ele>
        <time>2020-06-28T07:14:32Z</time>
      </trkpt>
      <trkpt lat="48.95799" lon="8.1885">
        <ele>111</ele>
        <time>2020-06-28T07:14:33Z</time>
      </trkpt>
      <trkpt lat="48.95795" lon="8.18842">
        <ele>110.9</ele>
        <time>2020-06-28T07:14:34Z</time>
      </trkpt>
      <trkpt lat="48.95794" lon="8.18835">
        <ele>110.8</ele>
        <time>2020-06-28T07:14:35Z</time>
      </trkpt>
      <trkpt lat="48.95793" lon="8.18827">
        <ele>110.7</ele>
        <time>2020-06-28T07:14:36Z</time>
      </trkpt>
      <trkpt lat="48.95791" lon="8.1882">
        <ele>110.7</ele>
        <time>2020-06-28T07:14:37Z</time>
      </trkpt>
      <trkpt lat="48.95788" lon="8.18813">
        <ele>110.6</ele>
        <time>2020-06-28T07:14:38Z</time>
      </trkpt>
      <trkpt lat="48.95785" lon="8.18806">
        <ele>110.6</ele>
        <time>2020-06-28T07:14:39Z</time>
      </trkpt>
      <trkpt lat="48.95783" lon="8.188">
        <ele>110.5</ele>
        <time>2020-06-28T07:14:40Z</time>
      </trkpt>
      <trkpt lat="48.95781" lon="8.18793">
        <ele>110.4</ele>
        <time>2020-06-28T07:14:41Z</time>
      </trkpt>
      <trkpt lat="48.95779" lon="8.18785">
        <ele>110.3</ele>
        <time>2020-06-28T07:14:42Z</time>
      </trkpt>
      <trkpt lat="48.95776" lon="8.18777">
        <ele>110.1</ele>
        <time>2020-06-28T07:14:43Z</time>
      </trkpt>
      <trkpt lat="48.95774" lon="8.18769">
        <ele>110</ele>
        <time>2020-06-28T07:14:44Z</time>
      </trkpt>
      <trkpt lat="48.95772" lon="8.18759">
        <ele>109.9</ele>
        <time>2020-06-28T07:14:45Z</time>
      </trkpt>
      <trkpt lat="48.95771" lon="8.18751">
        <ele>109.9</ele>
        <time>2020-06-28T07:14:46Z</time>
      </trkpt>
      <trkpt lat="48.9577" lon="8.18743">
        <ele>109.8</ele>
        <time>2020-06-28T07:14:47Z</time>
      </trkpt>
      <trkpt lat="48.95769" lon="8.18734">
        <ele>109.7</ele>
        <time>2020-06-28T07:14:48Z</time>
      </trkpt>
      <trkpt lat="48.95768" lon="8.18724">
        <ele>109.7</ele>
        <time>2020-06-28T07:14:49Z</time>
      </trkpt>
      <trkpt lat="48.95767" lon="8.18715">
        <ele>109.7</ele>
        <time>2020-06-28T07:14:50Z</time>
      </trkpt>
      <trkpt lat="48.95767" lon="8.18706">
        <ele>109.7</ele>
        <time>2020-06-28T07:14:51Z</time>
      </trkpt>
      <trkpt lat="48.95767" lon="8.18697">
        <ele>109.7</ele>
        <time>2020-06-28T07:14:52Z</time>
      </trkpt>
      <trkpt lat="48.95768" lon="8.18689">
        <ele>109.7</ele>
        <time>2020-06-28T07:14:53Z</time>
      </trkpt>
      <trkpt lat="48.95768" lon="8.1868">
        <ele>109.7</ele>
        <time>2020-06-28T07:14:54Z</time>
      </trkpt>
      <trkpt lat="48.95769" lon="8.18674">
        <ele>109.8</ele>
        <time>2020-06-28T07:14:55Z</time>
      </trkpt>
      <trkpt lat="48.95771" lon="8.18666">
        <ele>109.8</ele>
        <time>2020-06-28T07:14:56Z</time>
      </trkpt>
      <trkpt lat="48.95771" lon="8.18659">
        <ele>109.9</ele>
        <time>2020-06-28T07:14:57Z</time>
      </trkpt>
      <trkpt lat="48.95772" lon="8.18652">
        <ele>109.9</ele>
        <time>2020-06-28T07:14:58Z</time>
      </trkpt>
      <trkpt lat="48.95773" lon="8.18645">
        <ele>109.9</ele>
        <time>2020-06-28T07:14:59Z</time>
      </trkpt>
      <trkpt lat="48.95774" lon="8.18638">
        <ele>109.9</ele>
        <time>2020-06-28T07:15:00Z</time>
      </trkpt>
      <trkpt lat="48.95774" lon="8.18631">
        <ele>109.8</ele>
        <time>2020-06-28T07:15:01Z</time>
      </trkpt>
      <trkpt lat="48.95775" lon="8.18623">
        <ele>109.7</ele>
        <time>2020-06-28T07:15:02Z</time>
      </trkpt>
      <trkpt lat="48.95775" lon="8.18615">
        <ele>109.6</ele>
        <time>2020-06-28T07:15:03Z</time>
      </trkpt>
      <trkpt lat="48.95776" lon="8.18608">
        <ele>109.6</ele>
        <time>2020-06-28T07:15:04Z</time>
      </trkpt>
      <trkpt lat="48.95777" lon="8.18599">
        <ele>109.5</ele>
        <time>2020-06-28T07:15:05Z</time>
      </trkpt>
      <trkpt lat="48.95778" lon="8.1859">
        <ele>109.5</ele>
        <time>2020-06-28T07:15:06Z</time>
      </trkpt>
      <trkpt lat="48.95779" lon="8.18583">
        <ele>109.4</ele>
        <time>2020-06-28T07:15:07Z</time>
      </trkpt>
      <trkpt lat="48.95779" lon="8.18575">
        <ele>109.4</ele>
        <time>2020-06-28T07:15:08Z</time>
      </trkpt>
      <trkpt lat="48.9578" lon="8.18567">
        <ele>109.4</ele>
        <time>2020-06-28T07:15:09Z</time>
      </trkpt>
      <trkpt lat="48.95781" lon="8.18558">
        <ele>109.3</ele>
        <time>2020-06-28T07:15:10Z</time>
      </trkpt>
      <trkpt lat="48.95782" lon="8.1855">
        <ele>109.3</ele>
        <time>2020-06-28T07:15:11Z</time>
      </trkpt>
      <trkpt lat="48.95783" lon="8.18541">
        <ele>109.3</ele>
        <time>2020-06-28T07:15:12Z</time>
      </trkpt>
      <trkpt lat="48.95784" lon="8.18532">
        <ele>109.3</ele>
        <time>2020-06-28T07:15:13Z</time>
      </trkpt>
      <trkpt lat="48.95783" lon="8.18524">
        <ele>109.3</ele>
        <time>2020-06-28T07:15:14Z</time>
      </trkpt>
      <trkpt lat="48.95783" lon="8.18516">
        <ele>109.3</ele>
        <time>2020-06-28T07:15:15Z</time>
      </trkpt>
      <trkpt lat="48.95784" lon="8.18509">
        <ele>109.3</ele>
        <time>2020-06-28T07:15:16Z</time>
      </trkpt>
      <trkpt lat="48.95785" lon="8.18502">
        <ele>109.3</ele>
        <time>2020-06-28T07:15:17Z</time>
      </trkpt>
      <trkpt lat="48.95785" lon="8.18495">
        <ele>109.2</ele>
        <time>2020-06-28T07:15:18Z</time>
      </trkpt>
      <trkpt lat="48.95786" lon="8.18489">
        <ele>109.2</ele>
        <time>2020-06-28T07:15:19Z</time>
      </trkpt>
      <trkpt lat="48.95787" lon="8.18484">
        <ele>109.3</ele>
        <time>2020-06-28T07:15:20Z</time>
      </trkpt>
      <trkpt lat="48.95787" lon="8.18479">
        <ele>109.3</ele>
        <time>2020-06-28T07:15:21Z</time>
      </trkpt>
      <trkpt lat="48.95786" lon="8.18473">
        <ele>109.3</ele>
        <time>2020-06-28T07:15:22Z</time>
      </trkpt>
      <trkpt lat="48.95783" lon="8.18469">
        <ele>109.3</ele>
        <time>2020-06-28T07:15:23Z</time>
      </trkpt>
      <trkpt lat="48.95779" lon="8.18467">
        <ele>109.4</ele>
        <time>2020-06-28T07:15:24Z</time>
      </trkpt>
      <trkpt lat="48.95776" lon="8.18462">
        <ele>109.4</ele>
        <time>2020-06-28T07:15:25Z</time>
      </trkpt>
      <trkpt lat="48.95773" lon="8.18457">
        <ele>109.4</ele>
        <time>2020-06-28T07:15:26Z</time>
      </trkpt>
      <trkpt lat="48.95772" lon="8.1845">
        <ele>109.4</ele>
        <time>2020-06-28T07:15:27Z</time>
      </trkpt>
      <trkpt lat="48.95771" lon="8.18442">
        <ele>109.4</ele>
        <time>2020-06-28T07:15:28Z</time>
      </trkpt>
      <trkpt lat="48.95772" lon="8.18435">
        <ele>109.4</ele>
        <time>2020-06-28T07:15:29Z</time>
      </trkpt>
      <trkpt lat="48.95772" lon="8.18427">
        <ele>109.5</ele>
        <time>2020-06-28T07:15:30Z</time>
      </trkpt>
      <trkpt lat="48.95772" lon="8.18419">
        <ele>109.5</ele>
        <time>2020-06-28T07:15:31Z</time>
      </trkpt>
      <trkpt lat="48.95772" lon="8.18411">
        <ele>109.5</ele>
        <time>2020-06-28T07:15:32Z</time>
      </trkpt>
      <trkpt lat="48.95773" lon="8.18404">
        <ele>109.5</ele>
        <time>2020-06-28T07:15:33Z</time>
      </trkpt>
      <trkpt lat="48.95773" lon="8.18396">
        <ele>109.5</ele>
        <time>2020-06-28T07:15:34Z</time>
      </trkpt>
      <trkpt lat="48.95774" lon="8.18388">
        <ele>109.5</ele>
        <time>2020-06-28T07:15:35Z</time>
      </trkpt>
      <trkpt lat="48.95775" lon="8.1838">
        <ele>109.5</ele>
        <time>2020-06-28T07:15:36Z</time>
      </trkpt>
      <trkpt lat="48.95775" lon="8.18371">
        <ele>109.6</ele>
        <time>2020-06-28T07:15:37Z</time>
      </trkpt>
      <trkpt lat="48.95776" lon="8.18363">
        <ele>109.6</ele>
        <time>2020-06-28T07:15:38Z</time>
      </trkpt>
      <trkpt lat="48.95776" lon="8.18354">
        <ele>109.6</ele>
        <time>2020-06-28T07:15:39Z</time>
      </trkpt>
      <trkpt lat="48.95775" lon="8.18346">
        <ele>109.7</ele>
        <time>2020-06-28T07:15:40Z</time>
      </trkpt>
      <trkpt lat="48.95774" lon="8.18338">
        <ele>109.7</ele>
        <time>2020-06-28T07:15:41Z</time>
      </trkpt>
      <trkpt lat="48.95773" lon="8.18329">
        <ele>109.7</ele>
        <time>2020-06-28T07:15:42Z</time>
      </trkpt>
      <trkpt lat="48.95773" lon="8.18322">
        <ele>109.8</ele>
        <time>2020-06-28T07:15:43Z</time>
      </trkpt>
      <trkpt lat="48.95771" lon="8.18314">
        <ele>109.8</ele>
        <time>2020-06-28T07:15:44Z</time>
      </trkpt>
      <trkpt lat="48.95771" lon="8.18308">
        <ele>109.8</ele>
        <time>2020-06-28T07:15:45Z</time>
      </trkpt>
      <trkpt lat="48.95771" lon="8.18301">
        <ele>109.8</ele>
        <time>2020-06-28T07:15:46Z</time>
      </trkpt>
      <trkpt lat="48.95771" lon="8.18295">
        <ele>109.8</ele>
        <time>2020-06-28T07:15:47Z</time>
      </trkpt>
      <trkpt lat="48.9577" lon="8.18289">
        <ele>109.9</ele>
        <time>2020-06-28T07:15:48Z</time>
      </trkpt>
      <trkpt lat="48.9577" lon="8.18282">
        <ele>109.9</ele>
        <time>2020-06-28T07:15:49Z</time>
      </trkpt>
      <trkpt lat="48.9577" lon="8.18275">
        <ele>109.9</ele>
        <time>2020-06-28T07:15:50Z</time>
      </trkpt>
      <trkpt lat="48.95769" lon="8.18269">
        <ele>109.9</ele>
        <time>2020-06-28T07:15:51Z</time>
      </trkpt>
      <trkpt lat="48.95768" lon="8.18264">
        <ele>110</ele>
        <time>2020-06-28T07:15:52Z</time>
      </trkpt>
      <trkpt lat="48.95764" lon="8.18263">
        <ele>109.9</ele>
        <time>2020-06-28T07:15:53Z</time>
      </trkpt>
      <trkpt lat="48.95763" lon="8.18264">
        <ele>109.9</ele>
        <time>2020-06-28T07:15:54Z</time>
      </trkpt>
      <trkpt lat="48.9576" lon="8.18265">
        <ele>109.9</ele>
        <time>2020-06-28T07:15:55Z</time>
      </trkpt>
      <trkpt lat="48.95758" lon="8.18265">
        <ele>109.9</ele>
        <time>2020-06-28T07:15:56Z</time>
      </trkpt>
      <trkpt lat="48.95755" lon="8.18264">
        <ele>109.9</ele>
        <time>2020-06-28T07:15:57Z</time>
      </trkpt>
      <trkpt lat="48.95752" lon="8.18263">
        <ele>109.9</ele>
        <time>2020-06-28T07:15:58Z</time>
      </trkpt>
      <trkpt lat="48.95749" lon="8.18261">
        <ele>109.9</ele>
        <time>2020-06-28T07:15:59Z</time>
      </trkpt>
      <trkpt lat="48.95747" lon="8.18258">
        <ele>109.9</ele>
        <time>2020-06-28T07:16:00Z</time>
      </trkpt>
      <trkpt lat="48.95744" lon="8.18255">
        <ele>109.9</ele>
        <time>2020-06-28T07:16:01Z</time>
      </trkpt>
      <trkpt lat="48.95741" lon="8.18252">
        <ele>109.9</ele>
        <time>2020-06-28T07:16:02Z</time>
      </trkpt>
      <trkpt lat="48.95739" lon="8.1825">
        <ele>109.9</ele>
        <time>2020-06-28T07:16:03Z</time>
      </trkpt>
      <trkpt lat="48.95736" lon="8.18246">
        <ele>109.8</ele>
        <time>2020-06-28T07:16:04Z</time>
      </trkpt>
      <trkpt lat="48.95733" lon="8.18242">
        <ele>109.7</ele>
        <time>2020-06-28T07:16:05Z</time>
      </trkpt>
      <trkpt lat="48.95731" lon="8.18238">
        <ele>109.8</ele>
        <time>2020-06-28T07:16:06Z</time>
      </trkpt>
      <trkpt lat="48.95729" lon="8.18234">
        <ele>109.8</ele>
        <time>2020-06-28T07:16:07Z</time>
      </trkpt>
      <trkpt lat="48.95728" lon="8.18234">
        <ele>109.8</ele>
        <time>2020-06-28T07:16:08Z</time>
      </trkpt>
      <trkpt lat="48.95726" lon="8.18232">
        <ele>109.8</ele>
        <time>2020-06-28T07:16:09Z</time>
      </trkpt>
      <trkpt lat="48.95725" lon="8.1823">
        <ele>109.8</ele>
        <time>2020-06-28T07:16:10Z</time>
      </trkpt>
      <trkpt lat="48.95726" lon="8.18226">
        <ele>109.8</ele>
        <time>2020-06-28T07:16:11Z</time>
      </trkpt>
      <trkpt lat="48.95726" lon="8.18224">
        <ele>109.8</ele>
        <time>2020-06-28T07:16:12Z</time>
      </trkpt>
      <trkpt lat="48.95727" lon="8.18219">
        <ele>109.5</ele>
        <time>2020-06-28T07:16:13Z</time>
      </trkpt>
      <trkpt lat="48.95726" lon="8.18217">
        <ele>109.5</ele>
        <time>2020-06-28T07:16:14Z</time>
      </trkpt>
      <trkpt lat="48.95725" lon="8.18213">
        <ele>109.4</ele>
        <time>2020-06-28T07:16:15Z</time>
      </trkpt>
      <trkpt lat="48.95723" lon="8.1821">
        <ele>109.3</ele>
        <time>2020-06-28T07:16:16Z</time>
      </trkpt>
      <trkpt lat="48.95719" lon="8.18205">
        <ele>109.1</ele>
        <time>2020-06-28T07:16:17Z</time>
      </trkpt>
      <trkpt lat="48.95716" lon="8.182">
        <ele>108.9</ele>
        <time>2020-06-28T07:16:18Z</time>
      </trkpt>
      <trkpt lat="48.95712" lon="8.18196">
        <ele>108.7</ele>
        <time>2020-06-28T07:16:19Z</time>
      </trkpt>
      <trkpt lat="48.95707" lon="8.18191">
        <ele>108.5</ele>
        <time>2020-06-28T07:16:20Z</time>
      </trkpt>
      <trkpt lat="48.95703" lon="8.18185">
        <ele>108.4</ele>
        <time>2020-06-28T07:16:21Z</time>
      </trkpt>
      <trkpt lat="48.95698" lon="8.1818">
        <ele>108.3</ele>
        <time>2020-06-28T07:16:22Z</time>
      </trkpt>
      <trkpt lat="48.95694" lon="8.18174">
        <ele>108.3</ele>
        <time>2020-06-28T07:16:23Z</time>
      </trkpt>
      <trkpt lat="48.95689" lon="8.18168">
        <ele>108.3</ele>
        <time>2020-06-28T07:16:24Z</time>
      </trkpt>
      <trkpt lat="48.95684" lon="8.18162">
        <ele>108.2</ele>
        <time>2020-06-28T07:16:25Z</time>
      </trkpt>
      <trkpt lat="48.95679" lon="8.18157">
        <ele>108.2</ele>
        <time>2020-06-28T07:16:26Z</time>
      </trkpt>
      <trkpt lat="48.95674" lon="8.1815">
        <ele>108.2</ele>
        <time>2020-06-28T07:16:27Z</time>
      </trkpt>
      <trkpt lat="48.95668" lon="8.18143">
        <ele>108.1</ele>
        <time>2020-06-28T07:16:28Z</time>
      </trkpt>
      <trkpt lat="48.95663" lon="8.18138">
        <ele>108.1</ele>
        <time>2020-06-28T07:16:29Z</time>
      </trkpt>
      <trkpt lat="48.95659" lon="8.18133">
        <ele>108.1</ele>
        <time>2020-06-28T07:16:30Z</time>
      </trkpt>
      <trkpt lat="48.95654" lon="8.18128">
        <ele>108</ele>
        <time>2020-06-28T07:16:31Z</time>
      </trkpt>
      <trkpt lat="48.95649" lon="8.18123">
        <ele>108</ele>
        <time>2020-06-28T07:16:32Z</time>
      </trkpt>
      <trkpt lat="48.95645" lon="8.18118">
        <ele>108</ele>
        <time>2020-06-28T07:16:33Z</time>
      </trkpt>
      <trkpt lat="48.9564" lon="8.18112">
        <ele>108</ele>
        <time>2020-06-28T07:16:34Z</time>
      </trkpt>
      <trkpt lat="48.95636" lon="8.18107">
        <ele>108</ele>
        <time>2020-06-28T07:16:35Z</time>
      </trkpt>
      <trkpt lat="48.95633" lon="8.18102">
        <ele>108</ele>
        <time>2020-06-28T07:16:36Z</time>
      </trkpt>
      <trkpt lat="48.95629" lon="8.18097">
        <ele>108</ele>
        <time>2020-06-28T07:16:37Z</time>
      </trkpt>
      <trkpt lat="48.95625" lon="8.18091">
        <ele>108</ele>
        <time>2020-06-28T07:16:38Z</time>
      </trkpt>
      <trkpt lat="48.95621" lon="8.18086">
        <ele>108</ele>
        <time>2020-06-28T07:16:39Z</time>
      </trkpt>
      <trkpt lat="48.95617" lon="8.1808">
        <ele>108</ele>
        <time>2020-06-28T07:16:40Z</time>
      </trkpt>
      <trkpt lat="48.95613" lon="8.18075">
        <ele>108</ele>
        <time>2020-06-28T07:16:41Z</time>
      </trkpt>
      <trkpt lat="48.9561" lon="8.18071">
        <ele>108</ele>
        <time>2020-06-28T07:16:42Z</time>
      </trkpt>
      <trkpt lat="48.95605" lon="8.18066">
        <ele>108</ele>
        <time>2020-06-28T07:16:43Z</time>
      </trkpt>
      <trkpt lat="48.95601" lon="8.18061">
        <ele>108</ele>
        <time>2020-06-28T07:16:44Z</time>
      </trkpt>
      <trkpt lat="48.95596" lon="8.18056">
        <ele>108</ele>
        <time>2020-06-28T07:16:45Z</time>
      </trkpt>
      <trkpt lat="48.95592" lon="8.1805">
        <ele>108</ele>
        <time>2020-06-28T07:16:46Z</time>
      </trkpt>
      <trkpt lat="48.95587" lon="8.18044">
        <ele>108</ele>
        <time>2020-06-28T07:16:47Z</time>
      </trkpt>
      <trkpt lat="48.95582" lon="8.18038">
        <ele>108</ele>
        <time>2020-06-28T07:16:48Z</time>
      </trkpt>
      <trkpt lat="48.95578" lon="8.18033">
        <ele>108</ele>
        <time>2020-06-28T07:16:49Z</time>
      </trkpt>
      <trkpt lat="48.95574" lon="8.18028">
        <ele>108</ele>
        <time>2020-06-28T07:16:50Z</time>
      </trkpt>
      <trkpt lat="48.95569" lon="8.18023">
        <ele>108</ele>
        <time>2020-06-28T07:16:51Z</time>
      </trkpt>
      <trkpt lat="48.95565" lon="8.18019">
        <ele>108</ele>
        <time>2020-06-28T07:16:52Z</time>
      </trkpt>
      <trkpt lat="48.9556" lon="8.18014">
        <ele>108</ele>
        <time>2020-06-28T07:16:53Z</time>
      </trkpt>
      <trkpt lat="48.95556" lon="8.18008">
        <ele>108.1</ele>
        <time>2020-06-28T07:16:54Z</time>
      </trkpt>
      <trkpt lat="48.95551" lon="8.18003">
        <ele>108.1</ele>
        <time>2020-06-28T07:16:55Z</time>
      </trkpt>
      <trkpt lat="48.95546" lon="8.17997">
        <ele>108.1</ele>
        <time>2020-06-28T07:16:56Z</time>
      </trkpt>
      <trkpt lat="48.95541" lon="8.17991">
        <ele>108.1</ele>
        <time>2020-06-28T07:16:57Z</time>
      </trkpt>
      <trkpt lat="48.95536" lon="8.17986">
        <ele>108</ele>
        <time>2020-06-28T07:16:58Z</time>
      </trkpt>
      <trkpt lat="48.95532" lon="8.17981">
        <ele>108</ele>
        <time>2020-06-28T07:16:59Z</time>
      </trkpt>
      <trkpt lat="48.95528" lon="8.17976">
        <ele>108</ele>
        <time>2020-06-28T07:17:00Z</time>
      </trkpt>
      <trkpt lat="48.95524" lon="8.17971">
        <ele>108</ele>
        <time>2020-06-28T07:17:01Z</time>
      </trkpt>
      <trkpt lat="48.9552" lon="8.17966">
        <ele>108</ele>
        <time>2020-06-28T07:17:02Z</time>
      </trkpt>
      <trkpt lat="48.95516" lon="8.17962">
        <ele>108</ele>
        <time>2020-06-28T07:17:03Z</time>
      </trkpt>
      <trkpt lat="48.95512" lon="8.17959">
        <ele>108</ele>
        <time>2020-06-28T07:17:04Z</time>
      </trkpt>
      <trkpt lat="48.95508" lon="8.17955">
        <ele>108</ele>
        <time>2020-06-28T07:17:05Z</time>
      </trkpt>
      <trkpt lat="48.95504" lon="8.17951">
        <ele>108</ele>
        <time>2020-06-28T07:17:06Z</time>
      </trkpt>
      <trkpt lat="48.95498" lon="8.17948">
        <ele>108</ele>
        <time>2020-06-28T07:17:07Z</time>
      </trkpt>
      <trkpt lat="48.95493" lon="8.17945">
        <ele>108.1</ele>
        <time>2020-06-28T07:17:08Z</time>
      </trkpt>
      <trkpt lat="48.95488" lon="8.17941">
        <ele>108.1</ele>
        <time>2020-06-28T07:17:09Z</time>
      </trkpt>
      <trkpt lat="48.95483" lon="8.17938">
        <ele>108.1</ele>
        <time>2020-06-28T07:17:10Z</time>
      </trkpt>
      <trkpt lat="48.95477" lon="8.17934">
        <ele>108.1</ele>
        <time>2020-06-28T07:17:11Z</time>
      </trkpt>
      <trkpt lat="48.95471" lon="8.1793">
        <ele>108.2</ele>
        <time>2020-06-28T07:17:12Z</time>
      </trkpt>
      <trkpt lat="48.95465" lon="8.17926">
        <ele>108.2</ele>
        <time>2020-06-28T07:17:13Z</time>
      </trkpt>
      <trkpt lat="48.95459" lon="8.17921">
        <ele>108.2</ele>
        <time>2020-06-28T07:17:14Z</time>
      </trkpt>
      <trkpt lat="48.95453" lon="8.17916">
        <ele>108.2</ele>
        <time>2020-06-28T07:17:15Z</time>
      </trkpt>
      <trkpt lat="48.95447" lon="8.17912">
        <ele>108.2</ele>
        <time>2020-06-28T07:17:16Z</time>
      </trkpt>
      <trkpt lat="48.95442" lon="8.17909">
        <ele>108.2</ele>
        <time>2020-06-28T07:17:17Z</time>
      </trkpt>
      <trkpt lat="48.95437" lon="8.17905">
        <ele>108.2</ele>
        <time>2020-06-28T07:17:18Z</time>
      </trkpt>
      <trkpt lat="48.95433" lon="8.17901">
        <ele>108.2</ele>
        <time>2020-06-28T07:17:19Z</time>
      </trkpt>
      <trkpt lat="48.95428" lon="8.17897">
        <ele>108.2</ele>
        <time>2020-06-28T07:17:20Z</time>
      </trkpt>
      <trkpt lat="48.95422" lon="8.17894">
        <ele>108.2</ele>
        <time>2020-06-28T07:17:21Z</time>
      </trkpt>
      <trkpt lat="48.95417" lon="8.17889">
        <ele>108.2</ele>
        <time>2020-06-28T07:17:22Z</time>
      </trkpt>
      <trkpt lat="48.95411" lon="8.17886">
        <ele>108.3</ele>
        <time>2020-06-28T07:17:23Z</time>
      </trkpt>
      <trkpt lat="48.95405" lon="8.17881">
        <ele>108.3</ele>
        <time>2020-06-28T07:17:24Z</time>
      </trkpt>
      <trkpt lat="48.95399" lon="8.17878">
        <ele>108.3</ele>
        <time>2020-06-28T07:17:25Z</time>
      </trkpt>
      <trkpt lat="48.95394" lon="8.17874">
        <ele>108.3</ele>
        <time>2020-06-28T07:17:26Z</time>
      </trkpt>
      <trkpt lat="48.95389" lon="8.1787">
        <ele>108.3</ele>
        <time>2020-06-28T07:17:27Z</time>
      </trkpt>
      <trkpt lat="48.95384" lon="8.17866">
        <ele>108.3</ele>
        <time>2020-06-28T07:17:28Z</time>
      </trkpt>
      <trkpt lat="48.95379" lon="8.17863">
        <ele>108.3</ele>
        <time>2020-06-28T07:17:29Z</time>
      </trkpt>
      <trkpt lat="48.95374" lon="8.17858">
        <ele>108.3</ele>
        <time>2020-06-28T07:17:30Z</time>
      </trkpt>
      <trkpt lat="48.95369" lon="8.17853">
        <ele>108.3</ele>
        <time>2020-06-28T07:17:31Z</time>
      </trkpt>
      <trkpt lat="48.95365" lon="8.17849">
        <ele>108.3</ele>
        <time>2020-06-28T07:17:32Z</time>
      </trkpt>
      <trkpt lat="48.9536" lon="8.17844">
        <ele>108.3</ele>
        <time>2020-06-28T07:17:33Z</time>
      </trkpt>
      <trkpt lat="48.95355" lon="8.1784">
        <ele>108.3</ele>
        <time>2020-06-28T07:17:34Z</time>
      </trkpt>
      <trkpt lat="48.95352" lon="8.17834">
        <ele>108.3</ele>
        <time>2020-06-28T07:17:35Z</time>
      </trkpt>
      <trkpt lat="48.95347" lon="8.17831">
        <ele>108.3</ele>
        <time>2020-06-28T07:17:36Z</time>
      </trkpt>
      <trkpt lat="48.95342" lon="8.17826">
        <ele>108.3</ele>
        <time>2020-06-28T07:17:37Z</time>
      </trkpt>
      <trkpt lat="48.95338" lon="8.17821">
        <ele>108.3</ele>
        <time>2020-06-28T07:17:38Z</time>
      </trkpt>
      <trkpt lat="48.95333" lon="8.17815">
        <ele>108.3</ele>
        <time>2020-06-28T07:17:39Z</time>
      </trkpt>
      <trkpt lat="48.95328" lon="8.1781">
        <ele>108.3</ele>
        <time>2020-06-28T07:17:40Z</time>
      </trkpt>
      <trkpt lat="48.95323" lon="8.17805">
        <ele>108.3</ele>
        <time>2020-06-28T07:17:41Z</time>
      </trkpt>
      <trkpt lat="48.95319" lon="8.17799">
        <ele>108.3</ele>
        <time>2020-06-28T07:17:42Z</time>
      </trkpt>
      <trkpt lat="48.95314" lon="8.17794">
        <ele>108.3</ele>
        <time>2020-06-28T07:17:43Z</time>
      </trkpt>
      <trkpt lat="48.95309" lon="8.1779">
        <ele>108.3</ele>
        <time>2020-06-28T07:17:44Z</time>
      </trkpt>
      <trkpt lat="48.95305" lon="8.17785">
        <ele>108.3</ele>
        <time>2020-06-28T07:17:45Z</time>
      </trkpt>
      <trkpt lat="48.95301" lon="8.17779">
        <ele>108.3</ele>
        <time>2020-06-28T07:17:46Z</time>
      </trkpt>
      <trkpt lat="48.95297" lon="8.17772">
        <ele>108.3</ele>
        <time>2020-06-28T07:17:47Z</time>
      </trkpt>
      <trkpt lat="48.95293" lon="8.17765">
        <ele>108.3</ele>
        <time>2020-06-28T07:17:48Z</time>
      </trkpt>
      <trkpt lat="48.9529" lon="8.17758">
        <ele>108.4</ele>
        <time>2020-06-28T07:17:49Z</time>
      </trkpt>
      <trkpt lat="48.95287" lon="8.1775">
        <ele>108.5</ele>
        <time>2020-06-28T07:17:50Z</time>
      </trkpt>
      <trkpt lat="48.95285" lon="8.17742">
        <ele>108.6</ele>
        <time>2020-06-28T07:17:51Z</time>
      </trkpt>
      <trkpt lat="48.95283" lon="8.17734">
        <ele>108.8</ele>
        <time>2020-06-28T07:17:52Z</time>
      </trkpt>
      <trkpt lat="48.9528" lon="8.17725">
        <ele>109</ele>
        <time>2020-06-28T07:17:53Z</time>
      </trkpt>
      <trkpt lat="48.95278" lon="8.17717">
        <ele>109.1</ele>
        <time>2020-06-28T07:17:54Z</time>
      </trkpt>
      <trkpt lat="48.95277" lon="8.1771">
        <ele>109.3</ele>
        <time>2020-06-28T07:17:55Z</time>
      </trkpt>
      <trkpt lat="48.95277" lon="8.17701">
        <ele>109.4</ele>
        <time>2020-06-28T07:17:56Z</time>
      </trkpt>
      <trkpt lat="48.95278" lon="8.17693">
        <ele>109.5</ele>
        <time>2020-06-28T07:17:57Z</time>
      </trkpt>
      <trkpt lat="48.95282" lon="8.17687">
        <ele>109.7</ele>
        <time>2020-06-28T07:17:58Z</time>
      </trkpt>
      <trkpt lat="48.95286" lon="8.17682">
        <ele>109.8</ele>
        <time>2020-06-28T07:17:59Z</time>
      </trkpt>
      <trkpt lat="48.95291" lon="8.17677">
        <ele>109.9</ele>
        <time>2020-06-28T07:18:00Z</time>
      </trkpt>
      <trkpt lat="48.95294" lon="8.17672">
        <ele>110</ele>
        <time>2020-06-28T07:18:01Z</time>
      </trkpt>
      <trkpt lat="48.95297" lon="8.17667">
        <ele>110.1</ele>
        <time>2020-06-28T07:18:02Z</time>
      </trkpt>
      <trkpt lat="48.95301" lon="8.17662">
        <ele>110.1</ele>
        <time>2020-06-28T07:18:03Z</time>
      </trkpt>
      <trkpt lat="48.95305" lon="8.17656">
        <ele>110.2</ele>
        <time>2020-06-28T07:18:04Z</time>
      </trkpt>
      <trkpt lat="48.95308" lon="8.17654">
        <ele>110.2</ele>
        <time>2020-06-28T07:18:05Z</time>
      </trkpt>
      <trkpt lat="48.95311" lon="8.17651">
        <ele>110.3</ele>
        <time>2020-06-28T07:18:06Z</time>
      </trkpt>
      <trkpt lat="48.95313" lon="8.17648">
        <ele>110.3</ele>
        <time>2020-06-28T07:18:07Z</time>
      </trkpt>
      <trkpt lat="48.95315" lon="8.17644">
        <ele>110.4</ele>
        <time>2020-06-28T07:18:08Z</time>
      </trkpt>
      <trkpt lat="48.95317" lon="8.17639">
        <ele>110.4</ele>
        <time>2020-06-28T07:18:09Z</time>
      </trkpt>
      <trkpt lat="48.95315" lon="8.17635">
        <ele>110.5</ele>
        <time>2020-06-28T07:18:10Z</time>
      </trkpt>
      <trkpt lat="48.95314" lon="8.17635">
        <ele>110.5</ele>
        <time>2020-06-28T07:18:11Z</time>
      </trkpt>
      <trkpt lat="48.95312" lon="8.17632">
        <ele>110.5</ele>
        <time>2020-06-28T07:18:12Z</time>
      </trkpt>
      <trkpt lat="48.95309" lon="8.17631">
        <ele>110.7</ele>
        <time>2020-06-28T07:18:13Z</time>
      </trkpt>
      <trkpt lat="48.95306" lon="8.17632">
        <ele>110.7</ele>
        <time>2020-06-28T07:18:14Z</time>
      </trkpt>
      <trkpt lat="48.95304" lon="8.17635">
        <ele>110.7</ele>
        <time>2020-06-28T07:18:15Z</time>
      </trkpt>
      <trkpt lat="48.95301" lon="8.17639">
        <ele>110.7</ele>
        <time>2020-06-28T07:18:16Z</time>
      </trkpt>
      <trkpt lat="48.95298" lon="8.17643">
        <ele>110.6</ele>
        <time>2020-06-28T07:18:17Z</time>
      </trkpt>
      <trkpt lat="48.95295" lon="8.17647">
        <ele>110.6</ele>
        <time>2020-06-28T07:18:18Z</time>
      </trkpt>
      <trkpt lat="48.95293" lon="8.17651">
        <ele>110.5</ele>
        <time>2020-06-28T07:18:19Z</time>
      </trkpt>
      <trkpt lat="48.9529" lon="8.17653">
        <ele>110.4</ele>
        <time>2020-06-28T07:18:20Z</time>
      </trkpt>
      <trkpt lat="48.95286" lon="8.17653">
        <ele>110.3</ele>
        <time>2020-06-28T07:18:21Z</time>
      </trkpt>
      <trkpt lat="48.95282" lon="8.17649">
        <ele>110.1</ele>
        <time>2020-06-28T07:18:22Z</time>
      </trkpt>
      <trkpt lat="48.95277" lon="8.17643">
        <ele>109.9</ele>
        <time>2020-06-28T07:18:23Z</time>
      </trkpt>
      <trkpt lat="48.95273" lon="8.17637">
        <ele>109.7</ele>
        <time>2020-06-28T07:18:24Z</time>
      </trkpt>
      <trkpt lat="48.95269" lon="8.17632">
        <ele>109.5</ele>
        <time>2020-06-28T07:18:25Z</time>
      </trkpt>
      <trkpt lat="48.95264" lon="8.17625">
        <ele>109.3</ele>
        <time>2020-06-28T07:18:26Z</time>
      </trkpt>
      <trkpt lat="48.9526" lon="8.17619">
        <ele>109.1</ele>
        <time>2020-06-28T07:18:27Z</time>
      </trkpt>
      <trkpt lat="48.95255" lon="8.17612">
        <ele>109</ele>
        <time>2020-06-28T07:18:28Z</time>
      </trkpt>
      <trkpt lat="48.95251" lon="8.17605">
        <ele>108.9</ele>
        <time>2020-06-28T07:18:29Z</time>
      </trkpt>
      <trkpt lat="48.95246" lon="8.17597">
        <ele>108.8</ele>
        <time>2020-06-28T07:18:30Z</time>
      </trkpt>
      <trkpt lat="48.95241" lon="8.1759">
        <ele>108.8</ele>
        <time>2020-06-28T07:18:31Z</time>
      </trkpt>
      <trkpt lat="48.95236" lon="8.17583">
        <ele>108.7</ele>
        <time>2020-06-28T07:18:32Z</time>
      </trkpt>
      <trkpt lat="48.95233" lon="8.17577">
        <ele>108.7</ele>
        <time>2020-06-28T07:18:33Z</time>
      </trkpt>
      <trkpt lat="48.95231" lon="8.1757">
        <ele>108.6</ele>
        <time>2020-06-28T07:18:34Z</time>
      </trkpt>
      <trkpt lat="48.95228" lon="8.17564">
        <ele>108.6</ele>
        <time>2020-06-28T07:18:35Z</time>
      </trkpt>
      <trkpt lat="48.95224" lon="8.17558">
        <ele>108.6</ele>
        <time>2020-06-28T07:18:36Z</time>
      </trkpt>
      <trkpt lat="48.95221" lon="8.17553">
        <ele>108.5</ele>
        <time>2020-06-28T07:18:37Z</time>
      </trkpt>
      <trkpt lat="48.95217" lon="8.17547">
        <ele>108.5</ele>
        <time>2020-06-28T07:18:38Z</time>
      </trkpt>
      <trkpt lat="48.95214" lon="8.17542">
        <ele>108.5</ele>
        <time>2020-06-28T07:18:39Z</time>
      </trkpt>
      <trkpt lat="48.9521" lon="8.17537">
        <ele>108.5</ele>
        <time>2020-06-28T07:18:40Z</time>
      </trkpt>
      <trkpt lat="48.95206" lon="8.17533">
        <ele>108.5</ele>
        <time>2020-06-28T07:18:41Z</time>
      </trkpt>
      <trkpt lat="48.95202" lon="8.17528">
        <ele>108.5</ele>
        <time>2020-06-28T07:18:42Z</time>
      </trkpt>
      <trkpt lat="48.95196" lon="8.17524">
        <ele>108.6</ele>
        <time>2020-06-28T07:18:43Z</time>
      </trkpt>
      <trkpt lat="48.95189" lon="8.1752">
        <ele>108.6</ele>
        <time>2020-06-28T07:18:44Z</time>
      </trkpt>
      <trkpt lat="48.95184" lon="8.17515">
        <ele>108.6</ele>
        <time>2020-06-28T07:18:45Z</time>
      </trkpt>
      <trkpt lat="48.95178" lon="8.17511">
        <ele>108.6</ele>
        <time>2020-06-28T07:18:46Z</time>
      </trkpt>
      <trkpt lat="48.9517" lon="8.17511">
        <ele>108.6</ele>
        <time>2020-06-28T07:18:47Z</time>
      </trkpt>
      <trkpt lat="48.95164" lon="8.17509">
        <ele>108.6</ele>
        <time>2020-06-28T07:18:48Z</time>
      </trkpt>
      <trkpt lat="48.95157" lon="8.17506">
        <ele>108.6</ele>
        <time>2020-06-28T07:18:49Z</time>
      </trkpt>
      <trkpt lat="48.95151" lon="8.17502">
        <ele>108.7</ele>
        <time>2020-06-28T07:18:50Z</time>
      </trkpt>
      <trkpt lat="48.95145" lon="8.17499">
        <ele>108.7</ele>
        <time>2020-06-28T07:18:51Z</time>
      </trkpt>
      <trkpt lat="48.9514" lon="8.17495">
        <ele>108.7</ele>
        <time>2020-06-28T07:18:52Z</time>
      </trkpt>
      <trkpt lat="48.95134" lon="8.17492">
        <ele>108.7</ele>
        <time>2020-06-28T07:18:53Z</time>
      </trkpt>
      <trkpt lat="48.95128" lon="8.17488">
        <ele>108.8</ele>
        <time>2020-06-28T07:18:54Z</time>
      </trkpt>
      <trkpt lat="48.95121" lon="8.17484">
        <ele>108.8</ele>
        <time>2020-06-28T07:18:55Z</time>
      </trkpt>
      <trkpt lat="48.95116" lon="8.1748">
        <ele>108.8</ele>
        <time>2020-06-28T07:18:56Z</time>
      </trkpt>
      <trkpt lat="48.95112" lon="8.17477">
        <ele>108.8</ele>
        <time>2020-06-28T07:18:57Z</time>
      </trkpt>
      <trkpt lat="48.95107" lon="8.17473">
        <ele>108.9</ele>
        <time>2020-06-28T07:18:58Z</time>
      </trkpt>
      <trkpt lat="48.95101" lon="8.17469">
        <ele>108.9</ele>
        <time>2020-06-28T07:18:59Z</time>
      </trkpt>
      <trkpt lat="48.95095" lon="8.17465">
        <ele>108.9</ele>
        <time>2020-06-28T07:19:00Z</time>
      </trkpt>
      <trkpt lat="48.9509" lon="8.17461">
        <ele>108.9</ele>
        <time>2020-06-28T07:19:01Z</time>
      </trkpt>
      <trkpt lat="48.95085" lon="8.17457">
        <ele>108.9</ele>
        <time>2020-06-28T07:19:02Z</time>
      </trkpt>
      <trkpt lat="48.95079" lon="8.17452">
        <ele>108.9</ele>
        <time>2020-06-28T07:19:03Z</time>
      </trkpt>
      <trkpt lat="48.95074" lon="8.17449">
        <ele>108.9</ele>
        <time>2020-06-28T07:19:04Z</time>
      </trkpt>
      <trkpt lat="48.9507" lon="8.17446">
        <ele>108.9</ele>
        <time>2020-06-28T07:19:05Z</time>
      </trkpt>
      <trkpt lat="48.95065" lon="8.17442">
        <ele>108.9</ele>
        <time>2020-06-28T07:19:06Z</time>
      </trkpt>
      <trkpt lat="48.9506" lon="8.17437">
        <ele>108.9</ele>
        <time>2020-06-28T07:19:07Z</time>
      </trkpt>
      <trkpt lat="48.95052" lon="8.17434">
        <ele>108.8</ele>
        <time>2020-06-28T07:19:08Z</time>
      </trkpt>
      <trkpt lat="48.95047" lon="8.1743">
        <ele>108.8</ele>
        <time>2020-06-28T07:19:09Z</time>
      </trkpt>
      <trkpt lat="48.95042" lon="8.17426">
        <ele>108.8</ele>
        <time>2020-06-28T07:19:10Z</time>
      </trkpt>
      <trkpt lat="48.95036" lon="8.17423">
        <ele>108.8</ele>
        <time>2020-06-28T07:19:11Z</time>
      </trkpt>
      <trkpt lat="48.95031" lon="8.1742">
        <ele>108.8</ele>
        <time>2020-06-28T07:19:12Z</time>
      </trkpt>
      <trkpt lat="48.95025" lon="8.17416">
        <ele>108.8</ele>
        <time>2020-06-28T07:19:13Z</time>
      </trkpt>
      <trkpt lat="48.95018" lon="8.17412">
        <ele>108.8</ele>
        <time>2020-06-28T07:19:14Z</time>
      </trkpt>
      <trkpt lat="48.95012" lon="8.17409">
        <ele>108.9</ele>
        <time>2020-06-28T07:19:15Z</time>
      </trkpt>
      <trkpt lat="48.95007" lon="8.17406">
        <ele>108.9</ele>
        <time>2020-06-28T07:19:16Z</time>
      </trkpt>
      <trkpt lat="48.95003" lon="8.17403">
        <ele>108.9</ele>
        <time>2020-06-28T07:19:17Z</time>
      </trkpt>
      <trkpt lat="48.94997" lon="8.174">
        <ele>109</ele>
        <time>2020-06-28T07:19:18Z</time>
      </trkpt>
      <trkpt lat="48.94992" lon="8.17399">
        <ele>109</ele>
        <time>2020-06-28T07:19:19Z</time>
      </trkpt>
      <trkpt lat="48.94985" lon="8.17404">
        <ele>109</ele>
        <time>2020-06-28T07:19:20Z</time>
      </trkpt>
      <trkpt lat="48.9498" lon="8.17411">
        <ele>109</ele>
        <time>2020-06-28T07:19:21Z</time>
      </trkpt>
      <trkpt lat="48.94975" lon="8.17417">
        <ele>109</ele>
        <time>2020-06-28T07:19:22Z</time>
      </trkpt>
      <trkpt lat="48.9497" lon="8.17424">
        <ele>109</ele>
        <time>2020-06-28T07:19:23Z</time>
      </trkpt>
      <trkpt lat="48.94964" lon="8.1743">
        <ele>109</ele>
        <time>2020-06-28T07:19:24Z</time>
      </trkpt>
      <trkpt lat="48.94958" lon="8.17436">
        <ele>109</ele>
        <time>2020-06-28T07:19:25Z</time>
      </trkpt>
      <trkpt lat="48.94953" lon="8.17442">
        <ele>109</ele>
        <time>2020-06-28T07:19:26Z</time>
      </trkpt>
      <trkpt lat="48.94948" lon="8.17448">
        <ele>109</ele>
        <time>2020-06-28T07:19:27Z</time>
      </trkpt>
      <trkpt lat="48.94943" lon="8.17454">
        <ele>109</ele>
        <time>2020-06-28T07:19:28Z</time>
      </trkpt>
      <trkpt lat="48.94938" lon="8.1746">
        <ele>109</ele>
        <time>2020-06-28T07:19:29Z</time>
      </trkpt>
      <trkpt lat="48.94933" lon="8.17466">
        <ele>109.1</ele>
        <time>2020-06-28T07:19:30Z</time>
      </trkpt>
      <trkpt lat="48.94928" lon="8.17471">
        <ele>109.1</ele>
        <time>2020-06-28T07:19:31Z</time>
      </trkpt>
      <trkpt lat="48.94923" lon="8.17476">
        <ele>109.1</ele>
        <time>2020-06-28T07:19:32Z</time>
      </trkpt>
      <trkpt lat="48.94917" lon="8.17481">
        <ele>109.1</ele>
        <time>2020-06-28T07:19:33Z</time>
      </trkpt>
      <trkpt lat="48.94912" lon="8.17487">
        <ele>109.1</ele>
        <time>2020-06-28T07:19:34Z</time>
      </trkpt>
      <trkpt lat="48.94907" lon="8.17493">
        <ele>109.1</ele>
        <time>2020-06-28T07:19:35Z</time>
      </trkpt>
      <trkpt lat="48.94902" lon="8.17499">
        <ele>109.1</ele>
        <time>2020-06-28T07:19:36Z</time>
      </trkpt>
      <trkpt lat="48.94897" lon="8.17504">
        <ele>109.1</ele>
        <time>2020-06-28T07:19:37Z</time>
      </trkpt>
      <trkpt lat="48.94891" lon="8.17508">
        <ele>109.1</ele>
        <time>2020-06-28T07:19:38Z</time>
      </trkpt>
      <trkpt lat="48.94884" lon="8.1751">
        <ele>109.1</ele>
        <time>2020-06-28T07:19:39Z</time>
      </trkpt>
      <trkpt lat="48.94878" lon="8.17509">
        <ele>109.1</ele>
        <time>2020-06-28T07:19:40Z</time>
      </trkpt>
      <trkpt lat="48.94872" lon="8.17507">
        <ele>109.1</ele>
        <time>2020-06-28T07:19:41Z</time>
      </trkpt>
      <trkpt lat="48.94866" lon="8.17503">
        <ele>109.1</ele>
        <time>2020-06-28T07:19:42Z</time>
      </trkpt>
      <trkpt lat="48.94861" lon="8.175">
        <ele>109.1</ele>
        <time>2020-06-28T07:19:43Z</time>
      </trkpt>
      <trkpt lat="48.94856" lon="8.17496">
        <ele>109</ele>
        <time>2020-06-28T07:19:44Z</time>
      </trkpt>
      <trkpt lat="48.94852" lon="8.17493">
        <ele>109</ele>
        <time>2020-06-28T07:19:45Z</time>
      </trkpt>
      <trkpt lat="48.94847" lon="8.1749">
        <ele>109.1</ele>
        <time>2020-06-28T07:19:46Z</time>
      </trkpt>
      <trkpt lat="48.94842" lon="8.17486">
        <ele>109.1</ele>
        <time>2020-06-28T07:19:47Z</time>
      </trkpt>
      <trkpt lat="48.94837" lon="8.17483">
        <ele>109.2</ele>
        <time>2020-06-28T07:19:48Z</time>
      </trkpt>
      <trkpt lat="48.94832" lon="8.1748">
        <ele>109.2</ele>
        <time>2020-06-28T07:19:49Z</time>
      </trkpt>
      <trkpt lat="48.94826" lon="8.17478">
        <ele>109.3</ele>
        <time>2020-06-28T07:19:50Z</time>
      </trkpt>
      <trkpt lat="48.9482" lon="8.17477">
        <ele>109.3</ele>
        <time>2020-06-28T07:19:51Z</time>
      </trkpt>
      <trkpt lat="48.94814" lon="8.17478">
        <ele>109.4</ele>
        <time>2020-06-28T07:19:52Z</time>
      </trkpt>
      <trkpt lat="48.94808" lon="8.17477">
        <ele>109.4</ele>
        <time>2020-06-28T07:19:53Z</time>
      </trkpt>
      <trkpt lat="48.94804" lon="8.17472">
        <ele>109.4</ele>
        <time>2020-06-28T07:19:54Z</time>
      </trkpt>
      <trkpt lat="48.94799" lon="8.17462">
        <ele>109.4</ele>
        <time>2020-06-28T07:19:55Z</time>
      </trkpt>
      <trkpt lat="48.94796" lon="8.17453">
        <ele>109.5</ele>
        <time>2020-06-28T07:19:56Z</time>
      </trkpt>
      <trkpt lat="48.94796" lon="8.17445">
        <ele>109.5</ele>
        <time>2020-06-28T07:19:57Z</time>
      </trkpt>
      <trkpt lat="48.94795" lon="8.17437">
        <ele>109.5</ele>
        <time>2020-06-28T07:19:58Z</time>
      </trkpt>
      <trkpt lat="48.94796" lon="8.1743">
        <ele>109.4</ele>
        <time>2020-06-28T07:19:59Z</time>
      </trkpt>
      <trkpt lat="48.94796" lon="8.17423">
        <ele>109.4</ele>
        <time>2020-06-28T07:20:00Z</time>
      </trkpt>
      <trkpt lat="48.94798" lon="8.17416">
        <ele>109.3</ele>
        <time>2020-06-28T07:20:01Z</time>
      </trkpt>
      <trkpt lat="48.948" lon="8.17408">
        <ele>109.3</ele>
        <time>2020-06-28T07:20:02Z</time>
      </trkpt>
      <trkpt lat="48.94801" lon="8.17401">
        <ele>109.3</ele>
        <time>2020-06-28T07:20:03Z</time>
      </trkpt>
      <trkpt lat="48.94803" lon="8.17392">
        <ele>109.4</ele>
        <time>2020-06-28T07:20:04Z</time>
      </trkpt>
      <trkpt lat="48.94804" lon="8.17384">
        <ele>109.4</ele>
        <time>2020-06-28T07:20:05Z</time>
      </trkpt>
      <trkpt lat="48.94805" lon="8.17375">
        <ele>109.4</ele>
        <time>2020-06-28T07:20:06Z</time>
      </trkpt>
      <trkpt lat="48.94806" lon="8.17366">
        <ele>109.4</ele>
        <time>2020-06-28T07:20:07Z</time>
      </trkpt>
      <trkpt lat="48.94805" lon="8.17358">
        <ele>109.4</ele>
        <time>2020-06-28T07:20:08Z</time>
      </trkpt>
      <trkpt lat="48.94805" lon="8.1735">
        <ele>109.4</ele>
        <time>2020-06-28T07:20:09Z</time>
      </trkpt>
      <trkpt lat="48.94805" lon="8.1734">
        <ele>109.5</ele>
        <time>2020-06-28T07:20:10Z</time>
      </trkpt>
      <trkpt lat="48.94804" lon="8.1733">
        <ele>109.5</ele>
        <time>2020-06-28T07:20:11Z</time>
      </trkpt>
      <trkpt lat="48.94802" lon="8.17323">
        <ele>109.5</ele>
        <time>2020-06-28T07:20:12Z</time>
      </trkpt>
      <trkpt lat="48.94798" lon="8.17316">
        <ele>109.5</ele>
        <time>2020-06-28T07:20:13Z</time>
      </trkpt>
      <trkpt lat="48.94793" lon="8.17311">
        <ele>109.5</ele>
        <time>2020-06-28T07:20:14Z</time>
      </trkpt>
      <trkpt lat="48.94788" lon="8.17306">
        <ele>109.5</ele>
        <time>2020-06-28T07:20:15Z</time>
      </trkpt>
      <trkpt lat="48.94783" lon="8.17303">
        <ele>109.5</ele>
        <time>2020-06-28T07:20:16Z</time>
      </trkpt>
      <trkpt lat="48.94778" lon="8.17299">
        <ele>109.5</ele>
        <time>2020-06-28T07:20:17Z</time>
      </trkpt>
      <trkpt lat="48.94772" lon="8.17296">
        <ele>109.5</ele>
        <time>2020-06-28T07:20:18Z</time>
      </trkpt>
      <trkpt lat="48.94767" lon="8.17292">
        <ele>109.5</ele>
        <time>2020-06-28T07:20:19Z</time>
      </trkpt>
      <trkpt lat="48.94761" lon="8.17288">
        <ele>109.5</ele>
        <time>2020-06-28T07:20:20Z</time>
      </trkpt>
      <trkpt lat="48.94757" lon="8.17283">
        <ele>109.5</ele>
        <time>2020-06-28T07:20:21Z</time>
      </trkpt>
      <trkpt lat="48.94751" lon="8.17281">
        <ele>109.5</ele>
        <time>2020-06-28T07:20:22Z</time>
      </trkpt>
      <trkpt lat="48.94746" lon="8.17278">
        <ele>109.6</ele>
        <time>2020-06-28T07:20:23Z</time>
      </trkpt>
      <trkpt lat="48.94741" lon="8.17274">
        <ele>109.6</ele>
        <time>2020-06-28T07:20:24Z</time>
      </trkpt>
      <trkpt lat="48.94736" lon="8.17271">
        <ele>109.6</ele>
        <time>2020-06-28T07:20:25Z</time>
      </trkpt>
      <trkpt lat="48.94733" lon="8.17267">
        <ele>109.6</ele>
        <time>2020-06-28T07:20:26Z</time>
      </trkpt>
      <trkpt lat="48.94726" lon="8.17263">
        <ele>109.5</ele>
        <time>2020-06-28T07:20:27Z</time>
      </trkpt>
      <trkpt lat="48.94721" lon="8.17259">
        <ele>109.5</ele>
        <time>2020-06-28T07:20:28Z</time>
      </trkpt>
      <trkpt lat="48.94715" lon="8.17255">
        <ele>109.5</ele>
        <time>2020-06-28T07:20:29Z</time>
      </trkpt>
      <trkpt lat="48.94711" lon="8.17251">
        <ele>109.6</ele>
        <time>2020-06-28T07:20:30Z</time>
      </trkpt>
      <trkpt lat="48.94706" lon="8.17247">
        <ele>109.6</ele>
        <time>2020-06-28T07:20:31Z</time>
      </trkpt>
      <trkpt lat="48.94703" lon="8.17243">
        <ele>109.6</ele>
        <time>2020-06-28T07:20:32Z</time>
      </trkpt>
      <trkpt lat="48.94699" lon="8.1724">
        <ele>109.7</ele>
        <time>2020-06-28T07:20:33Z</time>
      </trkpt>
      <trkpt lat="48.94694" lon="8.17238">
        <ele>109.8</ele>
        <time>2020-06-28T07:20:34Z</time>
      </trkpt>
      <trkpt lat="48.94691" lon="8.17237">
        <ele>109.7</ele>
        <time>2020-06-28T07:20:35Z</time>
      </trkpt>
      <trkpt lat="48.94687" lon="8.17241">
        <ele>109.7</ele>
        <time>2020-06-28T07:20:36Z</time>
      </trkpt>
      <trkpt lat="48.94685" lon="8.17251">
        <ele>109.6</ele>
        <time>2020-06-28T07:20:37Z</time>
      </trkpt>
      <trkpt lat="48.94683" lon="8.1726">
        <ele>109.6</ele>
        <time>2020-06-28T07:20:38Z</time>
      </trkpt>
      <trkpt lat="48.94681" lon="8.17269">
        <ele>109.5</ele>
        <time>2020-06-28T07:20:39Z</time>
      </trkpt>
      <trkpt lat="48.94678" lon="8.17277">
        <ele>109.5</ele>
        <time>2020-06-28T07:20:40Z</time>
      </trkpt>
      <trkpt lat="48.94676" lon="8.17285">
        <ele>109.5</ele>
        <time>2020-06-28T07:20:41Z</time>
      </trkpt>
      <trkpt lat="48.94673" lon="8.17293">
        <ele>109.5</ele>
        <time>2020-06-28T07:20:42Z</time>
      </trkpt>
      <trkpt lat="48.9467" lon="8.17301">
        <ele>109.5</ele>
        <time>2020-06-28T07:20:43Z</time>
      </trkpt>
      <trkpt lat="48.94667" lon="8.17309">
        <ele>109.5</ele>
        <time>2020-06-28T07:20:44Z</time>
      </trkpt>
      <trkpt lat="48.94664" lon="8.17317">
        <ele>109.5</ele>
        <time>2020-06-28T07:20:45Z</time>
      </trkpt>
      <trkpt lat="48.94662" lon="8.17324">
        <ele>109.5</ele>
        <time>2020-06-28T07:20:46Z</time>
      </trkpt>
      <trkpt lat="48.9466" lon="8.17332">
        <ele>109.5</ele>
        <time>2020-06-28T07:20:47Z</time>
      </trkpt>
      <trkpt lat="48.94657" lon="8.17339">
        <ele>109.5</ele>
        <time>2020-06-28T07:20:48Z</time>
      </trkpt>
      <trkpt lat="48.94655" lon="8.17347">
        <ele>109.4</ele>
        <time>2020-06-28T07:20:49Z</time>
      </trkpt>
      <trkpt lat="48.94652" lon="8.17355">
        <ele>109.4</ele>
        <time>2020-06-28T07:20:50Z</time>
      </trkpt>
      <trkpt lat="48.94649" lon="8.17362">
        <ele>109.4</ele>
        <time>2020-06-28T07:20:51Z</time>
      </trkpt>
      <trkpt lat="48.94647" lon="8.17368">
        <ele>109.3</ele>
        <time>2020-06-28T07:20:52Z</time>
      </trkpt>
      <trkpt lat="48.94645" lon="8.17375">
        <ele>109.3</ele>
        <time>2020-06-28T07:20:53Z</time>
      </trkpt>
      <trkpt lat="48.94642" lon="8.17382">
        <ele>109.2</ele>
        <time>2020-06-28T07:20:54Z</time>
      </trkpt>
      <trkpt lat="48.9464" lon="8.17389">
        <ele>109.2</ele>
        <time>2020-06-28T07:20:55Z</time>
      </trkpt>
      <trkpt lat="48.94639" lon="8.17395">
        <ele>109.1</ele>
        <time>2020-06-28T07:20:56Z</time>
      </trkpt>
      <trkpt lat="48.94637" lon="8.17403">
        <ele>109.1</ele>
        <time>2020-06-28T07:20:57Z</time>
      </trkpt>
      <trkpt lat="48.94636" lon="8.17414">
        <ele>109</ele>
        <time>2020-06-28T07:20:58Z</time>
      </trkpt>
      <trkpt lat="48.94636" lon="8.17423">
        <ele>109</ele>
        <time>2020-06-28T07:20:59Z</time>
      </trkpt>
      <trkpt lat="48.94637" lon="8.17433">
        <ele>109</ele>
        <time>2020-06-28T07:21:00Z</time>
      </trkpt>
      <trkpt lat="48.94638" lon="8.17441">
        <ele>109</ele>
        <time>2020-06-28T07:21:01Z</time>
      </trkpt>
      <trkpt lat="48.94638" lon="8.1745">
        <ele>109</ele>
        <time>2020-06-28T07:21:02Z</time>
      </trkpt>
      <trkpt lat="48.94639" lon="8.17458">
        <ele>109</ele>
        <time>2020-06-28T07:21:03Z</time>
      </trkpt>
      <trkpt lat="48.94639" lon="8.17465">
        <ele>109</ele>
        <time>2020-06-28T07:21:04Z</time>
      </trkpt>
      <trkpt lat="48.94639" lon="8.17474">
        <ele>108.9</ele>
        <time>2020-06-28T07:21:05Z</time>
      </trkpt>
      <trkpt lat="48.94639" lon="8.17485">
        <ele>108.9</ele>
        <time>2020-06-28T07:21:06Z</time>
      </trkpt>
      <trkpt lat="48.94639" lon="8.17494">
        <ele>108.9</ele>
        <time>2020-06-28T07:21:07Z</time>
      </trkpt>
      <trkpt lat="48.94639" lon="8.17502">
        <ele>108.8</ele>
        <time>2020-06-28T07:21:08Z</time>
      </trkpt>
      <trkpt lat="48.94639" lon="8.17511">
        <ele>108.8</ele>
        <time>2020-06-28T07:21:09Z</time>
      </trkpt>
      <trkpt lat="48.94639" lon="8.17519">
        <ele>108.8</ele>
        <time>2020-06-28T07:21:10Z</time>
      </trkpt>
      <trkpt lat="48.94639" lon="8.17526">
        <ele>108.8</ele>
        <time>2020-06-28T07:21:11Z</time>
      </trkpt>
      <trkpt lat="48.94641" lon="8.17535">
        <ele>108.7</ele>
        <time>2020-06-28T07:21:12Z</time>
      </trkpt>
      <trkpt lat="48.94643" lon="8.17544">
        <ele>108.7</ele>
        <time>2020-06-28T07:21:13Z</time>
      </trkpt>
      <trkpt lat="48.94645" lon="8.17555">
        <ele>108.7</ele>
        <time>2020-06-28T07:21:14Z</time>
      </trkpt>
      <trkpt lat="48.94648" lon="8.17563">
        <ele>108.7</ele>
        <time>2020-06-28T07:21:15Z</time>
      </trkpt>
      <trkpt lat="48.94651" lon="8.17572">
        <ele>108.7</ele>
        <time>2020-06-28T07:21:16Z</time>
      </trkpt>
      <trkpt lat="48.94653" lon="8.1758">
        <ele>108.7</ele>
        <time>2020-06-28T07:21:17Z</time>
      </trkpt>
      <trkpt lat="48.94656" lon="8.17588">
        <ele>108.7</ele>
        <time>2020-06-28T07:21:18Z</time>
      </trkpt>
      <trkpt lat="48.94659" lon="8.17597">
        <ele>108.7</ele>
        <time>2020-06-28T07:21:19Z</time>
      </trkpt>
      <trkpt lat="48.94662" lon="8.17606">
        <ele>108.7</ele>
        <time>2020-06-28T07:21:20Z</time>
      </trkpt>
      <trkpt lat="48.94666" lon="8.17614">
        <ele>108.7</ele>
        <time>2020-06-28T07:21:21Z</time>
      </trkpt>
      <trkpt lat="48.94669" lon="8.17623">
        <ele>108.7</ele>
        <time>2020-06-28T07:21:22Z</time>
      </trkpt>
      <trkpt lat="48.94673" lon="8.17631">
        <ele>108.6</ele>
        <time>2020-06-28T07:21:23Z</time>
      </trkpt>
      <trkpt lat="48.94676" lon="8.17639">
        <ele>108.6</ele>
        <time>2020-06-28T07:21:24Z</time>
      </trkpt>
      <trkpt lat="48.94679" lon="8.17647">
        <ele>108.6</ele>
        <time>2020-06-28T07:21:25Z</time>
      </trkpt>
      <trkpt lat="48.94683" lon="8.17654">
        <ele>108.6</ele>
        <time>2020-06-28T07:21:26Z</time>
      </trkpt>
      <trkpt lat="48.94687" lon="8.17662">
        <ele>108.6</ele>
        <time>2020-06-28T07:21:27Z</time>
      </trkpt>
      <trkpt lat="48.94689" lon="8.17671">
        <ele>108.6</ele>
        <time>2020-06-28T07:21:28Z</time>
      </trkpt>
      <trkpt lat="48.94692" lon="8.17678">
        <ele>108.6</ele>
        <time>2020-06-28T07:21:29Z</time>
      </trkpt>
      <trkpt lat="48.94695" lon="8.17686">
        <ele>108.7</ele>
        <time>2020-06-28T07:21:30Z</time>
      </trkpt>
      <trkpt lat="48.94698" lon="8.17692">
        <ele>108.7</ele>
        <time>2020-06-28T07:21:31Z</time>
      </trkpt>
      <trkpt lat="48.94701" lon="8.17699">
        <ele>108.7</ele>
        <time>2020-06-28T07:21:32Z</time>
      </trkpt>
      <trkpt lat="48.94705" lon="8.17707">
        <ele>108.7</ele>
        <time>2020-06-28T07:21:33Z</time>
      </trkpt>
      <trkpt lat="48.94709" lon="8.17714">
        <ele>108.8</ele>
        <time>2020-06-28T07:21:34Z</time>
      </trkpt>
      <trkpt lat="48.94711" lon="8.1772">
        <ele>108.8</ele>
        <time>2020-06-28T07:21:35Z</time>
      </trkpt>
      <trkpt lat="48.94712" lon="8.17729">
        <ele>108.8</ele>
        <time>2020-06-28T07:21:36Z</time>
      </trkpt>
      <trkpt lat="48.94714" lon="8.17738">
        <ele>108.9</ele>
        <time>2020-06-28T07:21:37Z</time>
      </trkpt>
      <trkpt lat="48.94715" lon="8.17746">
        <ele>108.9</ele>
        <time>2020-06-28T07:21:38Z</time>
      </trkpt>
      <trkpt lat="48.94717" lon="8.17756">
        <ele>109</ele>
        <time>2020-06-28T07:21:39Z</time>
      </trkpt>
      <trkpt lat="48.94719" lon="8.17763">
        <ele>109</ele>
        <time>2020-06-28T07:21:40Z</time>
      </trkpt>
      <trkpt lat="48.94722" lon="8.17765">
        <ele>109</ele>
        <time>2020-06-28T07:21:41Z</time>
      </trkpt>
      <trkpt lat="48.94723" lon="8.17771">
        <ele>109</ele>
        <time>2020-06-28T07:21:42Z</time>
      </trkpt>
      <trkpt lat="48.94726" lon="8.17777">
        <ele>109</ele>
        <time>2020-06-28T07:21:43Z</time>
      </trkpt>
      <trkpt lat="48.94728" lon="8.17785">
        <ele>109.1</ele>
        <time>2020-06-28T07:21:44Z</time>
      </trkpt>
      <trkpt lat="48.94732" lon="8.17794">
        <ele>109.1</ele>
        <time>2020-06-28T07:21:45Z</time>
      </trkpt>
      <trkpt lat="48.94734" lon="8.17803">
        <ele>109.1</ele>
        <time>2020-06-28T07:21:46Z</time>
      </trkpt>
      <trkpt lat="48.94735" lon="8.1781">
        <ele>109.2</ele>
        <time>2020-06-28T07:21:47Z</time>
      </trkpt>
      <trkpt lat="48.94737" lon="8.17818">
        <ele>109.3</ele>
        <time>2020-06-28T07:21:48Z</time>
      </trkpt>
      <trkpt lat="48.94738" lon="8.17824">
        <ele>109.3</ele>
        <time>2020-06-28T07:21:49Z</time>
      </trkpt>
      <trkpt lat="48.94739" lon="8.17831">
        <ele>109.4</ele>
        <time>2020-06-28T07:21:50Z</time>
      </trkpt>
      <trkpt lat="48.9474" lon="8.17839">
        <ele>109.4</ele>
        <time>2020-06-28T07:21:51Z</time>
      </trkpt>
      <trkpt lat="48.94741" lon="8.17847">
        <ele>109.5</ele>
        <time>2020-06-28T07:21:52Z</time>
      </trkpt>
      <trkpt lat="48.94742" lon="8.17855">
        <ele>109.5</ele>
        <time>2020-06-28T07:21:53Z</time>
      </trkpt>
      <trkpt lat="48.94743" lon="8.17862">
        <ele>109.5</ele>
        <time>2020-06-28T07:21:54Z</time>
      </trkpt>
      <trkpt lat="48.94744" lon="8.17871">
        <ele>109.6</ele>
        <time>2020-06-28T07:21:55Z</time>
      </trkpt>
      <trkpt lat="48.94745" lon="8.17881">
        <ele>109.6</ele>
        <time>2020-06-28T07:21:56Z</time>
      </trkpt>
      <trkpt lat="48.94745" lon="8.1789">
        <ele>109.6</ele>
        <time>2020-06-28T07:21:57Z</time>
      </trkpt>
      <trkpt lat="48.94745" lon="8.17899">
        <ele>109.7</ele>
        <time>2020-06-28T07:21:58Z</time>
      </trkpt>
      <trkpt lat="48.94745" lon="8.17908">
        <ele>109.7</ele>
        <time>2020-06-28T07:21:59Z</time>
      </trkpt>
      <trkpt lat="48.94743" lon="8.17917">
        <ele>109.7</ele>
        <time>2020-06-28T07:22:00Z</time>
      </trkpt>
      <trkpt lat="48.94741" lon="8.17925">
        <ele>109.8</ele>
        <time>2020-06-28T07:22:01Z</time>
      </trkpt>
      <trkpt lat="48.94739" lon="8.17935">
        <ele>109.8</ele>
        <time>2020-06-28T07:22:02Z</time>
      </trkpt>
      <trkpt lat="48.94738" lon="8.17944">
        <ele>109.8</ele>
        <time>2020-06-28T07:22:03Z</time>
      </trkpt>
      <trkpt lat="48.94736" lon="8.17952">
        <ele>109.8</ele>
        <time>2020-06-28T07:22:04Z</time>
      </trkpt>
      <trkpt lat="48.94735" lon="8.17961">
        <ele>109.8</ele>
        <time>2020-06-28T07:22:05Z</time>
      </trkpt>
      <trkpt lat="48.94735" lon="8.1797">
        <ele>109.9</ele>
        <time>2020-06-28T07:22:06Z</time>
      </trkpt>
      <trkpt lat="48.94734" lon="8.17978">
        <ele>110</ele>
        <time>2020-06-28T07:22:07Z</time>
      </trkpt>
      <trkpt lat="48.94733" lon="8.17986">
        <ele>110</ele>
        <time>2020-06-28T07:22:08Z</time>
      </trkpt>
      <trkpt lat="48.94732" lon="8.17993">
        <ele>110.1</ele>
        <time>2020-06-28T07:22:09Z</time>
      </trkpt>
      <trkpt lat="48.94731" lon="8.18002">
        <ele>110.2</ele>
        <time>2020-06-28T07:22:10Z</time>
      </trkpt>
      <trkpt lat="48.94731" lon="8.18009">
        <ele>110.4</ele>
        <time>2020-06-28T07:22:11Z</time>
      </trkpt>
      <trkpt lat="48.9473" lon="8.18016">
        <ele>110.5</ele>
        <time>2020-06-28T07:22:12Z</time>
      </trkpt>
      <trkpt lat="48.9473" lon="8.18024">
        <ele>110.7</ele>
        <time>2020-06-28T07:22:13Z</time>
      </trkpt>
      <trkpt lat="48.94729" lon="8.18031">
        <ele>110.9</ele>
        <time>2020-06-28T07:22:14Z</time>
      </trkpt>
      <trkpt lat="48.94728" lon="8.18037">
        <ele>111.1</ele>
        <time>2020-06-28T07:22:15Z</time>
      </trkpt>
      <trkpt lat="48.94726" lon="8.18042">
        <ele>111.3</ele>
        <time>2020-06-28T07:22:16Z</time>
      </trkpt>
      <trkpt lat="48.94723" lon="8.18047">
        <ele>111.5</ele>
        <time>2020-06-28T07:22:17Z</time>
      </trkpt>
      <trkpt lat="48.94722" lon="8.18053">
        <ele>111.7</ele>
        <time>2020-06-28T07:22:18Z</time>
      </trkpt>
      <trkpt lat="48.9472" lon="8.18056">
        <ele>111.8</ele>
        <time>2020-06-28T07:22:19Z</time>
      </trkpt>
      <trkpt lat="48.94718" lon="8.18061">
        <ele>112</ele>
        <time>2020-06-28T07:22:20Z</time>
      </trkpt>
      <trkpt lat="48.94714" lon="8.18065">
        <ele>112.2</ele>
        <time>2020-06-28T07:22:21Z</time>
      </trkpt>
      <trkpt lat="48.94709" lon="8.18068">
        <ele>112.5</ele>
        <time>2020-06-28T07:22:22Z</time>
      </trkpt>
      <trkpt lat="48.94706" lon="8.1807">
        <ele>112.6</ele>
        <time>2020-06-28T07:22:23Z</time>
      </trkpt>
      <trkpt lat="48.94703" lon="8.18074">
        <ele>112.7</ele>
        <time>2020-06-28T07:22:24Z</time>
      </trkpt>
      <trkpt lat="48.94699" lon="8.18077">
        <ele>112.7</ele>
        <time>2020-06-28T07:22:25Z</time>
      </trkpt>
      <trkpt lat="48.94695" lon="8.18078">
        <ele>112.6</ele>
        <time>2020-06-28T07:22:26Z</time>
      </trkpt>
      <trkpt lat="48.94691" lon="8.18081">
        <ele>112.6</ele>
        <time>2020-06-28T07:22:27Z</time>
      </trkpt>
      <trkpt lat="48.94689" lon="8.18083">
        <ele>112.5</ele>
        <time>2020-06-28T07:22:28Z</time>
      </trkpt>
      <trkpt lat="48.94686" lon="8.18087">
        <ele>112.5</ele>
        <time>2020-06-28T07:22:29Z</time>
      </trkpt>
      <trkpt lat="48.94683" lon="8.18094">
        <ele>112.4</ele>
        <time>2020-06-28T07:22:30Z</time>
      </trkpt>
      <trkpt lat="48.94679" lon="8.18103">
        <ele>112.4</ele>
        <time>2020-06-28T07:22:31Z</time>
      </trkpt>
      <trkpt lat="48.94676" lon="8.18111">
        <ele>112.4</ele>
        <time>2020-06-28T07:22:32Z</time>
      </trkpt>
      <trkpt lat="48.94674" lon="8.18118">
        <ele>112.4</ele>
        <time>2020-06-28T07:22:33Z</time>
      </trkpt>
      <trkpt lat="48.94671" lon="8.18126">
        <ele>112.3</ele>
        <time>2020-06-28T07:22:34Z</time>
      </trkpt>
      <trkpt lat="48.9467" lon="8.18134">
        <ele>112.3</ele>
        <time>2020-06-28T07:22:35Z</time>
      </trkpt>
      <trkpt lat="48.94668" lon="8.18141">
        <ele>112.3</ele>
        <time>2020-06-28T07:22:36Z</time>
      </trkpt>
      <trkpt lat="48.94667" lon="8.18149">
        <ele>112.4</ele>
        <time>2020-06-28T07:22:37Z</time>
      </trkpt>
      <trkpt lat="48.94665" lon="8.18156">
        <ele>112.4</ele>
        <time>2020-06-28T07:22:38Z</time>
      </trkpt>
      <trkpt lat="48.94663" lon="8.18163">
        <ele>112.4</ele>
        <time>2020-06-28T07:22:39Z</time>
      </trkpt>
      <trkpt lat="48.94661" lon="8.1817">
        <ele>112.4</ele>
        <time>2020-06-28T07:22:40Z</time>
      </trkpt>
      <trkpt lat="48.94659" lon="8.18177">
        <ele>112.4</ele>
        <time>2020-06-28T07:22:41Z</time>
      </trkpt>
      <trkpt lat="48.94657" lon="8.18184">
        <ele>112.4</ele>
        <time>2020-06-28T07:22:42Z</time>
      </trkpt>
      <trkpt lat="48.94656" lon="8.18192">
        <ele>112.4</ele>
        <time>2020-06-28T07:22:43Z</time>
      </trkpt>
      <trkpt lat="48.94654" lon="8.18201">
        <ele>112.4</ele>
        <time>2020-06-28T07:22:44Z</time>
      </trkpt>
      <trkpt lat="48.94652" lon="8.1821">
        <ele>112.4</ele>
        <time>2020-06-28T07:22:45Z</time>
      </trkpt>
      <trkpt lat="48.9465" lon="8.18217">
        <ele>112.4</ele>
        <time>2020-06-28T07:22:46Z</time>
      </trkpt>
      <trkpt lat="48.94648" lon="8.18224">
        <ele>112.4</ele>
        <time>2020-06-28T07:22:47Z</time>
      </trkpt>
      <trkpt lat="48.94647" lon="8.18229">
        <ele>112.4</ele>
        <time>2020-06-28T07:22:48Z</time>
      </trkpt>
      <trkpt lat="48.94645" lon="8.18237">
        <ele>112.3</ele>
        <time>2020-06-28T07:22:49Z</time>
      </trkpt>
      <trkpt lat="48.94645" lon="8.18249">
        <ele>112.3</ele>
        <time>2020-06-28T07:22:50Z</time>
      </trkpt>
      <trkpt lat="48.94644" lon="8.18262">
        <ele>112.2</ele>
        <time>2020-06-28T07:22:51Z</time>
      </trkpt>
      <trkpt lat="48.94645" lon="8.18276">
        <ele>112.1</ele>
        <time>2020-06-28T07:22:52Z</time>
      </trkpt>
      <trkpt lat="48.94646" lon="8.18286">
        <ele>112.1</ele>
        <time>2020-06-28T07:22:53Z</time>
      </trkpt>
      <trkpt lat="48.94649" lon="8.18293">
        <ele>112.1</ele>
        <time>2020-06-28T07:22:54Z</time>
      </trkpt>
      <trkpt lat="48.94651" lon="8.18299">
        <ele>112.1</ele>
        <time>2020-06-28T07:22:55Z</time>
      </trkpt>
      <trkpt lat="48.94654" lon="8.18303">
        <ele>112.2</ele>
        <time>2020-06-28T07:22:56Z</time>
      </trkpt>
      <trkpt lat="48.94658" lon="8.18308">
        <ele>112.2</ele>
        <time>2020-06-28T07:22:57Z</time>
      </trkpt>
      <trkpt lat="48.94663" lon="8.18312">
        <ele>112.2</ele>
        <time>2020-06-28T07:22:58Z</time>
      </trkpt>
      <trkpt lat="48.94668" lon="8.18316">
        <ele>112.3</ele>
        <time>2020-06-28T07:22:59Z</time>
      </trkpt>
      <trkpt lat="48.94673" lon="8.1832">
        <ele>112.3</ele>
        <time>2020-06-28T07:23:00Z</time>
      </trkpt>
      <trkpt lat="48.94678" lon="8.18324">
        <ele>112.3</ele>
        <time>2020-06-28T07:23:01Z</time>
      </trkpt>
      <trkpt lat="48.94683" lon="8.18329">
        <ele>112.3</ele>
        <time>2020-06-28T07:23:02Z</time>
      </trkpt>
      <trkpt lat="48.94688" lon="8.18334">
        <ele>112.3</ele>
        <time>2020-06-28T07:23:03Z</time>
      </trkpt>
      <trkpt lat="48.94692" lon="8.18338">
        <ele>112.3</ele>
        <time>2020-06-28T07:23:04Z</time>
      </trkpt>
      <trkpt lat="48.94697" lon="8.18342">
        <ele>112.3</ele>
        <time>2020-06-28T07:23:05Z</time>
      </trkpt>
      <trkpt lat="48.94702" lon="8.18345">
        <ele>112.3</ele>
        <time>2020-06-28T07:23:06Z</time>
      </trkpt>
      <trkpt lat="48.94708" lon="8.1835">
        <ele>112.2</ele>
        <time>2020-06-28T07:23:07Z</time>
      </trkpt>
      <trkpt lat="48.94714" lon="8.18354">
        <ele>112.1</ele>
        <time>2020-06-28T07:23:08Z</time>
      </trkpt>
      <trkpt lat="48.94719" lon="8.18359">
        <ele>112.1</ele>
        <time>2020-06-28T07:23:09Z</time>
      </trkpt>
      <trkpt lat="48.94726" lon="8.18364">
        <ele>112</ele>
        <time>2020-06-28T07:23:10Z</time>
      </trkpt>
      <trkpt lat="48.94732" lon="8.18369">
        <ele>111.9</ele>
        <time>2020-06-28T07:23:11Z</time>
      </trkpt>
      <trkpt lat="48.94738" lon="8.18373">
        <ele>111.9</ele>
        <time>2020-06-28T07:23:12Z</time>
      </trkpt>
      <trkpt lat="48.94744" lon="8.18378">
        <ele>111.9</ele>
        <time>2020-06-28T07:23:13Z</time>
      </trkpt>
      <trkpt lat="48.9475" lon="8.18383">
        <ele>111.9</ele>
        <time>2020-06-28T07:23:14Z</time>
      </trkpt>
      <trkpt lat="48.94755" lon="8.18388">
        <ele>112</ele>
        <time>2020-06-28T07:23:15Z</time>
      </trkpt>
      <trkpt lat="48.9476" lon="8.18393">
        <ele>112</ele>
        <time>2020-06-28T07:23:16Z</time>
      </trkpt>
      <trkpt lat="48.94763" lon="8.18398">
        <ele>112</ele>
        <time>2020-06-28T07:23:17Z</time>
      </trkpt>
      <trkpt lat="48.94765" lon="8.18404">
        <ele>112</ele>
        <time>2020-06-28T07:23:18Z</time>
      </trkpt>
      <trkpt lat="48.94767" lon="8.18412">
        <ele>112</ele>
        <time>2020-06-28T07:23:19Z</time>
      </trkpt>
      <trkpt lat="48.94768" lon="8.18422">
        <ele>112</ele>
        <time>2020-06-28T07:23:20Z</time>
      </trkpt>
      <trkpt lat="48.94767" lon="8.18429">
        <ele>112.1</ele>
        <time>2020-06-28T07:23:21Z</time>
      </trkpt>
      <trkpt lat="48.94766" lon="8.18436">
        <ele>112.1</ele>
        <time>2020-06-28T07:23:22Z</time>
      </trkpt>
      <trkpt lat="48.94763" lon="8.18442">
        <ele>112.1</ele>
        <time>2020-06-28T07:23:23Z</time>
      </trkpt>
      <trkpt lat="48.9476" lon="8.18447">
        <ele>112.1</ele>
        <time>2020-06-28T07:23:24Z</time>
      </trkpt>
      <trkpt lat="48.94757" lon="8.18452">
        <ele>112.1</ele>
        <time>2020-06-28T07:23:25Z</time>
      </trkpt>
      <trkpt lat="48.94751" lon="8.18458">
        <ele>112.1</ele>
        <time>2020-06-28T07:23:26Z</time>
      </trkpt>
      <trkpt lat="48.94747" lon="8.18464">
        <ele>112.1</ele>
        <time>2020-06-28T07:23:27Z</time>
      </trkpt>
      <trkpt lat="48.94742" lon="8.18469">
        <ele>112.2</ele>
        <time>2020-06-28T07:23:28Z</time>
      </trkpt>
      <trkpt lat="48.94737" lon="8.18474">
        <ele>112.2</ele>
        <time>2020-06-28T07:23:29Z</time>
      </trkpt>
      <trkpt lat="48.94732" lon="8.18479">
        <ele>112.2</ele>
        <time>2020-06-28T07:23:30Z</time>
      </trkpt>
      <trkpt lat="48.94727" lon="8.18486">
        <ele>112.2</ele>
        <time>2020-06-28T07:23:31Z</time>
      </trkpt>
      <trkpt lat="48.94723" lon="8.18491">
        <ele>112.3</ele>
        <time>2020-06-28T07:23:32Z</time>
      </trkpt>
      <trkpt lat="48.94717" lon="8.18496">
        <ele>112.3</ele>
        <time>2020-06-28T07:23:33Z</time>
      </trkpt>
      <trkpt lat="48.94712" lon="8.185">
        <ele>112.3</ele>
        <time>2020-06-28T07:23:34Z</time>
      </trkpt>
      <trkpt lat="48.94706" lon="8.18505">
        <ele>112.4</ele>
        <time>2020-06-28T07:23:35Z</time>
      </trkpt>
      <trkpt lat="48.947" lon="8.18508">
        <ele>112.4</ele>
        <time>2020-06-28T07:23:36Z</time>
      </trkpt>
      <trkpt lat="48.94694" lon="8.18511">
        <ele>112.5</ele>
        <time>2020-06-28T07:23:37Z</time>
      </trkpt>
      <trkpt lat="48.94688" lon="8.18512">
        <ele>112.5</ele>
        <time>2020-06-28T07:23:38Z</time>
      </trkpt>
      <trkpt lat="48.94682" lon="8.18514">
        <ele>112.5</ele>
        <time>2020-06-28T07:23:39Z</time>
      </trkpt>
      <trkpt lat="48.94676" lon="8.18514">
        <ele>112.6</ele>
        <time>2020-06-28T07:23:40Z</time>
      </trkpt>
      <trkpt lat="48.9467" lon="8.18514">
        <ele>112.6</ele>
        <time>2020-06-28T07:23:41Z</time>
      </trkpt>
      <trkpt lat="48.94663" lon="8.18513">
        <ele>112.7</ele>
        <time>2020-06-28T07:23:42Z</time>
      </trkpt>
      <trkpt lat="48.94658" lon="8.18512">
        <ele>112.7</ele>
        <time>2020-06-28T07:23:43Z</time>
      </trkpt>
      <trkpt lat="48.94652" lon="8.1851">
        <ele>112.8</ele>
        <time>2020-06-28T07:23:44Z</time>
      </trkpt>
      <trkpt lat="48.94647" lon="8.18508">
        <ele>112.7</ele>
        <time>2020-06-28T07:23:45Z</time>
      </trkpt>
      <trkpt lat="48.94641" lon="8.18504">
        <ele>112.7</ele>
        <time>2020-06-28T07:23:46Z</time>
      </trkpt>
      <trkpt lat="48.94636" lon="8.185">
        <ele>112.7</ele>
        <time>2020-06-28T07:23:47Z</time>
      </trkpt>
      <trkpt lat="48.9463" lon="8.18497">
        <ele>112.6</ele>
        <time>2020-06-28T07:23:48Z</time>
      </trkpt>
      <trkpt lat="48.94624" lon="8.18494">
        <ele>112.6</ele>
        <time>2020-06-28T07:23:49Z</time>
      </trkpt>
      <trkpt lat="48.94617" lon="8.1849">
        <ele>112.6</ele>
        <time>2020-06-28T07:23:50Z</time>
      </trkpt>
      <trkpt lat="48.94612" lon="8.18488">
        <ele>112.6</ele>
        <time>2020-06-28T07:23:51Z</time>
      </trkpt>
      <trkpt lat="48.94607" lon="8.18485">
        <ele>112.5</ele>
        <time>2020-06-28T07:23:52Z</time>
      </trkpt>
      <trkpt lat="48.94602" lon="8.18482">
        <ele>112.5</ele>
        <time>2020-06-28T07:23:53Z</time>
      </trkpt>
      <trkpt lat="48.94596" lon="8.18478">
        <ele>112.5</ele>
        <time>2020-06-28T07:23:54Z</time>
      </trkpt>
      <trkpt lat="48.9459" lon="8.18475">
        <ele>112.5</ele>
        <time>2020-06-28T07:23:55Z</time>
      </trkpt>
      <trkpt lat="48.94583" lon="8.18471">
        <ele>112.5</ele>
        <time>2020-06-28T07:23:56Z</time>
      </trkpt>
      <trkpt lat="48.94578" lon="8.18468">
        <ele>112.5</ele>
        <time>2020-06-28T07:23:57Z</time>
      </trkpt>
      <trkpt lat="48.94572" lon="8.18464">
        <ele>112.5</ele>
        <time>2020-06-28T07:23:58Z</time>
      </trkpt>
      <trkpt lat="48.94568" lon="8.18463">
        <ele>112.5</ele>
        <time>2020-06-28T07:23:59Z</time>
      </trkpt>
      <trkpt lat="48.94561" lon="8.18459">
        <ele>112.5</ele>
        <time>2020-06-28T07:24:00Z</time>
      </trkpt>
      <trkpt lat="48.94554" lon="8.18454">
        <ele>112.5</ele>
        <time>2020-06-28T07:24:01Z</time>
      </trkpt>
      <trkpt lat="48.94547" lon="8.18451">
        <ele>112.5</ele>
        <time>2020-06-28T07:24:02Z</time>
      </trkpt>
      <trkpt lat="48.94542" lon="8.18447">
        <ele>112.5</ele>
        <time>2020-06-28T07:24:03Z</time>
      </trkpt>
      <trkpt lat="48.94536" lon="8.18444">
        <ele>112.5</ele>
        <time>2020-06-28T07:24:04Z</time>
      </trkpt>
      <trkpt lat="48.94533" lon="8.18439">
        <ele>112.5</ele>
        <time>2020-06-28T07:24:05Z</time>
      </trkpt>
      <trkpt lat="48.94528" lon="8.18434">
        <ele>112.4</ele>
        <time>2020-06-28T07:24:06Z</time>
      </trkpt>
      <trkpt lat="48.94522" lon="8.18429">
        <ele>112.4</ele>
        <time>2020-06-28T07:24:07Z</time>
      </trkpt>
      <trkpt lat="48.94516" lon="8.18424">
        <ele>112.4</ele>
        <time>2020-06-28T07:24:08Z</time>
      </trkpt>
      <trkpt lat="48.94511" lon="8.1842">
        <ele>112.4</ele>
        <time>2020-06-28T07:24:09Z</time>
      </trkpt>
      <trkpt lat="48.94505" lon="8.18415">
        <ele>112.4</ele>
        <time>2020-06-28T07:24:10Z</time>
      </trkpt>
      <trkpt lat="48.94498" lon="8.18411">
        <ele>112.4</ele>
        <time>2020-06-28T07:24:11Z</time>
      </trkpt>
      <trkpt lat="48.94492" lon="8.18407">
        <ele>112.4</ele>
        <time>2020-06-28T07:24:12Z</time>
      </trkpt>
      <trkpt lat="48.94486" lon="8.18403">
        <ele>112.4</ele>
        <time>2020-06-28T07:24:13Z</time>
      </trkpt>
      <trkpt lat="48.9448" lon="8.18399">
        <ele>112.4</ele>
        <time>2020-06-28T07:24:14Z</time>
      </trkpt>
      <trkpt lat="48.94473" lon="8.18395">
        <ele>112.4</ele>
        <time>2020-06-28T07:24:15Z</time>
      </trkpt>
      <trkpt lat="48.94467" lon="8.18391">
        <ele>112.4</ele>
        <time>2020-06-28T07:24:16Z</time>
      </trkpt>
      <trkpt lat="48.94461" lon="8.18387">
        <ele>112.4</ele>
        <time>2020-06-28T07:24:17Z</time>
      </trkpt>
      <trkpt lat="48.94455" lon="8.18383">
        <ele>112.4</ele>
        <time>2020-06-28T07:24:18Z</time>
      </trkpt>
      <trkpt lat="48.94449" lon="8.18379">
        <ele>112.4</ele>
        <time>2020-06-28T07:24:19Z</time>
      </trkpt>
      <trkpt lat="48.94443" lon="8.18375">
        <ele>112.4</ele>
        <time>2020-06-28T07:24:20Z</time>
      </trkpt>
      <trkpt lat="48.94437" lon="8.1837">
        <ele>112.4</ele>
        <time>2020-06-28T07:24:21Z</time>
      </trkpt>
      <trkpt lat="48.94431" lon="8.18366">
        <ele>112.4</ele>
        <time>2020-06-28T07:24:22Z</time>
      </trkpt>
      <trkpt lat="48.94426" lon="8.18362">
        <ele>112.4</ele>
        <time>2020-06-28T07:24:23Z</time>
      </trkpt>
      <trkpt lat="48.9442" lon="8.18358">
        <ele>112.4</ele>
        <time>2020-06-28T07:24:24Z</time>
      </trkpt>
      <trkpt lat="48.94414" lon="8.18353">
        <ele>112.4</ele>
        <time>2020-06-28T07:24:25Z</time>
      </trkpt>
      <trkpt lat="48.94408" lon="8.18348">
        <ele>112.5</ele>
        <time>2020-06-28T07:24:26Z</time>
      </trkpt>
      <trkpt lat="48.94402" lon="8.18345">
        <ele>112.3</ele>
        <time>2020-06-28T07:24:27Z</time>
      </trkpt>
      <trkpt lat="48.94395" lon="8.18342">
        <ele>112.2</ele>
        <time>2020-06-28T07:24:28Z</time>
      </trkpt>
      <trkpt lat="48.94389" lon="8.18338">
        <ele>112.2</ele>
        <time>2020-06-28T07:24:29Z</time>
      </trkpt>
      <trkpt lat="48.94383" lon="8.18335">
        <ele>112.1</ele>
        <time>2020-06-28T07:24:30Z</time>
      </trkpt>
      <trkpt lat="48.94377" lon="8.18331">
        <ele>112.1</ele>
        <time>2020-06-28T07:24:31Z</time>
      </trkpt>
      <trkpt lat="48.94372" lon="8.18327">
        <ele>112.1</ele>
        <time>2020-06-28T07:24:32Z</time>
      </trkpt>
      <trkpt lat="48.94366" lon="8.18323">
        <ele>112.2</ele>
        <time>2020-06-28T07:24:33Z</time>
      </trkpt>
      <trkpt lat="48.94361" lon="8.18319">
        <ele>112.2</ele>
        <time>2020-06-28T07:24:34Z</time>
      </trkpt>
      <trkpt lat="48.94355" lon="8.18316">
        <ele>112.2</ele>
        <time>2020-06-28T07:24:35Z</time>
      </trkpt>
      <trkpt lat="48.94349" lon="8.18312">
        <ele>112.2</ele>
        <time>2020-06-28T07:24:36Z</time>
      </trkpt>
      <trkpt lat="48.94343" lon="8.18308">
        <ele>112.2</ele>
        <time>2020-06-28T07:24:37Z</time>
      </trkpt>
      <trkpt lat="48.94337" lon="8.18304">
        <ele>112.2</ele>
        <time>2020-06-28T07:24:38Z</time>
      </trkpt>
      <trkpt lat="48.94331" lon="8.183">
        <ele>112.2</ele>
        <time>2020-06-28T07:24:39Z</time>
      </trkpt>
      <trkpt lat="48.94326" lon="8.18296">
        <ele>112.2</ele>
        <time>2020-06-28T07:24:40Z</time>
      </trkpt>
      <trkpt lat="48.9432" lon="8.18292">
        <ele>112.2</ele>
        <time>2020-06-28T07:24:41Z</time>
      </trkpt>
      <trkpt lat="48.94314" lon="8.18288">
        <ele>112.2</ele>
        <time>2020-06-28T07:24:42Z</time>
      </trkpt>
      <trkpt lat="48.94309" lon="8.18284">
        <ele>112.3</ele>
        <time>2020-06-28T07:24:43Z</time>
      </trkpt>
      <trkpt lat="48.94304" lon="8.18281">
        <ele>112.3</ele>
        <time>2020-06-28T07:24:44Z</time>
      </trkpt>
      <trkpt lat="48.94298" lon="8.18277">
        <ele>112.3</ele>
        <time>2020-06-28T07:24:45Z</time>
      </trkpt>
      <trkpt lat="48.94292" lon="8.18273">
        <ele>112.3</ele>
        <time>2020-06-28T07:24:46Z</time>
      </trkpt>
      <trkpt lat="48.94286" lon="8.18269">
        <ele>112.2</ele>
        <time>2020-06-28T07:24:47Z</time>
      </trkpt>
      <trkpt lat="48.9428" lon="8.18266">
        <ele>112.2</ele>
        <time>2020-06-28T07:24:48Z</time>
      </trkpt>
      <trkpt lat="48.94275" lon="8.18262">
        <ele>112.2</ele>
        <time>2020-06-28T07:24:49Z</time>
      </trkpt>
      <trkpt lat="48.94272" lon="8.18258">
        <ele>112.2</ele>
        <time>2020-06-28T07:24:50Z</time>
      </trkpt>
      <trkpt lat="48.94267" lon="8.18255">
        <ele>112.2</ele>
        <time>2020-06-28T07:24:51Z</time>
      </trkpt>
      <trkpt lat="48.94261" lon="8.18251">
        <ele>112.2</ele>
        <time>2020-06-28T07:24:52Z</time>
      </trkpt>
      <trkpt lat="48.94254" lon="8.18247">
        <ele>112.1</ele>
        <time>2020-06-28T07:24:53Z</time>
      </trkpt>
      <trkpt lat="48.94248" lon="8.18242">
        <ele>112.1</ele>
        <time>2020-06-28T07:24:54Z</time>
      </trkpt>
      <trkpt lat="48.94242" lon="8.18238">
        <ele>112.1</ele>
        <time>2020-06-28T07:24:55Z</time>
      </trkpt>
      <trkpt lat="48.94235" lon="8.18233">
        <ele>112.1</ele>
        <time>2020-06-28T07:24:56Z</time>
      </trkpt>
      <trkpt lat="48.94229" lon="8.1823">
        <ele>112.1</ele>
        <time>2020-06-28T07:24:57Z</time>
      </trkpt>
      <trkpt lat="48.94224" lon="8.18225">
        <ele>112.1</ele>
        <time>2020-06-28T07:24:58Z</time>
      </trkpt>
      <trkpt lat="48.94218" lon="8.18221">
        <ele>112.1</ele>
        <time>2020-06-28T07:24:59Z</time>
      </trkpt>
      <trkpt lat="48.94212" lon="8.18217">
        <ele>112.2</ele>
        <time>2020-06-28T07:25:00Z</time>
      </trkpt>
      <trkpt lat="48.94207" lon="8.18214">
        <ele>112.2</ele>
        <time>2020-06-28T07:25:01Z</time>
      </trkpt>
      <trkpt lat="48.94201" lon="8.1821">
        <ele>112.2</ele>
        <time>2020-06-28T07:25:02Z</time>
      </trkpt>
      <trkpt lat="48.94195" lon="8.18206">
        <ele>112.2</ele>
        <time>2020-06-28T07:25:03Z</time>
      </trkpt>
      <trkpt lat="48.94189" lon="8.18202">
        <ele>112.2</ele>
        <time>2020-06-28T07:25:04Z</time>
      </trkpt>
      <trkpt lat="48.94183" lon="8.18198">
        <ele>112.2</ele>
        <time>2020-06-28T07:25:05Z</time>
      </trkpt>
      <trkpt lat="48.94176" lon="8.18193">
        <ele>112.2</ele>
        <time>2020-06-28T07:25:06Z</time>
      </trkpt>
      <trkpt lat="48.9417" lon="8.18189">
        <ele>112.2</ele>
        <time>2020-06-28T07:25:07Z</time>
      </trkpt>
      <trkpt lat="48.94165" lon="8.18186">
        <ele>112.2</ele>
        <time>2020-06-28T07:25:08Z</time>
      </trkpt>
      <trkpt lat="48.94159" lon="8.18183">
        <ele>112.2</ele>
        <time>2020-06-28T07:25:09Z</time>
      </trkpt>
      <trkpt lat="48.94153" lon="8.18178">
        <ele>112.2</ele>
        <time>2020-06-28T07:25:10Z</time>
      </trkpt>
      <trkpt lat="48.94148" lon="8.18175">
        <ele>112.2</ele>
        <time>2020-06-28T07:25:11Z</time>
      </trkpt>
      <trkpt lat="48.94142" lon="8.18171">
        <ele>112.2</ele>
        <time>2020-06-28T07:25:12Z</time>
      </trkpt>
      <trkpt lat="48.94137" lon="8.18166">
        <ele>112.1</ele>
        <time>2020-06-28T07:25:13Z</time>
      </trkpt>
      <trkpt lat="48.94131" lon="8.18162">
        <ele>112.1</ele>
        <time>2020-06-28T07:25:14Z</time>
      </trkpt>
      <trkpt lat="48.94125" lon="8.18157">
        <ele>112.1</ele>
        <time>2020-06-28T07:25:15Z</time>
      </trkpt>
      <trkpt lat="48.9412" lon="8.18153">
        <ele>112.1</ele>
        <time>2020-06-28T07:25:16Z</time>
      </trkpt>
      <trkpt lat="48.94114" lon="8.1815">
        <ele>112.1</ele>
        <time>2020-06-28T07:25:17Z</time>
      </trkpt>
      <trkpt lat="48.94109" lon="8.18145">
        <ele>112.1</ele>
        <time>2020-06-28T07:25:18Z</time>
      </trkpt>
      <trkpt lat="48.94104" lon="8.18142">
        <ele>112.1</ele>
        <time>2020-06-28T07:25:19Z</time>
      </trkpt>
      <trkpt lat="48.94099" lon="8.18139">
        <ele>112.1</ele>
        <time>2020-06-28T07:25:20Z</time>
      </trkpt>
      <trkpt lat="48.94094" lon="8.18136">
        <ele>112.1</ele>
        <time>2020-06-28T07:25:21Z</time>
      </trkpt>
      <trkpt lat="48.94088" lon="8.18131">
        <ele>112.2</ele>
        <time>2020-06-28T07:25:22Z</time>
      </trkpt>
      <trkpt lat="48.94082" lon="8.18126">
        <ele>112.2</ele>
        <time>2020-06-28T07:25:23Z</time>
      </trkpt>
      <trkpt lat="48.94077" lon="8.18122">
        <ele>112.2</ele>
        <time>2020-06-28T07:25:24Z</time>
      </trkpt>
      <trkpt lat="48.94072" lon="8.18117">
        <ele>112.3</ele>
        <time>2020-06-28T07:25:25Z</time>
      </trkpt>
      <trkpt lat="48.94066" lon="8.18113">
        <ele>112.3</ele>
        <time>2020-06-28T07:25:26Z</time>
      </trkpt>
      <trkpt lat="48.94061" lon="8.18108">
        <ele>112.3</ele>
        <time>2020-06-28T07:25:27Z</time>
      </trkpt>
      <trkpt lat="48.94055" lon="8.18104">
        <ele>112.3</ele>
        <time>2020-06-28T07:25:28Z</time>
      </trkpt>
      <trkpt lat="48.94049" lon="8.181">
        <ele>112.3</ele>
        <time>2020-06-28T07:25:29Z</time>
      </trkpt>
      <trkpt lat="48.94044" lon="8.18095">
        <ele>112.3</ele>
        <time>2020-06-28T07:25:30Z</time>
      </trkpt>
      <trkpt lat="48.94039" lon="8.18092">
        <ele>112.3</ele>
        <time>2020-06-28T07:25:31Z</time>
      </trkpt>
      <trkpt lat="48.94033" lon="8.18087">
        <ele>112.3</ele>
        <time>2020-06-28T07:25:32Z</time>
      </trkpt>
      <trkpt lat="48.94027" lon="8.18082">
        <ele>112.3</ele>
        <time>2020-06-28T07:25:33Z</time>
      </trkpt>
      <trkpt lat="48.94022" lon="8.18078">
        <ele>112.3</ele>
        <time>2020-06-28T07:25:34Z</time>
      </trkpt>
      <trkpt lat="48.94017" lon="8.18074">
        <ele>112.3</ele>
        <time>2020-06-28T07:25:35Z</time>
      </trkpt>
      <trkpt lat="48.94013" lon="8.18072">
        <ele>112.3</ele>
        <time>2020-06-28T07:25:36Z</time>
      </trkpt>
      <trkpt lat="48.94007" lon="8.18068">
        <ele>112.3</ele>
        <time>2020-06-28T07:25:37Z</time>
      </trkpt>
      <trkpt lat="48.94003" lon="8.18064">
        <ele>112.3</ele>
        <time>2020-06-28T07:25:38Z</time>
      </trkpt>
      <trkpt lat="48.93997" lon="8.1806">
        <ele>112.3</ele>
        <time>2020-06-28T07:25:39Z</time>
      </trkpt>
      <trkpt lat="48.93992" lon="8.18056">
        <ele>112.3</ele>
        <time>2020-06-28T07:25:40Z</time>
      </trkpt>
      <trkpt lat="48.93987" lon="8.18051">
        <ele>112.3</ele>
        <time>2020-06-28T07:25:41Z</time>
      </trkpt>
      <trkpt lat="48.93981" lon="8.18046">
        <ele>112.3</ele>
        <time>2020-06-28T07:25:42Z</time>
      </trkpt>
      <trkpt lat="48.93976" lon="8.18042">
        <ele>112.2</ele>
        <time>2020-06-28T07:25:43Z</time>
      </trkpt>
      <trkpt lat="48.9397" lon="8.18038">
        <ele>112.2</ele>
        <time>2020-06-28T07:25:44Z</time>
      </trkpt>
      <trkpt lat="48.93963" lon="8.18034">
        <ele>112.2</ele>
        <time>2020-06-28T07:25:45Z</time>
      </trkpt>
      <trkpt lat="48.93957" lon="8.18029">
        <ele>112.2</ele>
        <time>2020-06-28T07:25:46Z</time>
      </trkpt>
      <trkpt lat="48.93952" lon="8.18026">
        <ele>112.2</ele>
        <time>2020-06-28T07:25:47Z</time>
      </trkpt>
      <trkpt lat="48.93946" lon="8.18021">
        <ele>112.2</ele>
        <time>2020-06-28T07:25:48Z</time>
      </trkpt>
      <trkpt lat="48.9394" lon="8.18016">
        <ele>112.2</ele>
        <time>2020-06-28T07:25:49Z</time>
      </trkpt>
      <trkpt lat="48.93934" lon="8.18011">
        <ele>112.3</ele>
        <time>2020-06-28T07:25:50Z</time>
      </trkpt>
      <trkpt lat="48.93929" lon="8.18009">
        <ele>112.3</ele>
        <time>2020-06-28T07:25:51Z</time>
      </trkpt>
      <trkpt lat="48.93923" lon="8.18005">
        <ele>112.3</ele>
        <time>2020-06-28T07:25:52Z</time>
      </trkpt>
      <trkpt lat="48.93917" lon="8.18001">
        <ele>112.3</ele>
        <time>2020-06-28T07:25:53Z</time>
      </trkpt>
      <trkpt lat="48.93911" lon="8.17997">
        <ele>112.3</ele>
        <time>2020-06-28T07:25:54Z</time>
      </trkpt>
      <trkpt lat="48.93906" lon="8.17993">
        <ele>112.3</ele>
        <time>2020-06-28T07:25:55Z</time>
      </trkpt>
      <trkpt lat="48.93899" lon="8.17989">
        <ele>112.3</ele>
        <time>2020-06-28T07:25:56Z</time>
      </trkpt>
      <trkpt lat="48.93893" lon="8.17984">
        <ele>112.3</ele>
        <time>2020-06-28T07:25:57Z</time>
      </trkpt>
      <trkpt lat="48.93887" lon="8.17979">
        <ele>112.3</ele>
        <time>2020-06-28T07:25:58Z</time>
      </trkpt>
      <trkpt lat="48.93881" lon="8.17973">
        <ele>112.3</ele>
        <time>2020-06-28T07:25:59Z</time>
      </trkpt>
      <trkpt lat="48.93875" lon="8.17969">
        <ele>112.3</ele>
        <time>2020-06-28T07:26:00Z</time>
      </trkpt>
      <trkpt lat="48.93871" lon="8.17966">
        <ele>112.4</ele>
        <time>2020-06-28T07:26:01Z</time>
      </trkpt>
      <trkpt lat="48.93866" lon="8.17962">
        <ele>112.4</ele>
        <time>2020-06-28T07:26:02Z</time>
      </trkpt>
      <trkpt lat="48.93861" lon="8.17958">
        <ele>112.4</ele>
        <time>2020-06-28T07:26:03Z</time>
      </trkpt>
      <trkpt lat="48.93855" lon="8.17954">
        <ele>112.4</ele>
        <time>2020-06-28T07:26:04Z</time>
      </trkpt>
      <trkpt lat="48.93849" lon="8.17949">
        <ele>112.4</ele>
        <time>2020-06-28T07:26:05Z</time>
      </trkpt>
      <trkpt lat="48.93843" lon="8.17945">
        <ele>112.4</ele>
        <time>2020-06-28T07:26:06Z</time>
      </trkpt>
      <trkpt lat="48.93837" lon="8.1794">
        <ele>112.4</ele>
        <time>2020-06-28T07:26:07Z</time>
      </trkpt>
      <trkpt lat="48.93832" lon="8.17935">
        <ele>112.3</ele>
        <time>2020-06-28T07:26:08Z</time>
      </trkpt>
      <trkpt lat="48.93826" lon="8.17931">
        <ele>112.3</ele>
        <time>2020-06-28T07:26:09Z</time>
      </trkpt>
      <trkpt lat="48.93821" lon="8.17927">
        <ele>112.3</ele>
        <time>2020-06-28T07:26:10Z</time>
      </trkpt>
      <trkpt lat="48.93815" lon="8.17923">
        <ele>112.3</ele>
        <time>2020-06-28T07:26:11Z</time>
      </trkpt>
      <trkpt lat="48.9381" lon="8.1792">
        <ele>112.3</ele>
        <time>2020-06-28T07:26:12Z</time>
      </trkpt>
      <trkpt lat="48.93804" lon="8.17915">
        <ele>112.3</ele>
        <time>2020-06-28T07:26:13Z</time>
      </trkpt>
      <trkpt lat="48.93799" lon="8.17912">
        <ele>112.3</ele>
        <time>2020-06-28T07:26:14Z</time>
      </trkpt>
      <trkpt lat="48.93793" lon="8.17907">
        <ele>112.3</ele>
        <time>2020-06-28T07:26:15Z</time>
      </trkpt>
      <trkpt lat="48.93787" lon="8.17904">
        <ele>112.3</ele>
        <time>2020-06-28T07:26:16Z</time>
      </trkpt>
      <trkpt lat="48.93781" lon="8.179">
        <ele>112.4</ele>
        <time>2020-06-28T07:26:17Z</time>
      </trkpt>
      <trkpt lat="48.93775" lon="8.17895">
        <ele>112.4</ele>
        <time>2020-06-28T07:26:18Z</time>
      </trkpt>
      <trkpt lat="48.93769" lon="8.17891">
        <ele>112.4</ele>
        <time>2020-06-28T07:26:19Z</time>
      </trkpt>
      <trkpt lat="48.93763" lon="8.17887">
        <ele>112.4</ele>
        <time>2020-06-28T07:26:20Z</time>
      </trkpt>
      <trkpt lat="48.93756" lon="8.17882">
        <ele>112.4</ele>
        <time>2020-06-28T07:26:21Z</time>
      </trkpt>
      <trkpt lat="48.93752" lon="8.17878">
        <ele>112.4</ele>
        <time>2020-06-28T07:26:22Z</time>
      </trkpt>
      <trkpt lat="48.93748" lon="8.17874">
        <ele>112.4</ele>
        <time>2020-06-28T07:26:23Z</time>
      </trkpt>
      <trkpt lat="48.93743" lon="8.1787">
        <ele>112.4</ele>
        <time>2020-06-28T07:26:24Z</time>
      </trkpt>
      <trkpt lat="48.93737" lon="8.17864">
        <ele>112.4</ele>
        <time>2020-06-28T07:26:25Z</time>
      </trkpt>
      <trkpt lat="48.93731" lon="8.1786">
        <ele>112.4</ele>
        <time>2020-06-28T07:26:26Z</time>
      </trkpt>
      <trkpt lat="48.93727" lon="8.17856">
        <ele>112.4</ele>
        <time>2020-06-28T07:26:27Z</time>
      </trkpt>
      <trkpt lat="48.93721" lon="8.17852">
        <ele>112.4</ele>
        <time>2020-06-28T07:26:28Z</time>
      </trkpt>
      <trkpt lat="48.93715" lon="8.17848">
        <ele>112.5</ele>
        <time>2020-06-28T07:26:29Z</time>
      </trkpt>
      <trkpt lat="48.9371" lon="8.17843">
        <ele>112.5</ele>
        <time>2020-06-28T07:26:30Z</time>
      </trkpt>
      <trkpt lat="48.93705" lon="8.17839">
        <ele>112.5</ele>
        <time>2020-06-28T07:26:31Z</time>
      </trkpt>
      <trkpt lat="48.937" lon="8.17835">
        <ele>112.5</ele>
        <time>2020-06-28T07:26:32Z</time>
      </trkpt>
      <trkpt lat="48.93694" lon="8.1783">
        <ele>112.5</ele>
        <time>2020-06-28T07:26:33Z</time>
      </trkpt>
      <trkpt lat="48.93689" lon="8.17825">
        <ele>112.5</ele>
        <time>2020-06-28T07:26:34Z</time>
      </trkpt>
      <trkpt lat="48.93683" lon="8.17819">
        <ele>112.5</ele>
        <time>2020-06-28T07:26:35Z</time>
      </trkpt>
      <trkpt lat="48.93678" lon="8.17814">
        <ele>112.5</ele>
        <time>2020-06-28T07:26:36Z</time>
      </trkpt>
      <trkpt lat="48.93672" lon="8.1781">
        <ele>112.5</ele>
        <time>2020-06-28T07:26:37Z</time>
      </trkpt>
      <trkpt lat="48.93667" lon="8.17804">
        <ele>112.5</ele>
        <time>2020-06-28T07:26:38Z</time>
      </trkpt>
      <trkpt lat="48.93662" lon="8.178">
        <ele>112.4</ele>
        <time>2020-06-28T07:26:39Z</time>
      </trkpt>
      <trkpt lat="48.93657" lon="8.17797">
        <ele>112.4</ele>
        <time>2020-06-28T07:26:40Z</time>
      </trkpt>
      <trkpt lat="48.93651" lon="8.17793">
        <ele>112.4</ele>
        <time>2020-06-28T07:26:41Z</time>
      </trkpt>
      <trkpt lat="48.93645" lon="8.17787">
        <ele>112.4</ele>
        <time>2020-06-28T07:26:42Z</time>
      </trkpt>
      <trkpt lat="48.93639" lon="8.17783">
        <ele>112.4</ele>
        <time>2020-06-28T07:26:43Z</time>
      </trkpt>
      <trkpt lat="48.93632" lon="8.17778">
        <ele>112.4</ele>
        <time>2020-06-28T07:26:44Z</time>
      </trkpt>
      <trkpt lat="48.93627" lon="8.17773">
        <ele>112.4</ele>
        <time>2020-06-28T07:26:45Z</time>
      </trkpt>
      <trkpt lat="48.9362" lon="8.17767">
        <ele>112.4</ele>
        <time>2020-06-28T07:26:46Z</time>
      </trkpt>
      <trkpt lat="48.93613" lon="8.17762">
        <ele>112.4</ele>
        <time>2020-06-28T07:26:47Z</time>
      </trkpt>
      <trkpt lat="48.93607" lon="8.17758">
        <ele>112.5</ele>
        <time>2020-06-28T07:26:48Z</time>
      </trkpt>
      <trkpt lat="48.936" lon="8.17753">
        <ele>112.6</ele>
        <time>2020-06-28T07:26:49Z</time>
      </trkpt>
      <trkpt lat="48.93593" lon="8.17748">
        <ele>112.6</ele>
        <time>2020-06-28T07:26:50Z</time>
      </trkpt>
      <trkpt lat="48.93587" lon="8.17743">
        <ele>112.5</ele>
        <time>2020-06-28T07:26:51Z</time>
      </trkpt>
      <trkpt lat="48.93582" lon="8.17738">
        <ele>112.5</ele>
        <time>2020-06-28T07:26:52Z</time>
      </trkpt>
      <trkpt lat="48.93576" lon="8.17734">
        <ele>112.4</ele>
        <time>2020-06-28T07:26:53Z</time>
      </trkpt>
      <trkpt lat="48.93571" lon="8.17729">
        <ele>112.4</ele>
        <time>2020-06-28T07:26:54Z</time>
      </trkpt>
      <trkpt lat="48.93566" lon="8.17724">
        <ele>112.4</ele>
        <time>2020-06-28T07:26:55Z</time>
      </trkpt>
      <trkpt lat="48.93561" lon="8.17717">
        <ele>112.4</ele>
        <time>2020-06-28T07:26:56Z</time>
      </trkpt>
      <trkpt lat="48.93557" lon="8.17711">
        <ele>112.4</ele>
        <time>2020-06-28T07:26:57Z</time>
      </trkpt>
      <trkpt lat="48.93553" lon="8.17704">
        <ele>112.4</ele>
        <time>2020-06-28T07:26:58Z</time>
      </trkpt>
      <trkpt lat="48.93551" lon="8.17699">
        <ele>112.4</ele>
        <time>2020-06-28T07:26:59Z</time>
      </trkpt>
      <trkpt lat="48.93548" lon="8.17693">
        <ele>112.4</ele>
        <time>2020-06-28T07:27:00Z</time>
      </trkpt>
      <trkpt lat="48.93544" lon="8.17686">
        <ele>112.4</ele>
        <time>2020-06-28T07:27:01Z</time>
      </trkpt>
      <trkpt lat="48.93541" lon="8.17678">
        <ele>112.4</ele>
        <time>2020-06-28T07:27:02Z</time>
      </trkpt>
      <trkpt lat="48.93537" lon="8.17669">
        <ele>112.4</ele>
        <time>2020-06-28T07:27:03Z</time>
      </trkpt>
      <trkpt lat="48.93533" lon="8.17662">
        <ele>112.4</ele>
        <time>2020-06-28T07:27:04Z</time>
      </trkpt>
      <trkpt lat="48.93529" lon="8.17655">
        <ele>112.4</ele>
        <time>2020-06-28T07:27:05Z</time>
      </trkpt>
      <trkpt lat="48.93526" lon="8.17649">
        <ele>112.4</ele>
        <time>2020-06-28T07:27:06Z</time>
      </trkpt>
      <trkpt lat="48.93523" lon="8.17642">
        <ele>112.4</ele>
        <time>2020-06-28T07:27:07Z</time>
      </trkpt>
      <trkpt lat="48.93519" lon="8.17635">
        <ele>112.4</ele>
        <time>2020-06-28T07:27:08Z</time>
      </trkpt>
      <trkpt lat="48.93515" lon="8.17627">
        <ele>112.4</ele>
        <time>2020-06-28T07:27:09Z</time>
      </trkpt>
      <trkpt lat="48.93512" lon="8.17621">
        <ele>112.5</ele>
        <time>2020-06-28T07:27:10Z</time>
      </trkpt>
      <trkpt lat="48.93508" lon="8.17614">
        <ele>112.5</ele>
        <time>2020-06-28T07:27:11Z</time>
      </trkpt>
      <trkpt lat="48.93503" lon="8.17607">
        <ele>112.5</ele>
        <time>2020-06-28T07:27:12Z</time>
      </trkpt>
      <trkpt lat="48.93499" lon="8.17602">
        <ele>112.5</ele>
        <time>2020-06-28T07:27:13Z</time>
      </trkpt>
      <trkpt lat="48.93495" lon="8.17596">
        <ele>112.5</ele>
        <time>2020-06-28T07:27:14Z</time>
      </trkpt>
      <trkpt lat="48.9349" lon="8.17592">
        <ele>112.4</ele>
        <time>2020-06-28T07:27:15Z</time>
      </trkpt>
      <trkpt lat="48.93485" lon="8.17586">
        <ele>112.4</ele>
        <time>2020-06-28T07:27:16Z</time>
      </trkpt>
      <trkpt lat="48.93481" lon="8.17581">
        <ele>112.4</ele>
        <time>2020-06-28T07:27:17Z</time>
      </trkpt>
      <trkpt lat="48.93475" lon="8.17577">
        <ele>112.4</ele>
        <time>2020-06-28T07:27:18Z</time>
      </trkpt>
      <trkpt lat="48.9347" lon="8.17572">
        <ele>112.4</ele>
        <time>2020-06-28T07:27:19Z</time>
      </trkpt>
      <trkpt lat="48.93464" lon="8.17566">
        <ele>112.3</ele>
        <time>2020-06-28T07:27:20Z</time>
      </trkpt>
      <trkpt lat="48.93459" lon="8.1756">
        <ele>112.3</ele>
        <time>2020-06-28T07:27:21Z</time>
      </trkpt>
      <trkpt lat="48.93455" lon="8.17555">
        <ele>112.3</ele>
        <time>2020-06-28T07:27:22Z</time>
      </trkpt>
      <trkpt lat="48.9345" lon="8.1755">
        <ele>112.3</ele>
        <time>2020-06-28T07:27:23Z</time>
      </trkpt>
      <trkpt lat="48.93445" lon="8.17544">
        <ele>112.4</ele>
        <time>2020-06-28T07:27:24Z</time>
      </trkpt>
      <trkpt lat="48.9344" lon="8.1754">
        <ele>112.4</ele>
        <time>2020-06-28T07:27:25Z</time>
      </trkpt>
      <trkpt lat="48.93434" lon="8.17534">
        <ele>112.5</ele>
        <time>2020-06-28T07:27:26Z</time>
      </trkpt>
      <trkpt lat="48.9343" lon="8.1753">
        <ele>112.5</ele>
        <time>2020-06-28T07:27:27Z</time>
      </trkpt>
      <trkpt lat="48.93425" lon="8.17524">
        <ele>112.5</ele>
        <time>2020-06-28T07:27:28Z</time>
      </trkpt>
      <trkpt lat="48.93421" lon="8.17518">
        <ele>112.5</ele>
        <time>2020-06-28T07:27:29Z</time>
      </trkpt>
      <trkpt lat="48.93415" lon="8.17513">
        <ele>112.5</ele>
        <time>2020-06-28T07:27:30Z</time>
      </trkpt>
      <trkpt lat="48.93409" lon="8.17509">
        <ele>112.5</ele>
        <time>2020-06-28T07:27:31Z</time>
      </trkpt>
      <trkpt lat="48.93404" lon="8.17505">
        <ele>112.5</ele>
        <time>2020-06-28T07:27:32Z</time>
      </trkpt>
      <trkpt lat="48.93398" lon="8.17499">
        <ele>112.5</ele>
        <time>2020-06-28T07:27:33Z</time>
      </trkpt>
      <trkpt lat="48.93393" lon="8.17497">
        <ele>112.4</ele>
        <time>2020-06-28T07:27:34Z</time>
      </trkpt>
      <trkpt lat="48.93387" lon="8.17493">
        <ele>112.4</ele>
        <time>2020-06-28T07:27:35Z</time>
      </trkpt>
      <trkpt lat="48.9338" lon="8.17489">
        <ele>112.4</ele>
        <time>2020-06-28T07:27:36Z</time>
      </trkpt>
      <trkpt lat="48.93374" lon="8.17485">
        <ele>112.4</ele>
        <time>2020-06-28T07:27:37Z</time>
      </trkpt>
      <trkpt lat="48.93368" lon="8.17482">
        <ele>112.4</ele>
        <time>2020-06-28T07:27:38Z</time>
      </trkpt>
      <trkpt lat="48.93362" lon="8.1748">
        <ele>112.4</ele>
        <time>2020-06-28T07:27:39Z</time>
      </trkpt>
      <trkpt lat="48.93356" lon="8.17478">
        <ele>112.5</ele>
        <time>2020-06-28T07:27:40Z</time>
      </trkpt>
      <trkpt lat="48.93351" lon="8.17475">
        <ele>112.5</ele>
        <time>2020-06-28T07:27:41Z</time>
      </trkpt>
      <trkpt lat="48.93344" lon="8.17472">
        <ele>112.5</ele>
        <time>2020-06-28T07:27:42Z</time>
      </trkpt>
      <trkpt lat="48.93338" lon="8.1747">
        <ele>112.5</ele>
        <time>2020-06-28T07:27:43Z</time>
      </trkpt>
      <trkpt lat="48.93331" lon="8.17466">
        <ele>112.5</ele>
        <time>2020-06-28T07:27:44Z</time>
      </trkpt>
      <trkpt lat="48.93325" lon="8.17463">
        <ele>112.5</ele>
        <time>2020-06-28T07:27:45Z</time>
      </trkpt>
      <trkpt lat="48.9332" lon="8.17461">
        <ele>112.5</ele>
        <time>2020-06-28T07:27:46Z</time>
      </trkpt>
      <trkpt lat="48.93313" lon="8.17458">
        <ele>112.5</ele>
        <time>2020-06-28T07:27:47Z</time>
      </trkpt>
      <trkpt lat="48.93307" lon="8.17455">
        <ele>112.5</ele>
        <time>2020-06-28T07:27:48Z</time>
      </trkpt>
      <trkpt lat="48.93301" lon="8.17452">
        <ele>112.5</ele>
        <time>2020-06-28T07:27:49Z</time>
      </trkpt>
      <trkpt lat="48.93296" lon="8.17449">
        <ele>112.5</ele>
        <time>2020-06-28T07:27:50Z</time>
      </trkpt>
      <trkpt lat="48.9329" lon="8.17447">
        <ele>112.5</ele>
        <time>2020-06-28T07:27:51Z</time>
      </trkpt>
      <trkpt lat="48.93283" lon="8.17445">
        <ele>112.5</ele>
        <time>2020-06-28T07:27:52Z</time>
      </trkpt>
      <trkpt lat="48.93278" lon="8.17443">
        <ele>112.5</ele>
        <time>2020-06-28T07:27:53Z</time>
      </trkpt>
      <trkpt lat="48.93271" lon="8.1744">
        <ele>112.5</ele>
        <time>2020-06-28T07:27:54Z</time>
      </trkpt>
      <trkpt lat="48.93265" lon="8.17437">
        <ele>112.5</ele>
        <time>2020-06-28T07:27:55Z</time>
      </trkpt>
      <trkpt lat="48.93259" lon="8.17435">
        <ele>112.5</ele>
        <time>2020-06-28T07:27:56Z</time>
      </trkpt>
      <trkpt lat="48.93253" lon="8.1743">
        <ele>112.5</ele>
        <time>2020-06-28T07:27:57Z</time>
      </trkpt>
      <trkpt lat="48.93247" lon="8.17425">
        <ele>112.5</ele>
        <time>2020-06-28T07:27:58Z</time>
      </trkpt>
      <trkpt lat="48.9324" lon="8.17418">
        <ele>112.5</ele>
        <time>2020-06-28T07:27:59Z</time>
      </trkpt>
      <trkpt lat="48.93235" lon="8.17412">
        <ele>112.5</ele>
        <time>2020-06-28T07:28:00Z</time>
      </trkpt>
      <trkpt lat="48.93231" lon="8.17408">
        <ele>112.5</ele>
        <time>2020-06-28T07:28:01Z</time>
      </trkpt>
      <trkpt lat="48.93225" lon="8.17403">
        <ele>112.5</ele>
        <time>2020-06-28T07:28:02Z</time>
      </trkpt>
      <trkpt lat="48.9322" lon="8.17397">
        <ele>112.5</ele>
        <time>2020-06-28T07:28:03Z</time>
      </trkpt>
      <trkpt lat="48.93216" lon="8.17391">
        <ele>112.5</ele>
        <time>2020-06-28T07:28:04Z</time>
      </trkpt>
      <trkpt lat="48.93211" lon="8.17386">
        <ele>112.5</ele>
        <time>2020-06-28T07:28:05Z</time>
      </trkpt>
      <trkpt lat="48.93207" lon="8.17379">
        <ele>112.5</ele>
        <time>2020-06-28T07:28:06Z</time>
      </trkpt>
      <trkpt lat="48.93202" lon="8.17373">
        <ele>112.6</ele>
        <time>2020-06-28T07:28:07Z</time>
      </trkpt>
      <trkpt lat="48.93197" lon="8.17366">
        <ele>112.6</ele>
        <time>2020-06-28T07:28:08Z</time>
      </trkpt>
      <trkpt lat="48.93191" lon="8.17359">
        <ele>112.6</ele>
        <time>2020-06-28T07:28:09Z</time>
      </trkpt>
      <trkpt lat="48.93185" lon="8.17352">
        <ele>112.7</ele>
        <time>2020-06-28T07:28:10Z</time>
      </trkpt>
      <trkpt lat="48.9318" lon="8.17346">
        <ele>112.7</ele>
        <time>2020-06-28T07:28:11Z</time>
      </trkpt>
      <trkpt lat="48.93174" lon="8.1734">
        <ele>112.7</ele>
        <time>2020-06-28T07:28:12Z</time>
      </trkpt>
      <trkpt lat="48.93169" lon="8.17335">
        <ele>112.7</ele>
        <time>2020-06-28T07:28:13Z</time>
      </trkpt>
      <trkpt lat="48.93164" lon="8.17329">
        <ele>112.7</ele>
        <time>2020-06-28T07:28:14Z</time>
      </trkpt>
      <trkpt lat="48.93159" lon="8.17323">
        <ele>112.8</ele>
        <time>2020-06-28T07:28:15Z</time>
      </trkpt>
      <trkpt lat="48.93154" lon="8.17317">
        <ele>112.8</ele>
        <time>2020-06-28T07:28:16Z</time>
      </trkpt>
      <trkpt lat="48.93149" lon="8.17311">
        <ele>112.8</ele>
        <time>2020-06-28T07:28:17Z</time>
      </trkpt>
      <trkpt lat="48.93143" lon="8.17304">
        <ele>112.8</ele>
        <time>2020-06-28T07:28:18Z</time>
      </trkpt>
      <trkpt lat="48.93137" lon="8.17297">
        <ele>112.8</ele>
        <time>2020-06-28T07:28:19Z</time>
      </trkpt>
      <trkpt lat="48.93131" lon="8.17292">
        <ele>112.8</ele>
        <time>2020-06-28T07:28:20Z</time>
      </trkpt>
      <trkpt lat="48.93126" lon="8.17285">
        <ele>112.8</ele>
        <time>2020-06-28T07:28:21Z</time>
      </trkpt>
      <trkpt lat="48.93121" lon="8.1728">
        <ele>112.8</ele>
        <time>2020-06-28T07:28:22Z</time>
      </trkpt>
      <trkpt lat="48.93115" lon="8.17274">
        <ele>112.9</ele>
        <time>2020-06-28T07:28:23Z</time>
      </trkpt>
      <trkpt lat="48.93109" lon="8.17268">
        <ele>112.9</ele>
        <time>2020-06-28T07:28:24Z</time>
      </trkpt>
      <trkpt lat="48.93104" lon="8.17263">
        <ele>112.9</ele>
        <time>2020-06-28T07:28:25Z</time>
      </trkpt>
      <trkpt lat="48.93096" lon="8.17257">
        <ele>112.9</ele>
        <time>2020-06-28T07:28:26Z</time>
      </trkpt>
      <trkpt lat="48.9309" lon="8.1725">
        <ele>113</ele>
        <time>2020-06-28T07:28:27Z</time>
      </trkpt>
      <trkpt lat="48.93084" lon="8.17244">
        <ele>113</ele>
        <time>2020-06-28T07:28:28Z</time>
      </trkpt>
      <trkpt lat="48.93079" lon="8.17238">
        <ele>113.1</ele>
        <time>2020-06-28T07:28:29Z</time>
      </trkpt>
      <trkpt lat="48.93075" lon="8.17233">
        <ele>113.1</ele>
        <time>2020-06-28T07:28:30Z</time>
      </trkpt>
      <trkpt lat="48.93069" lon="8.17225">
        <ele>113.1</ele>
        <time>2020-06-28T07:28:31Z</time>
      </trkpt>
      <trkpt lat="48.93063" lon="8.17218">
        <ele>113.1</ele>
        <time>2020-06-28T07:28:32Z</time>
      </trkpt>
      <trkpt lat="48.93059" lon="8.17214">
        <ele>113.1</ele>
        <time>2020-06-28T07:28:33Z</time>
      </trkpt>
      <trkpt lat="48.93055" lon="8.17208">
        <ele>113</ele>
        <time>2020-06-28T07:28:34Z</time>
      </trkpt>
      <trkpt lat="48.93051" lon="8.17203">
        <ele>112.9</ele>
        <time>2020-06-28T07:28:35Z</time>
      </trkpt>
      <trkpt lat="48.93046" lon="8.17198">
        <ele>112.9</ele>
        <time>2020-06-28T07:28:36Z</time>
      </trkpt>
      <trkpt lat="48.93041" lon="8.17192">
        <ele>112.8</ele>
        <time>2020-06-28T07:28:37Z</time>
      </trkpt>
      <trkpt lat="48.93035" lon="8.17187">
        <ele>112.7</ele>
        <time>2020-06-28T07:28:38Z</time>
      </trkpt>
      <trkpt lat="48.9303" lon="8.17181">
        <ele>112.7</ele>
        <time>2020-06-28T07:28:39Z</time>
      </trkpt>
      <trkpt lat="48.93024" lon="8.17176">
        <ele>112.7</ele>
        <time>2020-06-28T07:28:40Z</time>
      </trkpt>
      <trkpt lat="48.9302" lon="8.17171">
        <ele>112.6</ele>
        <time>2020-06-28T07:28:41Z</time>
      </trkpt>
      <trkpt lat="48.93014" lon="8.17165">
        <ele>112.6</ele>
        <time>2020-06-28T07:28:42Z</time>
      </trkpt>
      <trkpt lat="48.93008" lon="8.17159">
        <ele>112.6</ele>
        <time>2020-06-28T07:28:43Z</time>
      </trkpt>
      <trkpt lat="48.93002" lon="8.17155">
        <ele>112.6</ele>
        <time>2020-06-28T07:28:44Z</time>
      </trkpt>
      <trkpt lat="48.92997" lon="8.17151">
        <ele>112.7</ele>
        <time>2020-06-28T07:28:45Z</time>
      </trkpt>
      <trkpt lat="48.92992" lon="8.17145">
        <ele>112.7</ele>
        <time>2020-06-28T07:28:46Z</time>
      </trkpt>
      <trkpt lat="48.92987" lon="8.17139">
        <ele>112.7</ele>
        <time>2020-06-28T07:28:47Z</time>
      </trkpt>
      <trkpt lat="48.92983" lon="8.17134">
        <ele>112.7</ele>
        <time>2020-06-28T07:28:48Z</time>
      </trkpt>
      <trkpt lat="48.92978" lon="8.17129">
        <ele>112.8</ele>
        <time>2020-06-28T07:28:49Z</time>
      </trkpt>
      <trkpt lat="48.92974" lon="8.17125">
        <ele>112.8</ele>
        <time>2020-06-28T07:28:50Z</time>
      </trkpt>
      <trkpt lat="48.92969" lon="8.1712">
        <ele>112.8</ele>
        <time>2020-06-28T07:28:51Z</time>
      </trkpt>
      <trkpt lat="48.92964" lon="8.17116">
        <ele>112.8</ele>
        <time>2020-06-28T07:28:52Z</time>
      </trkpt>
      <trkpt lat="48.92959" lon="8.17112">
        <ele>112.8</ele>
        <time>2020-06-28T07:28:53Z</time>
      </trkpt>
      <trkpt lat="48.92954" lon="8.17107">
        <ele>112.9</ele>
        <time>2020-06-28T07:28:54Z</time>
      </trkpt>
      <trkpt lat="48.92949" lon="8.17102">
        <ele>112.9</ele>
        <time>2020-06-28T07:28:55Z</time>
      </trkpt>
      <trkpt lat="48.92945" lon="8.17096">
        <ele>112.9</ele>
        <time>2020-06-28T07:28:56Z</time>
      </trkpt>
      <trkpt lat="48.92942" lon="8.17092">
        <ele>112.9</ele>
        <time>2020-06-28T07:28:57Z</time>
      </trkpt>
      <trkpt lat="48.92937" lon="8.17086">
        <ele>112.9</ele>
        <time>2020-06-28T07:28:58Z</time>
      </trkpt>
      <trkpt lat="48.92932" lon="8.17078">
        <ele>112.9</ele>
        <time>2020-06-28T07:28:59Z</time>
      </trkpt>
      <trkpt lat="48.92927" lon="8.17073">
        <ele>112.9</ele>
        <time>2020-06-28T07:29:00Z</time>
      </trkpt>
      <trkpt lat="48.92921" lon="8.17068">
        <ele>112.9</ele>
        <time>2020-06-28T07:29:01Z</time>
      </trkpt>
      <trkpt lat="48.92917" lon="8.17063">
        <ele>112.9</ele>
        <time>2020-06-28T07:29:02Z</time>
      </trkpt>
      <trkpt lat="48.92913" lon="8.17057">
        <ele>112.9</ele>
        <time>2020-06-28T07:29:03Z</time>
      </trkpt>
      <trkpt lat="48.92909" lon="8.17051">
        <ele>112.9</ele>
        <time>2020-06-28T07:29:04Z</time>
      </trkpt>
      <trkpt lat="48.92904" lon="8.17046">
        <ele>112.9</ele>
        <time>2020-06-28T07:29:05Z</time>
      </trkpt>
      <trkpt lat="48.92899" lon="8.17041">
        <ele>112.9</ele>
        <time>2020-06-28T07:29:06Z</time>
      </trkpt>
      <trkpt lat="48.92894" lon="8.17034">
        <ele>112.9</ele>
        <time>2020-06-28T07:29:07Z</time>
      </trkpt>
      <trkpt lat="48.92888" lon="8.17028">
        <ele>112.9</ele>
        <time>2020-06-28T07:29:08Z</time>
      </trkpt>
      <trkpt lat="48.92882" lon="8.17023">
        <ele>112.9</ele>
        <time>2020-06-28T07:29:09Z</time>
      </trkpt>
      <trkpt lat="48.92877" lon="8.17019">
        <ele>113</ele>
        <time>2020-06-28T07:29:10Z</time>
      </trkpt>
      <trkpt lat="48.92873" lon="8.17013">
        <ele>113</ele>
        <time>2020-06-28T07:29:11Z</time>
      </trkpt>
      <trkpt lat="48.92868" lon="8.17008">
        <ele>113</ele>
        <time>2020-06-28T07:29:12Z</time>
      </trkpt>
      <trkpt lat="48.92863" lon="8.17002">
        <ele>113</ele>
        <time>2020-06-28T07:29:13Z</time>
      </trkpt>
      <trkpt lat="48.92858" lon="8.16997">
        <ele>113</ele>
        <time>2020-06-28T07:29:14Z</time>
      </trkpt>
      <trkpt lat="48.92854" lon="8.16991">
        <ele>113</ele>
        <time>2020-06-28T07:29:15Z</time>
      </trkpt>
      <trkpt lat="48.92849" lon="8.16986">
        <ele>113</ele>
        <time>2020-06-28T07:29:16Z</time>
      </trkpt>
      <trkpt lat="48.92843" lon="8.16981">
        <ele>112.9</ele>
        <time>2020-06-28T07:29:17Z</time>
      </trkpt>
      <trkpt lat="48.92838" lon="8.16976">
        <ele>112.9</ele>
        <time>2020-06-28T07:29:18Z</time>
      </trkpt>
      <trkpt lat="48.92833" lon="8.1697">
        <ele>112.9</ele>
        <time>2020-06-28T07:29:19Z</time>
      </trkpt>
      <trkpt lat="48.92828" lon="8.16964">
        <ele>112.9</ele>
        <time>2020-06-28T07:29:20Z</time>
      </trkpt>
      <trkpt lat="48.92823" lon="8.16959">
        <ele>112.9</ele>
        <time>2020-06-28T07:29:21Z</time>
      </trkpt>
      <trkpt lat="48.92818" lon="8.16954">
        <ele>112.9</ele>
        <time>2020-06-28T07:29:22Z</time>
      </trkpt>
      <trkpt lat="48.92812" lon="8.16948">
        <ele>112.9</ele>
        <time>2020-06-28T07:29:23Z</time>
      </trkpt>
      <trkpt lat="48.92807" lon="8.16941">
        <ele>112.9</ele>
        <time>2020-06-28T07:29:24Z</time>
      </trkpt>
      <trkpt lat="48.92802" lon="8.16935">
        <ele>112.9</ele>
        <time>2020-06-28T07:29:25Z</time>
      </trkpt>
      <trkpt lat="48.92797" lon="8.16929">
        <ele>112.9</ele>
        <time>2020-06-28T07:29:26Z</time>
      </trkpt>
      <trkpt lat="48.92793" lon="8.16923">
        <ele>112.9</ele>
        <time>2020-06-28T07:29:27Z</time>
      </trkpt>
      <trkpt lat="48.92788" lon="8.16917">
        <ele>112.8</ele>
        <time>2020-06-28T07:29:28Z</time>
      </trkpt>
      <trkpt lat="48.92783" lon="8.1691">
        <ele>112.7</ele>
        <time>2020-06-28T07:29:29Z</time>
      </trkpt>
      <trkpt lat="48.92779" lon="8.16903">
        <ele>112.7</ele>
        <time>2020-06-28T07:29:30Z</time>
      </trkpt>
      <trkpt lat="48.92774" lon="8.16897">
        <ele>112.6</ele>
        <time>2020-06-28T07:29:31Z</time>
      </trkpt>
      <trkpt lat="48.9277" lon="8.1689">
        <ele>112.6</ele>
        <time>2020-06-28T07:29:32Z</time>
      </trkpt>
      <trkpt lat="48.92766" lon="8.16883">
        <ele>112.5</ele>
        <time>2020-06-28T07:29:33Z</time>
      </trkpt>
      <trkpt lat="48.92763" lon="8.16875">
        <ele>112.5</ele>
        <time>2020-06-28T07:29:34Z</time>
      </trkpt>
      <trkpt lat="48.92758" lon="8.16868">
        <ele>112.5</ele>
        <time>2020-06-28T07:29:35Z</time>
      </trkpt>
      <trkpt lat="48.92755" lon="8.16859">
        <ele>112.6</ele>
        <time>2020-06-28T07:29:36Z</time>
      </trkpt>
      <trkpt lat="48.92751" lon="8.1685">
        <ele>112.6</ele>
        <time>2020-06-28T07:29:37Z</time>
      </trkpt>
      <trkpt lat="48.92748" lon="8.16843">
        <ele>112.6</ele>
        <time>2020-06-28T07:29:38Z</time>
      </trkpt>
      <trkpt lat="48.92745" lon="8.16834">
        <ele>112.6</ele>
        <time>2020-06-28T07:29:39Z</time>
      </trkpt>
      <trkpt lat="48.92742" lon="8.16827">
        <ele>112.6</ele>
        <time>2020-06-28T07:29:40Z</time>
      </trkpt>
      <trkpt lat="48.92739" lon="8.16818">
        <ele>112.5</ele>
        <time>2020-06-28T07:29:41Z</time>
      </trkpt>
      <trkpt lat="48.92736" lon="8.1681">
        <ele>112.5</ele>
        <time>2020-06-28T07:29:42Z</time>
      </trkpt>
      <trkpt lat="48.92734" lon="8.16802">
        <ele>112.6</ele>
        <time>2020-06-28T07:29:43Z</time>
      </trkpt>
      <trkpt lat="48.92731" lon="8.16794">
        <ele>112.6</ele>
        <time>2020-06-28T07:29:44Z</time>
      </trkpt>
      <trkpt lat="48.92728" lon="8.16785">
        <ele>112.6</ele>
        <time>2020-06-28T07:29:45Z</time>
      </trkpt>
      <trkpt lat="48.92725" lon="8.16776">
        <ele>112.6</ele>
        <time>2020-06-28T07:29:46Z</time>
      </trkpt>
      <trkpt lat="48.92722" lon="8.16768">
        <ele>112.7</ele>
        <time>2020-06-28T07:29:47Z</time>
      </trkpt>
      <trkpt lat="48.9272" lon="8.16759">
        <ele>112.7</ele>
        <time>2020-06-28T07:29:48Z</time>
      </trkpt>
      <trkpt lat="48.92717" lon="8.16751">
        <ele>112.8</ele>
        <time>2020-06-28T07:29:49Z</time>
      </trkpt>
      <trkpt lat="48.92714" lon="8.16743">
        <ele>112.8</ele>
        <time>2020-06-28T07:29:50Z</time>
      </trkpt>
      <trkpt lat="48.92711" lon="8.16736">
        <ele>112.8</ele>
        <time>2020-06-28T07:29:51Z</time>
      </trkpt>
      <trkpt lat="48.92708" lon="8.16726">
        <ele>112.9</ele>
        <time>2020-06-28T07:29:52Z</time>
      </trkpt>
      <trkpt lat="48.92705" lon="8.16717">
        <ele>112.9</ele>
        <time>2020-06-28T07:29:53Z</time>
      </trkpt>
      <trkpt lat="48.92703" lon="8.16707">
        <ele>112.9</ele>
        <time>2020-06-28T07:29:54Z</time>
      </trkpt>
      <trkpt lat="48.927" lon="8.16698">
        <ele>113</ele>
        <time>2020-06-28T07:29:55Z</time>
      </trkpt>
      <trkpt lat="48.92698" lon="8.16688">
        <ele>113</ele>
        <time>2020-06-28T07:29:56Z</time>
      </trkpt>
      <trkpt lat="48.92695" lon="8.16679">
        <ele>113</ele>
        <time>2020-06-28T07:29:57Z</time>
      </trkpt>
      <trkpt lat="48.92692" lon="8.16669">
        <ele>113.1</ele>
        <time>2020-06-28T07:29:58Z</time>
      </trkpt>
      <trkpt lat="48.9269" lon="8.16661">
        <ele>113.1</ele>
        <time>2020-06-28T07:29:59Z</time>
      </trkpt>
      <trkpt lat="48.92687" lon="8.16651">
        <ele>113.1</ele>
        <time>2020-06-28T07:30:00Z</time>
      </trkpt>
      <trkpt lat="48.92685" lon="8.16643">
        <ele>113.1</ele>
        <time>2020-06-28T07:30:01Z</time>
      </trkpt>
      <trkpt lat="48.92682" lon="8.16634">
        <ele>113.1</ele>
        <time>2020-06-28T07:30:02Z</time>
      </trkpt>
      <trkpt lat="48.9268" lon="8.16626">
        <ele>113.1</ele>
        <time>2020-06-28T07:30:03Z</time>
      </trkpt>
      <trkpt lat="48.92678" lon="8.16618">
        <ele>113</ele>
        <time>2020-06-28T07:30:04Z</time>
      </trkpt>
      <trkpt lat="48.92676" lon="8.16609">
        <ele>113</ele>
        <time>2020-06-28T07:30:05Z</time>
      </trkpt>
      <trkpt lat="48.92674" lon="8.16601">
        <ele>113</ele>
        <time>2020-06-28T07:30:06Z</time>
      </trkpt>
      <trkpt lat="48.92671" lon="8.16593">
        <ele>113</ele>
        <time>2020-06-28T07:30:07Z</time>
      </trkpt>
      <trkpt lat="48.92669" lon="8.16584">
        <ele>112.9</ele>
        <time>2020-06-28T07:30:08Z</time>
      </trkpt>
      <trkpt lat="48.92666" lon="8.16575">
        <ele>112.9</ele>
        <time>2020-06-28T07:30:09Z</time>
      </trkpt>
      <trkpt lat="48.92663" lon="8.16566">
        <ele>112.9</ele>
        <time>2020-06-28T07:30:10Z</time>
      </trkpt>
      <trkpt lat="48.9266" lon="8.16557">
        <ele>113</ele>
        <time>2020-06-28T07:30:11Z</time>
      </trkpt>
      <trkpt lat="48.92656" lon="8.16549">
        <ele>113</ele>
        <time>2020-06-28T07:30:12Z</time>
      </trkpt>
      <trkpt lat="48.92652" lon="8.16541">
        <ele>112.9</ele>
        <time>2020-06-28T07:30:13Z</time>
      </trkpt>
      <trkpt lat="48.92647" lon="8.16534">
        <ele>112.9</ele>
        <time>2020-06-28T07:30:14Z</time>
      </trkpt>
      <trkpt lat="48.92642" lon="8.16527">
        <ele>112.9</ele>
        <time>2020-06-28T07:30:15Z</time>
      </trkpt>
      <trkpt lat="48.92637" lon="8.16521">
        <ele>112.9</ele>
        <time>2020-06-28T07:30:16Z</time>
      </trkpt>
      <trkpt lat="48.92632" lon="8.16515">
        <ele>112.9</ele>
        <time>2020-06-28T07:30:17Z</time>
      </trkpt>
      <trkpt lat="48.92627" lon="8.16509">
        <ele>112.9</ele>
        <time>2020-06-28T07:30:18Z</time>
      </trkpt>
      <trkpt lat="48.92621" lon="8.16503">
        <ele>112.9</ele>
        <time>2020-06-28T07:30:19Z</time>
      </trkpt>
      <trkpt lat="48.92616" lon="8.16496">
        <ele>112.9</ele>
        <time>2020-06-28T07:30:20Z</time>
      </trkpt>
      <trkpt lat="48.9261" lon="8.16491">
        <ele>112.9</ele>
        <time>2020-06-28T07:30:21Z</time>
      </trkpt>
      <trkpt lat="48.92605" lon="8.16485">
        <ele>112.9</ele>
        <time>2020-06-28T07:30:22Z</time>
      </trkpt>
      <trkpt lat="48.926" lon="8.16479">
        <ele>112.9</ele>
        <time>2020-06-28T07:30:23Z</time>
      </trkpt>
      <trkpt lat="48.92595" lon="8.16473">
        <ele>112.9</ele>
        <time>2020-06-28T07:30:24Z</time>
      </trkpt>
      <trkpt lat="48.9259" lon="8.16467">
        <ele>112.9</ele>
        <time>2020-06-28T07:30:25Z</time>
      </trkpt>
      <trkpt lat="48.92585" lon="8.16461">
        <ele>112.9</ele>
        <time>2020-06-28T07:30:26Z</time>
      </trkpt>
      <trkpt lat="48.9258" lon="8.16456">
        <ele>112.9</ele>
        <time>2020-06-28T07:30:27Z</time>
      </trkpt>
      <trkpt lat="48.92575" lon="8.16452">
        <ele>112.9</ele>
        <time>2020-06-28T07:30:28Z</time>
      </trkpt>
      <trkpt lat="48.9257" lon="8.16445">
        <ele>112.9</ele>
        <time>2020-06-28T07:30:29Z</time>
      </trkpt>
      <trkpt lat="48.92563" lon="8.16438">
        <ele>112.9</ele>
        <time>2020-06-28T07:30:30Z</time>
      </trkpt>
      <trkpt lat="48.92557" lon="8.16432">
        <ele>112.9</ele>
        <time>2020-06-28T07:30:31Z</time>
      </trkpt>
      <trkpt lat="48.9255" lon="8.16426">
        <ele>112.9</ele>
        <time>2020-06-28T07:30:32Z</time>
      </trkpt>
      <trkpt lat="48.92544" lon="8.16419">
        <ele>112.9</ele>
        <time>2020-06-28T07:30:33Z</time>
      </trkpt>
      <trkpt lat="48.9254" lon="8.16414">
        <ele>112.9</ele>
        <time>2020-06-28T07:30:34Z</time>
      </trkpt>
      <trkpt lat="48.92535" lon="8.16408">
        <ele>112.9</ele>
        <time>2020-06-28T07:30:35Z</time>
      </trkpt>
      <trkpt lat="48.9253" lon="8.16401">
        <ele>112.9</ele>
        <time>2020-06-28T07:30:36Z</time>
      </trkpt>
      <trkpt lat="48.92525" lon="8.16394">
        <ele>113</ele>
        <time>2020-06-28T07:30:37Z</time>
      </trkpt>
      <trkpt lat="48.92519" lon="8.16388">
        <ele>113</ele>
        <time>2020-06-28T07:30:38Z</time>
      </trkpt>
      <trkpt lat="48.92514" lon="8.16383">
        <ele>113</ele>
        <time>2020-06-28T07:30:39Z</time>
      </trkpt>
      <trkpt lat="48.92509" lon="8.16377">
        <ele>113</ele>
        <time>2020-06-28T07:30:40Z</time>
      </trkpt>
      <trkpt lat="48.92503" lon="8.1637">
        <ele>113</ele>
        <time>2020-06-28T07:30:41Z</time>
      </trkpt>
      <trkpt lat="48.92499" lon="8.16364">
        <ele>113</ele>
        <time>2020-06-28T07:30:42Z</time>
      </trkpt>
      <trkpt lat="48.92494" lon="8.16359">
        <ele>113</ele>
        <time>2020-06-28T07:30:43Z</time>
      </trkpt>
      <trkpt lat="48.92489" lon="8.16353">
        <ele>113</ele>
        <time>2020-06-28T07:30:44Z</time>
      </trkpt>
      <trkpt lat="48.92485" lon="8.16349">
        <ele>112.9</ele>
        <time>2020-06-28T07:30:45Z</time>
      </trkpt>
      <trkpt lat="48.92479" lon="8.16342">
        <ele>112.9</ele>
        <time>2020-06-28T07:30:46Z</time>
      </trkpt>
      <trkpt lat="48.92473" lon="8.16337">
        <ele>112.9</ele>
        <time>2020-06-28T07:30:47Z</time>
      </trkpt>
      <trkpt lat="48.92468" lon="8.1633">
        <ele>112.9</ele>
        <time>2020-06-28T07:30:48Z</time>
      </trkpt>
      <trkpt lat="48.92462" lon="8.16325">
        <ele>112.8</ele>
        <time>2020-06-28T07:30:49Z</time>
      </trkpt>
      <trkpt lat="48.92456" lon="8.16318">
        <ele>112.8</ele>
        <time>2020-06-28T07:30:50Z</time>
      </trkpt>
      <trkpt lat="48.9245" lon="8.16312">
        <ele>112.8</ele>
        <time>2020-06-28T07:30:51Z</time>
      </trkpt>
      <trkpt lat="48.92445" lon="8.16306">
        <ele>112.8</ele>
        <time>2020-06-28T07:30:52Z</time>
      </trkpt>
      <trkpt lat="48.9244" lon="8.16301">
        <ele>112.8</ele>
        <time>2020-06-28T07:30:53Z</time>
      </trkpt>
      <trkpt lat="48.92435" lon="8.16296">
        <ele>112.8</ele>
        <time>2020-06-28T07:30:54Z</time>
      </trkpt>
      <trkpt lat="48.92429" lon="8.1629">
        <ele>112.8</ele>
        <time>2020-06-28T07:30:55Z</time>
      </trkpt>
      <trkpt lat="48.92424" lon="8.16283">
        <ele>112.8</ele>
        <time>2020-06-28T07:30:56Z</time>
      </trkpt>
      <trkpt lat="48.92418" lon="8.16276">
        <ele>112.8</ele>
        <time>2020-06-28T07:30:57Z</time>
      </trkpt>
      <trkpt lat="48.92412" lon="8.1627">
        <ele>112.8</ele>
        <time>2020-06-28T07:30:58Z</time>
      </trkpt>
      <trkpt lat="48.92407" lon="8.16263">
        <ele>112.8</ele>
        <time>2020-06-28T07:30:59Z</time>
      </trkpt>
      <trkpt lat="48.924" lon="8.16255">
        <ele>112.8</ele>
        <time>2020-06-28T07:31:00Z</time>
      </trkpt>
      <trkpt lat="48.92394" lon="8.16248">
        <ele>112.8</ele>
        <time>2020-06-28T07:31:01Z</time>
      </trkpt>
      <trkpt lat="48.92388" lon="8.16242">
        <ele>112.8</ele>
        <time>2020-06-28T07:31:02Z</time>
      </trkpt>
      <trkpt lat="48.92382" lon="8.16236">
        <ele>112.8</ele>
        <time>2020-06-28T07:31:03Z</time>
      </trkpt>
      <trkpt lat="48.92377" lon="8.1623">
        <ele>112.8</ele>
        <time>2020-06-28T07:31:04Z</time>
      </trkpt>
      <trkpt lat="48.92372" lon="8.16223">
        <ele>112.8</ele>
        <time>2020-06-28T07:31:05Z</time>
      </trkpt>
      <trkpt lat="48.92367" lon="8.16216">
        <ele>112.7</ele>
        <time>2020-06-28T07:31:06Z</time>
      </trkpt>
      <trkpt lat="48.92361" lon="8.16209">
        <ele>112.7</ele>
        <time>2020-06-28T07:31:07Z</time>
      </trkpt>
      <trkpt lat="48.92355" lon="8.16203">
        <ele>112.7</ele>
        <time>2020-06-28T07:31:08Z</time>
      </trkpt>
      <trkpt lat="48.92349" lon="8.16196">
        <ele>112.7</ele>
        <time>2020-06-28T07:31:09Z</time>
      </trkpt>
      <trkpt lat="48.92344" lon="8.1619">
        <ele>112.7</ele>
        <time>2020-06-28T07:31:10Z</time>
      </trkpt>
      <trkpt lat="48.92338" lon="8.16183">
        <ele>112.7</ele>
        <time>2020-06-28T07:31:11Z</time>
      </trkpt>
      <trkpt lat="48.92333" lon="8.16177">
        <ele>112.7</ele>
        <time>2020-06-28T07:31:12Z</time>
      </trkpt>
      <trkpt lat="48.92327" lon="8.16171">
        <ele>112.7</ele>
        <time>2020-06-28T07:31:13Z</time>
      </trkpt>
      <trkpt lat="48.92322" lon="8.16164">
        <ele>112.7</ele>
        <time>2020-06-28T07:31:14Z</time>
      </trkpt>
      <trkpt lat="48.92317" lon="8.16158">
        <ele>112.7</ele>
        <time>2020-06-28T07:31:15Z</time>
      </trkpt>
      <trkpt lat="48.92312" lon="8.16152">
        <ele>112.7</ele>
        <time>2020-06-28T07:31:16Z</time>
      </trkpt>
      <trkpt lat="48.92306" lon="8.16145">
        <ele>112.7</ele>
        <time>2020-06-28T07:31:17Z</time>
      </trkpt>
      <trkpt lat="48.923" lon="8.16139">
        <ele>112.7</ele>
        <time>2020-06-28T07:31:18Z</time>
      </trkpt>
      <trkpt lat="48.92294" lon="8.16133">
        <ele>112.8</ele>
        <time>2020-06-28T07:31:19Z</time>
      </trkpt>
      <trkpt lat="48.92289" lon="8.16127">
        <ele>112.8</ele>
        <time>2020-06-28T07:31:20Z</time>
      </trkpt>
      <trkpt lat="48.92283" lon="8.1612">
        <ele>112.8</ele>
        <time>2020-06-28T07:31:21Z</time>
      </trkpt>
      <trkpt lat="48.92277" lon="8.16114">
        <ele>112.8</ele>
        <time>2020-06-28T07:31:22Z</time>
      </trkpt>
      <trkpt lat="48.92272" lon="8.16108">
        <ele>112.8</ele>
        <time>2020-06-28T07:31:23Z</time>
      </trkpt>
      <trkpt lat="48.92266" lon="8.16103">
        <ele>112.8</ele>
        <time>2020-06-28T07:31:24Z</time>
      </trkpt>
      <trkpt lat="48.9226" lon="8.16099">
        <ele>112.8</ele>
        <time>2020-06-28T07:31:25Z</time>
      </trkpt>
      <trkpt lat="48.92254" lon="8.16095">
        <ele>112.8</ele>
        <time>2020-06-28T07:31:26Z</time>
      </trkpt>
      <trkpt lat="48.92247" lon="8.16091">
        <ele>112.8</ele>
        <time>2020-06-28T07:31:27Z</time>
      </trkpt>
      <trkpt lat="48.92241" lon="8.16087">
        <ele>112.8</ele>
        <time>2020-06-28T07:31:28Z</time>
      </trkpt>
      <trkpt lat="48.92234" lon="8.16084">
        <ele>112.8</ele>
        <time>2020-06-28T07:31:29Z</time>
      </trkpt>
      <trkpt lat="48.92228" lon="8.16082">
        <ele>112.8</ele>
        <time>2020-06-28T07:31:30Z</time>
      </trkpt>
      <trkpt lat="48.92221" lon="8.1608">
        <ele>112.8</ele>
        <time>2020-06-28T07:31:31Z</time>
      </trkpt>
      <trkpt lat="48.92215" lon="8.16078">
        <ele>112.8</ele>
        <time>2020-06-28T07:31:32Z</time>
      </trkpt>
      <trkpt lat="48.92208" lon="8.16076">
        <ele>112.8</ele>
        <time>2020-06-28T07:31:33Z</time>
      </trkpt>
      <trkpt lat="48.92201" lon="8.16074">
        <ele>112.7</ele>
        <time>2020-06-28T07:31:34Z</time>
      </trkpt>
      <trkpt lat="48.92194" lon="8.16072">
        <ele>112.7</ele>
        <time>2020-06-28T07:31:35Z</time>
      </trkpt>
      <trkpt lat="48.92187" lon="8.16072">
        <ele>112.7</ele>
        <time>2020-06-28T07:31:36Z</time>
      </trkpt>
      <trkpt lat="48.9218" lon="8.16071">
        <ele>112.7</ele>
        <time>2020-06-28T07:31:37Z</time>
      </trkpt>
      <trkpt lat="48.92172" lon="8.1607">
        <ele>112.7</ele>
        <time>2020-06-28T07:31:38Z</time>
      </trkpt>
      <trkpt lat="48.92165" lon="8.1607">
        <ele>112.7</ele>
        <time>2020-06-28T07:31:39Z</time>
      </trkpt>
      <trkpt lat="48.92158" lon="8.16069">
        <ele>112.7</ele>
        <time>2020-06-28T07:31:40Z</time>
      </trkpt>
      <trkpt lat="48.92151" lon="8.16067">
        <ele>112.7</ele>
        <time>2020-06-28T07:31:41Z</time>
      </trkpt>
      <trkpt lat="48.92144" lon="8.16065">
        <ele>112.7</ele>
        <time>2020-06-28T07:31:42Z</time>
      </trkpt>
      <trkpt lat="48.92137" lon="8.16063">
        <ele>112.7</ele>
        <time>2020-06-28T07:31:43Z</time>
      </trkpt>
      <trkpt lat="48.92129" lon="8.16063">
        <ele>112.7</ele>
        <time>2020-06-28T07:31:44Z</time>
      </trkpt>
      <trkpt lat="48.92122" lon="8.16062">
        <ele>112.6</ele>
        <time>2020-06-28T07:31:45Z</time>
      </trkpt>
      <trkpt lat="48.92115" lon="8.16059">
        <ele>112.6</ele>
        <time>2020-06-28T07:31:46Z</time>
      </trkpt>
      <trkpt lat="48.92108" lon="8.16056">
        <ele>112.6</ele>
        <time>2020-06-28T07:31:47Z</time>
      </trkpt>
      <trkpt lat="48.92101" lon="8.16052">
        <ele>112.6</ele>
        <time>2020-06-28T07:31:48Z</time>
      </trkpt>
      <trkpt lat="48.92094" lon="8.16049">
        <ele>112.6</ele>
        <time>2020-06-28T07:31:49Z</time>
      </trkpt>
      <trkpt lat="48.92088" lon="8.16044">
        <ele>112.7</ele>
        <time>2020-06-28T07:31:50Z</time>
      </trkpt>
      <trkpt lat="48.92082" lon="8.16039">
        <ele>112.7</ele>
        <time>2020-06-28T07:31:51Z</time>
      </trkpt>
      <trkpt lat="48.92075" lon="8.16034">
        <ele>112.6</ele>
        <time>2020-06-28T07:31:52Z</time>
      </trkpt>
      <trkpt lat="48.92069" lon="8.16028">
        <ele>112.6</ele>
        <time>2020-06-28T07:31:53Z</time>
      </trkpt>
      <trkpt lat="48.92064" lon="8.16023">
        <ele>112.7</ele>
        <time>2020-06-28T07:31:54Z</time>
      </trkpt>
      <trkpt lat="48.92058" lon="8.16017">
        <ele>112.7</ele>
        <time>2020-06-28T07:31:55Z</time>
      </trkpt>
      <trkpt lat="48.92052" lon="8.16012">
        <ele>112.7</ele>
        <time>2020-06-28T07:31:56Z</time>
      </trkpt>
      <trkpt lat="48.92047" lon="8.16007">
        <ele>112.7</ele>
        <time>2020-06-28T07:31:57Z</time>
      </trkpt>
      <trkpt lat="48.92042" lon="8.16001">
        <ele>112.7</ele>
        <time>2020-06-28T07:31:58Z</time>
      </trkpt>
      <trkpt lat="48.92037" lon="8.15994">
        <ele>112.7</ele>
        <time>2020-06-28T07:31:59Z</time>
      </trkpt>
      <trkpt lat="48.92031" lon="8.15988">
        <ele>112.7</ele>
        <time>2020-06-28T07:32:00Z</time>
      </trkpt>
      <trkpt lat="48.92026" lon="8.15982">
        <ele>112.7</ele>
        <time>2020-06-28T07:32:01Z</time>
      </trkpt>
      <trkpt lat="48.9202" lon="8.15978">
        <ele>112.7</ele>
        <time>2020-06-28T07:32:02Z</time>
      </trkpt>
      <trkpt lat="48.92014" lon="8.15973">
        <ele>112.7</ele>
        <time>2020-06-28T07:32:03Z</time>
      </trkpt>
      <trkpt lat="48.92009" lon="8.15967">
        <ele>112.7</ele>
        <time>2020-06-28T07:32:04Z</time>
      </trkpt>
      <trkpt lat="48.92004" lon="8.15961">
        <ele>112.7</ele>
        <time>2020-06-28T07:32:05Z</time>
      </trkpt>
      <trkpt lat="48.91998" lon="8.15956">
        <ele>112.7</ele>
        <time>2020-06-28T07:32:06Z</time>
      </trkpt>
      <trkpt lat="48.91993" lon="8.15951">
        <ele>112.7</ele>
        <time>2020-06-28T07:32:07Z</time>
      </trkpt>
      <trkpt lat="48.91988" lon="8.15945">
        <ele>112.7</ele>
        <time>2020-06-28T07:32:08Z</time>
      </trkpt>
      <trkpt lat="48.91983" lon="8.15939">
        <ele>112.7</ele>
        <time>2020-06-28T07:32:09Z</time>
      </trkpt>
      <trkpt lat="48.91978" lon="8.15933">
        <ele>112.7</ele>
        <time>2020-06-28T07:32:10Z</time>
      </trkpt>
      <trkpt lat="48.91973" lon="8.15928">
        <ele>112.7</ele>
        <time>2020-06-28T07:32:11Z</time>
      </trkpt>
      <trkpt lat="48.91968" lon="8.15922">
        <ele>112.8</ele>
        <time>2020-06-28T07:32:12Z</time>
      </trkpt>
      <trkpt lat="48.91963" lon="8.15917">
        <ele>112.8</ele>
        <time>2020-06-28T07:32:13Z</time>
      </trkpt>
      <trkpt lat="48.91957" lon="8.15911">
        <ele>112.8</ele>
        <time>2020-06-28T07:32:14Z</time>
      </trkpt>
      <trkpt lat="48.91952" lon="8.15906">
        <ele>112.8</ele>
        <time>2020-06-28T07:32:15Z</time>
      </trkpt>
      <trkpt lat="48.91947" lon="8.15901">
        <ele>112.8</ele>
        <time>2020-06-28T07:32:16Z</time>
      </trkpt>
      <trkpt lat="48.91941" lon="8.15896">
        <ele>112.8</ele>
        <time>2020-06-28T07:32:17Z</time>
      </trkpt>
      <trkpt lat="48.91936" lon="8.15891">
        <ele>112.9</ele>
        <time>2020-06-28T07:32:18Z</time>
      </trkpt>
      <trkpt lat="48.91931" lon="8.15887">
        <ele>112.9</ele>
        <time>2020-06-28T07:32:19Z</time>
      </trkpt>
      <trkpt lat="48.91927" lon="8.15882">
        <ele>113</ele>
        <time>2020-06-28T07:32:20Z</time>
      </trkpt>
      <trkpt lat="48.91923" lon="8.15877">
        <ele>113</ele>
        <time>2020-06-28T07:32:21Z</time>
      </trkpt>
      <trkpt lat="48.91918" lon="8.15874">
        <ele>113.1</ele>
        <time>2020-06-28T07:32:22Z</time>
      </trkpt>
      <trkpt lat="48.91914" lon="8.15869">
        <ele>113.1</ele>
        <time>2020-06-28T07:32:23Z</time>
      </trkpt>
      <trkpt lat="48.9191" lon="8.15865">
        <ele>113.2</ele>
        <time>2020-06-28T07:32:24Z</time>
      </trkpt>
      <trkpt lat="48.91906" lon="8.15861">
        <ele>113.3</ele>
        <time>2020-06-28T07:32:25Z</time>
      </trkpt>
      <trkpt lat="48.91901" lon="8.15859">
        <ele>113.2</ele>
        <time>2020-06-28T07:32:26Z</time>
      </trkpt>
      <trkpt lat="48.91896" lon="8.15856">
        <ele>113.1</ele>
        <time>2020-06-28T07:32:27Z</time>
      </trkpt>
      <trkpt lat="48.91891" lon="8.15853">
        <ele>112.9</ele>
        <time>2020-06-28T07:32:28Z</time>
      </trkpt>
      <trkpt lat="48.91885" lon="8.15849">
        <ele>112.8</ele>
        <time>2020-06-28T07:32:29Z</time>
      </trkpt>
      <trkpt lat="48.91879" lon="8.15847">
        <ele>112.7</ele>
        <time>2020-06-28T07:32:30Z</time>
      </trkpt>
      <trkpt lat="48.91873" lon="8.15845">
        <ele>112.7</ele>
        <time>2020-06-28T07:32:31Z</time>
      </trkpt>
      <trkpt lat="48.91867" lon="8.15841">
        <ele>112.6</ele>
        <time>2020-06-28T07:32:32Z</time>
      </trkpt>
      <trkpt lat="48.91861" lon="8.15839">
        <ele>112.6</ele>
        <time>2020-06-28T07:32:33Z</time>
      </trkpt>
      <trkpt lat="48.91855" lon="8.15837">
        <ele>112.6</ele>
        <time>2020-06-28T07:32:34Z</time>
      </trkpt>
      <trkpt lat="48.91849" lon="8.15834">
        <ele>112.6</ele>
        <time>2020-06-28T07:32:35Z</time>
      </trkpt>
      <trkpt lat="48.91844" lon="8.15832">
        <ele>112.6</ele>
        <time>2020-06-28T07:32:36Z</time>
      </trkpt>
      <trkpt lat="48.91838" lon="8.15828">
        <ele>112.6</ele>
        <time>2020-06-28T07:32:37Z</time>
      </trkpt>
      <trkpt lat="48.91833" lon="8.15825">
        <ele>112.6</ele>
        <time>2020-06-28T07:32:38Z</time>
      </trkpt>
      <trkpt lat="48.91827" lon="8.15821">
        <ele>112.5</ele>
        <time>2020-06-28T07:32:39Z</time>
      </trkpt>
      <trkpt lat="48.91821" lon="8.15817">
        <ele>112.5</ele>
        <time>2020-06-28T07:32:40Z</time>
      </trkpt>
      <trkpt lat="48.91816" lon="8.15813">
        <ele>112.5</ele>
        <time>2020-06-28T07:32:41Z</time>
      </trkpt>
      <trkpt lat="48.9181" lon="8.1581">
        <ele>112.5</ele>
        <time>2020-06-28T07:32:42Z</time>
      </trkpt>
      <trkpt lat="48.91804" lon="8.15807">
        <ele>112.5</ele>
        <time>2020-06-28T07:32:43Z</time>
      </trkpt>
      <trkpt lat="48.91799" lon="8.15803">
        <ele>112.5</ele>
        <time>2020-06-28T07:32:44Z</time>
      </trkpt>
      <trkpt lat="48.91794" lon="8.15798">
        <ele>112.5</ele>
        <time>2020-06-28T07:32:45Z</time>
      </trkpt>
      <trkpt lat="48.91789" lon="8.15793">
        <ele>112.5</ele>
        <time>2020-06-28T07:32:46Z</time>
      </trkpt>
      <trkpt lat="48.91784" lon="8.15788">
        <ele>112.5</ele>
        <time>2020-06-28T07:32:47Z</time>
      </trkpt>
      <trkpt lat="48.91778" lon="8.15783">
        <ele>112.5</ele>
        <time>2020-06-28T07:32:48Z</time>
      </trkpt>
      <trkpt lat="48.91774" lon="8.15777">
        <ele>112.5</ele>
        <time>2020-06-28T07:32:49Z</time>
      </trkpt>
      <trkpt lat="48.91769" lon="8.15771">
        <ele>112.5</ele>
        <time>2020-06-28T07:32:50Z</time>
      </trkpt>
      <trkpt lat="48.91764" lon="8.15765">
        <ele>112.5</ele>
        <time>2020-06-28T07:32:51Z</time>
      </trkpt>
      <trkpt lat="48.91759" lon="8.1576">
        <ele>112.6</ele>
        <time>2020-06-28T07:32:52Z</time>
      </trkpt>
      <trkpt lat="48.91754" lon="8.15752">
        <ele>112.6</ele>
        <time>2020-06-28T07:32:53Z</time>
      </trkpt>
      <trkpt lat="48.9175" lon="8.15745">
        <ele>112.6</ele>
        <time>2020-06-28T07:32:54Z</time>
      </trkpt>
      <trkpt lat="48.91745" lon="8.15738">
        <ele>112.6</ele>
        <time>2020-06-28T07:32:55Z</time>
      </trkpt>
      <trkpt lat="48.91741" lon="8.15731">
        <ele>112.7</ele>
        <time>2020-06-28T07:32:56Z</time>
      </trkpt>
      <trkpt lat="48.91738" lon="8.15724">
        <ele>112.7</ele>
        <time>2020-06-28T07:32:57Z</time>
      </trkpt>
      <trkpt lat="48.91735" lon="8.15715">
        <ele>112.8</ele>
        <time>2020-06-28T07:32:58Z</time>
      </trkpt>
      <trkpt lat="48.91734" lon="8.15706">
        <ele>112.8</ele>
        <time>2020-06-28T07:32:59Z</time>
      </trkpt>
      <trkpt lat="48.91734" lon="8.15698">
        <ele>112.9</ele>
        <time>2020-06-28T07:33:00Z</time>
      </trkpt>
      <trkpt lat="48.91736" lon="8.15689">
        <ele>112.9</ele>
        <time>2020-06-28T07:33:01Z</time>
      </trkpt>
      <trkpt lat="48.91738" lon="8.15679">
        <ele>112.9</ele>
        <time>2020-06-28T07:33:02Z</time>
      </trkpt>
      <trkpt lat="48.9174" lon="8.15669">
        <ele>112.9</ele>
        <time>2020-06-28T07:33:03Z</time>
      </trkpt>
      <trkpt lat="48.91742" lon="8.15661">
        <ele>112.9</ele>
        <time>2020-06-28T07:33:04Z</time>
      </trkpt>
      <trkpt lat="48.91744" lon="8.15653">
        <ele>112.9</ele>
        <time>2020-06-28T07:33:05Z</time>
      </trkpt>
      <trkpt lat="48.91746" lon="8.15644">
        <ele>113</ele>
        <time>2020-06-28T07:33:06Z</time>
      </trkpt>
      <trkpt lat="48.91748" lon="8.15636">
        <ele>113</ele>
        <time>2020-06-28T07:33:07Z</time>
      </trkpt>
      <trkpt lat="48.9175" lon="8.15627">
        <ele>113</ele>
        <time>2020-06-28T07:33:08Z</time>
      </trkpt>
      <trkpt lat="48.91752" lon="8.15619">
        <ele>113</ele>
        <time>2020-06-28T07:33:09Z</time>
      </trkpt>
      <trkpt lat="48.91755" lon="8.15608">
        <ele>113.1</ele>
        <time>2020-06-28T07:33:10Z</time>
      </trkpt>
      <trkpt lat="48.91758" lon="8.15599">
        <ele>113.1</ele>
        <time>2020-06-28T07:33:11Z</time>
      </trkpt>
      <trkpt lat="48.9176" lon="8.1559">
        <ele>113.1</ele>
        <time>2020-06-28T07:33:12Z</time>
      </trkpt>
      <trkpt lat="48.91762" lon="8.15579">
        <ele>113.1</ele>
        <time>2020-06-28T07:33:13Z</time>
      </trkpt>
      <trkpt lat="48.91765" lon="8.1557">
        <ele>113.1</ele>
        <time>2020-06-28T07:33:14Z</time>
      </trkpt>
      <trkpt lat="48.91767" lon="8.15562">
        <ele>113.1</ele>
        <time>2020-06-28T07:33:15Z</time>
      </trkpt>
      <trkpt lat="48.91769" lon="8.15553">
        <ele>113.1</ele>
        <time>2020-06-28T07:33:16Z</time>
      </trkpt>
      <trkpt lat="48.91772" lon="8.15543">
        <ele>113.1</ele>
        <time>2020-06-28T07:33:17Z</time>
      </trkpt>
      <trkpt lat="48.91775" lon="8.15533">
        <ele>113.1</ele>
        <time>2020-06-28T07:33:18Z</time>
      </trkpt>
      <trkpt lat="48.91777" lon="8.15523">
        <ele>113.1</ele>
        <time>2020-06-28T07:33:19Z</time>
      </trkpt>
      <trkpt lat="48.91779" lon="8.15515">
        <ele>113.1</ele>
        <time>2020-06-28T07:33:20Z</time>
      </trkpt>
      <trkpt lat="48.91781" lon="8.15507">
        <ele>113.1</ele>
        <time>2020-06-28T07:33:21Z</time>
      </trkpt>
      <trkpt lat="48.91783" lon="8.155">
        <ele>113.1</ele>
        <time>2020-06-28T07:33:22Z</time>
      </trkpt>
      <trkpt lat="48.91786" lon="8.15492">
        <ele>113.2</ele>
        <time>2020-06-28T07:33:23Z</time>
      </trkpt>
      <trkpt lat="48.91787" lon="8.15483">
        <ele>113.2</ele>
        <time>2020-06-28T07:33:24Z</time>
      </trkpt>
      <trkpt lat="48.9179" lon="8.15475">
        <ele>113.3</ele>
        <time>2020-06-28T07:33:25Z</time>
      </trkpt>
      <trkpt lat="48.91792" lon="8.15467">
        <ele>113.3</ele>
        <time>2020-06-28T07:33:26Z</time>
      </trkpt>
      <trkpt lat="48.91794" lon="8.15462">
        <ele>113.3</ele>
        <time>2020-06-28T07:33:27Z</time>
      </trkpt>
      <trkpt lat="48.91794" lon="8.15454">
        <ele>113.3</ele>
        <time>2020-06-28T07:33:28Z</time>
      </trkpt>
      <trkpt lat="48.91795" lon="8.15447">
        <ele>113.3</ele>
        <time>2020-06-28T07:33:29Z</time>
      </trkpt>
      <trkpt lat="48.91794" lon="8.15441">
        <ele>113.3</ele>
        <time>2020-06-28T07:33:30Z</time>
      </trkpt>
      <trkpt lat="48.91791" lon="8.15435">
        <ele>113.2</ele>
        <time>2020-06-28T07:33:31Z</time>
      </trkpt>
      <trkpt lat="48.91786" lon="8.1543">
        <ele>113.2</ele>
        <time>2020-06-28T07:33:32Z</time>
      </trkpt>
      <trkpt lat="48.91782" lon="8.15425">
        <ele>113.1</ele>
        <time>2020-06-28T07:33:33Z</time>
      </trkpt>
      <trkpt lat="48.91778" lon="8.15419">
        <ele>113.1</ele>
        <time>2020-06-28T07:33:34Z</time>
      </trkpt>
      <trkpt lat="48.91773" lon="8.15412">
        <ele>113.1</ele>
        <time>2020-06-28T07:33:35Z</time>
      </trkpt>
      <trkpt lat="48.91769" lon="8.15406">
        <ele>113</ele>
        <time>2020-06-28T07:33:36Z</time>
      </trkpt>
      <trkpt lat="48.91765" lon="8.154">
        <ele>113</ele>
        <time>2020-06-28T07:33:37Z</time>
      </trkpt>
      <trkpt lat="48.91761" lon="8.15394">
        <ele>112.9</ele>
        <time>2020-06-28T07:33:38Z</time>
      </trkpt>
      <trkpt lat="48.91756" lon="8.15387">
        <ele>112.9</ele>
        <time>2020-06-28T07:33:39Z</time>
      </trkpt>
      <trkpt lat="48.9175" lon="8.15379">
        <ele>112.9</ele>
        <time>2020-06-28T07:33:40Z</time>
      </trkpt>
      <trkpt lat="48.91746" lon="8.15372">
        <ele>112.8</ele>
        <time>2020-06-28T07:33:41Z</time>
      </trkpt>
      <trkpt lat="48.91743" lon="8.15365">
        <ele>112.8</ele>
        <time>2020-06-28T07:33:42Z</time>
      </trkpt>
      <trkpt lat="48.9174" lon="8.15355">
        <ele>112.8</ele>
        <time>2020-06-28T07:33:43Z</time>
      </trkpt>
      <trkpt lat="48.91739" lon="8.15344">
        <ele>112.8</ele>
        <time>2020-06-28T07:33:44Z</time>
      </trkpt>
      <trkpt lat="48.91738" lon="8.15335">
        <ele>112.8</ele>
        <time>2020-06-28T07:33:45Z</time>
      </trkpt>
      <trkpt lat="48.91738" lon="8.15326">
        <ele>112.8</ele>
        <time>2020-06-28T07:33:46Z</time>
      </trkpt>
      <trkpt lat="48.91737" lon="8.15315">
        <ele>112.8</ele>
        <time>2020-06-28T07:33:47Z</time>
      </trkpt>
      <trkpt lat="48.91737" lon="8.15304">
        <ele>112.8</ele>
        <time>2020-06-28T07:33:48Z</time>
      </trkpt>
      <trkpt lat="48.91738" lon="8.15294">
        <ele>112.8</ele>
        <time>2020-06-28T07:33:49Z</time>
      </trkpt>
      <trkpt lat="48.91742" lon="8.15283">
        <ele>112.8</ele>
        <time>2020-06-28T07:33:50Z</time>
      </trkpt>
      <trkpt lat="48.91744" lon="8.15273">
        <ele>112.9</ele>
        <time>2020-06-28T07:33:51Z</time>
      </trkpt>
      <trkpt lat="48.91747" lon="8.15263">
        <ele>112.9</ele>
        <time>2020-06-28T07:33:52Z</time>
      </trkpt>
      <trkpt lat="48.9175" lon="8.15252">
        <ele>113.1</ele>
        <time>2020-06-28T07:33:53Z</time>
      </trkpt>
      <trkpt lat="48.91755" lon="8.15243">
        <ele>113.2</ele>
        <time>2020-06-28T07:33:54Z</time>
      </trkpt>
      <trkpt lat="48.9176" lon="8.15233">
        <ele>113.2</ele>
        <time>2020-06-28T07:33:55Z</time>
      </trkpt>
      <trkpt lat="48.91763" lon="8.15224">
        <ele>113.2</ele>
        <time>2020-06-28T07:33:56Z</time>
      </trkpt>
      <trkpt lat="48.91766" lon="8.15214">
        <ele>113.3</ele>
        <time>2020-06-28T07:33:57Z</time>
      </trkpt>
      <trkpt lat="48.9177" lon="8.15205">
        <ele>113.3</ele>
        <time>2020-06-28T07:33:58Z</time>
      </trkpt>
      <trkpt lat="48.91774" lon="8.15196">
        <ele>113.3</ele>
        <time>2020-06-28T07:33:59Z</time>
      </trkpt>
      <trkpt lat="48.91777" lon="8.15187">
        <ele>113.3</ele>
        <time>2020-06-28T07:34:00Z</time>
      </trkpt>
      <trkpt lat="48.91781" lon="8.15178">
        <ele>113.3</ele>
        <time>2020-06-28T07:34:01Z</time>
      </trkpt>
      <trkpt lat="48.91784" lon="8.1517">
        <ele>113.4</ele>
        <time>2020-06-28T07:34:02Z</time>
      </trkpt>
      <trkpt lat="48.91788" lon="8.1516">
        <ele>113.4</ele>
        <time>2020-06-28T07:34:03Z</time>
      </trkpt>
      <trkpt lat="48.91791" lon="8.15151">
        <ele>113.4</ele>
        <time>2020-06-28T07:34:04Z</time>
      </trkpt>
      <trkpt lat="48.91795" lon="8.15143">
        <ele>113.5</ele>
        <time>2020-06-28T07:34:05Z</time>
      </trkpt>
      <trkpt lat="48.91798" lon="8.15134">
        <ele>113.6</ele>
        <time>2020-06-28T07:34:06Z</time>
      </trkpt>
      <trkpt lat="48.91801" lon="8.15125">
        <ele>113.5</ele>
        <time>2020-06-28T07:34:07Z</time>
      </trkpt>
      <trkpt lat="48.91804" lon="8.15117">
        <ele>113.4</ele>
        <time>2020-06-28T07:34:08Z</time>
      </trkpt>
      <trkpt lat="48.91807" lon="8.15109">
        <ele>113.4</ele>
        <time>2020-06-28T07:34:09Z</time>
      </trkpt>
      <trkpt lat="48.9181" lon="8.151">
        <ele>113.3</ele>
        <time>2020-06-28T07:34:10Z</time>
      </trkpt>
      <trkpt lat="48.91813" lon="8.15091">
        <ele>113.3</ele>
        <time>2020-06-28T07:34:11Z</time>
      </trkpt>
      <trkpt lat="48.91817" lon="8.15082">
        <ele>113.4</ele>
        <time>2020-06-28T07:34:12Z</time>
      </trkpt>
      <trkpt lat="48.9182" lon="8.15072">
        <ele>113.4</ele>
        <time>2020-06-28T07:34:13Z</time>
      </trkpt>
      <trkpt lat="48.91824" lon="8.15063">
        <ele>113.5</ele>
        <time>2020-06-28T07:34:14Z</time>
      </trkpt>
      <trkpt lat="48.91827" lon="8.15053">
        <ele>113.5</ele>
        <time>2020-06-28T07:34:15Z</time>
      </trkpt>
      <trkpt lat="48.9183" lon="8.15044">
        <ele>113.5</ele>
        <time>2020-06-28T07:34:16Z</time>
      </trkpt>
      <trkpt lat="48.91833" lon="8.15035">
        <ele>113.6</ele>
        <time>2020-06-28T07:34:17Z</time>
      </trkpt>
      <trkpt lat="48.91836" lon="8.15025">
        <ele>113.6</ele>
        <time>2020-06-28T07:34:18Z</time>
      </trkpt>
      <trkpt lat="48.9184" lon="8.15016">
        <ele>113.6</ele>
        <time>2020-06-28T07:34:19Z</time>
      </trkpt>
      <trkpt lat="48.91843" lon="8.15006">
        <ele>113.6</ele>
        <time>2020-06-28T07:34:20Z</time>
      </trkpt>
      <trkpt lat="48.91846" lon="8.14997">
        <ele>113.6</ele>
        <time>2020-06-28T07:34:21Z</time>
      </trkpt>
      <trkpt lat="48.91849" lon="8.14987">
        <ele>113.6</ele>
        <time>2020-06-28T07:34:22Z</time>
      </trkpt>
      <trkpt lat="48.91851" lon="8.14977">
        <ele>113.6</ele>
        <time>2020-06-28T07:34:23Z</time>
      </trkpt>
      <trkpt lat="48.91853" lon="8.14968">
        <ele>113.7</ele>
        <time>2020-06-28T07:34:24Z</time>
      </trkpt>
      <trkpt lat="48.91854" lon="8.14958">
        <ele>113.7</ele>
        <time>2020-06-28T07:34:25Z</time>
      </trkpt>
      <trkpt lat="48.91856" lon="8.14949">
        <ele>113.7</ele>
        <time>2020-06-28T07:34:26Z</time>
      </trkpt>
      <trkpt lat="48.91856" lon="8.1494">
        <ele>113.8</ele>
        <time>2020-06-28T07:34:27Z</time>
      </trkpt>
      <trkpt lat="48.91857" lon="8.14931">
        <ele>113.9</ele>
        <time>2020-06-28T07:34:28Z</time>
      </trkpt>
      <trkpt lat="48.91858" lon="8.14924">
        <ele>113.9</ele>
        <time>2020-06-28T07:34:29Z</time>
      </trkpt>
      <trkpt lat="48.91859" lon="8.14917">
        <ele>114</ele>
        <time>2020-06-28T07:34:30Z</time>
      </trkpt>
      <trkpt lat="48.9186" lon="8.14909">
        <ele>114</ele>
        <time>2020-06-28T07:34:31Z</time>
      </trkpt>
      <trkpt lat="48.91861" lon="8.14902">
        <ele>114.1</ele>
        <time>2020-06-28T07:34:32Z</time>
      </trkpt>
      <trkpt lat="48.91862" lon="8.14894">
        <ele>114.2</ele>
        <time>2020-06-28T07:34:33Z</time>
      </trkpt>
      <trkpt lat="48.91862" lon="8.14888">
        <ele>114.2</ele>
        <time>2020-06-28T07:34:34Z</time>
      </trkpt>
      <trkpt lat="48.91862" lon="8.14882">
        <ele>114.2</ele>
        <time>2020-06-28T07:34:35Z</time>
      </trkpt>
      <trkpt lat="48.91862" lon="8.14876">
        <ele>114.2</ele>
        <time>2020-06-28T07:34:36Z</time>
      </trkpt>
      <trkpt lat="48.91862" lon="8.14875">
        <ele>114.3</ele>
        <time>2020-06-28T07:34:37Z</time>
      </trkpt>
      <trkpt lat="48.91861" lon="8.14871">
        <ele>114.2</ele>
        <time>2020-06-28T07:34:38Z</time>
      </trkpt>
      <trkpt lat="48.91859" lon="8.14867">
        <ele>114.2</ele>
        <time>2020-06-28T07:34:39Z</time>
      </trkpt>
      <trkpt lat="48.91856" lon="8.14863">
        <ele>114.2</ele>
        <time>2020-06-28T07:34:40Z</time>
      </trkpt>
      <trkpt lat="48.91855" lon="8.14862">
        <ele>114.2</ele>
        <time>2020-06-28T07:34:41Z</time>
      </trkpt>
      <trkpt lat="48.91851" lon="8.1486">
        <ele>114.2</ele>
        <time>2020-06-28T07:34:42Z</time>
      </trkpt>
      <trkpt lat="48.9185" lon="8.1486">
        <ele>114.2</ele>
        <time>2020-06-28T07:34:43Z</time>
      </trkpt>
      <trkpt lat="48.91847" lon="8.14858">
        <ele>114.1</ele>
        <time>2020-06-28T07:34:44Z</time>
      </trkpt>
      <trkpt lat="48.91846" lon="8.14857">
        <ele>114.1</ele>
        <time>2020-06-28T07:34:45Z</time>
      </trkpt>
      <trkpt lat="48.91842" lon="8.14856">
        <ele>114.1</ele>
        <time>2020-06-28T07:34:46Z</time>
      </trkpt>
      <trkpt lat="48.91839" lon="8.14854">
        <ele>114.1</ele>
        <time>2020-06-28T07:34:47Z</time>
      </trkpt>
      <trkpt lat="48.91836" lon="8.1485">
        <ele>114.1</ele>
        <time>2020-06-28T07:34:48Z</time>
      </trkpt>
      <trkpt lat="48.91832" lon="8.14847">
        <ele>114.1</ele>
        <time>2020-06-28T07:34:49Z</time>
      </trkpt>
      <trkpt lat="48.91829" lon="8.14844">
        <ele>114.1</ele>
        <time>2020-06-28T07:34:50Z</time>
      </trkpt>
      <trkpt lat="48.91825" lon="8.1484">
        <ele>114.1</ele>
        <time>2020-06-28T07:34:51Z</time>
      </trkpt>
      <trkpt lat="48.91821" lon="8.14836">
        <ele>114</ele>
        <time>2020-06-28T07:34:52Z</time>
      </trkpt>
      <trkpt lat="48.91817" lon="8.14832">
        <ele>114</ele>
        <time>2020-06-28T07:34:53Z</time>
      </trkpt>
      <trkpt lat="48.91812" lon="8.1483">
        <ele>113.9</ele>
        <time>2020-06-28T07:34:54Z</time>
      </trkpt>
      <trkpt lat="48.91809" lon="8.14827">
        <ele>113.9</ele>
        <time>2020-06-28T07:34:55Z</time>
      </trkpt>
      <trkpt lat="48.91805" lon="8.14824">
        <ele>113.8</ele>
        <time>2020-06-28T07:34:56Z</time>
      </trkpt>
      <trkpt lat="48.91801" lon="8.14821">
        <ele>113.7</ele>
        <time>2020-06-28T07:34:57Z</time>
      </trkpt>
      <trkpt lat="48.91797" lon="8.14817">
        <ele>113.6</ele>
        <time>2020-06-28T07:34:58Z</time>
      </trkpt>
      <trkpt lat="48.91793" lon="8.14815">
        <ele>113.5</ele>
        <time>2020-06-28T07:34:59Z</time>
      </trkpt>
      <trkpt lat="48.91788" lon="8.14811">
        <ele>113.5</ele>
        <time>2020-06-28T07:35:00Z</time>
      </trkpt>
      <trkpt lat="48.91783" lon="8.14808">
        <ele>113.2</ele>
        <time>2020-06-28T07:35:01Z</time>
      </trkpt>
      <trkpt lat="48.91778" lon="8.14804">
        <ele>113</ele>
        <time>2020-06-28T07:35:02Z</time>
      </trkpt>
      <trkpt lat="48.91773" lon="8.148">
        <ele>112.8</ele>
        <time>2020-06-28T07:35:03Z</time>
      </trkpt>
      <trkpt lat="48.91768" lon="8.14797">
        <ele>112.6</ele>
        <time>2020-06-28T07:35:04Z</time>
      </trkpt>
      <trkpt lat="48.91763" lon="8.14793">
        <ele>112.3</ele>
        <time>2020-06-28T07:35:05Z</time>
      </trkpt>
      <trkpt lat="48.91757" lon="8.14788">
        <ele>112.1</ele>
        <time>2020-06-28T07:35:06Z</time>
      </trkpt>
      <trkpt lat="48.91751" lon="8.14783">
        <ele>111.9</ele>
        <time>2020-06-28T07:35:07Z</time>
      </trkpt>
      <trkpt lat="48.91744" lon="8.14777">
        <ele>111.7</ele>
        <time>2020-06-28T07:35:08Z</time>
      </trkpt>
      <trkpt lat="48.91739" lon="8.14771">
        <ele>111.5</ele>
        <time>2020-06-28T07:35:09Z</time>
      </trkpt>
      <trkpt lat="48.91734" lon="8.14765">
        <ele>111.4</ele>
        <time>2020-06-28T07:35:10Z</time>
      </trkpt>
      <trkpt lat="48.91728" lon="8.14757">
        <ele>111.4</ele>
        <time>2020-06-28T07:35:11Z</time>
      </trkpt>
      <trkpt lat="48.91723" lon="8.14749">
        <ele>111.3</ele>
        <time>2020-06-28T07:35:12Z</time>
      </trkpt>
      <trkpt lat="48.91718" lon="8.14742">
        <ele>111.3</ele>
        <time>2020-06-28T07:35:13Z</time>
      </trkpt>
      <trkpt lat="48.91713" lon="8.14734">
        <ele>111.3</ele>
        <time>2020-06-28T07:35:14Z</time>
      </trkpt>
      <trkpt lat="48.91708" lon="8.14726">
        <ele>111.2</ele>
        <time>2020-06-28T07:35:15Z</time>
      </trkpt>
      <trkpt lat="48.91703" lon="8.14718">
        <ele>111.2</ele>
        <time>2020-06-28T07:35:16Z</time>
      </trkpt>
      <trkpt lat="48.91699" lon="8.1471">
        <ele>111.2</ele>
        <time>2020-06-28T07:35:17Z</time>
      </trkpt>
      <trkpt lat="48.91695" lon="8.14704">
        <ele>111.2</ele>
        <time>2020-06-28T07:35:18Z</time>
      </trkpt>
      <trkpt lat="48.91691" lon="8.14696">
        <ele>111.3</ele>
        <time>2020-06-28T07:35:19Z</time>
      </trkpt>
      <trkpt lat="48.91687" lon="8.14688">
        <ele>111.3</ele>
        <time>2020-06-28T07:35:20Z</time>
      </trkpt>
      <trkpt lat="48.91682" lon="8.1468">
        <ele>111.3</ele>
        <time>2020-06-28T07:35:21Z</time>
      </trkpt>
      <trkpt lat="48.91679" lon="8.14673">
        <ele>111.4</ele>
        <time>2020-06-28T07:35:22Z</time>
      </trkpt>
      <trkpt lat="48.91675" lon="8.14667">
        <ele>111.5</ele>
        <time>2020-06-28T07:35:23Z</time>
      </trkpt>
      <trkpt lat="48.91673" lon="8.1466">
        <ele>111.2</ele>
        <time>2020-06-28T07:35:24Z</time>
      </trkpt>
      <trkpt lat="48.91669" lon="8.14655">
        <ele>111</ele>
        <time>2020-06-28T07:35:25Z</time>
      </trkpt>
      <trkpt lat="48.91666" lon="8.14647">
        <ele>110.7</ele>
        <time>2020-06-28T07:35:26Z</time>
      </trkpt>
      <trkpt lat="48.91662" lon="8.1464">
        <ele>110.5</ele>
        <time>2020-06-28T07:35:27Z</time>
      </trkpt>
      <trkpt lat="48.91658" lon="8.14632">
        <ele>110.3</ele>
        <time>2020-06-28T07:35:28Z</time>
      </trkpt>
      <trkpt lat="48.91653" lon="8.14625">
        <ele>110.2</ele>
        <time>2020-06-28T07:35:29Z</time>
      </trkpt>
      <trkpt lat="48.91647" lon="8.1462">
        <ele>110</ele>
        <time>2020-06-28T07:35:30Z</time>
      </trkpt>
      <trkpt lat="48.9164" lon="8.14618">
        <ele>109.9</ele>
        <time>2020-06-28T07:35:31Z</time>
      </trkpt>
      <trkpt lat="48.91632" lon="8.14617">
        <ele>109.8</ele>
        <time>2020-06-28T07:35:32Z</time>
      </trkpt>
      <trkpt lat="48.91625" lon="8.14616">
        <ele>109.7</ele>
        <time>2020-06-28T07:35:33Z</time>
      </trkpt>
      <trkpt lat="48.91617" lon="8.14615">
        <ele>109.7</ele>
        <time>2020-06-28T07:35:34Z</time>
      </trkpt>
      <trkpt lat="48.9161" lon="8.14615">
        <ele>109.7</ele>
        <time>2020-06-28T07:35:35Z</time>
      </trkpt>
      <trkpt lat="48.91603" lon="8.14615">
        <ele>109.7</ele>
        <time>2020-06-28T07:35:36Z</time>
      </trkpt>
      <trkpt lat="48.91596" lon="8.14614">
        <ele>109.7</ele>
        <time>2020-06-28T07:35:37Z</time>
      </trkpt>
      <trkpt lat="48.9159" lon="8.1461">
        <ele>109.7</ele>
        <time>2020-06-28T07:35:38Z</time>
      </trkpt>
      <trkpt lat="48.91584" lon="8.14605">
        <ele>109.7</ele>
        <time>2020-06-28T07:35:39Z</time>
      </trkpt>
      <trkpt lat="48.91579" lon="8.14598">
        <ele>109.7</ele>
        <time>2020-06-28T07:35:40Z</time>
      </trkpt>
      <trkpt lat="48.91574" lon="8.14592">
        <ele>109.7</ele>
        <time>2020-06-28T07:35:41Z</time>
      </trkpt>
      <trkpt lat="48.91569" lon="8.14587">
        <ele>109.7</ele>
        <time>2020-06-28T07:35:42Z</time>
      </trkpt>
      <trkpt lat="48.91564" lon="8.14581">
        <ele>109.7</ele>
        <time>2020-06-28T07:35:43Z</time>
      </trkpt>
      <trkpt lat="48.9156" lon="8.14575">
        <ele>109.7</ele>
        <time>2020-06-28T07:35:44Z</time>
      </trkpt>
      <trkpt lat="48.91555" lon="8.1457">
        <ele>109.7</ele>
        <time>2020-06-28T07:35:45Z</time>
      </trkpt>
      <trkpt lat="48.9155" lon="8.14565">
        <ele>109.6</ele>
        <time>2020-06-28T07:35:46Z</time>
      </trkpt>
      <trkpt lat="48.91545" lon="8.14559">
        <ele>109.6</ele>
        <time>2020-06-28T07:35:47Z</time>
      </trkpt>
      <trkpt lat="48.91539" lon="8.14554">
        <ele>109.7</ele>
        <time>2020-06-28T07:35:48Z</time>
      </trkpt>
      <trkpt lat="48.91533" lon="8.14549">
        <ele>109.7</ele>
        <time>2020-06-28T07:35:49Z</time>
      </trkpt>
      <trkpt lat="48.91527" lon="8.14543">
        <ele>109.7</ele>
        <time>2020-06-28T07:35:50Z</time>
      </trkpt>
      <trkpt lat="48.91523" lon="8.14537">
        <ele>109.7</ele>
        <time>2020-06-28T07:35:51Z</time>
      </trkpt>
      <trkpt lat="48.91518" lon="8.14532">
        <ele>109.8</ele>
        <time>2020-06-28T07:35:52Z</time>
      </trkpt>
      <trkpt lat="48.91513" lon="8.14527">
        <ele>109.8</ele>
        <time>2020-06-28T07:35:53Z</time>
      </trkpt>
      <trkpt lat="48.91508" lon="8.14523">
        <ele>109.8</ele>
        <time>2020-06-28T07:35:54Z</time>
      </trkpt>
      <trkpt lat="48.91503" lon="8.14518">
        <ele>109.8</ele>
        <time>2020-06-28T07:35:55Z</time>
      </trkpt>
      <trkpt lat="48.91497" lon="8.14513">
        <ele>109.9</ele>
        <time>2020-06-28T07:35:56Z</time>
      </trkpt>
      <trkpt lat="48.91492" lon="8.14508">
        <ele>109.9</ele>
        <time>2020-06-28T07:35:57Z</time>
      </trkpt>
      <trkpt lat="48.91486" lon="8.14503">
        <ele>109.9</ele>
        <time>2020-06-28T07:35:58Z</time>
      </trkpt>
      <trkpt lat="48.91481" lon="8.14498">
        <ele>109.8</ele>
        <time>2020-06-28T07:35:59Z</time>
      </trkpt>
      <trkpt lat="48.91475" lon="8.14495">
        <ele>109.8</ele>
        <time>2020-06-28T07:36:00Z</time>
      </trkpt>
      <trkpt lat="48.91469" lon="8.1449">
        <ele>109.9</ele>
        <time>2020-06-28T07:36:01Z</time>
      </trkpt>
      <trkpt lat="48.91466" lon="8.14481">
        <ele>109.9</ele>
        <time>2020-06-28T07:36:02Z</time>
      </trkpt>
      <trkpt lat="48.91462" lon="8.14471">
        <ele>109.9</ele>
        <time>2020-06-28T07:36:03Z</time>
      </trkpt>
      <trkpt lat="48.91461" lon="8.14459">
        <ele>109.9</ele>
        <time>2020-06-28T07:36:04Z</time>
      </trkpt>
      <trkpt lat="48.91459" lon="8.14449">
        <ele>109.8</ele>
        <time>2020-06-28T07:36:05Z</time>
      </trkpt>
      <trkpt lat="48.91457" lon="8.14438">
        <ele>109.8</ele>
        <time>2020-06-28T07:36:06Z</time>
      </trkpt>
      <trkpt lat="48.91454" lon="8.14428">
        <ele>109.8</ele>
        <time>2020-06-28T07:36:07Z</time>
      </trkpt>
      <trkpt lat="48.91451" lon="8.14417">
        <ele>109.8</ele>
        <time>2020-06-28T07:36:08Z</time>
      </trkpt>
      <trkpt lat="48.91449" lon="8.14407">
        <ele>109.7</ele>
        <time>2020-06-28T07:36:09Z</time>
      </trkpt>
      <trkpt lat="48.91446" lon="8.14397">
        <ele>109.7</ele>
        <time>2020-06-28T07:36:10Z</time>
      </trkpt>
      <trkpt lat="48.91444" lon="8.14387">
        <ele>109.7</ele>
        <time>2020-06-28T07:36:11Z</time>
      </trkpt>
      <trkpt lat="48.91442" lon="8.14377">
        <ele>109.7</ele>
        <time>2020-06-28T07:36:12Z</time>
      </trkpt>
      <trkpt lat="48.9144" lon="8.14368">
        <ele>109.7</ele>
        <time>2020-06-28T07:36:13Z</time>
      </trkpt>
      <trkpt lat="48.91437" lon="8.14359">
        <ele>109.7</ele>
        <time>2020-06-28T07:36:14Z</time>
      </trkpt>
      <trkpt lat="48.91434" lon="8.14349">
        <ele>109.7</ele>
        <time>2020-06-28T07:36:15Z</time>
      </trkpt>
      <trkpt lat="48.91431" lon="8.1434">
        <ele>109.7</ele>
        <time>2020-06-28T07:36:16Z</time>
      </trkpt>
      <trkpt lat="48.91428" lon="8.14331">
        <ele>109.8</ele>
        <time>2020-06-28T07:36:17Z</time>
      </trkpt>
      <trkpt lat="48.91425" lon="8.14321">
        <ele>109.8</ele>
        <time>2020-06-28T07:36:18Z</time>
      </trkpt>
      <trkpt lat="48.91421" lon="8.14312">
        <ele>109.8</ele>
        <time>2020-06-28T07:36:19Z</time>
      </trkpt>
      <trkpt lat="48.91418" lon="8.14303">
        <ele>109.8</ele>
        <time>2020-06-28T07:36:20Z</time>
      </trkpt>
      <trkpt lat="48.91415" lon="8.14294">
        <ele>109.8</ele>
        <time>2020-06-28T07:36:21Z</time>
      </trkpt>
      <trkpt lat="48.91411" lon="8.14284">
        <ele>109.8</ele>
        <time>2020-06-28T07:36:22Z</time>
      </trkpt>
      <trkpt lat="48.91408" lon="8.14275">
        <ele>109.8</ele>
        <time>2020-06-28T07:36:23Z</time>
      </trkpt>
      <trkpt lat="48.91405" lon="8.14266">
        <ele>109.8</ele>
        <time>2020-06-28T07:36:24Z</time>
      </trkpt>
      <trkpt lat="48.91401" lon="8.14258">
        <ele>109.8</ele>
        <time>2020-06-28T07:36:25Z</time>
      </trkpt>
      <trkpt lat="48.91397" lon="8.1425">
        <ele>109.8</ele>
        <time>2020-06-28T07:36:26Z</time>
      </trkpt>
      <trkpt lat="48.91393" lon="8.14243">
        <ele>109.8</ele>
        <time>2020-06-28T07:36:27Z</time>
      </trkpt>
      <trkpt lat="48.91389" lon="8.14235">
        <ele>109.8</ele>
        <time>2020-06-28T07:36:28Z</time>
      </trkpt>
      <trkpt lat="48.91384" lon="8.14227">
        <ele>109.8</ele>
        <time>2020-06-28T07:36:29Z</time>
      </trkpt>
      <trkpt lat="48.91379" lon="8.14219">
        <ele>109.8</ele>
        <time>2020-06-28T07:36:30Z</time>
      </trkpt>
      <trkpt lat="48.91374" lon="8.14211">
        <ele>109.8</ele>
        <time>2020-06-28T07:36:31Z</time>
      </trkpt>
      <trkpt lat="48.91369" lon="8.14203">
        <ele>109.8</ele>
        <time>2020-06-28T07:36:32Z</time>
      </trkpt>
      <trkpt lat="48.91365" lon="8.14196">
        <ele>109.8</ele>
        <time>2020-06-28T07:36:33Z</time>
      </trkpt>
      <trkpt lat="48.91359" lon="8.14189">
        <ele>109.8</ele>
        <time>2020-06-28T07:36:34Z</time>
      </trkpt>
      <trkpt lat="48.91354" lon="8.14181">
        <ele>109.8</ele>
        <time>2020-06-28T07:36:35Z</time>
      </trkpt>
      <trkpt lat="48.91349" lon="8.14172">
        <ele>109.9</ele>
        <time>2020-06-28T07:36:36Z</time>
      </trkpt>
      <trkpt lat="48.91343" lon="8.14166">
        <ele>109.9</ele>
        <time>2020-06-28T07:36:37Z</time>
      </trkpt>
      <trkpt lat="48.91338" lon="8.14159">
        <ele>110</ele>
        <time>2020-06-28T07:36:38Z</time>
      </trkpt>
      <trkpt lat="48.91332" lon="8.14152">
        <ele>110</ele>
        <time>2020-06-28T07:36:39Z</time>
      </trkpt>
      <trkpt lat="48.91327" lon="8.14144">
        <ele>110.1</ele>
        <time>2020-06-28T07:36:40Z</time>
      </trkpt>
      <trkpt lat="48.91321" lon="8.14138">
        <ele>110.1</ele>
        <time>2020-06-28T07:36:41Z</time>
      </trkpt>
      <trkpt lat="48.91316" lon="8.14133">
        <ele>110.1</ele>
        <time>2020-06-28T07:36:42Z</time>
      </trkpt>
      <trkpt lat="48.91311" lon="8.14129">
        <ele>110.2</ele>
        <time>2020-06-28T07:36:43Z</time>
      </trkpt>
      <trkpt lat="48.91306" lon="8.14124">
        <ele>110.2</ele>
        <time>2020-06-28T07:36:44Z</time>
      </trkpt>
      <trkpt lat="48.91302" lon="8.1412">
        <ele>110.3</ele>
        <time>2020-06-28T07:36:45Z</time>
      </trkpt>
      <trkpt lat="48.91297" lon="8.14118">
        <ele>110.3</ele>
        <time>2020-06-28T07:36:46Z</time>
      </trkpt>
      <trkpt lat="48.91292" lon="8.14115">
        <ele>110.3</ele>
        <time>2020-06-28T07:36:47Z</time>
      </trkpt>
      <trkpt lat="48.91288" lon="8.14111">
        <ele>110.4</ele>
        <time>2020-06-28T07:36:48Z</time>
      </trkpt>
      <trkpt lat="48.91283" lon="8.14106">
        <ele>110.4</ele>
        <time>2020-06-28T07:36:49Z</time>
      </trkpt>
      <trkpt lat="48.91278" lon="8.141">
        <ele>110.4</ele>
        <time>2020-06-28T07:36:50Z</time>
      </trkpt>
      <trkpt lat="48.91271" lon="8.14095">
        <ele>110.4</ele>
        <time>2020-06-28T07:36:51Z</time>
      </trkpt>
      <trkpt lat="48.91264" lon="8.14091">
        <ele>110.4</ele>
        <time>2020-06-28T07:36:52Z</time>
      </trkpt>
      <trkpt lat="48.91258" lon="8.14085">
        <ele>110.3</ele>
        <time>2020-06-28T07:36:53Z</time>
      </trkpt>
      <trkpt lat="48.91252" lon="8.1408">
        <ele>110.3</ele>
        <time>2020-06-28T07:36:54Z</time>
      </trkpt>
      <trkpt lat="48.91245" lon="8.14075">
        <ele>110.3</ele>
        <time>2020-06-28T07:36:55Z</time>
      </trkpt>
      <trkpt lat="48.91238" lon="8.14072">
        <ele>110.2</ele>
        <time>2020-06-28T07:36:56Z</time>
      </trkpt>
      <trkpt lat="48.91233" lon="8.14066">
        <ele>110.2</ele>
        <time>2020-06-28T07:36:57Z</time>
      </trkpt>
      <trkpt lat="48.91228" lon="8.14058">
        <ele>110.2</ele>
        <time>2020-06-28T07:36:58Z</time>
      </trkpt>
      <trkpt lat="48.91224" lon="8.14051">
        <ele>110.1</ele>
        <time>2020-06-28T07:36:59Z</time>
      </trkpt>
      <trkpt lat="48.91219" lon="8.14044">
        <ele>110.1</ele>
        <time>2020-06-28T07:37:00Z</time>
      </trkpt>
      <trkpt lat="48.91215" lon="8.14039">
        <ele>110.1</ele>
        <time>2020-06-28T07:37:01Z</time>
      </trkpt>
      <trkpt lat="48.91211" lon="8.14034">
        <ele>110.2</ele>
        <time>2020-06-28T07:37:02Z</time>
      </trkpt>
      <trkpt lat="48.91208" lon="8.14028">
        <ele>110.2</ele>
        <time>2020-06-28T07:37:03Z</time>
      </trkpt>
      <trkpt lat="48.91204" lon="8.14025">
        <ele>110.2</ele>
        <time>2020-06-28T07:37:04Z</time>
      </trkpt>
      <trkpt lat="48.912" lon="8.14022">
        <ele>110.2</ele>
        <time>2020-06-28T07:37:05Z</time>
      </trkpt>
      <trkpt lat="48.91196" lon="8.14017">
        <ele>110.2</ele>
        <time>2020-06-28T07:37:06Z</time>
      </trkpt>
      <trkpt lat="48.91193" lon="8.14012">
        <ele>110.2</ele>
        <time>2020-06-28T07:37:07Z</time>
      </trkpt>
      <trkpt lat="48.91189" lon="8.14007">
        <ele>110.2</ele>
        <time>2020-06-28T07:37:08Z</time>
      </trkpt>
      <trkpt lat="48.91185" lon="8.14003">
        <ele>110.2</ele>
        <time>2020-06-28T07:37:09Z</time>
      </trkpt>
      <trkpt lat="48.91182" lon="8.13998">
        <ele>110.2</ele>
        <time>2020-06-28T07:37:10Z</time>
      </trkpt>
      <trkpt lat="48.91178" lon="8.13993">
        <ele>110.2</ele>
        <time>2020-06-28T07:37:11Z</time>
      </trkpt>
      <trkpt lat="48.91175" lon="8.13987">
        <ele>110.2</ele>
        <time>2020-06-28T07:37:12Z</time>
      </trkpt>
      <trkpt lat="48.91172" lon="8.13981">
        <ele>110.2</ele>
        <time>2020-06-28T07:37:13Z</time>
      </trkpt>
      <trkpt lat="48.91168" lon="8.13976">
        <ele>110.2</ele>
        <time>2020-06-28T07:37:14Z</time>
      </trkpt>
      <trkpt lat="48.91165" lon="8.1397">
        <ele>110.2</ele>
        <time>2020-06-28T07:37:15Z</time>
      </trkpt>
      <trkpt lat="48.91161" lon="8.13964">
        <ele>110.3</ele>
        <time>2020-06-28T07:37:16Z</time>
      </trkpt>
      <trkpt lat="48.91157" lon="8.13959">
        <ele>110.3</ele>
        <time>2020-06-28T07:37:17Z</time>
      </trkpt>
      <trkpt lat="48.91154" lon="8.13955">
        <ele>110.3</ele>
        <time>2020-06-28T07:37:18Z</time>
      </trkpt>
      <trkpt lat="48.9115" lon="8.13951">
        <ele>110.3</ele>
        <time>2020-06-28T07:37:19Z</time>
      </trkpt>
      <trkpt lat="48.91146" lon="8.13946">
        <ele>110.3</ele>
        <time>2020-06-28T07:37:20Z</time>
      </trkpt>
      <trkpt lat="48.91142" lon="8.13943">
        <ele>110.3</ele>
        <time>2020-06-28T07:37:21Z</time>
      </trkpt>
      <trkpt lat="48.91137" lon="8.1394">
        <ele>110.3</ele>
        <time>2020-06-28T07:37:22Z</time>
      </trkpt>
      <trkpt lat="48.91133" lon="8.13936">
        <ele>110.3</ele>
        <time>2020-06-28T07:37:23Z</time>
      </trkpt>
      <trkpt lat="48.91129" lon="8.13933">
        <ele>110.3</ele>
        <time>2020-06-28T07:37:24Z</time>
      </trkpt>
      <trkpt lat="48.91124" lon="8.1393">
        <ele>110.3</ele>
        <time>2020-06-28T07:37:25Z</time>
      </trkpt>
      <trkpt lat="48.91119" lon="8.13925">
        <ele>110.3</ele>
        <time>2020-06-28T07:37:26Z</time>
      </trkpt>
      <trkpt lat="48.91114" lon="8.13918">
        <ele>110.3</ele>
        <time>2020-06-28T07:37:27Z</time>
      </trkpt>
      <trkpt lat="48.9111" lon="8.1391">
        <ele>110.3</ele>
        <time>2020-06-28T07:37:28Z</time>
      </trkpt>
      <trkpt lat="48.91107" lon="8.13902">
        <ele>110.4</ele>
        <time>2020-06-28T07:37:29Z</time>
      </trkpt>
      <trkpt lat="48.91104" lon="8.13893">
        <ele>110.4</ele>
        <time>2020-06-28T07:37:30Z</time>
      </trkpt>
      <trkpt lat="48.91102" lon="8.13884">
        <ele>110.5</ele>
        <time>2020-06-28T07:37:31Z</time>
      </trkpt>
      <trkpt lat="48.91098" lon="8.13875">
        <ele>110.6</ele>
        <time>2020-06-28T07:37:32Z</time>
      </trkpt>
      <trkpt lat="48.91096" lon="8.13865">
        <ele>110.6</ele>
        <time>2020-06-28T07:37:33Z</time>
      </trkpt>
      <trkpt lat="48.91094" lon="8.13857">
        <ele>110.6</ele>
        <time>2020-06-28T07:37:34Z</time>
      </trkpt>
      <trkpt lat="48.91092" lon="8.1385">
        <ele>110.6</ele>
        <time>2020-06-28T07:37:35Z</time>
      </trkpt>
      <trkpt lat="48.9109" lon="8.13842">
        <ele>110.6</ele>
        <time>2020-06-28T07:37:36Z</time>
      </trkpt>
      <trkpt lat="48.91088" lon="8.13833">
        <ele>110.7</ele>
        <time>2020-06-28T07:37:37Z</time>
      </trkpt>
      <trkpt lat="48.91086" lon="8.13824">
        <ele>110.7</ele>
        <time>2020-06-28T07:37:38Z</time>
      </trkpt>
      <trkpt lat="48.91084" lon="8.13814">
        <ele>110.7</ele>
        <time>2020-06-28T07:37:39Z</time>
      </trkpt>
      <trkpt lat="48.91082" lon="8.13804">
        <ele>110.7</ele>
        <time>2020-06-28T07:37:40Z</time>
      </trkpt>
      <trkpt lat="48.91079" lon="8.13795">
        <ele>110.7</ele>
        <time>2020-06-28T07:37:41Z</time>
      </trkpt>
      <trkpt lat="48.91076" lon="8.13787">
        <ele>110.8</ele>
        <time>2020-06-28T07:37:42Z</time>
      </trkpt>
      <trkpt lat="48.91073" lon="8.13778">
        <ele>110.8</ele>
        <time>2020-06-28T07:37:43Z</time>
      </trkpt>
      <trkpt lat="48.9107" lon="8.1377">
        <ele>110.8</ele>
        <time>2020-06-28T07:37:44Z</time>
      </trkpt>
      <trkpt lat="48.91068" lon="8.13762">
        <ele>110.8</ele>
        <time>2020-06-28T07:37:45Z</time>
      </trkpt>
      <trkpt lat="48.91065" lon="8.13756">
        <ele>110.9</ele>
        <time>2020-06-28T07:37:46Z</time>
      </trkpt>
      <trkpt lat="48.91062" lon="8.13749">
        <ele>110.9</ele>
        <time>2020-06-28T07:37:47Z</time>
      </trkpt>
      <trkpt lat="48.91059" lon="8.1374">
        <ele>110.9</ele>
        <time>2020-06-28T07:37:48Z</time>
      </trkpt>
      <trkpt lat="48.91057" lon="8.13732">
        <ele>111</ele>
        <time>2020-06-28T07:37:49Z</time>
      </trkpt>
      <trkpt lat="48.91054" lon="8.13723">
        <ele>111</ele>
        <time>2020-06-28T07:37:50Z</time>
      </trkpt>
      <trkpt lat="48.9105" lon="8.13715">
        <ele>111.1</ele>
        <time>2020-06-28T07:37:51Z</time>
      </trkpt>
      <trkpt lat="48.91047" lon="8.13705">
        <ele>111.1</ele>
        <time>2020-06-28T07:37:52Z</time>
      </trkpt>
      <trkpt lat="48.91043" lon="8.13696">
        <ele>111.2</ele>
        <time>2020-06-28T07:37:53Z</time>
      </trkpt>
      <trkpt lat="48.91039" lon="8.13688">
        <ele>111.2</ele>
        <time>2020-06-28T07:37:54Z</time>
      </trkpt>
      <trkpt lat="48.91034" lon="8.1368">
        <ele>111.3</ele>
        <time>2020-06-28T07:37:55Z</time>
      </trkpt>
      <trkpt lat="48.91029" lon="8.13673">
        <ele>111.4</ele>
        <time>2020-06-28T07:37:56Z</time>
      </trkpt>
      <trkpt lat="48.91025" lon="8.13667">
        <ele>111.5</ele>
        <time>2020-06-28T07:37:57Z</time>
      </trkpt>
      <trkpt lat="48.91021" lon="8.1366">
        <ele>111.6</ele>
        <time>2020-06-28T07:37:58Z</time>
      </trkpt>
      <trkpt lat="48.91017" lon="8.13655">
        <ele>111.7</ele>
        <time>2020-06-28T07:37:59Z</time>
      </trkpt>
      <trkpt lat="48.91013" lon="8.13651">
        <ele>111.9</ele>
        <time>2020-06-28T07:38:00Z</time>
      </trkpt>
      <trkpt lat="48.91008" lon="8.13646">
        <ele>112.1</ele>
        <time>2020-06-28T07:38:01Z</time>
      </trkpt>
      <trkpt lat="48.91003" lon="8.13641">
        <ele>112.3</ele>
        <time>2020-06-28T07:38:02Z</time>
      </trkpt>
      <trkpt lat="48.90999" lon="8.13634">
        <ele>112.4</ele>
        <time>2020-06-28T07:38:03Z</time>
      </trkpt>
      <trkpt lat="48.90996" lon="8.13627">
        <ele>112.6</ele>
        <time>2020-06-28T07:38:04Z</time>
      </trkpt>
      <trkpt lat="48.90993" lon="8.1362">
        <ele>112.7</ele>
        <time>2020-06-28T07:38:05Z</time>
      </trkpt>
      <trkpt lat="48.9099" lon="8.13612">
        <ele>112.7</ele>
        <time>2020-06-28T07:38:06Z</time>
      </trkpt>
      <trkpt lat="48.90987" lon="8.13606">
        <ele>112.8</ele>
        <time>2020-06-28T07:38:07Z</time>
      </trkpt>
      <trkpt lat="48.90984" lon="8.13601">
        <ele>112.8</ele>
        <time>2020-06-28T07:38:08Z</time>
      </trkpt>
      <trkpt lat="48.90981" lon="8.13594">
        <ele>112.9</ele>
        <time>2020-06-28T07:38:09Z</time>
      </trkpt>
      <trkpt lat="48.90977" lon="8.13586">
        <ele>112.9</ele>
        <time>2020-06-28T07:38:10Z</time>
      </trkpt>
      <trkpt lat="48.90973" lon="8.13579">
        <ele>112.9</ele>
        <time>2020-06-28T07:38:11Z</time>
      </trkpt>
      <trkpt lat="48.90969" lon="8.13573">
        <ele>113</ele>
        <time>2020-06-28T07:38:12Z</time>
      </trkpt>
      <trkpt lat="48.90965" lon="8.13567">
        <ele>113</ele>
        <time>2020-06-28T07:38:13Z</time>
      </trkpt>
      <trkpt lat="48.90959" lon="8.13559">
        <ele>113.1</ele>
        <time>2020-06-28T07:38:14Z</time>
      </trkpt>
      <trkpt lat="48.90954" lon="8.13552">
        <ele>113.1</ele>
        <time>2020-06-28T07:38:15Z</time>
      </trkpt>
      <trkpt lat="48.90948" lon="8.13545">
        <ele>113.2</ele>
        <time>2020-06-28T07:38:16Z</time>
      </trkpt>
      <trkpt lat="48.90943" lon="8.1354">
        <ele>113.2</ele>
        <time>2020-06-28T07:38:17Z</time>
      </trkpt>
      <trkpt lat="48.90938" lon="8.13535">
        <ele>113.2</ele>
        <time>2020-06-28T07:38:18Z</time>
      </trkpt>
      <trkpt lat="48.90934" lon="8.1353">
        <ele>113.2</ele>
        <time>2020-06-28T07:38:19Z</time>
      </trkpt>
      <trkpt lat="48.90929" lon="8.13526">
        <ele>113.3</ele>
        <time>2020-06-28T07:38:20Z</time>
      </trkpt>
      <trkpt lat="48.90924" lon="8.13521">
        <ele>113.3</ele>
        <time>2020-06-28T07:38:21Z</time>
      </trkpt>
      <trkpt lat="48.90919" lon="8.13514">
        <ele>113.3</ele>
        <time>2020-06-28T07:38:22Z</time>
      </trkpt>
      <trkpt lat="48.90916" lon="8.13506">
        <ele>113.3</ele>
        <time>2020-06-28T07:38:23Z</time>
      </trkpt>
      <trkpt lat="48.90913" lon="8.13497">
        <ele>113.3</ele>
        <time>2020-06-28T07:38:24Z</time>
      </trkpt>
      <trkpt lat="48.9091" lon="8.1349">
        <ele>113.2</ele>
        <time>2020-06-28T07:38:25Z</time>
      </trkpt>
      <trkpt lat="48.90907" lon="8.13481">
        <ele>113.2</ele>
        <time>2020-06-28T07:38:26Z</time>
      </trkpt>
      <trkpt lat="48.90905" lon="8.13473">
        <ele>113.2</ele>
        <time>2020-06-28T07:38:27Z</time>
      </trkpt>
      <trkpt lat="48.90903" lon="8.13466">
        <ele>113.2</ele>
        <time>2020-06-28T07:38:28Z</time>
      </trkpt>
      <trkpt lat="48.90901" lon="8.13458">
        <ele>113.2</ele>
        <time>2020-06-28T07:38:29Z</time>
      </trkpt>
      <trkpt lat="48.909" lon="8.13449">
        <ele>113.2</ele>
        <time>2020-06-28T07:38:30Z</time>
      </trkpt>
      <trkpt lat="48.90898" lon="8.13439">
        <ele>113.2</ele>
        <time>2020-06-28T07:38:31Z</time>
      </trkpt>
      <trkpt lat="48.90896" lon="8.1343">
        <ele>113.1</ele>
        <time>2020-06-28T07:38:32Z</time>
      </trkpt>
      <trkpt lat="48.90895" lon="8.13422">
        <ele>113.1</ele>
        <time>2020-06-28T07:38:33Z</time>
      </trkpt>
      <trkpt lat="48.90894" lon="8.13413">
        <ele>113.2</ele>
        <time>2020-06-28T07:38:34Z</time>
      </trkpt>
      <trkpt lat="48.90891" lon="8.13402">
        <ele>113.2</ele>
        <time>2020-06-28T07:38:35Z</time>
      </trkpt>
      <trkpt lat="48.9089" lon="8.13394">
        <ele>113.2</ele>
        <time>2020-06-28T07:38:36Z</time>
      </trkpt>
      <trkpt lat="48.90888" lon="8.13384">
        <ele>113.1</ele>
        <time>2020-06-28T07:38:37Z</time>
      </trkpt>
      <trkpt lat="48.90886" lon="8.13374">
        <ele>113.1</ele>
        <time>2020-06-28T07:38:38Z</time>
      </trkpt>
      <trkpt lat="48.90885" lon="8.13364">
        <ele>113.1</ele>
        <time>2020-06-28T07:38:39Z</time>
      </trkpt>
      <trkpt lat="48.90883" lon="8.13354">
        <ele>113.2</ele>
        <time>2020-06-28T07:38:40Z</time>
      </trkpt>
      <trkpt lat="48.90881" lon="8.13346">
        <ele>113.2</ele>
        <time>2020-06-28T07:38:41Z</time>
      </trkpt>
      <trkpt lat="48.90879" lon="8.13336">
        <ele>113.3</ele>
        <time>2020-06-28T07:38:42Z</time>
      </trkpt>
      <trkpt lat="48.90878" lon="8.13327">
        <ele>113.3</ele>
        <time>2020-06-28T07:38:43Z</time>
      </trkpt>
      <trkpt lat="48.90876" lon="8.13316">
        <ele>113.3</ele>
        <time>2020-06-28T07:38:44Z</time>
      </trkpt>
      <trkpt lat="48.90874" lon="8.13306">
        <ele>113.3</ele>
        <time>2020-06-28T07:38:45Z</time>
      </trkpt>
      <trkpt lat="48.90872" lon="8.13295">
        <ele>113.3</ele>
        <time>2020-06-28T07:38:46Z</time>
      </trkpt>
      <trkpt lat="48.9087" lon="8.13286">
        <ele>113.3</ele>
        <time>2020-06-28T07:38:47Z</time>
      </trkpt>
      <trkpt lat="48.90868" lon="8.13278">
        <ele>113.4</ele>
        <time>2020-06-28T07:38:48Z</time>
      </trkpt>
      <trkpt lat="48.90866" lon="8.13269">
        <ele>113.4</ele>
        <time>2020-06-28T07:38:49Z</time>
      </trkpt>
      <trkpt lat="48.90865" lon="8.1326">
        <ele>113.5</ele>
        <time>2020-06-28T07:38:50Z</time>
      </trkpt>
      <trkpt lat="48.90863" lon="8.13251">
        <ele>113.5</ele>
        <time>2020-06-28T07:38:51Z</time>
      </trkpt>
      <trkpt lat="48.90862" lon="8.13241">
        <ele>113.6</ele>
        <time>2020-06-28T07:38:52Z</time>
      </trkpt>
      <trkpt lat="48.9086" lon="8.13233">
        <ele>113.6</ele>
        <time>2020-06-28T07:38:53Z</time>
      </trkpt>
      <trkpt lat="48.90858" lon="8.13226">
        <ele>113.6</ele>
        <time>2020-06-28T07:38:54Z</time>
      </trkpt>
      <trkpt lat="48.90858" lon="8.13216">
        <ele>113.7</ele>
        <time>2020-06-28T07:38:55Z</time>
      </trkpt>
      <trkpt lat="48.90856" lon="8.13207">
        <ele>113.7</ele>
        <time>2020-06-28T07:38:56Z</time>
      </trkpt>
      <trkpt lat="48.90854" lon="8.13198">
        <ele>113.7</ele>
        <time>2020-06-28T07:38:57Z</time>
      </trkpt>
      <trkpt lat="48.90851" lon="8.13188">
        <ele>113.7</ele>
        <time>2020-06-28T07:38:58Z</time>
      </trkpt>
      <trkpt lat="48.90849" lon="8.13179">
        <ele>113.7</ele>
        <time>2020-06-28T07:38:59Z</time>
      </trkpt>
      <trkpt lat="48.90848" lon="8.13172">
        <ele>113.8</ele>
        <time>2020-06-28T07:39:00Z</time>
      </trkpt>
      <trkpt lat="48.90846" lon="8.13161">
        <ele>113.8</ele>
        <time>2020-06-28T07:39:01Z</time>
      </trkpt>
      <trkpt lat="48.90845" lon="8.13152">
        <ele>113.8</ele>
        <time>2020-06-28T07:39:02Z</time>
      </trkpt>
      <trkpt lat="48.90843" lon="8.13142">
        <ele>113.8</ele>
        <time>2020-06-28T07:39:03Z</time>
      </trkpt>
      <trkpt lat="48.90841" lon="8.13133">
        <ele>113.8</ele>
        <time>2020-06-28T07:39:04Z</time>
      </trkpt>
      <trkpt lat="48.9084" lon="8.13124">
        <ele>113.8</ele>
        <time>2020-06-28T07:39:05Z</time>
      </trkpt>
      <trkpt lat="48.90838" lon="8.13116">
        <ele>113.7</ele>
        <time>2020-06-28T07:39:06Z</time>
      </trkpt>
      <trkpt lat="48.90837" lon="8.13108">
        <ele>113.7</ele>
        <time>2020-06-28T07:39:07Z</time>
      </trkpt>
      <trkpt lat="48.90834" lon="8.131">
        <ele>113.7</ele>
        <time>2020-06-28T07:39:08Z</time>
      </trkpt>
      <trkpt lat="48.9083" lon="8.13093">
        <ele>113.6</ele>
        <time>2020-06-28T07:39:09Z</time>
      </trkpt>
      <trkpt lat="48.90826" lon="8.13087">
        <ele>113.6</ele>
        <time>2020-06-28T07:39:10Z</time>
      </trkpt>
      <trkpt lat="48.90822" lon="8.13079">
        <ele>113.5</ele>
        <time>2020-06-28T07:39:11Z</time>
      </trkpt>
      <trkpt lat="48.90817" lon="8.13073">
        <ele>113.4</ele>
        <time>2020-06-28T07:39:12Z</time>
      </trkpt>
      <trkpt lat="48.90813" lon="8.13065">
        <ele>113.3</ele>
        <time>2020-06-28T07:39:13Z</time>
      </trkpt>
      <trkpt lat="48.90808" lon="8.13058">
        <ele>113.3</ele>
        <time>2020-06-28T07:39:14Z</time>
      </trkpt>
      <trkpt lat="48.90803" lon="8.13051">
        <ele>113.2</ele>
        <time>2020-06-28T07:39:15Z</time>
      </trkpt>
      <trkpt lat="48.90798" lon="8.13044">
        <ele>113.2</ele>
        <time>2020-06-28T07:39:16Z</time>
      </trkpt>
      <trkpt lat="48.90794" lon="8.13038">
        <ele>113.2</ele>
        <time>2020-06-28T07:39:17Z</time>
      </trkpt>
      <trkpt lat="48.90789" lon="8.13035">
        <ele>113.2</ele>
        <time>2020-06-28T07:39:18Z</time>
      </trkpt>
      <trkpt lat="48.90783" lon="8.13031">
        <ele>113.1</ele>
        <time>2020-06-28T07:39:19Z</time>
      </trkpt>
      <trkpt lat="48.90777" lon="8.13026">
        <ele>113.1</ele>
        <time>2020-06-28T07:39:20Z</time>
      </trkpt>
      <trkpt lat="48.9077" lon="8.13023">
        <ele>113.1</ele>
        <time>2020-06-28T07:39:21Z</time>
      </trkpt>
      <trkpt lat="48.90764" lon="8.13019">
        <ele>113.1</ele>
        <time>2020-06-28T07:39:22Z</time>
      </trkpt>
      <trkpt lat="48.90757" lon="8.13015">
        <ele>113.1</ele>
        <time>2020-06-28T07:39:23Z</time>
      </trkpt>
      <trkpt lat="48.90751" lon="8.13013">
        <ele>113.1</ele>
        <time>2020-06-28T07:39:24Z</time>
      </trkpt>
      <trkpt lat="48.90744" lon="8.13012">
        <ele>113.1</ele>
        <time>2020-06-28T07:39:25Z</time>
      </trkpt>
      <trkpt lat="48.90738" lon="8.13011">
        <ele>113.1</ele>
        <time>2020-06-28T07:39:26Z</time>
      </trkpt>
      <trkpt lat="48.90731" lon="8.1301">
        <ele>113.1</ele>
        <time>2020-06-28T07:39:27Z</time>
      </trkpt>
      <trkpt lat="48.90724" lon="8.13008">
        <ele>113.1</ele>
        <time>2020-06-28T07:39:28Z</time>
      </trkpt>
      <trkpt lat="48.90718" lon="8.13006">
        <ele>113.1</ele>
        <time>2020-06-28T07:39:29Z</time>
      </trkpt>
      <trkpt lat="48.90711" lon="8.13005">
        <ele>113</ele>
        <time>2020-06-28T07:39:30Z</time>
      </trkpt>
      <trkpt lat="48.90705" lon="8.13003">
        <ele>113</ele>
        <time>2020-06-28T07:39:31Z</time>
      </trkpt>
      <trkpt lat="48.90699" lon="8.13001">
        <ele>113</ele>
        <time>2020-06-28T07:39:32Z</time>
      </trkpt>
      <trkpt lat="48.90694" lon="8.13">
        <ele>113</ele>
        <time>2020-06-28T07:39:33Z</time>
      </trkpt>
      <trkpt lat="48.90688" lon="8.12999">
        <ele>113</ele>
        <time>2020-06-28T07:39:34Z</time>
      </trkpt>
      <trkpt lat="48.90682" lon="8.12997">
        <ele>113</ele>
        <time>2020-06-28T07:39:35Z</time>
      </trkpt>
      <trkpt lat="48.90676" lon="8.12996">
        <ele>113</ele>
        <time>2020-06-28T07:39:36Z</time>
      </trkpt>
      <trkpt lat="48.9067" lon="8.12995">
        <ele>113</ele>
        <time>2020-06-28T07:39:37Z</time>
      </trkpt>
      <trkpt lat="48.90663" lon="8.12994">
        <ele>113</ele>
        <time>2020-06-28T07:39:38Z</time>
      </trkpt>
      <trkpt lat="48.90655" lon="8.12994">
        <ele>113</ele>
        <time>2020-06-28T07:39:39Z</time>
      </trkpt>
      <trkpt lat="48.9065" lon="8.12993">
        <ele>113</ele>
        <time>2020-06-28T07:39:40Z</time>
      </trkpt>
      <trkpt lat="48.90643" lon="8.12993">
        <ele>113</ele>
        <time>2020-06-28T07:39:41Z</time>
      </trkpt>
      <trkpt lat="48.90637" lon="8.12994">
        <ele>113.1</ele>
        <time>2020-06-28T07:39:42Z</time>
      </trkpt>
      <trkpt lat="48.9063" lon="8.12997">
        <ele>113.1</ele>
        <time>2020-06-28T07:39:43Z</time>
      </trkpt>
      <trkpt lat="48.90624" lon="8.13001">
        <ele>113.1</ele>
        <time>2020-06-28T07:39:44Z</time>
      </trkpt>
      <trkpt lat="48.90619" lon="8.13006">
        <ele>113.1</ele>
        <time>2020-06-28T07:39:45Z</time>
      </trkpt>
      <trkpt lat="48.90614" lon="8.13011">
        <ele>113.1</ele>
        <time>2020-06-28T07:39:46Z</time>
      </trkpt>
      <trkpt lat="48.90608" lon="8.13015">
        <ele>113</ele>
        <time>2020-06-28T07:39:47Z</time>
      </trkpt>
      <trkpt lat="48.90604" lon="8.13019">
        <ele>113</ele>
        <time>2020-06-28T07:39:48Z</time>
      </trkpt>
      <trkpt lat="48.906" lon="8.13025">
        <ele>113</ele>
        <time>2020-06-28T07:39:49Z</time>
      </trkpt>
      <trkpt lat="48.90598" lon="8.13029">
        <ele>113</ele>
        <time>2020-06-28T07:39:50Z</time>
      </trkpt>
      <trkpt lat="48.90594" lon="8.13034">
        <ele>112.9</ele>
        <time>2020-06-28T07:39:51Z</time>
      </trkpt>
      <trkpt lat="48.9059" lon="8.13041">
        <ele>112.9</ele>
        <time>2020-06-28T07:39:52Z</time>
      </trkpt>
      <trkpt lat="48.90585" lon="8.13049">
        <ele>112.9</ele>
        <time>2020-06-28T07:39:53Z</time>
      </trkpt>
      <trkpt lat="48.9058" lon="8.13057">
        <ele>112.9</ele>
        <time>2020-06-28T07:39:54Z</time>
      </trkpt>
      <trkpt lat="48.90575" lon="8.13065">
        <ele>112.9</ele>
        <time>2020-06-28T07:39:55Z</time>
      </trkpt>
      <trkpt lat="48.9057" lon="8.13072">
        <ele>112.9</ele>
        <time>2020-06-28T07:39:56Z</time>
      </trkpt>
      <trkpt lat="48.90566" lon="8.13078">
        <ele>112.9</ele>
        <time>2020-06-28T07:39:57Z</time>
      </trkpt>
      <trkpt lat="48.90561" lon="8.13084">
        <ele>112.9</ele>
        <time>2020-06-28T07:39:58Z</time>
      </trkpt>
      <trkpt lat="48.90557" lon="8.13089">
        <ele>112.9</ele>
        <time>2020-06-28T07:39:59Z</time>
      </trkpt>
      <trkpt lat="48.90552" lon="8.13096">
        <ele>113</ele>
        <time>2020-06-28T07:40:00Z</time>
      </trkpt>
      <trkpt lat="48.90544" lon="8.13101">
        <ele>113</ele>
        <time>2020-06-28T07:40:01Z</time>
      </trkpt>
      <trkpt lat="48.90537" lon="8.13109">
        <ele>113</ele>
        <time>2020-06-28T07:40:02Z</time>
      </trkpt>
      <trkpt lat="48.90531" lon="8.13116">
        <ele>113</ele>
        <time>2020-06-28T07:40:03Z</time>
      </trkpt>
      <trkpt lat="48.90524" lon="8.13122">
        <ele>113</ele>
        <time>2020-06-28T07:40:04Z</time>
      </trkpt>
      <trkpt lat="48.90518" lon="8.1313">
        <ele>113</ele>
        <time>2020-06-28T07:40:05Z</time>
      </trkpt>
      <trkpt lat="48.90512" lon="8.13137">
        <ele>113</ele>
        <time>2020-06-28T07:40:06Z</time>
      </trkpt>
      <trkpt lat="48.90507" lon="8.13143">
        <ele>113</ele>
        <time>2020-06-28T07:40:07Z</time>
      </trkpt>
      <trkpt lat="48.905" lon="8.1315">
        <ele>113</ele>
        <time>2020-06-28T07:40:08Z</time>
      </trkpt>
      <trkpt lat="48.90496" lon="8.13156">
        <ele>113</ele>
        <time>2020-06-28T07:40:09Z</time>
      </trkpt>
      <trkpt lat="48.9049" lon="8.13161">
        <ele>113</ele>
        <time>2020-06-28T07:40:10Z</time>
      </trkpt>
      <trkpt lat="48.90484" lon="8.13169">
        <ele>113</ele>
        <time>2020-06-28T07:40:11Z</time>
      </trkpt>
      <trkpt lat="48.90478" lon="8.13173">
        <ele>112.9</ele>
        <time>2020-06-28T07:40:12Z</time>
      </trkpt>
      <trkpt lat="48.90472" lon="8.1318">
        <ele>112.9</ele>
        <time>2020-06-28T07:40:13Z</time>
      </trkpt>
      <trkpt lat="48.90467" lon="8.13187">
        <ele>112.9</ele>
        <time>2020-06-28T07:40:14Z</time>
      </trkpt>
      <trkpt lat="48.9046" lon="8.13197">
        <ele>112.8</ele>
        <time>2020-06-28T07:40:15Z</time>
      </trkpt>
      <trkpt lat="48.90454" lon="8.13206">
        <ele>112.8</ele>
        <time>2020-06-28T07:40:16Z</time>
      </trkpt>
      <trkpt lat="48.90448" lon="8.13213">
        <ele>112.8</ele>
        <time>2020-06-28T07:40:17Z</time>
      </trkpt>
      <trkpt lat="48.90441" lon="8.13221">
        <ele>112.9</ele>
        <time>2020-06-28T07:40:18Z</time>
      </trkpt>
      <trkpt lat="48.90436" lon="8.13228">
        <ele>112.9</ele>
        <time>2020-06-28T07:40:19Z</time>
      </trkpt>
      <trkpt lat="48.90429" lon="8.13235">
        <ele>112.9</ele>
        <time>2020-06-28T07:40:20Z</time>
      </trkpt>
      <trkpt lat="48.90423" lon="8.13242">
        <ele>112.9</ele>
        <time>2020-06-28T07:40:21Z</time>
      </trkpt>
      <trkpt lat="48.90418" lon="8.13249">
        <ele>112.9</ele>
        <time>2020-06-28T07:40:22Z</time>
      </trkpt>
      <trkpt lat="48.90413" lon="8.13254">
        <ele>112.9</ele>
        <time>2020-06-28T07:40:23Z</time>
      </trkpt>
      <trkpt lat="48.90408" lon="8.1326">
        <ele>113</ele>
        <time>2020-06-28T07:40:24Z</time>
      </trkpt>
      <trkpt lat="48.90402" lon="8.13266">
        <ele>113</ele>
        <time>2020-06-28T07:40:25Z</time>
      </trkpt>
      <trkpt lat="48.90395" lon="8.13271">
        <ele>113</ele>
        <time>2020-06-28T07:40:26Z</time>
      </trkpt>
      <trkpt lat="48.90389" lon="8.13278">
        <ele>113</ele>
        <time>2020-06-28T07:40:27Z</time>
      </trkpt>
      <trkpt lat="48.90384" lon="8.13285">
        <ele>113</ele>
        <time>2020-06-28T07:40:28Z</time>
      </trkpt>
      <trkpt lat="48.90379" lon="8.13291">
        <ele>113.1</ele>
        <time>2020-06-28T07:40:29Z</time>
      </trkpt>
      <trkpt lat="48.90373" lon="8.13298">
        <ele>113.1</ele>
        <time>2020-06-28T07:40:30Z</time>
      </trkpt>
      <trkpt lat="48.90368" lon="8.13302">
        <ele>113.1</ele>
        <time>2020-06-28T07:40:31Z</time>
      </trkpt>
      <trkpt lat="48.90364" lon="8.13308">
        <ele>113.2</ele>
        <time>2020-06-28T07:40:32Z</time>
      </trkpt>
      <trkpt lat="48.90359" lon="8.13314">
        <ele>113.2</ele>
        <time>2020-06-28T07:40:33Z</time>
      </trkpt>
      <trkpt lat="48.90352" lon="8.13321">
        <ele>113.2</ele>
        <time>2020-06-28T07:40:34Z</time>
      </trkpt>
      <trkpt lat="48.90348" lon="8.13326">
        <ele>113.1</ele>
        <time>2020-06-28T07:40:35Z</time>
      </trkpt>
      <trkpt lat="48.90343" lon="8.13334">
        <ele>113.1</ele>
        <time>2020-06-28T07:40:36Z</time>
      </trkpt>
      <trkpt lat="48.90338" lon="8.1334">
        <ele>113.1</ele>
        <time>2020-06-28T07:40:37Z</time>
      </trkpt>
      <trkpt lat="48.90331" lon="8.13347">
        <ele>113.1</ele>
        <time>2020-06-28T07:40:38Z</time>
      </trkpt>
      <trkpt lat="48.90324" lon="8.13355">
        <ele>113.1</ele>
        <time>2020-06-28T07:40:39Z</time>
      </trkpt>
      <trkpt lat="48.90318" lon="8.13362">
        <ele>113</ele>
        <time>2020-06-28T07:40:40Z</time>
      </trkpt>
      <trkpt lat="48.90312" lon="8.13368">
        <ele>113</ele>
        <time>2020-06-28T07:40:41Z</time>
      </trkpt>
      <trkpt lat="48.90306" lon="8.13376">
        <ele>113.1</ele>
        <time>2020-06-28T07:40:42Z</time>
      </trkpt>
      <trkpt lat="48.903" lon="8.13382">
        <ele>113.1</ele>
        <time>2020-06-28T07:40:43Z</time>
      </trkpt>
      <trkpt lat="48.90295" lon="8.1339">
        <ele>113.1</ele>
        <time>2020-06-28T07:40:44Z</time>
      </trkpt>
      <trkpt lat="48.90289" lon="8.13397">
        <ele>113.1</ele>
        <time>2020-06-28T07:40:45Z</time>
      </trkpt>
      <trkpt lat="48.90283" lon="8.13404">
        <ele>113.1</ele>
        <time>2020-06-28T07:40:46Z</time>
      </trkpt>
      <trkpt lat="48.90277" lon="8.13412">
        <ele>113.1</ele>
        <time>2020-06-28T07:40:47Z</time>
      </trkpt>
      <trkpt lat="48.90272" lon="8.13418">
        <ele>113</ele>
        <time>2020-06-28T07:40:48Z</time>
      </trkpt>
      <trkpt lat="48.90267" lon="8.13424">
        <ele>113</ele>
        <time>2020-06-28T07:40:49Z</time>
      </trkpt>
      <trkpt lat="48.90262" lon="8.13432">
        <ele>113</ele>
        <time>2020-06-28T07:40:50Z</time>
      </trkpt>
      <trkpt lat="48.90256" lon="8.13439">
        <ele>113.1</ele>
        <time>2020-06-28T07:40:51Z</time>
      </trkpt>
      <trkpt lat="48.9025" lon="8.13445">
        <ele>113.2</ele>
        <time>2020-06-28T07:40:52Z</time>
      </trkpt>
      <trkpt lat="48.90244" lon="8.13452">
        <ele>113.3</ele>
        <time>2020-06-28T07:40:53Z</time>
      </trkpt>
      <trkpt lat="48.90238" lon="8.13459">
        <ele>113.5</ele>
        <time>2020-06-28T07:40:54Z</time>
      </trkpt>
      <trkpt lat="48.90232" lon="8.13466">
        <ele>113.6</ele>
        <time>2020-06-28T07:40:55Z</time>
      </trkpt>
      <trkpt lat="48.90227" lon="8.13473">
        <ele>113.8</ele>
        <time>2020-06-28T07:40:56Z</time>
      </trkpt>
      <trkpt lat="48.90222" lon="8.13479">
        <ele>114</ele>
        <time>2020-06-28T07:40:57Z</time>
      </trkpt>
      <trkpt lat="48.90216" lon="8.13486">
        <ele>114.2</ele>
        <time>2020-06-28T07:40:58Z</time>
      </trkpt>
      <trkpt lat="48.90212" lon="8.13492">
        <ele>114.2</ele>
        <time>2020-06-28T07:40:59Z</time>
      </trkpt>
      <trkpt lat="48.90206" lon="8.13497">
        <ele>114.3</ele>
        <time>2020-06-28T07:41:00Z</time>
      </trkpt>
      <trkpt lat="48.902" lon="8.13501">
        <ele>114.3</ele>
        <time>2020-06-28T07:41:01Z</time>
      </trkpt>
      <trkpt lat="48.90195" lon="8.13507">
        <ele>114.3</ele>
        <time>2020-06-28T07:41:02Z</time>
      </trkpt>
      <trkpt lat="48.90189" lon="8.13513">
        <ele>114.4</ele>
        <time>2020-06-28T07:41:03Z</time>
      </trkpt>
      <trkpt lat="48.90183" lon="8.13517">
        <ele>114.4</ele>
        <time>2020-06-28T07:41:04Z</time>
      </trkpt>
      <trkpt lat="48.90177" lon="8.13522">
        <ele>114.4</ele>
        <time>2020-06-28T07:41:05Z</time>
      </trkpt>
      <trkpt lat="48.90172" lon="8.13528">
        <ele>114.4</ele>
        <time>2020-06-28T07:41:06Z</time>
      </trkpt>
      <trkpt lat="48.90167" lon="8.13534">
        <ele>114.5</ele>
        <time>2020-06-28T07:41:07Z</time>
      </trkpt>
      <trkpt lat="48.90161" lon="8.1354">
        <ele>114.5</ele>
        <time>2020-06-28T07:41:08Z</time>
      </trkpt>
      <trkpt lat="48.90156" lon="8.13547">
        <ele>114.4</ele>
        <time>2020-06-28T07:41:09Z</time>
      </trkpt>
      <trkpt lat="48.9015" lon="8.13553">
        <ele>114.4</ele>
        <time>2020-06-28T07:41:10Z</time>
      </trkpt>
      <trkpt lat="48.90144" lon="8.13559">
        <ele>114.4</ele>
        <time>2020-06-28T07:41:11Z</time>
      </trkpt>
      <trkpt lat="48.90138" lon="8.13563">
        <ele>114.4</ele>
        <time>2020-06-28T07:41:12Z</time>
      </trkpt>
      <trkpt lat="48.90133" lon="8.13568">
        <ele>114.3</ele>
        <time>2020-06-28T07:41:13Z</time>
      </trkpt>
      <trkpt lat="48.90128" lon="8.13572">
        <ele>114.3</ele>
        <time>2020-06-28T07:41:14Z</time>
      </trkpt>
      <trkpt lat="48.90123" lon="8.13577">
        <ele>114.3</ele>
        <time>2020-06-28T07:41:15Z</time>
      </trkpt>
      <trkpt lat="48.90117" lon="8.13581">
        <ele>114.3</ele>
        <time>2020-06-28T07:41:16Z</time>
      </trkpt>
      <trkpt lat="48.90112" lon="8.13585">
        <ele>114.3</ele>
        <time>2020-06-28T07:41:17Z</time>
      </trkpt>
      <trkpt lat="48.90107" lon="8.13589">
        <ele>114.3</ele>
        <time>2020-06-28T07:41:18Z</time>
      </trkpt>
      <trkpt lat="48.90101" lon="8.13591">
        <ele>114.4</ele>
        <time>2020-06-28T07:41:19Z</time>
      </trkpt>
      <trkpt lat="48.90095" lon="8.13593">
        <ele>114.4</ele>
        <time>2020-06-28T07:41:20Z</time>
      </trkpt>
      <trkpt lat="48.90088" lon="8.13593">
        <ele>114.4</ele>
        <time>2020-06-28T07:41:21Z</time>
      </trkpt>
      <trkpt lat="48.9008" lon="8.13591">
        <ele>114.5</ele>
        <time>2020-06-28T07:41:22Z</time>
      </trkpt>
      <trkpt lat="48.90073" lon="8.13592">
        <ele>114.5</ele>
        <time>2020-06-28T07:41:23Z</time>
      </trkpt>
      <trkpt lat="48.90065" lon="8.13592">
        <ele>114.5</ele>
        <time>2020-06-28T07:41:24Z</time>
      </trkpt>
      <trkpt lat="48.90058" lon="8.13591">
        <ele>114.6</ele>
        <time>2020-06-28T07:41:25Z</time>
      </trkpt>
      <trkpt lat="48.9005" lon="8.1359">
        <ele>114.6</ele>
        <time>2020-06-28T07:41:26Z</time>
      </trkpt>
      <trkpt lat="48.90043" lon="8.13589">
        <ele>114.6</ele>
        <time>2020-06-28T07:41:27Z</time>
      </trkpt>
      <trkpt lat="48.90035" lon="8.13588">
        <ele>114.6</ele>
        <time>2020-06-28T07:41:28Z</time>
      </trkpt>
      <trkpt lat="48.90028" lon="8.13588">
        <ele>114.7</ele>
        <time>2020-06-28T07:41:29Z</time>
      </trkpt>
      <trkpt lat="48.90022" lon="8.13588">
        <ele>114.7</ele>
        <time>2020-06-28T07:41:30Z</time>
      </trkpt>
      <trkpt lat="48.90015" lon="8.13587">
        <ele>114.6</ele>
        <time>2020-06-28T07:41:31Z</time>
      </trkpt>
      <trkpt lat="48.90008" lon="8.13586">
        <ele>114.6</ele>
        <time>2020-06-28T07:41:32Z</time>
      </trkpt>
      <trkpt lat="48.90002" lon="8.13584">
        <ele>114.5</ele>
        <time>2020-06-28T07:41:33Z</time>
      </trkpt>
      <trkpt lat="48.89995" lon="8.13584">
        <ele>114.5</ele>
        <time>2020-06-28T07:41:34Z</time>
      </trkpt>
      <trkpt lat="48.89989" lon="8.13582">
        <ele>114.6</ele>
        <time>2020-06-28T07:41:35Z</time>
      </trkpt>
      <trkpt lat="48.89982" lon="8.13581">
        <ele>114.6</ele>
        <time>2020-06-28T07:41:36Z</time>
      </trkpt>
      <trkpt lat="48.89975" lon="8.1358">
        <ele>114.6</ele>
        <time>2020-06-28T07:41:37Z</time>
      </trkpt>
      <trkpt lat="48.89969" lon="8.1358">
        <ele>114.6</ele>
        <time>2020-06-28T07:41:38Z</time>
      </trkpt>
      <trkpt lat="48.89962" lon="8.13579">
        <ele>114.6</ele>
        <time>2020-06-28T07:41:39Z</time>
      </trkpt>
      <trkpt lat="48.89955" lon="8.13578">
        <ele>114.6</ele>
        <time>2020-06-28T07:41:40Z</time>
      </trkpt>
      <trkpt lat="48.89949" lon="8.13577">
        <ele>114.6</ele>
        <time>2020-06-28T07:41:41Z</time>
      </trkpt>
      <trkpt lat="48.89942" lon="8.13576">
        <ele>114.7</ele>
        <time>2020-06-28T07:41:42Z</time>
      </trkpt>
      <trkpt lat="48.89935" lon="8.13575">
        <ele>114.7</ele>
        <time>2020-06-28T07:41:43Z</time>
      </trkpt>
      <trkpt lat="48.89928" lon="8.13574">
        <ele>114.7</ele>
        <time>2020-06-28T07:41:44Z</time>
      </trkpt>
      <trkpt lat="48.89921" lon="8.13573">
        <ele>114.6</ele>
        <time>2020-06-28T07:41:45Z</time>
      </trkpt>
      <trkpt lat="48.89914" lon="8.13572">
        <ele>114.6</ele>
        <time>2020-06-28T07:41:46Z</time>
      </trkpt>
      <trkpt lat="48.89908" lon="8.13572">
        <ele>114.6</ele>
        <time>2020-06-28T07:41:47Z</time>
      </trkpt>
      <trkpt lat="48.89901" lon="8.13571">
        <ele>114.6</ele>
        <time>2020-06-28T07:41:48Z</time>
      </trkpt>
      <trkpt lat="48.89894" lon="8.13572">
        <ele>114.6</ele>
        <time>2020-06-28T07:41:49Z</time>
      </trkpt>
      <trkpt lat="48.89888" lon="8.13575">
        <ele>114.6</ele>
        <time>2020-06-28T07:41:50Z</time>
      </trkpt>
      <trkpt lat="48.8988" lon="8.13576">
        <ele>114.6</ele>
        <time>2020-06-28T07:41:51Z</time>
      </trkpt>
      <trkpt lat="48.89873" lon="8.13575">
        <ele>114.6</ele>
        <time>2020-06-28T07:41:52Z</time>
      </trkpt>
      <trkpt lat="48.89866" lon="8.13576">
        <ele>114.5</ele>
        <time>2020-06-28T07:41:53Z</time>
      </trkpt>
      <trkpt lat="48.89859" lon="8.13579">
        <ele>114.5</ele>
        <time>2020-06-28T07:41:54Z</time>
      </trkpt>
      <trkpt lat="48.89852" lon="8.13579">
        <ele>114.5</ele>
        <time>2020-06-28T07:41:55Z</time>
      </trkpt>
      <trkpt lat="48.89846" lon="8.13579">
        <ele>114.5</ele>
        <time>2020-06-28T07:41:56Z</time>
      </trkpt>
      <trkpt lat="48.89839" lon="8.13579">
        <ele>114.5</ele>
        <time>2020-06-28T07:41:57Z</time>
      </trkpt>
      <trkpt lat="48.89833" lon="8.13579">
        <ele>114.5</ele>
        <time>2020-06-28T07:41:58Z</time>
      </trkpt>
      <trkpt lat="48.89826" lon="8.13579">
        <ele>114.5</ele>
        <time>2020-06-28T07:41:59Z</time>
      </trkpt>
      <trkpt lat="48.8982" lon="8.13579">
        <ele>114.5</ele>
        <time>2020-06-28T07:42:00Z</time>
      </trkpt>
      <trkpt lat="48.89813" lon="8.13579">
        <ele>114.5</ele>
        <time>2020-06-28T07:42:01Z</time>
      </trkpt>
      <trkpt lat="48.89807" lon="8.13577">
        <ele>114.5</ele>
        <time>2020-06-28T07:42:02Z</time>
      </trkpt>
      <trkpt lat="48.89801" lon="8.13577">
        <ele>114.5</ele>
        <time>2020-06-28T07:42:03Z</time>
      </trkpt>
      <trkpt lat="48.89795" lon="8.13577">
        <ele>114.5</ele>
        <time>2020-06-28T07:42:04Z</time>
      </trkpt>
      <trkpt lat="48.89789" lon="8.13578">
        <ele>114.5</ele>
        <time>2020-06-28T07:42:05Z</time>
      </trkpt>
      <trkpt lat="48.89784" lon="8.13578">
        <ele>114.5</ele>
        <time>2020-06-28T07:42:06Z</time>
      </trkpt>
      <trkpt lat="48.89778" lon="8.13577">
        <ele>114.4</ele>
        <time>2020-06-28T07:42:07Z</time>
      </trkpt>
      <trkpt lat="48.89771" lon="8.13576">
        <ele>114.4</ele>
        <time>2020-06-28T07:42:08Z</time>
      </trkpt>
      <trkpt lat="48.89765" lon="8.13574">
        <ele>114.4</ele>
        <time>2020-06-28T07:42:09Z</time>
      </trkpt>
      <trkpt lat="48.8976" lon="8.13573">
        <ele>114.4</ele>
        <time>2020-06-28T07:42:10Z</time>
      </trkpt>
      <trkpt lat="48.89755" lon="8.13574">
        <ele>114.4</ele>
        <time>2020-06-28T07:42:11Z</time>
      </trkpt>
      <trkpt lat="48.8975" lon="8.13573">
        <ele>114.5</ele>
        <time>2020-06-28T07:42:12Z</time>
      </trkpt>
      <trkpt lat="48.89745" lon="8.13573">
        <ele>114.5</ele>
        <time>2020-06-28T07:42:13Z</time>
      </trkpt>
      <trkpt lat="48.89739" lon="8.13571">
        <ele>114.5</ele>
        <time>2020-06-28T07:42:14Z</time>
      </trkpt>
      <trkpt lat="48.89734" lon="8.1357">
        <ele>114.5</ele>
        <time>2020-06-28T07:42:15Z</time>
      </trkpt>
      <trkpt lat="48.89728" lon="8.13571">
        <ele>114.5</ele>
        <time>2020-06-28T07:42:16Z</time>
      </trkpt>
      <trkpt lat="48.89723" lon="8.13571">
        <ele>114.5</ele>
        <time>2020-06-28T07:42:17Z</time>
      </trkpt>
      <trkpt lat="48.89717" lon="8.1357">
        <ele>114.5</ele>
        <time>2020-06-28T07:42:18Z</time>
      </trkpt>
      <trkpt lat="48.89711" lon="8.13568">
        <ele>114.5</ele>
        <time>2020-06-28T07:42:19Z</time>
      </trkpt>
      <trkpt lat="48.89703" lon="8.13564">
        <ele>114.5</ele>
        <time>2020-06-28T07:42:20Z</time>
      </trkpt>
      <trkpt lat="48.89695" lon="8.13559">
        <ele>114.4</ele>
        <time>2020-06-28T07:42:21Z</time>
      </trkpt>
      <trkpt lat="48.89686" lon="8.13554">
        <ele>114.4</ele>
        <time>2020-06-28T07:42:22Z</time>
      </trkpt>
      <trkpt lat="48.89678" lon="8.13551">
        <ele>114.4</ele>
        <time>2020-06-28T07:42:23Z</time>
      </trkpt>
      <trkpt lat="48.89669" lon="8.13549">
        <ele>114.4</ele>
        <time>2020-06-28T07:42:24Z</time>
      </trkpt>
      <trkpt lat="48.89662" lon="8.13548">
        <ele>114.4</ele>
        <time>2020-06-28T07:42:25Z</time>
      </trkpt>
      <trkpt lat="48.89654" lon="8.13547">
        <ele>114.4</ele>
        <time>2020-06-28T07:42:26Z</time>
      </trkpt>
      <trkpt lat="48.89649" lon="8.13546">
        <ele>114.4</ele>
        <time>2020-06-28T07:42:27Z</time>
      </trkpt>
      <trkpt lat="48.89643" lon="8.13545">
        <ele>114.4</ele>
        <time>2020-06-28T07:42:28Z</time>
      </trkpt>
      <trkpt lat="48.89637" lon="8.13545">
        <ele>114.4</ele>
        <time>2020-06-28T07:42:29Z</time>
      </trkpt>
      <trkpt lat="48.89631" lon="8.13546">
        <ele>114.4</ele>
        <time>2020-06-28T07:42:30Z</time>
      </trkpt>
      <trkpt lat="48.89625" lon="8.13546">
        <ele>114.3</ele>
        <time>2020-06-28T07:42:31Z</time>
      </trkpt>
      <trkpt lat="48.89617" lon="8.13544">
        <ele>114.3</ele>
        <time>2020-06-28T07:42:32Z</time>
      </trkpt>
      <trkpt lat="48.89611" lon="8.13544">
        <ele>114.2</ele>
        <time>2020-06-28T07:42:33Z</time>
      </trkpt>
      <trkpt lat="48.89605" lon="8.13543">
        <ele>114.2</ele>
        <time>2020-06-28T07:42:34Z</time>
      </trkpt>
      <trkpt lat="48.89598" lon="8.13543">
        <ele>114.2</ele>
        <time>2020-06-28T07:42:35Z</time>
      </trkpt>
      <trkpt lat="48.89592" lon="8.13543">
        <ele>114.2</ele>
        <time>2020-06-28T07:42:36Z</time>
      </trkpt>
      <trkpt lat="48.89585" lon="8.13542">
        <ele>114.2</ele>
        <time>2020-06-28T07:42:37Z</time>
      </trkpt>
      <trkpt lat="48.89579" lon="8.13541">
        <ele>114.3</ele>
        <time>2020-06-28T07:42:38Z</time>
      </trkpt>
      <trkpt lat="48.89572" lon="8.13539">
        <ele>114.3</ele>
        <time>2020-06-28T07:42:39Z</time>
      </trkpt>
      <trkpt lat="48.89566" lon="8.13538">
        <ele>114.3</ele>
        <time>2020-06-28T07:42:40Z</time>
      </trkpt>
      <trkpt lat="48.89558" lon="8.13535">
        <ele>114.4</ele>
        <time>2020-06-28T07:42:41Z</time>
      </trkpt>
      <trkpt lat="48.8955" lon="8.13534">
        <ele>114.4</ele>
        <time>2020-06-28T07:42:42Z</time>
      </trkpt>
      <trkpt lat="48.89544" lon="8.13532">
        <ele>114.4</ele>
        <time>2020-06-28T07:42:43Z</time>
      </trkpt>
      <trkpt lat="48.89538" lon="8.13532">
        <ele>114.4</ele>
        <time>2020-06-28T07:42:44Z</time>
      </trkpt>
      <trkpt lat="48.89531" lon="8.13531">
        <ele>114.4</ele>
        <time>2020-06-28T07:42:45Z</time>
      </trkpt>
      <trkpt lat="48.89524" lon="8.1353">
        <ele>114.4</ele>
        <time>2020-06-28T07:42:46Z</time>
      </trkpt>
      <trkpt lat="48.89519" lon="8.1353">
        <ele>114.4</ele>
        <time>2020-06-28T07:42:47Z</time>
      </trkpt>
      <trkpt lat="48.89514" lon="8.13529">
        <ele>114.4</ele>
        <time>2020-06-28T07:42:48Z</time>
      </trkpt>
      <trkpt lat="48.89507" lon="8.13528">
        <ele>114.4</ele>
        <time>2020-06-28T07:42:49Z</time>
      </trkpt>
      <trkpt lat="48.89502" lon="8.13527">
        <ele>114.4</ele>
        <time>2020-06-28T07:42:50Z</time>
      </trkpt>
      <trkpt lat="48.89494" lon="8.13526">
        <ele>114.4</ele>
        <time>2020-06-28T07:42:51Z</time>
      </trkpt>
      <trkpt lat="48.89488" lon="8.13524">
        <ele>114.4</ele>
        <time>2020-06-28T07:42:52Z</time>
      </trkpt>
      <trkpt lat="48.89482" lon="8.13522">
        <ele>114.4</ele>
        <time>2020-06-28T07:42:53Z</time>
      </trkpt>
      <trkpt lat="48.89476" lon="8.13522">
        <ele>114.4</ele>
        <time>2020-06-28T07:42:54Z</time>
      </trkpt>
      <trkpt lat="48.89472" lon="8.1352">
        <ele>114.4</ele>
        <time>2020-06-28T07:42:55Z</time>
      </trkpt>
      <trkpt lat="48.89467" lon="8.13519">
        <ele>114.5</ele>
        <time>2020-06-28T07:42:56Z</time>
      </trkpt>
      <trkpt lat="48.89461" lon="8.13519">
        <ele>114.5</ele>
        <time>2020-06-28T07:42:57Z</time>
      </trkpt>
      <trkpt lat="48.89455" lon="8.13519">
        <ele>114.5</ele>
        <time>2020-06-28T07:42:58Z</time>
      </trkpt>
      <trkpt lat="48.8945" lon="8.13518">
        <ele>114.5</ele>
        <time>2020-06-28T07:42:59Z</time>
      </trkpt>
      <trkpt lat="48.89445" lon="8.13518">
        <ele>114.5</ele>
        <time>2020-06-28T07:43:00Z</time>
      </trkpt>
      <trkpt lat="48.89439" lon="8.13517">
        <ele>114.5</ele>
        <time>2020-06-28T07:43:01Z</time>
      </trkpt>
      <trkpt lat="48.89432" lon="8.13515">
        <ele>114.5</ele>
        <time>2020-06-28T07:43:02Z</time>
      </trkpt>
      <trkpt lat="48.89426" lon="8.13514">
        <ele>114.6</ele>
        <time>2020-06-28T07:43:03Z</time>
      </trkpt>
      <trkpt lat="48.89421" lon="8.13513">
        <ele>114.6</ele>
        <time>2020-06-28T07:43:04Z</time>
      </trkpt>
      <trkpt lat="48.89413" lon="8.13512">
        <ele>114.6</ele>
        <time>2020-06-28T07:43:05Z</time>
      </trkpt>
      <trkpt lat="48.89406" lon="8.13512">
        <ele>114.6</ele>
        <time>2020-06-28T07:43:06Z</time>
      </trkpt>
      <trkpt lat="48.89401" lon="8.1351">
        <ele>114.7</ele>
        <time>2020-06-28T07:43:07Z</time>
      </trkpt>
      <trkpt lat="48.89395" lon="8.13509">
        <ele>114.7</ele>
        <time>2020-06-28T07:43:08Z</time>
      </trkpt>
      <trkpt lat="48.89388" lon="8.13507">
        <ele>114.7</ele>
        <time>2020-06-28T07:43:09Z</time>
      </trkpt>
      <trkpt lat="48.89381" lon="8.13506">
        <ele>114.7</ele>
        <time>2020-06-28T07:43:10Z</time>
      </trkpt>
      <trkpt lat="48.89375" lon="8.13505">
        <ele>114.7</ele>
        <time>2020-06-28T07:43:11Z</time>
      </trkpt>
      <trkpt lat="48.89368" lon="8.13505">
        <ele>114.7</ele>
        <time>2020-06-28T07:43:12Z</time>
      </trkpt>
      <trkpt lat="48.89361" lon="8.13504">
        <ele>114.8</ele>
        <time>2020-06-28T07:43:13Z</time>
      </trkpt>
      <trkpt lat="48.89355" lon="8.13503">
        <ele>114.8</ele>
        <time>2020-06-28T07:43:14Z</time>
      </trkpt>
      <trkpt lat="48.89348" lon="8.13502">
        <ele>114.8</ele>
        <time>2020-06-28T07:43:15Z</time>
      </trkpt>
      <trkpt lat="48.89341" lon="8.13501">
        <ele>114.8</ele>
        <time>2020-06-28T07:43:16Z</time>
      </trkpt>
      <trkpt lat="48.89335" lon="8.135">
        <ele>114.8</ele>
        <time>2020-06-28T07:43:17Z</time>
      </trkpt>
      <trkpt lat="48.89328" lon="8.13501">
        <ele>114.8</ele>
        <time>2020-06-28T07:43:18Z</time>
      </trkpt>
      <trkpt lat="48.89322" lon="8.13501">
        <ele>114.8</ele>
        <time>2020-06-28T07:43:19Z</time>
      </trkpt>
      <trkpt lat="48.89316" lon="8.13501">
        <ele>114.8</ele>
        <time>2020-06-28T07:43:20Z</time>
      </trkpt>
      <trkpt lat="48.89309" lon="8.13502">
        <ele>114.9</ele>
        <time>2020-06-28T07:43:21Z</time>
      </trkpt>
      <trkpt lat="48.89302" lon="8.13502">
        <ele>114.9</ele>
        <time>2020-06-28T07:43:22Z</time>
      </trkpt>
      <trkpt lat="48.89295" lon="8.13503">
        <ele>114.9</ele>
        <time>2020-06-28T07:43:23Z</time>
      </trkpt>
      <trkpt lat="48.89289" lon="8.13505">
        <ele>114.9</ele>
        <time>2020-06-28T07:43:24Z</time>
      </trkpt>
      <trkpt lat="48.89283" lon="8.13507">
        <ele>114.9</ele>
        <time>2020-06-28T07:43:25Z</time>
      </trkpt>
      <trkpt lat="48.89276" lon="8.13509">
        <ele>114.8</ele>
        <time>2020-06-28T07:43:26Z</time>
      </trkpt>
      <trkpt lat="48.8927" lon="8.13512">
        <ele>114.8</ele>
        <time>2020-06-28T07:43:27Z</time>
      </trkpt>
      <trkpt lat="48.89264" lon="8.13515">
        <ele>114.8</ele>
        <time>2020-06-28T07:43:28Z</time>
      </trkpt>
      <trkpt lat="48.89258" lon="8.13518">
        <ele>114.7</ele>
        <time>2020-06-28T07:43:29Z</time>
      </trkpt>
      <trkpt lat="48.89251" lon="8.13521">
        <ele>114.7</ele>
        <time>2020-06-28T07:43:30Z</time>
      </trkpt>
      <trkpt lat="48.89244" lon="8.13524">
        <ele>114.7</ele>
        <time>2020-06-28T07:43:31Z</time>
      </trkpt>
      <trkpt lat="48.89238" lon="8.13528">
        <ele>114.7</ele>
        <time>2020-06-28T07:43:32Z</time>
      </trkpt>
      <trkpt lat="48.89232" lon="8.13532">
        <ele>114.6</ele>
        <time>2020-06-28T07:43:33Z</time>
      </trkpt>
      <trkpt lat="48.89226" lon="8.13535">
        <ele>114.6</ele>
        <time>2020-06-28T07:43:34Z</time>
      </trkpt>
      <trkpt lat="48.8922" lon="8.13539">
        <ele>114.5</ele>
        <time>2020-06-28T07:43:35Z</time>
      </trkpt>
      <trkpt lat="48.89214" lon="8.13543">
        <ele>114.5</ele>
        <time>2020-06-28T07:43:36Z</time>
      </trkpt>
      <trkpt lat="48.89207" lon="8.13546">
        <ele>114.4</ele>
        <time>2020-06-28T07:43:37Z</time>
      </trkpt>
      <trkpt lat="48.89201" lon="8.1355">
        <ele>114.3</ele>
        <time>2020-06-28T07:43:38Z</time>
      </trkpt>
      <trkpt lat="48.89195" lon="8.13553">
        <ele>114.3</ele>
        <time>2020-06-28T07:43:39Z</time>
      </trkpt>
      <trkpt lat="48.89189" lon="8.13556">
        <ele>114.2</ele>
        <time>2020-06-28T07:43:40Z</time>
      </trkpt>
      <trkpt lat="48.89183" lon="8.13558">
        <ele>114.2</ele>
        <time>2020-06-28T07:43:41Z</time>
      </trkpt>
      <trkpt lat="48.89177" lon="8.13559">
        <ele>114.1</ele>
        <time>2020-06-28T07:43:42Z</time>
      </trkpt>
      <trkpt lat="48.89171" lon="8.1356">
        <ele>114.1</ele>
        <time>2020-06-28T07:43:43Z</time>
      </trkpt>
      <trkpt lat="48.89163" lon="8.1356">
        <ele>114.1</ele>
        <time>2020-06-28T07:43:44Z</time>
      </trkpt>
      <trkpt lat="48.89156" lon="8.13559">
        <ele>114</ele>
        <time>2020-06-28T07:43:45Z</time>
      </trkpt>
      <trkpt lat="48.89149" lon="8.13558">
        <ele>114</ele>
        <time>2020-06-28T07:43:46Z</time>
      </trkpt>
      <trkpt lat="48.89142" lon="8.13555">
        <ele>114</ele>
        <time>2020-06-28T07:43:47Z</time>
      </trkpt>
      <trkpt lat="48.89135" lon="8.13552">
        <ele>114</ele>
        <time>2020-06-28T07:43:48Z</time>
      </trkpt>
      <trkpt lat="48.89129" lon="8.13548">
        <ele>114</ele>
        <time>2020-06-28T07:43:49Z</time>
      </trkpt>
      <trkpt lat="48.89122" lon="8.13544">
        <ele>114</ele>
        <time>2020-06-28T07:43:50Z</time>
      </trkpt>
      <trkpt lat="48.89116" lon="8.13541">
        <ele>114</ele>
        <time>2020-06-28T07:43:51Z</time>
      </trkpt>
      <trkpt lat="48.89109" lon="8.13536">
        <ele>114</ele>
        <time>2020-06-28T07:43:52Z</time>
      </trkpt>
      <trkpt lat="48.89103" lon="8.13531">
        <ele>114</ele>
        <time>2020-06-28T07:43:53Z</time>
      </trkpt>
      <trkpt lat="48.89097" lon="8.13527">
        <ele>114</ele>
        <time>2020-06-28T07:43:54Z</time>
      </trkpt>
      <trkpt lat="48.89091" lon="8.13523">
        <ele>114</ele>
        <time>2020-06-28T07:43:55Z</time>
      </trkpt>
      <trkpt lat="48.89085" lon="8.13518">
        <ele>114</ele>
        <time>2020-06-28T07:43:56Z</time>
      </trkpt>
      <trkpt lat="48.89079" lon="8.13513">
        <ele>114</ele>
        <time>2020-06-28T07:43:57Z</time>
      </trkpt>
      <trkpt lat="48.89073" lon="8.13509">
        <ele>114</ele>
        <time>2020-06-28T07:43:58Z</time>
      </trkpt>
      <trkpt lat="48.89066" lon="8.13505">
        <ele>114</ele>
        <time>2020-06-28T07:43:59Z</time>
      </trkpt>
      <trkpt lat="48.8906" lon="8.13501">
        <ele>114</ele>
        <time>2020-06-28T07:44:00Z</time>
      </trkpt>
      <trkpt lat="48.89054" lon="8.13497">
        <ele>114</ele>
        <time>2020-06-28T07:44:01Z</time>
      </trkpt>
      <trkpt lat="48.89048" lon="8.13493">
        <ele>114</ele>
        <time>2020-06-28T07:44:02Z</time>
      </trkpt>
      <trkpt lat="48.89043" lon="8.13488">
        <ele>114</ele>
        <time>2020-06-28T07:44:03Z</time>
      </trkpt>
      <trkpt lat="48.89037" lon="8.13484">
        <ele>113.9</ele>
        <time>2020-06-28T07:44:04Z</time>
      </trkpt>
      <trkpt lat="48.8903" lon="8.1348">
        <ele>113.9</ele>
        <time>2020-06-28T07:44:05Z</time>
      </trkpt>
      <trkpt lat="48.89025" lon="8.13475">
        <ele>113.9</ele>
        <time>2020-06-28T07:44:06Z</time>
      </trkpt>
      <trkpt lat="48.89019" lon="8.1347">
        <ele>113.9</ele>
        <time>2020-06-28T07:44:07Z</time>
      </trkpt>
      <trkpt lat="48.89012" lon="8.13466">
        <ele>113.9</ele>
        <time>2020-06-28T07:44:08Z</time>
      </trkpt>
      <trkpt lat="48.89006" lon="8.13462">
        <ele>113.9</ele>
        <time>2020-06-28T07:44:09Z</time>
      </trkpt>
      <trkpt lat="48.89" lon="8.13458">
        <ele>113.9</ele>
        <time>2020-06-28T07:44:10Z</time>
      </trkpt>
      <trkpt lat="48.88994" lon="8.13453">
        <ele>113.9</ele>
        <time>2020-06-28T07:44:11Z</time>
      </trkpt>
      <trkpt lat="48.88988" lon="8.1345">
        <ele>113.9</ele>
        <time>2020-06-28T07:44:12Z</time>
      </trkpt>
      <trkpt lat="48.88982" lon="8.13445">
        <ele>113.9</ele>
        <time>2020-06-28T07:44:13Z</time>
      </trkpt>
      <trkpt lat="48.88976" lon="8.1344">
        <ele>113.9</ele>
        <time>2020-06-28T07:44:14Z</time>
      </trkpt>
      <trkpt lat="48.88971" lon="8.13435">
        <ele>114</ele>
        <time>2020-06-28T07:44:15Z</time>
      </trkpt>
      <trkpt lat="48.88965" lon="8.1343">
        <ele>114</ele>
        <time>2020-06-28T07:44:16Z</time>
      </trkpt>
      <trkpt lat="48.8896" lon="8.13423">
        <ele>114</ele>
        <time>2020-06-28T07:44:17Z</time>
      </trkpt>
      <trkpt lat="48.88955" lon="8.13417">
        <ele>114</ele>
        <time>2020-06-28T07:44:18Z</time>
      </trkpt>
      <trkpt lat="48.8895" lon="8.13411">
        <ele>114</ele>
        <time>2020-06-28T07:44:19Z</time>
      </trkpt>
      <trkpt lat="48.88945" lon="8.13403">
        <ele>114</ele>
        <time>2020-06-28T07:44:20Z</time>
      </trkpt>
      <trkpt lat="48.8894" lon="8.13396">
        <ele>114</ele>
        <time>2020-06-28T07:44:21Z</time>
      </trkpt>
      <trkpt lat="48.88936" lon="8.13389">
        <ele>113.9</ele>
        <time>2020-06-28T07:44:22Z</time>
      </trkpt>
      <trkpt lat="48.88931" lon="8.13381">
        <ele>113.9</ele>
        <time>2020-06-28T07:44:23Z</time>
      </trkpt>
      <trkpt lat="48.88926" lon="8.13374">
        <ele>113.9</ele>
        <time>2020-06-28T07:44:24Z</time>
      </trkpt>
      <trkpt lat="48.88922" lon="8.13366">
        <ele>113.9</ele>
        <time>2020-06-28T07:44:25Z</time>
      </trkpt>
      <trkpt lat="48.88919" lon="8.13358">
        <ele>113.8</ele>
        <time>2020-06-28T07:44:26Z</time>
      </trkpt>
      <trkpt lat="48.88915" lon="8.1335">
        <ele>113.8</ele>
        <time>2020-06-28T07:44:27Z</time>
      </trkpt>
      <trkpt lat="48.88912" lon="8.13342">
        <ele>113.8</ele>
        <time>2020-06-28T07:44:28Z</time>
      </trkpt>
      <trkpt lat="48.88909" lon="8.13334">
        <ele>113.9</ele>
        <time>2020-06-28T07:44:29Z</time>
      </trkpt>
      <trkpt lat="48.88905" lon="8.13327">
        <ele>113.9</ele>
        <time>2020-06-28T07:44:30Z</time>
      </trkpt>
      <trkpt lat="48.889" lon="8.13323">
        <ele>114</ele>
        <time>2020-06-28T07:44:31Z</time>
      </trkpt>
      <trkpt lat="48.88894" lon="8.1332">
        <ele>114</ele>
        <time>2020-06-28T07:44:32Z</time>
      </trkpt>
      <trkpt lat="48.88889" lon="8.1332">
        <ele>114</ele>
        <time>2020-06-28T07:44:33Z</time>
      </trkpt>
      <trkpt lat="48.88884" lon="8.13322">
        <ele>114</ele>
        <time>2020-06-28T07:44:34Z</time>
      </trkpt>
      <trkpt lat="48.88878" lon="8.13325">
        <ele>114</ele>
        <time>2020-06-28T07:44:35Z</time>
      </trkpt>
      <trkpt lat="48.88873" lon="8.13328">
        <ele>114</ele>
        <time>2020-06-28T07:44:36Z</time>
      </trkpt>
      <trkpt lat="48.88868" lon="8.13331">
        <ele>114</ele>
        <time>2020-06-28T07:44:37Z</time>
      </trkpt>
      <trkpt lat="48.88862" lon="8.13331">
        <ele>114.1</ele>
        <time>2020-06-28T07:44:38Z</time>
      </trkpt>
      <trkpt lat="48.88857" lon="8.13332">
        <ele>114.2</ele>
        <time>2020-06-28T07:44:39Z</time>
      </trkpt>
      <trkpt lat="48.88851" lon="8.13331">
        <ele>114.2</ele>
        <time>2020-06-28T07:44:40Z</time>
      </trkpt>
      <trkpt lat="48.88846" lon="8.13328">
        <ele>114.3</ele>
        <time>2020-06-28T07:44:41Z</time>
      </trkpt>
      <trkpt lat="48.88842" lon="8.13325">
        <ele>114.3</ele>
        <time>2020-06-28T07:44:42Z</time>
      </trkpt>
      <trkpt lat="48.88838" lon="8.13322">
        <ele>114.4</ele>
        <time>2020-06-28T07:44:43Z</time>
      </trkpt>
      <trkpt lat="48.88834" lon="8.1332">
        <ele>114.4</ele>
        <time>2020-06-28T07:44:44Z</time>
      </trkpt>
      <trkpt lat="48.88831" lon="8.13316">
        <ele>114.4</ele>
        <time>2020-06-28T07:44:45Z</time>
      </trkpt>
      <trkpt lat="48.88828" lon="8.13312">
        <ele>114.5</ele>
        <time>2020-06-28T07:44:46Z</time>
      </trkpt>
      <trkpt lat="48.88825" lon="8.13309">
        <ele>114.5</ele>
        <time>2020-06-28T07:44:47Z</time>
      </trkpt>
      <trkpt lat="48.88822" lon="8.13308">
        <ele>114.5</ele>
        <time>2020-06-28T07:44:48Z</time>
      </trkpt>
      <trkpt lat="48.88819" lon="8.13305">
        <ele>114.6</ele>
        <time>2020-06-28T07:44:49Z</time>
      </trkpt>
      <trkpt lat="48.88816" lon="8.13303">
        <ele>114.6</ele>
        <time>2020-06-28T07:44:50Z</time>
      </trkpt>
      <trkpt lat="48.88812" lon="8.13302">
        <ele>114.6</ele>
        <time>2020-06-28T07:44:51Z</time>
      </trkpt>
      <trkpt lat="48.88808" lon="8.13302">
        <ele>114.6</ele>
        <time>2020-06-28T07:44:52Z</time>
      </trkpt>
      <trkpt lat="48.88805" lon="8.13303">
        <ele>114.6</ele>
        <time>2020-06-28T07:44:53Z</time>
      </trkpt>
      <trkpt lat="48.88802" lon="8.13305">
        <ele>114.6</ele>
        <time>2020-06-28T07:44:54Z</time>
      </trkpt>
      <trkpt lat="48.88801" lon="8.13309">
        <ele>114.6</ele>
        <time>2020-06-28T07:44:55Z</time>
      </trkpt>
      <trkpt lat="48.88799" lon="8.13314">
        <ele>114.6</ele>
        <time>2020-06-28T07:44:56Z</time>
      </trkpt>
      <trkpt lat="48.88796" lon="8.13319">
        <ele>114.5</ele>
        <time>2020-06-28T07:44:57Z</time>
      </trkpt>
      <trkpt lat="48.88792" lon="8.13322">
        <ele>114.4</ele>
        <time>2020-06-28T07:44:58Z</time>
      </trkpt>
      <trkpt lat="48.88786" lon="8.13324">
        <ele>114.3</ele>
        <time>2020-06-28T07:44:59Z</time>
      </trkpt>
      <trkpt lat="48.8878" lon="8.13322">
        <ele>114.2</ele>
        <time>2020-06-28T07:45:00Z</time>
      </trkpt>
      <trkpt lat="48.88774" lon="8.13318">
        <ele>114</ele>
        <time>2020-06-28T07:45:01Z</time>
      </trkpt>
      <trkpt lat="48.88769" lon="8.13313">
        <ele>113.9</ele>
        <time>2020-06-28T07:45:02Z</time>
      </trkpt>
      <trkpt lat="48.88763" lon="8.13309">
        <ele>113.8</ele>
        <time>2020-06-28T07:45:03Z</time>
      </trkpt>
      <trkpt lat="48.88758" lon="8.13305">
        <ele>113.8</ele>
        <time>2020-06-28T07:45:04Z</time>
      </trkpt>
      <trkpt lat="48.88751" lon="8.13302">
        <ele>113.7</ele>
        <time>2020-06-28T07:45:05Z</time>
      </trkpt>
      <trkpt lat="48.88745" lon="8.13299">
        <ele>113.6</ele>
        <time>2020-06-28T07:45:06Z</time>
      </trkpt>
      <trkpt lat="48.88739" lon="8.13295">
        <ele>113.6</ele>
        <time>2020-06-28T07:45:07Z</time>
      </trkpt>
      <trkpt lat="48.88733" lon="8.13291">
        <ele>113.5</ele>
        <time>2020-06-28T07:45:08Z</time>
      </trkpt>
      <trkpt lat="48.88727" lon="8.13287">
        <ele>113.5</ele>
        <time>2020-06-28T07:45:09Z</time>
      </trkpt>
      <trkpt lat="48.88721" lon="8.13282">
        <ele>113.5</ele>
        <time>2020-06-28T07:45:10Z</time>
      </trkpt>
      <trkpt lat="48.88716" lon="8.13279">
        <ele>113.5</ele>
        <time>2020-06-28T07:45:11Z</time>
      </trkpt>
      <trkpt lat="48.8871" lon="8.13276">
        <ele>113.5</ele>
        <time>2020-06-28T07:45:12Z</time>
      </trkpt>
      <trkpt lat="48.88705" lon="8.13273">
        <ele>113.5</ele>
        <time>2020-06-28T07:45:13Z</time>
      </trkpt>
      <trkpt lat="48.887" lon="8.13269">
        <ele>113.5</ele>
        <time>2020-06-28T07:45:14Z</time>
      </trkpt>
      <trkpt lat="48.88695" lon="8.13266">
        <ele>113.5</ele>
        <time>2020-06-28T07:45:15Z</time>
      </trkpt>
      <trkpt lat="48.88692" lon="8.13263">
        <ele>113.5</ele>
        <time>2020-06-28T07:45:16Z</time>
      </trkpt>
      <trkpt lat="48.88688" lon="8.13261">
        <ele>113.5</ele>
        <time>2020-06-28T07:45:17Z</time>
      </trkpt>
      <trkpt lat="48.88686" lon="8.13258">
        <ele>113.5</ele>
        <time>2020-06-28T07:45:18Z</time>
      </trkpt>
      <trkpt lat="48.88685" lon="8.13257">
        <ele>113.5</ele>
        <time>2020-06-28T07:45:19Z</time>
      </trkpt>
      <trkpt lat="48.88684" lon="8.13257">
        <ele>113.5</ele>
        <time>2020-06-28T07:45:20Z</time>
      </trkpt>
      <trkpt lat="48.88683" lon="8.13257">
        <ele>113.5</ele>
        <time>2020-06-28T07:45:21Z</time>
      </trkpt>
      <trkpt lat="48.88683" lon="8.13258">
        <ele>113.5</ele>
        <time>2020-06-28T07:45:22Z</time>
      </trkpt>
      <trkpt lat="48.88683" lon="8.13258">
        <ele>113.5</ele>
        <time>2020-06-28T07:45:23Z</time>
      </trkpt>
      <trkpt lat="48.88684" lon="8.13258">
        <ele>113.5</ele>
        <time>2020-06-28T07:45:24Z</time>
      </trkpt>
      <trkpt lat="48.88685" lon="8.13259">
        <ele>113.5</ele>
        <time>2020-06-28T07:45:25Z</time>
      </trkpt>
      <trkpt lat="48.88685" lon="8.13259">
        <ele>113.5</ele>
        <time>2020-06-28T07:45:26Z</time>
      </trkpt>
      <trkpt lat="48.88686" lon="8.13259">
        <ele>113.5</ele>
        <time>2020-06-28T07:45:27Z</time>
      </trkpt>
      <trkpt lat="48.88686" lon="8.1326">
        <ele>113.5</ele>
        <time>2020-06-28T07:45:28Z</time>
      </trkpt>
      <trkpt lat="48.88687" lon="8.1326">
        <ele>113.5</ele>
        <time>2020-06-28T07:45:29Z</time>
      </trkpt>
      <trkpt lat="48.88687" lon="8.1326">
        <ele>113.5</ele>
        <time>2020-06-28T07:45:30Z</time>
      </trkpt>
      <trkpt lat="48.8869" lon="8.13263">
        <ele>113.5</ele>
        <time>2020-06-28T07:45:31Z</time>
      </trkpt>
      <trkpt lat="48.88692" lon="8.13266">
        <ele>113.5</ele>
        <time>2020-06-28T07:45:32Z</time>
      </trkpt>
      <trkpt lat="48.88694" lon="8.1327">
        <ele>113.5</ele>
        <time>2020-06-28T07:45:33Z</time>
      </trkpt>
      <trkpt lat="48.88696" lon="8.13274">
        <ele>113.5</ele>
        <time>2020-06-28T07:45:34Z</time>
      </trkpt>
      <trkpt lat="48.88699" lon="8.13276">
        <ele>113.5</ele>
        <time>2020-06-28T07:45:35Z</time>
      </trkpt>
      <trkpt lat="48.88702" lon="8.13276">
        <ele>113.5</ele>
        <time>2020-06-28T07:45:36Z</time>
      </trkpt>
      <trkpt lat="48.88704" lon="8.13273">
        <ele>113.6</ele>
        <time>2020-06-28T07:45:37Z</time>
      </trkpt>
      <trkpt lat="48.88705" lon="8.13271">
        <ele>113.6</ele>
        <time>2020-06-28T07:45:38Z</time>
      </trkpt>
      <trkpt lat="48.88705" lon="8.13266">
        <ele>113.7</ele>
        <time>2020-06-28T07:45:39Z</time>
      </trkpt>
      <trkpt lat="48.88706" lon="8.1326">
        <ele>113.8</ele>
        <time>2020-06-28T07:45:40Z</time>
      </trkpt>
      <trkpt lat="48.88706" lon="8.13257">
        <ele>113.8</ele>
        <time>2020-06-28T07:45:41Z</time>
      </trkpt>
      <trkpt lat="48.88707" lon="8.13252">
        <ele>113.8</ele>
        <time>2020-06-28T07:45:42Z</time>
      </trkpt>
      <trkpt lat="48.88707" lon="8.13246">
        <ele>113.9</ele>
        <time>2020-06-28T07:45:43Z</time>
      </trkpt>
      <trkpt lat="48.88708" lon="8.13239">
        <ele>114</ele>
        <time>2020-06-28T07:45:44Z</time>
      </trkpt>
      <trkpt lat="48.88707" lon="8.13232">
        <ele>114</ele>
        <time>2020-06-28T07:45:45Z</time>
      </trkpt>
      <trkpt lat="48.88708" lon="8.13224">
        <ele>114</ele>
        <time>2020-06-28T07:45:46Z</time>
      </trkpt>
      <trkpt lat="48.88706" lon="8.13216">
        <ele>114</ele>
        <time>2020-06-28T07:45:47Z</time>
      </trkpt>
      <trkpt lat="48.88706" lon="8.13209">
        <ele>114.1</ele>
        <time>2020-06-28T07:45:48Z</time>
      </trkpt>
      <trkpt lat="48.88705" lon="8.13201">
        <ele>114.1</ele>
        <time>2020-06-28T07:45:49Z</time>
      </trkpt>
      <trkpt lat="48.88705" lon="8.13193">
        <ele>114.1</ele>
        <time>2020-06-28T07:45:50Z</time>
      </trkpt>
      <trkpt lat="48.88703" lon="8.13184">
        <ele>114.2</ele>
        <time>2020-06-28T07:45:51Z</time>
      </trkpt>
      <trkpt lat="48.88702" lon="8.13175">
        <ele>114.2</ele>
        <time>2020-06-28T07:45:52Z</time>
      </trkpt>
      <trkpt lat="48.88699" lon="8.13163">
        <ele>114.3</ele>
        <time>2020-06-28T07:45:53Z</time>
      </trkpt>
      <trkpt lat="48.88698" lon="8.13153">
        <ele>114.3</ele>
        <time>2020-06-28T07:45:54Z</time>
      </trkpt>
      <trkpt lat="48.88696" lon="8.13145">
        <ele>114.3</ele>
        <time>2020-06-28T07:45:55Z</time>
      </trkpt>
      <trkpt lat="48.88695" lon="8.13137">
        <ele>114.3</ele>
        <time>2020-06-28T07:45:56Z</time>
      </trkpt>
      <trkpt lat="48.88695" lon="8.13126">
        <ele>114.3</ele>
        <time>2020-06-28T07:45:57Z</time>
      </trkpt>
      <trkpt lat="48.88693" lon="8.13116">
        <ele>114.4</ele>
        <time>2020-06-28T07:45:58Z</time>
      </trkpt>
      <trkpt lat="48.88692" lon="8.13106">
        <ele>114.4</ele>
        <time>2020-06-28T07:45:59Z</time>
      </trkpt>
      <trkpt lat="48.88691" lon="8.13096">
        <ele>114.4</ele>
        <time>2020-06-28T07:46:00Z</time>
      </trkpt>
      <trkpt lat="48.88689" lon="8.13087">
        <ele>114.5</ele>
        <time>2020-06-28T07:46:01Z</time>
      </trkpt>
      <trkpt lat="48.88687" lon="8.13077">
        <ele>114.6</ele>
        <time>2020-06-28T07:46:02Z</time>
      </trkpt>
      <trkpt lat="48.88686" lon="8.13069">
        <ele>114.6</ele>
        <time>2020-06-28T07:46:03Z</time>
      </trkpt>
      <trkpt lat="48.88684" lon="8.13059">
        <ele>114.7</ele>
        <time>2020-06-28T07:46:04Z</time>
      </trkpt>
      <trkpt lat="48.88683" lon="8.1305">
        <ele>114.8</ele>
        <time>2020-06-28T07:46:05Z</time>
      </trkpt>
      <trkpt lat="48.88682" lon="8.13043">
        <ele>114.9</ele>
        <time>2020-06-28T07:46:06Z</time>
      </trkpt>
      <trkpt lat="48.88681" lon="8.13036">
        <ele>115</ele>
        <time>2020-06-28T07:46:07Z</time>
      </trkpt>
      <trkpt lat="48.88683" lon="8.1303">
        <ele>115.1</ele>
        <time>2020-06-28T07:46:08Z</time>
      </trkpt>
      <trkpt lat="48.88683" lon="8.13025">
        <ele>115.2</ele>
        <time>2020-06-28T07:46:09Z</time>
      </trkpt>
      <trkpt lat="48.88682" lon="8.13023">
        <ele>115.2</ele>
        <time>2020-06-28T07:46:10Z</time>
      </trkpt>
      <trkpt lat="48.8868" lon="8.13021">
        <ele>115.2</ele>
        <time>2020-06-28T07:46:11Z</time>
      </trkpt>
      <trkpt lat="48.88678" lon="8.13021">
        <ele>115.4</ele>
        <time>2020-06-28T07:46:12Z</time>
      </trkpt>
      <trkpt lat="48.88674" lon="8.13018">
        <ele>115.4</ele>
        <time>2020-06-28T07:46:13Z</time>
      </trkpt>
      <trkpt lat="48.8867" lon="8.13014">
        <ele>115.4</ele>
        <time>2020-06-28T07:46:14Z</time>
      </trkpt>
      <trkpt lat="48.88665" lon="8.1301">
        <ele>115.4</ele>
        <time>2020-06-28T07:46:15Z</time>
      </trkpt>
      <trkpt lat="48.88661" lon="8.13006">
        <ele>115.4</ele>
        <time>2020-06-28T07:46:16Z</time>
      </trkpt>
      <trkpt lat="48.88658" lon="8.13003">
        <ele>115.4</ele>
        <time>2020-06-28T07:46:17Z</time>
      </trkpt>
      <trkpt lat="48.88651" lon="8.12999">
        <ele>115.4</ele>
        <time>2020-06-28T07:46:18Z</time>
      </trkpt>
      <trkpt lat="48.88646" lon="8.12995">
        <ele>115.4</ele>
        <time>2020-06-28T07:46:19Z</time>
      </trkpt>
      <trkpt lat="48.88641" lon="8.12991">
        <ele>115.4</ele>
        <time>2020-06-28T07:46:20Z</time>
      </trkpt>
      <trkpt lat="48.88636" lon="8.12987">
        <ele>115.5</ele>
        <time>2020-06-28T07:46:21Z</time>
      </trkpt>
      <trkpt lat="48.88629" lon="8.12982">
        <ele>115.5</ele>
        <time>2020-06-28T07:46:22Z</time>
      </trkpt>
      <trkpt lat="48.88625" lon="8.12978">
        <ele>115.5</ele>
        <time>2020-06-28T07:46:23Z</time>
      </trkpt>
      <trkpt lat="48.88619" lon="8.12972">
        <ele>115.5</ele>
        <time>2020-06-28T07:46:24Z</time>
      </trkpt>
      <trkpt lat="48.88613" lon="8.12967">
        <ele>115.5</ele>
        <time>2020-06-28T07:46:25Z</time>
      </trkpt>
      <trkpt lat="48.88608" lon="8.12965">
        <ele>115.5</ele>
        <time>2020-06-28T07:46:26Z</time>
      </trkpt>
      <trkpt lat="48.88602" lon="8.1296">
        <ele>115.5</ele>
        <time>2020-06-28T07:46:27Z</time>
      </trkpt>
      <trkpt lat="48.88597" lon="8.12957">
        <ele>115.5</ele>
        <time>2020-06-28T07:46:28Z</time>
      </trkpt>
      <trkpt lat="48.88591" lon="8.12953">
        <ele>115.5</ele>
        <time>2020-06-28T07:46:29Z</time>
      </trkpt>
      <trkpt lat="48.88585" lon="8.12948">
        <ele>115.5</ele>
        <time>2020-06-28T07:46:30Z</time>
      </trkpt>
      <trkpt lat="48.8858" lon="8.12943">
        <ele>115.5</ele>
        <time>2020-06-28T07:46:31Z</time>
      </trkpt>
      <trkpt lat="48.88574" lon="8.12939">
        <ele>115.5</ele>
        <time>2020-06-28T07:46:32Z</time>
      </trkpt>
      <trkpt lat="48.88569" lon="8.12934">
        <ele>115.5</ele>
        <time>2020-06-28T07:46:33Z</time>
      </trkpt>
      <trkpt lat="48.88563" lon="8.12929">
        <ele>115.5</ele>
        <time>2020-06-28T07:46:34Z</time>
      </trkpt>
      <trkpt lat="48.88558" lon="8.12924">
        <ele>115.5</ele>
        <time>2020-06-28T07:46:35Z</time>
      </trkpt>
      <trkpt lat="48.88552" lon="8.12919">
        <ele>115.5</ele>
        <time>2020-06-28T07:46:36Z</time>
      </trkpt>
      <trkpt lat="48.88546" lon="8.12914">
        <ele>115.5</ele>
        <time>2020-06-28T07:46:37Z</time>
      </trkpt>
      <trkpt lat="48.8854" lon="8.12909">
        <ele>115.5</ele>
        <time>2020-06-28T07:46:38Z</time>
      </trkpt>
      <trkpt lat="48.88534" lon="8.12904">
        <ele>115.4</ele>
        <time>2020-06-28T07:46:39Z</time>
      </trkpt>
      <trkpt lat="48.88528" lon="8.12899">
        <ele>115.4</ele>
        <time>2020-06-28T07:46:40Z</time>
      </trkpt>
      <trkpt lat="48.88522" lon="8.12894">
        <ele>115.4</ele>
        <time>2020-06-28T07:46:41Z</time>
      </trkpt>
      <trkpt lat="48.88517" lon="8.12891">
        <ele>115.5</ele>
        <time>2020-06-28T07:46:42Z</time>
      </trkpt>
      <trkpt lat="48.88512" lon="8.12888">
        <ele>115.5</ele>
        <time>2020-06-28T07:46:43Z</time>
      </trkpt>
      <trkpt lat="48.88507" lon="8.12884">
        <ele>115.5</ele>
        <time>2020-06-28T07:46:44Z</time>
      </trkpt>
      <trkpt lat="48.88502" lon="8.12881">
        <ele>115.5</ele>
        <time>2020-06-28T07:46:45Z</time>
      </trkpt>
      <trkpt lat="48.88495" lon="8.12876">
        <ele>115.5</ele>
        <time>2020-06-28T07:46:46Z</time>
      </trkpt>
      <trkpt lat="48.8849" lon="8.12872">
        <ele>115.5</ele>
        <time>2020-06-28T07:46:47Z</time>
      </trkpt>
      <trkpt lat="48.88485" lon="8.12867">
        <ele>115.5</ele>
        <time>2020-06-28T07:46:48Z</time>
      </trkpt>
      <trkpt lat="48.88479" lon="8.12862">
        <ele>115.5</ele>
        <time>2020-06-28T07:46:49Z</time>
      </trkpt>
      <trkpt lat="48.88473" lon="8.12858">
        <ele>115.5</ele>
        <time>2020-06-28T07:46:50Z</time>
      </trkpt>
      <trkpt lat="48.88469" lon="8.12854">
        <ele>115.5</ele>
        <time>2020-06-28T07:46:51Z</time>
      </trkpt>
      <trkpt lat="48.88462" lon="8.12849">
        <ele>115.6</ele>
        <time>2020-06-28T07:46:52Z</time>
      </trkpt>
      <trkpt lat="48.88457" lon="8.12846">
        <ele>115.6</ele>
        <time>2020-06-28T07:46:53Z</time>
      </trkpt>
      <trkpt lat="48.8845" lon="8.12842">
        <ele>115.6</ele>
        <time>2020-06-28T07:46:54Z</time>
      </trkpt>
      <trkpt lat="48.88444" lon="8.12837">
        <ele>115.5</ele>
        <time>2020-06-28T07:46:55Z</time>
      </trkpt>
      <trkpt lat="48.88439" lon="8.12834">
        <ele>115.5</ele>
        <time>2020-06-28T07:46:56Z</time>
      </trkpt>
      <trkpt lat="48.88434" lon="8.12831">
        <ele>115.5</ele>
        <time>2020-06-28T07:46:57Z</time>
      </trkpt>
      <trkpt lat="48.88427" lon="8.12826">
        <ele>115.5</ele>
        <time>2020-06-28T07:46:58Z</time>
      </trkpt>
      <trkpt lat="48.88421" lon="8.12822">
        <ele>115.5</ele>
        <time>2020-06-28T07:46:59Z</time>
      </trkpt>
      <trkpt lat="48.88415" lon="8.12818">
        <ele>115.5</ele>
        <time>2020-06-28T07:47:00Z</time>
      </trkpt>
      <trkpt lat="48.88409" lon="8.12814">
        <ele>115.5</ele>
        <time>2020-06-28T07:47:01Z</time>
      </trkpt>
      <trkpt lat="48.88403" lon="8.12809">
        <ele>115.5</ele>
        <time>2020-06-28T07:47:02Z</time>
      </trkpt>
      <trkpt lat="48.88397" lon="8.12805">
        <ele>115.4</ele>
        <time>2020-06-28T07:47:03Z</time>
      </trkpt>
      <trkpt lat="48.88392" lon="8.12801">
        <ele>115.4</ele>
        <time>2020-06-28T07:47:04Z</time>
      </trkpt>
      <trkpt lat="48.88387" lon="8.12798">
        <ele>115.4</ele>
        <time>2020-06-28T07:47:05Z</time>
      </trkpt>
      <trkpt lat="48.88381" lon="8.12796">
        <ele>115.4</ele>
        <time>2020-06-28T07:47:06Z</time>
      </trkpt>
      <trkpt lat="48.88375" lon="8.12792">
        <ele>115.4</ele>
        <time>2020-06-28T07:47:07Z</time>
      </trkpt>
      <trkpt lat="48.88369" lon="8.12788">
        <ele>115.4</ele>
        <time>2020-06-28T07:47:08Z</time>
      </trkpt>
      <trkpt lat="48.88364" lon="8.12784">
        <ele>115.3</ele>
        <time>2020-06-28T07:47:09Z</time>
      </trkpt>
      <trkpt lat="48.88359" lon="8.12781">
        <ele>115.3</ele>
        <time>2020-06-28T07:47:10Z</time>
      </trkpt>
      <trkpt lat="48.88353" lon="8.12778">
        <ele>115.3</ele>
        <time>2020-06-28T07:47:11Z</time>
      </trkpt>
      <trkpt lat="48.88347" lon="8.12774">
        <ele>115.3</ele>
        <time>2020-06-28T07:47:12Z</time>
      </trkpt>
      <trkpt lat="48.88341" lon="8.1277">
        <ele>115.3</ele>
        <time>2020-06-28T07:47:13Z</time>
      </trkpt>
      <trkpt lat="48.88334" lon="8.12765">
        <ele>115.3</ele>
        <time>2020-06-28T07:47:14Z</time>
      </trkpt>
      <trkpt lat="48.88329" lon="8.12761">
        <ele>115.3</ele>
        <time>2020-06-28T07:47:15Z</time>
      </trkpt>
      <trkpt lat="48.88322" lon="8.12757">
        <ele>115.3</ele>
        <time>2020-06-28T07:47:16Z</time>
      </trkpt>
      <trkpt lat="48.88317" lon="8.12753">
        <ele>115.2</ele>
        <time>2020-06-28T07:47:17Z</time>
      </trkpt>
      <trkpt lat="48.88312" lon="8.1275">
        <ele>115.2</ele>
        <time>2020-06-28T07:47:18Z</time>
      </trkpt>
      <trkpt lat="48.88307" lon="8.12745">
        <ele>115.2</ele>
        <time>2020-06-28T07:47:19Z</time>
      </trkpt>
      <trkpt lat="48.88301" lon="8.12741">
        <ele>115.2</ele>
        <time>2020-06-28T07:47:20Z</time>
      </trkpt>
      <trkpt lat="48.88296" lon="8.12738">
        <ele>115.1</ele>
        <time>2020-06-28T07:47:21Z</time>
      </trkpt>
      <trkpt lat="48.8829" lon="8.12734">
        <ele>115.1</ele>
        <time>2020-06-28T07:47:22Z</time>
      </trkpt>
      <trkpt lat="48.88285" lon="8.12731">
        <ele>115.1</ele>
        <time>2020-06-28T07:47:23Z</time>
      </trkpt>
      <trkpt lat="48.88278" lon="8.12729">
        <ele>115.1</ele>
        <time>2020-06-28T07:47:24Z</time>
      </trkpt>
      <trkpt lat="48.88271" lon="8.12724">
        <ele>115.1</ele>
        <time>2020-06-28T07:47:25Z</time>
      </trkpt>
      <trkpt lat="48.88265" lon="8.1272">
        <ele>115.1</ele>
        <time>2020-06-28T07:47:26Z</time>
      </trkpt>
      <trkpt lat="48.8826" lon="8.12715">
        <ele>115.1</ele>
        <time>2020-06-28T07:47:27Z</time>
      </trkpt>
      <trkpt lat="48.88254" lon="8.12711">
        <ele>115.2</ele>
        <time>2020-06-28T07:47:28Z</time>
      </trkpt>
      <trkpt lat="48.88248" lon="8.12707">
        <ele>115.2</ele>
        <time>2020-06-28T07:47:29Z</time>
      </trkpt>
      <trkpt lat="48.88243" lon="8.12704">
        <ele>115.2</ele>
        <time>2020-06-28T07:47:30Z</time>
      </trkpt>
      <trkpt lat="48.88238" lon="8.12701">
        <ele>115.2</ele>
        <time>2020-06-28T07:47:31Z</time>
      </trkpt>
      <trkpt lat="48.88231" lon="8.12698">
        <ele>115.2</ele>
        <time>2020-06-28T07:47:32Z</time>
      </trkpt>
      <trkpt lat="48.88226" lon="8.12695">
        <ele>115.2</ele>
        <time>2020-06-28T07:47:33Z</time>
      </trkpt>
      <trkpt lat="48.88218" lon="8.1269">
        <ele>115.3</ele>
        <time>2020-06-28T07:47:34Z</time>
      </trkpt>
      <trkpt lat="48.88212" lon="8.12686">
        <ele>115.3</ele>
        <time>2020-06-28T07:47:35Z</time>
      </trkpt>
      <trkpt lat="48.88206" lon="8.12682">
        <ele>115.3</ele>
        <time>2020-06-28T07:47:36Z</time>
      </trkpt>
      <trkpt lat="48.882" lon="8.12678">
        <ele>115.3</ele>
        <time>2020-06-28T07:47:37Z</time>
      </trkpt>
      <trkpt lat="48.88194" lon="8.12674">
        <ele>115.3</ele>
        <time>2020-06-28T07:47:38Z</time>
      </trkpt>
      <trkpt lat="48.88188" lon="8.1267">
        <ele>115.3</ele>
        <time>2020-06-28T07:47:39Z</time>
      </trkpt>
      <trkpt lat="48.88182" lon="8.12666">
        <ele>115.3</ele>
        <time>2020-06-28T07:47:40Z</time>
      </trkpt>
      <trkpt lat="48.88176" lon="8.12662">
        <ele>115.3</ele>
        <time>2020-06-28T07:47:41Z</time>
      </trkpt>
      <trkpt lat="48.88169" lon="8.12658">
        <ele>115.3</ele>
        <time>2020-06-28T07:47:42Z</time>
      </trkpt>
      <trkpt lat="48.88163" lon="8.12653">
        <ele>115.3</ele>
        <time>2020-06-28T07:47:43Z</time>
      </trkpt>
      <trkpt lat="48.88157" lon="8.12649">
        <ele>115.3</ele>
        <time>2020-06-28T07:47:44Z</time>
      </trkpt>
      <trkpt lat="48.88151" lon="8.12645">
        <ele>115.3</ele>
        <time>2020-06-28T07:47:45Z</time>
      </trkpt>
      <trkpt lat="48.88145" lon="8.12641">
        <ele>115.3</ele>
        <time>2020-06-28T07:47:46Z</time>
      </trkpt>
      <trkpt lat="48.88139" lon="8.12637">
        <ele>115.4</ele>
        <time>2020-06-28T07:47:47Z</time>
      </trkpt>
      <trkpt lat="48.88133" lon="8.12633">
        <ele>115.4</ele>
        <time>2020-06-28T07:47:48Z</time>
      </trkpt>
      <trkpt lat="48.88127" lon="8.12629">
        <ele>115.4</ele>
        <time>2020-06-28T07:47:49Z</time>
      </trkpt>
      <trkpt lat="48.88121" lon="8.12625">
        <ele>115.4</ele>
        <time>2020-06-28T07:47:50Z</time>
      </trkpt>
      <trkpt lat="48.88115" lon="8.12621">
        <ele>115.4</ele>
        <time>2020-06-28T07:47:51Z</time>
      </trkpt>
      <trkpt lat="48.88109" lon="8.12617">
        <ele>115.4</ele>
        <time>2020-06-28T07:47:52Z</time>
      </trkpt>
      <trkpt lat="48.88103" lon="8.12613">
        <ele>115.4</ele>
        <time>2020-06-28T07:47:53Z</time>
      </trkpt>
      <trkpt lat="48.88098" lon="8.12609">
        <ele>115.5</ele>
        <time>2020-06-28T07:47:54Z</time>
      </trkpt>
      <trkpt lat="48.88091" lon="8.12605">
        <ele>115.5</ele>
        <time>2020-06-28T07:47:55Z</time>
      </trkpt>
      <trkpt lat="48.88086" lon="8.12602">
        <ele>115.5</ele>
        <time>2020-06-28T07:47:56Z</time>
      </trkpt>
      <trkpt lat="48.8808" lon="8.12598">
        <ele>115.5</ele>
        <time>2020-06-28T07:47:57Z</time>
      </trkpt>
      <trkpt lat="48.88074" lon="8.12595">
        <ele>115.4</ele>
        <time>2020-06-28T07:47:58Z</time>
      </trkpt>
      <trkpt lat="48.88069" lon="8.12591">
        <ele>115.4</ele>
        <time>2020-06-28T07:47:59Z</time>
      </trkpt>
      <trkpt lat="48.88063" lon="8.12587">
        <ele>115.4</ele>
        <time>2020-06-28T07:48:00Z</time>
      </trkpt>
      <trkpt lat="48.88058" lon="8.12584">
        <ele>115.4</ele>
        <time>2020-06-28T07:48:01Z</time>
      </trkpt>
      <trkpt lat="48.88052" lon="8.12581">
        <ele>115.4</ele>
        <time>2020-06-28T07:48:02Z</time>
      </trkpt>
      <trkpt lat="48.88047" lon="8.12579">
        <ele>115.4</ele>
        <time>2020-06-28T07:48:03Z</time>
      </trkpt>
      <trkpt lat="48.88043" lon="8.12576">
        <ele>115.4</ele>
        <time>2020-06-28T07:48:04Z</time>
      </trkpt>
      <trkpt lat="48.88038" lon="8.12574">
        <ele>115.4</ele>
        <time>2020-06-28T07:48:05Z</time>
      </trkpt>
      <trkpt lat="48.88034" lon="8.12569">
        <ele>115.3</ele>
        <time>2020-06-28T07:48:06Z</time>
      </trkpt>
      <trkpt lat="48.88029" lon="8.12567">
        <ele>115.3</ele>
        <time>2020-06-28T07:48:07Z</time>
      </trkpt>
      <trkpt lat="48.88024" lon="8.12564">
        <ele>115.3</ele>
        <time>2020-06-28T07:48:08Z</time>
      </trkpt>
      <trkpt lat="48.88018" lon="8.1256">
        <ele>115.3</ele>
        <time>2020-06-28T07:48:09Z</time>
      </trkpt>
      <trkpt lat="48.88013" lon="8.12557">
        <ele>115.3</ele>
        <time>2020-06-28T07:48:10Z</time>
      </trkpt>
      <trkpt lat="48.88009" lon="8.12554">
        <ele>115.3</ele>
        <time>2020-06-28T07:48:11Z</time>
      </trkpt>
      <trkpt lat="48.88004" lon="8.12553">
        <ele>115.3</ele>
        <time>2020-06-28T07:48:12Z</time>
      </trkpt>
      <trkpt lat="48.87999" lon="8.12551">
        <ele>115.3</ele>
        <time>2020-06-28T07:48:13Z</time>
      </trkpt>
      <trkpt lat="48.87994" lon="8.12548">
        <ele>115.3</ele>
        <time>2020-06-28T07:48:14Z</time>
      </trkpt>
      <trkpt lat="48.87989" lon="8.12547">
        <ele>115.3</ele>
        <time>2020-06-28T07:48:15Z</time>
      </trkpt>
      <trkpt lat="48.87985" lon="8.12545">
        <ele>115.3</ele>
        <time>2020-06-28T07:48:16Z</time>
      </trkpt>
      <trkpt lat="48.87981" lon="8.12542">
        <ele>115.3</ele>
        <time>2020-06-28T07:48:17Z</time>
      </trkpt>
      <trkpt lat="48.87977" lon="8.12539">
        <ele>115.3</ele>
        <time>2020-06-28T07:48:18Z</time>
      </trkpt>
      <trkpt lat="48.87973" lon="8.12534">
        <ele>115.4</ele>
        <time>2020-06-28T07:48:19Z</time>
      </trkpt>
      <trkpt lat="48.87968" lon="8.12529">
        <ele>115.3</ele>
        <time>2020-06-28T07:48:20Z</time>
      </trkpt>
      <trkpt lat="48.87964" lon="8.12526">
        <ele>115.3</ele>
        <time>2020-06-28T07:48:21Z</time>
      </trkpt>
      <trkpt lat="48.87959" lon="8.12521">
        <ele>115.2</ele>
        <time>2020-06-28T07:48:22Z</time>
      </trkpt>
      <trkpt lat="48.87953" lon="8.12517">
        <ele>115.2</ele>
        <time>2020-06-28T07:48:23Z</time>
      </trkpt>
      <trkpt lat="48.87946" lon="8.12514">
        <ele>115.2</ele>
        <time>2020-06-28T07:48:24Z</time>
      </trkpt>
      <trkpt lat="48.8794" lon="8.12509">
        <ele>115.2</ele>
        <time>2020-06-28T07:48:25Z</time>
      </trkpt>
      <trkpt lat="48.87933" lon="8.12507">
        <ele>115.2</ele>
        <time>2020-06-28T07:48:26Z</time>
      </trkpt>
      <trkpt lat="48.87927" lon="8.12503">
        <ele>115.2</ele>
        <time>2020-06-28T07:48:27Z</time>
      </trkpt>
      <trkpt lat="48.8792" lon="8.12499">
        <ele>115.2</ele>
        <time>2020-06-28T07:48:28Z</time>
      </trkpt>
      <trkpt lat="48.87914" lon="8.12495">
        <ele>115.3</ele>
        <time>2020-06-28T07:48:29Z</time>
      </trkpt>
      <trkpt lat="48.87908" lon="8.12491">
        <ele>115.3</ele>
        <time>2020-06-28T07:48:30Z</time>
      </trkpt>
      <trkpt lat="48.87902" lon="8.12487">
        <ele>115.3</ele>
        <time>2020-06-28T07:48:31Z</time>
      </trkpt>
      <trkpt lat="48.87896" lon="8.12483">
        <ele>115.3</ele>
        <time>2020-06-28T07:48:32Z</time>
      </trkpt>
      <trkpt lat="48.87889" lon="8.12479">
        <ele>115.3</ele>
        <time>2020-06-28T07:48:33Z</time>
      </trkpt>
      <trkpt lat="48.87883" lon="8.12475">
        <ele>115.3</ele>
        <time>2020-06-28T07:48:34Z</time>
      </trkpt>
      <trkpt lat="48.87877" lon="8.12471">
        <ele>115.2</ele>
        <time>2020-06-28T07:48:35Z</time>
      </trkpt>
      <trkpt lat="48.87871" lon="8.12467">
        <ele>115.2</ele>
        <time>2020-06-28T07:48:36Z</time>
      </trkpt>
      <trkpt lat="48.87865" lon="8.12463">
        <ele>115.2</ele>
        <time>2020-06-28T07:48:37Z</time>
      </trkpt>
      <trkpt lat="48.87858" lon="8.1246">
        <ele>115.2</ele>
        <time>2020-06-28T07:48:38Z</time>
      </trkpt>
      <trkpt lat="48.87852" lon="8.12456">
        <ele>115.2</ele>
        <time>2020-06-28T07:48:39Z</time>
      </trkpt>
      <trkpt lat="48.87845" lon="8.12452">
        <ele>115.2</ele>
        <time>2020-06-28T07:48:40Z</time>
      </trkpt>
      <trkpt lat="48.87839" lon="8.12448">
        <ele>115.2</ele>
        <time>2020-06-28T07:48:41Z</time>
      </trkpt>
      <trkpt lat="48.87833" lon="8.12444">
        <ele>115.2</ele>
        <time>2020-06-28T07:48:42Z</time>
      </trkpt>
      <trkpt lat="48.87827" lon="8.1244">
        <ele>115.1</ele>
        <time>2020-06-28T07:48:43Z</time>
      </trkpt>
      <trkpt lat="48.8782" lon="8.12437">
        <ele>115.1</ele>
        <time>2020-06-28T07:48:44Z</time>
      </trkpt>
      <trkpt lat="48.87814" lon="8.12434">
        <ele>115.1</ele>
        <time>2020-06-28T07:48:45Z</time>
      </trkpt>
      <trkpt lat="48.87807" lon="8.12431">
        <ele>115</ele>
        <time>2020-06-28T07:48:46Z</time>
      </trkpt>
      <trkpt lat="48.87801" lon="8.12427">
        <ele>115</ele>
        <time>2020-06-28T07:48:47Z</time>
      </trkpt>
      <trkpt lat="48.87795" lon="8.12423">
        <ele>115</ele>
        <time>2020-06-28T07:48:48Z</time>
      </trkpt>
      <trkpt lat="48.87789" lon="8.1242">
        <ele>115</ele>
        <time>2020-06-28T07:48:49Z</time>
      </trkpt>
      <trkpt lat="48.87783" lon="8.12416">
        <ele>115</ele>
        <time>2020-06-28T07:48:50Z</time>
      </trkpt>
      <trkpt lat="48.87777" lon="8.12412">
        <ele>115.1</ele>
        <time>2020-06-28T07:48:51Z</time>
      </trkpt>
      <trkpt lat="48.87772" lon="8.12408">
        <ele>115.1</ele>
        <time>2020-06-28T07:48:52Z</time>
      </trkpt>
      <trkpt lat="48.87766" lon="8.12404">
        <ele>115.1</ele>
        <time>2020-06-28T07:48:53Z</time>
      </trkpt>
      <trkpt lat="48.87761" lon="8.12399">
        <ele>115.1</ele>
        <time>2020-06-28T07:48:54Z</time>
      </trkpt>
      <trkpt lat="48.87755" lon="8.12396">
        <ele>115.1</ele>
        <time>2020-06-28T07:48:55Z</time>
      </trkpt>
      <trkpt lat="48.87749" lon="8.1239">
        <ele>115.1</ele>
        <time>2020-06-28T07:48:56Z</time>
      </trkpt>
      <trkpt lat="48.87743" lon="8.12387">
        <ele>115.2</ele>
        <time>2020-06-28T07:48:57Z</time>
      </trkpt>
      <trkpt lat="48.87737" lon="8.12384">
        <ele>115.2</ele>
        <time>2020-06-28T07:48:58Z</time>
      </trkpt>
      <trkpt lat="48.87731" lon="8.12381">
        <ele>115.1</ele>
        <time>2020-06-28T07:48:59Z</time>
      </trkpt>
      <trkpt lat="48.87725" lon="8.12378">
        <ele>115.1</ele>
        <time>2020-06-28T07:49:00Z</time>
      </trkpt>
      <trkpt lat="48.8772" lon="8.12375">
        <ele>115.1</ele>
        <time>2020-06-28T07:49:01Z</time>
      </trkpt>
      <trkpt lat="48.87714" lon="8.12371">
        <ele>115.1</ele>
        <time>2020-06-28T07:49:02Z</time>
      </trkpt>
      <trkpt lat="48.87708" lon="8.12369">
        <ele>115.1</ele>
        <time>2020-06-28T07:49:03Z</time>
      </trkpt>
      <trkpt lat="48.87703" lon="8.12366">
        <ele>115.1</ele>
        <time>2020-06-28T07:49:04Z</time>
      </trkpt>
      <trkpt lat="48.87696" lon="8.12363">
        <ele>115.1</ele>
        <time>2020-06-28T07:49:05Z</time>
      </trkpt>
      <trkpt lat="48.8769" lon="8.1236">
        <ele>115.1</ele>
        <time>2020-06-28T07:49:06Z</time>
      </trkpt>
      <trkpt lat="48.87685" lon="8.12356">
        <ele>115.1</ele>
        <time>2020-06-28T07:49:07Z</time>
      </trkpt>
      <trkpt lat="48.8768" lon="8.12352">
        <ele>115.1</ele>
        <time>2020-06-28T07:49:08Z</time>
      </trkpt>
      <trkpt lat="48.87674" lon="8.12347">
        <ele>115.1</ele>
        <time>2020-06-28T07:49:09Z</time>
      </trkpt>
      <trkpt lat="48.87669" lon="8.12343">
        <ele>115.1</ele>
        <time>2020-06-28T07:49:10Z</time>
      </trkpt>
      <trkpt lat="48.87664" lon="8.12339">
        <ele>115</ele>
        <time>2020-06-28T07:49:11Z</time>
      </trkpt>
      <trkpt lat="48.87658" lon="8.12335">
        <ele>115</ele>
        <time>2020-06-28T07:49:12Z</time>
      </trkpt>
      <trkpt lat="48.87652" lon="8.12331">
        <ele>115</ele>
        <time>2020-06-28T07:49:13Z</time>
      </trkpt>
      <trkpt lat="48.87647" lon="8.12326">
        <ele>115.1</ele>
        <time>2020-06-28T07:49:14Z</time>
      </trkpt>
      <trkpt lat="48.87641" lon="8.12321">
        <ele>115.1</ele>
        <time>2020-06-28T07:49:15Z</time>
      </trkpt>
      <trkpt lat="48.87636" lon="8.12315">
        <ele>115.1</ele>
        <time>2020-06-28T07:49:16Z</time>
      </trkpt>
      <trkpt lat="48.87633" lon="8.12307">
        <ele>115.1</ele>
        <time>2020-06-28T07:49:17Z</time>
      </trkpt>
      <trkpt lat="48.87631" lon="8.12298">
        <ele>115.1</ele>
        <time>2020-06-28T07:49:18Z</time>
      </trkpt>
      <trkpt lat="48.8763" lon="8.12289">
        <ele>115.1</ele>
        <time>2020-06-28T07:49:19Z</time>
      </trkpt>
      <trkpt lat="48.87628" lon="8.1228">
        <ele>115.2</ele>
        <time>2020-06-28T07:49:20Z</time>
      </trkpt>
      <trkpt lat="48.87627" lon="8.12272">
        <ele>115.2</ele>
        <time>2020-06-28T07:49:21Z</time>
      </trkpt>
      <trkpt lat="48.87626" lon="8.12263">
        <ele>115.2</ele>
        <time>2020-06-28T07:49:22Z</time>
      </trkpt>
      <trkpt lat="48.87625" lon="8.12254">
        <ele>115.2</ele>
        <time>2020-06-28T07:49:23Z</time>
      </trkpt>
      <trkpt lat="48.87623" lon="8.12246">
        <ele>115.2</ele>
        <time>2020-06-28T07:49:24Z</time>
      </trkpt>
      <trkpt lat="48.87622" lon="8.12238">
        <ele>115.2</ele>
        <time>2020-06-28T07:49:25Z</time>
      </trkpt>
      <trkpt lat="48.8762" lon="8.12229">
        <ele>115.2</ele>
        <time>2020-06-28T07:49:26Z</time>
      </trkpt>
      <trkpt lat="48.87619" lon="8.12221">
        <ele>115.2</ele>
        <time>2020-06-28T07:49:27Z</time>
      </trkpt>
      <trkpt lat="48.87617" lon="8.12213">
        <ele>115.2</ele>
        <time>2020-06-28T07:49:28Z</time>
      </trkpt>
      <trkpt lat="48.87615" lon="8.12204">
        <ele>115.2</ele>
        <time>2020-06-28T07:49:29Z</time>
      </trkpt>
      <trkpt lat="48.87614" lon="8.12196">
        <ele>115.2</ele>
        <time>2020-06-28T07:49:30Z</time>
      </trkpt>
      <trkpt lat="48.87612" lon="8.12187">
        <ele>115.2</ele>
        <time>2020-06-28T07:49:31Z</time>
      </trkpt>
      <trkpt lat="48.8761" lon="8.12178">
        <ele>115.2</ele>
        <time>2020-06-28T07:49:32Z</time>
      </trkpt>
      <trkpt lat="48.87608" lon="8.12169">
        <ele>115.2</ele>
        <time>2020-06-28T07:49:33Z</time>
      </trkpt>
      <trkpt lat="48.87606" lon="8.1216">
        <ele>115.2</ele>
        <time>2020-06-28T07:49:34Z</time>
      </trkpt>
      <trkpt lat="48.87604" lon="8.12152">
        <ele>115.2</ele>
        <time>2020-06-28T07:49:35Z</time>
      </trkpt>
      <trkpt lat="48.87602" lon="8.12143">
        <ele>115.1</ele>
        <time>2020-06-28T07:49:36Z</time>
      </trkpt>
      <trkpt lat="48.876" lon="8.12134">
        <ele>115.1</ele>
        <time>2020-06-28T07:49:37Z</time>
      </trkpt>
      <trkpt lat="48.87597" lon="8.12126">
        <ele>115.1</ele>
        <time>2020-06-28T07:49:38Z</time>
      </trkpt>
      <trkpt lat="48.87595" lon="8.12117">
        <ele>115.1</ele>
        <time>2020-06-28T07:49:39Z</time>
      </trkpt>
      <trkpt lat="48.87593" lon="8.12109">
        <ele>115.1</ele>
        <time>2020-06-28T07:49:40Z</time>
      </trkpt>
      <trkpt lat="48.8759" lon="8.121">
        <ele>115.1</ele>
        <time>2020-06-28T07:49:41Z</time>
      </trkpt>
      <trkpt lat="48.87588" lon="8.12091">
        <ele>115.1</ele>
        <time>2020-06-28T07:49:42Z</time>
      </trkpt>
      <trkpt lat="48.87586" lon="8.12081">
        <ele>115.1</ele>
        <time>2020-06-28T07:49:43Z</time>
      </trkpt>
      <trkpt lat="48.87585" lon="8.12072">
        <ele>115.1</ele>
        <time>2020-06-28T07:49:44Z</time>
      </trkpt>
      <trkpt lat="48.87582" lon="8.12062">
        <ele>115.1</ele>
        <time>2020-06-28T07:49:45Z</time>
      </trkpt>
      <trkpt lat="48.87581" lon="8.12053">
        <ele>115.1</ele>
        <time>2020-06-28T07:49:46Z</time>
      </trkpt>
      <trkpt lat="48.87578" lon="8.12043">
        <ele>115.1</ele>
        <time>2020-06-28T07:49:47Z</time>
      </trkpt>
      <trkpt lat="48.87576" lon="8.12033">
        <ele>115.1</ele>
        <time>2020-06-28T07:49:48Z</time>
      </trkpt>
      <trkpt lat="48.87574" lon="8.12023">
        <ele>115.1</ele>
        <time>2020-06-28T07:49:49Z</time>
      </trkpt>
      <trkpt lat="48.87572" lon="8.12014">
        <ele>115.1</ele>
        <time>2020-06-28T07:49:50Z</time>
      </trkpt>
      <trkpt lat="48.8757" lon="8.12004">
        <ele>115.1</ele>
        <time>2020-06-28T07:49:51Z</time>
      </trkpt>
      <trkpt lat="48.87568" lon="8.11995">
        <ele>115.1</ele>
        <time>2020-06-28T07:49:52Z</time>
      </trkpt>
      <trkpt lat="48.87567" lon="8.11985">
        <ele>115.2</ele>
        <time>2020-06-28T07:49:53Z</time>
      </trkpt>
      <trkpt lat="48.87565" lon="8.11975">
        <ele>115.2</ele>
        <time>2020-06-28T07:49:54Z</time>
      </trkpt>
      <trkpt lat="48.87564" lon="8.11966">
        <ele>115.1</ele>
        <time>2020-06-28T07:49:55Z</time>
      </trkpt>
      <trkpt lat="48.87562" lon="8.11958">
        <ele>115.1</ele>
        <time>2020-06-28T07:49:56Z</time>
      </trkpt>
      <trkpt lat="48.87562" lon="8.11949">
        <ele>115.1</ele>
        <time>2020-06-28T07:49:57Z</time>
      </trkpt>
      <trkpt lat="48.8756" lon="8.1194">
        <ele>115.1</ele>
        <time>2020-06-28T07:49:58Z</time>
      </trkpt>
      <trkpt lat="48.87558" lon="8.11933">
        <ele>115.1</ele>
        <time>2020-06-28T07:49:59Z</time>
      </trkpt>
      <trkpt lat="48.87557" lon="8.11925">
        <ele>115.2</ele>
        <time>2020-06-28T07:50:00Z</time>
      </trkpt>
      <trkpt lat="48.87556" lon="8.11916">
        <ele>115.2</ele>
        <time>2020-06-28T07:50:01Z</time>
      </trkpt>
      <trkpt lat="48.87555" lon="8.11908">
        <ele>115.2</ele>
        <time>2020-06-28T07:50:02Z</time>
      </trkpt>
      <trkpt lat="48.87553" lon="8.119">
        <ele>115.2</ele>
        <time>2020-06-28T07:50:03Z</time>
      </trkpt>
      <trkpt lat="48.87551" lon="8.11892">
        <ele>115.2</ele>
        <time>2020-06-28T07:50:04Z</time>
      </trkpt>
      <trkpt lat="48.87549" lon="8.11883">
        <ele>115.2</ele>
        <time>2020-06-28T07:50:05Z</time>
      </trkpt>
      <trkpt lat="48.87548" lon="8.11875">
        <ele>115.2</ele>
        <time>2020-06-28T07:50:06Z</time>
      </trkpt>
      <trkpt lat="48.87546" lon="8.11866">
        <ele>115.3</ele>
        <time>2020-06-28T07:50:07Z</time>
      </trkpt>
      <trkpt lat="48.87544" lon="8.11858">
        <ele>115.3</ele>
        <time>2020-06-28T07:50:08Z</time>
      </trkpt>
      <trkpt lat="48.87543" lon="8.11849">
        <ele>115.3</ele>
        <time>2020-06-28T07:50:09Z</time>
      </trkpt>
      <trkpt lat="48.87541" lon="8.1184">
        <ele>115.3</ele>
        <time>2020-06-28T07:50:10Z</time>
      </trkpt>
      <trkpt lat="48.87538" lon="8.11832">
        <ele>115.3</ele>
        <time>2020-06-28T07:50:11Z</time>
      </trkpt>
      <trkpt lat="48.87536" lon="8.11824">
        <ele>115.3</ele>
        <time>2020-06-28T07:50:12Z</time>
      </trkpt>
      <trkpt lat="48.87534" lon="8.11816">
        <ele>115.3</ele>
        <time>2020-06-28T07:50:13Z</time>
      </trkpt>
      <trkpt lat="48.87532" lon="8.11807">
        <ele>115.3</ele>
        <time>2020-06-28T07:50:14Z</time>
      </trkpt>
      <trkpt lat="48.8753" lon="8.11799">
        <ele>115.3</ele>
        <time>2020-06-28T07:50:15Z</time>
      </trkpt>
      <trkpt lat="48.87528" lon="8.11791">
        <ele>115.3</ele>
        <time>2020-06-28T07:50:16Z</time>
      </trkpt>
      <trkpt lat="48.87526" lon="8.11782">
        <ele>115.3</ele>
        <time>2020-06-28T07:50:17Z</time>
      </trkpt>
      <trkpt lat="48.87525" lon="8.11772">
        <ele>115.3</ele>
        <time>2020-06-28T07:50:18Z</time>
      </trkpt>
      <trkpt lat="48.87522" lon="8.11763">
        <ele>115.3</ele>
        <time>2020-06-28T07:50:19Z</time>
      </trkpt>
      <trkpt lat="48.87521" lon="8.11753">
        <ele>115.3</ele>
        <time>2020-06-28T07:50:20Z</time>
      </trkpt>
      <trkpt lat="48.8752" lon="8.11744">
        <ele>115.4</ele>
        <time>2020-06-28T07:50:21Z</time>
      </trkpt>
      <trkpt lat="48.87518" lon="8.11736">
        <ele>115.4</ele>
        <time>2020-06-28T07:50:22Z</time>
      </trkpt>
      <trkpt lat="48.87516" lon="8.11727">
        <ele>115.4</ele>
        <time>2020-06-28T07:50:23Z</time>
      </trkpt>
      <trkpt lat="48.87515" lon="8.11718">
        <ele>115.4</ele>
        <time>2020-06-28T07:50:24Z</time>
      </trkpt>
      <trkpt lat="48.87514" lon="8.11709">
        <ele>115.3</ele>
        <time>2020-06-28T07:50:25Z</time>
      </trkpt>
      <trkpt lat="48.87513" lon="8.11701">
        <ele>115.3</ele>
        <time>2020-06-28T07:50:26Z</time>
      </trkpt>
      <trkpt lat="48.87512" lon="8.11692">
        <ele>115.3</ele>
        <time>2020-06-28T07:50:27Z</time>
      </trkpt>
      <trkpt lat="48.87511" lon="8.11683">
        <ele>115.3</ele>
        <time>2020-06-28T07:50:28Z</time>
      </trkpt>
      <trkpt lat="48.87509" lon="8.11674">
        <ele>115.3</ele>
        <time>2020-06-28T07:50:29Z</time>
      </trkpt>
      <trkpt lat="48.87508" lon="8.11665">
        <ele>115.2</ele>
        <time>2020-06-28T07:50:30Z</time>
      </trkpt>
      <trkpt lat="48.87507" lon="8.11656">
        <ele>115.2</ele>
        <time>2020-06-28T07:50:31Z</time>
      </trkpt>
      <trkpt lat="48.87507" lon="8.11647">
        <ele>115.1</ele>
        <time>2020-06-28T07:50:32Z</time>
      </trkpt>
      <trkpt lat="48.87506" lon="8.11639">
        <ele>115.1</ele>
        <time>2020-06-28T07:50:33Z</time>
      </trkpt>
      <trkpt lat="48.87504" lon="8.11631">
        <ele>115.1</ele>
        <time>2020-06-28T07:50:34Z</time>
      </trkpt>
      <trkpt lat="48.875" lon="8.11624">
        <ele>115.1</ele>
        <time>2020-06-28T07:50:35Z</time>
      </trkpt>
      <trkpt lat="48.87495" lon="8.11618">
        <ele>115.1</ele>
        <time>2020-06-28T07:50:36Z</time>
      </trkpt>
      <trkpt lat="48.87491" lon="8.11611">
        <ele>115</ele>
        <time>2020-06-28T07:50:37Z</time>
      </trkpt>
      <trkpt lat="48.87487" lon="8.11603">
        <ele>115</ele>
        <time>2020-06-28T07:50:38Z</time>
      </trkpt>
      <trkpt lat="48.87484" lon="8.11596">
        <ele>115</ele>
        <time>2020-06-28T07:50:39Z</time>
      </trkpt>
      <trkpt lat="48.8748" lon="8.11589">
        <ele>115</ele>
        <time>2020-06-28T07:50:40Z</time>
      </trkpt>
      <trkpt lat="48.87476" lon="8.11583">
        <ele>115</ele>
        <time>2020-06-28T07:50:41Z</time>
      </trkpt>
      <trkpt lat="48.87473" lon="8.11575">
        <ele>115</ele>
        <time>2020-06-28T07:50:42Z</time>
      </trkpt>
      <trkpt lat="48.87469" lon="8.11568">
        <ele>115</ele>
        <time>2020-06-28T07:50:43Z</time>
      </trkpt>
      <trkpt lat="48.87466" lon="8.11561">
        <ele>115</ele>
        <time>2020-06-28T07:50:44Z</time>
      </trkpt>
      <trkpt lat="48.87462" lon="8.11554">
        <ele>115.1</ele>
        <time>2020-06-28T07:50:45Z</time>
      </trkpt>
      <trkpt lat="48.87458" lon="8.11547">
        <ele>115.1</ele>
        <time>2020-06-28T07:50:46Z</time>
      </trkpt>
      <trkpt lat="48.87455" lon="8.1154">
        <ele>115.1</ele>
        <time>2020-06-28T07:50:47Z</time>
      </trkpt>
      <trkpt lat="48.87451" lon="8.11533">
        <ele>115</ele>
        <time>2020-06-28T07:50:48Z</time>
      </trkpt>
      <trkpt lat="48.87446" lon="8.11525">
        <ele>115</ele>
        <time>2020-06-28T07:50:49Z</time>
      </trkpt>
      <trkpt lat="48.87442" lon="8.11517">
        <ele>115</ele>
        <time>2020-06-28T07:50:50Z</time>
      </trkpt>
      <trkpt lat="48.87437" lon="8.1151">
        <ele>115</ele>
        <time>2020-06-28T07:50:51Z</time>
      </trkpt>
      <trkpt lat="48.87432" lon="8.11502">
        <ele>115</ele>
        <time>2020-06-28T07:50:52Z</time>
      </trkpt>
      <trkpt lat="48.87427" lon="8.11494">
        <ele>115</ele>
        <time>2020-06-28T07:50:53Z</time>
      </trkpt>
      <trkpt lat="48.87422" lon="8.11486">
        <ele>114.9</ele>
        <time>2020-06-28T07:50:54Z</time>
      </trkpt>
      <trkpt lat="48.87418" lon="8.11477">
        <ele>114.9</ele>
        <time>2020-06-28T07:50:55Z</time>
      </trkpt>
      <trkpt lat="48.87413" lon="8.11469">
        <ele>114.9</ele>
        <time>2020-06-28T07:50:56Z</time>
      </trkpt>
      <trkpt lat="48.87409" lon="8.1146">
        <ele>114.9</ele>
        <time>2020-06-28T07:50:57Z</time>
      </trkpt>
      <trkpt lat="48.87404" lon="8.11452">
        <ele>115</ele>
        <time>2020-06-28T07:50:58Z</time>
      </trkpt>
      <trkpt lat="48.87401" lon="8.11443">
        <ele>115</ele>
        <time>2020-06-28T07:50:59Z</time>
      </trkpt>
      <trkpt lat="48.87397" lon="8.11434">
        <ele>115</ele>
        <time>2020-06-28T07:51:00Z</time>
      </trkpt>
      <trkpt lat="48.87394" lon="8.11423">
        <ele>115</ele>
        <time>2020-06-28T07:51:01Z</time>
      </trkpt>
      <trkpt lat="48.87393" lon="8.11413">
        <ele>115</ele>
        <time>2020-06-28T07:51:02Z</time>
      </trkpt>
      <trkpt lat="48.87392" lon="8.11402">
        <ele>115</ele>
        <time>2020-06-28T07:51:03Z</time>
      </trkpt>
      <trkpt lat="48.87391" lon="8.11391">
        <ele>115</ele>
        <time>2020-06-28T07:51:04Z</time>
      </trkpt>
      <trkpt lat="48.8739" lon="8.1138">
        <ele>115</ele>
        <time>2020-06-28T07:51:05Z</time>
      </trkpt>
      <trkpt lat="48.87388" lon="8.1137">
        <ele>115</ele>
        <time>2020-06-28T07:51:06Z</time>
      </trkpt>
      <trkpt lat="48.87387" lon="8.11359">
        <ele>115</ele>
        <time>2020-06-28T07:51:07Z</time>
      </trkpt>
      <trkpt lat="48.87386" lon="8.11349">
        <ele>114.9</ele>
        <time>2020-06-28T07:51:08Z</time>
      </trkpt>
      <trkpt lat="48.87385" lon="8.11339">
        <ele>115</ele>
        <time>2020-06-28T07:51:09Z</time>
      </trkpt>
      <trkpt lat="48.87384" lon="8.11328">
        <ele>115</ele>
        <time>2020-06-28T07:51:10Z</time>
      </trkpt>
      <trkpt lat="48.87382" lon="8.11318">
        <ele>115.1</ele>
        <time>2020-06-28T07:51:11Z</time>
      </trkpt>
      <trkpt lat="48.8738" lon="8.11307">
        <ele>115.1</ele>
        <time>2020-06-28T07:51:12Z</time>
      </trkpt>
      <trkpt lat="48.87378" lon="8.11296">
        <ele>115.1</ele>
        <time>2020-06-28T07:51:13Z</time>
      </trkpt>
      <trkpt lat="48.87377" lon="8.11285">
        <ele>115.1</ele>
        <time>2020-06-28T07:51:14Z</time>
      </trkpt>
      <trkpt lat="48.87376" lon="8.11274">
        <ele>115.1</ele>
        <time>2020-06-28T07:51:15Z</time>
      </trkpt>
      <trkpt lat="48.87374" lon="8.11263">
        <ele>115</ele>
        <time>2020-06-28T07:51:16Z</time>
      </trkpt>
      <trkpt lat="48.87373" lon="8.11252">
        <ele>115</ele>
        <time>2020-06-28T07:51:17Z</time>
      </trkpt>
      <trkpt lat="48.87371" lon="8.11241">
        <ele>115</ele>
        <time>2020-06-28T07:51:18Z</time>
      </trkpt>
      <trkpt lat="48.8737" lon="8.1123">
        <ele>115</ele>
        <time>2020-06-28T07:51:19Z</time>
      </trkpt>
      <trkpt lat="48.87369" lon="8.11219">
        <ele>115</ele>
        <time>2020-06-28T07:51:20Z</time>
      </trkpt>
      <trkpt lat="48.87367" lon="8.11208">
        <ele>115</ele>
        <time>2020-06-28T07:51:21Z</time>
      </trkpt>
      <trkpt lat="48.87366" lon="8.11197">
        <ele>115</ele>
        <time>2020-06-28T07:51:22Z</time>
      </trkpt>
      <trkpt lat="48.87365" lon="8.11187">
        <ele>115</ele>
        <time>2020-06-28T07:51:23Z</time>
      </trkpt>
      <trkpt lat="48.87364" lon="8.11176">
        <ele>115</ele>
        <time>2020-06-28T07:51:24Z</time>
      </trkpt>
      <trkpt lat="48.87362" lon="8.11165">
        <ele>115</ele>
        <time>2020-06-28T07:51:25Z</time>
      </trkpt>
      <trkpt lat="48.87361" lon="8.11154">
        <ele>115</ele>
        <time>2020-06-28T07:51:26Z</time>
      </trkpt>
      <trkpt lat="48.87359" lon="8.11144">
        <ele>115</ele>
        <time>2020-06-28T07:51:27Z</time>
      </trkpt>
      <trkpt lat="48.87358" lon="8.11133">
        <ele>115.1</ele>
        <time>2020-06-28T07:51:28Z</time>
      </trkpt>
      <trkpt lat="48.87357" lon="8.11122">
        <ele>115.1</ele>
        <time>2020-06-28T07:51:29Z</time>
      </trkpt>
      <trkpt lat="48.87355" lon="8.11112">
        <ele>115.2</ele>
        <time>2020-06-28T07:51:30Z</time>
      </trkpt>
      <trkpt lat="48.87353" lon="8.11102">
        <ele>115</ele>
        <time>2020-06-28T07:51:31Z</time>
      </trkpt>
      <trkpt lat="48.8735" lon="8.11093">
        <ele>114.9</ele>
        <time>2020-06-28T07:51:32Z</time>
      </trkpt>
      <trkpt lat="48.87346" lon="8.11085">
        <ele>114.8</ele>
        <time>2020-06-28T07:51:33Z</time>
      </trkpt>
      <trkpt lat="48.87342" lon="8.11077">
        <ele>114.7</ele>
        <time>2020-06-28T07:51:34Z</time>
      </trkpt>
      <trkpt lat="48.87336" lon="8.11069">
        <ele>114.7</ele>
        <time>2020-06-28T07:51:35Z</time>
      </trkpt>
      <trkpt lat="48.87332" lon="8.11061">
        <ele>114.7</ele>
        <time>2020-06-28T07:51:36Z</time>
      </trkpt>
      <trkpt lat="48.87327" lon="8.11053">
        <ele>114.7</ele>
        <time>2020-06-28T07:51:37Z</time>
      </trkpt>
      <trkpt lat="48.87322" lon="8.11045">
        <ele>114.7</ele>
        <time>2020-06-28T07:51:38Z</time>
      </trkpt>
      <trkpt lat="48.87318" lon="8.11037">
        <ele>114.7</ele>
        <time>2020-06-28T07:51:39Z</time>
      </trkpt>
      <trkpt lat="48.87314" lon="8.11028">
        <ele>114.7</ele>
        <time>2020-06-28T07:51:40Z</time>
      </trkpt>
      <trkpt lat="48.87309" lon="8.1102">
        <ele>114.7</ele>
        <time>2020-06-28T07:51:41Z</time>
      </trkpt>
      <trkpt lat="48.87304" lon="8.11013">
        <ele>114.7</ele>
        <time>2020-06-28T07:51:42Z</time>
      </trkpt>
      <trkpt lat="48.87299" lon="8.11005">
        <ele>114.7</ele>
        <time>2020-06-28T07:51:43Z</time>
      </trkpt>
      <trkpt lat="48.87294" lon="8.10997">
        <ele>114.8</ele>
        <time>2020-06-28T07:51:44Z</time>
      </trkpt>
      <trkpt lat="48.8729" lon="8.10989">
        <ele>114.8</ele>
        <time>2020-06-28T07:51:45Z</time>
      </trkpt>
      <trkpt lat="48.87286" lon="8.10981">
        <ele>114.8</ele>
        <time>2020-06-28T07:51:46Z</time>
      </trkpt>
      <trkpt lat="48.87282" lon="8.10974">
        <ele>114.8</ele>
        <time>2020-06-28T07:51:47Z</time>
      </trkpt>
      <trkpt lat="48.87277" lon="8.10966">
        <ele>114.8</ele>
        <time>2020-06-28T07:51:48Z</time>
      </trkpt>
      <trkpt lat="48.87273" lon="8.10958">
        <ele>114.8</ele>
        <time>2020-06-28T07:51:49Z</time>
      </trkpt>
      <trkpt lat="48.87268" lon="8.10949">
        <ele>114.9</ele>
        <time>2020-06-28T07:51:50Z</time>
      </trkpt>
      <trkpt lat="48.87264" lon="8.10941">
        <ele>114.9</ele>
        <time>2020-06-28T07:51:51Z</time>
      </trkpt>
      <trkpt lat="48.87259" lon="8.10932">
        <ele>115</ele>
        <time>2020-06-28T07:51:52Z</time>
      </trkpt>
      <trkpt lat="48.87255" lon="8.10923">
        <ele>115</ele>
        <time>2020-06-28T07:51:53Z</time>
      </trkpt>
      <trkpt lat="48.8725" lon="8.10915">
        <ele>115</ele>
        <time>2020-06-28T07:51:54Z</time>
      </trkpt>
      <trkpt lat="48.87246" lon="8.10906">
        <ele>115.1</ele>
        <time>2020-06-28T07:51:55Z</time>
      </trkpt>
      <trkpt lat="48.87241" lon="8.10898">
        <ele>115.1</ele>
        <time>2020-06-28T07:51:56Z</time>
      </trkpt>
      <trkpt lat="48.87236" lon="8.1089">
        <ele>115</ele>
        <time>2020-06-28T07:51:57Z</time>
      </trkpt>
      <trkpt lat="48.87231" lon="8.10883">
        <ele>115</ele>
        <time>2020-06-28T07:51:58Z</time>
      </trkpt>
      <trkpt lat="48.87227" lon="8.10876">
        <ele>115</ele>
        <time>2020-06-28T07:51:59Z</time>
      </trkpt>
      <trkpt lat="48.87223" lon="8.1087">
        <ele>115</ele>
        <time>2020-06-28T07:52:00Z</time>
      </trkpt>
      <trkpt lat="48.87218" lon="8.10864">
        <ele>114.9</ele>
        <time>2020-06-28T07:52:01Z</time>
      </trkpt>
      <trkpt lat="48.87214" lon="8.10857">
        <ele>114.9</ele>
        <time>2020-06-28T07:52:02Z</time>
      </trkpt>
      <trkpt lat="48.8721" lon="8.1085">
        <ele>114.9</ele>
        <time>2020-06-28T07:52:03Z</time>
      </trkpt>
      <trkpt lat="48.87206" lon="8.10844">
        <ele>114.9</ele>
        <time>2020-06-28T07:52:04Z</time>
      </trkpt>
      <trkpt lat="48.87202" lon="8.10838">
        <ele>114.9</ele>
        <time>2020-06-28T07:52:05Z</time>
      </trkpt>
      <trkpt lat="48.87198" lon="8.10831">
        <ele>114.9</ele>
        <time>2020-06-28T07:52:06Z</time>
      </trkpt>
      <trkpt lat="48.87194" lon="8.10824">
        <ele>114.9</ele>
        <time>2020-06-28T07:52:07Z</time>
      </trkpt>
      <trkpt lat="48.8719" lon="8.10816">
        <ele>114.9</ele>
        <time>2020-06-28T07:52:08Z</time>
      </trkpt>
      <trkpt lat="48.87186" lon="8.10809">
        <ele>114.9</ele>
        <time>2020-06-28T07:52:09Z</time>
      </trkpt>
      <trkpt lat="48.87183" lon="8.10802">
        <ele>114.9</ele>
        <time>2020-06-28T07:52:10Z</time>
      </trkpt>
      <trkpt lat="48.87179" lon="8.10795">
        <ele>114.9</ele>
        <time>2020-06-28T07:52:11Z</time>
      </trkpt>
      <trkpt lat="48.87175" lon="8.10788">
        <ele>114.9</ele>
        <time>2020-06-28T07:52:12Z</time>
      </trkpt>
      <trkpt lat="48.87171" lon="8.10781">
        <ele>114.9</ele>
        <time>2020-06-28T07:52:13Z</time>
      </trkpt>
      <trkpt lat="48.87168" lon="8.10772">
        <ele>114.9</ele>
        <time>2020-06-28T07:52:14Z</time>
      </trkpt>
      <trkpt lat="48.87164" lon="8.10765">
        <ele>114.9</ele>
        <time>2020-06-28T07:52:15Z</time>
      </trkpt>
      <trkpt lat="48.8716" lon="8.10757">
        <ele>114.9</ele>
        <time>2020-06-28T07:52:16Z</time>
      </trkpt>
      <trkpt lat="48.87156" lon="8.10749">
        <ele>114.9</ele>
        <time>2020-06-28T07:52:17Z</time>
      </trkpt>
      <trkpt lat="48.87152" lon="8.1074">
        <ele>114.9</ele>
        <time>2020-06-28T07:52:18Z</time>
      </trkpt>
      <trkpt lat="48.87148" lon="8.10732">
        <ele>114.9</ele>
        <time>2020-06-28T07:52:19Z</time>
      </trkpt>
      <trkpt lat="48.87144" lon="8.10724">
        <ele>115</ele>
        <time>2020-06-28T07:52:20Z</time>
      </trkpt>
      <trkpt lat="48.8714" lon="8.10716">
        <ele>115</ele>
        <time>2020-06-28T07:52:21Z</time>
      </trkpt>
      <trkpt lat="48.87136" lon="8.10707">
        <ele>115</ele>
        <time>2020-06-28T07:52:22Z</time>
      </trkpt>
      <trkpt lat="48.87132" lon="8.107">
        <ele>115</ele>
        <time>2020-06-28T07:52:23Z</time>
      </trkpt>
      <trkpt lat="48.87127" lon="8.10693">
        <ele>114.9</ele>
        <time>2020-06-28T07:52:24Z</time>
      </trkpt>
      <trkpt lat="48.87123" lon="8.10686">
        <ele>114.9</ele>
        <time>2020-06-28T07:52:25Z</time>
      </trkpt>
      <trkpt lat="48.87118" lon="8.10679">
        <ele>114.9</ele>
        <time>2020-06-28T07:52:26Z</time>
      </trkpt>
      <trkpt lat="48.87114" lon="8.10671">
        <ele>114.9</ele>
        <time>2020-06-28T07:52:27Z</time>
      </trkpt>
      <trkpt lat="48.8711" lon="8.10664">
        <ele>114.9</ele>
        <time>2020-06-28T07:52:28Z</time>
      </trkpt>
      <trkpt lat="48.87105" lon="8.10656">
        <ele>114.9</ele>
        <time>2020-06-28T07:52:29Z</time>
      </trkpt>
      <trkpt lat="48.87101" lon="8.10648">
        <ele>114.9</ele>
        <time>2020-06-28T07:52:30Z</time>
      </trkpt>
      <trkpt lat="48.87097" lon="8.10641">
        <ele>114.9</ele>
        <time>2020-06-28T07:52:31Z</time>
      </trkpt>
      <trkpt lat="48.87093" lon="8.10633">
        <ele>114.9</ele>
        <time>2020-06-28T07:52:32Z</time>
      </trkpt>
      <trkpt lat="48.87088" lon="8.10625">
        <ele>114.9</ele>
        <time>2020-06-28T07:52:33Z</time>
      </trkpt>
      <trkpt lat="48.87084" lon="8.10618">
        <ele>114.9</ele>
        <time>2020-06-28T07:52:34Z</time>
      </trkpt>
      <trkpt lat="48.8708" lon="8.1061">
        <ele>114.8</ele>
        <time>2020-06-28T07:52:35Z</time>
      </trkpt>
      <trkpt lat="48.87076" lon="8.10601">
        <ele>114.8</ele>
        <time>2020-06-28T07:52:36Z</time>
      </trkpt>
      <trkpt lat="48.87071" lon="8.10594">
        <ele>114.8</ele>
        <time>2020-06-28T07:52:37Z</time>
      </trkpt>
      <trkpt lat="48.87067" lon="8.10585">
        <ele>114.8</ele>
        <time>2020-06-28T07:52:38Z</time>
      </trkpt>
      <trkpt lat="48.87063" lon="8.10577">
        <ele>114.8</ele>
        <time>2020-06-28T07:52:39Z</time>
      </trkpt>
      <trkpt lat="48.87058" lon="8.10569">
        <ele>114.8</ele>
        <time>2020-06-28T07:52:40Z</time>
      </trkpt>
      <trkpt lat="48.87053" lon="8.10562">
        <ele>114.8</ele>
        <time>2020-06-28T07:52:41Z</time>
      </trkpt>
      <trkpt lat="48.87048" lon="8.10556">
        <ele>114.8</ele>
        <time>2020-06-28T07:52:42Z</time>
      </trkpt>
      <trkpt lat="48.87042" lon="8.1055">
        <ele>114.8</ele>
        <time>2020-06-28T07:52:43Z</time>
      </trkpt>
      <trkpt lat="48.87037" lon="8.10542">
        <ele>114.8</ele>
        <time>2020-06-28T07:52:44Z</time>
      </trkpt>
      <trkpt lat="48.87032" lon="8.10535">
        <ele>114.8</ele>
        <time>2020-06-28T07:52:45Z</time>
      </trkpt>
      <trkpt lat="48.87026" lon="8.10529">
        <ele>114.9</ele>
        <time>2020-06-28T07:52:46Z</time>
      </trkpt>
      <trkpt lat="48.8702" lon="8.10523">
        <ele>114.9</ele>
        <time>2020-06-28T07:52:47Z</time>
      </trkpt>
      <trkpt lat="48.87015" lon="8.10517">
        <ele>114.9</ele>
        <time>2020-06-28T07:52:48Z</time>
      </trkpt>
      <trkpt lat="48.8701" lon="8.10511">
        <ele>114.9</ele>
        <time>2020-06-28T07:52:49Z</time>
      </trkpt>
      <trkpt lat="48.87004" lon="8.10504">
        <ele>114.9</ele>
        <time>2020-06-28T07:52:50Z</time>
      </trkpt>
      <trkpt lat="48.86999" lon="8.10498">
        <ele>114.9</ele>
        <time>2020-06-28T07:52:51Z</time>
      </trkpt>
      <trkpt lat="48.86994" lon="8.10492">
        <ele>114.9</ele>
        <time>2020-06-28T07:52:52Z</time>
      </trkpt>
      <trkpt lat="48.86989" lon="8.10486">
        <ele>114.9</ele>
        <time>2020-06-28T07:52:53Z</time>
      </trkpt>
      <trkpt lat="48.86983" lon="8.1048">
        <ele>114.9</ele>
        <time>2020-06-28T07:52:54Z</time>
      </trkpt>
      <trkpt lat="48.86978" lon="8.10474">
        <ele>114.9</ele>
        <time>2020-06-28T07:52:55Z</time>
      </trkpt>
      <trkpt lat="48.86972" lon="8.10469">
        <ele>114.9</ele>
        <time>2020-06-28T07:52:56Z</time>
      </trkpt>
      <trkpt lat="48.86967" lon="8.10462">
        <ele>114.9</ele>
        <time>2020-06-28T07:52:57Z</time>
      </trkpt>
      <trkpt lat="48.86962" lon="8.10456">
        <ele>114.9</ele>
        <time>2020-06-28T07:52:58Z</time>
      </trkpt>
      <trkpt lat="48.86957" lon="8.1045">
        <ele>115</ele>
        <time>2020-06-28T07:52:59Z</time>
      </trkpt>
      <trkpt lat="48.86951" lon="8.10444">
        <ele>115</ele>
        <time>2020-06-28T07:53:00Z</time>
      </trkpt>
      <trkpt lat="48.86945" lon="8.10439">
        <ele>115</ele>
        <time>2020-06-28T07:53:01Z</time>
      </trkpt>
      <trkpt lat="48.8694" lon="8.10433">
        <ele>115</ele>
        <time>2020-06-28T07:53:02Z</time>
      </trkpt>
      <trkpt lat="48.86934" lon="8.10428">
        <ele>115</ele>
        <time>2020-06-28T07:53:03Z</time>
      </trkpt>
      <trkpt lat="48.86929" lon="8.10422">
        <ele>115</ele>
        <time>2020-06-28T07:53:04Z</time>
      </trkpt>
      <trkpt lat="48.86923" lon="8.10417">
        <ele>115</ele>
        <time>2020-06-28T07:53:05Z</time>
      </trkpt>
      <trkpt lat="48.86918" lon="8.10411">
        <ele>115</ele>
        <time>2020-06-28T07:53:06Z</time>
      </trkpt>
      <trkpt lat="48.86912" lon="8.10406">
        <ele>115</ele>
        <time>2020-06-28T07:53:07Z</time>
      </trkpt>
      <trkpt lat="48.86906" lon="8.10401">
        <ele>115.1</ele>
        <time>2020-06-28T07:53:08Z</time>
      </trkpt>
      <trkpt lat="48.86901" lon="8.10396">
        <ele>115.1</ele>
        <time>2020-06-28T07:53:09Z</time>
      </trkpt>
      <trkpt lat="48.86895" lon="8.10391">
        <ele>115.1</ele>
        <time>2020-06-28T07:53:10Z</time>
      </trkpt>
      <trkpt lat="48.8689" lon="8.10386">
        <ele>115.2</ele>
        <time>2020-06-28T07:53:11Z</time>
      </trkpt>
      <trkpt lat="48.86884" lon="8.10383">
        <ele>115.2</ele>
        <time>2020-06-28T07:53:12Z</time>
      </trkpt>
      <trkpt lat="48.86878" lon="8.10381">
        <ele>115.2</ele>
        <time>2020-06-28T07:53:13Z</time>
      </trkpt>
      <trkpt lat="48.86873" lon="8.10378">
        <ele>115.3</ele>
        <time>2020-06-28T07:53:14Z</time>
      </trkpt>
      <trkpt lat="48.86867" lon="8.10377">
        <ele>115.3</ele>
        <time>2020-06-28T07:53:15Z</time>
      </trkpt>
      <trkpt lat="48.86862" lon="8.10375">
        <ele>115.4</ele>
        <time>2020-06-28T07:53:16Z</time>
      </trkpt>
      <trkpt lat="48.86856" lon="8.10374">
        <ele>115.4</ele>
        <time>2020-06-28T07:53:17Z</time>
      </trkpt>
      <trkpt lat="48.86851" lon="8.10372">
        <ele>115.5</ele>
        <time>2020-06-28T07:53:18Z</time>
      </trkpt>
      <trkpt lat="48.86846" lon="8.10371">
        <ele>115.6</ele>
        <time>2020-06-28T07:53:19Z</time>
      </trkpt>
      <trkpt lat="48.86841" lon="8.10371">
        <ele>115.6</ele>
        <time>2020-06-28T07:53:20Z</time>
      </trkpt>
      <trkpt lat="48.86836" lon="8.1037">
        <ele>115.7</ele>
        <time>2020-06-28T07:53:21Z</time>
      </trkpt>
      <trkpt lat="48.86832" lon="8.10371">
        <ele>115.8</ele>
        <time>2020-06-28T07:53:22Z</time>
      </trkpt>
      <trkpt lat="48.86828" lon="8.10372">
        <ele>115.8</ele>
        <time>2020-06-28T07:53:23Z</time>
      </trkpt>
      <trkpt lat="48.86824" lon="8.10372">
        <ele>115.9</ele>
        <time>2020-06-28T07:53:24Z</time>
      </trkpt>
      <trkpt lat="48.86821" lon="8.10369">
        <ele>115.9</ele>
        <time>2020-06-28T07:53:25Z</time>
      </trkpt>
      <trkpt lat="48.86819" lon="8.10366">
        <ele>115.6</ele>
        <time>2020-06-28T07:53:26Z</time>
      </trkpt>
      <trkpt lat="48.86817" lon="8.10359">
        <ele>115.4</ele>
        <time>2020-06-28T07:53:27Z</time>
      </trkpt>
      <trkpt lat="48.86818" lon="8.1035">
        <ele>115.1</ele>
        <time>2020-06-28T07:53:28Z</time>
      </trkpt>
      <trkpt lat="48.86818" lon="8.10341">
        <ele>114.8</ele>
        <time>2020-06-28T07:53:29Z</time>
      </trkpt>
      <trkpt lat="48.86817" lon="8.10332">
        <ele>114.5</ele>
        <time>2020-06-28T07:53:30Z</time>
      </trkpt>
      <trkpt lat="48.86817" lon="8.10322">
        <ele>114.2</ele>
        <time>2020-06-28T07:53:31Z</time>
      </trkpt>
      <trkpt lat="48.86817" lon="8.10312">
        <ele>114</ele>
        <time>2020-06-28T07:53:32Z</time>
      </trkpt>
      <trkpt lat="48.86817" lon="8.10302">
        <ele>113.8</ele>
        <time>2020-06-28T07:53:33Z</time>
      </trkpt>
      <trkpt lat="48.86818" lon="8.10291">
        <ele>113.6</ele>
        <time>2020-06-28T07:53:34Z</time>
      </trkpt>
      <trkpt lat="48.86817" lon="8.1028">
        <ele>113.5</ele>
        <time>2020-06-28T07:53:35Z</time>
      </trkpt>
      <trkpt lat="48.86817" lon="8.10268">
        <ele>113.3</ele>
        <time>2020-06-28T07:53:36Z</time>
      </trkpt>
      <trkpt lat="48.86816" lon="8.10257">
        <ele>113.2</ele>
        <time>2020-06-28T07:53:37Z</time>
      </trkpt>
      <trkpt lat="48.86816" lon="8.10245">
        <ele>113</ele>
        <time>2020-06-28T07:53:38Z</time>
      </trkpt>
      <trkpt lat="48.86815" lon="8.10234">
        <ele>113</ele>
        <time>2020-06-28T07:53:39Z</time>
      </trkpt>
      <trkpt lat="48.86814" lon="8.10223">
        <ele>112.9</ele>
        <time>2020-06-28T07:53:40Z</time>
      </trkpt>
      <trkpt lat="48.86814" lon="8.10212">
        <ele>112.8</ele>
        <time>2020-06-28T07:53:41Z</time>
      </trkpt>
      <trkpt lat="48.86813" lon="8.10201">
        <ele>112.7</ele>
        <time>2020-06-28T07:53:42Z</time>
      </trkpt>
      <trkpt lat="48.86813" lon="8.1019">
        <ele>112.6</ele>
        <time>2020-06-28T07:53:43Z</time>
      </trkpt>
      <trkpt lat="48.86811" lon="8.1018">
        <ele>112.5</ele>
        <time>2020-06-28T07:53:44Z</time>
      </trkpt>
      <trkpt lat="48.8681" lon="8.10168">
        <ele>112.5</ele>
        <time>2020-06-28T07:53:45Z</time>
      </trkpt>
      <trkpt lat="48.86808" lon="8.10158">
        <ele>112.4</ele>
        <time>2020-06-28T07:53:46Z</time>
      </trkpt>
      <trkpt lat="48.86807" lon="8.10147">
        <ele>112.3</ele>
        <time>2020-06-28T07:53:47Z</time>
      </trkpt>
      <trkpt lat="48.86805" lon="8.10136">
        <ele>112.3</ele>
        <time>2020-06-28T07:53:48Z</time>
      </trkpt>
      <trkpt lat="48.86804" lon="8.10126">
        <ele>112.3</ele>
        <time>2020-06-28T07:53:49Z</time>
      </trkpt>
      <trkpt lat="48.86803" lon="8.10116">
        <ele>112.2</ele>
        <time>2020-06-28T07:53:50Z</time>
      </trkpt>
      <trkpt lat="48.86801" lon="8.10107">
        <ele>112.2</ele>
        <time>2020-06-28T07:53:51Z</time>
      </trkpt>
      <trkpt lat="48.86799" lon="8.10097">
        <ele>112.2</ele>
        <time>2020-06-28T07:53:52Z</time>
      </trkpt>
      <trkpt lat="48.86798" lon="8.10087">
        <ele>112.2</ele>
        <time>2020-06-28T07:53:53Z</time>
      </trkpt>
      <trkpt lat="48.86796" lon="8.10078">
        <ele>112.3</ele>
        <time>2020-06-28T07:53:54Z</time>
      </trkpt>
      <trkpt lat="48.86794" lon="8.10069">
        <ele>112.3</ele>
        <time>2020-06-28T07:53:55Z</time>
      </trkpt>
      <trkpt lat="48.86792" lon="8.10059">
        <ele>112.3</ele>
        <time>2020-06-28T07:53:56Z</time>
      </trkpt>
      <trkpt lat="48.8679" lon="8.10051">
        <ele>112.3</ele>
        <time>2020-06-28T07:53:57Z</time>
      </trkpt>
      <trkpt lat="48.86787" lon="8.10042">
        <ele>112.4</ele>
        <time>2020-06-28T07:53:58Z</time>
      </trkpt>
      <trkpt lat="48.86786" lon="8.10033">
        <ele>112.4</ele>
        <time>2020-06-28T07:53:59Z</time>
      </trkpt>
      <trkpt lat="48.86784" lon="8.10024">
        <ele>112.4</ele>
        <time>2020-06-28T07:54:00Z</time>
      </trkpt>
      <trkpt lat="48.86782" lon="8.10015">
        <ele>112.4</ele>
        <time>2020-06-28T07:54:01Z</time>
      </trkpt>
      <trkpt lat="48.86779" lon="8.10006">
        <ele>112.4</ele>
        <time>2020-06-28T07:54:02Z</time>
      </trkpt>
      <trkpt lat="48.86777" lon="8.09998">
        <ele>112.3</ele>
        <time>2020-06-28T07:54:03Z</time>
      </trkpt>
      <trkpt lat="48.86774" lon="8.09989">
        <ele>112.3</ele>
        <time>2020-06-28T07:54:04Z</time>
      </trkpt>
      <trkpt lat="48.86772" lon="8.09979">
        <ele>112.3</ele>
        <time>2020-06-28T07:54:05Z</time>
      </trkpt>
      <trkpt lat="48.8677" lon="8.0997">
        <ele>112.4</ele>
        <time>2020-06-28T07:54:06Z</time>
      </trkpt>
      <trkpt lat="48.86767" lon="8.09962">
        <ele>112.4</ele>
        <time>2020-06-28T07:54:07Z</time>
      </trkpt>
      <trkpt lat="48.86764" lon="8.09952">
        <ele>112.4</ele>
        <time>2020-06-28T07:54:08Z</time>
      </trkpt>
      <trkpt lat="48.86762" lon="8.09943">
        <ele>112.4</ele>
        <time>2020-06-28T07:54:09Z</time>
      </trkpt>
      <trkpt lat="48.86759" lon="8.09934">
        <ele>112.4</ele>
        <time>2020-06-28T07:54:10Z</time>
      </trkpt>
      <trkpt lat="48.86757" lon="8.09925">
        <ele>112.4</ele>
        <time>2020-06-28T07:54:11Z</time>
      </trkpt>
      <trkpt lat="48.86755" lon="8.09916">
        <ele>112.4</ele>
        <time>2020-06-28T07:54:12Z</time>
      </trkpt>
      <trkpt lat="48.86753" lon="8.09907">
        <ele>112.4</ele>
        <time>2020-06-28T07:54:13Z</time>
      </trkpt>
      <trkpt lat="48.86751" lon="8.09897">
        <ele>112.3</ele>
        <time>2020-06-28T07:54:14Z</time>
      </trkpt>
      <trkpt lat="48.86749" lon="8.09888">
        <ele>112.3</ele>
        <time>2020-06-28T07:54:15Z</time>
      </trkpt>
      <trkpt lat="48.86746" lon="8.09878">
        <ele>112.4</ele>
        <time>2020-06-28T07:54:16Z</time>
      </trkpt>
      <trkpt lat="48.86744" lon="8.09869">
        <ele>112.4</ele>
        <time>2020-06-28T07:54:17Z</time>
      </trkpt>
      <trkpt lat="48.86742" lon="8.09859">
        <ele>112.4</ele>
        <time>2020-06-28T07:54:18Z</time>
      </trkpt>
      <trkpt lat="48.8674" lon="8.0985">
        <ele>112.5</ele>
        <time>2020-06-28T07:54:19Z</time>
      </trkpt>
      <trkpt lat="48.86738" lon="8.0984">
        <ele>112.5</ele>
        <time>2020-06-28T07:54:20Z</time>
      </trkpt>
      <trkpt lat="48.86737" lon="8.0983">
        <ele>112.5</ele>
        <time>2020-06-28T07:54:21Z</time>
      </trkpt>
      <trkpt lat="48.86736" lon="8.09821">
        <ele>112.5</ele>
        <time>2020-06-28T07:54:22Z</time>
      </trkpt>
      <trkpt lat="48.86734" lon="8.09812">
        <ele>112.6</ele>
        <time>2020-06-28T07:54:23Z</time>
      </trkpt>
      <trkpt lat="48.86733" lon="8.09802">
        <ele>112.6</ele>
        <time>2020-06-28T07:54:24Z</time>
      </trkpt>
      <trkpt lat="48.86732" lon="8.09793">
        <ele>112.6</ele>
        <time>2020-06-28T07:54:25Z</time>
      </trkpt>
      <trkpt lat="48.86731" lon="8.09784">
        <ele>112.6</ele>
        <time>2020-06-28T07:54:26Z</time>
      </trkpt>
      <trkpt lat="48.8673" lon="8.09773">
        <ele>112.6</ele>
        <time>2020-06-28T07:54:27Z</time>
      </trkpt>
      <trkpt lat="48.86729" lon="8.09763">
        <ele>112.6</ele>
        <time>2020-06-28T07:54:28Z</time>
      </trkpt>
      <trkpt lat="48.86727" lon="8.09753">
        <ele>112.6</ele>
        <time>2020-06-28T07:54:29Z</time>
      </trkpt>
      <trkpt lat="48.86725" lon="8.09743">
        <ele>112.6</ele>
        <time>2020-06-28T07:54:30Z</time>
      </trkpt>
      <trkpt lat="48.86724" lon="8.09733">
        <ele>112.6</ele>
        <time>2020-06-28T07:54:31Z</time>
      </trkpt>
      <trkpt lat="48.86722" lon="8.09723">
        <ele>112.6</ele>
        <time>2020-06-28T07:54:32Z</time>
      </trkpt>
      <trkpt lat="48.86719" lon="8.09713">
        <ele>112.7</ele>
        <time>2020-06-28T07:54:33Z</time>
      </trkpt>
      <trkpt lat="48.86718" lon="8.09702">
        <ele>112.7</ele>
        <time>2020-06-28T07:54:34Z</time>
      </trkpt>
      <trkpt lat="48.86716" lon="8.09692">
        <ele>112.7</ele>
        <time>2020-06-28T07:54:35Z</time>
      </trkpt>
      <trkpt lat="48.86714" lon="8.09682">
        <ele>112.8</ele>
        <time>2020-06-28T07:54:36Z</time>
      </trkpt>
      <trkpt lat="48.86713" lon="8.09672">
        <ele>112.8</ele>
        <time>2020-06-28T07:54:37Z</time>
      </trkpt>
      <trkpt lat="48.8671" lon="8.09663">
        <ele>112.8</ele>
        <time>2020-06-28T07:54:38Z</time>
      </trkpt>
      <trkpt lat="48.86708" lon="8.09653">
        <ele>112.9</ele>
        <time>2020-06-28T07:54:39Z</time>
      </trkpt>
      <trkpt lat="48.86706" lon="8.09643">
        <ele>112.9</ele>
        <time>2020-06-28T07:54:40Z</time>
      </trkpt>
      <trkpt lat="48.86703" lon="8.09634">
        <ele>112.9</ele>
        <time>2020-06-28T07:54:41Z</time>
      </trkpt>
      <trkpt lat="48.86701" lon="8.09624">
        <ele>112.9</ele>
        <time>2020-06-28T07:54:42Z</time>
      </trkpt>
      <trkpt lat="48.867" lon="8.09614">
        <ele>112.9</ele>
        <time>2020-06-28T07:54:43Z</time>
      </trkpt>
      <trkpt lat="48.86697" lon="8.09605">
        <ele>112.9</ele>
        <time>2020-06-28T07:54:44Z</time>
      </trkpt>
      <trkpt lat="48.86695" lon="8.09596">
        <ele>112.9</ele>
        <time>2020-06-28T07:54:45Z</time>
      </trkpt>
      <trkpt lat="48.86693" lon="8.09586">
        <ele>112.9</ele>
        <time>2020-06-28T07:54:46Z</time>
      </trkpt>
      <trkpt lat="48.8669" lon="8.09576">
        <ele>112.9</ele>
        <time>2020-06-28T07:54:47Z</time>
      </trkpt>
      <trkpt lat="48.86688" lon="8.09566">
        <ele>112.9</ele>
        <time>2020-06-28T07:54:48Z</time>
      </trkpt>
      <trkpt lat="48.86686" lon="8.09556">
        <ele>112.9</ele>
        <time>2020-06-28T07:54:49Z</time>
      </trkpt>
      <trkpt lat="48.86684" lon="8.09546">
        <ele>113</ele>
        <time>2020-06-28T07:54:50Z</time>
      </trkpt>
      <trkpt lat="48.86683" lon="8.09537">
        <ele>113</ele>
        <time>2020-06-28T07:54:51Z</time>
      </trkpt>
      <trkpt lat="48.86681" lon="8.09528">
        <ele>113</ele>
        <time>2020-06-28T07:54:52Z</time>
      </trkpt>
      <trkpt lat="48.86679" lon="8.09518">
        <ele>113.1</ele>
        <time>2020-06-28T07:54:53Z</time>
      </trkpt>
      <trkpt lat="48.86677" lon="8.09509">
        <ele>113.2</ele>
        <time>2020-06-28T07:54:54Z</time>
      </trkpt>
      <trkpt lat="48.86675" lon="8.095">
        <ele>113.2</ele>
        <time>2020-06-28T07:54:55Z</time>
      </trkpt>
      <trkpt lat="48.86673" lon="8.09491">
        <ele>113.3</ele>
        <time>2020-06-28T07:54:56Z</time>
      </trkpt>
      <trkpt lat="48.8667" lon="8.09483">
        <ele>113.3</ele>
        <time>2020-06-28T07:54:57Z</time>
      </trkpt>
      <trkpt lat="48.86667" lon="8.09474">
        <ele>113.2</ele>
        <time>2020-06-28T07:54:58Z</time>
      </trkpt>
      <trkpt lat="48.86664" lon="8.09466">
        <ele>113.2</ele>
        <time>2020-06-28T07:54:59Z</time>
      </trkpt>
      <trkpt lat="48.8666" lon="8.09459">
        <ele>113.3</ele>
        <time>2020-06-28T07:55:00Z</time>
      </trkpt>
      <trkpt lat="48.86658" lon="8.0945">
        <ele>113.3</ele>
        <time>2020-06-28T07:55:01Z</time>
      </trkpt>
      <trkpt lat="48.86655" lon="8.09443">
        <ele>113.3</ele>
        <time>2020-06-28T07:55:02Z</time>
      </trkpt>
      <trkpt lat="48.86652" lon="8.09436">
        <ele>113.3</ele>
        <time>2020-06-28T07:55:03Z</time>
      </trkpt>
      <trkpt lat="48.86649" lon="8.09428">
        <ele>113.3</ele>
        <time>2020-06-28T07:55:04Z</time>
      </trkpt>
      <trkpt lat="48.86647" lon="8.09419">
        <ele>113.3</ele>
        <time>2020-06-28T07:55:05Z</time>
      </trkpt>
      <trkpt lat="48.86645" lon="8.09409">
        <ele>113.3</ele>
        <time>2020-06-28T07:55:06Z</time>
      </trkpt>
      <trkpt lat="48.86642" lon="8.094">
        <ele>113.3</ele>
        <time>2020-06-28T07:55:07Z</time>
      </trkpt>
      <trkpt lat="48.86641" lon="8.0939">
        <ele>113.3</ele>
        <time>2020-06-28T07:55:08Z</time>
      </trkpt>
      <trkpt lat="48.86638" lon="8.09382">
        <ele>113.3</ele>
        <time>2020-06-28T07:55:09Z</time>
      </trkpt>
      <trkpt lat="48.86636" lon="8.09373">
        <ele>113.2</ele>
        <time>2020-06-28T07:55:10Z</time>
      </trkpt>
      <trkpt lat="48.86633" lon="8.09365">
        <ele>113.2</ele>
        <time>2020-06-28T07:55:11Z</time>
      </trkpt>
      <trkpt lat="48.8663" lon="8.09356">
        <ele>113.2</ele>
        <time>2020-06-28T07:55:12Z</time>
      </trkpt>
      <trkpt lat="48.86627" lon="8.09348">
        <ele>113.2</ele>
        <time>2020-06-28T07:55:13Z</time>
      </trkpt>
      <trkpt lat="48.86624" lon="8.09341">
        <ele>113.2</ele>
        <time>2020-06-28T07:55:14Z</time>
      </trkpt>
      <trkpt lat="48.86621" lon="8.09333">
        <ele>113.2</ele>
        <time>2020-06-28T07:55:15Z</time>
      </trkpt>
      <trkpt lat="48.86618" lon="8.09324">
        <ele>113.2</ele>
        <time>2020-06-28T07:55:16Z</time>
      </trkpt>
      <trkpt lat="48.86616" lon="8.09314">
        <ele>113.2</ele>
        <time>2020-06-28T07:55:17Z</time>
      </trkpt>
      <trkpt lat="48.86612" lon="8.09306">
        <ele>113.2</ele>
        <time>2020-06-28T07:55:18Z</time>
      </trkpt>
      <trkpt lat="48.86609" lon="8.09297">
        <ele>113.2</ele>
        <time>2020-06-28T07:55:19Z</time>
      </trkpt>
      <trkpt lat="48.86607" lon="8.09288">
        <ele>113.2</ele>
        <time>2020-06-28T07:55:20Z</time>
      </trkpt>
      <trkpt lat="48.86604" lon="8.09279">
        <ele>113.2</ele>
        <time>2020-06-28T07:55:21Z</time>
      </trkpt>
      <trkpt lat="48.86601" lon="8.09271">
        <ele>113.2</ele>
        <time>2020-06-28T07:55:22Z</time>
      </trkpt>
      <trkpt lat="48.86598" lon="8.09264">
        <ele>113.1</ele>
        <time>2020-06-28T07:55:23Z</time>
      </trkpt>
      <trkpt lat="48.86596" lon="8.09256">
        <ele>113.1</ele>
        <time>2020-06-28T07:55:24Z</time>
      </trkpt>
      <trkpt lat="48.86593" lon="8.09249">
        <ele>113.1</ele>
        <time>2020-06-28T07:55:25Z</time>
      </trkpt>
      <trkpt lat="48.8659" lon="8.09241">
        <ele>113.1</ele>
        <time>2020-06-28T07:55:26Z</time>
      </trkpt>
      <trkpt lat="48.86588" lon="8.09233">
        <ele>113.1</ele>
        <time>2020-06-28T07:55:27Z</time>
      </trkpt>
      <trkpt lat="48.86585" lon="8.09225">
        <ele>113.1</ele>
        <time>2020-06-28T07:55:28Z</time>
      </trkpt>
      <trkpt lat="48.86582" lon="8.09216">
        <ele>113.1</ele>
        <time>2020-06-28T07:55:29Z</time>
      </trkpt>
      <trkpt lat="48.8658" lon="8.09207">
        <ele>113</ele>
        <time>2020-06-28T07:55:30Z</time>
      </trkpt>
      <trkpt lat="48.86577" lon="8.09199">
        <ele>113</ele>
        <time>2020-06-28T07:55:31Z</time>
      </trkpt>
      <trkpt lat="48.86573" lon="8.0919">
        <ele>113.1</ele>
        <time>2020-06-28T07:55:32Z</time>
      </trkpt>
      <trkpt lat="48.8657" lon="8.09182">
        <ele>113.1</ele>
        <time>2020-06-28T07:55:33Z</time>
      </trkpt>
      <trkpt lat="48.86568" lon="8.09172">
        <ele>113.1</ele>
        <time>2020-06-28T07:55:34Z</time>
      </trkpt>
      <trkpt lat="48.86566" lon="8.09162">
        <ele>113.1</ele>
        <time>2020-06-28T07:55:35Z</time>
      </trkpt>
      <trkpt lat="48.86564" lon="8.09152">
        <ele>113.1</ele>
        <time>2020-06-28T07:55:36Z</time>
      </trkpt>
      <trkpt lat="48.8656" lon="8.09143">
        <ele>113.1</ele>
        <time>2020-06-28T07:55:37Z</time>
      </trkpt>
      <trkpt lat="48.86558" lon="8.09133">
        <ele>113.1</ele>
        <time>2020-06-28T07:55:38Z</time>
      </trkpt>
      <trkpt lat="48.86557" lon="8.09124">
        <ele>113.1</ele>
        <time>2020-06-28T07:55:39Z</time>
      </trkpt>
      <trkpt lat="48.86555" lon="8.09114">
        <ele>113.2</ele>
        <time>2020-06-28T07:55:40Z</time>
      </trkpt>
      <trkpt lat="48.86553" lon="8.09106">
        <ele>113.2</ele>
        <time>2020-06-28T07:55:41Z</time>
      </trkpt>
      <trkpt lat="48.86552" lon="8.09097">
        <ele>113.2</ele>
        <time>2020-06-28T07:55:42Z</time>
      </trkpt>
      <trkpt lat="48.86549" lon="8.09089">
        <ele>113.2</ele>
        <time>2020-06-28T07:55:43Z</time>
      </trkpt>
      <trkpt lat="48.86546" lon="8.09081">
        <ele>113.2</ele>
        <time>2020-06-28T07:55:44Z</time>
      </trkpt>
      <trkpt lat="48.86543" lon="8.09073">
        <ele>113.2</ele>
        <time>2020-06-28T07:55:45Z</time>
      </trkpt>
      <trkpt lat="48.86541" lon="8.09064">
        <ele>113.2</ele>
        <time>2020-06-28T07:55:46Z</time>
      </trkpt>
      <trkpt lat="48.86538" lon="8.09057">
        <ele>113.2</ele>
        <time>2020-06-28T07:55:47Z</time>
      </trkpt>
      <trkpt lat="48.86535" lon="8.09049">
        <ele>113.2</ele>
        <time>2020-06-28T07:55:48Z</time>
      </trkpt>
      <trkpt lat="48.8653" lon="8.09042">
        <ele>113.2</ele>
        <time>2020-06-28T07:55:49Z</time>
      </trkpt>
      <trkpt lat="48.86526" lon="8.09035">
        <ele>113.2</ele>
        <time>2020-06-28T07:55:50Z</time>
      </trkpt>
      <trkpt lat="48.86521" lon="8.09029">
        <ele>113.3</ele>
        <time>2020-06-28T07:55:51Z</time>
      </trkpt>
      <trkpt lat="48.86518" lon="8.09023">
        <ele>113.3</ele>
        <time>2020-06-28T07:55:52Z</time>
      </trkpt>
      <trkpt lat="48.86514" lon="8.09017">
        <ele>113.2</ele>
        <time>2020-06-28T07:55:53Z</time>
      </trkpt>
      <trkpt lat="48.8651" lon="8.09012">
        <ele>113.2</ele>
        <time>2020-06-28T07:55:54Z</time>
      </trkpt>
      <trkpt lat="48.86506" lon="8.09008">
        <ele>113.2</ele>
        <time>2020-06-28T07:55:55Z</time>
      </trkpt>
      <trkpt lat="48.86502" lon="8.09005">
        <ele>113.2</ele>
        <time>2020-06-28T07:55:56Z</time>
      </trkpt>
      <trkpt lat="48.86497" lon="8.09001">
        <ele>113.2</ele>
        <time>2020-06-28T07:55:57Z</time>
      </trkpt>
      <trkpt lat="48.86493" lon="8.08996">
        <ele>113.1</ele>
        <time>2020-06-28T07:55:58Z</time>
      </trkpt>
      <trkpt lat="48.86489" lon="8.08992">
        <ele>113.1</ele>
        <time>2020-06-28T07:55:59Z</time>
      </trkpt>
      <trkpt lat="48.86484" lon="8.08989">
        <ele>113.1</ele>
        <time>2020-06-28T07:56:00Z</time>
      </trkpt>
      <trkpt lat="48.8648" lon="8.08984">
        <ele>113.1</ele>
        <time>2020-06-28T07:56:01Z</time>
      </trkpt>
      <trkpt lat="48.86476" lon="8.08979">
        <ele>113.1</ele>
        <time>2020-06-28T07:56:02Z</time>
      </trkpt>
      <trkpt lat="48.86473" lon="8.08975">
        <ele>113.1</ele>
        <time>2020-06-28T07:56:03Z</time>
      </trkpt>
      <trkpt lat="48.86469" lon="8.08972">
        <ele>113.1</ele>
        <time>2020-06-28T07:56:04Z</time>
      </trkpt>
      <trkpt lat="48.86467" lon="8.08966">
        <ele>113.1</ele>
        <time>2020-06-28T07:56:05Z</time>
      </trkpt>
      <trkpt lat="48.86465" lon="8.08962">
        <ele>113.2</ele>
        <time>2020-06-28T07:56:06Z</time>
      </trkpt>
      <trkpt lat="48.86463" lon="8.08957">
        <ele>113.2</ele>
        <time>2020-06-28T07:56:07Z</time>
      </trkpt>
      <trkpt lat="48.86462" lon="8.08951">
        <ele>113.2</ele>
        <time>2020-06-28T07:56:08Z</time>
      </trkpt>
      <trkpt lat="48.86461" lon="8.08946">
        <ele>113.4</ele>
        <time>2020-06-28T07:56:09Z</time>
      </trkpt>
      <trkpt lat="48.86463" lon="8.08942">
        <ele>113.4</ele>
        <time>2020-06-28T07:56:10Z</time>
      </trkpt>
      <trkpt lat="48.86465" lon="8.08939">
        <ele>113.4</ele>
        <time>2020-06-28T07:56:11Z</time>
      </trkpt>
      <trkpt lat="48.86467" lon="8.08936">
        <ele>113.4</ele>
        <time>2020-06-28T07:56:12Z</time>
      </trkpt>
      <trkpt lat="48.86468" lon="8.0893">
        <ele>113.4</ele>
        <time>2020-06-28T07:56:13Z</time>
      </trkpt>
      <trkpt lat="48.86468" lon="8.08928">
        <ele>113.4</ele>
        <time>2020-06-28T07:56:14Z</time>
      </trkpt>
      <trkpt lat="48.8647" lon="8.08924">
        <ele>113.5</ele>
        <time>2020-06-28T07:56:15Z</time>
      </trkpt>
      <trkpt lat="48.86471" lon="8.08922">
        <ele>113.5</ele>
        <time>2020-06-28T07:56:16Z</time>
      </trkpt>
      <trkpt lat="48.86473" lon="8.0892">
        <ele>113.5</ele>
        <time>2020-06-28T07:56:17Z</time>
      </trkpt>
      <trkpt lat="48.86475" lon="8.08916">
        <ele>113.5</ele>
        <time>2020-06-28T07:56:18Z</time>
      </trkpt>
      <trkpt lat="48.86476" lon="8.08911">
        <ele>113.6</ele>
        <time>2020-06-28T07:56:19Z</time>
      </trkpt>
      <trkpt lat="48.86478" lon="8.08907">
        <ele>113.6</ele>
        <time>2020-06-28T07:56:20Z</time>
      </trkpt>
      <trkpt lat="48.86478" lon="8.08901">
        <ele>113.5</ele>
        <time>2020-06-28T07:56:21Z</time>
      </trkpt>
      <trkpt lat="48.86479" lon="8.08894">
        <ele>113.5</ele>
        <time>2020-06-28T07:56:22Z</time>
      </trkpt>
      <trkpt lat="48.8648" lon="8.08887">
        <ele>113.5</ele>
        <time>2020-06-28T07:56:23Z</time>
      </trkpt>
      <trkpt lat="48.86482" lon="8.0888">
        <ele>113.5</ele>
        <time>2020-06-28T07:56:24Z</time>
      </trkpt>
      <trkpt lat="48.86482" lon="8.08873">
        <ele>113.4</ele>
        <time>2020-06-28T07:56:25Z</time>
      </trkpt>
      <trkpt lat="48.86483" lon="8.08866">
        <ele>113.4</ele>
        <time>2020-06-28T07:56:26Z</time>
      </trkpt>
      <trkpt lat="48.86483" lon="8.08858">
        <ele>113.4</ele>
        <time>2020-06-28T07:56:27Z</time>
      </trkpt>
      <trkpt lat="48.86483" lon="8.0885">
        <ele>113.3</ele>
        <time>2020-06-28T07:56:28Z</time>
      </trkpt>
      <trkpt lat="48.86483" lon="8.08842">
        <ele>113.3</ele>
        <time>2020-06-28T07:56:29Z</time>
      </trkpt>
      <trkpt lat="48.86481" lon="8.08831">
        <ele>113.3</ele>
        <time>2020-06-28T07:56:30Z</time>
      </trkpt>
      <trkpt lat="48.86479" lon="8.08821">
        <ele>113.3</ele>
        <time>2020-06-28T07:56:31Z</time>
      </trkpt>
      <trkpt lat="48.86476" lon="8.08813">
        <ele>113.2</ele>
        <time>2020-06-28T07:56:32Z</time>
      </trkpt>
      <trkpt lat="48.86474" lon="8.08804">
        <ele>113.2</ele>
        <time>2020-06-28T07:56:33Z</time>
      </trkpt>
      <trkpt lat="48.86473" lon="8.08797">
        <ele>113.2</ele>
        <time>2020-06-28T07:56:34Z</time>
      </trkpt>
      <trkpt lat="48.86472" lon="8.08789">
        <ele>113.1</ele>
        <time>2020-06-28T07:56:35Z</time>
      </trkpt>
      <trkpt lat="48.8647" lon="8.08779">
        <ele>113.1</ele>
        <time>2020-06-28T07:56:36Z</time>
      </trkpt>
      <trkpt lat="48.86468" lon="8.08771">
        <ele>113.1</ele>
        <time>2020-06-28T07:56:37Z</time>
      </trkpt>
      <trkpt lat="48.86466" lon="8.08763">
        <ele>113.1</ele>
        <time>2020-06-28T07:56:38Z</time>
      </trkpt>
      <trkpt lat="48.86464" lon="8.08755">
        <ele>113.1</ele>
        <time>2020-06-28T07:56:39Z</time>
      </trkpt>
      <trkpt lat="48.86462" lon="8.08747">
        <ele>113.1</ele>
        <time>2020-06-28T07:56:40Z</time>
      </trkpt>
      <trkpt lat="48.86459" lon="8.08739">
        <ele>113.1</ele>
        <time>2020-06-28T07:56:41Z</time>
      </trkpt>
      <trkpt lat="48.86456" lon="8.08733">
        <ele>113.1</ele>
        <time>2020-06-28T07:56:42Z</time>
      </trkpt>
      <trkpt lat="48.86454" lon="8.08726">
        <ele>113.1</ele>
        <time>2020-06-28T07:56:43Z</time>
      </trkpt>
      <trkpt lat="48.86451" lon="8.08721">
        <ele>113.1</ele>
        <time>2020-06-28T07:56:44Z</time>
      </trkpt>
      <trkpt lat="48.86448" lon="8.08714">
        <ele>113.1</ele>
        <time>2020-06-28T07:56:45Z</time>
      </trkpt>
      <trkpt lat="48.86445" lon="8.08708">
        <ele>113.2</ele>
        <time>2020-06-28T07:56:46Z</time>
      </trkpt>
      <trkpt lat="48.86443" lon="8.08703">
        <ele>113.2</ele>
        <time>2020-06-28T07:56:47Z</time>
      </trkpt>
      <trkpt lat="48.8644" lon="8.08697">
        <ele>113.3</ele>
        <time>2020-06-28T07:56:48Z</time>
      </trkpt>
      <trkpt lat="48.86437" lon="8.08691">
        <ele>113.4</ele>
        <time>2020-06-28T07:56:49Z</time>
      </trkpt>
      <trkpt lat="48.86433" lon="8.08686">
        <ele>113.5</ele>
        <time>2020-06-28T07:56:50Z</time>
      </trkpt>
      <trkpt lat="48.8643" lon="8.0868">
        <ele>113.5</ele>
        <time>2020-06-28T07:56:51Z</time>
      </trkpt>
      <trkpt lat="48.86427" lon="8.08676">
        <ele>113.6</ele>
        <time>2020-06-28T07:56:52Z</time>
      </trkpt>
      <trkpt lat="48.86423" lon="8.08671">
        <ele>113.6</ele>
        <time>2020-06-28T07:56:53Z</time>
      </trkpt>
      <trkpt lat="48.86419" lon="8.08666">
        <ele>113.7</ele>
        <time>2020-06-28T07:56:54Z</time>
      </trkpt>
      <trkpt lat="48.86416" lon="8.08663">
        <ele>113.7</ele>
        <time>2020-06-28T07:56:55Z</time>
      </trkpt>
      <trkpt lat="48.86413" lon="8.08657">
        <ele>113.8</ele>
        <time>2020-06-28T07:56:56Z</time>
      </trkpt>
      <trkpt lat="48.8641" lon="8.08654">
        <ele>113.8</ele>
        <time>2020-06-28T07:56:57Z</time>
      </trkpt>
      <trkpt lat="48.86407" lon="8.0865">
        <ele>113.8</ele>
        <time>2020-06-28T07:56:58Z</time>
      </trkpt>
      <trkpt lat="48.86404" lon="8.08647">
        <ele>113.8</ele>
        <time>2020-06-28T07:56:59Z</time>
      </trkpt>
      <trkpt lat="48.864" lon="8.08644">
        <ele>113.9</ele>
        <time>2020-06-28T07:57:00Z</time>
      </trkpt>
      <trkpt lat="48.86399" lon="8.08642">
        <ele>113.9</ele>
        <time>2020-06-28T07:57:01Z</time>
      </trkpt>
      <trkpt lat="48.86395" lon="8.08639">
        <ele>113.9</ele>
        <time>2020-06-28T07:57:02Z</time>
      </trkpt>
      <trkpt lat="48.86391" lon="8.08636">
        <ele>113.9</ele>
        <time>2020-06-28T07:57:03Z</time>
      </trkpt>
      <trkpt lat="48.86388" lon="8.08634">
        <ele>113.9</ele>
        <time>2020-06-28T07:57:04Z</time>
      </trkpt>
      <trkpt lat="48.86385" lon="8.0863">
        <ele>113.9</ele>
        <time>2020-06-28T07:57:05Z</time>
      </trkpt>
      <trkpt lat="48.86381" lon="8.08625">
        <ele>113.9</ele>
        <time>2020-06-28T07:57:06Z</time>
      </trkpt>
      <trkpt lat="48.86377" lon="8.08621">
        <ele>114</ele>
        <time>2020-06-28T07:57:07Z</time>
      </trkpt>
      <trkpt lat="48.86374" lon="8.08617">
        <ele>114.1</ele>
        <time>2020-06-28T07:57:08Z</time>
      </trkpt>
      <trkpt lat="48.86371" lon="8.08613">
        <ele>114.2</ele>
        <time>2020-06-28T07:57:09Z</time>
      </trkpt>
      <trkpt lat="48.86367" lon="8.08609">
        <ele>114.2</ele>
        <time>2020-06-28T07:57:10Z</time>
      </trkpt>
      <trkpt lat="48.86364" lon="8.08604">
        <ele>114.2</ele>
        <time>2020-06-28T07:57:11Z</time>
      </trkpt>
      <trkpt lat="48.86362" lon="8.08602">
        <ele>114.2</ele>
        <time>2020-06-28T07:57:12Z</time>
      </trkpt>
      <trkpt lat="48.86358" lon="8.08597">
        <ele>114.3</ele>
        <time>2020-06-28T07:57:13Z</time>
      </trkpt>
      <trkpt lat="48.86354" lon="8.08592">
        <ele>114.3</ele>
        <time>2020-06-28T07:57:14Z</time>
      </trkpt>
      <trkpt lat="48.8635" lon="8.08587">
        <ele>114.4</ele>
        <time>2020-06-28T07:57:15Z</time>
      </trkpt>
      <trkpt lat="48.86348" lon="8.08582">
        <ele>114.4</ele>
        <time>2020-06-28T07:57:16Z</time>
      </trkpt>
      <trkpt lat="48.86345" lon="8.08573">
        <ele>114.5</ele>
        <time>2020-06-28T07:57:17Z</time>
      </trkpt>
      <trkpt lat="48.86343" lon="8.08565">
        <ele>114.6</ele>
        <time>2020-06-28T07:57:18Z</time>
      </trkpt>
      <trkpt lat="48.8634" lon="8.08555">
        <ele>114.6</ele>
        <time>2020-06-28T07:57:19Z</time>
      </trkpt>
      <trkpt lat="48.86338" lon="8.08548">
        <ele>114.7</ele>
        <time>2020-06-28T07:57:20Z</time>
      </trkpt>
      <trkpt lat="48.86337" lon="8.0854">
        <ele>114.7</ele>
        <time>2020-06-28T07:57:21Z</time>
      </trkpt>
      <trkpt lat="48.86336" lon="8.08532">
        <ele>114.8</ele>
        <time>2020-06-28T07:57:22Z</time>
      </trkpt>
      <trkpt lat="48.86336" lon="8.08526">
        <ele>114.9</ele>
        <time>2020-06-28T07:57:23Z</time>
      </trkpt>
      <trkpt lat="48.86336" lon="8.08518">
        <ele>114.9</ele>
        <time>2020-06-28T07:57:24Z</time>
      </trkpt>
      <trkpt lat="48.86336" lon="8.08511">
        <ele>115</ele>
        <time>2020-06-28T07:57:25Z</time>
      </trkpt>
      <trkpt lat="48.86337" lon="8.08503">
        <ele>115</ele>
        <time>2020-06-28T07:57:26Z</time>
      </trkpt>
      <trkpt lat="48.86336" lon="8.08495">
        <ele>115.1</ele>
        <time>2020-06-28T07:57:27Z</time>
      </trkpt>
      <trkpt lat="48.86336" lon="8.08488">
        <ele>115.1</ele>
        <time>2020-06-28T07:57:28Z</time>
      </trkpt>
      <trkpt lat="48.86336" lon="8.08481">
        <ele>115.2</ele>
        <time>2020-06-28T07:57:29Z</time>
      </trkpt>
      <trkpt lat="48.86335" lon="8.08474">
        <ele>115.3</ele>
        <time>2020-06-28T07:57:30Z</time>
      </trkpt>
      <trkpt lat="48.86335" lon="8.08467">
        <ele>115.3</ele>
        <time>2020-06-28T07:57:31Z</time>
      </trkpt>
      <trkpt lat="48.86334" lon="8.08462">
        <ele>115.4</ele>
        <time>2020-06-28T07:57:32Z</time>
      </trkpt>
      <trkpt lat="48.86333" lon="8.08457">
        <ele>115.4</ele>
        <time>2020-06-28T07:57:33Z</time>
      </trkpt>
      <trkpt lat="48.8633" lon="8.08451">
        <ele>115.5</ele>
        <time>2020-06-28T07:57:34Z</time>
      </trkpt>
      <trkpt lat="48.86329" lon="8.08449">
        <ele>115.6</ele>
        <time>2020-06-28T07:57:35Z</time>
      </trkpt>
      <trkpt lat="48.86326" lon="8.08446">
        <ele>115.5</ele>
        <time>2020-06-28T07:57:36Z</time>
      </trkpt>
      <trkpt lat="48.86322" lon="8.08444">
        <ele>115.4</ele>
        <time>2020-06-28T07:57:37Z</time>
      </trkpt>
      <trkpt lat="48.86317" lon="8.08442">
        <ele>115.3</ele>
        <time>2020-06-28T07:57:38Z</time>
      </trkpt>
      <trkpt lat="48.86313" lon="8.0844">
        <ele>115.3</ele>
        <time>2020-06-28T07:57:39Z</time>
      </trkpt>
      <trkpt lat="48.86308" lon="8.08437">
        <ele>115.2</ele>
        <time>2020-06-28T07:57:40Z</time>
      </trkpt>
      <trkpt lat="48.86304" lon="8.08434">
        <ele>115.2</ele>
        <time>2020-06-28T07:57:41Z</time>
      </trkpt>
      <trkpt lat="48.86301" lon="8.08428">
        <ele>115.1</ele>
        <time>2020-06-28T07:57:42Z</time>
      </trkpt>
      <trkpt lat="48.86297" lon="8.08424">
        <ele>115.1</ele>
        <time>2020-06-28T07:57:43Z</time>
      </trkpt>
      <trkpt lat="48.86294" lon="8.08422">
        <ele>115</ele>
        <time>2020-06-28T07:57:44Z</time>
      </trkpt>
      <trkpt lat="48.86291" lon="8.08421">
        <ele>115</ele>
        <time>2020-06-28T07:57:45Z</time>
      </trkpt>
      <trkpt lat="48.86287" lon="8.08423">
        <ele>115</ele>
        <time>2020-06-28T07:57:46Z</time>
      </trkpt>
      <trkpt lat="48.86286" lon="8.08423">
        <ele>115</ele>
        <time>2020-06-28T07:57:47Z</time>
      </trkpt>
      <trkpt lat="48.86287" lon="8.08421">
        <ele>115</ele>
        <time>2020-06-28T07:57:48Z</time>
      </trkpt>
      <trkpt lat="48.86287" lon="8.08422">
        <ele>115</ele>
        <time>2020-06-28T07:57:49Z</time>
      </trkpt>
      <trkpt lat="48.86287" lon="8.08422">
        <ele>115</ele>
        <time>2020-06-28T07:57:50Z</time>
      </trkpt>
      <trkpt lat="48.86287" lon="8.08421">
        <ele>115</ele>
        <time>2020-06-28T07:57:51Z</time>
      </trkpt>
      <trkpt lat="48.86287" lon="8.08421">
        <ele>115</ele>
        <time>2020-06-28T07:57:52Z</time>
      </trkpt>
      <trkpt lat="48.86286" lon="8.08421">
        <ele>115</ele>
        <time>2020-06-28T07:57:53Z</time>
      </trkpt>
      <trkpt lat="48.86287" lon="8.0842">
        <ele>114.9</ele>
        <time>2020-06-28T07:57:54Z</time>
      </trkpt>
      <trkpt lat="48.86287" lon="8.08421">
        <ele>114.9</ele>
        <time>2020-06-28T07:57:55Z</time>
      </trkpt>
      <trkpt lat="48.86286" lon="8.08422">
        <ele>114.9</ele>
        <time>2020-06-28T07:57:56Z</time>
      </trkpt>
      <trkpt lat="48.86286" lon="8.08421">
        <ele>114.9</ele>
        <time>2020-06-28T07:57:57Z</time>
      </trkpt>
      <trkpt lat="48.86287" lon="8.08419">
        <ele>114.9</ele>
        <time>2020-06-28T07:57:58Z</time>
      </trkpt>
      <trkpt lat="48.86288" lon="8.08419">
        <ele>114.9</ele>
        <time>2020-06-28T07:57:59Z</time>
      </trkpt>
      <trkpt lat="48.86287" lon="8.08419">
        <ele>114.9</ele>
        <time>2020-06-28T07:58:00Z</time>
      </trkpt>
      <trkpt lat="48.86288" lon="8.08419">
        <ele>114.9</ele>
        <time>2020-06-28T07:58:01Z</time>
      </trkpt>
      <trkpt lat="48.86286" lon="8.08418">
        <ele>114.9</ele>
        <time>2020-06-28T07:58:02Z</time>
      </trkpt>
      <trkpt lat="48.86285" lon="8.08417">
        <ele>114.9</ele>
        <time>2020-06-28T07:58:03Z</time>
      </trkpt>
      <trkpt lat="48.86285" lon="8.08416">
        <ele>114.9</ele>
        <time>2020-06-28T07:58:04Z</time>
      </trkpt>
      <trkpt lat="48.86285" lon="8.08414">
        <ele>114.9</ele>
        <time>2020-06-28T07:58:05Z</time>
      </trkpt>
      <trkpt lat="48.86284" lon="8.08415">
        <ele>114.9</ele>
        <time>2020-06-28T07:58:06Z</time>
      </trkpt>
      <trkpt lat="48.86284" lon="8.08414">
        <ele>114.9</ele>
        <time>2020-06-28T07:58:07Z</time>
      </trkpt>
      <trkpt lat="48.86284" lon="8.08415">
        <ele>114.9</ele>
        <time>2020-06-28T07:58:08Z</time>
      </trkpt>
      <trkpt lat="48.86284" lon="8.08415">
        <ele>114.9</ele>
        <time>2020-06-28T07:58:09Z</time>
      </trkpt>
      <trkpt lat="48.86284" lon="8.08416">
        <ele>114.9</ele>
        <time>2020-06-28T07:58:10Z</time>
      </trkpt>
      <trkpt lat="48.86284" lon="8.08416">
        <ele>114.9</ele>
        <time>2020-06-28T07:58:11Z</time>
      </trkpt>
      <trkpt lat="48.86284" lon="8.08416">
        <ele>114.9</ele>
        <time>2020-06-28T07:58:12Z</time>
      </trkpt>
      <trkpt lat="48.86281" lon="8.08408">
        <ele>114.9</ele>
        <time>2020-06-28T08:00:49Z</time>
      </trkpt>
      <trkpt lat="48.8628" lon="8.08408">
        <ele>114.9</ele>
        <time>2020-06-28T08:00:50Z</time>
      </trkpt>
      <trkpt lat="48.86279" lon="8.08408">
        <ele>114.9</ele>
        <time>2020-06-28T08:00:51Z</time>
      </trkpt>
      <trkpt lat="48.86277" lon="8.08403">
        <ele>114.8</ele>
        <time>2020-06-28T08:00:52Z</time>
      </trkpt>
      <trkpt lat="48.86276" lon="8.08402">
        <ele>114.8</ele>
        <time>2020-06-28T08:00:53Z</time>
      </trkpt>
      <trkpt lat="48.86273" lon="8.08398">
        <ele>114.8</ele>
        <time>2020-06-28T08:00:54Z</time>
      </trkpt>
      <trkpt lat="48.86272" lon="8.08397">
        <ele>114.8</ele>
        <time>2020-06-28T08:00:55Z</time>
      </trkpt>
      <trkpt lat="48.86269" lon="8.08393">
        <ele>114.7</ele>
        <time>2020-06-28T08:00:56Z</time>
      </trkpt>
      <trkpt lat="48.86268" lon="8.08391">
        <ele>114.7</ele>
        <time>2020-06-28T08:00:57Z</time>
      </trkpt>
      <trkpt lat="48.86266" lon="8.08387">
        <ele>114.7</ele>
        <time>2020-06-28T08:00:58Z</time>
      </trkpt>
      <trkpt lat="48.86264" lon="8.08385">
        <ele>114.7</ele>
        <time>2020-06-28T08:00:59Z</time>
      </trkpt>
      <trkpt lat="48.86262" lon="8.08381">
        <ele>114.6</ele>
        <time>2020-06-28T08:01:00Z</time>
      </trkpt>
      <trkpt lat="48.86261" lon="8.0838">
        <ele>114.6</ele>
        <time>2020-06-28T08:01:01Z</time>
      </trkpt>
      <trkpt lat="48.86258" lon="8.08379">
        <ele>114.6</ele>
        <time>2020-06-28T08:01:02Z</time>
      </trkpt>
      <trkpt lat="48.86254" lon="8.08376">
        <ele>114.6</ele>
        <time>2020-06-28T08:01:03Z</time>
      </trkpt>
      <trkpt lat="48.8625" lon="8.08372">
        <ele>114.6</ele>
        <time>2020-06-28T08:01:04Z</time>
      </trkpt>
      <trkpt lat="48.86246" lon="8.08369">
        <ele>114.5</ele>
        <time>2020-06-28T08:01:05Z</time>
      </trkpt>
      <trkpt lat="48.86243" lon="8.08365">
        <ele>114.5</ele>
        <time>2020-06-28T08:01:06Z</time>
      </trkpt>
      <trkpt lat="48.86241" lon="8.08362">
        <ele>114.5</ele>
        <time>2020-06-28T08:01:07Z</time>
      </trkpt>
      <trkpt lat="48.86241" lon="8.08361">
        <ele>114.5</ele>
        <time>2020-06-28T08:01:08Z</time>
      </trkpt>
      <trkpt lat="48.8624" lon="8.0836">
        <ele>114.5</ele>
        <time>2020-06-28T08:01:09Z</time>
      </trkpt>
      <trkpt lat="48.86238" lon="8.08359">
        <ele>114.5</ele>
        <time>2020-06-28T08:01:10Z</time>
      </trkpt>
      <trkpt lat="48.86235" lon="8.08357">
        <ele>114.5</ele>
        <time>2020-06-28T08:01:11Z</time>
      </trkpt>
      <trkpt lat="48.86233" lon="8.08352">
        <ele>114.5</ele>
        <time>2020-06-28T08:01:12Z</time>
      </trkpt>
      <trkpt lat="48.86231" lon="8.08349">
        <ele>114.5</ele>
        <time>2020-06-28T08:01:13Z</time>
      </trkpt>
      <trkpt lat="48.86229" lon="8.08346">
        <ele>114.5</ele>
        <time>2020-06-28T08:01:14Z</time>
      </trkpt>
      <trkpt lat="48.86226" lon="8.08342">
        <ele>114.5</ele>
        <time>2020-06-28T08:01:15Z</time>
      </trkpt>
      <trkpt lat="48.86224" lon="8.0834">
        <ele>114.5</ele>
        <time>2020-06-28T08:01:16Z</time>
      </trkpt>
      <trkpt lat="48.86222" lon="8.08337">
        <ele>114.5</ele>
        <time>2020-06-28T08:01:17Z</time>
      </trkpt>
      <trkpt lat="48.8622" lon="8.08335">
        <ele>114.6</ele>
        <time>2020-06-28T08:01:18Z</time>
      </trkpt>
      <trkpt lat="48.86217" lon="8.08332">
        <ele>114.6</ele>
        <time>2020-06-28T08:01:19Z</time>
      </trkpt>
      <trkpt lat="48.86213" lon="8.08329">
        <ele>114.6</ele>
        <time>2020-06-28T08:01:20Z</time>
      </trkpt>
      <trkpt lat="48.8621" lon="8.08326">
        <ele>114.6</ele>
        <time>2020-06-28T08:01:21Z</time>
      </trkpt>
      <trkpt lat="48.86207" lon="8.08322">
        <ele>114.7</ele>
        <time>2020-06-28T08:01:22Z</time>
      </trkpt>
      <trkpt lat="48.86204" lon="8.08317">
        <ele>114.7</ele>
        <time>2020-06-28T08:01:23Z</time>
      </trkpt>
      <trkpt lat="48.86202" lon="8.08313">
        <ele>114.8</ele>
        <time>2020-06-28T08:01:24Z</time>
      </trkpt>
      <trkpt lat="48.862" lon="8.08311">
        <ele>114.8</ele>
        <time>2020-06-28T08:01:25Z</time>
      </trkpt>
      <trkpt lat="48.86197" lon="8.08307">
        <ele>114.9</ele>
        <time>2020-06-28T08:01:26Z</time>
      </trkpt>
      <trkpt lat="48.86194" lon="8.08304">
        <ele>114.9</ele>
        <time>2020-06-28T08:01:27Z</time>
      </trkpt>
      <trkpt lat="48.86191" lon="8.083">
        <ele>114.9</ele>
        <time>2020-06-28T08:01:28Z</time>
      </trkpt>
      <trkpt lat="48.86188" lon="8.08296">
        <ele>114.9</ele>
        <time>2020-06-28T08:01:29Z</time>
      </trkpt>
      <trkpt lat="48.86186" lon="8.08292">
        <ele>114.8</ele>
        <time>2020-06-28T08:01:30Z</time>
      </trkpt>
      <trkpt lat="48.86182" lon="8.08289">
        <ele>114.8</ele>
        <time>2020-06-28T08:01:31Z</time>
      </trkpt>
      <trkpt lat="48.8618" lon="8.08284">
        <ele>114.8</ele>
        <time>2020-06-28T08:01:32Z</time>
      </trkpt>
      <trkpt lat="48.86176" lon="8.0828">
        <ele>114.8</ele>
        <time>2020-06-28T08:01:33Z</time>
      </trkpt>
      <trkpt lat="48.86173" lon="8.08278">
        <ele>114.8</ele>
        <time>2020-06-28T08:01:34Z</time>
      </trkpt>
      <trkpt lat="48.86171" lon="8.08272">
        <ele>114.8</ele>
        <time>2020-06-28T08:01:35Z</time>
      </trkpt>
      <trkpt lat="48.86168" lon="8.08267">
        <ele>114.8</ele>
        <time>2020-06-28T08:01:36Z</time>
      </trkpt>
      <trkpt lat="48.86164" lon="8.08262">
        <ele>114.8</ele>
        <time>2020-06-28T08:01:37Z</time>
      </trkpt>
      <trkpt lat="48.8616" lon="8.08259">
        <ele>114.7</ele>
        <time>2020-06-28T08:01:38Z</time>
      </trkpt>
      <trkpt lat="48.86157" lon="8.08254">
        <ele>114.7</ele>
        <time>2020-06-28T08:01:39Z</time>
      </trkpt>
      <trkpt lat="48.86154" lon="8.08247">
        <ele>114.7</ele>
        <time>2020-06-28T08:01:40Z</time>
      </trkpt>
      <trkpt lat="48.86151" lon="8.08243">
        <ele>114.7</ele>
        <time>2020-06-28T08:01:41Z</time>
      </trkpt>
      <trkpt lat="48.86148" lon="8.08237">
        <ele>114.8</ele>
        <time>2020-06-28T08:01:42Z</time>
      </trkpt>
      <trkpt lat="48.86143" lon="8.08231">
        <ele>114.8</ele>
        <time>2020-06-28T08:01:43Z</time>
      </trkpt>
      <trkpt lat="48.8614" lon="8.08226">
        <ele>114.8</ele>
        <time>2020-06-28T08:01:44Z</time>
      </trkpt>
      <trkpt lat="48.86137" lon="8.08219">
        <ele>114.8</ele>
        <time>2020-06-28T08:01:45Z</time>
      </trkpt>
      <trkpt lat="48.86134" lon="8.08214">
        <ele>114.8</ele>
        <time>2020-06-28T08:01:46Z</time>
      </trkpt>
      <trkpt lat="48.86132" lon="8.08209">
        <ele>114.9</ele>
        <time>2020-06-28T08:01:47Z</time>
      </trkpt>
      <trkpt lat="48.86129" lon="8.08205">
        <ele>114.9</ele>
        <time>2020-06-28T08:01:48Z</time>
      </trkpt>
      <trkpt lat="48.86125" lon="8.082">
        <ele>114.9</ele>
        <time>2020-06-28T08:01:49Z</time>
      </trkpt>
      <trkpt lat="48.86122" lon="8.08194">
        <ele>114.9</ele>
        <time>2020-06-28T08:01:50Z</time>
      </trkpt>
      <trkpt lat="48.86119" lon="8.08188">
        <ele>115</ele>
        <time>2020-06-28T08:01:51Z</time>
      </trkpt>
      <trkpt lat="48.86114" lon="8.08183">
        <ele>115</ele>
        <time>2020-06-28T08:01:52Z</time>
      </trkpt>
      <trkpt lat="48.8611" lon="8.08178">
        <ele>115.1</ele>
        <time>2020-06-28T08:01:53Z</time>
      </trkpt>
      <trkpt lat="48.86105" lon="8.08171">
        <ele>115.2</ele>
        <time>2020-06-28T08:01:54Z</time>
      </trkpt>
      <trkpt lat="48.86102" lon="8.08166">
        <ele>115.2</ele>
        <time>2020-06-28T08:01:55Z</time>
      </trkpt>
      <trkpt lat="48.86099" lon="8.08162">
        <ele>115.3</ele>
        <time>2020-06-28T08:01:56Z</time>
      </trkpt>
      <trkpt lat="48.86095" lon="8.08157">
        <ele>115.3</ele>
        <time>2020-06-28T08:01:57Z</time>
      </trkpt>
      <trkpt lat="48.86093" lon="8.08152">
        <ele>115.4</ele>
        <time>2020-06-28T08:01:58Z</time>
      </trkpt>
      <trkpt lat="48.86091" lon="8.08147">
        <ele>115.4</ele>
        <time>2020-06-28T08:01:59Z</time>
      </trkpt>
      <trkpt lat="48.86087" lon="8.08144">
        <ele>115.5</ele>
        <time>2020-06-28T08:02:00Z</time>
      </trkpt>
      <trkpt lat="48.86085" lon="8.0814">
        <ele>115.5</ele>
        <time>2020-06-28T08:02:01Z</time>
      </trkpt>
      <trkpt lat="48.86082" lon="8.08137">
        <ele>115.5</ele>
        <time>2020-06-28T08:02:02Z</time>
      </trkpt>
      <trkpt lat="48.86079" lon="8.08134">
        <ele>115.4</ele>
        <time>2020-06-28T08:02:03Z</time>
      </trkpt>
      <trkpt lat="48.86075" lon="8.0813">
        <ele>115.3</ele>
        <time>2020-06-28T08:02:04Z</time>
      </trkpt>
      <trkpt lat="48.86072" lon="8.08126">
        <ele>115.2</ele>
        <time>2020-06-28T08:02:05Z</time>
      </trkpt>
      <trkpt lat="48.86068" lon="8.08122">
        <ele>115.2</ele>
        <time>2020-06-28T08:02:06Z</time>
      </trkpt>
      <trkpt lat="48.86064" lon="8.08117">
        <ele>115.1</ele>
        <time>2020-06-28T08:02:07Z</time>
      </trkpt>
      <trkpt lat="48.86059" lon="8.08114">
        <ele>115</ele>
        <time>2020-06-28T08:02:08Z</time>
      </trkpt>
      <trkpt lat="48.86056" lon="8.08111">
        <ele>115</ele>
        <time>2020-06-28T08:02:09Z</time>
      </trkpt>
      <trkpt lat="48.86052" lon="8.08106">
        <ele>114.9</ele>
        <time>2020-06-28T08:02:10Z</time>
      </trkpt>
      <trkpt lat="48.86048" lon="8.08104">
        <ele>114.9</ele>
        <time>2020-06-28T08:02:11Z</time>
      </trkpt>
      <trkpt lat="48.86044" lon="8.081">
        <ele>114.8</ele>
        <time>2020-06-28T08:02:12Z</time>
      </trkpt>
      <trkpt lat="48.86041" lon="8.08096">
        <ele>114.8</ele>
        <time>2020-06-28T08:02:13Z</time>
      </trkpt>
      <trkpt lat="48.86036" lon="8.08093">
        <ele>114.7</ele>
        <time>2020-06-28T08:02:14Z</time>
      </trkpt>
      <trkpt lat="48.86031" lon="8.08088">
        <ele>114.7</ele>
        <time>2020-06-28T08:02:15Z</time>
      </trkpt>
      <trkpt lat="48.86027" lon="8.08083">
        <ele>114.7</ele>
        <time>2020-06-28T08:02:16Z</time>
      </trkpt>
      <trkpt lat="48.86023" lon="8.08077">
        <ele>114.6</ele>
        <time>2020-06-28T08:02:17Z</time>
      </trkpt>
      <trkpt lat="48.86019" lon="8.08073">
        <ele>114.6</ele>
        <time>2020-06-28T08:02:18Z</time>
      </trkpt>
      <trkpt lat="48.86016" lon="8.08067">
        <ele>114.5</ele>
        <time>2020-06-28T08:02:19Z</time>
      </trkpt>
      <trkpt lat="48.86013" lon="8.08062">
        <ele>114.5</ele>
        <time>2020-06-28T08:02:20Z</time>
      </trkpt>
      <trkpt lat="48.8601" lon="8.08056">
        <ele>114.4</ele>
        <time>2020-06-28T08:02:21Z</time>
      </trkpt>
      <trkpt lat="48.86007" lon="8.08049">
        <ele>114.4</ele>
        <time>2020-06-28T08:02:22Z</time>
      </trkpt>
      <trkpt lat="48.86004" lon="8.08043">
        <ele>114.4</ele>
        <time>2020-06-28T08:02:23Z</time>
      </trkpt>
      <trkpt lat="48.86002" lon="8.08037">
        <ele>114.4</ele>
        <time>2020-06-28T08:02:24Z</time>
      </trkpt>
      <trkpt lat="48.86" lon="8.08032">
        <ele>114.4</ele>
        <time>2020-06-28T08:02:25Z</time>
      </trkpt>
      <trkpt lat="48.85997" lon="8.08025">
        <ele>114.4</ele>
        <time>2020-06-28T08:02:26Z</time>
      </trkpt>
      <trkpt lat="48.85995" lon="8.08017">
        <ele>114.4</ele>
        <time>2020-06-28T08:02:27Z</time>
      </trkpt>
      <trkpt lat="48.85991" lon="8.0801">
        <ele>114.4</ele>
        <time>2020-06-28T08:02:28Z</time>
      </trkpt>
      <trkpt lat="48.85987" lon="8.08003">
        <ele>114.4</ele>
        <time>2020-06-28T08:02:29Z</time>
      </trkpt>
      <trkpt lat="48.85984" lon="8.07997">
        <ele>114.4</ele>
        <time>2020-06-28T08:02:30Z</time>
      </trkpt>
      <trkpt lat="48.8598" lon="8.0799">
        <ele>114.4</ele>
        <time>2020-06-28T08:02:31Z</time>
      </trkpt>
      <trkpt lat="48.85978" lon="8.07984">
        <ele>114.4</ele>
        <time>2020-06-28T08:02:32Z</time>
      </trkpt>
      <trkpt lat="48.85974" lon="8.07978">
        <ele>114.4</ele>
        <time>2020-06-28T08:02:33Z</time>
      </trkpt>
      <trkpt lat="48.8597" lon="8.0797">
        <ele>114.4</ele>
        <time>2020-06-28T08:02:34Z</time>
      </trkpt>
      <trkpt lat="48.85967" lon="8.07963">
        <ele>114.4</ele>
        <time>2020-06-28T08:02:35Z</time>
      </trkpt>
      <trkpt lat="48.85964" lon="8.07957">
        <ele>114.4</ele>
        <time>2020-06-28T08:02:36Z</time>
      </trkpt>
      <trkpt lat="48.85962" lon="8.0795">
        <ele>114.4</ele>
        <time>2020-06-28T08:02:37Z</time>
      </trkpt>
      <trkpt lat="48.85959" lon="8.07943">
        <ele>114.4</ele>
        <time>2020-06-28T08:02:38Z</time>
      </trkpt>
      <trkpt lat="48.85955" lon="8.07937">
        <ele>114.4</ele>
        <time>2020-06-28T08:02:39Z</time>
      </trkpt>
      <trkpt lat="48.85951" lon="8.07932">
        <ele>114.4</ele>
        <time>2020-06-28T08:02:40Z</time>
      </trkpt>
      <trkpt lat="48.85947" lon="8.07928">
        <ele>114.4</ele>
        <time>2020-06-28T08:02:41Z</time>
      </trkpt>
      <trkpt lat="48.85943" lon="8.07924">
        <ele>114.4</ele>
        <time>2020-06-28T08:02:42Z</time>
      </trkpt>
      <trkpt lat="48.85938" lon="8.07919">
        <ele>114.4</ele>
        <time>2020-06-28T08:02:43Z</time>
      </trkpt>
      <trkpt lat="48.85934" lon="8.07916">
        <ele>114.4</ele>
        <time>2020-06-28T08:02:44Z</time>
      </trkpt>
      <trkpt lat="48.8593" lon="8.07912">
        <ele>114.4</ele>
        <time>2020-06-28T08:02:45Z</time>
      </trkpt>
      <trkpt lat="48.85927" lon="8.07909">
        <ele>114.5</ele>
        <time>2020-06-28T08:02:46Z</time>
      </trkpt>
      <trkpt lat="48.85924" lon="8.07905">
        <ele>114.5</ele>
        <time>2020-06-28T08:02:47Z</time>
      </trkpt>
      <trkpt lat="48.85921" lon="8.079">
        <ele>114.6</ele>
        <time>2020-06-28T08:02:48Z</time>
      </trkpt>
      <trkpt lat="48.8592" lon="8.07893">
        <ele>114.7</ele>
        <time>2020-06-28T08:02:49Z</time>
      </trkpt>
      <trkpt lat="48.85919" lon="8.07885">
        <ele>114.8</ele>
        <time>2020-06-28T08:02:50Z</time>
      </trkpt>
      <trkpt lat="48.85921" lon="8.07878">
        <ele>114.9</ele>
        <time>2020-06-28T08:02:51Z</time>
      </trkpt>
      <trkpt lat="48.85922" lon="8.07872">
        <ele>114.9</ele>
        <time>2020-06-28T08:02:52Z</time>
      </trkpt>
      <trkpt lat="48.85922" lon="8.07867">
        <ele>115</ele>
        <time>2020-06-28T08:02:53Z</time>
      </trkpt>
      <trkpt lat="48.85923" lon="8.07862">
        <ele>115</ele>
        <time>2020-06-28T08:02:54Z</time>
      </trkpt>
      <trkpt lat="48.8592" lon="8.07857">
        <ele>115</ele>
        <time>2020-06-28T08:02:55Z</time>
      </trkpt>
      <trkpt lat="48.85919" lon="8.07855">
        <ele>115</ele>
        <time>2020-06-28T08:02:56Z</time>
      </trkpt>
      <trkpt lat="48.85916" lon="8.07851">
        <ele>115</ele>
        <time>2020-06-28T08:02:57Z</time>
      </trkpt>
      <trkpt lat="48.85913" lon="8.07848">
        <ele>115.1</ele>
        <time>2020-06-28T08:02:58Z</time>
      </trkpt>
      <trkpt lat="48.8591" lon="8.07843">
        <ele>115.1</ele>
        <time>2020-06-28T08:02:59Z</time>
      </trkpt>
      <trkpt lat="48.85908" lon="8.07839">
        <ele>115.1</ele>
        <time>2020-06-28T08:03:00Z</time>
      </trkpt>
      <trkpt lat="48.85906" lon="8.07835">
        <ele>115.1</ele>
        <time>2020-06-28T08:03:01Z</time>
      </trkpt>
      <trkpt lat="48.85903" lon="8.0783">
        <ele>115.1</ele>
        <time>2020-06-28T08:03:02Z</time>
      </trkpt>
      <trkpt lat="48.85901" lon="8.07826">
        <ele>115.1</ele>
        <time>2020-06-28T08:03:03Z</time>
      </trkpt>
      <trkpt lat="48.85897" lon="8.07821">
        <ele>115.1</ele>
        <time>2020-06-28T08:03:04Z</time>
      </trkpt>
      <trkpt lat="48.85893" lon="8.07816">
        <ele>115.1</ele>
        <time>2020-06-28T08:03:05Z</time>
      </trkpt>
      <trkpt lat="48.8589" lon="8.07811">
        <ele>115.1</ele>
        <time>2020-06-28T08:03:06Z</time>
      </trkpt>
      <trkpt lat="48.85887" lon="8.07806">
        <ele>115.2</ele>
        <time>2020-06-28T08:03:07Z</time>
      </trkpt>
      <trkpt lat="48.85884" lon="8.07801">
        <ele>115.2</ele>
        <time>2020-06-28T08:03:08Z</time>
      </trkpt>
      <trkpt lat="48.85882" lon="8.07796">
        <ele>115.2</ele>
        <time>2020-06-28T08:03:09Z</time>
      </trkpt>
      <trkpt lat="48.85879" lon="8.07791">
        <ele>115.2</ele>
        <time>2020-06-28T08:03:10Z</time>
      </trkpt>
      <trkpt lat="48.85877" lon="8.07787">
        <ele>115.3</ele>
        <time>2020-06-28T08:03:11Z</time>
      </trkpt>
      <trkpt lat="48.85874" lon="8.07781">
        <ele>115.3</ele>
        <time>2020-06-28T08:03:12Z</time>
      </trkpt>
      <trkpt lat="48.85871" lon="8.07775">
        <ele>115.3</ele>
        <time>2020-06-28T08:03:13Z</time>
      </trkpt>
      <trkpt lat="48.85866" lon="8.0777">
        <ele>115.3</ele>
        <time>2020-06-28T08:03:14Z</time>
      </trkpt>
      <trkpt lat="48.85863" lon="8.07764">
        <ele>115.3</ele>
        <time>2020-06-28T08:03:15Z</time>
      </trkpt>
      <trkpt lat="48.85859" lon="8.07758">
        <ele>115.3</ele>
        <time>2020-06-28T08:03:16Z</time>
      </trkpt>
      <trkpt lat="48.85855" lon="8.07752">
        <ele>115.3</ele>
        <time>2020-06-28T08:03:17Z</time>
      </trkpt>
      <trkpt lat="48.85852" lon="8.07747">
        <ele>115.3</ele>
        <time>2020-06-28T08:03:18Z</time>
      </trkpt>
      <trkpt lat="48.85849" lon="8.07742">
        <ele>115.3</ele>
        <time>2020-06-28T08:03:19Z</time>
      </trkpt>
      <trkpt lat="48.85844" lon="8.07736">
        <ele>115.3</ele>
        <time>2020-06-28T08:03:20Z</time>
      </trkpt>
      <trkpt lat="48.85841" lon="8.07731">
        <ele>115.3</ele>
        <time>2020-06-28T08:03:21Z</time>
      </trkpt>
      <trkpt lat="48.85838" lon="8.07724">
        <ele>115.3</ele>
        <time>2020-06-28T08:03:22Z</time>
      </trkpt>
      <trkpt lat="48.85834" lon="8.07719">
        <ele>115.3</ele>
        <time>2020-06-28T08:03:23Z</time>
      </trkpt>
      <trkpt lat="48.85831" lon="8.07714">
        <ele>115.3</ele>
        <time>2020-06-28T08:03:24Z</time>
      </trkpt>
      <trkpt lat="48.85828" lon="8.07707">
        <ele>115.2</ele>
        <time>2020-06-28T08:03:25Z</time>
      </trkpt>
      <trkpt lat="48.85826" lon="8.077">
        <ele>115.2</ele>
        <time>2020-06-28T08:03:26Z</time>
      </trkpt>
      <trkpt lat="48.85823" lon="8.07693">
        <ele>115.2</ele>
        <time>2020-06-28T08:03:27Z</time>
      </trkpt>
      <trkpt lat="48.85821" lon="8.07687">
        <ele>115.2</ele>
        <time>2020-06-28T08:03:28Z</time>
      </trkpt>
      <trkpt lat="48.85818" lon="8.0768">
        <ele>115.2</ele>
        <time>2020-06-28T08:03:29Z</time>
      </trkpt>
      <trkpt lat="48.85815" lon="8.07675">
        <ele>115.2</ele>
        <time>2020-06-28T08:03:30Z</time>
      </trkpt>
      <trkpt lat="48.85811" lon="8.07669">
        <ele>115.2</ele>
        <time>2020-06-28T08:03:31Z</time>
      </trkpt>
      <trkpt lat="48.85808" lon="8.07663">
        <ele>115.2</ele>
        <time>2020-06-28T08:03:32Z</time>
      </trkpt>
      <trkpt lat="48.85804" lon="8.07656">
        <ele>115.2</ele>
        <time>2020-06-28T08:03:33Z</time>
      </trkpt>
      <trkpt lat="48.858" lon="8.07651">
        <ele>115.2</ele>
        <time>2020-06-28T08:03:34Z</time>
      </trkpt>
      <trkpt lat="48.85798" lon="8.07645">
        <ele>115.1</ele>
        <time>2020-06-28T08:03:35Z</time>
      </trkpt>
      <trkpt lat="48.85795" lon="8.0764">
        <ele>115.1</ele>
        <time>2020-06-28T08:03:36Z</time>
      </trkpt>
      <trkpt lat="48.85791" lon="8.07634">
        <ele>115.1</ele>
        <time>2020-06-28T08:03:37Z</time>
      </trkpt>
      <trkpt lat="48.85788" lon="8.07628">
        <ele>115.1</ele>
        <time>2020-06-28T08:03:38Z</time>
      </trkpt>
      <trkpt lat="48.85785" lon="8.07622">
        <ele>115.1</ele>
        <time>2020-06-28T08:03:39Z</time>
      </trkpt>
      <trkpt lat="48.85781" lon="8.07617">
        <ele>115.1</ele>
        <time>2020-06-28T08:03:40Z</time>
      </trkpt>
      <trkpt lat="48.85778" lon="8.07611">
        <ele>115.1</ele>
        <time>2020-06-28T08:03:41Z</time>
      </trkpt>
      <trkpt lat="48.85776" lon="8.07605">
        <ele>115.1</ele>
        <time>2020-06-28T08:03:42Z</time>
      </trkpt>
      <trkpt lat="48.85772" lon="8.07601">
        <ele>115.1</ele>
        <time>2020-06-28T08:03:43Z</time>
      </trkpt>
      <trkpt lat="48.85769" lon="8.07596">
        <ele>115.1</ele>
        <time>2020-06-28T08:03:44Z</time>
      </trkpt>
      <trkpt lat="48.85768" lon="8.07591">
        <ele>115.1</ele>
        <time>2020-06-28T08:03:45Z</time>
      </trkpt>
      <trkpt lat="48.85763" lon="8.07587">
        <ele>115.1</ele>
        <time>2020-06-28T08:03:46Z</time>
      </trkpt>
      <trkpt lat="48.85761" lon="8.07582">
        <ele>115.2</ele>
        <time>2020-06-28T08:03:47Z</time>
      </trkpt>
      <trkpt lat="48.85758" lon="8.07578">
        <ele>115.2</ele>
        <time>2020-06-28T08:03:48Z</time>
      </trkpt>
      <trkpt lat="48.85756" lon="8.07573">
        <ele>115.2</ele>
        <time>2020-06-28T08:03:49Z</time>
      </trkpt>
      <trkpt lat="48.85753" lon="8.07569">
        <ele>115.2</ele>
        <time>2020-06-28T08:03:50Z</time>
      </trkpt>
      <trkpt lat="48.8575" lon="8.07565">
        <ele>115.2</ele>
        <time>2020-06-28T08:03:51Z</time>
      </trkpt>
      <trkpt lat="48.85748" lon="8.07559">
        <ele>115.2</ele>
        <time>2020-06-28T08:03:52Z</time>
      </trkpt>
      <trkpt lat="48.85744" lon="8.07554">
        <ele>115.2</ele>
        <time>2020-06-28T08:03:53Z</time>
      </trkpt>
      <trkpt lat="48.85742" lon="8.07549">
        <ele>115.2</ele>
        <time>2020-06-28T08:03:54Z</time>
      </trkpt>
      <trkpt lat="48.85738" lon="8.07545">
        <ele>115.2</ele>
        <time>2020-06-28T08:03:55Z</time>
      </trkpt>
      <trkpt lat="48.85736" lon="8.0754">
        <ele>115.2</ele>
        <time>2020-06-28T08:03:56Z</time>
      </trkpt>
      <trkpt lat="48.85733" lon="8.07535">
        <ele>115.2</ele>
        <time>2020-06-28T08:03:57Z</time>
      </trkpt>
      <trkpt lat="48.8573" lon="8.07531">
        <ele>115.1</ele>
        <time>2020-06-28T08:03:58Z</time>
      </trkpt>
      <trkpt lat="48.85726" lon="8.07526">
        <ele>115.1</ele>
        <time>2020-06-28T08:03:59Z</time>
      </trkpt>
      <trkpt lat="48.85723" lon="8.07521">
        <ele>115.1</ele>
        <time>2020-06-28T08:04:00Z</time>
      </trkpt>
      <trkpt lat="48.8572" lon="8.07516">
        <ele>115.1</ele>
        <time>2020-06-28T08:04:01Z</time>
      </trkpt>
      <trkpt lat="48.85717" lon="8.0751">
        <ele>115.1</ele>
        <time>2020-06-28T08:04:02Z</time>
      </trkpt>
      <trkpt lat="48.85713" lon="8.07505">
        <ele>115.1</ele>
        <time>2020-06-28T08:04:03Z</time>
      </trkpt>
      <trkpt lat="48.8571" lon="8.075">
        <ele>115.1</ele>
        <time>2020-06-28T08:04:04Z</time>
      </trkpt>
      <trkpt lat="48.85707" lon="8.07494">
        <ele>115.1</ele>
        <time>2020-06-28T08:04:05Z</time>
      </trkpt>
      <trkpt lat="48.85704" lon="8.0749">
        <ele>115.1</ele>
        <time>2020-06-28T08:04:06Z</time>
      </trkpt>
      <trkpt lat="48.85699" lon="8.07485">
        <ele>115.1</ele>
        <time>2020-06-28T08:04:07Z</time>
      </trkpt>
      <trkpt lat="48.85696" lon="8.07479">
        <ele>115.2</ele>
        <time>2020-06-28T08:04:08Z</time>
      </trkpt>
      <trkpt lat="48.85692" lon="8.07473">
        <ele>115.2</ele>
        <time>2020-06-28T08:04:09Z</time>
      </trkpt>
      <trkpt lat="48.8569" lon="8.07467">
        <ele>115.2</ele>
        <time>2020-06-28T08:04:10Z</time>
      </trkpt>
      <trkpt lat="48.85687" lon="8.07461">
        <ele>115.2</ele>
        <time>2020-06-28T08:04:11Z</time>
      </trkpt>
      <trkpt lat="48.85684" lon="8.07456">
        <ele>115.2</ele>
        <time>2020-06-28T08:04:12Z</time>
      </trkpt>
      <trkpt lat="48.8568" lon="8.07451">
        <ele>115.2</ele>
        <time>2020-06-28T08:04:13Z</time>
      </trkpt>
      <trkpt lat="48.85677" lon="8.07447">
        <ele>115.2</ele>
        <time>2020-06-28T08:04:14Z</time>
      </trkpt>
      <trkpt lat="48.85674" lon="8.07443">
        <ele>115.2</ele>
        <time>2020-06-28T08:04:15Z</time>
      </trkpt>
      <trkpt lat="48.85671" lon="8.07436">
        <ele>115.3</ele>
        <time>2020-06-28T08:04:16Z</time>
      </trkpt>
      <trkpt lat="48.85668" lon="8.07431">
        <ele>115.3</ele>
        <time>2020-06-28T08:04:17Z</time>
      </trkpt>
      <trkpt lat="48.85666" lon="8.07427">
        <ele>115.3</ele>
        <time>2020-06-28T08:04:18Z</time>
      </trkpt>
      <trkpt lat="48.85664" lon="8.07423">
        <ele>115.4</ele>
        <time>2020-06-28T08:04:19Z</time>
      </trkpt>
      <trkpt lat="48.85662" lon="8.07419">
        <ele>115.4</ele>
        <time>2020-06-28T08:04:20Z</time>
      </trkpt>
      <trkpt lat="48.8566" lon="8.07415">
        <ele>115.5</ele>
        <time>2020-06-28T08:04:21Z</time>
      </trkpt>
      <trkpt lat="48.85659" lon="8.07414">
        <ele>115.5</ele>
        <time>2020-06-28T08:04:22Z</time>
      </trkpt>
      <trkpt lat="48.85659" lon="8.07413">
        <ele>115.5</ele>
        <time>2020-06-28T08:04:23Z</time>
      </trkpt>
      <trkpt lat="48.85659" lon="8.07412">
        <ele>115.5</ele>
        <time>2020-06-28T08:04:24Z</time>
      </trkpt>
      <trkpt lat="48.8566" lon="8.07411">
        <ele>115.5</ele>
        <time>2020-06-28T08:04:25Z</time>
      </trkpt>
      <trkpt lat="48.85661" lon="8.07413">
        <ele>115.5</ele>
        <time>2020-06-28T08:04:26Z</time>
      </trkpt>
      <trkpt lat="48.85661" lon="8.07414">
        <ele>115.6</ele>
        <time>2020-06-28T08:04:27Z</time>
      </trkpt>
      <trkpt lat="48.85661" lon="8.07414">
        <ele>115.6</ele>
        <time>2020-06-28T08:04:28Z</time>
      </trkpt>
      <trkpt lat="48.85662" lon="8.07414">
        <ele>115.6</ele>
        <time>2020-06-28T08:04:29Z</time>
      </trkpt>
      <trkpt lat="48.85662" lon="8.07413">
        <ele>115.6</ele>
        <time>2020-06-28T08:04:30Z</time>
      </trkpt>
      <trkpt lat="48.85662" lon="8.07412">
        <ele>115.6</ele>
        <time>2020-06-28T08:04:31Z</time>
      </trkpt>
      <trkpt lat="48.85661" lon="8.07411">
        <ele>115.6</ele>
        <time>2020-06-28T08:04:32Z</time>
      </trkpt>
      <trkpt lat="48.85661" lon="8.07411">
        <ele>115.6</ele>
        <time>2020-06-28T08:04:33Z</time>
      </trkpt>
      <trkpt lat="48.85661" lon="8.07411">
        <ele>115.6</ele>
        <time>2020-06-28T08:04:34Z</time>
      </trkpt>
      <trkpt lat="48.85661" lon="8.07412">
        <ele>115.6</ele>
        <time>2020-06-28T08:04:35Z</time>
      </trkpt>
      <trkpt lat="48.85661" lon="8.07412">
        <ele>115.6</ele>
        <time>2020-06-28T08:04:36Z</time>
      </trkpt>
      <trkpt lat="48.85655" lon="8.07407">
        <ele>115.6</ele>
        <time>2020-06-28T08:05:42Z</time>
      </trkpt>
      <trkpt lat="48.85654" lon="8.07404">
        <ele>115.6</ele>
        <time>2020-06-28T08:05:43Z</time>
      </trkpt>
      <trkpt lat="48.85651" lon="8.074">
        <ele>115.6</ele>
        <time>2020-06-28T08:05:44Z</time>
      </trkpt>
      <trkpt lat="48.8565" lon="8.07398">
        <ele>115.6</ele>
        <time>2020-06-28T08:05:45Z</time>
      </trkpt>
      <trkpt lat="48.85649" lon="8.07394">
        <ele>115.6</ele>
        <time>2020-06-28T08:05:46Z</time>
      </trkpt>
      <trkpt lat="48.85646" lon="8.07389">
        <ele>115.6</ele>
        <time>2020-06-28T08:05:47Z</time>
      </trkpt>
      <trkpt lat="48.85645" lon="8.07384">
        <ele>115.6</ele>
        <time>2020-06-28T08:05:48Z</time>
      </trkpt>
      <trkpt lat="48.85642" lon="8.07379">
        <ele>115.6</ele>
        <time>2020-06-28T08:05:49Z</time>
      </trkpt>
      <trkpt lat="48.85641" lon="8.07374">
        <ele>115.7</ele>
        <time>2020-06-28T08:05:50Z</time>
      </trkpt>
      <trkpt lat="48.85637" lon="8.07369">
        <ele>115.7</ele>
        <time>2020-06-28T08:05:51Z</time>
      </trkpt>
      <trkpt lat="48.85636" lon="8.07364">
        <ele>115.8</ele>
        <time>2020-06-28T08:05:52Z</time>
      </trkpt>
      <trkpt lat="48.85634" lon="8.07359">
        <ele>115.8</ele>
        <time>2020-06-28T08:05:53Z</time>
      </trkpt>
      <trkpt lat="48.85631" lon="8.07354">
        <ele>115.8</ele>
        <time>2020-06-28T08:05:54Z</time>
      </trkpt>
      <trkpt lat="48.85629" lon="8.07348">
        <ele>115.9</ele>
        <time>2020-06-28T08:05:55Z</time>
      </trkpt>
      <trkpt lat="48.85627" lon="8.07343">
        <ele>115.9</ele>
        <time>2020-06-28T08:05:56Z</time>
      </trkpt>
      <trkpt lat="48.85625" lon="8.07337">
        <ele>116</ele>
        <time>2020-06-28T08:05:57Z</time>
      </trkpt>
      <trkpt lat="48.85623" lon="8.0733">
        <ele>116</ele>
        <time>2020-06-28T08:05:58Z</time>
      </trkpt>
      <trkpt lat="48.8562" lon="8.07325">
        <ele>116.1</ele>
        <time>2020-06-28T08:05:59Z</time>
      </trkpt>
      <trkpt lat="48.85618" lon="8.07319">
        <ele>116.1</ele>
        <time>2020-06-28T08:06:00Z</time>
      </trkpt>
      <trkpt lat="48.85615" lon="8.07314">
        <ele>116.2</ele>
        <time>2020-06-28T08:06:01Z</time>
      </trkpt>
      <trkpt lat="48.85613" lon="8.07308">
        <ele>116.2</ele>
        <time>2020-06-28T08:06:02Z</time>
      </trkpt>
      <trkpt lat="48.85611" lon="8.07302">
        <ele>116.2</ele>
        <time>2020-06-28T08:06:03Z</time>
      </trkpt>
      <trkpt lat="48.85608" lon="8.07296">
        <ele>116.3</ele>
        <time>2020-06-28T08:06:04Z</time>
      </trkpt>
      <trkpt lat="48.85606" lon="8.0729">
        <ele>116.3</ele>
        <time>2020-06-28T08:06:05Z</time>
      </trkpt>
      <trkpt lat="48.85603" lon="8.07285">
        <ele>116.3</ele>
        <time>2020-06-28T08:06:06Z</time>
      </trkpt>
      <trkpt lat="48.85601" lon="8.0728">
        <ele>116.4</ele>
        <time>2020-06-28T08:06:07Z</time>
      </trkpt>
      <trkpt lat="48.85599" lon="8.07274">
        <ele>116.4</ele>
        <time>2020-06-28T08:06:08Z</time>
      </trkpt>
      <trkpt lat="48.85597" lon="8.07269">
        <ele>116.4</ele>
        <time>2020-06-28T08:06:09Z</time>
      </trkpt>
      <trkpt lat="48.85594" lon="8.07265">
        <ele>116.4</ele>
        <time>2020-06-28T08:06:10Z</time>
      </trkpt>
      <trkpt lat="48.85593" lon="8.07259">
        <ele>116.4</ele>
        <time>2020-06-28T08:06:11Z</time>
      </trkpt>
      <trkpt lat="48.8559" lon="8.07254">
        <ele>116.4</ele>
        <time>2020-06-28T08:06:12Z</time>
      </trkpt>
      <trkpt lat="48.85589" lon="8.07246">
        <ele>116.5</ele>
        <time>2020-06-28T08:06:13Z</time>
      </trkpt>
      <trkpt lat="48.85586" lon="8.07239">
        <ele>116.5</ele>
        <time>2020-06-28T08:06:14Z</time>
      </trkpt>
      <trkpt lat="48.85585" lon="8.07233">
        <ele>116.5</ele>
        <time>2020-06-28T08:06:15Z</time>
      </trkpt>
      <trkpt lat="48.85582" lon="8.07228">
        <ele>116.5</ele>
        <time>2020-06-28T08:06:16Z</time>
      </trkpt>
      <trkpt lat="48.8558" lon="8.07222">
        <ele>116.5</ele>
        <time>2020-06-28T08:06:17Z</time>
      </trkpt>
      <trkpt lat="48.85578" lon="8.07215">
        <ele>116.6</ele>
        <time>2020-06-28T08:06:18Z</time>
      </trkpt>
      <trkpt lat="48.85577" lon="8.07208">
        <ele>116.6</ele>
        <time>2020-06-28T08:06:19Z</time>
      </trkpt>
      <trkpt lat="48.85574" lon="8.07201">
        <ele>116.6</ele>
        <time>2020-06-28T08:06:20Z</time>
      </trkpt>
      <trkpt lat="48.85572" lon="8.07195">
        <ele>116.7</ele>
        <time>2020-06-28T08:06:21Z</time>
      </trkpt>
      <trkpt lat="48.85569" lon="8.07189">
        <ele>116.7</ele>
        <time>2020-06-28T08:06:22Z</time>
      </trkpt>
      <trkpt lat="48.85566" lon="8.07183">
        <ele>116.7</ele>
        <time>2020-06-28T08:06:23Z</time>
      </trkpt>
      <trkpt lat="48.85563" lon="8.07177">
        <ele>116.8</ele>
        <time>2020-06-28T08:06:24Z</time>
      </trkpt>
      <trkpt lat="48.85559" lon="8.07172">
        <ele>116.8</ele>
        <time>2020-06-28T08:06:25Z</time>
      </trkpt>
      <trkpt lat="48.85556" lon="8.07166">
        <ele>116.8</ele>
        <time>2020-06-28T08:06:26Z</time>
      </trkpt>
      <trkpt lat="48.85554" lon="8.0716">
        <ele>116.8</ele>
        <time>2020-06-28T08:06:27Z</time>
      </trkpt>
      <trkpt lat="48.85551" lon="8.07154">
        <ele>116.9</ele>
        <time>2020-06-28T08:06:28Z</time>
      </trkpt>
      <trkpt lat="48.85547" lon="8.07148">
        <ele>116.9</ele>
        <time>2020-06-28T08:06:29Z</time>
      </trkpt>
      <trkpt lat="48.85543" lon="8.07143">
        <ele>116.9</ele>
        <time>2020-06-28T08:06:30Z</time>
      </trkpt>
      <trkpt lat="48.8554" lon="8.07138">
        <ele>116.9</ele>
        <time>2020-06-28T08:06:31Z</time>
      </trkpt>
      <trkpt lat="48.85537" lon="8.07133">
        <ele>117</ele>
        <time>2020-06-28T08:06:32Z</time>
      </trkpt>
      <trkpt lat="48.85533" lon="8.07128">
        <ele>117</ele>
        <time>2020-06-28T08:06:33Z</time>
      </trkpt>
      <trkpt lat="48.8553" lon="8.07123">
        <ele>117</ele>
        <time>2020-06-28T08:06:34Z</time>
      </trkpt>
      <trkpt lat="48.85526" lon="8.07118">
        <ele>117</ele>
        <time>2020-06-28T08:06:35Z</time>
      </trkpt>
      <trkpt lat="48.85523" lon="8.07113">
        <ele>117</ele>
        <time>2020-06-28T08:06:36Z</time>
      </trkpt>
      <trkpt lat="48.8552" lon="8.07107">
        <ele>117</ele>
        <time>2020-06-28T08:06:37Z</time>
      </trkpt>
      <trkpt lat="48.85516" lon="8.07102">
        <ele>117</ele>
        <time>2020-06-28T08:06:38Z</time>
      </trkpt>
      <trkpt lat="48.85512" lon="8.07096">
        <ele>117</ele>
        <time>2020-06-28T08:06:39Z</time>
      </trkpt>
      <trkpt lat="48.85508" lon="8.07093">
        <ele>117</ele>
        <time>2020-06-28T08:06:40Z</time>
      </trkpt>
      <trkpt lat="48.85505" lon="8.07088">
        <ele>117</ele>
        <time>2020-06-28T08:06:41Z</time>
      </trkpt>
      <trkpt lat="48.85501" lon="8.07082">
        <ele>117</ele>
        <time>2020-06-28T08:06:42Z</time>
      </trkpt>
      <trkpt lat="48.85498" lon="8.07077">
        <ele>117</ele>
        <time>2020-06-28T08:06:43Z</time>
      </trkpt>
      <trkpt lat="48.85493" lon="8.07071">
        <ele>117</ele>
        <time>2020-06-28T08:06:44Z</time>
      </trkpt>
      <trkpt lat="48.85489" lon="8.07065">
        <ele>116.9</ele>
        <time>2020-06-28T08:06:45Z</time>
      </trkpt>
      <trkpt lat="48.85485" lon="8.0706">
        <ele>116.9</ele>
        <time>2020-06-28T08:06:46Z</time>
      </trkpt>
      <trkpt lat="48.8548" lon="8.07054">
        <ele>116.9</ele>
        <time>2020-06-28T08:06:47Z</time>
      </trkpt>
      <trkpt lat="48.85477" lon="8.07049">
        <ele>116.9</ele>
        <time>2020-06-28T08:06:48Z</time>
      </trkpt>
      <trkpt lat="48.85473" lon="8.07044">
        <ele>116.8</ele>
        <time>2020-06-28T08:06:49Z</time>
      </trkpt>
      <trkpt lat="48.85469" lon="8.07039">
        <ele>116.8</ele>
        <time>2020-06-28T08:06:50Z</time>
      </trkpt>
      <trkpt lat="48.85465" lon="8.07033">
        <ele>116.8</ele>
        <time>2020-06-28T08:06:51Z</time>
      </trkpt>
      <trkpt lat="48.85462" lon="8.07027">
        <ele>116.8</ele>
        <time>2020-06-28T08:06:52Z</time>
      </trkpt>
      <trkpt lat="48.85458" lon="8.07021">
        <ele>116.8</ele>
        <time>2020-06-28T08:06:53Z</time>
      </trkpt>
      <trkpt lat="48.85454" lon="8.07015">
        <ele>116.8</ele>
        <time>2020-06-28T08:06:54Z</time>
      </trkpt>
      <trkpt lat="48.8545" lon="8.07009">
        <ele>116.8</ele>
        <time>2020-06-28T08:06:55Z</time>
      </trkpt>
      <trkpt lat="48.85446" lon="8.07004">
        <ele>116.8</ele>
        <time>2020-06-28T08:06:56Z</time>
      </trkpt>
      <trkpt lat="48.85442" lon="8.06999">
        <ele>116.8</ele>
        <time>2020-06-28T08:06:57Z</time>
      </trkpt>
      <trkpt lat="48.85437" lon="8.06993">
        <ele>116.8</ele>
        <time>2020-06-28T08:06:58Z</time>
      </trkpt>
      <trkpt lat="48.85433" lon="8.06987">
        <ele>116.8</ele>
        <time>2020-06-28T08:06:59Z</time>
      </trkpt>
      <trkpt lat="48.85429" lon="8.06981">
        <ele>116.8</ele>
        <time>2020-06-28T08:07:00Z</time>
      </trkpt>
      <trkpt lat="48.85425" lon="8.06975">
        <ele>116.8</ele>
        <time>2020-06-28T08:07:01Z</time>
      </trkpt>
      <trkpt lat="48.85421" lon="8.06969">
        <ele>116.8</ele>
        <time>2020-06-28T08:07:02Z</time>
      </trkpt>
      <trkpt lat="48.85417" lon="8.06963">
        <ele>116.8</ele>
        <time>2020-06-28T08:07:03Z</time>
      </trkpt>
      <trkpt lat="48.85412" lon="8.06957">
        <ele>116.8</ele>
        <time>2020-06-28T08:07:04Z</time>
      </trkpt>
      <trkpt lat="48.85408" lon="8.06951">
        <ele>116.8</ele>
        <time>2020-06-28T08:07:05Z</time>
      </trkpt>
      <trkpt lat="48.85406" lon="8.06944">
        <ele>116.8</ele>
        <time>2020-06-28T08:07:06Z</time>
      </trkpt>
      <trkpt lat="48.85402" lon="8.06937">
        <ele>116.8</ele>
        <time>2020-06-28T08:07:07Z</time>
      </trkpt>
      <trkpt lat="48.85398" lon="8.06931">
        <ele>116.9</ele>
        <time>2020-06-28T08:07:08Z</time>
      </trkpt>
      <trkpt lat="48.85393" lon="8.06923">
        <ele>116.9</ele>
        <time>2020-06-28T08:07:09Z</time>
      </trkpt>
      <trkpt lat="48.85389" lon="8.06916">
        <ele>116.9</ele>
        <time>2020-06-28T08:07:10Z</time>
      </trkpt>
      <trkpt lat="48.85384" lon="8.06909">
        <ele>116.9</ele>
        <time>2020-06-28T08:07:11Z</time>
      </trkpt>
      <trkpt lat="48.8538" lon="8.06904">
        <ele>116.9</ele>
        <time>2020-06-28T08:07:12Z</time>
      </trkpt>
      <trkpt lat="48.85376" lon="8.06898">
        <ele>116.9</ele>
        <time>2020-06-28T08:07:13Z</time>
      </trkpt>
      <trkpt lat="48.85371" lon="8.06892">
        <ele>116.9</ele>
        <time>2020-06-28T08:07:14Z</time>
      </trkpt>
      <trkpt lat="48.85367" lon="8.06885">
        <ele>116.9</ele>
        <time>2020-06-28T08:07:15Z</time>
      </trkpt>
      <trkpt lat="48.85363" lon="8.0688">
        <ele>116.9</ele>
        <time>2020-06-28T08:07:16Z</time>
      </trkpt>
      <trkpt lat="48.85358" lon="8.06874">
        <ele>116.9</ele>
        <time>2020-06-28T08:07:17Z</time>
      </trkpt>
      <trkpt lat="48.85354" lon="8.06868">
        <ele>116.9</ele>
        <time>2020-06-28T08:07:18Z</time>
      </trkpt>
      <trkpt lat="48.8535" lon="8.06862">
        <ele>116.9</ele>
        <time>2020-06-28T08:07:19Z</time>
      </trkpt>
      <trkpt lat="48.85346" lon="8.06855">
        <ele>116.9</ele>
        <time>2020-06-28T08:07:20Z</time>
      </trkpt>
      <trkpt lat="48.85342" lon="8.06849">
        <ele>116.9</ele>
        <time>2020-06-28T08:07:21Z</time>
      </trkpt>
      <trkpt lat="48.85338" lon="8.06842">
        <ele>116.9</ele>
        <time>2020-06-28T08:07:22Z</time>
      </trkpt>
      <trkpt lat="48.85334" lon="8.06834">
        <ele>116.9</ele>
        <time>2020-06-28T08:07:23Z</time>
      </trkpt>
      <trkpt lat="48.8533" lon="8.06828">
        <ele>116.9</ele>
        <time>2020-06-28T08:07:24Z</time>
      </trkpt>
      <trkpt lat="48.85326" lon="8.0682">
        <ele>116.9</ele>
        <time>2020-06-28T08:07:25Z</time>
      </trkpt>
      <trkpt lat="48.85323" lon="8.06813">
        <ele>116.9</ele>
        <time>2020-06-28T08:07:26Z</time>
      </trkpt>
      <trkpt lat="48.8532" lon="8.06807">
        <ele>116.9</ele>
        <time>2020-06-28T08:07:27Z</time>
      </trkpt>
      <trkpt lat="48.85316" lon="8.068">
        <ele>116.9</ele>
        <time>2020-06-28T08:07:28Z</time>
      </trkpt>
      <trkpt lat="48.85313" lon="8.06793">
        <ele>116.9</ele>
        <time>2020-06-28T08:07:29Z</time>
      </trkpt>
      <trkpt lat="48.8531" lon="8.06788">
        <ele>116.9</ele>
        <time>2020-06-28T08:07:30Z</time>
      </trkpt>
      <trkpt lat="48.85306" lon="8.06783">
        <ele>116.9</ele>
        <time>2020-06-28T08:07:31Z</time>
      </trkpt>
      <trkpt lat="48.85303" lon="8.06777">
        <ele>116.9</ele>
        <time>2020-06-28T08:07:32Z</time>
      </trkpt>
      <trkpt lat="48.85299" lon="8.0677">
        <ele>116.9</ele>
        <time>2020-06-28T08:07:33Z</time>
      </trkpt>
      <trkpt lat="48.85295" lon="8.06763">
        <ele>116.9</ele>
        <time>2020-06-28T08:07:34Z</time>
      </trkpt>
      <trkpt lat="48.85292" lon="8.06756">
        <ele>116.9</ele>
        <time>2020-06-28T08:07:35Z</time>
      </trkpt>
      <trkpt lat="48.85288" lon="8.06747">
        <ele>116.9</ele>
        <time>2020-06-28T08:07:36Z</time>
      </trkpt>
      <trkpt lat="48.85285" lon="8.0674">
        <ele>116.9</ele>
        <time>2020-06-28T08:07:37Z</time>
      </trkpt>
      <trkpt lat="48.85282" lon="8.06733">
        <ele>116.9</ele>
        <time>2020-06-28T08:07:38Z</time>
      </trkpt>
      <trkpt lat="48.85278" lon="8.06727">
        <ele>116.9</ele>
        <time>2020-06-28T08:07:39Z</time>
      </trkpt>
      <trkpt lat="48.85275" lon="8.0672">
        <ele>116.9</ele>
        <time>2020-06-28T08:07:40Z</time>
      </trkpt>
      <trkpt lat="48.85271" lon="8.06713">
        <ele>116.9</ele>
        <time>2020-06-28T08:07:41Z</time>
      </trkpt>
      <trkpt lat="48.85268" lon="8.06706">
        <ele>116.9</ele>
        <time>2020-06-28T08:07:42Z</time>
      </trkpt>
      <trkpt lat="48.85265" lon="8.06699">
        <ele>116.9</ele>
        <time>2020-06-28T08:07:43Z</time>
      </trkpt>
      <trkpt lat="48.85262" lon="8.06691">
        <ele>117</ele>
        <time>2020-06-28T08:07:44Z</time>
      </trkpt>
      <trkpt lat="48.8526" lon="8.06684">
        <ele>117</ele>
        <time>2020-06-28T08:07:45Z</time>
      </trkpt>
      <trkpt lat="48.85257" lon="8.06676">
        <ele>117</ele>
        <time>2020-06-28T08:07:46Z</time>
      </trkpt>
      <trkpt lat="48.85254" lon="8.0667">
        <ele>117.1</ele>
        <time>2020-06-28T08:07:47Z</time>
      </trkpt>
      <trkpt lat="48.85251" lon="8.06662">
        <ele>117.1</ele>
        <time>2020-06-28T08:07:48Z</time>
      </trkpt>
      <trkpt lat="48.85249" lon="8.06653">
        <ele>117.1</ele>
        <time>2020-06-28T08:07:49Z</time>
      </trkpt>
      <trkpt lat="48.85246" lon="8.06646">
        <ele>117.1</ele>
        <time>2020-06-28T08:07:50Z</time>
      </trkpt>
      <trkpt lat="48.85243" lon="8.06638">
        <ele>117.1</ele>
        <time>2020-06-28T08:07:51Z</time>
      </trkpt>
      <trkpt lat="48.85241" lon="8.0663">
        <ele>117.1</ele>
        <time>2020-06-28T08:07:52Z</time>
      </trkpt>
      <trkpt lat="48.85238" lon="8.06622">
        <ele>117.1</ele>
        <time>2020-06-28T08:07:53Z</time>
      </trkpt>
      <trkpt lat="48.85235" lon="8.06615">
        <ele>117.1</ele>
        <time>2020-06-28T08:07:54Z</time>
      </trkpt>
      <trkpt lat="48.85232" lon="8.06607">
        <ele>117.2</ele>
        <time>2020-06-28T08:07:55Z</time>
      </trkpt>
      <trkpt lat="48.85228" lon="8.066">
        <ele>117.2</ele>
        <time>2020-06-28T08:07:56Z</time>
      </trkpt>
      <trkpt lat="48.85226" lon="8.06593">
        <ele>117.2</ele>
        <time>2020-06-28T08:07:57Z</time>
      </trkpt>
      <trkpt lat="48.85222" lon="8.06586">
        <ele>117.2</ele>
        <time>2020-06-28T08:07:58Z</time>
      </trkpt>
      <trkpt lat="48.85219" lon="8.06579">
        <ele>117.2</ele>
        <time>2020-06-28T08:07:59Z</time>
      </trkpt>
      <trkpt lat="48.85216" lon="8.06572">
        <ele>117.2</ele>
        <time>2020-06-28T08:08:00Z</time>
      </trkpt>
      <trkpt lat="48.85213" lon="8.06565">
        <ele>117.1</ele>
        <time>2020-06-28T08:08:01Z</time>
      </trkpt>
      <trkpt lat="48.8521" lon="8.06558">
        <ele>117.1</ele>
        <time>2020-06-28T08:08:02Z</time>
      </trkpt>
      <trkpt lat="48.85207" lon="8.06551">
        <ele>117</ele>
        <time>2020-06-28T08:08:03Z</time>
      </trkpt>
      <trkpt lat="48.85204" lon="8.06543">
        <ele>117</ele>
        <time>2020-06-28T08:08:04Z</time>
      </trkpt>
      <trkpt lat="48.85202" lon="8.06535">
        <ele>116.9</ele>
        <time>2020-06-28T08:08:05Z</time>
      </trkpt>
      <trkpt lat="48.85199" lon="8.06528">
        <ele>116.9</ele>
        <time>2020-06-28T08:08:06Z</time>
      </trkpt>
      <trkpt lat="48.85196" lon="8.0652">
        <ele>116.9</ele>
        <time>2020-06-28T08:08:07Z</time>
      </trkpt>
      <trkpt lat="48.85193" lon="8.06512">
        <ele>116.9</ele>
        <time>2020-06-28T08:08:08Z</time>
      </trkpt>
      <trkpt lat="48.85189" lon="8.06504">
        <ele>116.9</ele>
        <time>2020-06-28T08:08:09Z</time>
      </trkpt>
      <trkpt lat="48.85186" lon="8.06497">
        <ele>116.9</ele>
        <time>2020-06-28T08:08:10Z</time>
      </trkpt>
      <trkpt lat="48.85182" lon="8.06489">
        <ele>116.9</ele>
        <time>2020-06-28T08:08:11Z</time>
      </trkpt>
      <trkpt lat="48.85179" lon="8.06482">
        <ele>116.9</ele>
        <time>2020-06-28T08:08:12Z</time>
      </trkpt>
      <trkpt lat="48.85176" lon="8.06475">
        <ele>116.9</ele>
        <time>2020-06-28T08:08:13Z</time>
      </trkpt>
      <trkpt lat="48.85173" lon="8.06468">
        <ele>116.9</ele>
        <time>2020-06-28T08:08:14Z</time>
      </trkpt>
      <trkpt lat="48.85169" lon="8.06461">
        <ele>116.9</ele>
        <time>2020-06-28T08:08:15Z</time>
      </trkpt>
      <trkpt lat="48.85166" lon="8.06454">
        <ele>116.9</ele>
        <time>2020-06-28T08:08:16Z</time>
      </trkpt>
      <trkpt lat="48.85163" lon="8.06447">
        <ele>116.9</ele>
        <time>2020-06-28T08:08:17Z</time>
      </trkpt>
      <trkpt lat="48.8516" lon="8.0644">
        <ele>116.9</ele>
        <time>2020-06-28T08:08:18Z</time>
      </trkpt>
      <trkpt lat="48.85158" lon="8.06433">
        <ele>116.9</ele>
        <time>2020-06-28T08:08:19Z</time>
      </trkpt>
      <trkpt lat="48.85155" lon="8.06425">
        <ele>116.9</ele>
        <time>2020-06-28T08:08:20Z</time>
      </trkpt>
      <trkpt lat="48.85152" lon="8.06417">
        <ele>116.9</ele>
        <time>2020-06-28T08:08:21Z</time>
      </trkpt>
      <trkpt lat="48.8515" lon="8.0641">
        <ele>116.9</ele>
        <time>2020-06-28T08:08:22Z</time>
      </trkpt>
      <trkpt lat="48.85148" lon="8.06403">
        <ele>116.9</ele>
        <time>2020-06-28T08:08:23Z</time>
      </trkpt>
      <trkpt lat="48.85145" lon="8.06396">
        <ele>116.9</ele>
        <time>2020-06-28T08:08:24Z</time>
      </trkpt>
      <trkpt lat="48.85143" lon="8.06388">
        <ele>117</ele>
        <time>2020-06-28T08:08:25Z</time>
      </trkpt>
      <trkpt lat="48.85141" lon="8.0638">
        <ele>117</ele>
        <time>2020-06-28T08:08:26Z</time>
      </trkpt>
      <trkpt lat="48.85139" lon="8.06374">
        <ele>117</ele>
        <time>2020-06-28T08:08:27Z</time>
      </trkpt>
      <trkpt lat="48.85138" lon="8.06367">
        <ele>117.1</ele>
        <time>2020-06-28T08:08:28Z</time>
      </trkpt>
      <trkpt lat="48.85136" lon="8.0636">
        <ele>117.1</ele>
        <time>2020-06-28T08:08:29Z</time>
      </trkpt>
      <trkpt lat="48.85133" lon="8.06355">
        <ele>117.1</ele>
        <time>2020-06-28T08:08:30Z</time>
      </trkpt>
      <trkpt lat="48.85129" lon="8.06353">
        <ele>117.1</ele>
        <time>2020-06-28T08:08:31Z</time>
      </trkpt>
      <trkpt lat="48.85124" lon="8.06352">
        <ele>117.2</ele>
        <time>2020-06-28T08:08:32Z</time>
      </trkpt>
      <trkpt lat="48.85119" lon="8.06354">
        <ele>117.2</ele>
        <time>2020-06-28T08:08:33Z</time>
      </trkpt>
      <trkpt lat="48.85115" lon="8.06354">
        <ele>117.2</ele>
        <time>2020-06-28T08:08:34Z</time>
      </trkpt>
      <trkpt lat="48.85111" lon="8.06353">
        <ele>117.2</ele>
        <time>2020-06-28T08:08:35Z</time>
      </trkpt>
      <trkpt lat="48.85107" lon="8.06349">
        <ele>117.2</ele>
        <time>2020-06-28T08:08:36Z</time>
      </trkpt>
      <trkpt lat="48.85104" lon="8.06341">
        <ele>117.2</ele>
        <time>2020-06-28T08:08:37Z</time>
      </trkpt>
      <trkpt lat="48.85102" lon="8.06335">
        <ele>117.2</ele>
        <time>2020-06-28T08:08:38Z</time>
      </trkpt>
      <trkpt lat="48.85102" lon="8.0633">
        <ele>117.2</ele>
        <time>2020-06-28T08:08:39Z</time>
      </trkpt>
      <trkpt lat="48.85102" lon="8.06324">
        <ele>117.2</ele>
        <time>2020-06-28T08:08:40Z</time>
      </trkpt>
      <trkpt lat="48.85103" lon="8.06319">
        <ele>117.2</ele>
        <time>2020-06-28T08:08:41Z</time>
      </trkpt>
      <trkpt lat="48.85104" lon="8.06314">
        <ele>117.2</ele>
        <time>2020-06-28T08:08:42Z</time>
      </trkpt>
      <trkpt lat="48.85104" lon="8.06309">
        <ele>117.2</ele>
        <time>2020-06-28T08:08:43Z</time>
      </trkpt>
      <trkpt lat="48.85104" lon="8.06305">
        <ele>117.2</ele>
        <time>2020-06-28T08:08:44Z</time>
      </trkpt>
      <trkpt lat="48.85104" lon="8.06299">
        <ele>117.2</ele>
        <time>2020-06-28T08:08:45Z</time>
      </trkpt>
      <trkpt lat="48.85104" lon="8.06293">
        <ele>117.2</ele>
        <time>2020-06-28T08:08:46Z</time>
      </trkpt>
      <trkpt lat="48.85103" lon="8.06288">
        <ele>117.2</ele>
        <time>2020-06-28T08:08:47Z</time>
      </trkpt>
      <trkpt lat="48.85102" lon="8.06281">
        <ele>117.2</ele>
        <time>2020-06-28T08:08:48Z</time>
      </trkpt>
      <trkpt lat="48.851" lon="8.06274">
        <ele>117.2</ele>
        <time>2020-06-28T08:08:49Z</time>
      </trkpt>
      <trkpt lat="48.85099" lon="8.06267">
        <ele>117.2</ele>
        <time>2020-06-28T08:08:50Z</time>
      </trkpt>
      <trkpt lat="48.85098" lon="8.06262">
        <ele>117.2</ele>
        <time>2020-06-28T08:08:51Z</time>
      </trkpt>
      <trkpt lat="48.85097" lon="8.06257">
        <ele>117.3</ele>
        <time>2020-06-28T08:08:52Z</time>
      </trkpt>
      <trkpt lat="48.85096" lon="8.06252">
        <ele>117.3</ele>
        <time>2020-06-28T08:08:53Z</time>
      </trkpt>
      <trkpt lat="48.85094" lon="8.06247">
        <ele>117.3</ele>
        <time>2020-06-28T08:08:54Z</time>
      </trkpt>
      <trkpt lat="48.85092" lon="8.06243">
        <ele>117.3</ele>
        <time>2020-06-28T08:08:55Z</time>
      </trkpt>
      <trkpt lat="48.8509" lon="8.06236">
        <ele>117.3</ele>
        <time>2020-06-28T08:08:56Z</time>
      </trkpt>
      <trkpt lat="48.85088" lon="8.06229">
        <ele>117.3</ele>
        <time>2020-06-28T08:08:57Z</time>
      </trkpt>
      <trkpt lat="48.85085" lon="8.06223">
        <ele>117.3</ele>
        <time>2020-06-28T08:08:58Z</time>
      </trkpt>
      <trkpt lat="48.85083" lon="8.06215">
        <ele>117.2</ele>
        <time>2020-06-28T08:08:59Z</time>
      </trkpt>
      <trkpt lat="48.8508" lon="8.06206">
        <ele>117.2</ele>
        <time>2020-06-28T08:09:00Z</time>
      </trkpt>
      <trkpt lat="48.85077" lon="8.06198">
        <ele>117.2</ele>
        <time>2020-06-28T08:09:01Z</time>
      </trkpt>
      <trkpt lat="48.85075" lon="8.0619">
        <ele>117.1</ele>
        <time>2020-06-28T08:09:02Z</time>
      </trkpt>
      <trkpt lat="48.85072" lon="8.06183">
        <ele>117.1</ele>
        <time>2020-06-28T08:09:03Z</time>
      </trkpt>
      <trkpt lat="48.85069" lon="8.06177">
        <ele>117.1</ele>
        <time>2020-06-28T08:09:04Z</time>
      </trkpt>
      <trkpt lat="48.85068" lon="8.06171">
        <ele>117</ele>
        <time>2020-06-28T08:09:05Z</time>
      </trkpt>
      <trkpt lat="48.85067" lon="8.06165">
        <ele>117</ele>
        <time>2020-06-28T08:09:06Z</time>
      </trkpt>
      <trkpt lat="48.85065" lon="8.06159">
        <ele>117</ele>
        <time>2020-06-28T08:09:07Z</time>
      </trkpt>
      <trkpt lat="48.85063" lon="8.06151">
        <ele>117</ele>
        <time>2020-06-28T08:09:08Z</time>
      </trkpt>
      <trkpt lat="48.8506" lon="8.06146">
        <ele>117</ele>
        <time>2020-06-28T08:09:09Z</time>
      </trkpt>
      <trkpt lat="48.85056" lon="8.06139">
        <ele>117</ele>
        <time>2020-06-28T08:09:10Z</time>
      </trkpt>
      <trkpt lat="48.85054" lon="8.06131">
        <ele>117</ele>
        <time>2020-06-28T08:09:11Z</time>
      </trkpt>
      <trkpt lat="48.85052" lon="8.06121">
        <ele>117</ele>
        <time>2020-06-28T08:09:12Z</time>
      </trkpt>
      <trkpt lat="48.85049" lon="8.06114">
        <ele>117</ele>
        <time>2020-06-28T08:09:13Z</time>
      </trkpt>
      <trkpt lat="48.85048" lon="8.06107">
        <ele>117</ele>
        <time>2020-06-28T08:09:14Z</time>
      </trkpt>
      <trkpt lat="48.85046" lon="8.06101">
        <ele>117</ele>
        <time>2020-06-28T08:09:15Z</time>
      </trkpt>
      <trkpt lat="48.85044" lon="8.06093">
        <ele>116.9</ele>
        <time>2020-06-28T08:09:16Z</time>
      </trkpt>
      <trkpt lat="48.8504" lon="8.06085">
        <ele>116.8</ele>
        <time>2020-06-28T08:09:17Z</time>
      </trkpt>
      <trkpt lat="48.85037" lon="8.06077">
        <ele>116.8</ele>
        <time>2020-06-28T08:09:18Z</time>
      </trkpt>
      <trkpt lat="48.85033" lon="8.06069">
        <ele>116.8</ele>
        <time>2020-06-28T08:09:19Z</time>
      </trkpt>
      <trkpt lat="48.8503" lon="8.06061">
        <ele>116.7</ele>
        <time>2020-06-28T08:09:20Z</time>
      </trkpt>
      <trkpt lat="48.85026" lon="8.06054">
        <ele>116.7</ele>
        <time>2020-06-28T08:09:21Z</time>
      </trkpt>
      <trkpt lat="48.85023" lon="8.06047">
        <ele>116.7</ele>
        <time>2020-06-28T08:09:22Z</time>
      </trkpt>
      <trkpt lat="48.8502" lon="8.06042">
        <ele>116.7</ele>
        <time>2020-06-28T08:09:23Z</time>
      </trkpt>
      <trkpt lat="48.85017" lon="8.06035">
        <ele>116.7</ele>
        <time>2020-06-28T08:09:24Z</time>
      </trkpt>
      <trkpt lat="48.85014" lon="8.06028">
        <ele>116.7</ele>
        <time>2020-06-28T08:09:25Z</time>
      </trkpt>
      <trkpt lat="48.85011" lon="8.0602">
        <ele>116.7</ele>
        <time>2020-06-28T08:09:26Z</time>
      </trkpt>
      <trkpt lat="48.85008" lon="8.06012">
        <ele>116.7</ele>
        <time>2020-06-28T08:09:27Z</time>
      </trkpt>
      <trkpt lat="48.85005" lon="8.06004">
        <ele>116.7</ele>
        <time>2020-06-28T08:09:28Z</time>
      </trkpt>
      <trkpt lat="48.85002" lon="8.05996">
        <ele>116.7</ele>
        <time>2020-06-28T08:09:29Z</time>
      </trkpt>
      <trkpt lat="48.84999" lon="8.05988">
        <ele>116.7</ele>
        <time>2020-06-28T08:09:30Z</time>
      </trkpt>
      <trkpt lat="48.84995" lon="8.0598">
        <ele>116.7</ele>
        <time>2020-06-28T08:09:31Z</time>
      </trkpt>
      <trkpt lat="48.84992" lon="8.05972">
        <ele>116.7</ele>
        <time>2020-06-28T08:09:32Z</time>
      </trkpt>
      <trkpt lat="48.84989" lon="8.05965">
        <ele>116.7</ele>
        <time>2020-06-28T08:09:33Z</time>
      </trkpt>
      <trkpt lat="48.84987" lon="8.05957">
        <ele>116.7</ele>
        <time>2020-06-28T08:09:34Z</time>
      </trkpt>
      <trkpt lat="48.84984" lon="8.05949">
        <ele>116.7</ele>
        <time>2020-06-28T08:09:35Z</time>
      </trkpt>
      <trkpt lat="48.84981" lon="8.05941">
        <ele>116.7</ele>
        <time>2020-06-28T08:09:36Z</time>
      </trkpt>
      <trkpt lat="48.84978" lon="8.05933">
        <ele>116.7</ele>
        <time>2020-06-28T08:09:37Z</time>
      </trkpt>
      <trkpt lat="48.84975" lon="8.05925">
        <ele>116.7</ele>
        <time>2020-06-28T08:09:38Z</time>
      </trkpt>
      <trkpt lat="48.84972" lon="8.05916">
        <ele>116.7</ele>
        <time>2020-06-28T08:09:39Z</time>
      </trkpt>
      <trkpt lat="48.84969" lon="8.05909">
        <ele>116.7</ele>
        <time>2020-06-28T08:09:40Z</time>
      </trkpt>
      <trkpt lat="48.84966" lon="8.05902">
        <ele>116.7</ele>
        <time>2020-06-28T08:09:41Z</time>
      </trkpt>
      <trkpt lat="48.84962" lon="8.05896">
        <ele>116.7</ele>
        <time>2020-06-28T08:09:42Z</time>
      </trkpt>
      <trkpt lat="48.84958" lon="8.05889">
        <ele>116.7</ele>
        <time>2020-06-28T08:09:43Z</time>
      </trkpt>
      <trkpt lat="48.84954" lon="8.05883">
        <ele>116.7</ele>
        <time>2020-06-28T08:09:44Z</time>
      </trkpt>
      <trkpt lat="48.84951" lon="8.05876">
        <ele>116.7</ele>
        <time>2020-06-28T08:09:45Z</time>
      </trkpt>
      <trkpt lat="48.84948" lon="8.0587">
        <ele>116.7</ele>
        <time>2020-06-28T08:09:46Z</time>
      </trkpt>
      <trkpt lat="48.84944" lon="8.05863">
        <ele>116.7</ele>
        <time>2020-06-28T08:09:47Z</time>
      </trkpt>
      <trkpt lat="48.84941" lon="8.05857">
        <ele>116.7</ele>
        <time>2020-06-28T08:09:48Z</time>
      </trkpt>
      <trkpt lat="48.84939" lon="8.05851">
        <ele>116.7</ele>
        <time>2020-06-28T08:09:49Z</time>
      </trkpt>
      <trkpt lat="48.84936" lon="8.05843">
        <ele>116.7</ele>
        <time>2020-06-28T08:09:50Z</time>
      </trkpt>
      <trkpt lat="48.84933" lon="8.05834">
        <ele>116.8</ele>
        <time>2020-06-28T08:09:51Z</time>
      </trkpt>
      <trkpt lat="48.84931" lon="8.05828">
        <ele>116.8</ele>
        <time>2020-06-28T08:09:52Z</time>
      </trkpt>
      <trkpt lat="48.84928" lon="8.05822">
        <ele>116.8</ele>
        <time>2020-06-28T08:09:53Z</time>
      </trkpt>
      <trkpt lat="48.84925" lon="8.05814">
        <ele>116.8</ele>
        <time>2020-06-28T08:09:54Z</time>
      </trkpt>
      <trkpt lat="48.84923" lon="8.05807">
        <ele>116.8</ele>
        <time>2020-06-28T08:09:55Z</time>
      </trkpt>
      <trkpt lat="48.84922" lon="8.058">
        <ele>116.8</ele>
        <time>2020-06-28T08:09:56Z</time>
      </trkpt>
      <trkpt lat="48.8492" lon="8.05794">
        <ele>116.8</ele>
        <time>2020-06-28T08:09:57Z</time>
      </trkpt>
      <trkpt lat="48.84918" lon="8.05789">
        <ele>116.8</ele>
        <time>2020-06-28T08:09:58Z</time>
      </trkpt>
      <trkpt lat="48.84917" lon="8.05789">
        <ele>116.8</ele>
        <time>2020-06-28T08:09:59Z</time>
      </trkpt>
      <trkpt lat="48.84916" lon="8.05791">
        <ele>116.8</ele>
        <time>2020-06-28T08:10:00Z</time>
      </trkpt>
      <trkpt lat="48.84916" lon="8.05792">
        <ele>116.8</ele>
        <time>2020-06-28T08:10:01Z</time>
      </trkpt>
      <trkpt lat="48.84916" lon="8.05791">
        <ele>116.8</ele>
        <time>2020-06-28T08:10:02Z</time>
      </trkpt>
      <trkpt lat="48.84916" lon="8.05791">
        <ele>116.8</ele>
        <time>2020-06-28T08:10:03Z</time>
      </trkpt>
      <trkpt lat="48.84916" lon="8.0579">
        <ele>116.8</ele>
        <time>2020-06-28T08:10:04Z</time>
      </trkpt>
      <trkpt lat="48.84916" lon="8.05789">
        <ele>116.8</ele>
        <time>2020-06-28T08:10:05Z</time>
      </trkpt>
      <trkpt lat="48.84916" lon="8.05788">
        <ele>116.8</ele>
        <time>2020-06-28T08:10:06Z</time>
      </trkpt>
      <trkpt lat="48.84915" lon="8.05787">
        <ele>116.8</ele>
        <time>2020-06-28T08:10:07Z</time>
      </trkpt>
      <trkpt lat="48.84915" lon="8.05786">
        <ele>116.8</ele>
        <time>2020-06-28T08:10:08Z</time>
      </trkpt>
      <trkpt lat="48.84915" lon="8.05785">
        <ele>116.8</ele>
        <time>2020-06-28T08:10:09Z</time>
      </trkpt>
      <trkpt lat="48.84915" lon="8.05784">
        <ele>116.8</ele>
        <time>2020-06-28T08:10:10Z</time>
      </trkpt>
      <trkpt lat="48.84915" lon="8.05783">
        <ele>116.8</ele>
        <time>2020-06-28T08:10:11Z</time>
      </trkpt>
      <trkpt lat="48.84914" lon="8.05782">
        <ele>116.8</ele>
        <time>2020-06-28T08:10:12Z</time>
      </trkpt>
      <trkpt lat="48.84914" lon="8.05782">
        <ele>116.8</ele>
        <time>2020-06-28T08:10:13Z</time>
      </trkpt>
      <trkpt lat="48.84914" lon="8.05781">
        <ele>116.8</ele>
        <time>2020-06-28T08:10:14Z</time>
      </trkpt>
      <trkpt lat="48.84914" lon="8.0578">
        <ele>116.8</ele>
        <time>2020-06-28T08:10:30Z</time>
      </trkpt>
      <trkpt lat="48.84914" lon="8.05779">
        <ele>116.8</ele>
        <time>2020-06-28T08:10:31Z</time>
      </trkpt>
      <trkpt lat="48.84911" lon="8.05774">
        <ele>116.8</ele>
        <time>2020-06-28T08:10:32Z</time>
      </trkpt>
      <trkpt lat="48.84908" lon="8.0577">
        <ele>116.8</ele>
        <time>2020-06-28T08:10:33Z</time>
      </trkpt>
      <trkpt lat="48.84906" lon="8.05766">
        <ele>116.9</ele>
        <time>2020-06-28T08:10:34Z</time>
      </trkpt>
      <trkpt lat="48.84903" lon="8.05762">
        <ele>116.9</ele>
        <time>2020-06-28T08:10:35Z</time>
      </trkpt>
      <trkpt lat="48.84901" lon="8.05759">
        <ele>117</ele>
        <time>2020-06-28T08:10:36Z</time>
      </trkpt>
      <trkpt lat="48.84899" lon="8.05755">
        <ele>117</ele>
        <time>2020-06-28T08:10:37Z</time>
      </trkpt>
      <trkpt lat="48.84898" lon="8.0575">
        <ele>117.1</ele>
        <time>2020-06-28T08:10:38Z</time>
      </trkpt>
      <trkpt lat="48.84896" lon="8.05746">
        <ele>117.2</ele>
        <time>2020-06-28T08:10:39Z</time>
      </trkpt>
      <trkpt lat="48.84894" lon="8.05741">
        <ele>117.2</ele>
        <time>2020-06-28T08:10:40Z</time>
      </trkpt>
      <trkpt lat="48.84893" lon="8.05736">
        <ele>117.3</ele>
        <time>2020-06-28T08:10:41Z</time>
      </trkpt>
      <trkpt lat="48.84891" lon="8.0573">
        <ele>117.3</ele>
        <time>2020-06-28T08:10:42Z</time>
      </trkpt>
      <trkpt lat="48.8489" lon="8.05728">
        <ele>117.3</ele>
        <time>2020-06-28T08:10:43Z</time>
      </trkpt>
      <trkpt lat="48.84888" lon="8.05727">
        <ele>117.3</ele>
        <time>2020-06-28T08:10:44Z</time>
      </trkpt>
      <trkpt lat="48.84885" lon="8.05729">
        <ele>117.3</ele>
        <time>2020-06-28T08:10:45Z</time>
      </trkpt>
      <trkpt lat="48.84881" lon="8.05731">
        <ele>117.3</ele>
        <time>2020-06-28T08:10:46Z</time>
      </trkpt>
      <trkpt lat="48.84877" lon="8.05733">
        <ele>117.2</ele>
        <time>2020-06-28T08:10:47Z</time>
      </trkpt>
      <trkpt lat="48.84873" lon="8.05737">
        <ele>117.1</ele>
        <time>2020-06-28T08:10:48Z</time>
      </trkpt>
      <trkpt lat="48.84869" lon="8.05739">
        <ele>117.1</ele>
        <time>2020-06-28T08:10:49Z</time>
      </trkpt>
      <trkpt lat="48.84865" lon="8.05742">
        <ele>117.1</ele>
        <time>2020-06-28T08:10:50Z</time>
      </trkpt>
      <trkpt lat="48.84862" lon="8.05745">
        <ele>117</ele>
        <time>2020-06-28T08:10:51Z</time>
      </trkpt>
      <trkpt lat="48.84859" lon="8.05748">
        <ele>117</ele>
        <time>2020-06-28T08:10:52Z</time>
      </trkpt>
      <trkpt lat="48.84855" lon="8.05751">
        <ele>117</ele>
        <time>2020-06-28T08:10:53Z</time>
      </trkpt>
      <trkpt lat="48.84851" lon="8.05756">
        <ele>116.9</ele>
        <time>2020-06-28T08:10:54Z</time>
      </trkpt>
      <trkpt lat="48.84848" lon="8.05759">
        <ele>116.9</ele>
        <time>2020-06-28T08:10:55Z</time>
      </trkpt>
      <trkpt lat="48.84844" lon="8.05762">
        <ele>116.9</ele>
        <time>2020-06-28T08:10:56Z</time>
      </trkpt>
      <trkpt lat="48.84839" lon="8.05766">
        <ele>116.9</ele>
        <time>2020-06-28T08:10:57Z</time>
      </trkpt>
      <trkpt lat="48.84834" lon="8.05769">
        <ele>116.9</ele>
        <time>2020-06-28T08:10:58Z</time>
      </trkpt>
      <trkpt lat="48.84831" lon="8.05773">
        <ele>116.8</ele>
        <time>2020-06-28T08:10:59Z</time>
      </trkpt>
      <trkpt lat="48.84827" lon="8.05776">
        <ele>116.8</ele>
        <time>2020-06-28T08:11:00Z</time>
      </trkpt>
      <trkpt lat="48.84824" lon="8.05779">
        <ele>116.8</ele>
        <time>2020-06-28T08:11:01Z</time>
      </trkpt>
      <trkpt lat="48.84821" lon="8.05782">
        <ele>116.8</ele>
        <time>2020-06-28T08:11:02Z</time>
      </trkpt>
      <trkpt lat="48.84818" lon="8.05784">
        <ele>116.8</ele>
        <time>2020-06-28T08:11:03Z</time>
      </trkpt>
      <trkpt lat="48.84814" lon="8.05788">
        <ele>116.7</ele>
        <time>2020-06-28T08:11:04Z</time>
      </trkpt>
      <trkpt lat="48.84809" lon="8.05793">
        <ele>116.7</ele>
        <time>2020-06-28T08:11:05Z</time>
      </trkpt>
      <trkpt lat="48.84804" lon="8.05797">
        <ele>116.7</ele>
        <time>2020-06-28T08:11:06Z</time>
      </trkpt>
      <trkpt lat="48.84799" lon="8.05801">
        <ele>116.7</ele>
        <time>2020-06-28T08:11:07Z</time>
      </trkpt>
      <trkpt lat="48.84793" lon="8.05807">
        <ele>116.7</ele>
        <time>2020-06-28T08:11:08Z</time>
      </trkpt>
      <trkpt lat="48.8479" lon="8.05809">
        <ele>116.7</ele>
        <time>2020-06-28T08:11:09Z</time>
      </trkpt>
      <trkpt lat="48.84785" lon="8.05812">
        <ele>116.7</ele>
        <time>2020-06-28T08:11:10Z</time>
      </trkpt>
      <trkpt lat="48.84781" lon="8.05815">
        <ele>116.7</ele>
        <time>2020-06-28T08:11:11Z</time>
      </trkpt>
      <trkpt lat="48.84774" lon="8.05817">
        <ele>116.8</ele>
        <time>2020-06-28T08:11:12Z</time>
      </trkpt>
      <trkpt lat="48.84769" lon="8.05821">
        <ele>116.8</ele>
        <time>2020-06-28T08:11:13Z</time>
      </trkpt>
      <trkpt lat="48.84765" lon="8.05826">
        <ele>116.9</ele>
        <time>2020-06-28T08:11:14Z</time>
      </trkpt>
      <trkpt lat="48.84761" lon="8.05831">
        <ele>116.9</ele>
        <time>2020-06-28T08:11:15Z</time>
      </trkpt>
      <trkpt lat="48.84757" lon="8.05835">
        <ele>116.9</ele>
        <time>2020-06-28T08:11:16Z</time>
      </trkpt>
      <trkpt lat="48.84754" lon="8.05838">
        <ele>117</ele>
        <time>2020-06-28T08:11:17Z</time>
      </trkpt>
      <trkpt lat="48.8475" lon="8.05843">
        <ele>117</ele>
        <time>2020-06-28T08:11:18Z</time>
      </trkpt>
      <trkpt lat="48.84747" lon="8.05846">
        <ele>117</ele>
        <time>2020-06-28T08:11:19Z</time>
      </trkpt>
      <trkpt lat="48.84743" lon="8.05848">
        <ele>117</ele>
        <time>2020-06-28T08:11:20Z</time>
      </trkpt>
      <trkpt lat="48.84739" lon="8.05851">
        <ele>117</ele>
        <time>2020-06-28T08:11:21Z</time>
      </trkpt>
      <trkpt lat="48.84736" lon="8.05854">
        <ele>117</ele>
        <time>2020-06-28T08:11:22Z</time>
      </trkpt>
      <trkpt lat="48.84733" lon="8.05858">
        <ele>117</ele>
        <time>2020-06-28T08:11:23Z</time>
      </trkpt>
      <trkpt lat="48.84729" lon="8.05859">
        <ele>117</ele>
        <time>2020-06-28T08:11:24Z</time>
      </trkpt>
      <trkpt lat="48.84725" lon="8.05859">
        <ele>117</ele>
        <time>2020-06-28T08:11:25Z</time>
      </trkpt>
      <trkpt lat="48.84721" lon="8.05853">
        <ele>117</ele>
        <time>2020-06-28T08:11:26Z</time>
      </trkpt>
      <trkpt lat="48.84719" lon="8.05847">
        <ele>117</ele>
        <time>2020-06-28T08:11:27Z</time>
      </trkpt>
      <trkpt lat="48.84715" lon="8.05843">
        <ele>116.9</ele>
        <time>2020-06-28T08:11:28Z</time>
      </trkpt>
      <trkpt lat="48.84712" lon="8.05838">
        <ele>116.9</ele>
        <time>2020-06-28T08:11:29Z</time>
      </trkpt>
      <trkpt lat="48.84707" lon="8.05834">
        <ele>116.9</ele>
        <time>2020-06-28T08:11:30Z</time>
      </trkpt>
      <trkpt lat="48.84703" lon="8.05829">
        <ele>116.9</ele>
        <time>2020-06-28T08:11:31Z</time>
      </trkpt>
      <trkpt lat="48.84699" lon="8.05826">
        <ele>116.9</ele>
        <time>2020-06-28T08:11:32Z</time>
      </trkpt>
      <trkpt lat="48.84695" lon="8.05819">
        <ele>116.9</ele>
        <time>2020-06-28T08:11:33Z</time>
      </trkpt>
      <trkpt lat="48.8469" lon="8.05815">
        <ele>116.9</ele>
        <time>2020-06-28T08:11:34Z</time>
      </trkpt>
      <trkpt lat="48.84685" lon="8.05812">
        <ele>116.9</ele>
        <time>2020-06-28T08:11:35Z</time>
      </trkpt>
      <trkpt lat="48.8468" lon="8.05809">
        <ele>116.9</ele>
        <time>2020-06-28T08:11:36Z</time>
      </trkpt>
      <trkpt lat="48.84675" lon="8.05806">
        <ele>116.9</ele>
        <time>2020-06-28T08:11:37Z</time>
      </trkpt>
      <trkpt lat="48.84671" lon="8.05803">
        <ele>117</ele>
        <time>2020-06-28T08:11:38Z</time>
      </trkpt>
      <trkpt lat="48.84666" lon="8.05798">
        <ele>117</ele>
        <time>2020-06-28T08:11:39Z</time>
      </trkpt>
      <trkpt lat="48.84662" lon="8.05796">
        <ele>117</ele>
        <time>2020-06-28T08:11:40Z</time>
      </trkpt>
      <trkpt lat="48.84657" lon="8.05793">
        <ele>117.1</ele>
        <time>2020-06-28T08:11:41Z</time>
      </trkpt>
      <trkpt lat="48.84653" lon="8.05789">
        <ele>117.1</ele>
        <time>2020-06-28T08:11:42Z</time>
      </trkpt>
      <trkpt lat="48.84648" lon="8.05786">
        <ele>117.1</ele>
        <time>2020-06-28T08:11:43Z</time>
      </trkpt>
      <trkpt lat="48.84643" lon="8.05783">
        <ele>117.2</ele>
        <time>2020-06-28T08:11:44Z</time>
      </trkpt>
      <trkpt lat="48.84639" lon="8.0578">
        <ele>117.2</ele>
        <time>2020-06-28T08:11:45Z</time>
      </trkpt>
      <trkpt lat="48.84634" lon="8.05777">
        <ele>117.2</ele>
        <time>2020-06-28T08:11:46Z</time>
      </trkpt>
      <trkpt lat="48.8463" lon="8.05774">
        <ele>117.2</ele>
        <time>2020-06-28T08:11:47Z</time>
      </trkpt>
      <trkpt lat="48.84626" lon="8.05771">
        <ele>117.2</ele>
        <time>2020-06-28T08:11:48Z</time>
      </trkpt>
      <trkpt lat="48.8462" lon="8.05768">
        <ele>117.3</ele>
        <time>2020-06-28T08:11:49Z</time>
      </trkpt>
      <trkpt lat="48.84616" lon="8.05765">
        <ele>117.3</ele>
        <time>2020-06-28T08:11:50Z</time>
      </trkpt>
      <trkpt lat="48.84611" lon="8.05762">
        <ele>117.3</ele>
        <time>2020-06-28T08:11:51Z</time>
      </trkpt>
      <trkpt lat="48.84607" lon="8.05759">
        <ele>117.4</ele>
        <time>2020-06-28T08:11:52Z</time>
      </trkpt>
      <trkpt lat="48.84602" lon="8.05756">
        <ele>117.4</ele>
        <time>2020-06-28T08:11:53Z</time>
      </trkpt>
      <trkpt lat="48.84598" lon="8.05752">
        <ele>117.4</ele>
        <time>2020-06-28T08:11:54Z</time>
      </trkpt>
      <trkpt lat="48.84593" lon="8.0575">
        <ele>117.4</ele>
        <time>2020-06-28T08:11:55Z</time>
      </trkpt>
      <trkpt lat="48.84589" lon="8.05745">
        <ele>117.4</ele>
        <time>2020-06-28T08:11:56Z</time>
      </trkpt>
      <trkpt lat="48.84584" lon="8.05741">
        <ele>117.4</ele>
        <time>2020-06-28T08:11:57Z</time>
      </trkpt>
      <trkpt lat="48.84579" lon="8.05736">
        <ele>117.4</ele>
        <time>2020-06-28T08:11:58Z</time>
      </trkpt>
      <trkpt lat="48.84574" lon="8.05733">
        <ele>117.4</ele>
        <time>2020-06-28T08:11:59Z</time>
      </trkpt>
      <trkpt lat="48.8457" lon="8.0573">
        <ele>117.4</ele>
        <time>2020-06-28T08:12:00Z</time>
      </trkpt>
      <trkpt lat="48.84564" lon="8.05727">
        <ele>117.5</ele>
        <time>2020-06-28T08:12:01Z</time>
      </trkpt>
      <trkpt lat="48.84558" lon="8.05723">
        <ele>117.5</ele>
        <time>2020-06-28T08:12:02Z</time>
      </trkpt>
      <trkpt lat="48.84553" lon="8.0572">
        <ele>117.5</ele>
        <time>2020-06-28T08:12:03Z</time>
      </trkpt>
      <trkpt lat="48.84548" lon="8.05717">
        <ele>117.4</ele>
        <time>2020-06-28T08:12:04Z</time>
      </trkpt>
      <trkpt lat="48.84543" lon="8.05715">
        <ele>117.4</ele>
        <time>2020-06-28T08:12:05Z</time>
      </trkpt>
      <trkpt lat="48.84539" lon="8.05713">
        <ele>117.4</ele>
        <time>2020-06-28T08:12:06Z</time>
      </trkpt>
      <trkpt lat="48.84534" lon="8.0571">
        <ele>117.4</ele>
        <time>2020-06-28T08:12:07Z</time>
      </trkpt>
      <trkpt lat="48.84529" lon="8.05707">
        <ele>117.4</ele>
        <time>2020-06-28T08:12:08Z</time>
      </trkpt>
      <trkpt lat="48.84524" lon="8.05704">
        <ele>117.4</ele>
        <time>2020-06-28T08:12:09Z</time>
      </trkpt>
      <trkpt lat="48.84519" lon="8.05703">
        <ele>117.4</ele>
        <time>2020-06-28T08:12:10Z</time>
      </trkpt>
      <trkpt lat="48.84514" lon="8.05702">
        <ele>117.3</ele>
        <time>2020-06-28T08:12:11Z</time>
      </trkpt>
      <trkpt lat="48.8451" lon="8.05701">
        <ele>117.3</ele>
        <time>2020-06-28T08:12:12Z</time>
      </trkpt>
      <trkpt lat="48.84505" lon="8.05698">
        <ele>117.3</ele>
        <time>2020-06-28T08:12:13Z</time>
      </trkpt>
      <trkpt lat="48.845" lon="8.05694">
        <ele>117.3</ele>
        <time>2020-06-28T08:12:14Z</time>
      </trkpt>
      <trkpt lat="48.84494" lon="8.0569">
        <ele>117.3</ele>
        <time>2020-06-28T08:12:15Z</time>
      </trkpt>
      <trkpt lat="48.84488" lon="8.05688">
        <ele>117.3</ele>
        <time>2020-06-28T08:12:16Z</time>
      </trkpt>
      <trkpt lat="48.84483" lon="8.05685">
        <ele>117.3</ele>
        <time>2020-06-28T08:12:17Z</time>
      </trkpt>
      <trkpt lat="48.84477" lon="8.05682">
        <ele>117.3</ele>
        <time>2020-06-28T08:12:18Z</time>
      </trkpt>
      <trkpt lat="48.84471" lon="8.05679">
        <ele>117.3</ele>
        <time>2020-06-28T08:12:19Z</time>
      </trkpt>
      <trkpt lat="48.84466" lon="8.05675">
        <ele>117.3</ele>
        <time>2020-06-28T08:12:20Z</time>
      </trkpt>
      <trkpt lat="48.8446" lon="8.05674">
        <ele>117.3</ele>
        <time>2020-06-28T08:12:21Z</time>
      </trkpt>
      <trkpt lat="48.84457" lon="8.0567">
        <ele>117.3</ele>
        <time>2020-06-28T08:12:22Z</time>
      </trkpt>
      <trkpt lat="48.84452" lon="8.05669">
        <ele>117.3</ele>
        <time>2020-06-28T08:12:23Z</time>
      </trkpt>
      <trkpt lat="48.84447" lon="8.05666">
        <ele>117.3</ele>
        <time>2020-06-28T08:12:24Z</time>
      </trkpt>
      <trkpt lat="48.84442" lon="8.05662">
        <ele>117.4</ele>
        <time>2020-06-28T08:12:25Z</time>
      </trkpt>
      <trkpt lat="48.84437" lon="8.05658">
        <ele>117.4</ele>
        <time>2020-06-28T08:12:26Z</time>
      </trkpt>
      <trkpt lat="48.84432" lon="8.05656">
        <ele>117.4</ele>
        <time>2020-06-28T08:12:27Z</time>
      </trkpt>
      <trkpt lat="48.84427" lon="8.05655">
        <ele>117.5</ele>
        <time>2020-06-28T08:12:28Z</time>
      </trkpt>
      <trkpt lat="48.84422" lon="8.05652">
        <ele>117.5</ele>
        <time>2020-06-28T08:12:29Z</time>
      </trkpt>
      <trkpt lat="48.84417" lon="8.05651">
        <ele>117.5</ele>
        <time>2020-06-28T08:12:30Z</time>
      </trkpt>
      <trkpt lat="48.84412" lon="8.05649">
        <ele>117.5</ele>
        <time>2020-06-28T08:12:31Z</time>
      </trkpt>
      <trkpt lat="48.84409" lon="8.05645">
        <ele>117.5</ele>
        <time>2020-06-28T08:12:32Z</time>
      </trkpt>
      <trkpt lat="48.84405" lon="8.05639">
        <ele>117.5</ele>
        <time>2020-06-28T08:12:33Z</time>
      </trkpt>
      <trkpt lat="48.84401" lon="8.05632">
        <ele>117.5</ele>
        <time>2020-06-28T08:12:34Z</time>
      </trkpt>
      <trkpt lat="48.84398" lon="8.05625">
        <ele>117.6</ele>
        <time>2020-06-28T08:12:35Z</time>
      </trkpt>
      <trkpt lat="48.84395" lon="8.05618">
        <ele>117.6</ele>
        <time>2020-06-28T08:12:36Z</time>
      </trkpt>
      <trkpt lat="48.84392" lon="8.05611">
        <ele>117.6</ele>
        <time>2020-06-28T08:12:37Z</time>
      </trkpt>
      <trkpt lat="48.84387" lon="8.05604">
        <ele>117.6</ele>
        <time>2020-06-28T08:12:38Z</time>
      </trkpt>
      <trkpt lat="48.84384" lon="8.05598">
        <ele>117.7</ele>
        <time>2020-06-28T08:12:39Z</time>
      </trkpt>
      <trkpt lat="48.84381" lon="8.05592">
        <ele>117.7</ele>
        <time>2020-06-28T08:12:40Z</time>
      </trkpt>
      <trkpt lat="48.84377" lon="8.05586">
        <ele>117.7</ele>
        <time>2020-06-28T08:12:41Z</time>
      </trkpt>
      <trkpt lat="48.84374" lon="8.05581">
        <ele>117.8</ele>
        <time>2020-06-28T08:12:42Z</time>
      </trkpt>
      <trkpt lat="48.8437" lon="8.05576">
        <ele>117.8</ele>
        <time>2020-06-28T08:12:43Z</time>
      </trkpt>
      <trkpt lat="48.84365" lon="8.0557">
        <ele>117.9</ele>
        <time>2020-06-28T08:12:44Z</time>
      </trkpt>
      <trkpt lat="48.84364" lon="8.05564">
        <ele>118</ele>
        <time>2020-06-28T08:12:45Z</time>
      </trkpt>
      <trkpt lat="48.84359" lon="8.05559">
        <ele>118</ele>
        <time>2020-06-28T08:12:46Z</time>
      </trkpt>
      <trkpt lat="48.84358" lon="8.05553">
        <ele>118.1</ele>
        <time>2020-06-28T08:12:47Z</time>
      </trkpt>
      <trkpt lat="48.84355" lon="8.05547">
        <ele>118.2</ele>
        <time>2020-06-28T08:12:48Z</time>
      </trkpt>
      <trkpt lat="48.84352" lon="8.05542">
        <ele>118.2</ele>
        <time>2020-06-28T08:12:49Z</time>
      </trkpt>
      <trkpt lat="48.84347" lon="8.05536">
        <ele>118.3</ele>
        <time>2020-06-28T08:12:50Z</time>
      </trkpt>
      <trkpt lat="48.84341" lon="8.0553">
        <ele>118.4</ele>
        <time>2020-06-28T08:12:51Z</time>
      </trkpt>
      <trkpt lat="48.84337" lon="8.05524">
        <ele>118.5</ele>
        <time>2020-06-28T08:12:52Z</time>
      </trkpt>
      <trkpt lat="48.84334" lon="8.0552">
        <ele>118.5</ele>
        <time>2020-06-28T08:12:53Z</time>
      </trkpt>
      <trkpt lat="48.84329" lon="8.05512">
        <ele>118.6</ele>
        <time>2020-06-28T08:12:54Z</time>
      </trkpt>
      <trkpt lat="48.84326" lon="8.05508">
        <ele>118.6</ele>
        <time>2020-06-28T08:12:55Z</time>
      </trkpt>
      <trkpt lat="48.84321" lon="8.05502">
        <ele>118.7</ele>
        <time>2020-06-28T08:12:56Z</time>
      </trkpt>
      <trkpt lat="48.84315" lon="8.05497">
        <ele>118.7</ele>
        <time>2020-06-28T08:12:57Z</time>
      </trkpt>
      <trkpt lat="48.8431" lon="8.05489">
        <ele>118.7</ele>
        <time>2020-06-28T08:12:58Z</time>
      </trkpt>
      <trkpt lat="48.84306" lon="8.05481">
        <ele>118.7</ele>
        <time>2020-06-28T08:12:59Z</time>
      </trkpt>
      <trkpt lat="48.84301" lon="8.05475">
        <ele>118.6</ele>
        <time>2020-06-28T08:13:00Z</time>
      </trkpt>
      <trkpt lat="48.84297" lon="8.05468">
        <ele>118.6</ele>
        <time>2020-06-28T08:13:01Z</time>
      </trkpt>
      <trkpt lat="48.84293" lon="8.05462">
        <ele>118.5</ele>
        <time>2020-06-28T08:13:02Z</time>
      </trkpt>
      <trkpt lat="48.84289" lon="8.05455">
        <ele>118.5</ele>
        <time>2020-06-28T08:13:03Z</time>
      </trkpt>
      <trkpt lat="48.84288" lon="8.05449">
        <ele>118.5</ele>
        <time>2020-06-28T08:13:04Z</time>
      </trkpt>
      <trkpt lat="48.84284" lon="8.05442">
        <ele>118.4</ele>
        <time>2020-06-28T08:13:05Z</time>
      </trkpt>
      <trkpt lat="48.84279" lon="8.05435">
        <ele>118.4</ele>
        <time>2020-06-28T08:13:06Z</time>
      </trkpt>
      <trkpt lat="48.84274" lon="8.05428">
        <ele>118.4</ele>
        <time>2020-06-28T08:13:07Z</time>
      </trkpt>
      <trkpt lat="48.84271" lon="8.0542">
        <ele>118.4</ele>
        <time>2020-06-28T08:13:08Z</time>
      </trkpt>
      <trkpt lat="48.84267" lon="8.05414">
        <ele>118.4</ele>
        <time>2020-06-28T08:13:09Z</time>
      </trkpt>
      <trkpt lat="48.84264" lon="8.05409">
        <ele>118.4</ele>
        <time>2020-06-28T08:13:10Z</time>
      </trkpt>
      <trkpt lat="48.84261" lon="8.05403">
        <ele>118.4</ele>
        <time>2020-06-28T08:13:11Z</time>
      </trkpt>
      <trkpt lat="48.84258" lon="8.05398">
        <ele>118.4</ele>
        <time>2020-06-28T08:13:12Z</time>
      </trkpt>
      <trkpt lat="48.84253" lon="8.05391">
        <ele>118.4</ele>
        <time>2020-06-28T08:13:13Z</time>
      </trkpt>
      <trkpt lat="48.8425" lon="8.05385">
        <ele>118.4</ele>
        <time>2020-06-28T08:13:14Z</time>
      </trkpt>
      <trkpt lat="48.84245" lon="8.05379">
        <ele>118.4</ele>
        <time>2020-06-28T08:13:15Z</time>
      </trkpt>
      <trkpt lat="48.84242" lon="8.05372">
        <ele>118.5</ele>
        <time>2020-06-28T08:13:16Z</time>
      </trkpt>
      <trkpt lat="48.84237" lon="8.05367">
        <ele>118.5</ele>
        <time>2020-06-28T08:13:17Z</time>
      </trkpt>
      <trkpt lat="48.84234" lon="8.05361">
        <ele>118.5</ele>
        <time>2020-06-28T08:13:18Z</time>
      </trkpt>
      <trkpt lat="48.8423" lon="8.05355">
        <ele>118.6</ele>
        <time>2020-06-28T08:13:19Z</time>
      </trkpt>
      <trkpt lat="48.84226" lon="8.05349">
        <ele>118.6</ele>
        <time>2020-06-28T08:13:20Z</time>
      </trkpt>
      <trkpt lat="48.84223" lon="8.05342">
        <ele>118.7</ele>
        <time>2020-06-28T08:13:21Z</time>
      </trkpt>
      <trkpt lat="48.84219" lon="8.05335">
        <ele>118.8</ele>
        <time>2020-06-28T08:13:22Z</time>
      </trkpt>
      <trkpt lat="48.84215" lon="8.0533">
        <ele>118.8</ele>
        <time>2020-06-28T08:13:23Z</time>
      </trkpt>
      <trkpt lat="48.84212" lon="8.05323">
        <ele>118.7</ele>
        <time>2020-06-28T08:13:24Z</time>
      </trkpt>
      <trkpt lat="48.84207" lon="8.05316">
        <ele>118.6</ele>
        <time>2020-06-28T08:13:25Z</time>
      </trkpt>
      <trkpt lat="48.84203" lon="8.0531">
        <ele>118.5</ele>
        <time>2020-06-28T08:13:26Z</time>
      </trkpt>
      <trkpt lat="48.842" lon="8.05302">
        <ele>118.3</ele>
        <time>2020-06-28T08:13:27Z</time>
      </trkpt>
      <trkpt lat="48.84196" lon="8.05295">
        <ele>118.2</ele>
        <time>2020-06-28T08:13:28Z</time>
      </trkpt>
      <trkpt lat="48.84192" lon="8.0529">
        <ele>118.1</ele>
        <time>2020-06-28T08:13:29Z</time>
      </trkpt>
      <trkpt lat="48.84189" lon="8.05283">
        <ele>118</ele>
        <time>2020-06-28T08:13:30Z</time>
      </trkpt>
      <trkpt lat="48.84184" lon="8.05277">
        <ele>117.9</ele>
        <time>2020-06-28T08:13:31Z</time>
      </trkpt>
      <trkpt lat="48.8418" lon="8.05271">
        <ele>117.8</ele>
        <time>2020-06-28T08:13:32Z</time>
      </trkpt>
      <trkpt lat="48.84176" lon="8.05264">
        <ele>117.8</ele>
        <time>2020-06-28T08:13:33Z</time>
      </trkpt>
      <trkpt lat="48.84172" lon="8.05259">
        <ele>117.7</ele>
        <time>2020-06-28T08:13:34Z</time>
      </trkpt>
      <trkpt lat="48.84168" lon="8.05255">
        <ele>117.7</ele>
        <time>2020-06-28T08:13:35Z</time>
      </trkpt>
      <trkpt lat="48.84162" lon="8.0525">
        <ele>117.7</ele>
        <time>2020-06-28T08:13:36Z</time>
      </trkpt>
      <trkpt lat="48.84156" lon="8.05247">
        <ele>117.7</ele>
        <time>2020-06-28T08:13:37Z</time>
      </trkpt>
      <trkpt lat="48.8415" lon="8.05243">
        <ele>117.6</ele>
        <time>2020-06-28T08:13:38Z</time>
      </trkpt>
      <trkpt lat="48.84144" lon="8.05238">
        <ele>117.6</ele>
        <time>2020-06-28T08:13:39Z</time>
      </trkpt>
      <trkpt lat="48.84139" lon="8.05232">
        <ele>117.6</ele>
        <time>2020-06-28T08:13:40Z</time>
      </trkpt>
      <trkpt lat="48.84134" lon="8.05227">
        <ele>117.6</ele>
        <time>2020-06-28T08:13:41Z</time>
      </trkpt>
      <trkpt lat="48.8413" lon="8.05223">
        <ele>117.6</ele>
        <time>2020-06-28T08:13:42Z</time>
      </trkpt>
      <trkpt lat="48.84125" lon="8.05219">
        <ele>117.6</ele>
        <time>2020-06-28T08:13:43Z</time>
      </trkpt>
      <trkpt lat="48.84121" lon="8.05216">
        <ele>117.6</ele>
        <time>2020-06-28T08:13:44Z</time>
      </trkpt>
      <trkpt lat="48.84116" lon="8.05212">
        <ele>117.7</ele>
        <time>2020-06-28T08:13:45Z</time>
      </trkpt>
      <trkpt lat="48.8411" lon="8.05206">
        <ele>117.7</ele>
        <time>2020-06-28T08:13:46Z</time>
      </trkpt>
      <trkpt lat="48.84105" lon="8.05202">
        <ele>117.7</ele>
        <time>2020-06-28T08:13:47Z</time>
      </trkpt>
      <trkpt lat="48.841" lon="8.05199">
        <ele>117.7</ele>
        <time>2020-06-28T08:13:48Z</time>
      </trkpt>
      <trkpt lat="48.84097" lon="8.05194">
        <ele>117.7</ele>
        <time>2020-06-28T08:13:49Z</time>
      </trkpt>
      <trkpt lat="48.84092" lon="8.05189">
        <ele>117.7</ele>
        <time>2020-06-28T08:13:50Z</time>
      </trkpt>
      <trkpt lat="48.84087" lon="8.05184">
        <ele>117.7</ele>
        <time>2020-06-28T08:13:51Z</time>
      </trkpt>
      <trkpt lat="48.84082" lon="8.05179">
        <ele>117.6</ele>
        <time>2020-06-28T08:13:52Z</time>
      </trkpt>
      <trkpt lat="48.84077" lon="8.05175">
        <ele>117.5</ele>
        <time>2020-06-28T08:13:53Z</time>
      </trkpt>
      <trkpt lat="48.84071" lon="8.05172">
        <ele>117.4</ele>
        <time>2020-06-28T08:13:54Z</time>
      </trkpt>
      <trkpt lat="48.84066" lon="8.05169">
        <ele>117.4</ele>
        <time>2020-06-28T08:13:55Z</time>
      </trkpt>
      <trkpt lat="48.8406" lon="8.05165">
        <ele>117.3</ele>
        <time>2020-06-28T08:13:56Z</time>
      </trkpt>
      <trkpt lat="48.84053" lon="8.05162">
        <ele>117.2</ele>
        <time>2020-06-28T08:13:57Z</time>
      </trkpt>
      <trkpt lat="48.84047" lon="8.05158">
        <ele>117</ele>
        <time>2020-06-28T08:13:58Z</time>
      </trkpt>
      <trkpt lat="48.8404" lon="8.05156">
        <ele>117</ele>
        <time>2020-06-28T08:13:59Z</time>
      </trkpt>
      <trkpt lat="48.84033" lon="8.05152">
        <ele>116.9</ele>
        <time>2020-06-28T08:14:00Z</time>
      </trkpt>
      <trkpt lat="48.84027" lon="8.05147">
        <ele>116.8</ele>
        <time>2020-06-28T08:14:01Z</time>
      </trkpt>
      <trkpt lat="48.84021" lon="8.05146">
        <ele>116.8</ele>
        <time>2020-06-28T08:14:02Z</time>
      </trkpt>
      <trkpt lat="48.84014" lon="8.05142">
        <ele>116.8</ele>
        <time>2020-06-28T08:14:03Z</time>
      </trkpt>
      <trkpt lat="48.84007" lon="8.05139">
        <ele>116.8</ele>
        <time>2020-06-28T08:14:04Z</time>
      </trkpt>
      <trkpt lat="48.84001" lon="8.05135">
        <ele>116.8</ele>
        <time>2020-06-28T08:14:05Z</time>
      </trkpt>
      <trkpt lat="48.83995" lon="8.05131">
        <ele>116.8</ele>
        <time>2020-06-28T08:14:06Z</time>
      </trkpt>
      <trkpt lat="48.83988" lon="8.05128">
        <ele>116.9</ele>
        <time>2020-06-28T08:14:07Z</time>
      </trkpt>
      <trkpt lat="48.83982" lon="8.05125">
        <ele>117</ele>
        <time>2020-06-28T08:14:08Z</time>
      </trkpt>
      <trkpt lat="48.83976" lon="8.05121">
        <ele>117</ele>
        <time>2020-06-28T08:14:09Z</time>
      </trkpt>
      <trkpt lat="48.8397" lon="8.05118">
        <ele>117.1</ele>
        <time>2020-06-28T08:14:10Z</time>
      </trkpt>
      <trkpt lat="48.83964" lon="8.05115">
        <ele>117.2</ele>
        <time>2020-06-28T08:14:11Z</time>
      </trkpt>
      <trkpt lat="48.83958" lon="8.05113">
        <ele>117.2</ele>
        <time>2020-06-28T08:14:12Z</time>
      </trkpt>
      <trkpt lat="48.83952" lon="8.0511">
        <ele>117.3</ele>
        <time>2020-06-28T08:14:13Z</time>
      </trkpt>
      <trkpt lat="48.83947" lon="8.05107">
        <ele>117.4</ele>
        <time>2020-06-28T08:14:14Z</time>
      </trkpt>
      <trkpt lat="48.83941" lon="8.05104">
        <ele>117.4</ele>
        <time>2020-06-28T08:14:15Z</time>
      </trkpt>
      <trkpt lat="48.83935" lon="8.051">
        <ele>117.4</ele>
        <time>2020-06-28T08:14:16Z</time>
      </trkpt>
      <trkpt lat="48.83929" lon="8.05097">
        <ele>117.4</ele>
        <time>2020-06-28T08:14:17Z</time>
      </trkpt>
      <trkpt lat="48.83923" lon="8.05092">
        <ele>117.3</ele>
        <time>2020-06-28T08:14:18Z</time>
      </trkpt>
      <trkpt lat="48.83917" lon="8.05088">
        <ele>117.2</ele>
        <time>2020-06-28T08:14:19Z</time>
      </trkpt>
      <trkpt lat="48.83911" lon="8.05084">
        <ele>117.2</ele>
        <time>2020-06-28T08:14:20Z</time>
      </trkpt>
      <trkpt lat="48.83906" lon="8.05079">
        <ele>117.2</ele>
        <time>2020-06-28T08:14:21Z</time>
      </trkpt>
      <trkpt lat="48.839" lon="8.05075">
        <ele>117.1</ele>
        <time>2020-06-28T08:14:22Z</time>
      </trkpt>
      <trkpt lat="48.83894" lon="8.05071">
        <ele>117.1</ele>
        <time>2020-06-28T08:14:23Z</time>
      </trkpt>
      <trkpt lat="48.83888" lon="8.05067">
        <ele>117.1</ele>
        <time>2020-06-28T08:14:24Z</time>
      </trkpt>
      <trkpt lat="48.83883" lon="8.05062">
        <ele>117.1</ele>
        <time>2020-06-28T08:14:25Z</time>
      </trkpt>
      <trkpt lat="48.83877" lon="8.05058">
        <ele>117.1</ele>
        <time>2020-06-28T08:14:26Z</time>
      </trkpt>
      <trkpt lat="48.83871" lon="8.05053">
        <ele>117.1</ele>
        <time>2020-06-28T08:14:27Z</time>
      </trkpt>
      <trkpt lat="48.83865" lon="8.05049">
        <ele>117.2</ele>
        <time>2020-06-28T08:14:28Z</time>
      </trkpt>
      <trkpt lat="48.83859" lon="8.05045">
        <ele>117.2</ele>
        <time>2020-06-28T08:14:29Z</time>
      </trkpt>
      <trkpt lat="48.83854" lon="8.05041">
        <ele>117.2</ele>
        <time>2020-06-28T08:14:30Z</time>
      </trkpt>
      <trkpt lat="48.83848" lon="8.05037">
        <ele>117.2</ele>
        <time>2020-06-28T08:14:31Z</time>
      </trkpt>
      <trkpt lat="48.83843" lon="8.05033">
        <ele>117.2</ele>
        <time>2020-06-28T08:14:32Z</time>
      </trkpt>
      <trkpt lat="48.83837" lon="8.05029">
        <ele>117.2</ele>
        <time>2020-06-28T08:14:33Z</time>
      </trkpt>
      <trkpt lat="48.83832" lon="8.05024">
        <ele>117.2</ele>
        <time>2020-06-28T08:14:34Z</time>
      </trkpt>
      <trkpt lat="48.83826" lon="8.0502">
        <ele>117.2</ele>
        <time>2020-06-28T08:14:35Z</time>
      </trkpt>
      <trkpt lat="48.83821" lon="8.05016">
        <ele>117.2</ele>
        <time>2020-06-28T08:14:36Z</time>
      </trkpt>
      <trkpt lat="48.83816" lon="8.05011">
        <ele>117.2</ele>
        <time>2020-06-28T08:14:37Z</time>
      </trkpt>
      <trkpt lat="48.83811" lon="8.05006">
        <ele>117.2</ele>
        <time>2020-06-28T08:14:38Z</time>
      </trkpt>
      <trkpt lat="48.83807" lon="8.05001">
        <ele>117.2</ele>
        <time>2020-06-28T08:14:39Z</time>
      </trkpt>
      <trkpt lat="48.83802" lon="8.04996">
        <ele>117.2</ele>
        <time>2020-06-28T08:14:40Z</time>
      </trkpt>
      <trkpt lat="48.83798" lon="8.0499">
        <ele>117.2</ele>
        <time>2020-06-28T08:14:41Z</time>
      </trkpt>
      <trkpt lat="48.83793" lon="8.04984">
        <ele>117.1</ele>
        <time>2020-06-28T08:14:42Z</time>
      </trkpt>
      <trkpt lat="48.83788" lon="8.04979">
        <ele>117.1</ele>
        <time>2020-06-28T08:14:43Z</time>
      </trkpt>
      <trkpt lat="48.83784" lon="8.04973">
        <ele>117.1</ele>
        <time>2020-06-28T08:14:44Z</time>
      </trkpt>
      <trkpt lat="48.83779" lon="8.04967">
        <ele>117.1</ele>
        <time>2020-06-28T08:14:45Z</time>
      </trkpt>
      <trkpt lat="48.83775" lon="8.0496">
        <ele>117.1</ele>
        <time>2020-06-28T08:14:46Z</time>
      </trkpt>
      <trkpt lat="48.83771" lon="8.04954">
        <ele>117</ele>
        <time>2020-06-28T08:14:47Z</time>
      </trkpt>
      <trkpt lat="48.83766" lon="8.04948">
        <ele>117</ele>
        <time>2020-06-28T08:14:48Z</time>
      </trkpt>
      <trkpt lat="48.83762" lon="8.04941">
        <ele>117</ele>
        <time>2020-06-28T08:14:49Z</time>
      </trkpt>
      <trkpt lat="48.83758" lon="8.04934">
        <ele>116.9</ele>
        <time>2020-06-28T08:14:50Z</time>
      </trkpt>
      <trkpt lat="48.83754" lon="8.04927">
        <ele>116.9</ele>
        <time>2020-06-28T08:14:51Z</time>
      </trkpt>
      <trkpt lat="48.8375" lon="8.0492">
        <ele>116.9</ele>
        <time>2020-06-28T08:14:52Z</time>
      </trkpt>
      <trkpt lat="48.83746" lon="8.04913">
        <ele>116.9</ele>
        <time>2020-06-28T08:14:53Z</time>
      </trkpt>
      <trkpt lat="48.83742" lon="8.04905">
        <ele>116.9</ele>
        <time>2020-06-28T08:14:54Z</time>
      </trkpt>
      <trkpt lat="48.83738" lon="8.04898">
        <ele>116.9</ele>
        <time>2020-06-28T08:14:55Z</time>
      </trkpt>
      <trkpt lat="48.83734" lon="8.0489">
        <ele>116.9</ele>
        <time>2020-06-28T08:14:56Z</time>
      </trkpt>
      <trkpt lat="48.8373" lon="8.04883">
        <ele>116.9</ele>
        <time>2020-06-28T08:14:57Z</time>
      </trkpt>
      <trkpt lat="48.83726" lon="8.04875">
        <ele>116.9</ele>
        <time>2020-06-28T08:14:58Z</time>
      </trkpt>
      <trkpt lat="48.83723" lon="8.04868">
        <ele>116.9</ele>
        <time>2020-06-28T08:14:59Z</time>
      </trkpt>
      <trkpt lat="48.83719" lon="8.0486">
        <ele>116.9</ele>
        <time>2020-06-28T08:15:00Z</time>
      </trkpt>
      <trkpt lat="48.83715" lon="8.04853">
        <ele>116.9</ele>
        <time>2020-06-28T08:15:01Z</time>
      </trkpt>
      <trkpt lat="48.83711" lon="8.04846">
        <ele>117</ele>
        <time>2020-06-28T08:15:02Z</time>
      </trkpt>
      <trkpt lat="48.83707" lon="8.04839">
        <ele>117</ele>
        <time>2020-06-28T08:15:03Z</time>
      </trkpt>
      <trkpt lat="48.83703" lon="8.04832">
        <ele>117</ele>
        <time>2020-06-28T08:15:04Z</time>
      </trkpt>
      <trkpt lat="48.83699" lon="8.04825">
        <ele>117</ele>
        <time>2020-06-28T08:15:05Z</time>
      </trkpt>
      <trkpt lat="48.83695" lon="8.04818">
        <ele>117</ele>
        <time>2020-06-28T08:15:06Z</time>
      </trkpt>
      <trkpt lat="48.83692" lon="8.04811">
        <ele>117.1</ele>
        <time>2020-06-28T08:15:07Z</time>
      </trkpt>
      <trkpt lat="48.83688" lon="8.04803">
        <ele>117.1</ele>
        <time>2020-06-28T08:15:08Z</time>
      </trkpt>
      <trkpt lat="48.83684" lon="8.04796">
        <ele>117.1</ele>
        <time>2020-06-28T08:15:09Z</time>
      </trkpt>
      <trkpt lat="48.83679" lon="8.04789">
        <ele>117.1</ele>
        <time>2020-06-28T08:15:10Z</time>
      </trkpt>
      <trkpt lat="48.83675" lon="8.04783">
        <ele>117.1</ele>
        <time>2020-06-28T08:15:11Z</time>
      </trkpt>
      <trkpt lat="48.83671" lon="8.04776">
        <ele>117.1</ele>
        <time>2020-06-28T08:15:12Z</time>
      </trkpt>
      <trkpt lat="48.83667" lon="8.04769">
        <ele>117.1</ele>
        <time>2020-06-28T08:15:13Z</time>
      </trkpt>
      <trkpt lat="48.83663" lon="8.04762">
        <ele>117.1</ele>
        <time>2020-06-28T08:15:14Z</time>
      </trkpt>
      <trkpt lat="48.83659" lon="8.04755">
        <ele>117.2</ele>
        <time>2020-06-28T08:15:15Z</time>
      </trkpt>
      <trkpt lat="48.83655" lon="8.04749">
        <ele>117.3</ele>
        <time>2020-06-28T08:15:16Z</time>
      </trkpt>
      <trkpt lat="48.83651" lon="8.04743">
        <ele>117.3</ele>
        <time>2020-06-28T08:15:17Z</time>
      </trkpt>
      <trkpt lat="48.83647" lon="8.04737">
        <ele>117.2</ele>
        <time>2020-06-28T08:15:18Z</time>
      </trkpt>
      <trkpt lat="48.83643" lon="8.04731">
        <ele>117.2</ele>
        <time>2020-06-28T08:15:19Z</time>
      </trkpt>
      <trkpt lat="48.83639" lon="8.04726">
        <ele>117.1</ele>
        <time>2020-06-28T08:15:20Z</time>
      </trkpt>
      <trkpt lat="48.83634" lon="8.04719">
        <ele>117.1</ele>
        <time>2020-06-28T08:15:21Z</time>
      </trkpt>
      <trkpt lat="48.8363" lon="8.04714">
        <ele>117.1</ele>
        <time>2020-06-28T08:15:22Z</time>
      </trkpt>
      <trkpt lat="48.83625" lon="8.04708">
        <ele>117</ele>
        <time>2020-06-28T08:15:23Z</time>
      </trkpt>
      <trkpt lat="48.8362" lon="8.04702">
        <ele>117</ele>
        <time>2020-06-28T08:15:24Z</time>
      </trkpt>
      <trkpt lat="48.83616" lon="8.04696">
        <ele>117</ele>
        <time>2020-06-28T08:15:25Z</time>
      </trkpt>
      <trkpt lat="48.83611" lon="8.0469">
        <ele>117</ele>
        <time>2020-06-28T08:15:26Z</time>
      </trkpt>
      <trkpt lat="48.83607" lon="8.04685">
        <ele>116.9</ele>
        <time>2020-06-28T08:15:27Z</time>
      </trkpt>
      <trkpt lat="48.83602" lon="8.04679">
        <ele>116.9</ele>
        <time>2020-06-28T08:15:28Z</time>
      </trkpt>
      <trkpt lat="48.83598" lon="8.04673">
        <ele>116.9</ele>
        <time>2020-06-28T08:15:29Z</time>
      </trkpt>
      <trkpt lat="48.83594" lon="8.04667">
        <ele>116.9</ele>
        <time>2020-06-28T08:15:30Z</time>
      </trkpt>
      <trkpt lat="48.83589" lon="8.04661">
        <ele>116.9</ele>
        <time>2020-06-28T08:15:31Z</time>
      </trkpt>
      <trkpt lat="48.83585" lon="8.04655">
        <ele>116.9</ele>
        <time>2020-06-28T08:15:32Z</time>
      </trkpt>
      <trkpt lat="48.83582" lon="8.04648">
        <ele>116.9</ele>
        <time>2020-06-28T08:15:33Z</time>
      </trkpt>
      <trkpt lat="48.83578" lon="8.04642">
        <ele>116.9</ele>
        <time>2020-06-28T08:15:34Z</time>
      </trkpt>
      <trkpt lat="48.83574" lon="8.04635">
        <ele>116.9</ele>
        <time>2020-06-28T08:15:35Z</time>
      </trkpt>
      <trkpt lat="48.83571" lon="8.04629">
        <ele>116.9</ele>
        <time>2020-06-28T08:15:36Z</time>
      </trkpt>
      <trkpt lat="48.83567" lon="8.04624">
        <ele>116.9</ele>
        <time>2020-06-28T08:15:37Z</time>
      </trkpt>
      <trkpt lat="48.83563" lon="8.04622">
        <ele>116.9</ele>
        <time>2020-06-28T08:15:38Z</time>
      </trkpt>
      <trkpt lat="48.83559" lon="8.0462">
        <ele>116.9</ele>
        <time>2020-06-28T08:15:39Z</time>
      </trkpt>
      <trkpt lat="48.83554" lon="8.04617">
        <ele>116.8</ele>
        <time>2020-06-28T08:15:40Z</time>
      </trkpt>
      <trkpt lat="48.83551" lon="8.04616">
        <ele>116.8</ele>
        <time>2020-06-28T08:15:41Z</time>
      </trkpt>
      <trkpt lat="48.83546" lon="8.04615">
        <ele>116.8</ele>
        <time>2020-06-28T08:15:42Z</time>
      </trkpt>
      <trkpt lat="48.83539" lon="8.04617">
        <ele>116.7</ele>
        <time>2020-06-28T08:15:43Z</time>
      </trkpt>
      <trkpt lat="48.83535" lon="8.04618">
        <ele>116.7</ele>
        <time>2020-06-28T08:15:44Z</time>
      </trkpt>
      <trkpt lat="48.8353" lon="8.04617">
        <ele>116.6</ele>
        <time>2020-06-28T08:15:45Z</time>
      </trkpt>
      <trkpt lat="48.83525" lon="8.04615">
        <ele>116.6</ele>
        <time>2020-06-28T08:15:46Z</time>
      </trkpt>
      <trkpt lat="48.83519" lon="8.04611">
        <ele>116.6</ele>
        <time>2020-06-28T08:15:47Z</time>
      </trkpt>
      <trkpt lat="48.83515" lon="8.04608">
        <ele>116.6</ele>
        <time>2020-06-28T08:15:48Z</time>
      </trkpt>
      <trkpt lat="48.83509" lon="8.04605">
        <ele>116.6</ele>
        <time>2020-06-28T08:15:49Z</time>
      </trkpt>
      <trkpt lat="48.83503" lon="8.04602">
        <ele>116.6</ele>
        <time>2020-06-28T08:15:50Z</time>
      </trkpt>
      <trkpt lat="48.83498" lon="8.04598">
        <ele>116.5</ele>
        <time>2020-06-28T08:15:51Z</time>
      </trkpt>
      <trkpt lat="48.83493" lon="8.04593">
        <ele>116.5</ele>
        <time>2020-06-28T08:15:52Z</time>
      </trkpt>
      <trkpt lat="48.83488" lon="8.0459">
        <ele>116.5</ele>
        <time>2020-06-28T08:15:53Z</time>
      </trkpt>
      <trkpt lat="48.83482" lon="8.04585">
        <ele>116.5</ele>
        <time>2020-06-28T08:15:54Z</time>
      </trkpt>
      <trkpt lat="48.83478" lon="8.04582">
        <ele>116.5</ele>
        <time>2020-06-28T08:15:55Z</time>
      </trkpt>
      <trkpt lat="48.83473" lon="8.04578">
        <ele>116.5</ele>
        <time>2020-06-28T08:15:56Z</time>
      </trkpt>
      <trkpt lat="48.83468" lon="8.04574">
        <ele>116.5</ele>
        <time>2020-06-28T08:15:57Z</time>
      </trkpt>
      <trkpt lat="48.83463" lon="8.0457">
        <ele>116.5</ele>
        <time>2020-06-28T08:15:58Z</time>
      </trkpt>
      <trkpt lat="48.83457" lon="8.04565">
        <ele>116.6</ele>
        <time>2020-06-28T08:15:59Z</time>
      </trkpt>
      <trkpt lat="48.83452" lon="8.0456">
        <ele>116.6</ele>
        <time>2020-06-28T08:16:00Z</time>
      </trkpt>
      <trkpt lat="48.83446" lon="8.04556">
        <ele>116.6</ele>
        <time>2020-06-28T08:16:01Z</time>
      </trkpt>
      <trkpt lat="48.83441" lon="8.04552">
        <ele>116.6</ele>
        <time>2020-06-28T08:16:02Z</time>
      </trkpt>
      <trkpt lat="48.83435" lon="8.04547">
        <ele>116.6</ele>
        <time>2020-06-28T08:16:03Z</time>
      </trkpt>
      <trkpt lat="48.8343" lon="8.04543">
        <ele>116.7</ele>
        <time>2020-06-28T08:16:04Z</time>
      </trkpt>
      <trkpt lat="48.83425" lon="8.04539">
        <ele>116.7</ele>
        <time>2020-06-28T08:16:05Z</time>
      </trkpt>
      <trkpt lat="48.83419" lon="8.04535">
        <ele>116.7</ele>
        <time>2020-06-28T08:16:06Z</time>
      </trkpt>
      <trkpt lat="48.83414" lon="8.04531">
        <ele>116.7</ele>
        <time>2020-06-28T08:16:07Z</time>
      </trkpt>
      <trkpt lat="48.83411" lon="8.04528">
        <ele>116.7</ele>
        <time>2020-06-28T08:16:08Z</time>
      </trkpt>
      <trkpt lat="48.83407" lon="8.04525">
        <ele>116.7</ele>
        <time>2020-06-28T08:16:09Z</time>
      </trkpt>
      <trkpt lat="48.83403" lon="8.04521">
        <ele>116.7</ele>
        <time>2020-06-28T08:16:10Z</time>
      </trkpt>
      <trkpt lat="48.83398" lon="8.04518">
        <ele>116.7</ele>
        <time>2020-06-28T08:16:11Z</time>
      </trkpt>
      <trkpt lat="48.83392" lon="8.04514">
        <ele>116.7</ele>
        <time>2020-06-28T08:16:12Z</time>
      </trkpt>
      <trkpt lat="48.83387" lon="8.04509">
        <ele>116.7</ele>
        <time>2020-06-28T08:16:13Z</time>
      </trkpt>
      <trkpt lat="48.83382" lon="8.04505">
        <ele>116.7</ele>
        <time>2020-06-28T08:16:14Z</time>
      </trkpt>
      <trkpt lat="48.83377" lon="8.045">
        <ele>116.7</ele>
        <time>2020-06-28T08:16:15Z</time>
      </trkpt>
      <trkpt lat="48.83373" lon="8.04496">
        <ele>116.7</ele>
        <time>2020-06-28T08:16:16Z</time>
      </trkpt>
      <trkpt lat="48.83369" lon="8.04492">
        <ele>116.7</ele>
        <time>2020-06-28T08:16:17Z</time>
      </trkpt>
      <trkpt lat="48.83364" lon="8.04487">
        <ele>116.8</ele>
        <time>2020-06-28T08:16:18Z</time>
      </trkpt>
      <trkpt lat="48.83359" lon="8.04483">
        <ele>116.8</ele>
        <time>2020-06-28T08:16:19Z</time>
      </trkpt>
      <trkpt lat="48.83355" lon="8.04478">
        <ele>116.8</ele>
        <time>2020-06-28T08:16:20Z</time>
      </trkpt>
      <trkpt lat="48.8335" lon="8.04474">
        <ele>116.8</ele>
        <time>2020-06-28T08:16:21Z</time>
      </trkpt>
      <trkpt lat="48.83345" lon="8.04469">
        <ele>116.8</ele>
        <time>2020-06-28T08:16:22Z</time>
      </trkpt>
      <trkpt lat="48.8334" lon="8.04465">
        <ele>116.8</ele>
        <time>2020-06-28T08:16:23Z</time>
      </trkpt>
      <trkpt lat="48.83335" lon="8.04459">
        <ele>116.9</ele>
        <time>2020-06-28T08:16:24Z</time>
      </trkpt>
      <trkpt lat="48.83331" lon="8.04456">
        <ele>116.9</ele>
        <time>2020-06-28T08:16:25Z</time>
      </trkpt>
      <trkpt lat="48.83326" lon="8.04451">
        <ele>117</ele>
        <time>2020-06-28T08:16:26Z</time>
      </trkpt>
      <trkpt lat="48.83321" lon="8.04447">
        <ele>117</ele>
        <time>2020-06-28T08:16:27Z</time>
      </trkpt>
      <trkpt lat="48.83318" lon="8.04442">
        <ele>117</ele>
        <time>2020-06-28T08:16:28Z</time>
      </trkpt>
      <trkpt lat="48.83313" lon="8.04438">
        <ele>117.1</ele>
        <time>2020-06-28T08:16:29Z</time>
      </trkpt>
      <trkpt lat="48.83308" lon="8.04432">
        <ele>117.1</ele>
        <time>2020-06-28T08:16:30Z</time>
      </trkpt>
      <trkpt lat="48.83304" lon="8.04426">
        <ele>117</ele>
        <time>2020-06-28T08:16:31Z</time>
      </trkpt>
      <trkpt lat="48.833" lon="8.04422">
        <ele>117</ele>
        <time>2020-06-28T08:16:32Z</time>
      </trkpt>
      <trkpt lat="48.83296" lon="8.04417">
        <ele>117</ele>
        <time>2020-06-28T08:16:33Z</time>
      </trkpt>
      <trkpt lat="48.83291" lon="8.04411">
        <ele>117</ele>
        <time>2020-06-28T08:16:34Z</time>
      </trkpt>
      <trkpt lat="48.83286" lon="8.04406">
        <ele>117</ele>
        <time>2020-06-28T08:16:35Z</time>
      </trkpt>
      <trkpt lat="48.83282" lon="8.04402">
        <ele>117</ele>
        <time>2020-06-28T08:16:36Z</time>
      </trkpt>
      <trkpt lat="48.83278" lon="8.04397">
        <ele>117</ele>
        <time>2020-06-28T08:16:37Z</time>
      </trkpt>
      <trkpt lat="48.83274" lon="8.04391">
        <ele>117</ele>
        <time>2020-06-28T08:16:38Z</time>
      </trkpt>
      <trkpt lat="48.8327" lon="8.04386">
        <ele>117</ele>
        <time>2020-06-28T08:16:39Z</time>
      </trkpt>
      <trkpt lat="48.83265" lon="8.0438">
        <ele>117</ele>
        <time>2020-06-28T08:16:40Z</time>
      </trkpt>
      <trkpt lat="48.83261" lon="8.04373">
        <ele>117</ele>
        <time>2020-06-28T08:16:41Z</time>
      </trkpt>
      <trkpt lat="48.83258" lon="8.04366">
        <ele>117</ele>
        <time>2020-06-28T08:16:42Z</time>
      </trkpt>
      <trkpt lat="48.83255" lon="8.0436">
        <ele>117.1</ele>
        <time>2020-06-28T08:16:43Z</time>
      </trkpt>
      <trkpt lat="48.83251" lon="8.04353">
        <ele>117.1</ele>
        <time>2020-06-28T08:16:44Z</time>
      </trkpt>
      <trkpt lat="48.83247" lon="8.04345">
        <ele>117.1</ele>
        <time>2020-06-28T08:16:45Z</time>
      </trkpt>
      <trkpt lat="48.83244" lon="8.04338">
        <ele>117.1</ele>
        <time>2020-06-28T08:16:46Z</time>
      </trkpt>
      <trkpt lat="48.8324" lon="8.0433">
        <ele>117.1</ele>
        <time>2020-06-28T08:16:47Z</time>
      </trkpt>
      <trkpt lat="48.83238" lon="8.04323">
        <ele>117.2</ele>
        <time>2020-06-28T08:16:48Z</time>
      </trkpt>
      <trkpt lat="48.83235" lon="8.04316">
        <ele>117.2</ele>
        <time>2020-06-28T08:16:49Z</time>
      </trkpt>
      <trkpt lat="48.83231" lon="8.04308">
        <ele>117.2</ele>
        <time>2020-06-28T08:16:50Z</time>
      </trkpt>
      <trkpt lat="48.83227" lon="8.043">
        <ele>117.2</ele>
        <time>2020-06-28T08:16:51Z</time>
      </trkpt>
      <trkpt lat="48.83225" lon="8.04294">
        <ele>117.2</ele>
        <time>2020-06-28T08:16:52Z</time>
      </trkpt>
      <trkpt lat="48.83222" lon="8.04286">
        <ele>117.2</ele>
        <time>2020-06-28T08:16:53Z</time>
      </trkpt>
      <trkpt lat="48.83219" lon="8.04279">
        <ele>117.2</ele>
        <time>2020-06-28T08:16:54Z</time>
      </trkpt>
      <trkpt lat="48.83216" lon="8.04271">
        <ele>117.2</ele>
        <time>2020-06-28T08:16:55Z</time>
      </trkpt>
      <trkpt lat="48.83213" lon="8.04264">
        <ele>117.2</ele>
        <time>2020-06-28T08:16:56Z</time>
      </trkpt>
      <trkpt lat="48.8321" lon="8.04257">
        <ele>117.2</ele>
        <time>2020-06-28T08:16:57Z</time>
      </trkpt>
      <trkpt lat="48.83207" lon="8.0425">
        <ele>117.2</ele>
        <time>2020-06-28T08:16:58Z</time>
      </trkpt>
      <trkpt lat="48.83204" lon="8.04243">
        <ele>117.3</ele>
        <time>2020-06-28T08:16:59Z</time>
      </trkpt>
      <trkpt lat="48.83201" lon="8.04237">
        <ele>117.3</ele>
        <time>2020-06-28T08:17:00Z</time>
      </trkpt>
      <trkpt lat="48.83198" lon="8.0423">
        <ele>117.3</ele>
        <time>2020-06-28T08:17:01Z</time>
      </trkpt>
      <trkpt lat="48.83195" lon="8.04223">
        <ele>117.3</ele>
        <time>2020-06-28T08:17:02Z</time>
      </trkpt>
      <trkpt lat="48.83191" lon="8.04215">
        <ele>117.3</ele>
        <time>2020-06-28T08:17:03Z</time>
      </trkpt>
      <trkpt lat="48.83189" lon="8.04209">
        <ele>117.3</ele>
        <time>2020-06-28T08:17:04Z</time>
      </trkpt>
      <trkpt lat="48.83185" lon="8.04202">
        <ele>117.3</ele>
        <time>2020-06-28T08:17:05Z</time>
      </trkpt>
      <trkpt lat="48.83183" lon="8.04195">
        <ele>117.4</ele>
        <time>2020-06-28T08:17:06Z</time>
      </trkpt>
      <trkpt lat="48.83179" lon="8.04187">
        <ele>117.4</ele>
        <time>2020-06-28T08:17:07Z</time>
      </trkpt>
      <trkpt lat="48.83176" lon="8.0418">
        <ele>117.4</ele>
        <time>2020-06-28T08:17:08Z</time>
      </trkpt>
      <trkpt lat="48.83173" lon="8.04174">
        <ele>117.5</ele>
        <time>2020-06-28T08:17:09Z</time>
      </trkpt>
      <trkpt lat="48.8317" lon="8.04167">
        <ele>117.5</ele>
        <time>2020-06-28T08:17:10Z</time>
      </trkpt>
      <trkpt lat="48.83167" lon="8.04161">
        <ele>117.5</ele>
        <time>2020-06-28T08:17:11Z</time>
      </trkpt>
      <trkpt lat="48.83164" lon="8.04154">
        <ele>117.5</ele>
        <time>2020-06-28T08:17:12Z</time>
      </trkpt>
      <trkpt lat="48.83161" lon="8.04146">
        <ele>117.5</ele>
        <time>2020-06-28T08:17:13Z</time>
      </trkpt>
      <trkpt lat="48.83157" lon="8.04139">
        <ele>117.4</ele>
        <time>2020-06-28T08:17:14Z</time>
      </trkpt>
      <trkpt lat="48.83155" lon="8.04133">
        <ele>117.4</ele>
        <time>2020-06-28T08:17:15Z</time>
      </trkpt>
      <trkpt lat="48.83151" lon="8.04125">
        <ele>117.4</ele>
        <time>2020-06-28T08:17:16Z</time>
      </trkpt>
      <trkpt lat="48.83147" lon="8.04117">
        <ele>117.4</ele>
        <time>2020-06-28T08:17:17Z</time>
      </trkpt>
      <trkpt lat="48.83144" lon="8.04111">
        <ele>117.4</ele>
        <time>2020-06-28T08:17:18Z</time>
      </trkpt>
      <trkpt lat="48.83141" lon="8.04104">
        <ele>117.4</ele>
        <time>2020-06-28T08:17:19Z</time>
      </trkpt>
      <trkpt lat="48.83138" lon="8.04098">
        <ele>117.4</ele>
        <time>2020-06-28T08:17:20Z</time>
      </trkpt>
      <trkpt lat="48.83135" lon="8.0409">
        <ele>117.4</ele>
        <time>2020-06-28T08:17:21Z</time>
      </trkpt>
      <trkpt lat="48.83132" lon="8.04084">
        <ele>117.4</ele>
        <time>2020-06-28T08:17:22Z</time>
      </trkpt>
      <trkpt lat="48.83129" lon="8.04079">
        <ele>117.4</ele>
        <time>2020-06-28T08:17:23Z</time>
      </trkpt>
      <trkpt lat="48.83126" lon="8.04072">
        <ele>117.4</ele>
        <time>2020-06-28T08:17:24Z</time>
      </trkpt>
      <trkpt lat="48.83123" lon="8.04066">
        <ele>117.4</ele>
        <time>2020-06-28T08:17:25Z</time>
      </trkpt>
      <trkpt lat="48.8312" lon="8.04059">
        <ele>117.4</ele>
        <time>2020-06-28T08:17:26Z</time>
      </trkpt>
      <trkpt lat="48.83117" lon="8.04053">
        <ele>117.5</ele>
        <time>2020-06-28T08:17:27Z</time>
      </trkpt>
      <trkpt lat="48.83113" lon="8.04049">
        <ele>117.5</ele>
        <time>2020-06-28T08:17:28Z</time>
      </trkpt>
      <trkpt lat="48.83109" lon="8.04046">
        <ele>117.5</ele>
        <time>2020-06-28T08:17:29Z</time>
      </trkpt>
      <trkpt lat="48.83106" lon="8.04041">
        <ele>117.5</ele>
        <time>2020-06-28T08:17:30Z</time>
      </trkpt>
      <trkpt lat="48.83103" lon="8.04035">
        <ele>117.5</ele>
        <time>2020-06-28T08:17:31Z</time>
      </trkpt>
      <trkpt lat="48.83101" lon="8.04029">
        <ele>117.5</ele>
        <time>2020-06-28T08:17:32Z</time>
      </trkpt>
      <trkpt lat="48.83098" lon="8.04023">
        <ele>117.5</ele>
        <time>2020-06-28T08:17:33Z</time>
      </trkpt>
      <trkpt lat="48.83094" lon="8.04016">
        <ele>117.5</ele>
        <time>2020-06-28T08:17:34Z</time>
      </trkpt>
      <trkpt lat="48.8309" lon="8.0401">
        <ele>117.5</ele>
        <time>2020-06-28T08:17:35Z</time>
      </trkpt>
      <trkpt lat="48.83087" lon="8.04003">
        <ele>117.5</ele>
        <time>2020-06-28T08:17:36Z</time>
      </trkpt>
      <trkpt lat="48.83084" lon="8.03995">
        <ele>117.4</ele>
        <time>2020-06-28T08:17:37Z</time>
      </trkpt>
      <trkpt lat="48.83081" lon="8.0399">
        <ele>117.4</ele>
        <time>2020-06-28T08:17:38Z</time>
      </trkpt>
      <trkpt lat="48.83079" lon="8.03984">
        <ele>117.4</ele>
        <time>2020-06-28T08:17:39Z</time>
      </trkpt>
      <trkpt lat="48.83077" lon="8.0398">
        <ele>117.4</ele>
        <time>2020-06-28T08:17:40Z</time>
      </trkpt>
      <trkpt lat="48.83073" lon="8.03973">
        <ele>117.4</ele>
        <time>2020-06-28T08:17:41Z</time>
      </trkpt>
      <trkpt lat="48.83071" lon="8.03967">
        <ele>117.4</ele>
        <time>2020-06-28T08:17:42Z</time>
      </trkpt>
      <trkpt lat="48.83067" lon="8.03959">
        <ele>117.4</ele>
        <time>2020-06-28T08:17:43Z</time>
      </trkpt>
      <trkpt lat="48.83064" lon="8.03952">
        <ele>117.4</ele>
        <time>2020-06-28T08:17:44Z</time>
      </trkpt>
      <trkpt lat="48.83061" lon="8.03946">
        <ele>117.4</ele>
        <time>2020-06-28T08:17:45Z</time>
      </trkpt>
      <trkpt lat="48.83058" lon="8.03941">
        <ele>117.4</ele>
        <time>2020-06-28T08:17:46Z</time>
      </trkpt>
      <trkpt lat="48.83056" lon="8.03935">
        <ele>117.5</ele>
        <time>2020-06-28T08:17:47Z</time>
      </trkpt>
      <trkpt lat="48.83053" lon="8.03927">
        <ele>117.5</ele>
        <time>2020-06-28T08:17:48Z</time>
      </trkpt>
      <trkpt lat="48.8305" lon="8.03919">
        <ele>117.5</ele>
        <time>2020-06-28T08:17:49Z</time>
      </trkpt>
      <trkpt lat="48.83047" lon="8.03912">
        <ele>117.5</ele>
        <time>2020-06-28T08:17:50Z</time>
      </trkpt>
      <trkpt lat="48.83044" lon="8.03904">
        <ele>117.5</ele>
        <time>2020-06-28T08:17:51Z</time>
      </trkpt>
      <trkpt lat="48.83041" lon="8.03897">
        <ele>117.5</ele>
        <time>2020-06-28T08:17:52Z</time>
      </trkpt>
      <trkpt lat="48.83038" lon="8.03891">
        <ele>117.5</ele>
        <time>2020-06-28T08:17:53Z</time>
      </trkpt>
      <trkpt lat="48.83035" lon="8.03885">
        <ele>117.5</ele>
        <time>2020-06-28T08:17:54Z</time>
      </trkpt>
      <trkpt lat="48.83033" lon="8.03879">
        <ele>117.5</ele>
        <time>2020-06-28T08:17:55Z</time>
      </trkpt>
      <trkpt lat="48.83029" lon="8.03872">
        <ele>117.5</ele>
        <time>2020-06-28T08:17:56Z</time>
      </trkpt>
      <trkpt lat="48.83026" lon="8.03864">
        <ele>117.5</ele>
        <time>2020-06-28T08:17:57Z</time>
      </trkpt>
      <trkpt lat="48.83022" lon="8.03857">
        <ele>117.5</ele>
        <time>2020-06-28T08:17:58Z</time>
      </trkpt>
      <trkpt lat="48.83019" lon="8.03851">
        <ele>117.5</ele>
        <time>2020-06-28T08:17:59Z</time>
      </trkpt>
      <trkpt lat="48.83016" lon="8.03847">
        <ele>117.5</ele>
        <time>2020-06-28T08:18:00Z</time>
      </trkpt>
      <trkpt lat="48.83011" lon="8.03843">
        <ele>117.5</ele>
        <time>2020-06-28T08:18:01Z</time>
      </trkpt>
      <trkpt lat="48.83009" lon="8.0384">
        <ele>117.5</ele>
        <time>2020-06-28T08:18:02Z</time>
      </trkpt>
      <trkpt lat="48.83004" lon="8.03834">
        <ele>117.5</ele>
        <time>2020-06-28T08:18:03Z</time>
      </trkpt>
      <trkpt lat="48.82999" lon="8.03829">
        <ele>117.6</ele>
        <time>2020-06-28T08:18:04Z</time>
      </trkpt>
      <trkpt lat="48.82994" lon="8.03823">
        <ele>117.6</ele>
        <time>2020-06-28T08:18:05Z</time>
      </trkpt>
      <trkpt lat="48.82989" lon="8.03818">
        <ele>117.7</ele>
        <time>2020-06-28T08:18:06Z</time>
      </trkpt>
      <trkpt lat="48.82984" lon="8.03813">
        <ele>117.7</ele>
        <time>2020-06-28T08:18:07Z</time>
      </trkpt>
      <trkpt lat="48.82981" lon="8.03808">
        <ele>117.7</ele>
        <time>2020-06-28T08:18:08Z</time>
      </trkpt>
      <trkpt lat="48.82977" lon="8.03804">
        <ele>117.8</ele>
        <time>2020-06-28T08:18:09Z</time>
      </trkpt>
      <trkpt lat="48.82971" lon="8.03797">
        <ele>117.8</ele>
        <time>2020-06-28T08:18:10Z</time>
      </trkpt>
      <trkpt lat="48.82966" lon="8.03792">
        <ele>117.9</ele>
        <time>2020-06-28T08:18:11Z</time>
      </trkpt>
      <trkpt lat="48.82961" lon="8.03787">
        <ele>117.9</ele>
        <time>2020-06-28T08:18:12Z</time>
      </trkpt>
      <trkpt lat="48.82957" lon="8.03781">
        <ele>118</ele>
        <time>2020-06-28T08:18:13Z</time>
      </trkpt>
      <trkpt lat="48.82953" lon="8.03777">
        <ele>118</ele>
        <time>2020-06-28T08:18:14Z</time>
      </trkpt>
      <trkpt lat="48.82948" lon="8.03773">
        <ele>118</ele>
        <time>2020-06-28T08:18:15Z</time>
      </trkpt>
      <trkpt lat="48.82943" lon="8.03767">
        <ele>118.1</ele>
        <time>2020-06-28T08:18:16Z</time>
      </trkpt>
      <trkpt lat="48.82937" lon="8.03761">
        <ele>118.1</ele>
        <time>2020-06-28T08:18:17Z</time>
      </trkpt>
      <trkpt lat="48.82932" lon="8.03756">
        <ele>118.1</ele>
        <time>2020-06-28T08:18:18Z</time>
      </trkpt>
      <trkpt lat="48.82929" lon="8.03751">
        <ele>118.2</ele>
        <time>2020-06-28T08:18:19Z</time>
      </trkpt>
      <trkpt lat="48.82925" lon="8.03747">
        <ele>118.2</ele>
        <time>2020-06-28T08:18:20Z</time>
      </trkpt>
      <trkpt lat="48.82921" lon="8.03743">
        <ele>118.2</ele>
        <time>2020-06-28T08:18:21Z</time>
      </trkpt>
      <trkpt lat="48.82916" lon="8.03738">
        <ele>118.2</ele>
        <time>2020-06-28T08:18:22Z</time>
      </trkpt>
      <trkpt lat="48.82912" lon="8.03733">
        <ele>118.3</ele>
        <time>2020-06-28T08:18:23Z</time>
      </trkpt>
      <trkpt lat="48.82908" lon="8.03728">
        <ele>118.3</ele>
        <time>2020-06-28T08:18:24Z</time>
      </trkpt>
      <trkpt lat="48.82904" lon="8.03723">
        <ele>118.3</ele>
        <time>2020-06-28T08:18:25Z</time>
      </trkpt>
      <trkpt lat="48.82898" lon="8.03717">
        <ele>118.4</ele>
        <time>2020-06-28T08:18:26Z</time>
      </trkpt>
      <trkpt lat="48.82894" lon="8.03713">
        <ele>118.4</ele>
        <time>2020-06-28T08:18:27Z</time>
      </trkpt>
      <trkpt lat="48.82889" lon="8.03708">
        <ele>118.5</ele>
        <time>2020-06-28T08:18:28Z</time>
      </trkpt>
      <trkpt lat="48.82886" lon="8.03705">
        <ele>118.5</ele>
        <time>2020-06-28T08:18:29Z</time>
      </trkpt>
      <trkpt lat="48.82881" lon="8.037">
        <ele>118.6</ele>
        <time>2020-06-28T08:18:30Z</time>
      </trkpt>
      <trkpt lat="48.82876" lon="8.03697">
        <ele>118.6</ele>
        <time>2020-06-28T08:18:31Z</time>
      </trkpt>
      <trkpt lat="48.82872" lon="8.03692">
        <ele>118.6</ele>
        <time>2020-06-28T08:18:32Z</time>
      </trkpt>
      <trkpt lat="48.82866" lon="8.03686">
        <ele>118.7</ele>
        <time>2020-06-28T08:18:33Z</time>
      </trkpt>
      <trkpt lat="48.8286" lon="8.0368">
        <ele>118.8</ele>
        <time>2020-06-28T08:18:34Z</time>
      </trkpt>
      <trkpt lat="48.82855" lon="8.03676">
        <ele>118.8</ele>
        <time>2020-06-28T08:18:35Z</time>
      </trkpt>
      <trkpt lat="48.82851" lon="8.03671">
        <ele>118.9</ele>
        <time>2020-06-28T08:18:36Z</time>
      </trkpt>
      <trkpt lat="48.82846" lon="8.03666">
        <ele>118.9</ele>
        <time>2020-06-28T08:18:37Z</time>
      </trkpt>
      <trkpt lat="48.82842" lon="8.03662">
        <ele>119</ele>
        <time>2020-06-28T08:18:38Z</time>
      </trkpt>
      <trkpt lat="48.82837" lon="8.03656">
        <ele>119.1</ele>
        <time>2020-06-28T08:18:39Z</time>
      </trkpt>
      <trkpt lat="48.82832" lon="8.03651">
        <ele>119.2</ele>
        <time>2020-06-28T08:18:40Z</time>
      </trkpt>
      <trkpt lat="48.82827" lon="8.03647">
        <ele>119.3</ele>
        <time>2020-06-28T08:18:41Z</time>
      </trkpt>
      <trkpt lat="48.82823" lon="8.03644">
        <ele>119.4</ele>
        <time>2020-06-28T08:18:42Z</time>
      </trkpt>
      <trkpt lat="48.82819" lon="8.0364">
        <ele>119.5</ele>
        <time>2020-06-28T08:18:43Z</time>
      </trkpt>
      <trkpt lat="48.82816" lon="8.03636">
        <ele>119.6</ele>
        <time>2020-06-28T08:18:44Z</time>
      </trkpt>
      <trkpt lat="48.82813" lon="8.03633">
        <ele>119.6</ele>
        <time>2020-06-28T08:18:45Z</time>
      </trkpt>
      <trkpt lat="48.82809" lon="8.0363">
        <ele>119.7</ele>
        <time>2020-06-28T08:18:46Z</time>
      </trkpt>
      <trkpt lat="48.82804" lon="8.03626">
        <ele>119.8</ele>
        <time>2020-06-28T08:18:47Z</time>
      </trkpt>
      <trkpt lat="48.82801" lon="8.03624">
        <ele>119.8</ele>
        <time>2020-06-28T08:18:48Z</time>
      </trkpt>
      <trkpt lat="48.82797" lon="8.03621">
        <ele>119.9</ele>
        <time>2020-06-28T08:18:49Z</time>
      </trkpt>
      <trkpt lat="48.82794" lon="8.03617">
        <ele>120</ele>
        <time>2020-06-28T08:18:50Z</time>
      </trkpt>
      <trkpt lat="48.82789" lon="8.03613">
        <ele>120</ele>
        <time>2020-06-28T08:18:51Z</time>
      </trkpt>
      <trkpt lat="48.82785" lon="8.0361">
        <ele>120.1</ele>
        <time>2020-06-28T08:18:52Z</time>
      </trkpt>
      <trkpt lat="48.82781" lon="8.03607">
        <ele>120.2</ele>
        <time>2020-06-28T08:18:53Z</time>
      </trkpt>
      <trkpt lat="48.82777" lon="8.03603">
        <ele>120.2</ele>
        <time>2020-06-28T08:18:54Z</time>
      </trkpt>
      <trkpt lat="48.82773" lon="8.03599">
        <ele>120.2</ele>
        <time>2020-06-28T08:18:55Z</time>
      </trkpt>
      <trkpt lat="48.82769" lon="8.03596">
        <ele>120.2</ele>
        <time>2020-06-28T08:18:56Z</time>
      </trkpt>
      <trkpt lat="48.82765" lon="8.03591">
        <ele>120.2</ele>
        <time>2020-06-28T08:18:57Z</time>
      </trkpt>
      <trkpt lat="48.82761" lon="8.03587">
        <ele>120.1</ele>
        <time>2020-06-28T08:18:58Z</time>
      </trkpt>
      <trkpt lat="48.82758" lon="8.03581">
        <ele>120.1</ele>
        <time>2020-06-28T08:18:59Z</time>
      </trkpt>
      <trkpt lat="48.82755" lon="8.03577">
        <ele>120</ele>
        <time>2020-06-28T08:19:00Z</time>
      </trkpt>
      <trkpt lat="48.82751" lon="8.03572">
        <ele>119.9</ele>
        <time>2020-06-28T08:19:01Z</time>
      </trkpt>
      <trkpt lat="48.82748" lon="8.03568">
        <ele>119.9</ele>
        <time>2020-06-28T08:19:02Z</time>
      </trkpt>
      <trkpt lat="48.82743" lon="8.03562">
        <ele>119.8</ele>
        <time>2020-06-28T08:19:03Z</time>
      </trkpt>
      <trkpt lat="48.82739" lon="8.03558">
        <ele>119.7</ele>
        <time>2020-06-28T08:19:04Z</time>
      </trkpt>
      <trkpt lat="48.82735" lon="8.03552">
        <ele>119.7</ele>
        <time>2020-06-28T08:19:05Z</time>
      </trkpt>
      <trkpt lat="48.8273" lon="8.03547">
        <ele>119.6</ele>
        <time>2020-06-28T08:19:06Z</time>
      </trkpt>
      <trkpt lat="48.82727" lon="8.03543">
        <ele>119.6</ele>
        <time>2020-06-28T08:19:07Z</time>
      </trkpt>
      <trkpt lat="48.82723" lon="8.03538">
        <ele>119.5</ele>
        <time>2020-06-28T08:19:08Z</time>
      </trkpt>
      <trkpt lat="48.82719" lon="8.03532">
        <ele>119.5</ele>
        <time>2020-06-28T08:19:09Z</time>
      </trkpt>
      <trkpt lat="48.82715" lon="8.03526">
        <ele>119.4</ele>
        <time>2020-06-28T08:19:10Z</time>
      </trkpt>
      <trkpt lat="48.82712" lon="8.03524">
        <ele>119.4</ele>
        <time>2020-06-28T08:19:11Z</time>
      </trkpt>
      <trkpt lat="48.8271" lon="8.03518">
        <ele>119.4</ele>
        <time>2020-06-28T08:19:12Z</time>
      </trkpt>
      <trkpt lat="48.82708" lon="8.03513">
        <ele>119.3</ele>
        <time>2020-06-28T08:19:13Z</time>
      </trkpt>
      <trkpt lat="48.82707" lon="8.03509">
        <ele>119.3</ele>
        <time>2020-06-28T08:19:14Z</time>
      </trkpt>
      <trkpt lat="48.82706" lon="8.03503">
        <ele>119.3</ele>
        <time>2020-06-28T08:19:15Z</time>
      </trkpt>
      <trkpt lat="48.82706" lon="8.03501">
        <ele>119.3</ele>
        <time>2020-06-28T08:19:16Z</time>
      </trkpt>
      <trkpt lat="48.82707" lon="8.035">
        <ele>119.3</ele>
        <time>2020-06-28T08:19:17Z</time>
      </trkpt>
      <trkpt lat="48.82707" lon="8.035">
        <ele>119.3</ele>
        <time>2020-06-28T08:19:18Z</time>
      </trkpt>
      <trkpt lat="48.82707" lon="8.03501">
        <ele>119.3</ele>
        <time>2020-06-28T08:19:19Z</time>
      </trkpt>
      <trkpt lat="48.82706" lon="8.03502">
        <ele>119.3</ele>
        <time>2020-06-28T08:19:20Z</time>
      </trkpt>
      <trkpt lat="48.82706" lon="8.03504">
        <ele>119.3</ele>
        <time>2020-06-28T08:19:21Z</time>
      </trkpt>
      <trkpt lat="48.82706" lon="8.03505">
        <ele>119.3</ele>
        <time>2020-06-28T08:19:22Z</time>
      </trkpt>
      <trkpt lat="48.82705" lon="8.03504">
        <ele>119.3</ele>
        <time>2020-06-28T08:19:23Z</time>
      </trkpt>
      <trkpt lat="48.82705" lon="8.03503">
        <ele>119.3</ele>
        <time>2020-06-28T08:19:24Z</time>
      </trkpt>
      <trkpt lat="48.82704" lon="8.035">
        <ele>119.3</ele>
        <time>2020-06-28T08:19:25Z</time>
      </trkpt>
      <trkpt lat="48.82704" lon="8.03499">
        <ele>119.3</ele>
        <time>2020-06-28T08:19:26Z</time>
      </trkpt>
      <trkpt lat="48.82704" lon="8.03499">
        <ele>119.3</ele>
        <time>2020-06-28T08:19:27Z</time>
      </trkpt>
      <trkpt lat="48.82704" lon="8.035">
        <ele>119.3</ele>
        <time>2020-06-28T08:19:28Z</time>
      </trkpt>
      <trkpt lat="48.82704" lon="8.03498">
        <ele>119.3</ele>
        <time>2020-06-28T08:19:29Z</time>
      </trkpt>
      <trkpt lat="48.82702" lon="8.03496">
        <ele>119.3</ele>
        <time>2020-06-28T08:19:30Z</time>
      </trkpt>
      <trkpt lat="48.82702" lon="8.03497">
        <ele>119.3</ele>
        <time>2020-06-28T08:19:31Z</time>
      </trkpt>
      <trkpt lat="48.82702" lon="8.03496">
        <ele>119.3</ele>
        <time>2020-06-28T08:19:32Z</time>
      </trkpt>
      <trkpt lat="48.82703" lon="8.03496">
        <ele>119.3</ele>
        <time>2020-06-28T08:19:33Z</time>
      </trkpt>
      <trkpt lat="48.82702" lon="8.03496">
        <ele>119.3</ele>
        <time>2020-06-28T08:19:34Z</time>
      </trkpt>
      <trkpt lat="48.82703" lon="8.03496">
        <ele>119.3</ele>
        <time>2020-06-28T08:19:35Z</time>
      </trkpt>
      <trkpt lat="48.82703" lon="8.03496">
        <ele>119.3</ele>
        <time>2020-06-28T08:19:36Z</time>
      </trkpt>
      <trkpt lat="48.82695" lon="8.03496">
        <ele>119.3</ele>
        <time>2020-06-28T08:28:31Z</time>
      </trkpt>
      <trkpt lat="48.82694" lon="8.03495">
        <ele>119.3</ele>
        <time>2020-06-28T08:28:32Z</time>
      </trkpt>
      <trkpt lat="48.82692" lon="8.03496">
        <ele>119.3</ele>
        <time>2020-06-28T08:28:33Z</time>
      </trkpt>
      <trkpt lat="48.82689" lon="8.03499">
        <ele>119.3</ele>
        <time>2020-06-28T08:28:34Z</time>
      </trkpt>
      <trkpt lat="48.82688" lon="8.03499">
        <ele>119.3</ele>
        <time>2020-06-28T08:28:35Z</time>
      </trkpt>
      <trkpt lat="48.82684" lon="8.03497">
        <ele>119.3</ele>
        <time>2020-06-28T08:28:36Z</time>
      </trkpt>
      <trkpt lat="48.82683" lon="8.03495">
        <ele>119.3</ele>
        <time>2020-06-28T08:28:37Z</time>
      </trkpt>
      <trkpt lat="48.8268" lon="8.03491">
        <ele>119.3</ele>
        <time>2020-06-28T08:28:38Z</time>
      </trkpt>
      <trkpt lat="48.82677" lon="8.03487">
        <ele>119.3</ele>
        <time>2020-06-28T08:28:39Z</time>
      </trkpt>
      <trkpt lat="48.82674" lon="8.03484">
        <ele>119.3</ele>
        <time>2020-06-28T08:28:40Z</time>
      </trkpt>
      <trkpt lat="48.82671" lon="8.03481">
        <ele>119.3</ele>
        <time>2020-06-28T08:28:41Z</time>
      </trkpt>
      <trkpt lat="48.82669" lon="8.03478">
        <ele>119.3</ele>
        <time>2020-06-28T08:28:42Z</time>
      </trkpt>
      <trkpt lat="48.82667" lon="8.03474">
        <ele>119.3</ele>
        <time>2020-06-28T08:28:43Z</time>
      </trkpt>
      <trkpt lat="48.82664" lon="8.03471">
        <ele>119.3</ele>
        <time>2020-06-28T08:28:44Z</time>
      </trkpt>
      <trkpt lat="48.82661" lon="8.03466">
        <ele>119.2</ele>
        <time>2020-06-28T08:28:45Z</time>
      </trkpt>
      <trkpt lat="48.82658" lon="8.03462">
        <ele>119.2</ele>
        <time>2020-06-28T08:28:46Z</time>
      </trkpt>
      <trkpt lat="48.82653" lon="8.03456">
        <ele>119.2</ele>
        <time>2020-06-28T08:28:47Z</time>
      </trkpt>
      <trkpt lat="48.82649" lon="8.03451">
        <ele>119.2</ele>
        <time>2020-06-28T08:28:48Z</time>
      </trkpt>
      <trkpt lat="48.82645" lon="8.03447">
        <ele>119.2</ele>
        <time>2020-06-28T08:28:49Z</time>
      </trkpt>
      <trkpt lat="48.82641" lon="8.03441">
        <ele>119.2</ele>
        <time>2020-06-28T08:28:50Z</time>
      </trkpt>
      <trkpt lat="48.82637" lon="8.03438">
        <ele>119.2</ele>
        <time>2020-06-28T08:28:51Z</time>
      </trkpt>
      <trkpt lat="48.82632" lon="8.03433">
        <ele>119.2</ele>
        <time>2020-06-28T08:28:52Z</time>
      </trkpt>
      <trkpt lat="48.82628" lon="8.03428">
        <ele>119.2</ele>
        <time>2020-06-28T08:28:53Z</time>
      </trkpt>
      <trkpt lat="48.82625" lon="8.03425">
        <ele>119.2</ele>
        <time>2020-06-28T08:28:54Z</time>
      </trkpt>
      <trkpt lat="48.82623" lon="8.03421">
        <ele>119.2</ele>
        <time>2020-06-28T08:28:55Z</time>
      </trkpt>
      <trkpt lat="48.82619" lon="8.03419">
        <ele>119.2</ele>
        <time>2020-06-28T08:28:56Z</time>
      </trkpt>
      <trkpt lat="48.82616" lon="8.03416">
        <ele>119.2</ele>
        <time>2020-06-28T08:28:57Z</time>
      </trkpt>
      <trkpt lat="48.82612" lon="8.03414">
        <ele>119.2</ele>
        <time>2020-06-28T08:28:58Z</time>
      </trkpt>
      <trkpt lat="48.82608" lon="8.03413">
        <ele>119.2</ele>
        <time>2020-06-28T08:28:59Z</time>
      </trkpt>
      <trkpt lat="48.82604" lon="8.03411">
        <ele>119.2</ele>
        <time>2020-06-28T08:29:00Z</time>
      </trkpt>
      <trkpt lat="48.826" lon="8.03408">
        <ele>119.2</ele>
        <time>2020-06-28T08:29:01Z</time>
      </trkpt>
      <trkpt lat="48.82596" lon="8.03403">
        <ele>119.2</ele>
        <time>2020-06-28T08:29:02Z</time>
      </trkpt>
      <trkpt lat="48.82593" lon="8.034">
        <ele>119.2</ele>
        <time>2020-06-28T08:29:03Z</time>
      </trkpt>
      <trkpt lat="48.82589" lon="8.03396">
        <ele>119.2</ele>
        <time>2020-06-28T08:29:04Z</time>
      </trkpt>
      <trkpt lat="48.82585" lon="8.03392">
        <ele>119.1</ele>
        <time>2020-06-28T08:29:05Z</time>
      </trkpt>
      <trkpt lat="48.82581" lon="8.03388">
        <ele>119.1</ele>
        <time>2020-06-28T08:29:06Z</time>
      </trkpt>
      <trkpt lat="48.82577" lon="8.03385">
        <ele>119.1</ele>
        <time>2020-06-28T08:29:07Z</time>
      </trkpt>
      <trkpt lat="48.82572" lon="8.03381">
        <ele>119</ele>
        <time>2020-06-28T08:29:08Z</time>
      </trkpt>
      <trkpt lat="48.82567" lon="8.03378">
        <ele>119</ele>
        <time>2020-06-28T08:29:09Z</time>
      </trkpt>
      <trkpt lat="48.82562" lon="8.03373">
        <ele>119</ele>
        <time>2020-06-28T08:29:10Z</time>
      </trkpt>
      <trkpt lat="48.82558" lon="8.03369">
        <ele>119</ele>
        <time>2020-06-28T08:29:11Z</time>
      </trkpt>
      <trkpt lat="48.82554" lon="8.03365">
        <ele>119</ele>
        <time>2020-06-28T08:29:12Z</time>
      </trkpt>
      <trkpt lat="48.82549" lon="8.03361">
        <ele>119</ele>
        <time>2020-06-28T08:29:13Z</time>
      </trkpt>
      <trkpt lat="48.82545" lon="8.03358">
        <ele>119</ele>
        <time>2020-06-28T08:29:14Z</time>
      </trkpt>
      <trkpt lat="48.82541" lon="8.03355">
        <ele>119</ele>
        <time>2020-06-28T08:29:15Z</time>
      </trkpt>
      <trkpt lat="48.82537" lon="8.03352">
        <ele>119</ele>
        <time>2020-06-28T08:29:16Z</time>
      </trkpt>
      <trkpt lat="48.82532" lon="8.03349">
        <ele>119.1</ele>
        <time>2020-06-28T08:29:17Z</time>
      </trkpt>
      <trkpt lat="48.82527" lon="8.03343">
        <ele>119.1</ele>
        <time>2020-06-28T08:29:18Z</time>
      </trkpt>
      <trkpt lat="48.82522" lon="8.0334">
        <ele>119.1</ele>
        <time>2020-06-28T08:29:19Z</time>
      </trkpt>
      <trkpt lat="48.82518" lon="8.03337">
        <ele>119.1</ele>
        <time>2020-06-28T08:29:20Z</time>
      </trkpt>
      <trkpt lat="48.82515" lon="8.03334">
        <ele>119.1</ele>
        <time>2020-06-28T08:29:21Z</time>
      </trkpt>
      <trkpt lat="48.82511" lon="8.0333">
        <ele>119</ele>
        <time>2020-06-28T08:29:22Z</time>
      </trkpt>
      <trkpt lat="48.82508" lon="8.03326">
        <ele>119</ele>
        <time>2020-06-28T08:29:23Z</time>
      </trkpt>
      <trkpt lat="48.82505" lon="8.03322">
        <ele>119</ele>
        <time>2020-06-28T08:29:24Z</time>
      </trkpt>
      <trkpt lat="48.82502" lon="8.03319">
        <ele>119</ele>
        <time>2020-06-28T08:29:25Z</time>
      </trkpt>
      <trkpt lat="48.82498" lon="8.03315">
        <ele>119</ele>
        <time>2020-06-28T08:29:26Z</time>
      </trkpt>
      <trkpt lat="48.82494" lon="8.03311">
        <ele>119</ele>
        <time>2020-06-28T08:29:27Z</time>
      </trkpt>
      <trkpt lat="48.82489" lon="8.03309">
        <ele>119</ele>
        <time>2020-06-28T08:29:28Z</time>
      </trkpt>
      <trkpt lat="48.82484" lon="8.03305">
        <ele>119</ele>
        <time>2020-06-28T08:29:29Z</time>
      </trkpt>
      <trkpt lat="48.82481" lon="8.03298">
        <ele>119</ele>
        <time>2020-06-28T08:29:30Z</time>
      </trkpt>
      <trkpt lat="48.82476" lon="8.03293">
        <ele>119</ele>
        <time>2020-06-28T08:29:31Z</time>
      </trkpt>
      <trkpt lat="48.82473" lon="8.03287">
        <ele>119</ele>
        <time>2020-06-28T08:29:32Z</time>
      </trkpt>
      <trkpt lat="48.82468" lon="8.03283">
        <ele>119</ele>
        <time>2020-06-28T08:29:33Z</time>
      </trkpt>
      <trkpt lat="48.82464" lon="8.03278">
        <ele>119</ele>
        <time>2020-06-28T08:29:34Z</time>
      </trkpt>
      <trkpt lat="48.82461" lon="8.03274">
        <ele>119</ele>
        <time>2020-06-28T08:29:35Z</time>
      </trkpt>
      <trkpt lat="48.82458" lon="8.03268">
        <ele>119.1</ele>
        <time>2020-06-28T08:29:36Z</time>
      </trkpt>
      <trkpt lat="48.82455" lon="8.03264">
        <ele>119.1</ele>
        <time>2020-06-28T08:29:37Z</time>
      </trkpt>
      <trkpt lat="48.82451" lon="8.03261">
        <ele>119</ele>
        <time>2020-06-28T08:29:38Z</time>
      </trkpt>
      <trkpt lat="48.82446" lon="8.03256">
        <ele>118.9</ele>
        <time>2020-06-28T08:29:39Z</time>
      </trkpt>
      <trkpt lat="48.82442" lon="8.03251">
        <ele>118.9</ele>
        <time>2020-06-28T08:29:40Z</time>
      </trkpt>
      <trkpt lat="48.82438" lon="8.03245">
        <ele>118.8</ele>
        <time>2020-06-28T08:29:41Z</time>
      </trkpt>
      <trkpt lat="48.82433" lon="8.03241">
        <ele>118.8</ele>
        <time>2020-06-28T08:29:42Z</time>
      </trkpt>
      <trkpt lat="48.82429" lon="8.03236">
        <ele>118.8</ele>
        <time>2020-06-28T08:29:43Z</time>
      </trkpt>
      <trkpt lat="48.82425" lon="8.03231">
        <ele>118.7</ele>
        <time>2020-06-28T08:29:44Z</time>
      </trkpt>
      <trkpt lat="48.82421" lon="8.03226">
        <ele>118.7</ele>
        <time>2020-06-28T08:29:45Z</time>
      </trkpt>
      <trkpt lat="48.82417" lon="8.0322">
        <ele>118.7</ele>
        <time>2020-06-28T08:29:46Z</time>
      </trkpt>
      <trkpt lat="48.82413" lon="8.03214">
        <ele>118.7</ele>
        <time>2020-06-28T08:29:47Z</time>
      </trkpt>
      <trkpt lat="48.82408" lon="8.03208">
        <ele>118.6</ele>
        <time>2020-06-28T08:29:48Z</time>
      </trkpt>
      <trkpt lat="48.82404" lon="8.03202">
        <ele>118.6</ele>
        <time>2020-06-28T08:29:49Z</time>
      </trkpt>
      <trkpt lat="48.82399" lon="8.03196">
        <ele>118.6</ele>
        <time>2020-06-28T08:29:50Z</time>
      </trkpt>
      <trkpt lat="48.82397" lon="8.0319">
        <ele>118.6</ele>
        <time>2020-06-28T08:29:51Z</time>
      </trkpt>
      <trkpt lat="48.82392" lon="8.03184">
        <ele>118.5</ele>
        <time>2020-06-28T08:29:52Z</time>
      </trkpt>
      <trkpt lat="48.82387" lon="8.03175">
        <ele>118.5</ele>
        <time>2020-06-28T08:29:53Z</time>
      </trkpt>
      <trkpt lat="48.82382" lon="8.03169">
        <ele>118.5</ele>
        <time>2020-06-28T08:29:54Z</time>
      </trkpt>
      <trkpt lat="48.82379" lon="8.03164">
        <ele>118.5</ele>
        <time>2020-06-28T08:29:55Z</time>
      </trkpt>
      <trkpt lat="48.82377" lon="8.03159">
        <ele>118.5</ele>
        <time>2020-06-28T08:29:56Z</time>
      </trkpt>
      <trkpt lat="48.82374" lon="8.03154">
        <ele>118.5</ele>
        <time>2020-06-28T08:29:57Z</time>
      </trkpt>
      <trkpt lat="48.82372" lon="8.03147">
        <ele>118.6</ele>
        <time>2020-06-28T08:29:58Z</time>
      </trkpt>
      <trkpt lat="48.82372" lon="8.03143">
        <ele>118.6</ele>
        <time>2020-06-28T08:29:59Z</time>
      </trkpt>
      <trkpt lat="48.82371" lon="8.03137">
        <ele>118.6</ele>
        <time>2020-06-28T08:30:00Z</time>
      </trkpt>
      <trkpt lat="48.82371" lon="8.03134">
        <ele>118.6</ele>
        <time>2020-06-28T08:30:01Z</time>
      </trkpt>
      <trkpt lat="48.82372" lon="8.03132">
        <ele>118.6</ele>
        <time>2020-06-28T08:30:02Z</time>
      </trkpt>
      <trkpt lat="48.82374" lon="8.03129">
        <ele>118.7</ele>
        <time>2020-06-28T08:30:03Z</time>
      </trkpt>
      <trkpt lat="48.82374" lon="8.03128">
        <ele>118.7</ele>
        <time>2020-06-28T08:30:04Z</time>
      </trkpt>
      <trkpt lat="48.82377" lon="8.03124">
        <ele>118.6</ele>
        <time>2020-06-28T08:30:05Z</time>
      </trkpt>
      <trkpt lat="48.82378" lon="8.03123">
        <ele>118.6</ele>
        <time>2020-06-28T08:30:06Z</time>
      </trkpt>
      <trkpt lat="48.82379" lon="8.03118">
        <ele>118.6</ele>
        <time>2020-06-28T08:30:07Z</time>
      </trkpt>
      <trkpt lat="48.8238" lon="8.03116">
        <ele>118.6</ele>
        <time>2020-06-28T08:30:08Z</time>
      </trkpt>
      <trkpt lat="48.82382" lon="8.03111">
        <ele>118.6</ele>
        <time>2020-06-28T08:30:09Z</time>
      </trkpt>
      <trkpt lat="48.82382" lon="8.03109">
        <ele>118.6</ele>
        <time>2020-06-28T08:30:10Z</time>
      </trkpt>
      <trkpt lat="48.82382" lon="8.03103">
        <ele>118.6</ele>
        <time>2020-06-28T08:30:11Z</time>
      </trkpt>
      <trkpt lat="48.82382" lon="8.031">
        <ele>118.6</ele>
        <time>2020-06-28T08:30:12Z</time>
      </trkpt>
      <trkpt lat="48.82381" lon="8.03096">
        <ele>118.6</ele>
        <time>2020-06-28T08:30:13Z</time>
      </trkpt>
      <trkpt lat="48.82379" lon="8.03091">
        <ele>118.6</ele>
        <time>2020-06-28T08:30:14Z</time>
      </trkpt>
      <trkpt lat="48.82376" lon="8.03087">
        <ele>118.6</ele>
        <time>2020-06-28T08:30:15Z</time>
      </trkpt>
      <trkpt lat="48.82374" lon="8.03084">
        <ele>118.5</ele>
        <time>2020-06-28T08:30:16Z</time>
      </trkpt>
      <trkpt lat="48.82372" lon="8.0308">
        <ele>118.5</ele>
        <time>2020-06-28T08:30:17Z</time>
      </trkpt>
      <trkpt lat="48.82369" lon="8.03076">
        <ele>118.5</ele>
        <time>2020-06-28T08:30:18Z</time>
      </trkpt>
      <trkpt lat="48.82366" lon="8.03072">
        <ele>118.4</ele>
        <time>2020-06-28T08:30:19Z</time>
      </trkpt>
      <trkpt lat="48.82364" lon="8.03069">
        <ele>118.4</ele>
        <time>2020-06-28T08:30:20Z</time>
      </trkpt>
      <trkpt lat="48.82361" lon="8.03065">
        <ele>118.4</ele>
        <time>2020-06-28T08:30:21Z</time>
      </trkpt>
      <trkpt lat="48.8236" lon="8.03064">
        <ele>118.4</ele>
        <time>2020-06-28T08:30:22Z</time>
      </trkpt>
      <trkpt lat="48.82358" lon="8.0306">
        <ele>118.3</ele>
        <time>2020-06-28T08:30:23Z</time>
      </trkpt>
      <trkpt lat="48.82356" lon="8.03056">
        <ele>118.3</ele>
        <time>2020-06-28T08:30:24Z</time>
      </trkpt>
      <trkpt lat="48.82353" lon="8.03052">
        <ele>118.3</ele>
        <time>2020-06-28T08:30:25Z</time>
      </trkpt>
      <trkpt lat="48.82351" lon="8.03049">
        <ele>118.3</ele>
        <time>2020-06-28T08:30:26Z</time>
      </trkpt>
      <trkpt lat="48.82349" lon="8.03044">
        <ele>118.3</ele>
        <time>2020-06-28T08:30:27Z</time>
      </trkpt>
      <trkpt lat="48.82348" lon="8.0304">
        <ele>118.3</ele>
        <time>2020-06-28T08:30:28Z</time>
      </trkpt>
      <trkpt lat="48.82346" lon="8.03034">
        <ele>118.2</ele>
        <time>2020-06-28T08:30:29Z</time>
      </trkpt>
      <trkpt lat="48.82344" lon="8.03028">
        <ele>118.2</ele>
        <time>2020-06-28T08:30:30Z</time>
      </trkpt>
      <trkpt lat="48.82342" lon="8.03023">
        <ele>118.2</ele>
        <time>2020-06-28T08:30:31Z</time>
      </trkpt>
      <trkpt lat="48.82341" lon="8.03018">
        <ele>118.2</ele>
        <time>2020-06-28T08:30:32Z</time>
      </trkpt>
      <trkpt lat="48.82339" lon="8.03013">
        <ele>118.2</ele>
        <time>2020-06-28T08:30:33Z</time>
      </trkpt>
      <trkpt lat="48.82339" lon="8.03008">
        <ele>118.2</ele>
        <time>2020-06-28T08:30:34Z</time>
      </trkpt>
      <trkpt lat="48.82337" lon="8.03003">
        <ele>118.2</ele>
        <time>2020-06-28T08:30:35Z</time>
      </trkpt>
      <trkpt lat="48.82335" lon="8.02997">
        <ele>118.2</ele>
        <time>2020-06-28T08:30:36Z</time>
      </trkpt>
      <trkpt lat="48.82334" lon="8.02989">
        <ele>118.2</ele>
        <time>2020-06-28T08:30:37Z</time>
      </trkpt>
      <trkpt lat="48.82332" lon="8.02982">
        <ele>118.2</ele>
        <time>2020-06-28T08:30:38Z</time>
      </trkpt>
      <trkpt lat="48.8233" lon="8.02975">
        <ele>118.1</ele>
        <time>2020-06-28T08:30:39Z</time>
      </trkpt>
      <trkpt lat="48.82328" lon="8.02968">
        <ele>118.1</ele>
        <time>2020-06-28T08:30:40Z</time>
      </trkpt>
      <trkpt lat="48.82327" lon="8.02962">
        <ele>118.1</ele>
        <time>2020-06-28T08:30:41Z</time>
      </trkpt>
      <trkpt lat="48.82325" lon="8.02954">
        <ele>118.1</ele>
        <time>2020-06-28T08:30:42Z</time>
      </trkpt>
      <trkpt lat="48.82324" lon="8.02947">
        <ele>118.1</ele>
        <time>2020-06-28T08:30:43Z</time>
      </trkpt>
      <trkpt lat="48.82323" lon="8.0294">
        <ele>118.1</ele>
        <time>2020-06-28T08:30:44Z</time>
      </trkpt>
      <trkpt lat="48.82321" lon="8.02932">
        <ele>118.1</ele>
        <time>2020-06-28T08:30:45Z</time>
      </trkpt>
      <trkpt lat="48.82318" lon="8.02925">
        <ele>118.1</ele>
        <time>2020-06-28T08:30:46Z</time>
      </trkpt>
      <trkpt lat="48.82315" lon="8.02919">
        <ele>118.1</ele>
        <time>2020-06-28T08:30:47Z</time>
      </trkpt>
      <trkpt lat="48.82314" lon="8.02913">
        <ele>118.1</ele>
        <time>2020-06-28T08:30:48Z</time>
      </trkpt>
      <trkpt lat="48.82311" lon="8.02906">
        <ele>118.1</ele>
        <time>2020-06-28T08:30:49Z</time>
      </trkpt>
      <trkpt lat="48.82308" lon="8.029">
        <ele>118.1</ele>
        <time>2020-06-28T08:30:50Z</time>
      </trkpt>
      <trkpt lat="48.82307" lon="8.02894">
        <ele>118.2</ele>
        <time>2020-06-28T08:30:51Z</time>
      </trkpt>
      <trkpt lat="48.82305" lon="8.02887">
        <ele>118.2</ele>
        <time>2020-06-28T08:30:52Z</time>
      </trkpt>
      <trkpt lat="48.82303" lon="8.02881">
        <ele>118.2</ele>
        <time>2020-06-28T08:30:53Z</time>
      </trkpt>
      <trkpt lat="48.82301" lon="8.02874">
        <ele>118.2</ele>
        <time>2020-06-28T08:30:54Z</time>
      </trkpt>
      <trkpt lat="48.82299" lon="8.02868">
        <ele>118.2</ele>
        <time>2020-06-28T08:30:55Z</time>
      </trkpt>
      <trkpt lat="48.82297" lon="8.02861">
        <ele>118.3</ele>
        <time>2020-06-28T08:30:56Z</time>
      </trkpt>
      <trkpt lat="48.82295" lon="8.02855">
        <ele>118.3</ele>
        <time>2020-06-28T08:30:57Z</time>
      </trkpt>
      <trkpt lat="48.82292" lon="8.0285">
        <ele>118.3</ele>
        <time>2020-06-28T08:30:58Z</time>
      </trkpt>
      <trkpt lat="48.8229" lon="8.02843">
        <ele>118.3</ele>
        <time>2020-06-28T08:30:59Z</time>
      </trkpt>
      <trkpt lat="48.82288" lon="8.02836">
        <ele>118.3</ele>
        <time>2020-06-28T08:31:00Z</time>
      </trkpt>
      <trkpt lat="48.82286" lon="8.02829">
        <ele>118.3</ele>
        <time>2020-06-28T08:31:01Z</time>
      </trkpt>
      <trkpt lat="48.82284" lon="8.02822">
        <ele>118.3</ele>
        <time>2020-06-28T08:31:02Z</time>
      </trkpt>
      <trkpt lat="48.82281" lon="8.02815">
        <ele>118.3</ele>
        <time>2020-06-28T08:31:03Z</time>
      </trkpt>
      <trkpt lat="48.82278" lon="8.02808">
        <ele>118.3</ele>
        <time>2020-06-28T08:31:04Z</time>
      </trkpt>
      <trkpt lat="48.82275" lon="8.02801">
        <ele>118.3</ele>
        <time>2020-06-28T08:31:05Z</time>
      </trkpt>
      <trkpt lat="48.82271" lon="8.02795">
        <ele>118.2</ele>
        <time>2020-06-28T08:31:06Z</time>
      </trkpt>
      <trkpt lat="48.82268" lon="8.02788">
        <ele>118.2</ele>
        <time>2020-06-28T08:31:07Z</time>
      </trkpt>
      <trkpt lat="48.82265" lon="8.02781">
        <ele>118.2</ele>
        <time>2020-06-28T08:31:08Z</time>
      </trkpt>
      <trkpt lat="48.82262" lon="8.02774">
        <ele>118.2</ele>
        <time>2020-06-28T08:31:09Z</time>
      </trkpt>
      <trkpt lat="48.8226" lon="8.02767">
        <ele>118.2</ele>
        <time>2020-06-28T08:31:10Z</time>
      </trkpt>
      <trkpt lat="48.82257" lon="8.0276">
        <ele>118.2</ele>
        <time>2020-06-28T08:31:11Z</time>
      </trkpt>
      <trkpt lat="48.82255" lon="8.02752">
        <ele>118.2</ele>
        <time>2020-06-28T08:31:12Z</time>
      </trkpt>
      <trkpt lat="48.82252" lon="8.02745">
        <ele>118.2</ele>
        <time>2020-06-28T08:31:13Z</time>
      </trkpt>
      <trkpt lat="48.82249" lon="8.02738">
        <ele>118.3</ele>
        <time>2020-06-28T08:31:14Z</time>
      </trkpt>
      <trkpt lat="48.82246" lon="8.02731">
        <ele>118.3</ele>
        <time>2020-06-28T08:31:15Z</time>
      </trkpt>
      <trkpt lat="48.82243" lon="8.02724">
        <ele>118.3</ele>
        <time>2020-06-28T08:31:16Z</time>
      </trkpt>
      <trkpt lat="48.8224" lon="8.02716">
        <ele>118.3</ele>
        <time>2020-06-28T08:31:17Z</time>
      </trkpt>
      <trkpt lat="48.82238" lon="8.02709">
        <ele>118.3</ele>
        <time>2020-06-28T08:31:18Z</time>
      </trkpt>
      <trkpt lat="48.82235" lon="8.02702">
        <ele>118.3</ele>
        <time>2020-06-28T08:31:19Z</time>
      </trkpt>
      <trkpt lat="48.82232" lon="8.02695">
        <ele>118.4</ele>
        <time>2020-06-28T08:31:20Z</time>
      </trkpt>
      <trkpt lat="48.82229" lon="8.02688">
        <ele>118.4</ele>
        <time>2020-06-28T08:31:21Z</time>
      </trkpt>
      <trkpt lat="48.82226" lon="8.0268">
        <ele>118.4</ele>
        <time>2020-06-28T08:31:22Z</time>
      </trkpt>
      <trkpt lat="48.82223" lon="8.02673">
        <ele>118.4</ele>
        <time>2020-06-28T08:31:23Z</time>
      </trkpt>
      <trkpt lat="48.8222" lon="8.02666">
        <ele>118.4</ele>
        <time>2020-06-28T08:31:24Z</time>
      </trkpt>
      <trkpt lat="48.82216" lon="8.02659">
        <ele>118.4</ele>
        <time>2020-06-28T08:31:25Z</time>
      </trkpt>
      <trkpt lat="48.82213" lon="8.02652">
        <ele>118.4</ele>
        <time>2020-06-28T08:31:26Z</time>
      </trkpt>
      <trkpt lat="48.8221" lon="8.02644">
        <ele>118.4</ele>
        <time>2020-06-28T08:31:27Z</time>
      </trkpt>
      <trkpt lat="48.82207" lon="8.02636">
        <ele>118.4</ele>
        <time>2020-06-28T08:31:28Z</time>
      </trkpt>
      <trkpt lat="48.82204" lon="8.02629">
        <ele>118.3</ele>
        <time>2020-06-28T08:31:29Z</time>
      </trkpt>
      <trkpt lat="48.82202" lon="8.0262">
        <ele>118.3</ele>
        <time>2020-06-28T08:31:30Z</time>
      </trkpt>
      <trkpt lat="48.82199" lon="8.02613">
        <ele>118.3</ele>
        <time>2020-06-28T08:31:31Z</time>
      </trkpt>
      <trkpt lat="48.82195" lon="8.02605">
        <ele>118.3</ele>
        <time>2020-06-28T08:31:32Z</time>
      </trkpt>
      <trkpt lat="48.82192" lon="8.02598">
        <ele>118.3</ele>
        <time>2020-06-28T08:31:33Z</time>
      </trkpt>
      <trkpt lat="48.82189" lon="8.02593">
        <ele>118.4</ele>
        <time>2020-06-28T08:31:34Z</time>
      </trkpt>
      <trkpt lat="48.82186" lon="8.02586">
        <ele>118.4</ele>
        <time>2020-06-28T08:31:35Z</time>
      </trkpt>
      <trkpt lat="48.82184" lon="8.0258">
        <ele>118.4</ele>
        <time>2020-06-28T08:31:36Z</time>
      </trkpt>
      <trkpt lat="48.82181" lon="8.02574">
        <ele>118.4</ele>
        <time>2020-06-28T08:31:37Z</time>
      </trkpt>
      <trkpt lat="48.82179" lon="8.02568">
        <ele>118.4</ele>
        <time>2020-06-28T08:31:38Z</time>
      </trkpt>
      <trkpt lat="48.82177" lon="8.0256">
        <ele>118.4</ele>
        <time>2020-06-28T08:31:39Z</time>
      </trkpt>
      <trkpt lat="48.82174" lon="8.02552">
        <ele>118.4</ele>
        <time>2020-06-28T08:31:40Z</time>
      </trkpt>
      <trkpt lat="48.82171" lon="8.02545">
        <ele>118.4</ele>
        <time>2020-06-28T08:31:41Z</time>
      </trkpt>
      <trkpt lat="48.82169" lon="8.02537">
        <ele>118.4</ele>
        <time>2020-06-28T08:31:42Z</time>
      </trkpt>
      <trkpt lat="48.82166" lon="8.0253">
        <ele>118.4</ele>
        <time>2020-06-28T08:31:43Z</time>
      </trkpt>
      <trkpt lat="48.82164" lon="8.02522">
        <ele>118.4</ele>
        <time>2020-06-28T08:31:44Z</time>
      </trkpt>
      <trkpt lat="48.82162" lon="8.02516">
        <ele>118.5</ele>
        <time>2020-06-28T08:31:45Z</time>
      </trkpt>
      <trkpt lat="48.8216" lon="8.02509">
        <ele>118.5</ele>
        <time>2020-06-28T08:31:46Z</time>
      </trkpt>
      <trkpt lat="48.82158" lon="8.02503">
        <ele>118.5</ele>
        <time>2020-06-28T08:31:47Z</time>
      </trkpt>
      <trkpt lat="48.82155" lon="8.02496">
        <ele>118.5</ele>
        <time>2020-06-28T08:31:48Z</time>
      </trkpt>
      <trkpt lat="48.82153" lon="8.02489">
        <ele>118.5</ele>
        <time>2020-06-28T08:31:49Z</time>
      </trkpt>
      <trkpt lat="48.8215" lon="8.0248">
        <ele>118.5</ele>
        <time>2020-06-28T08:31:50Z</time>
      </trkpt>
      <trkpt lat="48.82147" lon="8.02473">
        <ele>118.6</ele>
        <time>2020-06-28T08:31:51Z</time>
      </trkpt>
      <trkpt lat="48.82144" lon="8.02465">
        <ele>118.6</ele>
        <time>2020-06-28T08:31:52Z</time>
      </trkpt>
      <trkpt lat="48.8214" lon="8.02458">
        <ele>118.6</ele>
        <time>2020-06-28T08:31:53Z</time>
      </trkpt>
      <trkpt lat="48.82136" lon="8.0245">
        <ele>118.6</ele>
        <time>2020-06-28T08:31:54Z</time>
      </trkpt>
      <trkpt lat="48.82133" lon="8.02441">
        <ele>118.6</ele>
        <time>2020-06-28T08:31:55Z</time>
      </trkpt>
      <trkpt lat="48.82129" lon="8.02435">
        <ele>118.5</ele>
        <time>2020-06-28T08:31:56Z</time>
      </trkpt>
      <trkpt lat="48.82125" lon="8.02427">
        <ele>118.5</ele>
        <time>2020-06-28T08:31:57Z</time>
      </trkpt>
      <trkpt lat="48.82122" lon="8.0242">
        <ele>118.5</ele>
        <time>2020-06-28T08:31:58Z</time>
      </trkpt>
      <trkpt lat="48.82118" lon="8.02413">
        <ele>118.5</ele>
        <time>2020-06-28T08:31:59Z</time>
      </trkpt>
      <trkpt lat="48.82114" lon="8.02406">
        <ele>118.5</ele>
        <time>2020-06-28T08:32:00Z</time>
      </trkpt>
      <trkpt lat="48.82109" lon="8.02398">
        <ele>118.5</ele>
        <time>2020-06-28T08:32:01Z</time>
      </trkpt>
      <trkpt lat="48.82105" lon="8.02391">
        <ele>118.5</ele>
        <time>2020-06-28T08:32:02Z</time>
      </trkpt>
      <trkpt lat="48.82101" lon="8.02385">
        <ele>118.5</ele>
        <time>2020-06-28T08:32:03Z</time>
      </trkpt>
      <trkpt lat="48.82098" lon="8.02379">
        <ele>118.5</ele>
        <time>2020-06-28T08:32:04Z</time>
      </trkpt>
      <trkpt lat="48.82094" lon="8.02372">
        <ele>118.5</ele>
        <time>2020-06-28T08:32:05Z</time>
      </trkpt>
      <trkpt lat="48.8209" lon="8.02364">
        <ele>118.5</ele>
        <time>2020-06-28T08:32:06Z</time>
      </trkpt>
      <trkpt lat="48.82086" lon="8.02356">
        <ele>118.5</ele>
        <time>2020-06-28T08:32:07Z</time>
      </trkpt>
      <trkpt lat="48.82082" lon="8.0235">
        <ele>118.5</ele>
        <time>2020-06-28T08:32:08Z</time>
      </trkpt>
      <trkpt lat="48.82078" lon="8.02344">
        <ele>118.6</ele>
        <time>2020-06-28T08:32:09Z</time>
      </trkpt>
      <trkpt lat="48.82074" lon="8.02338">
        <ele>118.6</ele>
        <time>2020-06-28T08:32:10Z</time>
      </trkpt>
      <trkpt lat="48.8207" lon="8.02332">
        <ele>118.6</ele>
        <time>2020-06-28T08:32:11Z</time>
      </trkpt>
      <trkpt lat="48.82067" lon="8.02326">
        <ele>118.7</ele>
        <time>2020-06-28T08:32:12Z</time>
      </trkpt>
      <trkpt lat="48.82064" lon="8.02319">
        <ele>118.7</ele>
        <time>2020-06-28T08:32:13Z</time>
      </trkpt>
      <trkpt lat="48.82061" lon="8.02312">
        <ele>118.8</ele>
        <time>2020-06-28T08:32:14Z</time>
      </trkpt>
      <trkpt lat="48.82057" lon="8.02305">
        <ele>118.8</ele>
        <time>2020-06-28T08:32:15Z</time>
      </trkpt>
      <trkpt lat="48.82055" lon="8.02299">
        <ele>118.8</ele>
        <time>2020-06-28T08:32:16Z</time>
      </trkpt>
      <trkpt lat="48.82052" lon="8.02293">
        <ele>118.9</ele>
        <time>2020-06-28T08:32:17Z</time>
      </trkpt>
      <trkpt lat="48.82048" lon="8.02285">
        <ele>118.9</ele>
        <time>2020-06-28T08:32:18Z</time>
      </trkpt>
      <trkpt lat="48.82044" lon="8.02278">
        <ele>118.9</ele>
        <time>2020-06-28T08:32:19Z</time>
      </trkpt>
      <trkpt lat="48.82039" lon="8.0227">
        <ele>119</ele>
        <time>2020-06-28T08:32:20Z</time>
      </trkpt>
      <trkpt lat="48.82036" lon="8.02264">
        <ele>119</ele>
        <time>2020-06-28T08:32:21Z</time>
      </trkpt>
      <trkpt lat="48.82032" lon="8.02257">
        <ele>119</ele>
        <time>2020-06-28T08:32:22Z</time>
      </trkpt>
      <trkpt lat="48.8203" lon="8.02251">
        <ele>119</ele>
        <time>2020-06-28T08:32:23Z</time>
      </trkpt>
      <trkpt lat="48.82027" lon="8.02246">
        <ele>119.1</ele>
        <time>2020-06-28T08:32:24Z</time>
      </trkpt>
      <trkpt lat="48.82024" lon="8.02239">
        <ele>119.1</ele>
        <time>2020-06-28T08:32:25Z</time>
      </trkpt>
      <trkpt lat="48.8202" lon="8.02233">
        <ele>119.1</ele>
        <time>2020-06-28T08:32:26Z</time>
      </trkpt>
      <trkpt lat="48.82017" lon="8.02226">
        <ele>119.2</ele>
        <time>2020-06-28T08:32:27Z</time>
      </trkpt>
      <trkpt lat="48.82014" lon="8.02221">
        <ele>119.2</ele>
        <time>2020-06-28T08:32:28Z</time>
      </trkpt>
      <trkpt lat="48.82012" lon="8.02215">
        <ele>119.2</ele>
        <time>2020-06-28T08:32:29Z</time>
      </trkpt>
      <trkpt lat="48.82009" lon="8.02207">
        <ele>119.1</ele>
        <time>2020-06-28T08:32:30Z</time>
      </trkpt>
      <trkpt lat="48.82005" lon="8.02199">
        <ele>119.1</ele>
        <time>2020-06-28T08:32:31Z</time>
      </trkpt>
      <trkpt lat="48.82002" lon="8.02193">
        <ele>119.1</ele>
        <time>2020-06-28T08:32:32Z</time>
      </trkpt>
      <trkpt lat="48.81998" lon="8.02186">
        <ele>119.1</ele>
        <time>2020-06-28T08:32:33Z</time>
      </trkpt>
      <trkpt lat="48.81994" lon="8.02179">
        <ele>119.1</ele>
        <time>2020-06-28T08:32:34Z</time>
      </trkpt>
      <trkpt lat="48.8199" lon="8.02173">
        <ele>119.2</ele>
        <time>2020-06-28T08:32:35Z</time>
      </trkpt>
      <trkpt lat="48.81986" lon="8.02168">
        <ele>119.2</ele>
        <time>2020-06-28T08:32:36Z</time>
      </trkpt>
      <trkpt lat="48.81983" lon="8.02162">
        <ele>119.2</ele>
        <time>2020-06-28T08:32:37Z</time>
      </trkpt>
      <trkpt lat="48.8198" lon="8.02157">
        <ele>119.1</ele>
        <time>2020-06-28T08:32:38Z</time>
      </trkpt>
      <trkpt lat="48.81977" lon="8.0215">
        <ele>119.1</ele>
        <time>2020-06-28T08:32:39Z</time>
      </trkpt>
      <trkpt lat="48.81973" lon="8.02142">
        <ele>119.1</ele>
        <time>2020-06-28T08:32:40Z</time>
      </trkpt>
      <trkpt lat="48.8197" lon="8.02136">
        <ele>119.1</ele>
        <time>2020-06-28T08:32:41Z</time>
      </trkpt>
      <trkpt lat="48.81967" lon="8.0213">
        <ele>119.1</ele>
        <time>2020-06-28T08:32:42Z</time>
      </trkpt>
      <trkpt lat="48.81963" lon="8.02123">
        <ele>119.1</ele>
        <time>2020-06-28T08:32:43Z</time>
      </trkpt>
      <trkpt lat="48.8196" lon="8.02116">
        <ele>119</ele>
        <time>2020-06-28T08:32:44Z</time>
      </trkpt>
      <trkpt lat="48.81956" lon="8.0211">
        <ele>119</ele>
        <time>2020-06-28T08:32:45Z</time>
      </trkpt>
      <trkpt lat="48.81954" lon="8.02104">
        <ele>119</ele>
        <time>2020-06-28T08:32:46Z</time>
      </trkpt>
      <trkpt lat="48.8195" lon="8.02097">
        <ele>119</ele>
        <time>2020-06-28T08:32:47Z</time>
      </trkpt>
      <trkpt lat="48.81947" lon="8.0209">
        <ele>119</ele>
        <time>2020-06-28T08:32:48Z</time>
      </trkpt>
      <trkpt lat="48.81943" lon="8.02083">
        <ele>118.9</ele>
        <time>2020-06-28T08:32:49Z</time>
      </trkpt>
      <trkpt lat="48.81939" lon="8.02076">
        <ele>118.9</ele>
        <time>2020-06-28T08:32:50Z</time>
      </trkpt>
      <trkpt lat="48.81936" lon="8.02071">
        <ele>118.9</ele>
        <time>2020-06-28T08:32:51Z</time>
      </trkpt>
      <trkpt lat="48.81932" lon="8.02064">
        <ele>118.9</ele>
        <time>2020-06-28T08:32:52Z</time>
      </trkpt>
      <trkpt lat="48.81929" lon="8.02058">
        <ele>118.9</ele>
        <time>2020-06-28T08:32:53Z</time>
      </trkpt>
      <trkpt lat="48.81926" lon="8.02054">
        <ele>118.9</ele>
        <time>2020-06-28T08:32:54Z</time>
      </trkpt>
      <trkpt lat="48.81924" lon="8.02049">
        <ele>118.9</ele>
        <time>2020-06-28T08:32:55Z</time>
      </trkpt>
      <trkpt lat="48.81922" lon="8.02044">
        <ele>118.9</ele>
        <time>2020-06-28T08:32:56Z</time>
      </trkpt>
      <trkpt lat="48.81918" lon="8.02037">
        <ele>119</ele>
        <time>2020-06-28T08:32:57Z</time>
      </trkpt>
      <trkpt lat="48.81914" lon="8.0203">
        <ele>119</ele>
        <time>2020-06-28T08:32:58Z</time>
      </trkpt>
      <trkpt lat="48.8191" lon="8.02025">
        <ele>119</ele>
        <time>2020-06-28T08:32:59Z</time>
      </trkpt>
      <trkpt lat="48.81907" lon="8.0202">
        <ele>119</ele>
        <time>2020-06-28T08:33:00Z</time>
      </trkpt>
      <trkpt lat="48.81905" lon="8.02015">
        <ele>119</ele>
        <time>2020-06-28T08:33:01Z</time>
      </trkpt>
      <trkpt lat="48.81904" lon="8.02009">
        <ele>119</ele>
        <time>2020-06-28T08:33:02Z</time>
      </trkpt>
      <trkpt lat="48.81904" lon="8.02004">
        <ele>119</ele>
        <time>2020-06-28T08:33:03Z</time>
      </trkpt>
      <trkpt lat="48.81903" lon="8.01997">
        <ele>119</ele>
        <time>2020-06-28T08:33:04Z</time>
      </trkpt>
      <trkpt lat="48.81903" lon="8.0199">
        <ele>119</ele>
        <time>2020-06-28T08:33:05Z</time>
      </trkpt>
      <trkpt lat="48.81902" lon="8.01984">
        <ele>119</ele>
        <time>2020-06-28T08:33:06Z</time>
      </trkpt>
      <trkpt lat="48.81902" lon="8.01979">
        <ele>119</ele>
        <time>2020-06-28T08:33:07Z</time>
      </trkpt>
      <trkpt lat="48.81899" lon="8.01974">
        <ele>119.1</ele>
        <time>2020-06-28T08:33:08Z</time>
      </trkpt>
      <trkpt lat="48.81898" lon="8.01973">
        <ele>119.1</ele>
        <time>2020-06-28T08:33:09Z</time>
      </trkpt>
      <trkpt lat="48.81895" lon="8.0197">
        <ele>119.1</ele>
        <time>2020-06-28T08:33:10Z</time>
      </trkpt>
      <trkpt lat="48.81892" lon="8.01968">
        <ele>119.1</ele>
        <time>2020-06-28T08:33:11Z</time>
      </trkpt>
      <trkpt lat="48.81889" lon="8.01964">
        <ele>119.1</ele>
        <time>2020-06-28T08:33:12Z</time>
      </trkpt>
      <trkpt lat="48.81888" lon="8.01962">
        <ele>119.1</ele>
        <time>2020-06-28T08:33:13Z</time>
      </trkpt>
      <trkpt lat="48.81885" lon="8.01957">
        <ele>119</ele>
        <time>2020-06-28T08:33:14Z</time>
      </trkpt>
      <trkpt lat="48.81882" lon="8.01953">
        <ele>119</ele>
        <time>2020-06-28T08:33:15Z</time>
      </trkpt>
      <trkpt lat="48.81879" lon="8.01953">
        <ele>118.9</ele>
        <time>2020-06-28T08:33:16Z</time>
      </trkpt>
      <trkpt lat="48.81874" lon="8.01953">
        <ele>118.9</ele>
        <time>2020-06-28T08:33:17Z</time>
      </trkpt>
      <trkpt lat="48.8187" lon="8.01951">
        <ele>118.8</ele>
        <time>2020-06-28T08:33:18Z</time>
      </trkpt>
      <trkpt lat="48.81866" lon="8.01946">
        <ele>118.7</ele>
        <time>2020-06-28T08:33:19Z</time>
      </trkpt>
      <trkpt lat="48.81862" lon="8.0194">
        <ele>118.6</ele>
        <time>2020-06-28T08:33:20Z</time>
      </trkpt>
      <trkpt lat="48.81858" lon="8.01936">
        <ele>118.5</ele>
        <time>2020-06-28T08:33:21Z</time>
      </trkpt>
      <trkpt lat="48.81855" lon="8.01929">
        <ele>118.5</ele>
        <time>2020-06-28T08:33:22Z</time>
      </trkpt>
      <trkpt lat="48.81852" lon="8.01923">
        <ele>118.4</ele>
        <time>2020-06-28T08:33:23Z</time>
      </trkpt>
      <trkpt lat="48.81849" lon="8.01917">
        <ele>118.3</ele>
        <time>2020-06-28T08:33:24Z</time>
      </trkpt>
      <trkpt lat="48.81845" lon="8.01911">
        <ele>118.3</ele>
        <time>2020-06-28T08:33:25Z</time>
      </trkpt>
      <trkpt lat="48.81842" lon="8.01905">
        <ele>118.3</ele>
        <time>2020-06-28T08:33:26Z</time>
      </trkpt>
      <trkpt lat="48.81838" lon="8.01898">
        <ele>118.3</ele>
        <time>2020-06-28T08:33:27Z</time>
      </trkpt>
      <trkpt lat="48.81834" lon="8.01891">
        <ele>118.3</ele>
        <time>2020-06-28T08:33:28Z</time>
      </trkpt>
      <trkpt lat="48.8183" lon="8.01885">
        <ele>118.3</ele>
        <time>2020-06-28T08:33:29Z</time>
      </trkpt>
      <trkpt lat="48.81827" lon="8.01878">
        <ele>118.3</ele>
        <time>2020-06-28T08:33:30Z</time>
      </trkpt>
      <trkpt lat="48.81823" lon="8.0187">
        <ele>118.3</ele>
        <time>2020-06-28T08:33:31Z</time>
      </trkpt>
      <trkpt lat="48.8182" lon="8.01864">
        <ele>118.3</ele>
        <time>2020-06-28T08:33:32Z</time>
      </trkpt>
      <trkpt lat="48.81818" lon="8.01857">
        <ele>118.2</ele>
        <time>2020-06-28T08:33:33Z</time>
      </trkpt>
      <trkpt lat="48.81815" lon="8.01851">
        <ele>118.2</ele>
        <time>2020-06-28T08:33:34Z</time>
      </trkpt>
      <trkpt lat="48.81811" lon="8.01845">
        <ele>118.2</ele>
        <time>2020-06-28T08:33:35Z</time>
      </trkpt>
      <trkpt lat="48.81808" lon="8.01839">
        <ele>118.1</ele>
        <time>2020-06-28T08:33:36Z</time>
      </trkpt>
      <trkpt lat="48.81805" lon="8.01834">
        <ele>118.1</ele>
        <time>2020-06-28T08:33:37Z</time>
      </trkpt>
      <trkpt lat="48.81803" lon="8.01829">
        <ele>118.1</ele>
        <time>2020-06-28T08:33:38Z</time>
      </trkpt>
      <trkpt lat="48.818" lon="8.01824">
        <ele>118.1</ele>
        <time>2020-06-28T08:33:39Z</time>
      </trkpt>
      <trkpt lat="48.81797" lon="8.01818">
        <ele>118.1</ele>
        <time>2020-06-28T08:33:40Z</time>
      </trkpt>
      <trkpt lat="48.81794" lon="8.01813">
        <ele>118.1</ele>
        <time>2020-06-28T08:33:41Z</time>
      </trkpt>
      <trkpt lat="48.81791" lon="8.01807">
        <ele>118.1</ele>
        <time>2020-06-28T08:33:42Z</time>
      </trkpt>
      <trkpt lat="48.81787" lon="8.018">
        <ele>118.1</ele>
        <time>2020-06-28T08:33:43Z</time>
      </trkpt>
      <trkpt lat="48.81784" lon="8.01793">
        <ele>118.1</ele>
        <time>2020-06-28T08:33:44Z</time>
      </trkpt>
      <trkpt lat="48.8178" lon="8.01787">
        <ele>118.1</ele>
        <time>2020-06-28T08:33:45Z</time>
      </trkpt>
      <trkpt lat="48.81777" lon="8.01781">
        <ele>118</ele>
        <time>2020-06-28T08:33:46Z</time>
      </trkpt>
      <trkpt lat="48.81774" lon="8.01774">
        <ele>118</ele>
        <time>2020-06-28T08:33:47Z</time>
      </trkpt>
      <trkpt lat="48.8177" lon="8.01767">
        <ele>118</ele>
        <time>2020-06-28T08:33:48Z</time>
      </trkpt>
      <trkpt lat="48.81767" lon="8.0176">
        <ele>118</ele>
        <time>2020-06-28T08:33:49Z</time>
      </trkpt>
      <trkpt lat="48.81764" lon="8.01751">
        <ele>118.1</ele>
        <time>2020-06-28T08:33:50Z</time>
      </trkpt>
      <trkpt lat="48.8176" lon="8.01745">
        <ele>118.1</ele>
        <time>2020-06-28T08:33:51Z</time>
      </trkpt>
      <trkpt lat="48.81756" lon="8.01738">
        <ele>118.1</ele>
        <time>2020-06-28T08:33:52Z</time>
      </trkpt>
      <trkpt lat="48.81752" lon="8.01731">
        <ele>118.1</ele>
        <time>2020-06-28T08:33:53Z</time>
      </trkpt>
      <trkpt lat="48.81751" lon="8.01725">
        <ele>118.1</ele>
        <time>2020-06-28T08:33:54Z</time>
      </trkpt>
      <trkpt lat="48.81747" lon="8.0172">
        <ele>118.1</ele>
        <time>2020-06-28T08:33:55Z</time>
      </trkpt>
      <trkpt lat="48.81743" lon="8.01713">
        <ele>118.1</ele>
        <time>2020-06-28T08:33:56Z</time>
      </trkpt>
      <trkpt lat="48.81739" lon="8.01709">
        <ele>118.1</ele>
        <time>2020-06-28T08:33:57Z</time>
      </trkpt>
      <trkpt lat="48.81736" lon="8.01705">
        <ele>118.1</ele>
        <time>2020-06-28T08:33:58Z</time>
      </trkpt>
      <trkpt lat="48.81732" lon="8.01699">
        <ele>118.1</ele>
        <time>2020-06-28T08:33:59Z</time>
      </trkpt>
      <trkpt lat="48.81728" lon="8.01693">
        <ele>118</ele>
        <time>2020-06-28T08:34:00Z</time>
      </trkpt>
      <trkpt lat="48.81724" lon="8.01686">
        <ele>118</ele>
        <time>2020-06-28T08:34:01Z</time>
      </trkpt>
      <trkpt lat="48.81721" lon="8.01679">
        <ele>118</ele>
        <time>2020-06-28T08:34:02Z</time>
      </trkpt>
      <trkpt lat="48.81717" lon="8.01674">
        <ele>118</ele>
        <time>2020-06-28T08:34:03Z</time>
      </trkpt>
      <trkpt lat="48.81714" lon="8.01668">
        <ele>118</ele>
        <time>2020-06-28T08:34:04Z</time>
      </trkpt>
      <trkpt lat="48.8171" lon="8.01661">
        <ele>118</ele>
        <time>2020-06-28T08:34:05Z</time>
      </trkpt>
      <trkpt lat="48.81706" lon="8.01655">
        <ele>118</ele>
        <time>2020-06-28T08:34:06Z</time>
      </trkpt>
      <trkpt lat="48.81702" lon="8.0165">
        <ele>118</ele>
        <time>2020-06-28T08:34:07Z</time>
      </trkpt>
      <trkpt lat="48.81699" lon="8.01643">
        <ele>118</ele>
        <time>2020-06-28T08:34:08Z</time>
      </trkpt>
      <trkpt lat="48.81695" lon="8.01636">
        <ele>118</ele>
        <time>2020-06-28T08:34:09Z</time>
      </trkpt>
      <trkpt lat="48.81692" lon="8.01629">
        <ele>118</ele>
        <time>2020-06-28T08:34:10Z</time>
      </trkpt>
      <trkpt lat="48.81687" lon="8.01623">
        <ele>117.9</ele>
        <time>2020-06-28T08:34:11Z</time>
      </trkpt>
      <trkpt lat="48.81684" lon="8.01616">
        <ele>117.9</ele>
        <time>2020-06-28T08:34:12Z</time>
      </trkpt>
      <trkpt lat="48.81681" lon="8.0161">
        <ele>117.9</ele>
        <time>2020-06-28T08:34:13Z</time>
      </trkpt>
      <trkpt lat="48.81677" lon="8.01602">
        <ele>117.9</ele>
        <time>2020-06-28T08:34:14Z</time>
      </trkpt>
      <trkpt lat="48.81673" lon="8.01596">
        <ele>118</ele>
        <time>2020-06-28T08:34:15Z</time>
      </trkpt>
      <trkpt lat="48.81669" lon="8.01591">
        <ele>118</ele>
        <time>2020-06-28T08:34:16Z</time>
      </trkpt>
      <trkpt lat="48.81666" lon="8.01584">
        <ele>118</ele>
        <time>2020-06-28T08:34:17Z</time>
      </trkpt>
      <trkpt lat="48.81663" lon="8.01577">
        <ele>118</ele>
        <time>2020-06-28T08:34:18Z</time>
      </trkpt>
      <trkpt lat="48.8166" lon="8.01571">
        <ele>118.1</ele>
        <time>2020-06-28T08:34:19Z</time>
      </trkpt>
      <trkpt lat="48.81656" lon="8.01565">
        <ele>118.1</ele>
        <time>2020-06-28T08:34:20Z</time>
      </trkpt>
      <trkpt lat="48.81653" lon="8.01558">
        <ele>118.2</ele>
        <time>2020-06-28T08:34:21Z</time>
      </trkpt>
      <trkpt lat="48.8165" lon="8.01551">
        <ele>118.2</ele>
        <time>2020-06-28T08:34:22Z</time>
      </trkpt>
      <trkpt lat="48.81646" lon="8.01545">
        <ele>118.2</ele>
        <time>2020-06-28T08:34:23Z</time>
      </trkpt>
      <trkpt lat="48.81644" lon="8.01539">
        <ele>118.2</ele>
        <time>2020-06-28T08:34:24Z</time>
      </trkpt>
      <trkpt lat="48.81639" lon="8.01533">
        <ele>118.2</ele>
        <time>2020-06-28T08:34:25Z</time>
      </trkpt>
      <trkpt lat="48.81636" lon="8.01526">
        <ele>118.2</ele>
        <time>2020-06-28T08:34:26Z</time>
      </trkpt>
      <trkpt lat="48.81633" lon="8.0152">
        <ele>118.2</ele>
        <time>2020-06-28T08:34:27Z</time>
      </trkpt>
      <trkpt lat="48.81628" lon="8.01514">
        <ele>118.2</ele>
        <time>2020-06-28T08:34:28Z</time>
      </trkpt>
      <trkpt lat="48.81625" lon="8.01508">
        <ele>118.2</ele>
        <time>2020-06-28T08:34:29Z</time>
      </trkpt>
      <trkpt lat="48.81623" lon="8.01503">
        <ele>118.2</ele>
        <time>2020-06-28T08:34:30Z</time>
      </trkpt>
      <trkpt lat="48.8162" lon="8.01497">
        <ele>118.2</ele>
        <time>2020-06-28T08:34:31Z</time>
      </trkpt>
      <trkpt lat="48.81618" lon="8.01493">
        <ele>118.2</ele>
        <time>2020-06-28T08:34:32Z</time>
      </trkpt>
      <trkpt lat="48.81615" lon="8.01487">
        <ele>118.2</ele>
        <time>2020-06-28T08:34:33Z</time>
      </trkpt>
      <trkpt lat="48.8161" lon="8.01482">
        <ele>118.1</ele>
        <time>2020-06-28T08:34:34Z</time>
      </trkpt>
      <trkpt lat="48.81608" lon="8.01477">
        <ele>118.1</ele>
        <time>2020-06-28T08:34:35Z</time>
      </trkpt>
      <trkpt lat="48.81603" lon="8.0147">
        <ele>118.1</ele>
        <time>2020-06-28T08:34:36Z</time>
      </trkpt>
      <trkpt lat="48.816" lon="8.01465">
        <ele>118.1</ele>
        <time>2020-06-28T08:34:37Z</time>
      </trkpt>
      <trkpt lat="48.81597" lon="8.01458">
        <ele>118.1</ele>
        <time>2020-06-28T08:34:38Z</time>
      </trkpt>
      <trkpt lat="48.81594" lon="8.01451">
        <ele>118.1</ele>
        <time>2020-06-28T08:34:39Z</time>
      </trkpt>
      <trkpt lat="48.8159" lon="8.01444">
        <ele>118.1</ele>
        <time>2020-06-28T08:34:40Z</time>
      </trkpt>
      <trkpt lat="48.81587" lon="8.01437">
        <ele>118.1</ele>
        <time>2020-06-28T08:34:41Z</time>
      </trkpt>
      <trkpt lat="48.81584" lon="8.01432">
        <ele>118.1</ele>
        <time>2020-06-28T08:34:42Z</time>
      </trkpt>
      <trkpt lat="48.8158" lon="8.01425">
        <ele>118.1</ele>
        <time>2020-06-28T08:34:43Z</time>
      </trkpt>
      <trkpt lat="48.81577" lon="8.01419">
        <ele>118.1</ele>
        <time>2020-06-28T08:34:44Z</time>
      </trkpt>
      <trkpt lat="48.81573" lon="8.01412">
        <ele>118.1</ele>
        <time>2020-06-28T08:34:45Z</time>
      </trkpt>
      <trkpt lat="48.81569" lon="8.01405">
        <ele>118.1</ele>
        <time>2020-06-28T08:34:46Z</time>
      </trkpt>
      <trkpt lat="48.81565" lon="8.01398">
        <ele>118.1</ele>
        <time>2020-06-28T08:34:47Z</time>
      </trkpt>
      <trkpt lat="48.81562" lon="8.01392">
        <ele>118.2</ele>
        <time>2020-06-28T08:34:48Z</time>
      </trkpt>
      <trkpt lat="48.81558" lon="8.01386">
        <ele>118.2</ele>
        <time>2020-06-28T08:34:49Z</time>
      </trkpt>
      <trkpt lat="48.81555" lon="8.01379">
        <ele>118.2</ele>
        <time>2020-06-28T08:34:50Z</time>
      </trkpt>
      <trkpt lat="48.81551" lon="8.01373">
        <ele>118.3</ele>
        <time>2020-06-28T08:34:51Z</time>
      </trkpt>
      <trkpt lat="48.81548" lon="8.01367">
        <ele>118.3</ele>
        <time>2020-06-28T08:34:52Z</time>
      </trkpt>
      <trkpt lat="48.81546" lon="8.01361">
        <ele>118.4</ele>
        <time>2020-06-28T08:34:53Z</time>
      </trkpt>
      <trkpt lat="48.81543" lon="8.01355">
        <ele>118.4</ele>
        <time>2020-06-28T08:34:54Z</time>
      </trkpt>
      <trkpt lat="48.81538" lon="8.0135">
        <ele>118.5</ele>
        <time>2020-06-28T08:34:55Z</time>
      </trkpt>
      <trkpt lat="48.81535" lon="8.01344">
        <ele>118.5</ele>
        <time>2020-06-28T08:34:56Z</time>
      </trkpt>
      <trkpt lat="48.81531" lon="8.01338">
        <ele>118.6</ele>
        <time>2020-06-28T08:34:57Z</time>
      </trkpt>
      <trkpt lat="48.81528" lon="8.01332">
        <ele>118.6</ele>
        <time>2020-06-28T08:34:58Z</time>
      </trkpt>
      <trkpt lat="48.81525" lon="8.01325">
        <ele>118.6</ele>
        <time>2020-06-28T08:34:59Z</time>
      </trkpt>
      <trkpt lat="48.8152" lon="8.01319">
        <ele>118.7</ele>
        <time>2020-06-28T08:35:00Z</time>
      </trkpt>
      <trkpt lat="48.81518" lon="8.01313">
        <ele>118.7</ele>
        <time>2020-06-28T08:35:01Z</time>
      </trkpt>
      <trkpt lat="48.81514" lon="8.01307">
        <ele>118.7</ele>
        <time>2020-06-28T08:35:02Z</time>
      </trkpt>
      <trkpt lat="48.81511" lon="8.01301">
        <ele>118.7</ele>
        <time>2020-06-28T08:35:03Z</time>
      </trkpt>
      <trkpt lat="48.81506" lon="8.01295">
        <ele>118.7</ele>
        <time>2020-06-28T08:35:04Z</time>
      </trkpt>
      <trkpt lat="48.81504" lon="8.0129">
        <ele>118.7</ele>
        <time>2020-06-28T08:35:05Z</time>
      </trkpt>
      <trkpt lat="48.81501" lon="8.01283">
        <ele>118.7</ele>
        <time>2020-06-28T08:35:06Z</time>
      </trkpt>
      <trkpt lat="48.81498" lon="8.01276">
        <ele>118.7</ele>
        <time>2020-06-28T08:35:07Z</time>
      </trkpt>
      <trkpt lat="48.81494" lon="8.01269">
        <ele>118.7</ele>
        <time>2020-06-28T08:35:08Z</time>
      </trkpt>
      <trkpt lat="48.81491" lon="8.01263">
        <ele>118.7</ele>
        <time>2020-06-28T08:35:09Z</time>
      </trkpt>
      <trkpt lat="48.81487" lon="8.01257">
        <ele>118.7</ele>
        <time>2020-06-28T08:35:10Z</time>
      </trkpt>
      <trkpt lat="48.81483" lon="8.0125">
        <ele>118.7</ele>
        <time>2020-06-28T08:35:11Z</time>
      </trkpt>
      <trkpt lat="48.81479" lon="8.01243">
        <ele>118.7</ele>
        <time>2020-06-28T08:35:12Z</time>
      </trkpt>
      <trkpt lat="48.81476" lon="8.01235">
        <ele>118.7</ele>
        <time>2020-06-28T08:35:13Z</time>
      </trkpt>
      <trkpt lat="48.81472" lon="8.01229">
        <ele>118.7</ele>
        <time>2020-06-28T08:35:14Z</time>
      </trkpt>
      <trkpt lat="48.81468" lon="8.01221">
        <ele>118.7</ele>
        <time>2020-06-28T08:35:15Z</time>
      </trkpt>
      <trkpt lat="48.81464" lon="8.01214">
        <ele>118.7</ele>
        <time>2020-06-28T08:35:16Z</time>
      </trkpt>
      <trkpt lat="48.81461" lon="8.01206">
        <ele>118.8</ele>
        <time>2020-06-28T08:35:17Z</time>
      </trkpt>
      <trkpt lat="48.81457" lon="8.01201">
        <ele>118.8</ele>
        <time>2020-06-28T08:35:18Z</time>
      </trkpt>
      <trkpt lat="48.81452" lon="8.01194">
        <ele>118.8</ele>
        <time>2020-06-28T08:35:19Z</time>
      </trkpt>
      <trkpt lat="48.8145" lon="8.01188">
        <ele>118.8</ele>
        <time>2020-06-28T08:35:20Z</time>
      </trkpt>
      <trkpt lat="48.81445" lon="8.01182">
        <ele>118.9</ele>
        <time>2020-06-28T08:35:21Z</time>
      </trkpt>
      <trkpt lat="48.81441" lon="8.01175">
        <ele>118.9</ele>
        <time>2020-06-28T08:35:22Z</time>
      </trkpt>
      <trkpt lat="48.81437" lon="8.01169">
        <ele>118.9</ele>
        <time>2020-06-28T08:35:23Z</time>
      </trkpt>
      <trkpt lat="48.81433" lon="8.01162">
        <ele>119</ele>
        <time>2020-06-28T08:35:24Z</time>
      </trkpt>
      <trkpt lat="48.81431" lon="8.01156">
        <ele>119</ele>
        <time>2020-06-28T08:35:25Z</time>
      </trkpt>
      <trkpt lat="48.81428" lon="8.01149">
        <ele>119</ele>
        <time>2020-06-28T08:35:26Z</time>
      </trkpt>
      <trkpt lat="48.81423" lon="8.01143">
        <ele>119</ele>
        <time>2020-06-28T08:35:27Z</time>
      </trkpt>
      <trkpt lat="48.81419" lon="8.01136">
        <ele>119</ele>
        <time>2020-06-28T08:35:28Z</time>
      </trkpt>
      <trkpt lat="48.81415" lon="8.0113">
        <ele>119</ele>
        <time>2020-06-28T08:35:29Z</time>
      </trkpt>
      <trkpt lat="48.81412" lon="8.01125">
        <ele>119.1</ele>
        <time>2020-06-28T08:35:30Z</time>
      </trkpt>
      <trkpt lat="48.81408" lon="8.0112">
        <ele>119.1</ele>
        <time>2020-06-28T08:35:31Z</time>
      </trkpt>
      <trkpt lat="48.81405" lon="8.01115">
        <ele>119.2</ele>
        <time>2020-06-28T08:35:32Z</time>
      </trkpt>
      <trkpt lat="48.81402" lon="8.01109">
        <ele>119.3</ele>
        <time>2020-06-28T08:35:33Z</time>
      </trkpt>
      <trkpt lat="48.814" lon="8.01104">
        <ele>119.4</ele>
        <time>2020-06-28T08:35:34Z</time>
      </trkpt>
      <trkpt lat="48.81397" lon="8.01097">
        <ele>119.4</ele>
        <time>2020-06-28T08:35:35Z</time>
      </trkpt>
      <trkpt lat="48.81395" lon="8.01092">
        <ele>119.5</ele>
        <time>2020-06-28T08:35:36Z</time>
      </trkpt>
      <trkpt lat="48.81393" lon="8.01088">
        <ele>119.5</ele>
        <time>2020-06-28T08:35:37Z</time>
      </trkpt>
      <trkpt lat="48.81391" lon="8.01084">
        <ele>119.5</ele>
        <time>2020-06-28T08:35:38Z</time>
      </trkpt>
      <trkpt lat="48.81388" lon="8.01083">
        <ele>119.5</ele>
        <time>2020-06-28T08:35:39Z</time>
      </trkpt>
      <trkpt lat="48.81385" lon="8.01082">
        <ele>119.5</ele>
        <time>2020-06-28T08:35:40Z</time>
      </trkpt>
      <trkpt lat="48.81381" lon="8.0108">
        <ele>119.5</ele>
        <time>2020-06-28T08:35:41Z</time>
      </trkpt>
      <trkpt lat="48.81377" lon="8.01077">
        <ele>119.5</ele>
        <time>2020-06-28T08:35:42Z</time>
      </trkpt>
      <trkpt lat="48.81374" lon="8.01074">
        <ele>119.5</ele>
        <time>2020-06-28T08:35:43Z</time>
      </trkpt>
      <trkpt lat="48.8137" lon="8.01068">
        <ele>119.5</ele>
        <time>2020-06-28T08:35:44Z</time>
      </trkpt>
      <trkpt lat="48.81367" lon="8.01062">
        <ele>119.5</ele>
        <time>2020-06-28T08:35:45Z</time>
      </trkpt>
      <trkpt lat="48.81363" lon="8.01056">
        <ele>119.5</ele>
        <time>2020-06-28T08:35:46Z</time>
      </trkpt>
      <trkpt lat="48.81359" lon="8.01049">
        <ele>119.5</ele>
        <time>2020-06-28T08:35:47Z</time>
      </trkpt>
      <trkpt lat="48.81356" lon="8.01043">
        <ele>119.5</ele>
        <time>2020-06-28T08:35:48Z</time>
      </trkpt>
      <trkpt lat="48.81353" lon="8.01037">
        <ele>119.5</ele>
        <time>2020-06-28T08:35:49Z</time>
      </trkpt>
      <trkpt lat="48.8135" lon="8.0103">
        <ele>119.5</ele>
        <time>2020-06-28T08:35:50Z</time>
      </trkpt>
      <trkpt lat="48.81346" lon="8.01025">
        <ele>119.5</ele>
        <time>2020-06-28T08:35:51Z</time>
      </trkpt>
      <trkpt lat="48.81343" lon="8.01018">
        <ele>119.5</ele>
        <time>2020-06-28T08:35:52Z</time>
      </trkpt>
      <trkpt lat="48.81342" lon="8.01012">
        <ele>119.5</ele>
        <time>2020-06-28T08:35:53Z</time>
      </trkpt>
      <trkpt lat="48.81337" lon="8.01007">
        <ele>119.5</ele>
        <time>2020-06-28T08:35:54Z</time>
      </trkpt>
      <trkpt lat="48.81333" lon="8.01001">
        <ele>119.5</ele>
        <time>2020-06-28T08:35:55Z</time>
      </trkpt>
      <trkpt lat="48.81329" lon="8.00994">
        <ele>119.6</ele>
        <time>2020-06-28T08:35:56Z</time>
      </trkpt>
      <trkpt lat="48.81325" lon="8.00988">
        <ele>119.6</ele>
        <time>2020-06-28T08:35:57Z</time>
      </trkpt>
      <trkpt lat="48.81321" lon="8.00983">
        <ele>119.6</ele>
        <time>2020-06-28T08:35:58Z</time>
      </trkpt>
      <trkpt lat="48.81318" lon="8.00978">
        <ele>119.6</ele>
        <time>2020-06-28T08:35:59Z</time>
      </trkpt>
      <trkpt lat="48.81314" lon="8.00972">
        <ele>119.5</ele>
        <time>2020-06-28T08:36:00Z</time>
      </trkpt>
      <trkpt lat="48.81313" lon="8.00965">
        <ele>119.5</ele>
        <time>2020-06-28T08:36:01Z</time>
      </trkpt>
      <trkpt lat="48.8131" lon="8.00958">
        <ele>119.5</ele>
        <time>2020-06-28T08:36:02Z</time>
      </trkpt>
      <trkpt lat="48.81308" lon="8.00951">
        <ele>119.5</ele>
        <time>2020-06-28T08:36:03Z</time>
      </trkpt>
      <trkpt lat="48.81306" lon="8.00944">
        <ele>119.5</ele>
        <time>2020-06-28T08:36:04Z</time>
      </trkpt>
      <trkpt lat="48.81304" lon="8.00937">
        <ele>119.5</ele>
        <time>2020-06-28T08:36:05Z</time>
      </trkpt>
      <trkpt lat="48.81302" lon="8.0093">
        <ele>119.5</ele>
        <time>2020-06-28T08:36:06Z</time>
      </trkpt>
      <trkpt lat="48.813" lon="8.00922">
        <ele>119.5</ele>
        <time>2020-06-28T08:36:07Z</time>
      </trkpt>
      <trkpt lat="48.81298" lon="8.00916">
        <ele>119.5</ele>
        <time>2020-06-28T08:36:08Z</time>
      </trkpt>
      <trkpt lat="48.81296" lon="8.0091">
        <ele>119.5</ele>
        <time>2020-06-28T08:36:09Z</time>
      </trkpt>
      <trkpt lat="48.81294" lon="8.00902">
        <ele>119.5</ele>
        <time>2020-06-28T08:36:10Z</time>
      </trkpt>
      <trkpt lat="48.81291" lon="8.00896">
        <ele>119.5</ele>
        <time>2020-06-28T08:36:11Z</time>
      </trkpt>
      <trkpt lat="48.81289" lon="8.00887">
        <ele>119.5</ele>
        <time>2020-06-28T08:36:12Z</time>
      </trkpt>
      <trkpt lat="48.81286" lon="8.00879">
        <ele>119.5</ele>
        <time>2020-06-28T08:36:13Z</time>
      </trkpt>
      <trkpt lat="48.81283" lon="8.00872">
        <ele>119.5</ele>
        <time>2020-06-28T08:36:14Z</time>
      </trkpt>
      <trkpt lat="48.8128" lon="8.00864">
        <ele>119.5</ele>
        <time>2020-06-28T08:36:15Z</time>
      </trkpt>
      <trkpt lat="48.81275" lon="8.00857">
        <ele>119.5</ele>
        <time>2020-06-28T08:36:16Z</time>
      </trkpt>
      <trkpt lat="48.81272" lon="8.00849">
        <ele>119.5</ele>
        <time>2020-06-28T08:36:17Z</time>
      </trkpt>
      <trkpt lat="48.81269" lon="8.00842">
        <ele>119.6</ele>
        <time>2020-06-28T08:36:18Z</time>
      </trkpt>
      <trkpt lat="48.81267" lon="8.00833">
        <ele>119.5</ele>
        <time>2020-06-28T08:36:19Z</time>
      </trkpt>
      <trkpt lat="48.81264" lon="8.00825">
        <ele>119.5</ele>
        <time>2020-06-28T08:36:20Z</time>
      </trkpt>
      <trkpt lat="48.81262" lon="8.00819">
        <ele>119.4</ele>
        <time>2020-06-28T08:36:21Z</time>
      </trkpt>
      <trkpt lat="48.81259" lon="8.00813">
        <ele>119.4</ele>
        <time>2020-06-28T08:36:22Z</time>
      </trkpt>
      <trkpt lat="48.81257" lon="8.00807">
        <ele>119.4</ele>
        <time>2020-06-28T08:36:23Z</time>
      </trkpt>
      <trkpt lat="48.81256" lon="8.00797">
        <ele>119.4</ele>
        <time>2020-06-28T08:36:24Z</time>
      </trkpt>
      <trkpt lat="48.81254" lon="8.00787">
        <ele>119.3</ele>
        <time>2020-06-28T08:36:25Z</time>
      </trkpt>
      <trkpt lat="48.81251" lon="8.00779">
        <ele>119.3</ele>
        <time>2020-06-28T08:36:26Z</time>
      </trkpt>
      <trkpt lat="48.81249" lon="8.00771">
        <ele>119.3</ele>
        <time>2020-06-28T08:36:27Z</time>
      </trkpt>
      <trkpt lat="48.81246" lon="8.00767">
        <ele>119.3</ele>
        <time>2020-06-28T08:36:28Z</time>
      </trkpt>
      <trkpt lat="48.81242" lon="8.00759">
        <ele>119.2</ele>
        <time>2020-06-28T08:36:29Z</time>
      </trkpt>
      <trkpt lat="48.81238" lon="8.00752">
        <ele>119.2</ele>
        <time>2020-06-28T08:36:30Z</time>
      </trkpt>
      <trkpt lat="48.81234" lon="8.00747">
        <ele>119.2</ele>
        <time>2020-06-28T08:36:31Z</time>
      </trkpt>
      <trkpt lat="48.8123" lon="8.00743">
        <ele>119.1</ele>
        <time>2020-06-28T08:36:32Z</time>
      </trkpt>
      <trkpt lat="48.81226" lon="8.00739">
        <ele>119.1</ele>
        <time>2020-06-28T08:36:33Z</time>
      </trkpt>
      <trkpt lat="48.81221" lon="8.00739">
        <ele>119</ele>
        <time>2020-06-28T08:36:34Z</time>
      </trkpt>
      <trkpt lat="48.81216" lon="8.00739">
        <ele>118.9</ele>
        <time>2020-06-28T08:36:35Z</time>
      </trkpt>
      <trkpt lat="48.8121" lon="8.00736">
        <ele>118.7</ele>
        <time>2020-06-28T08:36:36Z</time>
      </trkpt>
      <trkpt lat="48.81204" lon="8.00734">
        <ele>118.6</ele>
        <time>2020-06-28T08:36:37Z</time>
      </trkpt>
      <trkpt lat="48.81199" lon="8.00731">
        <ele>118.4</ele>
        <time>2020-06-28T08:36:38Z</time>
      </trkpt>
      <trkpt lat="48.81193" lon="8.00727">
        <ele>118.2</ele>
        <time>2020-06-28T08:36:39Z</time>
      </trkpt>
      <trkpt lat="48.81188" lon="8.00727">
        <ele>118.2</ele>
        <time>2020-06-28T08:36:40Z</time>
      </trkpt>
      <trkpt lat="48.81182" lon="8.00722">
        <ele>118.1</ele>
        <time>2020-06-28T08:36:41Z</time>
      </trkpt>
      <trkpt lat="48.81176" lon="8.00719">
        <ele>118.1</ele>
        <time>2020-06-28T08:36:42Z</time>
      </trkpt>
      <trkpt lat="48.8117" lon="8.00716">
        <ele>118</ele>
        <time>2020-06-28T08:36:43Z</time>
      </trkpt>
      <trkpt lat="48.81164" lon="8.00712">
        <ele>118</ele>
        <time>2020-06-28T08:36:44Z</time>
      </trkpt>
      <trkpt lat="48.81158" lon="8.0071">
        <ele>118</ele>
        <time>2020-06-28T08:36:45Z</time>
      </trkpt>
      <trkpt lat="48.81153" lon="8.00705">
        <ele>118.1</ele>
        <time>2020-06-28T08:36:46Z</time>
      </trkpt>
      <trkpt lat="48.81148" lon="8.00702">
        <ele>118.1</ele>
        <time>2020-06-28T08:36:47Z</time>
      </trkpt>
      <trkpt lat="48.81143" lon="8.00699">
        <ele>118.1</ele>
        <time>2020-06-28T08:36:48Z</time>
      </trkpt>
      <trkpt lat="48.81137" lon="8.00695">
        <ele>118.1</ele>
        <time>2020-06-28T08:36:49Z</time>
      </trkpt>
      <trkpt lat="48.81132" lon="8.00691">
        <ele>118.1</ele>
        <time>2020-06-28T08:36:50Z</time>
      </trkpt>
      <trkpt lat="48.81126" lon="8.00687">
        <ele>118.1</ele>
        <time>2020-06-28T08:36:51Z</time>
      </trkpt>
      <trkpt lat="48.81122" lon="8.00682">
        <ele>118.1</ele>
        <time>2020-06-28T08:36:52Z</time>
      </trkpt>
      <trkpt lat="48.81116" lon="8.00677">
        <ele>118.1</ele>
        <time>2020-06-28T08:36:53Z</time>
      </trkpt>
      <trkpt lat="48.81111" lon="8.00673">
        <ele>118.1</ele>
        <time>2020-06-28T08:36:54Z</time>
      </trkpt>
      <trkpt lat="48.81106" lon="8.0067">
        <ele>118.1</ele>
        <time>2020-06-28T08:36:55Z</time>
      </trkpt>
      <trkpt lat="48.81101" lon="8.00664">
        <ele>118.2</ele>
        <time>2020-06-28T08:36:56Z</time>
      </trkpt>
      <trkpt lat="48.81096" lon="8.0066">
        <ele>118.2</ele>
        <time>2020-06-28T08:36:57Z</time>
      </trkpt>
      <trkpt lat="48.81091" lon="8.00655">
        <ele>118.2</ele>
        <time>2020-06-28T08:36:58Z</time>
      </trkpt>
      <trkpt lat="48.81087" lon="8.0065">
        <ele>118.2</ele>
        <time>2020-06-28T08:36:59Z</time>
      </trkpt>
      <trkpt lat="48.81082" lon="8.00644">
        <ele>118.2</ele>
        <time>2020-06-28T08:37:00Z</time>
      </trkpt>
      <trkpt lat="48.81077" lon="8.00638">
        <ele>118.2</ele>
        <time>2020-06-28T08:37:01Z</time>
      </trkpt>
      <trkpt lat="48.81071" lon="8.00634">
        <ele>118.3</ele>
        <time>2020-06-28T08:37:02Z</time>
      </trkpt>
      <trkpt lat="48.81066" lon="8.00631">
        <ele>118.3</ele>
        <time>2020-06-28T08:37:03Z</time>
      </trkpt>
      <trkpt lat="48.81062" lon="8.00625">
        <ele>118.3</ele>
        <time>2020-06-28T08:37:04Z</time>
      </trkpt>
      <trkpt lat="48.81057" lon="8.00622">
        <ele>118.3</ele>
        <time>2020-06-28T08:37:05Z</time>
      </trkpt>
      <trkpt lat="48.81051" lon="8.00617">
        <ele>118.3</ele>
        <time>2020-06-28T08:37:06Z</time>
      </trkpt>
      <trkpt lat="48.81046" lon="8.00612">
        <ele>118.3</ele>
        <time>2020-06-28T08:37:07Z</time>
      </trkpt>
      <trkpt lat="48.81041" lon="8.0061">
        <ele>118.3</ele>
        <time>2020-06-28T08:37:08Z</time>
      </trkpt>
      <trkpt lat="48.81036" lon="8.00605">
        <ele>118.3</ele>
        <time>2020-06-28T08:37:09Z</time>
      </trkpt>
      <trkpt lat="48.81031" lon="8.006">
        <ele>118.4</ele>
        <time>2020-06-28T08:37:10Z</time>
      </trkpt>
      <trkpt lat="48.81026" lon="8.00595">
        <ele>118.4</ele>
        <time>2020-06-28T08:37:11Z</time>
      </trkpt>
      <trkpt lat="48.81021" lon="8.0059">
        <ele>118.4</ele>
        <time>2020-06-28T08:37:12Z</time>
      </trkpt>
      <trkpt lat="48.81016" lon="8.00585">
        <ele>118.5</ele>
        <time>2020-06-28T08:37:13Z</time>
      </trkpt>
      <trkpt lat="48.81011" lon="8.00581">
        <ele>118.5</ele>
        <time>2020-06-28T08:37:14Z</time>
      </trkpt>
      <trkpt lat="48.81007" lon="8.00578">
        <ele>118.5</ele>
        <time>2020-06-28T08:37:15Z</time>
      </trkpt>
      <trkpt lat="48.81002" lon="8.00574">
        <ele>118.5</ele>
        <time>2020-06-28T08:37:16Z</time>
      </trkpt>
      <trkpt lat="48.80998" lon="8.0057">
        <ele>118.5</ele>
        <time>2020-06-28T08:37:17Z</time>
      </trkpt>
      <trkpt lat="48.80993" lon="8.00564">
        <ele>118.5</ele>
        <time>2020-06-28T08:37:18Z</time>
      </trkpt>
      <trkpt lat="48.80989" lon="8.00559">
        <ele>118.5</ele>
        <time>2020-06-28T08:37:19Z</time>
      </trkpt>
      <trkpt lat="48.80985" lon="8.00554">
        <ele>118.6</ele>
        <time>2020-06-28T08:37:20Z</time>
      </trkpt>
      <trkpt lat="48.8098" lon="8.00549">
        <ele>118.6</ele>
        <time>2020-06-28T08:37:21Z</time>
      </trkpt>
      <trkpt lat="48.80976" lon="8.00545">
        <ele>118.6</ele>
        <time>2020-06-28T08:37:22Z</time>
      </trkpt>
      <trkpt lat="48.80972" lon="8.0054">
        <ele>118.6</ele>
        <time>2020-06-28T08:37:23Z</time>
      </trkpt>
      <trkpt lat="48.80968" lon="8.00534">
        <ele>118.6</ele>
        <time>2020-06-28T08:37:24Z</time>
      </trkpt>
      <trkpt lat="48.80964" lon="8.00528">
        <ele>118.5</ele>
        <time>2020-06-28T08:37:25Z</time>
      </trkpt>
      <trkpt lat="48.8096" lon="8.00523">
        <ele>118.5</ele>
        <time>2020-06-28T08:37:26Z</time>
      </trkpt>
      <trkpt lat="48.80956" lon="8.00517">
        <ele>118.4</ele>
        <time>2020-06-28T08:37:27Z</time>
      </trkpt>
      <trkpt lat="48.80952" lon="8.00511">
        <ele>118.4</ele>
        <time>2020-06-28T08:37:28Z</time>
      </trkpt>
      <trkpt lat="48.80948" lon="8.00507">
        <ele>118.4</ele>
        <time>2020-06-28T08:37:29Z</time>
      </trkpt>
      <trkpt lat="48.80944" lon="8.00505">
        <ele>118.4</ele>
        <time>2020-06-28T08:37:30Z</time>
      </trkpt>
      <trkpt lat="48.8094" lon="8.00498">
        <ele>118.5</ele>
        <time>2020-06-28T08:37:31Z</time>
      </trkpt>
      <trkpt lat="48.80936" lon="8.00493">
        <ele>118.5</ele>
        <time>2020-06-28T08:37:32Z</time>
      </trkpt>
      <trkpt lat="48.80932" lon="8.00489">
        <ele>118.5</ele>
        <time>2020-06-28T08:37:33Z</time>
      </trkpt>
      <trkpt lat="48.80928" lon="8.00484">
        <ele>118.6</ele>
        <time>2020-06-28T08:37:34Z</time>
      </trkpt>
      <trkpt lat="48.80924" lon="8.00478">
        <ele>118.6</ele>
        <time>2020-06-28T08:37:35Z</time>
      </trkpt>
      <trkpt lat="48.8092" lon="8.00474">
        <ele>118.7</ele>
        <time>2020-06-28T08:37:36Z</time>
      </trkpt>
      <trkpt lat="48.80915" lon="8.00468">
        <ele>118.7</ele>
        <time>2020-06-28T08:37:37Z</time>
      </trkpt>
      <trkpt lat="48.80911" lon="8.00462">
        <ele>118.7</ele>
        <time>2020-06-28T08:37:38Z</time>
      </trkpt>
      <trkpt lat="48.80907" lon="8.00458">
        <ele>118.7</ele>
        <time>2020-06-28T08:37:39Z</time>
      </trkpt>
      <trkpt lat="48.80902" lon="8.00452">
        <ele>118.6</ele>
        <time>2020-06-28T08:37:40Z</time>
      </trkpt>
      <trkpt lat="48.80897" lon="8.00446">
        <ele>118.6</ele>
        <time>2020-06-28T08:37:41Z</time>
      </trkpt>
      <trkpt lat="48.80892" lon="8.00441">
        <ele>118.7</ele>
        <time>2020-06-28T08:37:42Z</time>
      </trkpt>
      <trkpt lat="48.80887" lon="8.00435">
        <ele>118.7</ele>
        <time>2020-06-28T08:37:43Z</time>
      </trkpt>
      <trkpt lat="48.80883" lon="8.00429">
        <ele>118.8</ele>
        <time>2020-06-28T08:37:44Z</time>
      </trkpt>
      <trkpt lat="48.80879" lon="8.00425">
        <ele>118.8</ele>
        <time>2020-06-28T08:37:45Z</time>
      </trkpt>
      <trkpt lat="48.80875" lon="8.0042">
        <ele>118.9</ele>
        <time>2020-06-28T08:37:46Z</time>
      </trkpt>
      <trkpt lat="48.8087" lon="8.00413">
        <ele>119</ele>
        <time>2020-06-28T08:37:47Z</time>
      </trkpt>
      <trkpt lat="48.80866" lon="8.00409">
        <ele>119</ele>
        <time>2020-06-28T08:37:48Z</time>
      </trkpt>
      <trkpt lat="48.80862" lon="8.00406">
        <ele>119</ele>
        <time>2020-06-28T08:37:49Z</time>
      </trkpt>
      <trkpt lat="48.80858" lon="8.00401">
        <ele>119.1</ele>
        <time>2020-06-28T08:37:50Z</time>
      </trkpt>
      <trkpt lat="48.80854" lon="8.00396">
        <ele>119.1</ele>
        <time>2020-06-28T08:37:51Z</time>
      </trkpt>
      <trkpt lat="48.8085" lon="8.00391">
        <ele>119.1</ele>
        <time>2020-06-28T08:37:52Z</time>
      </trkpt>
      <trkpt lat="48.80847" lon="8.00385">
        <ele>119.2</ele>
        <time>2020-06-28T08:37:53Z</time>
      </trkpt>
      <trkpt lat="48.80843" lon="8.0038">
        <ele>119.2</ele>
        <time>2020-06-28T08:37:54Z</time>
      </trkpt>
      <trkpt lat="48.8084" lon="8.00376">
        <ele>119.3</ele>
        <time>2020-06-28T08:37:55Z</time>
      </trkpt>
      <trkpt lat="48.80837" lon="8.00371">
        <ele>119.3</ele>
        <time>2020-06-28T08:37:56Z</time>
      </trkpt>
      <trkpt lat="48.80834" lon="8.00366">
        <ele>119.3</ele>
        <time>2020-06-28T08:37:57Z</time>
      </trkpt>
      <trkpt lat="48.8083" lon="8.00362">
        <ele>119.4</ele>
        <time>2020-06-28T08:37:58Z</time>
      </trkpt>
      <trkpt lat="48.80826" lon="8.00358">
        <ele>119.4</ele>
        <time>2020-06-28T08:37:59Z</time>
      </trkpt>
      <trkpt lat="48.80822" lon="8.00353">
        <ele>119.5</ele>
        <time>2020-06-28T08:38:00Z</time>
      </trkpt>
      <trkpt lat="48.80819" lon="8.00348">
        <ele>119.5</ele>
        <time>2020-06-28T08:38:01Z</time>
      </trkpt>
      <trkpt lat="48.80816" lon="8.00343">
        <ele>119.5</ele>
        <time>2020-06-28T08:38:02Z</time>
      </trkpt>
      <trkpt lat="48.80812" lon="8.00339">
        <ele>119.5</ele>
        <time>2020-06-28T08:38:03Z</time>
      </trkpt>
      <trkpt lat="48.80809" lon="8.00334">
        <ele>119.6</ele>
        <time>2020-06-28T08:38:04Z</time>
      </trkpt>
      <trkpt lat="48.80804" lon="8.00329">
        <ele>119.6</ele>
        <time>2020-06-28T08:38:05Z</time>
      </trkpt>
      <trkpt lat="48.80801" lon="8.00325">
        <ele>119.6</ele>
        <time>2020-06-28T08:38:06Z</time>
      </trkpt>
      <trkpt lat="48.80798" lon="8.00321">
        <ele>119.6</ele>
        <time>2020-06-28T08:38:07Z</time>
      </trkpt>
      <trkpt lat="48.80794" lon="8.00316">
        <ele>119.6</ele>
        <time>2020-06-28T08:38:08Z</time>
      </trkpt>
      <trkpt lat="48.80791" lon="8.00312">
        <ele>119.6</ele>
        <time>2020-06-28T08:38:09Z</time>
      </trkpt>
      <trkpt lat="48.80787" lon="8.00308">
        <ele>119.6</ele>
        <time>2020-06-28T08:38:10Z</time>
      </trkpt>
      <trkpt lat="48.80783" lon="8.00304">
        <ele>119.5</ele>
        <time>2020-06-28T08:38:11Z</time>
      </trkpt>
      <trkpt lat="48.8078" lon="8.00299">
        <ele>119.5</ele>
        <time>2020-06-28T08:38:12Z</time>
      </trkpt>
      <trkpt lat="48.80776" lon="8.00293">
        <ele>119.5</ele>
        <time>2020-06-28T08:38:13Z</time>
      </trkpt>
      <trkpt lat="48.80773" lon="8.00288">
        <ele>119.4</ele>
        <time>2020-06-28T08:38:14Z</time>
      </trkpt>
      <trkpt lat="48.80769" lon="8.00282">
        <ele>119.4</ele>
        <time>2020-06-28T08:38:15Z</time>
      </trkpt>
      <trkpt lat="48.80765" lon="8.00277">
        <ele>119.3</ele>
        <time>2020-06-28T08:38:16Z</time>
      </trkpt>
      <trkpt lat="48.8076" lon="8.00271">
        <ele>119.2</ele>
        <time>2020-06-28T08:38:17Z</time>
      </trkpt>
      <trkpt lat="48.80756" lon="8.00265">
        <ele>119.2</ele>
        <time>2020-06-28T08:38:18Z</time>
      </trkpt>
      <trkpt lat="48.80752" lon="8.0026">
        <ele>119.1</ele>
        <time>2020-06-28T08:38:19Z</time>
      </trkpt>
      <trkpt lat="48.80748" lon="8.00255">
        <ele>119.1</ele>
        <time>2020-06-28T08:38:20Z</time>
      </trkpt>
      <trkpt lat="48.80744" lon="8.00249">
        <ele>119</ele>
        <time>2020-06-28T08:38:21Z</time>
      </trkpt>
      <trkpt lat="48.80739" lon="8.00243">
        <ele>119</ele>
        <time>2020-06-28T08:38:22Z</time>
      </trkpt>
      <trkpt lat="48.80734" lon="8.00237">
        <ele>119</ele>
        <time>2020-06-28T08:38:23Z</time>
      </trkpt>
      <trkpt lat="48.80729" lon="8.00232">
        <ele>119</ele>
        <time>2020-06-28T08:38:24Z</time>
      </trkpt>
      <trkpt lat="48.80723" lon="8.00226">
        <ele>119</ele>
        <time>2020-06-28T08:38:25Z</time>
      </trkpt>
      <trkpt lat="48.80719" lon="8.00222">
        <ele>119</ele>
        <time>2020-06-28T08:38:26Z</time>
      </trkpt>
      <trkpt lat="48.80714" lon="8.00219">
        <ele>119</ele>
        <time>2020-06-28T08:38:27Z</time>
      </trkpt>
      <trkpt lat="48.80709" lon="8.00216">
        <ele>119</ele>
        <time>2020-06-28T08:38:28Z</time>
      </trkpt>
      <trkpt lat="48.80704" lon="8.00212">
        <ele>119</ele>
        <time>2020-06-28T08:38:29Z</time>
      </trkpt>
      <trkpt lat="48.80699" lon="8.00209">
        <ele>119</ele>
        <time>2020-06-28T08:38:30Z</time>
      </trkpt>
      <trkpt lat="48.80695" lon="8.00204">
        <ele>119</ele>
        <time>2020-06-28T08:38:31Z</time>
      </trkpt>
      <trkpt lat="48.8069" lon="8.002">
        <ele>119</ele>
        <time>2020-06-28T08:38:32Z</time>
      </trkpt>
      <trkpt lat="48.80686" lon="8.00196">
        <ele>119</ele>
        <time>2020-06-28T08:38:33Z</time>
      </trkpt>
      <trkpt lat="48.80681" lon="8.00194">
        <ele>119</ele>
        <time>2020-06-28T08:38:34Z</time>
      </trkpt>
      <trkpt lat="48.80677" lon="8.00187">
        <ele>118.9</ele>
        <time>2020-06-28T08:38:35Z</time>
      </trkpt>
      <trkpt lat="48.80672" lon="8.00183">
        <ele>118.9</ele>
        <time>2020-06-28T08:38:36Z</time>
      </trkpt>
      <trkpt lat="48.80668" lon="8.00178">
        <ele>118.9</ele>
        <time>2020-06-28T08:38:37Z</time>
      </trkpt>
      <trkpt lat="48.80663" lon="8.00173">
        <ele>118.8</ele>
        <time>2020-06-28T08:38:38Z</time>
      </trkpt>
      <trkpt lat="48.80658" lon="8.00168">
        <ele>118.8</ele>
        <time>2020-06-28T08:38:39Z</time>
      </trkpt>
      <trkpt lat="48.80652" lon="8.00162">
        <ele>118.8</ele>
        <time>2020-06-28T08:38:40Z</time>
      </trkpt>
      <trkpt lat="48.80648" lon="8.00158">
        <ele>118.8</ele>
        <time>2020-06-28T08:38:41Z</time>
      </trkpt>
      <trkpt lat="48.80643" lon="8.0015">
        <ele>118.9</ele>
        <time>2020-06-28T08:38:42Z</time>
      </trkpt>
      <trkpt lat="48.80638" lon="8.00144">
        <ele>119</ele>
        <time>2020-06-28T08:38:43Z</time>
      </trkpt>
      <trkpt lat="48.80633" lon="8.00139">
        <ele>119</ele>
        <time>2020-06-28T08:38:44Z</time>
      </trkpt>
      <trkpt lat="48.8063" lon="8.00132">
        <ele>119.1</ele>
        <time>2020-06-28T08:38:45Z</time>
      </trkpt>
      <trkpt lat="48.80625" lon="8.00126">
        <ele>119.1</ele>
        <time>2020-06-28T08:38:46Z</time>
      </trkpt>
      <trkpt lat="48.80622" lon="8.00122">
        <ele>119.2</ele>
        <time>2020-06-28T08:38:47Z</time>
      </trkpt>
      <trkpt lat="48.80617" lon="8.00116">
        <ele>119.2</ele>
        <time>2020-06-28T08:38:48Z</time>
      </trkpt>
      <trkpt lat="48.80613" lon="8.00111">
        <ele>119.3</ele>
        <time>2020-06-28T08:38:49Z</time>
      </trkpt>
      <trkpt lat="48.80609" lon="8.00105">
        <ele>119.3</ele>
        <time>2020-06-28T08:38:50Z</time>
      </trkpt>
      <trkpt lat="48.80605" lon="8.00101">
        <ele>119.3</ele>
        <time>2020-06-28T08:38:51Z</time>
      </trkpt>
      <trkpt lat="48.80601" lon="8.00095">
        <ele>119.3</ele>
        <time>2020-06-28T08:38:52Z</time>
      </trkpt>
      <trkpt lat="48.80597" lon="8.0009">
        <ele>119.4</ele>
        <time>2020-06-28T08:38:53Z</time>
      </trkpt>
      <trkpt lat="48.80593" lon="8.00085">
        <ele>119.4</ele>
        <time>2020-06-28T08:38:54Z</time>
      </trkpt>
      <trkpt lat="48.80587" lon="8.00079">
        <ele>119.4</ele>
        <time>2020-06-28T08:38:55Z</time>
      </trkpt>
      <trkpt lat="48.80583" lon="8.00074">
        <ele>119.4</ele>
        <time>2020-06-28T08:38:56Z</time>
      </trkpt>
      <trkpt lat="48.80579" lon="8.0007">
        <ele>119.4</ele>
        <time>2020-06-28T08:38:57Z</time>
      </trkpt>
      <trkpt lat="48.80574" lon="8.00064">
        <ele>119.5</ele>
        <time>2020-06-28T08:38:58Z</time>
      </trkpt>
      <trkpt lat="48.80569" lon="8.00058">
        <ele>119.5</ele>
        <time>2020-06-28T08:38:59Z</time>
      </trkpt>
      <trkpt lat="48.80564" lon="8.00054">
        <ele>119.5</ele>
        <time>2020-06-28T08:39:00Z</time>
      </trkpt>
      <trkpt lat="48.8056" lon="8.00049">
        <ele>119.5</ele>
        <time>2020-06-28T08:39:01Z</time>
      </trkpt>
      <trkpt lat="48.80555" lon="8.00045">
        <ele>119.6</ele>
        <time>2020-06-28T08:39:02Z</time>
      </trkpt>
      <trkpt lat="48.8055" lon="8.00041">
        <ele>119.6</ele>
        <time>2020-06-28T08:39:03Z</time>
      </trkpt>
      <trkpt lat="48.80546" lon="8.00036">
        <ele>119.6</ele>
        <time>2020-06-28T08:39:04Z</time>
      </trkpt>
      <trkpt lat="48.80542" lon="8.00033">
        <ele>119.6</ele>
        <time>2020-06-28T08:39:05Z</time>
      </trkpt>
      <trkpt lat="48.80537" lon="8.00029">
        <ele>119.6</ele>
        <time>2020-06-28T08:39:06Z</time>
      </trkpt>
      <trkpt lat="48.80533" lon="8.00023">
        <ele>119.5</ele>
        <time>2020-06-28T08:39:07Z</time>
      </trkpt>
      <trkpt lat="48.80529" lon="8.00019">
        <ele>119.5</ele>
        <time>2020-06-28T08:39:08Z</time>
      </trkpt>
      <trkpt lat="48.80525" lon="8.00014">
        <ele>119.4</ele>
        <time>2020-06-28T08:39:09Z</time>
      </trkpt>
      <trkpt lat="48.80522" lon="8.00008">
        <ele>119.4</ele>
        <time>2020-06-28T08:39:10Z</time>
      </trkpt>
      <trkpt lat="48.80518" lon="8.00002">
        <ele>119.4</ele>
        <time>2020-06-28T08:39:11Z</time>
      </trkpt>
      <trkpt lat="48.80513" lon="7.99997">
        <ele>119.4</ele>
        <time>2020-06-28T08:39:12Z</time>
      </trkpt>
      <trkpt lat="48.80509" lon="7.99992">
        <ele>119.4</ele>
        <time>2020-06-28T08:39:13Z</time>
      </trkpt>
      <trkpt lat="48.80505" lon="7.99988">
        <ele>119.4</ele>
        <time>2020-06-28T08:39:14Z</time>
      </trkpt>
      <trkpt lat="48.80501" lon="7.99988">
        <ele>119.4</ele>
        <time>2020-06-28T08:39:15Z</time>
      </trkpt>
      <trkpt lat="48.80497" lon="7.99984">
        <ele>119.5</ele>
        <time>2020-06-28T08:39:16Z</time>
      </trkpt>
      <trkpt lat="48.80493" lon="7.99979">
        <ele>119.5</ele>
        <time>2020-06-28T08:39:17Z</time>
      </trkpt>
      <trkpt lat="48.80489" lon="7.99975">
        <ele>119.5</ele>
        <time>2020-06-28T08:39:18Z</time>
      </trkpt>
      <trkpt lat="48.80485" lon="7.99971">
        <ele>119.5</ele>
        <time>2020-06-28T08:39:19Z</time>
      </trkpt>
      <trkpt lat="48.8048" lon="7.99968">
        <ele>119.4</ele>
        <time>2020-06-28T08:39:20Z</time>
      </trkpt>
      <trkpt lat="48.80476" lon="7.99965">
        <ele>119.4</ele>
        <time>2020-06-28T08:39:21Z</time>
      </trkpt>
      <trkpt lat="48.80471" lon="7.99962">
        <ele>119.4</ele>
        <time>2020-06-28T08:39:22Z</time>
      </trkpt>
      <trkpt lat="48.80467" lon="7.99959">
        <ele>119.4</ele>
        <time>2020-06-28T08:39:23Z</time>
      </trkpt>
      <trkpt lat="48.80463" lon="7.99956">
        <ele>119.3</ele>
        <time>2020-06-28T08:39:24Z</time>
      </trkpt>
      <trkpt lat="48.80459" lon="7.99953">
        <ele>119.3</ele>
        <time>2020-06-28T08:39:25Z</time>
      </trkpt>
      <trkpt lat="48.80455" lon="7.99951">
        <ele>119.3</ele>
        <time>2020-06-28T08:39:26Z</time>
      </trkpt>
      <trkpt lat="48.80451" lon="7.99948">
        <ele>119.3</ele>
        <time>2020-06-28T08:39:27Z</time>
      </trkpt>
      <trkpt lat="48.80447" lon="7.99947">
        <ele>119.3</ele>
        <time>2020-06-28T08:39:28Z</time>
      </trkpt>
      <trkpt lat="48.80442" lon="7.99945">
        <ele>119.2</ele>
        <time>2020-06-28T08:39:29Z</time>
      </trkpt>
      <trkpt lat="48.80437" lon="7.99943">
        <ele>119.2</ele>
        <time>2020-06-28T08:39:30Z</time>
      </trkpt>
      <trkpt lat="48.80433" lon="7.9994">
        <ele>119.2</ele>
        <time>2020-06-28T08:39:31Z</time>
      </trkpt>
      <trkpt lat="48.80428" lon="7.99938">
        <ele>119.2</ele>
        <time>2020-06-28T08:39:32Z</time>
      </trkpt>
      <trkpt lat="48.80424" lon="7.99936">
        <ele>119.2</ele>
        <time>2020-06-28T08:39:33Z</time>
      </trkpt>
      <trkpt lat="48.80419" lon="7.99933">
        <ele>119.2</ele>
        <time>2020-06-28T08:39:34Z</time>
      </trkpt>
      <trkpt lat="48.80413" lon="7.9993">
        <ele>119.2</ele>
        <time>2020-06-28T08:39:35Z</time>
      </trkpt>
      <trkpt lat="48.80408" lon="7.99927">
        <ele>119.2</ele>
        <time>2020-06-28T08:39:36Z</time>
      </trkpt>
      <trkpt lat="48.80403" lon="7.99924">
        <ele>119.2</ele>
        <time>2020-06-28T08:39:37Z</time>
      </trkpt>
      <trkpt lat="48.80398" lon="7.99922">
        <ele>119.2</ele>
        <time>2020-06-28T08:39:38Z</time>
      </trkpt>
      <trkpt lat="48.80393" lon="7.99918">
        <ele>119.2</ele>
        <time>2020-06-28T08:39:39Z</time>
      </trkpt>
      <trkpt lat="48.80388" lon="7.99915">
        <ele>119.3</ele>
        <time>2020-06-28T08:39:40Z</time>
      </trkpt>
      <trkpt lat="48.80383" lon="7.99912">
        <ele>119.3</ele>
        <time>2020-06-28T08:39:41Z</time>
      </trkpt>
      <trkpt lat="48.80378" lon="7.99909">
        <ele>119.3</ele>
        <time>2020-06-28T08:39:42Z</time>
      </trkpt>
      <trkpt lat="48.80373" lon="7.99906">
        <ele>119.3</ele>
        <time>2020-06-28T08:39:43Z</time>
      </trkpt>
      <trkpt lat="48.80369" lon="7.99903">
        <ele>119.3</ele>
        <time>2020-06-28T08:39:44Z</time>
      </trkpt>
      <trkpt lat="48.80364" lon="7.999">
        <ele>119.3</ele>
        <time>2020-06-28T08:39:45Z</time>
      </trkpt>
      <trkpt lat="48.80359" lon="7.99897">
        <ele>119.4</ele>
        <time>2020-06-28T08:39:46Z</time>
      </trkpt>
      <trkpt lat="48.80353" lon="7.99896">
        <ele>119.4</ele>
        <time>2020-06-28T08:39:47Z</time>
      </trkpt>
      <trkpt lat="48.80348" lon="7.99894">
        <ele>119.4</ele>
        <time>2020-06-28T08:39:48Z</time>
      </trkpt>
      <trkpt lat="48.80343" lon="7.99894">
        <ele>119.4</ele>
        <time>2020-06-28T08:39:49Z</time>
      </trkpt>
      <trkpt lat="48.80337" lon="7.99892">
        <ele>119.4</ele>
        <time>2020-06-28T08:39:50Z</time>
      </trkpt>
      <trkpt lat="48.80331" lon="7.99892">
        <ele>119.4</ele>
        <time>2020-06-28T08:39:51Z</time>
      </trkpt>
      <trkpt lat="48.80325" lon="7.99892">
        <ele>119.4</ele>
        <time>2020-06-28T08:39:52Z</time>
      </trkpt>
      <trkpt lat="48.8032" lon="7.99892">
        <ele>119.4</ele>
        <time>2020-06-28T08:39:53Z</time>
      </trkpt>
      <trkpt lat="48.80314" lon="7.99893">
        <ele>119.5</ele>
        <time>2020-06-28T08:39:54Z</time>
      </trkpt>
      <trkpt lat="48.80308" lon="7.99893">
        <ele>119.5</ele>
        <time>2020-06-28T08:39:55Z</time>
      </trkpt>
      <trkpt lat="48.80302" lon="7.99893">
        <ele>119.5</ele>
        <time>2020-06-28T08:39:56Z</time>
      </trkpt>
      <trkpt lat="48.80296" lon="7.99893">
        <ele>119.5</ele>
        <time>2020-06-28T08:39:57Z</time>
      </trkpt>
      <trkpt lat="48.80291" lon="7.99893">
        <ele>119.5</ele>
        <time>2020-06-28T08:39:58Z</time>
      </trkpt>
      <trkpt lat="48.80285" lon="7.99893">
        <ele>119.5</ele>
        <time>2020-06-28T08:39:59Z</time>
      </trkpt>
      <trkpt lat="48.80279" lon="7.99893">
        <ele>119.5</ele>
        <time>2020-06-28T08:40:00Z</time>
      </trkpt>
      <trkpt lat="48.80273" lon="7.99894">
        <ele>119.5</ele>
        <time>2020-06-28T08:40:01Z</time>
      </trkpt>
      <trkpt lat="48.80268" lon="7.99894">
        <ele>119.6</ele>
        <time>2020-06-28T08:40:02Z</time>
      </trkpt>
      <trkpt lat="48.80262" lon="7.99894">
        <ele>119.6</ele>
        <time>2020-06-28T08:40:03Z</time>
      </trkpt>
      <trkpt lat="48.80256" lon="7.99895">
        <ele>119.6</ele>
        <time>2020-06-28T08:40:04Z</time>
      </trkpt>
      <trkpt lat="48.80251" lon="7.99895">
        <ele>119.6</ele>
        <time>2020-06-28T08:40:05Z</time>
      </trkpt>
      <trkpt lat="48.80245" lon="7.99895">
        <ele>119.6</ele>
        <time>2020-06-28T08:40:06Z</time>
      </trkpt>
      <trkpt lat="48.80239" lon="7.99894">
        <ele>119.6</ele>
        <time>2020-06-28T08:40:07Z</time>
      </trkpt>
      <trkpt lat="48.80233" lon="7.99894">
        <ele>119.6</ele>
        <time>2020-06-28T08:40:08Z</time>
      </trkpt>
      <trkpt lat="48.80227" lon="7.99895">
        <ele>119.7</ele>
        <time>2020-06-28T08:40:09Z</time>
      </trkpt>
      <trkpt lat="48.8022" lon="7.99895">
        <ele>119.7</ele>
        <time>2020-06-28T08:40:10Z</time>
      </trkpt>
      <trkpt lat="48.80214" lon="7.99896">
        <ele>119.7</ele>
        <time>2020-06-28T08:40:11Z</time>
      </trkpt>
      <trkpt lat="48.80208" lon="7.99896">
        <ele>119.7</ele>
        <time>2020-06-28T08:40:12Z</time>
      </trkpt>
      <trkpt lat="48.80202" lon="7.99896">
        <ele>119.8</ele>
        <time>2020-06-28T08:40:13Z</time>
      </trkpt>
      <trkpt lat="48.80196" lon="7.99896">
        <ele>119.8</ele>
        <time>2020-06-28T08:40:14Z</time>
      </trkpt>
      <trkpt lat="48.8019" lon="7.99896">
        <ele>119.8</ele>
        <time>2020-06-28T08:40:15Z</time>
      </trkpt>
      <trkpt lat="48.80185" lon="7.99896">
        <ele>119.8</ele>
        <time>2020-06-28T08:40:16Z</time>
      </trkpt>
      <trkpt lat="48.80179" lon="7.99897">
        <ele>119.8</ele>
        <time>2020-06-28T08:40:17Z</time>
      </trkpt>
      <trkpt lat="48.80174" lon="7.99897">
        <ele>119.8</ele>
        <time>2020-06-28T08:40:18Z</time>
      </trkpt>
      <trkpt lat="48.80168" lon="7.99897">
        <ele>119.8</ele>
        <time>2020-06-28T08:40:19Z</time>
      </trkpt>
      <trkpt lat="48.80162" lon="7.99897">
        <ele>119.8</ele>
        <time>2020-06-28T08:40:20Z</time>
      </trkpt>
      <trkpt lat="48.80156" lon="7.99895">
        <ele>119.7</ele>
        <time>2020-06-28T08:40:21Z</time>
      </trkpt>
      <trkpt lat="48.8015" lon="7.99894">
        <ele>119.7</ele>
        <time>2020-06-28T08:40:22Z</time>
      </trkpt>
      <trkpt lat="48.80145" lon="7.9989">
        <ele>119.7</ele>
        <time>2020-06-28T08:40:23Z</time>
      </trkpt>
      <trkpt lat="48.80139" lon="7.99886">
        <ele>119.7</ele>
        <time>2020-06-28T08:40:24Z</time>
      </trkpt>
      <trkpt lat="48.80134" lon="7.99882">
        <ele>119.7</ele>
        <time>2020-06-28T08:40:25Z</time>
      </trkpt>
      <trkpt lat="48.80129" lon="7.99879">
        <ele>119.7</ele>
        <time>2020-06-28T08:40:26Z</time>
      </trkpt>
      <trkpt lat="48.80124" lon="7.99876">
        <ele>119.7</ele>
        <time>2020-06-28T08:40:27Z</time>
      </trkpt>
      <trkpt lat="48.80118" lon="7.99872">
        <ele>119.7</ele>
        <time>2020-06-28T08:40:28Z</time>
      </trkpt>
      <trkpt lat="48.80114" lon="7.99869">
        <ele>119.7</ele>
        <time>2020-06-28T08:40:29Z</time>
      </trkpt>
      <trkpt lat="48.80108" lon="7.99864">
        <ele>119.7</ele>
        <time>2020-06-28T08:40:30Z</time>
      </trkpt>
      <trkpt lat="48.80103" lon="7.9986">
        <ele>119.7</ele>
        <time>2020-06-28T08:40:31Z</time>
      </trkpt>
      <trkpt lat="48.80099" lon="7.99856">
        <ele>119.7</ele>
        <time>2020-06-28T08:40:32Z</time>
      </trkpt>
      <trkpt lat="48.80094" lon="7.99853">
        <ele>119.7</ele>
        <time>2020-06-28T08:40:33Z</time>
      </trkpt>
      <trkpt lat="48.80089" lon="7.99849">
        <ele>119.7</ele>
        <time>2020-06-28T08:40:34Z</time>
      </trkpt>
      <trkpt lat="48.80084" lon="7.99846">
        <ele>119.7</ele>
        <time>2020-06-28T08:40:35Z</time>
      </trkpt>
      <trkpt lat="48.8008" lon="7.99843">
        <ele>119.7</ele>
        <time>2020-06-28T08:40:36Z</time>
      </trkpt>
      <trkpt lat="48.80076" lon="7.99839">
        <ele>119.7</ele>
        <time>2020-06-28T08:40:37Z</time>
      </trkpt>
      <trkpt lat="48.8007" lon="7.99833">
        <ele>119.8</ele>
        <time>2020-06-28T08:40:38Z</time>
      </trkpt>
      <trkpt lat="48.80065" lon="7.99831">
        <ele>119.8</ele>
        <time>2020-06-28T08:40:39Z</time>
      </trkpt>
      <trkpt lat="48.80059" lon="7.99827">
        <ele>119.9</ele>
        <time>2020-06-28T08:40:40Z</time>
      </trkpt>
      <trkpt lat="48.80053" lon="7.99824">
        <ele>119.9</ele>
        <time>2020-06-28T08:40:41Z</time>
      </trkpt>
      <trkpt lat="48.80048" lon="7.99821">
        <ele>119.9</ele>
        <time>2020-06-28T08:40:42Z</time>
      </trkpt>
      <trkpt lat="48.80043" lon="7.99819">
        <ele>120</ele>
        <time>2020-06-28T08:40:43Z</time>
      </trkpt>
      <trkpt lat="48.80037" lon="7.99817">
        <ele>120</ele>
        <time>2020-06-28T08:40:44Z</time>
      </trkpt>
      <trkpt lat="48.80031" lon="7.99815">
        <ele>120</ele>
        <time>2020-06-28T08:40:45Z</time>
      </trkpt>
      <trkpt lat="48.80026" lon="7.99812">
        <ele>120</ele>
        <time>2020-06-28T08:40:46Z</time>
      </trkpt>
      <trkpt lat="48.8002" lon="7.99809">
        <ele>119.9</ele>
        <time>2020-06-28T08:40:47Z</time>
      </trkpt>
      <trkpt lat="48.80014" lon="7.99807">
        <ele>119.9</ele>
        <time>2020-06-28T08:40:48Z</time>
      </trkpt>
      <trkpt lat="48.80009" lon="7.99805">
        <ele>119.9</ele>
        <time>2020-06-28T08:40:49Z</time>
      </trkpt>
      <trkpt lat="48.80003" lon="7.99803">
        <ele>119.9</ele>
        <time>2020-06-28T08:40:50Z</time>
      </trkpt>
      <trkpt lat="48.79997" lon="7.99801">
        <ele>119.8</ele>
        <time>2020-06-28T08:40:51Z</time>
      </trkpt>
      <trkpt lat="48.79992" lon="7.99799">
        <ele>119.8</ele>
        <time>2020-06-28T08:40:52Z</time>
      </trkpt>
      <trkpt lat="48.79986" lon="7.99797">
        <ele>119.8</ele>
        <time>2020-06-28T08:40:53Z</time>
      </trkpt>
      <trkpt lat="48.79981" lon="7.99796">
        <ele>119.7</ele>
        <time>2020-06-28T08:40:54Z</time>
      </trkpt>
      <trkpt lat="48.79976" lon="7.99794">
        <ele>119.7</ele>
        <time>2020-06-28T08:40:55Z</time>
      </trkpt>
      <trkpt lat="48.7997" lon="7.99792">
        <ele>119.7</ele>
        <time>2020-06-28T08:40:56Z</time>
      </trkpt>
      <trkpt lat="48.79965" lon="7.99789">
        <ele>119.7</ele>
        <time>2020-06-28T08:40:57Z</time>
      </trkpt>
      <trkpt lat="48.7996" lon="7.99787">
        <ele>119.7</ele>
        <time>2020-06-28T08:40:58Z</time>
      </trkpt>
      <trkpt lat="48.79955" lon="7.99785">
        <ele>119.6</ele>
        <time>2020-06-28T08:40:59Z</time>
      </trkpt>
      <trkpt lat="48.79948" lon="7.99783">
        <ele>119.6</ele>
        <time>2020-06-28T08:41:00Z</time>
      </trkpt>
      <trkpt lat="48.79943" lon="7.99781">
        <ele>119.6</ele>
        <time>2020-06-28T08:41:01Z</time>
      </trkpt>
      <trkpt lat="48.79937" lon="7.99779">
        <ele>119.5</ele>
        <time>2020-06-28T08:41:02Z</time>
      </trkpt>
      <trkpt lat="48.79931" lon="7.99777">
        <ele>119.5</ele>
        <time>2020-06-28T08:41:03Z</time>
      </trkpt>
      <trkpt lat="48.79926" lon="7.99776">
        <ele>119.4</ele>
        <time>2020-06-28T08:41:04Z</time>
      </trkpt>
      <trkpt lat="48.7992" lon="7.99776">
        <ele>119.4</ele>
        <time>2020-06-28T08:41:05Z</time>
      </trkpt>
      <trkpt lat="48.79914" lon="7.99776">
        <ele>119.3</ele>
        <time>2020-06-28T08:41:06Z</time>
      </trkpt>
      <trkpt lat="48.7991" lon="7.99777">
        <ele>119.3</ele>
        <time>2020-06-28T08:41:07Z</time>
      </trkpt>
      <trkpt lat="48.79905" lon="7.99777">
        <ele>119.2</ele>
        <time>2020-06-28T08:41:08Z</time>
      </trkpt>
      <trkpt lat="48.79899" lon="7.99777">
        <ele>119.2</ele>
        <time>2020-06-28T08:41:09Z</time>
      </trkpt>
      <trkpt lat="48.79894" lon="7.99777">
        <ele>119.2</ele>
        <time>2020-06-28T08:41:10Z</time>
      </trkpt>
      <trkpt lat="48.79889" lon="7.99776">
        <ele>119.1</ele>
        <time>2020-06-28T08:41:11Z</time>
      </trkpt>
      <trkpt lat="48.79883" lon="7.99775">
        <ele>119.1</ele>
        <time>2020-06-28T08:41:12Z</time>
      </trkpt>
      <trkpt lat="48.79877" lon="7.99774">
        <ele>119.1</ele>
        <time>2020-06-28T08:41:13Z</time>
      </trkpt>
      <trkpt lat="48.79871" lon="7.99774">
        <ele>119.1</ele>
        <time>2020-06-28T08:41:14Z</time>
      </trkpt>
      <trkpt lat="48.79865" lon="7.99772">
        <ele>119.1</ele>
        <time>2020-06-28T08:41:15Z</time>
      </trkpt>
      <trkpt lat="48.79859" lon="7.99772">
        <ele>119.1</ele>
        <time>2020-06-28T08:41:16Z</time>
      </trkpt>
      <trkpt lat="48.79853" lon="7.99771">
        <ele>119.1</ele>
        <time>2020-06-28T08:41:17Z</time>
      </trkpt>
      <trkpt lat="48.79848" lon="7.9977">
        <ele>119.2</ele>
        <time>2020-06-28T08:41:18Z</time>
      </trkpt>
      <trkpt lat="48.79842" lon="7.99769">
        <ele>119.2</ele>
        <time>2020-06-28T08:41:19Z</time>
      </trkpt>
      <trkpt lat="48.79838" lon="7.99768">
        <ele>119.2</ele>
        <time>2020-06-28T08:41:20Z</time>
      </trkpt>
      <trkpt lat="48.79832" lon="7.99765">
        <ele>119.2</ele>
        <time>2020-06-28T08:41:21Z</time>
      </trkpt>
      <trkpt lat="48.79827" lon="7.99762">
        <ele>119.2</ele>
        <time>2020-06-28T08:41:22Z</time>
      </trkpt>
      <trkpt lat="48.79823" lon="7.99758">
        <ele>119.2</ele>
        <time>2020-06-28T08:41:23Z</time>
      </trkpt>
      <trkpt lat="48.79818" lon="7.99753">
        <ele>119.2</ele>
        <time>2020-06-28T08:41:24Z</time>
      </trkpt>
      <trkpt lat="48.79812" lon="7.99747">
        <ele>119.2</ele>
        <time>2020-06-28T08:41:25Z</time>
      </trkpt>
      <trkpt lat="48.79808" lon="7.99742">
        <ele>119.3</ele>
        <time>2020-06-28T08:41:26Z</time>
      </trkpt>
      <trkpt lat="48.79804" lon="7.99738">
        <ele>119.3</ele>
        <time>2020-06-28T08:41:27Z</time>
      </trkpt>
      <trkpt lat="48.79799" lon="7.99734">
        <ele>119.3</ele>
        <time>2020-06-28T08:41:28Z</time>
      </trkpt>
      <trkpt lat="48.79795" lon="7.99727">
        <ele>119.3</ele>
        <time>2020-06-28T08:41:29Z</time>
      </trkpt>
      <trkpt lat="48.79791" lon="7.99722">
        <ele>119.3</ele>
        <time>2020-06-28T08:41:30Z</time>
      </trkpt>
      <trkpt lat="48.79786" lon="7.99715">
        <ele>119.3</ele>
        <time>2020-06-28T08:41:31Z</time>
      </trkpt>
      <trkpt lat="48.79781" lon="7.99708">
        <ele>119.3</ele>
        <time>2020-06-28T08:41:32Z</time>
      </trkpt>
      <trkpt lat="48.79776" lon="7.99702">
        <ele>119.3</ele>
        <time>2020-06-28T08:41:33Z</time>
      </trkpt>
      <trkpt lat="48.79772" lon="7.99697">
        <ele>119.3</ele>
        <time>2020-06-28T08:41:34Z</time>
      </trkpt>
      <trkpt lat="48.79767" lon="7.99691">
        <ele>119.4</ele>
        <time>2020-06-28T08:41:35Z</time>
      </trkpt>
      <trkpt lat="48.79763" lon="7.99686">
        <ele>119.4</ele>
        <time>2020-06-28T08:41:36Z</time>
      </trkpt>
      <trkpt lat="48.79757" lon="7.9968">
        <ele>119.5</ele>
        <time>2020-06-28T08:41:37Z</time>
      </trkpt>
      <trkpt lat="48.79753" lon="7.99675">
        <ele>119.6</ele>
        <time>2020-06-28T08:41:38Z</time>
      </trkpt>
      <trkpt lat="48.79748" lon="7.99672">
        <ele>119.7</ele>
        <time>2020-06-28T08:41:39Z</time>
      </trkpt>
      <trkpt lat="48.79744" lon="7.99669">
        <ele>119.8</ele>
        <time>2020-06-28T08:41:40Z</time>
      </trkpt>
      <trkpt lat="48.79739" lon="7.99665">
        <ele>119.9</ele>
        <time>2020-06-28T08:41:41Z</time>
      </trkpt>
      <trkpt lat="48.79735" lon="7.99662">
        <ele>120</ele>
        <time>2020-06-28T08:41:42Z</time>
      </trkpt>
      <trkpt lat="48.7973" lon="7.99659">
        <ele>120.1</ele>
        <time>2020-06-28T08:41:43Z</time>
      </trkpt>
      <trkpt lat="48.79725" lon="7.99655">
        <ele>120.2</ele>
        <time>2020-06-28T08:41:44Z</time>
      </trkpt>
      <trkpt lat="48.79721" lon="7.99651">
        <ele>120.3</ele>
        <time>2020-06-28T08:41:45Z</time>
      </trkpt>
      <trkpt lat="48.79717" lon="7.99647">
        <ele>120.3</ele>
        <time>2020-06-28T08:41:46Z</time>
      </trkpt>
      <trkpt lat="48.79713" lon="7.99643">
        <ele>120.4</ele>
        <time>2020-06-28T08:41:47Z</time>
      </trkpt>
      <trkpt lat="48.79709" lon="7.99641">
        <ele>120.4</ele>
        <time>2020-06-28T08:41:48Z</time>
      </trkpt>
      <trkpt lat="48.79704" lon="7.99637">
        <ele>120.5</ele>
        <time>2020-06-28T08:41:49Z</time>
      </trkpt>
      <trkpt lat="48.79698" lon="7.99634">
        <ele>120.6</ele>
        <time>2020-06-28T08:41:50Z</time>
      </trkpt>
      <trkpt lat="48.79693" lon="7.9963">
        <ele>120.6</ele>
        <time>2020-06-28T08:41:51Z</time>
      </trkpt>
      <trkpt lat="48.79688" lon="7.99626">
        <ele>120.6</ele>
        <time>2020-06-28T08:41:52Z</time>
      </trkpt>
      <trkpt lat="48.79685" lon="7.99622">
        <ele>120.6</ele>
        <time>2020-06-28T08:41:53Z</time>
      </trkpt>
      <trkpt lat="48.79679" lon="7.99616">
        <ele>120.7</ele>
        <time>2020-06-28T08:41:54Z</time>
      </trkpt>
      <trkpt lat="48.79674" lon="7.99611">
        <ele>120.7</ele>
        <time>2020-06-28T08:41:55Z</time>
      </trkpt>
      <trkpt lat="48.79671" lon="7.99609">
        <ele>120.7</ele>
        <time>2020-06-28T08:41:56Z</time>
      </trkpt>
      <trkpt lat="48.79665" lon="7.99603">
        <ele>120.7</ele>
        <time>2020-06-28T08:41:57Z</time>
      </trkpt>
      <trkpt lat="48.79661" lon="7.99599">
        <ele>120.7</ele>
        <time>2020-06-28T08:41:58Z</time>
      </trkpt>
      <trkpt lat="48.79657" lon="7.99595">
        <ele>120.7</ele>
        <time>2020-06-28T08:41:59Z</time>
      </trkpt>
      <trkpt lat="48.79655" lon="7.99593">
        <ele>120.7</ele>
        <time>2020-06-28T08:42:00Z</time>
      </trkpt>
      <trkpt lat="48.7965" lon="7.99589">
        <ele>120.8</ele>
        <time>2020-06-28T08:42:01Z</time>
      </trkpt>
      <trkpt lat="48.79646" lon="7.99585">
        <ele>120.8</ele>
        <time>2020-06-28T08:42:02Z</time>
      </trkpt>
      <trkpt lat="48.79644" lon="7.9958">
        <ele>120.9</ele>
        <time>2020-06-28T08:42:03Z</time>
      </trkpt>
      <trkpt lat="48.79642" lon="7.99578">
        <ele>120.9</ele>
        <time>2020-06-28T08:42:04Z</time>
      </trkpt>
      <trkpt lat="48.7964" lon="7.99575">
        <ele>120.9</ele>
        <time>2020-06-28T08:42:05Z</time>
      </trkpt>
      <trkpt lat="48.79637" lon="7.99571">
        <ele>120.9</ele>
        <time>2020-06-28T08:42:06Z</time>
      </trkpt>
      <trkpt lat="48.79633" lon="7.99567">
        <ele>121.1</ele>
        <time>2020-06-28T08:42:07Z</time>
      </trkpt>
      <trkpt lat="48.7963" lon="7.99563">
        <ele>121.1</ele>
        <time>2020-06-28T08:42:08Z</time>
      </trkpt>
      <trkpt lat="48.79625" lon="7.99561">
        <ele>121.1</ele>
        <time>2020-06-28T08:42:09Z</time>
      </trkpt>
      <trkpt lat="48.79619" lon="7.99559">
        <ele>121.2</ele>
        <time>2020-06-28T08:42:10Z</time>
      </trkpt>
      <trkpt lat="48.79613" lon="7.99559">
        <ele>121.2</ele>
        <time>2020-06-28T08:42:11Z</time>
      </trkpt>
      <trkpt lat="48.79607" lon="7.99559">
        <ele>121.2</ele>
        <time>2020-06-28T08:42:12Z</time>
      </trkpt>
      <trkpt lat="48.79602" lon="7.99557">
        <ele>121</ele>
        <time>2020-06-28T08:42:13Z</time>
      </trkpt>
      <trkpt lat="48.79597" lon="7.99554">
        <ele>120.8</ele>
        <time>2020-06-28T08:42:14Z</time>
      </trkpt>
      <trkpt lat="48.79591" lon="7.99552">
        <ele>120.6</ele>
        <time>2020-06-28T08:42:15Z</time>
      </trkpt>
      <trkpt lat="48.79584" lon="7.99549">
        <ele>120.4</ele>
        <time>2020-06-28T08:42:16Z</time>
      </trkpt>
      <trkpt lat="48.79578" lon="7.99546">
        <ele>120.4</ele>
        <time>2020-06-28T08:42:17Z</time>
      </trkpt>
      <trkpt lat="48.79572" lon="7.99541">
        <ele>120.4</ele>
        <time>2020-06-28T08:42:18Z</time>
      </trkpt>
      <trkpt lat="48.79567" lon="7.99537">
        <ele>120.4</ele>
        <time>2020-06-28T08:42:19Z</time>
      </trkpt>
      <trkpt lat="48.79562" lon="7.99534">
        <ele>120.4</ele>
        <time>2020-06-28T08:42:20Z</time>
      </trkpt>
      <trkpt lat="48.79558" lon="7.99531">
        <ele>120.4</ele>
        <time>2020-06-28T08:42:21Z</time>
      </trkpt>
      <trkpt lat="48.79553" lon="7.99528">
        <ele>120.4</ele>
        <time>2020-06-28T08:42:22Z</time>
      </trkpt>
      <trkpt lat="48.79548" lon="7.99525">
        <ele>120.4</ele>
        <time>2020-06-28T08:42:23Z</time>
      </trkpt>
      <trkpt lat="48.79542" lon="7.99522">
        <ele>120.5</ele>
        <time>2020-06-28T08:42:24Z</time>
      </trkpt>
      <trkpt lat="48.79537" lon="7.99518">
        <ele>120.5</ele>
        <time>2020-06-28T08:42:25Z</time>
      </trkpt>
      <trkpt lat="48.79531" lon="7.99514">
        <ele>120.6</ele>
        <time>2020-06-28T08:42:26Z</time>
      </trkpt>
      <trkpt lat="48.79525" lon="7.99509">
        <ele>120.6</ele>
        <time>2020-06-28T08:42:27Z</time>
      </trkpt>
      <trkpt lat="48.7952" lon="7.99506">
        <ele>120.6</ele>
        <time>2020-06-28T08:42:28Z</time>
      </trkpt>
      <trkpt lat="48.79515" lon="7.99502">
        <ele>120.6</ele>
        <time>2020-06-28T08:42:29Z</time>
      </trkpt>
      <trkpt lat="48.7951" lon="7.99498">
        <ele>120.6</ele>
        <time>2020-06-28T08:42:30Z</time>
      </trkpt>
      <trkpt lat="48.79504" lon="7.99493">
        <ele>120.5</ele>
        <time>2020-06-28T08:42:31Z</time>
      </trkpt>
      <trkpt lat="48.79501" lon="7.9949">
        <ele>120.5</ele>
        <time>2020-06-28T08:42:32Z</time>
      </trkpt>
      <trkpt lat="48.79494" lon="7.99482">
        <ele>120.5</ele>
        <time>2020-06-28T08:42:33Z</time>
      </trkpt>
      <trkpt lat="48.7949" lon="7.99477">
        <ele>120.5</ele>
        <time>2020-06-28T08:42:34Z</time>
      </trkpt>
      <trkpt lat="48.79485" lon="7.99472">
        <ele>120.4</ele>
        <time>2020-06-28T08:42:35Z</time>
      </trkpt>
      <trkpt lat="48.79481" lon="7.99467">
        <ele>120.4</ele>
        <time>2020-06-28T08:42:36Z</time>
      </trkpt>
      <trkpt lat="48.79476" lon="7.99462">
        <ele>120.4</ele>
        <time>2020-06-28T08:42:37Z</time>
      </trkpt>
      <trkpt lat="48.79471" lon="7.99454">
        <ele>120.4</ele>
        <time>2020-06-28T08:42:38Z</time>
      </trkpt>
      <trkpt lat="48.79465" lon="7.99449">
        <ele>120.3</ele>
        <time>2020-06-28T08:42:39Z</time>
      </trkpt>
      <trkpt lat="48.79461" lon="7.99445">
        <ele>120.3</ele>
        <time>2020-06-28T08:42:40Z</time>
      </trkpt>
      <trkpt lat="48.79456" lon="7.9944">
        <ele>120.3</ele>
        <time>2020-06-28T08:42:41Z</time>
      </trkpt>
      <trkpt lat="48.79452" lon="7.99436">
        <ele>120.3</ele>
        <time>2020-06-28T08:42:42Z</time>
      </trkpt>
      <trkpt lat="48.79449" lon="7.99433">
        <ele>120.3</ele>
        <time>2020-06-28T08:42:43Z</time>
      </trkpt>
      <trkpt lat="48.79444" lon="7.9943">
        <ele>120.3</ele>
        <time>2020-06-28T08:42:44Z</time>
      </trkpt>
      <trkpt lat="48.79438" lon="7.99428">
        <ele>120.3</ele>
        <time>2020-06-28T08:42:45Z</time>
      </trkpt>
      <trkpt lat="48.79434" lon="7.99427">
        <ele>120.3</ele>
        <time>2020-06-28T08:42:46Z</time>
      </trkpt>
      <trkpt lat="48.7943" lon="7.99426">
        <ele>120.3</ele>
        <time>2020-06-28T08:42:47Z</time>
      </trkpt>
      <trkpt lat="48.79425" lon="7.99423">
        <ele>120.3</ele>
        <time>2020-06-28T08:42:48Z</time>
      </trkpt>
      <trkpt lat="48.79419" lon="7.99422">
        <ele>120.3</ele>
        <time>2020-06-28T08:42:49Z</time>
      </trkpt>
      <trkpt lat="48.79415" lon="7.99422">
        <ele>120.3</ele>
        <time>2020-06-28T08:42:50Z</time>
      </trkpt>
      <trkpt lat="48.7941" lon="7.99421">
        <ele>120.3</ele>
        <time>2020-06-28T08:42:51Z</time>
      </trkpt>
      <trkpt lat="48.79404" lon="7.99421">
        <ele>120.4</ele>
        <time>2020-06-28T08:42:52Z</time>
      </trkpt>
      <trkpt lat="48.79398" lon="7.99421">
        <ele>120.4</ele>
        <time>2020-06-28T08:42:53Z</time>
      </trkpt>
      <trkpt lat="48.79393" lon="7.99421">
        <ele>120.4</ele>
        <time>2020-06-28T08:42:54Z</time>
      </trkpt>
      <trkpt lat="48.79388" lon="7.99421">
        <ele>120.4</ele>
        <time>2020-06-28T08:42:55Z</time>
      </trkpt>
      <trkpt lat="48.79381" lon="7.9942">
        <ele>120.5</ele>
        <time>2020-06-28T08:42:56Z</time>
      </trkpt>
      <trkpt lat="48.79375" lon="7.99421">
        <ele>120.5</ele>
        <time>2020-06-28T08:42:57Z</time>
      </trkpt>
      <trkpt lat="48.7937" lon="7.9942">
        <ele>120.5</ele>
        <time>2020-06-28T08:42:58Z</time>
      </trkpt>
      <trkpt lat="48.79365" lon="7.9942">
        <ele>120.4</ele>
        <time>2020-06-28T08:42:59Z</time>
      </trkpt>
      <trkpt lat="48.7936" lon="7.9942">
        <ele>120.4</ele>
        <time>2020-06-28T08:43:00Z</time>
      </trkpt>
      <trkpt lat="48.79354" lon="7.9942">
        <ele>120.4</ele>
        <time>2020-06-28T08:43:01Z</time>
      </trkpt>
      <trkpt lat="48.79349" lon="7.9942">
        <ele>120.4</ele>
        <time>2020-06-28T08:43:02Z</time>
      </trkpt>
      <trkpt lat="48.79343" lon="7.99419">
        <ele>120.4</ele>
        <time>2020-06-28T08:43:03Z</time>
      </trkpt>
      <trkpt lat="48.79337" lon="7.99418">
        <ele>120.4</ele>
        <time>2020-06-28T08:43:04Z</time>
      </trkpt>
      <trkpt lat="48.79331" lon="7.99418">
        <ele>120.4</ele>
        <time>2020-06-28T08:43:05Z</time>
      </trkpt>
      <trkpt lat="48.79326" lon="7.99418">
        <ele>120.4</ele>
        <time>2020-06-28T08:43:06Z</time>
      </trkpt>
      <trkpt lat="48.79321" lon="7.99419">
        <ele>120.5</ele>
        <time>2020-06-28T08:43:07Z</time>
      </trkpt>
      <trkpt lat="48.79316" lon="7.99419">
        <ele>120.5</ele>
        <time>2020-06-28T08:43:08Z</time>
      </trkpt>
      <trkpt lat="48.79311" lon="7.99419">
        <ele>120.5</ele>
        <time>2020-06-28T08:43:09Z</time>
      </trkpt>
      <trkpt lat="48.79307" lon="7.99421">
        <ele>120.5</ele>
        <time>2020-06-28T08:43:10Z</time>
      </trkpt>
      <trkpt lat="48.79303" lon="7.99421">
        <ele>120.5</ele>
        <time>2020-06-28T08:43:11Z</time>
      </trkpt>
      <trkpt lat="48.793" lon="7.99423">
        <ele>120.5</ele>
        <time>2020-06-28T08:43:12Z</time>
      </trkpt>
      <trkpt lat="48.79296" lon="7.99423">
        <ele>120.5</ele>
        <time>2020-06-28T08:43:13Z</time>
      </trkpt>
      <trkpt lat="48.79291" lon="7.99422">
        <ele>120.5</ele>
        <time>2020-06-28T08:43:14Z</time>
      </trkpt>
      <trkpt lat="48.79287" lon="7.99419">
        <ele>120.5</ele>
        <time>2020-06-28T08:43:15Z</time>
      </trkpt>
      <trkpt lat="48.79283" lon="7.99413">
        <ele>120.5</ele>
        <time>2020-06-28T08:43:16Z</time>
      </trkpt>
      <trkpt lat="48.7928" lon="7.99406">
        <ele>120.5</ele>
        <time>2020-06-28T08:43:17Z</time>
      </trkpt>
      <trkpt lat="48.79277" lon="7.994">
        <ele>120.6</ele>
        <time>2020-06-28T08:43:18Z</time>
      </trkpt>
      <trkpt lat="48.79274" lon="7.99392">
        <ele>120.6</ele>
        <time>2020-06-28T08:43:19Z</time>
      </trkpt>
      <trkpt lat="48.79272" lon="7.99386">
        <ele>120.6</ele>
        <time>2020-06-28T08:43:20Z</time>
      </trkpt>
      <trkpt lat="48.79269" lon="7.9938">
        <ele>120.6</ele>
        <time>2020-06-28T08:43:21Z</time>
      </trkpt>
      <trkpt lat="48.79265" lon="7.99374">
        <ele>120.7</ele>
        <time>2020-06-28T08:43:22Z</time>
      </trkpt>
      <trkpt lat="48.79262" lon="7.99368">
        <ele>120.7</ele>
        <time>2020-06-28T08:43:23Z</time>
      </trkpt>
      <trkpt lat="48.79259" lon="7.99362">
        <ele>120.7</ele>
        <time>2020-06-28T08:43:24Z</time>
      </trkpt>
      <trkpt lat="48.79255" lon="7.99353">
        <ele>120.7</ele>
        <time>2020-06-28T08:43:25Z</time>
      </trkpt>
      <trkpt lat="48.79252" lon="7.99346">
        <ele>120.8</ele>
        <time>2020-06-28T08:43:26Z</time>
      </trkpt>
      <trkpt lat="48.79248" lon="7.99339">
        <ele>120.8</ele>
        <time>2020-06-28T08:43:27Z</time>
      </trkpt>
      <trkpt lat="48.79247" lon="7.99334">
        <ele>120.8</ele>
        <time>2020-06-28T08:43:28Z</time>
      </trkpt>
      <trkpt lat="48.79244" lon="7.99329">
        <ele>120.9</ele>
        <time>2020-06-28T08:43:29Z</time>
      </trkpt>
      <trkpt lat="48.79241" lon="7.99324">
        <ele>120.9</ele>
        <time>2020-06-28T08:43:30Z</time>
      </trkpt>
      <trkpt lat="48.79237" lon="7.99317">
        <ele>120.9</ele>
        <time>2020-06-28T08:43:31Z</time>
      </trkpt>
      <trkpt lat="48.79233" lon="7.99314">
        <ele>120.9</ele>
        <time>2020-06-28T08:43:32Z</time>
      </trkpt>
      <trkpt lat="48.7923" lon="7.99309">
        <ele>120.9</ele>
        <time>2020-06-28T08:43:33Z</time>
      </trkpt>
      <trkpt lat="48.79226" lon="7.99303">
        <ele>120.9</ele>
        <time>2020-06-28T08:43:34Z</time>
      </trkpt>
      <trkpt lat="48.79223" lon="7.99298">
        <ele>120.9</ele>
        <time>2020-06-28T08:43:35Z</time>
      </trkpt>
      <trkpt lat="48.79218" lon="7.99291">
        <ele>120.9</ele>
        <time>2020-06-28T08:43:36Z</time>
      </trkpt>
      <trkpt lat="48.79215" lon="7.99284">
        <ele>120.9</ele>
        <time>2020-06-28T08:43:37Z</time>
      </trkpt>
      <trkpt lat="48.79212" lon="7.99278">
        <ele>120.9</ele>
        <time>2020-06-28T08:43:38Z</time>
      </trkpt>
      <trkpt lat="48.79209" lon="7.99272">
        <ele>120.9</ele>
        <time>2020-06-28T08:43:39Z</time>
      </trkpt>
      <trkpt lat="48.79204" lon="7.99268">
        <ele>120.9</ele>
        <time>2020-06-28T08:43:40Z</time>
      </trkpt>
      <trkpt lat="48.79201" lon="7.99261">
        <ele>120.9</ele>
        <time>2020-06-28T08:43:41Z</time>
      </trkpt>
      <trkpt lat="48.79198" lon="7.99256">
        <ele>120.9</ele>
        <time>2020-06-28T08:43:42Z</time>
      </trkpt>
      <trkpt lat="48.79194" lon="7.9925">
        <ele>120.9</ele>
        <time>2020-06-28T08:43:43Z</time>
      </trkpt>
      <trkpt lat="48.79191" lon="7.99244">
        <ele>120.9</ele>
        <time>2020-06-28T08:43:44Z</time>
      </trkpt>
      <trkpt lat="48.79188" lon="7.99237">
        <ele>120.9</ele>
        <time>2020-06-28T08:43:45Z</time>
      </trkpt>
      <trkpt lat="48.79184" lon="7.99232">
        <ele>120.9</ele>
        <time>2020-06-28T08:43:46Z</time>
      </trkpt>
      <trkpt lat="48.79181" lon="7.99226">
        <ele>120.9</ele>
        <time>2020-06-28T08:43:47Z</time>
      </trkpt>
      <trkpt lat="48.79178" lon="7.9922">
        <ele>120.9</ele>
        <time>2020-06-28T08:43:48Z</time>
      </trkpt>
      <trkpt lat="48.79176" lon="7.99215">
        <ele>120.9</ele>
        <time>2020-06-28T08:43:49Z</time>
      </trkpt>
      <trkpt lat="48.79172" lon="7.9921">
        <ele>120.8</ele>
        <time>2020-06-28T08:43:50Z</time>
      </trkpt>
      <trkpt lat="48.7917" lon="7.99205">
        <ele>120.8</ele>
        <time>2020-06-28T08:43:51Z</time>
      </trkpt>
      <trkpt lat="48.79167" lon="7.99199">
        <ele>120.8</ele>
        <time>2020-06-28T08:43:52Z</time>
      </trkpt>
      <trkpt lat="48.79164" lon="7.99192">
        <ele>120.8</ele>
        <time>2020-06-28T08:43:53Z</time>
      </trkpt>
      <trkpt lat="48.79161" lon="7.99185">
        <ele>120.8</ele>
        <time>2020-06-28T08:43:54Z</time>
      </trkpt>
      <trkpt lat="48.79159" lon="7.99177">
        <ele>120.7</ele>
        <time>2020-06-28T08:43:55Z</time>
      </trkpt>
      <trkpt lat="48.79158" lon="7.9917">
        <ele>120.7</ele>
        <time>2020-06-28T08:43:56Z</time>
      </trkpt>
      <trkpt lat="48.79156" lon="7.99163">
        <ele>120.8</ele>
        <time>2020-06-28T08:43:57Z</time>
      </trkpt>
      <trkpt lat="48.79154" lon="7.99157">
        <ele>120.8</ele>
        <time>2020-06-28T08:43:58Z</time>
      </trkpt>
      <trkpt lat="48.79152" lon="7.99151">
        <ele>120.8</ele>
        <time>2020-06-28T08:43:59Z</time>
      </trkpt>
      <trkpt lat="48.79151" lon="7.99145">
        <ele>120.8</ele>
        <time>2020-06-28T08:44:00Z</time>
      </trkpt>
      <trkpt lat="48.79149" lon="7.99139">
        <ele>120.8</ele>
        <time>2020-06-28T08:44:01Z</time>
      </trkpt>
      <trkpt lat="48.79147" lon="7.9913">
        <ele>120.9</ele>
        <time>2020-06-28T08:44:02Z</time>
      </trkpt>
      <trkpt lat="48.79145" lon="7.99124">
        <ele>120.9</ele>
        <time>2020-06-28T08:44:03Z</time>
      </trkpt>
      <trkpt lat="48.79142" lon="7.99118">
        <ele>120.9</ele>
        <time>2020-06-28T08:44:04Z</time>
      </trkpt>
      <trkpt lat="48.7914" lon="7.99111">
        <ele>120.9</ele>
        <time>2020-06-28T08:44:05Z</time>
      </trkpt>
      <trkpt lat="48.79138" lon="7.99105">
        <ele>120.9</ele>
        <time>2020-06-28T08:44:06Z</time>
      </trkpt>
      <trkpt lat="48.79136" lon="7.99099">
        <ele>120.9</ele>
        <time>2020-06-28T08:44:07Z</time>
      </trkpt>
      <trkpt lat="48.79134" lon="7.99093">
        <ele>120.9</ele>
        <time>2020-06-28T08:44:08Z</time>
      </trkpt>
      <trkpt lat="48.79131" lon="7.99086">
        <ele>120.9</ele>
        <time>2020-06-28T08:44:09Z</time>
      </trkpt>
      <trkpt lat="48.79128" lon="7.99079">
        <ele>120.9</ele>
        <time>2020-06-28T08:44:10Z</time>
      </trkpt>
      <trkpt lat="48.79125" lon="7.99074">
        <ele>120.9</ele>
        <time>2020-06-28T08:44:11Z</time>
      </trkpt>
      <trkpt lat="48.79123" lon="7.99067">
        <ele>121</ele>
        <time>2020-06-28T08:44:12Z</time>
      </trkpt>
      <trkpt lat="48.79119" lon="7.99063">
        <ele>121</ele>
        <time>2020-06-28T08:44:13Z</time>
      </trkpt>
      <trkpt lat="48.79116" lon="7.99057">
        <ele>121</ele>
        <time>2020-06-28T08:44:14Z</time>
      </trkpt>
      <trkpt lat="48.79113" lon="7.9905">
        <ele>120.9</ele>
        <time>2020-06-28T08:44:15Z</time>
      </trkpt>
      <trkpt lat="48.7911" lon="7.99043">
        <ele>120.8</ele>
        <time>2020-06-28T08:44:16Z</time>
      </trkpt>
      <trkpt lat="48.79107" lon="7.99038">
        <ele>120.8</ele>
        <time>2020-06-28T08:44:17Z</time>
      </trkpt>
      <trkpt lat="48.79103" lon="7.99033">
        <ele>120.7</ele>
        <time>2020-06-28T08:44:18Z</time>
      </trkpt>
      <trkpt lat="48.791" lon="7.99027">
        <ele>120.6</ele>
        <time>2020-06-28T08:44:19Z</time>
      </trkpt>
      <trkpt lat="48.79096" lon="7.99022">
        <ele>120.6</ele>
        <time>2020-06-28T08:44:20Z</time>
      </trkpt>
      <trkpt lat="48.79093" lon="7.99015">
        <ele>120.6</ele>
        <time>2020-06-28T08:44:21Z</time>
      </trkpt>
      <trkpt lat="48.7909" lon="7.99009">
        <ele>120.6</ele>
        <time>2020-06-28T08:44:22Z</time>
      </trkpt>
      <trkpt lat="48.79086" lon="7.99003">
        <ele>120.6</ele>
        <time>2020-06-28T08:44:23Z</time>
      </trkpt>
      <trkpt lat="48.79082" lon="7.98996">
        <ele>120.6</ele>
        <time>2020-06-28T08:44:24Z</time>
      </trkpt>
      <trkpt lat="48.79078" lon="7.9899">
        <ele>120.6</ele>
        <time>2020-06-28T08:44:25Z</time>
      </trkpt>
      <trkpt lat="48.79075" lon="7.98984">
        <ele>120.6</ele>
        <time>2020-06-28T08:44:26Z</time>
      </trkpt>
      <trkpt lat="48.79071" lon="7.98977">
        <ele>120.6</ele>
        <time>2020-06-28T08:44:27Z</time>
      </trkpt>
      <trkpt lat="48.79068" lon="7.98971">
        <ele>120.6</ele>
        <time>2020-06-28T08:44:28Z</time>
      </trkpt>
      <trkpt lat="48.79064" lon="7.98965">
        <ele>120.6</ele>
        <time>2020-06-28T08:44:29Z</time>
      </trkpt>
      <trkpt lat="48.7906" lon="7.9896">
        <ele>120.6</ele>
        <time>2020-06-28T08:44:30Z</time>
      </trkpt>
      <trkpt lat="48.79057" lon="7.98956">
        <ele>120.6</ele>
        <time>2020-06-28T08:44:31Z</time>
      </trkpt>
      <trkpt lat="48.79055" lon="7.98951">
        <ele>120.6</ele>
        <time>2020-06-28T08:44:32Z</time>
      </trkpt>
      <trkpt lat="48.79051" lon="7.98944">
        <ele>120.6</ele>
        <time>2020-06-28T08:44:33Z</time>
      </trkpt>
      <trkpt lat="48.79048" lon="7.98938">
        <ele>120.6</ele>
        <time>2020-06-28T08:44:34Z</time>
      </trkpt>
      <trkpt lat="48.79045" lon="7.98932">
        <ele>120.6</ele>
        <time>2020-06-28T08:44:35Z</time>
      </trkpt>
      <trkpt lat="48.79042" lon="7.98926">
        <ele>120.6</ele>
        <time>2020-06-28T08:44:36Z</time>
      </trkpt>
      <trkpt lat="48.79039" lon="7.98919">
        <ele>120.6</ele>
        <time>2020-06-28T08:44:37Z</time>
      </trkpt>
      <trkpt lat="48.79037" lon="7.98912">
        <ele>120.6</ele>
        <time>2020-06-28T08:44:38Z</time>
      </trkpt>
      <trkpt lat="48.79034" lon="7.98905">
        <ele>120.7</ele>
        <time>2020-06-28T08:44:39Z</time>
      </trkpt>
      <trkpt lat="48.79031" lon="7.98898">
        <ele>120.7</ele>
        <time>2020-06-28T08:44:40Z</time>
      </trkpt>
      <trkpt lat="48.79028" lon="7.98891">
        <ele>120.7</ele>
        <time>2020-06-28T08:44:41Z</time>
      </trkpt>
      <trkpt lat="48.79025" lon="7.98884">
        <ele>120.7</ele>
        <time>2020-06-28T08:44:42Z</time>
      </trkpt>
      <trkpt lat="48.79021" lon="7.98878">
        <ele>120.6</ele>
        <time>2020-06-28T08:44:43Z</time>
      </trkpt>
      <trkpt lat="48.79018" lon="7.98871">
        <ele>120.6</ele>
        <time>2020-06-28T08:44:44Z</time>
      </trkpt>
      <trkpt lat="48.79015" lon="7.98864">
        <ele>120.6</ele>
        <time>2020-06-28T08:44:45Z</time>
      </trkpt>
      <trkpt lat="48.79012" lon="7.98856">
        <ele>120.6</ele>
        <time>2020-06-28T08:44:46Z</time>
      </trkpt>
      <trkpt lat="48.79009" lon="7.98848">
        <ele>120.5</ele>
        <time>2020-06-28T08:44:47Z</time>
      </trkpt>
      <trkpt lat="48.79006" lon="7.98839">
        <ele>120.5</ele>
        <time>2020-06-28T08:44:48Z</time>
      </trkpt>
      <trkpt lat="48.79004" lon="7.98832">
        <ele>120.5</ele>
        <time>2020-06-28T08:44:49Z</time>
      </trkpt>
      <trkpt lat="48.79001" lon="7.98825">
        <ele>120.5</ele>
        <time>2020-06-28T08:44:50Z</time>
      </trkpt>
      <trkpt lat="48.78998" lon="7.98818">
        <ele>120.5</ele>
        <time>2020-06-28T08:44:51Z</time>
      </trkpt>
      <trkpt lat="48.78996" lon="7.98811">
        <ele>120.5</ele>
        <time>2020-06-28T08:44:52Z</time>
      </trkpt>
      <trkpt lat="48.78993" lon="7.98804">
        <ele>120.5</ele>
        <time>2020-06-28T08:44:53Z</time>
      </trkpt>
      <trkpt lat="48.7899" lon="7.98798">
        <ele>120.6</ele>
        <time>2020-06-28T08:44:54Z</time>
      </trkpt>
      <trkpt lat="48.78987" lon="7.98791">
        <ele>120.6</ele>
        <time>2020-06-28T08:44:55Z</time>
      </trkpt>
      <trkpt lat="48.78985" lon="7.98783">
        <ele>120.6</ele>
        <time>2020-06-28T08:44:56Z</time>
      </trkpt>
      <trkpt lat="48.78982" lon="7.98775">
        <ele>120.6</ele>
        <time>2020-06-28T08:44:57Z</time>
      </trkpt>
      <trkpt lat="48.7898" lon="7.98769">
        <ele>120.6</ele>
        <time>2020-06-28T08:44:58Z</time>
      </trkpt>
      <trkpt lat="48.78976" lon="7.98761">
        <ele>120.6</ele>
        <time>2020-06-28T08:44:59Z</time>
      </trkpt>
      <trkpt lat="48.78973" lon="7.98753">
        <ele>120.6</ele>
        <time>2020-06-28T08:45:00Z</time>
      </trkpt>
      <trkpt lat="48.7897" lon="7.98746">
        <ele>120.7</ele>
        <time>2020-06-28T08:45:01Z</time>
      </trkpt>
      <trkpt lat="48.78967" lon="7.98738">
        <ele>120.7</ele>
        <time>2020-06-28T08:45:02Z</time>
      </trkpt>
      <trkpt lat="48.78965" lon="7.9873">
        <ele>120.8</ele>
        <time>2020-06-28T08:45:03Z</time>
      </trkpt>
      <trkpt lat="48.78962" lon="7.98723">
        <ele>120.8</ele>
        <time>2020-06-28T08:45:04Z</time>
      </trkpt>
      <trkpt lat="48.7896" lon="7.98715">
        <ele>120.8</ele>
        <time>2020-06-28T08:45:05Z</time>
      </trkpt>
      <trkpt lat="48.78958" lon="7.98706">
        <ele>120.8</ele>
        <time>2020-06-28T08:45:06Z</time>
      </trkpt>
      <trkpt lat="48.78958" lon="7.98699">
        <ele>120.8</ele>
        <time>2020-06-28T08:45:07Z</time>
      </trkpt>
      <trkpt lat="48.78957" lon="7.98689">
        <ele>120.7</ele>
        <time>2020-06-28T08:45:08Z</time>
      </trkpt>
      <trkpt lat="48.78957" lon="7.98681">
        <ele>120.7</ele>
        <time>2020-06-28T08:45:09Z</time>
      </trkpt>
      <trkpt lat="48.78956" lon="7.98674">
        <ele>120.6</ele>
        <time>2020-06-28T08:45:10Z</time>
      </trkpt>
      <trkpt lat="48.78955" lon="7.98667">
        <ele>120.6</ele>
        <time>2020-06-28T08:45:11Z</time>
      </trkpt>
      <trkpt lat="48.78953" lon="7.9866">
        <ele>120.6</ele>
        <time>2020-06-28T08:45:12Z</time>
      </trkpt>
      <trkpt lat="48.78952" lon="7.98652">
        <ele>120.6</ele>
        <time>2020-06-28T08:45:13Z</time>
      </trkpt>
      <trkpt lat="48.78951" lon="7.98645">
        <ele>120.6</ele>
        <time>2020-06-28T08:45:14Z</time>
      </trkpt>
      <trkpt lat="48.7895" lon="7.98638">
        <ele>120.6</ele>
        <time>2020-06-28T08:45:15Z</time>
      </trkpt>
      <trkpt lat="48.78948" lon="7.98631">
        <ele>120.6</ele>
        <time>2020-06-28T08:45:16Z</time>
      </trkpt>
      <trkpt lat="48.78946" lon="7.98624">
        <ele>120.6</ele>
        <time>2020-06-28T08:45:17Z</time>
      </trkpt>
      <trkpt lat="48.78945" lon="7.98617">
        <ele>120.6</ele>
        <time>2020-06-28T08:45:18Z</time>
      </trkpt>
      <trkpt lat="48.78944" lon="7.98609">
        <ele>120.5</ele>
        <time>2020-06-28T08:45:19Z</time>
      </trkpt>
      <trkpt lat="48.78943" lon="7.98602">
        <ele>120.5</ele>
        <time>2020-06-28T08:45:20Z</time>
      </trkpt>
      <trkpt lat="48.78942" lon="7.98595">
        <ele>120.5</ele>
        <time>2020-06-28T08:45:21Z</time>
      </trkpt>
      <trkpt lat="48.78941" lon="7.98587">
        <ele>120.6</ele>
        <time>2020-06-28T08:45:22Z</time>
      </trkpt>
      <trkpt lat="48.7894" lon="7.98578">
        <ele>120.6</ele>
        <time>2020-06-28T08:45:23Z</time>
      </trkpt>
      <trkpt lat="48.78938" lon="7.9857">
        <ele>120.6</ele>
        <time>2020-06-28T08:45:24Z</time>
      </trkpt>
      <trkpt lat="48.78937" lon="7.98562">
        <ele>120.6</ele>
        <time>2020-06-28T08:45:25Z</time>
      </trkpt>
      <trkpt lat="48.78936" lon="7.98554">
        <ele>120.6</ele>
        <time>2020-06-28T08:45:26Z</time>
      </trkpt>
      <trkpt lat="48.78935" lon="7.98547">
        <ele>120.7</ele>
        <time>2020-06-28T08:45:27Z</time>
      </trkpt>
      <trkpt lat="48.78933" lon="7.9854">
        <ele>120.7</ele>
        <time>2020-06-28T08:45:28Z</time>
      </trkpt>
      <trkpt lat="48.78932" lon="7.98532">
        <ele>120.7</ele>
        <time>2020-06-28T08:45:29Z</time>
      </trkpt>
      <trkpt lat="48.78931" lon="7.98525">
        <ele>120.7</ele>
        <time>2020-06-28T08:45:30Z</time>
      </trkpt>
      <trkpt lat="48.7893" lon="7.98517">
        <ele>120.7</ele>
        <time>2020-06-28T08:45:31Z</time>
      </trkpt>
      <trkpt lat="48.78929" lon="7.98509">
        <ele>120.8</ele>
        <time>2020-06-28T08:45:32Z</time>
      </trkpt>
      <trkpt lat="48.78928" lon="7.98502">
        <ele>120.8</ele>
        <time>2020-06-28T08:45:33Z</time>
      </trkpt>
      <trkpt lat="48.78927" lon="7.98494">
        <ele>120.8</ele>
        <time>2020-06-28T08:45:34Z</time>
      </trkpt>
      <trkpt lat="48.78926" lon="7.98487">
        <ele>120.8</ele>
        <time>2020-06-28T08:45:35Z</time>
      </trkpt>
      <trkpt lat="48.78925" lon="7.98479">
        <ele>120.9</ele>
        <time>2020-06-28T08:45:36Z</time>
      </trkpt>
      <trkpt lat="48.78924" lon="7.98472">
        <ele>120.9</ele>
        <time>2020-06-28T08:45:37Z</time>
      </trkpt>
      <trkpt lat="48.78922" lon="7.98464">
        <ele>120.9</ele>
        <time>2020-06-28T08:45:38Z</time>
      </trkpt>
      <trkpt lat="48.78922" lon="7.98457">
        <ele>120.9</ele>
        <time>2020-06-28T08:45:39Z</time>
      </trkpt>
      <trkpt lat="48.78921" lon="7.9845">
        <ele>120.9</ele>
        <time>2020-06-28T08:45:40Z</time>
      </trkpt>
      <trkpt lat="48.7892" lon="7.98443">
        <ele>120.9</ele>
        <time>2020-06-28T08:45:41Z</time>
      </trkpt>
      <trkpt lat="48.78919" lon="7.98436">
        <ele>120.9</ele>
        <time>2020-06-28T08:45:42Z</time>
      </trkpt>
      <trkpt lat="48.78919" lon="7.9843">
        <ele>121</ele>
        <time>2020-06-28T08:45:43Z</time>
      </trkpt>
      <trkpt lat="48.78918" lon="7.98424">
        <ele>121</ele>
        <time>2020-06-28T08:45:44Z</time>
      </trkpt>
      <trkpt lat="48.78918" lon="7.98419">
        <ele>121</ele>
        <time>2020-06-28T08:45:45Z</time>
      </trkpt>
      <trkpt lat="48.78917" lon="7.98412">
        <ele>121.1</ele>
        <time>2020-06-28T08:45:46Z</time>
      </trkpt>
      <trkpt lat="48.78916" lon="7.98405">
        <ele>121.1</ele>
        <time>2020-06-28T08:45:47Z</time>
      </trkpt>
      <trkpt lat="48.78916" lon="7.98399">
        <ele>121.1</ele>
        <time>2020-06-28T08:45:48Z</time>
      </trkpt>
      <trkpt lat="48.78916" lon="7.98393">
        <ele>121.1</ele>
        <time>2020-06-28T08:45:49Z</time>
      </trkpt>
      <trkpt lat="48.78916" lon="7.98388">
        <ele>121.2</ele>
        <time>2020-06-28T08:45:50Z</time>
      </trkpt>
      <trkpt lat="48.78916" lon="7.98383">
        <ele>121.2</ele>
        <time>2020-06-28T08:45:51Z</time>
      </trkpt>
      <trkpt lat="48.78916" lon="7.98378">
        <ele>122</ele>
        <time>2020-06-28T08:45:52Z</time>
      </trkpt>
      <trkpt lat="48.78917" lon="7.98374">
        <ele>121.9</ele>
        <time>2020-06-28T08:45:53Z</time>
      </trkpt>
      <trkpt lat="48.78919" lon="7.9837">
        <ele>121.8</ele>
        <time>2020-06-28T08:45:54Z</time>
      </trkpt>
      <trkpt lat="48.78922" lon="7.98368">
        <ele>121.7</ele>
        <time>2020-06-28T08:45:55Z</time>
      </trkpt>
      <trkpt lat="48.78923" lon="7.98367">
        <ele>121.7</ele>
        <time>2020-06-28T08:45:56Z</time>
      </trkpt>
      <trkpt lat="48.78925" lon="7.98362">
        <ele>121.6</ele>
        <time>2020-06-28T08:45:57Z</time>
      </trkpt>
      <trkpt lat="48.78925" lon="7.9836">
        <ele>121.5</ele>
        <time>2020-06-28T08:45:58Z</time>
      </trkpt>
      <trkpt lat="48.78925" lon="7.98356">
        <ele>121.3</ele>
        <time>2020-06-28T08:45:59Z</time>
      </trkpt>
      <trkpt lat="48.78923" lon="7.98351">
        <ele>121.3</ele>
        <time>2020-06-28T08:46:00Z</time>
      </trkpt>
      <trkpt lat="48.78921" lon="7.98349">
        <ele>121.3</ele>
        <time>2020-06-28T08:46:01Z</time>
      </trkpt>
      <trkpt lat="48.78919" lon="7.98346">
        <ele>121.3</ele>
        <time>2020-06-28T08:46:02Z</time>
      </trkpt>
      <trkpt lat="48.78916" lon="7.98343">
        <ele>121.3</ele>
        <time>2020-06-28T08:46:03Z</time>
      </trkpt>
      <trkpt lat="48.78914" lon="7.9834">
        <ele>121.3</ele>
        <time>2020-06-28T08:46:04Z</time>
      </trkpt>
      <trkpt lat="48.78911" lon="7.98336">
        <ele>121.3</ele>
        <time>2020-06-28T08:46:05Z</time>
      </trkpt>
      <trkpt lat="48.78908" lon="7.98335">
        <ele>121.3</ele>
        <time>2020-06-28T08:46:06Z</time>
      </trkpt>
      <trkpt lat="48.78904" lon="7.98334">
        <ele>121.3</ele>
        <time>2020-06-28T08:46:07Z</time>
      </trkpt>
      <trkpt lat="48.789" lon="7.98335">
        <ele>121.4</ele>
        <time>2020-06-28T08:46:08Z</time>
      </trkpt>
      <trkpt lat="48.78895" lon="7.98338">
        <ele>121.4</ele>
        <time>2020-06-28T08:46:09Z</time>
      </trkpt>
      <trkpt lat="48.78891" lon="7.98342">
        <ele>121.5</ele>
        <time>2020-06-28T08:46:10Z</time>
      </trkpt>
      <trkpt lat="48.78886" lon="7.98346">
        <ele>121.9</ele>
        <time>2020-06-28T08:46:11Z</time>
      </trkpt>
      <trkpt lat="48.78881" lon="7.98348">
        <ele>121.8</ele>
        <time>2020-06-28T08:46:12Z</time>
      </trkpt>
      <trkpt lat="48.78876" lon="7.9835">
        <ele>121.6</ele>
        <time>2020-06-28T08:46:13Z</time>
      </trkpt>
      <trkpt lat="48.78871" lon="7.9835">
        <ele>121.4</ele>
        <time>2020-06-28T08:46:14Z</time>
      </trkpt>
      <trkpt lat="48.78865" lon="7.9835">
        <ele>121.2</ele>
        <time>2020-06-28T08:46:15Z</time>
      </trkpt>
      <trkpt lat="48.78859" lon="7.98349">
        <ele>121.1</ele>
        <time>2020-06-28T08:46:16Z</time>
      </trkpt>
      <trkpt lat="48.78853" lon="7.9835">
        <ele>120.9</ele>
        <time>2020-06-28T08:46:17Z</time>
      </trkpt>
      <trkpt lat="48.78848" lon="7.98349">
        <ele>120.8</ele>
        <time>2020-06-28T08:46:18Z</time>
      </trkpt>
      <trkpt lat="48.78843" lon="7.98349">
        <ele>120.7</ele>
        <time>2020-06-28T08:46:19Z</time>
      </trkpt>
      <trkpt lat="48.78837" lon="7.9835">
        <ele>120.6</ele>
        <time>2020-06-28T08:46:20Z</time>
      </trkpt>
      <trkpt lat="48.78831" lon="7.98349">
        <ele>120.5</ele>
        <time>2020-06-28T08:46:21Z</time>
      </trkpt>
      <trkpt lat="48.78826" lon="7.98349">
        <ele>120.4</ele>
        <time>2020-06-28T08:46:22Z</time>
      </trkpt>
      <trkpt lat="48.78821" lon="7.98348">
        <ele>120.4</ele>
        <time>2020-06-28T08:46:23Z</time>
      </trkpt>
      <trkpt lat="48.78814" lon="7.98348">
        <ele>120.3</ele>
        <time>2020-06-28T08:46:24Z</time>
      </trkpt>
      <trkpt lat="48.78808" lon="7.98347">
        <ele>120.3</ele>
        <time>2020-06-28T08:46:25Z</time>
      </trkpt>
      <trkpt lat="48.78802" lon="7.98347">
        <ele>120.2</ele>
        <time>2020-06-28T08:46:26Z</time>
      </trkpt>
      <trkpt lat="48.78796" lon="7.98347">
        <ele>120.2</ele>
        <time>2020-06-28T08:46:27Z</time>
      </trkpt>
      <trkpt lat="48.7879" lon="7.98348">
        <ele>120.2</ele>
        <time>2020-06-28T08:46:28Z</time>
      </trkpt>
      <trkpt lat="48.78784" lon="7.98347">
        <ele>120.2</ele>
        <time>2020-06-28T08:46:29Z</time>
      </trkpt>
      <trkpt lat="48.78779" lon="7.98347">
        <ele>120.1</ele>
        <time>2020-06-28T08:46:30Z</time>
      </trkpt>
      <trkpt lat="48.78773" lon="7.98347">
        <ele>120</ele>
        <time>2020-06-28T08:46:31Z</time>
      </trkpt>
      <trkpt lat="48.78767" lon="7.98346">
        <ele>120</ele>
        <time>2020-06-28T08:46:32Z</time>
      </trkpt>
      <trkpt lat="48.7876" lon="7.98345">
        <ele>119.9</ele>
        <time>2020-06-28T08:46:33Z</time>
      </trkpt>
      <trkpt lat="48.78754" lon="7.98345">
        <ele>119.9</ele>
        <time>2020-06-28T08:46:34Z</time>
      </trkpt>
      <trkpt lat="48.78749" lon="7.98344">
        <ele>119.9</ele>
        <time>2020-06-28T08:46:35Z</time>
      </trkpt>
      <trkpt lat="48.78744" lon="7.98343">
        <ele>120</ele>
        <time>2020-06-28T08:46:36Z</time>
      </trkpt>
      <trkpt lat="48.78738" lon="7.98343">
        <ele>120</ele>
        <time>2020-06-28T08:46:37Z</time>
      </trkpt>
      <trkpt lat="48.78731" lon="7.98343">
        <ele>120</ele>
        <time>2020-06-28T08:46:38Z</time>
      </trkpt>
      <trkpt lat="48.78725" lon="7.98342">
        <ele>120</ele>
        <time>2020-06-28T08:46:39Z</time>
      </trkpt>
      <trkpt lat="48.78719" lon="7.98342">
        <ele>120</ele>
        <time>2020-06-28T08:46:40Z</time>
      </trkpt>
      <trkpt lat="48.78713" lon="7.98342">
        <ele>120</ele>
        <time>2020-06-28T08:46:41Z</time>
      </trkpt>
      <trkpt lat="48.78707" lon="7.9834">
        <ele>120</ele>
        <time>2020-06-28T08:46:42Z</time>
      </trkpt>
      <trkpt lat="48.78701" lon="7.98339">
        <ele>120</ele>
        <time>2020-06-28T08:46:43Z</time>
      </trkpt>
      <trkpt lat="48.78695" lon="7.98338">
        <ele>120</ele>
        <time>2020-06-28T08:46:44Z</time>
      </trkpt>
      <trkpt lat="48.78689" lon="7.98337">
        <ele>120</ele>
        <time>2020-06-28T08:46:45Z</time>
      </trkpt>
      <trkpt lat="48.78683" lon="7.98336">
        <ele>119.9</ele>
        <time>2020-06-28T08:46:46Z</time>
      </trkpt>
      <trkpt lat="48.78677" lon="7.98335">
        <ele>119.9</ele>
        <time>2020-06-28T08:46:47Z</time>
      </trkpt>
      <trkpt lat="48.78671" lon="7.98335">
        <ele>119.9</ele>
        <time>2020-06-28T08:46:48Z</time>
      </trkpt>
      <trkpt lat="48.78665" lon="7.98335">
        <ele>119.9</ele>
        <time>2020-06-28T08:46:49Z</time>
      </trkpt>
      <trkpt lat="48.7866" lon="7.98336">
        <ele>119.8</ele>
        <time>2020-06-28T08:46:50Z</time>
      </trkpt>
      <trkpt lat="48.78654" lon="7.98336">
        <ele>119.8</ele>
        <time>2020-06-28T08:46:51Z</time>
      </trkpt>
      <trkpt lat="48.78649" lon="7.98336">
        <ele>119.9</ele>
        <time>2020-06-28T08:46:52Z</time>
      </trkpt>
      <trkpt lat="48.78644" lon="7.98336">
        <ele>119.9</ele>
        <time>2020-06-28T08:46:53Z</time>
      </trkpt>
      <trkpt lat="48.78639" lon="7.98336">
        <ele>119.9</ele>
        <time>2020-06-28T08:46:54Z</time>
      </trkpt>
      <trkpt lat="48.78633" lon="7.98335">
        <ele>120</ele>
        <time>2020-06-28T08:46:55Z</time>
      </trkpt>
      <trkpt lat="48.78628" lon="7.98335">
        <ele>120</ele>
        <time>2020-06-28T08:46:56Z</time>
      </trkpt>
      <trkpt lat="48.78623" lon="7.98334">
        <ele>119.9</ele>
        <time>2020-06-28T08:46:57Z</time>
      </trkpt>
      <trkpt lat="48.78618" lon="7.98333">
        <ele>119.9</ele>
        <time>2020-06-28T08:46:58Z</time>
      </trkpt>
      <trkpt lat="48.7861" lon="7.98333">
        <ele>120</ele>
        <time>2020-06-28T08:46:59Z</time>
      </trkpt>
      <trkpt lat="48.78605" lon="7.98334">
        <ele>120</ele>
        <time>2020-06-28T08:47:00Z</time>
      </trkpt>
      <trkpt lat="48.786" lon="7.98336">
        <ele>120</ele>
        <time>2020-06-28T08:47:01Z</time>
      </trkpt>
      <trkpt lat="48.78595" lon="7.98338">
        <ele>120.1</ele>
        <time>2020-06-28T08:47:02Z</time>
      </trkpt>
      <trkpt lat="48.78589" lon="7.9834">
        <ele>120.1</ele>
        <time>2020-06-28T08:47:03Z</time>
      </trkpt>
      <trkpt lat="48.78584" lon="7.98341">
        <ele>120.2</ele>
        <time>2020-06-28T08:47:04Z</time>
      </trkpt>
      <trkpt lat="48.78579" lon="7.98342">
        <ele>120.2</ele>
        <time>2020-06-28T08:47:05Z</time>
      </trkpt>
      <trkpt lat="48.78574" lon="7.98344">
        <ele>120.2</ele>
        <time>2020-06-28T08:47:06Z</time>
      </trkpt>
      <trkpt lat="48.7857" lon="7.98345">
        <ele>120.2</ele>
        <time>2020-06-28T08:47:07Z</time>
      </trkpt>
      <trkpt lat="48.78567" lon="7.98347">
        <ele>120.3</ele>
        <time>2020-06-28T08:47:08Z</time>
      </trkpt>
      <trkpt lat="48.78563" lon="7.98349">
        <ele>120.3</ele>
        <time>2020-06-28T08:47:09Z</time>
      </trkpt>
      <trkpt lat="48.78558" lon="7.98351">
        <ele>120.2</ele>
        <time>2020-06-28T08:47:10Z</time>
      </trkpt>
      <trkpt lat="48.78553" lon="7.98354">
        <ele>120.2</ele>
        <time>2020-06-28T08:47:11Z</time>
      </trkpt>
      <trkpt lat="48.78548" lon="7.98357">
        <ele>120.2</ele>
        <time>2020-06-28T08:47:12Z</time>
      </trkpt>
      <trkpt lat="48.78543" lon="7.98362">
        <ele>120.2</ele>
        <time>2020-06-28T08:47:13Z</time>
      </trkpt>
      <trkpt lat="48.78538" lon="7.98366">
        <ele>120.2</ele>
        <time>2020-06-28T08:47:14Z</time>
      </trkpt>
      <trkpt lat="48.78534" lon="7.98369">
        <ele>120.2</ele>
        <time>2020-06-28T08:47:15Z</time>
      </trkpt>
      <trkpt lat="48.78531" lon="7.98372">
        <ele>120.2</ele>
        <time>2020-06-28T08:47:16Z</time>
      </trkpt>
      <trkpt lat="48.78526" lon="7.98375">
        <ele>120.3</ele>
        <time>2020-06-28T08:47:17Z</time>
      </trkpt>
      <trkpt lat="48.78522" lon="7.98378">
        <ele>120.3</ele>
        <time>2020-06-28T08:47:18Z</time>
      </trkpt>
      <trkpt lat="48.78517" lon="7.98381">
        <ele>120.3</ele>
        <time>2020-06-28T08:47:19Z</time>
      </trkpt>
      <trkpt lat="48.78514" lon="7.98383">
        <ele>120.3</ele>
        <time>2020-06-28T08:47:20Z</time>
      </trkpt>
      <trkpt lat="48.78511" lon="7.98387">
        <ele>120.3</ele>
        <time>2020-06-28T08:47:21Z</time>
      </trkpt>
      <trkpt lat="48.78506" lon="7.98391">
        <ele>120.3</ele>
        <time>2020-06-28T08:47:22Z</time>
      </trkpt>
      <trkpt lat="48.78503" lon="7.98394">
        <ele>120.2</ele>
        <time>2020-06-28T08:47:23Z</time>
      </trkpt>
      <trkpt lat="48.78499" lon="7.98397">
        <ele>120.2</ele>
        <time>2020-06-28T08:47:24Z</time>
      </trkpt>
      <trkpt lat="48.78496" lon="7.98398">
        <ele>120.2</ele>
        <time>2020-06-28T08:47:25Z</time>
      </trkpt>
      <trkpt lat="48.78492" lon="7.98403">
        <ele>120.2</ele>
        <time>2020-06-28T08:47:26Z</time>
      </trkpt>
      <trkpt lat="48.78487" lon="7.98406">
        <ele>120.3</ele>
        <time>2020-06-28T08:47:27Z</time>
      </trkpt>
      <trkpt lat="48.78483" lon="7.98409">
        <ele>120.3</ele>
        <time>2020-06-28T08:47:28Z</time>
      </trkpt>
      <trkpt lat="48.78477" lon="7.98413">
        <ele>120.3</ele>
        <time>2020-06-28T08:47:29Z</time>
      </trkpt>
      <trkpt lat="48.78474" lon="7.98416">
        <ele>120.3</ele>
        <time>2020-06-28T08:47:30Z</time>
      </trkpt>
      <trkpt lat="48.78469" lon="7.98419">
        <ele>120.3</ele>
        <time>2020-06-28T08:47:31Z</time>
      </trkpt>
      <trkpt lat="48.78465" lon="7.98422">
        <ele>120.3</ele>
        <time>2020-06-28T08:47:32Z</time>
      </trkpt>
      <trkpt lat="48.78461" lon="7.98425">
        <ele>120.3</ele>
        <time>2020-06-28T08:47:33Z</time>
      </trkpt>
      <trkpt lat="48.78456" lon="7.98428">
        <ele>120.3</ele>
        <time>2020-06-28T08:47:34Z</time>
      </trkpt>
      <trkpt lat="48.78451" lon="7.98431">
        <ele>120.3</ele>
        <time>2020-06-28T08:47:35Z</time>
      </trkpt>
      <trkpt lat="48.78447" lon="7.98433">
        <ele>120.3</ele>
        <time>2020-06-28T08:47:36Z</time>
      </trkpt>
      <trkpt lat="48.78443" lon="7.98437">
        <ele>120.3</ele>
        <time>2020-06-28T08:47:37Z</time>
      </trkpt>
      <trkpt lat="48.78438" lon="7.98441">
        <ele>120.3</ele>
        <time>2020-06-28T08:47:38Z</time>
      </trkpt>
      <trkpt lat="48.78433" lon="7.98443">
        <ele>120.3</ele>
        <time>2020-06-28T08:47:39Z</time>
      </trkpt>
      <trkpt lat="48.78429" lon="7.98446">
        <ele>120.3</ele>
        <time>2020-06-28T08:47:40Z</time>
      </trkpt>
      <trkpt lat="48.78425" lon="7.9845">
        <ele>120.4</ele>
        <time>2020-06-28T08:47:41Z</time>
      </trkpt>
      <trkpt lat="48.78421" lon="7.98452">
        <ele>120.4</ele>
        <time>2020-06-28T08:47:42Z</time>
      </trkpt>
      <trkpt lat="48.78417" lon="7.98456">
        <ele>120.4</ele>
        <time>2020-06-28T08:47:43Z</time>
      </trkpt>
      <trkpt lat="48.78412" lon="7.98459">
        <ele>120.4</ele>
        <time>2020-06-28T08:47:44Z</time>
      </trkpt>
      <trkpt lat="48.78408" lon="7.98462">
        <ele>120.4</ele>
        <time>2020-06-28T08:47:45Z</time>
      </trkpt>
      <trkpt lat="48.78405" lon="7.98465">
        <ele>120.4</ele>
        <time>2020-06-28T08:47:46Z</time>
      </trkpt>
      <trkpt lat="48.78401" lon="7.98468">
        <ele>120.4</ele>
        <time>2020-06-28T08:47:47Z</time>
      </trkpt>
      <trkpt lat="48.78396" lon="7.98472">
        <ele>120.3</ele>
        <time>2020-06-28T08:47:48Z</time>
      </trkpt>
      <trkpt lat="48.7839" lon="7.98475">
        <ele>120.3</ele>
        <time>2020-06-28T08:47:49Z</time>
      </trkpt>
      <trkpt lat="48.78385" lon="7.98478">
        <ele>120.3</ele>
        <time>2020-06-28T08:47:50Z</time>
      </trkpt>
      <trkpt lat="48.78381" lon="7.9848">
        <ele>120.3</ele>
        <time>2020-06-28T08:47:51Z</time>
      </trkpt>
      <trkpt lat="48.78377" lon="7.98483">
        <ele>120.3</ele>
        <time>2020-06-28T08:47:52Z</time>
      </trkpt>
      <trkpt lat="48.78374" lon="7.98486">
        <ele>120.3</ele>
        <time>2020-06-28T08:47:53Z</time>
      </trkpt>
      <trkpt lat="48.78369" lon="7.9849">
        <ele>120.3</ele>
        <time>2020-06-28T08:47:54Z</time>
      </trkpt>
      <trkpt lat="48.78365" lon="7.98494">
        <ele>120.3</ele>
        <time>2020-06-28T08:47:55Z</time>
      </trkpt>
      <trkpt lat="48.78361" lon="7.98499">
        <ele>120.3</ele>
        <time>2020-06-28T08:47:56Z</time>
      </trkpt>
      <trkpt lat="48.78357" lon="7.98504">
        <ele>120.4</ele>
        <time>2020-06-28T08:47:57Z</time>
      </trkpt>
      <trkpt lat="48.78353" lon="7.98508">
        <ele>120.4</ele>
        <time>2020-06-28T08:47:58Z</time>
      </trkpt>
      <trkpt lat="48.78348" lon="7.98512">
        <ele>120.4</ele>
        <time>2020-06-28T08:47:59Z</time>
      </trkpt>
      <trkpt lat="48.78344" lon="7.98515">
        <ele>120.4</ele>
        <time>2020-06-28T08:48:00Z</time>
      </trkpt>
      <trkpt lat="48.7834" lon="7.98519">
        <ele>120.4</ele>
        <time>2020-06-28T08:48:01Z</time>
      </trkpt>
      <trkpt lat="48.78336" lon="7.98523">
        <ele>120.4</ele>
        <time>2020-06-28T08:48:02Z</time>
      </trkpt>
      <trkpt lat="48.78332" lon="7.98528">
        <ele>120.4</ele>
        <time>2020-06-28T08:48:03Z</time>
      </trkpt>
      <trkpt lat="48.78328" lon="7.98533">
        <ele>120.4</ele>
        <time>2020-06-28T08:48:04Z</time>
      </trkpt>
      <trkpt lat="48.78323" lon="7.9854">
        <ele>120.4</ele>
        <time>2020-06-28T08:48:05Z</time>
      </trkpt>
      <trkpt lat="48.78322" lon="7.98543">
        <ele>120.4</ele>
        <time>2020-06-28T08:48:06Z</time>
      </trkpt>
      <trkpt lat="48.78319" lon="7.98549">
        <ele>120.5</ele>
        <time>2020-06-28T08:48:07Z</time>
      </trkpt>
      <trkpt lat="48.78316" lon="7.98556">
        <ele>120.5</ele>
        <time>2020-06-28T08:48:08Z</time>
      </trkpt>
      <trkpt lat="48.78311" lon="7.98562">
        <ele>120.4</ele>
        <time>2020-06-28T08:48:09Z</time>
      </trkpt>
      <trkpt lat="48.78307" lon="7.98568">
        <ele>120.4</ele>
        <time>2020-06-28T08:48:10Z</time>
      </trkpt>
      <trkpt lat="48.78302" lon="7.98575">
        <ele>120.4</ele>
        <time>2020-06-28T08:48:11Z</time>
      </trkpt>
      <trkpt lat="48.78297" lon="7.98581">
        <ele>120.3</ele>
        <time>2020-06-28T08:48:12Z</time>
      </trkpt>
      <trkpt lat="48.78293" lon="7.98587">
        <ele>120.3</ele>
        <time>2020-06-28T08:48:13Z</time>
      </trkpt>
      <trkpt lat="48.78289" lon="7.98593">
        <ele>120.3</ele>
        <time>2020-06-28T08:48:14Z</time>
      </trkpt>
      <trkpt lat="48.78284" lon="7.98599">
        <ele>120.3</ele>
        <time>2020-06-28T08:48:15Z</time>
      </trkpt>
      <trkpt lat="48.7828" lon="7.98606">
        <ele>120.4</ele>
        <time>2020-06-28T08:48:16Z</time>
      </trkpt>
      <trkpt lat="48.78276" lon="7.98613">
        <ele>120.4</ele>
        <time>2020-06-28T08:48:17Z</time>
      </trkpt>
      <trkpt lat="48.78272" lon="7.9862">
        <ele>120.4</ele>
        <time>2020-06-28T08:48:18Z</time>
      </trkpt>
      <trkpt lat="48.78267" lon="7.98628">
        <ele>120.4</ele>
        <time>2020-06-28T08:48:19Z</time>
      </trkpt>
      <trkpt lat="48.78262" lon="7.98636">
        <ele>120.4</ele>
        <time>2020-06-28T08:48:20Z</time>
      </trkpt>
      <trkpt lat="48.78256" lon="7.98645">
        <ele>120.4</ele>
        <time>2020-06-28T08:48:21Z</time>
      </trkpt>
      <trkpt lat="48.78245" lon="7.98656">
        <ele>120.4</ele>
        <time>2020-06-28T08:48:22Z</time>
      </trkpt>
      <trkpt lat="48.78247" lon="7.98663">
        <ele>120.3</ele>
        <time>2020-06-28T08:48:23Z</time>
      </trkpt>
      <trkpt lat="48.78242" lon="7.98673">
        <ele>120.3</ele>
        <time>2020-06-28T08:48:24Z</time>
      </trkpt>
      <trkpt lat="48.78238" lon="7.98682">
        <ele>120.3</ele>
        <time>2020-06-28T08:48:25Z</time>
      </trkpt>
      <trkpt lat="48.78234" lon="7.98691">
        <ele>120.2</ele>
        <time>2020-06-28T08:48:26Z</time>
      </trkpt>
      <trkpt lat="48.7823" lon="7.98704">
        <ele>120.2</ele>
        <time>2020-06-28T08:48:27Z</time>
      </trkpt>
      <trkpt lat="48.78227" lon="7.98712">
        <ele>120.2</ele>
        <time>2020-06-28T08:48:28Z</time>
      </trkpt>
      <trkpt lat="48.78223" lon="7.98721">
        <ele>120.2</ele>
        <time>2020-06-28T08:48:29Z</time>
      </trkpt>
      <trkpt lat="48.78219" lon="7.98726">
        <ele>120.2</ele>
        <time>2020-06-28T08:48:30Z</time>
      </trkpt>
      <trkpt lat="48.78215" lon="7.98732">
        <ele>120.2</ele>
        <time>2020-06-28T08:48:31Z</time>
      </trkpt>
      <trkpt lat="48.78211" lon="7.98739">
        <ele>120.2</ele>
        <time>2020-06-28T08:48:32Z</time>
      </trkpt>
      <trkpt lat="48.78207" lon="7.98746">
        <ele>120.2</ele>
        <time>2020-06-28T08:48:33Z</time>
      </trkpt>
      <trkpt lat="48.78203" lon="7.98753">
        <ele>120.3</ele>
        <time>2020-06-28T08:48:34Z</time>
      </trkpt>
      <trkpt lat="48.78199" lon="7.9876">
        <ele>120.3</ele>
        <time>2020-06-28T08:48:35Z</time>
      </trkpt>
      <trkpt lat="48.78195" lon="7.98766">
        <ele>120.3</ele>
        <time>2020-06-28T08:48:36Z</time>
      </trkpt>
      <trkpt lat="48.78192" lon="7.98772">
        <ele>120.3</ele>
        <time>2020-06-28T08:48:37Z</time>
      </trkpt>
      <trkpt lat="48.78189" lon="7.98779">
        <ele>120.3</ele>
        <time>2020-06-28T08:48:38Z</time>
      </trkpt>
      <trkpt lat="48.78185" lon="7.98787">
        <ele>120.3</ele>
        <time>2020-06-28T08:48:39Z</time>
      </trkpt>
      <trkpt lat="48.78181" lon="7.98793">
        <ele>120.4</ele>
        <time>2020-06-28T08:48:40Z</time>
      </trkpt>
      <trkpt lat="48.78178" lon="7.988">
        <ele>120.4</ele>
        <time>2020-06-28T08:48:41Z</time>
      </trkpt>
      <trkpt lat="48.78174" lon="7.98807">
        <ele>120.4</ele>
        <time>2020-06-28T08:48:42Z</time>
      </trkpt>
      <trkpt lat="48.7817" lon="7.98814">
        <ele>120.4</ele>
        <time>2020-06-28T08:48:43Z</time>
      </trkpt>
      <trkpt lat="48.78166" lon="7.98819">
        <ele>120.4</ele>
        <time>2020-06-28T08:48:44Z</time>
      </trkpt>
      <trkpt lat="48.78162" lon="7.98823">
        <ele>120.4</ele>
        <time>2020-06-28T08:48:45Z</time>
      </trkpt>
      <trkpt lat="48.78158" lon="7.98828">
        <ele>120.4</ele>
        <time>2020-06-28T08:48:46Z</time>
      </trkpt>
      <trkpt lat="48.78151" lon="7.98831">
        <ele>120.4</ele>
        <time>2020-06-28T08:48:47Z</time>
      </trkpt>
      <trkpt lat="48.78145" lon="7.98835">
        <ele>120.4</ele>
        <time>2020-06-28T08:48:48Z</time>
      </trkpt>
      <trkpt lat="48.78139" lon="7.98839">
        <ele>120.4</ele>
        <time>2020-06-28T08:48:49Z</time>
      </trkpt>
      <trkpt lat="48.78134" lon="7.98842">
        <ele>120.5</ele>
        <time>2020-06-28T08:48:50Z</time>
      </trkpt>
      <trkpt lat="48.78129" lon="7.98843">
        <ele>120.5</ele>
        <time>2020-06-28T08:48:51Z</time>
      </trkpt>
      <trkpt lat="48.78123" lon="7.98842">
        <ele>120.6</ele>
        <time>2020-06-28T08:48:52Z</time>
      </trkpt>
      <trkpt lat="48.78116" lon="7.98841">
        <ele>120.6</ele>
        <time>2020-06-28T08:48:53Z</time>
      </trkpt>
      <trkpt lat="48.7811" lon="7.9884">
        <ele>120.6</ele>
        <time>2020-06-28T08:48:54Z</time>
      </trkpt>
      <trkpt lat="48.78105" lon="7.98841">
        <ele>120.6</ele>
        <time>2020-06-28T08:48:55Z</time>
      </trkpt>
      <trkpt lat="48.781" lon="7.9884">
        <ele>120.6</ele>
        <time>2020-06-28T08:48:56Z</time>
      </trkpt>
      <trkpt lat="48.78098" lon="7.9884">
        <ele>120.6</ele>
        <time>2020-06-28T08:48:57Z</time>
      </trkpt>
      <trkpt lat="48.78091" lon="7.9884">
        <ele>120.6</ele>
        <time>2020-06-28T08:48:58Z</time>
      </trkpt>
      <trkpt lat="48.78086" lon="7.9884">
        <ele>120.6</ele>
        <time>2020-06-28T08:48:59Z</time>
      </trkpt>
      <trkpt lat="48.7808" lon="7.9884">
        <ele>120.6</ele>
        <time>2020-06-28T08:49:00Z</time>
      </trkpt>
      <trkpt lat="48.78073" lon="7.98839">
        <ele>120.6</ele>
        <time>2020-06-28T08:49:01Z</time>
      </trkpt>
      <trkpt lat="48.78067" lon="7.98839">
        <ele>120.6</ele>
        <time>2020-06-28T08:49:02Z</time>
      </trkpt>
      <trkpt lat="48.78064" lon="7.98839">
        <ele>120.6</ele>
        <time>2020-06-28T08:49:03Z</time>
      </trkpt>
      <trkpt lat="48.78059" lon="7.98839">
        <ele>120.6</ele>
        <time>2020-06-28T08:49:04Z</time>
      </trkpt>
      <trkpt lat="48.78053" lon="7.98839">
        <ele>120.6</ele>
        <time>2020-06-28T08:49:05Z</time>
      </trkpt>
      <trkpt lat="48.78047" lon="7.98844">
        <ele>120.6</ele>
        <time>2020-06-28T08:49:06Z</time>
      </trkpt>
      <trkpt lat="48.7804" lon="7.98843">
        <ele>120.6</ele>
        <time>2020-06-28T08:49:07Z</time>
      </trkpt>
      <trkpt lat="48.78034" lon="7.98842">
        <ele>120.6</ele>
        <time>2020-06-28T08:49:08Z</time>
      </trkpt>
      <trkpt lat="48.78027" lon="7.98842">
        <ele>120.6</ele>
        <time>2020-06-28T08:49:09Z</time>
      </trkpt>
      <trkpt lat="48.78022" lon="7.98842">
        <ele>120.6</ele>
        <time>2020-06-28T08:49:10Z</time>
      </trkpt>
      <trkpt lat="48.78017" lon="7.98842">
        <ele>120.6</ele>
        <time>2020-06-28T08:49:11Z</time>
      </trkpt>
      <trkpt lat="48.78012" lon="7.98843">
        <ele>120.6</ele>
        <time>2020-06-28T08:49:12Z</time>
      </trkpt>
      <trkpt lat="48.78006" lon="7.98845">
        <ele>120.6</ele>
        <time>2020-06-28T08:49:13Z</time>
      </trkpt>
      <trkpt lat="48.78001" lon="7.98847">
        <ele>120.6</ele>
        <time>2020-06-28T08:49:14Z</time>
      </trkpt>
      <trkpt lat="48.77996" lon="7.9885">
        <ele>120.6</ele>
        <time>2020-06-28T08:49:15Z</time>
      </trkpt>
      <trkpt lat="48.77992" lon="7.98854">
        <ele>120.7</ele>
        <time>2020-06-28T08:49:16Z</time>
      </trkpt>
      <trkpt lat="48.77988" lon="7.98858">
        <ele>120.7</ele>
        <time>2020-06-28T08:49:17Z</time>
      </trkpt>
      <trkpt lat="48.77985" lon="7.98863">
        <ele>120.7</ele>
        <time>2020-06-28T08:49:18Z</time>
      </trkpt>
      <trkpt lat="48.77981" lon="7.98866">
        <ele>120.7</ele>
        <time>2020-06-28T08:49:19Z</time>
      </trkpt>
      <trkpt lat="48.77975" lon="7.9887">
        <ele>120.8</ele>
        <time>2020-06-28T08:49:20Z</time>
      </trkpt>
      <trkpt lat="48.77971" lon="7.98873">
        <ele>120.8</ele>
        <time>2020-06-28T08:49:21Z</time>
      </trkpt>
      <trkpt lat="48.77967" lon="7.98876">
        <ele>120.9</ele>
        <time>2020-06-28T08:49:22Z</time>
      </trkpt>
      <trkpt lat="48.77963" lon="7.98879">
        <ele>120.9</ele>
        <time>2020-06-28T08:49:23Z</time>
      </trkpt>
      <trkpt lat="48.77959" lon="7.98883">
        <ele>120.8</ele>
        <time>2020-06-28T08:49:24Z</time>
      </trkpt>
      <trkpt lat="48.77955" lon="7.98887">
        <ele>120.7</ele>
        <time>2020-06-28T08:49:25Z</time>
      </trkpt>
      <trkpt lat="48.77952" lon="7.98892">
        <ele>120.7</ele>
        <time>2020-06-28T08:49:26Z</time>
      </trkpt>
      <trkpt lat="48.7795" lon="7.98896">
        <ele>120.6</ele>
        <time>2020-06-28T08:49:27Z</time>
      </trkpt>
      <trkpt lat="48.77947" lon="7.989">
        <ele>120.5</ele>
        <time>2020-06-28T08:49:28Z</time>
      </trkpt>
      <trkpt lat="48.77945" lon="7.98905">
        <ele>120.4</ele>
        <time>2020-06-28T08:49:29Z</time>
      </trkpt>
      <trkpt lat="48.77943" lon="7.9891">
        <ele>120.4</ele>
        <time>2020-06-28T08:49:30Z</time>
      </trkpt>
      <trkpt lat="48.77941" lon="7.98915">
        <ele>120.3</ele>
        <time>2020-06-28T08:49:31Z</time>
      </trkpt>
      <trkpt lat="48.77938" lon="7.98919">
        <ele>120.2</ele>
        <time>2020-06-28T08:49:32Z</time>
      </trkpt>
      <trkpt lat="48.77934" lon="7.98925">
        <ele>120.2</ele>
        <time>2020-06-28T08:49:33Z</time>
      </trkpt>
      <trkpt lat="48.77931" lon="7.98931">
        <ele>120.1</ele>
        <time>2020-06-28T08:49:34Z</time>
      </trkpt>
      <trkpt lat="48.77928" lon="7.98935">
        <ele>120.1</ele>
        <time>2020-06-28T08:49:35Z</time>
      </trkpt>
      <trkpt lat="48.77925" lon="7.9894">
        <ele>120</ele>
        <time>2020-06-28T08:49:36Z</time>
      </trkpt>
      <trkpt lat="48.77922" lon="7.98945">
        <ele>120</ele>
        <time>2020-06-28T08:49:37Z</time>
      </trkpt>
      <trkpt lat="48.77918" lon="7.98951">
        <ele>119.9</ele>
        <time>2020-06-28T08:49:38Z</time>
      </trkpt>
      <trkpt lat="48.77915" lon="7.98956">
        <ele>119.9</ele>
        <time>2020-06-28T08:49:39Z</time>
      </trkpt>
      <trkpt lat="48.77911" lon="7.98962">
        <ele>119.8</ele>
        <time>2020-06-28T08:49:40Z</time>
      </trkpt>
      <trkpt lat="48.77908" lon="7.98968">
        <ele>119.8</ele>
        <time>2020-06-28T08:49:41Z</time>
      </trkpt>
      <trkpt lat="48.77905" lon="7.98975">
        <ele>119.7</ele>
        <time>2020-06-28T08:49:42Z</time>
      </trkpt>
      <trkpt lat="48.77902" lon="7.98981">
        <ele>119.7</ele>
        <time>2020-06-28T08:49:43Z</time>
      </trkpt>
      <trkpt lat="48.779" lon="7.98987">
        <ele>119.6</ele>
        <time>2020-06-28T08:49:44Z</time>
      </trkpt>
      <trkpt lat="48.77896" lon="7.98994">
        <ele>119.6</ele>
        <time>2020-06-28T08:49:45Z</time>
      </trkpt>
      <trkpt lat="48.77892" lon="7.99002">
        <ele>119.6</ele>
        <time>2020-06-28T08:49:46Z</time>
      </trkpt>
      <trkpt lat="48.77888" lon="7.99008">
        <ele>119.6</ele>
        <time>2020-06-28T08:49:47Z</time>
      </trkpt>
      <trkpt lat="48.77883" lon="7.99013">
        <ele>119.6</ele>
        <time>2020-06-28T08:49:48Z</time>
      </trkpt>
      <trkpt lat="48.77878" lon="7.99018">
        <ele>119.6</ele>
        <time>2020-06-28T08:49:49Z</time>
      </trkpt>
      <trkpt lat="48.77873" lon="7.99022">
        <ele>119.6</ele>
        <time>2020-06-28T08:49:50Z</time>
      </trkpt>
      <trkpt lat="48.77868" lon="7.99026">
        <ele>119.7</ele>
        <time>2020-06-28T08:49:51Z</time>
      </trkpt>
      <trkpt lat="48.77863" lon="7.99028">
        <ele>119.7</ele>
        <time>2020-06-28T08:49:52Z</time>
      </trkpt>
      <trkpt lat="48.77859" lon="7.99031">
        <ele>119.7</ele>
        <time>2020-06-28T08:49:53Z</time>
      </trkpt>
      <trkpt lat="48.77854" lon="7.9903">
        <ele>119.8</ele>
        <time>2020-06-28T08:49:54Z</time>
      </trkpt>
      <trkpt lat="48.7785" lon="7.99033">
        <ele>119.8</ele>
        <time>2020-06-28T08:49:55Z</time>
      </trkpt>
      <trkpt lat="48.77846" lon="7.99034">
        <ele>119.8</ele>
        <time>2020-06-28T08:49:56Z</time>
      </trkpt>
      <trkpt lat="48.77842" lon="7.99035">
        <ele>119.8</ele>
        <time>2020-06-28T08:49:57Z</time>
      </trkpt>
      <trkpt lat="48.77837" lon="7.99037">
        <ele>119.9</ele>
        <time>2020-06-28T08:49:58Z</time>
      </trkpt>
      <trkpt lat="48.77831" lon="7.99038">
        <ele>119.9</ele>
        <time>2020-06-28T08:49:59Z</time>
      </trkpt>
      <trkpt lat="48.77827" lon="7.99039">
        <ele>119.9</ele>
        <time>2020-06-28T08:50:00Z</time>
      </trkpt>
      <trkpt lat="48.77822" lon="7.99037">
        <ele>119.9</ele>
        <time>2020-06-28T08:50:01Z</time>
      </trkpt>
      <trkpt lat="48.77817" lon="7.99033">
        <ele>119.9</ele>
        <time>2020-06-28T08:50:02Z</time>
      </trkpt>
      <trkpt lat="48.77812" lon="7.9903">
        <ele>120</ele>
        <time>2020-06-28T08:50:03Z</time>
      </trkpt>
      <trkpt lat="48.77808" lon="7.99027">
        <ele>120</ele>
        <time>2020-06-28T08:50:04Z</time>
      </trkpt>
      <trkpt lat="48.77803" lon="7.99025">
        <ele>120</ele>
        <time>2020-06-28T08:50:05Z</time>
      </trkpt>
      <trkpt lat="48.77798" lon="7.99022">
        <ele>120</ele>
        <time>2020-06-28T08:50:06Z</time>
      </trkpt>
      <trkpt lat="48.77793" lon="7.99019">
        <ele>120</ele>
        <time>2020-06-28T08:50:07Z</time>
      </trkpt>
      <trkpt lat="48.77789" lon="7.99016">
        <ele>120.1</ele>
        <time>2020-06-28T08:50:08Z</time>
      </trkpt>
      <trkpt lat="48.77785" lon="7.99015">
        <ele>120.1</ele>
        <time>2020-06-28T08:50:09Z</time>
      </trkpt>
      <trkpt lat="48.77781" lon="7.99013">
        <ele>120.1</ele>
        <time>2020-06-28T08:50:10Z</time>
      </trkpt>
      <trkpt lat="48.77776" lon="7.9901">
        <ele>120.1</ele>
        <time>2020-06-28T08:50:11Z</time>
      </trkpt>
      <trkpt lat="48.77771" lon="7.99008">
        <ele>120.2</ele>
        <time>2020-06-28T08:50:12Z</time>
      </trkpt>
      <trkpt lat="48.77766" lon="7.99006">
        <ele>120.2</ele>
        <time>2020-06-28T08:50:13Z</time>
      </trkpt>
      <trkpt lat="48.77762" lon="7.99004">
        <ele>120.2</ele>
        <time>2020-06-28T08:50:14Z</time>
      </trkpt>
      <trkpt lat="48.77758" lon="7.99001">
        <ele>120.2</ele>
        <time>2020-06-28T08:50:15Z</time>
      </trkpt>
      <trkpt lat="48.77754" lon="7.98999">
        <ele>120.3</ele>
        <time>2020-06-28T08:50:16Z</time>
      </trkpt>
      <trkpt lat="48.7775" lon="7.98997">
        <ele>120.3</ele>
        <time>2020-06-28T08:50:17Z</time>
      </trkpt>
      <trkpt lat="48.77745" lon="7.98995">
        <ele>120.3</ele>
        <time>2020-06-28T08:50:18Z</time>
      </trkpt>
      <trkpt lat="48.7774" lon="7.98993">
        <ele>120.3</ele>
        <time>2020-06-28T08:50:19Z</time>
      </trkpt>
      <trkpt lat="48.77735" lon="7.98991">
        <ele>120.3</ele>
        <time>2020-06-28T08:50:20Z</time>
      </trkpt>
      <trkpt lat="48.77732" lon="7.98989">
        <ele>120.4</ele>
        <time>2020-06-28T08:50:21Z</time>
      </trkpt>
      <trkpt lat="48.77727" lon="7.98987">
        <ele>120.4</ele>
        <time>2020-06-28T08:50:22Z</time>
      </trkpt>
      <trkpt lat="48.77724" lon="7.98985">
        <ele>120.4</ele>
        <time>2020-06-28T08:50:23Z</time>
      </trkpt>
      <trkpt lat="48.7772" lon="7.98982">
        <ele>120.4</ele>
        <time>2020-06-28T08:50:24Z</time>
      </trkpt>
      <trkpt lat="48.77715" lon="7.98982">
        <ele>120.4</ele>
        <time>2020-06-28T08:50:25Z</time>
      </trkpt>
      <trkpt lat="48.77711" lon="7.98979">
        <ele>120.5</ele>
        <time>2020-06-28T08:50:26Z</time>
      </trkpt>
      <trkpt lat="48.77706" lon="7.98978">
        <ele>120.5</ele>
        <time>2020-06-28T08:50:27Z</time>
      </trkpt>
      <trkpt lat="48.77701" lon="7.98977">
        <ele>120.5</ele>
        <time>2020-06-28T08:50:28Z</time>
      </trkpt>
      <trkpt lat="48.77697" lon="7.98975">
        <ele>120.6</ele>
        <time>2020-06-28T08:50:29Z</time>
      </trkpt>
      <trkpt lat="48.77693" lon="7.98974">
        <ele>120.6</ele>
        <time>2020-06-28T08:50:30Z</time>
      </trkpt>
      <trkpt lat="48.77689" lon="7.98973">
        <ele>120.6</ele>
        <time>2020-06-28T08:50:31Z</time>
      </trkpt>
      <trkpt lat="48.77685" lon="7.98971">
        <ele>120.6</ele>
        <time>2020-06-28T08:50:32Z</time>
      </trkpt>
      <trkpt lat="48.7768" lon="7.98971">
        <ele>120.7</ele>
        <time>2020-06-28T08:50:33Z</time>
      </trkpt>
      <trkpt lat="48.77676" lon="7.98971">
        <ele>120.7</ele>
        <time>2020-06-28T08:50:34Z</time>
      </trkpt>
      <trkpt lat="48.77671" lon="7.98972">
        <ele>120.7</ele>
        <time>2020-06-28T08:50:35Z</time>
      </trkpt>
      <trkpt lat="48.77666" lon="7.98972">
        <ele>120.6</ele>
        <time>2020-06-28T08:50:36Z</time>
      </trkpt>
      <trkpt lat="48.77662" lon="7.98973">
        <ele>120.6</ele>
        <time>2020-06-28T08:50:37Z</time>
      </trkpt>
      <trkpt lat="48.77656" lon="7.98973">
        <ele>120.5</ele>
        <time>2020-06-28T08:50:38Z</time>
      </trkpt>
      <trkpt lat="48.7765" lon="7.98974">
        <ele>120.4</ele>
        <time>2020-06-28T08:50:39Z</time>
      </trkpt>
      <trkpt lat="48.77646" lon="7.98974">
        <ele>120.4</ele>
        <time>2020-06-28T08:50:40Z</time>
      </trkpt>
      <trkpt lat="48.77641" lon="7.98975">
        <ele>120.3</ele>
        <time>2020-06-28T08:50:41Z</time>
      </trkpt>
      <trkpt lat="48.77636" lon="7.98976">
        <ele>120.3</ele>
        <time>2020-06-28T08:50:42Z</time>
      </trkpt>
      <trkpt lat="48.7763" lon="7.98977">
        <ele>120.3</ele>
        <time>2020-06-28T08:50:43Z</time>
      </trkpt>
      <trkpt lat="48.77626" lon="7.98977">
        <ele>120.3</ele>
        <time>2020-06-28T08:50:44Z</time>
      </trkpt>
      <trkpt lat="48.7762" lon="7.98978">
        <ele>120.3</ele>
        <time>2020-06-28T08:50:45Z</time>
      </trkpt>
      <trkpt lat="48.77616" lon="7.98979">
        <ele>120.3</ele>
        <time>2020-06-28T08:50:46Z</time>
      </trkpt>
      <trkpt lat="48.77612" lon="7.9898">
        <ele>120.3</ele>
        <time>2020-06-28T08:50:47Z</time>
      </trkpt>
      <trkpt lat="48.77607" lon="7.98981">
        <ele>120.3</ele>
        <time>2020-06-28T08:50:48Z</time>
      </trkpt>
      <trkpt lat="48.77603" lon="7.98982">
        <ele>120.3</ele>
        <time>2020-06-28T08:50:49Z</time>
      </trkpt>
      <trkpt lat="48.77598" lon="7.98983">
        <ele>120.3</ele>
        <time>2020-06-28T08:50:50Z</time>
      </trkpt>
      <trkpt lat="48.77594" lon="7.98985">
        <ele>120.4</ele>
        <time>2020-06-28T08:50:51Z</time>
      </trkpt>
      <trkpt lat="48.7759" lon="7.98986">
        <ele>120.4</ele>
        <time>2020-06-28T08:50:52Z</time>
      </trkpt>
      <trkpt lat="48.77586" lon="7.98987">
        <ele>120.4</ele>
        <time>2020-06-28T08:50:53Z</time>
      </trkpt>
      <trkpt lat="48.77582" lon="7.98987">
        <ele>120.4</ele>
        <time>2020-06-28T08:50:54Z</time>
      </trkpt>
      <trkpt lat="48.77578" lon="7.98986">
        <ele>120.4</ele>
        <time>2020-06-28T08:50:55Z</time>
      </trkpt>
      <trkpt lat="48.77574" lon="7.98986">
        <ele>120.5</ele>
        <time>2020-06-28T08:50:56Z</time>
      </trkpt>
      <trkpt lat="48.7757" lon="7.98987">
        <ele>120.5</ele>
        <time>2020-06-28T08:50:57Z</time>
      </trkpt>
      <trkpt lat="48.77567" lon="7.98987">
        <ele>120.6</ele>
        <time>2020-06-28T08:50:58Z</time>
      </trkpt>
      <trkpt lat="48.77566" lon="7.98987">
        <ele>120.6</ele>
        <time>2020-06-28T08:50:59Z</time>
      </trkpt>
      <trkpt lat="48.77563" lon="7.98985">
        <ele>120.6</ele>
        <time>2020-06-28T08:51:00Z</time>
      </trkpt>
      <trkpt lat="48.77562" lon="7.98985">
        <ele>120.6</ele>
        <time>2020-06-28T08:51:01Z</time>
      </trkpt>
      <trkpt lat="48.77558" lon="7.98983">
        <ele>120.6</ele>
        <time>2020-06-28T08:51:02Z</time>
      </trkpt>
      <trkpt lat="48.77557" lon="7.98982">
        <ele>120.6</ele>
        <time>2020-06-28T08:51:03Z</time>
      </trkpt>
      <trkpt lat="48.77553" lon="7.9898">
        <ele>120.6</ele>
        <time>2020-06-28T08:51:04Z</time>
      </trkpt>
      <trkpt lat="48.77551" lon="7.98977">
        <ele>120.7</ele>
        <time>2020-06-28T08:51:05Z</time>
      </trkpt>
      <trkpt lat="48.77548" lon="7.98973">
        <ele>120.6</ele>
        <time>2020-06-28T08:51:06Z</time>
      </trkpt>
      <trkpt lat="48.77546" lon="7.98968">
        <ele>120.6</ele>
        <time>2020-06-28T08:51:07Z</time>
      </trkpt>
      <trkpt lat="48.77543" lon="7.98963">
        <ele>120.6</ele>
        <time>2020-06-28T08:51:08Z</time>
      </trkpt>
      <trkpt lat="48.77541" lon="7.98958">
        <ele>120.6</ele>
        <time>2020-06-28T08:51:09Z</time>
      </trkpt>
      <trkpt lat="48.77538" lon="7.98954">
        <ele>120.6</ele>
        <time>2020-06-28T08:51:10Z</time>
      </trkpt>
      <trkpt lat="48.77536" lon="7.98949">
        <ele>120.6</ele>
        <time>2020-06-28T08:51:11Z</time>
      </trkpt>
      <trkpt lat="48.77533" lon="7.98944">
        <ele>120.7</ele>
        <time>2020-06-28T08:51:12Z</time>
      </trkpt>
      <trkpt lat="48.7753" lon="7.9894">
        <ele>120.7</ele>
        <time>2020-06-28T08:51:13Z</time>
      </trkpt>
      <trkpt lat="48.77527" lon="7.98936">
        <ele>120.7</ele>
        <time>2020-06-28T08:51:14Z</time>
      </trkpt>
      <trkpt lat="48.77523" lon="7.98932">
        <ele>120.7</ele>
        <time>2020-06-28T08:51:15Z</time>
      </trkpt>
      <trkpt lat="48.77519" lon="7.98927">
        <ele>120.7</ele>
        <time>2020-06-28T08:51:16Z</time>
      </trkpt>
      <trkpt lat="48.77515" lon="7.98922">
        <ele>120.7</ele>
        <time>2020-06-28T08:51:17Z</time>
      </trkpt>
      <trkpt lat="48.77511" lon="7.98917">
        <ele>120.7</ele>
        <time>2020-06-28T08:51:18Z</time>
      </trkpt>
      <trkpt lat="48.77507" lon="7.98912">
        <ele>120.8</ele>
        <time>2020-06-28T08:51:19Z</time>
      </trkpt>
      <trkpt lat="48.77502" lon="7.9891">
        <ele>120.8</ele>
        <time>2020-06-28T08:51:20Z</time>
      </trkpt>
      <trkpt lat="48.77497" lon="7.98906">
        <ele>120.8</ele>
        <time>2020-06-28T08:51:21Z</time>
      </trkpt>
      <trkpt lat="48.77491" lon="7.98904">
        <ele>120.8</ele>
        <time>2020-06-28T08:51:22Z</time>
      </trkpt>
      <trkpt lat="48.77487" lon="7.98901">
        <ele>120.8</ele>
        <time>2020-06-28T08:51:23Z</time>
      </trkpt>
      <trkpt lat="48.77482" lon="7.98898">
        <ele>120.9</ele>
        <time>2020-06-28T08:51:24Z</time>
      </trkpt>
      <trkpt lat="48.77477" lon="7.98897">
        <ele>120.9</ele>
        <time>2020-06-28T08:51:25Z</time>
      </trkpt>
      <trkpt lat="48.77472" lon="7.98896">
        <ele>120.9</ele>
        <time>2020-06-28T08:51:26Z</time>
      </trkpt>
      <trkpt lat="48.77468" lon="7.98894">
        <ele>121</ele>
        <time>2020-06-28T08:51:27Z</time>
      </trkpt>
      <trkpt lat="48.77463" lon="7.98892">
        <ele>121</ele>
        <time>2020-06-28T08:51:28Z</time>
      </trkpt>
      <trkpt lat="48.77459" lon="7.98891">
        <ele>121</ele>
        <time>2020-06-28T08:51:29Z</time>
      </trkpt>
      <trkpt lat="48.77455" lon="7.9889">
        <ele>121</ele>
        <time>2020-06-28T08:51:30Z</time>
      </trkpt>
      <trkpt lat="48.77451" lon="7.98889">
        <ele>121.1</ele>
        <time>2020-06-28T08:51:31Z</time>
      </trkpt>
      <trkpt lat="48.77446" lon="7.98888">
        <ele>121.1</ele>
        <time>2020-06-28T08:51:32Z</time>
      </trkpt>
      <trkpt lat="48.77441" lon="7.98885">
        <ele>121.1</ele>
        <time>2020-06-28T08:51:33Z</time>
      </trkpt>
      <trkpt lat="48.77437" lon="7.98882">
        <ele>121.1</ele>
        <time>2020-06-28T08:51:34Z</time>
      </trkpt>
      <trkpt lat="48.77433" lon="7.9888">
        <ele>121.1</ele>
        <time>2020-06-28T08:51:35Z</time>
      </trkpt>
      <trkpt lat="48.77428" lon="7.98878">
        <ele>121.1</ele>
        <time>2020-06-28T08:51:36Z</time>
      </trkpt>
      <trkpt lat="48.77424" lon="7.98876">
        <ele>121</ele>
        <time>2020-06-28T08:51:37Z</time>
      </trkpt>
      <trkpt lat="48.77419" lon="7.98873">
        <ele>121</ele>
        <time>2020-06-28T08:51:38Z</time>
      </trkpt>
      <trkpt lat="48.77415" lon="7.98871">
        <ele>121</ele>
        <time>2020-06-28T08:51:39Z</time>
      </trkpt>
      <trkpt lat="48.77411" lon="7.98868">
        <ele>121</ele>
        <time>2020-06-28T08:51:40Z</time>
      </trkpt>
      <trkpt lat="48.77405" lon="7.98865">
        <ele>121</ele>
        <time>2020-06-28T08:51:41Z</time>
      </trkpt>
      <trkpt lat="48.77401" lon="7.98863">
        <ele>120.9</ele>
        <time>2020-06-28T08:51:42Z</time>
      </trkpt>
      <trkpt lat="48.77396" lon="7.9886">
        <ele>120.9</ele>
        <time>2020-06-28T08:51:43Z</time>
      </trkpt>
      <trkpt lat="48.77392" lon="7.98857">
        <ele>120.9</ele>
        <time>2020-06-28T08:51:44Z</time>
      </trkpt>
      <trkpt lat="48.77387" lon="7.98854">
        <ele>120.9</ele>
        <time>2020-06-28T08:51:45Z</time>
      </trkpt>
      <trkpt lat="48.77382" lon="7.9885">
        <ele>120.9</ele>
        <time>2020-06-28T08:51:46Z</time>
      </trkpt>
      <trkpt lat="48.77377" lon="7.98846">
        <ele>121</ele>
        <time>2020-06-28T08:51:47Z</time>
      </trkpt>
      <trkpt lat="48.77372" lon="7.98842">
        <ele>121</ele>
        <time>2020-06-28T08:51:48Z</time>
      </trkpt>
      <trkpt lat="48.77368" lon="7.98837">
        <ele>121.1</ele>
        <time>2020-06-28T08:51:49Z</time>
      </trkpt>
      <trkpt lat="48.77366" lon="7.98832">
        <ele>121.1</ele>
        <time>2020-06-28T08:51:50Z</time>
      </trkpt>
      <trkpt lat="48.77364" lon="7.98827">
        <ele>121.2</ele>
        <time>2020-06-28T08:51:51Z</time>
      </trkpt>
      <trkpt lat="48.77362" lon="7.98822">
        <ele>121.2</ele>
        <time>2020-06-28T08:51:52Z</time>
      </trkpt>
      <trkpt lat="48.77359" lon="7.98818">
        <ele>121.2</ele>
        <time>2020-06-28T08:51:53Z</time>
      </trkpt>
      <trkpt lat="48.77355" lon="7.98815">
        <ele>121.3</ele>
        <time>2020-06-28T08:51:54Z</time>
      </trkpt>
      <trkpt lat="48.77351" lon="7.98812">
        <ele>121.3</ele>
        <time>2020-06-28T08:51:55Z</time>
      </trkpt>
      <trkpt lat="48.77346" lon="7.98812">
        <ele>121.3</ele>
        <time>2020-06-28T08:51:56Z</time>
      </trkpt>
      <trkpt lat="48.77341" lon="7.98813">
        <ele>121.4</ele>
        <time>2020-06-28T08:51:57Z</time>
      </trkpt>
      <trkpt lat="48.77336" lon="7.98813">
        <ele>121.4</ele>
        <time>2020-06-28T08:51:58Z</time>
      </trkpt>
      <trkpt lat="48.77331" lon="7.98813">
        <ele>121.5</ele>
        <time>2020-06-28T08:51:59Z</time>
      </trkpt>
      <trkpt lat="48.77327" lon="7.98813">
        <ele>121.5</ele>
        <time>2020-06-28T08:52:00Z</time>
      </trkpt>
      <trkpt lat="48.77322" lon="7.98814">
        <ele>121.5</ele>
        <time>2020-06-28T08:52:01Z</time>
      </trkpt>
      <trkpt lat="48.77316" lon="7.98816">
        <ele>121.5</ele>
        <time>2020-06-28T08:52:02Z</time>
      </trkpt>
      <trkpt lat="48.77312" lon="7.98817">
        <ele>121.5</ele>
        <time>2020-06-28T08:52:03Z</time>
      </trkpt>
      <trkpt lat="48.77307" lon="7.98819">
        <ele>121.4</ele>
        <time>2020-06-28T08:52:04Z</time>
      </trkpt>
      <trkpt lat="48.77302" lon="7.9882">
        <ele>121.4</ele>
        <time>2020-06-28T08:52:05Z</time>
      </trkpt>
      <trkpt lat="48.77296" lon="7.98821">
        <ele>121.4</ele>
        <time>2020-06-28T08:52:06Z</time>
      </trkpt>
      <trkpt lat="48.77289" lon="7.98823">
        <ele>121.4</ele>
        <time>2020-06-28T08:52:07Z</time>
      </trkpt>
      <trkpt lat="48.77284" lon="7.98825">
        <ele>121.4</ele>
        <time>2020-06-28T08:52:08Z</time>
      </trkpt>
      <trkpt lat="48.77279" lon="7.98827">
        <ele>121.4</ele>
        <time>2020-06-28T08:52:09Z</time>
      </trkpt>
      <trkpt lat="48.77274" lon="7.9883">
        <ele>121.4</ele>
        <time>2020-06-28T08:52:10Z</time>
      </trkpt>
      <trkpt lat="48.77269" lon="7.98831">
        <ele>121.4</ele>
        <time>2020-06-28T08:52:11Z</time>
      </trkpt>
      <trkpt lat="48.77265" lon="7.98831">
        <ele>121.4</ele>
        <time>2020-06-28T08:52:12Z</time>
      </trkpt>
      <trkpt lat="48.7726" lon="7.98832">
        <ele>121.4</ele>
        <time>2020-06-28T08:52:13Z</time>
      </trkpt>
      <trkpt lat="48.77255" lon="7.98834">
        <ele>121.4</ele>
        <time>2020-06-28T08:52:14Z</time>
      </trkpt>
      <trkpt lat="48.77251" lon="7.98836">
        <ele>121.5</ele>
        <time>2020-06-28T08:52:15Z</time>
      </trkpt>
      <trkpt lat="48.77246" lon="7.98837">
        <ele>121.5</ele>
        <time>2020-06-28T08:52:16Z</time>
      </trkpt>
      <trkpt lat="48.77241" lon="7.98837">
        <ele>121.6</ele>
        <time>2020-06-28T08:52:17Z</time>
      </trkpt>
      <trkpt lat="48.77236" lon="7.98836">
        <ele>121.6</ele>
        <time>2020-06-28T08:52:18Z</time>
      </trkpt>
      <trkpt lat="48.7723" lon="7.98837">
        <ele>121.6</ele>
        <time>2020-06-28T08:52:19Z</time>
      </trkpt>
      <trkpt lat="48.77225" lon="7.98838">
        <ele>121.6</ele>
        <time>2020-06-28T08:52:20Z</time>
      </trkpt>
      <trkpt lat="48.77219" lon="7.98839">
        <ele>121.7</ele>
        <time>2020-06-28T08:52:21Z</time>
      </trkpt>
      <trkpt lat="48.77214" lon="7.98841">
        <ele>121.7</ele>
        <time>2020-06-28T08:52:22Z</time>
      </trkpt>
      <trkpt lat="48.77208" lon="7.98841">
        <ele>121.7</ele>
        <time>2020-06-28T08:52:23Z</time>
      </trkpt>
      <trkpt lat="48.77204" lon="7.98841">
        <ele>121.7</ele>
        <time>2020-06-28T08:52:24Z</time>
      </trkpt>
      <trkpt lat="48.77198" lon="7.98841">
        <ele>121.7</ele>
        <time>2020-06-28T08:52:25Z</time>
      </trkpt>
      <trkpt lat="48.77192" lon="7.98842">
        <ele>121.7</ele>
        <time>2020-06-28T08:52:26Z</time>
      </trkpt>
      <trkpt lat="48.77186" lon="7.98842">
        <ele>121.7</ele>
        <time>2020-06-28T08:52:27Z</time>
      </trkpt>
      <trkpt lat="48.7718" lon="7.98843">
        <ele>121.7</ele>
        <time>2020-06-28T08:52:28Z</time>
      </trkpt>
      <trkpt lat="48.77175" lon="7.98844">
        <ele>121.7</ele>
        <time>2020-06-28T08:52:29Z</time>
      </trkpt>
      <trkpt lat="48.7717" lon="7.98845">
        <ele>121.7</ele>
        <time>2020-06-28T08:52:30Z</time>
      </trkpt>
      <trkpt lat="48.77165" lon="7.98846">
        <ele>121.7</ele>
        <time>2020-06-28T08:52:31Z</time>
      </trkpt>
      <trkpt lat="48.77159" lon="7.98846">
        <ele>121.7</ele>
        <time>2020-06-28T08:52:32Z</time>
      </trkpt>
      <trkpt lat="48.77153" lon="7.98847">
        <ele>121.8</ele>
        <time>2020-06-28T08:52:33Z</time>
      </trkpt>
      <trkpt lat="48.77147" lon="7.98847">
        <ele>121.8</ele>
        <time>2020-06-28T08:52:34Z</time>
      </trkpt>
      <trkpt lat="48.77141" lon="7.98847">
        <ele>121.8</ele>
        <time>2020-06-28T08:52:35Z</time>
      </trkpt>
      <trkpt lat="48.77136" lon="7.98849">
        <ele>121.8</ele>
        <time>2020-06-28T08:52:36Z</time>
      </trkpt>
      <trkpt lat="48.77129" lon="7.9885">
        <ele>121.7</ele>
        <time>2020-06-28T08:52:37Z</time>
      </trkpt>
      <trkpt lat="48.77123" lon="7.9885">
        <ele>121.7</ele>
        <time>2020-06-28T08:52:38Z</time>
      </trkpt>
      <trkpt lat="48.77116" lon="7.98848">
        <ele>121.7</ele>
        <time>2020-06-28T08:52:39Z</time>
      </trkpt>
      <trkpt lat="48.7711" lon="7.98845">
        <ele>121.7</ele>
        <time>2020-06-28T08:52:40Z</time>
      </trkpt>
      <trkpt lat="48.77104" lon="7.9884">
        <ele>121.7</ele>
        <time>2020-06-28T08:52:41Z</time>
      </trkpt>
      <trkpt lat="48.771" lon="7.98833">
        <ele>121.8</ele>
        <time>2020-06-28T08:52:42Z</time>
      </trkpt>
      <trkpt lat="48.77096" lon="7.98825">
        <ele>121.7</ele>
        <time>2020-06-28T08:52:43Z</time>
      </trkpt>
      <trkpt lat="48.77092" lon="7.98817">
        <ele>121.6</ele>
        <time>2020-06-28T08:52:44Z</time>
      </trkpt>
      <trkpt lat="48.77088" lon="7.98809">
        <ele>121.5</ele>
        <time>2020-06-28T08:52:45Z</time>
      </trkpt>
      <trkpt lat="48.77085" lon="7.98799">
        <ele>121.5</ele>
        <time>2020-06-28T08:52:46Z</time>
      </trkpt>
      <trkpt lat="48.77083" lon="7.98792">
        <ele>121.4</ele>
        <time>2020-06-28T08:52:47Z</time>
      </trkpt>
      <trkpt lat="48.77079" lon="7.98784">
        <ele>121.4</ele>
        <time>2020-06-28T08:52:48Z</time>
      </trkpt>
      <trkpt lat="48.77077" lon="7.98777">
        <ele>121.4</ele>
        <time>2020-06-28T08:52:49Z</time>
      </trkpt>
      <trkpt lat="48.77074" lon="7.9877">
        <ele>121.3</ele>
        <time>2020-06-28T08:52:50Z</time>
      </trkpt>
      <trkpt lat="48.77071" lon="7.98762">
        <ele>121.2</ele>
        <time>2020-06-28T08:52:51Z</time>
      </trkpt>
      <trkpt lat="48.77069" lon="7.98756">
        <ele>121.2</ele>
        <time>2020-06-28T08:52:52Z</time>
      </trkpt>
      <trkpt lat="48.77066" lon="7.9875">
        <ele>121.1</ele>
        <time>2020-06-28T08:52:53Z</time>
      </trkpt>
      <trkpt lat="48.77064" lon="7.98744">
        <ele>121.1</ele>
        <time>2020-06-28T08:52:54Z</time>
      </trkpt>
      <trkpt lat="48.77061" lon="7.98739">
        <ele>121</ele>
        <time>2020-06-28T08:52:55Z</time>
      </trkpt>
      <trkpt lat="48.77058" lon="7.98733">
        <ele>120.9</ele>
        <time>2020-06-28T08:52:56Z</time>
      </trkpt>
      <trkpt lat="48.77054" lon="7.98726">
        <ele>120.9</ele>
        <time>2020-06-28T08:52:57Z</time>
      </trkpt>
      <trkpt lat="48.7705" lon="7.98718">
        <ele>120.8</ele>
        <time>2020-06-28T08:52:58Z</time>
      </trkpt>
      <trkpt lat="48.77045" lon="7.98713">
        <ele>120.8</ele>
        <time>2020-06-28T08:52:59Z</time>
      </trkpt>
      <trkpt lat="48.77041" lon="7.98706">
        <ele>120.7</ele>
        <time>2020-06-28T08:53:00Z</time>
      </trkpt>
      <trkpt lat="48.77037" lon="7.98699">
        <ele>120.7</ele>
        <time>2020-06-28T08:53:01Z</time>
      </trkpt>
      <trkpt lat="48.77032" lon="7.98691">
        <ele>120.6</ele>
        <time>2020-06-28T08:53:02Z</time>
      </trkpt>
      <trkpt lat="48.77026" lon="7.98682">
        <ele>120.5</ele>
        <time>2020-06-28T08:53:03Z</time>
      </trkpt>
      <trkpt lat="48.77019" lon="7.98674">
        <ele>120.5</ele>
        <time>2020-06-28T08:53:04Z</time>
      </trkpt>
      <trkpt lat="48.77014" lon="7.98667">
        <ele>120.5</ele>
        <time>2020-06-28T08:53:05Z</time>
      </trkpt>
      <trkpt lat="48.77009" lon="7.98659">
        <ele>120.5</ele>
        <time>2020-06-28T08:53:06Z</time>
      </trkpt>
      <trkpt lat="48.77003" lon="7.98653">
        <ele>120.5</ele>
        <time>2020-06-28T08:53:07Z</time>
      </trkpt>
      <trkpt lat="48.76997" lon="7.98647">
        <ele>120.5</ele>
        <time>2020-06-28T08:53:08Z</time>
      </trkpt>
      <trkpt lat="48.76992" lon="7.98643">
        <ele>120.5</ele>
        <time>2020-06-28T08:53:09Z</time>
      </trkpt>
      <trkpt lat="48.76987" lon="7.98638">
        <ele>120.5</ele>
        <time>2020-06-28T08:53:10Z</time>
      </trkpt>
      <trkpt lat="48.76982" lon="7.98631">
        <ele>120.5</ele>
        <time>2020-06-28T08:53:11Z</time>
      </trkpt>
      <trkpt lat="48.76977" lon="7.98626">
        <ele>120.5</ele>
        <time>2020-06-28T08:53:12Z</time>
      </trkpt>
      <trkpt lat="48.76972" lon="7.9862">
        <ele>120.5</ele>
        <time>2020-06-28T08:53:13Z</time>
      </trkpt>
      <trkpt lat="48.76967" lon="7.98614">
        <ele>120.5</ele>
        <time>2020-06-28T08:53:14Z</time>
      </trkpt>
      <trkpt lat="48.76962" lon="7.98607">
        <ele>120.5</ele>
        <time>2020-06-28T08:53:15Z</time>
      </trkpt>
      <trkpt lat="48.76958" lon="7.986">
        <ele>120.5</ele>
        <time>2020-06-28T08:53:16Z</time>
      </trkpt>
      <trkpt lat="48.76954" lon="7.98594">
        <ele>120.5</ele>
        <time>2020-06-28T08:53:17Z</time>
      </trkpt>
      <trkpt lat="48.76949" lon="7.98587">
        <ele>120.5</ele>
        <time>2020-06-28T08:53:18Z</time>
      </trkpt>
      <trkpt lat="48.76946" lon="7.98581">
        <ele>120.5</ele>
        <time>2020-06-28T08:53:19Z</time>
      </trkpt>
      <trkpt lat="48.76944" lon="7.98578">
        <ele>120.5</ele>
        <time>2020-06-28T08:53:20Z</time>
      </trkpt>
      <trkpt lat="48.76939" lon="7.98572">
        <ele>120.5</ele>
        <time>2020-06-28T08:53:21Z</time>
      </trkpt>
      <trkpt lat="48.76934" lon="7.98566">
        <ele>120.5</ele>
        <time>2020-06-28T08:53:22Z</time>
      </trkpt>
      <trkpt lat="48.76928" lon="7.98559">
        <ele>120.5</ele>
        <time>2020-06-28T08:53:23Z</time>
      </trkpt>
      <trkpt lat="48.76922" lon="7.98553">
        <ele>120.4</ele>
        <time>2020-06-28T08:53:24Z</time>
      </trkpt>
      <trkpt lat="48.76916" lon="7.98548">
        <ele>120.5</ele>
        <time>2020-06-28T08:53:25Z</time>
      </trkpt>
      <trkpt lat="48.76909" lon="7.98542">
        <ele>120.5</ele>
        <time>2020-06-28T08:53:26Z</time>
      </trkpt>
      <trkpt lat="48.76905" lon="7.98536">
        <ele>120.5</ele>
        <time>2020-06-28T08:53:27Z</time>
      </trkpt>
      <trkpt lat="48.769" lon="7.9853">
        <ele>120.5</ele>
        <time>2020-06-28T08:53:28Z</time>
      </trkpt>
      <trkpt lat="48.76895" lon="7.98524">
        <ele>120.5</ele>
        <time>2020-06-28T08:53:29Z</time>
      </trkpt>
      <trkpt lat="48.7689" lon="7.9852">
        <ele>120.5</ele>
        <time>2020-06-28T08:53:30Z</time>
      </trkpt>
      <trkpt lat="48.76887" lon="7.98514">
        <ele>120.6</ele>
        <time>2020-06-28T08:53:31Z</time>
      </trkpt>
      <trkpt lat="48.76882" lon="7.98508">
        <ele>120.6</ele>
        <time>2020-06-28T08:53:32Z</time>
      </trkpt>
      <trkpt lat="48.76878" lon="7.98502">
        <ele>120.7</ele>
        <time>2020-06-28T08:53:33Z</time>
      </trkpt>
      <trkpt lat="48.76874" lon="7.98496">
        <ele>120.8</ele>
        <time>2020-06-28T08:53:34Z</time>
      </trkpt>
      <trkpt lat="48.7687" lon="7.98491">
        <ele>120.8</ele>
        <time>2020-06-28T08:53:35Z</time>
      </trkpt>
      <trkpt lat="48.76866" lon="7.98486">
        <ele>120.9</ele>
        <time>2020-06-28T08:53:36Z</time>
      </trkpt>
      <trkpt lat="48.76862" lon="7.98482">
        <ele>120.9</ele>
        <time>2020-06-28T08:53:37Z</time>
      </trkpt>
      <trkpt lat="48.76857" lon="7.98476">
        <ele>121</ele>
        <time>2020-06-28T08:53:38Z</time>
      </trkpt>
      <trkpt lat="48.76853" lon="7.98471">
        <ele>121</ele>
        <time>2020-06-28T08:53:39Z</time>
      </trkpt>
      <trkpt lat="48.76849" lon="7.98466">
        <ele>121</ele>
        <time>2020-06-28T08:53:40Z</time>
      </trkpt>
      <trkpt lat="48.76846" lon="7.9846">
        <ele>121</ele>
        <time>2020-06-28T08:53:41Z</time>
      </trkpt>
      <trkpt lat="48.76842" lon="7.98454">
        <ele>121</ele>
        <time>2020-06-28T08:53:42Z</time>
      </trkpt>
      <trkpt lat="48.7684" lon="7.98446">
        <ele>121</ele>
        <time>2020-06-28T08:53:43Z</time>
      </trkpt>
      <trkpt lat="48.76837" lon="7.98439">
        <ele>121</ele>
        <time>2020-06-28T08:53:44Z</time>
      </trkpt>
      <trkpt lat="48.76834" lon="7.98434">
        <ele>121</ele>
        <time>2020-06-28T08:53:45Z</time>
      </trkpt>
      <trkpt lat="48.76831" lon="7.98427">
        <ele>121</ele>
        <time>2020-06-28T08:53:46Z</time>
      </trkpt>
      <trkpt lat="48.7683" lon="7.98423">
        <ele>121</ele>
        <time>2020-06-28T08:53:47Z</time>
      </trkpt>
      <trkpt lat="48.76828" lon="7.98421">
        <ele>121</ele>
        <time>2020-06-28T08:53:48Z</time>
      </trkpt>
      <trkpt lat="48.76826" lon="7.98416">
        <ele>121</ele>
        <time>2020-06-28T08:53:49Z</time>
      </trkpt>
      <trkpt lat="48.76823" lon="7.9841">
        <ele>121</ele>
        <time>2020-06-28T08:53:50Z</time>
      </trkpt>
      <trkpt lat="48.76817" lon="7.98406">
        <ele>121</ele>
        <time>2020-06-28T08:53:51Z</time>
      </trkpt>
      <trkpt lat="48.76812" lon="7.98399">
        <ele>121</ele>
        <time>2020-06-28T08:53:52Z</time>
      </trkpt>
      <trkpt lat="48.76808" lon="7.98392">
        <ele>121</ele>
        <time>2020-06-28T08:53:53Z</time>
      </trkpt>
      <trkpt lat="48.76804" lon="7.98383">
        <ele>121</ele>
        <time>2020-06-28T08:53:54Z</time>
      </trkpt>
      <trkpt lat="48.76799" lon="7.98374">
        <ele>121</ele>
        <time>2020-06-28T08:53:55Z</time>
      </trkpt>
      <trkpt lat="48.76795" lon="7.98366">
        <ele>121</ele>
        <time>2020-06-28T08:53:56Z</time>
      </trkpt>
      <trkpt lat="48.76791" lon="7.98358">
        <ele>121</ele>
        <time>2020-06-28T08:53:57Z</time>
      </trkpt>
      <trkpt lat="48.76787" lon="7.98353">
        <ele>120.9</ele>
        <time>2020-06-28T08:53:58Z</time>
      </trkpt>
      <trkpt lat="48.76783" lon="7.98346">
        <ele>120.9</ele>
        <time>2020-06-28T08:53:59Z</time>
      </trkpt>
      <trkpt lat="48.76778" lon="7.98338">
        <ele>120.9</ele>
        <time>2020-06-28T08:54:00Z</time>
      </trkpt>
      <trkpt lat="48.76773" lon="7.9833">
        <ele>120.9</ele>
        <time>2020-06-28T08:54:01Z</time>
      </trkpt>
      <trkpt lat="48.76769" lon="7.98323">
        <ele>120.9</ele>
        <time>2020-06-28T08:54:02Z</time>
      </trkpt>
      <trkpt lat="48.76764" lon="7.98314">
        <ele>120.8</ele>
        <time>2020-06-28T08:54:03Z</time>
      </trkpt>
      <trkpt lat="48.76759" lon="7.98305">
        <ele>120.8</ele>
        <time>2020-06-28T08:54:04Z</time>
      </trkpt>
      <trkpt lat="48.76755" lon="7.98296">
        <ele>120.8</ele>
        <time>2020-06-28T08:54:05Z</time>
      </trkpt>
      <trkpt lat="48.76751" lon="7.98286">
        <ele>120.8</ele>
        <time>2020-06-28T08:54:06Z</time>
      </trkpt>
      <trkpt lat="48.76747" lon="7.98278">
        <ele>120.8</ele>
        <time>2020-06-28T08:54:07Z</time>
      </trkpt>
      <trkpt lat="48.76743" lon="7.9827">
        <ele>120.8</ele>
        <time>2020-06-28T08:54:08Z</time>
      </trkpt>
      <trkpt lat="48.7674" lon="7.98262">
        <ele>120.8</ele>
        <time>2020-06-28T08:54:09Z</time>
      </trkpt>
      <trkpt lat="48.76736" lon="7.98255">
        <ele>120.8</ele>
        <time>2020-06-28T08:54:10Z</time>
      </trkpt>
      <trkpt lat="48.76733" lon="7.98248">
        <ele>120.8</ele>
        <time>2020-06-28T08:54:11Z</time>
      </trkpt>
      <trkpt lat="48.76729" lon="7.9824">
        <ele>120.8</ele>
        <time>2020-06-28T08:54:12Z</time>
      </trkpt>
      <trkpt lat="48.76726" lon="7.98233">
        <ele>120.8</ele>
        <time>2020-06-28T08:54:13Z</time>
      </trkpt>
      <trkpt lat="48.76723" lon="7.98226">
        <ele>120.8</ele>
        <time>2020-06-28T08:54:14Z</time>
      </trkpt>
      <trkpt lat="48.76717" lon="7.98215">
        <ele>120.8</ele>
        <time>2020-06-28T08:54:15Z</time>
      </trkpt>
      <trkpt lat="48.76714" lon="7.98208">
        <ele>120.8</ele>
        <time>2020-06-28T08:54:16Z</time>
      </trkpt>
      <trkpt lat="48.7671" lon="7.98202">
        <ele>120.8</ele>
        <time>2020-06-28T08:54:17Z</time>
      </trkpt>
      <trkpt lat="48.76706" lon="7.98197">
        <ele>120.8</ele>
        <time>2020-06-28T08:54:18Z</time>
      </trkpt>
      <trkpt lat="48.76704" lon="7.98192">
        <ele>120.8</ele>
        <time>2020-06-28T08:54:19Z</time>
      </trkpt>
      <trkpt lat="48.76703" lon="7.9819">
        <ele>120.8</ele>
        <time>2020-06-28T08:54:20Z</time>
      </trkpt>
      <trkpt lat="48.767" lon="7.98184">
        <ele>120.8</ele>
        <time>2020-06-28T08:54:21Z</time>
      </trkpt>
      <trkpt lat="48.76696" lon="7.98177">
        <ele>120.8</ele>
        <time>2020-06-28T08:54:22Z</time>
      </trkpt>
      <trkpt lat="48.76693" lon="7.98166">
        <ele>120.8</ele>
        <time>2020-06-28T08:54:23Z</time>
      </trkpt>
      <trkpt lat="48.76689" lon="7.98159">
        <ele>120.8</ele>
        <time>2020-06-28T08:54:24Z</time>
      </trkpt>
      <trkpt lat="48.76685" lon="7.98152">
        <ele>120.8</ele>
        <time>2020-06-28T08:54:25Z</time>
      </trkpt>
      <trkpt lat="48.76681" lon="7.98144">
        <ele>120.9</ele>
        <time>2020-06-28T08:54:26Z</time>
      </trkpt>
      <trkpt lat="48.76676" lon="7.98138">
        <ele>120.9</ele>
        <time>2020-06-28T08:54:27Z</time>
      </trkpt>
      <trkpt lat="48.76671" lon="7.98131">
        <ele>120.9</ele>
        <time>2020-06-28T08:54:28Z</time>
      </trkpt>
      <trkpt lat="48.76667" lon="7.98123">
        <ele>120.9</ele>
        <time>2020-06-28T08:54:29Z</time>
      </trkpt>
      <trkpt lat="48.76663" lon="7.98114">
        <ele>120.9</ele>
        <time>2020-06-28T08:54:30Z</time>
      </trkpt>
      <trkpt lat="48.76659" lon="7.98106">
        <ele>121</ele>
        <time>2020-06-28T08:54:31Z</time>
      </trkpt>
      <trkpt lat="48.76655" lon="7.98096">
        <ele>121</ele>
        <time>2020-06-28T08:54:32Z</time>
      </trkpt>
      <trkpt lat="48.76652" lon="7.98086">
        <ele>121</ele>
        <time>2020-06-28T08:54:33Z</time>
      </trkpt>
      <trkpt lat="48.76649" lon="7.98078">
        <ele>121</ele>
        <time>2020-06-28T08:54:34Z</time>
      </trkpt>
      <trkpt lat="48.76645" lon="7.98069">
        <ele>121</ele>
        <time>2020-06-28T08:54:35Z</time>
      </trkpt>
      <trkpt lat="48.76644" lon="7.98064">
        <ele>121</ele>
        <time>2020-06-28T08:54:36Z</time>
      </trkpt>
      <trkpt lat="48.76641" lon="7.98057">
        <ele>121</ele>
        <time>2020-06-28T08:54:37Z</time>
      </trkpt>
      <trkpt lat="48.76636" lon="7.98047">
        <ele>121</ele>
        <time>2020-06-28T08:54:38Z</time>
      </trkpt>
      <trkpt lat="48.76633" lon="7.98038">
        <ele>121</ele>
        <time>2020-06-28T08:54:39Z</time>
      </trkpt>
      <trkpt lat="48.7663" lon="7.98028">
        <ele>121.1</ele>
        <time>2020-06-28T08:54:40Z</time>
      </trkpt>
      <trkpt lat="48.76627" lon="7.98019">
        <ele>121.1</ele>
        <time>2020-06-28T08:54:41Z</time>
      </trkpt>
      <trkpt lat="48.76625" lon="7.98011">
        <ele>121.2</ele>
        <time>2020-06-28T08:54:42Z</time>
      </trkpt>
      <trkpt lat="48.76622" lon="7.98004">
        <ele>121.2</ele>
        <time>2020-06-28T08:54:43Z</time>
      </trkpt>
      <trkpt lat="48.76618" lon="7.97995">
        <ele>121.2</ele>
        <time>2020-06-28T08:54:44Z</time>
      </trkpt>
      <trkpt lat="48.76614" lon="7.97986">
        <ele>121.2</ele>
        <time>2020-06-28T08:54:45Z</time>
      </trkpt>
      <trkpt lat="48.76612" lon="7.9798">
        <ele>121.2</ele>
        <time>2020-06-28T08:54:46Z</time>
      </trkpt>
      <trkpt lat="48.76608" lon="7.97969">
        <ele>121.1</ele>
        <time>2020-06-28T08:54:47Z</time>
      </trkpt>
      <trkpt lat="48.76605" lon="7.97961">
        <ele>121.1</ele>
        <time>2020-06-28T08:54:48Z</time>
      </trkpt>
      <trkpt lat="48.76601" lon="7.97951">
        <ele>121</ele>
        <time>2020-06-28T08:54:49Z</time>
      </trkpt>
      <trkpt lat="48.766" lon="7.97944">
        <ele>121</ele>
        <time>2020-06-28T08:54:50Z</time>
      </trkpt>
      <trkpt lat="48.76598" lon="7.97935">
        <ele>121</ele>
        <time>2020-06-28T08:54:51Z</time>
      </trkpt>
      <trkpt lat="48.76594" lon="7.97923">
        <ele>121</ele>
        <time>2020-06-28T08:54:52Z</time>
      </trkpt>
      <trkpt lat="48.76591" lon="7.97913">
        <ele>121</ele>
        <time>2020-06-28T08:54:53Z</time>
      </trkpt>
      <trkpt lat="48.76588" lon="7.97906">
        <ele>121</ele>
        <time>2020-06-28T08:54:54Z</time>
      </trkpt>
      <trkpt lat="48.76586" lon="7.97896">
        <ele>121</ele>
        <time>2020-06-28T08:54:55Z</time>
      </trkpt>
      <trkpt lat="48.76584" lon="7.97885">
        <ele>121</ele>
        <time>2020-06-28T08:54:56Z</time>
      </trkpt>
      <trkpt lat="48.76582" lon="7.97876">
        <ele>121</ele>
        <time>2020-06-28T08:54:57Z</time>
      </trkpt>
      <trkpt lat="48.76581" lon="7.97866">
        <ele>121</ele>
        <time>2020-06-28T08:54:58Z</time>
      </trkpt>
      <trkpt lat="48.76579" lon="7.97857">
        <ele>121</ele>
        <time>2020-06-28T08:54:59Z</time>
      </trkpt>
      <trkpt lat="48.76577" lon="7.97849">
        <ele>121</ele>
        <time>2020-06-28T08:55:00Z</time>
      </trkpt>
      <trkpt lat="48.76575" lon="7.9784">
        <ele>121</ele>
        <time>2020-06-28T08:55:01Z</time>
      </trkpt>
      <trkpt lat="48.76573" lon="7.9783">
        <ele>121</ele>
        <time>2020-06-28T08:55:02Z</time>
      </trkpt>
      <trkpt lat="48.76571" lon="7.9782">
        <ele>121</ele>
        <time>2020-06-28T08:55:03Z</time>
      </trkpt>
      <trkpt lat="48.76569" lon="7.97809">
        <ele>120.9</ele>
        <time>2020-06-28T08:55:04Z</time>
      </trkpt>
      <trkpt lat="48.76566" lon="7.978">
        <ele>120.9</ele>
        <time>2020-06-28T08:55:05Z</time>
      </trkpt>
      <trkpt lat="48.76564" lon="7.97791">
        <ele>120.8</ele>
        <time>2020-06-28T08:55:06Z</time>
      </trkpt>
      <trkpt lat="48.76562" lon="7.97782">
        <ele>120.8</ele>
        <time>2020-06-28T08:55:07Z</time>
      </trkpt>
      <trkpt lat="48.7656" lon="7.9777">
        <ele>120.7</ele>
        <time>2020-06-28T08:55:08Z</time>
      </trkpt>
      <trkpt lat="48.76561" lon="7.97764">
        <ele>120.7</ele>
        <time>2020-06-28T08:55:09Z</time>
      </trkpt>
      <trkpt lat="48.76559" lon="7.97755">
        <ele>120.7</ele>
        <time>2020-06-28T08:55:10Z</time>
      </trkpt>
      <trkpt lat="48.76557" lon="7.97746">
        <ele>120.7</ele>
        <time>2020-06-28T08:55:11Z</time>
      </trkpt>
      <trkpt lat="48.76555" lon="7.97738">
        <ele>120.8</ele>
        <time>2020-06-28T08:55:12Z</time>
      </trkpt>
      <trkpt lat="48.76552" lon="7.97728">
        <ele>120.8</ele>
        <time>2020-06-28T08:55:13Z</time>
      </trkpt>
      <trkpt lat="48.76549" lon="7.97719">
        <ele>120.8</ele>
        <time>2020-06-28T08:55:14Z</time>
      </trkpt>
      <trkpt lat="48.76544" lon="7.97712">
        <ele>120.9</ele>
        <time>2020-06-28T08:55:15Z</time>
      </trkpt>
      <trkpt lat="48.76539" lon="7.97705">
        <ele>120.9</ele>
        <time>2020-06-28T08:55:16Z</time>
      </trkpt>
      <trkpt lat="48.76534" lon="7.97698">
        <ele>120.9</ele>
        <time>2020-06-28T08:55:17Z</time>
      </trkpt>
      <trkpt lat="48.7653" lon="7.97691">
        <ele>120.9</ele>
        <time>2020-06-28T08:55:18Z</time>
      </trkpt>
      <trkpt lat="48.76526" lon="7.97683">
        <ele>120.9</ele>
        <time>2020-06-28T08:55:19Z</time>
      </trkpt>
      <trkpt lat="48.76521" lon="7.97676">
        <ele>120.9</ele>
        <time>2020-06-28T08:55:20Z</time>
      </trkpt>
      <trkpt lat="48.76516" lon="7.9767">
        <ele>121</ele>
        <time>2020-06-28T08:55:21Z</time>
      </trkpt>
      <trkpt lat="48.76511" lon="7.97665">
        <ele>121</ele>
        <time>2020-06-28T08:55:22Z</time>
      </trkpt>
      <trkpt lat="48.76506" lon="7.97659">
        <ele>121</ele>
        <time>2020-06-28T08:55:23Z</time>
      </trkpt>
      <trkpt lat="48.76501" lon="7.97652">
        <ele>121</ele>
        <time>2020-06-28T08:55:24Z</time>
      </trkpt>
      <trkpt lat="48.76497" lon="7.97646">
        <ele>121</ele>
        <time>2020-06-28T08:55:25Z</time>
      </trkpt>
      <trkpt lat="48.76493" lon="7.9764">
        <ele>121</ele>
        <time>2020-06-28T08:55:26Z</time>
      </trkpt>
      <trkpt lat="48.76489" lon="7.97635">
        <ele>121.1</ele>
        <time>2020-06-28T08:55:27Z</time>
      </trkpt>
      <trkpt lat="48.76485" lon="7.9763">
        <ele>121.1</ele>
        <time>2020-06-28T08:55:28Z</time>
      </trkpt>
      <trkpt lat="48.7648" lon="7.97626">
        <ele>121.1</ele>
        <time>2020-06-28T08:55:29Z</time>
      </trkpt>
      <trkpt lat="48.76476" lon="7.97618">
        <ele>121.1</ele>
        <time>2020-06-28T08:55:30Z</time>
      </trkpt>
      <trkpt lat="48.76472" lon="7.9761">
        <ele>121.1</ele>
        <time>2020-06-28T08:55:31Z</time>
      </trkpt>
      <trkpt lat="48.76468" lon="7.976">
        <ele>121.1</ele>
        <time>2020-06-28T08:55:32Z</time>
      </trkpt>
      <trkpt lat="48.76465" lon="7.97591">
        <ele>121.1</ele>
        <time>2020-06-28T08:55:33Z</time>
      </trkpt>
      <trkpt lat="48.76463" lon="7.97582">
        <ele>121.1</ele>
        <time>2020-06-28T08:55:34Z</time>
      </trkpt>
      <trkpt lat="48.76461" lon="7.97571">
        <ele>121.1</ele>
        <time>2020-06-28T08:55:35Z</time>
      </trkpt>
      <trkpt lat="48.7646" lon="7.97561">
        <ele>121.1</ele>
        <time>2020-06-28T08:55:36Z</time>
      </trkpt>
      <trkpt lat="48.76459" lon="7.97552">
        <ele>121.1</ele>
        <time>2020-06-28T08:55:37Z</time>
      </trkpt>
      <trkpt lat="48.76458" lon="7.97545">
        <ele>121.1</ele>
        <time>2020-06-28T08:55:38Z</time>
      </trkpt>
      <trkpt lat="48.76458" lon="7.97537">
        <ele>121.2</ele>
        <time>2020-06-28T08:55:39Z</time>
      </trkpt>
      <trkpt lat="48.76457" lon="7.97527">
        <ele>121.2</ele>
        <time>2020-06-28T08:55:40Z</time>
      </trkpt>
      <trkpt lat="48.76455" lon="7.97518">
        <ele>121.2</ele>
        <time>2020-06-28T08:55:41Z</time>
      </trkpt>
      <trkpt lat="48.76454" lon="7.9751">
        <ele>121.2</ele>
        <time>2020-06-28T08:55:42Z</time>
      </trkpt>
      <trkpt lat="48.76453" lon="7.97502">
        <ele>121.3</ele>
        <time>2020-06-28T08:55:43Z</time>
      </trkpt>
      <trkpt lat="48.76452" lon="7.97494">
        <ele>121.3</ele>
        <time>2020-06-28T08:55:44Z</time>
      </trkpt>
      <trkpt lat="48.76451" lon="7.97487">
        <ele>121.3</ele>
        <time>2020-06-28T08:55:45Z</time>
      </trkpt>
      <trkpt lat="48.7645" lon="7.97478">
        <ele>121.4</ele>
        <time>2020-06-28T08:55:46Z</time>
      </trkpt>
      <trkpt lat="48.76448" lon="7.9747">
        <ele>121.4</ele>
        <time>2020-06-28T08:55:47Z</time>
      </trkpt>
      <trkpt lat="48.76446" lon="7.97461">
        <ele>121.4</ele>
        <time>2020-06-28T08:55:48Z</time>
      </trkpt>
      <trkpt lat="48.76445" lon="7.97452">
        <ele>121.5</ele>
        <time>2020-06-28T08:55:49Z</time>
      </trkpt>
      <trkpt lat="48.76442" lon="7.97443">
        <ele>121.5</ele>
        <time>2020-06-28T08:55:50Z</time>
      </trkpt>
      <trkpt lat="48.7644" lon="7.97434">
        <ele>121.5</ele>
        <time>2020-06-28T08:55:51Z</time>
      </trkpt>
      <trkpt lat="48.76437" lon="7.97428">
        <ele>121.5</ele>
        <time>2020-06-28T08:55:52Z</time>
      </trkpt>
      <trkpt lat="48.76435" lon="7.97418">
        <ele>121.6</ele>
        <time>2020-06-28T08:55:53Z</time>
      </trkpt>
      <trkpt lat="48.76433" lon="7.97411">
        <ele>121.7</ele>
        <time>2020-06-28T08:55:54Z</time>
      </trkpt>
      <trkpt lat="48.76432" lon="7.97408">
        <ele>121.7</ele>
        <time>2020-06-28T08:55:55Z</time>
      </trkpt>
      <trkpt lat="48.76429" lon="7.97401">
        <ele>121.8</ele>
        <time>2020-06-28T08:55:56Z</time>
      </trkpt>
      <trkpt lat="48.76427" lon="7.97397">
        <ele>121.8</ele>
        <time>2020-06-28T08:55:57Z</time>
      </trkpt>
      <trkpt lat="48.76425" lon="7.97391">
        <ele>121.8</ele>
        <time>2020-06-28T08:55:58Z</time>
      </trkpt>
      <trkpt lat="48.76424" lon="7.97387">
        <ele>121.9</ele>
        <time>2020-06-28T08:55:59Z</time>
      </trkpt>
      <trkpt lat="48.76422" lon="7.97382">
        <ele>121.9</ele>
        <time>2020-06-28T08:56:00Z</time>
      </trkpt>
      <trkpt lat="48.7642" lon="7.97378">
        <ele>121.9</ele>
        <time>2020-06-28T08:56:01Z</time>
      </trkpt>
      <trkpt lat="48.76419" lon="7.97372">
        <ele>122</ele>
        <time>2020-06-28T08:56:02Z</time>
      </trkpt>
      <trkpt lat="48.76418" lon="7.97367">
        <ele>122</ele>
        <time>2020-06-28T08:56:03Z</time>
      </trkpt>
      <trkpt lat="48.76416" lon="7.97361">
        <ele>122</ele>
        <time>2020-06-28T08:56:04Z</time>
      </trkpt>
      <trkpt lat="48.76416" lon="7.97356">
        <ele>122</ele>
        <time>2020-06-28T08:56:05Z</time>
      </trkpt>
      <trkpt lat="48.76416" lon="7.97349">
        <ele>122</ele>
        <time>2020-06-28T08:56:06Z</time>
      </trkpt>
      <trkpt lat="48.76416" lon="7.97342">
        <ele>122</ele>
        <time>2020-06-28T08:56:07Z</time>
      </trkpt>
      <trkpt lat="48.76414" lon="7.97336">
        <ele>122</ele>
        <time>2020-06-28T08:56:08Z</time>
      </trkpt>
      <trkpt lat="48.76411" lon="7.97329">
        <ele>122</ele>
        <time>2020-06-28T08:56:09Z</time>
      </trkpt>
      <trkpt lat="48.76407" lon="7.97325">
        <ele>122</ele>
        <time>2020-06-28T08:56:10Z</time>
      </trkpt>
      <trkpt lat="48.76402" lon="7.97321">
        <ele>121.9</ele>
        <time>2020-06-28T08:56:11Z</time>
      </trkpt>
      <trkpt lat="48.76398" lon="7.97316">
        <ele>121.9</ele>
        <time>2020-06-28T08:56:12Z</time>
      </trkpt>
      <trkpt lat="48.76394" lon="7.9731">
        <ele>121.9</ele>
        <time>2020-06-28T08:56:13Z</time>
      </trkpt>
      <trkpt lat="48.76391" lon="7.97304">
        <ele>121.9</ele>
        <time>2020-06-28T08:56:14Z</time>
      </trkpt>
      <trkpt lat="48.76389" lon="7.97296">
        <ele>121.9</ele>
        <time>2020-06-28T08:56:15Z</time>
      </trkpt>
      <trkpt lat="48.76387" lon="7.97288">
        <ele>122</ele>
        <time>2020-06-28T08:56:16Z</time>
      </trkpt>
      <trkpt lat="48.76386" lon="7.97283">
        <ele>122</ele>
        <time>2020-06-28T08:56:17Z</time>
      </trkpt>
      <trkpt lat="48.76383" lon="7.97276">
        <ele>121.9</ele>
        <time>2020-06-28T08:56:18Z</time>
      </trkpt>
      <trkpt lat="48.7638" lon="7.9727">
        <ele>121.9</ele>
        <time>2020-06-28T08:56:19Z</time>
      </trkpt>
      <trkpt lat="48.76377" lon="7.97263">
        <ele>121.9</ele>
        <time>2020-06-28T08:56:20Z</time>
      </trkpt>
      <trkpt lat="48.76374" lon="7.97256">
        <ele>121.9</ele>
        <time>2020-06-28T08:56:21Z</time>
      </trkpt>
      <trkpt lat="48.76372" lon="7.9725">
        <ele>121.9</ele>
        <time>2020-06-28T08:56:22Z</time>
      </trkpt>
      <trkpt lat="48.76369" lon="7.97243">
        <ele>121.9</ele>
        <time>2020-06-28T08:56:23Z</time>
      </trkpt>
      <trkpt lat="48.76366" lon="7.97235">
        <ele>121.9</ele>
        <time>2020-06-28T08:56:24Z</time>
      </trkpt>
      <trkpt lat="48.76363" lon="7.97227">
        <ele>121.9</ele>
        <time>2020-06-28T08:56:25Z</time>
      </trkpt>
      <trkpt lat="48.7636" lon="7.97219">
        <ele>121.9</ele>
        <time>2020-06-28T08:56:26Z</time>
      </trkpt>
      <trkpt lat="48.76358" lon="7.97212">
        <ele>121.9</ele>
        <time>2020-06-28T08:56:27Z</time>
      </trkpt>
      <trkpt lat="48.76355" lon="7.97204">
        <ele>121.9</ele>
        <time>2020-06-28T08:56:28Z</time>
      </trkpt>
      <trkpt lat="48.76353" lon="7.97196">
        <ele>121.9</ele>
        <time>2020-06-28T08:56:29Z</time>
      </trkpt>
      <trkpt lat="48.7635" lon="7.97189">
        <ele>121.8</ele>
        <time>2020-06-28T08:56:30Z</time>
      </trkpt>
      <trkpt lat="48.76348" lon="7.97182">
        <ele>121.8</ele>
        <time>2020-06-28T08:56:31Z</time>
      </trkpt>
      <trkpt lat="48.76347" lon="7.97175">
        <ele>121.8</ele>
        <time>2020-06-28T08:56:32Z</time>
      </trkpt>
      <trkpt lat="48.76344" lon="7.97167">
        <ele>121.8</ele>
        <time>2020-06-28T08:56:33Z</time>
      </trkpt>
      <trkpt lat="48.76342" lon="7.9716">
        <ele>121.8</ele>
        <time>2020-06-28T08:56:34Z</time>
      </trkpt>
      <trkpt lat="48.7634" lon="7.97153">
        <ele>121.7</ele>
        <time>2020-06-28T08:56:35Z</time>
      </trkpt>
      <trkpt lat="48.76338" lon="7.97145">
        <ele>121.7</ele>
        <time>2020-06-28T08:56:36Z</time>
      </trkpt>
      <trkpt lat="48.76336" lon="7.97138">
        <ele>121.7</ele>
        <time>2020-06-28T08:56:37Z</time>
      </trkpt>
      <trkpt lat="48.76333" lon="7.97131">
        <ele>121.7</ele>
        <time>2020-06-28T08:56:38Z</time>
      </trkpt>
      <trkpt lat="48.76331" lon="7.97124">
        <ele>121.7</ele>
        <time>2020-06-28T08:56:39Z</time>
      </trkpt>
      <trkpt lat="48.76328" lon="7.97117">
        <ele>121.7</ele>
        <time>2020-06-28T08:56:40Z</time>
      </trkpt>
      <trkpt lat="48.76326" lon="7.97111">
        <ele>121.7</ele>
        <time>2020-06-28T08:56:41Z</time>
      </trkpt>
      <trkpt lat="48.76323" lon="7.97104">
        <ele>121.7</ele>
        <time>2020-06-28T08:56:42Z</time>
      </trkpt>
      <trkpt lat="48.76321" lon="7.97099">
        <ele>121.7</ele>
        <time>2020-06-28T08:56:43Z</time>
      </trkpt>
      <trkpt lat="48.76319" lon="7.97093">
        <ele>121.7</ele>
        <time>2020-06-28T08:56:44Z</time>
      </trkpt>
      <trkpt lat="48.76318" lon="7.97088">
        <ele>121.7</ele>
        <time>2020-06-28T08:56:45Z</time>
      </trkpt>
      <trkpt lat="48.76316" lon="7.97083">
        <ele>121.8</ele>
        <time>2020-06-28T08:56:46Z</time>
      </trkpt>
      <trkpt lat="48.76313" lon="7.97078">
        <ele>121.8</ele>
        <time>2020-06-28T08:56:47Z</time>
      </trkpt>
      <trkpt lat="48.76312" lon="7.97072">
        <ele>121.8</ele>
        <time>2020-06-28T08:56:48Z</time>
      </trkpt>
      <trkpt lat="48.7631" lon="7.97067">
        <ele>121.8</ele>
        <time>2020-06-28T08:56:49Z</time>
      </trkpt>
      <trkpt lat="48.76308" lon="7.97062">
        <ele>121.8</ele>
        <time>2020-06-28T08:56:50Z</time>
      </trkpt>
      <trkpt lat="48.76306" lon="7.97057">
        <ele>121.8</ele>
        <time>2020-06-28T08:56:51Z</time>
      </trkpt>
      <trkpt lat="48.76304" lon="7.97053">
        <ele>121.8</ele>
        <time>2020-06-28T08:56:52Z</time>
      </trkpt>
      <trkpt lat="48.76303" lon="7.97047">
        <ele>121.8</ele>
        <time>2020-06-28T08:56:53Z</time>
      </trkpt>
      <trkpt lat="48.76301" lon="7.97041">
        <ele>121.8</ele>
        <time>2020-06-28T08:56:54Z</time>
      </trkpt>
      <trkpt lat="48.76298" lon="7.97035">
        <ele>121.8</ele>
        <time>2020-06-28T08:56:55Z</time>
      </trkpt>
      <trkpt lat="48.76295" lon="7.97029">
        <ele>121.8</ele>
        <time>2020-06-28T08:56:56Z</time>
      </trkpt>
      <trkpt lat="48.76293" lon="7.97023">
        <ele>121.8</ele>
        <time>2020-06-28T08:56:57Z</time>
      </trkpt>
      <trkpt lat="48.7629" lon="7.97017">
        <ele>121.8</ele>
        <time>2020-06-28T08:56:58Z</time>
      </trkpt>
      <trkpt lat="48.76288" lon="7.97011">
        <ele>121.8</ele>
        <time>2020-06-28T08:56:59Z</time>
      </trkpt>
      <trkpt lat="48.76286" lon="7.97005">
        <ele>121.8</ele>
        <time>2020-06-28T08:57:00Z</time>
      </trkpt>
      <trkpt lat="48.76284" lon="7.96999">
        <ele>121.8</ele>
        <time>2020-06-28T08:57:01Z</time>
      </trkpt>
      <trkpt lat="48.76282" lon="7.96993">
        <ele>121.8</ele>
        <time>2020-06-28T08:57:02Z</time>
      </trkpt>
      <trkpt lat="48.7628" lon="7.96987">
        <ele>121.8</ele>
        <time>2020-06-28T08:57:03Z</time>
      </trkpt>
      <trkpt lat="48.76278" lon="7.96981">
        <ele>121.8</ele>
        <time>2020-06-28T08:57:04Z</time>
      </trkpt>
      <trkpt lat="48.76277" lon="7.96977">
        <ele>121.7</ele>
        <time>2020-06-28T08:57:05Z</time>
      </trkpt>
      <trkpt lat="48.76275" lon="7.9697">
        <ele>121.7</ele>
        <time>2020-06-28T08:57:06Z</time>
      </trkpt>
      <trkpt lat="48.76273" lon="7.96964">
        <ele>121.7</ele>
        <time>2020-06-28T08:57:07Z</time>
      </trkpt>
      <trkpt lat="48.7627" lon="7.96958">
        <ele>121.7</ele>
        <time>2020-06-28T08:57:08Z</time>
      </trkpt>
      <trkpt lat="48.76268" lon="7.96951">
        <ele>121.7</ele>
        <time>2020-06-28T08:57:09Z</time>
      </trkpt>
      <trkpt lat="48.76266" lon="7.96944">
        <ele>121.7</ele>
        <time>2020-06-28T08:57:10Z</time>
      </trkpt>
      <trkpt lat="48.76264" lon="7.96938">
        <ele>121.7</ele>
        <time>2020-06-28T08:57:11Z</time>
      </trkpt>
      <trkpt lat="48.76262" lon="7.96932">
        <ele>121.7</ele>
        <time>2020-06-28T08:57:12Z</time>
      </trkpt>
      <trkpt lat="48.7626" lon="7.96926">
        <ele>121.7</ele>
        <time>2020-06-28T08:57:13Z</time>
      </trkpt>
      <trkpt lat="48.76258" lon="7.96921">
        <ele>121.7</ele>
        <time>2020-06-28T08:57:14Z</time>
      </trkpt>
      <trkpt lat="48.76254" lon="7.96916">
        <ele>121.7</ele>
        <time>2020-06-28T08:57:15Z</time>
      </trkpt>
      <trkpt lat="48.76251" lon="7.9691">
        <ele>121.7</ele>
        <time>2020-06-28T08:57:16Z</time>
      </trkpt>
      <trkpt lat="48.76249" lon="7.96904">
        <ele>121.7</ele>
        <time>2020-06-28T08:57:17Z</time>
      </trkpt>
      <trkpt lat="48.76247" lon="7.96898">
        <ele>121.7</ele>
        <time>2020-06-28T08:57:18Z</time>
      </trkpt>
      <trkpt lat="48.76245" lon="7.96892">
        <ele>121.7</ele>
        <time>2020-06-28T08:57:19Z</time>
      </trkpt>
      <trkpt lat="48.76244" lon="7.96886">
        <ele>121.7</ele>
        <time>2020-06-28T08:57:20Z</time>
      </trkpt>
      <trkpt lat="48.76241" lon="7.9688">
        <ele>121.7</ele>
        <time>2020-06-28T08:57:21Z</time>
      </trkpt>
      <trkpt lat="48.7624" lon="7.96873">
        <ele>121.7</ele>
        <time>2020-06-28T08:57:22Z</time>
      </trkpt>
      <trkpt lat="48.76238" lon="7.96866">
        <ele>121.7</ele>
        <time>2020-06-28T08:57:23Z</time>
      </trkpt>
      <trkpt lat="48.76235" lon="7.9686">
        <ele>121.7</ele>
        <time>2020-06-28T08:57:24Z</time>
      </trkpt>
      <trkpt lat="48.76232" lon="7.96854">
        <ele>121.7</ele>
        <time>2020-06-28T08:57:25Z</time>
      </trkpt>
      <trkpt lat="48.7623" lon="7.96848">
        <ele>121.7</ele>
        <time>2020-06-28T08:57:26Z</time>
      </trkpt>
      <trkpt lat="48.76227" lon="7.96842">
        <ele>121.8</ele>
        <time>2020-06-28T08:57:27Z</time>
      </trkpt>
      <trkpt lat="48.76225" lon="7.96835">
        <ele>121.8</ele>
        <time>2020-06-28T08:57:28Z</time>
      </trkpt>
      <trkpt lat="48.76223" lon="7.96829">
        <ele>121.8</ele>
        <time>2020-06-28T08:57:29Z</time>
      </trkpt>
      <trkpt lat="48.76221" lon="7.96823">
        <ele>121.8</ele>
        <time>2020-06-28T08:57:30Z</time>
      </trkpt>
      <trkpt lat="48.76219" lon="7.96816">
        <ele>121.8</ele>
        <time>2020-06-28T08:57:31Z</time>
      </trkpt>
      <trkpt lat="48.76216" lon="7.96811">
        <ele>121.8</ele>
        <time>2020-06-28T08:57:32Z</time>
      </trkpt>
      <trkpt lat="48.76214" lon="7.96805">
        <ele>121.8</ele>
        <time>2020-06-28T08:57:33Z</time>
      </trkpt>
      <trkpt lat="48.76211" lon="7.968">
        <ele>121.8</ele>
        <time>2020-06-28T08:57:34Z</time>
      </trkpt>
      <trkpt lat="48.76209" lon="7.96794">
        <ele>121.8</ele>
        <time>2020-06-28T08:57:35Z</time>
      </trkpt>
      <trkpt lat="48.76208" lon="7.96788">
        <ele>121.8</ele>
        <time>2020-06-28T08:57:36Z</time>
      </trkpt>
      <trkpt lat="48.76206" lon="7.96782">
        <ele>121.8</ele>
        <time>2020-06-28T08:57:37Z</time>
      </trkpt>
      <trkpt lat="48.76203" lon="7.96774">
        <ele>121.8</ele>
        <time>2020-06-28T08:57:38Z</time>
      </trkpt>
      <trkpt lat="48.76201" lon="7.96766">
        <ele>121.8</ele>
        <time>2020-06-28T08:57:39Z</time>
      </trkpt>
      <trkpt lat="48.76198" lon="7.9676">
        <ele>121.8</ele>
        <time>2020-06-28T08:57:40Z</time>
      </trkpt>
      <trkpt lat="48.76196" lon="7.96753">
        <ele>121.8</ele>
        <time>2020-06-28T08:57:41Z</time>
      </trkpt>
      <trkpt lat="48.76194" lon="7.96746">
        <ele>121.9</ele>
        <time>2020-06-28T08:57:42Z</time>
      </trkpt>
      <trkpt lat="48.76193" lon="7.9674">
        <ele>121.9</ele>
        <time>2020-06-28T08:57:43Z</time>
      </trkpt>
      <trkpt lat="48.7619" lon="7.96733">
        <ele>121.9</ele>
        <time>2020-06-28T08:57:44Z</time>
      </trkpt>
      <trkpt lat="48.76187" lon="7.96726">
        <ele>121.9</ele>
        <time>2020-06-28T08:57:45Z</time>
      </trkpt>
      <trkpt lat="48.76184" lon="7.9672">
        <ele>121.9</ele>
        <time>2020-06-28T08:57:46Z</time>
      </trkpt>
      <trkpt lat="48.76181" lon="7.96714">
        <ele>121.9</ele>
        <time>2020-06-28T08:57:47Z</time>
      </trkpt>
      <trkpt lat="48.7618" lon="7.96709">
        <ele>121.9</ele>
        <time>2020-06-28T08:57:48Z</time>
      </trkpt>
      <trkpt lat="48.76177" lon="7.96703">
        <ele>121.9</ele>
        <time>2020-06-28T08:57:49Z</time>
      </trkpt>
      <trkpt lat="48.76176" lon="7.96696">
        <ele>121.9</ele>
        <time>2020-06-28T08:57:50Z</time>
      </trkpt>
      <trkpt lat="48.76174" lon="7.96689">
        <ele>122</ele>
        <time>2020-06-28T08:57:51Z</time>
      </trkpt>
      <trkpt lat="48.76171" lon="7.96682">
        <ele>122</ele>
        <time>2020-06-28T08:57:52Z</time>
      </trkpt>
      <trkpt lat="48.76168" lon="7.96675">
        <ele>122</ele>
        <time>2020-06-28T08:57:53Z</time>
      </trkpt>
      <trkpt lat="48.76166" lon="7.96668">
        <ele>122</ele>
        <time>2020-06-28T08:57:54Z</time>
      </trkpt>
      <trkpt lat="48.76163" lon="7.96661">
        <ele>122.1</ele>
        <time>2020-06-28T08:57:55Z</time>
      </trkpt>
      <trkpt lat="48.76161" lon="7.96654">
        <ele>122.1</ele>
        <time>2020-06-28T08:57:56Z</time>
      </trkpt>
      <trkpt lat="48.7616" lon="7.96646">
        <ele>122.1</ele>
        <time>2020-06-28T08:57:57Z</time>
      </trkpt>
      <trkpt lat="48.76158" lon="7.9664">
        <ele>122.1</ele>
        <time>2020-06-28T08:57:58Z</time>
      </trkpt>
      <trkpt lat="48.76156" lon="7.96633">
        <ele>122.1</ele>
        <time>2020-06-28T08:57:59Z</time>
      </trkpt>
      <trkpt lat="48.76154" lon="7.96627">
        <ele>122.2</ele>
        <time>2020-06-28T08:58:00Z</time>
      </trkpt>
      <trkpt lat="48.76152" lon="7.9662">
        <ele>122.2</ele>
        <time>2020-06-28T08:58:01Z</time>
      </trkpt>
      <trkpt lat="48.7615" lon="7.96612">
        <ele>122.2</ele>
        <time>2020-06-28T08:58:02Z</time>
      </trkpt>
      <trkpt lat="48.76148" lon="7.96604">
        <ele>122.2</ele>
        <time>2020-06-28T08:58:03Z</time>
      </trkpt>
      <trkpt lat="48.76145" lon="7.96597">
        <ele>122.2</ele>
        <time>2020-06-28T08:58:04Z</time>
      </trkpt>
      <trkpt lat="48.76144" lon="7.96591">
        <ele>122.2</ele>
        <time>2020-06-28T08:58:05Z</time>
      </trkpt>
      <trkpt lat="48.76142" lon="7.96585">
        <ele>122.2</ele>
        <time>2020-06-28T08:58:06Z</time>
      </trkpt>
      <trkpt lat="48.76139" lon="7.96579">
        <ele>122.2</ele>
        <time>2020-06-28T08:58:07Z</time>
      </trkpt>
      <trkpt lat="48.76137" lon="7.96573">
        <ele>122.3</ele>
        <time>2020-06-28T08:58:08Z</time>
      </trkpt>
      <trkpt lat="48.76134" lon="7.96566">
        <ele>122.3</ele>
        <time>2020-06-28T08:58:09Z</time>
      </trkpt>
      <trkpt lat="48.76132" lon="7.9656">
        <ele>122.3</ele>
        <time>2020-06-28T08:58:10Z</time>
      </trkpt>
      <trkpt lat="48.76129" lon="7.96553">
        <ele>122.3</ele>
        <time>2020-06-28T08:58:11Z</time>
      </trkpt>
      <trkpt lat="48.76127" lon="7.96545">
        <ele>122.2</ele>
        <time>2020-06-28T08:58:12Z</time>
      </trkpt>
      <trkpt lat="48.76125" lon="7.96538">
        <ele>122.2</ele>
        <time>2020-06-28T08:58:13Z</time>
      </trkpt>
      <trkpt lat="48.76123" lon="7.96532">
        <ele>122.2</ele>
        <time>2020-06-28T08:58:14Z</time>
      </trkpt>
      <trkpt lat="48.76121" lon="7.96525">
        <ele>122.2</ele>
        <time>2020-06-28T08:58:15Z</time>
      </trkpt>
      <trkpt lat="48.76119" lon="7.96519">
        <ele>122.2</ele>
        <time>2020-06-28T08:58:16Z</time>
      </trkpt>
      <trkpt lat="48.76117" lon="7.96511">
        <ele>122.2</ele>
        <time>2020-06-28T08:58:17Z</time>
      </trkpt>
      <trkpt lat="48.76115" lon="7.96503">
        <ele>122.2</ele>
        <time>2020-06-28T08:58:18Z</time>
      </trkpt>
      <trkpt lat="48.76113" lon="7.96496">
        <ele>122.2</ele>
        <time>2020-06-28T08:58:19Z</time>
      </trkpt>
      <trkpt lat="48.76111" lon="7.96488">
        <ele>122.2</ele>
        <time>2020-06-28T08:58:20Z</time>
      </trkpt>
      <trkpt lat="48.76108" lon="7.96482">
        <ele>122.2</ele>
        <time>2020-06-28T08:58:21Z</time>
      </trkpt>
      <trkpt lat="48.76105" lon="7.96477">
        <ele>122.2</ele>
        <time>2020-06-28T08:58:22Z</time>
      </trkpt>
      <trkpt lat="48.76102" lon="7.96471">
        <ele>122.1</ele>
        <time>2020-06-28T08:58:23Z</time>
      </trkpt>
      <trkpt lat="48.761" lon="7.96464">
        <ele>122.1</ele>
        <time>2020-06-28T08:58:24Z</time>
      </trkpt>
      <trkpt lat="48.76097" lon="7.96458">
        <ele>122.1</ele>
        <time>2020-06-28T08:58:25Z</time>
      </trkpt>
      <trkpt lat="48.76094" lon="7.96452">
        <ele>122.1</ele>
        <time>2020-06-28T08:58:26Z</time>
      </trkpt>
      <trkpt lat="48.76092" lon="7.96445">
        <ele>122.1</ele>
        <time>2020-06-28T08:58:27Z</time>
      </trkpt>
      <trkpt lat="48.76089" lon="7.96438">
        <ele>122</ele>
        <time>2020-06-28T08:58:28Z</time>
      </trkpt>
      <trkpt lat="48.76087" lon="7.96431">
        <ele>122</ele>
        <time>2020-06-28T08:58:29Z</time>
      </trkpt>
      <trkpt lat="48.76084" lon="7.96424">
        <ele>122</ele>
        <time>2020-06-28T08:58:30Z</time>
      </trkpt>
      <trkpt lat="48.76081" lon="7.96418">
        <ele>122</ele>
        <time>2020-06-28T08:58:31Z</time>
      </trkpt>
      <trkpt lat="48.76079" lon="7.96411">
        <ele>122</ele>
        <time>2020-06-28T08:58:32Z</time>
      </trkpt>
      <trkpt lat="48.76077" lon="7.96405">
        <ele>122</ele>
        <time>2020-06-28T08:58:33Z</time>
      </trkpt>
      <trkpt lat="48.76074" lon="7.96398">
        <ele>122</ele>
        <time>2020-06-28T08:58:34Z</time>
      </trkpt>
      <trkpt lat="48.76072" lon="7.96391">
        <ele>122</ele>
        <time>2020-06-28T08:58:35Z</time>
      </trkpt>
      <trkpt lat="48.76069" lon="7.96385">
        <ele>121.9</ele>
        <time>2020-06-28T08:58:36Z</time>
      </trkpt>
      <trkpt lat="48.76067" lon="7.9638">
        <ele>121.9</ele>
        <time>2020-06-28T08:58:37Z</time>
      </trkpt>
      <trkpt lat="48.76066" lon="7.96374">
        <ele>121.9</ele>
        <time>2020-06-28T08:58:38Z</time>
      </trkpt>
      <trkpt lat="48.76064" lon="7.96369">
        <ele>121.9</ele>
        <time>2020-06-28T08:58:39Z</time>
      </trkpt>
      <trkpt lat="48.76062" lon="7.96364">
        <ele>121.9</ele>
        <time>2020-06-28T08:58:40Z</time>
      </trkpt>
      <trkpt lat="48.76061" lon="7.96357">
        <ele>121.9</ele>
        <time>2020-06-28T08:58:41Z</time>
      </trkpt>
      <trkpt lat="48.76061" lon="7.96351">
        <ele>121.9</ele>
        <time>2020-06-28T08:58:42Z</time>
      </trkpt>
      <trkpt lat="48.76059" lon="7.96344">
        <ele>121.9</ele>
        <time>2020-06-28T08:58:43Z</time>
      </trkpt>
      <trkpt lat="48.76059" lon="7.96338">
        <ele>121.9</ele>
        <time>2020-06-28T08:58:44Z</time>
      </trkpt>
      <trkpt lat="48.7606" lon="7.96331">
        <ele>121.9</ele>
        <time>2020-06-28T08:58:45Z</time>
      </trkpt>
      <trkpt lat="48.76062" lon="7.96322">
        <ele>121.9</ele>
        <time>2020-06-28T08:58:46Z</time>
      </trkpt>
      <trkpt lat="48.76063" lon="7.96313">
        <ele>122</ele>
        <time>2020-06-28T08:58:47Z</time>
      </trkpt>
      <trkpt lat="48.76064" lon="7.96305">
        <ele>122</ele>
        <time>2020-06-28T08:58:48Z</time>
      </trkpt>
      <trkpt lat="48.76064" lon="7.96299">
        <ele>122</ele>
        <time>2020-06-28T08:58:49Z</time>
      </trkpt>
      <trkpt lat="48.76062" lon="7.96293">
        <ele>122.1</ele>
        <time>2020-06-28T08:58:50Z</time>
      </trkpt>
      <trkpt lat="48.7606" lon="7.9629">
        <ele>122.1</ele>
        <time>2020-06-28T08:58:51Z</time>
      </trkpt>
      <trkpt lat="48.76056" lon="7.96289">
        <ele>122.1</ele>
        <time>2020-06-28T08:58:52Z</time>
      </trkpt>
      <trkpt lat="48.7605" lon="7.96289">
        <ele>122.1</ele>
        <time>2020-06-28T08:58:53Z</time>
      </trkpt>
      <trkpt lat="48.76046" lon="7.96287">
        <ele>122.1</ele>
        <time>2020-06-28T08:58:54Z</time>
      </trkpt>
      <trkpt lat="48.76042" lon="7.96283">
        <ele>122.1</ele>
        <time>2020-06-28T08:58:55Z</time>
      </trkpt>
      <trkpt lat="48.7604" lon="7.96278">
        <ele>122.1</ele>
        <time>2020-06-28T08:58:56Z</time>
      </trkpt>
      <trkpt lat="48.76038" lon="7.96271">
        <ele>122.1</ele>
        <time>2020-06-28T08:58:57Z</time>
      </trkpt>
      <trkpt lat="48.76036" lon="7.96265">
        <ele>122.1</ele>
        <time>2020-06-28T08:58:58Z</time>
      </trkpt>
      <trkpt lat="48.76033" lon="7.9626">
        <ele>122.1</ele>
        <time>2020-06-28T08:58:59Z</time>
      </trkpt>
      <trkpt lat="48.7603" lon="7.96253">
        <ele>122.1</ele>
        <time>2020-06-28T08:59:00Z</time>
      </trkpt>
      <trkpt lat="48.76028" lon="7.96247">
        <ele>122.1</ele>
        <time>2020-06-28T08:59:01Z</time>
      </trkpt>
      <trkpt lat="48.76026" lon="7.9624">
        <ele>122</ele>
        <time>2020-06-28T08:59:02Z</time>
      </trkpt>
      <trkpt lat="48.76024" lon="7.96234">
        <ele>122</ele>
        <time>2020-06-28T08:59:03Z</time>
      </trkpt>
      <trkpt lat="48.76022" lon="7.96228">
        <ele>122</ele>
        <time>2020-06-28T08:59:04Z</time>
      </trkpt>
      <trkpt lat="48.7602" lon="7.96221">
        <ele>122</ele>
        <time>2020-06-28T08:59:05Z</time>
      </trkpt>
      <trkpt lat="48.76018" lon="7.96214">
        <ele>122</ele>
        <time>2020-06-28T08:59:06Z</time>
      </trkpt>
      <trkpt lat="48.76016" lon="7.96207">
        <ele>122</ele>
        <time>2020-06-28T08:59:07Z</time>
      </trkpt>
      <trkpt lat="48.76014" lon="7.962">
        <ele>122.1</ele>
        <time>2020-06-28T08:59:08Z</time>
      </trkpt>
      <trkpt lat="48.76011" lon="7.96194">
        <ele>122.1</ele>
        <time>2020-06-28T08:59:09Z</time>
      </trkpt>
      <trkpt lat="48.76008" lon="7.96188">
        <ele>122.1</ele>
        <time>2020-06-28T08:59:10Z</time>
      </trkpt>
      <trkpt lat="48.76005" lon="7.96181">
        <ele>122.2</ele>
        <time>2020-06-28T08:59:11Z</time>
      </trkpt>
      <trkpt lat="48.76002" lon="7.96174">
        <ele>122.2</ele>
        <time>2020-06-28T08:59:12Z</time>
      </trkpt>
      <trkpt lat="48.75999" lon="7.96168">
        <ele>122.3</ele>
        <time>2020-06-28T08:59:13Z</time>
      </trkpt>
      <trkpt lat="48.75997" lon="7.9616">
        <ele>122.3</ele>
        <time>2020-06-28T08:59:14Z</time>
      </trkpt>
      <trkpt lat="48.75995" lon="7.96154">
        <ele>122.4</ele>
        <time>2020-06-28T08:59:15Z</time>
      </trkpt>
      <trkpt lat="48.75992" lon="7.96147">
        <ele>122.4</ele>
        <time>2020-06-28T08:59:16Z</time>
      </trkpt>
      <trkpt lat="48.7599" lon="7.96141">
        <ele>122.5</ele>
        <time>2020-06-28T08:59:17Z</time>
      </trkpt>
      <trkpt lat="48.75988" lon="7.96135">
        <ele>122.5</ele>
        <time>2020-06-28T08:59:18Z</time>
      </trkpt>
      <trkpt lat="48.75985" lon="7.96129">
        <ele>122.5</ele>
        <time>2020-06-28T08:59:19Z</time>
      </trkpt>
      <trkpt lat="48.75983" lon="7.96124">
        <ele>122.6</ele>
        <time>2020-06-28T08:59:20Z</time>
      </trkpt>
      <trkpt lat="48.75981" lon="7.9612">
        <ele>122.6</ele>
        <time>2020-06-28T08:59:21Z</time>
      </trkpt>
      <trkpt lat="48.75978" lon="7.96116">
        <ele>122.6</ele>
        <time>2020-06-28T08:59:22Z</time>
      </trkpt>
      <trkpt lat="48.75975" lon="7.96111">
        <ele>122.6</ele>
        <time>2020-06-28T08:59:23Z</time>
      </trkpt>
      <trkpt lat="48.75971" lon="7.96107">
        <ele>122.6</ele>
        <time>2020-06-28T08:59:24Z</time>
      </trkpt>
      <trkpt lat="48.75968" lon="7.96103">
        <ele>122.6</ele>
        <time>2020-06-28T08:59:25Z</time>
      </trkpt>
      <trkpt lat="48.75964" lon="7.961">
        <ele>122.6</ele>
        <time>2020-06-28T08:59:26Z</time>
      </trkpt>
      <trkpt lat="48.7596" lon="7.96096">
        <ele>122.6</ele>
        <time>2020-06-28T08:59:27Z</time>
      </trkpt>
      <trkpt lat="48.75956" lon="7.96091">
        <ele>122.6</ele>
        <time>2020-06-28T08:59:28Z</time>
      </trkpt>
      <trkpt lat="48.75953" lon="7.96086">
        <ele>122.6</ele>
        <time>2020-06-28T08:59:29Z</time>
      </trkpt>
      <trkpt lat="48.75949" lon="7.96081">
        <ele>122.6</ele>
        <time>2020-06-28T08:59:30Z</time>
      </trkpt>
      <trkpt lat="48.75946" lon="7.96077">
        <ele>122.7</ele>
        <time>2020-06-28T08:59:31Z</time>
      </trkpt>
      <trkpt lat="48.75943" lon="7.96073">
        <ele>122.7</ele>
        <time>2020-06-28T08:59:32Z</time>
      </trkpt>
      <trkpt lat="48.75939" lon="7.96069">
        <ele>122.7</ele>
        <time>2020-06-28T08:59:33Z</time>
      </trkpt>
      <trkpt lat="48.75936" lon="7.96065">
        <ele>122.7</ele>
        <time>2020-06-28T08:59:34Z</time>
      </trkpt>
      <trkpt lat="48.75933" lon="7.96061">
        <ele>122.7</ele>
        <time>2020-06-28T08:59:35Z</time>
      </trkpt>
      <trkpt lat="48.7593" lon="7.96057">
        <ele>122.7</ele>
        <time>2020-06-28T08:59:36Z</time>
      </trkpt>
      <trkpt lat="48.75927" lon="7.96055">
        <ele>122.7</ele>
        <time>2020-06-28T08:59:37Z</time>
      </trkpt>
      <trkpt lat="48.75924" lon="7.96052">
        <ele>122.7</ele>
        <time>2020-06-28T08:59:38Z</time>
      </trkpt>
      <trkpt lat="48.75922" lon="7.96049">
        <ele>122.7</ele>
        <time>2020-06-28T08:59:39Z</time>
      </trkpt>
      <trkpt lat="48.75919" lon="7.96047">
        <ele>122.7</ele>
        <time>2020-06-28T08:59:40Z</time>
      </trkpt>
      <trkpt lat="48.75916" lon="7.96043">
        <ele>122.7</ele>
        <time>2020-06-28T08:59:41Z</time>
      </trkpt>
      <trkpt lat="48.75914" lon="7.96041">
        <ele>122.7</ele>
        <time>2020-06-28T08:59:42Z</time>
      </trkpt>
      <trkpt lat="48.75912" lon="7.96036">
        <ele>122.7</ele>
        <time>2020-06-28T08:59:43Z</time>
      </trkpt>
      <trkpt lat="48.75909" lon="7.96033">
        <ele>122.8</ele>
        <time>2020-06-28T08:59:44Z</time>
      </trkpt>
      <trkpt lat="48.75905" lon="7.9603">
        <ele>122.8</ele>
        <time>2020-06-28T08:59:45Z</time>
      </trkpt>
      <trkpt lat="48.75903" lon="7.96028">
        <ele>122.8</ele>
        <time>2020-06-28T08:59:46Z</time>
      </trkpt>
      <trkpt lat="48.759" lon="7.96027">
        <ele>122.8</ele>
        <time>2020-06-28T08:59:47Z</time>
      </trkpt>
      <trkpt lat="48.75897" lon="7.96025">
        <ele>122.8</ele>
        <time>2020-06-28T08:59:48Z</time>
      </trkpt>
      <trkpt lat="48.75894" lon="7.96024">
        <ele>122.8</ele>
        <time>2020-06-28T08:59:49Z</time>
      </trkpt>
      <trkpt lat="48.75891" lon="7.96022">
        <ele>122.8</ele>
        <time>2020-06-28T08:59:50Z</time>
      </trkpt>
      <trkpt lat="48.75888" lon="7.9602">
        <ele>122.9</ele>
        <time>2020-06-28T08:59:51Z</time>
      </trkpt>
      <trkpt lat="48.75886" lon="7.96019">
        <ele>122.9</ele>
        <time>2020-06-28T08:59:52Z</time>
      </trkpt>
      <trkpt lat="48.75883" lon="7.96017">
        <ele>122.9</ele>
        <time>2020-06-28T08:59:53Z</time>
      </trkpt>
      <trkpt lat="48.75879" lon="7.96015">
        <ele>122.9</ele>
        <time>2020-06-28T08:59:54Z</time>
      </trkpt>
      <trkpt lat="48.75876" lon="7.96014">
        <ele>122.9</ele>
        <time>2020-06-28T08:59:55Z</time>
      </trkpt>
      <trkpt lat="48.75873" lon="7.96014">
        <ele>122.9</ele>
        <time>2020-06-28T08:59:56Z</time>
      </trkpt>
      <trkpt lat="48.75869" lon="7.96014">
        <ele>123</ele>
        <time>2020-06-28T08:59:57Z</time>
      </trkpt>
      <trkpt lat="48.75865" lon="7.96013">
        <ele>123</ele>
        <time>2020-06-28T08:59:58Z</time>
      </trkpt>
      <trkpt lat="48.75861" lon="7.96012">
        <ele>123</ele>
        <time>2020-06-28T08:59:59Z</time>
      </trkpt>
      <trkpt lat="48.75857" lon="7.9601">
        <ele>123</ele>
        <time>2020-06-28T09:00:00Z</time>
      </trkpt>
      <trkpt lat="48.75853" lon="7.96009">
        <ele>123</ele>
        <time>2020-06-28T09:00:01Z</time>
      </trkpt>
      <trkpt lat="48.75849" lon="7.96008">
        <ele>123</ele>
        <time>2020-06-28T09:00:02Z</time>
      </trkpt>
      <trkpt lat="48.75845" lon="7.96007">
        <ele>123</ele>
        <time>2020-06-28T09:00:03Z</time>
      </trkpt>
      <trkpt lat="48.7584" lon="7.96005">
        <ele>123.1</ele>
        <time>2020-06-28T09:00:04Z</time>
      </trkpt>
      <trkpt lat="48.75836" lon="7.96004">
        <ele>123.1</ele>
        <time>2020-06-28T09:00:05Z</time>
      </trkpt>
      <trkpt lat="48.75832" lon="7.96003">
        <ele>123.1</ele>
        <time>2020-06-28T09:00:06Z</time>
      </trkpt>
      <trkpt lat="48.75828" lon="7.96003">
        <ele>123.1</ele>
        <time>2020-06-28T09:00:07Z</time>
      </trkpt>
      <trkpt lat="48.75824" lon="7.96002">
        <ele>123.1</ele>
        <time>2020-06-28T09:00:08Z</time>
      </trkpt>
      <trkpt lat="48.7582" lon="7.96">
        <ele>123.1</ele>
        <time>2020-06-28T09:00:09Z</time>
      </trkpt>
      <trkpt lat="48.75816" lon="7.95999">
        <ele>123.1</ele>
        <time>2020-06-28T09:00:10Z</time>
      </trkpt>
      <trkpt lat="48.75813" lon="7.95997">
        <ele>123.1</ele>
        <time>2020-06-28T09:00:11Z</time>
      </trkpt>
      <trkpt lat="48.7581" lon="7.95992">
        <ele>123</ele>
        <time>2020-06-28T09:00:12Z</time>
      </trkpt>
      <trkpt lat="48.75807" lon="7.95988">
        <ele>123</ele>
        <time>2020-06-28T09:00:13Z</time>
      </trkpt>
      <trkpt lat="48.75804" lon="7.95985">
        <ele>123</ele>
        <time>2020-06-28T09:00:14Z</time>
      </trkpt>
      <trkpt lat="48.758" lon="7.95983">
        <ele>123</ele>
        <time>2020-06-28T09:00:15Z</time>
      </trkpt>
      <trkpt lat="48.75796" lon="7.95982">
        <ele>123</ele>
        <time>2020-06-28T09:00:16Z</time>
      </trkpt>
      <trkpt lat="48.75792" lon="7.95982">
        <ele>123</ele>
        <time>2020-06-28T09:00:17Z</time>
      </trkpt>
      <trkpt lat="48.75787" lon="7.95982">
        <ele>122.9</ele>
        <time>2020-06-28T09:00:18Z</time>
      </trkpt>
      <trkpt lat="48.75784" lon="7.95982">
        <ele>122.9</ele>
        <time>2020-06-28T09:00:19Z</time>
      </trkpt>
      <trkpt lat="48.7578" lon="7.95981">
        <ele>122.9</ele>
        <time>2020-06-28T09:00:20Z</time>
      </trkpt>
      <trkpt lat="48.75776" lon="7.95979">
        <ele>123</ele>
        <time>2020-06-28T09:00:21Z</time>
      </trkpt>
      <trkpt lat="48.75772" lon="7.95976">
        <ele>123</ele>
        <time>2020-06-28T09:00:22Z</time>
      </trkpt>
      <trkpt lat="48.75768" lon="7.95973">
        <ele>123</ele>
        <time>2020-06-28T09:00:23Z</time>
      </trkpt>
      <trkpt lat="48.75764" lon="7.9597">
        <ele>123</ele>
        <time>2020-06-28T09:00:24Z</time>
      </trkpt>
      <trkpt lat="48.75761" lon="7.95968">
        <ele>123</ele>
        <time>2020-06-28T09:00:25Z</time>
      </trkpt>
      <trkpt lat="48.75758" lon="7.95966">
        <ele>123.1</ele>
        <time>2020-06-28T09:00:26Z</time>
      </trkpt>
      <trkpt lat="48.75755" lon="7.95966">
        <ele>123.1</ele>
        <time>2020-06-28T09:00:27Z</time>
      </trkpt>
      <trkpt lat="48.75751" lon="7.95969">
        <ele>123.1</ele>
        <time>2020-06-28T09:00:28Z</time>
      </trkpt>
      <trkpt lat="48.75749" lon="7.95972">
        <ele>123.1</ele>
        <time>2020-06-28T09:00:29Z</time>
      </trkpt>
      <trkpt lat="48.75747" lon="7.95974">
        <ele>123.1</ele>
        <time>2020-06-28T09:00:30Z</time>
      </trkpt>
      <trkpt lat="48.75744" lon="7.95977">
        <ele>123.1</ele>
        <time>2020-06-28T09:00:31Z</time>
      </trkpt>
      <trkpt lat="48.75742" lon="7.95978">
        <ele>123.1</ele>
        <time>2020-06-28T09:00:32Z</time>
      </trkpt>
      <trkpt lat="48.7574" lon="7.95982">
        <ele>123.2</ele>
        <time>2020-06-28T09:00:33Z</time>
      </trkpt>
      <trkpt lat="48.75738" lon="7.95986">
        <ele>123.2</ele>
        <time>2020-06-28T09:00:34Z</time>
      </trkpt>
      <trkpt lat="48.75736" lon="7.9599">
        <ele>123.1</ele>
        <time>2020-06-28T09:00:35Z</time>
      </trkpt>
      <trkpt lat="48.75734" lon="7.95993">
        <ele>123.1</ele>
        <time>2020-06-28T09:00:36Z</time>
      </trkpt>
      <trkpt lat="48.7573" lon="7.95996">
        <ele>123.1</ele>
        <time>2020-06-28T09:00:37Z</time>
      </trkpt>
      <trkpt lat="48.75727" lon="7.95999">
        <ele>123.1</ele>
        <time>2020-06-28T09:00:38Z</time>
      </trkpt>
      <trkpt lat="48.75724" lon="7.96003">
        <ele>123</ele>
        <time>2020-06-28T09:00:39Z</time>
      </trkpt>
      <trkpt lat="48.7572" lon="7.96005">
        <ele>123</ele>
        <time>2020-06-28T09:00:40Z</time>
      </trkpt>
      <trkpt lat="48.75717" lon="7.96006">
        <ele>122.9</ele>
        <time>2020-06-28T09:00:41Z</time>
      </trkpt>
      <trkpt lat="48.75713" lon="7.96005">
        <ele>122.9</ele>
        <time>2020-06-28T09:00:42Z</time>
      </trkpt>
      <trkpt lat="48.75711" lon="7.96003">
        <ele>122.9</ele>
        <time>2020-06-28T09:00:43Z</time>
      </trkpt>
      <trkpt lat="48.75709" lon="7.95998">
        <ele>122.9</ele>
        <time>2020-06-28T09:00:44Z</time>
      </trkpt>
      <trkpt lat="48.75709" lon="7.95995">
        <ele>122.9</ele>
        <time>2020-06-28T09:00:45Z</time>
      </trkpt>
      <trkpt lat="48.7571" lon="7.95991">
        <ele>122.9</ele>
        <time>2020-06-28T09:00:46Z</time>
      </trkpt>
      <trkpt lat="48.75711" lon="7.95985">
        <ele>122.9</ele>
        <time>2020-06-28T09:00:47Z</time>
      </trkpt>
      <trkpt lat="48.75709" lon="7.95979">
        <ele>122.9</ele>
        <time>2020-06-28T09:00:48Z</time>
      </trkpt>
      <trkpt lat="48.75705" lon="7.95974">
        <ele>122.8</ele>
        <time>2020-06-28T09:00:49Z</time>
      </trkpt>
      <trkpt lat="48.75701" lon="7.9597">
        <ele>122.8</ele>
        <time>2020-06-28T09:00:50Z</time>
      </trkpt>
      <trkpt lat="48.75697" lon="7.95966">
        <ele>122.8</ele>
        <time>2020-06-28T09:00:51Z</time>
      </trkpt>
      <trkpt lat="48.75692" lon="7.95964">
        <ele>122.7</ele>
        <time>2020-06-28T09:00:52Z</time>
      </trkpt>
      <trkpt lat="48.75688" lon="7.95961">
        <ele>122.7</ele>
        <time>2020-06-28T09:00:53Z</time>
      </trkpt>
      <trkpt lat="48.75684" lon="7.95959">
        <ele>122.7</ele>
        <time>2020-06-28T09:00:54Z</time>
      </trkpt>
      <trkpt lat="48.75679" lon="7.95955">
        <ele>122.7</ele>
        <time>2020-06-28T09:00:55Z</time>
      </trkpt>
      <trkpt lat="48.75676" lon="7.95952">
        <ele>122.7</ele>
        <time>2020-06-28T09:00:56Z</time>
      </trkpt>
      <trkpt lat="48.75673" lon="7.95951">
        <ele>122.6</ele>
        <time>2020-06-28T09:00:57Z</time>
      </trkpt>
      <trkpt lat="48.75669" lon="7.9595">
        <ele>122.6</ele>
        <time>2020-06-28T09:00:58Z</time>
      </trkpt>
      <trkpt lat="48.75665" lon="7.95948">
        <ele>122.6</ele>
        <time>2020-06-28T09:00:59Z</time>
      </trkpt>
      <trkpt lat="48.75661" lon="7.95946">
        <ele>122.6</ele>
        <time>2020-06-28T09:01:00Z</time>
      </trkpt>
      <trkpt lat="48.75658" lon="7.95945">
        <ele>122.6</ele>
        <time>2020-06-28T09:01:01Z</time>
      </trkpt>
      <trkpt lat="48.75654" lon="7.95944">
        <ele>122.6</ele>
        <time>2020-06-28T09:01:02Z</time>
      </trkpt>
      <trkpt lat="48.7565" lon="7.95944">
        <ele>122.6</ele>
        <time>2020-06-28T09:01:03Z</time>
      </trkpt>
      <trkpt lat="48.75647" lon="7.95942">
        <ele>122.6</ele>
        <time>2020-06-28T09:01:04Z</time>
      </trkpt>
      <trkpt lat="48.75643" lon="7.95941">
        <ele>122.6</ele>
        <time>2020-06-28T09:01:05Z</time>
      </trkpt>
      <trkpt lat="48.7564" lon="7.95941">
        <ele>122.6</ele>
        <time>2020-06-28T09:01:06Z</time>
      </trkpt>
      <trkpt lat="48.75636" lon="7.9594">
        <ele>122.6</ele>
        <time>2020-06-28T09:01:07Z</time>
      </trkpt>
      <trkpt lat="48.75632" lon="7.95938">
        <ele>122.6</ele>
        <time>2020-06-28T09:01:08Z</time>
      </trkpt>
      <trkpt lat="48.75628" lon="7.95938">
        <ele>122.6</ele>
        <time>2020-06-28T09:01:09Z</time>
      </trkpt>
      <trkpt lat="48.75624" lon="7.95936">
        <ele>122.6</ele>
        <time>2020-06-28T09:01:10Z</time>
      </trkpt>
      <trkpt lat="48.7562" lon="7.95935">
        <ele>122.6</ele>
        <time>2020-06-28T09:01:11Z</time>
      </trkpt>
      <trkpt lat="48.75617" lon="7.95933">
        <ele>122.6</ele>
        <time>2020-06-28T09:01:12Z</time>
      </trkpt>
      <trkpt lat="48.75613" lon="7.95931">
        <ele>122.6</ele>
        <time>2020-06-28T09:01:13Z</time>
      </trkpt>
      <trkpt lat="48.75612" lon="7.95931">
        <ele>122.6</ele>
        <time>2020-06-28T09:01:14Z</time>
      </trkpt>
      <trkpt lat="48.75609" lon="7.9593">
        <ele>122.6</ele>
        <time>2020-06-28T09:01:15Z</time>
      </trkpt>
      <trkpt lat="48.75606" lon="7.95928">
        <ele>122.6</ele>
        <time>2020-06-28T09:01:16Z</time>
      </trkpt>
      <trkpt lat="48.75603" lon="7.95926">
        <ele>122.6</ele>
        <time>2020-06-28T09:01:17Z</time>
      </trkpt>
      <trkpt lat="48.756" lon="7.95924">
        <ele>122.6</ele>
        <time>2020-06-28T09:01:18Z</time>
      </trkpt>
      <trkpt lat="48.75597" lon="7.95921">
        <ele>122.6</ele>
        <time>2020-06-28T09:01:19Z</time>
      </trkpt>
      <trkpt lat="48.75594" lon="7.95919">
        <ele>122.6</ele>
        <time>2020-06-28T09:01:20Z</time>
      </trkpt>
      <trkpt lat="48.75591" lon="7.95916">
        <ele>122.6</ele>
        <time>2020-06-28T09:01:21Z</time>
      </trkpt>
      <trkpt lat="48.75587" lon="7.95913">
        <ele>122.6</ele>
        <time>2020-06-28T09:01:22Z</time>
      </trkpt>
      <trkpt lat="48.75583" lon="7.95908">
        <ele>122.6</ele>
        <time>2020-06-28T09:01:23Z</time>
      </trkpt>
      <trkpt lat="48.7558" lon="7.95905">
        <ele>122.6</ele>
        <time>2020-06-28T09:01:24Z</time>
      </trkpt>
      <trkpt lat="48.75576" lon="7.95902">
        <ele>122.6</ele>
        <time>2020-06-28T09:01:25Z</time>
      </trkpt>
      <trkpt lat="48.75573" lon="7.959">
        <ele>122.6</ele>
        <time>2020-06-28T09:01:26Z</time>
      </trkpt>
      <trkpt lat="48.7557" lon="7.95897">
        <ele>122.6</ele>
        <time>2020-06-28T09:01:27Z</time>
      </trkpt>
      <trkpt lat="48.75568" lon="7.95893">
        <ele>122.6</ele>
        <time>2020-06-28T09:01:28Z</time>
      </trkpt>
      <trkpt lat="48.75565" lon="7.95891">
        <ele>122.6</ele>
        <time>2020-06-28T09:01:29Z</time>
      </trkpt>
      <trkpt lat="48.75563" lon="7.95888">
        <ele>122.6</ele>
        <time>2020-06-28T09:01:30Z</time>
      </trkpt>
      <trkpt lat="48.75562" lon="7.95884">
        <ele>122.6</ele>
        <time>2020-06-28T09:01:31Z</time>
      </trkpt>
      <trkpt lat="48.75559" lon="7.95882">
        <ele>122.6</ele>
        <time>2020-06-28T09:01:32Z</time>
      </trkpt>
      <trkpt lat="48.75556" lon="7.9588">
        <ele>122.7</ele>
        <time>2020-06-28T09:01:33Z</time>
      </trkpt>
      <trkpt lat="48.75555" lon="7.95878">
        <ele>122.7</ele>
        <time>2020-06-28T09:01:34Z</time>
      </trkpt>
      <trkpt lat="48.75553" lon="7.95874">
        <ele>122.7</ele>
        <time>2020-06-28T09:01:35Z</time>
      </trkpt>
      <trkpt lat="48.75552" lon="7.95873">
        <ele>122.7</ele>
        <time>2020-06-28T09:01:36Z</time>
      </trkpt>
      <trkpt lat="48.75551" lon="7.95871">
        <ele>122.7</ele>
        <time>2020-06-28T09:01:37Z</time>
      </trkpt>
      <trkpt lat="48.7555" lon="7.95871">
        <ele>122.7</ele>
        <time>2020-06-28T09:01:38Z</time>
      </trkpt>
      <trkpt lat="48.7555" lon="7.95869">
        <ele>122.7</ele>
        <time>2020-06-28T09:01:39Z</time>
      </trkpt>
      <trkpt lat="48.75552" lon="7.95868">
        <ele>122.7</ele>
        <time>2020-06-28T09:01:40Z</time>
      </trkpt>
      <trkpt lat="48.75553" lon="7.95868">
        <ele>122.7</ele>
        <time>2020-06-28T09:01:41Z</time>
      </trkpt>
      <trkpt lat="48.75554" lon="7.95867">
        <ele>122.7</ele>
        <time>2020-06-28T09:01:42Z</time>
      </trkpt>
      <trkpt lat="48.75554" lon="7.95866">
        <ele>122.7</ele>
        <time>2020-06-28T09:01:43Z</time>
      </trkpt>
      <trkpt lat="48.75554" lon="7.95865">
        <ele>122.7</ele>
        <time>2020-06-28T09:01:44Z</time>
      </trkpt>
      <trkpt lat="48.75554" lon="7.95866">
        <ele>122.7</ele>
        <time>2020-06-28T09:01:45Z</time>
      </trkpt>
      <trkpt lat="48.75554" lon="7.95866">
        <ele>122.7</ele>
        <time>2020-06-28T09:01:46Z</time>
      </trkpt>
      <trkpt lat="48.75554" lon="7.95867">
        <ele>122.7</ele>
        <time>2020-06-28T09:01:47Z</time>
      </trkpt>
      <trkpt lat="48.75554" lon="7.95867">
        <ele>122.7</ele>
        <time>2020-06-28T09:01:48Z</time>
      </trkpt>
      <trkpt lat="48.75558" lon="7.95872">
        <ele>122.7</ele>
        <time>2020-06-28T09:02:29Z</time>
      </trkpt>
      <trkpt lat="48.75559" lon="7.95872">
        <ele>122.7</ele>
        <time>2020-06-28T09:02:30Z</time>
      </trkpt>
      <trkpt lat="48.75559" lon="7.95872">
        <ele>122.7</ele>
        <time>2020-06-28T09:02:31Z</time>
      </trkpt>
      <trkpt lat="48.75559" lon="7.95871">
        <ele>122.7</ele>
        <time>2020-06-28T09:02:32Z</time>
      </trkpt>
      <trkpt lat="48.7556" lon="7.9587">
        <ele>122.7</ele>
        <time>2020-06-28T09:02:33Z</time>
      </trkpt>
      <trkpt lat="48.7556" lon="7.9587">
        <ele>122.7</ele>
        <time>2020-06-28T09:02:34Z</time>
      </trkpt>
      <trkpt lat="48.7556" lon="7.9587">
        <ele>122.7</ele>
        <time>2020-06-28T09:02:35Z</time>
      </trkpt>
      <trkpt lat="48.7556" lon="7.95871">
        <ele>122.7</ele>
        <time>2020-06-28T09:02:36Z</time>
      </trkpt>
      <trkpt lat="48.7556" lon="7.95871">
        <ele>122.7</ele>
        <time>2020-06-28T09:02:37Z</time>
      </trkpt>
      <trkpt lat="48.7556" lon="7.95872">
        <ele>122.7</ele>
        <time>2020-06-28T09:02:38Z</time>
      </trkpt>
      <trkpt lat="48.75559" lon="7.95872">
        <ele>122.7</ele>
        <time>2020-06-28T09:02:39Z</time>
      </trkpt>
      <trkpt lat="48.75559" lon="7.95872">
        <ele>122.7</ele>
        <time>2020-06-28T09:02:40Z</time>
      </trkpt>
      <trkpt lat="48.75559" lon="7.95872">
        <ele>122.7</ele>
        <time>2020-06-28T09:02:41Z</time>
      </trkpt>
      <trkpt lat="48.75558" lon="7.95873">
        <ele>122.7</ele>
        <time>2020-06-28T09:02:42Z</time>
      </trkpt>
      <trkpt lat="48.75557" lon="7.95873">
        <ele>122.7</ele>
        <time>2020-06-28T09:02:43Z</time>
      </trkpt>
      <trkpt lat="48.75557" lon="7.95873">
        <ele>122.7</ele>
        <time>2020-06-28T09:02:44Z</time>
      </trkpt>
      <trkpt lat="48.75557" lon="7.95872">
        <ele>122.7</ele>
        <time>2020-06-28T09:02:45Z</time>
      </trkpt>
      <trkpt lat="48.75556" lon="7.95872">
        <ele>122.7</ele>
        <time>2020-06-28T09:02:46Z</time>
      </trkpt>
      <trkpt lat="48.75556" lon="7.95872">
        <ele>122.7</ele>
        <time>2020-06-28T09:02:47Z</time>
      </trkpt>
      <trkpt lat="48.75556" lon="7.95872">
        <ele>122.7</ele>
        <time>2020-06-28T09:02:48Z</time>
      </trkpt>
      <trkpt lat="48.75556" lon="7.95871">
        <ele>122.7</ele>
        <time>2020-06-28T09:02:49Z</time>
      </trkpt>
      <trkpt lat="48.75555" lon="7.95871">
        <ele>122.7</ele>
        <time>2020-06-28T09:02:50Z</time>
      </trkpt>
      <trkpt lat="48.75555" lon="7.95871">
        <ele>122.7</ele>
        <time>2020-06-28T09:02:51Z</time>
      </trkpt>
      <trkpt lat="48.75555" lon="7.9587">
        <ele>122.7</ele>
        <time>2020-06-28T09:02:52Z</time>
      </trkpt>
      <trkpt lat="48.75555" lon="7.9587">
        <ele>122.7</ele>
        <time>2020-06-28T09:02:53Z</time>
      </trkpt>
      <trkpt lat="48.75554" lon="7.9587">
        <ele>122.7</ele>
        <time>2020-06-28T09:02:54Z</time>
      </trkpt>
      <trkpt lat="48.75554" lon="7.9587">
        <ele>122.7</ele>
        <time>2020-06-28T09:02:55Z</time>
      </trkpt>
      <trkpt lat="48.75554" lon="7.95869">
        <ele>122.7</ele>
        <time>2020-06-28T09:03:31Z</time>
      </trkpt>
      <trkpt lat="48.75554" lon="7.95869">
        <ele>122.7</ele>
        <time>2020-06-28T09:03:32Z</time>
      </trkpt>
      <trkpt lat="48.75553" lon="7.95869">
        <ele>122.7</ele>
        <time>2020-06-28T09:03:33Z</time>
      </trkpt>
      <trkpt lat="48.75553" lon="7.95869">
        <ele>122.7</ele>
        <time>2020-06-28T09:03:34Z</time>
      </trkpt>
      <trkpt lat="48.75553" lon="7.95868">
        <ele>122.7</ele>
        <time>2020-06-28T09:03:35Z</time>
      </trkpt>
      <trkpt lat="48.75554" lon="7.9587">
        <ele>122.7</ele>
        <time>2020-06-28T09:03:36Z</time>
      </trkpt>
      <trkpt lat="48.75555" lon="7.95872">
        <ele>122.6</ele>
        <time>2020-06-28T09:03:37Z</time>
      </trkpt>
      <trkpt lat="48.75558" lon="7.95876">
        <ele>122.6</ele>
        <time>2020-06-28T09:03:38Z</time>
      </trkpt>
      <trkpt lat="48.75559" lon="7.95878">
        <ele>122.6</ele>
        <time>2020-06-28T09:03:39Z</time>
      </trkpt>
      <trkpt lat="48.75561" lon="7.95881">
        <ele>122.6</ele>
        <time>2020-06-28T09:03:40Z</time>
      </trkpt>
      <trkpt lat="48.75564" lon="7.95884">
        <ele>122.6</ele>
        <time>2020-06-28T09:03:41Z</time>
      </trkpt>
      <trkpt lat="48.75566" lon="7.95887">
        <ele>122.6</ele>
        <time>2020-06-28T09:03:42Z</time>
      </trkpt>
      <trkpt lat="48.75568" lon="7.95892">
        <ele>122.6</ele>
        <time>2020-06-28T09:03:43Z</time>
      </trkpt>
      <trkpt lat="48.75569" lon="7.95897">
        <ele>122.6</ele>
        <time>2020-06-28T09:03:44Z</time>
      </trkpt>
      <trkpt lat="48.75571" lon="7.95902">
        <ele>122.6</ele>
        <time>2020-06-28T09:03:45Z</time>
      </trkpt>
      <trkpt lat="48.75573" lon="7.95906">
        <ele>122.6</ele>
        <time>2020-06-28T09:03:46Z</time>
      </trkpt>
      <trkpt lat="48.75577" lon="7.95909">
        <ele>122.6</ele>
        <time>2020-06-28T09:03:47Z</time>
      </trkpt>
      <trkpt lat="48.75581" lon="7.95913">
        <ele>122.6</ele>
        <time>2020-06-28T09:03:48Z</time>
      </trkpt>
      <trkpt lat="48.75584" lon="7.95916">
        <ele>122.6</ele>
        <time>2020-06-28T09:03:49Z</time>
      </trkpt>
      <trkpt lat="48.75587" lon="7.9592">
        <ele>122.6</ele>
        <time>2020-06-28T09:03:50Z</time>
      </trkpt>
      <trkpt lat="48.7559" lon="7.95924">
        <ele>122.6</ele>
        <time>2020-06-28T09:03:51Z</time>
      </trkpt>
      <trkpt lat="48.75593" lon="7.95928">
        <ele>122.6</ele>
        <time>2020-06-28T09:03:52Z</time>
      </trkpt>
      <trkpt lat="48.75597" lon="7.95933">
        <ele>122.6</ele>
        <time>2020-06-28T09:03:53Z</time>
      </trkpt>
      <trkpt lat="48.75601" lon="7.95936">
        <ele>122.6</ele>
        <time>2020-06-28T09:03:54Z</time>
      </trkpt>
      <trkpt lat="48.75605" lon="7.95939">
        <ele>122.6</ele>
        <time>2020-06-28T09:03:55Z</time>
      </trkpt>
      <trkpt lat="48.75611" lon="7.95944">
        <ele>122.6</ele>
        <time>2020-06-28T09:03:56Z</time>
      </trkpt>
      <trkpt lat="48.75614" lon="7.95945">
        <ele>122.6</ele>
        <time>2020-06-28T09:03:57Z</time>
      </trkpt>
      <trkpt lat="48.75617" lon="7.95947">
        <ele>122.6</ele>
        <time>2020-06-28T09:03:58Z</time>
      </trkpt>
      <trkpt lat="48.75625" lon="7.95949">
        <ele>122.6</ele>
        <time>2020-06-28T09:03:59Z</time>
      </trkpt>
      <trkpt lat="48.75629" lon="7.9595">
        <ele>122.6</ele>
        <time>2020-06-28T09:04:00Z</time>
      </trkpt>
      <trkpt lat="48.75634" lon="7.95951">
        <ele>122.6</ele>
        <time>2020-06-28T09:04:01Z</time>
      </trkpt>
      <trkpt lat="48.75639" lon="7.95951">
        <ele>122.6</ele>
        <time>2020-06-28T09:04:02Z</time>
      </trkpt>
      <trkpt lat="48.75644" lon="7.95952">
        <ele>122.6</ele>
        <time>2020-06-28T09:04:03Z</time>
      </trkpt>
      <trkpt lat="48.75649" lon="7.95953">
        <ele>122.6</ele>
        <time>2020-06-28T09:04:04Z</time>
      </trkpt>
      <trkpt lat="48.75654" lon="7.95954">
        <ele>122.6</ele>
        <time>2020-06-28T09:04:05Z</time>
      </trkpt>
      <trkpt lat="48.75659" lon="7.95954">
        <ele>122.6</ele>
        <time>2020-06-28T09:04:06Z</time>
      </trkpt>
      <trkpt lat="48.75664" lon="7.95955">
        <ele>122.6</ele>
        <time>2020-06-28T09:04:07Z</time>
      </trkpt>
      <trkpt lat="48.75668" lon="7.95956">
        <ele>122.6</ele>
        <time>2020-06-28T09:04:08Z</time>
      </trkpt>
      <trkpt lat="48.75673" lon="7.95955">
        <ele>122.6</ele>
        <time>2020-06-28T09:04:09Z</time>
      </trkpt>
      <trkpt lat="48.75678" lon="7.95955">
        <ele>122.6</ele>
        <time>2020-06-28T09:04:10Z</time>
      </trkpt>
      <trkpt lat="48.7568" lon="7.95954">
        <ele>122.7</ele>
        <time>2020-06-28T09:04:11Z</time>
      </trkpt>
      <trkpt lat="48.75685" lon="7.95955">
        <ele>122.7</ele>
        <time>2020-06-28T09:04:12Z</time>
      </trkpt>
      <trkpt lat="48.7569" lon="7.95957">
        <ele>122.7</ele>
        <time>2020-06-28T09:04:13Z</time>
      </trkpt>
      <trkpt lat="48.75696" lon="7.95957">
        <ele>122.7</ele>
        <time>2020-06-28T09:04:14Z</time>
      </trkpt>
      <trkpt lat="48.757" lon="7.95957">
        <ele>122.7</ele>
        <time>2020-06-28T09:04:15Z</time>
      </trkpt>
      <trkpt lat="48.75706" lon="7.95957">
        <ele>122.8</ele>
        <time>2020-06-28T09:04:16Z</time>
      </trkpt>
      <trkpt lat="48.75708" lon="7.95957">
        <ele>122.8</ele>
        <time>2020-06-28T09:04:17Z</time>
      </trkpt>
      <trkpt lat="48.75711" lon="7.95958">
        <ele>122.8</ele>
        <time>2020-06-28T09:04:18Z</time>
      </trkpt>
      <trkpt lat="48.75711" lon="7.95958">
        <ele>122.8</ele>
        <time>2020-06-28T09:04:19Z</time>
      </trkpt>
      <trkpt lat="48.75711" lon="7.95958">
        <ele>122.8</ele>
        <time>2020-06-28T09:04:20Z</time>
      </trkpt>
      <trkpt lat="48.75712" lon="7.95958">
        <ele>122.8</ele>
        <time>2020-06-28T09:04:21Z</time>
      </trkpt>
      <trkpt lat="48.75711" lon="7.95959">
        <ele>122.8</ele>
        <time>2020-06-28T09:04:22Z</time>
      </trkpt>
      <trkpt lat="48.7571" lon="7.9596">
        <ele>122.8</ele>
        <time>2020-06-28T09:04:23Z</time>
      </trkpt>
      <trkpt lat="48.7571" lon="7.95961">
        <ele>122.8</ele>
        <time>2020-06-28T09:04:24Z</time>
      </trkpt>
      <trkpt lat="48.7571" lon="7.95962">
        <ele>122.8</ele>
        <time>2020-06-28T09:04:25Z</time>
      </trkpt>
      <trkpt lat="48.7571" lon="7.95963">
        <ele>122.8</ele>
        <time>2020-06-28T09:04:26Z</time>
      </trkpt>
      <trkpt lat="48.7571" lon="7.95964">
        <ele>122.8</ele>
        <time>2020-06-28T09:04:27Z</time>
      </trkpt>
      <trkpt lat="48.75711" lon="7.95965">
        <ele>122.8</ele>
        <time>2020-06-28T09:04:28Z</time>
      </trkpt>
      <trkpt lat="48.75709" lon="7.95967">
        <ele>122.8</ele>
        <time>2020-06-28T09:04:29Z</time>
      </trkpt>
      <trkpt lat="48.7571" lon="7.95967">
        <ele>122.8</ele>
        <time>2020-06-28T09:04:30Z</time>
      </trkpt>
      <trkpt lat="48.7571" lon="7.95968">
        <ele>122.8</ele>
        <time>2020-06-28T09:04:31Z</time>
      </trkpt>
      <trkpt lat="48.75711" lon="7.95969">
        <ele>122.8</ele>
        <time>2020-06-28T09:04:32Z</time>
      </trkpt>
      <trkpt lat="48.75711" lon="7.9597">
        <ele>122.8</ele>
        <time>2020-06-28T09:04:33Z</time>
      </trkpt>
      <trkpt lat="48.7571" lon="7.9597">
        <ele>122.8</ele>
        <time>2020-06-28T09:04:34Z</time>
      </trkpt>
      <trkpt lat="48.7571" lon="7.95971">
        <ele>122.8</ele>
        <time>2020-06-28T09:04:35Z</time>
      </trkpt>
      <trkpt lat="48.7571" lon="7.95971">
        <ele>122.8</ele>
        <time>2020-06-28T09:04:36Z</time>
      </trkpt>
      <trkpt lat="48.7571" lon="7.95972">
        <ele>122.8</ele>
        <time>2020-06-28T09:04:37Z</time>
      </trkpt>
      <trkpt lat="48.7571" lon="7.95972">
        <ele>122.8</ele>
        <time>2020-06-28T09:04:38Z</time>
      </trkpt>
      <trkpt lat="48.75711" lon="7.95972">
        <ele>122.8</ele>
        <time>2020-06-28T09:04:39Z</time>
      </trkpt>
      <trkpt lat="48.75711" lon="7.95973">
        <ele>122.8</ele>
        <time>2020-06-28T09:04:40Z</time>
      </trkpt>
      <trkpt lat="48.75712" lon="7.95973">
        <ele>122.8</ele>
        <time>2020-06-28T09:04:41Z</time>
      </trkpt>
      <trkpt lat="48.75713" lon="7.95974">
        <ele>122.9</ele>
        <time>2020-06-28T09:04:42Z</time>
      </trkpt>
      <trkpt lat="48.75713" lon="7.95975">
        <ele>123.2</ele>
        <time>2020-06-28T09:04:43Z</time>
      </trkpt>
      <trkpt lat="48.75714" lon="7.95975">
        <ele>123.2</ele>
        <time>2020-06-28T09:04:44Z</time>
      </trkpt>
      <trkpt lat="48.75714" lon="7.95976">
        <ele>123.2</ele>
        <time>2020-06-28T09:04:45Z</time>
      </trkpt>
      <trkpt lat="48.75714" lon="7.95976">
        <ele>123.2</ele>
        <time>2020-06-28T09:04:46Z</time>
      </trkpt>
      <trkpt lat="48.75714" lon="7.95976">
        <ele>123.2</ele>
        <time>2020-06-28T09:04:47Z</time>
      </trkpt>
      <trkpt lat="48.75714" lon="7.95976">
        <ele>123.2</ele>
        <time>2020-06-28T09:04:48Z</time>
      </trkpt>
      <trkpt lat="48.75714" lon="7.95975">
        <ele>123.2</ele>
        <time>2020-06-28T09:04:49Z</time>
      </trkpt>
      <trkpt lat="48.75714" lon="7.95975">
        <ele>123.2</ele>
        <time>2020-06-28T09:04:50Z</time>
      </trkpt>
      <trkpt lat="48.75714" lon="7.95975">
        <ele>123.2</ele>
        <time>2020-06-28T09:04:51Z</time>
      </trkpt>
      <trkpt lat="48.75714" lon="7.95974">
        <ele>123.2</ele>
        <time>2020-06-28T09:04:52Z</time>
      </trkpt>
      <trkpt lat="48.75714" lon="7.95974">
        <ele>123.1</ele>
        <time>2020-06-28T09:04:53Z</time>
      </trkpt>
      <trkpt lat="48.75715" lon="7.95973">
        <ele>123.1</ele>
        <time>2020-06-28T09:04:54Z</time>
      </trkpt>
      <trkpt lat="48.75715" lon="7.95972">
        <ele>123.1</ele>
        <time>2020-06-28T09:04:55Z</time>
      </trkpt>
      <trkpt lat="48.75714" lon="7.95971">
        <ele>123.1</ele>
        <time>2020-06-28T09:04:56Z</time>
      </trkpt>
      <trkpt lat="48.75714" lon="7.95971">
        <ele>123.1</ele>
        <time>2020-06-28T09:04:57Z</time>
      </trkpt>
      <trkpt lat="48.75714" lon="7.95971">
        <ele>122.9</ele>
        <time>2020-06-28T09:04:58Z</time>
      </trkpt>
      <trkpt lat="48.75713" lon="7.95971">
        <ele>122.9</ele>
        <time>2020-06-28T09:04:59Z</time>
      </trkpt>
      <trkpt lat="48.75713" lon="7.95971">
        <ele>122.9</ele>
        <time>2020-06-28T09:05:00Z</time>
      </trkpt>
      <trkpt lat="48.75713" lon="7.95971">
        <ele>122.9</ele>
        <time>2020-06-28T09:05:01Z</time>
      </trkpt>
      <trkpt lat="48.75712" lon="7.95971">
        <ele>122.9</ele>
        <time>2020-06-28T09:05:02Z</time>
      </trkpt>
      <trkpt lat="48.75712" lon="7.95971">
        <ele>122.9</ele>
        <time>2020-06-28T09:05:03Z</time>
      </trkpt>
      <trkpt lat="48.75712" lon="7.95971">
        <ele>122.9</ele>
        <time>2020-06-28T09:05:04Z</time>
      </trkpt>
      <trkpt lat="48.75712" lon="7.95971">
        <ele>122.9</ele>
        <time>2020-06-28T09:05:05Z</time>
      </trkpt>
      <trkpt lat="48.75712" lon="7.95971">
        <ele>122.9</ele>
        <time>2020-06-28T09:05:06Z</time>
      </trkpt>
      <trkpt lat="48.75711" lon="7.95971">
        <ele>122.9</ele>
        <time>2020-06-28T09:05:07Z</time>
      </trkpt>
      <trkpt lat="48.7571" lon="7.9597">
        <ele>122.9</ele>
        <time>2020-06-28T09:05:08Z</time>
      </trkpt>
      <trkpt lat="48.75711" lon="7.9597">
        <ele>122.9</ele>
        <time>2020-06-28T09:05:09Z</time>
      </trkpt>
      <trkpt lat="48.75711" lon="7.95969">
        <ele>122.9</ele>
        <time>2020-06-28T09:05:10Z</time>
      </trkpt>
      <trkpt lat="48.75711" lon="7.95968">
        <ele>122.9</ele>
        <time>2020-06-28T09:05:11Z</time>
      </trkpt>
      <trkpt lat="48.75711" lon="7.95968">
        <ele>122.9</ele>
        <time>2020-06-28T09:05:12Z</time>
      </trkpt>
      <trkpt lat="48.7571" lon="7.95968">
        <ele>122.9</ele>
        <time>2020-06-28T09:05:13Z</time>
      </trkpt>
      <trkpt lat="48.7571" lon="7.95968">
        <ele>122.9</ele>
        <time>2020-06-28T09:05:14Z</time>
      </trkpt>
      <trkpt lat="48.75709" lon="7.95967">
        <ele>122.9</ele>
        <time>2020-06-28T09:05:15Z</time>
      </trkpt>
      <trkpt lat="48.75708" lon="7.95967">
        <ele>122.9</ele>
        <time>2020-06-28T09:05:16Z</time>
      </trkpt>
      <trkpt lat="48.75708" lon="7.95967">
        <ele>122.9</ele>
        <time>2020-06-28T09:05:17Z</time>
      </trkpt>
      <trkpt lat="48.75708" lon="7.95968">
        <ele>122.9</ele>
        <time>2020-06-28T09:05:18Z</time>
      </trkpt>
      <trkpt lat="48.75708" lon="7.95967">
        <ele>122.9</ele>
        <time>2020-06-28T09:05:19Z</time>
      </trkpt>
      <trkpt lat="48.75708" lon="7.95968">
        <ele>122.9</ele>
        <time>2020-06-28T09:05:20Z</time>
      </trkpt>
      <trkpt lat="48.75708" lon="7.95968">
        <ele>122.9</ele>
        <time>2020-06-28T09:05:21Z</time>
      </trkpt>
      <trkpt lat="48.75708" lon="7.95968">
        <ele>122.9</ele>
        <time>2020-06-28T09:05:22Z</time>
      </trkpt>
      <trkpt lat="48.75708" lon="7.95968">
        <ele>122.9</ele>
        <time>2020-06-28T09:05:23Z</time>
      </trkpt>
      <trkpt lat="48.75708" lon="7.95968">
        <ele>122.9</ele>
        <time>2020-06-28T09:05:24Z</time>
      </trkpt>
      <trkpt lat="48.75707" lon="7.95968">
        <ele>122.9</ele>
        <time>2020-06-28T09:05:25Z</time>
      </trkpt>
      <trkpt lat="48.75707" lon="7.95968">
        <ele>122.9</ele>
        <time>2020-06-28T09:05:26Z</time>
      </trkpt>
      <trkpt lat="48.75707" lon="7.95967">
        <ele>122.9</ele>
        <time>2020-06-28T09:05:27Z</time>
      </trkpt>
      <trkpt lat="48.75707" lon="7.95968">
        <ele>122.9</ele>
        <time>2020-06-28T09:05:28Z</time>
      </trkpt>
      <trkpt lat="48.75707" lon="7.95969">
        <ele>122.9</ele>
        <time>2020-06-28T09:05:29Z</time>
      </trkpt>
      <trkpt lat="48.75711" lon="7.95974">
        <ele>122.9</ele>
        <time>2020-06-28T09:05:41Z</time>
      </trkpt>
      <trkpt lat="48.75712" lon="7.95974">
        <ele>122.9</ele>
        <time>2020-06-28T09:05:42Z</time>
      </trkpt>
      <trkpt lat="48.75713" lon="7.95974">
        <ele>123.2</ele>
        <time>2020-06-28T09:05:43Z</time>
      </trkpt>
      <trkpt lat="48.75714" lon="7.95974">
        <ele>123.2</ele>
        <time>2020-06-28T09:05:44Z</time>
      </trkpt>
      <trkpt lat="48.75716" lon="7.95974">
        <ele>123.2</ele>
        <time>2020-06-28T09:05:45Z</time>
      </trkpt>
      <trkpt lat="48.75719" lon="7.95973">
        <ele>123.2</ele>
        <time>2020-06-28T09:05:46Z</time>
      </trkpt>
      <trkpt lat="48.75719" lon="7.95972">
        <ele>123.2</ele>
        <time>2020-06-28T09:05:47Z</time>
      </trkpt>
      <trkpt lat="48.75721" lon="7.95972">
        <ele>123.2</ele>
        <time>2020-06-28T09:05:48Z</time>
      </trkpt>
      <trkpt lat="48.75721" lon="7.95972">
        <ele>123.1</ele>
        <time>2020-06-28T09:05:49Z</time>
      </trkpt>
      <trkpt lat="48.75722" lon="7.95973">
        <ele>123.1</ele>
        <time>2020-06-28T09:05:50Z</time>
      </trkpt>
      <trkpt lat="48.75722" lon="7.95973">
        <ele>123.1</ele>
        <time>2020-06-28T09:05:51Z</time>
      </trkpt>
      <trkpt lat="48.75724" lon="7.95974">
        <ele>123.1</ele>
        <time>2020-06-28T09:05:52Z</time>
      </trkpt>
      <trkpt lat="48.75724" lon="7.95975">
        <ele>123.1</ele>
        <time>2020-06-28T09:05:53Z</time>
      </trkpt>
      <trkpt lat="48.75725" lon="7.95975">
        <ele>123.1</ele>
        <time>2020-06-28T09:05:54Z</time>
      </trkpt>
      <trkpt lat="48.75726" lon="7.95975">
        <ele>123.1</ele>
        <time>2020-06-28T09:05:55Z</time>
      </trkpt>
      <trkpt lat="48.75725" lon="7.95977">
        <ele>123.2</ele>
        <time>2020-06-28T09:05:56Z</time>
      </trkpt>
      <trkpt lat="48.75725" lon="7.95978">
        <ele>123.1</ele>
        <time>2020-06-28T09:05:57Z</time>
      </trkpt>
      <trkpt lat="48.75724" lon="7.95979">
        <ele>123.1</ele>
        <time>2020-06-28T09:05:58Z</time>
      </trkpt>
      <trkpt lat="48.75723" lon="7.9598">
        <ele>123.1</ele>
        <time>2020-06-28T09:05:59Z</time>
      </trkpt>
      <trkpt lat="48.75723" lon="7.95982">
        <ele>123.1</ele>
        <time>2020-06-28T09:06:00Z</time>
      </trkpt>
      <trkpt lat="48.75723" lon="7.95984">
        <ele>123.1</ele>
        <time>2020-06-28T09:06:01Z</time>
      </trkpt>
      <trkpt lat="48.75723" lon="7.95986">
        <ele>123.1</ele>
        <time>2020-06-28T09:06:02Z</time>
      </trkpt>
      <trkpt lat="48.75723" lon="7.95988">
        <ele>123</ele>
        <time>2020-06-28T09:06:03Z</time>
      </trkpt>
      <trkpt lat="48.75723" lon="7.95989">
        <ele>123</ele>
        <time>2020-06-28T09:06:04Z</time>
      </trkpt>
      <trkpt lat="48.75723" lon="7.95991">
        <ele>123</ele>
        <time>2020-06-28T09:06:05Z</time>
      </trkpt>
      <trkpt lat="48.75723" lon="7.95993">
        <ele>122.9</ele>
        <time>2020-06-28T09:06:06Z</time>
      </trkpt>
      <trkpt lat="48.75723" lon="7.95995">
        <ele>122.9</ele>
        <time>2020-06-28T09:06:07Z</time>
      </trkpt>
      <trkpt lat="48.75723" lon="7.95996">
        <ele>122.9</ele>
        <time>2020-06-28T09:06:08Z</time>
      </trkpt>
      <trkpt lat="48.75723" lon="7.95998">
        <ele>122.9</ele>
        <time>2020-06-28T09:06:09Z</time>
      </trkpt>
      <trkpt lat="48.75723" lon="7.96">
        <ele>122.8</ele>
        <time>2020-06-28T09:06:10Z</time>
      </trkpt>
      <trkpt lat="48.75723" lon="7.96001">
        <ele>122.8</ele>
        <time>2020-06-28T09:06:11Z</time>
      </trkpt>
      <trkpt lat="48.75723" lon="7.96003">
        <ele>122.8</ele>
        <time>2020-06-28T09:06:38Z</time>
      </trkpt>
      <trkpt lat="48.75723" lon="7.96005">
        <ele>122.8</ele>
        <time>2020-06-28T09:06:39Z</time>
      </trkpt>
      <trkpt lat="48.75722" lon="7.96011">
        <ele>122.7</ele>
        <time>2020-06-28T09:06:40Z</time>
      </trkpt>
      <trkpt lat="48.7572" lon="7.96016">
        <ele>122.6</ele>
        <time>2020-06-28T09:06:41Z</time>
      </trkpt>
      <trkpt lat="48.75719" lon="7.96023">
        <ele>122.6</ele>
        <time>2020-06-28T09:06:42Z</time>
      </trkpt>
      <trkpt lat="48.75717" lon="7.96029">
        <ele>122.5</ele>
        <time>2020-06-28T09:06:43Z</time>
      </trkpt>
      <trkpt lat="48.75716" lon="7.96036">
        <ele>122.5</ele>
        <time>2020-06-28T09:06:44Z</time>
      </trkpt>
      <trkpt lat="48.75714" lon="7.96042">
        <ele>122.4</ele>
        <time>2020-06-28T09:06:45Z</time>
      </trkpt>
      <trkpt lat="48.75712" lon="7.96048">
        <ele>122.4</ele>
        <time>2020-06-28T09:06:46Z</time>
      </trkpt>
      <trkpt lat="48.7571" lon="7.96055">
        <ele>122.4</ele>
        <time>2020-06-28T09:06:47Z</time>
      </trkpt>
      <trkpt lat="48.75708" lon="7.96061">
        <ele>122.4</ele>
        <time>2020-06-28T09:06:48Z</time>
      </trkpt>
      <trkpt lat="48.75706" lon="7.96068">
        <ele>122.3</ele>
        <time>2020-06-28T09:06:49Z</time>
      </trkpt>
      <trkpt lat="48.75704" lon="7.96074">
        <ele>122.3</ele>
        <time>2020-06-28T09:06:50Z</time>
      </trkpt>
      <trkpt lat="48.75701" lon="7.96082">
        <ele>122.3</ele>
        <time>2020-06-28T09:06:51Z</time>
      </trkpt>
      <trkpt lat="48.75699" lon="7.96088">
        <ele>122.3</ele>
        <time>2020-06-28T09:06:52Z</time>
      </trkpt>
      <trkpt lat="48.75696" lon="7.96094">
        <ele>122.3</ele>
        <time>2020-06-28T09:06:53Z</time>
      </trkpt>
      <trkpt lat="48.75694" lon="7.96102">
        <ele>122.3</ele>
        <time>2020-06-28T09:06:54Z</time>
      </trkpt>
      <trkpt lat="48.75693" lon="7.96108">
        <ele>122.3</ele>
        <time>2020-06-28T09:06:55Z</time>
      </trkpt>
      <trkpt lat="48.75691" lon="7.96115">
        <ele>122.3</ele>
        <time>2020-06-28T09:06:56Z</time>
      </trkpt>
      <trkpt lat="48.75689" lon="7.96122">
        <ele>122.3</ele>
        <time>2020-06-28T09:06:57Z</time>
      </trkpt>
      <trkpt lat="48.75687" lon="7.96129">
        <ele>122.3</ele>
        <time>2020-06-28T09:06:58Z</time>
      </trkpt>
      <trkpt lat="48.75684" lon="7.96136">
        <ele>122.3</ele>
        <time>2020-06-28T09:06:59Z</time>
      </trkpt>
      <trkpt lat="48.75682" lon="7.96143">
        <ele>122.2</ele>
        <time>2020-06-28T09:07:00Z</time>
      </trkpt>
      <trkpt lat="48.7568" lon="7.9615">
        <ele>122.2</ele>
        <time>2020-06-28T09:07:01Z</time>
      </trkpt>
      <trkpt lat="48.75677" lon="7.96158">
        <ele>122.1</ele>
        <time>2020-06-28T09:07:02Z</time>
      </trkpt>
      <trkpt lat="48.75675" lon="7.96165">
        <ele>122</ele>
        <time>2020-06-28T09:07:03Z</time>
      </trkpt>
      <trkpt lat="48.75673" lon="7.96172">
        <ele>122</ele>
        <time>2020-06-28T09:07:04Z</time>
      </trkpt>
      <trkpt lat="48.75672" lon="7.96183">
        <ele>121.9</ele>
        <time>2020-06-28T09:07:05Z</time>
      </trkpt>
      <trkpt lat="48.75669" lon="7.96194">
        <ele>121.8</ele>
        <time>2020-06-28T09:07:06Z</time>
      </trkpt>
      <trkpt lat="48.75667" lon="7.96203">
        <ele>121.8</ele>
        <time>2020-06-28T09:07:07Z</time>
      </trkpt>
      <trkpt lat="48.75665" lon="7.96211">
        <ele>121.7</ele>
        <time>2020-06-28T09:07:08Z</time>
      </trkpt>
      <trkpt lat="48.75662" lon="7.9622">
        <ele>121.7</ele>
        <time>2020-06-28T09:07:09Z</time>
      </trkpt>
      <trkpt lat="48.7566" lon="7.96228">
        <ele>121.6</ele>
        <time>2020-06-28T09:07:10Z</time>
      </trkpt>
      <trkpt lat="48.75656" lon="7.96236">
        <ele>121.6</ele>
        <time>2020-06-28T09:07:11Z</time>
      </trkpt>
      <trkpt lat="48.75653" lon="7.96244">
        <ele>121.5</ele>
        <time>2020-06-28T09:07:12Z</time>
      </trkpt>
      <trkpt lat="48.7565" lon="7.96253">
        <ele>121.5</ele>
        <time>2020-06-28T09:07:13Z</time>
      </trkpt>
      <trkpt lat="48.75648" lon="7.96261">
        <ele>121.5</ele>
        <time>2020-06-28T09:07:14Z</time>
      </trkpt>
      <trkpt lat="48.75645" lon="7.96269">
        <ele>121.5</ele>
        <time>2020-06-28T09:07:15Z</time>
      </trkpt>
      <trkpt lat="48.75643" lon="7.96277">
        <ele>121.5</ele>
        <time>2020-06-28T09:07:16Z</time>
      </trkpt>
      <trkpt lat="48.75641" lon="7.96287">
        <ele>121.5</ele>
        <time>2020-06-28T09:07:17Z</time>
      </trkpt>
      <trkpt lat="48.75639" lon="7.96295">
        <ele>121.5</ele>
        <time>2020-06-28T09:07:18Z</time>
      </trkpt>
      <trkpt lat="48.75637" lon="7.96306">
        <ele>121.5</ele>
        <time>2020-06-28T09:07:19Z</time>
      </trkpt>
      <trkpt lat="48.75634" lon="7.96316">
        <ele>121.5</ele>
        <time>2020-06-28T09:07:20Z</time>
      </trkpt>
      <trkpt lat="48.75632" lon="7.96325">
        <ele>121.6</ele>
        <time>2020-06-28T09:07:21Z</time>
      </trkpt>
      <trkpt lat="48.75629" lon="7.96334">
        <ele>121.6</ele>
        <time>2020-06-28T09:07:22Z</time>
      </trkpt>
      <trkpt lat="48.75626" lon="7.96343">
        <ele>121.5</ele>
        <time>2020-06-28T09:07:23Z</time>
      </trkpt>
      <trkpt lat="48.75623" lon="7.96352">
        <ele>121.5</ele>
        <time>2020-06-28T09:07:24Z</time>
      </trkpt>
      <trkpt lat="48.75619" lon="7.96361">
        <ele>121.5</ele>
        <time>2020-06-28T09:07:25Z</time>
      </trkpt>
      <trkpt lat="48.75616" lon="7.96369">
        <ele>121.5</ele>
        <time>2020-06-28T09:07:26Z</time>
      </trkpt>
      <trkpt lat="48.75611" lon="7.96381">
        <ele>121.5</ele>
        <time>2020-06-28T09:07:27Z</time>
      </trkpt>
      <trkpt lat="48.75607" lon="7.96393">
        <ele>121.5</ele>
        <time>2020-06-28T09:07:28Z</time>
      </trkpt>
      <trkpt lat="48.75605" lon="7.96402">
        <ele>121.6</ele>
        <time>2020-06-28T09:07:29Z</time>
      </trkpt>
      <trkpt lat="48.75602" lon="7.96412">
        <ele>121.6</ele>
        <time>2020-06-28T09:07:30Z</time>
      </trkpt>
      <trkpt lat="48.75599" lon="7.96421">
        <ele>121.6</ele>
        <time>2020-06-28T09:07:31Z</time>
      </trkpt>
      <trkpt lat="48.75597" lon="7.96429">
        <ele>121.7</ele>
        <time>2020-06-28T09:07:32Z</time>
      </trkpt>
      <trkpt lat="48.75594" lon="7.96437">
        <ele>121.7</ele>
        <time>2020-06-28T09:07:33Z</time>
      </trkpt>
      <trkpt lat="48.75592" lon="7.96446">
        <ele>121.8</ele>
        <time>2020-06-28T09:07:34Z</time>
      </trkpt>
      <trkpt lat="48.75591" lon="7.96454">
        <ele>121.8</ele>
        <time>2020-06-28T09:07:35Z</time>
      </trkpt>
      <trkpt lat="48.75589" lon="7.96462">
        <ele>121.9</ele>
        <time>2020-06-28T09:07:36Z</time>
      </trkpt>
      <trkpt lat="48.75586" lon="7.96472">
        <ele>122</ele>
        <time>2020-06-28T09:07:37Z</time>
      </trkpt>
      <trkpt lat="48.75583" lon="7.9648">
        <ele>122.1</ele>
        <time>2020-06-28T09:07:38Z</time>
      </trkpt>
      <trkpt lat="48.75583" lon="7.96491">
        <ele>122.2</ele>
        <time>2020-06-28T09:07:39Z</time>
      </trkpt>
      <trkpt lat="48.7558" lon="7.96499">
        <ele>122.3</ele>
        <time>2020-06-28T09:07:40Z</time>
      </trkpt>
      <trkpt lat="48.75577" lon="7.96507">
        <ele>122.4</ele>
        <time>2020-06-28T09:07:41Z</time>
      </trkpt>
      <trkpt lat="48.75575" lon="7.96516">
        <ele>122.5</ele>
        <time>2020-06-28T09:07:42Z</time>
      </trkpt>
      <trkpt lat="48.75573" lon="7.96527">
        <ele>122.7</ele>
        <time>2020-06-28T09:07:43Z</time>
      </trkpt>
      <trkpt lat="48.7557" lon="7.96536">
        <ele>122.9</ele>
        <time>2020-06-28T09:07:44Z</time>
      </trkpt>
      <trkpt lat="48.75567" lon="7.96545">
        <ele>123</ele>
        <time>2020-06-28T09:07:45Z</time>
      </trkpt>
      <trkpt lat="48.75565" lon="7.96556">
        <ele>123.2</ele>
        <time>2020-06-28T09:07:46Z</time>
      </trkpt>
      <trkpt lat="48.75561" lon="7.96565">
        <ele>123.4</ele>
        <time>2020-06-28T09:07:47Z</time>
      </trkpt>
      <trkpt lat="48.75558" lon="7.96574">
        <ele>123.5</ele>
        <time>2020-06-28T09:07:48Z</time>
      </trkpt>
      <trkpt lat="48.75555" lon="7.96583">
        <ele>123.7</ele>
        <time>2020-06-28T09:07:49Z</time>
      </trkpt>
      <trkpt lat="48.75553" lon="7.96587">
        <ele>123.8</ele>
        <time>2020-06-28T09:07:50Z</time>
      </trkpt>
      <trkpt lat="48.7555" lon="7.96595">
        <ele>123.9</ele>
        <time>2020-06-28T09:07:51Z</time>
      </trkpt>
      <trkpt lat="48.75547" lon="7.96606">
        <ele>124</ele>
        <time>2020-06-28T09:07:52Z</time>
      </trkpt>
      <trkpt lat="48.75545" lon="7.96614">
        <ele>124.1</ele>
        <time>2020-06-28T09:07:53Z</time>
      </trkpt>
      <trkpt lat="48.75541" lon="7.96622">
        <ele>124.1</ele>
        <time>2020-06-28T09:07:54Z</time>
      </trkpt>
      <trkpt lat="48.75538" lon="7.9663">
        <ele>124.2</ele>
        <time>2020-06-28T09:07:55Z</time>
      </trkpt>
      <trkpt lat="48.75534" lon="7.96637">
        <ele>124.2</ele>
        <time>2020-06-28T09:07:56Z</time>
      </trkpt>
      <trkpt lat="48.75531" lon="7.96645">
        <ele>124.3</ele>
        <time>2020-06-28T09:07:57Z</time>
      </trkpt>
      <trkpt lat="48.75528" lon="7.96653">
        <ele>124.4</ele>
        <time>2020-06-28T09:07:58Z</time>
      </trkpt>
      <trkpt lat="48.75525" lon="7.96659">
        <ele>124.4</ele>
        <time>2020-06-28T09:07:59Z</time>
      </trkpt>
      <trkpt lat="48.75523" lon="7.96667">
        <ele>124.5</ele>
        <time>2020-06-28T09:08:00Z</time>
      </trkpt>
      <trkpt lat="48.75521" lon="7.96673">
        <ele>124.6</ele>
        <time>2020-06-28T09:08:01Z</time>
      </trkpt>
      <trkpt lat="48.7552" lon="7.96678">
        <ele>124.7</ele>
        <time>2020-06-28T09:08:02Z</time>
      </trkpt>
      <trkpt lat="48.75519" lon="7.96683">
        <ele>124.8</ele>
        <time>2020-06-28T09:08:03Z</time>
      </trkpt>
      <trkpt lat="48.75517" lon="7.96688">
        <ele>124.8</ele>
        <time>2020-06-28T09:08:04Z</time>
      </trkpt>
      <trkpt lat="48.75516" lon="7.96692">
        <ele>124.9</ele>
        <time>2020-06-28T09:08:05Z</time>
      </trkpt>
      <trkpt lat="48.75514" lon="7.96692">
        <ele>124.9</ele>
        <time>2020-06-28T09:08:06Z</time>
      </trkpt>
      <trkpt lat="48.75513" lon="7.96693">
        <ele>124.9</ele>
        <time>2020-06-28T09:08:07Z</time>
      </trkpt>
      <trkpt lat="48.75513" lon="7.96693">
        <ele>124.9</ele>
        <time>2020-06-28T09:08:08Z</time>
      </trkpt>
      <trkpt lat="48.75512" lon="7.96693">
        <ele>124.9</ele>
        <time>2020-06-28T09:08:09Z</time>
      </trkpt>
      <trkpt lat="48.75512" lon="7.96694">
        <ele>124.9</ele>
        <time>2020-06-28T09:08:10Z</time>
      </trkpt>
      <trkpt lat="48.75512" lon="7.96694">
        <ele>124.8</ele>
        <time>2020-06-28T09:08:11Z</time>
      </trkpt>
      <trkpt lat="48.75511" lon="7.96695">
        <ele>124.8</ele>
        <time>2020-06-28T09:08:12Z</time>
      </trkpt>
      <trkpt lat="48.75511" lon="7.96696">
        <ele>124.8</ele>
        <time>2020-06-28T09:08:13Z</time>
      </trkpt>
      <trkpt lat="48.7551" lon="7.96696">
        <ele>124.8</ele>
        <time>2020-06-28T09:08:14Z</time>
      </trkpt>
      <trkpt lat="48.7551" lon="7.96697">
        <ele>124.8</ele>
        <time>2020-06-28T09:08:15Z</time>
      </trkpt>
      <trkpt lat="48.7551" lon="7.96697">
        <ele>124.8</ele>
        <time>2020-06-28T09:08:16Z</time>
      </trkpt>
      <trkpt lat="48.75509" lon="7.96697">
        <ele>124.8</ele>
        <time>2020-06-28T09:08:17Z</time>
      </trkpt>
      <trkpt lat="48.75514" lon="7.96692">
        <ele>124.7</ele>
        <time>2020-06-28T09:12:17Z</time>
      </trkpt>
      <trkpt lat="48.75515" lon="7.96691">
        <ele>124.6</ele>
        <time>2020-06-28T09:12:18Z</time>
      </trkpt>
      <trkpt lat="48.75516" lon="7.96687">
        <ele>124.6</ele>
        <time>2020-06-28T09:12:19Z</time>
      </trkpt>
      <trkpt lat="48.75518" lon="7.96681">
        <ele>124.5</ele>
        <time>2020-06-28T09:12:20Z</time>
      </trkpt>
      <trkpt lat="48.75519" lon="7.96676">
        <ele>124.5</ele>
        <time>2020-06-28T09:12:21Z</time>
      </trkpt>
      <trkpt lat="48.7552" lon="7.9667">
        <ele>124.4</ele>
        <time>2020-06-28T09:12:22Z</time>
      </trkpt>
      <trkpt lat="48.75522" lon="7.96665">
        <ele>124.4</ele>
        <time>2020-06-28T09:12:23Z</time>
      </trkpt>
      <trkpt lat="48.75524" lon="7.96659">
        <ele>124.3</ele>
        <time>2020-06-28T09:12:24Z</time>
      </trkpt>
      <trkpt lat="48.75526" lon="7.96651">
        <ele>124.3</ele>
        <time>2020-06-28T09:12:25Z</time>
      </trkpt>
      <trkpt lat="48.75528" lon="7.96645">
        <ele>124.2</ele>
        <time>2020-06-28T09:12:26Z</time>
      </trkpt>
      <trkpt lat="48.7553" lon="7.96639">
        <ele>124.2</ele>
        <time>2020-06-28T09:12:27Z</time>
      </trkpt>
      <trkpt lat="48.75531" lon="7.96633">
        <ele>124.2</ele>
        <time>2020-06-28T09:12:28Z</time>
      </trkpt>
      <trkpt lat="48.75533" lon="7.96627">
        <ele>124.1</ele>
        <time>2020-06-28T09:12:29Z</time>
      </trkpt>
      <trkpt lat="48.75534" lon="7.96621">
        <ele>124.1</ele>
        <time>2020-06-28T09:12:30Z</time>
      </trkpt>
      <trkpt lat="48.75536" lon="7.96616">
        <ele>124.1</ele>
        <time>2020-06-28T09:12:31Z</time>
      </trkpt>
      <trkpt lat="48.75538" lon="7.96613">
        <ele>124.1</ele>
        <time>2020-06-28T09:12:32Z</time>
      </trkpt>
      <trkpt lat="48.75539" lon="7.96612">
        <ele>124.1</ele>
        <time>2020-06-28T09:12:33Z</time>
      </trkpt>
      <trkpt lat="48.75542" lon="7.96608">
        <ele>124</ele>
        <time>2020-06-28T09:12:34Z</time>
      </trkpt>
      <trkpt lat="48.75543" lon="7.96606">
        <ele>124</ele>
        <time>2020-06-28T09:12:35Z</time>
      </trkpt>
      <trkpt lat="48.75544" lon="7.96602">
        <ele>124</ele>
        <time>2020-06-28T09:12:36Z</time>
      </trkpt>
      <trkpt lat="48.75545" lon="7.966">
        <ele>124</ele>
        <time>2020-06-28T09:12:37Z</time>
      </trkpt>
      <trkpt lat="48.75548" lon="7.96594">
        <ele>123.9</ele>
        <time>2020-06-28T09:12:38Z</time>
      </trkpt>
      <trkpt lat="48.75549" lon="7.96592">
        <ele>123.9</ele>
        <time>2020-06-28T09:12:39Z</time>
      </trkpt>
      <trkpt lat="48.75551" lon="7.9659">
        <ele>123.8</ele>
        <time>2020-06-28T09:12:40Z</time>
      </trkpt>
      <trkpt lat="48.75554" lon="7.96587">
        <ele>123.7</ele>
        <time>2020-06-28T09:12:41Z</time>
      </trkpt>
      <trkpt lat="48.75555" lon="7.96583">
        <ele>123.7</ele>
        <time>2020-06-28T09:12:42Z</time>
      </trkpt>
      <trkpt lat="48.75556" lon="7.96579">
        <ele>123.6</ele>
        <time>2020-06-28T09:12:43Z</time>
      </trkpt>
      <trkpt lat="48.75557" lon="7.96573">
        <ele>123.5</ele>
        <time>2020-06-28T09:12:44Z</time>
      </trkpt>
      <trkpt lat="48.75558" lon="7.96567">
        <ele>123.4</ele>
        <time>2020-06-28T09:12:45Z</time>
      </trkpt>
      <trkpt lat="48.75559" lon="7.9656">
        <ele>123.3</ele>
        <time>2020-06-28T09:12:46Z</time>
      </trkpt>
      <trkpt lat="48.7556" lon="7.96553">
        <ele>123.2</ele>
        <time>2020-06-28T09:12:47Z</time>
      </trkpt>
      <trkpt lat="48.75562" lon="7.96548">
        <ele>123.1</ele>
        <time>2020-06-28T09:12:48Z</time>
      </trkpt>
      <trkpt lat="48.75564" lon="7.96542">
        <ele>123</ele>
        <time>2020-06-28T09:12:49Z</time>
      </trkpt>
      <trkpt lat="48.75566" lon="7.96534">
        <ele>122.8</ele>
        <time>2020-06-28T09:12:50Z</time>
      </trkpt>
      <trkpt lat="48.75568" lon="7.96525">
        <ele>122.7</ele>
        <time>2020-06-28T09:12:51Z</time>
      </trkpt>
      <trkpt lat="48.75569" lon="7.96516">
        <ele>122.6</ele>
        <time>2020-06-28T09:12:52Z</time>
      </trkpt>
      <trkpt lat="48.75571" lon="7.96507">
        <ele>122.4</ele>
        <time>2020-06-28T09:12:53Z</time>
      </trkpt>
      <trkpt lat="48.75573" lon="7.96499">
        <ele>122.3</ele>
        <time>2020-06-28T09:12:54Z</time>
      </trkpt>
      <trkpt lat="48.75575" lon="7.9649">
        <ele>122.2</ele>
        <time>2020-06-28T09:12:55Z</time>
      </trkpt>
      <trkpt lat="48.75577" lon="7.96482">
        <ele>122.1</ele>
        <time>2020-06-28T09:12:56Z</time>
      </trkpt>
      <trkpt lat="48.7558" lon="7.96474">
        <ele>122</ele>
        <time>2020-06-28T09:12:57Z</time>
      </trkpt>
      <trkpt lat="48.75583" lon="7.96465">
        <ele>121.9</ele>
        <time>2020-06-28T09:12:58Z</time>
      </trkpt>
      <trkpt lat="48.75585" lon="7.96458">
        <ele>121.9</ele>
        <time>2020-06-28T09:12:59Z</time>
      </trkpt>
      <trkpt lat="48.75587" lon="7.9645">
        <ele>121.8</ele>
        <time>2020-06-28T09:13:00Z</time>
      </trkpt>
      <trkpt lat="48.7559" lon="7.96441">
        <ele>121.7</ele>
        <time>2020-06-28T09:13:01Z</time>
      </trkpt>
      <trkpt lat="48.75592" lon="7.96434">
        <ele>121.7</ele>
        <time>2020-06-28T09:13:02Z</time>
      </trkpt>
      <trkpt lat="48.75594" lon="7.96427">
        <ele>121.7</ele>
        <time>2020-06-28T09:13:03Z</time>
      </trkpt>
      <trkpt lat="48.75597" lon="7.9642">
        <ele>121.6</ele>
        <time>2020-06-28T09:13:04Z</time>
      </trkpt>
      <trkpt lat="48.75599" lon="7.96414">
        <ele>121.6</ele>
        <time>2020-06-28T09:13:05Z</time>
      </trkpt>
      <trkpt lat="48.75601" lon="7.96408">
        <ele>121.6</ele>
        <time>2020-06-28T09:13:06Z</time>
      </trkpt>
      <trkpt lat="48.75602" lon="7.96402">
        <ele>121.6</ele>
        <time>2020-06-28T09:13:07Z</time>
      </trkpt>
      <trkpt lat="48.75604" lon="7.96397">
        <ele>121.5</ele>
        <time>2020-06-28T09:13:08Z</time>
      </trkpt>
      <trkpt lat="48.75604" lon="7.9639">
        <ele>121.5</ele>
        <time>2020-06-28T09:13:09Z</time>
      </trkpt>
      <trkpt lat="48.75606" lon="7.96384">
        <ele>121.5</ele>
        <time>2020-06-28T09:13:10Z</time>
      </trkpt>
      <trkpt lat="48.75607" lon="7.96378">
        <ele>121.5</ele>
        <time>2020-06-28T09:13:11Z</time>
      </trkpt>
      <trkpt lat="48.75608" lon="7.96372">
        <ele>121.5</ele>
        <time>2020-06-28T09:13:12Z</time>
      </trkpt>
      <trkpt lat="48.7561" lon="7.96367">
        <ele>121.5</ele>
        <time>2020-06-28T09:13:13Z</time>
      </trkpt>
      <trkpt lat="48.75611" lon="7.96361">
        <ele>121.5</ele>
        <time>2020-06-28T09:13:14Z</time>
      </trkpt>
      <trkpt lat="48.75613" lon="7.96354">
        <ele>121.5</ele>
        <time>2020-06-28T09:13:15Z</time>
      </trkpt>
      <trkpt lat="48.75615" lon="7.96347">
        <ele>121.5</ele>
        <time>2020-06-28T09:13:16Z</time>
      </trkpt>
      <trkpt lat="48.75617" lon="7.9634">
        <ele>121.5</ele>
        <time>2020-06-28T09:13:17Z</time>
      </trkpt>
      <trkpt lat="48.75618" lon="7.96333">
        <ele>121.5</ele>
        <time>2020-06-28T09:13:18Z</time>
      </trkpt>
      <trkpt lat="48.75621" lon="7.96327">
        <ele>121.6</ele>
        <time>2020-06-28T09:13:19Z</time>
      </trkpt>
      <trkpt lat="48.75624" lon="7.9632">
        <ele>121.6</ele>
        <time>2020-06-28T09:13:20Z</time>
      </trkpt>
      <trkpt lat="48.75626" lon="7.96313">
        <ele>121.6</ele>
        <time>2020-06-28T09:13:21Z</time>
      </trkpt>
      <trkpt lat="48.75628" lon="7.96306">
        <ele>121.5</ele>
        <time>2020-06-28T09:13:22Z</time>
      </trkpt>
      <trkpt lat="48.7563" lon="7.96299">
        <ele>121.5</ele>
        <time>2020-06-28T09:13:23Z</time>
      </trkpt>
      <trkpt lat="48.75632" lon="7.96293">
        <ele>121.5</ele>
        <time>2020-06-28T09:13:24Z</time>
      </trkpt>
      <trkpt lat="48.75635" lon="7.96286">
        <ele>121.5</ele>
        <time>2020-06-28T09:13:25Z</time>
      </trkpt>
      <trkpt lat="48.75638" lon="7.96278">
        <ele>121.5</ele>
        <time>2020-06-28T09:13:26Z</time>
      </trkpt>
      <trkpt lat="48.75642" lon="7.96269">
        <ele>121.5</ele>
        <time>2020-06-28T09:13:27Z</time>
      </trkpt>
      <trkpt lat="48.75644" lon="7.96262">
        <ele>121.5</ele>
        <time>2020-06-28T09:13:28Z</time>
      </trkpt>
      <trkpt lat="48.75646" lon="7.96255">
        <ele>121.5</ele>
        <time>2020-06-28T09:13:29Z</time>
      </trkpt>
      <trkpt lat="48.7565" lon="7.96248">
        <ele>121.5</ele>
        <time>2020-06-28T09:13:30Z</time>
      </trkpt>
      <trkpt lat="48.75652" lon="7.96242">
        <ele>121.5</ele>
        <time>2020-06-28T09:13:31Z</time>
      </trkpt>
      <trkpt lat="48.75653" lon="7.96236">
        <ele>121.6</ele>
        <time>2020-06-28T09:13:32Z</time>
      </trkpt>
      <trkpt lat="48.75655" lon="7.9623">
        <ele>121.6</ele>
        <time>2020-06-28T09:13:33Z</time>
      </trkpt>
      <trkpt lat="48.75658" lon="7.96224">
        <ele>121.7</ele>
        <time>2020-06-28T09:13:34Z</time>
      </trkpt>
      <trkpt lat="48.7566" lon="7.96217">
        <ele>121.7</ele>
        <time>2020-06-28T09:13:35Z</time>
      </trkpt>
      <trkpt lat="48.75662" lon="7.96212">
        <ele>121.7</ele>
        <time>2020-06-28T09:13:36Z</time>
      </trkpt>
      <trkpt lat="48.75664" lon="7.96205">
        <ele>121.8</ele>
        <time>2020-06-28T09:13:37Z</time>
      </trkpt>
      <trkpt lat="48.75667" lon="7.962">
        <ele>121.8</ele>
        <time>2020-06-28T09:13:38Z</time>
      </trkpt>
      <trkpt lat="48.75668" lon="7.96193">
        <ele>121.8</ele>
        <time>2020-06-28T09:13:39Z</time>
      </trkpt>
      <trkpt lat="48.7567" lon="7.96186">
        <ele>121.9</ele>
        <time>2020-06-28T09:13:40Z</time>
      </trkpt>
      <trkpt lat="48.75672" lon="7.96178">
        <ele>121.9</ele>
        <time>2020-06-28T09:13:41Z</time>
      </trkpt>
      <trkpt lat="48.75674" lon="7.96172">
        <ele>122</ele>
        <time>2020-06-28T09:13:42Z</time>
      </trkpt>
      <trkpt lat="48.75677" lon="7.96165">
        <ele>122.1</ele>
        <time>2020-06-28T09:13:43Z</time>
      </trkpt>
      <trkpt lat="48.75678" lon="7.96159">
        <ele>122.1</ele>
        <time>2020-06-28T09:13:44Z</time>
      </trkpt>
      <trkpt lat="48.75679" lon="7.96154">
        <ele>122.1</ele>
        <time>2020-06-28T09:13:45Z</time>
      </trkpt>
      <trkpt lat="48.7568" lon="7.96148">
        <ele>122.2</ele>
        <time>2020-06-28T09:13:46Z</time>
      </trkpt>
      <trkpt lat="48.75682" lon="7.96142">
        <ele>122.2</ele>
        <time>2020-06-28T09:13:47Z</time>
      </trkpt>
      <trkpt lat="48.75683" lon="7.96137">
        <ele>122.3</ele>
        <time>2020-06-28T09:13:48Z</time>
      </trkpt>
      <trkpt lat="48.75684" lon="7.96132">
        <ele>122.3</ele>
        <time>2020-06-28T09:13:49Z</time>
      </trkpt>
      <trkpt lat="48.75686" lon="7.96124">
        <ele>122.3</ele>
        <time>2020-06-28T09:13:50Z</time>
      </trkpt>
      <trkpt lat="48.75688" lon="7.96118">
        <ele>122.3</ele>
        <time>2020-06-28T09:13:51Z</time>
      </trkpt>
      <trkpt lat="48.7569" lon="7.9611">
        <ele>122.3</ele>
        <time>2020-06-28T09:13:52Z</time>
      </trkpt>
      <trkpt lat="48.75692" lon="7.96102">
        <ele>122.3</ele>
        <time>2020-06-28T09:13:53Z</time>
      </trkpt>
      <trkpt lat="48.75694" lon="7.96096">
        <ele>122.3</ele>
        <time>2020-06-28T09:13:54Z</time>
      </trkpt>
      <trkpt lat="48.75696" lon="7.9609">
        <ele>122.3</ele>
        <time>2020-06-28T09:13:55Z</time>
      </trkpt>
      <trkpt lat="48.75698" lon="7.96085">
        <ele>122.3</ele>
        <time>2020-06-28T09:13:56Z</time>
      </trkpt>
      <trkpt lat="48.75699" lon="7.9608">
        <ele>122.3</ele>
        <time>2020-06-28T09:13:57Z</time>
      </trkpt>
      <trkpt lat="48.75701" lon="7.96074">
        <ele>122.3</ele>
        <time>2020-06-28T09:13:58Z</time>
      </trkpt>
      <trkpt lat="48.75702" lon="7.96069">
        <ele>122.3</ele>
        <time>2020-06-28T09:13:59Z</time>
      </trkpt>
      <trkpt lat="48.75703" lon="7.96064">
        <ele>122.3</ele>
        <time>2020-06-28T09:14:00Z</time>
      </trkpt>
      <trkpt lat="48.75704" lon="7.96059">
        <ele>122.4</ele>
        <time>2020-06-28T09:14:01Z</time>
      </trkpt>
      <trkpt lat="48.75705" lon="7.96053">
        <ele>122.4</ele>
        <time>2020-06-28T09:14:02Z</time>
      </trkpt>
      <trkpt lat="48.75706" lon="7.96047">
        <ele>122.4</ele>
        <time>2020-06-28T09:14:03Z</time>
      </trkpt>
      <trkpt lat="48.75708" lon="7.96041">
        <ele>122.4</ele>
        <time>2020-06-28T09:14:04Z</time>
      </trkpt>
      <trkpt lat="48.7571" lon="7.96034">
        <ele>122.4</ele>
        <time>2020-06-28T09:14:05Z</time>
      </trkpt>
      <trkpt lat="48.75712" lon="7.96028">
        <ele>122.5</ele>
        <time>2020-06-28T09:14:06Z</time>
      </trkpt>
      <trkpt lat="48.75713" lon="7.96022">
        <ele>122.5</ele>
        <time>2020-06-28T09:14:07Z</time>
      </trkpt>
      <trkpt lat="48.75716" lon="7.96017">
        <ele>122.6</ele>
        <time>2020-06-28T09:14:08Z</time>
      </trkpt>
      <trkpt lat="48.75717" lon="7.96013">
        <ele>122.7</ele>
        <time>2020-06-28T09:14:09Z</time>
      </trkpt>
      <trkpt lat="48.75718" lon="7.96008">
        <ele>122.7</ele>
        <time>2020-06-28T09:14:10Z</time>
      </trkpt>
      <trkpt lat="48.75718" lon="7.96007">
        <ele>122.7</ele>
        <time>2020-06-28T09:14:11Z</time>
      </trkpt>
      <trkpt lat="48.75715" lon="7.96006">
        <ele>122.7</ele>
        <time>2020-06-28T09:14:12Z</time>
      </trkpt>
      <trkpt lat="48.75714" lon="7.96005">
        <ele>122.7</ele>
        <time>2020-06-28T09:14:13Z</time>
      </trkpt>
      <trkpt lat="48.75712" lon="7.96002">
        <ele>122.8</ele>
        <time>2020-06-28T09:14:14Z</time>
      </trkpt>
      <trkpt lat="48.75711" lon="7.96002">
        <ele>122.8</ele>
        <time>2020-06-28T09:14:15Z</time>
      </trkpt>
      <trkpt lat="48.75711" lon="7.96">
        <ele>122.8</ele>
        <time>2020-06-28T09:14:16Z</time>
      </trkpt>
      <trkpt lat="48.75712" lon="7.95997">
        <ele>122.8</ele>
        <time>2020-06-28T09:14:17Z</time>
      </trkpt>
      <trkpt lat="48.75712" lon="7.9599">
        <ele>122.9</ele>
        <time>2020-06-28T09:14:18Z</time>
      </trkpt>
      <trkpt lat="48.75712" lon="7.95987">
        <ele>123</ele>
        <time>2020-06-28T09:14:19Z</time>
      </trkpt>
      <trkpt lat="48.75712" lon="7.95982">
        <ele>123.2</ele>
        <time>2020-06-28T09:14:20Z</time>
      </trkpt>
      <trkpt lat="48.7571" lon="7.95978">
        <ele>123.2</ele>
        <time>2020-06-28T09:14:21Z</time>
      </trkpt>
      <trkpt lat="48.75708" lon="7.95973">
        <ele>123.2</ele>
        <time>2020-06-28T09:14:22Z</time>
      </trkpt>
      <trkpt lat="48.75709" lon="7.95969">
        <ele>123.1</ele>
        <time>2020-06-28T09:14:23Z</time>
      </trkpt>
      <trkpt lat="48.75711" lon="7.95964">
        <ele>123.1</ele>
        <time>2020-06-28T09:14:24Z</time>
      </trkpt>
      <trkpt lat="48.75714" lon="7.95963">
        <ele>123.1</ele>
        <time>2020-06-28T09:14:25Z</time>
      </trkpt>
      <trkpt lat="48.75718" lon="7.95961">
        <ele>123</ele>
        <time>2020-06-28T09:14:26Z</time>
      </trkpt>
      <trkpt lat="48.7572" lon="7.95957">
        <ele>122.9</ele>
        <time>2020-06-28T09:14:27Z</time>
      </trkpt>
      <trkpt lat="48.75722" lon="7.95951">
        <ele>122.8</ele>
        <time>2020-06-28T09:14:28Z</time>
      </trkpt>
      <trkpt lat="48.75724" lon="7.95944">
        <ele>122.7</ele>
        <time>2020-06-28T09:14:29Z</time>
      </trkpt>
      <trkpt lat="48.75725" lon="7.95937">
        <ele>122.6</ele>
        <time>2020-06-28T09:14:30Z</time>
      </trkpt>
      <trkpt lat="48.75727" lon="7.95928">
        <ele>122.5</ele>
        <time>2020-06-28T09:14:31Z</time>
      </trkpt>
      <trkpt lat="48.7573" lon="7.95919">
        <ele>122.4</ele>
        <time>2020-06-28T09:14:32Z</time>
      </trkpt>
      <trkpt lat="48.75731" lon="7.95911">
        <ele>122.3</ele>
        <time>2020-06-28T09:14:33Z</time>
      </trkpt>
      <trkpt lat="48.75733" lon="7.95901">
        <ele>122.3</ele>
        <time>2020-06-28T09:14:34Z</time>
      </trkpt>
      <trkpt lat="48.75735" lon="7.95891">
        <ele>122.2</ele>
        <time>2020-06-28T09:14:35Z</time>
      </trkpt>
      <trkpt lat="48.75736" lon="7.95882">
        <ele>122.1</ele>
        <time>2020-06-28T09:14:36Z</time>
      </trkpt>
      <trkpt lat="48.75737" lon="7.95874">
        <ele>122.1</ele>
        <time>2020-06-28T09:14:37Z</time>
      </trkpt>
      <trkpt lat="48.75738" lon="7.95865">
        <ele>122.1</ele>
        <time>2020-06-28T09:14:38Z</time>
      </trkpt>
      <trkpt lat="48.75739" lon="7.95856">
        <ele>122.1</ele>
        <time>2020-06-28T09:14:39Z</time>
      </trkpt>
      <trkpt lat="48.7574" lon="7.95846">
        <ele>122.1</ele>
        <time>2020-06-28T09:14:40Z</time>
      </trkpt>
      <trkpt lat="48.75741" lon="7.95838">
        <ele>122</ele>
        <time>2020-06-28T09:14:41Z</time>
      </trkpt>
      <trkpt lat="48.75742" lon="7.95829">
        <ele>122</ele>
        <time>2020-06-28T09:14:42Z</time>
      </trkpt>
      <trkpt lat="48.75743" lon="7.9582">
        <ele>122</ele>
        <time>2020-06-28T09:14:43Z</time>
      </trkpt>
      <trkpt lat="48.75743" lon="7.95811">
        <ele>122</ele>
        <time>2020-06-28T09:14:44Z</time>
      </trkpt>
      <trkpt lat="48.75743" lon="7.95803">
        <ele>122</ele>
        <time>2020-06-28T09:14:45Z</time>
      </trkpt>
      <trkpt lat="48.75744" lon="7.95795">
        <ele>121.9</ele>
        <time>2020-06-28T09:14:46Z</time>
      </trkpt>
      <trkpt lat="48.75744" lon="7.95787">
        <ele>121.9</ele>
        <time>2020-06-28T09:14:47Z</time>
      </trkpt>
      <trkpt lat="48.75745" lon="7.95781">
        <ele>121.9</ele>
        <time>2020-06-28T09:14:48Z</time>
      </trkpt>
      <trkpt lat="48.75746" lon="7.95774">
        <ele>121.9</ele>
        <time>2020-06-28T09:14:49Z</time>
      </trkpt>
      <trkpt lat="48.75747" lon="7.95766">
        <ele>121.8</ele>
        <time>2020-06-28T09:14:50Z</time>
      </trkpt>
      <trkpt lat="48.75747" lon="7.95759">
        <ele>121.8</ele>
        <time>2020-06-28T09:14:51Z</time>
      </trkpt>
      <trkpt lat="48.75748" lon="7.95753">
        <ele>121.8</ele>
        <time>2020-06-28T09:14:52Z</time>
      </trkpt>
      <trkpt lat="48.75749" lon="7.95744">
        <ele>121.8</ele>
        <time>2020-06-28T09:14:53Z</time>
      </trkpt>
      <trkpt lat="48.75749" lon="7.95736">
        <ele>121.8</ele>
        <time>2020-06-28T09:14:54Z</time>
      </trkpt>
      <trkpt lat="48.75751" lon="7.95728">
        <ele>121.8</ele>
        <time>2020-06-28T09:14:55Z</time>
      </trkpt>
      <trkpt lat="48.75752" lon="7.9572">
        <ele>121.8</ele>
        <time>2020-06-28T09:14:56Z</time>
      </trkpt>
      <trkpt lat="48.75753" lon="7.95712">
        <ele>121.8</ele>
        <time>2020-06-28T09:14:57Z</time>
      </trkpt>
      <trkpt lat="48.75755" lon="7.95705">
        <ele>121.8</ele>
        <time>2020-06-28T09:14:58Z</time>
      </trkpt>
      <trkpt lat="48.75758" lon="7.95699">
        <ele>121.8</ele>
        <time>2020-06-28T09:14:59Z</time>
      </trkpt>
      <trkpt lat="48.75762" lon="7.95693">
        <ele>121.8</ele>
        <time>2020-06-28T09:15:00Z</time>
      </trkpt>
      <trkpt lat="48.75763" lon="7.95686">
        <ele>121.8</ele>
        <time>2020-06-28T09:15:01Z</time>
      </trkpt>
      <trkpt lat="48.75766" lon="7.95679">
        <ele>121.8</ele>
        <time>2020-06-28T09:15:02Z</time>
      </trkpt>
      <trkpt lat="48.75769" lon="7.95672">
        <ele>121.7</ele>
        <time>2020-06-28T09:15:03Z</time>
      </trkpt>
      <trkpt lat="48.75772" lon="7.95666">
        <ele>121.7</ele>
        <time>2020-06-28T09:15:04Z</time>
      </trkpt>
      <trkpt lat="48.75774" lon="7.95659">
        <ele>121.6</ele>
        <time>2020-06-28T09:15:05Z</time>
      </trkpt>
      <trkpt lat="48.75777" lon="7.95652">
        <ele>121.6</ele>
        <time>2020-06-28T09:15:06Z</time>
      </trkpt>
      <trkpt lat="48.7578" lon="7.95645">
        <ele>121.5</ele>
        <time>2020-06-28T09:15:07Z</time>
      </trkpt>
      <trkpt lat="48.75782" lon="7.95637">
        <ele>121.5</ele>
        <time>2020-06-28T09:15:08Z</time>
      </trkpt>
      <trkpt lat="48.75784" lon="7.95631">
        <ele>121.5</ele>
        <time>2020-06-28T09:15:09Z</time>
      </trkpt>
      <trkpt lat="48.75788" lon="7.95624">
        <ele>121.5</ele>
        <time>2020-06-28T09:15:10Z</time>
      </trkpt>
      <trkpt lat="48.7579" lon="7.95617">
        <ele>121.5</ele>
        <time>2020-06-28T09:15:11Z</time>
      </trkpt>
      <trkpt lat="48.75793" lon="7.9561">
        <ele>121.5</ele>
        <time>2020-06-28T09:15:12Z</time>
      </trkpt>
      <trkpt lat="48.75796" lon="7.95603">
        <ele>121.5</ele>
        <time>2020-06-28T09:15:13Z</time>
      </trkpt>
      <trkpt lat="48.75799" lon="7.95594">
        <ele>121.5</ele>
        <time>2020-06-28T09:15:14Z</time>
      </trkpt>
      <trkpt lat="48.75801" lon="7.95586">
        <ele>121.5</ele>
        <time>2020-06-28T09:15:15Z</time>
      </trkpt>
      <trkpt lat="48.75803" lon="7.95578">
        <ele>121.5</ele>
        <time>2020-06-28T09:15:16Z</time>
      </trkpt>
      <trkpt lat="48.75805" lon="7.9557">
        <ele>121.4</ele>
        <time>2020-06-28T09:15:17Z</time>
      </trkpt>
      <trkpt lat="48.75808" lon="7.95562">
        <ele>121.4</ele>
        <time>2020-06-28T09:15:18Z</time>
      </trkpt>
      <trkpt lat="48.7581" lon="7.95555">
        <ele>121.4</ele>
        <time>2020-06-28T09:15:19Z</time>
      </trkpt>
      <trkpt lat="48.75812" lon="7.95547">
        <ele>121.4</ele>
        <time>2020-06-28T09:15:20Z</time>
      </trkpt>
      <trkpt lat="48.75815" lon="7.95539">
        <ele>121.4</ele>
        <time>2020-06-28T09:15:21Z</time>
      </trkpt>
      <trkpt lat="48.75817" lon="7.95531">
        <ele>121.4</ele>
        <time>2020-06-28T09:15:22Z</time>
      </trkpt>
      <trkpt lat="48.7582" lon="7.95524">
        <ele>121.4</ele>
        <time>2020-06-28T09:15:23Z</time>
      </trkpt>
      <trkpt lat="48.75823" lon="7.95517">
        <ele>121.4</ele>
        <time>2020-06-28T09:15:24Z</time>
      </trkpt>
      <trkpt lat="48.75826" lon="7.95511">
        <ele>121.5</ele>
        <time>2020-06-28T09:15:25Z</time>
      </trkpt>
      <trkpt lat="48.75829" lon="7.95505">
        <ele>121.5</ele>
        <time>2020-06-28T09:15:26Z</time>
      </trkpt>
      <trkpt lat="48.75832" lon="7.955">
        <ele>121.5</ele>
        <time>2020-06-28T09:15:27Z</time>
      </trkpt>
      <trkpt lat="48.75836" lon="7.95493">
        <ele>121.5</ele>
        <time>2020-06-28T09:15:28Z</time>
      </trkpt>
      <trkpt lat="48.75839" lon="7.95486">
        <ele>121.5</ele>
        <time>2020-06-28T09:15:29Z</time>
      </trkpt>
      <trkpt lat="48.7584" lon="7.95478">
        <ele>121.5</ele>
        <time>2020-06-28T09:15:30Z</time>
      </trkpt>
      <trkpt lat="48.75842" lon="7.9547">
        <ele>121.5</ele>
        <time>2020-06-28T09:15:31Z</time>
      </trkpt>
      <trkpt lat="48.75846" lon="7.95464">
        <ele>121.4</ele>
        <time>2020-06-28T09:15:32Z</time>
      </trkpt>
      <trkpt lat="48.75849" lon="7.95457">
        <ele>121.4</ele>
        <time>2020-06-28T09:15:33Z</time>
      </trkpt>
      <trkpt lat="48.75852" lon="7.95449">
        <ele>121.4</ele>
        <time>2020-06-28T09:15:34Z</time>
      </trkpt>
      <trkpt lat="48.75855" lon="7.95442">
        <ele>121.4</ele>
        <time>2020-06-28T09:15:35Z</time>
      </trkpt>
      <trkpt lat="48.75858" lon="7.95434">
        <ele>121.3</ele>
        <time>2020-06-28T09:15:36Z</time>
      </trkpt>
      <trkpt lat="48.75861" lon="7.95427">
        <ele>121.3</ele>
        <time>2020-06-28T09:15:37Z</time>
      </trkpt>
      <trkpt lat="48.75864" lon="7.95419">
        <ele>121.3</ele>
        <time>2020-06-28T09:15:38Z</time>
      </trkpt>
      <trkpt lat="48.75867" lon="7.95411">
        <ele>121.3</ele>
        <time>2020-06-28T09:15:39Z</time>
      </trkpt>
      <trkpt lat="48.7587" lon="7.95404">
        <ele>121.4</ele>
        <time>2020-06-28T09:15:40Z</time>
      </trkpt>
      <trkpt lat="48.75874" lon="7.95398">
        <ele>121.4</ele>
        <time>2020-06-28T09:15:41Z</time>
      </trkpt>
      <trkpt lat="48.75878" lon="7.95391">
        <ele>121.4</ele>
        <time>2020-06-28T09:15:42Z</time>
      </trkpt>
      <trkpt lat="48.75882" lon="7.95386">
        <ele>121.5</ele>
        <time>2020-06-28T09:15:43Z</time>
      </trkpt>
      <trkpt lat="48.75886" lon="7.95381">
        <ele>121.6</ele>
        <time>2020-06-28T09:15:44Z</time>
      </trkpt>
      <trkpt lat="48.75891" lon="7.95377">
        <ele>121.6</ele>
        <time>2020-06-28T09:15:45Z</time>
      </trkpt>
      <trkpt lat="48.75896" lon="7.95373">
        <ele>121.7</ele>
        <time>2020-06-28T09:15:46Z</time>
      </trkpt>
      <trkpt lat="48.75901" lon="7.95368">
        <ele>121.8</ele>
        <time>2020-06-28T09:15:47Z</time>
      </trkpt>
      <trkpt lat="48.75906" lon="7.95365">
        <ele>121.9</ele>
        <time>2020-06-28T09:15:48Z</time>
      </trkpt>
      <trkpt lat="48.75911" lon="7.9536">
        <ele>121.9</ele>
        <time>2020-06-28T09:15:49Z</time>
      </trkpt>
      <trkpt lat="48.75915" lon="7.95356">
        <ele>122</ele>
        <time>2020-06-28T09:15:50Z</time>
      </trkpt>
      <trkpt lat="48.7592" lon="7.95353">
        <ele>122.1</ele>
        <time>2020-06-28T09:15:51Z</time>
      </trkpt>
      <trkpt lat="48.75926" lon="7.95351">
        <ele>122.2</ele>
        <time>2020-06-28T09:15:52Z</time>
      </trkpt>
      <trkpt lat="48.75931" lon="7.95349">
        <ele>122.3</ele>
        <time>2020-06-28T09:15:53Z</time>
      </trkpt>
      <trkpt lat="48.75936" lon="7.95349">
        <ele>122.4</ele>
        <time>2020-06-28T09:15:54Z</time>
      </trkpt>
      <trkpt lat="48.7594" lon="7.95347">
        <ele>122.4</ele>
        <time>2020-06-28T09:15:55Z</time>
      </trkpt>
      <trkpt lat="48.75944" lon="7.95344">
        <ele>122.5</ele>
        <time>2020-06-28T09:15:56Z</time>
      </trkpt>
      <trkpt lat="48.75949" lon="7.95342">
        <ele>122.6</ele>
        <time>2020-06-28T09:15:57Z</time>
      </trkpt>
      <trkpt lat="48.75953" lon="7.9534">
        <ele>122.7</ele>
        <time>2020-06-28T09:15:58Z</time>
      </trkpt>
      <trkpt lat="48.75955" lon="7.95337">
        <ele>122.8</ele>
        <time>2020-06-28T09:15:59Z</time>
      </trkpt>
      <trkpt lat="48.75957" lon="7.95336">
        <ele>122.8</ele>
        <time>2020-06-28T09:16:00Z</time>
      </trkpt>
      <trkpt lat="48.75958" lon="7.95335">
        <ele>122.9</ele>
        <time>2020-06-28T09:16:01Z</time>
      </trkpt>
      <trkpt lat="48.75959" lon="7.95335">
        <ele>122.9</ele>
        <time>2020-06-28T09:16:02Z</time>
      </trkpt>
      <trkpt lat="48.75961" lon="7.95331">
        <ele>122.9</ele>
        <time>2020-06-28T09:16:03Z</time>
      </trkpt>
      <trkpt lat="48.75961" lon="7.9533">
        <ele>123</ele>
        <time>2020-06-28T09:16:04Z</time>
      </trkpt>
      <trkpt lat="48.75958" lon="7.95324">
        <ele>122.8</ele>
        <time>2020-06-28T09:16:05Z</time>
      </trkpt>
      <trkpt lat="48.75955" lon="7.95319">
        <ele>122.9</ele>
        <time>2020-06-28T09:16:06Z</time>
      </trkpt>
      <trkpt lat="48.75951" lon="7.95314">
        <ele>122.9</ele>
        <time>2020-06-28T09:16:07Z</time>
      </trkpt>
      <trkpt lat="48.75948" lon="7.95309">
        <ele>123</ele>
        <time>2020-06-28T09:16:08Z</time>
      </trkpt>
      <trkpt lat="48.75945" lon="7.95303">
        <ele>123</ele>
        <time>2020-06-28T09:16:09Z</time>
      </trkpt>
      <trkpt lat="48.75942" lon="7.95297">
        <ele>123</ele>
        <time>2020-06-28T09:16:10Z</time>
      </trkpt>
      <trkpt lat="48.75939" lon="7.95291">
        <ele>123</ele>
        <time>2020-06-28T09:16:11Z</time>
      </trkpt>
      <trkpt lat="48.75937" lon="7.95285">
        <ele>123.1</ele>
        <time>2020-06-28T09:16:12Z</time>
      </trkpt>
      <trkpt lat="48.75936" lon="7.9528">
        <ele>123.1</ele>
        <time>2020-06-28T09:16:13Z</time>
      </trkpt>
      <trkpt lat="48.75934" lon="7.95275">
        <ele>123.1</ele>
        <time>2020-06-28T09:16:14Z</time>
      </trkpt>
      <trkpt lat="48.75932" lon="7.95271">
        <ele>123.1</ele>
        <time>2020-06-28T09:16:15Z</time>
      </trkpt>
      <trkpt lat="48.75931" lon="7.95266">
        <ele>123.2</ele>
        <time>2020-06-28T09:16:16Z</time>
      </trkpt>
      <trkpt lat="48.75931" lon="7.95259">
        <ele>123.3</ele>
        <time>2020-06-28T09:16:17Z</time>
      </trkpt>
      <trkpt lat="48.7593" lon="7.95253">
        <ele>123.3</ele>
        <time>2020-06-28T09:16:18Z</time>
      </trkpt>
      <trkpt lat="48.75928" lon="7.95247">
        <ele>123.4</ele>
        <time>2020-06-28T09:16:19Z</time>
      </trkpt>
      <trkpt lat="48.75926" lon="7.95242">
        <ele>123.2</ele>
        <time>2020-06-28T09:16:20Z</time>
      </trkpt>
      <trkpt lat="48.75923" lon="7.95237">
        <ele>123.2</ele>
        <time>2020-06-28T09:16:21Z</time>
      </trkpt>
      <trkpt lat="48.75918" lon="7.95234">
        <ele>123.2</ele>
        <time>2020-06-28T09:16:22Z</time>
      </trkpt>
      <trkpt lat="48.75914" lon="7.95232">
        <ele>123.2</ele>
        <time>2020-06-28T09:16:23Z</time>
      </trkpt>
      <trkpt lat="48.7591" lon="7.9523">
        <ele>123.2</ele>
        <time>2020-06-28T09:16:24Z</time>
      </trkpt>
      <trkpt lat="48.75906" lon="7.95227">
        <ele>123.2</ele>
        <time>2020-06-28T09:16:25Z</time>
      </trkpt>
      <trkpt lat="48.75903" lon="7.95222">
        <ele>123.2</ele>
        <time>2020-06-28T09:16:26Z</time>
      </trkpt>
      <trkpt lat="48.75901" lon="7.95215">
        <ele>123.2</ele>
        <time>2020-06-28T09:16:27Z</time>
      </trkpt>
      <trkpt lat="48.75898" lon="7.95209">
        <ele>123.2</ele>
        <time>2020-06-28T09:16:28Z</time>
      </trkpt>
      <trkpt lat="48.75896" lon="7.95203">
        <ele>123.2</ele>
        <time>2020-06-28T09:16:29Z</time>
      </trkpt>
      <trkpt lat="48.75893" lon="7.95198">
        <ele>123.2</ele>
        <time>2020-06-28T09:16:30Z</time>
      </trkpt>
      <trkpt lat="48.7589" lon="7.95193">
        <ele>123.2</ele>
        <time>2020-06-28T09:16:31Z</time>
      </trkpt>
      <trkpt lat="48.75887" lon="7.95188">
        <ele>123.3</ele>
        <time>2020-06-28T09:16:32Z</time>
      </trkpt>
      <trkpt lat="48.75884" lon="7.95185">
        <ele>123.3</ele>
        <time>2020-06-28T09:16:33Z</time>
      </trkpt>
      <trkpt lat="48.7588" lon="7.95182">
        <ele>123.3</ele>
        <time>2020-06-28T09:16:34Z</time>
      </trkpt>
      <trkpt lat="48.75876" lon="7.9518">
        <ele>123.3</ele>
        <time>2020-06-28T09:16:35Z</time>
      </trkpt>
      <trkpt lat="48.75873" lon="7.95176">
        <ele>123.3</ele>
        <time>2020-06-28T09:16:36Z</time>
      </trkpt>
      <trkpt lat="48.75868" lon="7.95172">
        <ele>123.3</ele>
        <time>2020-06-28T09:16:37Z</time>
      </trkpt>
      <trkpt lat="48.75865" lon="7.95169">
        <ele>123.3</ele>
        <time>2020-06-28T09:16:38Z</time>
      </trkpt>
      <trkpt lat="48.75861" lon="7.95165">
        <ele>123.3</ele>
        <time>2020-06-28T09:16:39Z</time>
      </trkpt>
      <trkpt lat="48.75858" lon="7.95161">
        <ele>123.2</ele>
        <time>2020-06-28T09:16:40Z</time>
      </trkpt>
      <trkpt lat="48.75855" lon="7.95154">
        <ele>123.2</ele>
        <time>2020-06-28T09:16:41Z</time>
      </trkpt>
      <trkpt lat="48.75851" lon="7.95148">
        <ele>123.2</ele>
        <time>2020-06-28T09:16:42Z</time>
      </trkpt>
      <trkpt lat="48.75848" lon="7.95141">
        <ele>123.2</ele>
        <time>2020-06-28T09:16:43Z</time>
      </trkpt>
      <trkpt lat="48.75845" lon="7.95135">
        <ele>123.1</ele>
        <time>2020-06-28T09:16:44Z</time>
      </trkpt>
      <trkpt lat="48.75841" lon="7.95128">
        <ele>123.1</ele>
        <time>2020-06-28T09:16:45Z</time>
      </trkpt>
      <trkpt lat="48.75838" lon="7.95121">
        <ele>123.1</ele>
        <time>2020-06-28T09:16:46Z</time>
      </trkpt>
      <trkpt lat="48.75834" lon="7.95114">
        <ele>123</ele>
        <time>2020-06-28T09:16:47Z</time>
      </trkpt>
      <trkpt lat="48.75831" lon="7.9511">
        <ele>123</ele>
        <time>2020-06-28T09:16:48Z</time>
      </trkpt>
      <trkpt lat="48.75828" lon="7.95103">
        <ele>122.9</ele>
        <time>2020-06-28T09:16:49Z</time>
      </trkpt>
      <trkpt lat="48.75824" lon="7.95096">
        <ele>122.9</ele>
        <time>2020-06-28T09:16:50Z</time>
      </trkpt>
      <trkpt lat="48.75821" lon="7.95089">
        <ele>122.8</ele>
        <time>2020-06-28T09:16:51Z</time>
      </trkpt>
      <trkpt lat="48.75818" lon="7.95083">
        <ele>122.8</ele>
        <time>2020-06-28T09:16:52Z</time>
      </trkpt>
      <trkpt lat="48.75814" lon="7.95077">
        <ele>122.7</ele>
        <time>2020-06-28T09:16:53Z</time>
      </trkpt>
      <trkpt lat="48.7581" lon="7.9507">
        <ele>122.7</ele>
        <time>2020-06-28T09:16:54Z</time>
      </trkpt>
      <trkpt lat="48.75806" lon="7.95063">
        <ele>122.7</ele>
        <time>2020-06-28T09:16:55Z</time>
      </trkpt>
      <trkpt lat="48.75803" lon="7.95057">
        <ele>122.7</ele>
        <time>2020-06-28T09:16:56Z</time>
      </trkpt>
      <trkpt lat="48.75798" lon="7.95049">
        <ele>122.7</ele>
        <time>2020-06-28T09:16:57Z</time>
      </trkpt>
      <trkpt lat="48.75794" lon="7.95044">
        <ele>122.7</ele>
        <time>2020-06-28T09:16:58Z</time>
      </trkpt>
      <trkpt lat="48.75791" lon="7.95038">
        <ele>122.7</ele>
        <time>2020-06-28T09:16:59Z</time>
      </trkpt>
      <trkpt lat="48.75788" lon="7.95032">
        <ele>122.8</ele>
        <time>2020-06-28T09:17:00Z</time>
      </trkpt>
      <trkpt lat="48.75784" lon="7.95025">
        <ele>122.8</ele>
        <time>2020-06-28T09:17:01Z</time>
      </trkpt>
      <trkpt lat="48.75781" lon="7.95019">
        <ele>122.8</ele>
        <time>2020-06-28T09:17:02Z</time>
      </trkpt>
      <trkpt lat="48.75777" lon="7.95014">
        <ele>122.8</ele>
        <time>2020-06-28T09:17:03Z</time>
      </trkpt>
      <trkpt lat="48.75773" lon="7.95008">
        <ele>122.8</ele>
        <time>2020-06-28T09:17:04Z</time>
      </trkpt>
      <trkpt lat="48.7577" lon="7.95003">
        <ele>122.8</ele>
        <time>2020-06-28T09:17:05Z</time>
      </trkpt>
      <trkpt lat="48.75768" lon="7.94998">
        <ele>122.8</ele>
        <time>2020-06-28T09:17:06Z</time>
      </trkpt>
      <trkpt lat="48.75765" lon="7.94991">
        <ele>122.7</ele>
        <time>2020-06-28T09:17:07Z</time>
      </trkpt>
      <trkpt lat="48.75763" lon="7.94986">
        <ele>122.7</ele>
        <time>2020-06-28T09:17:08Z</time>
      </trkpt>
      <trkpt lat="48.7576" lon="7.9498">
        <ele>122.7</ele>
        <time>2020-06-28T09:17:09Z</time>
      </trkpt>
      <trkpt lat="48.75757" lon="7.94974">
        <ele>122.6</ele>
        <time>2020-06-28T09:17:10Z</time>
      </trkpt>
      <trkpt lat="48.75754" lon="7.94967">
        <ele>122.6</ele>
        <time>2020-06-28T09:17:11Z</time>
      </trkpt>
      <trkpt lat="48.75751" lon="7.9496">
        <ele>122.6</ele>
        <time>2020-06-28T09:17:12Z</time>
      </trkpt>
      <trkpt lat="48.75747" lon="7.94954">
        <ele>122.6</ele>
        <time>2020-06-28T09:17:13Z</time>
      </trkpt>
      <trkpt lat="48.75744" lon="7.94947">
        <ele>122.6</ele>
        <time>2020-06-28T09:17:14Z</time>
      </trkpt>
      <trkpt lat="48.75739" lon="7.9494">
        <ele>122.5</ele>
        <time>2020-06-28T09:17:15Z</time>
      </trkpt>
      <trkpt lat="48.75736" lon="7.94933">
        <ele>122.5</ele>
        <time>2020-06-28T09:17:16Z</time>
      </trkpt>
      <trkpt lat="48.75734" lon="7.94927">
        <ele>122.5</ele>
        <time>2020-06-28T09:17:17Z</time>
      </trkpt>
      <trkpt lat="48.7573" lon="7.94921">
        <ele>122.5</ele>
        <time>2020-06-28T09:17:18Z</time>
      </trkpt>
      <trkpt lat="48.75727" lon="7.94916">
        <ele>122.5</ele>
        <time>2020-06-28T09:17:19Z</time>
      </trkpt>
      <trkpt lat="48.75724" lon="7.94912">
        <ele>122.5</ele>
        <time>2020-06-28T09:17:20Z</time>
      </trkpt>
      <trkpt lat="48.7572" lon="7.9491">
        <ele>122.5</ele>
        <time>2020-06-28T09:17:21Z</time>
      </trkpt>
      <trkpt lat="48.75719" lon="7.94904">
        <ele>122.5</ele>
        <time>2020-06-28T09:17:22Z</time>
      </trkpt>
      <trkpt lat="48.75717" lon="7.949">
        <ele>122.5</ele>
        <time>2020-06-28T09:17:23Z</time>
      </trkpt>
      <trkpt lat="48.75714" lon="7.94893">
        <ele>122.4</ele>
        <time>2020-06-28T09:17:24Z</time>
      </trkpt>
      <trkpt lat="48.75711" lon="7.94886">
        <ele>122.4</ele>
        <time>2020-06-28T09:17:25Z</time>
      </trkpt>
      <trkpt lat="48.75709" lon="7.94878">
        <ele>122.4</ele>
        <time>2020-06-28T09:17:26Z</time>
      </trkpt>
      <trkpt lat="48.75707" lon="7.9487">
        <ele>122.4</ele>
        <time>2020-06-28T09:17:27Z</time>
      </trkpt>
      <trkpt lat="48.75705" lon="7.94864">
        <ele>122.4</ele>
        <time>2020-06-28T09:17:28Z</time>
      </trkpt>
      <trkpt lat="48.75703" lon="7.94861">
        <ele>122.4</ele>
        <time>2020-06-28T09:17:29Z</time>
      </trkpt>
      <trkpt lat="48.757" lon="7.94855">
        <ele>122.4</ele>
        <time>2020-06-28T09:17:30Z</time>
      </trkpt>
      <trkpt lat="48.75696" lon="7.9485">
        <ele>122.4</ele>
        <time>2020-06-28T09:17:31Z</time>
      </trkpt>
      <trkpt lat="48.75694" lon="7.94845">
        <ele>122.4</ele>
        <time>2020-06-28T09:17:32Z</time>
      </trkpt>
      <trkpt lat="48.7569" lon="7.94842">
        <ele>122.4</ele>
        <time>2020-06-28T09:17:33Z</time>
      </trkpt>
      <trkpt lat="48.75686" lon="7.94839">
        <ele>122.4</ele>
        <time>2020-06-28T09:17:34Z</time>
      </trkpt>
      <trkpt lat="48.75682" lon="7.94836">
        <ele>122.4</ele>
        <time>2020-06-28T09:17:35Z</time>
      </trkpt>
      <trkpt lat="48.75679" lon="7.94831">
        <ele>122.4</ele>
        <time>2020-06-28T09:17:36Z</time>
      </trkpt>
      <trkpt lat="48.75676" lon="7.94825">
        <ele>122.4</ele>
        <time>2020-06-28T09:17:37Z</time>
      </trkpt>
      <trkpt lat="48.75673" lon="7.9482">
        <ele>122.5</ele>
        <time>2020-06-28T09:17:38Z</time>
      </trkpt>
      <trkpt lat="48.7567" lon="7.94814">
        <ele>122.5</ele>
        <time>2020-06-28T09:17:39Z</time>
      </trkpt>
      <trkpt lat="48.75667" lon="7.94808">
        <ele>122.5</ele>
        <time>2020-06-28T09:17:40Z</time>
      </trkpt>
      <trkpt lat="48.75664" lon="7.94802">
        <ele>122.5</ele>
        <time>2020-06-28T09:17:41Z</time>
      </trkpt>
      <trkpt lat="48.75661" lon="7.94797">
        <ele>122.5</ele>
        <time>2020-06-28T09:17:42Z</time>
      </trkpt>
      <trkpt lat="48.75658" lon="7.9479">
        <ele>122.6</ele>
        <time>2020-06-28T09:17:43Z</time>
      </trkpt>
      <trkpt lat="48.75655" lon="7.94784">
        <ele>122.6</ele>
        <time>2020-06-28T09:17:44Z</time>
      </trkpt>
      <trkpt lat="48.75652" lon="7.94778">
        <ele>122.7</ele>
        <time>2020-06-28T09:17:45Z</time>
      </trkpt>
      <trkpt lat="48.75648" lon="7.94774">
        <ele>122.7</ele>
        <time>2020-06-28T09:17:46Z</time>
      </trkpt>
      <trkpt lat="48.75646" lon="7.94768">
        <ele>122.8</ele>
        <time>2020-06-28T09:17:47Z</time>
      </trkpt>
      <trkpt lat="48.75643" lon="7.94762">
        <ele>122.8</ele>
        <time>2020-06-28T09:17:48Z</time>
      </trkpt>
      <trkpt lat="48.7564" lon="7.94758">
        <ele>122.8</ele>
        <time>2020-06-28T09:17:49Z</time>
      </trkpt>
      <trkpt lat="48.75637" lon="7.94753">
        <ele>122.8</ele>
        <time>2020-06-28T09:17:50Z</time>
      </trkpt>
      <trkpt lat="48.75634" lon="7.94748">
        <ele>122.8</ele>
        <time>2020-06-28T09:17:51Z</time>
      </trkpt>
      <trkpt lat="48.75631" lon="7.94742">
        <ele>122.8</ele>
        <time>2020-06-28T09:17:52Z</time>
      </trkpt>
      <trkpt lat="48.75628" lon="7.94737">
        <ele>122.8</ele>
        <time>2020-06-28T09:17:53Z</time>
      </trkpt>
      <trkpt lat="48.75624" lon="7.9473">
        <ele>122.7</ele>
        <time>2020-06-28T09:17:54Z</time>
      </trkpt>
      <trkpt lat="48.75621" lon="7.94724">
        <ele>122.6</ele>
        <time>2020-06-28T09:17:55Z</time>
      </trkpt>
      <trkpt lat="48.75618" lon="7.94716">
        <ele>122.5</ele>
        <time>2020-06-28T09:17:56Z</time>
      </trkpt>
      <trkpt lat="48.75614" lon="7.94709">
        <ele>122.4</ele>
        <time>2020-06-28T09:17:57Z</time>
      </trkpt>
      <trkpt lat="48.7561" lon="7.94702">
        <ele>122.4</ele>
        <time>2020-06-28T09:17:58Z</time>
      </trkpt>
      <trkpt lat="48.75607" lon="7.94696">
        <ele>122.3</ele>
        <time>2020-06-28T09:17:59Z</time>
      </trkpt>
      <trkpt lat="48.75604" lon="7.9469">
        <ele>122.2</ele>
        <time>2020-06-28T09:18:00Z</time>
      </trkpt>
      <trkpt lat="48.75601" lon="7.94685">
        <ele>122.2</ele>
        <time>2020-06-28T09:18:01Z</time>
      </trkpt>
      <trkpt lat="48.75598" lon="7.94678">
        <ele>122.1</ele>
        <time>2020-06-28T09:18:02Z</time>
      </trkpt>
      <trkpt lat="48.75594" lon="7.94672">
        <ele>122.1</ele>
        <time>2020-06-28T09:18:03Z</time>
      </trkpt>
      <trkpt lat="48.7559" lon="7.94664">
        <ele>122</ele>
        <time>2020-06-28T09:18:04Z</time>
      </trkpt>
      <trkpt lat="48.75585" lon="7.94656">
        <ele>122</ele>
        <time>2020-06-28T09:18:05Z</time>
      </trkpt>
      <trkpt lat="48.75581" lon="7.94649">
        <ele>121.9</ele>
        <time>2020-06-28T09:18:06Z</time>
      </trkpt>
      <trkpt lat="48.75577" lon="7.94643">
        <ele>121.9</ele>
        <time>2020-06-28T09:18:07Z</time>
      </trkpt>
      <trkpt lat="48.75573" lon="7.94637">
        <ele>121.9</ele>
        <time>2020-06-28T09:18:08Z</time>
      </trkpt>
      <trkpt lat="48.7557" lon="7.94631">
        <ele>121.9</ele>
        <time>2020-06-28T09:18:09Z</time>
      </trkpt>
      <trkpt lat="48.75566" lon="7.94624">
        <ele>121.9</ele>
        <time>2020-06-28T09:18:10Z</time>
      </trkpt>
      <trkpt lat="48.75563" lon="7.94617">
        <ele>121.9</ele>
        <time>2020-06-28T09:18:11Z</time>
      </trkpt>
      <trkpt lat="48.75559" lon="7.9461">
        <ele>122</ele>
        <time>2020-06-28T09:18:12Z</time>
      </trkpt>
      <trkpt lat="48.75555" lon="7.94605">
        <ele>122</ele>
        <time>2020-06-28T09:18:13Z</time>
      </trkpt>
      <trkpt lat="48.75552" lon="7.94598">
        <ele>122</ele>
        <time>2020-06-28T09:18:14Z</time>
      </trkpt>
      <trkpt lat="48.75548" lon="7.94592">
        <ele>122</ele>
        <time>2020-06-28T09:18:15Z</time>
      </trkpt>
      <trkpt lat="48.75544" lon="7.94586">
        <ele>122.1</ele>
        <time>2020-06-28T09:18:16Z</time>
      </trkpt>
      <trkpt lat="48.75541" lon="7.94581">
        <ele>122.2</ele>
        <time>2020-06-28T09:18:17Z</time>
      </trkpt>
      <trkpt lat="48.75538" lon="7.94574">
        <ele>122.3</ele>
        <time>2020-06-28T09:18:18Z</time>
      </trkpt>
      <trkpt lat="48.75535" lon="7.94568">
        <ele>122.4</ele>
        <time>2020-06-28T09:18:19Z</time>
      </trkpt>
      <trkpt lat="48.75533" lon="7.94561">
        <ele>122.5</ele>
        <time>2020-06-28T09:18:20Z</time>
      </trkpt>
      <trkpt lat="48.75529" lon="7.94555">
        <ele>122.5</ele>
        <time>2020-06-28T09:18:21Z</time>
      </trkpt>
      <trkpt lat="48.75526" lon="7.94549">
        <ele>122.6</ele>
        <time>2020-06-28T09:18:22Z</time>
      </trkpt>
      <trkpt lat="48.75524" lon="7.94544">
        <ele>122.7</ele>
        <time>2020-06-28T09:18:23Z</time>
      </trkpt>
      <trkpt lat="48.75521" lon="7.9454">
        <ele>122.7</ele>
        <time>2020-06-28T09:18:24Z</time>
      </trkpt>
      <trkpt lat="48.75519" lon="7.94536">
        <ele>122.8</ele>
        <time>2020-06-28T09:18:25Z</time>
      </trkpt>
      <trkpt lat="48.75517" lon="7.94531">
        <ele>122.7</ele>
        <time>2020-06-28T09:18:26Z</time>
      </trkpt>
      <trkpt lat="48.75514" lon="7.94525">
        <ele>122.8</ele>
        <time>2020-06-28T09:18:27Z</time>
      </trkpt>
      <trkpt lat="48.75512" lon="7.94521">
        <ele>122.8</ele>
        <time>2020-06-28T09:18:28Z</time>
      </trkpt>
      <trkpt lat="48.7551" lon="7.94515">
        <ele>122.8</ele>
        <time>2020-06-28T09:18:29Z</time>
      </trkpt>
      <trkpt lat="48.75508" lon="7.9451">
        <ele>122.8</ele>
        <time>2020-06-28T09:18:30Z</time>
      </trkpt>
      <trkpt lat="48.75507" lon="7.94505">
        <ele>122.8</ele>
        <time>2020-06-28T09:18:31Z</time>
      </trkpt>
      <trkpt lat="48.75503" lon="7.94501">
        <ele>122.8</ele>
        <time>2020-06-28T09:18:32Z</time>
      </trkpt>
      <trkpt lat="48.75498" lon="7.94495">
        <ele>122.8</ele>
        <time>2020-06-28T09:18:33Z</time>
      </trkpt>
      <trkpt lat="48.75495" lon="7.94488">
        <ele>122.8</ele>
        <time>2020-06-28T09:18:34Z</time>
      </trkpt>
      <trkpt lat="48.75491" lon="7.94481">
        <ele>122.7</ele>
        <time>2020-06-28T09:18:35Z</time>
      </trkpt>
      <trkpt lat="48.75489" lon="7.94475">
        <ele>122.7</ele>
        <time>2020-06-28T09:18:36Z</time>
      </trkpt>
      <trkpt lat="48.75485" lon="7.94468">
        <ele>122.7</ele>
        <time>2020-06-28T09:18:37Z</time>
      </trkpt>
      <trkpt lat="48.75481" lon="7.94461">
        <ele>122.7</ele>
        <time>2020-06-28T09:18:38Z</time>
      </trkpt>
      <trkpt lat="48.75478" lon="7.94453">
        <ele>122.7</ele>
        <time>2020-06-28T09:18:39Z</time>
      </trkpt>
      <trkpt lat="48.75474" lon="7.94446">
        <ele>122.7</ele>
        <time>2020-06-28T09:18:40Z</time>
      </trkpt>
      <trkpt lat="48.75471" lon="7.94439">
        <ele>122.7</ele>
        <time>2020-06-28T09:18:41Z</time>
      </trkpt>
      <trkpt lat="48.75468" lon="7.94433">
        <ele>122.7</ele>
        <time>2020-06-28T09:18:42Z</time>
      </trkpt>
      <trkpt lat="48.75465" lon="7.94427">
        <ele>122.7</ele>
        <time>2020-06-28T09:18:43Z</time>
      </trkpt>
      <trkpt lat="48.75462" lon="7.94422">
        <ele>122.7</ele>
        <time>2020-06-28T09:18:44Z</time>
      </trkpt>
      <trkpt lat="48.75459" lon="7.94416">
        <ele>122.8</ele>
        <time>2020-06-28T09:18:45Z</time>
      </trkpt>
      <trkpt lat="48.75455" lon="7.94409">
        <ele>122.8</ele>
        <time>2020-06-28T09:18:46Z</time>
      </trkpt>
      <trkpt lat="48.75451" lon="7.94402">
        <ele>122.8</ele>
        <time>2020-06-28T09:18:47Z</time>
      </trkpt>
      <trkpt lat="48.75448" lon="7.94397">
        <ele>122.8</ele>
        <time>2020-06-28T09:18:48Z</time>
      </trkpt>
      <trkpt lat="48.75444" lon="7.94389">
        <ele>122.8</ele>
        <time>2020-06-28T09:18:49Z</time>
      </trkpt>
      <trkpt lat="48.7544" lon="7.94383">
        <ele>122.8</ele>
        <time>2020-06-28T09:18:50Z</time>
      </trkpt>
      <trkpt lat="48.75437" lon="7.94376">
        <ele>122.8</ele>
        <time>2020-06-28T09:18:51Z</time>
      </trkpt>
      <trkpt lat="48.75434" lon="7.94371">
        <ele>122.8</ele>
        <time>2020-06-28T09:18:52Z</time>
      </trkpt>
      <trkpt lat="48.75431" lon="7.94365">
        <ele>122.8</ele>
        <time>2020-06-28T09:18:53Z</time>
      </trkpt>
      <trkpt lat="48.75428" lon="7.94359">
        <ele>122.8</ele>
        <time>2020-06-28T09:18:54Z</time>
      </trkpt>
      <trkpt lat="48.75425" lon="7.94353">
        <ele>122.8</ele>
        <time>2020-06-28T09:18:55Z</time>
      </trkpt>
      <trkpt lat="48.75422" lon="7.94348">
        <ele>122.8</ele>
        <time>2020-06-28T09:18:56Z</time>
      </trkpt>
      <trkpt lat="48.75419" lon="7.94342">
        <ele>122.8</ele>
        <time>2020-06-28T09:18:57Z</time>
      </trkpt>
      <trkpt lat="48.75416" lon="7.94336">
        <ele>122.8</ele>
        <time>2020-06-28T09:18:58Z</time>
      </trkpt>
      <trkpt lat="48.75412" lon="7.9433">
        <ele>122.8</ele>
        <time>2020-06-28T09:18:59Z</time>
      </trkpt>
      <trkpt lat="48.75409" lon="7.94325">
        <ele>122.8</ele>
        <time>2020-06-28T09:19:00Z</time>
      </trkpt>
      <trkpt lat="48.75406" lon="7.94319">
        <ele>122.8</ele>
        <time>2020-06-28T09:19:01Z</time>
      </trkpt>
      <trkpt lat="48.75402" lon="7.94311">
        <ele>122.8</ele>
        <time>2020-06-28T09:19:02Z</time>
      </trkpt>
      <trkpt lat="48.75399" lon="7.94305">
        <ele>122.7</ele>
        <time>2020-06-28T09:19:03Z</time>
      </trkpt>
      <trkpt lat="48.75396" lon="7.94298">
        <ele>122.7</ele>
        <time>2020-06-28T09:19:04Z</time>
      </trkpt>
      <trkpt lat="48.75393" lon="7.94292">
        <ele>122.7</ele>
        <time>2020-06-28T09:19:05Z</time>
      </trkpt>
      <trkpt lat="48.7539" lon="7.94287">
        <ele>122.7</ele>
        <time>2020-06-28T09:19:06Z</time>
      </trkpt>
      <trkpt lat="48.75388" lon="7.94283">
        <ele>122.7</ele>
        <time>2020-06-28T09:19:07Z</time>
      </trkpt>
      <trkpt lat="48.75384" lon="7.94278">
        <ele>122.7</ele>
        <time>2020-06-28T09:19:08Z</time>
      </trkpt>
      <trkpt lat="48.7538" lon="7.94272">
        <ele>122.7</ele>
        <time>2020-06-28T09:19:09Z</time>
      </trkpt>
      <trkpt lat="48.75376" lon="7.94264">
        <ele>122.7</ele>
        <time>2020-06-28T09:19:10Z</time>
      </trkpt>
      <trkpt lat="48.75373" lon="7.94256">
        <ele>122.7</ele>
        <time>2020-06-28T09:19:11Z</time>
      </trkpt>
      <trkpt lat="48.7537" lon="7.94249">
        <ele>122.7</ele>
        <time>2020-06-28T09:19:12Z</time>
      </trkpt>
      <trkpt lat="48.75366" lon="7.94242">
        <ele>122.7</ele>
        <time>2020-06-28T09:19:13Z</time>
      </trkpt>
      <trkpt lat="48.75362" lon="7.94235">
        <ele>122.7</ele>
        <time>2020-06-28T09:19:14Z</time>
      </trkpt>
      <trkpt lat="48.75358" lon="7.94228">
        <ele>122.7</ele>
        <time>2020-06-28T09:19:15Z</time>
      </trkpt>
      <trkpt lat="48.75354" lon="7.94222">
        <ele>122.7</ele>
        <time>2020-06-28T09:19:16Z</time>
      </trkpt>
      <trkpt lat="48.7535" lon="7.94215">
        <ele>122.7</ele>
        <time>2020-06-28T09:19:17Z</time>
      </trkpt>
      <trkpt lat="48.75346" lon="7.94209">
        <ele>122.7</ele>
        <time>2020-06-28T09:19:18Z</time>
      </trkpt>
      <trkpt lat="48.75343" lon="7.94201">
        <ele>122.7</ele>
        <time>2020-06-28T09:19:19Z</time>
      </trkpt>
      <trkpt lat="48.7534" lon="7.94195">
        <ele>122.7</ele>
        <time>2020-06-28T09:19:20Z</time>
      </trkpt>
      <trkpt lat="48.75337" lon="7.94188">
        <ele>122.7</ele>
        <time>2020-06-28T09:19:21Z</time>
      </trkpt>
      <trkpt lat="48.75333" lon="7.94182">
        <ele>122.7</ele>
        <time>2020-06-28T09:19:22Z</time>
      </trkpt>
      <trkpt lat="48.75329" lon="7.94176">
        <ele>122.7</ele>
        <time>2020-06-28T09:19:23Z</time>
      </trkpt>
      <trkpt lat="48.75325" lon="7.94169">
        <ele>122.7</ele>
        <time>2020-06-28T09:19:24Z</time>
      </trkpt>
      <trkpt lat="48.75322" lon="7.94163">
        <ele>122.7</ele>
        <time>2020-06-28T09:19:25Z</time>
      </trkpt>
      <trkpt lat="48.75318" lon="7.94155">
        <ele>122.7</ele>
        <time>2020-06-28T09:19:26Z</time>
      </trkpt>
      <trkpt lat="48.75315" lon="7.94147">
        <ele>122.7</ele>
        <time>2020-06-28T09:19:27Z</time>
      </trkpt>
      <trkpt lat="48.75311" lon="7.9414">
        <ele>122.7</ele>
        <time>2020-06-28T09:19:28Z</time>
      </trkpt>
      <trkpt lat="48.75308" lon="7.94134">
        <ele>122.7</ele>
        <time>2020-06-28T09:19:29Z</time>
      </trkpt>
      <trkpt lat="48.75304" lon="7.94128">
        <ele>122.7</ele>
        <time>2020-06-28T09:19:30Z</time>
      </trkpt>
      <trkpt lat="48.753" lon="7.94122">
        <ele>122.7</ele>
        <time>2020-06-28T09:19:31Z</time>
      </trkpt>
      <trkpt lat="48.75297" lon="7.94116">
        <ele>122.7</ele>
        <time>2020-06-28T09:19:32Z</time>
      </trkpt>
      <trkpt lat="48.75294" lon="7.9411">
        <ele>122.8</ele>
        <time>2020-06-28T09:19:33Z</time>
      </trkpt>
      <trkpt lat="48.75291" lon="7.94104">
        <ele>122.8</ele>
        <time>2020-06-28T09:19:34Z</time>
      </trkpt>
      <trkpt lat="48.75287" lon="7.94099">
        <ele>122.8</ele>
        <time>2020-06-28T09:19:35Z</time>
      </trkpt>
      <trkpt lat="48.75283" lon="7.94091">
        <ele>122.8</ele>
        <time>2020-06-28T09:19:36Z</time>
      </trkpt>
      <trkpt lat="48.75281" lon="7.94087">
        <ele>122.8</ele>
        <time>2020-06-28T09:19:37Z</time>
      </trkpt>
      <trkpt lat="48.75278" lon="7.9408">
        <ele>122.9</ele>
        <time>2020-06-28T09:19:38Z</time>
      </trkpt>
      <trkpt lat="48.75275" lon="7.94075">
        <ele>122.9</ele>
        <time>2020-06-28T09:19:39Z</time>
      </trkpt>
      <trkpt lat="48.75273" lon="7.9407">
        <ele>122.9</ele>
        <time>2020-06-28T09:19:40Z</time>
      </trkpt>
      <trkpt lat="48.7527" lon="7.94065">
        <ele>122.9</ele>
        <time>2020-06-28T09:19:41Z</time>
      </trkpt>
      <trkpt lat="48.75267" lon="7.9406">
        <ele>122.9</ele>
        <time>2020-06-28T09:19:42Z</time>
      </trkpt>
      <trkpt lat="48.75263" lon="7.94056">
        <ele>122.9</ele>
        <time>2020-06-28T09:19:43Z</time>
      </trkpt>
      <trkpt lat="48.75259" lon="7.94054">
        <ele>122.9</ele>
        <time>2020-06-28T09:19:44Z</time>
      </trkpt>
      <trkpt lat="48.75254" lon="7.94051">
        <ele>123</ele>
        <time>2020-06-28T09:19:45Z</time>
      </trkpt>
      <trkpt lat="48.7525" lon="7.9405">
        <ele>123</ele>
        <time>2020-06-28T09:19:46Z</time>
      </trkpt>
      <trkpt lat="48.75245" lon="7.94048">
        <ele>123.1</ele>
        <time>2020-06-28T09:19:47Z</time>
      </trkpt>
      <trkpt lat="48.75242" lon="7.94043">
        <ele>123.1</ele>
        <time>2020-06-28T09:19:48Z</time>
      </trkpt>
      <trkpt lat="48.75239" lon="7.94038">
        <ele>123.1</ele>
        <time>2020-06-28T09:19:49Z</time>
      </trkpt>
      <trkpt lat="48.75237" lon="7.94033">
        <ele>123.1</ele>
        <time>2020-06-28T09:19:50Z</time>
      </trkpt>
      <trkpt lat="48.75234" lon="7.94027">
        <ele>123.2</ele>
        <time>2020-06-28T09:19:51Z</time>
      </trkpt>
      <trkpt lat="48.75232" lon="7.94021">
        <ele>123.2</ele>
        <time>2020-06-28T09:19:52Z</time>
      </trkpt>
      <trkpt lat="48.75231" lon="7.94016">
        <ele>123.1</ele>
        <time>2020-06-28T09:19:53Z</time>
      </trkpt>
      <trkpt lat="48.75231" lon="7.94009">
        <ele>123.1</ele>
        <time>2020-06-28T09:19:54Z</time>
      </trkpt>
      <trkpt lat="48.75231" lon="7.94001">
        <ele>123.1</ele>
        <time>2020-06-28T09:19:55Z</time>
      </trkpt>
      <trkpt lat="48.7523" lon="7.93995">
        <ele>123.1</ele>
        <time>2020-06-28T09:19:56Z</time>
      </trkpt>
      <trkpt lat="48.75228" lon="7.9399">
        <ele>123.1</ele>
        <time>2020-06-28T09:19:57Z</time>
      </trkpt>
      <trkpt lat="48.75224" lon="7.93986">
        <ele>123</ele>
        <time>2020-06-28T09:19:58Z</time>
      </trkpt>
      <trkpt lat="48.75219" lon="7.93981">
        <ele>123</ele>
        <time>2020-06-28T09:19:59Z</time>
      </trkpt>
      <trkpt lat="48.75215" lon="7.93975">
        <ele>122.9</ele>
        <time>2020-06-28T09:20:00Z</time>
      </trkpt>
      <trkpt lat="48.75211" lon="7.93969">
        <ele>122.9</ele>
        <time>2020-06-28T09:20:01Z</time>
      </trkpt>
      <trkpt lat="48.75207" lon="7.93963">
        <ele>122.8</ele>
        <time>2020-06-28T09:20:02Z</time>
      </trkpt>
      <trkpt lat="48.75202" lon="7.93957">
        <ele>122.8</ele>
        <time>2020-06-28T09:20:03Z</time>
      </trkpt>
      <trkpt lat="48.75199" lon="7.9395">
        <ele>122.7</ele>
        <time>2020-06-28T09:20:04Z</time>
      </trkpt>
      <trkpt lat="48.75195" lon="7.93943">
        <ele>122.7</ele>
        <time>2020-06-28T09:20:05Z</time>
      </trkpt>
      <trkpt lat="48.75191" lon="7.93935">
        <ele>122.7</ele>
        <time>2020-06-28T09:20:06Z</time>
      </trkpt>
      <trkpt lat="48.75186" lon="7.93928">
        <ele>122.6</ele>
        <time>2020-06-28T09:20:07Z</time>
      </trkpt>
      <trkpt lat="48.75183" lon="7.93921">
        <ele>122.6</ele>
        <time>2020-06-28T09:20:08Z</time>
      </trkpt>
      <trkpt lat="48.7518" lon="7.93914">
        <ele>122.6</ele>
        <time>2020-06-28T09:20:09Z</time>
      </trkpt>
      <trkpt lat="48.75177" lon="7.93907">
        <ele>122.6</ele>
        <time>2020-06-28T09:20:10Z</time>
      </trkpt>
      <trkpt lat="48.75173" lon="7.93901">
        <ele>122.6</ele>
        <time>2020-06-28T09:20:11Z</time>
      </trkpt>
      <trkpt lat="48.7517" lon="7.93895">
        <ele>122.6</ele>
        <time>2020-06-28T09:20:12Z</time>
      </trkpt>
      <trkpt lat="48.75166" lon="7.93888">
        <ele>122.6</ele>
        <time>2020-06-28T09:20:13Z</time>
      </trkpt>
      <trkpt lat="48.75163" lon="7.93881">
        <ele>122.6</ele>
        <time>2020-06-28T09:20:14Z</time>
      </trkpt>
      <trkpt lat="48.7516" lon="7.93875">
        <ele>122.6</ele>
        <time>2020-06-28T09:20:15Z</time>
      </trkpt>
      <trkpt lat="48.75156" lon="7.93869">
        <ele>122.6</ele>
        <time>2020-06-28T09:20:16Z</time>
      </trkpt>
      <trkpt lat="48.75152" lon="7.93862">
        <ele>122.6</ele>
        <time>2020-06-28T09:20:17Z</time>
      </trkpt>
      <trkpt lat="48.75149" lon="7.93854">
        <ele>122.6</ele>
        <time>2020-06-28T09:20:18Z</time>
      </trkpt>
      <trkpt lat="48.75145" lon="7.93848">
        <ele>122.6</ele>
        <time>2020-06-28T09:20:19Z</time>
      </trkpt>
      <trkpt lat="48.75142" lon="7.93842">
        <ele>122.6</ele>
        <time>2020-06-28T09:20:20Z</time>
      </trkpt>
      <trkpt lat="48.75138" lon="7.93837">
        <ele>122.6</ele>
        <time>2020-06-28T09:20:21Z</time>
      </trkpt>
      <trkpt lat="48.75135" lon="7.93829">
        <ele>122.6</ele>
        <time>2020-06-28T09:20:22Z</time>
      </trkpt>
      <trkpt lat="48.75131" lon="7.93822">
        <ele>122.6</ele>
        <time>2020-06-28T09:20:23Z</time>
      </trkpt>
      <trkpt lat="48.75127" lon="7.93815">
        <ele>122.6</ele>
        <time>2020-06-28T09:20:24Z</time>
      </trkpt>
      <trkpt lat="48.75123" lon="7.93808">
        <ele>122.5</ele>
        <time>2020-06-28T09:20:25Z</time>
      </trkpt>
      <trkpt lat="48.75119" lon="7.93803">
        <ele>122.5</ele>
        <time>2020-06-28T09:20:26Z</time>
      </trkpt>
      <trkpt lat="48.75114" lon="7.93797">
        <ele>122.5</ele>
        <time>2020-06-28T09:20:27Z</time>
      </trkpt>
      <trkpt lat="48.75111" lon="7.93795">
        <ele>122.6</ele>
        <time>2020-06-28T09:20:28Z</time>
      </trkpt>
      <trkpt lat="48.75107" lon="7.9379">
        <ele>122.6</ele>
        <time>2020-06-28T09:20:29Z</time>
      </trkpt>
      <trkpt lat="48.75104" lon="7.93782">
        <ele>122.5</ele>
        <time>2020-06-28T09:20:30Z</time>
      </trkpt>
      <trkpt lat="48.75101" lon="7.93773">
        <ele>122.4</ele>
        <time>2020-06-28T09:20:31Z</time>
      </trkpt>
      <trkpt lat="48.751" lon="7.93764">
        <ele>122.2</ele>
        <time>2020-06-28T09:20:32Z</time>
      </trkpt>
      <trkpt lat="48.75097" lon="7.93756">
        <ele>122.1</ele>
        <time>2020-06-28T09:20:33Z</time>
      </trkpt>
      <trkpt lat="48.75093" lon="7.93748">
        <ele>122.1</ele>
        <time>2020-06-28T09:20:34Z</time>
      </trkpt>
      <trkpt lat="48.75089" lon="7.9374">
        <ele>122</ele>
        <time>2020-06-28T09:20:35Z</time>
      </trkpt>
      <trkpt lat="48.75086" lon="7.93733">
        <ele>122</ele>
        <time>2020-06-28T09:20:36Z</time>
      </trkpt>
      <trkpt lat="48.75082" lon="7.93728">
        <ele>121.9</ele>
        <time>2020-06-28T09:20:37Z</time>
      </trkpt>
      <trkpt lat="48.75078" lon="7.93722">
        <ele>121.9</ele>
        <time>2020-06-28T09:20:38Z</time>
      </trkpt>
      <trkpt lat="48.75074" lon="7.93715">
        <ele>121.9</ele>
        <time>2020-06-28T09:20:39Z</time>
      </trkpt>
      <trkpt lat="48.7507" lon="7.93708">
        <ele>121.9</ele>
        <time>2020-06-28T09:20:40Z</time>
      </trkpt>
      <trkpt lat="48.75066" lon="7.937">
        <ele>122</ele>
        <time>2020-06-28T09:20:41Z</time>
      </trkpt>
      <trkpt lat="48.75062" lon="7.93694">
        <ele>122</ele>
        <time>2020-06-28T09:20:42Z</time>
      </trkpt>
      <trkpt lat="48.75059" lon="7.93686">
        <ele>122</ele>
        <time>2020-06-28T09:20:43Z</time>
      </trkpt>
      <trkpt lat="48.75056" lon="7.93681">
        <ele>122.1</ele>
        <time>2020-06-28T09:20:44Z</time>
      </trkpt>
      <trkpt lat="48.75054" lon="7.93675">
        <ele>122.1</ele>
        <time>2020-06-28T09:20:45Z</time>
      </trkpt>
      <trkpt lat="48.7505" lon="7.93669">
        <ele>122.1</ele>
        <time>2020-06-28T09:20:46Z</time>
      </trkpt>
      <trkpt lat="48.75047" lon="7.93663">
        <ele>122.2</ele>
        <time>2020-06-28T09:20:47Z</time>
      </trkpt>
      <trkpt lat="48.75043" lon="7.93657">
        <ele>122.2</ele>
        <time>2020-06-28T09:20:48Z</time>
      </trkpt>
      <trkpt lat="48.75041" lon="7.93649">
        <ele>122.2</ele>
        <time>2020-06-28T09:20:49Z</time>
      </trkpt>
      <trkpt lat="48.75037" lon="7.93641">
        <ele>122.2</ele>
        <time>2020-06-28T09:20:50Z</time>
      </trkpt>
      <trkpt lat="48.75034" lon="7.93634">
        <ele>122.2</ele>
        <time>2020-06-28T09:20:51Z</time>
      </trkpt>
      <trkpt lat="48.7503" lon="7.93627">
        <ele>122.2</ele>
        <time>2020-06-28T09:20:52Z</time>
      </trkpt>
      <trkpt lat="48.75026" lon="7.9362">
        <ele>122.2</ele>
        <time>2020-06-28T09:20:53Z</time>
      </trkpt>
      <trkpt lat="48.75021" lon="7.93612">
        <ele>122.2</ele>
        <time>2020-06-28T09:20:54Z</time>
      </trkpt>
      <trkpt lat="48.75018" lon="7.93604">
        <ele>122.2</ele>
        <time>2020-06-28T09:20:55Z</time>
      </trkpt>
      <trkpt lat="48.75014" lon="7.93597">
        <ele>122.2</ele>
        <time>2020-06-28T09:20:56Z</time>
      </trkpt>
      <trkpt lat="48.75011" lon="7.93591">
        <ele>122.2</ele>
        <time>2020-06-28T09:20:57Z</time>
      </trkpt>
      <trkpt lat="48.75007" lon="7.93584">
        <ele>122.2</ele>
        <time>2020-06-28T09:20:58Z</time>
      </trkpt>
      <trkpt lat="48.75003" lon="7.93577">
        <ele>122.2</ele>
        <time>2020-06-28T09:20:59Z</time>
      </trkpt>
      <trkpt lat="48.74999" lon="7.9357">
        <ele>122.2</ele>
        <time>2020-06-28T09:21:00Z</time>
      </trkpt>
      <trkpt lat="48.74995" lon="7.93561">
        <ele>122.2</ele>
        <time>2020-06-28T09:21:01Z</time>
      </trkpt>
      <trkpt lat="48.74991" lon="7.93556">
        <ele>122.2</ele>
        <time>2020-06-28T09:21:02Z</time>
      </trkpt>
      <trkpt lat="48.74987" lon="7.93547">
        <ele>122.1</ele>
        <time>2020-06-28T09:21:03Z</time>
      </trkpt>
      <trkpt lat="48.74983" lon="7.93541">
        <ele>122.1</ele>
        <time>2020-06-28T09:21:04Z</time>
      </trkpt>
      <trkpt lat="48.74979" lon="7.93534">
        <ele>122.1</ele>
        <time>2020-06-28T09:21:05Z</time>
      </trkpt>
      <trkpt lat="48.74974" lon="7.93526">
        <ele>122.1</ele>
        <time>2020-06-28T09:21:06Z</time>
      </trkpt>
      <trkpt lat="48.74971" lon="7.9352">
        <ele>122</ele>
        <time>2020-06-28T09:21:07Z</time>
      </trkpt>
      <trkpt lat="48.74966" lon="7.93513">
        <ele>122</ele>
        <time>2020-06-28T09:21:08Z</time>
      </trkpt>
      <trkpt lat="48.74963" lon="7.93505">
        <ele>122</ele>
        <time>2020-06-28T09:21:09Z</time>
      </trkpt>
      <trkpt lat="48.74958" lon="7.93498">
        <ele>122</ele>
        <time>2020-06-28T09:21:10Z</time>
      </trkpt>
      <trkpt lat="48.74954" lon="7.93492">
        <ele>122</ele>
        <time>2020-06-28T09:21:11Z</time>
      </trkpt>
      <trkpt lat="48.74951" lon="7.93484">
        <ele>122</ele>
        <time>2020-06-28T09:21:12Z</time>
      </trkpt>
      <trkpt lat="48.74947" lon="7.93479">
        <ele>122</ele>
        <time>2020-06-28T09:21:13Z</time>
      </trkpt>
      <trkpt lat="48.74944" lon="7.93473">
        <ele>122</ele>
        <time>2020-06-28T09:21:14Z</time>
      </trkpt>
      <trkpt lat="48.7494" lon="7.93465">
        <ele>122</ele>
        <time>2020-06-28T09:21:15Z</time>
      </trkpt>
      <trkpt lat="48.74936" lon="7.93459">
        <ele>122</ele>
        <time>2020-06-28T09:21:16Z</time>
      </trkpt>
      <trkpt lat="48.74933" lon="7.93452">
        <ele>122</ele>
        <time>2020-06-28T09:21:17Z</time>
      </trkpt>
      <trkpt lat="48.7493" lon="7.93446">
        <ele>122.1</ele>
        <time>2020-06-28T09:21:18Z</time>
      </trkpt>
      <trkpt lat="48.74927" lon="7.93439">
        <ele>122.1</ele>
        <time>2020-06-28T09:21:19Z</time>
      </trkpt>
      <trkpt lat="48.74923" lon="7.93431">
        <ele>122.1</ele>
        <time>2020-06-28T09:21:20Z</time>
      </trkpt>
      <trkpt lat="48.74919" lon="7.93424">
        <ele>122.1</ele>
        <time>2020-06-28T09:21:21Z</time>
      </trkpt>
      <trkpt lat="48.74916" lon="7.93419">
        <ele>122.1</ele>
        <time>2020-06-28T09:21:22Z</time>
      </trkpt>
      <trkpt lat="48.74912" lon="7.93412">
        <ele>122.1</ele>
        <time>2020-06-28T09:21:23Z</time>
      </trkpt>
      <trkpt lat="48.74909" lon="7.93404">
        <ele>122.1</ele>
        <time>2020-06-28T09:21:24Z</time>
      </trkpt>
      <trkpt lat="48.74906" lon="7.93398">
        <ele>122.1</ele>
        <time>2020-06-28T09:21:25Z</time>
      </trkpt>
      <trkpt lat="48.74903" lon="7.93392">
        <ele>122.1</ele>
        <time>2020-06-28T09:21:26Z</time>
      </trkpt>
      <trkpt lat="48.74898" lon="7.93385">
        <ele>122.1</ele>
        <time>2020-06-28T09:21:27Z</time>
      </trkpt>
      <trkpt lat="48.74895" lon="7.93381">
        <ele>122.1</ele>
        <time>2020-06-28T09:21:28Z</time>
      </trkpt>
      <trkpt lat="48.74892" lon="7.93373">
        <ele>122.1</ele>
        <time>2020-06-28T09:21:29Z</time>
      </trkpt>
      <trkpt lat="48.74889" lon="7.93367">
        <ele>122.1</ele>
        <time>2020-06-28T09:21:30Z</time>
      </trkpt>
      <trkpt lat="48.74886" lon="7.93361">
        <ele>122.1</ele>
        <time>2020-06-28T09:21:31Z</time>
      </trkpt>
      <trkpt lat="48.74883" lon="7.93355">
        <ele>122.1</ele>
        <time>2020-06-28T09:21:32Z</time>
      </trkpt>
      <trkpt lat="48.74879" lon="7.93347">
        <ele>122.1</ele>
        <time>2020-06-28T09:21:33Z</time>
      </trkpt>
      <trkpt lat="48.74876" lon="7.93341">
        <ele>122.1</ele>
        <time>2020-06-28T09:21:34Z</time>
      </trkpt>
      <trkpt lat="48.74872" lon="7.93335">
        <ele>122.1</ele>
        <time>2020-06-28T09:21:35Z</time>
      </trkpt>
      <trkpt lat="48.7487" lon="7.93331">
        <ele>122.1</ele>
        <time>2020-06-28T09:21:36Z</time>
      </trkpt>
      <trkpt lat="48.74867" lon="7.93326">
        <ele>122.1</ele>
        <time>2020-06-28T09:21:37Z</time>
      </trkpt>
      <trkpt lat="48.74865" lon="7.9332">
        <ele>122.1</ele>
        <time>2020-06-28T09:21:38Z</time>
      </trkpt>
      <trkpt lat="48.74862" lon="7.93315">
        <ele>122.1</ele>
        <time>2020-06-28T09:21:39Z</time>
      </trkpt>
      <trkpt lat="48.74859" lon="7.93308">
        <ele>122.1</ele>
        <time>2020-06-28T09:21:40Z</time>
      </trkpt>
      <trkpt lat="48.74855" lon="7.93302">
        <ele>122.1</ele>
        <time>2020-06-28T09:21:41Z</time>
      </trkpt>
      <trkpt lat="48.74852" lon="7.93297">
        <ele>122.1</ele>
        <time>2020-06-28T09:21:42Z</time>
      </trkpt>
      <trkpt lat="48.74849" lon="7.93291">
        <ele>122.1</ele>
        <time>2020-06-28T09:21:43Z</time>
      </trkpt>
      <trkpt lat="48.74846" lon="7.93286">
        <ele>122.1</ele>
        <time>2020-06-28T09:21:44Z</time>
      </trkpt>
      <trkpt lat="48.74843" lon="7.93278">
        <ele>122.1</ele>
        <time>2020-06-28T09:21:45Z</time>
      </trkpt>
      <trkpt lat="48.7484" lon="7.93271">
        <ele>122.1</ele>
        <time>2020-06-28T09:21:46Z</time>
      </trkpt>
      <trkpt lat="48.74837" lon="7.93265">
        <ele>122.1</ele>
        <time>2020-06-28T09:21:47Z</time>
      </trkpt>
      <trkpt lat="48.74834" lon="7.93258">
        <ele>122</ele>
        <time>2020-06-28T09:21:48Z</time>
      </trkpt>
      <trkpt lat="48.74831" lon="7.93252">
        <ele>122</ele>
        <time>2020-06-28T09:21:49Z</time>
      </trkpt>
      <trkpt lat="48.74828" lon="7.93248">
        <ele>122</ele>
        <time>2020-06-28T09:21:50Z</time>
      </trkpt>
      <trkpt lat="48.74825" lon="7.93243">
        <ele>122</ele>
        <time>2020-06-28T09:21:51Z</time>
      </trkpt>
      <trkpt lat="48.74822" lon="7.93239">
        <ele>122</ele>
        <time>2020-06-28T09:21:52Z</time>
      </trkpt>
      <trkpt lat="48.74817" lon="7.93238">
        <ele>122</ele>
        <time>2020-06-28T09:21:53Z</time>
      </trkpt>
      <trkpt lat="48.74814" lon="7.93239">
        <ele>122</ele>
        <time>2020-06-28T09:21:54Z</time>
      </trkpt>
      <trkpt lat="48.74812" lon="7.93242">
        <ele>122</ele>
        <time>2020-06-28T09:21:55Z</time>
      </trkpt>
      <trkpt lat="48.74809" lon="7.93245">
        <ele>121.9</ele>
        <time>2020-06-28T09:21:56Z</time>
      </trkpt>
      <trkpt lat="48.74806" lon="7.93248">
        <ele>121.9</ele>
        <time>2020-06-28T09:21:57Z</time>
      </trkpt>
      <trkpt lat="48.74803" lon="7.9325">
        <ele>121.9</ele>
        <time>2020-06-28T09:21:58Z</time>
      </trkpt>
      <trkpt lat="48.748" lon="7.93252">
        <ele>121.9</ele>
        <time>2020-06-28T09:21:59Z</time>
      </trkpt>
      <trkpt lat="48.74796" lon="7.93255">
        <ele>121.9</ele>
        <time>2020-06-28T09:22:00Z</time>
      </trkpt>
      <trkpt lat="48.74793" lon="7.93256">
        <ele>121.9</ele>
        <time>2020-06-28T09:22:01Z</time>
      </trkpt>
      <trkpt lat="48.7479" lon="7.93258">
        <ele>121.9</ele>
        <time>2020-06-28T09:22:02Z</time>
      </trkpt>
      <trkpt lat="48.74788" lon="7.93259">
        <ele>121.9</ele>
        <time>2020-06-28T09:22:03Z</time>
      </trkpt>
      <trkpt lat="48.74785" lon="7.93259">
        <ele>121.9</ele>
        <time>2020-06-28T09:22:04Z</time>
      </trkpt>
      <trkpt lat="48.74784" lon="7.93259">
        <ele>121.9</ele>
        <time>2020-06-28T09:22:05Z</time>
      </trkpt>
      <trkpt lat="48.74781" lon="7.93259">
        <ele>121.9</ele>
        <time>2020-06-28T09:22:06Z</time>
      </trkpt>
      <trkpt lat="48.74777" lon="7.9326">
        <ele>121.9</ele>
        <time>2020-06-28T09:22:07Z</time>
      </trkpt>
      <trkpt lat="48.74773" lon="7.9326">
        <ele>121.9</ele>
        <time>2020-06-28T09:22:08Z</time>
      </trkpt>
      <trkpt lat="48.7477" lon="7.93257">
        <ele>121.9</ele>
        <time>2020-06-28T09:22:09Z</time>
      </trkpt>
      <trkpt lat="48.74769" lon="7.93257">
        <ele>121.9</ele>
        <time>2020-06-28T09:22:10Z</time>
      </trkpt>
      <trkpt lat="48.74766" lon="7.93252">
        <ele>121.9</ele>
        <time>2020-06-28T09:22:11Z</time>
      </trkpt>
      <trkpt lat="48.74765" lon="7.9325">
        <ele>121.9</ele>
        <time>2020-06-28T09:22:12Z</time>
      </trkpt>
      <trkpt lat="48.74763" lon="7.93244">
        <ele>121.9</ele>
        <time>2020-06-28T09:22:13Z</time>
      </trkpt>
      <trkpt lat="48.74763" lon="7.93239">
        <ele>121.9</ele>
        <time>2020-06-28T09:22:14Z</time>
      </trkpt>
      <trkpt lat="48.74764" lon="7.93235">
        <ele>121.9</ele>
        <time>2020-06-28T09:22:15Z</time>
      </trkpt>
      <trkpt lat="48.74766" lon="7.93232">
        <ele>121.9</ele>
        <time>2020-06-28T09:22:16Z</time>
      </trkpt>
      <trkpt lat="48.74767" lon="7.9323">
        <ele>121.9</ele>
        <time>2020-06-28T09:22:17Z</time>
      </trkpt>
      <trkpt lat="48.74769" lon="7.93225">
        <ele>121.9</ele>
        <time>2020-06-28T09:22:18Z</time>
      </trkpt>
      <trkpt lat="48.7477" lon="7.93223">
        <ele>121.9</ele>
        <time>2020-06-28T09:22:19Z</time>
      </trkpt>
      <trkpt lat="48.74771" lon="7.93219">
        <ele>121.9</ele>
        <time>2020-06-28T09:22:20Z</time>
      </trkpt>
      <trkpt lat="48.74772" lon="7.93217">
        <ele>121.9</ele>
        <time>2020-06-28T09:22:21Z</time>
      </trkpt>
      <trkpt lat="48.74773" lon="7.93211">
        <ele>121.9</ele>
        <time>2020-06-28T09:22:22Z</time>
      </trkpt>
      <trkpt lat="48.74774" lon="7.93209">
        <ele>121.9</ele>
        <time>2020-06-28T09:22:23Z</time>
      </trkpt>
      <trkpt lat="48.74775" lon="7.93205">
        <ele>121.9</ele>
        <time>2020-06-28T09:22:24Z</time>
      </trkpt>
      <trkpt lat="48.74775" lon="7.93199">
        <ele>121.9</ele>
        <time>2020-06-28T09:22:25Z</time>
      </trkpt>
      <trkpt lat="48.74775" lon="7.93193">
        <ele>121.9</ele>
        <time>2020-06-28T09:22:26Z</time>
      </trkpt>
      <trkpt lat="48.74775" lon="7.93187">
        <ele>121.9</ele>
        <time>2020-06-28T09:22:27Z</time>
      </trkpt>
      <trkpt lat="48.74775" lon="7.93182">
        <ele>121.9</ele>
        <time>2020-06-28T09:22:28Z</time>
      </trkpt>
      <trkpt lat="48.74774" lon="7.93177">
        <ele>121.9</ele>
        <time>2020-06-28T09:22:29Z</time>
      </trkpt>
      <trkpt lat="48.74775" lon="7.93172">
        <ele>121.8</ele>
        <time>2020-06-28T09:22:30Z</time>
      </trkpt>
      <trkpt lat="48.74775" lon="7.93167">
        <ele>121.8</ele>
        <time>2020-06-28T09:22:31Z</time>
      </trkpt>
      <trkpt lat="48.74776" lon="7.93162">
        <ele>121.9</ele>
        <time>2020-06-28T09:22:32Z</time>
      </trkpt>
      <trkpt lat="48.74776" lon="7.93158">
        <ele>121.9</ele>
        <time>2020-06-28T09:22:33Z</time>
      </trkpt>
      <trkpt lat="48.74776" lon="7.93153">
        <ele>121.9</ele>
        <time>2020-06-28T09:22:34Z</time>
      </trkpt>
      <trkpt lat="48.74773" lon="7.93149">
        <ele>121.9</ele>
        <time>2020-06-28T09:22:35Z</time>
      </trkpt>
      <trkpt lat="48.74772" lon="7.93147">
        <ele>121.9</ele>
        <time>2020-06-28T09:22:36Z</time>
      </trkpt>
      <trkpt lat="48.74769" lon="7.93145">
        <ele>121.9</ele>
        <time>2020-06-28T09:22:37Z</time>
      </trkpt>
      <trkpt lat="48.74766" lon="7.93141">
        <ele>121.9</ele>
        <time>2020-06-28T09:22:38Z</time>
      </trkpt>
      <trkpt lat="48.74763" lon="7.93137">
        <ele>121.9</ele>
        <time>2020-06-28T09:22:39Z</time>
      </trkpt>
      <trkpt lat="48.74761" lon="7.93133">
        <ele>121.9</ele>
        <time>2020-06-28T09:22:40Z</time>
      </trkpt>
      <trkpt lat="48.74759" lon="7.93128">
        <ele>121.9</ele>
        <time>2020-06-28T09:22:41Z</time>
      </trkpt>
      <trkpt lat="48.74757" lon="7.93122">
        <ele>121.9</ele>
        <time>2020-06-28T09:22:42Z</time>
      </trkpt>
      <trkpt lat="48.74753" lon="7.93118">
        <ele>121.9</ele>
        <time>2020-06-28T09:22:43Z</time>
      </trkpt>
      <trkpt lat="48.7475" lon="7.93113">
        <ele>121.9</ele>
        <time>2020-06-28T09:22:44Z</time>
      </trkpt>
      <trkpt lat="48.74748" lon="7.93106">
        <ele>121.9</ele>
        <time>2020-06-28T09:22:45Z</time>
      </trkpt>
      <trkpt lat="48.74746" lon="7.931">
        <ele>121.9</ele>
        <time>2020-06-28T09:22:46Z</time>
      </trkpt>
      <trkpt lat="48.74742" lon="7.93096">
        <ele>121.9</ele>
        <time>2020-06-28T09:22:47Z</time>
      </trkpt>
      <trkpt lat="48.74739" lon="7.9309">
        <ele>121.9</ele>
        <time>2020-06-28T09:22:48Z</time>
      </trkpt>
      <trkpt lat="48.74736" lon="7.93084">
        <ele>121.8</ele>
        <time>2020-06-28T09:22:49Z</time>
      </trkpt>
      <trkpt lat="48.74733" lon="7.93078">
        <ele>121.8</ele>
        <time>2020-06-28T09:22:50Z</time>
      </trkpt>
      <trkpt lat="48.7473" lon="7.93072">
        <ele>121.8</ele>
        <time>2020-06-28T09:22:51Z</time>
      </trkpt>
      <trkpt lat="48.74726" lon="7.93066">
        <ele>121.8</ele>
        <time>2020-06-28T09:22:52Z</time>
      </trkpt>
      <trkpt lat="48.74724" lon="7.93061">
        <ele>121.8</ele>
        <time>2020-06-28T09:22:53Z</time>
      </trkpt>
      <trkpt lat="48.7472" lon="7.93056">
        <ele>121.8</ele>
        <time>2020-06-28T09:22:54Z</time>
      </trkpt>
      <trkpt lat="48.74717" lon="7.93051">
        <ele>121.8</ele>
        <time>2020-06-28T09:22:55Z</time>
      </trkpt>
      <trkpt lat="48.74715" lon="7.93045">
        <ele>121.8</ele>
        <time>2020-06-28T09:22:56Z</time>
      </trkpt>
      <trkpt lat="48.74712" lon="7.9304">
        <ele>121.8</ele>
        <time>2020-06-28T09:22:57Z</time>
      </trkpt>
      <trkpt lat="48.74709" lon="7.93032">
        <ele>121.9</ele>
        <time>2020-06-28T09:22:58Z</time>
      </trkpt>
      <trkpt lat="48.74704" lon="7.93027">
        <ele>121.9</ele>
        <time>2020-06-28T09:22:59Z</time>
      </trkpt>
      <trkpt lat="48.74701" lon="7.93021">
        <ele>121.9</ele>
        <time>2020-06-28T09:23:00Z</time>
      </trkpt>
      <trkpt lat="48.74698" lon="7.93014">
        <ele>121.9</ele>
        <time>2020-06-28T09:23:01Z</time>
      </trkpt>
      <trkpt lat="48.74695" lon="7.93008">
        <ele>121.9</ele>
        <time>2020-06-28T09:23:02Z</time>
      </trkpt>
      <trkpt lat="48.74691" lon="7.93004">
        <ele>121.9</ele>
        <time>2020-06-28T09:23:03Z</time>
      </trkpt>
      <trkpt lat="48.74688" lon="7.92999">
        <ele>121.9</ele>
        <time>2020-06-28T09:23:04Z</time>
      </trkpt>
      <trkpt lat="48.74685" lon="7.92993">
        <ele>121.9</ele>
        <time>2020-06-28T09:23:05Z</time>
      </trkpt>
      <trkpt lat="48.74683" lon="7.92987">
        <ele>121.9</ele>
        <time>2020-06-28T09:23:06Z</time>
      </trkpt>
      <trkpt lat="48.74679" lon="7.92982">
        <ele>121.9</ele>
        <time>2020-06-28T09:23:07Z</time>
      </trkpt>
      <trkpt lat="48.74677" lon="7.92976">
        <ele>121.9</ele>
        <time>2020-06-28T09:23:08Z</time>
      </trkpt>
      <trkpt lat="48.74675" lon="7.92971">
        <ele>121.9</ele>
        <time>2020-06-28T09:23:09Z</time>
      </trkpt>
      <trkpt lat="48.74673" lon="7.92964">
        <ele>121.9</ele>
        <time>2020-06-28T09:23:10Z</time>
      </trkpt>
      <trkpt lat="48.7467" lon="7.92958">
        <ele>121.9</ele>
        <time>2020-06-28T09:23:11Z</time>
      </trkpt>
      <trkpt lat="48.74667" lon="7.92953">
        <ele>121.9</ele>
        <time>2020-06-28T09:23:12Z</time>
      </trkpt>
      <trkpt lat="48.74665" lon="7.92948">
        <ele>121.9</ele>
        <time>2020-06-28T09:23:13Z</time>
      </trkpt>
      <trkpt lat="48.74663" lon="7.92945">
        <ele>121.9</ele>
        <time>2020-06-28T09:23:14Z</time>
      </trkpt>
      <trkpt lat="48.7466" lon="7.92941">
        <ele>121.9</ele>
        <time>2020-06-28T09:23:15Z</time>
      </trkpt>
      <trkpt lat="48.74657" lon="7.92935">
        <ele>121.9</ele>
        <time>2020-06-28T09:23:16Z</time>
      </trkpt>
      <trkpt lat="48.74654" lon="7.92929">
        <ele>121.9</ele>
        <time>2020-06-28T09:23:17Z</time>
      </trkpt>
      <trkpt lat="48.74651" lon="7.92921">
        <ele>121.9</ele>
        <time>2020-06-28T09:23:18Z</time>
      </trkpt>
      <trkpt lat="48.74647" lon="7.92914">
        <ele>121.9</ele>
        <time>2020-06-28T09:23:19Z</time>
      </trkpt>
      <trkpt lat="48.74643" lon="7.92908">
        <ele>122</ele>
        <time>2020-06-28T09:23:20Z</time>
      </trkpt>
      <trkpt lat="48.7464" lon="7.929">
        <ele>122</ele>
        <time>2020-06-28T09:23:21Z</time>
      </trkpt>
      <trkpt lat="48.74637" lon="7.92894">
        <ele>122</ele>
        <time>2020-06-28T09:23:22Z</time>
      </trkpt>
      <trkpt lat="48.74633" lon="7.92887">
        <ele>122.1</ele>
        <time>2020-06-28T09:23:23Z</time>
      </trkpt>
      <trkpt lat="48.74629" lon="7.9288">
        <ele>122.1</ele>
        <time>2020-06-28T09:23:24Z</time>
      </trkpt>
      <trkpt lat="48.74625" lon="7.92874">
        <ele>122.1</ele>
        <time>2020-06-28T09:23:25Z</time>
      </trkpt>
      <trkpt lat="48.74622" lon="7.92869">
        <ele>122.2</ele>
        <time>2020-06-28T09:23:26Z</time>
      </trkpt>
      <trkpt lat="48.74619" lon="7.92861">
        <ele>122.2</ele>
        <time>2020-06-28T09:23:27Z</time>
      </trkpt>
      <trkpt lat="48.74616" lon="7.92855">
        <ele>122.3</ele>
        <time>2020-06-28T09:23:28Z</time>
      </trkpt>
      <trkpt lat="48.74612" lon="7.92848">
        <ele>122.3</ele>
        <time>2020-06-28T09:23:29Z</time>
      </trkpt>
      <trkpt lat="48.74609" lon="7.92842">
        <ele>122.4</ele>
        <time>2020-06-28T09:23:30Z</time>
      </trkpt>
      <trkpt lat="48.74605" lon="7.92836">
        <ele>122.4</ele>
        <time>2020-06-28T09:23:31Z</time>
      </trkpt>
      <trkpt lat="48.746" lon="7.92829">
        <ele>122.5</ele>
        <time>2020-06-28T09:23:32Z</time>
      </trkpt>
      <trkpt lat="48.74598" lon="7.92824">
        <ele>122.5</ele>
        <time>2020-06-28T09:23:33Z</time>
      </trkpt>
      <trkpt lat="48.74595" lon="7.92818">
        <ele>122.5</ele>
        <time>2020-06-28T09:23:34Z</time>
      </trkpt>
      <trkpt lat="48.74591" lon="7.92813">
        <ele>122.6</ele>
        <time>2020-06-28T09:23:35Z</time>
      </trkpt>
      <trkpt lat="48.74586" lon="7.92808">
        <ele>122.6</ele>
        <time>2020-06-28T09:23:36Z</time>
      </trkpt>
      <trkpt lat="48.74581" lon="7.92801">
        <ele>122.5</ele>
        <time>2020-06-28T09:23:37Z</time>
      </trkpt>
      <trkpt lat="48.74577" lon="7.92795">
        <ele>122.5</ele>
        <time>2020-06-28T09:23:38Z</time>
      </trkpt>
      <trkpt lat="48.74574" lon="7.92788">
        <ele>122.5</ele>
        <time>2020-06-28T09:23:39Z</time>
      </trkpt>
      <trkpt lat="48.74571" lon="7.9278">
        <ele>122.5</ele>
        <time>2020-06-28T09:23:40Z</time>
      </trkpt>
      <trkpt lat="48.74569" lon="7.92773">
        <ele>122.6</ele>
        <time>2020-06-28T09:23:41Z</time>
      </trkpt>
      <trkpt lat="48.74567" lon="7.92766">
        <ele>122.5</ele>
        <time>2020-06-28T09:23:42Z</time>
      </trkpt>
      <trkpt lat="48.74564" lon="7.9276">
        <ele>122.5</ele>
        <time>2020-06-28T09:23:43Z</time>
      </trkpt>
      <trkpt lat="48.7456" lon="7.92753">
        <ele>122.5</ele>
        <time>2020-06-28T09:23:44Z</time>
      </trkpt>
      <trkpt lat="48.74556" lon="7.92747">
        <ele>122.4</ele>
        <time>2020-06-28T09:23:45Z</time>
      </trkpt>
      <trkpt lat="48.74553" lon="7.9274">
        <ele>122.4</ele>
        <time>2020-06-28T09:23:46Z</time>
      </trkpt>
      <trkpt lat="48.7455" lon="7.92733">
        <ele>122.4</ele>
        <time>2020-06-28T09:23:47Z</time>
      </trkpt>
      <trkpt lat="48.74547" lon="7.92727">
        <ele>122.4</ele>
        <time>2020-06-28T09:23:48Z</time>
      </trkpt>
      <trkpt lat="48.74543" lon="7.9272">
        <ele>122.3</ele>
        <time>2020-06-28T09:23:49Z</time>
      </trkpt>
      <trkpt lat="48.7454" lon="7.92715">
        <ele>122.3</ele>
        <time>2020-06-28T09:23:50Z</time>
      </trkpt>
      <trkpt lat="48.74537" lon="7.92709">
        <ele>122.3</ele>
        <time>2020-06-28T09:23:51Z</time>
      </trkpt>
      <trkpt lat="48.74533" lon="7.92702">
        <ele>122.3</ele>
        <time>2020-06-28T09:23:52Z</time>
      </trkpt>
      <trkpt lat="48.7453" lon="7.92696">
        <ele>122.3</ele>
        <time>2020-06-28T09:23:53Z</time>
      </trkpt>
      <trkpt lat="48.74527" lon="7.9269">
        <ele>122.3</ele>
        <time>2020-06-28T09:23:54Z</time>
      </trkpt>
      <trkpt lat="48.74523" lon="7.92683">
        <ele>122.2</ele>
        <time>2020-06-28T09:23:55Z</time>
      </trkpt>
      <trkpt lat="48.74519" lon="7.92676">
        <ele>122.2</ele>
        <time>2020-06-28T09:23:56Z</time>
      </trkpt>
      <trkpt lat="48.74516" lon="7.9267">
        <ele>122.2</ele>
        <time>2020-06-28T09:23:57Z</time>
      </trkpt>
      <trkpt lat="48.74512" lon="7.92664">
        <ele>122.2</ele>
        <time>2020-06-28T09:23:58Z</time>
      </trkpt>
      <trkpt lat="48.74508" lon="7.92657">
        <ele>122.2</ele>
        <time>2020-06-28T09:23:59Z</time>
      </trkpt>
      <trkpt lat="48.74506" lon="7.92649">
        <ele>122.2</ele>
        <time>2020-06-28T09:24:00Z</time>
      </trkpt>
      <trkpt lat="48.74502" lon="7.92644">
        <ele>122.2</ele>
        <time>2020-06-28T09:24:01Z</time>
      </trkpt>
      <trkpt lat="48.74499" lon="7.92637">
        <ele>122.2</ele>
        <time>2020-06-28T09:24:02Z</time>
      </trkpt>
      <trkpt lat="48.74496" lon="7.92631">
        <ele>122.2</ele>
        <time>2020-06-28T09:24:03Z</time>
      </trkpt>
      <trkpt lat="48.74493" lon="7.92623">
        <ele>122.2</ele>
        <time>2020-06-28T09:24:04Z</time>
      </trkpt>
      <trkpt lat="48.74489" lon="7.92617">
        <ele>122.2</ele>
        <time>2020-06-28T09:24:05Z</time>
      </trkpt>
      <trkpt lat="48.74484" lon="7.9261">
        <ele>122.2</ele>
        <time>2020-06-28T09:24:06Z</time>
      </trkpt>
      <trkpt lat="48.74481" lon="7.92605">
        <ele>122.2</ele>
        <time>2020-06-28T09:24:07Z</time>
      </trkpt>
      <trkpt lat="48.74477" lon="7.92599">
        <ele>122.2</ele>
        <time>2020-06-28T09:24:08Z</time>
      </trkpt>
      <trkpt lat="48.74473" lon="7.92592">
        <ele>122.2</ele>
        <time>2020-06-28T09:24:09Z</time>
      </trkpt>
      <trkpt lat="48.74471" lon="7.92585">
        <ele>122.2</ele>
        <time>2020-06-28T09:24:10Z</time>
      </trkpt>
      <trkpt lat="48.74467" lon="7.92577">
        <ele>122.2</ele>
        <time>2020-06-28T09:24:11Z</time>
      </trkpt>
      <trkpt lat="48.74463" lon="7.92569">
        <ele>122.2</ele>
        <time>2020-06-28T09:24:12Z</time>
      </trkpt>
      <trkpt lat="48.7446" lon="7.92562">
        <ele>122.2</ele>
        <time>2020-06-28T09:24:13Z</time>
      </trkpt>
      <trkpt lat="48.74456" lon="7.92555">
        <ele>122.2</ele>
        <time>2020-06-28T09:24:14Z</time>
      </trkpt>
      <trkpt lat="48.74452" lon="7.92548">
        <ele>122.2</ele>
        <time>2020-06-28T09:24:15Z</time>
      </trkpt>
      <trkpt lat="48.74448" lon="7.92543">
        <ele>122.3</ele>
        <time>2020-06-28T09:24:16Z</time>
      </trkpt>
      <trkpt lat="48.74444" lon="7.92537">
        <ele>122.3</ele>
        <time>2020-06-28T09:24:17Z</time>
      </trkpt>
      <trkpt lat="48.7444" lon="7.92531">
        <ele>122.3</ele>
        <time>2020-06-28T09:24:18Z</time>
      </trkpt>
      <trkpt lat="48.74437" lon="7.92524">
        <ele>122.3</ele>
        <time>2020-06-28T09:24:19Z</time>
      </trkpt>
      <trkpt lat="48.74434" lon="7.92518">
        <ele>122.3</ele>
        <time>2020-06-28T09:24:20Z</time>
      </trkpt>
      <trkpt lat="48.7443" lon="7.92512">
        <ele>122.3</ele>
        <time>2020-06-28T09:24:21Z</time>
      </trkpt>
      <trkpt lat="48.74427" lon="7.92505">
        <ele>122.4</ele>
        <time>2020-06-28T09:24:22Z</time>
      </trkpt>
      <trkpt lat="48.74425" lon="7.925">
        <ele>122.4</ele>
        <time>2020-06-28T09:24:23Z</time>
      </trkpt>
      <trkpt lat="48.74421" lon="7.92494">
        <ele>122.5</ele>
        <time>2020-06-28T09:24:24Z</time>
      </trkpt>
      <trkpt lat="48.74418" lon="7.92489">
        <ele>122.5</ele>
        <time>2020-06-28T09:24:25Z</time>
      </trkpt>
      <trkpt lat="48.74415" lon="7.92483">
        <ele>122.6</ele>
        <time>2020-06-28T09:24:26Z</time>
      </trkpt>
      <trkpt lat="48.74412" lon="7.92477">
        <ele>122.7</ele>
        <time>2020-06-28T09:24:27Z</time>
      </trkpt>
      <trkpt lat="48.74409" lon="7.92471">
        <ele>122.8</ele>
        <time>2020-06-28T09:24:28Z</time>
      </trkpt>
      <trkpt lat="48.74406" lon="7.92464">
        <ele>122.9</ele>
        <time>2020-06-28T09:24:29Z</time>
      </trkpt>
      <trkpt lat="48.74403" lon="7.92457">
        <ele>123</ele>
        <time>2020-06-28T09:24:30Z</time>
      </trkpt>
      <trkpt lat="48.74401" lon="7.92451">
        <ele>123.1</ele>
        <time>2020-06-28T09:24:31Z</time>
      </trkpt>
      <trkpt lat="48.74399" lon="7.92446">
        <ele>123.1</ele>
        <time>2020-06-28T09:24:32Z</time>
      </trkpt>
      <trkpt lat="48.74397" lon="7.9244">
        <ele>123.2</ele>
        <time>2020-06-28T09:24:33Z</time>
      </trkpt>
      <trkpt lat="48.74394" lon="7.92434">
        <ele>123.3</ele>
        <time>2020-06-28T09:24:34Z</time>
      </trkpt>
      <trkpt lat="48.74392" lon="7.92429">
        <ele>123.4</ele>
        <time>2020-06-28T09:24:35Z</time>
      </trkpt>
      <trkpt lat="48.74388" lon="7.92423">
        <ele>123.5</ele>
        <time>2020-06-28T09:24:36Z</time>
      </trkpt>
      <trkpt lat="48.74385" lon="7.92416">
        <ele>123.6</ele>
        <time>2020-06-28T09:24:37Z</time>
      </trkpt>
      <trkpt lat="48.74382" lon="7.9241">
        <ele>123.7</ele>
        <time>2020-06-28T09:24:38Z</time>
      </trkpt>
      <trkpt lat="48.74379" lon="7.92403">
        <ele>123.8</ele>
        <time>2020-06-28T09:24:39Z</time>
      </trkpt>
      <trkpt lat="48.74375" lon="7.92396">
        <ele>123.8</ele>
        <time>2020-06-28T09:24:40Z</time>
      </trkpt>
      <trkpt lat="48.74372" lon="7.92389">
        <ele>123.8</ele>
        <time>2020-06-28T09:24:41Z</time>
      </trkpt>
      <trkpt lat="48.7437" lon="7.92385">
        <ele>123.8</ele>
        <time>2020-06-28T09:24:42Z</time>
      </trkpt>
      <trkpt lat="48.74368" lon="7.9238">
        <ele>123.8</ele>
        <time>2020-06-28T09:24:43Z</time>
      </trkpt>
      <trkpt lat="48.74366" lon="7.92374">
        <ele>123.8</ele>
        <time>2020-06-28T09:24:44Z</time>
      </trkpt>
      <trkpt lat="48.74363" lon="7.92369">
        <ele>123.9</ele>
        <time>2020-06-28T09:24:45Z</time>
      </trkpt>
      <trkpt lat="48.74361" lon="7.92365">
        <ele>123.9</ele>
        <time>2020-06-28T09:24:46Z</time>
      </trkpt>
      <trkpt lat="48.74358" lon="7.92359">
        <ele>123.9</ele>
        <time>2020-06-28T09:24:47Z</time>
      </trkpt>
      <trkpt lat="48.74356" lon="7.92354">
        <ele>123.9</ele>
        <time>2020-06-28T09:24:48Z</time>
      </trkpt>
      <trkpt lat="48.74353" lon="7.92347">
        <ele>124</ele>
        <time>2020-06-28T09:24:49Z</time>
      </trkpt>
      <trkpt lat="48.74351" lon="7.9234">
        <ele>124</ele>
        <time>2020-06-28T09:24:50Z</time>
      </trkpt>
      <trkpt lat="48.74348" lon="7.92334">
        <ele>124</ele>
        <time>2020-06-28T09:24:51Z</time>
      </trkpt>
      <trkpt lat="48.74345" lon="7.92328">
        <ele>124</ele>
        <time>2020-06-28T09:24:52Z</time>
      </trkpt>
      <trkpt lat="48.74342" lon="7.92323">
        <ele>124</ele>
        <time>2020-06-28T09:24:53Z</time>
      </trkpt>
      <trkpt lat="48.74339" lon="7.92318">
        <ele>124</ele>
        <time>2020-06-28T09:24:54Z</time>
      </trkpt>
      <trkpt lat="48.74336" lon="7.92312">
        <ele>124.1</ele>
        <time>2020-06-28T09:24:55Z</time>
      </trkpt>
      <trkpt lat="48.74334" lon="7.92306">
        <ele>124.1</ele>
        <time>2020-06-28T09:24:56Z</time>
      </trkpt>
      <trkpt lat="48.74331" lon="7.92301">
        <ele>124</ele>
        <time>2020-06-28T09:24:57Z</time>
      </trkpt>
      <trkpt lat="48.74328" lon="7.92296">
        <ele>124</ele>
        <time>2020-06-28T09:24:58Z</time>
      </trkpt>
      <trkpt lat="48.74324" lon="7.92292">
        <ele>124</ele>
        <time>2020-06-28T09:24:59Z</time>
      </trkpt>
      <trkpt lat="48.7432" lon="7.92288">
        <ele>123.9</ele>
        <time>2020-06-28T09:25:00Z</time>
      </trkpt>
      <trkpt lat="48.74317" lon="7.92284">
        <ele>123.9</ele>
        <time>2020-06-28T09:25:01Z</time>
      </trkpt>
      <trkpt lat="48.74314" lon="7.92279">
        <ele>123.8</ele>
        <time>2020-06-28T09:25:02Z</time>
      </trkpt>
      <trkpt lat="48.74309" lon="7.92274">
        <ele>123.8</ele>
        <time>2020-06-28T09:25:03Z</time>
      </trkpt>
      <trkpt lat="48.74306" lon="7.92269">
        <ele>123.7</ele>
        <time>2020-06-28T09:25:04Z</time>
      </trkpt>
      <trkpt lat="48.74303" lon="7.92263">
        <ele>123.7</ele>
        <time>2020-06-28T09:25:05Z</time>
      </trkpt>
      <trkpt lat="48.74299" lon="7.92256">
        <ele>123.6</ele>
        <time>2020-06-28T09:25:06Z</time>
      </trkpt>
      <trkpt lat="48.74296" lon="7.92252">
        <ele>123.6</ele>
        <time>2020-06-28T09:25:07Z</time>
      </trkpt>
      <trkpt lat="48.74293" lon="7.92246">
        <ele>123.6</ele>
        <time>2020-06-28T09:25:08Z</time>
      </trkpt>
      <trkpt lat="48.7429" lon="7.92242">
        <ele>123.5</ele>
        <time>2020-06-28T09:25:09Z</time>
      </trkpt>
      <trkpt lat="48.74286" lon="7.92238">
        <ele>123.5</ele>
        <time>2020-06-28T09:25:10Z</time>
      </trkpt>
      <trkpt lat="48.74283" lon="7.92235">
        <ele>123.5</ele>
        <time>2020-06-28T09:25:11Z</time>
      </trkpt>
      <trkpt lat="48.7428" lon="7.9223">
        <ele>123.5</ele>
        <time>2020-06-28T09:25:12Z</time>
      </trkpt>
      <trkpt lat="48.74276" lon="7.92228">
        <ele>123.5</ele>
        <time>2020-06-28T09:25:13Z</time>
      </trkpt>
      <trkpt lat="48.74272" lon="7.92225">
        <ele>123.5</ele>
        <time>2020-06-28T09:25:14Z</time>
      </trkpt>
      <trkpt lat="48.74268" lon="7.92222">
        <ele>123.5</ele>
        <time>2020-06-28T09:25:15Z</time>
      </trkpt>
      <trkpt lat="48.74263" lon="7.9222">
        <ele>123.5</ele>
        <time>2020-06-28T09:25:16Z</time>
      </trkpt>
      <trkpt lat="48.74259" lon="7.92218">
        <ele>123.4</ele>
        <time>2020-06-28T09:25:17Z</time>
      </trkpt>
      <trkpt lat="48.74253" lon="7.92215">
        <ele>123.4</ele>
        <time>2020-06-28T09:25:18Z</time>
      </trkpt>
      <trkpt lat="48.7425" lon="7.92216">
        <ele>123.4</ele>
        <time>2020-06-28T09:25:19Z</time>
      </trkpt>
      <trkpt lat="48.74245" lon="7.92212">
        <ele>123.5</ele>
        <time>2020-06-28T09:25:20Z</time>
      </trkpt>
      <trkpt lat="48.74241" lon="7.92207">
        <ele>123.5</ele>
        <time>2020-06-28T09:25:21Z</time>
      </trkpt>
      <trkpt lat="48.74239" lon="7.92203">
        <ele>123.5</ele>
        <time>2020-06-28T09:25:22Z</time>
      </trkpt>
      <trkpt lat="48.74238" lon="7.92196">
        <ele>123.5</ele>
        <time>2020-06-28T09:25:23Z</time>
      </trkpt>
      <trkpt lat="48.74237" lon="7.92188">
        <ele>123.5</ele>
        <time>2020-06-28T09:25:24Z</time>
      </trkpt>
      <trkpt lat="48.74236" lon="7.92181">
        <ele>123.5</ele>
        <time>2020-06-28T09:25:25Z</time>
      </trkpt>
      <trkpt lat="48.74235" lon="7.92174">
        <ele>123.5</ele>
        <time>2020-06-28T09:25:26Z</time>
      </trkpt>
      <trkpt lat="48.74235" lon="7.92166">
        <ele>123.5</ele>
        <time>2020-06-28T09:25:27Z</time>
      </trkpt>
      <trkpt lat="48.74234" lon="7.92159">
        <ele>123.6</ele>
        <time>2020-06-28T09:25:28Z</time>
      </trkpt>
      <trkpt lat="48.74233" lon="7.92152">
        <ele>123.6</ele>
        <time>2020-06-28T09:25:29Z</time>
      </trkpt>
      <trkpt lat="48.74232" lon="7.92145">
        <ele>123.6</ele>
        <time>2020-06-28T09:25:30Z</time>
      </trkpt>
      <trkpt lat="48.74231" lon="7.92138">
        <ele>123.7</ele>
        <time>2020-06-28T09:25:31Z</time>
      </trkpt>
      <trkpt lat="48.74229" lon="7.9213">
        <ele>123.7</ele>
        <time>2020-06-28T09:25:32Z</time>
      </trkpt>
      <trkpt lat="48.74228" lon="7.92123">
        <ele>123.8</ele>
        <time>2020-06-28T09:25:33Z</time>
      </trkpt>
      <trkpt lat="48.74227" lon="7.92116">
        <ele>123.8</ele>
        <time>2020-06-28T09:25:34Z</time>
      </trkpt>
      <trkpt lat="48.74223" lon="7.9211">
        <ele>123.8</ele>
        <time>2020-06-28T09:25:35Z</time>
      </trkpt>
      <trkpt lat="48.7422" lon="7.92106">
        <ele>123.8</ele>
        <time>2020-06-28T09:25:36Z</time>
      </trkpt>
      <trkpt lat="48.74217" lon="7.92102">
        <ele>123.8</ele>
        <time>2020-06-28T09:25:37Z</time>
      </trkpt>
      <trkpt lat="48.74214" lon="7.92096">
        <ele>123.8</ele>
        <time>2020-06-28T09:25:38Z</time>
      </trkpt>
      <trkpt lat="48.74212" lon="7.92091">
        <ele>123.8</ele>
        <time>2020-06-28T09:25:39Z</time>
      </trkpt>
      <trkpt lat="48.74209" lon="7.92086">
        <ele>123.8</ele>
        <time>2020-06-28T09:25:40Z</time>
      </trkpt>
      <trkpt lat="48.74207" lon="7.9208">
        <ele>123.8</ele>
        <time>2020-06-28T09:25:41Z</time>
      </trkpt>
      <trkpt lat="48.74205" lon="7.92075">
        <ele>123.8</ele>
        <time>2020-06-28T09:25:42Z</time>
      </trkpt>
      <trkpt lat="48.74202" lon="7.92069">
        <ele>123.8</ele>
        <time>2020-06-28T09:25:43Z</time>
      </trkpt>
      <trkpt lat="48.74199" lon="7.92063">
        <ele>123.8</ele>
        <time>2020-06-28T09:25:44Z</time>
      </trkpt>
      <trkpt lat="48.74196" lon="7.92057">
        <ele>123.8</ele>
        <time>2020-06-28T09:25:45Z</time>
      </trkpt>
      <trkpt lat="48.74192" lon="7.9205">
        <ele>123.9</ele>
        <time>2020-06-28T09:25:46Z</time>
      </trkpt>
      <trkpt lat="48.74189" lon="7.92045">
        <ele>123.9</ele>
        <time>2020-06-28T09:25:47Z</time>
      </trkpt>
      <trkpt lat="48.74186" lon="7.92038">
        <ele>123.9</ele>
        <time>2020-06-28T09:25:48Z</time>
      </trkpt>
      <trkpt lat="48.74182" lon="7.92031">
        <ele>123.9</ele>
        <time>2020-06-28T09:25:49Z</time>
      </trkpt>
      <trkpt lat="48.74179" lon="7.92024">
        <ele>123.9</ele>
        <time>2020-06-28T09:25:50Z</time>
      </trkpt>
      <trkpt lat="48.74175" lon="7.92017">
        <ele>123.9</ele>
        <time>2020-06-28T09:25:51Z</time>
      </trkpt>
      <trkpt lat="48.74171" lon="7.92009">
        <ele>123.9</ele>
        <time>2020-06-28T09:25:52Z</time>
      </trkpt>
      <trkpt lat="48.74167" lon="7.92003">
        <ele>123.9</ele>
        <time>2020-06-28T09:25:53Z</time>
      </trkpt>
      <trkpt lat="48.74163" lon="7.91995">
        <ele>123.9</ele>
        <time>2020-06-28T09:25:54Z</time>
      </trkpt>
      <trkpt lat="48.74159" lon="7.91988">
        <ele>123.9</ele>
        <time>2020-06-28T09:25:55Z</time>
      </trkpt>
      <trkpt lat="48.74155" lon="7.91982">
        <ele>123.9</ele>
        <time>2020-06-28T09:25:56Z</time>
      </trkpt>
      <trkpt lat="48.74153" lon="7.91975">
        <ele>123.9</ele>
        <time>2020-06-28T09:25:57Z</time>
      </trkpt>
      <trkpt lat="48.74149" lon="7.91968">
        <ele>123.9</ele>
        <time>2020-06-28T09:25:58Z</time>
      </trkpt>
      <trkpt lat="48.74145" lon="7.9196">
        <ele>123.9</ele>
        <time>2020-06-28T09:25:59Z</time>
      </trkpt>
      <trkpt lat="48.74141" lon="7.91953">
        <ele>123.9</ele>
        <time>2020-06-28T09:26:00Z</time>
      </trkpt>
      <trkpt lat="48.74137" lon="7.91947">
        <ele>123.9</ele>
        <time>2020-06-28T09:26:01Z</time>
      </trkpt>
      <trkpt lat="48.74133" lon="7.91941">
        <ele>123.9</ele>
        <time>2020-06-28T09:26:02Z</time>
      </trkpt>
      <trkpt lat="48.7413" lon="7.91935">
        <ele>123.9</ele>
        <time>2020-06-28T09:26:03Z</time>
      </trkpt>
      <trkpt lat="48.74126" lon="7.91929">
        <ele>123.9</ele>
        <time>2020-06-28T09:26:04Z</time>
      </trkpt>
      <trkpt lat="48.74123" lon="7.91923">
        <ele>123.9</ele>
        <time>2020-06-28T09:26:05Z</time>
      </trkpt>
      <trkpt lat="48.74119" lon="7.91917">
        <ele>123.9</ele>
        <time>2020-06-28T09:26:06Z</time>
      </trkpt>
      <trkpt lat="48.74116" lon="7.9191">
        <ele>123.9</ele>
        <time>2020-06-28T09:26:07Z</time>
      </trkpt>
      <trkpt lat="48.74114" lon="7.91906">
        <ele>123.9</ele>
        <time>2020-06-28T09:26:08Z</time>
      </trkpt>
      <trkpt lat="48.7411" lon="7.91899">
        <ele>124</ele>
        <time>2020-06-28T09:26:09Z</time>
      </trkpt>
      <trkpt lat="48.74106" lon="7.91893">
        <ele>124</ele>
        <time>2020-06-28T09:26:10Z</time>
      </trkpt>
      <trkpt lat="48.74103" lon="7.91887">
        <ele>123.9</ele>
        <time>2020-06-28T09:26:11Z</time>
      </trkpt>
      <trkpt lat="48.74099" lon="7.91881">
        <ele>123.9</ele>
        <time>2020-06-28T09:26:12Z</time>
      </trkpt>
      <trkpt lat="48.74097" lon="7.91873">
        <ele>123.9</ele>
        <time>2020-06-28T09:26:13Z</time>
      </trkpt>
      <trkpt lat="48.74094" lon="7.91866">
        <ele>123.9</ele>
        <time>2020-06-28T09:26:14Z</time>
      </trkpt>
      <trkpt lat="48.74091" lon="7.9186">
        <ele>123.9</ele>
        <time>2020-06-28T09:26:15Z</time>
      </trkpt>
      <trkpt lat="48.74087" lon="7.91854">
        <ele>123.9</ele>
        <time>2020-06-28T09:26:16Z</time>
      </trkpt>
      <trkpt lat="48.74084" lon="7.91848">
        <ele>123.9</ele>
        <time>2020-06-28T09:26:17Z</time>
      </trkpt>
      <trkpt lat="48.7408" lon="7.91842">
        <ele>123.9</ele>
        <time>2020-06-28T09:26:18Z</time>
      </trkpt>
      <trkpt lat="48.74077" lon="7.91837">
        <ele>123.9</ele>
        <time>2020-06-28T09:26:19Z</time>
      </trkpt>
      <trkpt lat="48.74073" lon="7.9183">
        <ele>123.9</ele>
        <time>2020-06-28T09:26:20Z</time>
      </trkpt>
      <trkpt lat="48.7407" lon="7.91826">
        <ele>123.9</ele>
        <time>2020-06-28T09:26:21Z</time>
      </trkpt>
      <trkpt lat="48.74067" lon="7.9182">
        <ele>123.9</ele>
        <time>2020-06-28T09:26:22Z</time>
      </trkpt>
      <trkpt lat="48.74065" lon="7.91814">
        <ele>124</ele>
        <time>2020-06-28T09:26:23Z</time>
      </trkpt>
      <trkpt lat="48.74061" lon="7.91807">
        <ele>124</ele>
        <time>2020-06-28T09:26:24Z</time>
      </trkpt>
      <trkpt lat="48.74057" lon="7.918">
        <ele>124</ele>
        <time>2020-06-28T09:26:25Z</time>
      </trkpt>
      <trkpt lat="48.74053" lon="7.91794">
        <ele>124</ele>
        <time>2020-06-28T09:26:26Z</time>
      </trkpt>
      <trkpt lat="48.74049" lon="7.91788">
        <ele>124.1</ele>
        <time>2020-06-28T09:26:27Z</time>
      </trkpt>
      <trkpt lat="48.74045" lon="7.91782">
        <ele>124.1</ele>
        <time>2020-06-28T09:26:28Z</time>
      </trkpt>
      <trkpt lat="48.74042" lon="7.91775">
        <ele>124.1</ele>
        <time>2020-06-28T09:26:29Z</time>
      </trkpt>
      <trkpt lat="48.74039" lon="7.91768">
        <ele>124.1</ele>
        <time>2020-06-28T09:26:30Z</time>
      </trkpt>
      <trkpt lat="48.74035" lon="7.91762">
        <ele>124.1</ele>
        <time>2020-06-28T09:26:31Z</time>
      </trkpt>
      <trkpt lat="48.74032" lon="7.91756">
        <ele>124.2</ele>
        <time>2020-06-28T09:26:32Z</time>
      </trkpt>
      <trkpt lat="48.74028" lon="7.91751">
        <ele>124.2</ele>
        <time>2020-06-28T09:26:33Z</time>
      </trkpt>
      <trkpt lat="48.74025" lon="7.91744">
        <ele>124.2</ele>
        <time>2020-06-28T09:26:34Z</time>
      </trkpt>
      <trkpt lat="48.74021" lon="7.91738">
        <ele>124.2</ele>
        <time>2020-06-28T09:26:35Z</time>
      </trkpt>
      <trkpt lat="48.74017" lon="7.91731">
        <ele>124.2</ele>
        <time>2020-06-28T09:26:36Z</time>
      </trkpt>
      <trkpt lat="48.74014" lon="7.91724">
        <ele>124.2</ele>
        <time>2020-06-28T09:26:37Z</time>
      </trkpt>
      <trkpt lat="48.74011" lon="7.91718">
        <ele>124.2</ele>
        <time>2020-06-28T09:26:38Z</time>
      </trkpt>
      <trkpt lat="48.74008" lon="7.91712">
        <ele>124.2</ele>
        <time>2020-06-28T09:26:39Z</time>
      </trkpt>
      <trkpt lat="48.74005" lon="7.91706">
        <ele>124.3</ele>
        <time>2020-06-28T09:26:40Z</time>
      </trkpt>
      <trkpt lat="48.74002" lon="7.917">
        <ele>124.3</ele>
        <time>2020-06-28T09:26:41Z</time>
      </trkpt>
      <trkpt lat="48.73998" lon="7.91694">
        <ele>124.3</ele>
        <time>2020-06-28T09:26:42Z</time>
      </trkpt>
      <trkpt lat="48.73995" lon="7.91688">
        <ele>124.3</ele>
        <time>2020-06-28T09:26:43Z</time>
      </trkpt>
      <trkpt lat="48.73992" lon="7.91681">
        <ele>124.3</ele>
        <time>2020-06-28T09:26:44Z</time>
      </trkpt>
      <trkpt lat="48.73989" lon="7.91676">
        <ele>124.4</ele>
        <time>2020-06-28T09:26:45Z</time>
      </trkpt>
      <trkpt lat="48.73987" lon="7.91669">
        <ele>124.4</ele>
        <time>2020-06-28T09:26:46Z</time>
      </trkpt>
      <trkpt lat="48.73983" lon="7.91664">
        <ele>124.4</ele>
        <time>2020-06-28T09:26:47Z</time>
      </trkpt>
      <trkpt lat="48.73979" lon="7.91657">
        <ele>124.4</ele>
        <time>2020-06-28T09:26:48Z</time>
      </trkpt>
      <trkpt lat="48.73976" lon="7.91651">
        <ele>124.4</ele>
        <time>2020-06-28T09:26:49Z</time>
      </trkpt>
      <trkpt lat="48.73973" lon="7.91645">
        <ele>124.4</ele>
        <time>2020-06-28T09:26:50Z</time>
      </trkpt>
      <trkpt lat="48.7397" lon="7.91639">
        <ele>124.4</ele>
        <time>2020-06-28T09:26:51Z</time>
      </trkpt>
      <trkpt lat="48.73967" lon="7.91635">
        <ele>124.4</ele>
        <time>2020-06-28T09:26:52Z</time>
      </trkpt>
      <trkpt lat="48.73964" lon="7.91629">
        <ele>124.5</ele>
        <time>2020-06-28T09:26:53Z</time>
      </trkpt>
      <trkpt lat="48.7396" lon="7.91623">
        <ele>124.5</ele>
        <time>2020-06-28T09:26:54Z</time>
      </trkpt>
      <trkpt lat="48.73957" lon="7.91617">
        <ele>124.5</ele>
        <time>2020-06-28T09:26:55Z</time>
      </trkpt>
      <trkpt lat="48.73954" lon="7.91612">
        <ele>124.5</ele>
        <time>2020-06-28T09:26:56Z</time>
      </trkpt>
      <trkpt lat="48.73951" lon="7.91606">
        <ele>124.6</ele>
        <time>2020-06-28T09:26:57Z</time>
      </trkpt>
      <trkpt lat="48.73948" lon="7.91599">
        <ele>124.6</ele>
        <time>2020-06-28T09:26:58Z</time>
      </trkpt>
      <trkpt lat="48.73945" lon="7.91592">
        <ele>124.6</ele>
        <time>2020-06-28T09:26:59Z</time>
      </trkpt>
      <trkpt lat="48.73942" lon="7.91586">
        <ele>124.6</ele>
        <time>2020-06-28T09:27:00Z</time>
      </trkpt>
      <trkpt lat="48.73939" lon="7.91581">
        <ele>124.6</ele>
        <time>2020-06-28T09:27:01Z</time>
      </trkpt>
      <trkpt lat="48.73936" lon="7.91576">
        <ele>124.6</ele>
        <time>2020-06-28T09:27:02Z</time>
      </trkpt>
      <trkpt lat="48.73933" lon="7.91571">
        <ele>124.6</ele>
        <time>2020-06-28T09:27:03Z</time>
      </trkpt>
      <trkpt lat="48.73929" lon="7.91565">
        <ele>124.6</ele>
        <time>2020-06-28T09:27:04Z</time>
      </trkpt>
      <trkpt lat="48.73926" lon="7.91558">
        <ele>124.6</ele>
        <time>2020-06-28T09:27:05Z</time>
      </trkpt>
      <trkpt lat="48.73922" lon="7.91551">
        <ele>124.7</ele>
        <time>2020-06-28T09:27:06Z</time>
      </trkpt>
      <trkpt lat="48.73919" lon="7.91545">
        <ele>124.7</ele>
        <time>2020-06-28T09:27:07Z</time>
      </trkpt>
      <trkpt lat="48.73916" lon="7.91538">
        <ele>124.7</ele>
        <time>2020-06-28T09:27:08Z</time>
      </trkpt>
      <trkpt lat="48.73913" lon="7.91533">
        <ele>124.7</ele>
        <time>2020-06-28T09:27:09Z</time>
      </trkpt>
      <trkpt lat="48.7391" lon="7.91526">
        <ele>124.7</ele>
        <time>2020-06-28T09:27:10Z</time>
      </trkpt>
      <trkpt lat="48.73906" lon="7.91519">
        <ele>124.7</ele>
        <time>2020-06-28T09:27:11Z</time>
      </trkpt>
      <trkpt lat="48.73903" lon="7.91513">
        <ele>124.7</ele>
        <time>2020-06-28T09:27:12Z</time>
      </trkpt>
      <trkpt lat="48.73899" lon="7.91507">
        <ele>124.7</ele>
        <time>2020-06-28T09:27:13Z</time>
      </trkpt>
      <trkpt lat="48.73895" lon="7.91499">
        <ele>124.7</ele>
        <time>2020-06-28T09:27:14Z</time>
      </trkpt>
      <trkpt lat="48.73892" lon="7.91493">
        <ele>124.7</ele>
        <time>2020-06-28T09:27:15Z</time>
      </trkpt>
      <trkpt lat="48.73888" lon="7.91488">
        <ele>124.7</ele>
        <time>2020-06-28T09:27:16Z</time>
      </trkpt>
      <trkpt lat="48.73885" lon="7.91482">
        <ele>124.8</ele>
        <time>2020-06-28T09:27:17Z</time>
      </trkpt>
      <trkpt lat="48.73882" lon="7.91477">
        <ele>124.8</ele>
        <time>2020-06-28T09:27:18Z</time>
      </trkpt>
      <trkpt lat="48.73879" lon="7.91471">
        <ele>124.8</ele>
        <time>2020-06-28T09:27:19Z</time>
      </trkpt>
      <trkpt lat="48.73876" lon="7.91464">
        <ele>124.7</ele>
        <time>2020-06-28T09:27:20Z</time>
      </trkpt>
      <trkpt lat="48.73873" lon="7.91458">
        <ele>124.7</ele>
        <time>2020-06-28T09:27:21Z</time>
      </trkpt>
      <trkpt lat="48.73868" lon="7.91452">
        <ele>124.7</ele>
        <time>2020-06-28T09:27:22Z</time>
      </trkpt>
      <trkpt lat="48.73865" lon="7.91445">
        <ele>124.7</ele>
        <time>2020-06-28T09:27:23Z</time>
      </trkpt>
      <trkpt lat="48.73861" lon="7.91438">
        <ele>124.7</ele>
        <time>2020-06-28T09:27:24Z</time>
      </trkpt>
      <trkpt lat="48.73857" lon="7.91431">
        <ele>124.7</ele>
        <time>2020-06-28T09:27:25Z</time>
      </trkpt>
      <trkpt lat="48.73854" lon="7.91425">
        <ele>124.7</ele>
        <time>2020-06-28T09:27:26Z</time>
      </trkpt>
      <trkpt lat="48.7385" lon="7.91419">
        <ele>124.7</ele>
        <time>2020-06-28T09:27:27Z</time>
      </trkpt>
      <trkpt lat="48.73848" lon="7.91413">
        <ele>124.7</ele>
        <time>2020-06-28T09:27:28Z</time>
      </trkpt>
      <trkpt lat="48.73845" lon="7.91408">
        <ele>124.7</ele>
        <time>2020-06-28T09:27:29Z</time>
      </trkpt>
      <trkpt lat="48.73842" lon="7.91402">
        <ele>124.7</ele>
        <time>2020-06-28T09:27:30Z</time>
      </trkpt>
      <trkpt lat="48.73839" lon="7.91396">
        <ele>124.7</ele>
        <time>2020-06-28T09:27:31Z</time>
      </trkpt>
      <trkpt lat="48.73837" lon="7.91391">
        <ele>124.7</ele>
        <time>2020-06-28T09:27:32Z</time>
      </trkpt>
      <trkpt lat="48.73835" lon="7.91387">
        <ele>124.6</ele>
        <time>2020-06-28T09:27:33Z</time>
      </trkpt>
      <trkpt lat="48.73831" lon="7.91379">
        <ele>124.6</ele>
        <time>2020-06-28T09:27:34Z</time>
      </trkpt>
      <trkpt lat="48.73828" lon="7.91372">
        <ele>124.6</ele>
        <time>2020-06-28T09:27:35Z</time>
      </trkpt>
      <trkpt lat="48.73825" lon="7.91366">
        <ele>124.6</ele>
        <time>2020-06-28T09:27:36Z</time>
      </trkpt>
      <trkpt lat="48.73821" lon="7.91358">
        <ele>124.6</ele>
        <time>2020-06-28T09:27:37Z</time>
      </trkpt>
      <trkpt lat="48.73818" lon="7.91352">
        <ele>124.6</ele>
        <time>2020-06-28T09:27:38Z</time>
      </trkpt>
      <trkpt lat="48.73814" lon="7.91346">
        <ele>124.6</ele>
        <time>2020-06-28T09:27:39Z</time>
      </trkpt>
      <trkpt lat="48.7381" lon="7.91341">
        <ele>124.6</ele>
        <time>2020-06-28T09:27:40Z</time>
      </trkpt>
      <trkpt lat="48.73806" lon="7.91335">
        <ele>124.6</ele>
        <time>2020-06-28T09:27:41Z</time>
      </trkpt>
      <trkpt lat="48.73802" lon="7.91328">
        <ele>124.6</ele>
        <time>2020-06-28T09:27:42Z</time>
      </trkpt>
      <trkpt lat="48.73799" lon="7.91323">
        <ele>124.7</ele>
        <time>2020-06-28T09:27:43Z</time>
      </trkpt>
      <trkpt lat="48.73795" lon="7.91317">
        <ele>124.7</ele>
        <time>2020-06-28T09:27:44Z</time>
      </trkpt>
      <trkpt lat="48.73792" lon="7.9131">
        <ele>124.7</ele>
        <time>2020-06-28T09:27:45Z</time>
      </trkpt>
      <trkpt lat="48.73788" lon="7.91304">
        <ele>124.7</ele>
        <time>2020-06-28T09:27:46Z</time>
      </trkpt>
      <trkpt lat="48.73784" lon="7.91296">
        <ele>124.7</ele>
        <time>2020-06-28T09:27:47Z</time>
      </trkpt>
      <trkpt lat="48.73779" lon="7.91289">
        <ele>124.7</ele>
        <time>2020-06-28T09:27:48Z</time>
      </trkpt>
      <trkpt lat="48.73775" lon="7.91282">
        <ele>124.7</ele>
        <time>2020-06-28T09:27:49Z</time>
      </trkpt>
      <trkpt lat="48.73771" lon="7.91276">
        <ele>124.7</ele>
        <time>2020-06-28T09:27:50Z</time>
      </trkpt>
      <trkpt lat="48.73767" lon="7.9127">
        <ele>124.7</ele>
        <time>2020-06-28T09:27:51Z</time>
      </trkpt>
      <trkpt lat="48.73763" lon="7.91264">
        <ele>124.7</ele>
        <time>2020-06-28T09:27:52Z</time>
      </trkpt>
      <trkpt lat="48.73759" lon="7.91259">
        <ele>124.7</ele>
        <time>2020-06-28T09:27:53Z</time>
      </trkpt>
      <trkpt lat="48.73754" lon="7.91253">
        <ele>124.8</ele>
        <time>2020-06-28T09:27:54Z</time>
      </trkpt>
      <trkpt lat="48.7375" lon="7.91248">
        <ele>124.8</ele>
        <time>2020-06-28T09:27:55Z</time>
      </trkpt>
      <trkpt lat="48.73745" lon="7.91243">
        <ele>124.8</ele>
        <time>2020-06-28T09:27:56Z</time>
      </trkpt>
      <trkpt lat="48.73741" lon="7.91238">
        <ele>124.8</ele>
        <time>2020-06-28T09:27:57Z</time>
      </trkpt>
      <trkpt lat="48.73736" lon="7.91232">
        <ele>124.8</ele>
        <time>2020-06-28T09:27:58Z</time>
      </trkpt>
      <trkpt lat="48.73731" lon="7.91226">
        <ele>124.8</ele>
        <time>2020-06-28T09:27:59Z</time>
      </trkpt>
      <trkpt lat="48.73726" lon="7.9122">
        <ele>124.8</ele>
        <time>2020-06-28T09:28:00Z</time>
      </trkpt>
      <trkpt lat="48.7372" lon="7.91215">
        <ele>124.8</ele>
        <time>2020-06-28T09:28:01Z</time>
      </trkpt>
      <trkpt lat="48.73715" lon="7.9121">
        <ele>124.8</ele>
        <time>2020-06-28T09:28:02Z</time>
      </trkpt>
      <trkpt lat="48.73709" lon="7.91206">
        <ele>124.8</ele>
        <time>2020-06-28T09:28:03Z</time>
      </trkpt>
      <trkpt lat="48.73704" lon="7.91201">
        <ele>124.7</ele>
        <time>2020-06-28T09:28:04Z</time>
      </trkpt>
      <trkpt lat="48.73698" lon="7.91197">
        <ele>124.7</ele>
        <time>2020-06-28T09:28:05Z</time>
      </trkpt>
      <trkpt lat="48.73692" lon="7.91193">
        <ele>124.8</ele>
        <time>2020-06-28T09:28:06Z</time>
      </trkpt>
      <trkpt lat="48.73687" lon="7.91188">
        <ele>124.8</ele>
        <time>2020-06-28T09:28:07Z</time>
      </trkpt>
      <trkpt lat="48.73681" lon="7.91183">
        <ele>124.8</ele>
        <time>2020-06-28T09:28:08Z</time>
      </trkpt>
      <trkpt lat="48.73675" lon="7.91178">
        <ele>124.8</ele>
        <time>2020-06-28T09:28:09Z</time>
      </trkpt>
      <trkpt lat="48.73669" lon="7.91173">
        <ele>124.8</ele>
        <time>2020-06-28T09:28:10Z</time>
      </trkpt>
      <trkpt lat="48.73664" lon="7.91169">
        <ele>124.7</ele>
        <time>2020-06-28T09:28:11Z</time>
      </trkpt>
      <trkpt lat="48.73659" lon="7.91165">
        <ele>124.7</ele>
        <time>2020-06-28T09:28:12Z</time>
      </trkpt>
      <trkpt lat="48.73654" lon="7.91161">
        <ele>124.7</ele>
        <time>2020-06-28T09:28:13Z</time>
      </trkpt>
      <trkpt lat="48.7365" lon="7.91158">
        <ele>124.7</ele>
        <time>2020-06-28T09:28:14Z</time>
      </trkpt>
      <trkpt lat="48.73645" lon="7.91155">
        <ele>124.6</ele>
        <time>2020-06-28T09:28:15Z</time>
      </trkpt>
      <trkpt lat="48.73641" lon="7.91152">
        <ele>124.6</ele>
        <time>2020-06-28T09:28:16Z</time>
      </trkpt>
      <trkpt lat="48.73636" lon="7.91149">
        <ele>124.7</ele>
        <time>2020-06-28T09:28:17Z</time>
      </trkpt>
      <trkpt lat="48.73632" lon="7.91147">
        <ele>124.7</ele>
        <time>2020-06-28T09:28:18Z</time>
      </trkpt>
      <trkpt lat="48.73627" lon="7.91143">
        <ele>124.7</ele>
        <time>2020-06-28T09:28:19Z</time>
      </trkpt>
      <trkpt lat="48.73622" lon="7.9114">
        <ele>124.7</ele>
        <time>2020-06-28T09:28:20Z</time>
      </trkpt>
      <trkpt lat="48.73618" lon="7.91136">
        <ele>124.7</ele>
        <time>2020-06-28T09:28:21Z</time>
      </trkpt>
      <trkpt lat="48.73614" lon="7.91133">
        <ele>124.7</ele>
        <time>2020-06-28T09:28:22Z</time>
      </trkpt>
      <trkpt lat="48.73609" lon="7.9113">
        <ele>124.7</ele>
        <time>2020-06-28T09:28:23Z</time>
      </trkpt>
      <trkpt lat="48.73604" lon="7.91127">
        <ele>124.7</ele>
        <time>2020-06-28T09:28:24Z</time>
      </trkpt>
      <trkpt lat="48.73598" lon="7.91124">
        <ele>124.8</ele>
        <time>2020-06-28T09:28:25Z</time>
      </trkpt>
      <trkpt lat="48.73593" lon="7.91121">
        <ele>124.8</ele>
        <time>2020-06-28T09:28:26Z</time>
      </trkpt>
      <trkpt lat="48.73587" lon="7.91118">
        <ele>124.9</ele>
        <time>2020-06-28T09:28:27Z</time>
      </trkpt>
      <trkpt lat="48.73583" lon="7.91116">
        <ele>124.9</ele>
        <time>2020-06-28T09:28:28Z</time>
      </trkpt>
      <trkpt lat="48.7358" lon="7.91114">
        <ele>124.9</ele>
        <time>2020-06-28T09:28:29Z</time>
      </trkpt>
      <trkpt lat="48.73578" lon="7.91112">
        <ele>124.9</ele>
        <time>2020-06-28T09:28:30Z</time>
      </trkpt>
      <trkpt lat="48.73576" lon="7.91111">
        <ele>124.9</ele>
        <time>2020-06-28T09:28:31Z</time>
      </trkpt>
      <trkpt lat="48.73575" lon="7.91111">
        <ele>124.9</ele>
        <time>2020-06-28T09:28:32Z</time>
      </trkpt>
      <trkpt lat="48.73574" lon="7.91111">
        <ele>124.9</ele>
        <time>2020-06-28T09:28:33Z</time>
      </trkpt>
      <trkpt lat="48.73572" lon="7.9111">
        <ele>124.9</ele>
        <time>2020-06-28T09:28:34Z</time>
      </trkpt>
      <trkpt lat="48.73571" lon="7.91109">
        <ele>124.9</ele>
        <time>2020-06-28T09:28:35Z</time>
      </trkpt>
      <trkpt lat="48.73571" lon="7.91109">
        <ele>124.9</ele>
        <time>2020-06-28T09:28:36Z</time>
      </trkpt>
      <trkpt lat="48.7357" lon="7.91108">
        <ele>124.9</ele>
        <time>2020-06-28T09:28:37Z</time>
      </trkpt>
      <trkpt lat="48.73568" lon="7.91104">
        <ele>124.8</ele>
        <time>2020-06-28T09:28:38Z</time>
      </trkpt>
      <trkpt lat="48.73567" lon="7.91103">
        <ele>124.8</ele>
        <time>2020-06-28T09:28:39Z</time>
      </trkpt>
      <trkpt lat="48.73564" lon="7.91099">
        <ele>124.8</ele>
        <time>2020-06-28T09:28:40Z</time>
      </trkpt>
      <trkpt lat="48.73562" lon="7.91098">
        <ele>124.8</ele>
        <time>2020-06-28T09:28:41Z</time>
      </trkpt>
      <trkpt lat="48.73558" lon="7.91095">
        <ele>124.8</ele>
        <time>2020-06-28T09:28:42Z</time>
      </trkpt>
      <trkpt lat="48.73555" lon="7.91092">
        <ele>124.8</ele>
        <time>2020-06-28T09:28:43Z</time>
      </trkpt>
      <trkpt lat="48.7355" lon="7.91091">
        <ele>124.8</ele>
        <time>2020-06-28T09:28:44Z</time>
      </trkpt>
      <trkpt lat="48.73546" lon="7.91091">
        <ele>124.8</ele>
        <time>2020-06-28T09:28:45Z</time>
      </trkpt>
      <trkpt lat="48.73542" lon="7.9109">
        <ele>124.8</ele>
        <time>2020-06-28T09:28:46Z</time>
      </trkpt>
      <trkpt lat="48.73537" lon="7.91087">
        <ele>124.8</ele>
        <time>2020-06-28T09:28:47Z</time>
      </trkpt>
      <trkpt lat="48.73532" lon="7.91087">
        <ele>124.7</ele>
        <time>2020-06-28T09:28:48Z</time>
      </trkpt>
      <trkpt lat="48.73527" lon="7.91086">
        <ele>124.7</ele>
        <time>2020-06-28T09:28:49Z</time>
      </trkpt>
      <trkpt lat="48.73522" lon="7.91083">
        <ele>124.7</ele>
        <time>2020-06-28T09:28:50Z</time>
      </trkpt>
      <trkpt lat="48.73517" lon="7.91082">
        <ele>124.6</ele>
        <time>2020-06-28T09:28:51Z</time>
      </trkpt>
      <trkpt lat="48.73513" lon="7.91082">
        <ele>124.6</ele>
        <time>2020-06-28T09:28:52Z</time>
      </trkpt>
      <trkpt lat="48.73508" lon="7.91081">
        <ele>124.6</ele>
        <time>2020-06-28T09:28:53Z</time>
      </trkpt>
      <trkpt lat="48.73504" lon="7.9108">
        <ele>124.6</ele>
        <time>2020-06-28T09:28:54Z</time>
      </trkpt>
      <trkpt lat="48.73499" lon="7.91079">
        <ele>124.6</ele>
        <time>2020-06-28T09:28:55Z</time>
      </trkpt>
      <trkpt lat="48.73494" lon="7.91079">
        <ele>124.5</ele>
        <time>2020-06-28T09:28:56Z</time>
      </trkpt>
      <trkpt lat="48.7349" lon="7.91078">
        <ele>124.5</ele>
        <time>2020-06-28T09:28:57Z</time>
      </trkpt>
      <trkpt lat="48.73484" lon="7.91077">
        <ele>124.5</ele>
        <time>2020-06-28T09:28:58Z</time>
      </trkpt>
      <trkpt lat="48.73479" lon="7.91075">
        <ele>124.5</ele>
        <time>2020-06-28T09:28:59Z</time>
      </trkpt>
      <trkpt lat="48.73474" lon="7.91075">
        <ele>124.5</ele>
        <time>2020-06-28T09:29:00Z</time>
      </trkpt>
      <trkpt lat="48.7347" lon="7.91073">
        <ele>124.5</ele>
        <time>2020-06-28T09:29:01Z</time>
      </trkpt>
      <trkpt lat="48.73465" lon="7.91071">
        <ele>124.5</ele>
        <time>2020-06-28T09:29:02Z</time>
      </trkpt>
      <trkpt lat="48.7346" lon="7.91069">
        <ele>124.5</ele>
        <time>2020-06-28T09:29:03Z</time>
      </trkpt>
      <trkpt lat="48.73455" lon="7.91068">
        <ele>124.5</ele>
        <time>2020-06-28T09:29:04Z</time>
      </trkpt>
      <trkpt lat="48.7345" lon="7.91067">
        <ele>124.5</ele>
        <time>2020-06-28T09:29:05Z</time>
      </trkpt>
      <trkpt lat="48.73445" lon="7.91067">
        <ele>124.4</ele>
        <time>2020-06-28T09:29:06Z</time>
      </trkpt>
      <trkpt lat="48.73439" lon="7.91066">
        <ele>124.3</ele>
        <time>2020-06-28T09:29:07Z</time>
      </trkpt>
      <trkpt lat="48.73435" lon="7.9107">
        <ele>124.3</ele>
        <time>2020-06-28T09:29:08Z</time>
      </trkpt>
      <trkpt lat="48.73431" lon="7.91072">
        <ele>124.3</ele>
        <time>2020-06-28T09:29:09Z</time>
      </trkpt>
      <trkpt lat="48.73427" lon="7.91075">
        <ele>124.4</ele>
        <time>2020-06-28T09:29:10Z</time>
      </trkpt>
      <trkpt lat="48.73423" lon="7.91078">
        <ele>124.4</ele>
        <time>2020-06-28T09:29:11Z</time>
      </trkpt>
      <trkpt lat="48.73418" lon="7.91079">
        <ele>124.5</ele>
        <time>2020-06-28T09:29:12Z</time>
      </trkpt>
      <trkpt lat="48.73413" lon="7.91081">
        <ele>124.5</ele>
        <time>2020-06-28T09:29:13Z</time>
      </trkpt>
      <trkpt lat="48.73406" lon="7.91082">
        <ele>124.6</ele>
        <time>2020-06-28T09:29:14Z</time>
      </trkpt>
      <trkpt lat="48.73402" lon="7.91085">
        <ele>124.6</ele>
        <time>2020-06-28T09:29:15Z</time>
      </trkpt>
      <trkpt lat="48.73397" lon="7.91084">
        <ele>124.6</ele>
        <time>2020-06-28T09:29:16Z</time>
      </trkpt>
      <trkpt lat="48.73391" lon="7.91084">
        <ele>124.7</ele>
        <time>2020-06-28T09:29:17Z</time>
      </trkpt>
      <trkpt lat="48.73385" lon="7.91085">
        <ele>124.7</ele>
        <time>2020-06-28T09:29:18Z</time>
      </trkpt>
      <trkpt lat="48.73381" lon="7.91085">
        <ele>124.7</ele>
        <time>2020-06-28T09:29:19Z</time>
      </trkpt>
      <trkpt lat="48.73375" lon="7.91085">
        <ele>124.8</ele>
        <time>2020-06-28T09:29:20Z</time>
      </trkpt>
      <trkpt lat="48.7337" lon="7.91085">
        <ele>124.8</ele>
        <time>2020-06-28T09:29:21Z</time>
      </trkpt>
      <trkpt lat="48.73364" lon="7.91085">
        <ele>124.8</ele>
        <time>2020-06-28T09:29:22Z</time>
      </trkpt>
      <trkpt lat="48.73359" lon="7.91083">
        <ele>124.8</ele>
        <time>2020-06-28T09:29:23Z</time>
      </trkpt>
      <trkpt lat="48.73354" lon="7.91081">
        <ele>124.8</ele>
        <time>2020-06-28T09:29:24Z</time>
      </trkpt>
      <trkpt lat="48.73348" lon="7.91079">
        <ele>124.9</ele>
        <time>2020-06-28T09:29:25Z</time>
      </trkpt>
      <trkpt lat="48.73343" lon="7.91077">
        <ele>124.9</ele>
        <time>2020-06-28T09:29:26Z</time>
      </trkpt>
      <trkpt lat="48.73337" lon="7.91077">
        <ele>125</ele>
        <time>2020-06-28T09:29:27Z</time>
      </trkpt>
      <trkpt lat="48.73333" lon="7.91075">
        <ele>125</ele>
        <time>2020-06-28T09:29:28Z</time>
      </trkpt>
      <trkpt lat="48.73329" lon="7.91073">
        <ele>125.1</ele>
        <time>2020-06-28T09:29:29Z</time>
      </trkpt>
      <trkpt lat="48.73324" lon="7.91069">
        <ele>125.1</ele>
        <time>2020-06-28T09:29:30Z</time>
      </trkpt>
      <trkpt lat="48.73319" lon="7.91067">
        <ele>125.1</ele>
        <time>2020-06-28T09:29:31Z</time>
      </trkpt>
      <trkpt lat="48.73314" lon="7.91064">
        <ele>125.1</ele>
        <time>2020-06-28T09:29:32Z</time>
      </trkpt>
      <trkpt lat="48.7331" lon="7.91059">
        <ele>125</ele>
        <time>2020-06-28T09:29:33Z</time>
      </trkpt>
      <trkpt lat="48.73305" lon="7.91056">
        <ele>125</ele>
        <time>2020-06-28T09:29:34Z</time>
      </trkpt>
      <trkpt lat="48.73299" lon="7.91051">
        <ele>125</ele>
        <time>2020-06-28T09:29:35Z</time>
      </trkpt>
      <trkpt lat="48.73295" lon="7.91046">
        <ele>125</ele>
        <time>2020-06-28T09:29:36Z</time>
      </trkpt>
      <trkpt lat="48.7329" lon="7.91043">
        <ele>125</ele>
        <time>2020-06-28T09:29:37Z</time>
      </trkpt>
      <trkpt lat="48.73285" lon="7.91039">
        <ele>125</ele>
        <time>2020-06-28T09:29:38Z</time>
      </trkpt>
      <trkpt lat="48.73281" lon="7.91034">
        <ele>125</ele>
        <time>2020-06-28T09:29:39Z</time>
      </trkpt>
      <trkpt lat="48.73277" lon="7.91028">
        <ele>125.1</ele>
        <time>2020-06-28T09:29:40Z</time>
      </trkpt>
      <trkpt lat="48.73272" lon="7.91022">
        <ele>125.1</ele>
        <time>2020-06-28T09:29:41Z</time>
      </trkpt>
      <trkpt lat="48.73268" lon="7.91015">
        <ele>125.1</ele>
        <time>2020-06-28T09:29:42Z</time>
      </trkpt>
      <trkpt lat="48.73263" lon="7.9101">
        <ele>125.2</ele>
        <time>2020-06-28T09:29:43Z</time>
      </trkpt>
      <trkpt lat="48.7326" lon="7.91002">
        <ele>125.2</ele>
        <time>2020-06-28T09:29:44Z</time>
      </trkpt>
      <trkpt lat="48.73256" lon="7.90996">
        <ele>125.2</ele>
        <time>2020-06-28T09:29:45Z</time>
      </trkpt>
      <trkpt lat="48.73253" lon="7.9099">
        <ele>125.2</ele>
        <time>2020-06-28T09:29:46Z</time>
      </trkpt>
      <trkpt lat="48.7325" lon="7.90984">
        <ele>125.2</ele>
        <time>2020-06-28T09:29:47Z</time>
      </trkpt>
      <trkpt lat="48.73247" lon="7.90978">
        <ele>125.2</ele>
        <time>2020-06-28T09:29:48Z</time>
      </trkpt>
      <trkpt lat="48.73243" lon="7.9097">
        <ele>125.1</ele>
        <time>2020-06-28T09:29:49Z</time>
      </trkpt>
      <trkpt lat="48.7324" lon="7.90964">
        <ele>125.1</ele>
        <time>2020-06-28T09:29:50Z</time>
      </trkpt>
      <trkpt lat="48.73236" lon="7.90958">
        <ele>125.1</ele>
        <time>2020-06-28T09:29:51Z</time>
      </trkpt>
      <trkpt lat="48.73233" lon="7.90951">
        <ele>125.1</ele>
        <time>2020-06-28T09:29:52Z</time>
      </trkpt>
      <trkpt lat="48.7323" lon="7.90944">
        <ele>125.1</ele>
        <time>2020-06-28T09:29:53Z</time>
      </trkpt>
      <trkpt lat="48.73226" lon="7.90939">
        <ele>125.1</ele>
        <time>2020-06-28T09:29:54Z</time>
      </trkpt>
      <trkpt lat="48.73223" lon="7.90933">
        <ele>125.1</ele>
        <time>2020-06-28T09:29:55Z</time>
      </trkpt>
      <trkpt lat="48.7322" lon="7.90927">
        <ele>125</ele>
        <time>2020-06-28T09:29:56Z</time>
      </trkpt>
      <trkpt lat="48.73216" lon="7.90921">
        <ele>125</ele>
        <time>2020-06-28T09:29:57Z</time>
      </trkpt>
      <trkpt lat="48.73212" lon="7.90916">
        <ele>125</ele>
        <time>2020-06-28T09:29:58Z</time>
      </trkpt>
      <trkpt lat="48.73209" lon="7.90909">
        <ele>125</ele>
        <time>2020-06-28T09:29:59Z</time>
      </trkpt>
      <trkpt lat="48.73205" lon="7.90903">
        <ele>125</ele>
        <time>2020-06-28T09:30:00Z</time>
      </trkpt>
      <trkpt lat="48.73201" lon="7.90897">
        <ele>125</ele>
        <time>2020-06-28T09:30:01Z</time>
      </trkpt>
      <trkpt lat="48.73198" lon="7.90891">
        <ele>125</ele>
        <time>2020-06-28T09:30:02Z</time>
      </trkpt>
      <trkpt lat="48.73194" lon="7.90885">
        <ele>125</ele>
        <time>2020-06-28T09:30:03Z</time>
      </trkpt>
      <trkpt lat="48.73191" lon="7.90879">
        <ele>125</ele>
        <time>2020-06-28T09:30:04Z</time>
      </trkpt>
      <trkpt lat="48.73187" lon="7.90873">
        <ele>125</ele>
        <time>2020-06-28T09:30:05Z</time>
      </trkpt>
      <trkpt lat="48.73184" lon="7.90866">
        <ele>125.1</ele>
        <time>2020-06-28T09:30:06Z</time>
      </trkpt>
      <trkpt lat="48.73181" lon="7.90861">
        <ele>125.1</ele>
        <time>2020-06-28T09:30:07Z</time>
      </trkpt>
      <trkpt lat="48.73177" lon="7.90854">
        <ele>125.1</ele>
        <time>2020-06-28T09:30:08Z</time>
      </trkpt>
      <trkpt lat="48.73174" lon="7.9085">
        <ele>125.1</ele>
        <time>2020-06-28T09:30:09Z</time>
      </trkpt>
      <trkpt lat="48.7317" lon="7.90843">
        <ele>125.1</ele>
        <time>2020-06-28T09:30:10Z</time>
      </trkpt>
      <trkpt lat="48.73167" lon="7.90835">
        <ele>125.1</ele>
        <time>2020-06-28T09:30:11Z</time>
      </trkpt>
      <trkpt lat="48.73163" lon="7.90831">
        <ele>125.1</ele>
        <time>2020-06-28T09:30:12Z</time>
      </trkpt>
      <trkpt lat="48.7316" lon="7.90824">
        <ele>125.1</ele>
        <time>2020-06-28T09:30:13Z</time>
      </trkpt>
      <trkpt lat="48.73156" lon="7.90818">
        <ele>125.1</ele>
        <time>2020-06-28T09:30:14Z</time>
      </trkpt>
      <trkpt lat="48.73152" lon="7.90812">
        <ele>125.2</ele>
        <time>2020-06-28T09:30:15Z</time>
      </trkpt>
      <trkpt lat="48.73148" lon="7.90807">
        <ele>125.2</ele>
        <time>2020-06-28T09:30:16Z</time>
      </trkpt>
      <trkpt lat="48.73144" lon="7.90801">
        <ele>125.2</ele>
        <time>2020-06-28T09:30:17Z</time>
      </trkpt>
      <trkpt lat="48.73141" lon="7.90796">
        <ele>125.2</ele>
        <time>2020-06-28T09:30:18Z</time>
      </trkpt>
      <trkpt lat="48.73138" lon="7.90791">
        <ele>125.2</ele>
        <time>2020-06-28T09:30:19Z</time>
      </trkpt>
      <trkpt lat="48.73135" lon="7.90787">
        <ele>125.2</ele>
        <time>2020-06-28T09:30:20Z</time>
      </trkpt>
      <trkpt lat="48.73131" lon="7.90782">
        <ele>125.3</ele>
        <time>2020-06-28T09:30:21Z</time>
      </trkpt>
      <trkpt lat="48.73128" lon="7.90776">
        <ele>125.3</ele>
        <time>2020-06-28T09:30:22Z</time>
      </trkpt>
      <trkpt lat="48.73125" lon="7.90771">
        <ele>125.3</ele>
        <time>2020-06-28T09:30:23Z</time>
      </trkpt>
      <trkpt lat="48.73121" lon="7.90766">
        <ele>125.3</ele>
        <time>2020-06-28T09:30:24Z</time>
      </trkpt>
      <trkpt lat="48.73117" lon="7.90761">
        <ele>125.3</ele>
        <time>2020-06-28T09:30:25Z</time>
      </trkpt>
      <trkpt lat="48.73114" lon="7.90756">
        <ele>125.3</ele>
        <time>2020-06-28T09:30:26Z</time>
      </trkpt>
      <trkpt lat="48.7311" lon="7.90752">
        <ele>125.4</ele>
        <time>2020-06-28T09:30:27Z</time>
      </trkpt>
      <trkpt lat="48.73105" lon="7.90748">
        <ele>125.4</ele>
        <time>2020-06-28T09:30:28Z</time>
      </trkpt>
      <trkpt lat="48.73101" lon="7.90745">
        <ele>125.4</ele>
        <time>2020-06-28T09:30:29Z</time>
      </trkpt>
      <trkpt lat="48.73097" lon="7.90739">
        <ele>125.4</ele>
        <time>2020-06-28T09:30:30Z</time>
      </trkpt>
      <trkpt lat="48.73093" lon="7.90734">
        <ele>125.4</ele>
        <time>2020-06-28T09:30:31Z</time>
      </trkpt>
      <trkpt lat="48.73089" lon="7.9073">
        <ele>125.5</ele>
        <time>2020-06-28T09:30:32Z</time>
      </trkpt>
      <trkpt lat="48.73086" lon="7.90726">
        <ele>125.5</ele>
        <time>2020-06-28T09:30:33Z</time>
      </trkpt>
      <trkpt lat="48.73081" lon="7.90722">
        <ele>125.5</ele>
        <time>2020-06-28T09:30:34Z</time>
      </trkpt>
      <trkpt lat="48.73077" lon="7.90717">
        <ele>125.5</ele>
        <time>2020-06-28T09:30:35Z</time>
      </trkpt>
      <trkpt lat="48.73073" lon="7.90713">
        <ele>125.5</ele>
        <time>2020-06-28T09:30:36Z</time>
      </trkpt>
      <trkpt lat="48.73069" lon="7.9071">
        <ele>125.6</ele>
        <time>2020-06-28T09:30:37Z</time>
      </trkpt>
      <trkpt lat="48.73066" lon="7.90708">
        <ele>125.6</ele>
        <time>2020-06-28T09:30:38Z</time>
      </trkpt>
      <trkpt lat="48.73063" lon="7.90706">
        <ele>125.6</ele>
        <time>2020-06-28T09:30:39Z</time>
      </trkpt>
      <trkpt lat="48.73061" lon="7.90699">
        <ele>125.6</ele>
        <time>2020-06-28T09:30:40Z</time>
      </trkpt>
      <trkpt lat="48.73059" lon="7.90695">
        <ele>125.6</ele>
        <time>2020-06-28T09:30:41Z</time>
      </trkpt>
      <trkpt lat="48.73055" lon="7.90692">
        <ele>125.7</ele>
        <time>2020-06-28T09:30:42Z</time>
      </trkpt>
      <trkpt lat="48.7305" lon="7.90689">
        <ele>125.6</ele>
        <time>2020-06-28T09:30:43Z</time>
      </trkpt>
      <trkpt lat="48.73046" lon="7.90688">
        <ele>125.6</ele>
        <time>2020-06-28T09:30:44Z</time>
      </trkpt>
      <trkpt lat="48.73042" lon="7.90687">
        <ele>125.6</ele>
        <time>2020-06-28T09:30:45Z</time>
      </trkpt>
      <trkpt lat="48.73038" lon="7.90685">
        <ele>125.5</ele>
        <time>2020-06-28T09:30:46Z</time>
      </trkpt>
      <trkpt lat="48.73033" lon="7.90683">
        <ele>125.5</ele>
        <time>2020-06-28T09:30:47Z</time>
      </trkpt>
      <trkpt lat="48.73028" lon="7.90679">
        <ele>125.5</ele>
        <time>2020-06-28T09:30:48Z</time>
      </trkpt>
      <trkpt lat="48.73022" lon="7.90677">
        <ele>125.5</ele>
        <time>2020-06-28T09:30:49Z</time>
      </trkpt>
      <trkpt lat="48.73017" lon="7.90673">
        <ele>125.5</ele>
        <time>2020-06-28T09:30:50Z</time>
      </trkpt>
      <trkpt lat="48.73012" lon="7.9067">
        <ele>125.5</ele>
        <time>2020-06-28T09:30:51Z</time>
      </trkpt>
      <trkpt lat="48.73006" lon="7.90668">
        <ele>125.5</ele>
        <time>2020-06-28T09:30:52Z</time>
      </trkpt>
      <trkpt lat="48.73001" lon="7.90665">
        <ele>125.5</ele>
        <time>2020-06-28T09:30:53Z</time>
      </trkpt>
      <trkpt lat="48.72996" lon="7.90663">
        <ele>125.5</ele>
        <time>2020-06-28T09:30:54Z</time>
      </trkpt>
      <trkpt lat="48.7299" lon="7.90661">
        <ele>125.5</ele>
        <time>2020-06-28T09:30:55Z</time>
      </trkpt>
      <trkpt lat="48.72984" lon="7.90659">
        <ele>125.4</ele>
        <time>2020-06-28T09:30:56Z</time>
      </trkpt>
      <trkpt lat="48.72979" lon="7.90657">
        <ele>125.4</ele>
        <time>2020-06-28T09:30:57Z</time>
      </trkpt>
      <trkpt lat="48.72974" lon="7.90656">
        <ele>125.4</ele>
        <time>2020-06-28T09:30:58Z</time>
      </trkpt>
      <trkpt lat="48.7297" lon="7.90652">
        <ele>125.4</ele>
        <time>2020-06-28T09:30:59Z</time>
      </trkpt>
      <trkpt lat="48.72965" lon="7.9065">
        <ele>125.4</ele>
        <time>2020-06-28T09:31:00Z</time>
      </trkpt>
      <trkpt lat="48.72961" lon="7.90648">
        <ele>125.4</ele>
        <time>2020-06-28T09:31:01Z</time>
      </trkpt>
      <trkpt lat="48.72956" lon="7.90645">
        <ele>125.4</ele>
        <time>2020-06-28T09:31:02Z</time>
      </trkpt>
      <trkpt lat="48.72952" lon="7.90643">
        <ele>125.4</ele>
        <time>2020-06-28T09:31:03Z</time>
      </trkpt>
      <trkpt lat="48.72948" lon="7.9064">
        <ele>125.4</ele>
        <time>2020-06-28T09:31:04Z</time>
      </trkpt>
      <trkpt lat="48.72944" lon="7.90637">
        <ele>125.4</ele>
        <time>2020-06-28T09:31:05Z</time>
      </trkpt>
      <trkpt lat="48.7294" lon="7.90634">
        <ele>125.5</ele>
        <time>2020-06-28T09:31:06Z</time>
      </trkpt>
      <trkpt lat="48.72936" lon="7.90631">
        <ele>125.6</ele>
        <time>2020-06-28T09:31:07Z</time>
      </trkpt>
      <trkpt lat="48.72931" lon="7.90628">
        <ele>125.6</ele>
        <time>2020-06-28T09:31:08Z</time>
      </trkpt>
      <trkpt lat="48.72927" lon="7.90625">
        <ele>125.7</ele>
        <time>2020-06-28T09:31:09Z</time>
      </trkpt>
      <trkpt lat="48.72922" lon="7.90622">
        <ele>125.8</ele>
        <time>2020-06-28T09:31:10Z</time>
      </trkpt>
      <trkpt lat="48.72918" lon="7.90622">
        <ele>125.8</ele>
        <time>2020-06-28T09:31:11Z</time>
      </trkpt>
      <trkpt lat="48.72914" lon="7.90621">
        <ele>125.9</ele>
        <time>2020-06-28T09:31:12Z</time>
      </trkpt>
      <trkpt lat="48.7291" lon="7.90619">
        <ele>126</ele>
        <time>2020-06-28T09:31:13Z</time>
      </trkpt>
      <trkpt lat="48.72906" lon="7.90616">
        <ele>126.1</ele>
        <time>2020-06-28T09:31:14Z</time>
      </trkpt>
      <trkpt lat="48.72903" lon="7.90611">
        <ele>126.1</ele>
        <time>2020-06-28T09:31:15Z</time>
      </trkpt>
      <trkpt lat="48.72899" lon="7.90606">
        <ele>126.1</ele>
        <time>2020-06-28T09:31:16Z</time>
      </trkpt>
      <trkpt lat="48.72895" lon="7.90603">
        <ele>126.1</ele>
        <time>2020-06-28T09:31:17Z</time>
      </trkpt>
      <trkpt lat="48.72892" lon="7.906">
        <ele>126.1</ele>
        <time>2020-06-28T09:31:18Z</time>
      </trkpt>
      <trkpt lat="48.72888" lon="7.90598">
        <ele>126.2</ele>
        <time>2020-06-28T09:31:19Z</time>
      </trkpt>
      <trkpt lat="48.72885" lon="7.90598">
        <ele>126.2</ele>
        <time>2020-06-28T09:31:20Z</time>
      </trkpt>
      <trkpt lat="48.72882" lon="7.906">
        <ele>126.3</ele>
        <time>2020-06-28T09:31:21Z</time>
      </trkpt>
      <trkpt lat="48.7288" lon="7.90604">
        <ele>126.3</ele>
        <time>2020-06-28T09:31:22Z</time>
      </trkpt>
      <trkpt lat="48.72879" lon="7.90612">
        <ele>126.3</ele>
        <time>2020-06-28T09:31:23Z</time>
      </trkpt>
      <trkpt lat="48.72877" lon="7.90618">
        <ele>126.2</ele>
        <time>2020-06-28T09:31:24Z</time>
      </trkpt>
      <trkpt lat="48.72874" lon="7.90623">
        <ele>126.2</ele>
        <time>2020-06-28T09:31:25Z</time>
      </trkpt>
      <trkpt lat="48.72871" lon="7.90627">
        <ele>126.1</ele>
        <time>2020-06-28T09:31:26Z</time>
      </trkpt>
      <trkpt lat="48.72866" lon="7.90629">
        <ele>126</ele>
        <time>2020-06-28T09:31:27Z</time>
      </trkpt>
      <trkpt lat="48.72861" lon="7.9063">
        <ele>126</ele>
        <time>2020-06-28T09:31:28Z</time>
      </trkpt>
      <trkpt lat="48.72857" lon="7.90632">
        <ele>125.9</ele>
        <time>2020-06-28T09:31:29Z</time>
      </trkpt>
      <trkpt lat="48.72853" lon="7.90634">
        <ele>125.9</ele>
        <time>2020-06-28T09:31:30Z</time>
      </trkpt>
      <trkpt lat="48.7285" lon="7.90637">
        <ele>125.8</ele>
        <time>2020-06-28T09:31:31Z</time>
      </trkpt>
      <trkpt lat="48.72845" lon="7.90639">
        <ele>125.8</ele>
        <time>2020-06-28T09:31:32Z</time>
      </trkpt>
      <trkpt lat="48.7284" lon="7.90641">
        <ele>125.7</ele>
        <time>2020-06-28T09:31:33Z</time>
      </trkpt>
      <trkpt lat="48.72836" lon="7.90643">
        <ele>125.7</ele>
        <time>2020-06-28T09:31:34Z</time>
      </trkpt>
      <trkpt lat="48.72831" lon="7.90642">
        <ele>125.7</ele>
        <time>2020-06-28T09:31:35Z</time>
      </trkpt>
      <trkpt lat="48.72826" lon="7.90643">
        <ele>125.6</ele>
        <time>2020-06-28T09:31:36Z</time>
      </trkpt>
      <trkpt lat="48.72822" lon="7.90643">
        <ele>125.6</ele>
        <time>2020-06-28T09:31:37Z</time>
      </trkpt>
      <trkpt lat="48.72818" lon="7.90644">
        <ele>125.6</ele>
        <time>2020-06-28T09:31:38Z</time>
      </trkpt>
      <trkpt lat="48.72815" lon="7.90648">
        <ele>125.6</ele>
        <time>2020-06-28T09:31:39Z</time>
      </trkpt>
      <trkpt lat="48.72813" lon="7.90653">
        <ele>125.6</ele>
        <time>2020-06-28T09:31:40Z</time>
      </trkpt>
      <trkpt lat="48.72812" lon="7.90661">
        <ele>125.6</ele>
        <time>2020-06-28T09:31:41Z</time>
      </trkpt>
      <trkpt lat="48.7281" lon="7.9067">
        <ele>125.6</ele>
        <time>2020-06-28T09:31:42Z</time>
      </trkpt>
      <trkpt lat="48.72809" lon="7.90679">
        <ele>125.6</ele>
        <time>2020-06-28T09:31:43Z</time>
      </trkpt>
      <trkpt lat="48.72808" lon="7.90687">
        <ele>125.6</ele>
        <time>2020-06-28T09:31:44Z</time>
      </trkpt>
      <trkpt lat="48.72807" lon="7.90695">
        <ele>125.6</ele>
        <time>2020-06-28T09:31:45Z</time>
      </trkpt>
      <trkpt lat="48.72806" lon="7.90703">
        <ele>125.6</ele>
        <time>2020-06-28T09:31:46Z</time>
      </trkpt>
      <trkpt lat="48.72807" lon="7.9071">
        <ele>125.6</ele>
        <time>2020-06-28T09:31:47Z</time>
      </trkpt>
      <trkpt lat="48.72805" lon="7.90719">
        <ele>125.6</ele>
        <time>2020-06-28T09:31:48Z</time>
      </trkpt>
      <trkpt lat="48.72805" lon="7.90726">
        <ele>125.6</ele>
        <time>2020-06-28T09:31:49Z</time>
      </trkpt>
      <trkpt lat="48.72805" lon="7.90734">
        <ele>125.5</ele>
        <time>2020-06-28T09:31:50Z</time>
      </trkpt>
      <trkpt lat="48.72803" lon="7.90741">
        <ele>125.5</ele>
        <time>2020-06-28T09:31:51Z</time>
      </trkpt>
      <trkpt lat="48.72802" lon="7.90749">
        <ele>125.5</ele>
        <time>2020-06-28T09:31:52Z</time>
      </trkpt>
      <trkpt lat="48.72801" lon="7.90754">
        <ele>125.5</ele>
        <time>2020-06-28T09:31:53Z</time>
      </trkpt>
      <trkpt lat="48.72798" lon="7.90759">
        <ele>125.5</ele>
        <time>2020-06-28T09:31:54Z</time>
      </trkpt>
      <trkpt lat="48.72794" lon="7.90764">
        <ele>125.4</ele>
        <time>2020-06-28T09:31:55Z</time>
      </trkpt>
      <trkpt lat="48.72789" lon="7.90767">
        <ele>125.4</ele>
        <time>2020-06-28T09:31:56Z</time>
      </trkpt>
      <trkpt lat="48.72783" lon="7.90768">
        <ele>125.4</ele>
        <time>2020-06-28T09:31:57Z</time>
      </trkpt>
      <trkpt lat="48.72779" lon="7.90769">
        <ele>125.4</ele>
        <time>2020-06-28T09:31:58Z</time>
      </trkpt>
      <trkpt lat="48.72775" lon="7.9077">
        <ele>125.3</ele>
        <time>2020-06-28T09:31:59Z</time>
      </trkpt>
      <trkpt lat="48.7277" lon="7.90772">
        <ele>125.3</ele>
        <time>2020-06-28T09:32:00Z</time>
      </trkpt>
      <trkpt lat="48.72765" lon="7.90774">
        <ele>125.3</ele>
        <time>2020-06-28T09:32:01Z</time>
      </trkpt>
      <trkpt lat="48.7276" lon="7.90775">
        <ele>125.3</ele>
        <time>2020-06-28T09:32:02Z</time>
      </trkpt>
      <trkpt lat="48.72756" lon="7.90776">
        <ele>125.3</ele>
        <time>2020-06-28T09:32:03Z</time>
      </trkpt>
      <trkpt lat="48.72751" lon="7.90776">
        <ele>125.3</ele>
        <time>2020-06-28T09:32:04Z</time>
      </trkpt>
      <trkpt lat="48.72745" lon="7.90776">
        <ele>125.2</ele>
        <time>2020-06-28T09:32:05Z</time>
      </trkpt>
      <trkpt lat="48.72739" lon="7.90776">
        <ele>125.2</ele>
        <time>2020-06-28T09:32:06Z</time>
      </trkpt>
      <trkpt lat="48.72734" lon="7.90776">
        <ele>125.2</ele>
        <time>2020-06-28T09:32:07Z</time>
      </trkpt>
      <trkpt lat="48.72728" lon="7.90778">
        <ele>125.2</ele>
        <time>2020-06-28T09:32:08Z</time>
      </trkpt>
      <trkpt lat="48.72722" lon="7.90778">
        <ele>125.2</ele>
        <time>2020-06-28T09:32:09Z</time>
      </trkpt>
      <trkpt lat="48.72718" lon="7.90779">
        <ele>125.2</ele>
        <time>2020-06-28T09:32:10Z</time>
      </trkpt>
      <trkpt lat="48.72714" lon="7.90781">
        <ele>125.2</ele>
        <time>2020-06-28T09:32:11Z</time>
      </trkpt>
      <trkpt lat="48.72709" lon="7.90781">
        <ele>125.2</ele>
        <time>2020-06-28T09:32:12Z</time>
      </trkpt>
      <trkpt lat="48.72704" lon="7.90783">
        <ele>125.2</ele>
        <time>2020-06-28T09:32:13Z</time>
      </trkpt>
      <trkpt lat="48.727" lon="7.90785">
        <ele>125.2</ele>
        <time>2020-06-28T09:32:14Z</time>
      </trkpt>
      <trkpt lat="48.72695" lon="7.90785">
        <ele>125.3</ele>
        <time>2020-06-28T09:32:15Z</time>
      </trkpt>
      <trkpt lat="48.7269" lon="7.90785">
        <ele>125.3</ele>
        <time>2020-06-28T09:32:16Z</time>
      </trkpt>
      <trkpt lat="48.72685" lon="7.90786">
        <ele>125.3</ele>
        <time>2020-06-28T09:32:17Z</time>
      </trkpt>
      <trkpt lat="48.72679" lon="7.90787">
        <ele>125.4</ele>
        <time>2020-06-28T09:32:18Z</time>
      </trkpt>
      <trkpt lat="48.72674" lon="7.9079">
        <ele>125.4</ele>
        <time>2020-06-28T09:32:19Z</time>
      </trkpt>
      <trkpt lat="48.72668" lon="7.90792">
        <ele>125.4</ele>
        <time>2020-06-28T09:32:20Z</time>
      </trkpt>
      <trkpt lat="48.72662" lon="7.90793">
        <ele>125.5</ele>
        <time>2020-06-28T09:32:21Z</time>
      </trkpt>
      <trkpt lat="48.72657" lon="7.90795">
        <ele>125.5</ele>
        <time>2020-06-28T09:32:22Z</time>
      </trkpt>
      <trkpt lat="48.72652" lon="7.90796">
        <ele>125.5</ele>
        <time>2020-06-28T09:32:23Z</time>
      </trkpt>
      <trkpt lat="48.72646" lon="7.90799">
        <ele>125.5</ele>
        <time>2020-06-28T09:32:24Z</time>
      </trkpt>
      <trkpt lat="48.72638" lon="7.90799">
        <ele>125.5</ele>
        <time>2020-06-28T09:32:25Z</time>
      </trkpt>
      <trkpt lat="48.72634" lon="7.90802">
        <ele>125.5</ele>
        <time>2020-06-28T09:32:26Z</time>
      </trkpt>
      <trkpt lat="48.72628" lon="7.90803">
        <ele>125.4</ele>
        <time>2020-06-28T09:32:27Z</time>
      </trkpt>
      <trkpt lat="48.72622" lon="7.90803">
        <ele>125.4</ele>
        <time>2020-06-28T09:32:28Z</time>
      </trkpt>
      <trkpt lat="48.72616" lon="7.90805">
        <ele>125.4</ele>
        <time>2020-06-28T09:32:29Z</time>
      </trkpt>
      <trkpt lat="48.7261" lon="7.90807">
        <ele>125.4</ele>
        <time>2020-06-28T09:32:30Z</time>
      </trkpt>
      <trkpt lat="48.72604" lon="7.90809">
        <ele>125.5</ele>
        <time>2020-06-28T09:32:31Z</time>
      </trkpt>
      <trkpt lat="48.72599" lon="7.90809">
        <ele>125.5</ele>
        <time>2020-06-28T09:32:32Z</time>
      </trkpt>
      <trkpt lat="48.72593" lon="7.90809">
        <ele>125.5</ele>
        <time>2020-06-28T09:32:33Z</time>
      </trkpt>
      <trkpt lat="48.72588" lon="7.90809">
        <ele>125.6</ele>
        <time>2020-06-28T09:32:34Z</time>
      </trkpt>
      <trkpt lat="48.72582" lon="7.9081">
        <ele>125.6</ele>
        <time>2020-06-28T09:32:35Z</time>
      </trkpt>
      <trkpt lat="48.72574" lon="7.90809">
        <ele>125.7</ele>
        <time>2020-06-28T09:32:36Z</time>
      </trkpt>
      <trkpt lat="48.72569" lon="7.9081">
        <ele>125.7</ele>
        <time>2020-06-28T09:32:37Z</time>
      </trkpt>
      <trkpt lat="48.72563" lon="7.90812">
        <ele>125.7</ele>
        <time>2020-06-28T09:32:38Z</time>
      </trkpt>
      <trkpt lat="48.72557" lon="7.90813">
        <ele>125.8</ele>
        <time>2020-06-28T09:32:39Z</time>
      </trkpt>
      <trkpt lat="48.72551" lon="7.90814">
        <ele>125.8</ele>
        <time>2020-06-28T09:32:40Z</time>
      </trkpt>
      <trkpt lat="48.72546" lon="7.90816">
        <ele>125.8</ele>
        <time>2020-06-28T09:32:41Z</time>
      </trkpt>
      <trkpt lat="48.72541" lon="7.90815">
        <ele>125.8</ele>
        <time>2020-06-28T09:32:42Z</time>
      </trkpt>
      <trkpt lat="48.72536" lon="7.90817">
        <ele>125.9</ele>
        <time>2020-06-28T09:32:43Z</time>
      </trkpt>
      <trkpt lat="48.72531" lon="7.9082">
        <ele>125.9</ele>
        <time>2020-06-28T09:32:44Z</time>
      </trkpt>
      <trkpt lat="48.72526" lon="7.90821">
        <ele>125.9</ele>
        <time>2020-06-28T09:32:45Z</time>
      </trkpt>
      <trkpt lat="48.72522" lon="7.90821">
        <ele>125.9</ele>
        <time>2020-06-28T09:32:46Z</time>
      </trkpt>
      <trkpt lat="48.72517" lon="7.90822">
        <ele>125.8</ele>
        <time>2020-06-28T09:32:47Z</time>
      </trkpt>
      <trkpt lat="48.72513" lon="7.90821">
        <ele>125.8</ele>
        <time>2020-06-28T09:32:48Z</time>
      </trkpt>
      <trkpt lat="48.72507" lon="7.90821">
        <ele>125.8</ele>
        <time>2020-06-28T09:32:49Z</time>
      </trkpt>
      <trkpt lat="48.72502" lon="7.90822">
        <ele>125.8</ele>
        <time>2020-06-28T09:32:50Z</time>
      </trkpt>
      <trkpt lat="48.72497" lon="7.90822">
        <ele>125.8</ele>
        <time>2020-06-28T09:32:51Z</time>
      </trkpt>
      <trkpt lat="48.72491" lon="7.90824">
        <ele>125.8</ele>
        <time>2020-06-28T09:32:52Z</time>
      </trkpt>
      <trkpt lat="48.72485" lon="7.90824">
        <ele>125.7</ele>
        <time>2020-06-28T09:32:53Z</time>
      </trkpt>
      <trkpt lat="48.72479" lon="7.90825">
        <ele>125.7</ele>
        <time>2020-06-28T09:32:54Z</time>
      </trkpt>
      <trkpt lat="48.72475" lon="7.90826">
        <ele>125.7</ele>
        <time>2020-06-28T09:32:55Z</time>
      </trkpt>
      <trkpt lat="48.7247" lon="7.90827">
        <ele>125.6</ele>
        <time>2020-06-28T09:32:56Z</time>
      </trkpt>
      <trkpt lat="48.72466" lon="7.90827">
        <ele>125.6</ele>
        <time>2020-06-28T09:32:57Z</time>
      </trkpt>
      <trkpt lat="48.72461" lon="7.90829">
        <ele>125.6</ele>
        <time>2020-06-28T09:32:58Z</time>
      </trkpt>
      <trkpt lat="48.72455" lon="7.9083">
        <ele>125.6</ele>
        <time>2020-06-28T09:32:59Z</time>
      </trkpt>
      <trkpt lat="48.7245" lon="7.90832">
        <ele>125.6</ele>
        <time>2020-06-28T09:33:00Z</time>
      </trkpt>
      <trkpt lat="48.72445" lon="7.90835">
        <ele>125.6</ele>
        <time>2020-06-28T09:33:01Z</time>
      </trkpt>
      <trkpt lat="48.7244" lon="7.90836">
        <ele>125.6</ele>
        <time>2020-06-28T09:33:02Z</time>
      </trkpt>
      <trkpt lat="48.72435" lon="7.90838">
        <ele>125.6</ele>
        <time>2020-06-28T09:33:03Z</time>
      </trkpt>
      <trkpt lat="48.72429" lon="7.90839">
        <ele>125.5</ele>
        <time>2020-06-28T09:33:04Z</time>
      </trkpt>
      <trkpt lat="48.72423" lon="7.9084">
        <ele>125.5</ele>
        <time>2020-06-28T09:33:05Z</time>
      </trkpt>
      <trkpt lat="48.72417" lon="7.90841">
        <ele>125.5</ele>
        <time>2020-06-28T09:33:06Z</time>
      </trkpt>
      <trkpt lat="48.72411" lon="7.90842">
        <ele>125.5</ele>
        <time>2020-06-28T09:33:07Z</time>
      </trkpt>
      <trkpt lat="48.72406" lon="7.90844">
        <ele>125.5</ele>
        <time>2020-06-28T09:33:08Z</time>
      </trkpt>
      <trkpt lat="48.724" lon="7.90844">
        <ele>125.5</ele>
        <time>2020-06-28T09:33:09Z</time>
      </trkpt>
      <trkpt lat="48.72395" lon="7.90846">
        <ele>125.5</ele>
        <time>2020-06-28T09:33:10Z</time>
      </trkpt>
      <trkpt lat="48.72389" lon="7.90848">
        <ele>125.5</ele>
        <time>2020-06-28T09:33:11Z</time>
      </trkpt>
      <trkpt lat="48.72384" lon="7.9085">
        <ele>125.5</ele>
        <time>2020-06-28T09:33:12Z</time>
      </trkpt>
      <trkpt lat="48.72379" lon="7.90851">
        <ele>125.5</ele>
        <time>2020-06-28T09:33:13Z</time>
      </trkpt>
      <trkpt lat="48.72374" lon="7.90852">
        <ele>125.5</ele>
        <time>2020-06-28T09:33:14Z</time>
      </trkpt>
      <trkpt lat="48.72368" lon="7.90853">
        <ele>125.5</ele>
        <time>2020-06-28T09:33:15Z</time>
      </trkpt>
      <trkpt lat="48.72363" lon="7.90854">
        <ele>125.5</ele>
        <time>2020-06-28T09:33:16Z</time>
      </trkpt>
      <trkpt lat="48.72358" lon="7.90855">
        <ele>125.5</ele>
        <time>2020-06-28T09:33:17Z</time>
      </trkpt>
      <trkpt lat="48.72353" lon="7.90856">
        <ele>125.5</ele>
        <time>2020-06-28T09:33:18Z</time>
      </trkpt>
      <trkpt lat="48.72347" lon="7.90858">
        <ele>125.5</ele>
        <time>2020-06-28T09:33:19Z</time>
      </trkpt>
      <trkpt lat="48.72341" lon="7.90861">
        <ele>125.5</ele>
        <time>2020-06-28T09:33:20Z</time>
      </trkpt>
      <trkpt lat="48.72336" lon="7.90863">
        <ele>125.5</ele>
        <time>2020-06-28T09:33:21Z</time>
      </trkpt>
      <trkpt lat="48.72331" lon="7.90866">
        <ele>125.5</ele>
        <time>2020-06-28T09:33:22Z</time>
      </trkpt>
      <trkpt lat="48.72326" lon="7.9087">
        <ele>125.5</ele>
        <time>2020-06-28T09:33:23Z</time>
      </trkpt>
      <trkpt lat="48.72321" lon="7.90875">
        <ele>125.5</ele>
        <time>2020-06-28T09:33:24Z</time>
      </trkpt>
      <trkpt lat="48.72317" lon="7.9088">
        <ele>125.5</ele>
        <time>2020-06-28T09:33:25Z</time>
      </trkpt>
      <trkpt lat="48.72312" lon="7.90884">
        <ele>125.5</ele>
        <time>2020-06-28T09:33:26Z</time>
      </trkpt>
      <trkpt lat="48.72308" lon="7.90887">
        <ele>125.5</ele>
        <time>2020-06-28T09:33:27Z</time>
      </trkpt>
      <trkpt lat="48.72304" lon="7.90891">
        <ele>125.5</ele>
        <time>2020-06-28T09:33:28Z</time>
      </trkpt>
      <trkpt lat="48.72299" lon="7.90896">
        <ele>125.5</ele>
        <time>2020-06-28T09:33:29Z</time>
      </trkpt>
      <trkpt lat="48.72295" lon="7.90902">
        <ele>125.5</ele>
        <time>2020-06-28T09:33:30Z</time>
      </trkpt>
      <trkpt lat="48.72291" lon="7.90907">
        <ele>125.5</ele>
        <time>2020-06-28T09:33:31Z</time>
      </trkpt>
      <trkpt lat="48.72286" lon="7.90911">
        <ele>125.5</ele>
        <time>2020-06-28T09:33:32Z</time>
      </trkpt>
      <trkpt lat="48.72283" lon="7.9092">
        <ele>125.5</ele>
        <time>2020-06-28T09:33:33Z</time>
      </trkpt>
      <trkpt lat="48.72278" lon="7.90924">
        <ele>125.5</ele>
        <time>2020-06-28T09:33:34Z</time>
      </trkpt>
      <trkpt lat="48.72273" lon="7.9093">
        <ele>125.5</ele>
        <time>2020-06-28T09:33:35Z</time>
      </trkpt>
      <trkpt lat="48.72268" lon="7.90936">
        <ele>125.5</ele>
        <time>2020-06-28T09:33:36Z</time>
      </trkpt>
      <trkpt lat="48.72264" lon="7.90941">
        <ele>125.5</ele>
        <time>2020-06-28T09:33:37Z</time>
      </trkpt>
      <trkpt lat="48.7226" lon="7.90947">
        <ele>125.5</ele>
        <time>2020-06-28T09:33:38Z</time>
      </trkpt>
      <trkpt lat="48.72256" lon="7.90953">
        <ele>125.4</ele>
        <time>2020-06-28T09:33:39Z</time>
      </trkpt>
      <trkpt lat="48.72252" lon="7.90956">
        <ele>125.4</ele>
        <time>2020-06-28T09:33:40Z</time>
      </trkpt>
      <trkpt lat="48.72248" lon="7.90964">
        <ele>125.4</ele>
        <time>2020-06-28T09:33:41Z</time>
      </trkpt>
      <trkpt lat="48.72244" lon="7.9097">
        <ele>125.4</ele>
        <time>2020-06-28T09:33:42Z</time>
      </trkpt>
      <trkpt lat="48.72239" lon="7.90975">
        <ele>125.4</ele>
        <time>2020-06-28T09:33:43Z</time>
      </trkpt>
      <trkpt lat="48.72234" lon="7.9098">
        <ele>125.4</ele>
        <time>2020-06-28T09:33:44Z</time>
      </trkpt>
      <trkpt lat="48.72229" lon="7.90986">
        <ele>125.4</ele>
        <time>2020-06-28T09:33:45Z</time>
      </trkpt>
      <trkpt lat="48.72225" lon="7.90992">
        <ele>125.4</ele>
        <time>2020-06-28T09:33:46Z</time>
      </trkpt>
      <trkpt lat="48.72221" lon="7.91001">
        <ele>125.4</ele>
        <time>2020-06-28T09:33:47Z</time>
      </trkpt>
      <trkpt lat="48.72217" lon="7.91006">
        <ele>125.4</ele>
        <time>2020-06-28T09:33:48Z</time>
      </trkpt>
      <trkpt lat="48.72213" lon="7.9101">
        <ele>125.4</ele>
        <time>2020-06-28T09:33:49Z</time>
      </trkpt>
      <trkpt lat="48.72207" lon="7.91015">
        <ele>125.3</ele>
        <time>2020-06-28T09:33:50Z</time>
      </trkpt>
      <trkpt lat="48.72202" lon="7.91021">
        <ele>125.3</ele>
        <time>2020-06-28T09:33:51Z</time>
      </trkpt>
      <trkpt lat="48.72197" lon="7.91027">
        <ele>125.3</ele>
        <time>2020-06-28T09:33:52Z</time>
      </trkpt>
      <trkpt lat="48.72191" lon="7.91031">
        <ele>125.3</ele>
        <time>2020-06-28T09:33:53Z</time>
      </trkpt>
      <trkpt lat="48.72186" lon="7.91034">
        <ele>125.3</ele>
        <time>2020-06-28T09:33:54Z</time>
      </trkpt>
      <trkpt lat="48.7218" lon="7.91037">
        <ele>125.2</ele>
        <time>2020-06-28T09:33:55Z</time>
      </trkpt>
      <trkpt lat="48.72175" lon="7.91041">
        <ele>125.2</ele>
        <time>2020-06-28T09:33:56Z</time>
      </trkpt>
      <trkpt lat="48.7217" lon="7.91043">
        <ele>125.2</ele>
        <time>2020-06-28T09:33:57Z</time>
      </trkpt>
      <trkpt lat="48.72164" lon="7.91045">
        <ele>125.2</ele>
        <time>2020-06-28T09:33:58Z</time>
      </trkpt>
      <trkpt lat="48.72158" lon="7.91045">
        <ele>125.1</ele>
        <time>2020-06-28T09:33:59Z</time>
      </trkpt>
      <trkpt lat="48.72152" lon="7.91046">
        <ele>125.1</ele>
        <time>2020-06-28T09:34:00Z</time>
      </trkpt>
      <trkpt lat="48.72146" lon="7.91046">
        <ele>125.1</ele>
        <time>2020-06-28T09:34:01Z</time>
      </trkpt>
      <trkpt lat="48.72141" lon="7.91047">
        <ele>125.1</ele>
        <time>2020-06-28T09:34:02Z</time>
      </trkpt>
      <trkpt lat="48.72135" lon="7.91048">
        <ele>125.1</ele>
        <time>2020-06-28T09:34:03Z</time>
      </trkpt>
      <trkpt lat="48.72129" lon="7.91049">
        <ele>125.2</ele>
        <time>2020-06-28T09:34:04Z</time>
      </trkpt>
      <trkpt lat="48.72124" lon="7.91053">
        <ele>125.2</ele>
        <time>2020-06-28T09:34:05Z</time>
      </trkpt>
      <trkpt lat="48.72118" lon="7.91054">
        <ele>125.3</ele>
        <time>2020-06-28T09:34:06Z</time>
      </trkpt>
      <trkpt lat="48.72113" lon="7.91057">
        <ele>125.3</ele>
        <time>2020-06-28T09:34:07Z</time>
      </trkpt>
      <trkpt lat="48.72109" lon="7.91059">
        <ele>125.3</ele>
        <time>2020-06-28T09:34:08Z</time>
      </trkpt>
      <trkpt lat="48.72104" lon="7.91064">
        <ele>125.4</ele>
        <time>2020-06-28T09:34:09Z</time>
      </trkpt>
      <trkpt lat="48.72101" lon="7.91068">
        <ele>125.4</ele>
        <time>2020-06-28T09:34:10Z</time>
      </trkpt>
      <trkpt lat="48.72096" lon="7.91073">
        <ele>125.4</ele>
        <time>2020-06-28T09:34:11Z</time>
      </trkpt>
      <trkpt lat="48.72092" lon="7.91079">
        <ele>125.4</ele>
        <time>2020-06-28T09:34:12Z</time>
      </trkpt>
      <trkpt lat="48.72087" lon="7.91085">
        <ele>125.5</ele>
        <time>2020-06-28T09:34:13Z</time>
      </trkpt>
      <trkpt lat="48.72083" lon="7.91091">
        <ele>125.5</ele>
        <time>2020-06-28T09:34:14Z</time>
      </trkpt>
      <trkpt lat="48.72078" lon="7.91099">
        <ele>125.6</ele>
        <time>2020-06-28T09:34:15Z</time>
      </trkpt>
      <trkpt lat="48.72072" lon="7.91106">
        <ele>125.6</ele>
        <time>2020-06-28T09:34:16Z</time>
      </trkpt>
      <trkpt lat="48.72068" lon="7.91111">
        <ele>125.7</ele>
        <time>2020-06-28T09:34:17Z</time>
      </trkpt>
      <trkpt lat="48.72062" lon="7.91118">
        <ele>125.8</ele>
        <time>2020-06-28T09:34:18Z</time>
      </trkpt>
      <trkpt lat="48.72058" lon="7.91123">
        <ele>125.8</ele>
        <time>2020-06-28T09:34:19Z</time>
      </trkpt>
      <trkpt lat="48.72054" lon="7.91128">
        <ele>125.8</ele>
        <time>2020-06-28T09:34:20Z</time>
      </trkpt>
      <trkpt lat="48.72048" lon="7.91136">
        <ele>125.7</ele>
        <time>2020-06-28T09:34:21Z</time>
      </trkpt>
      <trkpt lat="48.72045" lon="7.91141">
        <ele>125.7</ele>
        <time>2020-06-28T09:34:22Z</time>
      </trkpt>
      <trkpt lat="48.7204" lon="7.91147">
        <ele>125.7</ele>
        <time>2020-06-28T09:34:23Z</time>
      </trkpt>
      <trkpt lat="48.72035" lon="7.91151">
        <ele>125.7</ele>
        <time>2020-06-28T09:34:24Z</time>
      </trkpt>
      <trkpt lat="48.72032" lon="7.91158">
        <ele>125.7</ele>
        <time>2020-06-28T09:34:25Z</time>
      </trkpt>
      <trkpt lat="48.72028" lon="7.91161">
        <ele>125.7</ele>
        <time>2020-06-28T09:34:26Z</time>
      </trkpt>
      <trkpt lat="48.72024" lon="7.91169">
        <ele>125.8</ele>
        <time>2020-06-28T09:34:27Z</time>
      </trkpt>
      <trkpt lat="48.72019" lon="7.91174">
        <ele>125.8</ele>
        <time>2020-06-28T09:34:28Z</time>
      </trkpt>
      <trkpt lat="48.72014" lon="7.91182">
        <ele>125.8</ele>
        <time>2020-06-28T09:34:29Z</time>
      </trkpt>
      <trkpt lat="48.72011" lon="7.91186">
        <ele>125.8</ele>
        <time>2020-06-28T09:34:30Z</time>
      </trkpt>
      <trkpt lat="48.72006" lon="7.91194">
        <ele>125.8</ele>
        <time>2020-06-28T09:34:31Z</time>
      </trkpt>
      <trkpt lat="48.72002" lon="7.91198">
        <ele>125.8</ele>
        <time>2020-06-28T09:34:32Z</time>
      </trkpt>
      <trkpt lat="48.71998" lon="7.91203">
        <ele>125.8</ele>
        <time>2020-06-28T09:34:33Z</time>
      </trkpt>
      <trkpt lat="48.71993" lon="7.91209">
        <ele>125.8</ele>
        <time>2020-06-28T09:34:34Z</time>
      </trkpt>
      <trkpt lat="48.71989" lon="7.91216">
        <ele>125.8</ele>
        <time>2020-06-28T09:34:35Z</time>
      </trkpt>
      <trkpt lat="48.71985" lon="7.91222">
        <ele>125.8</ele>
        <time>2020-06-28T09:34:36Z</time>
      </trkpt>
      <trkpt lat="48.71981" lon="7.91228">
        <ele>125.8</ele>
        <time>2020-06-28T09:34:37Z</time>
      </trkpt>
      <trkpt lat="48.71976" lon="7.91233">
        <ele>125.8</ele>
        <time>2020-06-28T09:34:38Z</time>
      </trkpt>
      <trkpt lat="48.71973" lon="7.91241">
        <ele>125.8</ele>
        <time>2020-06-28T09:34:39Z</time>
      </trkpt>
      <trkpt lat="48.71968" lon="7.91247">
        <ele>125.8</ele>
        <time>2020-06-28T09:34:40Z</time>
      </trkpt>
      <trkpt lat="48.71965" lon="7.91255">
        <ele>125.8</ele>
        <time>2020-06-28T09:34:41Z</time>
      </trkpt>
      <trkpt lat="48.71961" lon="7.91261">
        <ele>125.8</ele>
        <time>2020-06-28T09:34:42Z</time>
      </trkpt>
      <trkpt lat="48.71958" lon="7.91268">
        <ele>125.8</ele>
        <time>2020-06-28T09:34:43Z</time>
      </trkpt>
      <trkpt lat="48.71954" lon="7.91273">
        <ele>125.8</ele>
        <time>2020-06-28T09:34:44Z</time>
      </trkpt>
      <trkpt lat="48.7195" lon="7.91279">
        <ele>125.8</ele>
        <time>2020-06-28T09:34:45Z</time>
      </trkpt>
      <trkpt lat="48.71946" lon="7.91285">
        <ele>125.8</ele>
        <time>2020-06-28T09:34:46Z</time>
      </trkpt>
      <trkpt lat="48.71942" lon="7.91292">
        <ele>125.8</ele>
        <time>2020-06-28T09:34:47Z</time>
      </trkpt>
      <trkpt lat="48.71938" lon="7.91299">
        <ele>125.8</ele>
        <time>2020-06-28T09:34:48Z</time>
      </trkpt>
      <trkpt lat="48.71934" lon="7.91303">
        <ele>125.7</ele>
        <time>2020-06-28T09:34:49Z</time>
      </trkpt>
      <trkpt lat="48.71931" lon="7.91308">
        <ele>125.7</ele>
        <time>2020-06-28T09:34:50Z</time>
      </trkpt>
      <trkpt lat="48.71928" lon="7.91316">
        <ele>125.7</ele>
        <time>2020-06-28T09:34:51Z</time>
      </trkpt>
      <trkpt lat="48.71925" lon="7.91324">
        <ele>125.7</ele>
        <time>2020-06-28T09:34:52Z</time>
      </trkpt>
      <trkpt lat="48.71922" lon="7.9133">
        <ele>125.7</ele>
        <time>2020-06-28T09:34:53Z</time>
      </trkpt>
      <trkpt lat="48.71918" lon="7.91334">
        <ele>125.7</ele>
        <time>2020-06-28T09:34:54Z</time>
      </trkpt>
      <trkpt lat="48.71915" lon="7.91341">
        <ele>125.7</ele>
        <time>2020-06-28T09:34:55Z</time>
      </trkpt>
      <trkpt lat="48.71911" lon="7.91347">
        <ele>125.7</ele>
        <time>2020-06-28T09:34:56Z</time>
      </trkpt>
      <trkpt lat="48.71908" lon="7.91354">
        <ele>125.7</ele>
        <time>2020-06-28T09:34:57Z</time>
      </trkpt>
      <trkpt lat="48.71904" lon="7.91361">
        <ele>125.7</ele>
        <time>2020-06-28T09:34:58Z</time>
      </trkpt>
      <trkpt lat="48.71899" lon="7.91367">
        <ele>125.7</ele>
        <time>2020-06-28T09:34:59Z</time>
      </trkpt>
      <trkpt lat="48.71894" lon="7.91374">
        <ele>125.7</ele>
        <time>2020-06-28T09:35:00Z</time>
      </trkpt>
      <trkpt lat="48.7189" lon="7.91382">
        <ele>125.7</ele>
        <time>2020-06-28T09:35:01Z</time>
      </trkpt>
      <trkpt lat="48.71884" lon="7.91392">
        <ele>125.7</ele>
        <time>2020-06-28T09:35:02Z</time>
      </trkpt>
      <trkpt lat="48.7188" lon="7.91398">
        <ele>125.8</ele>
        <time>2020-06-28T09:35:03Z</time>
      </trkpt>
      <trkpt lat="48.71873" lon="7.91406">
        <ele>125.8</ele>
        <time>2020-06-28T09:35:04Z</time>
      </trkpt>
      <trkpt lat="48.71869" lon="7.91411">
        <ele>125.8</ele>
        <time>2020-06-28T09:35:05Z</time>
      </trkpt>
      <trkpt lat="48.71865" lon="7.91416">
        <ele>125.8</ele>
        <time>2020-06-28T09:35:06Z</time>
      </trkpt>
      <trkpt lat="48.7186" lon="7.9142">
        <ele>125.8</ele>
        <time>2020-06-28T09:35:07Z</time>
      </trkpt>
      <trkpt lat="48.71853" lon="7.91424">
        <ele>125.8</ele>
        <time>2020-06-28T09:35:08Z</time>
      </trkpt>
      <trkpt lat="48.71847" lon="7.91428">
        <ele>125.8</ele>
        <time>2020-06-28T09:35:09Z</time>
      </trkpt>
      <trkpt lat="48.71842" lon="7.91431">
        <ele>125.8</ele>
        <time>2020-06-28T09:35:10Z</time>
      </trkpt>
      <trkpt lat="48.71836" lon="7.91432">
        <ele>125.8</ele>
        <time>2020-06-28T09:35:11Z</time>
      </trkpt>
      <trkpt lat="48.71832" lon="7.91432">
        <ele>125.8</ele>
        <time>2020-06-28T09:35:12Z</time>
      </trkpt>
      <trkpt lat="48.71828" lon="7.91432">
        <ele>125.8</ele>
        <time>2020-06-28T09:35:13Z</time>
      </trkpt>
      <trkpt lat="48.71822" lon="7.91434">
        <ele>125.8</ele>
        <time>2020-06-28T09:35:14Z</time>
      </trkpt>
      <trkpt lat="48.71817" lon="7.91437">
        <ele>125.8</ele>
        <time>2020-06-28T09:35:15Z</time>
      </trkpt>
      <trkpt lat="48.71812" lon="7.91441">
        <ele>125.9</ele>
        <time>2020-06-28T09:35:16Z</time>
      </trkpt>
      <trkpt lat="48.71805" lon="7.91443">
        <ele>125.9</ele>
        <time>2020-06-28T09:35:17Z</time>
      </trkpt>
      <trkpt lat="48.71799" lon="7.91446">
        <ele>125.9</ele>
        <time>2020-06-28T09:35:18Z</time>
      </trkpt>
      <trkpt lat="48.71794" lon="7.9145">
        <ele>125.9</ele>
        <time>2020-06-28T09:35:19Z</time>
      </trkpt>
      <trkpt lat="48.71788" lon="7.91452">
        <ele>126</ele>
        <time>2020-06-28T09:35:20Z</time>
      </trkpt>
      <trkpt lat="48.71782" lon="7.91455">
        <ele>126</ele>
        <time>2020-06-28T09:35:21Z</time>
      </trkpt>
      <trkpt lat="48.71778" lon="7.91455">
        <ele>126</ele>
        <time>2020-06-28T09:35:22Z</time>
      </trkpt>
      <trkpt lat="48.71772" lon="7.91458">
        <ele>126</ele>
        <time>2020-06-28T09:35:23Z</time>
      </trkpt>
      <trkpt lat="48.71766" lon="7.9146">
        <ele>126.1</ele>
        <time>2020-06-28T09:35:24Z</time>
      </trkpt>
      <trkpt lat="48.71761" lon="7.91462">
        <ele>126.1</ele>
        <time>2020-06-28T09:35:25Z</time>
      </trkpt>
      <trkpt lat="48.71755" lon="7.91463">
        <ele>126.1</ele>
        <time>2020-06-28T09:35:26Z</time>
      </trkpt>
      <trkpt lat="48.7175" lon="7.91463">
        <ele>126.1</ele>
        <time>2020-06-28T09:35:27Z</time>
      </trkpt>
      <trkpt lat="48.71744" lon="7.91464">
        <ele>126.1</ele>
        <time>2020-06-28T09:35:28Z</time>
      </trkpt>
      <trkpt lat="48.71738" lon="7.91464">
        <ele>126</ele>
        <time>2020-06-28T09:35:29Z</time>
      </trkpt>
      <trkpt lat="48.71732" lon="7.91465">
        <ele>126</ele>
        <time>2020-06-28T09:35:30Z</time>
      </trkpt>
      <trkpt lat="48.71726" lon="7.91464">
        <ele>125.9</ele>
        <time>2020-06-28T09:35:31Z</time>
      </trkpt>
      <trkpt lat="48.71719" lon="7.91463">
        <ele>125.9</ele>
        <time>2020-06-28T09:35:32Z</time>
      </trkpt>
      <trkpt lat="48.71713" lon="7.91464">
        <ele>125.8</ele>
        <time>2020-06-28T09:35:33Z</time>
      </trkpt>
      <trkpt lat="48.71708" lon="7.91465">
        <ele>125.8</ele>
        <time>2020-06-28T09:35:34Z</time>
      </trkpt>
      <trkpt lat="48.71702" lon="7.91466">
        <ele>125.8</ele>
        <time>2020-06-28T09:35:35Z</time>
      </trkpt>
      <trkpt lat="48.71697" lon="7.91466">
        <ele>125.8</ele>
        <time>2020-06-28T09:35:36Z</time>
      </trkpt>
      <trkpt lat="48.71691" lon="7.91465">
        <ele>125.8</ele>
        <time>2020-06-28T09:35:37Z</time>
      </trkpt>
      <trkpt lat="48.71685" lon="7.91464">
        <ele>125.8</ele>
        <time>2020-06-28T09:35:38Z</time>
      </trkpt>
      <trkpt lat="48.7168" lon="7.91465">
        <ele>125.8</ele>
        <time>2020-06-28T09:35:39Z</time>
      </trkpt>
      <trkpt lat="48.71676" lon="7.91464">
        <ele>125.7</ele>
        <time>2020-06-28T09:35:40Z</time>
      </trkpt>
      <trkpt lat="48.7167" lon="7.91464">
        <ele>125.7</ele>
        <time>2020-06-28T09:35:41Z</time>
      </trkpt>
      <trkpt lat="48.71664" lon="7.91465">
        <ele>125.7</ele>
        <time>2020-06-28T09:35:42Z</time>
      </trkpt>
      <trkpt lat="48.71657" lon="7.91464">
        <ele>125.6</ele>
        <time>2020-06-28T09:35:43Z</time>
      </trkpt>
      <trkpt lat="48.71652" lon="7.91463">
        <ele>125.6</ele>
        <time>2020-06-28T09:35:44Z</time>
      </trkpt>
      <trkpt lat="48.71646" lon="7.91462">
        <ele>125.5</ele>
        <time>2020-06-28T09:35:45Z</time>
      </trkpt>
      <trkpt lat="48.7164" lon="7.91462">
        <ele>125.5</ele>
        <time>2020-06-28T09:35:46Z</time>
      </trkpt>
      <trkpt lat="48.71634" lon="7.91463">
        <ele>125.4</ele>
        <time>2020-06-28T09:35:47Z</time>
      </trkpt>
      <trkpt lat="48.71628" lon="7.91464">
        <ele>125.4</ele>
        <time>2020-06-28T09:35:48Z</time>
      </trkpt>
      <trkpt lat="48.71622" lon="7.91467">
        <ele>125.4</ele>
        <time>2020-06-28T09:35:49Z</time>
      </trkpt>
      <trkpt lat="48.71615" lon="7.91469">
        <ele>125.3</ele>
        <time>2020-06-28T09:35:50Z</time>
      </trkpt>
      <trkpt lat="48.7161" lon="7.91471">
        <ele>125.3</ele>
        <time>2020-06-28T09:35:51Z</time>
      </trkpt>
      <trkpt lat="48.71604" lon="7.91473">
        <ele>125.3</ele>
        <time>2020-06-28T09:35:52Z</time>
      </trkpt>
      <trkpt lat="48.71597" lon="7.91473">
        <ele>125.2</ele>
        <time>2020-06-28T09:35:53Z</time>
      </trkpt>
      <trkpt lat="48.71592" lon="7.91475">
        <ele>125.2</ele>
        <time>2020-06-28T09:35:54Z</time>
      </trkpt>
      <trkpt lat="48.71586" lon="7.91476">
        <ele>125.2</ele>
        <time>2020-06-28T09:35:55Z</time>
      </trkpt>
      <trkpt lat="48.71581" lon="7.91477">
        <ele>125.2</ele>
        <time>2020-06-28T09:35:56Z</time>
      </trkpt>
      <trkpt lat="48.71575" lon="7.9148">
        <ele>125.2</ele>
        <time>2020-06-28T09:35:57Z</time>
      </trkpt>
      <trkpt lat="48.71569" lon="7.9148">
        <ele>125.3</ele>
        <time>2020-06-28T09:35:58Z</time>
      </trkpt>
      <trkpt lat="48.71564" lon="7.91481">
        <ele>125.3</ele>
        <time>2020-06-28T09:35:59Z</time>
      </trkpt>
      <trkpt lat="48.71558" lon="7.91482">
        <ele>125.4</ele>
        <time>2020-06-28T09:36:00Z</time>
      </trkpt>
      <trkpt lat="48.71552" lon="7.91484">
        <ele>125.4</ele>
        <time>2020-06-28T09:36:01Z</time>
      </trkpt>
      <trkpt lat="48.71546" lon="7.91486">
        <ele>125.4</ele>
        <time>2020-06-28T09:36:02Z</time>
      </trkpt>
      <trkpt lat="48.71541" lon="7.9149">
        <ele>125.5</ele>
        <time>2020-06-28T09:36:03Z</time>
      </trkpt>
      <trkpt lat="48.71536" lon="7.91495">
        <ele>125.5</ele>
        <time>2020-06-28T09:36:04Z</time>
      </trkpt>
      <trkpt lat="48.71532" lon="7.91503">
        <ele>125.5</ele>
        <time>2020-06-28T09:36:05Z</time>
      </trkpt>
      <trkpt lat="48.71528" lon="7.9151">
        <ele>125.5</ele>
        <time>2020-06-28T09:36:06Z</time>
      </trkpt>
      <trkpt lat="48.71524" lon="7.91517">
        <ele>125.6</ele>
        <time>2020-06-28T09:36:07Z</time>
      </trkpt>
      <trkpt lat="48.71519" lon="7.91523">
        <ele>125.6</ele>
        <time>2020-06-28T09:36:08Z</time>
      </trkpt>
      <trkpt lat="48.71513" lon="7.91527">
        <ele>125.7</ele>
        <time>2020-06-28T09:36:09Z</time>
      </trkpt>
      <trkpt lat="48.71506" lon="7.91527">
        <ele>125.8</ele>
        <time>2020-06-28T09:36:10Z</time>
      </trkpt>
      <trkpt lat="48.715" lon="7.91525">
        <ele>125.8</ele>
        <time>2020-06-28T09:36:11Z</time>
      </trkpt>
      <trkpt lat="48.71494" lon="7.91523">
        <ele>125.9</ele>
        <time>2020-06-28T09:36:12Z</time>
      </trkpt>
      <trkpt lat="48.71489" lon="7.91522">
        <ele>125.9</ele>
        <time>2020-06-28T09:36:13Z</time>
      </trkpt>
      <trkpt lat="48.71483" lon="7.91521">
        <ele>126</ele>
        <time>2020-06-28T09:36:14Z</time>
      </trkpt>
      <trkpt lat="48.71478" lon="7.91519">
        <ele>126</ele>
        <time>2020-06-28T09:36:15Z</time>
      </trkpt>
      <trkpt lat="48.71472" lon="7.91519">
        <ele>126</ele>
        <time>2020-06-28T09:36:16Z</time>
      </trkpt>
      <trkpt lat="48.71467" lon="7.91519">
        <ele>126.1</ele>
        <time>2020-06-28T09:36:17Z</time>
      </trkpt>
      <trkpt lat="48.71462" lon="7.91517">
        <ele>126.1</ele>
        <time>2020-06-28T09:36:18Z</time>
      </trkpt>
      <trkpt lat="48.71457" lon="7.91516">
        <ele>126.1</ele>
        <time>2020-06-28T09:36:19Z</time>
      </trkpt>
      <trkpt lat="48.71452" lon="7.91516">
        <ele>126.1</ele>
        <time>2020-06-28T09:36:20Z</time>
      </trkpt>
      <trkpt lat="48.71447" lon="7.91515">
        <ele>126</ele>
        <time>2020-06-28T09:36:21Z</time>
      </trkpt>
      <trkpt lat="48.71442" lon="7.91514">
        <ele>126</ele>
        <time>2020-06-28T09:36:22Z</time>
      </trkpt>
      <trkpt lat="48.71437" lon="7.91512">
        <ele>126</ele>
        <time>2020-06-28T09:36:23Z</time>
      </trkpt>
      <trkpt lat="48.71431" lon="7.9151">
        <ele>126</ele>
        <time>2020-06-28T09:36:24Z</time>
      </trkpt>
      <trkpt lat="48.71425" lon="7.91508">
        <ele>126</ele>
        <time>2020-06-28T09:36:25Z</time>
      </trkpt>
      <trkpt lat="48.71419" lon="7.91504">
        <ele>126</ele>
        <time>2020-06-28T09:36:26Z</time>
      </trkpt>
      <trkpt lat="48.71415" lon="7.91501">
        <ele>125.9</ele>
        <time>2020-06-28T09:36:27Z</time>
      </trkpt>
      <trkpt lat="48.7141" lon="7.91498">
        <ele>125.9</ele>
        <time>2020-06-28T09:36:28Z</time>
      </trkpt>
      <trkpt lat="48.71406" lon="7.91495">
        <ele>125.9</ele>
        <time>2020-06-28T09:36:29Z</time>
      </trkpt>
      <trkpt lat="48.71402" lon="7.91494">
        <ele>125.8</ele>
        <time>2020-06-28T09:36:30Z</time>
      </trkpt>
      <trkpt lat="48.71398" lon="7.91493">
        <ele>125.8</ele>
        <time>2020-06-28T09:36:31Z</time>
      </trkpt>
      <trkpt lat="48.71392" lon="7.91493">
        <ele>125.7</ele>
        <time>2020-06-28T09:36:32Z</time>
      </trkpt>
      <trkpt lat="48.71386" lon="7.91492">
        <ele>125.6</ele>
        <time>2020-06-28T09:36:33Z</time>
      </trkpt>
      <trkpt lat="48.7138" lon="7.91492">
        <ele>125.6</ele>
        <time>2020-06-28T09:36:34Z</time>
      </trkpt>
      <trkpt lat="48.71374" lon="7.91493">
        <ele>125.6</ele>
        <time>2020-06-28T09:36:35Z</time>
      </trkpt>
      <trkpt lat="48.71367" lon="7.91493">
        <ele>125.5</ele>
        <time>2020-06-28T09:36:36Z</time>
      </trkpt>
      <trkpt lat="48.71361" lon="7.91492">
        <ele>125.5</ele>
        <time>2020-06-28T09:36:37Z</time>
      </trkpt>
      <trkpt lat="48.71356" lon="7.91491">
        <ele>125.5</ele>
        <time>2020-06-28T09:36:38Z</time>
      </trkpt>
      <trkpt lat="48.7135" lon="7.91489">
        <ele>125.4</ele>
        <time>2020-06-28T09:36:39Z</time>
      </trkpt>
      <trkpt lat="48.71345" lon="7.91486">
        <ele>125.4</ele>
        <time>2020-06-28T09:36:40Z</time>
      </trkpt>
      <trkpt lat="48.71339" lon="7.91482">
        <ele>125.4</ele>
        <time>2020-06-28T09:36:41Z</time>
      </trkpt>
      <trkpt lat="48.71333" lon="7.91478">
        <ele>125.4</ele>
        <time>2020-06-28T09:36:42Z</time>
      </trkpt>
      <trkpt lat="48.71327" lon="7.91474">
        <ele>125.4</ele>
        <time>2020-06-28T09:36:43Z</time>
      </trkpt>
      <trkpt lat="48.71321" lon="7.9147">
        <ele>125.3</ele>
        <time>2020-06-28T09:36:44Z</time>
      </trkpt>
      <trkpt lat="48.71315" lon="7.91467">
        <ele>125.3</ele>
        <time>2020-06-28T09:36:45Z</time>
      </trkpt>
      <trkpt lat="48.71309" lon="7.91463">
        <ele>125.2</ele>
        <time>2020-06-28T09:36:46Z</time>
      </trkpt>
      <trkpt lat="48.71302" lon="7.91457">
        <ele>125.2</ele>
        <time>2020-06-28T09:36:47Z</time>
      </trkpt>
      <trkpt lat="48.71298" lon="7.91453">
        <ele>125.2</ele>
        <time>2020-06-28T09:36:48Z</time>
      </trkpt>
      <trkpt lat="48.71292" lon="7.9145">
        <ele>125.1</ele>
        <time>2020-06-28T09:36:49Z</time>
      </trkpt>
      <trkpt lat="48.71288" lon="7.91447">
        <ele>125.1</ele>
        <time>2020-06-28T09:36:50Z</time>
      </trkpt>
      <trkpt lat="48.71284" lon="7.91443">
        <ele>125.1</ele>
        <time>2020-06-28T09:36:51Z</time>
      </trkpt>
      <trkpt lat="48.7128" lon="7.9144">
        <ele>125.1</ele>
        <time>2020-06-28T09:36:52Z</time>
      </trkpt>
      <trkpt lat="48.71274" lon="7.91437">
        <ele>125.1</ele>
        <time>2020-06-28T09:36:53Z</time>
      </trkpt>
      <trkpt lat="48.71267" lon="7.91433">
        <ele>125</ele>
        <time>2020-06-28T09:36:54Z</time>
      </trkpt>
      <trkpt lat="48.71261" lon="7.91431">
        <ele>125</ele>
        <time>2020-06-28T09:36:55Z</time>
      </trkpt>
      <trkpt lat="48.71257" lon="7.9143">
        <ele>124.9</ele>
        <time>2020-06-28T09:36:56Z</time>
      </trkpt>
      <trkpt lat="48.71252" lon="7.91428">
        <ele>124.9</ele>
        <time>2020-06-28T09:36:57Z</time>
      </trkpt>
      <trkpt lat="48.71246" lon="7.91428">
        <ele>124.9</ele>
        <time>2020-06-28T09:36:58Z</time>
      </trkpt>
      <trkpt lat="48.71242" lon="7.91428">
        <ele>124.9</ele>
        <time>2020-06-28T09:36:59Z</time>
      </trkpt>
      <trkpt lat="48.71238" lon="7.91427">
        <ele>124.9</ele>
        <time>2020-06-28T09:37:00Z</time>
      </trkpt>
      <trkpt lat="48.7123" lon="7.91427">
        <ele>125</ele>
        <time>2020-06-28T09:37:01Z</time>
      </trkpt>
      <trkpt lat="48.71224" lon="7.91426">
        <ele>125</ele>
        <time>2020-06-28T09:37:02Z</time>
      </trkpt>
      <trkpt lat="48.71219" lon="7.91427">
        <ele>125.1</ele>
        <time>2020-06-28T09:37:03Z</time>
      </trkpt>
      <trkpt lat="48.71214" lon="7.91428">
        <ele>125.2</ele>
        <time>2020-06-28T09:37:04Z</time>
      </trkpt>
      <trkpt lat="48.71209" lon="7.91427">
        <ele>125.3</ele>
        <time>2020-06-28T09:37:05Z</time>
      </trkpt>
      <trkpt lat="48.71204" lon="7.91427">
        <ele>125.4</ele>
        <time>2020-06-28T09:37:06Z</time>
      </trkpt>
      <trkpt lat="48.71201" lon="7.91427">
        <ele>125.4</ele>
        <time>2020-06-28T09:37:07Z</time>
      </trkpt>
      <trkpt lat="48.71195" lon="7.91428">
        <ele>125.5</ele>
        <time>2020-06-28T09:37:08Z</time>
      </trkpt>
      <trkpt lat="48.7119" lon="7.91427">
        <ele>125.6</ele>
        <time>2020-06-28T09:37:09Z</time>
      </trkpt>
      <trkpt lat="48.71184" lon="7.91426">
        <ele>125.6</ele>
        <time>2020-06-28T09:37:10Z</time>
      </trkpt>
      <trkpt lat="48.71181" lon="7.91421">
        <ele>125.7</ele>
        <time>2020-06-28T09:37:11Z</time>
      </trkpt>
      <trkpt lat="48.71178" lon="7.91416">
        <ele>125.7</ele>
        <time>2020-06-28T09:37:12Z</time>
      </trkpt>
      <trkpt lat="48.71175" lon="7.9141">
        <ele>125.7</ele>
        <time>2020-06-28T09:37:13Z</time>
      </trkpt>
      <trkpt lat="48.71171" lon="7.91405">
        <ele>125.7</ele>
        <time>2020-06-28T09:37:14Z</time>
      </trkpt>
      <trkpt lat="48.71168" lon="7.91402">
        <ele>125.7</ele>
        <time>2020-06-28T09:37:15Z</time>
      </trkpt>
      <trkpt lat="48.71166" lon="7.91401">
        <ele>125.7</ele>
        <time>2020-06-28T09:37:16Z</time>
      </trkpt>
      <trkpt lat="48.71163" lon="7.91401">
        <ele>125.6</ele>
        <time>2020-06-28T09:37:17Z</time>
      </trkpt>
      <trkpt lat="48.71158" lon="7.91404">
        <ele>125.6</ele>
        <time>2020-06-28T09:37:18Z</time>
      </trkpt>
      <trkpt lat="48.71154" lon="7.91406">
        <ele>125.5</ele>
        <time>2020-06-28T09:37:19Z</time>
      </trkpt>
      <trkpt lat="48.71149" lon="7.91408">
        <ele>125.5</ele>
        <time>2020-06-28T09:37:20Z</time>
      </trkpt>
      <trkpt lat="48.71146" lon="7.9141">
        <ele>125.4</ele>
        <time>2020-06-28T09:37:21Z</time>
      </trkpt>
      <trkpt lat="48.71142" lon="7.91413">
        <ele>125.4</ele>
        <time>2020-06-28T09:37:22Z</time>
      </trkpt>
      <trkpt lat="48.71138" lon="7.91414">
        <ele>125.4</ele>
        <time>2020-06-28T09:37:23Z</time>
      </trkpt>
      <trkpt lat="48.71133" lon="7.91416">
        <ele>125.3</ele>
        <time>2020-06-28T09:37:24Z</time>
      </trkpt>
      <trkpt lat="48.71129" lon="7.91419">
        <ele>125.3</ele>
        <time>2020-06-28T09:37:25Z</time>
      </trkpt>
      <trkpt lat="48.71124" lon="7.91422">
        <ele>125.3</ele>
        <time>2020-06-28T09:37:26Z</time>
      </trkpt>
      <trkpt lat="48.71118" lon="7.91425">
        <ele>125.3</ele>
        <time>2020-06-28T09:37:27Z</time>
      </trkpt>
      <trkpt lat="48.71113" lon="7.91428">
        <ele>125.2</ele>
        <time>2020-06-28T09:37:28Z</time>
      </trkpt>
      <trkpt lat="48.71107" lon="7.91431">
        <ele>125.2</ele>
        <time>2020-06-28T09:37:29Z</time>
      </trkpt>
      <trkpt lat="48.71102" lon="7.91434">
        <ele>125.2</ele>
        <time>2020-06-28T09:37:30Z</time>
      </trkpt>
      <trkpt lat="48.71097" lon="7.91436">
        <ele>125.2</ele>
        <time>2020-06-28T09:37:31Z</time>
      </trkpt>
      <trkpt lat="48.71092" lon="7.91438">
        <ele>125.2</ele>
        <time>2020-06-28T09:37:32Z</time>
      </trkpt>
      <trkpt lat="48.71086" lon="7.91441">
        <ele>125.2</ele>
        <time>2020-06-28T09:37:33Z</time>
      </trkpt>
      <trkpt lat="48.71081" lon="7.91443">
        <ele>125.1</ele>
        <time>2020-06-28T09:37:34Z</time>
      </trkpt>
      <trkpt lat="48.71076" lon="7.91447">
        <ele>125.1</ele>
        <time>2020-06-28T09:37:35Z</time>
      </trkpt>
      <trkpt lat="48.71071" lon="7.91451">
        <ele>125.1</ele>
        <time>2020-06-28T09:37:36Z</time>
      </trkpt>
      <trkpt lat="48.71066" lon="7.91455">
        <ele>125</ele>
        <time>2020-06-28T09:37:37Z</time>
      </trkpt>
      <trkpt lat="48.71062" lon="7.91458">
        <ele>125</ele>
        <time>2020-06-28T09:37:38Z</time>
      </trkpt>
      <trkpt lat="48.71056" lon="7.9146">
        <ele>125</ele>
        <time>2020-06-28T09:37:39Z</time>
      </trkpt>
      <trkpt lat="48.71052" lon="7.91463">
        <ele>125</ele>
        <time>2020-06-28T09:37:40Z</time>
      </trkpt>
      <trkpt lat="48.71048" lon="7.91467">
        <ele>125</ele>
        <time>2020-06-28T09:37:41Z</time>
      </trkpt>
      <trkpt lat="48.71043" lon="7.91471">
        <ele>125</ele>
        <time>2020-06-28T09:37:42Z</time>
      </trkpt>
      <trkpt lat="48.71039" lon="7.91475">
        <ele>125</ele>
        <time>2020-06-28T09:37:43Z</time>
      </trkpt>
      <trkpt lat="48.71035" lon="7.9148">
        <ele>125</ele>
        <time>2020-06-28T09:37:44Z</time>
      </trkpt>
      <trkpt lat="48.71031" lon="7.91486">
        <ele>125</ele>
        <time>2020-06-28T09:37:45Z</time>
      </trkpt>
      <trkpt lat="48.71026" lon="7.9149">
        <ele>124.9</ele>
        <time>2020-06-28T09:37:46Z</time>
      </trkpt>
      <trkpt lat="48.71022" lon="7.91495">
        <ele>124.9</ele>
        <time>2020-06-28T09:37:47Z</time>
      </trkpt>
      <trkpt lat="48.71019" lon="7.915">
        <ele>124.9</ele>
        <time>2020-06-28T09:37:48Z</time>
      </trkpt>
      <trkpt lat="48.71015" lon="7.91506">
        <ele>124.9</ele>
        <time>2020-06-28T09:37:49Z</time>
      </trkpt>
      <trkpt lat="48.71011" lon="7.91512">
        <ele>124.9</ele>
        <time>2020-06-28T09:37:50Z</time>
      </trkpt>
      <trkpt lat="48.71008" lon="7.91518">
        <ele>124.9</ele>
        <time>2020-06-28T09:37:51Z</time>
      </trkpt>
      <trkpt lat="48.71004" lon="7.91524">
        <ele>124.8</ele>
        <time>2020-06-28T09:37:52Z</time>
      </trkpt>
      <trkpt lat="48.70999" lon="7.91531">
        <ele>124.8</ele>
        <time>2020-06-28T09:37:53Z</time>
      </trkpt>
      <trkpt lat="48.70995" lon="7.91536">
        <ele>124.8</ele>
        <time>2020-06-28T09:37:54Z</time>
      </trkpt>
      <trkpt lat="48.70992" lon="7.91542">
        <ele>124.8</ele>
        <time>2020-06-28T09:37:55Z</time>
      </trkpt>
      <trkpt lat="48.70988" lon="7.91548">
        <ele>124.9</ele>
        <time>2020-06-28T09:37:56Z</time>
      </trkpt>
      <trkpt lat="48.70985" lon="7.91554">
        <ele>124.9</ele>
        <time>2020-06-28T09:37:57Z</time>
      </trkpt>
      <trkpt lat="48.70981" lon="7.9156">
        <ele>124.9</ele>
        <time>2020-06-28T09:37:58Z</time>
      </trkpt>
      <trkpt lat="48.70977" lon="7.91566">
        <ele>125</ele>
        <time>2020-06-28T09:37:59Z</time>
      </trkpt>
      <trkpt lat="48.70974" lon="7.91572">
        <ele>125.1</ele>
        <time>2020-06-28T09:38:00Z</time>
      </trkpt>
      <trkpt lat="48.70971" lon="7.91578">
        <ele>125.1</ele>
        <time>2020-06-28T09:38:01Z</time>
      </trkpt>
      <trkpt lat="48.70967" lon="7.91584">
        <ele>125.2</ele>
        <time>2020-06-28T09:38:02Z</time>
      </trkpt>
      <trkpt lat="48.70964" lon="7.9159">
        <ele>125.2</ele>
        <time>2020-06-28T09:38:03Z</time>
      </trkpt>
      <trkpt lat="48.7096" lon="7.91597">
        <ele>125.2</ele>
        <time>2020-06-28T09:38:04Z</time>
      </trkpt>
      <trkpt lat="48.70957" lon="7.91604">
        <ele>125.1</ele>
        <time>2020-06-28T09:38:05Z</time>
      </trkpt>
      <trkpt lat="48.70955" lon="7.91612">
        <ele>125.1</ele>
        <time>2020-06-28T09:38:06Z</time>
      </trkpt>
      <trkpt lat="48.70952" lon="7.91619">
        <ele>125.1</ele>
        <time>2020-06-28T09:38:07Z</time>
      </trkpt>
      <trkpt lat="48.70949" lon="7.91626">
        <ele>125.1</ele>
        <time>2020-06-28T09:38:08Z</time>
      </trkpt>
      <trkpt lat="48.70947" lon="7.91633">
        <ele>125</ele>
        <time>2020-06-28T09:38:09Z</time>
      </trkpt>
      <trkpt lat="48.70945" lon="7.9164">
        <ele>125</ele>
        <time>2020-06-28T09:38:10Z</time>
      </trkpt>
      <trkpt lat="48.70942" lon="7.91645">
        <ele>125</ele>
        <time>2020-06-28T09:38:11Z</time>
      </trkpt>
      <trkpt lat="48.70939" lon="7.9165">
        <ele>125</ele>
        <time>2020-06-28T09:38:12Z</time>
      </trkpt>
      <trkpt lat="48.70936" lon="7.91656">
        <ele>125</ele>
        <time>2020-06-28T09:38:13Z</time>
      </trkpt>
      <trkpt lat="48.70934" lon="7.91663">
        <ele>125</ele>
        <time>2020-06-28T09:38:14Z</time>
      </trkpt>
      <trkpt lat="48.70931" lon="7.91669">
        <ele>124.9</ele>
        <time>2020-06-28T09:38:15Z</time>
      </trkpt>
      <trkpt lat="48.70928" lon="7.91674">
        <ele>124.9</ele>
        <time>2020-06-28T09:38:16Z</time>
      </trkpt>
      <trkpt lat="48.70924" lon="7.91679">
        <ele>124.9</ele>
        <time>2020-06-28T09:38:17Z</time>
      </trkpt>
      <trkpt lat="48.7092" lon="7.91683">
        <ele>124.8</ele>
        <time>2020-06-28T09:38:18Z</time>
      </trkpt>
      <trkpt lat="48.70917" lon="7.91687">
        <ele>124.8</ele>
        <time>2020-06-28T09:38:19Z</time>
      </trkpt>
      <trkpt lat="48.70913" lon="7.91691">
        <ele>124.8</ele>
        <time>2020-06-28T09:38:20Z</time>
      </trkpt>
      <trkpt lat="48.7091" lon="7.91695">
        <ele>124.8</ele>
        <time>2020-06-28T09:38:21Z</time>
      </trkpt>
      <trkpt lat="48.70907" lon="7.917">
        <ele>124.8</ele>
        <time>2020-06-28T09:38:22Z</time>
      </trkpt>
      <trkpt lat="48.70902" lon="7.91703">
        <ele>124.9</ele>
        <time>2020-06-28T09:38:23Z</time>
      </trkpt>
      <trkpt lat="48.70899" lon="7.91709">
        <ele>124.9</ele>
        <time>2020-06-28T09:38:24Z</time>
      </trkpt>
      <trkpt lat="48.70895" lon="7.91713">
        <ele>125</ele>
        <time>2020-06-28T09:38:25Z</time>
      </trkpt>
      <trkpt lat="48.7089" lon="7.91716">
        <ele>125</ele>
        <time>2020-06-28T09:38:26Z</time>
      </trkpt>
      <trkpt lat="48.70885" lon="7.9172">
        <ele>125</ele>
        <time>2020-06-28T09:38:27Z</time>
      </trkpt>
      <trkpt lat="48.7088" lon="7.91724">
        <ele>125.1</ele>
        <time>2020-06-28T09:38:28Z</time>
      </trkpt>
      <trkpt lat="48.70875" lon="7.91726">
        <ele>125.1</ele>
        <time>2020-06-28T09:38:29Z</time>
      </trkpt>
      <trkpt lat="48.7087" lon="7.91729">
        <ele>125.1</ele>
        <time>2020-06-28T09:38:30Z</time>
      </trkpt>
      <trkpt lat="48.70864" lon="7.91733">
        <ele>125.2</ele>
        <time>2020-06-28T09:38:31Z</time>
      </trkpt>
      <trkpt lat="48.70859" lon="7.91737">
        <ele>125.2</ele>
        <time>2020-06-28T09:38:32Z</time>
      </trkpt>
      <trkpt lat="48.70854" lon="7.9174">
        <ele>125.2</ele>
        <time>2020-06-28T09:38:33Z</time>
      </trkpt>
      <trkpt lat="48.70848" lon="7.91742">
        <ele>125.2</ele>
        <time>2020-06-28T09:38:34Z</time>
      </trkpt>
      <trkpt lat="48.70843" lon="7.91743">
        <ele>125.3</ele>
        <time>2020-06-28T09:38:35Z</time>
      </trkpt>
      <trkpt lat="48.70839" lon="7.91745">
        <ele>125.3</ele>
        <time>2020-06-28T09:38:36Z</time>
      </trkpt>
      <trkpt lat="48.70834" lon="7.91749">
        <ele>125.3</ele>
        <time>2020-06-28T09:38:37Z</time>
      </trkpt>
      <trkpt lat="48.7083" lon="7.91752">
        <ele>125.4</ele>
        <time>2020-06-28T09:38:38Z</time>
      </trkpt>
      <trkpt lat="48.70826" lon="7.91756">
        <ele>125.4</ele>
        <time>2020-06-28T09:38:39Z</time>
      </trkpt>
      <trkpt lat="48.70822" lon="7.91758">
        <ele>125.5</ele>
        <time>2020-06-28T09:38:40Z</time>
      </trkpt>
      <trkpt lat="48.70818" lon="7.91762">
        <ele>125.5</ele>
        <time>2020-06-28T09:38:41Z</time>
      </trkpt>
      <trkpt lat="48.70813" lon="7.91765">
        <ele>125.6</ele>
        <time>2020-06-28T09:38:42Z</time>
      </trkpt>
      <trkpt lat="48.7081" lon="7.91768">
        <ele>125.6</ele>
        <time>2020-06-28T09:38:43Z</time>
      </trkpt>
      <trkpt lat="48.70805" lon="7.91771">
        <ele>125.5</ele>
        <time>2020-06-28T09:38:44Z</time>
      </trkpt>
      <trkpt lat="48.708" lon="7.91774">
        <ele>125.5</ele>
        <time>2020-06-28T09:38:45Z</time>
      </trkpt>
      <trkpt lat="48.70795" lon="7.91777">
        <ele>125.5</ele>
        <time>2020-06-28T09:38:46Z</time>
      </trkpt>
      <trkpt lat="48.70791" lon="7.9178">
        <ele>125.5</ele>
        <time>2020-06-28T09:38:47Z</time>
      </trkpt>
      <trkpt lat="48.70786" lon="7.91782">
        <ele>125.5</ele>
        <time>2020-06-28T09:38:48Z</time>
      </trkpt>
      <trkpt lat="48.70782" lon="7.91785">
        <ele>125.5</ele>
        <time>2020-06-28T09:38:49Z</time>
      </trkpt>
      <trkpt lat="48.70778" lon="7.91787">
        <ele>125.5</ele>
        <time>2020-06-28T09:38:50Z</time>
      </trkpt>
      <trkpt lat="48.70774" lon="7.91789">
        <ele>125.5</ele>
        <time>2020-06-28T09:38:51Z</time>
      </trkpt>
      <trkpt lat="48.70769" lon="7.91792">
        <ele>125.5</ele>
        <time>2020-06-28T09:38:52Z</time>
      </trkpt>
      <trkpt lat="48.70764" lon="7.91795">
        <ele>125.5</ele>
        <time>2020-06-28T09:38:53Z</time>
      </trkpt>
      <trkpt lat="48.7076" lon="7.91797">
        <ele>125.5</ele>
        <time>2020-06-28T09:38:54Z</time>
      </trkpt>
      <trkpt lat="48.70756" lon="7.918">
        <ele>125.5</ele>
        <time>2020-06-28T09:38:55Z</time>
      </trkpt>
      <trkpt lat="48.70751" lon="7.91802">
        <ele>125.5</ele>
        <time>2020-06-28T09:38:56Z</time>
      </trkpt>
      <trkpt lat="48.70747" lon="7.91804">
        <ele>125.5</ele>
        <time>2020-06-28T09:38:57Z</time>
      </trkpt>
      <trkpt lat="48.70742" lon="7.91806">
        <ele>125.5</ele>
        <time>2020-06-28T09:38:58Z</time>
      </trkpt>
      <trkpt lat="48.70738" lon="7.91806">
        <ele>125.5</ele>
        <time>2020-06-28T09:38:59Z</time>
      </trkpt>
      <trkpt lat="48.70732" lon="7.91803">
        <ele>125.5</ele>
        <time>2020-06-28T09:39:00Z</time>
      </trkpt>
      <trkpt lat="48.70727" lon="7.91799">
        <ele>125.6</ele>
        <time>2020-06-28T09:39:01Z</time>
      </trkpt>
      <trkpt lat="48.70722" lon="7.91796">
        <ele>125.7</ele>
        <time>2020-06-28T09:39:02Z</time>
      </trkpt>
      <trkpt lat="48.70718" lon="7.91792">
        <ele>125.7</ele>
        <time>2020-06-28T09:39:03Z</time>
      </trkpt>
      <trkpt lat="48.70715" lon="7.91787">
        <ele>125.8</ele>
        <time>2020-06-28T09:39:04Z</time>
      </trkpt>
      <trkpt lat="48.70712" lon="7.91782">
        <ele>125.8</ele>
        <time>2020-06-28T09:39:05Z</time>
      </trkpt>
      <trkpt lat="48.7071" lon="7.91777">
        <ele>125.9</ele>
        <time>2020-06-28T09:39:06Z</time>
      </trkpt>
      <trkpt lat="48.70706" lon="7.91772">
        <ele>125.9</ele>
        <time>2020-06-28T09:39:07Z</time>
      </trkpt>
      <trkpt lat="48.70702" lon="7.91767">
        <ele>125.9</ele>
        <time>2020-06-28T09:39:08Z</time>
      </trkpt>
      <trkpt lat="48.70699" lon="7.91762">
        <ele>125.9</ele>
        <time>2020-06-28T09:39:09Z</time>
      </trkpt>
      <trkpt lat="48.70694" lon="7.91757">
        <ele>125.8</ele>
        <time>2020-06-28T09:39:10Z</time>
      </trkpt>
      <trkpt lat="48.7069" lon="7.91751">
        <ele>125.8</ele>
        <time>2020-06-28T09:39:11Z</time>
      </trkpt>
      <trkpt lat="48.70685" lon="7.91745">
        <ele>125.7</ele>
        <time>2020-06-28T09:39:12Z</time>
      </trkpt>
      <trkpt lat="48.70681" lon="7.91739">
        <ele>125.7</ele>
        <time>2020-06-28T09:39:13Z</time>
      </trkpt>
      <trkpt lat="48.70677" lon="7.91734">
        <ele>125.7</ele>
        <time>2020-06-28T09:39:14Z</time>
      </trkpt>
      <trkpt lat="48.70673" lon="7.91729">
        <ele>125.7</ele>
        <time>2020-06-28T09:39:15Z</time>
      </trkpt>
      <trkpt lat="48.70669" lon="7.91723">
        <ele>125.7</ele>
        <time>2020-06-28T09:39:16Z</time>
      </trkpt>
      <trkpt lat="48.70665" lon="7.91718">
        <ele>125.7</ele>
        <time>2020-06-28T09:39:17Z</time>
      </trkpt>
      <trkpt lat="48.70661" lon="7.91713">
        <ele>125.7</ele>
        <time>2020-06-28T09:39:18Z</time>
      </trkpt>
      <trkpt lat="48.70657" lon="7.91708">
        <ele>125.6</ele>
        <time>2020-06-28T09:39:19Z</time>
      </trkpt>
      <trkpt lat="48.70654" lon="7.91704">
        <ele>125.6</ele>
        <time>2020-06-28T09:39:20Z</time>
      </trkpt>
      <trkpt lat="48.7065" lon="7.91699">
        <ele>125.6</ele>
        <time>2020-06-28T09:39:21Z</time>
      </trkpt>
      <trkpt lat="48.70647" lon="7.91693">
        <ele>125.6</ele>
        <time>2020-06-28T09:39:22Z</time>
      </trkpt>
      <trkpt lat="48.70643" lon="7.91689">
        <ele>125.6</ele>
        <time>2020-06-28T09:39:23Z</time>
      </trkpt>
      <trkpt lat="48.7064" lon="7.91684">
        <ele>125.6</ele>
        <time>2020-06-28T09:39:24Z</time>
      </trkpt>
      <trkpt lat="48.70637" lon="7.9168">
        <ele>125.6</ele>
        <time>2020-06-28T09:39:25Z</time>
      </trkpt>
      <trkpt lat="48.70633" lon="7.91676">
        <ele>125.6</ele>
        <time>2020-06-28T09:39:26Z</time>
      </trkpt>
      <trkpt lat="48.70628" lon="7.9167">
        <ele>125.6</ele>
        <time>2020-06-28T09:39:27Z</time>
      </trkpt>
      <trkpt lat="48.70625" lon="7.91665">
        <ele>125.6</ele>
        <time>2020-06-28T09:39:28Z</time>
      </trkpt>
      <trkpt lat="48.70621" lon="7.91661">
        <ele>125.6</ele>
        <time>2020-06-28T09:39:29Z</time>
      </trkpt>
      <trkpt lat="48.70618" lon="7.91656">
        <ele>125.6</ele>
        <time>2020-06-28T09:39:30Z</time>
      </trkpt>
      <trkpt lat="48.70613" lon="7.91651">
        <ele>125.6</ele>
        <time>2020-06-28T09:39:31Z</time>
      </trkpt>
      <trkpt lat="48.70611" lon="7.91645">
        <ele>125.6</ele>
        <time>2020-06-28T09:39:32Z</time>
      </trkpt>
      <trkpt lat="48.70607" lon="7.91639">
        <ele>125.7</ele>
        <time>2020-06-28T09:39:33Z</time>
      </trkpt>
      <trkpt lat="48.70603" lon="7.91633">
        <ele>125.7</ele>
        <time>2020-06-28T09:39:34Z</time>
      </trkpt>
      <trkpt lat="48.70599" lon="7.91628">
        <ele>125.7</ele>
        <time>2020-06-28T09:39:35Z</time>
      </trkpt>
      <trkpt lat="48.70595" lon="7.91624">
        <ele>125.8</ele>
        <time>2020-06-28T09:39:36Z</time>
      </trkpt>
      <trkpt lat="48.70591" lon="7.9162">
        <ele>125.8</ele>
        <time>2020-06-28T09:39:37Z</time>
      </trkpt>
      <trkpt lat="48.70587" lon="7.91617">
        <ele>125.9</ele>
        <time>2020-06-28T09:39:38Z</time>
      </trkpt>
      <trkpt lat="48.70582" lon="7.91614">
        <ele>125.9</ele>
        <time>2020-06-28T09:39:39Z</time>
      </trkpt>
      <trkpt lat="48.70578" lon="7.91612">
        <ele>125.9</ele>
        <time>2020-06-28T09:39:40Z</time>
      </trkpt>
      <trkpt lat="48.70573" lon="7.9161">
        <ele>125.9</ele>
        <time>2020-06-28T09:39:41Z</time>
      </trkpt>
      <trkpt lat="48.70568" lon="7.9161">
        <ele>125.9</ele>
        <time>2020-06-28T09:39:42Z</time>
      </trkpt>
      <trkpt lat="48.70564" lon="7.91609">
        <ele>126</ele>
        <time>2020-06-28T09:39:43Z</time>
      </trkpt>
      <trkpt lat="48.70558" lon="7.9161">
        <ele>126</ele>
        <time>2020-06-28T09:39:44Z</time>
      </trkpt>
      <trkpt lat="48.70553" lon="7.91611">
        <ele>126</ele>
        <time>2020-06-28T09:39:45Z</time>
      </trkpt>
      <trkpt lat="48.70548" lon="7.91613">
        <ele>125.9</ele>
        <time>2020-06-28T09:39:46Z</time>
      </trkpt>
      <trkpt lat="48.70544" lon="7.91616">
        <ele>125.9</ele>
        <time>2020-06-28T09:39:47Z</time>
      </trkpt>
      <trkpt lat="48.7054" lon="7.91619">
        <ele>125.9</ele>
        <time>2020-06-28T09:39:48Z</time>
      </trkpt>
      <trkpt lat="48.70537" lon="7.91624">
        <ele>125.9</ele>
        <time>2020-06-28T09:39:49Z</time>
      </trkpt>
      <trkpt lat="48.70533" lon="7.91628">
        <ele>125.8</ele>
        <time>2020-06-28T09:39:50Z</time>
      </trkpt>
      <trkpt lat="48.7053" lon="7.91635">
        <ele>125.8</ele>
        <time>2020-06-28T09:39:51Z</time>
      </trkpt>
      <trkpt lat="48.70527" lon="7.91641">
        <ele>125.8</ele>
        <time>2020-06-28T09:39:52Z</time>
      </trkpt>
      <trkpt lat="48.70524" lon="7.91647">
        <ele>125.8</ele>
        <time>2020-06-28T09:39:53Z</time>
      </trkpt>
      <trkpt lat="48.70521" lon="7.91652">
        <ele>125.8</ele>
        <time>2020-06-28T09:39:54Z</time>
      </trkpt>
      <trkpt lat="48.70518" lon="7.91658">
        <ele>125.8</ele>
        <time>2020-06-28T09:39:55Z</time>
      </trkpt>
      <trkpt lat="48.70515" lon="7.91664">
        <ele>125.8</ele>
        <time>2020-06-28T09:39:56Z</time>
      </trkpt>
      <trkpt lat="48.70512" lon="7.9167">
        <ele>125.8</ele>
        <time>2020-06-28T09:39:57Z</time>
      </trkpt>
      <trkpt lat="48.70508" lon="7.91674">
        <ele>125.8</ele>
        <time>2020-06-28T09:39:58Z</time>
      </trkpt>
      <trkpt lat="48.70504" lon="7.9168">
        <ele>125.8</ele>
        <time>2020-06-28T09:39:59Z</time>
      </trkpt>
      <trkpt lat="48.70501" lon="7.91687">
        <ele>125.8</ele>
        <time>2020-06-28T09:40:00Z</time>
      </trkpt>
      <trkpt lat="48.70497" lon="7.91693">
        <ele>125.8</ele>
        <time>2020-06-28T09:40:01Z</time>
      </trkpt>
      <trkpt lat="48.70492" lon="7.917">
        <ele>125.7</ele>
        <time>2020-06-28T09:40:02Z</time>
      </trkpt>
      <trkpt lat="48.70489" lon="7.91705">
        <ele>125.7</ele>
        <time>2020-06-28T09:40:03Z</time>
      </trkpt>
      <trkpt lat="48.70485" lon="7.91711">
        <ele>125.7</ele>
        <time>2020-06-28T09:40:04Z</time>
      </trkpt>
      <trkpt lat="48.70481" lon="7.91716">
        <ele>125.7</ele>
        <time>2020-06-28T09:40:05Z</time>
      </trkpt>
      <trkpt lat="48.70478" lon="7.91721">
        <ele>125.7</ele>
        <time>2020-06-28T09:40:06Z</time>
      </trkpt>
      <trkpt lat="48.70475" lon="7.91726">
        <ele>125.7</ele>
        <time>2020-06-28T09:40:07Z</time>
      </trkpt>
      <trkpt lat="48.70472" lon="7.91732">
        <ele>125.7</ele>
        <time>2020-06-28T09:40:08Z</time>
      </trkpt>
      <trkpt lat="48.70468" lon="7.91737">
        <ele>125.7</ele>
        <time>2020-06-28T09:40:09Z</time>
      </trkpt>
      <trkpt lat="48.70464" lon="7.91744">
        <ele>125.7</ele>
        <time>2020-06-28T09:40:10Z</time>
      </trkpt>
      <trkpt lat="48.70461" lon="7.91751">
        <ele>125.7</ele>
        <time>2020-06-28T09:40:11Z</time>
      </trkpt>
      <trkpt lat="48.70458" lon="7.91757">
        <ele>125.8</ele>
        <time>2020-06-28T09:40:12Z</time>
      </trkpt>
      <trkpt lat="48.70454" lon="7.91763">
        <ele>125.8</ele>
        <time>2020-06-28T09:40:13Z</time>
      </trkpt>
      <trkpt lat="48.7045" lon="7.91769">
        <ele>125.9</ele>
        <time>2020-06-28T09:40:14Z</time>
      </trkpt>
      <trkpt lat="48.70447" lon="7.91775">
        <ele>126</ele>
        <time>2020-06-28T09:40:15Z</time>
      </trkpt>
      <trkpt lat="48.70444" lon="7.91781">
        <ele>126</ele>
        <time>2020-06-28T09:40:16Z</time>
      </trkpt>
      <trkpt lat="48.70441" lon="7.91786">
        <ele>126</ele>
        <time>2020-06-28T09:40:17Z</time>
      </trkpt>
      <trkpt lat="48.70438" lon="7.91791">
        <ele>125.9</ele>
        <time>2020-06-28T09:40:18Z</time>
      </trkpt>
      <trkpt lat="48.70434" lon="7.91796">
        <ele>125.9</ele>
        <time>2020-06-28T09:40:19Z</time>
      </trkpt>
      <trkpt lat="48.70431" lon="7.91802">
        <ele>125.9</ele>
        <time>2020-06-28T09:40:20Z</time>
      </trkpt>
      <trkpt lat="48.70429" lon="7.91809">
        <ele>125.9</ele>
        <time>2020-06-28T09:40:21Z</time>
      </trkpt>
      <trkpt lat="48.70425" lon="7.91813">
        <ele>125.9</ele>
        <time>2020-06-28T09:40:22Z</time>
      </trkpt>
      <trkpt lat="48.70422" lon="7.91819">
        <ele>125.9</ele>
        <time>2020-06-28T09:40:23Z</time>
      </trkpt>
      <trkpt lat="48.70419" lon="7.91825">
        <ele>126</ele>
        <time>2020-06-28T09:40:24Z</time>
      </trkpt>
      <trkpt lat="48.70416" lon="7.9183">
        <ele>126</ele>
        <time>2020-06-28T09:40:25Z</time>
      </trkpt>
      <trkpt lat="48.70414" lon="7.91835">
        <ele>126</ele>
        <time>2020-06-28T09:40:26Z</time>
      </trkpt>
      <trkpt lat="48.7041" lon="7.9184">
        <ele>126</ele>
        <time>2020-06-28T09:40:27Z</time>
      </trkpt>
      <trkpt lat="48.70407" lon="7.91844">
        <ele>126</ele>
        <time>2020-06-28T09:40:28Z</time>
      </trkpt>
      <trkpt lat="48.70404" lon="7.9185">
        <ele>126</ele>
        <time>2020-06-28T09:40:29Z</time>
      </trkpt>
      <trkpt lat="48.70401" lon="7.91856">
        <ele>126</ele>
        <time>2020-06-28T09:40:30Z</time>
      </trkpt>
      <trkpt lat="48.70398" lon="7.91862">
        <ele>126.1</ele>
        <time>2020-06-28T09:40:31Z</time>
      </trkpt>
      <trkpt lat="48.70395" lon="7.91867">
        <ele>126.1</ele>
        <time>2020-06-28T09:40:32Z</time>
      </trkpt>
      <trkpt lat="48.70392" lon="7.91872">
        <ele>126.1</ele>
        <time>2020-06-28T09:40:33Z</time>
      </trkpt>
      <trkpt lat="48.70388" lon="7.91878">
        <ele>126.1</ele>
        <time>2020-06-28T09:40:34Z</time>
      </trkpt>
      <trkpt lat="48.70385" lon="7.91884">
        <ele>126.1</ele>
        <time>2020-06-28T09:40:35Z</time>
      </trkpt>
      <trkpt lat="48.70381" lon="7.9189">
        <ele>126.1</ele>
        <time>2020-06-28T09:40:36Z</time>
      </trkpt>
      <trkpt lat="48.70378" lon="7.91895">
        <ele>126.1</ele>
        <time>2020-06-28T09:40:37Z</time>
      </trkpt>
      <trkpt lat="48.70374" lon="7.91899">
        <ele>126.1</ele>
        <time>2020-06-28T09:40:38Z</time>
      </trkpt>
      <trkpt lat="48.70371" lon="7.91905">
        <ele>126.1</ele>
        <time>2020-06-28T09:40:39Z</time>
      </trkpt>
      <trkpt lat="48.70367" lon="7.91912">
        <ele>126.1</ele>
        <time>2020-06-28T09:40:40Z</time>
      </trkpt>
      <trkpt lat="48.70363" lon="7.91917">
        <ele>126</ele>
        <time>2020-06-28T09:40:41Z</time>
      </trkpt>
      <trkpt lat="48.70359" lon="7.9192">
        <ele>126</ele>
        <time>2020-06-28T09:40:42Z</time>
      </trkpt>
      <trkpt lat="48.70355" lon="7.91923">
        <ele>126</ele>
        <time>2020-06-28T09:40:43Z</time>
      </trkpt>
      <trkpt lat="48.7035" lon="7.91928">
        <ele>126</ele>
        <time>2020-06-28T09:40:44Z</time>
      </trkpt>
      <trkpt lat="48.70346" lon="7.91934">
        <ele>126</ele>
        <time>2020-06-28T09:40:45Z</time>
      </trkpt>
      <trkpt lat="48.70341" lon="7.91939">
        <ele>126</ele>
        <time>2020-06-28T09:40:46Z</time>
      </trkpt>
      <trkpt lat="48.70338" lon="7.91946">
        <ele>126</ele>
        <time>2020-06-28T09:40:47Z</time>
      </trkpt>
      <trkpt lat="48.70335" lon="7.91953">
        <ele>126</ele>
        <time>2020-06-28T09:40:48Z</time>
      </trkpt>
      <trkpt lat="48.70331" lon="7.91958">
        <ele>126</ele>
        <time>2020-06-28T09:40:49Z</time>
      </trkpt>
      <trkpt lat="48.70327" lon="7.91965">
        <ele>126</ele>
        <time>2020-06-28T09:40:50Z</time>
      </trkpt>
      <trkpt lat="48.70323" lon="7.91971">
        <ele>125.9</ele>
        <time>2020-06-28T09:40:51Z</time>
      </trkpt>
      <trkpt lat="48.7032" lon="7.91977">
        <ele>125.9</ele>
        <time>2020-06-28T09:40:52Z</time>
      </trkpt>
      <trkpt lat="48.70315" lon="7.91984">
        <ele>125.9</ele>
        <time>2020-06-28T09:40:53Z</time>
      </trkpt>
      <trkpt lat="48.70311" lon="7.91992">
        <ele>125.9</ele>
        <time>2020-06-28T09:40:54Z</time>
      </trkpt>
      <trkpt lat="48.70308" lon="7.92001">
        <ele>125.9</ele>
        <time>2020-06-28T09:40:55Z</time>
      </trkpt>
      <trkpt lat="48.70303" lon="7.92007">
        <ele>125.8</ele>
        <time>2020-06-28T09:40:56Z</time>
      </trkpt>
      <trkpt lat="48.70298" lon="7.92012">
        <ele>125.8</ele>
        <time>2020-06-28T09:40:57Z</time>
      </trkpt>
      <trkpt lat="48.70293" lon="7.92018">
        <ele>125.7</ele>
        <time>2020-06-28T09:40:58Z</time>
      </trkpt>
      <trkpt lat="48.70288" lon="7.92022">
        <ele>125.7</ele>
        <time>2020-06-28T09:40:59Z</time>
      </trkpt>
      <trkpt lat="48.70284" lon="7.92028">
        <ele>125.7</ele>
        <time>2020-06-28T09:41:00Z</time>
      </trkpt>
      <trkpt lat="48.70279" lon="7.92032">
        <ele>125.7</ele>
        <time>2020-06-28T09:41:01Z</time>
      </trkpt>
      <trkpt lat="48.70275" lon="7.92037">
        <ele>125.7</ele>
        <time>2020-06-28T09:41:02Z</time>
      </trkpt>
      <trkpt lat="48.7027" lon="7.92041">
        <ele>125.7</ele>
        <time>2020-06-28T09:41:03Z</time>
      </trkpt>
      <trkpt lat="48.70263" lon="7.92042">
        <ele>125.7</ele>
        <time>2020-06-28T09:41:04Z</time>
      </trkpt>
      <trkpt lat="48.70258" lon="7.92044">
        <ele>125.7</ele>
        <time>2020-06-28T09:41:05Z</time>
      </trkpt>
      <trkpt lat="48.70253" lon="7.92046">
        <ele>125.7</ele>
        <time>2020-06-28T09:41:06Z</time>
      </trkpt>
      <trkpt lat="48.70249" lon="7.92049">
        <ele>125.8</ele>
        <time>2020-06-28T09:41:07Z</time>
      </trkpt>
      <trkpt lat="48.70244" lon="7.92051">
        <ele>125.8</ele>
        <time>2020-06-28T09:41:08Z</time>
      </trkpt>
      <trkpt lat="48.70239" lon="7.9205">
        <ele>125.8</ele>
        <time>2020-06-28T09:41:09Z</time>
      </trkpt>
      <trkpt lat="48.70235" lon="7.9205">
        <ele>125.8</ele>
        <time>2020-06-28T09:41:10Z</time>
      </trkpt>
      <trkpt lat="48.7023" lon="7.92051">
        <ele>125.8</ele>
        <time>2020-06-28T09:41:11Z</time>
      </trkpt>
      <trkpt lat="48.70224" lon="7.92051">
        <ele>125.9</ele>
        <time>2020-06-28T09:41:12Z</time>
      </trkpt>
      <trkpt lat="48.70219" lon="7.92051">
        <ele>125.9</ele>
        <time>2020-06-28T09:41:13Z</time>
      </trkpt>
      <trkpt lat="48.70214" lon="7.92052">
        <ele>125.9</ele>
        <time>2020-06-28T09:41:14Z</time>
      </trkpt>
      <trkpt lat="48.70208" lon="7.92053">
        <ele>125.9</ele>
        <time>2020-06-28T09:41:15Z</time>
      </trkpt>
      <trkpt lat="48.70203" lon="7.92055">
        <ele>125.9</ele>
        <time>2020-06-28T09:41:16Z</time>
      </trkpt>
      <trkpt lat="48.70199" lon="7.92056">
        <ele>125.9</ele>
        <time>2020-06-28T09:41:17Z</time>
      </trkpt>
      <trkpt lat="48.70195" lon="7.92058">
        <ele>125.9</ele>
        <time>2020-06-28T09:41:18Z</time>
      </trkpt>
      <trkpt lat="48.70191" lon="7.92057">
        <ele>125.9</ele>
        <time>2020-06-28T09:41:19Z</time>
      </trkpt>
      <trkpt lat="48.70186" lon="7.92058">
        <ele>125.9</ele>
        <time>2020-06-28T09:41:20Z</time>
      </trkpt>
      <trkpt lat="48.70181" lon="7.92059">
        <ele>125.9</ele>
        <time>2020-06-28T09:41:21Z</time>
      </trkpt>
      <trkpt lat="48.70175" lon="7.9206">
        <ele>125.9</ele>
        <time>2020-06-28T09:41:22Z</time>
      </trkpt>
      <trkpt lat="48.7017" lon="7.92062">
        <ele>125.8</ele>
        <time>2020-06-28T09:41:23Z</time>
      </trkpt>
      <trkpt lat="48.70165" lon="7.92063">
        <ele>125.9</ele>
        <time>2020-06-28T09:41:24Z</time>
      </trkpt>
      <trkpt lat="48.7016" lon="7.92065">
        <ele>125.9</ele>
        <time>2020-06-28T09:41:25Z</time>
      </trkpt>
      <trkpt lat="48.70156" lon="7.92066">
        <ele>125.9</ele>
        <time>2020-06-28T09:41:26Z</time>
      </trkpt>
      <trkpt lat="48.7015" lon="7.92068">
        <ele>125.9</ele>
        <time>2020-06-28T09:41:27Z</time>
      </trkpt>
      <trkpt lat="48.70145" lon="7.92067">
        <ele>125.9</ele>
        <time>2020-06-28T09:41:28Z</time>
      </trkpt>
      <trkpt lat="48.7014" lon="7.92068">
        <ele>125.9</ele>
        <time>2020-06-28T09:41:29Z</time>
      </trkpt>
      <trkpt lat="48.70135" lon="7.92068">
        <ele>126</ele>
        <time>2020-06-28T09:41:30Z</time>
      </trkpt>
      <trkpt lat="48.70132" lon="7.9207">
        <ele>126</ele>
        <time>2020-06-28T09:41:31Z</time>
      </trkpt>
      <trkpt lat="48.70127" lon="7.9207">
        <ele>126</ele>
        <time>2020-06-28T09:41:32Z</time>
      </trkpt>
      <trkpt lat="48.70123" lon="7.92071">
        <ele>126</ele>
        <time>2020-06-28T09:41:33Z</time>
      </trkpt>
      <trkpt lat="48.70118" lon="7.92073">
        <ele>126</ele>
        <time>2020-06-28T09:41:34Z</time>
      </trkpt>
      <trkpt lat="48.70113" lon="7.92074">
        <ele>126</ele>
        <time>2020-06-28T09:41:35Z</time>
      </trkpt>
      <trkpt lat="48.70108" lon="7.92075">
        <ele>126</ele>
        <time>2020-06-28T09:41:36Z</time>
      </trkpt>
      <trkpt lat="48.70104" lon="7.92076">
        <ele>125.9</ele>
        <time>2020-06-28T09:41:37Z</time>
      </trkpt>
      <trkpt lat="48.70098" lon="7.92077">
        <ele>125.9</ele>
        <time>2020-06-28T09:41:38Z</time>
      </trkpt>
      <trkpt lat="48.70092" lon="7.92077">
        <ele>125.9</ele>
        <time>2020-06-28T09:41:39Z</time>
      </trkpt>
      <trkpt lat="48.70086" lon="7.92078">
        <ele>125.9</ele>
        <time>2020-06-28T09:41:40Z</time>
      </trkpt>
      <trkpt lat="48.7008" lon="7.92078">
        <ele>125.9</ele>
        <time>2020-06-28T09:41:41Z</time>
      </trkpt>
      <trkpt lat="48.70074" lon="7.92079">
        <ele>125.9</ele>
        <time>2020-06-28T09:41:42Z</time>
      </trkpt>
      <trkpt lat="48.70067" lon="7.92081">
        <ele>125.9</ele>
        <time>2020-06-28T09:41:43Z</time>
      </trkpt>
      <trkpt lat="48.70063" lon="7.92081">
        <ele>125.9</ele>
        <time>2020-06-28T09:41:44Z</time>
      </trkpt>
      <trkpt lat="48.70058" lon="7.92082">
        <ele>125.9</ele>
        <time>2020-06-28T09:41:45Z</time>
      </trkpt>
      <trkpt lat="48.70053" lon="7.92083">
        <ele>125.9</ele>
        <time>2020-06-28T09:41:46Z</time>
      </trkpt>
      <trkpt lat="48.70048" lon="7.92085">
        <ele>125.9</ele>
        <time>2020-06-28T09:41:47Z</time>
      </trkpt>
      <trkpt lat="48.70042" lon="7.92087">
        <ele>125.9</ele>
        <time>2020-06-28T09:41:48Z</time>
      </trkpt>
      <trkpt lat="48.70037" lon="7.92088">
        <ele>125.9</ele>
        <time>2020-06-28T09:41:49Z</time>
      </trkpt>
      <trkpt lat="48.70031" lon="7.92089">
        <ele>125.9</ele>
        <time>2020-06-28T09:41:50Z</time>
      </trkpt>
      <trkpt lat="48.70026" lon="7.9209">
        <ele>125.9</ele>
        <time>2020-06-28T09:41:51Z</time>
      </trkpt>
      <trkpt lat="48.70022" lon="7.9209">
        <ele>125.9</ele>
        <time>2020-06-28T09:41:52Z</time>
      </trkpt>
      <trkpt lat="48.70017" lon="7.92091">
        <ele>125.9</ele>
        <time>2020-06-28T09:41:53Z</time>
      </trkpt>
      <trkpt lat="48.70011" lon="7.92092">
        <ele>125.9</ele>
        <time>2020-06-28T09:41:54Z</time>
      </trkpt>
      <trkpt lat="48.70006" lon="7.92093">
        <ele>125.9</ele>
        <time>2020-06-28T09:41:55Z</time>
      </trkpt>
      <trkpt lat="48.7" lon="7.92093">
        <ele>125.9</ele>
        <time>2020-06-28T09:41:56Z</time>
      </trkpt>
      <trkpt lat="48.69995" lon="7.92095">
        <ele>125.9</ele>
        <time>2020-06-28T09:41:57Z</time>
      </trkpt>
      <trkpt lat="48.69989" lon="7.92096">
        <ele>125.9</ele>
        <time>2020-06-28T09:41:58Z</time>
      </trkpt>
      <trkpt lat="48.69984" lon="7.92097">
        <ele>125.9</ele>
        <time>2020-06-28T09:41:59Z</time>
      </trkpt>
      <trkpt lat="48.69979" lon="7.92097">
        <ele>126</ele>
        <time>2020-06-28T09:42:00Z</time>
      </trkpt>
      <trkpt lat="48.69974" lon="7.92098">
        <ele>126</ele>
        <time>2020-06-28T09:42:01Z</time>
      </trkpt>
      <trkpt lat="48.69969" lon="7.921">
        <ele>126</ele>
        <time>2020-06-28T09:42:02Z</time>
      </trkpt>
      <trkpt lat="48.69964" lon="7.92101">
        <ele>126</ele>
        <time>2020-06-28T09:42:03Z</time>
      </trkpt>
      <trkpt lat="48.69959" lon="7.92102">
        <ele>126</ele>
        <time>2020-06-28T09:42:04Z</time>
      </trkpt>
      <trkpt lat="48.69954" lon="7.92102">
        <ele>126</ele>
        <time>2020-06-28T09:42:05Z</time>
      </trkpt>
      <trkpt lat="48.69947" lon="7.92103">
        <ele>126</ele>
        <time>2020-06-28T09:42:06Z</time>
      </trkpt>
      <trkpt lat="48.69941" lon="7.92105">
        <ele>126</ele>
        <time>2020-06-28T09:42:07Z</time>
      </trkpt>
      <trkpt lat="48.69935" lon="7.92104">
        <ele>126</ele>
        <time>2020-06-28T09:42:08Z</time>
      </trkpt>
      <trkpt lat="48.6993" lon="7.92104">
        <ele>126</ele>
        <time>2020-06-28T09:42:09Z</time>
      </trkpt>
      <trkpt lat="48.69923" lon="7.92103">
        <ele>126</ele>
        <time>2020-06-28T09:42:10Z</time>
      </trkpt>
      <trkpt lat="48.69918" lon="7.92103">
        <ele>126</ele>
        <time>2020-06-28T09:42:11Z</time>
      </trkpt>
      <trkpt lat="48.69912" lon="7.92103">
        <ele>126</ele>
        <time>2020-06-28T09:42:12Z</time>
      </trkpt>
      <trkpt lat="48.69906" lon="7.92103">
        <ele>126</ele>
        <time>2020-06-28T09:42:13Z</time>
      </trkpt>
      <trkpt lat="48.69901" lon="7.92102">
        <ele>126</ele>
        <time>2020-06-28T09:42:14Z</time>
      </trkpt>
      <trkpt lat="48.69896" lon="7.92102">
        <ele>126</ele>
        <time>2020-06-28T09:42:15Z</time>
      </trkpt>
      <trkpt lat="48.69892" lon="7.921">
        <ele>126</ele>
        <time>2020-06-28T09:42:16Z</time>
      </trkpt>
      <trkpt lat="48.69886" lon="7.921">
        <ele>126</ele>
        <time>2020-06-28T09:42:17Z</time>
      </trkpt>
      <trkpt lat="48.6988" lon="7.92099">
        <ele>126</ele>
        <time>2020-06-28T09:42:18Z</time>
      </trkpt>
      <trkpt lat="48.69874" lon="7.92098">
        <ele>126</ele>
        <time>2020-06-28T09:42:19Z</time>
      </trkpt>
      <trkpt lat="48.69869" lon="7.92096">
        <ele>126</ele>
        <time>2020-06-28T09:42:20Z</time>
      </trkpt>
      <trkpt lat="48.69863" lon="7.92095">
        <ele>126</ele>
        <time>2020-06-28T09:42:21Z</time>
      </trkpt>
      <trkpt lat="48.69858" lon="7.92094">
        <ele>126</ele>
        <time>2020-06-28T09:42:22Z</time>
      </trkpt>
      <trkpt lat="48.69852" lon="7.92093">
        <ele>125.9</ele>
        <time>2020-06-28T09:42:23Z</time>
      </trkpt>
      <trkpt lat="48.69847" lon="7.92091">
        <ele>125.9</ele>
        <time>2020-06-28T09:42:24Z</time>
      </trkpt>
      <trkpt lat="48.69841" lon="7.92089">
        <ele>125.9</ele>
        <time>2020-06-28T09:42:25Z</time>
      </trkpt>
      <trkpt lat="48.69835" lon="7.92085">
        <ele>125.9</ele>
        <time>2020-06-28T09:42:26Z</time>
      </trkpt>
      <trkpt lat="48.69829" lon="7.92082">
        <ele>125.9</ele>
        <time>2020-06-28T09:42:27Z</time>
      </trkpt>
      <trkpt lat="48.69824" lon="7.92078">
        <ele>126</ele>
        <time>2020-06-28T09:42:28Z</time>
      </trkpt>
      <trkpt lat="48.69819" lon="7.92074">
        <ele>125.9</ele>
        <time>2020-06-28T09:42:29Z</time>
      </trkpt>
      <trkpt lat="48.69815" lon="7.92068">
        <ele>125.9</ele>
        <time>2020-06-28T09:42:30Z</time>
      </trkpt>
      <trkpt lat="48.6981" lon="7.92063">
        <ele>125.9</ele>
        <time>2020-06-28T09:42:31Z</time>
      </trkpt>
      <trkpt lat="48.69805" lon="7.92057">
        <ele>125.9</ele>
        <time>2020-06-28T09:42:32Z</time>
      </trkpt>
      <trkpt lat="48.69801" lon="7.92052">
        <ele>125.9</ele>
        <time>2020-06-28T09:42:33Z</time>
      </trkpt>
      <trkpt lat="48.69797" lon="7.92047">
        <ele>125.8</ele>
        <time>2020-06-28T09:42:34Z</time>
      </trkpt>
      <trkpt lat="48.69792" lon="7.92039">
        <ele>125.8</ele>
        <time>2020-06-28T09:42:35Z</time>
      </trkpt>
      <trkpt lat="48.69788" lon="7.92033">
        <ele>125.8</ele>
        <time>2020-06-28T09:42:36Z</time>
      </trkpt>
      <trkpt lat="48.69784" lon="7.92027">
        <ele>125.8</ele>
        <time>2020-06-28T09:42:37Z</time>
      </trkpt>
      <trkpt lat="48.6978" lon="7.92021">
        <ele>125.8</ele>
        <time>2020-06-28T09:42:38Z</time>
      </trkpt>
      <trkpt lat="48.69776" lon="7.92014">
        <ele>125.8</ele>
        <time>2020-06-28T09:42:39Z</time>
      </trkpt>
      <trkpt lat="48.69773" lon="7.92007">
        <ele>125.8</ele>
        <time>2020-06-28T09:42:40Z</time>
      </trkpt>
      <trkpt lat="48.69769" lon="7.92">
        <ele>125.8</ele>
        <time>2020-06-28T09:42:41Z</time>
      </trkpt>
      <trkpt lat="48.69766" lon="7.91993">
        <ele>125.8</ele>
        <time>2020-06-28T09:42:42Z</time>
      </trkpt>
      <trkpt lat="48.69763" lon="7.91985">
        <ele>125.8</ele>
        <time>2020-06-28T09:42:43Z</time>
      </trkpt>
      <trkpt lat="48.69759" lon="7.91979">
        <ele>125.8</ele>
        <time>2020-06-28T09:42:44Z</time>
      </trkpt>
      <trkpt lat="48.69756" lon="7.91972">
        <ele>125.9</ele>
        <time>2020-06-28T09:42:45Z</time>
      </trkpt>
      <trkpt lat="48.69753" lon="7.91965">
        <ele>125.9</ele>
        <time>2020-06-28T09:42:46Z</time>
      </trkpt>
      <trkpt lat="48.69749" lon="7.91959">
        <ele>126</ele>
        <time>2020-06-28T09:42:47Z</time>
      </trkpt>
      <trkpt lat="48.69745" lon="7.91954">
        <ele>126.1</ele>
        <time>2020-06-28T09:42:48Z</time>
      </trkpt>
      <trkpt lat="48.69741" lon="7.91948">
        <ele>126.1</ele>
        <time>2020-06-28T09:42:49Z</time>
      </trkpt>
      <trkpt lat="48.69737" lon="7.91945">
        <ele>126.2</ele>
        <time>2020-06-28T09:42:50Z</time>
      </trkpt>
      <trkpt lat="48.69732" lon="7.9194">
        <ele>126.2</ele>
        <time>2020-06-28T09:42:51Z</time>
      </trkpt>
      <trkpt lat="48.69729" lon="7.91936">
        <ele>126.2</ele>
        <time>2020-06-28T09:42:52Z</time>
      </trkpt>
      <trkpt lat="48.69725" lon="7.91932">
        <ele>126.1</ele>
        <time>2020-06-28T09:42:53Z</time>
      </trkpt>
      <trkpt lat="48.69721" lon="7.91928">
        <ele>126.1</ele>
        <time>2020-06-28T09:42:54Z</time>
      </trkpt>
      <trkpt lat="48.69716" lon="7.91924">
        <ele>126</ele>
        <time>2020-06-28T09:42:55Z</time>
      </trkpt>
      <trkpt lat="48.69711" lon="7.91921">
        <ele>126</ele>
        <time>2020-06-28T09:42:56Z</time>
      </trkpt>
      <trkpt lat="48.69706" lon="7.91917">
        <ele>125.9</ele>
        <time>2020-06-28T09:42:57Z</time>
      </trkpt>
      <trkpt lat="48.69701" lon="7.91914">
        <ele>125.9</ele>
        <time>2020-06-28T09:42:58Z</time>
      </trkpt>
      <trkpt lat="48.69696" lon="7.9191">
        <ele>125.9</ele>
        <time>2020-06-28T09:42:59Z</time>
      </trkpt>
      <trkpt lat="48.69691" lon="7.91908">
        <ele>125.9</ele>
        <time>2020-06-28T09:43:00Z</time>
      </trkpt>
      <trkpt lat="48.69686" lon="7.91904">
        <ele>125.9</ele>
        <time>2020-06-28T09:43:01Z</time>
      </trkpt>
      <trkpt lat="48.69681" lon="7.919">
        <ele>125.8</ele>
        <time>2020-06-28T09:43:02Z</time>
      </trkpt>
      <trkpt lat="48.69675" lon="7.91897">
        <ele>125.8</ele>
        <time>2020-06-28T09:43:03Z</time>
      </trkpt>
      <trkpt lat="48.6967" lon="7.91893">
        <ele>125.8</ele>
        <time>2020-06-28T09:43:04Z</time>
      </trkpt>
      <trkpt lat="48.69665" lon="7.9189">
        <ele>125.8</ele>
        <time>2020-06-28T09:43:05Z</time>
      </trkpt>
      <trkpt lat="48.69661" lon="7.91886">
        <ele>125.7</ele>
        <time>2020-06-28T09:43:06Z</time>
      </trkpt>
      <trkpt lat="48.69655" lon="7.91881">
        <ele>125.7</ele>
        <time>2020-06-28T09:43:07Z</time>
      </trkpt>
      <trkpt lat="48.69651" lon="7.91877">
        <ele>125.7</ele>
        <time>2020-06-28T09:43:08Z</time>
      </trkpt>
      <trkpt lat="48.69646" lon="7.91873">
        <ele>125.7</ele>
        <time>2020-06-28T09:43:09Z</time>
      </trkpt>
      <trkpt lat="48.69641" lon="7.91869">
        <ele>125.7</ele>
        <time>2020-06-28T09:43:10Z</time>
      </trkpt>
      <trkpt lat="48.69638" lon="7.91864">
        <ele>125.8</ele>
        <time>2020-06-28T09:43:11Z</time>
      </trkpt>
      <trkpt lat="48.69633" lon="7.91859">
        <ele>125.8</ele>
        <time>2020-06-28T09:43:12Z</time>
      </trkpt>
      <trkpt lat="48.69629" lon="7.91854">
        <ele>125.8</ele>
        <time>2020-06-28T09:43:13Z</time>
      </trkpt>
      <trkpt lat="48.69624" lon="7.91849">
        <ele>125.9</ele>
        <time>2020-06-28T09:43:14Z</time>
      </trkpt>
      <trkpt lat="48.6962" lon="7.91845">
        <ele>125.9</ele>
        <time>2020-06-28T09:43:15Z</time>
      </trkpt>
      <trkpt lat="48.69616" lon="7.9184">
        <ele>125.9</ele>
        <time>2020-06-28T09:43:16Z</time>
      </trkpt>
      <trkpt lat="48.69612" lon="7.91835">
        <ele>125.9</ele>
        <time>2020-06-28T09:43:17Z</time>
      </trkpt>
      <trkpt lat="48.69608" lon="7.9183">
        <ele>126</ele>
        <time>2020-06-28T09:43:18Z</time>
      </trkpt>
      <trkpt lat="48.69604" lon="7.91825">
        <ele>126</ele>
        <time>2020-06-28T09:43:19Z</time>
      </trkpt>
      <trkpt lat="48.69599" lon="7.9182">
        <ele>126</ele>
        <time>2020-06-28T09:43:20Z</time>
      </trkpt>
      <trkpt lat="48.69594" lon="7.91815">
        <ele>126</ele>
        <time>2020-06-28T09:43:21Z</time>
      </trkpt>
      <trkpt lat="48.69589" lon="7.91811">
        <ele>126</ele>
        <time>2020-06-28T09:43:22Z</time>
      </trkpt>
      <trkpt lat="48.69585" lon="7.91807">
        <ele>126.1</ele>
        <time>2020-06-28T09:43:23Z</time>
      </trkpt>
      <trkpt lat="48.69581" lon="7.91801">
        <ele>126.1</ele>
        <time>2020-06-28T09:43:24Z</time>
      </trkpt>
      <trkpt lat="48.69578" lon="7.91797">
        <ele>126.1</ele>
        <time>2020-06-28T09:43:25Z</time>
      </trkpt>
      <trkpt lat="48.69574" lon="7.91792">
        <ele>126.1</ele>
        <time>2020-06-28T09:43:26Z</time>
      </trkpt>
      <trkpt lat="48.69569" lon="7.91786">
        <ele>126.1</ele>
        <time>2020-06-28T09:43:27Z</time>
      </trkpt>
      <trkpt lat="48.69565" lon="7.91781">
        <ele>126.1</ele>
        <time>2020-06-28T09:43:28Z</time>
      </trkpt>
      <trkpt lat="48.69562" lon="7.91776">
        <ele>126.2</ele>
        <time>2020-06-28T09:43:29Z</time>
      </trkpt>
      <trkpt lat="48.69558" lon="7.91771">
        <ele>126.2</ele>
        <time>2020-06-28T09:43:30Z</time>
      </trkpt>
      <trkpt lat="48.69553" lon="7.91766">
        <ele>126.2</ele>
        <time>2020-06-28T09:43:31Z</time>
      </trkpt>
      <trkpt lat="48.69548" lon="7.91762">
        <ele>126.2</ele>
        <time>2020-06-28T09:43:32Z</time>
      </trkpt>
      <trkpt lat="48.69545" lon="7.91757">
        <ele>126.2</ele>
        <time>2020-06-28T09:43:33Z</time>
      </trkpt>
      <trkpt lat="48.6954" lon="7.91752">
        <ele>126.2</ele>
        <time>2020-06-28T09:43:34Z</time>
      </trkpt>
      <trkpt lat="48.69536" lon="7.91748">
        <ele>126.2</ele>
        <time>2020-06-28T09:43:35Z</time>
      </trkpt>
      <trkpt lat="48.69532" lon="7.91744">
        <ele>126.3</ele>
        <time>2020-06-28T09:43:36Z</time>
      </trkpt>
      <trkpt lat="48.69528" lon="7.91739">
        <ele>126.3</ele>
        <time>2020-06-28T09:43:37Z</time>
      </trkpt>
      <trkpt lat="48.69524" lon="7.91734">
        <ele>126.3</ele>
        <time>2020-06-28T09:43:38Z</time>
      </trkpt>
      <trkpt lat="48.69519" lon="7.91729">
        <ele>126.3</ele>
        <time>2020-06-28T09:43:39Z</time>
      </trkpt>
      <trkpt lat="48.69515" lon="7.91724">
        <ele>126.3</ele>
        <time>2020-06-28T09:43:40Z</time>
      </trkpt>
      <trkpt lat="48.69511" lon="7.91719">
        <ele>126.3</ele>
        <time>2020-06-28T09:43:41Z</time>
      </trkpt>
      <trkpt lat="48.69505" lon="7.91713">
        <ele>126.4</ele>
        <time>2020-06-28T09:43:42Z</time>
      </trkpt>
      <trkpt lat="48.69501" lon="7.91708">
        <ele>126.4</ele>
        <time>2020-06-28T09:43:43Z</time>
      </trkpt>
      <trkpt lat="48.69496" lon="7.91704">
        <ele>126.4</ele>
        <time>2020-06-28T09:43:44Z</time>
      </trkpt>
      <trkpt lat="48.69492" lon="7.917">
        <ele>126.4</ele>
        <time>2020-06-28T09:43:45Z</time>
      </trkpt>
      <trkpt lat="48.69488" lon="7.91695">
        <ele>126.3</ele>
        <time>2020-06-28T09:43:46Z</time>
      </trkpt>
      <trkpt lat="48.69484" lon="7.91691">
        <ele>126.3</ele>
        <time>2020-06-28T09:43:47Z</time>
      </trkpt>
      <trkpt lat="48.69479" lon="7.91686">
        <ele>126.3</ele>
        <time>2020-06-28T09:43:48Z</time>
      </trkpt>
      <trkpt lat="48.69476" lon="7.91681">
        <ele>126.3</ele>
        <time>2020-06-28T09:43:49Z</time>
      </trkpt>
      <trkpt lat="48.6947" lon="7.91676">
        <ele>126.3</ele>
        <time>2020-06-28T09:43:50Z</time>
      </trkpt>
      <trkpt lat="48.69466" lon="7.91671">
        <ele>126.3</ele>
        <time>2020-06-28T09:43:51Z</time>
      </trkpt>
      <trkpt lat="48.69462" lon="7.91667">
        <ele>126.3</ele>
        <time>2020-06-28T09:43:52Z</time>
      </trkpt>
      <trkpt lat="48.69457" lon="7.91662">
        <ele>126.4</ele>
        <time>2020-06-28T09:43:53Z</time>
      </trkpt>
      <trkpt lat="48.69453" lon="7.91656">
        <ele>126.4</ele>
        <time>2020-06-28T09:43:54Z</time>
      </trkpt>
      <trkpt lat="48.69448" lon="7.91651">
        <ele>126.4</ele>
        <time>2020-06-28T09:43:55Z</time>
      </trkpt>
      <trkpt lat="48.69444" lon="7.91646">
        <ele>126.4</ele>
        <time>2020-06-28T09:43:56Z</time>
      </trkpt>
      <trkpt lat="48.69439" lon="7.91642">
        <ele>126.5</ele>
        <time>2020-06-28T09:43:57Z</time>
      </trkpt>
      <trkpt lat="48.69435" lon="7.91636">
        <ele>126.5</ele>
        <time>2020-06-28T09:43:58Z</time>
      </trkpt>
      <trkpt lat="48.6943" lon="7.91631">
        <ele>126.5</ele>
        <time>2020-06-28T09:43:59Z</time>
      </trkpt>
      <trkpt lat="48.69425" lon="7.91626">
        <ele>126.5</ele>
        <time>2020-06-28T09:44:00Z</time>
      </trkpt>
      <trkpt lat="48.69421" lon="7.91621">
        <ele>126.5</ele>
        <time>2020-06-28T09:44:01Z</time>
      </trkpt>
      <trkpt lat="48.69417" lon="7.91617">
        <ele>126.6</ele>
        <time>2020-06-28T09:44:02Z</time>
      </trkpt>
      <trkpt lat="48.69413" lon="7.91613">
        <ele>126.6</ele>
        <time>2020-06-28T09:44:03Z</time>
      </trkpt>
      <trkpt lat="48.69408" lon="7.91608">
        <ele>126.6</ele>
        <time>2020-06-28T09:44:04Z</time>
      </trkpt>
      <trkpt lat="48.69404" lon="7.91605">
        <ele>126.5</ele>
        <time>2020-06-28T09:44:05Z</time>
      </trkpt>
      <trkpt lat="48.694" lon="7.916">
        <ele>126.5</ele>
        <time>2020-06-28T09:44:06Z</time>
      </trkpt>
      <trkpt lat="48.69395" lon="7.91595">
        <ele>126.4</ele>
        <time>2020-06-28T09:44:07Z</time>
      </trkpt>
      <trkpt lat="48.6939" lon="7.91589">
        <ele>126.4</ele>
        <time>2020-06-28T09:44:08Z</time>
      </trkpt>
      <trkpt lat="48.69386" lon="7.91584">
        <ele>126.4</ele>
        <time>2020-06-28T09:44:09Z</time>
      </trkpt>
      <trkpt lat="48.69381" lon="7.91579">
        <ele>126.4</ele>
        <time>2020-06-28T09:44:10Z</time>
      </trkpt>
      <trkpt lat="48.69376" lon="7.91574">
        <ele>126.4</ele>
        <time>2020-06-28T09:44:11Z</time>
      </trkpt>
      <trkpt lat="48.69372" lon="7.9157">
        <ele>126.4</ele>
        <time>2020-06-28T09:44:12Z</time>
      </trkpt>
      <trkpt lat="48.69368" lon="7.91565">
        <ele>126.4</ele>
        <time>2020-06-28T09:44:13Z</time>
      </trkpt>
      <trkpt lat="48.69364" lon="7.91561">
        <ele>126.4</ele>
        <time>2020-06-28T09:44:14Z</time>
      </trkpt>
      <trkpt lat="48.6936" lon="7.91558">
        <ele>126.4</ele>
        <time>2020-06-28T09:44:15Z</time>
      </trkpt>
      <trkpt lat="48.69356" lon="7.91554">
        <ele>126.4</ele>
        <time>2020-06-28T09:44:16Z</time>
      </trkpt>
      <trkpt lat="48.69352" lon="7.91551">
        <ele>126.4</ele>
        <time>2020-06-28T09:44:17Z</time>
      </trkpt>
      <trkpt lat="48.69347" lon="7.91546">
        <ele>126.4</ele>
        <time>2020-06-28T09:44:18Z</time>
      </trkpt>
      <trkpt lat="48.69344" lon="7.91542">
        <ele>126.4</ele>
        <time>2020-06-28T09:44:19Z</time>
      </trkpt>
      <trkpt lat="48.69342" lon="7.91541">
        <ele>126.4</ele>
        <time>2020-06-28T09:44:20Z</time>
      </trkpt>
      <trkpt lat="48.69339" lon="7.91537">
        <ele>126.4</ele>
        <time>2020-06-28T09:44:21Z</time>
      </trkpt>
      <trkpt lat="48.69336" lon="7.91534">
        <ele>126.4</ele>
        <time>2020-06-28T09:44:22Z</time>
      </trkpt>
      <trkpt lat="48.69333" lon="7.91531">
        <ele>126.4</ele>
        <time>2020-06-28T09:44:23Z</time>
      </trkpt>
      <trkpt lat="48.69329" lon="7.91527">
        <ele>126.5</ele>
        <time>2020-06-28T09:44:24Z</time>
      </trkpt>
      <trkpt lat="48.69324" lon="7.91524">
        <ele>126.5</ele>
        <time>2020-06-28T09:44:25Z</time>
      </trkpt>
      <trkpt lat="48.6932" lon="7.9152">
        <ele>126.6</ele>
        <time>2020-06-28T09:44:26Z</time>
      </trkpt>
      <trkpt lat="48.69316" lon="7.91517">
        <ele>126.6</ele>
        <time>2020-06-28T09:44:27Z</time>
      </trkpt>
      <trkpt lat="48.69312" lon="7.91513">
        <ele>126.6</ele>
        <time>2020-06-28T09:44:28Z</time>
      </trkpt>
      <trkpt lat="48.69308" lon="7.91509">
        <ele>126.6</ele>
        <time>2020-06-28T09:44:29Z</time>
      </trkpt>
      <trkpt lat="48.69304" lon="7.91505">
        <ele>126.6</ele>
        <time>2020-06-28T09:44:30Z</time>
      </trkpt>
      <trkpt lat="48.693" lon="7.91501">
        <ele>126.6</ele>
        <time>2020-06-28T09:44:31Z</time>
      </trkpt>
      <trkpt lat="48.69296" lon="7.91496">
        <ele>126.6</ele>
        <time>2020-06-28T09:44:32Z</time>
      </trkpt>
      <trkpt lat="48.69291" lon="7.91491">
        <ele>126.6</ele>
        <time>2020-06-28T09:44:33Z</time>
      </trkpt>
      <trkpt lat="48.69287" lon="7.91486">
        <ele>126.6</ele>
        <time>2020-06-28T09:44:34Z</time>
      </trkpt>
      <trkpt lat="48.69281" lon="7.91481">
        <ele>126.6</ele>
        <time>2020-06-28T09:44:35Z</time>
      </trkpt>
      <trkpt lat="48.69278" lon="7.91478">
        <ele>126.6</ele>
        <time>2020-06-28T09:44:36Z</time>
      </trkpt>
      <trkpt lat="48.69272" lon="7.91472">
        <ele>126.6</ele>
        <time>2020-06-28T09:44:37Z</time>
      </trkpt>
      <trkpt lat="48.69267" lon="7.91468">
        <ele>126.6</ele>
        <time>2020-06-28T09:44:38Z</time>
      </trkpt>
      <trkpt lat="48.69263" lon="7.91464">
        <ele>126.6</ele>
        <time>2020-06-28T09:44:39Z</time>
      </trkpt>
      <trkpt lat="48.69258" lon="7.9146">
        <ele>126.6</ele>
        <time>2020-06-28T09:44:40Z</time>
      </trkpt>
      <trkpt lat="48.69255" lon="7.91457">
        <ele>126.6</ele>
        <time>2020-06-28T09:44:41Z</time>
      </trkpt>
      <trkpt lat="48.6925" lon="7.91453">
        <ele>126.7</ele>
        <time>2020-06-28T09:44:42Z</time>
      </trkpt>
      <trkpt lat="48.69245" lon="7.91449">
        <ele>126.7</ele>
        <time>2020-06-28T09:44:43Z</time>
      </trkpt>
      <trkpt lat="48.69241" lon="7.91444">
        <ele>126.7</ele>
        <time>2020-06-28T09:44:44Z</time>
      </trkpt>
      <trkpt lat="48.69237" lon="7.9144">
        <ele>126.7</ele>
        <time>2020-06-28T09:44:45Z</time>
      </trkpt>
      <trkpt lat="48.69232" lon="7.91435">
        <ele>126.7</ele>
        <time>2020-06-28T09:44:46Z</time>
      </trkpt>
      <trkpt lat="48.69227" lon="7.91431">
        <ele>126.7</ele>
        <time>2020-06-28T09:44:47Z</time>
      </trkpt>
      <trkpt lat="48.69223" lon="7.91427">
        <ele>126.7</ele>
        <time>2020-06-28T09:44:48Z</time>
      </trkpt>
      <trkpt lat="48.69217" lon="7.91421">
        <ele>126.7</ele>
        <time>2020-06-28T09:44:49Z</time>
      </trkpt>
      <trkpt lat="48.69213" lon="7.91417">
        <ele>126.7</ele>
        <time>2020-06-28T09:44:50Z</time>
      </trkpt>
      <trkpt lat="48.69209" lon="7.91413">
        <ele>126.8</ele>
        <time>2020-06-28T09:44:51Z</time>
      </trkpt>
      <trkpt lat="48.69204" lon="7.91408">
        <ele>126.8</ele>
        <time>2020-06-28T09:44:52Z</time>
      </trkpt>
      <trkpt lat="48.69199" lon="7.91404">
        <ele>126.8</ele>
        <time>2020-06-28T09:44:53Z</time>
      </trkpt>
      <trkpt lat="48.69194" lon="7.914">
        <ele>126.8</ele>
        <time>2020-06-28T09:44:54Z</time>
      </trkpt>
      <trkpt lat="48.69189" lon="7.91395">
        <ele>126.8</ele>
        <time>2020-06-28T09:44:55Z</time>
      </trkpt>
      <trkpt lat="48.69184" lon="7.9139">
        <ele>126.9</ele>
        <time>2020-06-28T09:44:56Z</time>
      </trkpt>
      <trkpt lat="48.69179" lon="7.91385">
        <ele>126.9</ele>
        <time>2020-06-28T09:44:57Z</time>
      </trkpt>
      <trkpt lat="48.69175" lon="7.9138">
        <ele>126.9</ele>
        <time>2020-06-28T09:44:58Z</time>
      </trkpt>
      <trkpt lat="48.6917" lon="7.91375">
        <ele>126.9</ele>
        <time>2020-06-28T09:44:59Z</time>
      </trkpt>
      <trkpt lat="48.69165" lon="7.91371">
        <ele>126.9</ele>
        <time>2020-06-28T09:45:00Z</time>
      </trkpt>
      <trkpt lat="48.69161" lon="7.91366">
        <ele>126.9</ele>
        <time>2020-06-28T09:45:01Z</time>
      </trkpt>
      <trkpt lat="48.69157" lon="7.91363">
        <ele>126.9</ele>
        <time>2020-06-28T09:45:02Z</time>
      </trkpt>
      <trkpt lat="48.69152" lon="7.91359">
        <ele>126.9</ele>
        <time>2020-06-28T09:45:03Z</time>
      </trkpt>
      <trkpt lat="48.69148" lon="7.91356">
        <ele>126.9</ele>
        <time>2020-06-28T09:45:04Z</time>
      </trkpt>
      <trkpt lat="48.69144" lon="7.91354">
        <ele>127</ele>
        <time>2020-06-28T09:45:05Z</time>
      </trkpt>
      <trkpt lat="48.6914" lon="7.91353">
        <ele>127</ele>
        <time>2020-06-28T09:45:06Z</time>
      </trkpt>
      <trkpt lat="48.69137" lon="7.91352">
        <ele>127</ele>
        <time>2020-06-28T09:45:07Z</time>
      </trkpt>
      <trkpt lat="48.69133" lon="7.91352">
        <ele>127.1</ele>
        <time>2020-06-28T09:45:08Z</time>
      </trkpt>
      <trkpt lat="48.69129" lon="7.91351">
        <ele>127.1</ele>
        <time>2020-06-28T09:45:09Z</time>
      </trkpt>
      <trkpt lat="48.69126" lon="7.91351">
        <ele>127.2</ele>
        <time>2020-06-28T09:45:10Z</time>
      </trkpt>
      <trkpt lat="48.69122" lon="7.9135">
        <ele>127.2</ele>
        <time>2020-06-28T09:45:11Z</time>
      </trkpt>
      <trkpt lat="48.69118" lon="7.91348">
        <ele>127.2</ele>
        <time>2020-06-28T09:45:12Z</time>
      </trkpt>
      <trkpt lat="48.69114" lon="7.91343">
        <ele>127.2</ele>
        <time>2020-06-28T09:45:13Z</time>
      </trkpt>
      <trkpt lat="48.69113" lon="7.91337">
        <ele>127.2</ele>
        <time>2020-06-28T09:45:14Z</time>
      </trkpt>
      <trkpt lat="48.69111" lon="7.91329">
        <ele>127.2</ele>
        <time>2020-06-28T09:45:15Z</time>
      </trkpt>
      <trkpt lat="48.69109" lon="7.91321">
        <ele>127.1</ele>
        <time>2020-06-28T09:45:16Z</time>
      </trkpt>
      <trkpt lat="48.69107" lon="7.91313">
        <ele>127.1</ele>
        <time>2020-06-28T09:45:17Z</time>
      </trkpt>
      <trkpt lat="48.69106" lon="7.91306">
        <ele>127.1</ele>
        <time>2020-06-28T09:45:18Z</time>
      </trkpt>
      <trkpt lat="48.69105" lon="7.913">
        <ele>127.1</ele>
        <time>2020-06-28T09:45:19Z</time>
      </trkpt>
      <trkpt lat="48.69103" lon="7.91293">
        <ele>127.1</ele>
        <time>2020-06-28T09:45:20Z</time>
      </trkpt>
      <trkpt lat="48.69102" lon="7.91285">
        <ele>127</ele>
        <time>2020-06-28T09:45:21Z</time>
      </trkpt>
      <trkpt lat="48.691" lon="7.91277">
        <ele>127</ele>
        <time>2020-06-28T09:45:22Z</time>
      </trkpt>
      <trkpt lat="48.69098" lon="7.91268">
        <ele>127</ele>
        <time>2020-06-28T09:45:23Z</time>
      </trkpt>
      <trkpt lat="48.69097" lon="7.91261">
        <ele>127</ele>
        <time>2020-06-28T09:45:24Z</time>
      </trkpt>
      <trkpt lat="48.69095" lon="7.91253">
        <ele>127</ele>
        <time>2020-06-28T09:45:25Z</time>
      </trkpt>
      <trkpt lat="48.69093" lon="7.91247">
        <ele>127</ele>
        <time>2020-06-28T09:45:26Z</time>
      </trkpt>
      <trkpt lat="48.69092" lon="7.9124">
        <ele>127</ele>
        <time>2020-06-28T09:45:27Z</time>
      </trkpt>
      <trkpt lat="48.69091" lon="7.91234">
        <ele>127</ele>
        <time>2020-06-28T09:45:28Z</time>
      </trkpt>
      <trkpt lat="48.69089" lon="7.91229">
        <ele>127</ele>
        <time>2020-06-28T09:45:29Z</time>
      </trkpt>
      <trkpt lat="48.69088" lon="7.91223">
        <ele>127</ele>
        <time>2020-06-28T09:45:30Z</time>
      </trkpt>
      <trkpt lat="48.69087" lon="7.91218">
        <ele>127</ele>
        <time>2020-06-28T09:45:31Z</time>
      </trkpt>
      <trkpt lat="48.69086" lon="7.91212">
        <ele>127</ele>
        <time>2020-06-28T09:45:32Z</time>
      </trkpt>
      <trkpt lat="48.69084" lon="7.91205">
        <ele>127</ele>
        <time>2020-06-28T09:45:33Z</time>
      </trkpt>
      <trkpt lat="48.69083" lon="7.91198">
        <ele>127</ele>
        <time>2020-06-28T09:45:34Z</time>
      </trkpt>
      <trkpt lat="48.69082" lon="7.91192">
        <ele>127.1</ele>
        <time>2020-06-28T09:45:35Z</time>
      </trkpt>
      <trkpt lat="48.6908" lon="7.91185">
        <ele>127.1</ele>
        <time>2020-06-28T09:45:36Z</time>
      </trkpt>
      <trkpt lat="48.69079" lon="7.91177">
        <ele>127.1</ele>
        <time>2020-06-28T09:45:37Z</time>
      </trkpt>
      <trkpt lat="48.69078" lon="7.91171">
        <ele>127.1</ele>
        <time>2020-06-28T09:45:38Z</time>
      </trkpt>
      <trkpt lat="48.69076" lon="7.91164">
        <ele>127.2</ele>
        <time>2020-06-28T09:45:39Z</time>
      </trkpt>
      <trkpt lat="48.69074" lon="7.91158">
        <ele>127.2</ele>
        <time>2020-06-28T09:45:40Z</time>
      </trkpt>
      <trkpt lat="48.69073" lon="7.91151">
        <ele>127.2</ele>
        <time>2020-06-28T09:45:41Z</time>
      </trkpt>
      <trkpt lat="48.69072" lon="7.91146">
        <ele>127.2</ele>
        <time>2020-06-28T09:45:42Z</time>
      </trkpt>
      <trkpt lat="48.6907" lon="7.91137">
        <ele>127.2</ele>
        <time>2020-06-28T09:45:43Z</time>
      </trkpt>
      <trkpt lat="48.69068" lon="7.91131">
        <ele>127.3</ele>
        <time>2020-06-28T09:45:44Z</time>
      </trkpt>
      <trkpt lat="48.69066" lon="7.91124">
        <ele>127.3</ele>
        <time>2020-06-28T09:45:45Z</time>
      </trkpt>
      <trkpt lat="48.69065" lon="7.91118">
        <ele>127.3</ele>
        <time>2020-06-28T09:45:46Z</time>
      </trkpt>
      <trkpt lat="48.69063" lon="7.91111">
        <ele>127.3</ele>
        <time>2020-06-28T09:45:47Z</time>
      </trkpt>
      <trkpt lat="48.69062" lon="7.91104">
        <ele>127.3</ele>
        <time>2020-06-28T09:45:48Z</time>
      </trkpt>
      <trkpt lat="48.69061" lon="7.91097">
        <ele>127.3</ele>
        <time>2020-06-28T09:45:49Z</time>
      </trkpt>
      <trkpt lat="48.6906" lon="7.9109">
        <ele>127.3</ele>
        <time>2020-06-28T09:45:50Z</time>
      </trkpt>
      <trkpt lat="48.69057" lon="7.91081">
        <ele>127.3</ele>
        <time>2020-06-28T09:45:51Z</time>
      </trkpt>
      <trkpt lat="48.69055" lon="7.91074">
        <ele>127.3</ele>
        <time>2020-06-28T09:45:52Z</time>
      </trkpt>
      <trkpt lat="48.69054" lon="7.91067">
        <ele>127.3</ele>
        <time>2020-06-28T09:45:53Z</time>
      </trkpt>
      <trkpt lat="48.69053" lon="7.9106">
        <ele>127.3</ele>
        <time>2020-06-28T09:45:54Z</time>
      </trkpt>
      <trkpt lat="48.69051" lon="7.91051">
        <ele>127.3</ele>
        <time>2020-06-28T09:45:55Z</time>
      </trkpt>
      <trkpt lat="48.6905" lon="7.91044">
        <ele>127.3</ele>
        <time>2020-06-28T09:45:56Z</time>
      </trkpt>
      <trkpt lat="48.69048" lon="7.91037">
        <ele>127.3</ele>
        <time>2020-06-28T09:45:57Z</time>
      </trkpt>
      <trkpt lat="48.69047" lon="7.91031">
        <ele>127.3</ele>
        <time>2020-06-28T09:45:58Z</time>
      </trkpt>
      <trkpt lat="48.69046" lon="7.91022">
        <ele>127.3</ele>
        <time>2020-06-28T09:45:59Z</time>
      </trkpt>
      <trkpt lat="48.69044" lon="7.91015">
        <ele>127.3</ele>
        <time>2020-06-28T09:46:00Z</time>
      </trkpt>
      <trkpt lat="48.69043" lon="7.91007">
        <ele>127.3</ele>
        <time>2020-06-28T09:46:01Z</time>
      </trkpt>
      <trkpt lat="48.69042" lon="7.90999">
        <ele>127.2</ele>
        <time>2020-06-28T09:46:02Z</time>
      </trkpt>
      <trkpt lat="48.69042" lon="7.90991">
        <ele>127.2</ele>
        <time>2020-06-28T09:46:03Z</time>
      </trkpt>
      <trkpt lat="48.69041" lon="7.90982">
        <ele>127.2</ele>
        <time>2020-06-28T09:46:04Z</time>
      </trkpt>
      <trkpt lat="48.69039" lon="7.90973">
        <ele>127.2</ele>
        <time>2020-06-28T09:46:05Z</time>
      </trkpt>
      <trkpt lat="48.69037" lon="7.90963">
        <ele>127.2</ele>
        <time>2020-06-28T09:46:06Z</time>
      </trkpt>
      <trkpt lat="48.69034" lon="7.90954">
        <ele>127.2</ele>
        <time>2020-06-28T09:46:07Z</time>
      </trkpt>
      <trkpt lat="48.69032" lon="7.90945">
        <ele>127.2</ele>
        <time>2020-06-28T09:46:08Z</time>
      </trkpt>
      <trkpt lat="48.69031" lon="7.90938">
        <ele>127.2</ele>
        <time>2020-06-28T09:46:09Z</time>
      </trkpt>
      <trkpt lat="48.69029" lon="7.90931">
        <ele>127.3</ele>
        <time>2020-06-28T09:46:10Z</time>
      </trkpt>
      <trkpt lat="48.69028" lon="7.90923">
        <ele>127.3</ele>
        <time>2020-06-28T09:46:11Z</time>
      </trkpt>
      <trkpt lat="48.69027" lon="7.90914">
        <ele>127.3</ele>
        <time>2020-06-28T09:46:12Z</time>
      </trkpt>
      <trkpt lat="48.69025" lon="7.90905">
        <ele>127.3</ele>
        <time>2020-06-28T09:46:13Z</time>
      </trkpt>
      <trkpt lat="48.69024" lon="7.90896">
        <ele>127.4</ele>
        <time>2020-06-28T09:46:14Z</time>
      </trkpt>
      <trkpt lat="48.69022" lon="7.90888">
        <ele>127.4</ele>
        <time>2020-06-28T09:46:15Z</time>
      </trkpt>
      <trkpt lat="48.69021" lon="7.90879">
        <ele>127.4</ele>
        <time>2020-06-28T09:46:16Z</time>
      </trkpt>
      <trkpt lat="48.6902" lon="7.9087">
        <ele>127.3</ele>
        <time>2020-06-28T09:46:17Z</time>
      </trkpt>
      <trkpt lat="48.69018" lon="7.90863">
        <ele>127.3</ele>
        <time>2020-06-28T09:46:18Z</time>
      </trkpt>
      <trkpt lat="48.69017" lon="7.90854">
        <ele>127.3</ele>
        <time>2020-06-28T09:46:19Z</time>
      </trkpt>
      <trkpt lat="48.69015" lon="7.90845">
        <ele>127.3</ele>
        <time>2020-06-28T09:46:20Z</time>
      </trkpt>
      <trkpt lat="48.69013" lon="7.90838">
        <ele>127.3</ele>
        <time>2020-06-28T09:46:21Z</time>
      </trkpt>
      <trkpt lat="48.69012" lon="7.90831">
        <ele>127.2</ele>
        <time>2020-06-28T09:46:22Z</time>
      </trkpt>
      <trkpt lat="48.6901" lon="7.90822">
        <ele>127.2</ele>
        <time>2020-06-28T09:46:23Z</time>
      </trkpt>
      <trkpt lat="48.69009" lon="7.90814">
        <ele>127.2</ele>
        <time>2020-06-28T09:46:24Z</time>
      </trkpt>
      <trkpt lat="48.69007" lon="7.90806">
        <ele>127.3</ele>
        <time>2020-06-28T09:46:25Z</time>
      </trkpt>
      <trkpt lat="48.69005" lon="7.90797">
        <ele>127.3</ele>
        <time>2020-06-28T09:46:26Z</time>
      </trkpt>
      <trkpt lat="48.69004" lon="7.90789">
        <ele>127.3</ele>
        <time>2020-06-28T09:46:27Z</time>
      </trkpt>
      <trkpt lat="48.69002" lon="7.9078">
        <ele>127.3</ele>
        <time>2020-06-28T09:46:28Z</time>
      </trkpt>
      <trkpt lat="48.69" lon="7.90771">
        <ele>127.3</ele>
        <time>2020-06-28T09:46:29Z</time>
      </trkpt>
      <trkpt lat="48.68999" lon="7.90763">
        <ele>127.3</ele>
        <time>2020-06-28T09:46:30Z</time>
      </trkpt>
      <trkpt lat="48.68998" lon="7.90754">
        <ele>127.3</ele>
        <time>2020-06-28T09:46:31Z</time>
      </trkpt>
      <trkpt lat="48.68996" lon="7.90746">
        <ele>127.3</ele>
        <time>2020-06-28T09:46:32Z</time>
      </trkpt>
      <trkpt lat="48.68995" lon="7.90738">
        <ele>127.2</ele>
        <time>2020-06-28T09:46:33Z</time>
      </trkpt>
      <trkpt lat="48.68993" lon="7.9073">
        <ele>127.2</ele>
        <time>2020-06-28T09:46:34Z</time>
      </trkpt>
      <trkpt lat="48.68992" lon="7.90722">
        <ele>127.2</ele>
        <time>2020-06-28T09:46:35Z</time>
      </trkpt>
      <trkpt lat="48.6899" lon="7.90713">
        <ele>127.2</ele>
        <time>2020-06-28T09:46:36Z</time>
      </trkpt>
      <trkpt lat="48.68988" lon="7.90704">
        <ele>127.2</ele>
        <time>2020-06-28T09:46:37Z</time>
      </trkpt>
      <trkpt lat="48.68987" lon="7.90697">
        <ele>127.2</ele>
        <time>2020-06-28T09:46:38Z</time>
      </trkpt>
      <trkpt lat="48.68986" lon="7.9069">
        <ele>127.2</ele>
        <time>2020-06-28T09:46:39Z</time>
      </trkpt>
      <trkpt lat="48.68985" lon="7.90683">
        <ele>127.2</ele>
        <time>2020-06-28T09:46:40Z</time>
      </trkpt>
      <trkpt lat="48.68984" lon="7.90674">
        <ele>127.2</ele>
        <time>2020-06-28T09:46:41Z</time>
      </trkpt>
      <trkpt lat="48.68985" lon="7.90668">
        <ele>127.2</ele>
        <time>2020-06-28T09:46:42Z</time>
      </trkpt>
      <trkpt lat="48.68984" lon="7.90659">
        <ele>127.5</ele>
        <time>2020-06-28T09:46:43Z</time>
      </trkpt>
      <trkpt lat="48.68985" lon="7.90651">
        <ele>127.7</ele>
        <time>2020-06-28T09:46:44Z</time>
      </trkpt>
      <trkpt lat="48.68984" lon="7.90643">
        <ele>127.9</ele>
        <time>2020-06-28T09:46:45Z</time>
      </trkpt>
      <trkpt lat="48.68983" lon="7.90635">
        <ele>128</ele>
        <time>2020-06-28T09:46:46Z</time>
      </trkpt>
      <trkpt lat="48.68982" lon="7.90628">
        <ele>128.2</ele>
        <time>2020-06-28T09:46:47Z</time>
      </trkpt>
      <trkpt lat="48.68982" lon="7.90621">
        <ele>128.4</ele>
        <time>2020-06-28T09:46:48Z</time>
      </trkpt>
      <trkpt lat="48.68981" lon="7.90616">
        <ele>128.5</ele>
        <time>2020-06-28T09:46:49Z</time>
      </trkpt>
      <trkpt lat="48.6898" lon="7.90611">
        <ele>128.6</ele>
        <time>2020-06-28T09:46:50Z</time>
      </trkpt>
      <trkpt lat="48.68977" lon="7.90611">
        <ele>128.8</ele>
        <time>2020-06-28T09:46:51Z</time>
      </trkpt>
      <trkpt lat="48.68976" lon="7.90612">
        <ele>128.8</ele>
        <time>2020-06-28T09:46:52Z</time>
      </trkpt>
      <trkpt lat="48.68973" lon="7.90616">
        <ele>129</ele>
        <time>2020-06-28T09:46:53Z</time>
      </trkpt>
      <trkpt lat="48.6897" lon="7.90616">
        <ele>129.5</ele>
        <time>2020-06-28T09:46:54Z</time>
      </trkpt>
      <trkpt lat="48.68967" lon="7.90616">
        <ele>129.2</ele>
        <time>2020-06-28T09:46:55Z</time>
      </trkpt>
      <trkpt lat="48.68964" lon="7.90615">
        <ele>129</ele>
        <time>2020-06-28T09:46:56Z</time>
      </trkpt>
      <trkpt lat="48.6896" lon="7.90614">
        <ele>128.2</ele>
        <time>2020-06-28T09:46:57Z</time>
      </trkpt>
      <trkpt lat="48.68958" lon="7.90613">
        <ele>128.2</ele>
        <time>2020-06-28T09:46:58Z</time>
      </trkpt>
      <trkpt lat="48.68955" lon="7.90612">
        <ele>128.2</ele>
        <time>2020-06-28T09:46:59Z</time>
      </trkpt>
      <trkpt lat="48.68952" lon="7.90612">
        <ele>128.3</ele>
        <time>2020-06-28T09:47:00Z</time>
      </trkpt>
      <trkpt lat="48.6895" lon="7.90612">
        <ele>128.3</ele>
        <time>2020-06-28T09:47:01Z</time>
      </trkpt>
      <trkpt lat="48.6895" lon="7.90613">
        <ele>128.3</ele>
        <time>2020-06-28T09:47:02Z</time>
      </trkpt>
      <trkpt lat="48.68951" lon="7.90613">
        <ele>128.3</ele>
        <time>2020-06-28T09:47:03Z</time>
      </trkpt>
      <trkpt lat="48.68951" lon="7.90613">
        <ele>128.3</ele>
        <time>2020-06-28T09:47:04Z</time>
      </trkpt>
      <trkpt lat="48.68951" lon="7.90613">
        <ele>128.3</ele>
        <time>2020-06-28T09:47:05Z</time>
      </trkpt>
      <trkpt lat="48.68949" lon="7.90614">
        <ele>128.2</ele>
        <time>2020-06-28T09:47:06Z</time>
      </trkpt>
      <trkpt lat="48.68949" lon="7.90612">
        <ele>128.2</ele>
        <time>2020-06-28T09:47:07Z</time>
      </trkpt>
      <trkpt lat="48.68947" lon="7.9061">
        <ele>128.2</ele>
        <time>2020-06-28T09:47:08Z</time>
      </trkpt>
      <trkpt lat="48.68944" lon="7.90608">
        <ele>128.1</ele>
        <time>2020-06-28T09:47:09Z</time>
      </trkpt>
      <trkpt lat="48.68943" lon="7.90607">
        <ele>128.1</ele>
        <time>2020-06-28T09:47:10Z</time>
      </trkpt>
      <trkpt lat="48.6894" lon="7.90604">
        <ele>128.1</ele>
        <time>2020-06-28T09:47:11Z</time>
      </trkpt>
      <trkpt lat="48.68938" lon="7.90602">
        <ele>128</ele>
        <time>2020-06-28T09:47:12Z</time>
      </trkpt>
      <trkpt lat="48.68938" lon="7.90597">
        <ele>128</ele>
        <time>2020-06-28T09:47:13Z</time>
      </trkpt>
      <trkpt lat="48.68938" lon="7.90591">
        <ele>127.9</ele>
        <time>2020-06-28T09:47:14Z</time>
      </trkpt>
      <trkpt lat="48.68938" lon="7.90586">
        <ele>127.9</ele>
        <time>2020-06-28T09:47:15Z</time>
      </trkpt>
      <trkpt lat="48.68938" lon="7.90582">
        <ele>127.9</ele>
        <time>2020-06-28T09:47:16Z</time>
      </trkpt>
      <trkpt lat="48.68938" lon="7.90576">
        <ele>127.9</ele>
        <time>2020-06-28T09:47:17Z</time>
      </trkpt>
      <trkpt lat="48.68938" lon="7.90573">
        <ele>127.9</ele>
        <time>2020-06-28T09:47:18Z</time>
      </trkpt>
      <trkpt lat="48.68938" lon="7.90568">
        <ele>127.9</ele>
        <time>2020-06-28T09:47:19Z</time>
      </trkpt>
      <trkpt lat="48.68939" lon="7.9056">
        <ele>127.9</ele>
        <time>2020-06-28T09:47:20Z</time>
      </trkpt>
      <trkpt lat="48.68941" lon="7.90554">
        <ele>127.9</ele>
        <time>2020-06-28T09:47:21Z</time>
      </trkpt>
      <trkpt lat="48.68942" lon="7.90546">
        <ele>127.9</ele>
        <time>2020-06-28T09:47:22Z</time>
      </trkpt>
      <trkpt lat="48.68943" lon="7.9054">
        <ele>127.9</ele>
        <time>2020-06-28T09:47:23Z</time>
      </trkpt>
      <trkpt lat="48.68944" lon="7.90534">
        <ele>127.9</ele>
        <time>2020-06-28T09:47:24Z</time>
      </trkpt>
      <trkpt lat="48.68944" lon="7.90528">
        <ele>127.9</ele>
        <time>2020-06-28T09:47:25Z</time>
      </trkpt>
      <trkpt lat="48.68944" lon="7.90522">
        <ele>127.8</ele>
        <time>2020-06-28T09:47:26Z</time>
      </trkpt>
      <trkpt lat="48.68945" lon="7.90518">
        <ele>127.8</ele>
        <time>2020-06-28T09:47:27Z</time>
      </trkpt>
      <trkpt lat="48.68945" lon="7.90514">
        <ele>127.8</ele>
        <time>2020-06-28T09:47:28Z</time>
      </trkpt>
      <trkpt lat="48.68945" lon="7.90508">
        <ele>127.8</ele>
        <time>2020-06-28T09:47:29Z</time>
      </trkpt>
      <trkpt lat="48.68945" lon="7.90503">
        <ele>127.8</ele>
        <time>2020-06-28T09:47:30Z</time>
      </trkpt>
      <trkpt lat="48.68944" lon="7.90499">
        <ele>127.8</ele>
        <time>2020-06-28T09:47:31Z</time>
      </trkpt>
      <trkpt lat="48.68944" lon="7.90495">
        <ele>127.8</ele>
        <time>2020-06-28T09:47:32Z</time>
      </trkpt>
      <trkpt lat="48.68944" lon="7.90489">
        <ele>127.8</ele>
        <time>2020-06-28T09:47:33Z</time>
      </trkpt>
      <trkpt lat="48.68944" lon="7.90487">
        <ele>127.8</ele>
        <time>2020-06-28T09:47:34Z</time>
      </trkpt>
      <trkpt lat="48.68944" lon="7.90483">
        <ele>127.8</ele>
        <time>2020-06-28T09:47:35Z</time>
      </trkpt>
      <trkpt lat="48.68944" lon="7.90481">
        <ele>127.8</ele>
        <time>2020-06-28T09:47:36Z</time>
      </trkpt>
      <trkpt lat="48.68944" lon="7.90476">
        <ele>127.8</ele>
        <time>2020-06-28T09:47:37Z</time>
      </trkpt>
      <trkpt lat="48.68945" lon="7.9047">
        <ele>127.8</ele>
        <time>2020-06-28T09:47:38Z</time>
      </trkpt>
      <trkpt lat="48.68946" lon="7.90464">
        <ele>127.8</ele>
        <time>2020-06-28T09:47:39Z</time>
      </trkpt>
      <trkpt lat="48.68946" lon="7.90458">
        <ele>127.8</ele>
        <time>2020-06-28T09:47:40Z</time>
      </trkpt>
      <trkpt lat="48.68946" lon="7.90452">
        <ele>127.7</ele>
        <time>2020-06-28T09:47:41Z</time>
      </trkpt>
      <trkpt lat="48.68946" lon="7.90445">
        <ele>127.7</ele>
        <time>2020-06-28T09:47:42Z</time>
      </trkpt>
      <trkpt lat="48.68945" lon="7.90436">
        <ele>127.7</ele>
        <time>2020-06-28T09:47:43Z</time>
      </trkpt>
      <trkpt lat="48.68943" lon="7.90428">
        <ele>127.7</ele>
        <time>2020-06-28T09:47:44Z</time>
      </trkpt>
      <trkpt lat="48.68943" lon="7.9042">
        <ele>127.7</ele>
        <time>2020-06-28T09:47:45Z</time>
      </trkpt>
      <trkpt lat="48.68942" lon="7.90412">
        <ele>127.7</ele>
        <time>2020-06-28T09:47:46Z</time>
      </trkpt>
      <trkpt lat="48.68941" lon="7.90404">
        <ele>127.7</ele>
        <time>2020-06-28T09:47:47Z</time>
      </trkpt>
      <trkpt lat="48.6894" lon="7.90396">
        <ele>127.7</ele>
        <time>2020-06-28T09:47:48Z</time>
      </trkpt>
      <trkpt lat="48.68939" lon="7.90388">
        <ele>127.7</ele>
        <time>2020-06-28T09:47:49Z</time>
      </trkpt>
      <trkpt lat="48.68937" lon="7.90379">
        <ele>127.7</ele>
        <time>2020-06-28T09:47:50Z</time>
      </trkpt>
      <trkpt lat="48.68937" lon="7.9037">
        <ele>127.7</ele>
        <time>2020-06-28T09:47:51Z</time>
      </trkpt>
      <trkpt lat="48.68936" lon="7.90361">
        <ele>127.7</ele>
        <time>2020-06-28T09:47:52Z</time>
      </trkpt>
      <trkpt lat="48.68935" lon="7.90351">
        <ele>127.7</ele>
        <time>2020-06-28T09:47:53Z</time>
      </trkpt>
      <trkpt lat="48.68934" lon="7.90342">
        <ele>127.7</ele>
        <time>2020-06-28T09:47:54Z</time>
      </trkpt>
      <trkpt lat="48.68933" lon="7.90333">
        <ele>127.7</ele>
        <time>2020-06-28T09:47:55Z</time>
      </trkpt>
      <trkpt lat="48.68933" lon="7.90324">
        <ele>127.7</ele>
        <time>2020-06-28T09:47:56Z</time>
      </trkpt>
      <trkpt lat="48.68932" lon="7.90314">
        <ele>127.7</ele>
        <time>2020-06-28T09:47:57Z</time>
      </trkpt>
      <trkpt lat="48.68932" lon="7.90304">
        <ele>127.7</ele>
        <time>2020-06-28T09:47:58Z</time>
      </trkpt>
      <trkpt lat="48.68931" lon="7.90294">
        <ele>127.7</ele>
        <time>2020-06-28T09:47:59Z</time>
      </trkpt>
      <trkpt lat="48.68931" lon="7.90284">
        <ele>127.7</ele>
        <time>2020-06-28T09:48:00Z</time>
      </trkpt>
      <trkpt lat="48.68931" lon="7.90273">
        <ele>127.7</ele>
        <time>2020-06-28T09:48:01Z</time>
      </trkpt>
      <trkpt lat="48.6893" lon="7.90262">
        <ele>127.7</ele>
        <time>2020-06-28T09:48:02Z</time>
      </trkpt>
      <trkpt lat="48.6893" lon="7.90251">
        <ele>127.7</ele>
        <time>2020-06-28T09:48:03Z</time>
      </trkpt>
      <trkpt lat="48.6893" lon="7.90243">
        <ele>127.7</ele>
        <time>2020-06-28T09:48:04Z</time>
      </trkpt>
      <trkpt lat="48.68929" lon="7.90234">
        <ele>127.7</ele>
        <time>2020-06-28T09:48:05Z</time>
      </trkpt>
      <trkpt lat="48.68929" lon="7.90224">
        <ele>127.7</ele>
        <time>2020-06-28T09:48:06Z</time>
      </trkpt>
      <trkpt lat="48.68928" lon="7.90215">
        <ele>127.7</ele>
        <time>2020-06-28T09:48:07Z</time>
      </trkpt>
      <trkpt lat="48.68928" lon="7.90204">
        <ele>127.6</ele>
        <time>2020-06-28T09:48:08Z</time>
      </trkpt>
      <trkpt lat="48.68928" lon="7.90194">
        <ele>127.6</ele>
        <time>2020-06-28T09:48:09Z</time>
      </trkpt>
      <trkpt lat="48.68928" lon="7.90184">
        <ele>127.5</ele>
        <time>2020-06-28T09:48:10Z</time>
      </trkpt>
      <trkpt lat="48.68927" lon="7.90174">
        <ele>127.5</ele>
        <time>2020-06-28T09:48:11Z</time>
      </trkpt>
      <trkpt lat="48.68926" lon="7.90163">
        <ele>127.5</ele>
        <time>2020-06-28T09:48:12Z</time>
      </trkpt>
      <trkpt lat="48.68926" lon="7.90153">
        <ele>127.4</ele>
        <time>2020-06-28T09:48:13Z</time>
      </trkpt>
      <trkpt lat="48.68925" lon="7.90144">
        <ele>127.4</ele>
        <time>2020-06-28T09:48:14Z</time>
      </trkpt>
      <trkpt lat="48.68925" lon="7.90133">
        <ele>127.4</ele>
        <time>2020-06-28T09:48:15Z</time>
      </trkpt>
      <trkpt lat="48.68925" lon="7.90124">
        <ele>127.3</ele>
        <time>2020-06-28T09:48:16Z</time>
      </trkpt>
      <trkpt lat="48.68925" lon="7.90115">
        <ele>127.3</ele>
        <time>2020-06-28T09:48:17Z</time>
      </trkpt>
      <trkpt lat="48.68926" lon="7.90106">
        <ele>127.3</ele>
        <time>2020-06-28T09:48:18Z</time>
      </trkpt>
      <trkpt lat="48.68926" lon="7.90099">
        <ele>127.3</ele>
        <time>2020-06-28T09:48:19Z</time>
      </trkpt>
      <trkpt lat="48.68928" lon="7.90092">
        <ele>127.2</ele>
        <time>2020-06-28T09:48:20Z</time>
      </trkpt>
      <trkpt lat="48.68928" lon="7.90083">
        <ele>127.2</ele>
        <time>2020-06-28T09:48:21Z</time>
      </trkpt>
      <trkpt lat="48.68927" lon="7.90075">
        <ele>127.2</ele>
        <time>2020-06-28T09:48:22Z</time>
      </trkpt>
      <trkpt lat="48.68928" lon="7.90066">
        <ele>127.2</ele>
        <time>2020-06-28T09:48:23Z</time>
      </trkpt>
      <trkpt lat="48.68928" lon="7.90057">
        <ele>127.2</ele>
        <time>2020-06-28T09:48:24Z</time>
      </trkpt>
      <trkpt lat="48.68927" lon="7.90048">
        <ele>127.2</ele>
        <time>2020-06-28T09:48:25Z</time>
      </trkpt>
      <trkpt lat="48.68927" lon="7.90039">
        <ele>127.2</ele>
        <time>2020-06-28T09:48:26Z</time>
      </trkpt>
      <trkpt lat="48.68927" lon="7.90028">
        <ele>127.2</ele>
        <time>2020-06-28T09:48:27Z</time>
      </trkpt>
      <trkpt lat="48.68928" lon="7.90018">
        <ele>127.2</ele>
        <time>2020-06-28T09:48:28Z</time>
      </trkpt>
      <trkpt lat="48.68928" lon="7.90007">
        <ele>127.2</ele>
        <time>2020-06-28T09:48:29Z</time>
      </trkpt>
      <trkpt lat="48.68929" lon="7.89997">
        <ele>127.2</ele>
        <time>2020-06-28T09:48:30Z</time>
      </trkpt>
      <trkpt lat="48.68928" lon="7.89987">
        <ele>127.2</ele>
        <time>2020-06-28T09:48:31Z</time>
      </trkpt>
      <trkpt lat="48.68928" lon="7.89979">
        <ele>127.2</ele>
        <time>2020-06-28T09:48:32Z</time>
      </trkpt>
      <trkpt lat="48.68928" lon="7.89972">
        <ele>127.2</ele>
        <time>2020-06-28T09:48:33Z</time>
      </trkpt>
      <trkpt lat="48.68927" lon="7.89963">
        <ele>127.2</ele>
        <time>2020-06-28T09:48:34Z</time>
      </trkpt>
      <trkpt lat="48.68927" lon="7.89954">
        <ele>127.3</ele>
        <time>2020-06-28T09:48:35Z</time>
      </trkpt>
      <trkpt lat="48.68927" lon="7.89946">
        <ele>127.3</ele>
        <time>2020-06-28T09:48:36Z</time>
      </trkpt>
      <trkpt lat="48.68927" lon="7.89937">
        <ele>127.3</ele>
        <time>2020-06-28T09:48:37Z</time>
      </trkpt>
      <trkpt lat="48.68927" lon="7.8993">
        <ele>127.3</ele>
        <time>2020-06-28T09:48:38Z</time>
      </trkpt>
      <trkpt lat="48.68928" lon="7.89918">
        <ele>127.3</ele>
        <time>2020-06-28T09:48:39Z</time>
      </trkpt>
      <trkpt lat="48.68928" lon="7.8991">
        <ele>127.3</ele>
        <time>2020-06-28T09:48:40Z</time>
      </trkpt>
      <trkpt lat="48.68928" lon="7.899">
        <ele>127.2</ele>
        <time>2020-06-28T09:48:41Z</time>
      </trkpt>
      <trkpt lat="48.68928" lon="7.89891">
        <ele>127.2</ele>
        <time>2020-06-28T09:48:42Z</time>
      </trkpt>
      <trkpt lat="48.68927" lon="7.89881">
        <ele>127.2</ele>
        <time>2020-06-28T09:48:43Z</time>
      </trkpt>
      <trkpt lat="48.68927" lon="7.89872">
        <ele>127.2</ele>
        <time>2020-06-28T09:48:44Z</time>
      </trkpt>
      <trkpt lat="48.68928" lon="7.89862">
        <ele>127.2</ele>
        <time>2020-06-28T09:48:45Z</time>
      </trkpt>
      <trkpt lat="48.68928" lon="7.89855">
        <ele>127.2</ele>
        <time>2020-06-28T09:48:46Z</time>
      </trkpt>
      <trkpt lat="48.68928" lon="7.89846">
        <ele>127.3</ele>
        <time>2020-06-28T09:48:47Z</time>
      </trkpt>
      <trkpt lat="48.68928" lon="7.89836">
        <ele>127.3</ele>
        <time>2020-06-28T09:48:48Z</time>
      </trkpt>
      <trkpt lat="48.68929" lon="7.89827">
        <ele>127.3</ele>
        <time>2020-06-28T09:48:49Z</time>
      </trkpt>
      <trkpt lat="48.68929" lon="7.89817">
        <ele>127.4</ele>
        <time>2020-06-28T09:48:50Z</time>
      </trkpt>
      <trkpt lat="48.6893" lon="7.89808">
        <ele>127.4</ele>
        <time>2020-06-28T09:48:51Z</time>
      </trkpt>
      <trkpt lat="48.68931" lon="7.898">
        <ele>127.4</ele>
        <time>2020-06-28T09:48:52Z</time>
      </trkpt>
      <trkpt lat="48.68931" lon="7.89792">
        <ele>127.4</ele>
        <time>2020-06-28T09:48:53Z</time>
      </trkpt>
      <trkpt lat="48.68932" lon="7.89784">
        <ele>127.4</ele>
        <time>2020-06-28T09:48:54Z</time>
      </trkpt>
      <trkpt lat="48.68933" lon="7.89775">
        <ele>127.5</ele>
        <time>2020-06-28T09:48:55Z</time>
      </trkpt>
      <trkpt lat="48.68933" lon="7.89768">
        <ele>127.5</ele>
        <time>2020-06-28T09:48:56Z</time>
      </trkpt>
      <trkpt lat="48.68935" lon="7.8976">
        <ele>127.5</ele>
        <time>2020-06-28T09:48:57Z</time>
      </trkpt>
      <trkpt lat="48.68936" lon="7.89751">
        <ele>127.6</ele>
        <time>2020-06-28T09:48:58Z</time>
      </trkpt>
      <trkpt lat="48.68937" lon="7.89745">
        <ele>127.6</ele>
        <time>2020-06-28T09:48:59Z</time>
      </trkpt>
      <trkpt lat="48.68939" lon="7.89735">
        <ele>127.6</ele>
        <time>2020-06-28T09:49:00Z</time>
      </trkpt>
      <trkpt lat="48.68941" lon="7.89726">
        <ele>127.6</ele>
        <time>2020-06-28T09:49:01Z</time>
      </trkpt>
      <trkpt lat="48.68943" lon="7.89718">
        <ele>127.7</ele>
        <time>2020-06-28T09:49:02Z</time>
      </trkpt>
      <trkpt lat="48.68945" lon="7.8971">
        <ele>127.7</ele>
        <time>2020-06-28T09:49:03Z</time>
      </trkpt>
      <trkpt lat="48.68947" lon="7.89704">
        <ele>127.7</ele>
        <time>2020-06-28T09:49:04Z</time>
      </trkpt>
      <trkpt lat="48.68949" lon="7.89695">
        <ele>127.8</ele>
        <time>2020-06-28T09:49:05Z</time>
      </trkpt>
      <trkpt lat="48.68951" lon="7.89687">
        <ele>127.8</ele>
        <time>2020-06-28T09:49:06Z</time>
      </trkpt>
      <trkpt lat="48.68952" lon="7.89679">
        <ele>127.9</ele>
        <time>2020-06-28T09:49:07Z</time>
      </trkpt>
      <trkpt lat="48.68954" lon="7.89671">
        <ele>127.9</ele>
        <time>2020-06-28T09:49:08Z</time>
      </trkpt>
      <trkpt lat="48.68956" lon="7.89664">
        <ele>127.9</ele>
        <time>2020-06-28T09:49:09Z</time>
      </trkpt>
      <trkpt lat="48.68957" lon="7.89656">
        <ele>127.8</ele>
        <time>2020-06-28T09:49:10Z</time>
      </trkpt>
      <trkpt lat="48.6896" lon="7.89651">
        <ele>127.8</ele>
        <time>2020-06-28T09:49:11Z</time>
      </trkpt>
      <trkpt lat="48.68962" lon="7.89646">
        <ele>127.7</ele>
        <time>2020-06-28T09:49:12Z</time>
      </trkpt>
      <trkpt lat="48.68963" lon="7.89641">
        <ele>127.7</ele>
        <time>2020-06-28T09:49:13Z</time>
      </trkpt>
      <trkpt lat="48.68965" lon="7.89633">
        <ele>127.6</ele>
        <time>2020-06-28T09:49:14Z</time>
      </trkpt>
      <trkpt lat="48.68967" lon="7.89625">
        <ele>127.5</ele>
        <time>2020-06-28T09:49:15Z</time>
      </trkpt>
      <trkpt lat="48.68968" lon="7.89618">
        <ele>127.5</ele>
        <time>2020-06-28T09:49:16Z</time>
      </trkpt>
      <trkpt lat="48.68969" lon="7.89611">
        <ele>127.5</ele>
        <time>2020-06-28T09:49:17Z</time>
      </trkpt>
      <trkpt lat="48.68969" lon="7.89604">
        <ele>127.4</ele>
        <time>2020-06-28T09:49:18Z</time>
      </trkpt>
      <trkpt lat="48.6897" lon="7.89596">
        <ele>127.4</ele>
        <time>2020-06-28T09:49:19Z</time>
      </trkpt>
      <trkpt lat="48.68972" lon="7.89589">
        <ele>127.3</ele>
        <time>2020-06-28T09:49:20Z</time>
      </trkpt>
      <trkpt lat="48.68974" lon="7.89581">
        <ele>127.2</ele>
        <time>2020-06-28T09:49:21Z</time>
      </trkpt>
      <trkpt lat="48.68976" lon="7.89575">
        <ele>127.2</ele>
        <time>2020-06-28T09:49:22Z</time>
      </trkpt>
      <trkpt lat="48.68978" lon="7.89569">
        <ele>127.1</ele>
        <time>2020-06-28T09:49:23Z</time>
      </trkpt>
      <trkpt lat="48.6898" lon="7.89564">
        <ele>127.1</ele>
        <time>2020-06-28T09:49:24Z</time>
      </trkpt>
      <trkpt lat="48.68979" lon="7.89559">
        <ele>127</ele>
        <time>2020-06-28T09:49:25Z</time>
      </trkpt>
      <trkpt lat="48.68979" lon="7.89551">
        <ele>127</ele>
        <time>2020-06-28T09:49:26Z</time>
      </trkpt>
      <trkpt lat="48.68978" lon="7.89545">
        <ele>126.9</ele>
        <time>2020-06-28T09:49:27Z</time>
      </trkpt>
      <trkpt lat="48.68979" lon="7.89535">
        <ele>126.9</ele>
        <time>2020-06-28T09:49:28Z</time>
      </trkpt>
      <trkpt lat="48.68981" lon="7.89529">
        <ele>127</ele>
        <time>2020-06-28T09:49:29Z</time>
      </trkpt>
      <trkpt lat="48.68985" lon="7.89522">
        <ele>127</ele>
        <time>2020-06-28T09:49:30Z</time>
      </trkpt>
      <trkpt lat="48.68987" lon="7.89515">
        <ele>127</ele>
        <time>2020-06-28T09:49:31Z</time>
      </trkpt>
      <trkpt lat="48.6899" lon="7.89508">
        <ele>127</ele>
        <time>2020-06-28T09:49:32Z</time>
      </trkpt>
      <trkpt lat="48.68992" lon="7.895">
        <ele>127</ele>
        <time>2020-06-28T09:49:33Z</time>
      </trkpt>
      <trkpt lat="48.68993" lon="7.89492">
        <ele>127</ele>
        <time>2020-06-28T09:49:34Z</time>
      </trkpt>
      <trkpt lat="48.68995" lon="7.89484">
        <ele>127.1</ele>
        <time>2020-06-28T09:49:35Z</time>
      </trkpt>
      <trkpt lat="48.68997" lon="7.89477">
        <ele>127.1</ele>
        <time>2020-06-28T09:49:36Z</time>
      </trkpt>
      <trkpt lat="48.68998" lon="7.8947">
        <ele>127.1</ele>
        <time>2020-06-28T09:49:37Z</time>
      </trkpt>
      <trkpt lat="48.69" lon="7.89462">
        <ele>127.1</ele>
        <time>2020-06-28T09:49:38Z</time>
      </trkpt>
      <trkpt lat="48.69002" lon="7.89453">
        <ele>127.2</ele>
        <time>2020-06-28T09:49:39Z</time>
      </trkpt>
      <trkpt lat="48.69004" lon="7.89445">
        <ele>127.2</ele>
        <time>2020-06-28T09:49:40Z</time>
      </trkpt>
      <trkpt lat="48.69006" lon="7.89437">
        <ele>127.2</ele>
        <time>2020-06-28T09:49:41Z</time>
      </trkpt>
      <trkpt lat="48.69009" lon="7.89429">
        <ele>127.2</ele>
        <time>2020-06-28T09:49:42Z</time>
      </trkpt>
      <trkpt lat="48.69011" lon="7.89422">
        <ele>127.2</ele>
        <time>2020-06-28T09:49:43Z</time>
      </trkpt>
      <trkpt lat="48.69013" lon="7.89413">
        <ele>127.2</ele>
        <time>2020-06-28T09:49:44Z</time>
      </trkpt>
      <trkpt lat="48.69015" lon="7.89403">
        <ele>127.1</ele>
        <time>2020-06-28T09:49:45Z</time>
      </trkpt>
      <trkpt lat="48.69017" lon="7.89395">
        <ele>127.1</ele>
        <time>2020-06-28T09:49:46Z</time>
      </trkpt>
      <trkpt lat="48.69019" lon="7.89388">
        <ele>127.1</ele>
        <time>2020-06-28T09:49:47Z</time>
      </trkpt>
      <trkpt lat="48.69022" lon="7.89381">
        <ele>127.1</ele>
        <time>2020-06-28T09:49:48Z</time>
      </trkpt>
      <trkpt lat="48.69025" lon="7.89374">
        <ele>127.1</ele>
        <time>2020-06-28T09:49:49Z</time>
      </trkpt>
      <trkpt lat="48.69028" lon="7.89366">
        <ele>127.1</ele>
        <time>2020-06-28T09:49:50Z</time>
      </trkpt>
      <trkpt lat="48.6903" lon="7.89359">
        <ele>127.1</ele>
        <time>2020-06-28T09:49:51Z</time>
      </trkpt>
      <trkpt lat="48.69032" lon="7.89351">
        <ele>127.1</ele>
        <time>2020-06-28T09:49:52Z</time>
      </trkpt>
      <trkpt lat="48.69034" lon="7.89343">
        <ele>127.1</ele>
        <time>2020-06-28T09:49:53Z</time>
      </trkpt>
      <trkpt lat="48.69035" lon="7.89337">
        <ele>127.1</ele>
        <time>2020-06-28T09:49:54Z</time>
      </trkpt>
      <trkpt lat="48.69038" lon="7.89328">
        <ele>127.1</ele>
        <time>2020-06-28T09:49:55Z</time>
      </trkpt>
      <trkpt lat="48.69041" lon="7.8932">
        <ele>127.1</ele>
        <time>2020-06-28T09:49:56Z</time>
      </trkpt>
      <trkpt lat="48.69044" lon="7.89312">
        <ele>127.1</ele>
        <time>2020-06-28T09:49:57Z</time>
      </trkpt>
      <trkpt lat="48.69046" lon="7.89305">
        <ele>127.1</ele>
        <time>2020-06-28T09:49:58Z</time>
      </trkpt>
      <trkpt lat="48.69048" lon="7.89298">
        <ele>127.1</ele>
        <time>2020-06-28T09:49:59Z</time>
      </trkpt>
      <trkpt lat="48.6905" lon="7.89292">
        <ele>127.2</ele>
        <time>2020-06-28T09:50:00Z</time>
      </trkpt>
      <trkpt lat="48.69052" lon="7.89286">
        <ele>127.2</ele>
        <time>2020-06-28T09:50:01Z</time>
      </trkpt>
      <trkpt lat="48.69055" lon="7.89279">
        <ele>127.2</ele>
        <time>2020-06-28T09:50:02Z</time>
      </trkpt>
      <trkpt lat="48.69058" lon="7.89272">
        <ele>127.2</ele>
        <time>2020-06-28T09:50:03Z</time>
      </trkpt>
      <trkpt lat="48.6906" lon="7.89266">
        <ele>127.3</ele>
        <time>2020-06-28T09:50:04Z</time>
      </trkpt>
      <trkpt lat="48.69062" lon="7.89259">
        <ele>127.2</ele>
        <time>2020-06-28T09:50:05Z</time>
      </trkpt>
      <trkpt lat="48.69064" lon="7.89254">
        <ele>127.2</ele>
        <time>2020-06-28T09:50:06Z</time>
      </trkpt>
      <trkpt lat="48.69067" lon="7.89248">
        <ele>127.2</ele>
        <time>2020-06-28T09:50:07Z</time>
      </trkpt>
      <trkpt lat="48.6907" lon="7.89242">
        <ele>127.2</ele>
        <time>2020-06-28T09:50:08Z</time>
      </trkpt>
      <trkpt lat="48.69071" lon="7.89236">
        <ele>127.2</ele>
        <time>2020-06-28T09:50:09Z</time>
      </trkpt>
      <trkpt lat="48.69073" lon="7.8923">
        <ele>127.2</ele>
        <time>2020-06-28T09:50:10Z</time>
      </trkpt>
      <trkpt lat="48.69076" lon="7.89224">
        <ele>127.2</ele>
        <time>2020-06-28T09:50:11Z</time>
      </trkpt>
      <trkpt lat="48.69079" lon="7.89219">
        <ele>127.2</ele>
        <time>2020-06-28T09:50:12Z</time>
      </trkpt>
      <trkpt lat="48.69082" lon="7.89214">
        <ele>127.1</ele>
        <time>2020-06-28T09:50:13Z</time>
      </trkpt>
      <trkpt lat="48.69085" lon="7.89209">
        <ele>127.1</ele>
        <time>2020-06-28T09:50:14Z</time>
      </trkpt>
      <trkpt lat="48.69088" lon="7.89205">
        <ele>127.1</ele>
        <time>2020-06-28T09:50:15Z</time>
      </trkpt>
      <trkpt lat="48.69089" lon="7.89201">
        <ele>127.1</ele>
        <time>2020-06-28T09:50:16Z</time>
      </trkpt>
      <trkpt lat="48.69091" lon="7.89196">
        <ele>127.1</ele>
        <time>2020-06-28T09:50:17Z</time>
      </trkpt>
      <trkpt lat="48.69095" lon="7.89192">
        <ele>127.1</ele>
        <time>2020-06-28T09:50:18Z</time>
      </trkpt>
      <trkpt lat="48.69101" lon="7.89188">
        <ele>127.1</ele>
        <time>2020-06-28T09:50:19Z</time>
      </trkpt>
      <trkpt lat="48.69106" lon="7.89184">
        <ele>127.2</ele>
        <time>2020-06-28T09:50:20Z</time>
      </trkpt>
      <trkpt lat="48.69111" lon="7.89179">
        <ele>127.2</ele>
        <time>2020-06-28T09:50:21Z</time>
      </trkpt>
      <trkpt lat="48.69116" lon="7.89175">
        <ele>127.2</ele>
        <time>2020-06-28T09:50:22Z</time>
      </trkpt>
      <trkpt lat="48.69122" lon="7.89171">
        <ele>127.2</ele>
        <time>2020-06-28T09:50:23Z</time>
      </trkpt>
      <trkpt lat="48.69126" lon="7.89168">
        <ele>127.3</ele>
        <time>2020-06-28T09:50:24Z</time>
      </trkpt>
      <trkpt lat="48.69131" lon="7.89165">
        <ele>127.3</ele>
        <time>2020-06-28T09:50:25Z</time>
      </trkpt>
      <trkpt lat="48.69135" lon="7.8916">
        <ele>127.4</ele>
        <time>2020-06-28T09:50:26Z</time>
      </trkpt>
      <trkpt lat="48.6914" lon="7.89158">
        <ele>127.4</ele>
        <time>2020-06-28T09:50:27Z</time>
      </trkpt>
      <trkpt lat="48.69146" lon="7.89155">
        <ele>127.4</ele>
        <time>2020-06-28T09:50:28Z</time>
      </trkpt>
      <trkpt lat="48.6915" lon="7.89149">
        <ele>127.4</ele>
        <time>2020-06-28T09:50:29Z</time>
      </trkpt>
      <trkpt lat="48.69154" lon="7.89143">
        <ele>127.5</ele>
        <time>2020-06-28T09:50:30Z</time>
      </trkpt>
      <trkpt lat="48.6916" lon="7.89137">
        <ele>127.5</ele>
        <time>2020-06-28T09:50:31Z</time>
      </trkpt>
      <trkpt lat="48.69165" lon="7.89134">
        <ele>127.5</ele>
        <time>2020-06-28T09:50:32Z</time>
      </trkpt>
      <trkpt lat="48.6917" lon="7.8913">
        <ele>127.5</ele>
        <time>2020-06-28T09:50:33Z</time>
      </trkpt>
      <trkpt lat="48.69175" lon="7.89128">
        <ele>127.5</ele>
        <time>2020-06-28T09:50:34Z</time>
      </trkpt>
      <trkpt lat="48.69181" lon="7.89125">
        <ele>127.5</ele>
        <time>2020-06-28T09:50:35Z</time>
      </trkpt>
      <trkpt lat="48.69185" lon="7.89122">
        <ele>127.4</ele>
        <time>2020-06-28T09:50:36Z</time>
      </trkpt>
      <trkpt lat="48.6919" lon="7.89118">
        <ele>127.4</ele>
        <time>2020-06-28T09:50:37Z</time>
      </trkpt>
      <trkpt lat="48.69195" lon="7.89114">
        <ele>127.4</ele>
        <time>2020-06-28T09:50:38Z</time>
      </trkpt>
      <trkpt lat="48.69199" lon="7.89111">
        <ele>127.5</ele>
        <time>2020-06-28T09:50:39Z</time>
      </trkpt>
      <trkpt lat="48.69203" lon="7.89108">
        <ele>127.5</ele>
        <time>2020-06-28T09:50:40Z</time>
      </trkpt>
      <trkpt lat="48.69208" lon="7.89105">
        <ele>127.5</ele>
        <time>2020-06-28T09:50:41Z</time>
      </trkpt>
      <trkpt lat="48.69212" lon="7.89104">
        <ele>127.5</ele>
        <time>2020-06-28T09:50:42Z</time>
      </trkpt>
      <trkpt lat="48.69215" lon="7.891">
        <ele>127.6</ele>
        <time>2020-06-28T09:50:43Z</time>
      </trkpt>
      <trkpt lat="48.6922" lon="7.89097">
        <ele>127.6</ele>
        <time>2020-06-28T09:50:44Z</time>
      </trkpt>
      <trkpt lat="48.69225" lon="7.89094">
        <ele>127.7</ele>
        <time>2020-06-28T09:50:45Z</time>
      </trkpt>
      <trkpt lat="48.6923" lon="7.89092">
        <ele>127.7</ele>
        <time>2020-06-28T09:50:46Z</time>
      </trkpt>
      <trkpt lat="48.69234" lon="7.89088">
        <ele>127.7</ele>
        <time>2020-06-28T09:50:47Z</time>
      </trkpt>
      <trkpt lat="48.69238" lon="7.89084">
        <ele>127.7</ele>
        <time>2020-06-28T09:50:48Z</time>
      </trkpt>
      <trkpt lat="48.69242" lon="7.89079">
        <ele>127.8</ele>
        <time>2020-06-28T09:50:49Z</time>
      </trkpt>
      <trkpt lat="48.69245" lon="7.89073">
        <ele>127.8</ele>
        <time>2020-06-28T09:50:50Z</time>
      </trkpt>
      <trkpt lat="48.69248" lon="7.89067">
        <ele>127.8</ele>
        <time>2020-06-28T09:50:51Z</time>
      </trkpt>
      <trkpt lat="48.69249" lon="7.8906">
        <ele>127.8</ele>
        <time>2020-06-28T09:50:52Z</time>
      </trkpt>
      <trkpt lat="48.69251" lon="7.89054">
        <ele>127.9</ele>
        <time>2020-06-28T09:50:53Z</time>
      </trkpt>
      <trkpt lat="48.6925" lon="7.89047">
        <ele>128</ele>
        <time>2020-06-28T09:50:54Z</time>
      </trkpt>
      <trkpt lat="48.69249" lon="7.89039">
        <ele>128.1</ele>
        <time>2020-06-28T09:50:55Z</time>
      </trkpt>
      <trkpt lat="48.69247" lon="7.89032">
        <ele>128.1</ele>
        <time>2020-06-28T09:50:56Z</time>
      </trkpt>
      <trkpt lat="48.69245" lon="7.89025">
        <ele>128.2</ele>
        <time>2020-06-28T09:50:57Z</time>
      </trkpt>
      <trkpt lat="48.69241" lon="7.89019">
        <ele>128.2</ele>
        <time>2020-06-28T09:50:58Z</time>
      </trkpt>
      <trkpt lat="48.69239" lon="7.89013">
        <ele>128.2</ele>
        <time>2020-06-28T09:50:59Z</time>
      </trkpt>
      <trkpt lat="48.69236" lon="7.89006">
        <ele>128.2</ele>
        <time>2020-06-28T09:51:00Z</time>
      </trkpt>
      <trkpt lat="48.69232" lon="7.89001">
        <ele>128.2</ele>
        <time>2020-06-28T09:51:01Z</time>
      </trkpt>
      <trkpt lat="48.69229" lon="7.88995">
        <ele>128.2</ele>
        <time>2020-06-28T09:51:02Z</time>
      </trkpt>
      <trkpt lat="48.69227" lon="7.88988">
        <ele>128.3</ele>
        <time>2020-06-28T09:51:03Z</time>
      </trkpt>
      <trkpt lat="48.69225" lon="7.88983">
        <ele>128.3</ele>
        <time>2020-06-28T09:51:04Z</time>
      </trkpt>
      <trkpt lat="48.69222" lon="7.88978">
        <ele>128.3</ele>
        <time>2020-06-28T09:51:05Z</time>
      </trkpt>
      <trkpt lat="48.69219" lon="7.88972">
        <ele>128.3</ele>
        <time>2020-06-28T09:51:06Z</time>
      </trkpt>
      <trkpt lat="48.69218" lon="7.88967">
        <ele>128.3</ele>
        <time>2020-06-28T09:51:07Z</time>
      </trkpt>
      <trkpt lat="48.69216" lon="7.88962">
        <ele>128.3</ele>
        <time>2020-06-28T09:51:08Z</time>
      </trkpt>
      <trkpt lat="48.69213" lon="7.88954">
        <ele>128.3</ele>
        <time>2020-06-28T09:51:09Z</time>
      </trkpt>
      <trkpt lat="48.69211" lon="7.88946">
        <ele>128.3</ele>
        <time>2020-06-28T09:51:10Z</time>
      </trkpt>
      <trkpt lat="48.6921" lon="7.88939">
        <ele>128.3</ele>
        <time>2020-06-28T09:51:11Z</time>
      </trkpt>
      <trkpt lat="48.69208" lon="7.88932">
        <ele>128.4</ele>
        <time>2020-06-28T09:51:12Z</time>
      </trkpt>
      <trkpt lat="48.69206" lon="7.88924">
        <ele>128.4</ele>
        <time>2020-06-28T09:51:13Z</time>
      </trkpt>
      <trkpt lat="48.69205" lon="7.88918">
        <ele>128.4</ele>
        <time>2020-06-28T09:51:14Z</time>
      </trkpt>
      <trkpt lat="48.69202" lon="7.88912">
        <ele>128.5</ele>
        <time>2020-06-28T09:51:15Z</time>
      </trkpt>
      <trkpt lat="48.69201" lon="7.88905">
        <ele>128.5</ele>
        <time>2020-06-28T09:51:16Z</time>
      </trkpt>
      <trkpt lat="48.69199" lon="7.88898">
        <ele>128.5</ele>
        <time>2020-06-28T09:51:17Z</time>
      </trkpt>
      <trkpt lat="48.69198" lon="7.88891">
        <ele>128.5</ele>
        <time>2020-06-28T09:51:18Z</time>
      </trkpt>
      <trkpt lat="48.69197" lon="7.88884">
        <ele>128.5</ele>
        <time>2020-06-28T09:51:19Z</time>
      </trkpt>
      <trkpt lat="48.69195" lon="7.88877">
        <ele>128.5</ele>
        <time>2020-06-28T09:51:20Z</time>
      </trkpt>
      <trkpt lat="48.69194" lon="7.88871">
        <ele>128.5</ele>
        <time>2020-06-28T09:51:21Z</time>
      </trkpt>
      <trkpt lat="48.69194" lon="7.88862">
        <ele>128.5</ele>
        <time>2020-06-28T09:51:22Z</time>
      </trkpt>
      <trkpt lat="48.69192" lon="7.88855">
        <ele>128.6</ele>
        <time>2020-06-28T09:51:23Z</time>
      </trkpt>
      <trkpt lat="48.69191" lon="7.88848">
        <ele>128.6</ele>
        <time>2020-06-28T09:51:24Z</time>
      </trkpt>
      <trkpt lat="48.69191" lon="7.88843">
        <ele>128.6</ele>
        <time>2020-06-28T09:51:25Z</time>
      </trkpt>
      <trkpt lat="48.69191" lon="7.88837">
        <ele>128.5</ele>
        <time>2020-06-28T09:51:26Z</time>
      </trkpt>
      <trkpt lat="48.69189" lon="7.88829">
        <ele>128.5</ele>
        <time>2020-06-28T09:51:27Z</time>
      </trkpt>
      <trkpt lat="48.69188" lon="7.88822">
        <ele>128.5</ele>
        <time>2020-06-28T09:51:28Z</time>
      </trkpt>
      <trkpt lat="48.69187" lon="7.88815">
        <ele>128.5</ele>
        <time>2020-06-28T09:51:29Z</time>
      </trkpt>
      <trkpt lat="48.69185" lon="7.88807">
        <ele>128.5</ele>
        <time>2020-06-28T09:51:30Z</time>
      </trkpt>
      <trkpt lat="48.69184" lon="7.888">
        <ele>128.5</ele>
        <time>2020-06-28T09:51:31Z</time>
      </trkpt>
      <trkpt lat="48.69184" lon="7.88792">
        <ele>128.5</ele>
        <time>2020-06-28T09:51:32Z</time>
      </trkpt>
      <trkpt lat="48.69184" lon="7.88785">
        <ele>128.5</ele>
        <time>2020-06-28T09:51:33Z</time>
      </trkpt>
      <trkpt lat="48.69184" lon="7.88779">
        <ele>128.4</ele>
        <time>2020-06-28T09:51:34Z</time>
      </trkpt>
      <trkpt lat="48.69184" lon="7.88773">
        <ele>128.4</ele>
        <time>2020-06-28T09:51:35Z</time>
      </trkpt>
      <trkpt lat="48.69184" lon="7.88767">
        <ele>128.4</ele>
        <time>2020-06-28T09:51:36Z</time>
      </trkpt>
      <trkpt lat="48.69184" lon="7.88761">
        <ele>128.4</ele>
        <time>2020-06-28T09:51:37Z</time>
      </trkpt>
      <trkpt lat="48.69185" lon="7.88755">
        <ele>128.4</ele>
        <time>2020-06-28T09:51:38Z</time>
      </trkpt>
      <trkpt lat="48.69185" lon="7.88749">
        <ele>128.3</ele>
        <time>2020-06-28T09:51:39Z</time>
      </trkpt>
      <trkpt lat="48.69186" lon="7.88743">
        <ele>128.3</ele>
        <time>2020-06-28T09:51:40Z</time>
      </trkpt>
      <trkpt lat="48.69187" lon="7.88736">
        <ele>128.3</ele>
        <time>2020-06-28T09:51:41Z</time>
      </trkpt>
      <trkpt lat="48.69188" lon="7.8873">
        <ele>128.3</ele>
        <time>2020-06-28T09:51:42Z</time>
      </trkpt>
      <trkpt lat="48.69187" lon="7.88723">
        <ele>128.3</ele>
        <time>2020-06-28T09:51:43Z</time>
      </trkpt>
      <trkpt lat="48.69183" lon="7.88716">
        <ele>128.3</ele>
        <time>2020-06-28T09:51:44Z</time>
      </trkpt>
      <trkpt lat="48.69183" lon="7.88708">
        <ele>128.3</ele>
        <time>2020-06-28T09:51:45Z</time>
      </trkpt>
      <trkpt lat="48.69183" lon="7.88699">
        <ele>128.3</ele>
        <time>2020-06-28T09:51:46Z</time>
      </trkpt>
      <trkpt lat="48.69185" lon="7.8869">
        <ele>128.3</ele>
        <time>2020-06-28T09:51:47Z</time>
      </trkpt>
      <trkpt lat="48.69186" lon="7.88682">
        <ele>128.3</ele>
        <time>2020-06-28T09:51:48Z</time>
      </trkpt>
      <trkpt lat="48.69188" lon="7.88674">
        <ele>128.4</ele>
        <time>2020-06-28T09:51:49Z</time>
      </trkpt>
      <trkpt lat="48.6919" lon="7.88667">
        <ele>128.4</ele>
        <time>2020-06-28T09:51:50Z</time>
      </trkpt>
      <trkpt lat="48.69191" lon="7.88661">
        <ele>128.4</ele>
        <time>2020-06-28T09:51:51Z</time>
      </trkpt>
      <trkpt lat="48.69193" lon="7.88655">
        <ele>128.5</ele>
        <time>2020-06-28T09:51:52Z</time>
      </trkpt>
      <trkpt lat="48.69194" lon="7.88649">
        <ele>128.5</ele>
        <time>2020-06-28T09:51:53Z</time>
      </trkpt>
      <trkpt lat="48.69195" lon="7.88644">
        <ele>128.5</ele>
        <time>2020-06-28T09:51:54Z</time>
      </trkpt>
      <trkpt lat="48.69195" lon="7.88638">
        <ele>128.6</ele>
        <time>2020-06-28T09:51:55Z</time>
      </trkpt>
      <trkpt lat="48.69197" lon="7.88632">
        <ele>128.5</ele>
        <time>2020-06-28T09:51:56Z</time>
      </trkpt>
      <trkpt lat="48.69199" lon="7.88627">
        <ele>128.5</ele>
        <time>2020-06-28T09:51:57Z</time>
      </trkpt>
      <trkpt lat="48.69204" lon="7.88626">
        <ele>128.4</ele>
        <time>2020-06-28T09:51:58Z</time>
      </trkpt>
      <trkpt lat="48.69209" lon="7.88625">
        <ele>128.4</ele>
        <time>2020-06-28T09:51:59Z</time>
      </trkpt>
      <trkpt lat="48.69212" lon="7.88624">
        <ele>128.3</ele>
        <time>2020-06-28T09:52:00Z</time>
      </trkpt>
      <trkpt lat="48.69216" lon="7.88622">
        <ele>128.2</ele>
        <time>2020-06-28T09:52:01Z</time>
      </trkpt>
      <trkpt lat="48.6922" lon="7.88619">
        <ele>128.2</ele>
        <time>2020-06-28T09:52:02Z</time>
      </trkpt>
      <trkpt lat="48.69225" lon="7.88614">
        <ele>128.2</ele>
        <time>2020-06-28T09:52:03Z</time>
      </trkpt>
      <trkpt lat="48.69228" lon="7.88609">
        <ele>128.1</ele>
        <time>2020-06-28T09:52:04Z</time>
      </trkpt>
      <trkpt lat="48.69231" lon="7.88604">
        <ele>128.1</ele>
        <time>2020-06-28T09:52:05Z</time>
      </trkpt>
      <trkpt lat="48.69234" lon="7.88599">
        <ele>128</ele>
        <time>2020-06-28T09:52:06Z</time>
      </trkpt>
      <trkpt lat="48.69237" lon="7.88594">
        <ele>128</ele>
        <time>2020-06-28T09:52:07Z</time>
      </trkpt>
      <trkpt lat="48.69241" lon="7.8859">
        <ele>127.9</ele>
        <time>2020-06-28T09:52:08Z</time>
      </trkpt>
      <trkpt lat="48.69244" lon="7.88587">
        <ele>127.9</ele>
        <time>2020-06-28T09:52:09Z</time>
      </trkpt>
      <trkpt lat="48.69247" lon="7.88584">
        <ele>127.9</ele>
        <time>2020-06-28T09:52:10Z</time>
      </trkpt>
      <trkpt lat="48.69252" lon="7.88584">
        <ele>127.9</ele>
        <time>2020-06-28T09:52:11Z</time>
      </trkpt>
      <trkpt lat="48.69256" lon="7.88582">
        <ele>127.9</ele>
        <time>2020-06-28T09:52:12Z</time>
      </trkpt>
      <trkpt lat="48.69261" lon="7.88581">
        <ele>127.9</ele>
        <time>2020-06-28T09:52:13Z</time>
      </trkpt>
      <trkpt lat="48.69265" lon="7.8858">
        <ele>127.9</ele>
        <time>2020-06-28T09:52:14Z</time>
      </trkpt>
      <trkpt lat="48.69268" lon="7.8858">
        <ele>127.9</ele>
        <time>2020-06-28T09:52:15Z</time>
      </trkpt>
      <trkpt lat="48.69272" lon="7.88579">
        <ele>127.9</ele>
        <time>2020-06-28T09:52:16Z</time>
      </trkpt>
      <trkpt lat="48.69277" lon="7.88579">
        <ele>127.9</ele>
        <time>2020-06-28T09:52:17Z</time>
      </trkpt>
      <trkpt lat="48.69281" lon="7.88581">
        <ele>127.9</ele>
        <time>2020-06-28T09:52:18Z</time>
      </trkpt>
      <trkpt lat="48.69285" lon="7.88584">
        <ele>127.9</ele>
        <time>2020-06-28T09:52:19Z</time>
      </trkpt>
      <trkpt lat="48.69288" lon="7.88588">
        <ele>127.9</ele>
        <time>2020-06-28T09:52:20Z</time>
      </trkpt>
      <trkpt lat="48.69293" lon="7.88594">
        <ele>127.8</ele>
        <time>2020-06-28T09:52:21Z</time>
      </trkpt>
      <trkpt lat="48.69297" lon="7.886">
        <ele>127.8</ele>
        <time>2020-06-28T09:52:22Z</time>
      </trkpt>
      <trkpt lat="48.693" lon="7.88607">
        <ele>127.8</ele>
        <time>2020-06-28T09:52:23Z</time>
      </trkpt>
      <trkpt lat="48.69304" lon="7.88614">
        <ele>127.8</ele>
        <time>2020-06-28T09:52:24Z</time>
      </trkpt>
      <trkpt lat="48.69307" lon="7.88621">
        <ele>127.8</ele>
        <time>2020-06-28T09:52:25Z</time>
      </trkpt>
      <trkpt lat="48.6931" lon="7.88627">
        <ele>127.8</ele>
        <time>2020-06-28T09:52:26Z</time>
      </trkpt>
      <trkpt lat="48.69312" lon="7.88632">
        <ele>127.8</ele>
        <time>2020-06-28T09:52:27Z</time>
      </trkpt>
      <trkpt lat="48.69316" lon="7.8864">
        <ele>127.8</ele>
        <time>2020-06-28T09:52:28Z</time>
      </trkpt>
      <trkpt lat="48.69319" lon="7.88647">
        <ele>127.8</ele>
        <time>2020-06-28T09:52:29Z</time>
      </trkpt>
      <trkpt lat="48.69323" lon="7.88652">
        <ele>127.8</ele>
        <time>2020-06-28T09:52:30Z</time>
      </trkpt>
      <trkpt lat="48.69327" lon="7.88657">
        <ele>127.8</ele>
        <time>2020-06-28T09:52:31Z</time>
      </trkpt>
      <trkpt lat="48.69332" lon="7.88662">
        <ele>127.8</ele>
        <time>2020-06-28T09:52:32Z</time>
      </trkpt>
      <trkpt lat="48.69338" lon="7.88667">
        <ele>127.8</ele>
        <time>2020-06-28T09:52:33Z</time>
      </trkpt>
      <trkpt lat="48.69344" lon="7.88671">
        <ele>127.8</ele>
        <time>2020-06-28T09:52:34Z</time>
      </trkpt>
      <trkpt lat="48.69349" lon="7.88676">
        <ele>127.8</ele>
        <time>2020-06-28T09:52:35Z</time>
      </trkpt>
      <trkpt lat="48.69354" lon="7.88682">
        <ele>127.8</ele>
        <time>2020-06-28T09:52:36Z</time>
      </trkpt>
      <trkpt lat="48.69358" lon="7.88687">
        <ele>127.8</ele>
        <time>2020-06-28T09:52:37Z</time>
      </trkpt>
      <trkpt lat="48.69363" lon="7.88691">
        <ele>127.8</ele>
        <time>2020-06-28T09:52:38Z</time>
      </trkpt>
      <trkpt lat="48.69367" lon="7.88695">
        <ele>127.9</ele>
        <time>2020-06-28T09:52:39Z</time>
      </trkpt>
      <trkpt lat="48.69373" lon="7.88698">
        <ele>127.9</ele>
        <time>2020-06-28T09:52:40Z</time>
      </trkpt>
      <trkpt lat="48.69378" lon="7.88701">
        <ele>127.9</ele>
        <time>2020-06-28T09:52:41Z</time>
      </trkpt>
      <trkpt lat="48.69382" lon="7.88705">
        <ele>127.9</ele>
        <time>2020-06-28T09:52:42Z</time>
      </trkpt>
      <trkpt lat="48.69386" lon="7.88705">
        <ele>127.9</ele>
        <time>2020-06-28T09:52:43Z</time>
      </trkpt>
      <trkpt lat="48.6939" lon="7.88705">
        <ele>128</ele>
        <time>2020-06-28T09:52:44Z</time>
      </trkpt>
      <trkpt lat="48.69397" lon="7.88703">
        <ele>128</ele>
        <time>2020-06-28T09:52:45Z</time>
      </trkpt>
      <trkpt lat="48.69402" lon="7.88698">
        <ele>128</ele>
        <time>2020-06-28T09:52:46Z</time>
      </trkpt>
      <trkpt lat="48.69407" lon="7.88694">
        <ele>128.1</ele>
        <time>2020-06-28T09:52:47Z</time>
      </trkpt>
      <trkpt lat="48.69412" lon="7.88692">
        <ele>128.1</ele>
        <time>2020-06-28T09:52:48Z</time>
      </trkpt>
      <trkpt lat="48.69415" lon="7.88686">
        <ele>128.1</ele>
        <time>2020-06-28T09:52:49Z</time>
      </trkpt>
      <trkpt lat="48.69419" lon="7.88681">
        <ele>128.1</ele>
        <time>2020-06-28T09:52:50Z</time>
      </trkpt>
      <trkpt lat="48.69424" lon="7.88675">
        <ele>128.3</ele>
        <time>2020-06-28T09:52:51Z</time>
      </trkpt>
      <trkpt lat="48.69426" lon="7.88671">
        <ele>128.4</ele>
        <time>2020-06-28T09:52:52Z</time>
      </trkpt>
      <trkpt lat="48.69429" lon="7.88666">
        <ele>128.5</ele>
        <time>2020-06-28T09:52:53Z</time>
      </trkpt>
      <trkpt lat="48.69433" lon="7.88661">
        <ele>128.6</ele>
        <time>2020-06-28T09:52:54Z</time>
      </trkpt>
      <trkpt lat="48.69435" lon="7.88656">
        <ele>128.8</ele>
        <time>2020-06-28T09:52:55Z</time>
      </trkpt>
      <trkpt lat="48.69437" lon="7.88651">
        <ele>128.7</ele>
        <time>2020-06-28T09:52:56Z</time>
      </trkpt>
      <trkpt lat="48.69438" lon="7.88645">
        <ele>128.6</ele>
        <time>2020-06-28T09:52:57Z</time>
      </trkpt>
      <trkpt lat="48.69438" lon="7.88644">
        <ele>128.6</ele>
        <time>2020-06-28T09:52:58Z</time>
      </trkpt>
      <trkpt lat="48.69436" lon="7.8864">
        <ele>128.5</ele>
        <time>2020-06-28T09:52:59Z</time>
      </trkpt>
      <trkpt lat="48.69435" lon="7.88636">
        <ele>128.5</ele>
        <time>2020-06-28T09:53:00Z</time>
      </trkpt>
      <trkpt lat="48.69433" lon="7.88632">
        <ele>128.5</ele>
        <time>2020-06-28T09:53:01Z</time>
      </trkpt>
      <trkpt lat="48.69431" lon="7.88626">
        <ele>128.5</ele>
        <time>2020-06-28T09:53:02Z</time>
      </trkpt>
      <trkpt lat="48.69427" lon="7.88622">
        <ele>128.5</ele>
        <time>2020-06-28T09:53:03Z</time>
      </trkpt>
      <trkpt lat="48.69423" lon="7.88619">
        <ele>128.5</ele>
        <time>2020-06-28T09:53:04Z</time>
      </trkpt>
      <trkpt lat="48.69419" lon="7.88615">
        <ele>128.4</ele>
        <time>2020-06-28T09:53:05Z</time>
      </trkpt>
      <trkpt lat="48.69415" lon="7.88611">
        <ele>128.4</ele>
        <time>2020-06-28T09:53:06Z</time>
      </trkpt>
      <trkpt lat="48.69412" lon="7.88609">
        <ele>128.4</ele>
        <time>2020-06-28T09:53:07Z</time>
      </trkpt>
      <trkpt lat="48.69409" lon="7.88603">
        <ele>128.4</ele>
        <time>2020-06-28T09:53:08Z</time>
      </trkpt>
      <trkpt lat="48.69405" lon="7.88598">
        <ele>128.4</ele>
        <time>2020-06-28T09:53:09Z</time>
      </trkpt>
      <trkpt lat="48.69402" lon="7.88592">
        <ele>128.3</ele>
        <time>2020-06-28T09:53:10Z</time>
      </trkpt>
      <trkpt lat="48.69398" lon="7.88587">
        <ele>128.3</ele>
        <time>2020-06-28T09:53:11Z</time>
      </trkpt>
      <trkpt lat="48.69395" lon="7.88583">
        <ele>128.3</ele>
        <time>2020-06-28T09:53:12Z</time>
      </trkpt>
      <trkpt lat="48.69391" lon="7.88579">
        <ele>128.3</ele>
        <time>2020-06-28T09:53:13Z</time>
      </trkpt>
      <trkpt lat="48.69386" lon="7.88575">
        <ele>128.3</ele>
        <time>2020-06-28T09:53:14Z</time>
      </trkpt>
      <trkpt lat="48.69381" lon="7.8857">
        <ele>128.3</ele>
        <time>2020-06-28T09:53:15Z</time>
      </trkpt>
      <trkpt lat="48.69377" lon="7.88564">
        <ele>128.3</ele>
        <time>2020-06-28T09:53:16Z</time>
      </trkpt>
      <trkpt lat="48.69373" lon="7.88558">
        <ele>128.3</ele>
        <time>2020-06-28T09:53:17Z</time>
      </trkpt>
      <trkpt lat="48.69369" lon="7.88553">
        <ele>128.2</ele>
        <time>2020-06-28T09:53:18Z</time>
      </trkpt>
      <trkpt lat="48.69365" lon="7.88547">
        <ele>128.2</ele>
        <time>2020-06-28T09:53:19Z</time>
      </trkpt>
      <trkpt lat="48.69361" lon="7.88542">
        <ele>128.2</ele>
        <time>2020-06-28T09:53:20Z</time>
      </trkpt>
      <trkpt lat="48.69356" lon="7.88537">
        <ele>128.1</ele>
        <time>2020-06-28T09:53:21Z</time>
      </trkpt>
      <trkpt lat="48.69353" lon="7.88533">
        <ele>128.1</ele>
        <time>2020-06-28T09:53:22Z</time>
      </trkpt>
      <trkpt lat="48.6935" lon="7.88528">
        <ele>128.1</ele>
        <time>2020-06-28T09:53:23Z</time>
      </trkpt>
      <trkpt lat="48.69346" lon="7.88524">
        <ele>128</ele>
        <time>2020-06-28T09:53:24Z</time>
      </trkpt>
      <trkpt lat="48.69342" lon="7.88518">
        <ele>128</ele>
        <time>2020-06-28T09:53:25Z</time>
      </trkpt>
      <trkpt lat="48.69337" lon="7.88512">
        <ele>127.9</ele>
        <time>2020-06-28T09:53:26Z</time>
      </trkpt>
      <trkpt lat="48.69333" lon="7.88506">
        <ele>127.9</ele>
        <time>2020-06-28T09:53:27Z</time>
      </trkpt>
      <trkpt lat="48.69329" lon="7.885">
        <ele>127.9</ele>
        <time>2020-06-28T09:53:28Z</time>
      </trkpt>
      <trkpt lat="48.69325" lon="7.88494">
        <ele>127.9</ele>
        <time>2020-06-28T09:53:29Z</time>
      </trkpt>
      <trkpt lat="48.69321" lon="7.8849">
        <ele>127.9</ele>
        <time>2020-06-28T09:53:30Z</time>
      </trkpt>
      <trkpt lat="48.69318" lon="7.88483">
        <ele>127.9</ele>
        <time>2020-06-28T09:53:31Z</time>
      </trkpt>
      <trkpt lat="48.69314" lon="7.88478">
        <ele>127.9</ele>
        <time>2020-06-28T09:53:32Z</time>
      </trkpt>
      <trkpt lat="48.69311" lon="7.88473">
        <ele>127.9</ele>
        <time>2020-06-28T09:53:33Z</time>
      </trkpt>
      <trkpt lat="48.69307" lon="7.88467">
        <ele>127.9</ele>
        <time>2020-06-28T09:53:34Z</time>
      </trkpt>
      <trkpt lat="48.69303" lon="7.88461">
        <ele>127.9</ele>
        <time>2020-06-28T09:53:35Z</time>
      </trkpt>
      <trkpt lat="48.69299" lon="7.88455">
        <ele>127.8</ele>
        <time>2020-06-28T09:53:36Z</time>
      </trkpt>
      <trkpt lat="48.69294" lon="7.8845">
        <ele>127.8</ele>
        <time>2020-06-28T09:53:37Z</time>
      </trkpt>
      <trkpt lat="48.69289" lon="7.88444">
        <ele>127.8</ele>
        <time>2020-06-28T09:53:38Z</time>
      </trkpt>
      <trkpt lat="48.69284" lon="7.88439">
        <ele>127.9</ele>
        <time>2020-06-28T09:53:39Z</time>
      </trkpt>
      <trkpt lat="48.69279" lon="7.88434">
        <ele>127.9</ele>
        <time>2020-06-28T09:53:40Z</time>
      </trkpt>
      <trkpt lat="48.69275" lon="7.88429">
        <ele>127.9</ele>
        <time>2020-06-28T09:53:41Z</time>
      </trkpt>
      <trkpt lat="48.69271" lon="7.88424">
        <ele>127.9</ele>
        <time>2020-06-28T09:53:42Z</time>
      </trkpt>
      <trkpt lat="48.69267" lon="7.88419">
        <ele>127.9</ele>
        <time>2020-06-28T09:53:43Z</time>
      </trkpt>
      <trkpt lat="48.69263" lon="7.88415">
        <ele>127.9</ele>
        <time>2020-06-28T09:53:44Z</time>
      </trkpt>
      <trkpt lat="48.69259" lon="7.8841">
        <ele>127.9</ele>
        <time>2020-06-28T09:53:45Z</time>
      </trkpt>
      <trkpt lat="48.69256" lon="7.88405">
        <ele>127.9</ele>
        <time>2020-06-28T09:53:46Z</time>
      </trkpt>
      <trkpt lat="48.69253" lon="7.88399">
        <ele>127.9</ele>
        <time>2020-06-28T09:53:47Z</time>
      </trkpt>
      <trkpt lat="48.69249" lon="7.88393">
        <ele>127.9</ele>
        <time>2020-06-28T09:53:48Z</time>
      </trkpt>
      <trkpt lat="48.69245" lon="7.88387">
        <ele>127.9</ele>
        <time>2020-06-28T09:53:49Z</time>
      </trkpt>
      <trkpt lat="48.69241" lon="7.88382">
        <ele>127.9</ele>
        <time>2020-06-28T09:53:50Z</time>
      </trkpt>
      <trkpt lat="48.69238" lon="7.88376">
        <ele>127.9</ele>
        <time>2020-06-28T09:53:51Z</time>
      </trkpt>
      <trkpt lat="48.69234" lon="7.8837">
        <ele>127.8</ele>
        <time>2020-06-28T09:53:52Z</time>
      </trkpt>
      <trkpt lat="48.69231" lon="7.88364">
        <ele>127.8</ele>
        <time>2020-06-28T09:53:53Z</time>
      </trkpt>
      <trkpt lat="48.69227" lon="7.88358">
        <ele>127.8</ele>
        <time>2020-06-28T09:53:54Z</time>
      </trkpt>
      <trkpt lat="48.69223" lon="7.88353">
        <ele>127.8</ele>
        <time>2020-06-28T09:53:55Z</time>
      </trkpt>
      <trkpt lat="48.69219" lon="7.88348">
        <ele>127.7</ele>
        <time>2020-06-28T09:53:56Z</time>
      </trkpt>
      <trkpt lat="48.69215" lon="7.88346">
        <ele>127.7</ele>
        <time>2020-06-28T09:53:57Z</time>
      </trkpt>
      <trkpt lat="48.69212" lon="7.88343">
        <ele>127.7</ele>
        <time>2020-06-28T09:53:58Z</time>
      </trkpt>
      <trkpt lat="48.69209" lon="7.88341">
        <ele>127.7</ele>
        <time>2020-06-28T09:53:59Z</time>
      </trkpt>
      <trkpt lat="48.69207" lon="7.88339">
        <ele>127.7</ele>
        <time>2020-06-28T09:54:00Z</time>
      </trkpt>
      <trkpt lat="48.69203" lon="7.88337">
        <ele>127.6</ele>
        <time>2020-06-28T09:54:01Z</time>
      </trkpt>
      <trkpt lat="48.69199" lon="7.88334">
        <ele>127.6</ele>
        <time>2020-06-28T09:54:02Z</time>
      </trkpt>
      <trkpt lat="48.69196" lon="7.88331">
        <ele>127.6</ele>
        <time>2020-06-28T09:54:03Z</time>
      </trkpt>
      <trkpt lat="48.69192" lon="7.88327">
        <ele>127.6</ele>
        <time>2020-06-28T09:54:04Z</time>
      </trkpt>
      <trkpt lat="48.69188" lon="7.88321">
        <ele>127.6</ele>
        <time>2020-06-28T09:54:05Z</time>
      </trkpt>
      <trkpt lat="48.69184" lon="7.88317">
        <ele>127.6</ele>
        <time>2020-06-28T09:54:06Z</time>
      </trkpt>
      <trkpt lat="48.6918" lon="7.88313">
        <ele>127.6</ele>
        <time>2020-06-28T09:54:07Z</time>
      </trkpt>
      <trkpt lat="48.69176" lon="7.8831">
        <ele>127.5</ele>
        <time>2020-06-28T09:54:08Z</time>
      </trkpt>
      <trkpt lat="48.69173" lon="7.88305">
        <ele>127.5</ele>
        <time>2020-06-28T09:54:09Z</time>
      </trkpt>
      <trkpt lat="48.69169" lon="7.88301">
        <ele>127.5</ele>
        <time>2020-06-28T09:54:10Z</time>
      </trkpt>
      <trkpt lat="48.69166" lon="7.88297">
        <ele>127.5</ele>
        <time>2020-06-28T09:54:11Z</time>
      </trkpt>
      <trkpt lat="48.69164" lon="7.88294">
        <ele>127.5</ele>
        <time>2020-06-28T09:54:12Z</time>
      </trkpt>
      <trkpt lat="48.69161" lon="7.88289">
        <ele>127.5</ele>
        <time>2020-06-28T09:54:13Z</time>
      </trkpt>
      <trkpt lat="48.69158" lon="7.88285">
        <ele>127.5</ele>
        <time>2020-06-28T09:54:14Z</time>
      </trkpt>
      <trkpt lat="48.69154" lon="7.88281">
        <ele>127.4</ele>
        <time>2020-06-28T09:54:15Z</time>
      </trkpt>
      <trkpt lat="48.69151" lon="7.88278">
        <ele>127.4</ele>
        <time>2020-06-28T09:54:16Z</time>
      </trkpt>
      <trkpt lat="48.69147" lon="7.88272">
        <ele>127.4</ele>
        <time>2020-06-28T09:54:17Z</time>
      </trkpt>
      <trkpt lat="48.69144" lon="7.88269">
        <ele>127.4</ele>
        <time>2020-06-28T09:54:18Z</time>
      </trkpt>
      <trkpt lat="48.69141" lon="7.88264">
        <ele>127.4</ele>
        <time>2020-06-28T09:54:19Z</time>
      </trkpt>
      <trkpt lat="48.69138" lon="7.88258">
        <ele>127.4</ele>
        <time>2020-06-28T09:54:20Z</time>
      </trkpt>
      <trkpt lat="48.69133" lon="7.88254">
        <ele>127.4</ele>
        <time>2020-06-28T09:54:21Z</time>
      </trkpt>
      <trkpt lat="48.6913" lon="7.88251">
        <ele>127.4</ele>
        <time>2020-06-28T09:54:22Z</time>
      </trkpt>
      <trkpt lat="48.69127" lon="7.88246">
        <ele>127.4</ele>
        <time>2020-06-28T09:54:23Z</time>
      </trkpt>
      <trkpt lat="48.69123" lon="7.8824">
        <ele>127.5</ele>
        <time>2020-06-28T09:54:24Z</time>
      </trkpt>
      <trkpt lat="48.69119" lon="7.88235">
        <ele>127.5</ele>
        <time>2020-06-28T09:54:25Z</time>
      </trkpt>
      <trkpt lat="48.69115" lon="7.8823">
        <ele>127.5</ele>
        <time>2020-06-28T09:54:26Z</time>
      </trkpt>
      <trkpt lat="48.69112" lon="7.88225">
        <ele>127.5</ele>
        <time>2020-06-28T09:54:27Z</time>
      </trkpt>
      <trkpt lat="48.6911" lon="7.88218">
        <ele>127.5</ele>
        <time>2020-06-28T09:54:28Z</time>
      </trkpt>
      <trkpt lat="48.69109" lon="7.88211">
        <ele>127.5</ele>
        <time>2020-06-28T09:54:29Z</time>
      </trkpt>
      <trkpt lat="48.69108" lon="7.88204">
        <ele>127.5</ele>
        <time>2020-06-28T09:54:30Z</time>
      </trkpt>
      <trkpt lat="48.69107" lon="7.88197">
        <ele>127.5</ele>
        <time>2020-06-28T09:54:31Z</time>
      </trkpt>
      <trkpt lat="48.69107" lon="7.8819">
        <ele>127.5</ele>
        <time>2020-06-28T09:54:32Z</time>
      </trkpt>
      <trkpt lat="48.69107" lon="7.88182">
        <ele>127.6</ele>
        <time>2020-06-28T09:54:33Z</time>
      </trkpt>
      <trkpt lat="48.69107" lon="7.88175">
        <ele>127.6</ele>
        <time>2020-06-28T09:54:34Z</time>
      </trkpt>
      <trkpt lat="48.69107" lon="7.88169">
        <ele>127.6</ele>
        <time>2020-06-28T09:54:35Z</time>
      </trkpt>
      <trkpt lat="48.69107" lon="7.88161">
        <ele>127.6</ele>
        <time>2020-06-28T09:54:36Z</time>
      </trkpt>
      <trkpt lat="48.69107" lon="7.88155">
        <ele>127.6</ele>
        <time>2020-06-28T09:54:37Z</time>
      </trkpt>
      <trkpt lat="48.69108" lon="7.88149">
        <ele>127.7</ele>
        <time>2020-06-28T09:54:38Z</time>
      </trkpt>
      <trkpt lat="48.69109" lon="7.88143">
        <ele>127.7</ele>
        <time>2020-06-28T09:54:39Z</time>
      </trkpt>
      <trkpt lat="48.69109" lon="7.88138">
        <ele>127.7</ele>
        <time>2020-06-28T09:54:40Z</time>
      </trkpt>
      <trkpt lat="48.6911" lon="7.88132">
        <ele>127.7</ele>
        <time>2020-06-28T09:54:41Z</time>
      </trkpt>
      <trkpt lat="48.69111" lon="7.88126">
        <ele>127.7</ele>
        <time>2020-06-28T09:54:42Z</time>
      </trkpt>
      <trkpt lat="48.69112" lon="7.88119">
        <ele>127.7</ele>
        <time>2020-06-28T09:54:43Z</time>
      </trkpt>
      <trkpt lat="48.69114" lon="7.88113">
        <ele>127.7</ele>
        <time>2020-06-28T09:54:44Z</time>
      </trkpt>
      <trkpt lat="48.69115" lon="7.88106">
        <ele>127.7</ele>
        <time>2020-06-28T09:54:45Z</time>
      </trkpt>
      <trkpt lat="48.69117" lon="7.88099">
        <ele>127.7</ele>
        <time>2020-06-28T09:54:46Z</time>
      </trkpt>
      <trkpt lat="48.69119" lon="7.88091">
        <ele>127.7</ele>
        <time>2020-06-28T09:54:47Z</time>
      </trkpt>
      <trkpt lat="48.69121" lon="7.88084">
        <ele>127.7</ele>
        <time>2020-06-28T09:54:48Z</time>
      </trkpt>
      <trkpt lat="48.69123" lon="7.88077">
        <ele>127.7</ele>
        <time>2020-06-28T09:54:49Z</time>
      </trkpt>
      <trkpt lat="48.69126" lon="7.8807">
        <ele>127.7</ele>
        <time>2020-06-28T09:54:50Z</time>
      </trkpt>
      <trkpt lat="48.69128" lon="7.88064">
        <ele>127.6</ele>
        <time>2020-06-28T09:54:51Z</time>
      </trkpt>
      <trkpt lat="48.69131" lon="7.88058">
        <ele>127.6</ele>
        <time>2020-06-28T09:54:52Z</time>
      </trkpt>
      <trkpt lat="48.69132" lon="7.88052">
        <ele>127.6</ele>
        <time>2020-06-28T09:54:53Z</time>
      </trkpt>
      <trkpt lat="48.69134" lon="7.88045">
        <ele>127.6</ele>
        <time>2020-06-28T09:54:54Z</time>
      </trkpt>
      <trkpt lat="48.69137" lon="7.88039">
        <ele>127.7</ele>
        <time>2020-06-28T09:54:55Z</time>
      </trkpt>
      <trkpt lat="48.6914" lon="7.88031">
        <ele>127.7</ele>
        <time>2020-06-28T09:54:56Z</time>
      </trkpt>
      <trkpt lat="48.69143" lon="7.88024">
        <ele>127.7</ele>
        <time>2020-06-28T09:54:57Z</time>
      </trkpt>
      <trkpt lat="48.69146" lon="7.8802">
        <ele>127.8</ele>
        <time>2020-06-28T09:54:58Z</time>
      </trkpt>
      <trkpt lat="48.69148" lon="7.88015">
        <ele>127.8</ele>
        <time>2020-06-28T09:54:59Z</time>
      </trkpt>
      <trkpt lat="48.69152" lon="7.8801">
        <ele>127.7</ele>
        <time>2020-06-28T09:55:00Z</time>
      </trkpt>
      <trkpt lat="48.69155" lon="7.88005">
        <ele>127.7</ele>
        <time>2020-06-28T09:55:01Z</time>
      </trkpt>
      <trkpt lat="48.69158" lon="7.88">
        <ele>127.7</ele>
        <time>2020-06-28T09:55:02Z</time>
      </trkpt>
      <trkpt lat="48.69161" lon="7.87996">
        <ele>127.7</ele>
        <time>2020-06-28T09:55:03Z</time>
      </trkpt>
      <trkpt lat="48.69163" lon="7.87991">
        <ele>127.7</ele>
        <time>2020-06-28T09:55:04Z</time>
      </trkpt>
      <trkpt lat="48.69165" lon="7.87984">
        <ele>127.7</ele>
        <time>2020-06-28T09:55:05Z</time>
      </trkpt>
      <trkpt lat="48.69166" lon="7.8798">
        <ele>127.7</ele>
        <time>2020-06-28T09:55:06Z</time>
      </trkpt>
      <trkpt lat="48.69167" lon="7.87975">
        <ele>127.7</ele>
        <time>2020-06-28T09:55:07Z</time>
      </trkpt>
      <trkpt lat="48.69169" lon="7.87969">
        <ele>127.7</ele>
        <time>2020-06-28T09:55:08Z</time>
      </trkpt>
      <trkpt lat="48.69172" lon="7.87964">
        <ele>127.7</ele>
        <time>2020-06-28T09:55:09Z</time>
      </trkpt>
      <trkpt lat="48.69176" lon="7.87958">
        <ele>127.7</ele>
        <time>2020-06-28T09:55:10Z</time>
      </trkpt>
      <trkpt lat="48.69178" lon="7.87953">
        <ele>127.7</ele>
        <time>2020-06-28T09:55:11Z</time>
      </trkpt>
      <trkpt lat="48.6918" lon="7.87947">
        <ele>127.7</ele>
        <time>2020-06-28T09:55:12Z</time>
      </trkpt>
      <trkpt lat="48.69181" lon="7.87941">
        <ele>127.7</ele>
        <time>2020-06-28T09:55:13Z</time>
      </trkpt>
      <trkpt lat="48.69182" lon="7.87934">
        <ele>127.7</ele>
        <time>2020-06-28T09:55:14Z</time>
      </trkpt>
      <trkpt lat="48.6918" lon="7.87926">
        <ele>127.7</ele>
        <time>2020-06-28T09:55:15Z</time>
      </trkpt>
      <trkpt lat="48.69177" lon="7.8792">
        <ele>127.7</ele>
        <time>2020-06-28T09:55:16Z</time>
      </trkpt>
      <trkpt lat="48.69173" lon="7.87913">
        <ele>127.8</ele>
        <time>2020-06-28T09:55:17Z</time>
      </trkpt>
      <trkpt lat="48.69171" lon="7.87906">
        <ele>127.8</ele>
        <time>2020-06-28T09:55:18Z</time>
      </trkpt>
      <trkpt lat="48.69169" lon="7.879">
        <ele>127.9</ele>
        <time>2020-06-28T09:55:19Z</time>
      </trkpt>
      <trkpt lat="48.69167" lon="7.87894">
        <ele>127.9</ele>
        <time>2020-06-28T09:55:20Z</time>
      </trkpt>
      <trkpt lat="48.69165" lon="7.87889">
        <ele>127.9</ele>
        <time>2020-06-28T09:55:21Z</time>
      </trkpt>
      <trkpt lat="48.69162" lon="7.87883">
        <ele>127.9</ele>
        <time>2020-06-28T09:55:22Z</time>
      </trkpt>
      <trkpt lat="48.69159" lon="7.87878">
        <ele>127.9</ele>
        <time>2020-06-28T09:55:23Z</time>
      </trkpt>
      <trkpt lat="48.69157" lon="7.87871">
        <ele>127.9</ele>
        <time>2020-06-28T09:55:24Z</time>
      </trkpt>
      <trkpt lat="48.69155" lon="7.87865">
        <ele>127.9</ele>
        <time>2020-06-28T09:55:25Z</time>
      </trkpt>
      <trkpt lat="48.69152" lon="7.87861">
        <ele>127.9</ele>
        <time>2020-06-28T09:55:26Z</time>
      </trkpt>
      <trkpt lat="48.69151" lon="7.87855">
        <ele>127.9</ele>
        <time>2020-06-28T09:55:27Z</time>
      </trkpt>
      <trkpt lat="48.69149" lon="7.87849">
        <ele>127.9</ele>
        <time>2020-06-28T09:55:28Z</time>
      </trkpt>
      <trkpt lat="48.69147" lon="7.87844">
        <ele>127.9</ele>
        <time>2020-06-28T09:55:29Z</time>
      </trkpt>
      <trkpt lat="48.69146" lon="7.87839">
        <ele>127.9</ele>
        <time>2020-06-28T09:55:30Z</time>
      </trkpt>
      <trkpt lat="48.69144" lon="7.87833">
        <ele>127.9</ele>
        <time>2020-06-28T09:55:31Z</time>
      </trkpt>
      <trkpt lat="48.69142" lon="7.87827">
        <ele>127.9</ele>
        <time>2020-06-28T09:55:32Z</time>
      </trkpt>
      <trkpt lat="48.6914" lon="7.8782">
        <ele>127.9</ele>
        <time>2020-06-28T09:55:33Z</time>
      </trkpt>
      <trkpt lat="48.69137" lon="7.87812">
        <ele>127.9</ele>
        <time>2020-06-28T09:55:34Z</time>
      </trkpt>
      <trkpt lat="48.69135" lon="7.87803">
        <ele>127.9</ele>
        <time>2020-06-28T09:55:35Z</time>
      </trkpt>
      <trkpt lat="48.69133" lon="7.87797">
        <ele>127.9</ele>
        <time>2020-06-28T09:55:36Z</time>
      </trkpt>
      <trkpt lat="48.69131" lon="7.8779">
        <ele>128</ele>
        <time>2020-06-28T09:55:37Z</time>
      </trkpt>
      <trkpt lat="48.69128" lon="7.87784">
        <ele>128</ele>
        <time>2020-06-28T09:55:38Z</time>
      </trkpt>
      <trkpt lat="48.69126" lon="7.87776">
        <ele>128</ele>
        <time>2020-06-28T09:55:39Z</time>
      </trkpt>
      <trkpt lat="48.69124" lon="7.87769">
        <ele>128</ele>
        <time>2020-06-28T09:55:40Z</time>
      </trkpt>
      <trkpt lat="48.69122" lon="7.87762">
        <ele>128</ele>
        <time>2020-06-28T09:55:41Z</time>
      </trkpt>
      <trkpt lat="48.6912" lon="7.87755">
        <ele>128</ele>
        <time>2020-06-28T09:55:42Z</time>
      </trkpt>
      <trkpt lat="48.69119" lon="7.87749">
        <ele>128</ele>
        <time>2020-06-28T09:55:43Z</time>
      </trkpt>
      <trkpt lat="48.69116" lon="7.87742">
        <ele>128.1</ele>
        <time>2020-06-28T09:55:44Z</time>
      </trkpt>
      <trkpt lat="48.69113" lon="7.87736">
        <ele>128.1</ele>
        <time>2020-06-28T09:55:45Z</time>
      </trkpt>
      <trkpt lat="48.69112" lon="7.8773">
        <ele>128.1</ele>
        <time>2020-06-28T09:55:46Z</time>
      </trkpt>
      <trkpt lat="48.6911" lon="7.87724">
        <ele>128.1</ele>
        <time>2020-06-28T09:55:47Z</time>
      </trkpt>
      <trkpt lat="48.69108" lon="7.87717">
        <ele>128.1</ele>
        <time>2020-06-28T09:55:48Z</time>
      </trkpt>
      <trkpt lat="48.69106" lon="7.8771">
        <ele>128.2</ele>
        <time>2020-06-28T09:55:49Z</time>
      </trkpt>
      <trkpt lat="48.69103" lon="7.87702">
        <ele>128.2</ele>
        <time>2020-06-28T09:55:50Z</time>
      </trkpt>
      <trkpt lat="48.691" lon="7.87694">
        <ele>128.2</ele>
        <time>2020-06-28T09:55:51Z</time>
      </trkpt>
      <trkpt lat="48.69098" lon="7.87686">
        <ele>128.2</ele>
        <time>2020-06-28T09:55:52Z</time>
      </trkpt>
      <trkpt lat="48.69096" lon="7.87679">
        <ele>128.2</ele>
        <time>2020-06-28T09:55:53Z</time>
      </trkpt>
      <trkpt lat="48.69093" lon="7.87673">
        <ele>128.2</ele>
        <time>2020-06-28T09:55:54Z</time>
      </trkpt>
      <trkpt lat="48.6909" lon="7.87665">
        <ele>128.2</ele>
        <time>2020-06-28T09:55:55Z</time>
      </trkpt>
      <trkpt lat="48.69088" lon="7.87658">
        <ele>128.2</ele>
        <time>2020-06-28T09:55:56Z</time>
      </trkpt>
      <trkpt lat="48.69086" lon="7.87651">
        <ele>128.2</ele>
        <time>2020-06-28T09:55:57Z</time>
      </trkpt>
      <trkpt lat="48.69083" lon="7.87643">
        <ele>128.2</ele>
        <time>2020-06-28T09:55:58Z</time>
      </trkpt>
      <trkpt lat="48.6908" lon="7.87634">
        <ele>128.2</ele>
        <time>2020-06-28T09:55:59Z</time>
      </trkpt>
      <trkpt lat="48.69078" lon="7.87626">
        <ele>128.2</ele>
        <time>2020-06-28T09:56:00Z</time>
      </trkpt>
      <trkpt lat="48.69077" lon="7.87619">
        <ele>128.2</ele>
        <time>2020-06-28T09:56:01Z</time>
      </trkpt>
      <trkpt lat="48.69075" lon="7.87612">
        <ele>128.2</ele>
        <time>2020-06-28T09:56:02Z</time>
      </trkpt>
      <trkpt lat="48.69073" lon="7.87605">
        <ele>128.2</ele>
        <time>2020-06-28T09:56:03Z</time>
      </trkpt>
      <trkpt lat="48.69072" lon="7.87598">
        <ele>128.2</ele>
        <time>2020-06-28T09:56:04Z</time>
      </trkpt>
      <trkpt lat="48.69071" lon="7.8759">
        <ele>128.2</ele>
        <time>2020-06-28T09:56:05Z</time>
      </trkpt>
      <trkpt lat="48.69069" lon="7.87582">
        <ele>128.2</ele>
        <time>2020-06-28T09:56:06Z</time>
      </trkpt>
      <trkpt lat="48.69067" lon="7.87575">
        <ele>128.2</ele>
        <time>2020-06-28T09:56:07Z</time>
      </trkpt>
      <trkpt lat="48.69066" lon="7.87568">
        <ele>128.1</ele>
        <time>2020-06-28T09:56:08Z</time>
      </trkpt>
      <trkpt lat="48.69064" lon="7.87561">
        <ele>128.1</ele>
        <time>2020-06-28T09:56:09Z</time>
      </trkpt>
      <trkpt lat="48.69063" lon="7.87554">
        <ele>128</ele>
        <time>2020-06-28T09:56:10Z</time>
      </trkpt>
      <trkpt lat="48.69061" lon="7.87547">
        <ele>128</ele>
        <time>2020-06-28T09:56:11Z</time>
      </trkpt>
      <trkpt lat="48.69059" lon="7.87541">
        <ele>128</ele>
        <time>2020-06-28T09:56:12Z</time>
      </trkpt>
      <trkpt lat="48.69058" lon="7.87534">
        <ele>128</ele>
        <time>2020-06-28T09:56:13Z</time>
      </trkpt>
      <trkpt lat="48.69056" lon="7.87527">
        <ele>128</ele>
        <time>2020-06-28T09:56:14Z</time>
      </trkpt>
      <trkpt lat="48.69054" lon="7.8752">
        <ele>128.1</ele>
        <time>2020-06-28T09:56:15Z</time>
      </trkpt>
      <trkpt lat="48.69051" lon="7.87512">
        <ele>128.1</ele>
        <time>2020-06-28T09:56:16Z</time>
      </trkpt>
      <trkpt lat="48.6905" lon="7.87504">
        <ele>128.1</ele>
        <time>2020-06-28T09:56:17Z</time>
      </trkpt>
      <trkpt lat="48.69048" lon="7.87496">
        <ele>128.1</ele>
        <time>2020-06-28T09:56:18Z</time>
      </trkpt>
      <trkpt lat="48.69046" lon="7.87489">
        <ele>128.1</ele>
        <time>2020-06-28T09:56:19Z</time>
      </trkpt>
      <trkpt lat="48.69046" lon="7.87482">
        <ele>128.2</ele>
        <time>2020-06-28T09:56:20Z</time>
      </trkpt>
      <trkpt lat="48.69045" lon="7.87475">
        <ele>128.2</ele>
        <time>2020-06-28T09:56:21Z</time>
      </trkpt>
      <trkpt lat="48.69044" lon="7.87469">
        <ele>128.3</ele>
        <time>2020-06-28T09:56:22Z</time>
      </trkpt>
      <trkpt lat="48.69043" lon="7.87462">
        <ele>128.3</ele>
        <time>2020-06-28T09:56:23Z</time>
      </trkpt>
      <trkpt lat="48.69041" lon="7.87454">
        <ele>128.3</ele>
        <time>2020-06-28T09:56:24Z</time>
      </trkpt>
      <trkpt lat="48.6904" lon="7.87447">
        <ele>128.3</ele>
        <time>2020-06-28T09:56:25Z</time>
      </trkpt>
      <trkpt lat="48.69039" lon="7.8744">
        <ele>128.4</ele>
        <time>2020-06-28T09:56:26Z</time>
      </trkpt>
      <trkpt lat="48.69037" lon="7.87432">
        <ele>128.4</ele>
        <time>2020-06-28T09:56:27Z</time>
      </trkpt>
      <trkpt lat="48.69034" lon="7.87425">
        <ele>128.4</ele>
        <time>2020-06-28T09:56:28Z</time>
      </trkpt>
      <trkpt lat="48.69032" lon="7.87419">
        <ele>128.4</ele>
        <time>2020-06-28T09:56:29Z</time>
      </trkpt>
      <trkpt lat="48.69029" lon="7.87413">
        <ele>128.4</ele>
        <time>2020-06-28T09:56:30Z</time>
      </trkpt>
      <trkpt lat="48.69026" lon="7.87406">
        <ele>128.4</ele>
        <time>2020-06-28T09:56:31Z</time>
      </trkpt>
      <trkpt lat="48.69023" lon="7.87399">
        <ele>128.5</ele>
        <time>2020-06-28T09:56:32Z</time>
      </trkpt>
      <trkpt lat="48.6902" lon="7.87392">
        <ele>128.5</ele>
        <time>2020-06-28T09:56:33Z</time>
      </trkpt>
      <trkpt lat="48.69016" lon="7.87386">
        <ele>128.5</ele>
        <time>2020-06-28T09:56:34Z</time>
      </trkpt>
      <trkpt lat="48.69013" lon="7.87378">
        <ele>128.5</ele>
        <time>2020-06-28T09:56:35Z</time>
      </trkpt>
      <trkpt lat="48.6901" lon="7.87372">
        <ele>128.6</ele>
        <time>2020-06-28T09:56:36Z</time>
      </trkpt>
      <trkpt lat="48.69007" lon="7.87364">
        <ele>128.7</ele>
        <time>2020-06-28T09:56:37Z</time>
      </trkpt>
      <trkpt lat="48.69005" lon="7.87358">
        <ele>128.7</ele>
        <time>2020-06-28T09:56:38Z</time>
      </trkpt>
      <trkpt lat="48.69002" lon="7.87352">
        <ele>128.8</ele>
        <time>2020-06-28T09:56:39Z</time>
      </trkpt>
      <trkpt lat="48.69" lon="7.87345">
        <ele>128.9</ele>
        <time>2020-06-28T09:56:40Z</time>
      </trkpt>
      <trkpt lat="48.68997" lon="7.8734">
        <ele>128.9</ele>
        <time>2020-06-28T09:56:41Z</time>
      </trkpt>
      <trkpt lat="48.68994" lon="7.87334">
        <ele>128.9</ele>
        <time>2020-06-28T09:56:42Z</time>
      </trkpt>
      <trkpt lat="48.68991" lon="7.87328">
        <ele>128.9</ele>
        <time>2020-06-28T09:56:43Z</time>
      </trkpt>
      <trkpt lat="48.68987" lon="7.87321">
        <ele>128.9</ele>
        <time>2020-06-28T09:56:44Z</time>
      </trkpt>
      <trkpt lat="48.68984" lon="7.87315">
        <ele>128.8</ele>
        <time>2020-06-28T09:56:45Z</time>
      </trkpt>
      <trkpt lat="48.6898" lon="7.87309">
        <ele>128.8</ele>
        <time>2020-06-28T09:56:46Z</time>
      </trkpt>
      <trkpt lat="48.68976" lon="7.87303">
        <ele>128.8</ele>
        <time>2020-06-28T09:56:47Z</time>
      </trkpt>
      <trkpt lat="48.68972" lon="7.87298">
        <ele>128.8</ele>
        <time>2020-06-28T09:56:48Z</time>
      </trkpt>
      <trkpt lat="48.68968" lon="7.87292">
        <ele>128.8</ele>
        <time>2020-06-28T09:56:49Z</time>
      </trkpt>
      <trkpt lat="48.68964" lon="7.87287">
        <ele>128.7</ele>
        <time>2020-06-28T09:56:50Z</time>
      </trkpt>
      <trkpt lat="48.6896" lon="7.87281">
        <ele>128.7</ele>
        <time>2020-06-28T09:56:51Z</time>
      </trkpt>
      <trkpt lat="48.68957" lon="7.87276">
        <ele>128.7</ele>
        <time>2020-06-28T09:56:52Z</time>
      </trkpt>
      <trkpt lat="48.68953" lon="7.87271">
        <ele>128.7</ele>
        <time>2020-06-28T09:56:53Z</time>
      </trkpt>
      <trkpt lat="48.6895" lon="7.87265">
        <ele>128.6</ele>
        <time>2020-06-28T09:56:54Z</time>
      </trkpt>
      <trkpt lat="48.68946" lon="7.87261">
        <ele>128.6</ele>
        <time>2020-06-28T09:56:55Z</time>
      </trkpt>
      <trkpt lat="48.68942" lon="7.87257">
        <ele>128.6</ele>
        <time>2020-06-28T09:56:56Z</time>
      </trkpt>
      <trkpt lat="48.68938" lon="7.87251">
        <ele>128.6</ele>
        <time>2020-06-28T09:56:57Z</time>
      </trkpt>
      <trkpt lat="48.68934" lon="7.87247">
        <ele>128.6</ele>
        <time>2020-06-28T09:56:58Z</time>
      </trkpt>
      <trkpt lat="48.6893" lon="7.87243">
        <ele>128.6</ele>
        <time>2020-06-28T09:56:59Z</time>
      </trkpt>
      <trkpt lat="48.68925" lon="7.87238">
        <ele>128.6</ele>
        <time>2020-06-28T09:57:00Z</time>
      </trkpt>
      <trkpt lat="48.68921" lon="7.87232">
        <ele>128.6</ele>
        <time>2020-06-28T09:57:01Z</time>
      </trkpt>
      <trkpt lat="48.68916" lon="7.87227">
        <ele>128.6</ele>
        <time>2020-06-28T09:57:02Z</time>
      </trkpt>
      <trkpt lat="48.68912" lon="7.87224">
        <ele>128.6</ele>
        <time>2020-06-28T09:57:03Z</time>
      </trkpt>
      <trkpt lat="48.68908" lon="7.87219">
        <ele>128.6</ele>
        <time>2020-06-28T09:57:04Z</time>
      </trkpt>
      <trkpt lat="48.68904" lon="7.87215">
        <ele>128.6</ele>
        <time>2020-06-28T09:57:05Z</time>
      </trkpt>
      <trkpt lat="48.68901" lon="7.87211">
        <ele>128.5</ele>
        <time>2020-06-28T09:57:06Z</time>
      </trkpt>
      <trkpt lat="48.68898" lon="7.87206">
        <ele>128.5</ele>
        <time>2020-06-28T09:57:07Z</time>
      </trkpt>
      <trkpt lat="48.68895" lon="7.87201">
        <ele>128.5</ele>
        <time>2020-06-28T09:57:08Z</time>
      </trkpt>
      <trkpt lat="48.68891" lon="7.87197">
        <ele>128.5</ele>
        <time>2020-06-28T09:57:09Z</time>
      </trkpt>
      <trkpt lat="48.68888" lon="7.8719">
        <ele>128.4</ele>
        <time>2020-06-28T09:57:10Z</time>
      </trkpt>
      <trkpt lat="48.68885" lon="7.87184">
        <ele>128.4</ele>
        <time>2020-06-28T09:57:11Z</time>
      </trkpt>
      <trkpt lat="48.68881" lon="7.87178">
        <ele>128.4</ele>
        <time>2020-06-28T09:57:12Z</time>
      </trkpt>
      <trkpt lat="48.68878" lon="7.87173">
        <ele>128.3</ele>
        <time>2020-06-28T09:57:13Z</time>
      </trkpt>
      <trkpt lat="48.68876" lon="7.87165">
        <ele>128.3</ele>
        <time>2020-06-28T09:57:14Z</time>
      </trkpt>
      <trkpt lat="48.68873" lon="7.87159">
        <ele>128.3</ele>
        <time>2020-06-28T09:57:15Z</time>
      </trkpt>
      <trkpt lat="48.68869" lon="7.87154">
        <ele>128.3</ele>
        <time>2020-06-28T09:57:16Z</time>
      </trkpt>
      <trkpt lat="48.68866" lon="7.87147">
        <ele>128.3</ele>
        <time>2020-06-28T09:57:17Z</time>
      </trkpt>
      <trkpt lat="48.68862" lon="7.8714">
        <ele>128.2</ele>
        <time>2020-06-28T09:57:18Z</time>
      </trkpt>
      <trkpt lat="48.68859" lon="7.87133">
        <ele>128.2</ele>
        <time>2020-06-28T09:57:19Z</time>
      </trkpt>
      <trkpt lat="48.68855" lon="7.87127">
        <ele>128.2</ele>
        <time>2020-06-28T09:57:20Z</time>
      </trkpt>
      <trkpt lat="48.68851" lon="7.8712">
        <ele>128.2</ele>
        <time>2020-06-28T09:57:21Z</time>
      </trkpt>
      <trkpt lat="48.68847" lon="7.87112">
        <ele>128.2</ele>
        <time>2020-06-28T09:57:22Z</time>
      </trkpt>
      <trkpt lat="48.68842" lon="7.87105">
        <ele>128.2</ele>
        <time>2020-06-28T09:57:23Z</time>
      </trkpt>
      <trkpt lat="48.68838" lon="7.87099">
        <ele>128.2</ele>
        <time>2020-06-28T09:57:24Z</time>
      </trkpt>
      <trkpt lat="48.68834" lon="7.87093">
        <ele>128.2</ele>
        <time>2020-06-28T09:57:25Z</time>
      </trkpt>
      <trkpt lat="48.68831" lon="7.87085">
        <ele>128.2</ele>
        <time>2020-06-28T09:57:26Z</time>
      </trkpt>
      <trkpt lat="48.68827" lon="7.87078">
        <ele>128.1</ele>
        <time>2020-06-28T09:57:27Z</time>
      </trkpt>
      <trkpt lat="48.68823" lon="7.87071">
        <ele>128.1</ele>
        <time>2020-06-28T09:57:28Z</time>
      </trkpt>
      <trkpt lat="48.6882" lon="7.87064">
        <ele>128.1</ele>
        <time>2020-06-28T09:57:29Z</time>
      </trkpt>
      <trkpt lat="48.68817" lon="7.87058">
        <ele>128</ele>
        <time>2020-06-28T09:57:30Z</time>
      </trkpt>
      <trkpt lat="48.68813" lon="7.87052">
        <ele>128</ele>
        <time>2020-06-28T09:57:31Z</time>
      </trkpt>
      <trkpt lat="48.68809" lon="7.87046">
        <ele>128</ele>
        <time>2020-06-28T09:57:32Z</time>
      </trkpt>
      <trkpt lat="48.68805" lon="7.87041">
        <ele>127.9</ele>
        <time>2020-06-28T09:57:33Z</time>
      </trkpt>
      <trkpt lat="48.68801" lon="7.87035">
        <ele>127.9</ele>
        <time>2020-06-28T09:57:34Z</time>
      </trkpt>
      <trkpt lat="48.68797" lon="7.87029">
        <ele>127.9</ele>
        <time>2020-06-28T09:57:35Z</time>
      </trkpt>
      <trkpt lat="48.68793" lon="7.87023">
        <ele>127.9</ele>
        <time>2020-06-28T09:57:36Z</time>
      </trkpt>
      <trkpt lat="48.68789" lon="7.87017">
        <ele>127.9</ele>
        <time>2020-06-28T09:57:37Z</time>
      </trkpt>
      <trkpt lat="48.68785" lon="7.87011">
        <ele>128</ele>
        <time>2020-06-28T09:57:38Z</time>
      </trkpt>
      <trkpt lat="48.68781" lon="7.87006">
        <ele>128.1</ele>
        <time>2020-06-28T09:57:39Z</time>
      </trkpt>
      <trkpt lat="48.68777" lon="7.87001">
        <ele>128.1</ele>
        <time>2020-06-28T09:57:40Z</time>
      </trkpt>
      <trkpt lat="48.68772" lon="7.86996">
        <ele>128.1</ele>
        <time>2020-06-28T09:57:41Z</time>
      </trkpt>
      <trkpt lat="48.68768" lon="7.86991">
        <ele>128.1</ele>
        <time>2020-06-28T09:57:42Z</time>
      </trkpt>
      <trkpt lat="48.68763" lon="7.86986">
        <ele>128.1</ele>
        <time>2020-06-28T09:57:43Z</time>
      </trkpt>
      <trkpt lat="48.68759" lon="7.86981">
        <ele>128.1</ele>
        <time>2020-06-28T09:57:44Z</time>
      </trkpt>
      <trkpt lat="48.68754" lon="7.86976">
        <ele>128.1</ele>
        <time>2020-06-28T09:57:45Z</time>
      </trkpt>
      <trkpt lat="48.68749" lon="7.86973">
        <ele>128.1</ele>
        <time>2020-06-28T09:57:46Z</time>
      </trkpt>
      <trkpt lat="48.68745" lon="7.86969">
        <ele>128.1</ele>
        <time>2020-06-28T09:57:47Z</time>
      </trkpt>
      <trkpt lat="48.68741" lon="7.86966">
        <ele>128.2</ele>
        <time>2020-06-28T09:57:48Z</time>
      </trkpt>
      <trkpt lat="48.68736" lon="7.86962">
        <ele>128.2</ele>
        <time>2020-06-28T09:57:49Z</time>
      </trkpt>
      <trkpt lat="48.68731" lon="7.8696">
        <ele>128.3</ele>
        <time>2020-06-28T09:57:50Z</time>
      </trkpt>
      <trkpt lat="48.68726" lon="7.86958">
        <ele>128.3</ele>
        <time>2020-06-28T09:57:51Z</time>
      </trkpt>
      <trkpt lat="48.68721" lon="7.86955">
        <ele>128.3</ele>
        <time>2020-06-28T09:57:52Z</time>
      </trkpt>
      <trkpt lat="48.68716" lon="7.86951">
        <ele>128.3</ele>
        <time>2020-06-28T09:57:53Z</time>
      </trkpt>
      <trkpt lat="48.6871" lon="7.86949">
        <ele>128.3</ele>
        <time>2020-06-28T09:57:54Z</time>
      </trkpt>
      <trkpt lat="48.68705" lon="7.86947">
        <ele>128.3</ele>
        <time>2020-06-28T09:57:55Z</time>
      </trkpt>
      <trkpt lat="48.68699" lon="7.86944">
        <ele>128.3</ele>
        <time>2020-06-28T09:57:56Z</time>
      </trkpt>
      <trkpt lat="48.68693" lon="7.86941">
        <ele>128.3</ele>
        <time>2020-06-28T09:57:57Z</time>
      </trkpt>
      <trkpt lat="48.68687" lon="7.86938">
        <ele>128.3</ele>
        <time>2020-06-28T09:57:58Z</time>
      </trkpt>
      <trkpt lat="48.68681" lon="7.86934">
        <ele>128.3</ele>
        <time>2020-06-28T09:57:59Z</time>
      </trkpt>
      <trkpt lat="48.68675" lon="7.86931">
        <ele>128.2</ele>
        <time>2020-06-28T09:58:00Z</time>
      </trkpt>
      <trkpt lat="48.68668" lon="7.86927">
        <ele>128.2</ele>
        <time>2020-06-28T09:58:01Z</time>
      </trkpt>
      <trkpt lat="48.68662" lon="7.86922">
        <ele>128.1</ele>
        <time>2020-06-28T09:58:02Z</time>
      </trkpt>
      <trkpt lat="48.68655" lon="7.86918">
        <ele>128.1</ele>
        <time>2020-06-28T09:58:03Z</time>
      </trkpt>
      <trkpt lat="48.68648" lon="7.86915">
        <ele>128.1</ele>
        <time>2020-06-28T09:58:04Z</time>
      </trkpt>
      <trkpt lat="48.68643" lon="7.86913">
        <ele>128.1</ele>
        <time>2020-06-28T09:58:05Z</time>
      </trkpt>
      <trkpt lat="48.68638" lon="7.86911">
        <ele>128.1</ele>
        <time>2020-06-28T09:58:06Z</time>
      </trkpt>
      <trkpt lat="48.68632" lon="7.86908">
        <ele>128.1</ele>
        <time>2020-06-28T09:58:07Z</time>
      </trkpt>
      <trkpt lat="48.68627" lon="7.86905">
        <ele>128.2</ele>
        <time>2020-06-28T09:58:08Z</time>
      </trkpt>
      <trkpt lat="48.68622" lon="7.86902">
        <ele>128.2</ele>
        <time>2020-06-28T09:58:09Z</time>
      </trkpt>
      <trkpt lat="48.68617" lon="7.869">
        <ele>128.2</ele>
        <time>2020-06-28T09:58:10Z</time>
      </trkpt>
      <trkpt lat="48.68612" lon="7.86896">
        <ele>128.3</ele>
        <time>2020-06-28T09:58:11Z</time>
      </trkpt>
      <trkpt lat="48.68607" lon="7.86894">
        <ele>128.3</ele>
        <time>2020-06-28T09:58:12Z</time>
      </trkpt>
      <trkpt lat="48.68601" lon="7.86892">
        <ele>128.4</ele>
        <time>2020-06-28T09:58:13Z</time>
      </trkpt>
      <trkpt lat="48.68597" lon="7.86889">
        <ele>128.5</ele>
        <time>2020-06-28T09:58:14Z</time>
      </trkpt>
      <trkpt lat="48.68591" lon="7.86888">
        <ele>128.7</ele>
        <time>2020-06-28T09:58:15Z</time>
      </trkpt>
      <trkpt lat="48.68586" lon="7.86885">
        <ele>128.7</ele>
        <time>2020-06-28T09:58:16Z</time>
      </trkpt>
      <trkpt lat="48.68582" lon="7.86882">
        <ele>128.7</ele>
        <time>2020-06-28T09:58:17Z</time>
      </trkpt>
      <trkpt lat="48.68577" lon="7.86879">
        <ele>128.7</ele>
        <time>2020-06-28T09:58:18Z</time>
      </trkpt>
      <trkpt lat="48.68572" lon="7.86876">
        <ele>128.8</ele>
        <time>2020-06-28T09:58:19Z</time>
      </trkpt>
      <trkpt lat="48.68566" lon="7.86872">
        <ele>128.8</ele>
        <time>2020-06-28T09:58:20Z</time>
      </trkpt>
      <trkpt lat="48.68561" lon="7.86869">
        <ele>128.8</ele>
        <time>2020-06-28T09:58:21Z</time>
      </trkpt>
      <trkpt lat="48.68556" lon="7.86866">
        <ele>128.7</ele>
        <time>2020-06-28T09:58:22Z</time>
      </trkpt>
      <trkpt lat="48.6855" lon="7.86863">
        <ele>128.7</ele>
        <time>2020-06-28T09:58:23Z</time>
      </trkpt>
      <trkpt lat="48.68545" lon="7.8686">
        <ele>128.8</ele>
        <time>2020-06-28T09:58:24Z</time>
      </trkpt>
      <trkpt lat="48.6854" lon="7.86857">
        <ele>128.8</ele>
        <time>2020-06-28T09:58:25Z</time>
      </trkpt>
      <trkpt lat="48.68536" lon="7.86854">
        <ele>128.8</ele>
        <time>2020-06-28T09:58:26Z</time>
      </trkpt>
      <trkpt lat="48.68531" lon="7.8685">
        <ele>128.9</ele>
        <time>2020-06-28T09:58:27Z</time>
      </trkpt>
      <trkpt lat="48.68526" lon="7.86847">
        <ele>128.9</ele>
        <time>2020-06-28T09:58:28Z</time>
      </trkpt>
      <trkpt lat="48.68522" lon="7.86844">
        <ele>128.9</ele>
        <time>2020-06-28T09:58:29Z</time>
      </trkpt>
      <trkpt lat="48.68518" lon="7.86841">
        <ele>129</ele>
        <time>2020-06-28T09:58:30Z</time>
      </trkpt>
      <trkpt lat="48.68514" lon="7.86838">
        <ele>129</ele>
        <time>2020-06-28T09:58:31Z</time>
      </trkpt>
      <trkpt lat="48.68509" lon="7.86834">
        <ele>129.1</ele>
        <time>2020-06-28T09:58:32Z</time>
      </trkpt>
      <trkpt lat="48.68504" lon="7.8683">
        <ele>129.1</ele>
        <time>2020-06-28T09:58:33Z</time>
      </trkpt>
      <trkpt lat="48.68499" lon="7.86824">
        <ele>129.2</ele>
        <time>2020-06-28T09:58:34Z</time>
      </trkpt>
      <trkpt lat="48.68494" lon="7.86819">
        <ele>129.3</ele>
        <time>2020-06-28T09:58:35Z</time>
      </trkpt>
      <trkpt lat="48.6849" lon="7.86813">
        <ele>129.4</ele>
        <time>2020-06-28T09:58:36Z</time>
      </trkpt>
      <trkpt lat="48.68485" lon="7.86808">
        <ele>129.5</ele>
        <time>2020-06-28T09:58:37Z</time>
      </trkpt>
      <trkpt lat="48.68481" lon="7.86804">
        <ele>129.6</ele>
        <time>2020-06-28T09:58:38Z</time>
      </trkpt>
      <trkpt lat="48.68477" lon="7.868">
        <ele>129.8</ele>
        <time>2020-06-28T09:58:39Z</time>
      </trkpt>
      <trkpt lat="48.68474" lon="7.86795">
        <ele>129.9</ele>
        <time>2020-06-28T09:58:40Z</time>
      </trkpt>
      <trkpt lat="48.6847" lon="7.86791">
        <ele>129.8</ele>
        <time>2020-06-28T09:58:41Z</time>
      </trkpt>
      <trkpt lat="48.68466" lon="7.86787">
        <ele>129.8</ele>
        <time>2020-06-28T09:58:42Z</time>
      </trkpt>
      <trkpt lat="48.68461" lon="7.86782">
        <ele>129.7</ele>
        <time>2020-06-28T09:58:43Z</time>
      </trkpt>
      <trkpt lat="48.68457" lon="7.86778">
        <ele>129.7</ele>
        <time>2020-06-28T09:58:44Z</time>
      </trkpt>
      <trkpt lat="48.68452" lon="7.86773">
        <ele>129.7</ele>
        <time>2020-06-28T09:58:45Z</time>
      </trkpt>
      <trkpt lat="48.68447" lon="7.86768">
        <ele>129.7</ele>
        <time>2020-06-28T09:58:46Z</time>
      </trkpt>
      <trkpt lat="48.68443" lon="7.86763">
        <ele>129.7</ele>
        <time>2020-06-28T09:58:47Z</time>
      </trkpt>
      <trkpt lat="48.68439" lon="7.86759">
        <ele>129.6</ele>
        <time>2020-06-28T09:58:48Z</time>
      </trkpt>
      <trkpt lat="48.68435" lon="7.86755">
        <ele>129.6</ele>
        <time>2020-06-28T09:58:49Z</time>
      </trkpt>
      <trkpt lat="48.6843" lon="7.8675">
        <ele>129.5</ele>
        <time>2020-06-28T09:58:50Z</time>
      </trkpt>
      <trkpt lat="48.68426" lon="7.86745">
        <ele>129.5</ele>
        <time>2020-06-28T09:58:51Z</time>
      </trkpt>
      <trkpt lat="48.68421" lon="7.8674">
        <ele>129.4</ele>
        <time>2020-06-28T09:58:52Z</time>
      </trkpt>
      <trkpt lat="48.68417" lon="7.86735">
        <ele>129.3</ele>
        <time>2020-06-28T09:58:53Z</time>
      </trkpt>
      <trkpt lat="48.68413" lon="7.86729">
        <ele>129.3</ele>
        <time>2020-06-28T09:58:54Z</time>
      </trkpt>
      <trkpt lat="48.68408" lon="7.86724">
        <ele>129.2</ele>
        <time>2020-06-28T09:58:55Z</time>
      </trkpt>
      <trkpt lat="48.68402" lon="7.86719">
        <ele>129.2</ele>
        <time>2020-06-28T09:58:56Z</time>
      </trkpt>
      <trkpt lat="48.68397" lon="7.86714">
        <ele>129.1</ele>
        <time>2020-06-28T09:58:57Z</time>
      </trkpt>
      <trkpt lat="48.68391" lon="7.86709">
        <ele>129.1</ele>
        <time>2020-06-28T09:58:58Z</time>
      </trkpt>
      <trkpt lat="48.68386" lon="7.86703">
        <ele>129.1</ele>
        <time>2020-06-28T09:58:59Z</time>
      </trkpt>
      <trkpt lat="48.68381" lon="7.86697">
        <ele>129.1</ele>
        <time>2020-06-28T09:59:00Z</time>
      </trkpt>
      <trkpt lat="48.68375" lon="7.86691">
        <ele>129.1</ele>
        <time>2020-06-28T09:59:01Z</time>
      </trkpt>
      <trkpt lat="48.6837" lon="7.86684">
        <ele>129.2</ele>
        <time>2020-06-28T09:59:02Z</time>
      </trkpt>
      <trkpt lat="48.68364" lon="7.86679">
        <ele>129.1</ele>
        <time>2020-06-28T09:59:03Z</time>
      </trkpt>
      <trkpt lat="48.68359" lon="7.86675">
        <ele>129.1</ele>
        <time>2020-06-28T09:59:04Z</time>
      </trkpt>
      <trkpt lat="48.68354" lon="7.8667">
        <ele>129.1</ele>
        <time>2020-06-28T09:59:05Z</time>
      </trkpt>
      <trkpt lat="48.6835" lon="7.86664">
        <ele>129.1</ele>
        <time>2020-06-28T09:59:06Z</time>
      </trkpt>
      <trkpt lat="48.68345" lon="7.86659">
        <ele>129</ele>
        <time>2020-06-28T09:59:07Z</time>
      </trkpt>
      <trkpt lat="48.68341" lon="7.86654">
        <ele>129</ele>
        <time>2020-06-28T09:59:08Z</time>
      </trkpt>
      <trkpt lat="48.68337" lon="7.86649">
        <ele>129</ele>
        <time>2020-06-28T09:59:09Z</time>
      </trkpt>
      <trkpt lat="48.68333" lon="7.86645">
        <ele>129</ele>
        <time>2020-06-28T09:59:10Z</time>
      </trkpt>
      <trkpt lat="48.68329" lon="7.8664">
        <ele>129</ele>
        <time>2020-06-28T09:59:11Z</time>
      </trkpt>
      <trkpt lat="48.68325" lon="7.86634">
        <ele>129</ele>
        <time>2020-06-28T09:59:12Z</time>
      </trkpt>
      <trkpt lat="48.68321" lon="7.86629">
        <ele>129</ele>
        <time>2020-06-28T09:59:13Z</time>
      </trkpt>
      <trkpt lat="48.68315" lon="7.86623">
        <ele>128.9</ele>
        <time>2020-06-28T09:59:14Z</time>
      </trkpt>
      <trkpt lat="48.6831" lon="7.86617">
        <ele>128.9</ele>
        <time>2020-06-28T09:59:15Z</time>
      </trkpt>
      <trkpt lat="48.68305" lon="7.86612">
        <ele>128.8</ele>
        <time>2020-06-28T09:59:16Z</time>
      </trkpt>
      <trkpt lat="48.683" lon="7.86607">
        <ele>128.7</ele>
        <time>2020-06-28T09:59:17Z</time>
      </trkpt>
      <trkpt lat="48.68296" lon="7.86601">
        <ele>128.7</ele>
        <time>2020-06-28T09:59:18Z</time>
      </trkpt>
      <trkpt lat="48.68292" lon="7.86596">
        <ele>128.7</ele>
        <time>2020-06-28T09:59:19Z</time>
      </trkpt>
      <trkpt lat="48.68288" lon="7.8659">
        <ele>128.7</ele>
        <time>2020-06-28T09:59:20Z</time>
      </trkpt>
      <trkpt lat="48.68283" lon="7.86585">
        <ele>128.7</ele>
        <time>2020-06-28T09:59:21Z</time>
      </trkpt>
      <trkpt lat="48.68278" lon="7.86579">
        <ele>128.6</ele>
        <time>2020-06-28T09:59:22Z</time>
      </trkpt>
      <trkpt lat="48.68274" lon="7.86572">
        <ele>128.6</ele>
        <time>2020-06-28T09:59:23Z</time>
      </trkpt>
      <trkpt lat="48.68269" lon="7.86565">
        <ele>128.6</ele>
        <time>2020-06-28T09:59:24Z</time>
      </trkpt>
      <trkpt lat="48.68265" lon="7.86559">
        <ele>128.6</ele>
        <time>2020-06-28T09:59:25Z</time>
      </trkpt>
      <trkpt lat="48.68261" lon="7.86553">
        <ele>128.7</ele>
        <time>2020-06-28T09:59:26Z</time>
      </trkpt>
      <trkpt lat="48.68257" lon="7.86547">
        <ele>128.7</ele>
        <time>2020-06-28T09:59:27Z</time>
      </trkpt>
      <trkpt lat="48.68252" lon="7.8654">
        <ele>128.7</ele>
        <time>2020-06-28T09:59:28Z</time>
      </trkpt>
      <trkpt lat="48.68247" lon="7.86534">
        <ele>128.7</ele>
        <time>2020-06-28T09:59:29Z</time>
      </trkpt>
      <trkpt lat="48.68243" lon="7.86527">
        <ele>128.8</ele>
        <time>2020-06-28T09:59:30Z</time>
      </trkpt>
      <trkpt lat="48.68239" lon="7.8652">
        <ele>128.8</ele>
        <time>2020-06-28T09:59:31Z</time>
      </trkpt>
      <trkpt lat="48.68235" lon="7.86514">
        <ele>128.8</ele>
        <time>2020-06-28T09:59:32Z</time>
      </trkpt>
      <trkpt lat="48.6823" lon="7.86509">
        <ele>128.8</ele>
        <time>2020-06-28T09:59:33Z</time>
      </trkpt>
      <trkpt lat="48.68226" lon="7.86503">
        <ele>128.9</ele>
        <time>2020-06-28T09:59:34Z</time>
      </trkpt>
      <trkpt lat="48.68222" lon="7.86496">
        <ele>128.9</ele>
        <time>2020-06-28T09:59:35Z</time>
      </trkpt>
      <trkpt lat="48.68217" lon="7.8649">
        <ele>128.9</ele>
        <time>2020-06-28T09:59:36Z</time>
      </trkpt>
      <trkpt lat="48.68213" lon="7.86483">
        <ele>128.9</ele>
        <time>2020-06-28T09:59:37Z</time>
      </trkpt>
      <trkpt lat="48.68208" lon="7.86475">
        <ele>128.9</ele>
        <time>2020-06-28T09:59:38Z</time>
      </trkpt>
      <trkpt lat="48.68203" lon="7.86469">
        <ele>128.9</ele>
        <time>2020-06-28T09:59:39Z</time>
      </trkpt>
      <trkpt lat="48.68198" lon="7.86461">
        <ele>128.9</ele>
        <time>2020-06-28T09:59:40Z</time>
      </trkpt>
      <trkpt lat="48.68194" lon="7.86455">
        <ele>128.9</ele>
        <time>2020-06-28T09:59:41Z</time>
      </trkpt>
      <trkpt lat="48.6819" lon="7.86449">
        <ele>128.9</ele>
        <time>2020-06-28T09:59:42Z</time>
      </trkpt>
      <trkpt lat="48.68186" lon="7.86442">
        <ele>128.9</ele>
        <time>2020-06-28T09:59:43Z</time>
      </trkpt>
      <trkpt lat="48.68182" lon="7.86435">
        <ele>128.9</ele>
        <time>2020-06-28T09:59:44Z</time>
      </trkpt>
      <trkpt lat="48.68177" lon="7.86428">
        <ele>128.9</ele>
        <time>2020-06-28T09:59:45Z</time>
      </trkpt>
      <trkpt lat="48.68173" lon="7.8642">
        <ele>129</ele>
        <time>2020-06-28T09:59:46Z</time>
      </trkpt>
      <trkpt lat="48.68168" lon="7.86414">
        <ele>129.1</ele>
        <time>2020-06-28T09:59:47Z</time>
      </trkpt>
      <trkpt lat="48.68164" lon="7.86407">
        <ele>129.2</ele>
        <time>2020-06-28T09:59:48Z</time>
      </trkpt>
      <trkpt lat="48.68159" lon="7.864">
        <ele>129.3</ele>
        <time>2020-06-28T09:59:49Z</time>
      </trkpt>
      <trkpt lat="48.68154" lon="7.86391">
        <ele>129.3</ele>
        <time>2020-06-28T09:59:50Z</time>
      </trkpt>
      <trkpt lat="48.68149" lon="7.86384">
        <ele>129.4</ele>
        <time>2020-06-28T09:59:51Z</time>
      </trkpt>
      <trkpt lat="48.68145" lon="7.86377">
        <ele>129.4</ele>
        <time>2020-06-28T09:59:52Z</time>
      </trkpt>
      <trkpt lat="48.68141" lon="7.8637">
        <ele>129.4</ele>
        <time>2020-06-28T09:59:53Z</time>
      </trkpt>
      <trkpt lat="48.68137" lon="7.86364">
        <ele>129.4</ele>
        <time>2020-06-28T09:59:54Z</time>
      </trkpt>
      <trkpt lat="48.68132" lon="7.86355">
        <ele>129.4</ele>
        <time>2020-06-28T09:59:55Z</time>
      </trkpt>
      <trkpt lat="48.68127" lon="7.86348">
        <ele>129.4</ele>
        <time>2020-06-28T09:59:56Z</time>
      </trkpt>
      <trkpt lat="48.68123" lon="7.86341">
        <ele>129.5</ele>
        <time>2020-06-28T09:59:57Z</time>
      </trkpt>
      <trkpt lat="48.68118" lon="7.86334">
        <ele>129.5</ele>
        <time>2020-06-28T09:59:58Z</time>
      </trkpt>
      <trkpt lat="48.68114" lon="7.86327">
        <ele>129.5</ele>
        <time>2020-06-28T09:59:59Z</time>
      </trkpt>
      <trkpt lat="48.68109" lon="7.86321">
        <ele>129.5</ele>
        <time>2020-06-28T10:00:00Z</time>
      </trkpt>
      <trkpt lat="48.68104" lon="7.86315">
        <ele>129.5</ele>
        <time>2020-06-28T10:00:01Z</time>
      </trkpt>
      <trkpt lat="48.681" lon="7.86309">
        <ele>129.5</ele>
        <time>2020-06-28T10:00:02Z</time>
      </trkpt>
      <trkpt lat="48.68095" lon="7.86303">
        <ele>129.5</ele>
        <time>2020-06-28T10:00:03Z</time>
      </trkpt>
      <trkpt lat="48.68092" lon="7.86295">
        <ele>129.5</ele>
        <time>2020-06-28T10:00:04Z</time>
      </trkpt>
      <trkpt lat="48.68088" lon="7.8629">
        <ele>129.5</ele>
        <time>2020-06-28T10:00:05Z</time>
      </trkpt>
      <trkpt lat="48.68084" lon="7.86285">
        <ele>129.6</ele>
        <time>2020-06-28T10:00:06Z</time>
      </trkpt>
      <trkpt lat="48.6808" lon="7.8628">
        <ele>129.6</ele>
        <time>2020-06-28T10:00:07Z</time>
      </trkpt>
      <trkpt lat="48.68075" lon="7.86274">
        <ele>129.6</ele>
        <time>2020-06-28T10:00:08Z</time>
      </trkpt>
      <trkpt lat="48.68071" lon="7.86267">
        <ele>129.6</ele>
        <time>2020-06-28T10:00:09Z</time>
      </trkpt>
      <trkpt lat="48.68067" lon="7.86262">
        <ele>129.6</ele>
        <time>2020-06-28T10:00:10Z</time>
      </trkpt>
      <trkpt lat="48.68063" lon="7.86255">
        <ele>129.6</ele>
        <time>2020-06-28T10:00:11Z</time>
      </trkpt>
      <trkpt lat="48.68058" lon="7.86248">
        <ele>129.6</ele>
        <time>2020-06-28T10:00:12Z</time>
      </trkpt>
      <trkpt lat="48.68054" lon="7.86241">
        <ele>129.6</ele>
        <time>2020-06-28T10:00:13Z</time>
      </trkpt>
      <trkpt lat="48.6805" lon="7.86235">
        <ele>129.6</ele>
        <time>2020-06-28T10:00:14Z</time>
      </trkpt>
      <trkpt lat="48.68045" lon="7.86225">
        <ele>129.6</ele>
        <time>2020-06-28T10:00:15Z</time>
      </trkpt>
      <trkpt lat="48.6804" lon="7.86218">
        <ele>129.7</ele>
        <time>2020-06-28T10:00:16Z</time>
      </trkpt>
      <trkpt lat="48.68036" lon="7.86211">
        <ele>129.7</ele>
        <time>2020-06-28T10:00:17Z</time>
      </trkpt>
      <trkpt lat="48.68031" lon="7.86205">
        <ele>129.7</ele>
        <time>2020-06-28T10:00:18Z</time>
      </trkpt>
      <trkpt lat="48.68027" lon="7.86198">
        <ele>129.7</ele>
        <time>2020-06-28T10:00:19Z</time>
      </trkpt>
      <trkpt lat="48.68024" lon="7.86191">
        <ele>129.7</ele>
        <time>2020-06-28T10:00:20Z</time>
      </trkpt>
      <trkpt lat="48.68019" lon="7.86185">
        <ele>129.6</ele>
        <time>2020-06-28T10:00:21Z</time>
      </trkpt>
      <trkpt lat="48.68016" lon="7.8618">
        <ele>129.6</ele>
        <time>2020-06-28T10:00:22Z</time>
      </trkpt>
      <trkpt lat="48.68012" lon="7.86174">
        <ele>129.6</ele>
        <time>2020-06-28T10:00:23Z</time>
      </trkpt>
      <trkpt lat="48.68008" lon="7.86169">
        <ele>129.6</ele>
        <time>2020-06-28T10:00:24Z</time>
      </trkpt>
      <trkpt lat="48.68004" lon="7.86163">
        <ele>129.6</ele>
        <time>2020-06-28T10:00:25Z</time>
      </trkpt>
      <trkpt lat="48.68" lon="7.86157">
        <ele>129.6</ele>
        <time>2020-06-28T10:00:26Z</time>
      </trkpt>
      <trkpt lat="48.67996" lon="7.8615">
        <ele>129.6</ele>
        <time>2020-06-28T10:00:27Z</time>
      </trkpt>
      <trkpt lat="48.67992" lon="7.86144">
        <ele>129.7</ele>
        <time>2020-06-28T10:00:28Z</time>
      </trkpt>
      <trkpt lat="48.67987" lon="7.86138">
        <ele>129.7</ele>
        <time>2020-06-28T10:00:29Z</time>
      </trkpt>
      <trkpt lat="48.67984" lon="7.86133">
        <ele>129.7</ele>
        <time>2020-06-28T10:00:30Z</time>
      </trkpt>
      <trkpt lat="48.67979" lon="7.86126">
        <ele>129.7</ele>
        <time>2020-06-28T10:00:31Z</time>
      </trkpt>
      <trkpt lat="48.67975" lon="7.86121">
        <ele>129.7</ele>
        <time>2020-06-28T10:00:32Z</time>
      </trkpt>
      <trkpt lat="48.67971" lon="7.86115">
        <ele>129.8</ele>
        <time>2020-06-28T10:00:33Z</time>
      </trkpt>
      <trkpt lat="48.67968" lon="7.8611">
        <ele>129.8</ele>
        <time>2020-06-28T10:00:34Z</time>
      </trkpt>
      <trkpt lat="48.67965" lon="7.86105">
        <ele>129.8</ele>
        <time>2020-06-28T10:00:35Z</time>
      </trkpt>
      <trkpt lat="48.67962" lon="7.86099">
        <ele>129.8</ele>
        <time>2020-06-28T10:00:36Z</time>
      </trkpt>
      <trkpt lat="48.67959" lon="7.86093">
        <ele>129.9</ele>
        <time>2020-06-28T10:00:37Z</time>
      </trkpt>
      <trkpt lat="48.67957" lon="7.8609">
        <ele>129.9</ele>
        <time>2020-06-28T10:00:38Z</time>
      </trkpt>
      <trkpt lat="48.67955" lon="7.86086">
        <ele>129.9</ele>
        <time>2020-06-28T10:00:39Z</time>
      </trkpt>
      <trkpt lat="48.67952" lon="7.86082">
        <ele>129.9</ele>
        <time>2020-06-28T10:00:40Z</time>
      </trkpt>
      <trkpt lat="48.6795" lon="7.86076">
        <ele>130</ele>
        <time>2020-06-28T10:00:41Z</time>
      </trkpt>
      <trkpt lat="48.67947" lon="7.86071">
        <ele>130</ele>
        <time>2020-06-28T10:00:42Z</time>
      </trkpt>
      <trkpt lat="48.67945" lon="7.86066">
        <ele>130</ele>
        <time>2020-06-28T10:00:43Z</time>
      </trkpt>
      <trkpt lat="48.67943" lon="7.86062">
        <ele>130</ele>
        <time>2020-06-28T10:00:44Z</time>
      </trkpt>
      <trkpt lat="48.67941" lon="7.86057">
        <ele>130</ele>
        <time>2020-06-28T10:00:45Z</time>
      </trkpt>
      <trkpt lat="48.67938" lon="7.86052">
        <ele>130</ele>
        <time>2020-06-28T10:00:46Z</time>
      </trkpt>
      <trkpt lat="48.67936" lon="7.86048">
        <ele>129.9</ele>
        <time>2020-06-28T10:00:47Z</time>
      </trkpt>
      <trkpt lat="48.67933" lon="7.86042">
        <ele>129.9</ele>
        <time>2020-06-28T10:00:48Z</time>
      </trkpt>
      <trkpt lat="48.67931" lon="7.86035">
        <ele>129.9</ele>
        <time>2020-06-28T10:00:49Z</time>
      </trkpt>
      <trkpt lat="48.67929" lon="7.8603">
        <ele>129.9</ele>
        <time>2020-06-28T10:00:50Z</time>
      </trkpt>
      <trkpt lat="48.67927" lon="7.86025">
        <ele>129.9</ele>
        <time>2020-06-28T10:00:51Z</time>
      </trkpt>
      <trkpt lat="48.67925" lon="7.86018">
        <ele>129.8</ele>
        <time>2020-06-28T10:00:52Z</time>
      </trkpt>
      <trkpt lat="48.67923" lon="7.86009">
        <ele>129.8</ele>
        <time>2020-06-28T10:00:53Z</time>
      </trkpt>
      <trkpt lat="48.67921" lon="7.86002">
        <ele>129.8</ele>
        <time>2020-06-28T10:00:54Z</time>
      </trkpt>
      <trkpt lat="48.67919" lon="7.85995">
        <ele>129.8</ele>
        <time>2020-06-28T10:00:55Z</time>
      </trkpt>
      <trkpt lat="48.67917" lon="7.85989">
        <ele>129.8</ele>
        <time>2020-06-28T10:00:56Z</time>
      </trkpt>
      <trkpt lat="48.67916" lon="7.85983">
        <ele>129.7</ele>
        <time>2020-06-28T10:00:57Z</time>
      </trkpt>
      <trkpt lat="48.67913" lon="7.85977">
        <ele>129.7</ele>
        <time>2020-06-28T10:00:58Z</time>
      </trkpt>
      <trkpt lat="48.67911" lon="7.8597">
        <ele>129.7</ele>
        <time>2020-06-28T10:00:59Z</time>
      </trkpt>
      <trkpt lat="48.67908" lon="7.85962">
        <ele>129.7</ele>
        <time>2020-06-28T10:01:00Z</time>
      </trkpt>
      <trkpt lat="48.67905" lon="7.85955">
        <ele>129.7</ele>
        <time>2020-06-28T10:01:01Z</time>
      </trkpt>
      <trkpt lat="48.67904" lon="7.85947">
        <ele>129.7</ele>
        <time>2020-06-28T10:01:02Z</time>
      </trkpt>
      <trkpt lat="48.67901" lon="7.85939">
        <ele>129.8</ele>
        <time>2020-06-28T10:01:03Z</time>
      </trkpt>
      <trkpt lat="48.67899" lon="7.85931">
        <ele>129.8</ele>
        <time>2020-06-28T10:01:04Z</time>
      </trkpt>
      <trkpt lat="48.67896" lon="7.85923">
        <ele>129.8</ele>
        <time>2020-06-28T10:01:05Z</time>
      </trkpt>
      <trkpt lat="48.67895" lon="7.85916">
        <ele>129.8</ele>
        <time>2020-06-28T10:01:06Z</time>
      </trkpt>
      <trkpt lat="48.67893" lon="7.8591">
        <ele>129.8</ele>
        <time>2020-06-28T10:01:07Z</time>
      </trkpt>
      <trkpt lat="48.67891" lon="7.85902">
        <ele>129.7</ele>
        <time>2020-06-28T10:01:08Z</time>
      </trkpt>
      <trkpt lat="48.67889" lon="7.85895">
        <ele>129.7</ele>
        <time>2020-06-28T10:01:09Z</time>
      </trkpt>
      <trkpt lat="48.67887" lon="7.85885">
        <ele>129.7</ele>
        <time>2020-06-28T10:01:10Z</time>
      </trkpt>
      <trkpt lat="48.67885" lon="7.85876">
        <ele>129.7</ele>
        <time>2020-06-28T10:01:11Z</time>
      </trkpt>
      <trkpt lat="48.67882" lon="7.85867">
        <ele>129.8</ele>
        <time>2020-06-28T10:01:12Z</time>
      </trkpt>
      <trkpt lat="48.6788" lon="7.85859">
        <ele>129.8</ele>
        <time>2020-06-28T10:01:13Z</time>
      </trkpt>
      <trkpt lat="48.67878" lon="7.85851">
        <ele>129.9</ele>
        <time>2020-06-28T10:01:14Z</time>
      </trkpt>
      <trkpt lat="48.67876" lon="7.85841">
        <ele>129.9</ele>
        <time>2020-06-28T10:01:15Z</time>
      </trkpt>
      <trkpt lat="48.67873" lon="7.85833">
        <ele>129.8</ele>
        <time>2020-06-28T10:01:16Z</time>
      </trkpt>
      <trkpt lat="48.6787" lon="7.85826">
        <ele>129.8</ele>
        <time>2020-06-28T10:01:17Z</time>
      </trkpt>
      <trkpt lat="48.67868" lon="7.85818">
        <ele>129.7</ele>
        <time>2020-06-28T10:01:18Z</time>
      </trkpt>
      <trkpt lat="48.67865" lon="7.85812">
        <ele>129.7</ele>
        <time>2020-06-28T10:01:19Z</time>
      </trkpt>
      <trkpt lat="48.67863" lon="7.85804">
        <ele>129.6</ele>
        <time>2020-06-28T10:01:20Z</time>
      </trkpt>
      <trkpt lat="48.6786" lon="7.85797">
        <ele>129.6</ele>
        <time>2020-06-28T10:01:21Z</time>
      </trkpt>
      <trkpt lat="48.67857" lon="7.85788">
        <ele>129.5</ele>
        <time>2020-06-28T10:01:22Z</time>
      </trkpt>
      <trkpt lat="48.67855" lon="7.85781">
        <ele>129.5</ele>
        <time>2020-06-28T10:01:23Z</time>
      </trkpt>
      <trkpt lat="48.67853" lon="7.85772">
        <ele>129.4</ele>
        <time>2020-06-28T10:01:24Z</time>
      </trkpt>
      <trkpt lat="48.67851" lon="7.85764">
        <ele>129.4</ele>
        <time>2020-06-28T10:01:25Z</time>
      </trkpt>
      <trkpt lat="48.67849" lon="7.85756">
        <ele>129.4</ele>
        <time>2020-06-28T10:01:26Z</time>
      </trkpt>
      <trkpt lat="48.67846" lon="7.85747">
        <ele>129.4</ele>
        <time>2020-06-28T10:01:27Z</time>
      </trkpt>
      <trkpt lat="48.67843" lon="7.85738">
        <ele>129.3</ele>
        <time>2020-06-28T10:01:28Z</time>
      </trkpt>
      <trkpt lat="48.6784" lon="7.85729">
        <ele>129.3</ele>
        <time>2020-06-28T10:01:29Z</time>
      </trkpt>
      <trkpt lat="48.67838" lon="7.85719">
        <ele>129.2</ele>
        <time>2020-06-28T10:01:30Z</time>
      </trkpt>
      <trkpt lat="48.67836" lon="7.85712">
        <ele>129.2</ele>
        <time>2020-06-28T10:01:31Z</time>
      </trkpt>
      <trkpt lat="48.67835" lon="7.85704">
        <ele>129.2</ele>
        <time>2020-06-28T10:01:32Z</time>
      </trkpt>
      <trkpt lat="48.67834" lon="7.85696">
        <ele>129.2</ele>
        <time>2020-06-28T10:01:33Z</time>
      </trkpt>
      <trkpt lat="48.67833" lon="7.85689">
        <ele>129.2</ele>
        <time>2020-06-28T10:01:34Z</time>
      </trkpt>
      <trkpt lat="48.67834" lon="7.85681">
        <ele>129.1</ele>
        <time>2020-06-28T10:01:35Z</time>
      </trkpt>
      <trkpt lat="48.67835" lon="7.85673">
        <ele>129.1</ele>
        <time>2020-06-28T10:01:36Z</time>
      </trkpt>
      <trkpt lat="48.67835" lon="7.85662">
        <ele>129.1</ele>
        <time>2020-06-28T10:01:37Z</time>
      </trkpt>
      <trkpt lat="48.67836" lon="7.85654">
        <ele>129.1</ele>
        <time>2020-06-28T10:01:38Z</time>
      </trkpt>
      <trkpt lat="48.67838" lon="7.85645">
        <ele>129.2</ele>
        <time>2020-06-28T10:01:39Z</time>
      </trkpt>
      <trkpt lat="48.6784" lon="7.85636">
        <ele>129.3</ele>
        <time>2020-06-28T10:01:40Z</time>
      </trkpt>
      <trkpt lat="48.67843" lon="7.85628">
        <ele>129.4</ele>
        <time>2020-06-28T10:01:41Z</time>
      </trkpt>
      <trkpt lat="48.67846" lon="7.85621">
        <ele>129.5</ele>
        <time>2020-06-28T10:01:42Z</time>
      </trkpt>
      <trkpt lat="48.67851" lon="7.85614">
        <ele>129.5</ele>
        <time>2020-06-28T10:01:43Z</time>
      </trkpt>
      <trkpt lat="48.67854" lon="7.8561">
        <ele>129.5</ele>
        <time>2020-06-28T10:01:44Z</time>
      </trkpt>
      <trkpt lat="48.67859" lon="7.85605">
        <ele>129.5</ele>
        <time>2020-06-28T10:01:45Z</time>
      </trkpt>
      <trkpt lat="48.67864" lon="7.85601">
        <ele>129.6</ele>
        <time>2020-06-28T10:01:46Z</time>
      </trkpt>
      <trkpt lat="48.67869" lon="7.85595">
        <ele>129.6</ele>
        <time>2020-06-28T10:01:47Z</time>
      </trkpt>
      <trkpt lat="48.67874" lon="7.85589">
        <ele>129.6</ele>
        <time>2020-06-28T10:01:48Z</time>
      </trkpt>
      <trkpt lat="48.67879" lon="7.85583">
        <ele>129.6</ele>
        <time>2020-06-28T10:01:49Z</time>
      </trkpt>
      <trkpt lat="48.67884" lon="7.85577">
        <ele>129.6</ele>
        <time>2020-06-28T10:01:50Z</time>
      </trkpt>
      <trkpt lat="48.67889" lon="7.85571">
        <ele>129.6</ele>
        <time>2020-06-28T10:01:51Z</time>
      </trkpt>
      <trkpt lat="48.67894" lon="7.85565">
        <ele>129.6</ele>
        <time>2020-06-28T10:01:52Z</time>
      </trkpt>
      <trkpt lat="48.67899" lon="7.85558">
        <ele>129.7</ele>
        <time>2020-06-28T10:01:53Z</time>
      </trkpt>
      <trkpt lat="48.67904" lon="7.85553">
        <ele>129.7</ele>
        <time>2020-06-28T10:01:54Z</time>
      </trkpt>
      <trkpt lat="48.67909" lon="7.85546">
        <ele>129.8</ele>
        <time>2020-06-28T10:01:55Z</time>
      </trkpt>
      <trkpt lat="48.67914" lon="7.85541">
        <ele>129.8</ele>
        <time>2020-06-28T10:01:56Z</time>
      </trkpt>
      <trkpt lat="48.67919" lon="7.85534">
        <ele>129.8</ele>
        <time>2020-06-28T10:01:57Z</time>
      </trkpt>
      <trkpt lat="48.67924" lon="7.85528">
        <ele>129.9</ele>
        <time>2020-06-28T10:01:58Z</time>
      </trkpt>
      <trkpt lat="48.67928" lon="7.85523">
        <ele>129.9</ele>
        <time>2020-06-28T10:01:59Z</time>
      </trkpt>
      <trkpt lat="48.67932" lon="7.85518">
        <ele>129.9</ele>
        <time>2020-06-28T10:02:00Z</time>
      </trkpt>
      <trkpt lat="48.67936" lon="7.85513">
        <ele>129.9</ele>
        <time>2020-06-28T10:02:01Z</time>
      </trkpt>
      <trkpt lat="48.67939" lon="7.85509">
        <ele>130</ele>
        <time>2020-06-28T10:02:02Z</time>
      </trkpt>
      <trkpt lat="48.67942" lon="7.85505">
        <ele>130</ele>
        <time>2020-06-28T10:02:03Z</time>
      </trkpt>
      <trkpt lat="48.67944" lon="7.85503">
        <ele>130</ele>
        <time>2020-06-28T10:02:04Z</time>
      </trkpt>
      <trkpt lat="48.67947" lon="7.85498">
        <ele>129.9</ele>
        <time>2020-06-28T10:02:05Z</time>
      </trkpt>
      <trkpt lat="48.67949" lon="7.85493">
        <ele>129.9</ele>
        <time>2020-06-28T10:02:06Z</time>
      </trkpt>
      <trkpt lat="48.67952" lon="7.85488">
        <ele>129.8</ele>
        <time>2020-06-28T10:02:07Z</time>
      </trkpt>
      <trkpt lat="48.67954" lon="7.85484">
        <ele>129.7</ele>
        <time>2020-06-28T10:02:08Z</time>
      </trkpt>
      <trkpt lat="48.67956" lon="7.8548">
        <ele>129.5</ele>
        <time>2020-06-28T10:02:09Z</time>
      </trkpt>
      <trkpt lat="48.67958" lon="7.85475">
        <ele>129.4</ele>
        <time>2020-06-28T10:02:10Z</time>
      </trkpt>
      <trkpt lat="48.67959" lon="7.85469">
        <ele>129.4</ele>
        <time>2020-06-28T10:02:11Z</time>
      </trkpt>
      <trkpt lat="48.67958" lon="7.85464">
        <ele>129.4</ele>
        <time>2020-06-28T10:02:12Z</time>
      </trkpt>
      <trkpt lat="48.67955" lon="7.85458">
        <ele>129.4</ele>
        <time>2020-06-28T10:02:13Z</time>
      </trkpt>
      <trkpt lat="48.67953" lon="7.85453">
        <ele>129.4</ele>
        <time>2020-06-28T10:02:14Z</time>
      </trkpt>
      <trkpt lat="48.67951" lon="7.85448">
        <ele>129.4</ele>
        <time>2020-06-28T10:02:15Z</time>
      </trkpt>
      <trkpt lat="48.67948" lon="7.85444">
        <ele>129.4</ele>
        <time>2020-06-28T10:02:16Z</time>
      </trkpt>
      <trkpt lat="48.67946" lon="7.85439">
        <ele>129.5</ele>
        <time>2020-06-28T10:02:17Z</time>
      </trkpt>
      <trkpt lat="48.67943" lon="7.85435">
        <ele>129.5</ele>
        <time>2020-06-28T10:02:18Z</time>
      </trkpt>
      <trkpt lat="48.6794" lon="7.85428">
        <ele>129.5</ele>
        <time>2020-06-28T10:02:19Z</time>
      </trkpt>
      <trkpt lat="48.67937" lon="7.85424">
        <ele>129.4</ele>
        <time>2020-06-28T10:02:20Z</time>
      </trkpt>
      <trkpt lat="48.67933" lon="7.85419">
        <ele>129.4</ele>
        <time>2020-06-28T10:02:21Z</time>
      </trkpt>
      <trkpt lat="48.6793" lon="7.85414">
        <ele>129.4</ele>
        <time>2020-06-28T10:02:22Z</time>
      </trkpt>
      <trkpt lat="48.67927" lon="7.85409">
        <ele>129.4</ele>
        <time>2020-06-28T10:02:23Z</time>
      </trkpt>
      <trkpt lat="48.67923" lon="7.85404">
        <ele>129.4</ele>
        <time>2020-06-28T10:02:24Z</time>
      </trkpt>
      <trkpt lat="48.6792" lon="7.85398">
        <ele>129.5</ele>
        <time>2020-06-28T10:02:25Z</time>
      </trkpt>
      <trkpt lat="48.67916" lon="7.85391">
        <ele>129.5</ele>
        <time>2020-06-28T10:02:26Z</time>
      </trkpt>
      <trkpt lat="48.67914" lon="7.85388">
        <ele>129.5</ele>
        <time>2020-06-28T10:02:27Z</time>
      </trkpt>
      <trkpt lat="48.67911" lon="7.85381">
        <ele>129.5</ele>
        <time>2020-06-28T10:02:28Z</time>
      </trkpt>
      <trkpt lat="48.67907" lon="7.85376">
        <ele>129.5</ele>
        <time>2020-06-28T10:02:29Z</time>
      </trkpt>
      <trkpt lat="48.67904" lon="7.8537">
        <ele>129.6</ele>
        <time>2020-06-28T10:02:30Z</time>
      </trkpt>
      <trkpt lat="48.67901" lon="7.85364">
        <ele>129.6</ele>
        <time>2020-06-28T10:02:31Z</time>
      </trkpt>
      <trkpt lat="48.67897" lon="7.85358">
        <ele>129.6</ele>
        <time>2020-06-28T10:02:32Z</time>
      </trkpt>
      <trkpt lat="48.67894" lon="7.85353">
        <ele>129.6</ele>
        <time>2020-06-28T10:02:33Z</time>
      </trkpt>
      <trkpt lat="48.6789" lon="7.85347">
        <ele>129.7</ele>
        <time>2020-06-28T10:02:34Z</time>
      </trkpt>
      <trkpt lat="48.67886" lon="7.85341">
        <ele>129.7</ele>
        <time>2020-06-28T10:02:35Z</time>
      </trkpt>
      <trkpt lat="48.67883" lon="7.85335">
        <ele>129.7</ele>
        <time>2020-06-28T10:02:36Z</time>
      </trkpt>
      <trkpt lat="48.67879" lon="7.85328">
        <ele>129.7</ele>
        <time>2020-06-28T10:02:37Z</time>
      </trkpt>
      <trkpt lat="48.67875" lon="7.85322">
        <ele>129.8</ele>
        <time>2020-06-28T10:02:38Z</time>
      </trkpt>
      <trkpt lat="48.67873" lon="7.85317">
        <ele>129.8</ele>
        <time>2020-06-28T10:02:39Z</time>
      </trkpt>
      <trkpt lat="48.6787" lon="7.85313">
        <ele>129.8</ele>
        <time>2020-06-28T10:02:40Z</time>
      </trkpt>
      <trkpt lat="48.67867" lon="7.85308">
        <ele>129.8</ele>
        <time>2020-06-28T10:02:41Z</time>
      </trkpt>
      <trkpt lat="48.67865" lon="7.85303">
        <ele>129.8</ele>
        <time>2020-06-28T10:02:42Z</time>
      </trkpt>
      <trkpt lat="48.67862" lon="7.85297">
        <ele>129.8</ele>
        <time>2020-06-28T10:02:43Z</time>
      </trkpt>
      <trkpt lat="48.67861" lon="7.85293">
        <ele>129.8</ele>
        <time>2020-06-28T10:02:44Z</time>
      </trkpt>
      <trkpt lat="48.67858" lon="7.85287">
        <ele>129.9</ele>
        <time>2020-06-28T10:02:45Z</time>
      </trkpt>
      <trkpt lat="48.67856" lon="7.8528">
        <ele>129.9</ele>
        <time>2020-06-28T10:02:46Z</time>
      </trkpt>
      <trkpt lat="48.67854" lon="7.85272">
        <ele>130</ele>
        <time>2020-06-28T10:02:47Z</time>
      </trkpt>
      <trkpt lat="48.67851" lon="7.85266">
        <ele>130</ele>
        <time>2020-06-28T10:02:48Z</time>
      </trkpt>
      <trkpt lat="48.67849" lon="7.8526">
        <ele>130</ele>
        <time>2020-06-28T10:02:49Z</time>
      </trkpt>
      <trkpt lat="48.67846" lon="7.85253">
        <ele>130</ele>
        <time>2020-06-28T10:02:50Z</time>
      </trkpt>
      <trkpt lat="48.67843" lon="7.85246">
        <ele>129.9</ele>
        <time>2020-06-28T10:02:51Z</time>
      </trkpt>
      <trkpt lat="48.67841" lon="7.85239">
        <ele>129.9</ele>
        <time>2020-06-28T10:02:52Z</time>
      </trkpt>
      <trkpt lat="48.67839" lon="7.85232">
        <ele>129.8</ele>
        <time>2020-06-28T10:02:53Z</time>
      </trkpt>
      <trkpt lat="48.67836" lon="7.85226">
        <ele>129.8</ele>
        <time>2020-06-28T10:02:54Z</time>
      </trkpt>
      <trkpt lat="48.67834" lon="7.85218">
        <ele>129.8</ele>
        <time>2020-06-28T10:02:55Z</time>
      </trkpt>
      <trkpt lat="48.67832" lon="7.8521">
        <ele>129.7</ele>
        <time>2020-06-28T10:02:56Z</time>
      </trkpt>
      <trkpt lat="48.6783" lon="7.85202">
        <ele>129.7</ele>
        <time>2020-06-28T10:02:57Z</time>
      </trkpt>
      <trkpt lat="48.67828" lon="7.85193">
        <ele>129.6</ele>
        <time>2020-06-28T10:02:58Z</time>
      </trkpt>
      <trkpt lat="48.67827" lon="7.85186">
        <ele>129.6</ele>
        <time>2020-06-28T10:02:59Z</time>
      </trkpt>
      <trkpt lat="48.67826" lon="7.85178">
        <ele>129.6</ele>
        <time>2020-06-28T10:03:00Z</time>
      </trkpt>
      <trkpt lat="48.67825" lon="7.85172">
        <ele>129.6</ele>
        <time>2020-06-28T10:03:01Z</time>
      </trkpt>
      <trkpt lat="48.67824" lon="7.85163">
        <ele>129.6</ele>
        <time>2020-06-28T10:03:02Z</time>
      </trkpt>
      <trkpt lat="48.67822" lon="7.85156">
        <ele>129.6</ele>
        <time>2020-06-28T10:03:03Z</time>
      </trkpt>
      <trkpt lat="48.67821" lon="7.85149">
        <ele>129.6</ele>
        <time>2020-06-28T10:03:04Z</time>
      </trkpt>
      <trkpt lat="48.6782" lon="7.85142">
        <ele>129.6</ele>
        <time>2020-06-28T10:03:05Z</time>
      </trkpt>
      <trkpt lat="48.67819" lon="7.85134">
        <ele>129.7</ele>
        <time>2020-06-28T10:03:06Z</time>
      </trkpt>
      <trkpt lat="48.67817" lon="7.85126">
        <ele>129.7</ele>
        <time>2020-06-28T10:03:07Z</time>
      </trkpt>
      <trkpt lat="48.67815" lon="7.85117">
        <ele>129.7</ele>
        <time>2020-06-28T10:03:08Z</time>
      </trkpt>
      <trkpt lat="48.67814" lon="7.85108">
        <ele>129.7</ele>
        <time>2020-06-28T10:03:09Z</time>
      </trkpt>
      <trkpt lat="48.67812" lon="7.851">
        <ele>129.7</ele>
        <time>2020-06-28T10:03:10Z</time>
      </trkpt>
      <trkpt lat="48.67811" lon="7.85092">
        <ele>129.7</ele>
        <time>2020-06-28T10:03:11Z</time>
      </trkpt>
      <trkpt lat="48.67809" lon="7.85084">
        <ele>129.7</ele>
        <time>2020-06-28T10:03:12Z</time>
      </trkpt>
      <trkpt lat="48.67807" lon="7.85075">
        <ele>129.6</ele>
        <time>2020-06-28T10:03:13Z</time>
      </trkpt>
      <trkpt lat="48.67805" lon="7.85067">
        <ele>129.6</ele>
        <time>2020-06-28T10:03:14Z</time>
      </trkpt>
      <trkpt lat="48.67802" lon="7.85058">
        <ele>129.6</ele>
        <time>2020-06-28T10:03:15Z</time>
      </trkpt>
      <trkpt lat="48.678" lon="7.8505">
        <ele>129.6</ele>
        <time>2020-06-28T10:03:16Z</time>
      </trkpt>
      <trkpt lat="48.67798" lon="7.85042">
        <ele>129.6</ele>
        <time>2020-06-28T10:03:17Z</time>
      </trkpt>
      <trkpt lat="48.67795" lon="7.85033">
        <ele>129.6</ele>
        <time>2020-06-28T10:03:18Z</time>
      </trkpt>
      <trkpt lat="48.67792" lon="7.85024">
        <ele>129.7</ele>
        <time>2020-06-28T10:03:19Z</time>
      </trkpt>
      <trkpt lat="48.6779" lon="7.85017">
        <ele>129.7</ele>
        <time>2020-06-28T10:03:20Z</time>
      </trkpt>
      <trkpt lat="48.67785" lon="7.85005">
        <ele>129.6</ele>
        <time>2020-06-28T10:03:21Z</time>
      </trkpt>
      <trkpt lat="48.67781" lon="7.84995">
        <ele>129.5</ele>
        <time>2020-06-28T10:03:22Z</time>
      </trkpt>
      <trkpt lat="48.67778" lon="7.84987">
        <ele>129.4</ele>
        <time>2020-06-28T10:03:23Z</time>
      </trkpt>
      <trkpt lat="48.67774" lon="7.84978">
        <ele>129.4</ele>
        <time>2020-06-28T10:03:24Z</time>
      </trkpt>
      <trkpt lat="48.6777" lon="7.84968">
        <ele>129.4</ele>
        <time>2020-06-28T10:03:25Z</time>
      </trkpt>
      <trkpt lat="48.67766" lon="7.84958">
        <ele>129.4</ele>
        <time>2020-06-28T10:03:26Z</time>
      </trkpt>
      <trkpt lat="48.67762" lon="7.84951">
        <ele>129.4</ele>
        <time>2020-06-28T10:03:27Z</time>
      </trkpt>
      <trkpt lat="48.67759" lon="7.84942">
        <ele>129.4</ele>
        <time>2020-06-28T10:03:28Z</time>
      </trkpt>
      <trkpt lat="48.67756" lon="7.84934">
        <ele>129.4</ele>
        <time>2020-06-28T10:03:29Z</time>
      </trkpt>
      <trkpt lat="48.67752" lon="7.84925">
        <ele>129.4</ele>
        <time>2020-06-28T10:03:30Z</time>
      </trkpt>
      <trkpt lat="48.67749" lon="7.84918">
        <ele>129.5</ele>
        <time>2020-06-28T10:03:31Z</time>
      </trkpt>
      <trkpt lat="48.67744" lon="7.8491">
        <ele>129.5</ele>
        <time>2020-06-28T10:03:32Z</time>
      </trkpt>
      <trkpt lat="48.6774" lon="7.849">
        <ele>129.5</ele>
        <time>2020-06-28T10:03:33Z</time>
      </trkpt>
      <trkpt lat="48.67737" lon="7.84894">
        <ele>129.5</ele>
        <time>2020-06-28T10:03:34Z</time>
      </trkpt>
      <trkpt lat="48.67734" lon="7.84886">
        <ele>129.5</ele>
        <time>2020-06-28T10:03:35Z</time>
      </trkpt>
      <trkpt lat="48.67732" lon="7.8488">
        <ele>129.5</ele>
        <time>2020-06-28T10:03:36Z</time>
      </trkpt>
      <trkpt lat="48.67729" lon="7.84874">
        <ele>129.5</ele>
        <time>2020-06-28T10:03:37Z</time>
      </trkpt>
      <trkpt lat="48.67725" lon="7.84866">
        <ele>129.5</ele>
        <time>2020-06-28T10:03:38Z</time>
      </trkpt>
      <trkpt lat="48.67722" lon="7.84858">
        <ele>129.5</ele>
        <time>2020-06-28T10:03:39Z</time>
      </trkpt>
      <trkpt lat="48.67718" lon="7.8485">
        <ele>129.5</ele>
        <time>2020-06-28T10:03:40Z</time>
      </trkpt>
      <trkpt lat="48.67714" lon="7.84842">
        <ele>129.5</ele>
        <time>2020-06-28T10:03:41Z</time>
      </trkpt>
      <trkpt lat="48.67711" lon="7.84833">
        <ele>129.5</ele>
        <time>2020-06-28T10:03:42Z</time>
      </trkpt>
      <trkpt lat="48.67708" lon="7.84825">
        <ele>129.5</ele>
        <time>2020-06-28T10:03:43Z</time>
      </trkpt>
      <trkpt lat="48.67705" lon="7.84816">
        <ele>129.5</ele>
        <time>2020-06-28T10:03:44Z</time>
      </trkpt>
      <trkpt lat="48.67701" lon="7.84809">
        <ele>129.5</ele>
        <time>2020-06-28T10:03:45Z</time>
      </trkpt>
      <trkpt lat="48.67698" lon="7.84801">
        <ele>129.5</ele>
        <time>2020-06-28T10:03:46Z</time>
      </trkpt>
      <trkpt lat="48.67694" lon="7.84793">
        <ele>129.5</ele>
        <time>2020-06-28T10:03:47Z</time>
      </trkpt>
      <trkpt lat="48.6769" lon="7.84785">
        <ele>129.5</ele>
        <time>2020-06-28T10:03:48Z</time>
      </trkpt>
      <trkpt lat="48.67686" lon="7.84777">
        <ele>129.5</ele>
        <time>2020-06-28T10:03:49Z</time>
      </trkpt>
      <trkpt lat="48.67683" lon="7.84769">
        <ele>129.5</ele>
        <time>2020-06-28T10:03:50Z</time>
      </trkpt>
      <trkpt lat="48.6768" lon="7.84761">
        <ele>129.5</ele>
        <time>2020-06-28T10:03:51Z</time>
      </trkpt>
      <trkpt lat="48.67676" lon="7.84752">
        <ele>129.5</ele>
        <time>2020-06-28T10:03:52Z</time>
      </trkpt>
      <trkpt lat="48.67673" lon="7.84743">
        <ele>129.5</ele>
        <time>2020-06-28T10:03:53Z</time>
      </trkpt>
      <trkpt lat="48.6767" lon="7.84735">
        <ele>129.6</ele>
        <time>2020-06-28T10:03:54Z</time>
      </trkpt>
      <trkpt lat="48.67666" lon="7.84727">
        <ele>129.6</ele>
        <time>2020-06-28T10:03:55Z</time>
      </trkpt>
      <trkpt lat="48.67663" lon="7.84719">
        <ele>129.6</ele>
        <time>2020-06-28T10:03:56Z</time>
      </trkpt>
      <trkpt lat="48.6766" lon="7.84711">
        <ele>129.6</ele>
        <time>2020-06-28T10:03:57Z</time>
      </trkpt>
      <trkpt lat="48.67658" lon="7.84703">
        <ele>129.6</ele>
        <time>2020-06-28T10:03:58Z</time>
      </trkpt>
      <trkpt lat="48.67655" lon="7.84697">
        <ele>129.5</ele>
        <time>2020-06-28T10:03:59Z</time>
      </trkpt>
      <trkpt lat="48.67652" lon="7.8469">
        <ele>129.5</ele>
        <time>2020-06-28T10:04:00Z</time>
      </trkpt>
      <trkpt lat="48.67648" lon="7.84682">
        <ele>129.4</ele>
        <time>2020-06-28T10:04:01Z</time>
      </trkpt>
      <trkpt lat="48.67645" lon="7.84675">
        <ele>129.4</ele>
        <time>2020-06-28T10:04:02Z</time>
      </trkpt>
      <trkpt lat="48.67642" lon="7.84669">
        <ele>129.4</ele>
        <time>2020-06-28T10:04:03Z</time>
      </trkpt>
      <trkpt lat="48.6764" lon="7.84664">
        <ele>129.4</ele>
        <time>2020-06-28T10:04:04Z</time>
      </trkpt>
      <trkpt lat="48.67638" lon="7.84657">
        <ele>129.4</ele>
        <time>2020-06-28T10:04:05Z</time>
      </trkpt>
      <trkpt lat="48.67635" lon="7.84652">
        <ele>129.4</ele>
        <time>2020-06-28T10:04:06Z</time>
      </trkpt>
      <trkpt lat="48.67634" lon="7.84643">
        <ele>129.3</ele>
        <time>2020-06-28T10:04:07Z</time>
      </trkpt>
      <trkpt lat="48.67631" lon="7.84636">
        <ele>129.3</ele>
        <time>2020-06-28T10:04:08Z</time>
      </trkpt>
      <trkpt lat="48.67628" lon="7.84629">
        <ele>129.3</ele>
        <time>2020-06-28T10:04:09Z</time>
      </trkpt>
      <trkpt lat="48.67625" lon="7.84623">
        <ele>129.3</ele>
        <time>2020-06-28T10:04:10Z</time>
      </trkpt>
      <trkpt lat="48.67623" lon="7.84616">
        <ele>129.4</ele>
        <time>2020-06-28T10:04:11Z</time>
      </trkpt>
      <trkpt lat="48.6762" lon="7.84611">
        <ele>129.4</ele>
        <time>2020-06-28T10:04:12Z</time>
      </trkpt>
      <trkpt lat="48.67618" lon="7.84606">
        <ele>129.4</ele>
        <time>2020-06-28T10:04:13Z</time>
      </trkpt>
      <trkpt lat="48.67615" lon="7.846">
        <ele>129.5</ele>
        <time>2020-06-28T10:04:14Z</time>
      </trkpt>
      <trkpt lat="48.67612" lon="7.84596">
        <ele>129.5</ele>
        <time>2020-06-28T10:04:15Z</time>
      </trkpt>
      <trkpt lat="48.6761" lon="7.84592">
        <ele>129.5</ele>
        <time>2020-06-28T10:04:16Z</time>
      </trkpt>
      <trkpt lat="48.67609" lon="7.84588">
        <ele>129.5</ele>
        <time>2020-06-28T10:04:17Z</time>
      </trkpt>
      <trkpt lat="48.67609" lon="7.84583">
        <ele>129.5</ele>
        <time>2020-06-28T10:04:18Z</time>
      </trkpt>
      <trkpt lat="48.67609" lon="7.84576">
        <ele>129.6</ele>
        <time>2020-06-28T10:04:19Z</time>
      </trkpt>
      <trkpt lat="48.67608" lon="7.84568">
        <ele>129.6</ele>
        <time>2020-06-28T10:04:20Z</time>
      </trkpt>
      <trkpt lat="48.67607" lon="7.84561">
        <ele>129.6</ele>
        <time>2020-06-28T10:04:21Z</time>
      </trkpt>
      <trkpt lat="48.67605" lon="7.84557">
        <ele>129.6</ele>
        <time>2020-06-28T10:04:22Z</time>
      </trkpt>
      <trkpt lat="48.67602" lon="7.84553">
        <ele>129.7</ele>
        <time>2020-06-28T10:04:23Z</time>
      </trkpt>
      <trkpt lat="48.67598" lon="7.84551">
        <ele>129.9</ele>
        <time>2020-06-28T10:04:24Z</time>
      </trkpt>
      <trkpt lat="48.67593" lon="7.84548">
        <ele>130</ele>
        <time>2020-06-28T10:04:25Z</time>
      </trkpt>
      <trkpt lat="48.67589" lon="7.84544">
        <ele>130</ele>
        <time>2020-06-28T10:04:26Z</time>
      </trkpt>
      <trkpt lat="48.67586" lon="7.84539">
        <ele>130</ele>
        <time>2020-06-28T10:04:27Z</time>
      </trkpt>
      <trkpt lat="48.67583" lon="7.84533">
        <ele>130</ele>
        <time>2020-06-28T10:04:28Z</time>
      </trkpt>
      <trkpt lat="48.67581" lon="7.84527">
        <ele>130.1</ele>
        <time>2020-06-28T10:04:29Z</time>
      </trkpt>
      <trkpt lat="48.67579" lon="7.84522">
        <ele>130.1</ele>
        <time>2020-06-28T10:04:30Z</time>
      </trkpt>
      <trkpt lat="48.67577" lon="7.84516">
        <ele>130.1</ele>
        <time>2020-06-28T10:04:31Z</time>
      </trkpt>
      <trkpt lat="48.67575" lon="7.84509">
        <ele>130.1</ele>
        <time>2020-06-28T10:04:32Z</time>
      </trkpt>
      <trkpt lat="48.67574" lon="7.84504">
        <ele>130.1</ele>
        <time>2020-06-28T10:04:33Z</time>
      </trkpt>
      <trkpt lat="48.67572" lon="7.84498">
        <ele>130.1</ele>
        <time>2020-06-28T10:04:34Z</time>
      </trkpt>
      <trkpt lat="48.67571" lon="7.84492">
        <ele>130.1</ele>
        <time>2020-06-28T10:04:35Z</time>
      </trkpt>
      <trkpt lat="48.67569" lon="7.84489">
        <ele>130.1</ele>
        <time>2020-06-28T10:04:36Z</time>
      </trkpt>
      <trkpt lat="48.67568" lon="7.84484">
        <ele>130.1</ele>
        <time>2020-06-28T10:04:37Z</time>
      </trkpt>
      <trkpt lat="48.67566" lon="7.8448">
        <ele>130.1</ele>
        <time>2020-06-28T10:04:38Z</time>
      </trkpt>
      <trkpt lat="48.67563" lon="7.84474">
        <ele>130.1</ele>
        <time>2020-06-28T10:04:39Z</time>
      </trkpt>
      <trkpt lat="48.67561" lon="7.84468">
        <ele>130.1</ele>
        <time>2020-06-28T10:04:40Z</time>
      </trkpt>
      <trkpt lat="48.67559" lon="7.84463">
        <ele>130.1</ele>
        <time>2020-06-28T10:04:41Z</time>
      </trkpt>
      <trkpt lat="48.67556" lon="7.84457">
        <ele>130.1</ele>
        <time>2020-06-28T10:04:42Z</time>
      </trkpt>
      <trkpt lat="48.67554" lon="7.84452">
        <ele>130.1</ele>
        <time>2020-06-28T10:04:43Z</time>
      </trkpt>
      <trkpt lat="48.67552" lon="7.84447">
        <ele>130.1</ele>
        <time>2020-06-28T10:04:44Z</time>
      </trkpt>
      <trkpt lat="48.67549" lon="7.84441">
        <ele>130.1</ele>
        <time>2020-06-28T10:04:45Z</time>
      </trkpt>
      <trkpt lat="48.67547" lon="7.84435">
        <ele>130.1</ele>
        <time>2020-06-28T10:04:46Z</time>
      </trkpt>
      <trkpt lat="48.67544" lon="7.84428">
        <ele>130.1</ele>
        <time>2020-06-28T10:04:47Z</time>
      </trkpt>
      <trkpt lat="48.67542" lon="7.84422">
        <ele>130.1</ele>
        <time>2020-06-28T10:04:48Z</time>
      </trkpt>
      <trkpt lat="48.67539" lon="7.84416">
        <ele>130.2</ele>
        <time>2020-06-28T10:04:49Z</time>
      </trkpt>
      <trkpt lat="48.67536" lon="7.8441">
        <ele>130.2</ele>
        <time>2020-06-28T10:04:50Z</time>
      </trkpt>
      <trkpt lat="48.67535" lon="7.84406">
        <ele>130.2</ele>
        <time>2020-06-28T10:04:51Z</time>
      </trkpt>
      <trkpt lat="48.67534" lon="7.84401">
        <ele>130.2</ele>
        <time>2020-06-28T10:04:52Z</time>
      </trkpt>
      <trkpt lat="48.67533" lon="7.84396">
        <ele>130.2</ele>
        <time>2020-06-28T10:04:53Z</time>
      </trkpt>
      <trkpt lat="48.67532" lon="7.84395">
        <ele>130.2</ele>
        <time>2020-06-28T10:04:54Z</time>
      </trkpt>
      <trkpt lat="48.67531" lon="7.84394">
        <ele>130.2</ele>
        <time>2020-06-28T10:04:55Z</time>
      </trkpt>
      <trkpt lat="48.67531" lon="7.84392">
        <ele>130.3</ele>
        <time>2020-06-28T10:04:56Z</time>
      </trkpt>
      <trkpt lat="48.6753" lon="7.8439">
        <ele>130.3</ele>
        <time>2020-06-28T10:04:57Z</time>
      </trkpt>
      <trkpt lat="48.6753" lon="7.84389">
        <ele>130.3</ele>
        <time>2020-06-28T10:04:58Z</time>
      </trkpt>
      <trkpt lat="48.67529" lon="7.84387">
        <ele>130.3</ele>
        <time>2020-06-28T10:04:59Z</time>
      </trkpt>
      <trkpt lat="48.67529" lon="7.84386">
        <ele>130.3</ele>
        <time>2020-06-28T10:05:00Z</time>
      </trkpt>
      <trkpt lat="48.67528" lon="7.84384">
        <ele>130.3</ele>
        <time>2020-06-28T10:05:01Z</time>
      </trkpt>
      <trkpt lat="48.67528" lon="7.84382">
        <ele>130.3</ele>
        <time>2020-06-28T10:05:02Z</time>
      </trkpt>
      <trkpt lat="48.67527" lon="7.84381">
        <ele>130.3</ele>
        <time>2020-06-28T10:05:03Z</time>
      </trkpt>
      <trkpt lat="48.67526" lon="7.84379">
        <ele>130.3</ele>
        <time>2020-06-28T10:05:04Z</time>
      </trkpt>
      <trkpt lat="48.67526" lon="7.84377">
        <ele>130.3</ele>
        <time>2020-06-28T10:05:05Z</time>
      </trkpt>
      <trkpt lat="48.67525" lon="7.84376">
        <ele>130.3</ele>
        <time>2020-06-28T10:07:45Z</time>
      </trkpt>
      <trkpt lat="48.67525" lon="7.84374">
        <ele>130.3</ele>
        <time>2020-06-28T10:07:46Z</time>
      </trkpt>
      <trkpt lat="48.67525" lon="7.84368">
        <ele>130.3</ele>
        <time>2020-06-28T10:07:47Z</time>
      </trkpt>
      <trkpt lat="48.67524" lon="7.84365">
        <ele>130.3</ele>
        <time>2020-06-28T10:07:48Z</time>
      </trkpt>
      <trkpt lat="48.67522" lon="7.84358">
        <ele>130.3</ele>
        <time>2020-06-28T10:07:49Z</time>
      </trkpt>
      <trkpt lat="48.6752" lon="7.84352">
        <ele>130.3</ele>
        <time>2020-06-28T10:07:50Z</time>
      </trkpt>
      <trkpt lat="48.67518" lon="7.84345">
        <ele>130.3</ele>
        <time>2020-06-28T10:07:51Z</time>
      </trkpt>
      <trkpt lat="48.67515" lon="7.84338">
        <ele>130.4</ele>
        <time>2020-06-28T10:07:52Z</time>
      </trkpt>
      <trkpt lat="48.67513" lon="7.84332">
        <ele>130.4</ele>
        <time>2020-06-28T10:07:53Z</time>
      </trkpt>
      <trkpt lat="48.6751" lon="7.84325">
        <ele>130.3</ele>
        <time>2020-06-28T10:07:54Z</time>
      </trkpt>
      <trkpt lat="48.67507" lon="7.84319">
        <ele>130.3</ele>
        <time>2020-06-28T10:07:55Z</time>
      </trkpt>
      <trkpt lat="48.67505" lon="7.84313">
        <ele>130.3</ele>
        <time>2020-06-28T10:07:56Z</time>
      </trkpt>
      <trkpt lat="48.67502" lon="7.84306">
        <ele>130.3</ele>
        <time>2020-06-28T10:07:57Z</time>
      </trkpt>
      <trkpt lat="48.675" lon="7.84299">
        <ele>130.3</ele>
        <time>2020-06-28T10:07:58Z</time>
      </trkpt>
      <trkpt lat="48.67497" lon="7.84292">
        <ele>130.3</ele>
        <time>2020-06-28T10:07:59Z</time>
      </trkpt>
      <trkpt lat="48.67495" lon="7.84285">
        <ele>130.3</ele>
        <time>2020-06-28T10:08:00Z</time>
      </trkpt>
      <trkpt lat="48.67492" lon="7.84278">
        <ele>130.3</ele>
        <time>2020-06-28T10:08:01Z</time>
      </trkpt>
      <trkpt lat="48.6749" lon="7.84271">
        <ele>130.3</ele>
        <time>2020-06-28T10:08:02Z</time>
      </trkpt>
      <trkpt lat="48.67488" lon="7.84264">
        <ele>130.2</ele>
        <time>2020-06-28T10:08:03Z</time>
      </trkpt>
      <trkpt lat="48.67486" lon="7.84257">
        <ele>130.2</ele>
        <time>2020-06-28T10:08:04Z</time>
      </trkpt>
      <trkpt lat="48.67484" lon="7.84249">
        <ele>130.2</ele>
        <time>2020-06-28T10:08:05Z</time>
      </trkpt>
      <trkpt lat="48.67481" lon="7.84242">
        <ele>130.2</ele>
        <time>2020-06-28T10:08:06Z</time>
      </trkpt>
      <trkpt lat="48.67478" lon="7.84234">
        <ele>130.2</ele>
        <time>2020-06-28T10:08:07Z</time>
      </trkpt>
      <trkpt lat="48.67476" lon="7.84227">
        <ele>130.2</ele>
        <time>2020-06-28T10:08:08Z</time>
      </trkpt>
      <trkpt lat="48.67473" lon="7.84219">
        <ele>130.2</ele>
        <time>2020-06-28T10:08:09Z</time>
      </trkpt>
      <trkpt lat="48.67471" lon="7.84212">
        <ele>130.2</ele>
        <time>2020-06-28T10:08:10Z</time>
      </trkpt>
      <trkpt lat="48.67469" lon="7.84204">
        <ele>130.2</ele>
        <time>2020-06-28T10:08:11Z</time>
      </trkpt>
      <trkpt lat="48.67467" lon="7.84197">
        <ele>130.3</ele>
        <time>2020-06-28T10:08:12Z</time>
      </trkpt>
      <trkpt lat="48.67465" lon="7.8419">
        <ele>130.3</ele>
        <time>2020-06-28T10:08:13Z</time>
      </trkpt>
      <trkpt lat="48.67463" lon="7.84183">
        <ele>130.3</ele>
        <time>2020-06-28T10:08:14Z</time>
      </trkpt>
      <trkpt lat="48.67461" lon="7.84176">
        <ele>130.3</ele>
        <time>2020-06-28T10:08:15Z</time>
      </trkpt>
      <trkpt lat="48.67458" lon="7.84168">
        <ele>130.4</ele>
        <time>2020-06-28T10:08:16Z</time>
      </trkpt>
      <trkpt lat="48.67456" lon="7.8416">
        <ele>130.4</ele>
        <time>2020-06-28T10:08:17Z</time>
      </trkpt>
      <trkpt lat="48.67453" lon="7.84153">
        <ele>130.4</ele>
        <time>2020-06-28T10:08:18Z</time>
      </trkpt>
      <trkpt lat="48.67451" lon="7.84145">
        <ele>130.4</ele>
        <time>2020-06-28T10:08:19Z</time>
      </trkpt>
      <trkpt lat="48.67448" lon="7.84137">
        <ele>130.4</ele>
        <time>2020-06-28T10:08:20Z</time>
      </trkpt>
      <trkpt lat="48.67446" lon="7.8413">
        <ele>130.4</ele>
        <time>2020-06-28T10:08:21Z</time>
      </trkpt>
      <trkpt lat="48.67444" lon="7.84123">
        <ele>130.4</ele>
        <time>2020-06-28T10:08:22Z</time>
      </trkpt>
      <trkpt lat="48.67441" lon="7.84115">
        <ele>130.5</ele>
        <time>2020-06-28T10:08:23Z</time>
      </trkpt>
      <trkpt lat="48.67438" lon="7.84108">
        <ele>130.5</ele>
        <time>2020-06-28T10:08:24Z</time>
      </trkpt>
      <trkpt lat="48.67435" lon="7.841">
        <ele>130.5</ele>
        <time>2020-06-28T10:08:25Z</time>
      </trkpt>
      <trkpt lat="48.67432" lon="7.84092">
        <ele>130.5</ele>
        <time>2020-06-28T10:08:26Z</time>
      </trkpt>
      <trkpt lat="48.6743" lon="7.84085">
        <ele>130.5</ele>
        <time>2020-06-28T10:08:27Z</time>
      </trkpt>
      <trkpt lat="48.67427" lon="7.84077">
        <ele>130.5</ele>
        <time>2020-06-28T10:08:28Z</time>
      </trkpt>
      <trkpt lat="48.67425" lon="7.8407">
        <ele>130.5</ele>
        <time>2020-06-28T10:08:29Z</time>
      </trkpt>
      <trkpt lat="48.67423" lon="7.84063">
        <ele>130.5</ele>
        <time>2020-06-28T10:08:30Z</time>
      </trkpt>
      <trkpt lat="48.67421" lon="7.84056">
        <ele>130.5</ele>
        <time>2020-06-28T10:08:31Z</time>
      </trkpt>
      <trkpt lat="48.67417" lon="7.8405">
        <ele>130.5</ele>
        <time>2020-06-28T10:08:32Z</time>
      </trkpt>
      <trkpt lat="48.67415" lon="7.84044">
        <ele>130.5</ele>
        <time>2020-06-28T10:08:33Z</time>
      </trkpt>
      <trkpt lat="48.67413" lon="7.84038">
        <ele>130.5</ele>
        <time>2020-06-28T10:08:34Z</time>
      </trkpt>
      <trkpt lat="48.67411" lon="7.84031">
        <ele>130.5</ele>
        <time>2020-06-28T10:08:35Z</time>
      </trkpt>
      <trkpt lat="48.67408" lon="7.84024">
        <ele>130.5</ele>
        <time>2020-06-28T10:08:36Z</time>
      </trkpt>
      <trkpt lat="48.67407" lon="7.84016">
        <ele>130.6</ele>
        <time>2020-06-28T10:08:37Z</time>
      </trkpt>
      <trkpt lat="48.67405" lon="7.84009">
        <ele>130.6</ele>
        <time>2020-06-28T10:08:38Z</time>
      </trkpt>
      <trkpt lat="48.67402" lon="7.84003">
        <ele>130.6</ele>
        <time>2020-06-28T10:08:39Z</time>
      </trkpt>
      <trkpt lat="48.674" lon="7.83996">
        <ele>130.6</ele>
        <time>2020-06-28T10:08:40Z</time>
      </trkpt>
      <trkpt lat="48.67398" lon="7.8399">
        <ele>130.6</ele>
        <time>2020-06-28T10:08:41Z</time>
      </trkpt>
      <trkpt lat="48.67395" lon="7.83983">
        <ele>130.6</ele>
        <time>2020-06-28T10:08:42Z</time>
      </trkpt>
      <trkpt lat="48.67393" lon="7.83976">
        <ele>130.6</ele>
        <time>2020-06-28T10:08:43Z</time>
      </trkpt>
      <trkpt lat="48.67391" lon="7.8397">
        <ele>130.6</ele>
        <time>2020-06-28T10:08:44Z</time>
      </trkpt>
      <trkpt lat="48.67388" lon="7.83964">
        <ele>130.6</ele>
        <time>2020-06-28T10:08:45Z</time>
      </trkpt>
      <trkpt lat="48.67386" lon="7.83958">
        <ele>130.6</ele>
        <time>2020-06-28T10:08:46Z</time>
      </trkpt>
      <trkpt lat="48.67383" lon="7.83951">
        <ele>130.6</ele>
        <time>2020-06-28T10:08:47Z</time>
      </trkpt>
      <trkpt lat="48.6738" lon="7.83943">
        <ele>130.6</ele>
        <time>2020-06-28T10:08:48Z</time>
      </trkpt>
      <trkpt lat="48.67378" lon="7.83936">
        <ele>130.6</ele>
        <time>2020-06-28T10:08:49Z</time>
      </trkpt>
      <trkpt lat="48.67375" lon="7.8393">
        <ele>130.6</ele>
        <time>2020-06-28T10:08:50Z</time>
      </trkpt>
      <trkpt lat="48.67372" lon="7.83922">
        <ele>130.6</ele>
        <time>2020-06-28T10:08:51Z</time>
      </trkpt>
      <trkpt lat="48.6737" lon="7.83917">
        <ele>130.6</ele>
        <time>2020-06-28T10:08:52Z</time>
      </trkpt>
      <trkpt lat="48.67368" lon="7.83912">
        <ele>130.5</ele>
        <time>2020-06-28T10:08:53Z</time>
      </trkpt>
      <trkpt lat="48.67366" lon="7.83905">
        <ele>130.5</ele>
        <time>2020-06-28T10:08:54Z</time>
      </trkpt>
      <trkpt lat="48.67364" lon="7.83898">
        <ele>130.5</ele>
        <time>2020-06-28T10:08:55Z</time>
      </trkpt>
      <trkpt lat="48.67361" lon="7.83893">
        <ele>130.5</ele>
        <time>2020-06-28T10:08:56Z</time>
      </trkpt>
      <trkpt lat="48.67358" lon="7.83886">
        <ele>130.5</ele>
        <time>2020-06-28T10:08:57Z</time>
      </trkpt>
      <trkpt lat="48.67355" lon="7.83878">
        <ele>130.5</ele>
        <time>2020-06-28T10:08:58Z</time>
      </trkpt>
      <trkpt lat="48.67352" lon="7.83872">
        <ele>130.5</ele>
        <time>2020-06-28T10:08:59Z</time>
      </trkpt>
      <trkpt lat="48.67349" lon="7.83865">
        <ele>130.5</ele>
        <time>2020-06-28T10:09:00Z</time>
      </trkpt>
      <trkpt lat="48.67345" lon="7.83859">
        <ele>130.4</ele>
        <time>2020-06-28T10:09:01Z</time>
      </trkpt>
      <trkpt lat="48.67342" lon="7.83853">
        <ele>130.4</ele>
        <time>2020-06-28T10:09:02Z</time>
      </trkpt>
      <trkpt lat="48.67339" lon="7.83846">
        <ele>130.4</ele>
        <time>2020-06-28T10:09:03Z</time>
      </trkpt>
      <trkpt lat="48.67336" lon="7.8384">
        <ele>130.3</ele>
        <time>2020-06-28T10:09:04Z</time>
      </trkpt>
      <trkpt lat="48.67334" lon="7.83835">
        <ele>130.3</ele>
        <time>2020-06-28T10:09:05Z</time>
      </trkpt>
      <trkpt lat="48.67331" lon="7.8383">
        <ele>130.3</ele>
        <time>2020-06-28T10:09:06Z</time>
      </trkpt>
      <trkpt lat="48.67328" lon="7.83823">
        <ele>130.3</ele>
        <time>2020-06-28T10:09:07Z</time>
      </trkpt>
      <trkpt lat="48.67325" lon="7.83816">
        <ele>130.3</ele>
        <time>2020-06-28T10:09:08Z</time>
      </trkpt>
      <trkpt lat="48.67322" lon="7.83808">
        <ele>130.4</ele>
        <time>2020-06-28T10:09:09Z</time>
      </trkpt>
      <trkpt lat="48.67319" lon="7.83801">
        <ele>130.4</ele>
        <time>2020-06-28T10:09:10Z</time>
      </trkpt>
      <trkpt lat="48.67316" lon="7.83794">
        <ele>130.4</ele>
        <time>2020-06-28T10:09:11Z</time>
      </trkpt>
      <trkpt lat="48.67313" lon="7.83788">
        <ele>130.4</ele>
        <time>2020-06-28T10:09:12Z</time>
      </trkpt>
      <trkpt lat="48.6731" lon="7.83782">
        <ele>130.4</ele>
        <time>2020-06-28T10:09:13Z</time>
      </trkpt>
      <trkpt lat="48.67307" lon="7.83775">
        <ele>130.6</ele>
        <time>2020-06-28T10:09:14Z</time>
      </trkpt>
      <trkpt lat="48.67304" lon="7.83769">
        <ele>130.7</ele>
        <time>2020-06-28T10:09:15Z</time>
      </trkpt>
      <trkpt lat="48.673" lon="7.83762">
        <ele>130.7</ele>
        <time>2020-06-28T10:09:16Z</time>
      </trkpt>
      <trkpt lat="48.67297" lon="7.83755">
        <ele>130.7</ele>
        <time>2020-06-28T10:09:17Z</time>
      </trkpt>
      <trkpt lat="48.67295" lon="7.83749">
        <ele>130.8</ele>
        <time>2020-06-28T10:09:18Z</time>
      </trkpt>
      <trkpt lat="48.67292" lon="7.83743">
        <ele>130.8</ele>
        <time>2020-06-28T10:09:19Z</time>
      </trkpt>
      <trkpt lat="48.67289" lon="7.83736">
        <ele>130.8</ele>
        <time>2020-06-28T10:09:20Z</time>
      </trkpt>
      <trkpt lat="48.67287" lon="7.83731">
        <ele>130.8</ele>
        <time>2020-06-28T10:09:21Z</time>
      </trkpt>
      <trkpt lat="48.67283" lon="7.83725">
        <ele>130.8</ele>
        <time>2020-06-28T10:09:22Z</time>
      </trkpt>
      <trkpt lat="48.6728" lon="7.8372">
        <ele>130.9</ele>
        <time>2020-06-28T10:09:23Z</time>
      </trkpt>
      <trkpt lat="48.67277" lon="7.83714">
        <ele>130.9</ele>
        <time>2020-06-28T10:09:24Z</time>
      </trkpt>
      <trkpt lat="48.67273" lon="7.83707">
        <ele>130.9</ele>
        <time>2020-06-28T10:09:25Z</time>
      </trkpt>
      <trkpt lat="48.6727" lon="7.837">
        <ele>130.9</ele>
        <time>2020-06-28T10:09:26Z</time>
      </trkpt>
      <trkpt lat="48.67267" lon="7.83695">
        <ele>130.9</ele>
        <time>2020-06-28T10:09:27Z</time>
      </trkpt>
      <trkpt lat="48.67265" lon="7.83689">
        <ele>130.9</ele>
        <time>2020-06-28T10:09:28Z</time>
      </trkpt>
      <trkpt lat="48.67262" lon="7.83683">
        <ele>130.9</ele>
        <time>2020-06-28T10:09:29Z</time>
      </trkpt>
      <trkpt lat="48.67259" lon="7.83677">
        <ele>130.9</ele>
        <time>2020-06-28T10:09:30Z</time>
      </trkpt>
      <trkpt lat="48.67256" lon="7.83671">
        <ele>130.9</ele>
        <time>2020-06-28T10:09:31Z</time>
      </trkpt>
      <trkpt lat="48.67253" lon="7.83664">
        <ele>130.9</ele>
        <time>2020-06-28T10:09:32Z</time>
      </trkpt>
      <trkpt lat="48.67251" lon="7.83659">
        <ele>130.9</ele>
        <time>2020-06-28T10:09:33Z</time>
      </trkpt>
      <trkpt lat="48.67248" lon="7.83654">
        <ele>130.8</ele>
        <time>2020-06-28T10:09:34Z</time>
      </trkpt>
      <trkpt lat="48.67246" lon="7.83648">
        <ele>130.8</ele>
        <time>2020-06-28T10:09:35Z</time>
      </trkpt>
      <trkpt lat="48.67242" lon="7.83643">
        <ele>130.8</ele>
        <time>2020-06-28T10:09:36Z</time>
      </trkpt>
      <trkpt lat="48.67239" lon="7.83638">
        <ele>130.9</ele>
        <time>2020-06-28T10:09:37Z</time>
      </trkpt>
      <trkpt lat="48.67236" lon="7.83633">
        <ele>130.9</ele>
        <time>2020-06-28T10:09:38Z</time>
      </trkpt>
      <trkpt lat="48.67233" lon="7.83628">
        <ele>130.9</ele>
        <time>2020-06-28T10:09:39Z</time>
      </trkpt>
      <trkpt lat="48.67231" lon="7.83622">
        <ele>131</ele>
        <time>2020-06-28T10:09:40Z</time>
      </trkpt>
      <trkpt lat="48.67227" lon="7.83617">
        <ele>131</ele>
        <time>2020-06-28T10:09:41Z</time>
      </trkpt>
      <trkpt lat="48.67224" lon="7.83611">
        <ele>131</ele>
        <time>2020-06-28T10:09:42Z</time>
      </trkpt>
      <trkpt lat="48.67222" lon="7.83606">
        <ele>131</ele>
        <time>2020-06-28T10:09:43Z</time>
      </trkpt>
      <trkpt lat="48.6722" lon="7.83599">
        <ele>131</ele>
        <time>2020-06-28T10:09:44Z</time>
      </trkpt>
      <trkpt lat="48.67217" lon="7.83593">
        <ele>131</ele>
        <time>2020-06-28T10:09:45Z</time>
      </trkpt>
      <trkpt lat="48.67213" lon="7.83585">
        <ele>131</ele>
        <time>2020-06-28T10:09:46Z</time>
      </trkpt>
      <trkpt lat="48.67209" lon="7.83579">
        <ele>131</ele>
        <time>2020-06-28T10:09:47Z</time>
      </trkpt>
      <trkpt lat="48.67206" lon="7.83573">
        <ele>131</ele>
        <time>2020-06-28T10:09:48Z</time>
      </trkpt>
      <trkpt lat="48.67203" lon="7.83568">
        <ele>131</ele>
        <time>2020-06-28T10:09:49Z</time>
      </trkpt>
      <trkpt lat="48.672" lon="7.83561">
        <ele>131</ele>
        <time>2020-06-28T10:09:50Z</time>
      </trkpt>
      <trkpt lat="48.67198" lon="7.83556">
        <ele>131</ele>
        <time>2020-06-28T10:09:51Z</time>
      </trkpt>
      <trkpt lat="48.67195" lon="7.8355">
        <ele>131</ele>
        <time>2020-06-28T10:09:52Z</time>
      </trkpt>
      <trkpt lat="48.67191" lon="7.83544">
        <ele>131</ele>
        <time>2020-06-28T10:09:53Z</time>
      </trkpt>
      <trkpt lat="48.67187" lon="7.83537">
        <ele>131</ele>
        <time>2020-06-28T10:09:54Z</time>
      </trkpt>
      <trkpt lat="48.67184" lon="7.83531">
        <ele>131</ele>
        <time>2020-06-28T10:09:55Z</time>
      </trkpt>
      <trkpt lat="48.67181" lon="7.83525">
        <ele>131.1</ele>
        <time>2020-06-28T10:09:56Z</time>
      </trkpt>
      <trkpt lat="48.67179" lon="7.8352">
        <ele>131.1</ele>
        <time>2020-06-28T10:09:57Z</time>
      </trkpt>
      <trkpt lat="48.67176" lon="7.83513">
        <ele>131.1</ele>
        <time>2020-06-28T10:09:58Z</time>
      </trkpt>
      <trkpt lat="48.67173" lon="7.83507">
        <ele>131.1</ele>
        <time>2020-06-28T10:09:59Z</time>
      </trkpt>
      <trkpt lat="48.67171" lon="7.83501">
        <ele>131.1</ele>
        <time>2020-06-28T10:10:00Z</time>
      </trkpt>
      <trkpt lat="48.67168" lon="7.83495">
        <ele>131.1</ele>
        <time>2020-06-28T10:10:01Z</time>
      </trkpt>
      <trkpt lat="48.67164" lon="7.83489">
        <ele>131.1</ele>
        <time>2020-06-28T10:10:02Z</time>
      </trkpt>
      <trkpt lat="48.67161" lon="7.83484">
        <ele>131.1</ele>
        <time>2020-06-28T10:10:03Z</time>
      </trkpt>
      <trkpt lat="48.67157" lon="7.83477">
        <ele>131</ele>
        <time>2020-06-28T10:10:04Z</time>
      </trkpt>
      <trkpt lat="48.67154" lon="7.83471">
        <ele>131</ele>
        <time>2020-06-28T10:10:05Z</time>
      </trkpt>
      <trkpt lat="48.67151" lon="7.83464">
        <ele>130.9</ele>
        <time>2020-06-28T10:10:06Z</time>
      </trkpt>
      <trkpt lat="48.67149" lon="7.83458">
        <ele>130.9</ele>
        <time>2020-06-28T10:10:07Z</time>
      </trkpt>
      <trkpt lat="48.67147" lon="7.83452">
        <ele>130.9</ele>
        <time>2020-06-28T10:10:08Z</time>
      </trkpt>
      <trkpt lat="48.67143" lon="7.83445">
        <ele>130.9</ele>
        <time>2020-06-28T10:10:09Z</time>
      </trkpt>
      <trkpt lat="48.6714" lon="7.83438">
        <ele>130.9</ele>
        <time>2020-06-28T10:10:10Z</time>
      </trkpt>
      <trkpt lat="48.67137" lon="7.83432">
        <ele>130.9</ele>
        <time>2020-06-28T10:10:11Z</time>
      </trkpt>
      <trkpt lat="48.67135" lon="7.83426">
        <ele>130.9</ele>
        <time>2020-06-28T10:10:12Z</time>
      </trkpt>
      <trkpt lat="48.67131" lon="7.8342">
        <ele>130.9</ele>
        <time>2020-06-28T10:10:13Z</time>
      </trkpt>
      <trkpt lat="48.67128" lon="7.83414">
        <ele>130.9</ele>
        <time>2020-06-28T10:10:14Z</time>
      </trkpt>
      <trkpt lat="48.67125" lon="7.83408">
        <ele>130.9</ele>
        <time>2020-06-28T10:10:15Z</time>
      </trkpt>
      <trkpt lat="48.67123" lon="7.83402">
        <ele>130.9</ele>
        <time>2020-06-28T10:10:16Z</time>
      </trkpt>
      <trkpt lat="48.6712" lon="7.83396">
        <ele>130.9</ele>
        <time>2020-06-28T10:10:17Z</time>
      </trkpt>
      <trkpt lat="48.67117" lon="7.83389">
        <ele>130.9</ele>
        <time>2020-06-28T10:10:18Z</time>
      </trkpt>
      <trkpt lat="48.67114" lon="7.83383">
        <ele>130.9</ele>
        <time>2020-06-28T10:10:19Z</time>
      </trkpt>
      <trkpt lat="48.67112" lon="7.83378">
        <ele>131</ele>
        <time>2020-06-28T10:10:20Z</time>
      </trkpt>
      <trkpt lat="48.67107" lon="7.83371">
        <ele>131</ele>
        <time>2020-06-28T10:10:21Z</time>
      </trkpt>
      <trkpt lat="48.67104" lon="7.83364">
        <ele>131.1</ele>
        <time>2020-06-28T10:10:22Z</time>
      </trkpt>
      <trkpt lat="48.67101" lon="7.83358">
        <ele>131.1</ele>
        <time>2020-06-28T10:10:23Z</time>
      </trkpt>
      <trkpt lat="48.67097" lon="7.83352">
        <ele>131.2</ele>
        <time>2020-06-28T10:10:24Z</time>
      </trkpt>
      <trkpt lat="48.67094" lon="7.83346">
        <ele>131.1</ele>
        <time>2020-06-28T10:10:25Z</time>
      </trkpt>
      <trkpt lat="48.67091" lon="7.83338">
        <ele>131.1</ele>
        <time>2020-06-28T10:10:26Z</time>
      </trkpt>
      <trkpt lat="48.67088" lon="7.83333">
        <ele>131.1</ele>
        <time>2020-06-28T10:10:27Z</time>
      </trkpt>
      <trkpt lat="48.67086" lon="7.83326">
        <ele>131.1</ele>
        <time>2020-06-28T10:10:28Z</time>
      </trkpt>
      <trkpt lat="48.67083" lon="7.8332">
        <ele>131.1</ele>
        <time>2020-06-28T10:10:29Z</time>
      </trkpt>
      <trkpt lat="48.6708" lon="7.83314">
        <ele>131.1</ele>
        <time>2020-06-28T10:10:30Z</time>
      </trkpt>
      <trkpt lat="48.67076" lon="7.83307">
        <ele>131.1</ele>
        <time>2020-06-28T10:10:31Z</time>
      </trkpt>
      <trkpt lat="48.67073" lon="7.83301">
        <ele>131.1</ele>
        <time>2020-06-28T10:10:32Z</time>
      </trkpt>
      <trkpt lat="48.6707" lon="7.83295">
        <ele>131.1</ele>
        <time>2020-06-28T10:10:33Z</time>
      </trkpt>
      <trkpt lat="48.67068" lon="7.83289">
        <ele>131.2</ele>
        <time>2020-06-28T10:10:34Z</time>
      </trkpt>
      <trkpt lat="48.67063" lon="7.83282">
        <ele>131.2</ele>
        <time>2020-06-28T10:10:35Z</time>
      </trkpt>
      <trkpt lat="48.67061" lon="7.83276">
        <ele>131.2</ele>
        <time>2020-06-28T10:10:36Z</time>
      </trkpt>
      <trkpt lat="48.67058" lon="7.8327">
        <ele>131.2</ele>
        <time>2020-06-28T10:10:37Z</time>
      </trkpt>
      <trkpt lat="48.67055" lon="7.83263">
        <ele>131.2</ele>
        <time>2020-06-28T10:10:38Z</time>
      </trkpt>
      <trkpt lat="48.67052" lon="7.83257">
        <ele>131.2</ele>
        <time>2020-06-28T10:10:39Z</time>
      </trkpt>
      <trkpt lat="48.67049" lon="7.8325">
        <ele>131.2</ele>
        <time>2020-06-28T10:10:40Z</time>
      </trkpt>
      <trkpt lat="48.67046" lon="7.83245">
        <ele>131.2</ele>
        <time>2020-06-28T10:10:41Z</time>
      </trkpt>
      <trkpt lat="48.67044" lon="7.83239">
        <ele>131.2</ele>
        <time>2020-06-28T10:10:42Z</time>
      </trkpt>
      <trkpt lat="48.67041" lon="7.83233">
        <ele>131.2</ele>
        <time>2020-06-28T10:10:43Z</time>
      </trkpt>
      <trkpt lat="48.67038" lon="7.83226">
        <ele>131.2</ele>
        <time>2020-06-28T10:10:44Z</time>
      </trkpt>
      <trkpt lat="48.67035" lon="7.83223">
        <ele>131.2</ele>
        <time>2020-06-28T10:10:45Z</time>
      </trkpt>
      <trkpt lat="48.67032" lon="7.83218">
        <ele>131.2</ele>
        <time>2020-06-28T10:10:46Z</time>
      </trkpt>
      <trkpt lat="48.67029" lon="7.83212">
        <ele>131.2</ele>
        <time>2020-06-28T10:10:47Z</time>
      </trkpt>
      <trkpt lat="48.67026" lon="7.83205">
        <ele>131.2</ele>
        <time>2020-06-28T10:10:48Z</time>
      </trkpt>
      <trkpt lat="48.67022" lon="7.83197">
        <ele>131.2</ele>
        <time>2020-06-28T10:10:49Z</time>
      </trkpt>
      <trkpt lat="48.67019" lon="7.8319">
        <ele>131.2</ele>
        <time>2020-06-28T10:10:50Z</time>
      </trkpt>
      <trkpt lat="48.67016" lon="7.83184">
        <ele>131.2</ele>
        <time>2020-06-28T10:10:51Z</time>
      </trkpt>
      <trkpt lat="48.67012" lon="7.83176">
        <ele>131.2</ele>
        <time>2020-06-28T10:10:52Z</time>
      </trkpt>
      <trkpt lat="48.67009" lon="7.83169">
        <ele>131.2</ele>
        <time>2020-06-28T10:10:53Z</time>
      </trkpt>
      <trkpt lat="48.67006" lon="7.83162">
        <ele>131.2</ele>
        <time>2020-06-28T10:10:54Z</time>
      </trkpt>
      <trkpt lat="48.67003" lon="7.83155">
        <ele>131.2</ele>
        <time>2020-06-28T10:10:55Z</time>
      </trkpt>
      <trkpt lat="48.67" lon="7.83149">
        <ele>131.3</ele>
        <time>2020-06-28T10:10:56Z</time>
      </trkpt>
      <trkpt lat="48.66997" lon="7.83144">
        <ele>131.4</ele>
        <time>2020-06-28T10:10:57Z</time>
      </trkpt>
      <trkpt lat="48.66994" lon="7.83139">
        <ele>131.4</ele>
        <time>2020-06-28T10:10:58Z</time>
      </trkpt>
      <trkpt lat="48.66992" lon="7.83133">
        <ele>131.4</ele>
        <time>2020-06-28T10:10:59Z</time>
      </trkpt>
      <trkpt lat="48.66989" lon="7.83127">
        <ele>131.3</ele>
        <time>2020-06-28T10:11:00Z</time>
      </trkpt>
      <trkpt lat="48.66986" lon="7.83121">
        <ele>131.3</ele>
        <time>2020-06-28T10:11:01Z</time>
      </trkpt>
      <trkpt lat="48.66982" lon="7.83115">
        <ele>131.3</ele>
        <time>2020-06-28T10:11:02Z</time>
      </trkpt>
      <trkpt lat="48.6698" lon="7.83109">
        <ele>131.3</ele>
        <time>2020-06-28T10:11:03Z</time>
      </trkpt>
      <trkpt lat="48.66976" lon="7.83102">
        <ele>131.3</ele>
        <time>2020-06-28T10:11:04Z</time>
      </trkpt>
      <trkpt lat="48.66972" lon="7.83095">
        <ele>131.3</ele>
        <time>2020-06-28T10:11:05Z</time>
      </trkpt>
      <trkpt lat="48.66969" lon="7.83088">
        <ele>131.2</ele>
        <time>2020-06-28T10:11:06Z</time>
      </trkpt>
      <trkpt lat="48.66967" lon="7.83082">
        <ele>131.2</ele>
        <time>2020-06-28T10:11:07Z</time>
      </trkpt>
      <trkpt lat="48.66964" lon="7.83075">
        <ele>131.2</ele>
        <time>2020-06-28T10:11:08Z</time>
      </trkpt>
      <trkpt lat="48.6696" lon="7.83068">
        <ele>131.2</ele>
        <time>2020-06-28T10:11:09Z</time>
      </trkpt>
      <trkpt lat="48.66957" lon="7.83062">
        <ele>131.2</ele>
        <time>2020-06-28T10:11:10Z</time>
      </trkpt>
      <trkpt lat="48.66953" lon="7.83055">
        <ele>131.2</ele>
        <time>2020-06-28T10:11:11Z</time>
      </trkpt>
      <trkpt lat="48.6695" lon="7.83048">
        <ele>131.2</ele>
        <time>2020-06-28T10:11:12Z</time>
      </trkpt>
      <trkpt lat="48.66947" lon="7.83041">
        <ele>131.2</ele>
        <time>2020-06-28T10:11:13Z</time>
      </trkpt>
      <trkpt lat="48.66944" lon="7.83035">
        <ele>131.3</ele>
        <time>2020-06-28T10:11:14Z</time>
      </trkpt>
      <trkpt lat="48.66941" lon="7.83029">
        <ele>131.3</ele>
        <time>2020-06-28T10:11:15Z</time>
      </trkpt>
      <trkpt lat="48.66938" lon="7.83023">
        <ele>131.3</ele>
        <time>2020-06-28T10:11:16Z</time>
      </trkpt>
      <trkpt lat="48.66934" lon="7.83017">
        <ele>131.3</ele>
        <time>2020-06-28T10:11:17Z</time>
      </trkpt>
      <trkpt lat="48.66931" lon="7.8301">
        <ele>131.3</ele>
        <time>2020-06-28T10:11:18Z</time>
      </trkpt>
      <trkpt lat="48.66929" lon="7.83004">
        <ele>131.3</ele>
        <time>2020-06-28T10:11:19Z</time>
      </trkpt>
      <trkpt lat="48.66926" lon="7.82997">
        <ele>131.3</ele>
        <time>2020-06-28T10:11:20Z</time>
      </trkpt>
      <trkpt lat="48.66922" lon="7.8299">
        <ele>131.3</ele>
        <time>2020-06-28T10:11:21Z</time>
      </trkpt>
      <trkpt lat="48.66919" lon="7.82984">
        <ele>131.3</ele>
        <time>2020-06-28T10:11:22Z</time>
      </trkpt>
      <trkpt lat="48.66915" lon="7.82978">
        <ele>131.3</ele>
        <time>2020-06-28T10:11:23Z</time>
      </trkpt>
      <trkpt lat="48.66912" lon="7.82972">
        <ele>131.4</ele>
        <time>2020-06-28T10:11:24Z</time>
      </trkpt>
      <trkpt lat="48.66908" lon="7.82966">
        <ele>131.4</ele>
        <time>2020-06-28T10:11:25Z</time>
      </trkpt>
      <trkpt lat="48.66906" lon="7.8296">
        <ele>131.5</ele>
        <time>2020-06-28T10:11:26Z</time>
      </trkpt>
      <trkpt lat="48.66903" lon="7.82955">
        <ele>131.5</ele>
        <time>2020-06-28T10:11:27Z</time>
      </trkpt>
      <trkpt lat="48.669" lon="7.8295">
        <ele>131.6</ele>
        <time>2020-06-28T10:11:28Z</time>
      </trkpt>
      <trkpt lat="48.66898" lon="7.82944">
        <ele>131.6</ele>
        <time>2020-06-28T10:11:29Z</time>
      </trkpt>
      <trkpt lat="48.66895" lon="7.82937">
        <ele>131.6</ele>
        <time>2020-06-28T10:11:30Z</time>
      </trkpt>
      <trkpt lat="48.66893" lon="7.82931">
        <ele>131.6</ele>
        <time>2020-06-28T10:11:31Z</time>
      </trkpt>
      <trkpt lat="48.66891" lon="7.82924">
        <ele>131.6</ele>
        <time>2020-06-28T10:11:32Z</time>
      </trkpt>
      <trkpt lat="48.66888" lon="7.82919">
        <ele>131.6</ele>
        <time>2020-06-28T10:11:33Z</time>
      </trkpt>
      <trkpt lat="48.66885" lon="7.82912">
        <ele>131.6</ele>
        <time>2020-06-28T10:11:34Z</time>
      </trkpt>
      <trkpt lat="48.66882" lon="7.82906">
        <ele>131.6</ele>
        <time>2020-06-28T10:11:35Z</time>
      </trkpt>
      <trkpt lat="48.66879" lon="7.82899">
        <ele>131.7</ele>
        <time>2020-06-28T10:11:36Z</time>
      </trkpt>
      <trkpt lat="48.66875" lon="7.82894">
        <ele>131.7</ele>
        <time>2020-06-28T10:11:37Z</time>
      </trkpt>
      <trkpt lat="48.66873" lon="7.82887">
        <ele>131.7</ele>
        <time>2020-06-28T10:11:38Z</time>
      </trkpt>
      <trkpt lat="48.6687" lon="7.82881">
        <ele>131.7</ele>
        <time>2020-06-28T10:11:39Z</time>
      </trkpt>
      <trkpt lat="48.66867" lon="7.82876">
        <ele>131.8</ele>
        <time>2020-06-28T10:11:40Z</time>
      </trkpt>
      <trkpt lat="48.66864" lon="7.82871">
        <ele>131.8</ele>
        <time>2020-06-28T10:11:41Z</time>
      </trkpt>
      <trkpt lat="48.66861" lon="7.82866">
        <ele>131.9</ele>
        <time>2020-06-28T10:11:42Z</time>
      </trkpt>
      <trkpt lat="48.66858" lon="7.82861">
        <ele>131.9</ele>
        <time>2020-06-28T10:11:43Z</time>
      </trkpt>
      <trkpt lat="48.66855" lon="7.82856">
        <ele>131.9</ele>
        <time>2020-06-28T10:11:44Z</time>
      </trkpt>
      <trkpt lat="48.66852" lon="7.8285">
        <ele>131.9</ele>
        <time>2020-06-28T10:11:45Z</time>
      </trkpt>
      <trkpt lat="48.66851" lon="7.82843">
        <ele>132</ele>
        <time>2020-06-28T10:11:46Z</time>
      </trkpt>
      <trkpt lat="48.66851" lon="7.82835">
        <ele>132.3</ele>
        <time>2020-06-28T10:11:47Z</time>
      </trkpt>
      <trkpt lat="48.66851" lon="7.82827">
        <ele>132.2</ele>
        <time>2020-06-28T10:11:48Z</time>
      </trkpt>
      <trkpt lat="48.6685" lon="7.82821">
        <ele>132</ele>
        <time>2020-06-28T10:11:49Z</time>
      </trkpt>
      <trkpt lat="48.66848" lon="7.82815">
        <ele>131.8</ele>
        <time>2020-06-28T10:11:50Z</time>
      </trkpt>
      <trkpt lat="48.66844" lon="7.82809">
        <ele>131.7</ele>
        <time>2020-06-28T10:11:51Z</time>
      </trkpt>
      <trkpt lat="48.6684" lon="7.82805">
        <ele>131.7</ele>
        <time>2020-06-28T10:11:52Z</time>
      </trkpt>
      <trkpt lat="48.66835" lon="7.82801">
        <ele>131.7</ele>
        <time>2020-06-28T10:11:53Z</time>
      </trkpt>
      <trkpt lat="48.66831" lon="7.82799">
        <ele>131.6</ele>
        <time>2020-06-28T10:11:54Z</time>
      </trkpt>
      <trkpt lat="48.66827" lon="7.82795">
        <ele>131.6</ele>
        <time>2020-06-28T10:11:55Z</time>
      </trkpt>
      <trkpt lat="48.66822" lon="7.8279">
        <ele>131.6</ele>
        <time>2020-06-28T10:11:56Z</time>
      </trkpt>
      <trkpt lat="48.66819" lon="7.82784">
        <ele>131.5</ele>
        <time>2020-06-28T10:11:57Z</time>
      </trkpt>
      <trkpt lat="48.66816" lon="7.82778">
        <ele>131.5</ele>
        <time>2020-06-28T10:11:58Z</time>
      </trkpt>
      <trkpt lat="48.66812" lon="7.82772">
        <ele>131.5</ele>
        <time>2020-06-28T10:11:59Z</time>
      </trkpt>
      <trkpt lat="48.66808" lon="7.82766">
        <ele>131.5</ele>
        <time>2020-06-28T10:12:00Z</time>
      </trkpt>
      <trkpt lat="48.66805" lon="7.82759">
        <ele>131.4</ele>
        <time>2020-06-28T10:12:01Z</time>
      </trkpt>
      <trkpt lat="48.66802" lon="7.82753">
        <ele>131.4</ele>
        <time>2020-06-28T10:12:02Z</time>
      </trkpt>
      <trkpt lat="48.66799" lon="7.82747">
        <ele>131.4</ele>
        <time>2020-06-28T10:12:03Z</time>
      </trkpt>
      <trkpt lat="48.66795" lon="7.8274">
        <ele>131.4</ele>
        <time>2020-06-28T10:12:04Z</time>
      </trkpt>
      <trkpt lat="48.66792" lon="7.82734">
        <ele>131.5</ele>
        <time>2020-06-28T10:12:05Z</time>
      </trkpt>
      <trkpt lat="48.66788" lon="7.82728">
        <ele>131.5</ele>
        <time>2020-06-28T10:12:06Z</time>
      </trkpt>
      <trkpt lat="48.66785" lon="7.82721">
        <ele>131.5</ele>
        <time>2020-06-28T10:12:07Z</time>
      </trkpt>
      <trkpt lat="48.66781" lon="7.82716">
        <ele>131.5</ele>
        <time>2020-06-28T10:12:08Z</time>
      </trkpt>
      <trkpt lat="48.6678" lon="7.8271">
        <ele>131.5</ele>
        <time>2020-06-28T10:12:09Z</time>
      </trkpt>
      <trkpt lat="48.66776" lon="7.82704">
        <ele>131.5</ele>
        <time>2020-06-28T10:12:10Z</time>
      </trkpt>
      <trkpt lat="48.66773" lon="7.82699">
        <ele>131.5</ele>
        <time>2020-06-28T10:12:11Z</time>
      </trkpt>
      <trkpt lat="48.66769" lon="7.82694">
        <ele>131.5</ele>
        <time>2020-06-28T10:12:12Z</time>
      </trkpt>
      <trkpt lat="48.66766" lon="7.82687">
        <ele>131.5</ele>
        <time>2020-06-28T10:12:13Z</time>
      </trkpt>
      <trkpt lat="48.66762" lon="7.82681">
        <ele>131.5</ele>
        <time>2020-06-28T10:12:14Z</time>
      </trkpt>
      <trkpt lat="48.66759" lon="7.82674">
        <ele>131.5</ele>
        <time>2020-06-28T10:12:15Z</time>
      </trkpt>
      <trkpt lat="48.66755" lon="7.82667">
        <ele>131.4</ele>
        <time>2020-06-28T10:12:16Z</time>
      </trkpt>
      <trkpt lat="48.66752" lon="7.82659">
        <ele>131.4</ele>
        <time>2020-06-28T10:12:17Z</time>
      </trkpt>
      <trkpt lat="48.66748" lon="7.82651">
        <ele>131.4</ele>
        <time>2020-06-28T10:12:18Z</time>
      </trkpt>
      <trkpt lat="48.66745" lon="7.82643">
        <ele>131.4</ele>
        <time>2020-06-28T10:12:19Z</time>
      </trkpt>
      <trkpt lat="48.66742" lon="7.82636">
        <ele>131.3</ele>
        <time>2020-06-28T10:12:20Z</time>
      </trkpt>
      <trkpt lat="48.66738" lon="7.8263">
        <ele>131.3</ele>
        <time>2020-06-28T10:12:21Z</time>
      </trkpt>
      <trkpt lat="48.66735" lon="7.82624">
        <ele>131.3</ele>
        <time>2020-06-28T10:12:22Z</time>
      </trkpt>
      <trkpt lat="48.66731" lon="7.82617">
        <ele>131.2</ele>
        <time>2020-06-28T10:12:23Z</time>
      </trkpt>
      <trkpt lat="48.66727" lon="7.82611">
        <ele>131.2</ele>
        <time>2020-06-28T10:12:24Z</time>
      </trkpt>
      <trkpt lat="48.66724" lon="7.82604">
        <ele>131.2</ele>
        <time>2020-06-28T10:12:25Z</time>
      </trkpt>
      <trkpt lat="48.6672" lon="7.82597">
        <ele>131.2</ele>
        <time>2020-06-28T10:12:26Z</time>
      </trkpt>
      <trkpt lat="48.66717" lon="7.8259">
        <ele>131.2</ele>
        <time>2020-06-28T10:12:27Z</time>
      </trkpt>
      <trkpt lat="48.66713" lon="7.82583">
        <ele>131.2</ele>
        <time>2020-06-28T10:12:28Z</time>
      </trkpt>
      <trkpt lat="48.66709" lon="7.82575">
        <ele>131.2</ele>
        <time>2020-06-28T10:12:29Z</time>
      </trkpt>
      <trkpt lat="48.66705" lon="7.82568">
        <ele>131.2</ele>
        <time>2020-06-28T10:12:30Z</time>
      </trkpt>
      <trkpt lat="48.667" lon="7.82562">
        <ele>131.2</ele>
        <time>2020-06-28T10:12:31Z</time>
      </trkpt>
      <trkpt lat="48.66696" lon="7.82555">
        <ele>131.1</ele>
        <time>2020-06-28T10:12:32Z</time>
      </trkpt>
      <trkpt lat="48.66692" lon="7.82548">
        <ele>131.1</ele>
        <time>2020-06-28T10:12:33Z</time>
      </trkpt>
      <trkpt lat="48.66688" lon="7.82541">
        <ele>131.1</ele>
        <time>2020-06-28T10:12:34Z</time>
      </trkpt>
      <trkpt lat="48.66684" lon="7.82534">
        <ele>131.1</ele>
        <time>2020-06-28T10:12:35Z</time>
      </trkpt>
      <trkpt lat="48.66679" lon="7.82528">
        <ele>131.1</ele>
        <time>2020-06-28T10:12:36Z</time>
      </trkpt>
      <trkpt lat="48.66674" lon="7.82522">
        <ele>131.1</ele>
        <time>2020-06-28T10:12:37Z</time>
      </trkpt>
      <trkpt lat="48.66669" lon="7.82516">
        <ele>131.1</ele>
        <time>2020-06-28T10:12:38Z</time>
      </trkpt>
      <trkpt lat="48.66665" lon="7.82511">
        <ele>131.1</ele>
        <time>2020-06-28T10:12:39Z</time>
      </trkpt>
      <trkpt lat="48.66661" lon="7.82505">
        <ele>131.2</ele>
        <time>2020-06-28T10:12:40Z</time>
      </trkpt>
      <trkpt lat="48.66656" lon="7.82498">
        <ele>131.4</ele>
        <time>2020-06-28T10:12:41Z</time>
      </trkpt>
      <trkpt lat="48.6665" lon="7.82491">
        <ele>131.5</ele>
        <time>2020-06-28T10:12:42Z</time>
      </trkpt>
      <trkpt lat="48.66645" lon="7.82483">
        <ele>131.5</ele>
        <time>2020-06-28T10:12:43Z</time>
      </trkpt>
      <trkpt lat="48.6664" lon="7.82477">
        <ele>131.4</ele>
        <time>2020-06-28T10:12:44Z</time>
      </trkpt>
      <trkpt lat="48.66637" lon="7.8247">
        <ele>131.3</ele>
        <time>2020-06-28T10:12:45Z</time>
      </trkpt>
      <trkpt lat="48.66632" lon="7.82465">
        <ele>131.3</ele>
        <time>2020-06-28T10:12:46Z</time>
      </trkpt>
      <trkpt lat="48.66628" lon="7.82459">
        <ele>131.3</ele>
        <time>2020-06-28T10:12:47Z</time>
      </trkpt>
      <trkpt lat="48.66624" lon="7.82453">
        <ele>131.2</ele>
        <time>2020-06-28T10:12:48Z</time>
      </trkpt>
      <trkpt lat="48.6662" lon="7.82446">
        <ele>131.2</ele>
        <time>2020-06-28T10:12:49Z</time>
      </trkpt>
      <trkpt lat="48.66617" lon="7.8244">
        <ele>131.3</ele>
        <time>2020-06-28T10:12:50Z</time>
      </trkpt>
      <trkpt lat="48.66611" lon="7.82434">
        <ele>131.3</ele>
        <time>2020-06-28T10:12:51Z</time>
      </trkpt>
      <trkpt lat="48.66607" lon="7.82428">
        <ele>131.3</ele>
        <time>2020-06-28T10:12:52Z</time>
      </trkpt>
      <trkpt lat="48.66601" lon="7.82422">
        <ele>131.3</ele>
        <time>2020-06-28T10:12:53Z</time>
      </trkpt>
      <trkpt lat="48.66596" lon="7.82416">
        <ele>131.4</ele>
        <time>2020-06-28T10:12:54Z</time>
      </trkpt>
      <trkpt lat="48.66593" lon="7.82411">
        <ele>131.4</ele>
        <time>2020-06-28T10:12:55Z</time>
      </trkpt>
      <trkpt lat="48.66589" lon="7.82406">
        <ele>131.4</ele>
        <time>2020-06-28T10:12:56Z</time>
      </trkpt>
      <trkpt lat="48.66585" lon="7.82399">
        <ele>131.4</ele>
        <time>2020-06-28T10:12:57Z</time>
      </trkpt>
      <trkpt lat="48.66581" lon="7.82392">
        <ele>131.5</ele>
        <time>2020-06-28T10:12:58Z</time>
      </trkpt>
      <trkpt lat="48.66577" lon="7.82384">
        <ele>131.5</ele>
        <time>2020-06-28T10:12:59Z</time>
      </trkpt>
      <trkpt lat="48.66573" lon="7.82377">
        <ele>131.6</ele>
        <time>2020-06-28T10:13:00Z</time>
      </trkpt>
      <trkpt lat="48.6657" lon="7.82371">
        <ele>131.6</ele>
        <time>2020-06-28T10:13:01Z</time>
      </trkpt>
      <trkpt lat="48.66565" lon="7.82367">
        <ele>131.6</ele>
        <time>2020-06-28T10:13:02Z</time>
      </trkpt>
      <trkpt lat="48.66561" lon="7.82362">
        <ele>131.7</ele>
        <time>2020-06-28T10:13:03Z</time>
      </trkpt>
      <trkpt lat="48.66557" lon="7.82358">
        <ele>131.7</ele>
        <time>2020-06-28T10:13:04Z</time>
      </trkpt>
      <trkpt lat="48.66554" lon="7.82354">
        <ele>131.7</ele>
        <time>2020-06-28T10:13:05Z</time>
      </trkpt>
      <trkpt lat="48.66551" lon="7.82349">
        <ele>131.7</ele>
        <time>2020-06-28T10:13:06Z</time>
      </trkpt>
      <trkpt lat="48.66549" lon="7.82343">
        <ele>131.7</ele>
        <time>2020-06-28T10:13:07Z</time>
      </trkpt>
      <trkpt lat="48.66547" lon="7.82337">
        <ele>131.7</ele>
        <time>2020-06-28T10:13:08Z</time>
      </trkpt>
      <trkpt lat="48.66547" lon="7.8233">
        <ele>131.8</ele>
        <time>2020-06-28T10:13:09Z</time>
      </trkpt>
      <trkpt lat="48.66547" lon="7.82323">
        <ele>131.8</ele>
        <time>2020-06-28T10:13:10Z</time>
      </trkpt>
      <trkpt lat="48.66545" lon="7.82316">
        <ele>131.9</ele>
        <time>2020-06-28T10:13:11Z</time>
      </trkpt>
      <trkpt lat="48.66541" lon="7.8231">
        <ele>131.9</ele>
        <time>2020-06-28T10:13:12Z</time>
      </trkpt>
      <trkpt lat="48.66538" lon="7.82309">
        <ele>131.9</ele>
        <time>2020-06-28T10:13:13Z</time>
      </trkpt>
      <trkpt lat="48.66534" lon="7.82307">
        <ele>131.9</ele>
        <time>2020-06-28T10:13:14Z</time>
      </trkpt>
      <trkpt lat="48.6653" lon="7.82307">
        <ele>132</ele>
        <time>2020-06-28T10:13:15Z</time>
      </trkpt>
      <trkpt lat="48.66527" lon="7.82309">
        <ele>132</ele>
        <time>2020-06-28T10:13:16Z</time>
      </trkpt>
      <trkpt lat="48.66524" lon="7.82313">
        <ele>132</ele>
        <time>2020-06-28T10:13:17Z</time>
      </trkpt>
      <trkpt lat="48.66522" lon="7.82317">
        <ele>132</ele>
        <time>2020-06-28T10:13:18Z</time>
      </trkpt>
      <trkpt lat="48.6652" lon="7.82321">
        <ele>132.1</ele>
        <time>2020-06-28T10:13:19Z</time>
      </trkpt>
      <trkpt lat="48.66518" lon="7.82324">
        <ele>132</ele>
        <time>2020-06-28T10:13:20Z</time>
      </trkpt>
      <trkpt lat="48.66516" lon="7.82327">
        <ele>132</ele>
        <time>2020-06-28T10:13:21Z</time>
      </trkpt>
      <trkpt lat="48.66513" lon="7.8233">
        <ele>131.9</ele>
        <time>2020-06-28T10:13:22Z</time>
      </trkpt>
      <trkpt lat="48.66511" lon="7.82334">
        <ele>131.9</ele>
        <time>2020-06-28T10:13:23Z</time>
      </trkpt>
      <trkpt lat="48.66509" lon="7.82338">
        <ele>131.9</ele>
        <time>2020-06-28T10:13:24Z</time>
      </trkpt>
      <trkpt lat="48.66506" lon="7.82341">
        <ele>131.9</ele>
        <time>2020-06-28T10:13:25Z</time>
      </trkpt>
      <trkpt lat="48.66503" lon="7.82342">
        <ele>131.9</ele>
        <time>2020-06-28T10:13:26Z</time>
      </trkpt>
      <trkpt lat="48.665" lon="7.82342">
        <ele>131.9</ele>
        <time>2020-06-28T10:13:27Z</time>
      </trkpt>
      <trkpt lat="48.66496" lon="7.82339">
        <ele>131.9</ele>
        <time>2020-06-28T10:13:28Z</time>
      </trkpt>
      <trkpt lat="48.66493" lon="7.82337">
        <ele>131.9</ele>
        <time>2020-06-28T10:13:29Z</time>
      </trkpt>
      <trkpt lat="48.66491" lon="7.82332">
        <ele>131.8</ele>
        <time>2020-06-28T10:13:30Z</time>
      </trkpt>
      <trkpt lat="48.6649" lon="7.82327">
        <ele>131.8</ele>
        <time>2020-06-28T10:13:31Z</time>
      </trkpt>
      <trkpt lat="48.66489" lon="7.82325">
        <ele>131.8</ele>
        <time>2020-06-28T10:13:32Z</time>
      </trkpt>
      <trkpt lat="48.66487" lon="7.8232">
        <ele>131.8</ele>
        <time>2020-06-28T10:13:33Z</time>
      </trkpt>
      <trkpt lat="48.66487" lon="7.82319">
        <ele>131.8</ele>
        <time>2020-06-28T10:13:34Z</time>
      </trkpt>
      <trkpt lat="48.66484" lon="7.82313">
        <ele>131.7</ele>
        <time>2020-06-28T10:13:35Z</time>
      </trkpt>
      <trkpt lat="48.66484" lon="7.82311">
        <ele>131.7</ele>
        <time>2020-06-28T10:13:36Z</time>
      </trkpt>
      <trkpt lat="48.66482" lon="7.82307">
        <ele>131.7</ele>
        <time>2020-06-28T10:13:37Z</time>
      </trkpt>
      <trkpt lat="48.66481" lon="7.82305">
        <ele>131.7</ele>
        <time>2020-06-28T10:13:38Z</time>
      </trkpt>
      <trkpt lat="48.66481" lon="7.82305">
        <ele>131.7</ele>
        <time>2020-06-28T10:13:39Z</time>
      </trkpt>
      <trkpt lat="48.6648" lon="7.82303">
        <ele>131.7</ele>
        <time>2020-06-28T10:13:40Z</time>
      </trkpt>
      <trkpt lat="48.6648" lon="7.82302">
        <ele>131.7</ele>
        <time>2020-06-28T10:13:41Z</time>
      </trkpt>
      <trkpt lat="48.66479" lon="7.82301">
        <ele>131.7</ele>
        <time>2020-06-28T10:13:42Z</time>
      </trkpt>
      <trkpt lat="48.66479" lon="7.823">
        <ele>131.7</ele>
        <time>2020-06-28T10:13:43Z</time>
      </trkpt>
      <trkpt lat="48.66477" lon="7.82294">
        <ele>131.7</ele>
        <time>2020-06-28T10:13:44Z</time>
      </trkpt>
      <trkpt lat="48.66475" lon="7.8229">
        <ele>131.7</ele>
        <time>2020-06-28T10:13:45Z</time>
      </trkpt>
      <trkpt lat="48.66472" lon="7.82286">
        <ele>131.7</ele>
        <time>2020-06-28T10:13:46Z</time>
      </trkpt>
      <trkpt lat="48.6647" lon="7.82281">
        <ele>131.7</ele>
        <time>2020-06-28T10:13:47Z</time>
      </trkpt>
      <trkpt lat="48.66469" lon="7.82279">
        <ele>131.7</ele>
        <time>2020-06-28T10:13:48Z</time>
      </trkpt>
      <trkpt lat="48.66465" lon="7.82273">
        <ele>131.7</ele>
        <time>2020-06-28T10:13:49Z</time>
      </trkpt>
      <trkpt lat="48.66462" lon="7.82267">
        <ele>131.7</ele>
        <time>2020-06-28T10:13:50Z</time>
      </trkpt>
      <trkpt lat="48.66458" lon="7.82261">
        <ele>131.7</ele>
        <time>2020-06-28T10:13:51Z</time>
      </trkpt>
      <trkpt lat="48.66454" lon="7.82255">
        <ele>131.7</ele>
        <time>2020-06-28T10:13:52Z</time>
      </trkpt>
      <trkpt lat="48.66451" lon="7.82248">
        <ele>131.7</ele>
        <time>2020-06-28T10:13:53Z</time>
      </trkpt>
      <trkpt lat="48.66447" lon="7.82243">
        <ele>131.7</ele>
        <time>2020-06-28T10:13:54Z</time>
      </trkpt>
      <trkpt lat="48.66443" lon="7.8224">
        <ele>131.8</ele>
        <time>2020-06-28T10:13:55Z</time>
      </trkpt>
      <trkpt lat="48.66439" lon="7.82235">
        <ele>131.8</ele>
        <time>2020-06-28T10:13:56Z</time>
      </trkpt>
      <trkpt lat="48.66434" lon="7.8223">
        <ele>131.8</ele>
        <time>2020-06-28T10:13:57Z</time>
      </trkpt>
      <trkpt lat="48.6643" lon="7.82229">
        <ele>131.9</ele>
        <time>2020-06-28T10:13:58Z</time>
      </trkpt>
      <trkpt lat="48.66424" lon="7.82229">
        <ele>131.9</ele>
        <time>2020-06-28T10:13:59Z</time>
      </trkpt>
      <trkpt lat="48.66418" lon="7.8223">
        <ele>132</ele>
        <time>2020-06-28T10:14:00Z</time>
      </trkpt>
      <trkpt lat="48.66413" lon="7.82231">
        <ele>132</ele>
        <time>2020-06-28T10:14:01Z</time>
      </trkpt>
      <trkpt lat="48.66408" lon="7.82231">
        <ele>131.9</ele>
        <time>2020-06-28T10:14:02Z</time>
      </trkpt>
      <trkpt lat="48.66404" lon="7.82232">
        <ele>131.9</ele>
        <time>2020-06-28T10:14:03Z</time>
      </trkpt>
      <trkpt lat="48.664" lon="7.82232">
        <ele>131.8</ele>
        <time>2020-06-28T10:14:04Z</time>
      </trkpt>
      <trkpt lat="48.66396" lon="7.82233">
        <ele>131.8</ele>
        <time>2020-06-28T10:14:05Z</time>
      </trkpt>
      <trkpt lat="48.66392" lon="7.82234">
        <ele>131.7</ele>
        <time>2020-06-28T10:14:06Z</time>
      </trkpt>
      <trkpt lat="48.66387" lon="7.82234">
        <ele>131.8</ele>
        <time>2020-06-28T10:14:07Z</time>
      </trkpt>
      <trkpt lat="48.66382" lon="7.82235">
        <ele>131.8</ele>
        <time>2020-06-28T10:14:08Z</time>
      </trkpt>
      <trkpt lat="48.66378" lon="7.82235">
        <ele>131.8</ele>
        <time>2020-06-28T10:14:09Z</time>
      </trkpt>
      <trkpt lat="48.66374" lon="7.82236">
        <ele>131.8</ele>
        <time>2020-06-28T10:14:10Z</time>
      </trkpt>
      <trkpt lat="48.6637" lon="7.82236">
        <ele>131.8</ele>
        <time>2020-06-28T10:14:11Z</time>
      </trkpt>
      <trkpt lat="48.66366" lon="7.82236">
        <ele>131.8</ele>
        <time>2020-06-28T10:14:12Z</time>
      </trkpt>
      <trkpt lat="48.66362" lon="7.82236">
        <ele>131.8</ele>
        <time>2020-06-28T10:14:13Z</time>
      </trkpt>
      <trkpt lat="48.66357" lon="7.82236">
        <ele>131.9</ele>
        <time>2020-06-28T10:14:14Z</time>
      </trkpt>
      <trkpt lat="48.66353" lon="7.82236">
        <ele>131.9</ele>
        <time>2020-06-28T10:14:15Z</time>
      </trkpt>
      <trkpt lat="48.66348" lon="7.82233">
        <ele>131.9</ele>
        <time>2020-06-28T10:14:16Z</time>
      </trkpt>
      <trkpt lat="48.66343" lon="7.82232">
        <ele>131.9</ele>
        <time>2020-06-28T10:14:17Z</time>
      </trkpt>
      <trkpt lat="48.66337" lon="7.82231">
        <ele>131.9</ele>
        <time>2020-06-28T10:14:18Z</time>
      </trkpt>
      <trkpt lat="48.66331" lon="7.8223">
        <ele>131.9</ele>
        <time>2020-06-28T10:14:19Z</time>
      </trkpt>
      <trkpt lat="48.66326" lon="7.82229">
        <ele>131.9</ele>
        <time>2020-06-28T10:14:20Z</time>
      </trkpt>
      <trkpt lat="48.66319" lon="7.82227">
        <ele>131.9</ele>
        <time>2020-06-28T10:14:21Z</time>
      </trkpt>
      <trkpt lat="48.66313" lon="7.82224">
        <ele>131.9</ele>
        <time>2020-06-28T10:14:22Z</time>
      </trkpt>
      <trkpt lat="48.66307" lon="7.82222">
        <ele>131.9</ele>
        <time>2020-06-28T10:14:23Z</time>
      </trkpt>
      <trkpt lat="48.66301" lon="7.82219">
        <ele>131.9</ele>
        <time>2020-06-28T10:14:24Z</time>
      </trkpt>
      <trkpt lat="48.66295" lon="7.82218">
        <ele>131.9</ele>
        <time>2020-06-28T10:14:25Z</time>
      </trkpt>
      <trkpt lat="48.66289" lon="7.82216">
        <ele>131.9</ele>
        <time>2020-06-28T10:14:26Z</time>
      </trkpt>
      <trkpt lat="48.66283" lon="7.82213">
        <ele>131.9</ele>
        <time>2020-06-28T10:14:27Z</time>
      </trkpt>
      <trkpt lat="48.66277" lon="7.82211">
        <ele>131.9</ele>
        <time>2020-06-28T10:14:28Z</time>
      </trkpt>
      <trkpt lat="48.66271" lon="7.8221">
        <ele>131.8</ele>
        <time>2020-06-28T10:14:29Z</time>
      </trkpt>
      <trkpt lat="48.66265" lon="7.82208">
        <ele>131.8</ele>
        <time>2020-06-28T10:14:30Z</time>
      </trkpt>
      <trkpt lat="48.6626" lon="7.82205">
        <ele>131.8</ele>
        <time>2020-06-28T10:14:31Z</time>
      </trkpt>
      <trkpt lat="48.66254" lon="7.82202">
        <ele>131.9</ele>
        <time>2020-06-28T10:14:32Z</time>
      </trkpt>
      <trkpt lat="48.66248" lon="7.822">
        <ele>131.9</ele>
        <time>2020-06-28T10:14:33Z</time>
      </trkpt>
      <trkpt lat="48.66243" lon="7.82198">
        <ele>132</ele>
        <time>2020-06-28T10:14:34Z</time>
      </trkpt>
      <trkpt lat="48.66238" lon="7.82197">
        <ele>132</ele>
        <time>2020-06-28T10:14:35Z</time>
      </trkpt>
      <trkpt lat="48.66234" lon="7.82194">
        <ele>132</ele>
        <time>2020-06-28T10:14:36Z</time>
      </trkpt>
      <trkpt lat="48.66228" lon="7.82193">
        <ele>132</ele>
        <time>2020-06-28T10:14:37Z</time>
      </trkpt>
      <trkpt lat="48.66223" lon="7.82191">
        <ele>132</ele>
        <time>2020-06-28T10:14:38Z</time>
      </trkpt>
      <trkpt lat="48.66217" lon="7.82189">
        <ele>131.9</ele>
        <time>2020-06-28T10:14:39Z</time>
      </trkpt>
      <trkpt lat="48.66212" lon="7.82189">
        <ele>131.9</ele>
        <time>2020-06-28T10:14:40Z</time>
      </trkpt>
      <trkpt lat="48.66207" lon="7.82188">
        <ele>131.8</ele>
        <time>2020-06-28T10:14:41Z</time>
      </trkpt>
      <trkpt lat="48.66203" lon="7.82186">
        <ele>131.8</ele>
        <time>2020-06-28T10:14:42Z</time>
      </trkpt>
      <trkpt lat="48.66199" lon="7.82185">
        <ele>131.8</ele>
        <time>2020-06-28T10:14:43Z</time>
      </trkpt>
      <trkpt lat="48.66195" lon="7.82183">
        <ele>131.8</ele>
        <time>2020-06-28T10:14:44Z</time>
      </trkpt>
      <trkpt lat="48.6619" lon="7.82181">
        <ele>131.8</ele>
        <time>2020-06-28T10:14:45Z</time>
      </trkpt>
      <trkpt lat="48.66184" lon="7.8218">
        <ele>131.8</ele>
        <time>2020-06-28T10:14:46Z</time>
      </trkpt>
      <trkpt lat="48.6618" lon="7.82179">
        <ele>131.8</ele>
        <time>2020-06-28T10:14:47Z</time>
      </trkpt>
      <trkpt lat="48.66175" lon="7.82177">
        <ele>131.8</ele>
        <time>2020-06-28T10:14:48Z</time>
      </trkpt>
      <trkpt lat="48.66169" lon="7.82176">
        <ele>131.8</ele>
        <time>2020-06-28T10:14:49Z</time>
      </trkpt>
      <trkpt lat="48.66165" lon="7.82175">
        <ele>131.8</ele>
        <time>2020-06-28T10:14:50Z</time>
      </trkpt>
      <trkpt lat="48.6616" lon="7.82173">
        <ele>131.8</ele>
        <time>2020-06-28T10:14:51Z</time>
      </trkpt>
      <trkpt lat="48.66157" lon="7.82169">
        <ele>131.8</ele>
        <time>2020-06-28T10:14:52Z</time>
      </trkpt>
      <trkpt lat="48.66154" lon="7.82167">
        <ele>131.8</ele>
        <time>2020-06-28T10:14:53Z</time>
      </trkpt>
      <trkpt lat="48.66151" lon="7.82164">
        <ele>131.8</ele>
        <time>2020-06-28T10:14:54Z</time>
      </trkpt>
      <trkpt lat="48.66151" lon="7.82163">
        <ele>131.8</ele>
        <time>2020-06-28T10:14:55Z</time>
      </trkpt>
      <trkpt lat="48.66149" lon="7.82161">
        <ele>131.8</ele>
        <time>2020-06-28T10:14:56Z</time>
      </trkpt>
      <trkpt lat="48.66148" lon="7.8216">
        <ele>131.8</ele>
        <time>2020-06-28T10:14:57Z</time>
      </trkpt>
      <trkpt lat="48.66147" lon="7.8216">
        <ele>131.8</ele>
        <time>2020-06-28T10:14:58Z</time>
      </trkpt>
      <trkpt lat="48.66147" lon="7.82159">
        <ele>131.8</ele>
        <time>2020-06-28T10:14:59Z</time>
      </trkpt>
      <trkpt lat="48.66146" lon="7.82159">
        <ele>131.8</ele>
        <time>2020-06-28T10:15:00Z</time>
      </trkpt>
      <trkpt lat="48.66146" lon="7.82158">
        <ele>131.8</ele>
        <time>2020-06-28T10:15:01Z</time>
      </trkpt>
      <trkpt lat="48.66145" lon="7.82158">
        <ele>131.8</ele>
        <time>2020-06-28T10:15:02Z</time>
      </trkpt>
      <trkpt lat="48.66144" lon="7.82157">
        <ele>131.8</ele>
        <time>2020-06-28T10:15:03Z</time>
      </trkpt>
      <trkpt lat="48.66144" lon="7.82157">
        <ele>131.8</ele>
        <time>2020-06-28T10:15:04Z</time>
      </trkpt>
      <trkpt lat="48.66143" lon="7.82156">
        <ele>131.8</ele>
        <time>2020-06-28T10:15:05Z</time>
      </trkpt>
      <trkpt lat="48.66143" lon="7.82156">
        <ele>131.8</ele>
        <time>2020-06-28T10:15:06Z</time>
      </trkpt>
      <trkpt lat="48.66142" lon="7.82155">
        <ele>131.8</ele>
        <time>2020-06-28T10:15:07Z</time>
      </trkpt>
      <trkpt lat="48.66142" lon="7.82154">
        <ele>131.7</ele>
        <time>2020-06-28T10:15:08Z</time>
      </trkpt>
      <trkpt lat="48.66141" lon="7.82154">
        <ele>131.7</ele>
        <time>2020-06-28T10:15:52Z</time>
      </trkpt>
      <trkpt lat="48.6614" lon="7.82153">
        <ele>131.7</ele>
        <time>2020-06-28T10:15:53Z</time>
      </trkpt>
      <trkpt lat="48.66137" lon="7.82149">
        <ele>131.7</ele>
        <time>2020-06-28T10:15:54Z</time>
      </trkpt>
      <trkpt lat="48.66134" lon="7.82146">
        <ele>131.7</ele>
        <time>2020-06-28T10:15:55Z</time>
      </trkpt>
      <trkpt lat="48.6613" lon="7.82141">
        <ele>131.7</ele>
        <time>2020-06-28T10:15:56Z</time>
      </trkpt>
      <trkpt lat="48.66127" lon="7.82138">
        <ele>131.7</ele>
        <time>2020-06-28T10:15:57Z</time>
      </trkpt>
      <trkpt lat="48.66123" lon="7.82136">
        <ele>131.7</ele>
        <time>2020-06-28T10:15:58Z</time>
      </trkpt>
      <trkpt lat="48.66118" lon="7.82131">
        <ele>131.7</ele>
        <time>2020-06-28T10:15:59Z</time>
      </trkpt>
      <trkpt lat="48.66114" lon="7.82125">
        <ele>131.7</ele>
        <time>2020-06-28T10:16:00Z</time>
      </trkpt>
      <trkpt lat="48.6611" lon="7.82121">
        <ele>131.7</ele>
        <time>2020-06-28T10:16:01Z</time>
      </trkpt>
      <trkpt lat="48.66106" lon="7.82115">
        <ele>131.7</ele>
        <time>2020-06-28T10:16:02Z</time>
      </trkpt>
      <trkpt lat="48.66102" lon="7.82111">
        <ele>131.7</ele>
        <time>2020-06-28T10:16:03Z</time>
      </trkpt>
      <trkpt lat="48.66099" lon="7.82106">
        <ele>131.7</ele>
        <time>2020-06-28T10:16:04Z</time>
      </trkpt>
      <trkpt lat="48.66094" lon="7.82099">
        <ele>131.6</ele>
        <time>2020-06-28T10:16:05Z</time>
      </trkpt>
      <trkpt lat="48.6609" lon="7.82093">
        <ele>131.6</ele>
        <time>2020-06-28T10:16:06Z</time>
      </trkpt>
      <trkpt lat="48.66087" lon="7.82086">
        <ele>131.6</ele>
        <time>2020-06-28T10:16:07Z</time>
      </trkpt>
      <trkpt lat="48.66083" lon="7.8208">
        <ele>131.6</ele>
        <time>2020-06-28T10:16:08Z</time>
      </trkpt>
      <trkpt lat="48.66079" lon="7.82075">
        <ele>131.6</ele>
        <time>2020-06-28T10:16:09Z</time>
      </trkpt>
      <trkpt lat="48.66074" lon="7.8207">
        <ele>131.6</ele>
        <time>2020-06-28T10:16:10Z</time>
      </trkpt>
      <trkpt lat="48.6607" lon="7.82064">
        <ele>131.6</ele>
        <time>2020-06-28T10:16:11Z</time>
      </trkpt>
      <trkpt lat="48.66066" lon="7.82059">
        <ele>131.5</ele>
        <time>2020-06-28T10:16:12Z</time>
      </trkpt>
      <trkpt lat="48.66062" lon="7.82054">
        <ele>131.5</ele>
        <time>2020-06-28T10:16:13Z</time>
      </trkpt>
      <trkpt lat="48.66058" lon="7.82049">
        <ele>131.5</ele>
        <time>2020-06-28T10:16:14Z</time>
      </trkpt>
      <trkpt lat="48.66054" lon="7.82045">
        <ele>131.4</ele>
        <time>2020-06-28T10:16:15Z</time>
      </trkpt>
      <trkpt lat="48.66051" lon="7.8204">
        <ele>131.4</ele>
        <time>2020-06-28T10:16:16Z</time>
      </trkpt>
      <trkpt lat="48.66047" lon="7.82037">
        <ele>131.4</ele>
        <time>2020-06-28T10:16:17Z</time>
      </trkpt>
      <trkpt lat="48.66044" lon="7.82033">
        <ele>131.4</ele>
        <time>2020-06-28T10:16:18Z</time>
      </trkpt>
      <trkpt lat="48.66041" lon="7.82029">
        <ele>131.4</ele>
        <time>2020-06-28T10:16:19Z</time>
      </trkpt>
      <trkpt lat="48.66038" lon="7.82026">
        <ele>131.3</ele>
        <time>2020-06-28T10:16:20Z</time>
      </trkpt>
      <trkpt lat="48.66035" lon="7.82022">
        <ele>131.3</ele>
        <time>2020-06-28T10:16:21Z</time>
      </trkpt>
      <trkpt lat="48.66032" lon="7.82018">
        <ele>131.3</ele>
        <time>2020-06-28T10:16:22Z</time>
      </trkpt>
      <trkpt lat="48.66029" lon="7.82013">
        <ele>131.3</ele>
        <time>2020-06-28T10:16:23Z</time>
      </trkpt>
      <trkpt lat="48.66025" lon="7.82008">
        <ele>131.3</ele>
        <time>2020-06-28T10:16:24Z</time>
      </trkpt>
      <trkpt lat="48.66022" lon="7.82002">
        <ele>131.3</ele>
        <time>2020-06-28T10:16:25Z</time>
      </trkpt>
      <trkpt lat="48.66018" lon="7.81997">
        <ele>131.3</ele>
        <time>2020-06-28T10:16:26Z</time>
      </trkpt>
      <trkpt lat="48.66014" lon="7.81992">
        <ele>131.3</ele>
        <time>2020-06-28T10:16:27Z</time>
      </trkpt>
      <trkpt lat="48.6601" lon="7.81987">
        <ele>131.3</ele>
        <time>2020-06-28T10:16:28Z</time>
      </trkpt>
      <trkpt lat="48.66006" lon="7.81981">
        <ele>131.3</ele>
        <time>2020-06-28T10:16:29Z</time>
      </trkpt>
      <trkpt lat="48.66001" lon="7.81975">
        <ele>131.3</ele>
        <time>2020-06-28T10:16:30Z</time>
      </trkpt>
      <trkpt lat="48.65997" lon="7.8197">
        <ele>131.4</ele>
        <time>2020-06-28T10:16:31Z</time>
      </trkpt>
      <trkpt lat="48.65992" lon="7.81964">
        <ele>131.4</ele>
        <time>2020-06-28T10:16:32Z</time>
      </trkpt>
      <trkpt lat="48.65988" lon="7.81958">
        <ele>131.5</ele>
        <time>2020-06-28T10:16:33Z</time>
      </trkpt>
      <trkpt lat="48.65984" lon="7.81953">
        <ele>131.5</ele>
        <time>2020-06-28T10:16:34Z</time>
      </trkpt>
      <trkpt lat="48.65979" lon="7.81948">
        <ele>131.6</ele>
        <time>2020-06-28T10:16:35Z</time>
      </trkpt>
      <trkpt lat="48.65974" lon="7.81942">
        <ele>131.6</ele>
        <time>2020-06-28T10:16:36Z</time>
      </trkpt>
      <trkpt lat="48.6597" lon="7.81936">
        <ele>131.7</ele>
        <time>2020-06-28T10:16:37Z</time>
      </trkpt>
      <trkpt lat="48.65966" lon="7.8193">
        <ele>131.6</ele>
        <time>2020-06-28T10:16:38Z</time>
      </trkpt>
      <trkpt lat="48.65962" lon="7.81926">
        <ele>131.5</ele>
        <time>2020-06-28T10:16:39Z</time>
      </trkpt>
      <trkpt lat="48.65958" lon="7.81921">
        <ele>131.4</ele>
        <time>2020-06-28T10:16:40Z</time>
      </trkpt>
      <trkpt lat="48.65954" lon="7.81916">
        <ele>131.4</ele>
        <time>2020-06-28T10:16:41Z</time>
      </trkpt>
      <trkpt lat="48.6595" lon="7.8191">
        <ele>131.3</ele>
        <time>2020-06-28T10:16:42Z</time>
      </trkpt>
      <trkpt lat="48.65945" lon="7.81905">
        <ele>131.2</ele>
        <time>2020-06-28T10:16:43Z</time>
      </trkpt>
      <trkpt lat="48.6594" lon="7.819">
        <ele>131.2</ele>
        <time>2020-06-28T10:16:44Z</time>
      </trkpt>
      <trkpt lat="48.65936" lon="7.81895">
        <ele>131.2</ele>
        <time>2020-06-28T10:16:45Z</time>
      </trkpt>
      <trkpt lat="48.65933" lon="7.8189">
        <ele>131.2</ele>
        <time>2020-06-28T10:16:46Z</time>
      </trkpt>
      <trkpt lat="48.65929" lon="7.81885">
        <ele>131.2</ele>
        <time>2020-06-28T10:16:47Z</time>
      </trkpt>
      <trkpt lat="48.65926" lon="7.81881">
        <ele>131.2</ele>
        <time>2020-06-28T10:16:48Z</time>
      </trkpt>
      <trkpt lat="48.65923" lon="7.81877">
        <ele>131.2</ele>
        <time>2020-06-28T10:16:49Z</time>
      </trkpt>
      <trkpt lat="48.6592" lon="7.81873">
        <ele>131.2</ele>
        <time>2020-06-28T10:16:50Z</time>
      </trkpt>
      <trkpt lat="48.65916" lon="7.81868">
        <ele>131.2</ele>
        <time>2020-06-28T10:16:51Z</time>
      </trkpt>
      <trkpt lat="48.65912" lon="7.81864">
        <ele>131.2</ele>
        <time>2020-06-28T10:16:52Z</time>
      </trkpt>
      <trkpt lat="48.65908" lon="7.81859">
        <ele>131.1</ele>
        <time>2020-06-28T10:16:53Z</time>
      </trkpt>
      <trkpt lat="48.65904" lon="7.81854">
        <ele>131.1</ele>
        <time>2020-06-28T10:16:54Z</time>
      </trkpt>
      <trkpt lat="48.65901" lon="7.81848">
        <ele>131.1</ele>
        <time>2020-06-28T10:16:55Z</time>
      </trkpt>
      <trkpt lat="48.65897" lon="7.81843">
        <ele>131.1</ele>
        <time>2020-06-28T10:16:56Z</time>
      </trkpt>
      <trkpt lat="48.65894" lon="7.81837">
        <ele>131.1</ele>
        <time>2020-06-28T10:16:57Z</time>
      </trkpt>
      <trkpt lat="48.65891" lon="7.81832">
        <ele>131</ele>
        <time>2020-06-28T10:16:58Z</time>
      </trkpt>
      <trkpt lat="48.65888" lon="7.81827">
        <ele>131.1</ele>
        <time>2020-06-28T10:16:59Z</time>
      </trkpt>
      <trkpt lat="48.65885" lon="7.81822">
        <ele>131.2</ele>
        <time>2020-06-28T10:17:00Z</time>
      </trkpt>
      <trkpt lat="48.65881" lon="7.81817">
        <ele>131.3</ele>
        <time>2020-06-28T10:17:01Z</time>
      </trkpt>
      <trkpt lat="48.65878" lon="7.81812">
        <ele>131.3</ele>
        <time>2020-06-28T10:17:02Z</time>
      </trkpt>
      <trkpt lat="48.65874" lon="7.81807">
        <ele>131.3</ele>
        <time>2020-06-28T10:17:03Z</time>
      </trkpt>
      <trkpt lat="48.6587" lon="7.81802">
        <ele>131.3</ele>
        <time>2020-06-28T10:17:04Z</time>
      </trkpt>
      <trkpt lat="48.65866" lon="7.81797">
        <ele>131.2</ele>
        <time>2020-06-28T10:17:05Z</time>
      </trkpt>
      <trkpt lat="48.65863" lon="7.81793">
        <ele>131.2</ele>
        <time>2020-06-28T10:17:06Z</time>
      </trkpt>
      <trkpt lat="48.65858" lon="7.81788">
        <ele>131.2</ele>
        <time>2020-06-28T10:17:07Z</time>
      </trkpt>
      <trkpt lat="48.65853" lon="7.81783">
        <ele>131.2</ele>
        <time>2020-06-28T10:17:08Z</time>
      </trkpt>
      <trkpt lat="48.65848" lon="7.81779">
        <ele>131.2</ele>
        <time>2020-06-28T10:17:09Z</time>
      </trkpt>
      <trkpt lat="48.65843" lon="7.81773">
        <ele>131.2</ele>
        <time>2020-06-28T10:17:10Z</time>
      </trkpt>
      <trkpt lat="48.6584" lon="7.81767">
        <ele>131.2</ele>
        <time>2020-06-28T10:17:11Z</time>
      </trkpt>
      <trkpt lat="48.65836" lon="7.81761">
        <ele>131.2</ele>
        <time>2020-06-28T10:17:12Z</time>
      </trkpt>
      <trkpt lat="48.65832" lon="7.81756">
        <ele>131.2</ele>
        <time>2020-06-28T10:17:13Z</time>
      </trkpt>
      <trkpt lat="48.65828" lon="7.81751">
        <ele>131.2</ele>
        <time>2020-06-28T10:17:14Z</time>
      </trkpt>
      <trkpt lat="48.65824" lon="7.81745">
        <ele>131.2</ele>
        <time>2020-06-28T10:17:15Z</time>
      </trkpt>
      <trkpt lat="48.65819" lon="7.81739">
        <ele>131.2</ele>
        <time>2020-06-28T10:17:16Z</time>
      </trkpt>
      <trkpt lat="48.65815" lon="7.81733">
        <ele>131.2</ele>
        <time>2020-06-28T10:17:17Z</time>
      </trkpt>
      <trkpt lat="48.65811" lon="7.81727">
        <ele>131.3</ele>
        <time>2020-06-28T10:17:18Z</time>
      </trkpt>
      <trkpt lat="48.65807" lon="7.81722">
        <ele>131.3</ele>
        <time>2020-06-28T10:17:19Z</time>
      </trkpt>
      <trkpt lat="48.65803" lon="7.81715">
        <ele>131.2</ele>
        <time>2020-06-28T10:17:20Z</time>
      </trkpt>
      <trkpt lat="48.65799" lon="7.8171">
        <ele>131.2</ele>
        <time>2020-06-28T10:17:21Z</time>
      </trkpt>
      <trkpt lat="48.65795" lon="7.81705">
        <ele>131.2</ele>
        <time>2020-06-28T10:17:22Z</time>
      </trkpt>
      <trkpt lat="48.65791" lon="7.81701">
        <ele>131.1</ele>
        <time>2020-06-28T10:17:23Z</time>
      </trkpt>
      <trkpt lat="48.65787" lon="7.81695">
        <ele>131.1</ele>
        <time>2020-06-28T10:17:24Z</time>
      </trkpt>
      <trkpt lat="48.65783" lon="7.81689">
        <ele>131.1</ele>
        <time>2020-06-28T10:17:25Z</time>
      </trkpt>
      <trkpt lat="48.6578" lon="7.81686">
        <ele>131.1</ele>
        <time>2020-06-28T10:17:26Z</time>
      </trkpt>
      <trkpt lat="48.65776" lon="7.81681">
        <ele>131.1</ele>
        <time>2020-06-28T10:17:27Z</time>
      </trkpt>
      <trkpt lat="48.65772" lon="7.81674">
        <ele>131.1</ele>
        <time>2020-06-28T10:17:28Z</time>
      </trkpt>
      <trkpt lat="48.65768" lon="7.81669">
        <ele>131.1</ele>
        <time>2020-06-28T10:17:29Z</time>
      </trkpt>
      <trkpt lat="48.65764" lon="7.81663">
        <ele>131.1</ele>
        <time>2020-06-28T10:17:30Z</time>
      </trkpt>
      <trkpt lat="48.6576" lon="7.81658">
        <ele>131.1</ele>
        <time>2020-06-28T10:17:31Z</time>
      </trkpt>
      <trkpt lat="48.65755" lon="7.81651">
        <ele>131.1</ele>
        <time>2020-06-28T10:17:32Z</time>
      </trkpt>
      <trkpt lat="48.6575" lon="7.81645">
        <ele>131.1</ele>
        <time>2020-06-28T10:17:33Z</time>
      </trkpt>
      <trkpt lat="48.65746" lon="7.81639">
        <ele>131.1</ele>
        <time>2020-06-28T10:17:34Z</time>
      </trkpt>
      <trkpt lat="48.65741" lon="7.81635">
        <ele>131.1</ele>
        <time>2020-06-28T10:17:35Z</time>
      </trkpt>
      <trkpt lat="48.65737" lon="7.8163">
        <ele>131.1</ele>
        <time>2020-06-28T10:17:36Z</time>
      </trkpt>
      <trkpt lat="48.65734" lon="7.81624">
        <ele>131.1</ele>
        <time>2020-06-28T10:17:37Z</time>
      </trkpt>
      <trkpt lat="48.6573" lon="7.81619">
        <ele>131.1</ele>
        <time>2020-06-28T10:17:38Z</time>
      </trkpt>
      <trkpt lat="48.65727" lon="7.81614">
        <ele>131.1</ele>
        <time>2020-06-28T10:17:39Z</time>
      </trkpt>
      <trkpt lat="48.65722" lon="7.81607">
        <ele>131.2</ele>
        <time>2020-06-28T10:17:40Z</time>
      </trkpt>
      <trkpt lat="48.65717" lon="7.81602">
        <ele>131.2</ele>
        <time>2020-06-28T10:17:41Z</time>
      </trkpt>
      <trkpt lat="48.65714" lon="7.81595">
        <ele>131.3</ele>
        <time>2020-06-28T10:17:42Z</time>
      </trkpt>
      <trkpt lat="48.65709" lon="7.81589">
        <ele>131.3</ele>
        <time>2020-06-28T10:17:43Z</time>
      </trkpt>
      <trkpt lat="48.65704" lon="7.81584">
        <ele>131.4</ele>
        <time>2020-06-28T10:17:44Z</time>
      </trkpt>
      <trkpt lat="48.65699" lon="7.8158">
        <ele>131.4</ele>
        <time>2020-06-28T10:17:45Z</time>
      </trkpt>
      <trkpt lat="48.65695" lon="7.81575">
        <ele>131.4</ele>
        <time>2020-06-28T10:17:46Z</time>
      </trkpt>
      <trkpt lat="48.6569" lon="7.8157">
        <ele>131.4</ele>
        <time>2020-06-28T10:17:47Z</time>
      </trkpt>
      <trkpt lat="48.65686" lon="7.81566">
        <ele>131.4</ele>
        <time>2020-06-28T10:17:48Z</time>
      </trkpt>
      <trkpt lat="48.65683" lon="7.81562">
        <ele>131.4</ele>
        <time>2020-06-28T10:17:49Z</time>
      </trkpt>
      <trkpt lat="48.65678" lon="7.81556">
        <ele>131.4</ele>
        <time>2020-06-28T10:17:50Z</time>
      </trkpt>
      <trkpt lat="48.65674" lon="7.81551">
        <ele>131.5</ele>
        <time>2020-06-28T10:17:51Z</time>
      </trkpt>
      <trkpt lat="48.65671" lon="7.81547">
        <ele>131.5</ele>
        <time>2020-06-28T10:17:52Z</time>
      </trkpt>
      <trkpt lat="48.65668" lon="7.81541">
        <ele>131.6</ele>
        <time>2020-06-28T10:17:53Z</time>
      </trkpt>
      <trkpt lat="48.65664" lon="7.81536">
        <ele>131.7</ele>
        <time>2020-06-28T10:17:54Z</time>
      </trkpt>
      <trkpt lat="48.65661" lon="7.81531">
        <ele>131.7</ele>
        <time>2020-06-28T10:17:55Z</time>
      </trkpt>
      <trkpt lat="48.65657" lon="7.81526">
        <ele>131.8</ele>
        <time>2020-06-28T10:17:56Z</time>
      </trkpt>
      <trkpt lat="48.65654" lon="7.81522">
        <ele>131.9</ele>
        <time>2020-06-28T10:17:57Z</time>
      </trkpt>
      <trkpt lat="48.65651" lon="7.81517">
        <ele>131.8</ele>
        <time>2020-06-28T10:17:58Z</time>
      </trkpt>
      <trkpt lat="48.65647" lon="7.81513">
        <ele>131.7</ele>
        <time>2020-06-28T10:17:59Z</time>
      </trkpt>
      <trkpt lat="48.65644" lon="7.81507">
        <ele>131.6</ele>
        <time>2020-06-28T10:18:00Z</time>
      </trkpt>
      <trkpt lat="48.65641" lon="7.81503">
        <ele>131.6</ele>
        <time>2020-06-28T10:18:01Z</time>
      </trkpt>
      <trkpt lat="48.65637" lon="7.81497">
        <ele>131.6</ele>
        <time>2020-06-28T10:18:02Z</time>
      </trkpt>
      <trkpt lat="48.65632" lon="7.81491">
        <ele>131.5</ele>
        <time>2020-06-28T10:18:03Z</time>
      </trkpt>
      <trkpt lat="48.65627" lon="7.81486">
        <ele>131.5</ele>
        <time>2020-06-28T10:18:04Z</time>
      </trkpt>
      <trkpt lat="48.65621" lon="7.81481">
        <ele>131.5</ele>
        <time>2020-06-28T10:18:05Z</time>
      </trkpt>
      <trkpt lat="48.65616" lon="7.81475">
        <ele>131.5</ele>
        <time>2020-06-28T10:18:06Z</time>
      </trkpt>
      <trkpt lat="48.65611" lon="7.8147">
        <ele>131.5</ele>
        <time>2020-06-28T10:18:07Z</time>
      </trkpt>
      <trkpt lat="48.65606" lon="7.81464">
        <ele>131.5</ele>
        <time>2020-06-28T10:18:08Z</time>
      </trkpt>
      <trkpt lat="48.65602" lon="7.81458">
        <ele>131.5</ele>
        <time>2020-06-28T10:18:09Z</time>
      </trkpt>
      <trkpt lat="48.65597" lon="7.81453">
        <ele>131.5</ele>
        <time>2020-06-28T10:18:10Z</time>
      </trkpt>
      <trkpt lat="48.65592" lon="7.81447">
        <ele>131.5</ele>
        <time>2020-06-28T10:18:11Z</time>
      </trkpt>
      <trkpt lat="48.65588" lon="7.81442">
        <ele>131.6</ele>
        <time>2020-06-28T10:18:12Z</time>
      </trkpt>
      <trkpt lat="48.65585" lon="7.81438">
        <ele>131.6</ele>
        <time>2020-06-28T10:18:13Z</time>
      </trkpt>
      <trkpt lat="48.65581" lon="7.81434">
        <ele>131.6</ele>
        <time>2020-06-28T10:18:14Z</time>
      </trkpt>
      <trkpt lat="48.65578" lon="7.81429">
        <ele>131.6</ele>
        <time>2020-06-28T10:18:15Z</time>
      </trkpt>
      <trkpt lat="48.65574" lon="7.81424">
        <ele>131.6</ele>
        <time>2020-06-28T10:18:16Z</time>
      </trkpt>
      <trkpt lat="48.6557" lon="7.81418">
        <ele>131.6</ele>
        <time>2020-06-28T10:18:17Z</time>
      </trkpt>
      <trkpt lat="48.65567" lon="7.81413">
        <ele>131.6</ele>
        <time>2020-06-28T10:18:18Z</time>
      </trkpt>
      <trkpt lat="48.65563" lon="7.81408">
        <ele>131.7</ele>
        <time>2020-06-28T10:18:19Z</time>
      </trkpt>
      <trkpt lat="48.65559" lon="7.81403">
        <ele>131.7</ele>
        <time>2020-06-28T10:18:20Z</time>
      </trkpt>
      <trkpt lat="48.65555" lon="7.81399">
        <ele>131.7</ele>
        <time>2020-06-28T10:18:21Z</time>
      </trkpt>
      <trkpt lat="48.65551" lon="7.81393">
        <ele>131.7</ele>
        <time>2020-06-28T10:18:22Z</time>
      </trkpt>
      <trkpt lat="48.65547" lon="7.81389">
        <ele>131.7</ele>
        <time>2020-06-28T10:18:23Z</time>
      </trkpt>
      <trkpt lat="48.65544" lon="7.81383">
        <ele>131.7</ele>
        <time>2020-06-28T10:18:24Z</time>
      </trkpt>
      <trkpt lat="48.6554" lon="7.81379">
        <ele>131.7</ele>
        <time>2020-06-28T10:18:25Z</time>
      </trkpt>
      <trkpt lat="48.65535" lon="7.81374">
        <ele>131.7</ele>
        <time>2020-06-28T10:18:26Z</time>
      </trkpt>
      <trkpt lat="48.65531" lon="7.81369">
        <ele>131.7</ele>
        <time>2020-06-28T10:18:27Z</time>
      </trkpt>
      <trkpt lat="48.65529" lon="7.81363">
        <ele>131.7</ele>
        <time>2020-06-28T10:18:28Z</time>
      </trkpt>
      <trkpt lat="48.65525" lon="7.81358">
        <ele>131.7</ele>
        <time>2020-06-28T10:18:29Z</time>
      </trkpt>
      <trkpt lat="48.65521" lon="7.81353">
        <ele>131.7</ele>
        <time>2020-06-28T10:18:30Z</time>
      </trkpt>
      <trkpt lat="48.65517" lon="7.81348">
        <ele>131.7</ele>
        <time>2020-06-28T10:18:31Z</time>
      </trkpt>
      <trkpt lat="48.65512" lon="7.81344">
        <ele>131.7</ele>
        <time>2020-06-28T10:18:32Z</time>
      </trkpt>
      <trkpt lat="48.65507" lon="7.81338">
        <ele>131.7</ele>
        <time>2020-06-28T10:18:33Z</time>
      </trkpt>
      <trkpt lat="48.65503" lon="7.81332">
        <ele>131.7</ele>
        <time>2020-06-28T10:18:34Z</time>
      </trkpt>
      <trkpt lat="48.65499" lon="7.81326">
        <ele>131.7</ele>
        <time>2020-06-28T10:18:35Z</time>
      </trkpt>
      <trkpt lat="48.65494" lon="7.81321">
        <ele>131.7</ele>
        <time>2020-06-28T10:18:36Z</time>
      </trkpt>
      <trkpt lat="48.6549" lon="7.81316">
        <ele>131.7</ele>
        <time>2020-06-28T10:18:37Z</time>
      </trkpt>
      <trkpt lat="48.65485" lon="7.81311">
        <ele>131.7</ele>
        <time>2020-06-28T10:18:38Z</time>
      </trkpt>
      <trkpt lat="48.65481" lon="7.81305">
        <ele>131.7</ele>
        <time>2020-06-28T10:18:39Z</time>
      </trkpt>
      <trkpt lat="48.65477" lon="7.81299">
        <ele>131.7</ele>
        <time>2020-06-28T10:18:40Z</time>
      </trkpt>
      <trkpt lat="48.65473" lon="7.81294">
        <ele>131.7</ele>
        <time>2020-06-28T10:18:41Z</time>
      </trkpt>
      <trkpt lat="48.65469" lon="7.81289">
        <ele>131.7</ele>
        <time>2020-06-28T10:18:42Z</time>
      </trkpt>
      <trkpt lat="48.65464" lon="7.81284">
        <ele>131.7</ele>
        <time>2020-06-28T10:18:43Z</time>
      </trkpt>
      <trkpt lat="48.65459" lon="7.81278">
        <ele>131.8</ele>
        <time>2020-06-28T10:18:44Z</time>
      </trkpt>
      <trkpt lat="48.65455" lon="7.81272">
        <ele>131.9</ele>
        <time>2020-06-28T10:18:45Z</time>
      </trkpt>
      <trkpt lat="48.6545" lon="7.81267">
        <ele>131.9</ele>
        <time>2020-06-28T10:18:46Z</time>
      </trkpt>
      <trkpt lat="48.65446" lon="7.81262">
        <ele>132</ele>
        <time>2020-06-28T10:18:47Z</time>
      </trkpt>
      <trkpt lat="48.65441" lon="7.81256">
        <ele>132</ele>
        <time>2020-06-28T10:18:48Z</time>
      </trkpt>
      <trkpt lat="48.65438" lon="7.81251">
        <ele>132</ele>
        <time>2020-06-28T10:18:49Z</time>
      </trkpt>
      <trkpt lat="48.65433" lon="7.81245">
        <ele>132</ele>
        <time>2020-06-28T10:18:50Z</time>
      </trkpt>
      <trkpt lat="48.65429" lon="7.81239">
        <ele>132.1</ele>
        <time>2020-06-28T10:18:51Z</time>
      </trkpt>
      <trkpt lat="48.65424" lon="7.81232">
        <ele>132.1</ele>
        <time>2020-06-28T10:18:52Z</time>
      </trkpt>
      <trkpt lat="48.6542" lon="7.81226">
        <ele>132.1</ele>
        <time>2020-06-28T10:18:53Z</time>
      </trkpt>
      <trkpt lat="48.65415" lon="7.81219">
        <ele>132.1</ele>
        <time>2020-06-28T10:18:54Z</time>
      </trkpt>
      <trkpt lat="48.6541" lon="7.81214">
        <ele>132.1</ele>
        <time>2020-06-28T10:18:55Z</time>
      </trkpt>
      <trkpt lat="48.65405" lon="7.81209">
        <ele>132.1</ele>
        <time>2020-06-28T10:18:56Z</time>
      </trkpt>
      <trkpt lat="48.65401" lon="7.81203">
        <ele>132.1</ele>
        <time>2020-06-28T10:18:57Z</time>
      </trkpt>
      <trkpt lat="48.65397" lon="7.81197">
        <ele>132.1</ele>
        <time>2020-06-28T10:18:58Z</time>
      </trkpt>
      <trkpt lat="48.65393" lon="7.81191">
        <ele>132.2</ele>
        <time>2020-06-28T10:18:59Z</time>
      </trkpt>
      <trkpt lat="48.65388" lon="7.81185">
        <ele>132.2</ele>
        <time>2020-06-28T10:19:00Z</time>
      </trkpt>
      <trkpt lat="48.65384" lon="7.8118">
        <ele>132.2</ele>
        <time>2020-06-28T10:19:01Z</time>
      </trkpt>
      <trkpt lat="48.6538" lon="7.81173">
        <ele>132.1</ele>
        <time>2020-06-28T10:19:02Z</time>
      </trkpt>
      <trkpt lat="48.65376" lon="7.81168">
        <ele>132.1</ele>
        <time>2020-06-28T10:19:03Z</time>
      </trkpt>
      <trkpt lat="48.65372" lon="7.81162">
        <ele>132.1</ele>
        <time>2020-06-28T10:19:04Z</time>
      </trkpt>
      <trkpt lat="48.65368" lon="7.81158">
        <ele>132.1</ele>
        <time>2020-06-28T10:19:05Z</time>
      </trkpt>
      <trkpt lat="48.65364" lon="7.81154">
        <ele>132.2</ele>
        <time>2020-06-28T10:19:06Z</time>
      </trkpt>
      <trkpt lat="48.6536" lon="7.81149">
        <ele>132.2</ele>
        <time>2020-06-28T10:19:07Z</time>
      </trkpt>
      <trkpt lat="48.65356" lon="7.81144">
        <ele>132.2</ele>
        <time>2020-06-28T10:19:08Z</time>
      </trkpt>
      <trkpt lat="48.65352" lon="7.81138">
        <ele>132.3</ele>
        <time>2020-06-28T10:19:09Z</time>
      </trkpt>
      <trkpt lat="48.65348" lon="7.81133">
        <ele>132.3</ele>
        <time>2020-06-28T10:19:10Z</time>
      </trkpt>
      <trkpt lat="48.65344" lon="7.81128">
        <ele>132.3</ele>
        <time>2020-06-28T10:19:11Z</time>
      </trkpt>
      <trkpt lat="48.65339" lon="7.81124">
        <ele>132.3</ele>
        <time>2020-06-28T10:19:12Z</time>
      </trkpt>
      <trkpt lat="48.65335" lon="7.81119">
        <ele>132.2</ele>
        <time>2020-06-28T10:19:13Z</time>
      </trkpt>
      <trkpt lat="48.65331" lon="7.81114">
        <ele>132.2</ele>
        <time>2020-06-28T10:19:14Z</time>
      </trkpt>
      <trkpt lat="48.65327" lon="7.81108">
        <ele>132.2</ele>
        <time>2020-06-28T10:19:15Z</time>
      </trkpt>
      <trkpt lat="48.65323" lon="7.81103">
        <ele>132.1</ele>
        <time>2020-06-28T10:19:16Z</time>
      </trkpt>
      <trkpt lat="48.65318" lon="7.81097">
        <ele>132.1</ele>
        <time>2020-06-28T10:19:17Z</time>
      </trkpt>
      <trkpt lat="48.65313" lon="7.8109">
        <ele>132</ele>
        <time>2020-06-28T10:19:18Z</time>
      </trkpt>
      <trkpt lat="48.65308" lon="7.81083">
        <ele>132</ele>
        <time>2020-06-28T10:19:19Z</time>
      </trkpt>
      <trkpt lat="48.65304" lon="7.81077">
        <ele>132</ele>
        <time>2020-06-28T10:19:20Z</time>
      </trkpt>
      <trkpt lat="48.65299" lon="7.81072">
        <ele>132</ele>
        <time>2020-06-28T10:19:21Z</time>
      </trkpt>
      <trkpt lat="48.65295" lon="7.81067">
        <ele>131.9</ele>
        <time>2020-06-28T10:19:22Z</time>
      </trkpt>
      <trkpt lat="48.6529" lon="7.81061">
        <ele>131.9</ele>
        <time>2020-06-28T10:19:23Z</time>
      </trkpt>
      <trkpt lat="48.65285" lon="7.81056">
        <ele>131.9</ele>
        <time>2020-06-28T10:19:24Z</time>
      </trkpt>
      <trkpt lat="48.65281" lon="7.81049">
        <ele>131.9</ele>
        <time>2020-06-28T10:19:25Z</time>
      </trkpt>
      <trkpt lat="48.65276" lon="7.81043">
        <ele>131.9</ele>
        <time>2020-06-28T10:19:26Z</time>
      </trkpt>
      <trkpt lat="48.65271" lon="7.81036">
        <ele>131.8</ele>
        <time>2020-06-28T10:19:27Z</time>
      </trkpt>
      <trkpt lat="48.65266" lon="7.81029">
        <ele>131.8</ele>
        <time>2020-06-28T10:19:28Z</time>
      </trkpt>
      <trkpt lat="48.65261" lon="7.81022">
        <ele>131.8</ele>
        <time>2020-06-28T10:19:29Z</time>
      </trkpt>
      <trkpt lat="48.65256" lon="7.81014">
        <ele>131.7</ele>
        <time>2020-06-28T10:19:30Z</time>
      </trkpt>
      <trkpt lat="48.65251" lon="7.81007">
        <ele>131.7</ele>
        <time>2020-06-28T10:19:31Z</time>
      </trkpt>
      <trkpt lat="48.65246" lon="7.80999">
        <ele>131.8</ele>
        <time>2020-06-28T10:19:32Z</time>
      </trkpt>
      <trkpt lat="48.65242" lon="7.80993">
        <ele>131.8</ele>
        <time>2020-06-28T10:19:33Z</time>
      </trkpt>
      <trkpt lat="48.65238" lon="7.80987">
        <ele>131.8</ele>
        <time>2020-06-28T10:19:34Z</time>
      </trkpt>
      <trkpt lat="48.65235" lon="7.80982">
        <ele>131.8</ele>
        <time>2020-06-28T10:19:35Z</time>
      </trkpt>
      <trkpt lat="48.6523" lon="7.80975">
        <ele>131.9</ele>
        <time>2020-06-28T10:19:36Z</time>
      </trkpt>
      <trkpt lat="48.65226" lon="7.80968">
        <ele>131.9</ele>
        <time>2020-06-28T10:19:37Z</time>
      </trkpt>
      <trkpt lat="48.65222" lon="7.80962">
        <ele>131.9</ele>
        <time>2020-06-28T10:19:38Z</time>
      </trkpt>
      <trkpt lat="48.65218" lon="7.80956">
        <ele>132</ele>
        <time>2020-06-28T10:19:39Z</time>
      </trkpt>
      <trkpt lat="48.65214" lon="7.8095">
        <ele>132</ele>
        <time>2020-06-28T10:19:40Z</time>
      </trkpt>
      <trkpt lat="48.6521" lon="7.80944">
        <ele>132</ele>
        <time>2020-06-28T10:19:41Z</time>
      </trkpt>
      <trkpt lat="48.65205" lon="7.80937">
        <ele>132.1</ele>
        <time>2020-06-28T10:19:42Z</time>
      </trkpt>
      <trkpt lat="48.65201" lon="7.80929">
        <ele>132.1</ele>
        <time>2020-06-28T10:19:43Z</time>
      </trkpt>
      <trkpt lat="48.65198" lon="7.80923">
        <ele>132.1</ele>
        <time>2020-06-28T10:19:44Z</time>
      </trkpt>
      <trkpt lat="48.65194" lon="7.80916">
        <ele>132.1</ele>
        <time>2020-06-28T10:19:45Z</time>
      </trkpt>
      <trkpt lat="48.65189" lon="7.80908">
        <ele>132.1</ele>
        <time>2020-06-28T10:19:46Z</time>
      </trkpt>
      <trkpt lat="48.65185" lon="7.809">
        <ele>132.2</ele>
        <time>2020-06-28T10:19:47Z</time>
      </trkpt>
      <trkpt lat="48.65181" lon="7.80893">
        <ele>132.2</ele>
        <time>2020-06-28T10:19:48Z</time>
      </trkpt>
      <trkpt lat="48.65178" lon="7.80887">
        <ele>132.3</ele>
        <time>2020-06-28T10:19:49Z</time>
      </trkpt>
      <trkpt lat="48.65175" lon="7.80879">
        <ele>132.4</ele>
        <time>2020-06-28T10:19:50Z</time>
      </trkpt>
      <trkpt lat="48.65171" lon="7.80871">
        <ele>132.5</ele>
        <time>2020-06-28T10:19:51Z</time>
      </trkpt>
      <trkpt lat="48.65166" lon="7.80864">
        <ele>132.6</ele>
        <time>2020-06-28T10:19:52Z</time>
      </trkpt>
      <trkpt lat="48.65163" lon="7.80857">
        <ele>132.6</ele>
        <time>2020-06-28T10:19:53Z</time>
      </trkpt>
      <trkpt lat="48.65159" lon="7.80849">
        <ele>132.6</ele>
        <time>2020-06-28T10:19:54Z</time>
      </trkpt>
      <trkpt lat="48.65155" lon="7.80842">
        <ele>132.6</ele>
        <time>2020-06-28T10:19:55Z</time>
      </trkpt>
      <trkpt lat="48.65152" lon="7.80834">
        <ele>132.6</ele>
        <time>2020-06-28T10:19:56Z</time>
      </trkpt>
      <trkpt lat="48.65149" lon="7.80827">
        <ele>132.6</ele>
        <time>2020-06-28T10:19:57Z</time>
      </trkpt>
      <trkpt lat="48.65145" lon="7.8082">
        <ele>132.6</ele>
        <time>2020-06-28T10:19:58Z</time>
      </trkpt>
      <trkpt lat="48.65142" lon="7.80811">
        <ele>132.7</ele>
        <time>2020-06-28T10:19:59Z</time>
      </trkpt>
      <trkpt lat="48.65139" lon="7.80803">
        <ele>132.7</ele>
        <time>2020-06-28T10:20:00Z</time>
      </trkpt>
      <trkpt lat="48.65137" lon="7.80795">
        <ele>132.8</ele>
        <time>2020-06-28T10:20:01Z</time>
      </trkpt>
      <trkpt lat="48.65134" lon="7.80786">
        <ele>132.8</ele>
        <time>2020-06-28T10:20:02Z</time>
      </trkpt>
      <trkpt lat="48.65131" lon="7.80778">
        <ele>132.8</ele>
        <time>2020-06-28T10:20:03Z</time>
      </trkpt>
      <trkpt lat="48.65129" lon="7.80769">
        <ele>132.9</ele>
        <time>2020-06-28T10:20:04Z</time>
      </trkpt>
      <trkpt lat="48.65126" lon="7.80761">
        <ele>132.9</ele>
        <time>2020-06-28T10:20:05Z</time>
      </trkpt>
      <trkpt lat="48.65123" lon="7.80753">
        <ele>132.9</ele>
        <time>2020-06-28T10:20:06Z</time>
      </trkpt>
      <trkpt lat="48.65119" lon="7.80744">
        <ele>132.9</ele>
        <time>2020-06-28T10:20:07Z</time>
      </trkpt>
      <trkpt lat="48.65116" lon="7.80737">
        <ele>132.9</ele>
        <time>2020-06-28T10:20:08Z</time>
      </trkpt>
      <trkpt lat="48.65114" lon="7.8073">
        <ele>132.9</ele>
        <time>2020-06-28T10:20:09Z</time>
      </trkpt>
      <trkpt lat="48.65111" lon="7.80722">
        <ele>132.9</ele>
        <time>2020-06-28T10:20:10Z</time>
      </trkpt>
      <trkpt lat="48.65109" lon="7.80714">
        <ele>132.9</ele>
        <time>2020-06-28T10:20:11Z</time>
      </trkpt>
      <trkpt lat="48.65106" lon="7.80704">
        <ele>132.9</ele>
        <time>2020-06-28T10:20:12Z</time>
      </trkpt>
      <trkpt lat="48.65103" lon="7.80695">
        <ele>132.9</ele>
        <time>2020-06-28T10:20:13Z</time>
      </trkpt>
      <trkpt lat="48.65101" lon="7.80685">
        <ele>132.9</ele>
        <time>2020-06-28T10:20:14Z</time>
      </trkpt>
      <trkpt lat="48.65098" lon="7.80677">
        <ele>132.9</ele>
        <time>2020-06-28T10:20:15Z</time>
      </trkpt>
      <trkpt lat="48.65095" lon="7.80669">
        <ele>132.9</ele>
        <time>2020-06-28T10:20:16Z</time>
      </trkpt>
      <trkpt lat="48.65092" lon="7.80661">
        <ele>132.9</ele>
        <time>2020-06-28T10:20:17Z</time>
      </trkpt>
      <trkpt lat="48.6509" lon="7.80653">
        <ele>132.9</ele>
        <time>2020-06-28T10:20:18Z</time>
      </trkpt>
      <trkpt lat="48.65088" lon="7.80645">
        <ele>132.9</ele>
        <time>2020-06-28T10:20:19Z</time>
      </trkpt>
      <trkpt lat="48.65087" lon="7.80637">
        <ele>132.9</ele>
        <time>2020-06-28T10:20:20Z</time>
      </trkpt>
      <trkpt lat="48.65085" lon="7.80628">
        <ele>132.9</ele>
        <time>2020-06-28T10:20:21Z</time>
      </trkpt>
      <trkpt lat="48.65082" lon="7.8062">
        <ele>132.9</ele>
        <time>2020-06-28T10:20:22Z</time>
      </trkpt>
      <trkpt lat="48.65081" lon="7.80612">
        <ele>132.8</ele>
        <time>2020-06-28T10:20:23Z</time>
      </trkpt>
      <trkpt lat="48.65079" lon="7.80602">
        <ele>132.8</ele>
        <time>2020-06-28T10:20:24Z</time>
      </trkpt>
      <trkpt lat="48.65077" lon="7.80594">
        <ele>132.8</ele>
        <time>2020-06-28T10:20:25Z</time>
      </trkpt>
      <trkpt lat="48.65074" lon="7.80587">
        <ele>132.8</ele>
        <time>2020-06-28T10:20:26Z</time>
      </trkpt>
      <trkpt lat="48.65072" lon="7.80578">
        <ele>132.8</ele>
        <time>2020-06-28T10:20:27Z</time>
      </trkpt>
      <trkpt lat="48.65069" lon="7.8057">
        <ele>132.9</ele>
        <time>2020-06-28T10:20:28Z</time>
      </trkpt>
      <trkpt lat="48.65067" lon="7.80561">
        <ele>132.9</ele>
        <time>2020-06-28T10:20:29Z</time>
      </trkpt>
      <trkpt lat="48.65065" lon="7.80555">
        <ele>132.9</ele>
        <time>2020-06-28T10:20:30Z</time>
      </trkpt>
      <trkpt lat="48.65064" lon="7.80547">
        <ele>132.9</ele>
        <time>2020-06-28T10:20:31Z</time>
      </trkpt>
      <trkpt lat="48.65063" lon="7.8054">
        <ele>132.8</ele>
        <time>2020-06-28T10:20:32Z</time>
      </trkpt>
      <trkpt lat="48.65062" lon="7.80531">
        <ele>132.8</ele>
        <time>2020-06-28T10:20:33Z</time>
      </trkpt>
      <trkpt lat="48.65062" lon="7.80521">
        <ele>133.1</ele>
        <time>2020-06-28T10:20:34Z</time>
      </trkpt>
      <trkpt lat="48.6506" lon="7.80512">
        <ele>133.1</ele>
        <time>2020-06-28T10:20:35Z</time>
      </trkpt>
      <trkpt lat="48.65058" lon="7.80503">
        <ele>133.1</ele>
        <time>2020-06-28T10:20:36Z</time>
      </trkpt>
      <trkpt lat="48.65054" lon="7.80494">
        <ele>133.1</ele>
        <time>2020-06-28T10:20:37Z</time>
      </trkpt>
      <trkpt lat="48.6505" lon="7.80487">
        <ele>133.2</ele>
        <time>2020-06-28T10:20:38Z</time>
      </trkpt>
      <trkpt lat="48.65048" lon="7.80479">
        <ele>133.3</ele>
        <time>2020-06-28T10:20:39Z</time>
      </trkpt>
      <trkpt lat="48.65045" lon="7.80471">
        <ele>133.4</ele>
        <time>2020-06-28T10:20:40Z</time>
      </trkpt>
      <trkpt lat="48.65042" lon="7.80462">
        <ele>133.4</ele>
        <time>2020-06-28T10:20:41Z</time>
      </trkpt>
      <trkpt lat="48.65039" lon="7.80453">
        <ele>133.4</ele>
        <time>2020-06-28T10:20:42Z</time>
      </trkpt>
      <trkpt lat="48.65037" lon="7.80444">
        <ele>133.4</ele>
        <time>2020-06-28T10:20:43Z</time>
      </trkpt>
      <trkpt lat="48.65036" lon="7.80435">
        <ele>133.4</ele>
        <time>2020-06-28T10:20:44Z</time>
      </trkpt>
      <trkpt lat="48.65033" lon="7.80426">
        <ele>133.5</ele>
        <time>2020-06-28T10:20:45Z</time>
      </trkpt>
      <trkpt lat="48.6503" lon="7.80418">
        <ele>133.5</ele>
        <time>2020-06-28T10:20:46Z</time>
      </trkpt>
      <trkpt lat="48.65028" lon="7.80408">
        <ele>133.6</ele>
        <time>2020-06-28T10:20:47Z</time>
      </trkpt>
      <trkpt lat="48.65025" lon="7.804">
        <ele>133.6</ele>
        <time>2020-06-28T10:20:48Z</time>
      </trkpt>
      <trkpt lat="48.65023" lon="7.80391">
        <ele>133.7</ele>
        <time>2020-06-28T10:20:49Z</time>
      </trkpt>
      <trkpt lat="48.65019" lon="7.80382">
        <ele>133.7</ele>
        <time>2020-06-28T10:20:50Z</time>
      </trkpt>
      <trkpt lat="48.65017" lon="7.80373">
        <ele>133.7</ele>
        <time>2020-06-28T10:20:51Z</time>
      </trkpt>
      <trkpt lat="48.65013" lon="7.80364">
        <ele>133.7</ele>
        <time>2020-06-28T10:20:52Z</time>
      </trkpt>
      <trkpt lat="48.65011" lon="7.80356">
        <ele>133.7</ele>
        <time>2020-06-28T10:20:53Z</time>
      </trkpt>
      <trkpt lat="48.65008" lon="7.80348">
        <ele>133.7</ele>
        <time>2020-06-28T10:20:54Z</time>
      </trkpt>
      <trkpt lat="48.65004" lon="7.80339">
        <ele>133.7</ele>
        <time>2020-06-28T10:20:55Z</time>
      </trkpt>
      <trkpt lat="48.65002" lon="7.80331">
        <ele>133.7</ele>
        <time>2020-06-28T10:20:56Z</time>
      </trkpt>
      <trkpt lat="48.64999" lon="7.80322">
        <ele>133.7</ele>
        <time>2020-06-28T10:20:57Z</time>
      </trkpt>
      <trkpt lat="48.64997" lon="7.80313">
        <ele>133.7</ele>
        <time>2020-06-28T10:20:58Z</time>
      </trkpt>
      <trkpt lat="48.64994" lon="7.80305">
        <ele>133.7</ele>
        <time>2020-06-28T10:20:59Z</time>
      </trkpt>
      <trkpt lat="48.64991" lon="7.80296">
        <ele>133.7</ele>
        <time>2020-06-28T10:21:00Z</time>
      </trkpt>
      <trkpt lat="48.64987" lon="7.80289">
        <ele>133.7</ele>
        <time>2020-06-28T10:21:01Z</time>
      </trkpt>
      <trkpt lat="48.64984" lon="7.80281">
        <ele>133.6</ele>
        <time>2020-06-28T10:21:02Z</time>
      </trkpt>
      <trkpt lat="48.64981" lon="7.80273">
        <ele>133.6</ele>
        <time>2020-06-28T10:21:03Z</time>
      </trkpt>
      <trkpt lat="48.64978" lon="7.80265">
        <ele>133.6</ele>
        <time>2020-06-28T10:21:04Z</time>
      </trkpt>
      <trkpt lat="48.64974" lon="7.80257">
        <ele>133.5</ele>
        <time>2020-06-28T10:21:05Z</time>
      </trkpt>
      <trkpt lat="48.64971" lon="7.80249">
        <ele>133.5</ele>
        <time>2020-06-28T10:21:06Z</time>
      </trkpt>
      <trkpt lat="48.64968" lon="7.80241">
        <ele>133.4</ele>
        <time>2020-06-28T10:21:07Z</time>
      </trkpt>
      <trkpt lat="48.64965" lon="7.80234">
        <ele>133.4</ele>
        <time>2020-06-28T10:21:08Z</time>
      </trkpt>
      <trkpt lat="48.64961" lon="7.80228">
        <ele>133.4</ele>
        <time>2020-06-28T10:21:09Z</time>
      </trkpt>
      <trkpt lat="48.64957" lon="7.80219">
        <ele>133.3</ele>
        <time>2020-06-28T10:21:10Z</time>
      </trkpt>
      <trkpt lat="48.64953" lon="7.80212">
        <ele>133.3</ele>
        <time>2020-06-28T10:21:11Z</time>
      </trkpt>
      <trkpt lat="48.6495" lon="7.80206">
        <ele>133.2</ele>
        <time>2020-06-28T10:21:12Z</time>
      </trkpt>
      <trkpt lat="48.64946" lon="7.80197">
        <ele>133.2</ele>
        <time>2020-06-28T10:21:13Z</time>
      </trkpt>
      <trkpt lat="48.64942" lon="7.8019">
        <ele>133.2</ele>
        <time>2020-06-28T10:21:14Z</time>
      </trkpt>
      <trkpt lat="48.64939" lon="7.80183">
        <ele>133.2</ele>
        <time>2020-06-28T10:21:15Z</time>
      </trkpt>
      <trkpt lat="48.64934" lon="7.80176">
        <ele>133.2</ele>
        <time>2020-06-28T10:21:16Z</time>
      </trkpt>
      <trkpt lat="48.6493" lon="7.80169">
        <ele>133.2</ele>
        <time>2020-06-28T10:21:17Z</time>
      </trkpt>
      <trkpt lat="48.64927" lon="7.80163">
        <ele>133.2</ele>
        <time>2020-06-28T10:21:18Z</time>
      </trkpt>
      <trkpt lat="48.64923" lon="7.80155">
        <ele>133.2</ele>
        <time>2020-06-28T10:21:19Z</time>
      </trkpt>
      <trkpt lat="48.64919" lon="7.80148">
        <ele>133.2</ele>
        <time>2020-06-28T10:21:20Z</time>
      </trkpt>
      <trkpt lat="48.64915" lon="7.80141">
        <ele>133.2</ele>
        <time>2020-06-28T10:21:21Z</time>
      </trkpt>
      <trkpt lat="48.64911" lon="7.80134">
        <ele>133.2</ele>
        <time>2020-06-28T10:21:22Z</time>
      </trkpt>
      <trkpt lat="48.64907" lon="7.80128">
        <ele>133.2</ele>
        <time>2020-06-28T10:21:23Z</time>
      </trkpt>
      <trkpt lat="48.64903" lon="7.80122">
        <ele>133.2</ele>
        <time>2020-06-28T10:21:24Z</time>
      </trkpt>
      <trkpt lat="48.64898" lon="7.80115">
        <ele>133.2</ele>
        <time>2020-06-28T10:21:25Z</time>
      </trkpt>
      <trkpt lat="48.64895" lon="7.80109">
        <ele>133.1</ele>
        <time>2020-06-28T10:21:26Z</time>
      </trkpt>
      <trkpt lat="48.64891" lon="7.80102">
        <ele>133.1</ele>
        <time>2020-06-28T10:21:27Z</time>
      </trkpt>
      <trkpt lat="48.64887" lon="7.80097">
        <ele>133.1</ele>
        <time>2020-06-28T10:21:28Z</time>
      </trkpt>
      <trkpt lat="48.64883" lon="7.80091">
        <ele>133.1</ele>
        <time>2020-06-28T10:21:29Z</time>
      </trkpt>
      <trkpt lat="48.64878" lon="7.80084">
        <ele>133.1</ele>
        <time>2020-06-28T10:21:30Z</time>
      </trkpt>
      <trkpt lat="48.64873" lon="7.80076">
        <ele>133.1</ele>
        <time>2020-06-28T10:21:31Z</time>
      </trkpt>
      <trkpt lat="48.64867" lon="7.80068">
        <ele>133.1</ele>
        <time>2020-06-28T10:21:32Z</time>
      </trkpt>
      <trkpt lat="48.64862" lon="7.80061">
        <ele>133.1</ele>
        <time>2020-06-28T10:21:33Z</time>
      </trkpt>
      <trkpt lat="48.64857" lon="7.80053">
        <ele>133</ele>
        <time>2020-06-28T10:21:34Z</time>
      </trkpt>
      <trkpt lat="48.64853" lon="7.80047">
        <ele>133</ele>
        <time>2020-06-28T10:21:35Z</time>
      </trkpt>
      <trkpt lat="48.64847" lon="7.80038">
        <ele>133</ele>
        <time>2020-06-28T10:21:36Z</time>
      </trkpt>
      <trkpt lat="48.64843" lon="7.80032">
        <ele>133</ele>
        <time>2020-06-28T10:21:37Z</time>
      </trkpt>
      <trkpt lat="48.64839" lon="7.80028">
        <ele>133</ele>
        <time>2020-06-28T10:21:38Z</time>
      </trkpt>
      <trkpt lat="48.64835" lon="7.80022">
        <ele>133</ele>
        <time>2020-06-28T10:21:39Z</time>
      </trkpt>
      <trkpt lat="48.64832" lon="7.80017">
        <ele>133</ele>
        <time>2020-06-28T10:21:40Z</time>
      </trkpt>
      <trkpt lat="48.64827" lon="7.80011">
        <ele>133</ele>
        <time>2020-06-28T10:21:41Z</time>
      </trkpt>
      <trkpt lat="48.64822" lon="7.80002">
        <ele>133</ele>
        <time>2020-06-28T10:21:42Z</time>
      </trkpt>
      <trkpt lat="48.64818" lon="7.79996">
        <ele>133</ele>
        <time>2020-06-28T10:21:43Z</time>
      </trkpt>
      <trkpt lat="48.64815" lon="7.79991">
        <ele>133</ele>
        <time>2020-06-28T10:21:44Z</time>
      </trkpt>
      <trkpt lat="48.64811" lon="7.79985">
        <ele>133</ele>
        <time>2020-06-28T10:21:45Z</time>
      </trkpt>
      <trkpt lat="48.64806" lon="7.7998">
        <ele>133</ele>
        <time>2020-06-28T10:21:46Z</time>
      </trkpt>
      <trkpt lat="48.648" lon="7.79972">
        <ele>133</ele>
        <time>2020-06-28T10:21:47Z</time>
      </trkpt>
      <trkpt lat="48.64795" lon="7.79965">
        <ele>133.1</ele>
        <time>2020-06-28T10:21:48Z</time>
      </trkpt>
      <trkpt lat="48.6479" lon="7.79959">
        <ele>133.1</ele>
        <time>2020-06-28T10:21:49Z</time>
      </trkpt>
      <trkpt lat="48.64785" lon="7.79953">
        <ele>133</ele>
        <time>2020-06-28T10:21:50Z</time>
      </trkpt>
      <trkpt lat="48.6478" lon="7.79947">
        <ele>132.9</ele>
        <time>2020-06-28T10:21:51Z</time>
      </trkpt>
      <trkpt lat="48.64776" lon="7.7994">
        <ele>132.9</ele>
        <time>2020-06-28T10:21:52Z</time>
      </trkpt>
      <trkpt lat="48.64771" lon="7.79934">
        <ele>132.8</ele>
        <time>2020-06-28T10:21:53Z</time>
      </trkpt>
      <trkpt lat="48.64767" lon="7.79929">
        <ele>132.8</ele>
        <time>2020-06-28T10:21:54Z</time>
      </trkpt>
      <trkpt lat="48.64762" lon="7.79923">
        <ele>132.8</ele>
        <time>2020-06-28T10:21:55Z</time>
      </trkpt>
      <trkpt lat="48.64757" lon="7.79917">
        <ele>132.8</ele>
        <time>2020-06-28T10:21:56Z</time>
      </trkpt>
      <trkpt lat="48.64753" lon="7.79912">
        <ele>132.8</ele>
        <time>2020-06-28T10:21:57Z</time>
      </trkpt>
      <trkpt lat="48.64749" lon="7.79904">
        <ele>132.8</ele>
        <time>2020-06-28T10:21:58Z</time>
      </trkpt>
      <trkpt lat="48.64745" lon="7.79898">
        <ele>132.8</ele>
        <time>2020-06-28T10:21:59Z</time>
      </trkpt>
      <trkpt lat="48.64741" lon="7.79892">
        <ele>132.8</ele>
        <time>2020-06-28T10:22:00Z</time>
      </trkpt>
      <trkpt lat="48.64736" lon="7.79884">
        <ele>132.8</ele>
        <time>2020-06-28T10:22:01Z</time>
      </trkpt>
      <trkpt lat="48.64731" lon="7.79878">
        <ele>132.8</ele>
        <time>2020-06-28T10:22:02Z</time>
      </trkpt>
      <trkpt lat="48.64727" lon="7.79873">
        <ele>132.8</ele>
        <time>2020-06-28T10:22:03Z</time>
      </trkpt>
      <trkpt lat="48.64723" lon="7.79867">
        <ele>132.8</ele>
        <time>2020-06-28T10:22:04Z</time>
      </trkpt>
      <trkpt lat="48.64718" lon="7.79859">
        <ele>132.7</ele>
        <time>2020-06-28T10:22:05Z</time>
      </trkpt>
      <trkpt lat="48.64713" lon="7.79853">
        <ele>132.7</ele>
        <time>2020-06-28T10:22:06Z</time>
      </trkpt>
      <trkpt lat="48.64708" lon="7.79846">
        <ele>132.6</ele>
        <time>2020-06-28T10:22:07Z</time>
      </trkpt>
      <trkpt lat="48.64704" lon="7.7984">
        <ele>132.6</ele>
        <time>2020-06-28T10:22:08Z</time>
      </trkpt>
      <trkpt lat="48.64699" lon="7.79833">
        <ele>132.6</ele>
        <time>2020-06-28T10:22:09Z</time>
      </trkpt>
      <trkpt lat="48.64693" lon="7.79825">
        <ele>132.6</ele>
        <time>2020-06-28T10:22:10Z</time>
      </trkpt>
      <trkpt lat="48.64688" lon="7.79817">
        <ele>132.6</ele>
        <time>2020-06-28T10:22:11Z</time>
      </trkpt>
      <trkpt lat="48.64683" lon="7.7981">
        <ele>132.6</ele>
        <time>2020-06-28T10:22:12Z</time>
      </trkpt>
      <trkpt lat="48.64677" lon="7.79803">
        <ele>132.6</ele>
        <time>2020-06-28T10:22:13Z</time>
      </trkpt>
      <trkpt lat="48.64673" lon="7.79797">
        <ele>132.7</ele>
        <time>2020-06-28T10:22:14Z</time>
      </trkpt>
      <trkpt lat="48.64669" lon="7.79792">
        <ele>132.7</ele>
        <time>2020-06-28T10:22:15Z</time>
      </trkpt>
      <trkpt lat="48.64666" lon="7.79787">
        <ele>132.7</ele>
        <time>2020-06-28T10:22:16Z</time>
      </trkpt>
      <trkpt lat="48.6466" lon="7.79779">
        <ele>132.7</ele>
        <time>2020-06-28T10:22:17Z</time>
      </trkpt>
      <trkpt lat="48.64656" lon="7.79771">
        <ele>132.7</ele>
        <time>2020-06-28T10:22:18Z</time>
      </trkpt>
      <trkpt lat="48.64651" lon="7.79764">
        <ele>132.8</ele>
        <time>2020-06-28T10:22:19Z</time>
      </trkpt>
      <trkpt lat="48.64647" lon="7.79758">
        <ele>132.8</ele>
        <time>2020-06-28T10:22:20Z</time>
      </trkpt>
      <trkpt lat="48.64642" lon="7.79752">
        <ele>132.8</ele>
        <time>2020-06-28T10:22:21Z</time>
      </trkpt>
      <trkpt lat="48.64638" lon="7.79745">
        <ele>132.8</ele>
        <time>2020-06-28T10:22:22Z</time>
      </trkpt>
      <trkpt lat="48.64634" lon="7.79738">
        <ele>132.8</ele>
        <time>2020-06-28T10:22:23Z</time>
      </trkpt>
      <trkpt lat="48.64629" lon="7.79731">
        <ele>132.8</ele>
        <time>2020-06-28T10:22:24Z</time>
      </trkpt>
      <trkpt lat="48.64625" lon="7.79724">
        <ele>132.8</ele>
        <time>2020-06-28T10:22:25Z</time>
      </trkpt>
      <trkpt lat="48.6462" lon="7.79716">
        <ele>132.8</ele>
        <time>2020-06-28T10:22:26Z</time>
      </trkpt>
      <trkpt lat="48.64617" lon="7.79711">
        <ele>132.8</ele>
        <time>2020-06-28T10:22:27Z</time>
      </trkpt>
      <trkpt lat="48.64612" lon="7.79701">
        <ele>132.7</ele>
        <time>2020-06-28T10:22:28Z</time>
      </trkpt>
      <trkpt lat="48.64608" lon="7.79696">
        <ele>132.7</ele>
        <time>2020-06-28T10:22:29Z</time>
      </trkpt>
      <trkpt lat="48.64604" lon="7.79688">
        <ele>132.7</ele>
        <time>2020-06-28T10:22:30Z</time>
      </trkpt>
      <trkpt lat="48.646" lon="7.7968">
        <ele>132.7</ele>
        <time>2020-06-28T10:22:31Z</time>
      </trkpt>
      <trkpt lat="48.64596" lon="7.79671">
        <ele>132.7</ele>
        <time>2020-06-28T10:22:32Z</time>
      </trkpt>
      <trkpt lat="48.64593" lon="7.79664">
        <ele>132.7</ele>
        <time>2020-06-28T10:22:33Z</time>
      </trkpt>
      <trkpt lat="48.64589" lon="7.79656">
        <ele>132.7</ele>
        <time>2020-06-28T10:22:34Z</time>
      </trkpt>
      <trkpt lat="48.64585" lon="7.79649">
        <ele>132.7</ele>
        <time>2020-06-28T10:22:35Z</time>
      </trkpt>
      <trkpt lat="48.64581" lon="7.79642">
        <ele>132.7</ele>
        <time>2020-06-28T10:22:36Z</time>
      </trkpt>
      <trkpt lat="48.64577" lon="7.79635">
        <ele>132.7</ele>
        <time>2020-06-28T10:22:37Z</time>
      </trkpt>
      <trkpt lat="48.64573" lon="7.79627">
        <ele>132.7</ele>
        <time>2020-06-28T10:22:38Z</time>
      </trkpt>
      <trkpt lat="48.6457" lon="7.79621">
        <ele>132.8</ele>
        <time>2020-06-28T10:22:39Z</time>
      </trkpt>
      <trkpt lat="48.64567" lon="7.79614">
        <ele>132.8</ele>
        <time>2020-06-28T10:22:40Z</time>
      </trkpt>
      <trkpt lat="48.64564" lon="7.79607">
        <ele>132.8</ele>
        <time>2020-06-28T10:22:41Z</time>
      </trkpt>
      <trkpt lat="48.6456" lon="7.79599">
        <ele>132.9</ele>
        <time>2020-06-28T10:22:42Z</time>
      </trkpt>
      <trkpt lat="48.64556" lon="7.7959">
        <ele>132.9</ele>
        <time>2020-06-28T10:22:43Z</time>
      </trkpt>
      <trkpt lat="48.64552" lon="7.79581">
        <ele>132.9</ele>
        <time>2020-06-28T10:22:44Z</time>
      </trkpt>
      <trkpt lat="48.64548" lon="7.79574">
        <ele>132.8</ele>
        <time>2020-06-28T10:22:45Z</time>
      </trkpt>
      <trkpt lat="48.64545" lon="7.79567">
        <ele>132.8</ele>
        <time>2020-06-28T10:22:46Z</time>
      </trkpt>
      <trkpt lat="48.64541" lon="7.79559">
        <ele>132.8</ele>
        <time>2020-06-28T10:22:47Z</time>
      </trkpt>
      <trkpt lat="48.64538" lon="7.7955">
        <ele>132.8</ele>
        <time>2020-06-28T10:22:48Z</time>
      </trkpt>
      <trkpt lat="48.64535" lon="7.79542">
        <ele>132.8</ele>
        <time>2020-06-28T10:22:49Z</time>
      </trkpt>
      <trkpt lat="48.64532" lon="7.79534">
        <ele>132.8</ele>
        <time>2020-06-28T10:22:50Z</time>
      </trkpt>
      <trkpt lat="48.64529" lon="7.79527">
        <ele>132.8</ele>
        <time>2020-06-28T10:22:51Z</time>
      </trkpt>
      <trkpt lat="48.64525" lon="7.79517">
        <ele>132.8</ele>
        <time>2020-06-28T10:22:52Z</time>
      </trkpt>
      <trkpt lat="48.6452" lon="7.79507">
        <ele>132.9</ele>
        <time>2020-06-28T10:22:53Z</time>
      </trkpt>
      <trkpt lat="48.64516" lon="7.79498">
        <ele>132.9</ele>
        <time>2020-06-28T10:22:54Z</time>
      </trkpt>
      <trkpt lat="48.64512" lon="7.79488">
        <ele>133</ele>
        <time>2020-06-28T10:22:55Z</time>
      </trkpt>
      <trkpt lat="48.6451" lon="7.79482">
        <ele>133</ele>
        <time>2020-06-28T10:22:56Z</time>
      </trkpt>
      <trkpt lat="48.64507" lon="7.79474">
        <ele>133.1</ele>
        <time>2020-06-28T10:22:57Z</time>
      </trkpt>
      <trkpt lat="48.64503" lon="7.79466">
        <ele>133.3</ele>
        <time>2020-06-28T10:22:58Z</time>
      </trkpt>
      <trkpt lat="48.645" lon="7.79458">
        <ele>133.3</ele>
        <time>2020-06-28T10:22:59Z</time>
      </trkpt>
      <trkpt lat="48.64498" lon="7.79451">
        <ele>133.3</ele>
        <time>2020-06-28T10:23:00Z</time>
      </trkpt>
      <trkpt lat="48.64495" lon="7.79443">
        <ele>133.3</ele>
        <time>2020-06-28T10:23:01Z</time>
      </trkpt>
      <trkpt lat="48.64493" lon="7.79436">
        <ele>133.4</ele>
        <time>2020-06-28T10:23:02Z</time>
      </trkpt>
      <trkpt lat="48.64491" lon="7.79429">
        <ele>133.4</ele>
        <time>2020-06-28T10:23:03Z</time>
      </trkpt>
      <trkpt lat="48.64487" lon="7.79419">
        <ele>133.5</ele>
        <time>2020-06-28T10:23:04Z</time>
      </trkpt>
      <trkpt lat="48.64485" lon="7.79411">
        <ele>133.5</ele>
        <time>2020-06-28T10:23:05Z</time>
      </trkpt>
      <trkpt lat="48.64482" lon="7.79403">
        <ele>133.6</ele>
        <time>2020-06-28T10:23:06Z</time>
      </trkpt>
      <trkpt lat="48.6448" lon="7.79395">
        <ele>133.6</ele>
        <time>2020-06-28T10:23:07Z</time>
      </trkpt>
      <trkpt lat="48.64477" lon="7.79387">
        <ele>133.6</ele>
        <time>2020-06-28T10:23:08Z</time>
      </trkpt>
      <trkpt lat="48.64475" lon="7.79378">
        <ele>133.6</ele>
        <time>2020-06-28T10:23:09Z</time>
      </trkpt>
      <trkpt lat="48.64473" lon="7.7937">
        <ele>133.6</ele>
        <time>2020-06-28T10:23:10Z</time>
      </trkpt>
      <trkpt lat="48.6447" lon="7.79361">
        <ele>133.7</ele>
        <time>2020-06-28T10:23:11Z</time>
      </trkpt>
      <trkpt lat="48.64467" lon="7.79351">
        <ele>133.7</ele>
        <time>2020-06-28T10:23:12Z</time>
      </trkpt>
      <trkpt lat="48.64465" lon="7.79343">
        <ele>133.8</ele>
        <time>2020-06-28T10:23:13Z</time>
      </trkpt>
      <trkpt lat="48.64462" lon="7.79333">
        <ele>133.8</ele>
        <time>2020-06-28T10:23:14Z</time>
      </trkpt>
      <trkpt lat="48.6446" lon="7.79325">
        <ele>133.8</ele>
        <time>2020-06-28T10:23:15Z</time>
      </trkpt>
      <trkpt lat="48.64457" lon="7.79316">
        <ele>133.9</ele>
        <time>2020-06-28T10:23:16Z</time>
      </trkpt>
      <trkpt lat="48.64455" lon="7.79307">
        <ele>133.9</ele>
        <time>2020-06-28T10:23:17Z</time>
      </trkpt>
      <trkpt lat="48.64451" lon="7.79299">
        <ele>133.9</ele>
        <time>2020-06-28T10:23:18Z</time>
      </trkpt>
      <trkpt lat="48.64448" lon="7.79292">
        <ele>134</ele>
        <time>2020-06-28T10:23:19Z</time>
      </trkpt>
      <trkpt lat="48.64445" lon="7.79285">
        <ele>134</ele>
        <time>2020-06-28T10:23:20Z</time>
      </trkpt>
      <trkpt lat="48.64442" lon="7.79277">
        <ele>134</ele>
        <time>2020-06-28T10:23:21Z</time>
      </trkpt>
      <trkpt lat="48.6444" lon="7.79269">
        <ele>134</ele>
        <time>2020-06-28T10:23:22Z</time>
      </trkpt>
      <trkpt lat="48.64436" lon="7.79259">
        <ele>134</ele>
        <time>2020-06-28T10:23:23Z</time>
      </trkpt>
      <trkpt lat="48.64434" lon="7.79252">
        <ele>134</ele>
        <time>2020-06-28T10:23:24Z</time>
      </trkpt>
      <trkpt lat="48.64431" lon="7.79245">
        <ele>134</ele>
        <time>2020-06-28T10:23:25Z</time>
      </trkpt>
      <trkpt lat="48.64428" lon="7.79237">
        <ele>133.9</ele>
        <time>2020-06-28T10:23:26Z</time>
      </trkpt>
      <trkpt lat="48.64425" lon="7.79228">
        <ele>133.9</ele>
        <time>2020-06-28T10:23:27Z</time>
      </trkpt>
      <trkpt lat="48.64421" lon="7.7922">
        <ele>133.9</ele>
        <time>2020-06-28T10:23:28Z</time>
      </trkpt>
      <trkpt lat="48.64417" lon="7.7921">
        <ele>133.9</ele>
        <time>2020-06-28T10:23:29Z</time>
      </trkpt>
      <trkpt lat="48.64414" lon="7.79201">
        <ele>133.9</ele>
        <time>2020-06-28T10:23:30Z</time>
      </trkpt>
      <trkpt lat="48.64411" lon="7.79194">
        <ele>133.9</ele>
        <time>2020-06-28T10:23:31Z</time>
      </trkpt>
      <trkpt lat="48.64407" lon="7.79183">
        <ele>133.9</ele>
        <time>2020-06-28T10:23:32Z</time>
      </trkpt>
      <trkpt lat="48.64404" lon="7.79174">
        <ele>133.9</ele>
        <time>2020-06-28T10:23:33Z</time>
      </trkpt>
      <trkpt lat="48.644" lon="7.79165">
        <ele>134</ele>
        <time>2020-06-28T10:23:34Z</time>
      </trkpt>
      <trkpt lat="48.64397" lon="7.79155">
        <ele>134</ele>
        <time>2020-06-28T10:23:35Z</time>
      </trkpt>
      <trkpt lat="48.64393" lon="7.79147">
        <ele>134</ele>
        <time>2020-06-28T10:23:36Z</time>
      </trkpt>
      <trkpt lat="48.64389" lon="7.79138">
        <ele>134</ele>
        <time>2020-06-28T10:23:37Z</time>
      </trkpt>
      <trkpt lat="48.64385" lon="7.7913">
        <ele>134</ele>
        <time>2020-06-28T10:23:38Z</time>
      </trkpt>
      <trkpt lat="48.64381" lon="7.79121">
        <ele>134.1</ele>
        <time>2020-06-28T10:23:39Z</time>
      </trkpt>
      <trkpt lat="48.64377" lon="7.79114">
        <ele>134.1</ele>
        <time>2020-06-28T10:23:40Z</time>
      </trkpt>
      <trkpt lat="48.64374" lon="7.79106">
        <ele>134.1</ele>
        <time>2020-06-28T10:23:41Z</time>
      </trkpt>
      <trkpt lat="48.6437" lon="7.79098">
        <ele>134.2</ele>
        <time>2020-06-28T10:23:42Z</time>
      </trkpt>
      <trkpt lat="48.64366" lon="7.7909">
        <ele>134.3</ele>
        <time>2020-06-28T10:23:43Z</time>
      </trkpt>
      <trkpt lat="48.64362" lon="7.79083">
        <ele>134.2</ele>
        <time>2020-06-28T10:23:44Z</time>
      </trkpt>
      <trkpt lat="48.64358" lon="7.79075">
        <ele>134.2</ele>
        <time>2020-06-28T10:23:45Z</time>
      </trkpt>
      <trkpt lat="48.64355" lon="7.79067">
        <ele>134.2</ele>
        <time>2020-06-28T10:23:46Z</time>
      </trkpt>
      <trkpt lat="48.64351" lon="7.7906">
        <ele>134.2</ele>
        <time>2020-06-28T10:23:47Z</time>
      </trkpt>
      <trkpt lat="48.64348" lon="7.79053">
        <ele>134.2</ele>
        <time>2020-06-28T10:23:48Z</time>
      </trkpt>
      <trkpt lat="48.64344" lon="7.79046">
        <ele>134.2</ele>
        <time>2020-06-28T10:23:49Z</time>
      </trkpt>
      <trkpt lat="48.64339" lon="7.79039">
        <ele>134.2</ele>
        <time>2020-06-28T10:23:50Z</time>
      </trkpt>
      <trkpt lat="48.64336" lon="7.79032">
        <ele>134.1</ele>
        <time>2020-06-28T10:23:51Z</time>
      </trkpt>
      <trkpt lat="48.64332" lon="7.79025">
        <ele>134.1</ele>
        <time>2020-06-28T10:23:52Z</time>
      </trkpt>
      <trkpt lat="48.64328" lon="7.79018">
        <ele>134.1</ele>
        <time>2020-06-28T10:23:53Z</time>
      </trkpt>
      <trkpt lat="48.64324" lon="7.79011">
        <ele>134.1</ele>
        <time>2020-06-28T10:23:54Z</time>
      </trkpt>
      <trkpt lat="48.6432" lon="7.79004">
        <ele>134</ele>
        <time>2020-06-28T10:23:55Z</time>
      </trkpt>
      <trkpt lat="48.64316" lon="7.78995">
        <ele>134</ele>
        <time>2020-06-28T10:23:56Z</time>
      </trkpt>
      <trkpt lat="48.64312" lon="7.78988">
        <ele>134</ele>
        <time>2020-06-28T10:23:57Z</time>
      </trkpt>
      <trkpt lat="48.64307" lon="7.7898">
        <ele>133.9</ele>
        <time>2020-06-28T10:23:58Z</time>
      </trkpt>
      <trkpt lat="48.64302" lon="7.78973">
        <ele>133.9</ele>
        <time>2020-06-28T10:23:59Z</time>
      </trkpt>
      <trkpt lat="48.64298" lon="7.78966">
        <ele>133.9</ele>
        <time>2020-06-28T10:24:00Z</time>
      </trkpt>
      <trkpt lat="48.64293" lon="7.78958">
        <ele>133.9</ele>
        <time>2020-06-28T10:24:01Z</time>
      </trkpt>
      <trkpt lat="48.64287" lon="7.78948">
        <ele>133.9</ele>
        <time>2020-06-28T10:24:02Z</time>
      </trkpt>
      <trkpt lat="48.64282" lon="7.78941">
        <ele>133.9</ele>
        <time>2020-06-28T10:24:03Z</time>
      </trkpt>
      <trkpt lat="48.64277" lon="7.78934">
        <ele>133.8</ele>
        <time>2020-06-28T10:24:04Z</time>
      </trkpt>
      <trkpt lat="48.64272" lon="7.78928">
        <ele>133.8</ele>
        <time>2020-06-28T10:24:05Z</time>
      </trkpt>
      <trkpt lat="48.64268" lon="7.78921">
        <ele>133.8</ele>
        <time>2020-06-28T10:24:06Z</time>
      </trkpt>
      <trkpt lat="48.64264" lon="7.78915">
        <ele>133.8</ele>
        <time>2020-06-28T10:24:07Z</time>
      </trkpt>
      <trkpt lat="48.64259" lon="7.78908">
        <ele>133.8</ele>
        <time>2020-06-28T10:24:08Z</time>
      </trkpt>
      <trkpt lat="48.64254" lon="7.78902">
        <ele>133.8</ele>
        <time>2020-06-28T10:24:09Z</time>
      </trkpt>
      <trkpt lat="48.64249" lon="7.78894">
        <ele>133.8</ele>
        <time>2020-06-28T10:24:10Z</time>
      </trkpt>
      <trkpt lat="48.64244" lon="7.78887">
        <ele>133.8</ele>
        <time>2020-06-28T10:24:11Z</time>
      </trkpt>
      <trkpt lat="48.6424" lon="7.78881">
        <ele>133.8</ele>
        <time>2020-06-28T10:24:12Z</time>
      </trkpt>
      <trkpt lat="48.64235" lon="7.78874">
        <ele>133.8</ele>
        <time>2020-06-28T10:24:13Z</time>
      </trkpt>
      <trkpt lat="48.6423" lon="7.78867">
        <ele>133.8</ele>
        <time>2020-06-28T10:24:14Z</time>
      </trkpt>
      <trkpt lat="48.64225" lon="7.7886">
        <ele>133.8</ele>
        <time>2020-06-28T10:24:15Z</time>
      </trkpt>
      <trkpt lat="48.6422" lon="7.78853">
        <ele>133.7</ele>
        <time>2020-06-28T10:24:16Z</time>
      </trkpt>
      <trkpt lat="48.64215" lon="7.78845">
        <ele>133.8</ele>
        <time>2020-06-28T10:24:17Z</time>
      </trkpt>
      <trkpt lat="48.6421" lon="7.78839">
        <ele>133.8</ele>
        <time>2020-06-28T10:24:18Z</time>
      </trkpt>
      <trkpt lat="48.64205" lon="7.78832">
        <ele>133.8</ele>
        <time>2020-06-28T10:24:19Z</time>
      </trkpt>
      <trkpt lat="48.642" lon="7.78826">
        <ele>133.8</ele>
        <time>2020-06-28T10:24:20Z</time>
      </trkpt>
      <trkpt lat="48.64195" lon="7.78819">
        <ele>133.8</ele>
        <time>2020-06-28T10:24:21Z</time>
      </trkpt>
      <trkpt lat="48.6419" lon="7.78812">
        <ele>133.8</ele>
        <time>2020-06-28T10:24:22Z</time>
      </trkpt>
      <trkpt lat="48.64185" lon="7.78805">
        <ele>133.8</ele>
        <time>2020-06-28T10:24:23Z</time>
      </trkpt>
      <trkpt lat="48.64181" lon="7.78798">
        <ele>133.9</ele>
        <time>2020-06-28T10:24:24Z</time>
      </trkpt>
      <trkpt lat="48.64176" lon="7.78791">
        <ele>133.8</ele>
        <time>2020-06-28T10:24:25Z</time>
      </trkpt>
      <trkpt lat="48.64171" lon="7.78784">
        <ele>133.8</ele>
        <time>2020-06-28T10:24:26Z</time>
      </trkpt>
      <trkpt lat="48.64166" lon="7.78777">
        <ele>133.8</ele>
        <time>2020-06-28T10:24:27Z</time>
      </trkpt>
      <trkpt lat="48.64162" lon="7.7877">
        <ele>133.8</ele>
        <time>2020-06-28T10:24:28Z</time>
      </trkpt>
      <trkpt lat="48.64157" lon="7.78763">
        <ele>133.7</ele>
        <time>2020-06-28T10:24:29Z</time>
      </trkpt>
      <trkpt lat="48.64151" lon="7.78756">
        <ele>133.7</ele>
        <time>2020-06-28T10:24:30Z</time>
      </trkpt>
      <trkpt lat="48.64146" lon="7.78748">
        <ele>133.7</ele>
        <time>2020-06-28T10:24:31Z</time>
      </trkpt>
      <trkpt lat="48.64141" lon="7.78741">
        <ele>133.7</ele>
        <time>2020-06-28T10:24:32Z</time>
      </trkpt>
      <trkpt lat="48.64136" lon="7.78734">
        <ele>133.7</ele>
        <time>2020-06-28T10:24:33Z</time>
      </trkpt>
      <trkpt lat="48.64131" lon="7.78727">
        <ele>133.8</ele>
        <time>2020-06-28T10:24:34Z</time>
      </trkpt>
      <trkpt lat="48.64127" lon="7.78719">
        <ele>133.8</ele>
        <time>2020-06-28T10:24:35Z</time>
      </trkpt>
      <trkpt lat="48.64122" lon="7.78712">
        <ele>133.8</ele>
        <time>2020-06-28T10:24:36Z</time>
      </trkpt>
      <trkpt lat="48.64117" lon="7.78705">
        <ele>133.8</ele>
        <time>2020-06-28T10:24:37Z</time>
      </trkpt>
      <trkpt lat="48.64112" lon="7.78698">
        <ele>133.9</ele>
        <time>2020-06-28T10:24:38Z</time>
      </trkpt>
      <trkpt lat="48.64107" lon="7.78691">
        <ele>133.9</ele>
        <time>2020-06-28T10:24:39Z</time>
      </trkpt>
      <trkpt lat="48.64101" lon="7.78684">
        <ele>133.8</ele>
        <time>2020-06-28T10:24:40Z</time>
      </trkpt>
      <trkpt lat="48.64095" lon="7.78678">
        <ele>133.8</ele>
        <time>2020-06-28T10:24:41Z</time>
      </trkpt>
      <trkpt lat="48.6409" lon="7.78671">
        <ele>133.8</ele>
        <time>2020-06-28T10:24:42Z</time>
      </trkpt>
      <trkpt lat="48.64086" lon="7.78663">
        <ele>133.8</ele>
        <time>2020-06-28T10:24:43Z</time>
      </trkpt>
      <trkpt lat="48.64081" lon="7.78656">
        <ele>133.8</ele>
        <time>2020-06-28T10:24:44Z</time>
      </trkpt>
      <trkpt lat="48.64076" lon="7.7865">
        <ele>133.8</ele>
        <time>2020-06-28T10:24:45Z</time>
      </trkpt>
      <trkpt lat="48.64071" lon="7.78642">
        <ele>133.8</ele>
        <time>2020-06-28T10:24:46Z</time>
      </trkpt>
      <trkpt lat="48.64066" lon="7.78634">
        <ele>133.9</ele>
        <time>2020-06-28T10:24:47Z</time>
      </trkpt>
      <trkpt lat="48.64061" lon="7.78627">
        <ele>133.9</ele>
        <time>2020-06-28T10:24:48Z</time>
      </trkpt>
      <trkpt lat="48.64056" lon="7.78619">
        <ele>133.8</ele>
        <time>2020-06-28T10:24:49Z</time>
      </trkpt>
      <trkpt lat="48.64051" lon="7.78612">
        <ele>133.7</ele>
        <time>2020-06-28T10:24:50Z</time>
      </trkpt>
      <trkpt lat="48.64047" lon="7.78604">
        <ele>133.7</ele>
        <time>2020-06-28T10:24:51Z</time>
      </trkpt>
      <trkpt lat="48.64042" lon="7.78597">
        <ele>133.7</ele>
        <time>2020-06-28T10:24:52Z</time>
      </trkpt>
      <trkpt lat="48.64038" lon="7.7859">
        <ele>133.6</ele>
        <time>2020-06-28T10:24:53Z</time>
      </trkpt>
      <trkpt lat="48.64033" lon="7.78583">
        <ele>133.6</ele>
        <time>2020-06-28T10:24:54Z</time>
      </trkpt>
      <trkpt lat="48.64029" lon="7.78575">
        <ele>133.6</ele>
        <time>2020-06-28T10:24:55Z</time>
      </trkpt>
      <trkpt lat="48.64025" lon="7.78568">
        <ele>133.6</ele>
        <time>2020-06-28T10:24:56Z</time>
      </trkpt>
      <trkpt lat="48.6402" lon="7.7856">
        <ele>133.6</ele>
        <time>2020-06-28T10:24:57Z</time>
      </trkpt>
      <trkpt lat="48.64017" lon="7.78551">
        <ele>133.6</ele>
        <time>2020-06-28T10:24:58Z</time>
      </trkpt>
      <trkpt lat="48.64014" lon="7.78542">
        <ele>133.6</ele>
        <time>2020-06-28T10:24:59Z</time>
      </trkpt>
      <trkpt lat="48.64012" lon="7.78534">
        <ele>133.6</ele>
        <time>2020-06-28T10:25:00Z</time>
      </trkpt>
      <trkpt lat="48.6401" lon="7.78527">
        <ele>133.5</ele>
        <time>2020-06-28T10:25:01Z</time>
      </trkpt>
      <trkpt lat="48.64009" lon="7.78519">
        <ele>133.6</ele>
        <time>2020-06-28T10:25:02Z</time>
      </trkpt>
      <trkpt lat="48.64007" lon="7.78512">
        <ele>133.6</ele>
        <time>2020-06-28T10:25:03Z</time>
      </trkpt>
      <trkpt lat="48.64005" lon="7.78505">
        <ele>133.6</ele>
        <time>2020-06-28T10:25:04Z</time>
      </trkpt>
      <trkpt lat="48.64005" lon="7.78497">
        <ele>134.4</ele>
        <time>2020-06-28T10:25:05Z</time>
      </trkpt>
      <trkpt lat="48.64003" lon="7.78489">
        <ele>134.3</ele>
        <time>2020-06-28T10:25:06Z</time>
      </trkpt>
      <trkpt lat="48.63999" lon="7.78483">
        <ele>133.9</ele>
        <time>2020-06-28T10:25:07Z</time>
      </trkpt>
      <trkpt lat="48.63996" lon="7.78476">
        <ele>133.9</ele>
        <time>2020-06-28T10:25:08Z</time>
      </trkpt>
      <trkpt lat="48.63991" lon="7.7847">
        <ele>133.9</ele>
        <time>2020-06-28T10:25:09Z</time>
      </trkpt>
      <trkpt lat="48.63988" lon="7.78463">
        <ele>133.9</ele>
        <time>2020-06-28T10:25:10Z</time>
      </trkpt>
      <trkpt lat="48.63985" lon="7.78455">
        <ele>133.9</ele>
        <time>2020-06-28T10:25:11Z</time>
      </trkpt>
      <trkpt lat="48.63983" lon="7.78448">
        <ele>133.9</ele>
        <time>2020-06-28T10:25:12Z</time>
      </trkpt>
      <trkpt lat="48.63982" lon="7.7844">
        <ele>133.9</ele>
        <time>2020-06-28T10:25:13Z</time>
      </trkpt>
      <trkpt lat="48.6398" lon="7.78433">
        <ele>133.9</ele>
        <time>2020-06-28T10:25:14Z</time>
      </trkpt>
      <trkpt lat="48.63978" lon="7.78425">
        <ele>134</ele>
        <time>2020-06-28T10:25:15Z</time>
      </trkpt>
      <trkpt lat="48.63976" lon="7.78418">
        <ele>134</ele>
        <time>2020-06-28T10:25:16Z</time>
      </trkpt>
      <trkpt lat="48.63973" lon="7.7841">
        <ele>134</ele>
        <time>2020-06-28T10:25:17Z</time>
      </trkpt>
      <trkpt lat="48.6397" lon="7.78402">
        <ele>134.1</ele>
        <time>2020-06-28T10:25:18Z</time>
      </trkpt>
      <trkpt lat="48.63966" lon="7.78394">
        <ele>134.1</ele>
        <time>2020-06-28T10:25:19Z</time>
      </trkpt>
      <trkpt lat="48.63965" lon="7.78385">
        <ele>134.2</ele>
        <time>2020-06-28T10:25:20Z</time>
      </trkpt>
      <trkpt lat="48.63963" lon="7.78377">
        <ele>134.2</ele>
        <time>2020-06-28T10:25:21Z</time>
      </trkpt>
      <trkpt lat="48.63963" lon="7.78368">
        <ele>134.2</ele>
        <time>2020-06-28T10:25:22Z</time>
      </trkpt>
      <trkpt lat="48.63962" lon="7.78359">
        <ele>134.1</ele>
        <time>2020-06-28T10:25:23Z</time>
      </trkpt>
      <trkpt lat="48.63962" lon="7.7835">
        <ele>134.1</ele>
        <time>2020-06-28T10:25:24Z</time>
      </trkpt>
      <trkpt lat="48.6396" lon="7.78341">
        <ele>134.1</ele>
        <time>2020-06-28T10:25:25Z</time>
      </trkpt>
      <trkpt lat="48.63959" lon="7.78332">
        <ele>134.1</ele>
        <time>2020-06-28T10:25:26Z</time>
      </trkpt>
      <trkpt lat="48.63958" lon="7.78323">
        <ele>134.1</ele>
        <time>2020-06-28T10:25:27Z</time>
      </trkpt>
      <trkpt lat="48.63958" lon="7.78314">
        <ele>134.1</ele>
        <time>2020-06-28T10:25:28Z</time>
      </trkpt>
      <trkpt lat="48.63957" lon="7.78305">
        <ele>134.2</ele>
        <time>2020-06-28T10:25:29Z</time>
      </trkpt>
      <trkpt lat="48.63956" lon="7.78297">
        <ele>134.3</ele>
        <time>2020-06-28T10:25:30Z</time>
      </trkpt>
      <trkpt lat="48.63955" lon="7.78288">
        <ele>134.4</ele>
        <time>2020-06-28T10:25:31Z</time>
      </trkpt>
      <trkpt lat="48.63953" lon="7.7828">
        <ele>134.4</ele>
        <time>2020-06-28T10:25:32Z</time>
      </trkpt>
      <trkpt lat="48.63952" lon="7.78271">
        <ele>134.5</ele>
        <time>2020-06-28T10:25:33Z</time>
      </trkpt>
      <trkpt lat="48.63951" lon="7.78261">
        <ele>134.6</ele>
        <time>2020-06-28T10:25:34Z</time>
      </trkpt>
      <trkpt lat="48.63949" lon="7.78252">
        <ele>134.5</ele>
        <time>2020-06-28T10:25:35Z</time>
      </trkpt>
      <trkpt lat="48.63948" lon="7.78243">
        <ele>134.5</ele>
        <time>2020-06-28T10:25:36Z</time>
      </trkpt>
      <trkpt lat="48.63947" lon="7.78234">
        <ele>134.5</ele>
        <time>2020-06-28T10:25:37Z</time>
      </trkpt>
      <trkpt lat="48.63945" lon="7.78225">
        <ele>134.5</ele>
        <time>2020-06-28T10:25:38Z</time>
      </trkpt>
      <trkpt lat="48.63943" lon="7.78216">
        <ele>134.6</ele>
        <time>2020-06-28T10:25:39Z</time>
      </trkpt>
      <trkpt lat="48.63942" lon="7.78207">
        <ele>134.6</ele>
        <time>2020-06-28T10:25:40Z</time>
      </trkpt>
      <trkpt lat="48.6394" lon="7.78199">
        <ele>134.6</ele>
        <time>2020-06-28T10:25:41Z</time>
      </trkpt>
      <trkpt lat="48.63938" lon="7.78191">
        <ele>134.7</ele>
        <time>2020-06-28T10:25:42Z</time>
      </trkpt>
      <trkpt lat="48.63936" lon="7.78182">
        <ele>134.7</ele>
        <time>2020-06-28T10:25:43Z</time>
      </trkpt>
      <trkpt lat="48.63935" lon="7.78175">
        <ele>134.7</ele>
        <time>2020-06-28T10:25:44Z</time>
      </trkpt>
      <trkpt lat="48.63933" lon="7.78167">
        <ele>134.8</ele>
        <time>2020-06-28T10:25:45Z</time>
      </trkpt>
      <trkpt lat="48.63932" lon="7.78158">
        <ele>134.8</ele>
        <time>2020-06-28T10:25:46Z</time>
      </trkpt>
      <trkpt lat="48.63932" lon="7.7815">
        <ele>134.9</ele>
        <time>2020-06-28T10:25:47Z</time>
      </trkpt>
      <trkpt lat="48.63931" lon="7.78142">
        <ele>134.9</ele>
        <time>2020-06-28T10:25:48Z</time>
      </trkpt>
      <trkpt lat="48.6393" lon="7.78134">
        <ele>134.9</ele>
        <time>2020-06-28T10:25:49Z</time>
      </trkpt>
      <trkpt lat="48.63928" lon="7.78127">
        <ele>135</ele>
        <time>2020-06-28T10:25:50Z</time>
      </trkpt>
      <trkpt lat="48.63927" lon="7.78121">
        <ele>135</ele>
        <time>2020-06-28T10:25:51Z</time>
      </trkpt>
      <trkpt lat="48.63926" lon="7.78115">
        <ele>134.9</ele>
        <time>2020-06-28T10:25:52Z</time>
      </trkpt>
      <trkpt lat="48.63925" lon="7.78109">
        <ele>134.9</ele>
        <time>2020-06-28T10:25:53Z</time>
      </trkpt>
      <trkpt lat="48.63925" lon="7.78103">
        <ele>134.8</ele>
        <time>2020-06-28T10:25:54Z</time>
      </trkpt>
      <trkpt lat="48.63925" lon="7.78097">
        <ele>134.8</ele>
        <time>2020-06-28T10:25:55Z</time>
      </trkpt>
      <trkpt lat="48.63927" lon="7.78092">
        <ele>134.6</ele>
        <time>2020-06-28T10:25:56Z</time>
      </trkpt>
      <trkpt lat="48.6393" lon="7.78087">
        <ele>134.6</ele>
        <time>2020-06-28T10:25:57Z</time>
      </trkpt>
      <trkpt lat="48.63932" lon="7.7808">
        <ele>134.6</ele>
        <time>2020-06-28T10:25:58Z</time>
      </trkpt>
      <trkpt lat="48.63933" lon="7.78072">
        <ele>134.6</ele>
        <time>2020-06-28T10:25:59Z</time>
      </trkpt>
      <trkpt lat="48.63934" lon="7.78065">
        <ele>134.6</ele>
        <time>2020-06-28T10:26:00Z</time>
      </trkpt>
      <trkpt lat="48.63933" lon="7.78057">
        <ele>134.6</ele>
        <time>2020-06-28T10:26:01Z</time>
      </trkpt>
      <trkpt lat="48.63932" lon="7.7805">
        <ele>134.6</ele>
        <time>2020-06-28T10:26:02Z</time>
      </trkpt>
      <trkpt lat="48.63929" lon="7.78044">
        <ele>134.6</ele>
        <time>2020-06-28T10:26:03Z</time>
      </trkpt>
      <trkpt lat="48.63927" lon="7.78037">
        <ele>134.6</ele>
        <time>2020-06-28T10:26:04Z</time>
      </trkpt>
      <trkpt lat="48.63923" lon="7.7803">
        <ele>134.7</ele>
        <time>2020-06-28T10:26:05Z</time>
      </trkpt>
      <trkpt lat="48.6392" lon="7.78025">
        <ele>134.8</ele>
        <time>2020-06-28T10:26:06Z</time>
      </trkpt>
      <trkpt lat="48.63915" lon="7.78021">
        <ele>134.8</ele>
        <time>2020-06-28T10:26:07Z</time>
      </trkpt>
      <trkpt lat="48.63911" lon="7.78019">
        <ele>134.9</ele>
        <time>2020-06-28T10:26:08Z</time>
      </trkpt>
      <trkpt lat="48.63906" lon="7.78018">
        <ele>135</ele>
        <time>2020-06-28T10:26:09Z</time>
      </trkpt>
      <trkpt lat="48.63902" lon="7.78016">
        <ele>135</ele>
        <time>2020-06-28T10:26:10Z</time>
      </trkpt>
      <trkpt lat="48.63899" lon="7.78013">
        <ele>135</ele>
        <time>2020-06-28T10:26:11Z</time>
      </trkpt>
      <trkpt lat="48.63896" lon="7.78009">
        <ele>135.1</ele>
        <time>2020-06-28T10:26:12Z</time>
      </trkpt>
      <trkpt lat="48.63894" lon="7.78006">
        <ele>135.1</ele>
        <time>2020-06-28T10:26:13Z</time>
      </trkpt>
      <trkpt lat="48.63891" lon="7.78004">
        <ele>135</ele>
        <time>2020-06-28T10:26:14Z</time>
      </trkpt>
      <trkpt lat="48.6389" lon="7.78004">
        <ele>135</ele>
        <time>2020-06-28T10:26:15Z</time>
      </trkpt>
      <trkpt lat="48.63887" lon="7.78001">
        <ele>135</ele>
        <time>2020-06-28T10:26:16Z</time>
      </trkpt>
      <trkpt lat="48.63886" lon="7.78">
        <ele>135</ele>
        <time>2020-06-28T10:26:17Z</time>
      </trkpt>
      <trkpt lat="48.63885" lon="7.77999">
        <ele>135</ele>
        <time>2020-06-28T10:26:18Z</time>
      </trkpt>
      <trkpt lat="48.63883" lon="7.78">
        <ele>135</ele>
        <time>2020-06-28T10:26:19Z</time>
      </trkpt>
      <trkpt lat="48.6388" lon="7.78">
        <ele>135</ele>
        <time>2020-06-28T10:26:20Z</time>
      </trkpt>
      <trkpt lat="48.6388" lon="7.78002">
        <ele>135</ele>
        <time>2020-06-28T10:26:21Z</time>
      </trkpt>
      <trkpt lat="48.63881" lon="7.78004">
        <ele>135</ele>
        <time>2020-06-28T10:26:22Z</time>
      </trkpt>
      <trkpt lat="48.63882" lon="7.78007">
        <ele>135</ele>
        <time>2020-06-28T10:26:23Z</time>
      </trkpt>
      <trkpt lat="48.63881" lon="7.78009">
        <ele>135</ele>
        <time>2020-06-28T10:26:24Z</time>
      </trkpt>
      <trkpt lat="48.63879" lon="7.78011">
        <ele>135</ele>
        <time>2020-06-28T10:26:25Z</time>
      </trkpt>
      <trkpt lat="48.63878" lon="7.78011">
        <ele>135</ele>
        <time>2020-06-28T10:26:26Z</time>
      </trkpt>
      <trkpt lat="48.63875" lon="7.78011">
        <ele>135</ele>
        <time>2020-06-28T10:26:27Z</time>
      </trkpt>
      <trkpt lat="48.63873" lon="7.78017">
        <ele>135</ele>
        <time>2020-06-28T10:26:28Z</time>
      </trkpt>
      <trkpt lat="48.63873" lon="7.78019">
        <ele>135</ele>
        <time>2020-06-28T10:26:29Z</time>
      </trkpt>
      <trkpt lat="48.63872" lon="7.78024">
        <ele>135.1</ele>
        <time>2020-06-28T10:26:30Z</time>
      </trkpt>
      <trkpt lat="48.6387" lon="7.78028">
        <ele>135.1</ele>
        <time>2020-06-28T10:26:31Z</time>
      </trkpt>
      <trkpt lat="48.63868" lon="7.78033">
        <ele>135.2</ele>
        <time>2020-06-28T10:26:32Z</time>
      </trkpt>
      <trkpt lat="48.63867" lon="7.78039">
        <ele>135.2</ele>
        <time>2020-06-28T10:26:33Z</time>
      </trkpt>
      <trkpt lat="48.63866" lon="7.78045">
        <ele>135.3</ele>
        <time>2020-06-28T10:26:34Z</time>
      </trkpt>
      <trkpt lat="48.63866" lon="7.7805">
        <ele>135.4</ele>
        <time>2020-06-28T10:26:35Z</time>
      </trkpt>
      <trkpt lat="48.63865" lon="7.78055">
        <ele>135.4</ele>
        <time>2020-06-28T10:26:36Z</time>
      </trkpt>
      <trkpt lat="48.63865" lon="7.7806">
        <ele>135.3</ele>
        <time>2020-06-28T10:26:37Z</time>
      </trkpt>
      <trkpt lat="48.63864" lon="7.78064">
        <ele>135.3</ele>
        <time>2020-06-28T10:26:38Z</time>
      </trkpt>
      <trkpt lat="48.63863" lon="7.78069">
        <ele>135.3</ele>
        <time>2020-06-28T10:26:39Z</time>
      </trkpt>
      <trkpt lat="48.63862" lon="7.78073">
        <ele>135.3</ele>
        <time>2020-06-28T10:26:40Z</time>
      </trkpt>
      <trkpt lat="48.63859" lon="7.78077">
        <ele>135.3</ele>
        <time>2020-06-28T10:26:41Z</time>
      </trkpt>
      <trkpt lat="48.63855" lon="7.78081">
        <ele>135.3</ele>
        <time>2020-06-28T10:26:42Z</time>
      </trkpt>
      <trkpt lat="48.63852" lon="7.78086">
        <ele>135.4</ele>
        <time>2020-06-28T10:26:43Z</time>
      </trkpt>
      <trkpt lat="48.63848" lon="7.78091">
        <ele>135.4</ele>
        <time>2020-06-28T10:26:44Z</time>
      </trkpt>
      <trkpt lat="48.63844" lon="7.78095">
        <ele>135.5</ele>
        <time>2020-06-28T10:26:45Z</time>
      </trkpt>
      <trkpt lat="48.6384" lon="7.781">
        <ele>135.5</ele>
        <time>2020-06-28T10:26:46Z</time>
      </trkpt>
      <trkpt lat="48.63837" lon="7.78104">
        <ele>135.6</ele>
        <time>2020-06-28T10:26:47Z</time>
      </trkpt>
      <trkpt lat="48.63832" lon="7.78108">
        <ele>135.6</ele>
        <time>2020-06-28T10:26:48Z</time>
      </trkpt>
      <trkpt lat="48.63829" lon="7.78112">
        <ele>135.6</ele>
        <time>2020-06-28T10:26:49Z</time>
      </trkpt>
      <trkpt lat="48.63824" lon="7.78116">
        <ele>135.6</ele>
        <time>2020-06-28T10:26:50Z</time>
      </trkpt>
      <trkpt lat="48.63819" lon="7.78117">
        <ele>135.6</ele>
        <time>2020-06-28T10:26:51Z</time>
      </trkpt>
      <trkpt lat="48.63813" lon="7.78118">
        <ele>135.6</ele>
        <time>2020-06-28T10:26:52Z</time>
      </trkpt>
      <trkpt lat="48.63808" lon="7.78118">
        <ele>135.6</ele>
        <time>2020-06-28T10:26:53Z</time>
      </trkpt>
      <trkpt lat="48.63802" lon="7.78116">
        <ele>135.6</ele>
        <time>2020-06-28T10:26:54Z</time>
      </trkpt>
      <trkpt lat="48.63796" lon="7.78115">
        <ele>135.5</ele>
        <time>2020-06-28T10:26:55Z</time>
      </trkpt>
      <trkpt lat="48.6379" lon="7.78113">
        <ele>135.5</ele>
        <time>2020-06-28T10:26:56Z</time>
      </trkpt>
      <trkpt lat="48.63785" lon="7.7811">
        <ele>135.4</ele>
        <time>2020-06-28T10:26:57Z</time>
      </trkpt>
      <trkpt lat="48.63779" lon="7.78107">
        <ele>135.4</ele>
        <time>2020-06-28T10:26:58Z</time>
      </trkpt>
      <trkpt lat="48.63773" lon="7.78104">
        <ele>135.4</ele>
        <time>2020-06-28T10:26:59Z</time>
      </trkpt>
      <trkpt lat="48.63767" lon="7.781">
        <ele>135.3</ele>
        <time>2020-06-28T10:27:00Z</time>
      </trkpt>
      <trkpt lat="48.63762" lon="7.78095">
        <ele>135.3</ele>
        <time>2020-06-28T10:27:01Z</time>
      </trkpt>
      <trkpt lat="48.63757" lon="7.78089">
        <ele>135.3</ele>
        <time>2020-06-28T10:27:02Z</time>
      </trkpt>
      <trkpt lat="48.63751" lon="7.78084">
        <ele>135.3</ele>
        <time>2020-06-28T10:27:03Z</time>
      </trkpt>
      <trkpt lat="48.63746" lon="7.78078">
        <ele>135.2</ele>
        <time>2020-06-28T10:27:04Z</time>
      </trkpt>
      <trkpt lat="48.63741" lon="7.78073">
        <ele>135.2</ele>
        <time>2020-06-28T10:27:05Z</time>
      </trkpt>
      <trkpt lat="48.63736" lon="7.78068">
        <ele>135.2</ele>
        <time>2020-06-28T10:27:06Z</time>
      </trkpt>
      <trkpt lat="48.63731" lon="7.78062">
        <ele>135.2</ele>
        <time>2020-06-28T10:27:07Z</time>
      </trkpt>
      <trkpt lat="48.63726" lon="7.78055">
        <ele>135.1</ele>
        <time>2020-06-28T10:27:08Z</time>
      </trkpt>
      <trkpt lat="48.63721" lon="7.7805">
        <ele>135.1</ele>
        <time>2020-06-28T10:27:09Z</time>
      </trkpt>
      <trkpt lat="48.63716" lon="7.78045">
        <ele>135.1</ele>
        <time>2020-06-28T10:27:10Z</time>
      </trkpt>
      <trkpt lat="48.63712" lon="7.78037">
        <ele>135</ele>
        <time>2020-06-28T10:27:11Z</time>
      </trkpt>
      <trkpt lat="48.63706" lon="7.78032">
        <ele>135</ele>
        <time>2020-06-28T10:27:12Z</time>
      </trkpt>
      <trkpt lat="48.63701" lon="7.78027">
        <ele>135</ele>
        <time>2020-06-28T10:27:13Z</time>
      </trkpt>
      <trkpt lat="48.63696" lon="7.78022">
        <ele>135</ele>
        <time>2020-06-28T10:27:14Z</time>
      </trkpt>
      <trkpt lat="48.6369" lon="7.78018">
        <ele>135</ele>
        <time>2020-06-28T10:27:15Z</time>
      </trkpt>
      <trkpt lat="48.63685" lon="7.78013">
        <ele>135.1</ele>
        <time>2020-06-28T10:27:16Z</time>
      </trkpt>
      <trkpt lat="48.6368" lon="7.78008">
        <ele>135.1</ele>
        <time>2020-06-28T10:27:17Z</time>
      </trkpt>
      <trkpt lat="48.63675" lon="7.78004">
        <ele>135.1</ele>
        <time>2020-06-28T10:27:18Z</time>
      </trkpt>
      <trkpt lat="48.63669" lon="7.78001">
        <ele>135.1</ele>
        <time>2020-06-28T10:27:19Z</time>
      </trkpt>
      <trkpt lat="48.63663" lon="7.77996">
        <ele>135</ele>
        <time>2020-06-28T10:27:20Z</time>
      </trkpt>
      <trkpt lat="48.63658" lon="7.77991">
        <ele>134.9</ele>
        <time>2020-06-28T10:27:21Z</time>
      </trkpt>
      <trkpt lat="48.63652" lon="7.77986">
        <ele>134.8</ele>
        <time>2020-06-28T10:27:22Z</time>
      </trkpt>
      <trkpt lat="48.63646" lon="7.77983">
        <ele>134.8</ele>
        <time>2020-06-28T10:27:23Z</time>
      </trkpt>
      <trkpt lat="48.6364" lon="7.77978">
        <ele>134.7</ele>
        <time>2020-06-28T10:27:24Z</time>
      </trkpt>
      <trkpt lat="48.63634" lon="7.77973">
        <ele>134.6</ele>
        <time>2020-06-28T10:27:25Z</time>
      </trkpt>
      <trkpt lat="48.63627" lon="7.77968">
        <ele>134.5</ele>
        <time>2020-06-28T10:27:26Z</time>
      </trkpt>
      <trkpt lat="48.63621" lon="7.77962">
        <ele>134.4</ele>
        <time>2020-06-28T10:27:27Z</time>
      </trkpt>
      <trkpt lat="48.63615" lon="7.77956">
        <ele>134.4</ele>
        <time>2020-06-28T10:27:28Z</time>
      </trkpt>
      <trkpt lat="48.63609" lon="7.77952">
        <ele>134.3</ele>
        <time>2020-06-28T10:27:29Z</time>
      </trkpt>
      <trkpt lat="48.63602" lon="7.77947">
        <ele>134.3</ele>
        <time>2020-06-28T10:27:30Z</time>
      </trkpt>
      <trkpt lat="48.63596" lon="7.77943">
        <ele>134.2</ele>
        <time>2020-06-28T10:27:31Z</time>
      </trkpt>
      <trkpt lat="48.63589" lon="7.77938">
        <ele>134.2</ele>
        <time>2020-06-28T10:27:32Z</time>
      </trkpt>
      <trkpt lat="48.63583" lon="7.77933">
        <ele>134.2</ele>
        <time>2020-06-28T10:27:33Z</time>
      </trkpt>
      <trkpt lat="48.63576" lon="7.77929">
        <ele>134.2</ele>
        <time>2020-06-28T10:27:34Z</time>
      </trkpt>
      <trkpt lat="48.63569" lon="7.77924">
        <ele>134.2</ele>
        <time>2020-06-28T10:27:35Z</time>
      </trkpt>
      <trkpt lat="48.63562" lon="7.7792">
        <ele>134.2</ele>
        <time>2020-06-28T10:27:36Z</time>
      </trkpt>
      <trkpt lat="48.63556" lon="7.77915">
        <ele>134.2</ele>
        <time>2020-06-28T10:27:37Z</time>
      </trkpt>
      <trkpt lat="48.63549" lon="7.7791">
        <ele>134.2</ele>
        <time>2020-06-28T10:27:38Z</time>
      </trkpt>
      <trkpt lat="48.63542" lon="7.77905">
        <ele>134.2</ele>
        <time>2020-06-28T10:27:39Z</time>
      </trkpt>
      <trkpt lat="48.63535" lon="7.77901">
        <ele>134.2</ele>
        <time>2020-06-28T10:27:40Z</time>
      </trkpt>
      <trkpt lat="48.63529" lon="7.77897">
        <ele>134.1</ele>
        <time>2020-06-28T10:27:41Z</time>
      </trkpt>
      <trkpt lat="48.63522" lon="7.77892">
        <ele>134.1</ele>
        <time>2020-06-28T10:27:42Z</time>
      </trkpt>
      <trkpt lat="48.63515" lon="7.77888">
        <ele>134.1</ele>
        <time>2020-06-28T10:27:43Z</time>
      </trkpt>
      <trkpt lat="48.63509" lon="7.77884">
        <ele>134.1</ele>
        <time>2020-06-28T10:27:44Z</time>
      </trkpt>
      <trkpt lat="48.63502" lon="7.7788">
        <ele>134.1</ele>
        <time>2020-06-28T10:27:45Z</time>
      </trkpt>
      <trkpt lat="48.63496" lon="7.77875">
        <ele>134.1</ele>
        <time>2020-06-28T10:27:46Z</time>
      </trkpt>
      <trkpt lat="48.6349" lon="7.7787">
        <ele>134.1</ele>
        <time>2020-06-28T10:27:47Z</time>
      </trkpt>
      <trkpt lat="48.63483" lon="7.77866">
        <ele>134.2</ele>
        <time>2020-06-28T10:27:48Z</time>
      </trkpt>
      <trkpt lat="48.63477" lon="7.77861">
        <ele>134.2</ele>
        <time>2020-06-28T10:27:49Z</time>
      </trkpt>
      <trkpt lat="48.63471" lon="7.77857">
        <ele>134.2</ele>
        <time>2020-06-28T10:27:50Z</time>
      </trkpt>
      <trkpt lat="48.63464" lon="7.77853">
        <ele>134.2</ele>
        <time>2020-06-28T10:27:51Z</time>
      </trkpt>
      <trkpt lat="48.63458" lon="7.77848">
        <ele>134.3</ele>
        <time>2020-06-28T10:27:52Z</time>
      </trkpt>
      <trkpt lat="48.63452" lon="7.77843">
        <ele>134.3</ele>
        <time>2020-06-28T10:27:53Z</time>
      </trkpt>
      <trkpt lat="48.63446" lon="7.77839">
        <ele>134.4</ele>
        <time>2020-06-28T10:27:54Z</time>
      </trkpt>
      <trkpt lat="48.6344" lon="7.77835">
        <ele>134.4</ele>
        <time>2020-06-28T10:27:55Z</time>
      </trkpt>
      <trkpt lat="48.63433" lon="7.7783">
        <ele>134.4</ele>
        <time>2020-06-28T10:27:56Z</time>
      </trkpt>
      <trkpt lat="48.63427" lon="7.77825">
        <ele>134.4</ele>
        <time>2020-06-28T10:27:57Z</time>
      </trkpt>
      <trkpt lat="48.63421" lon="7.77821">
        <ele>134.4</ele>
        <time>2020-06-28T10:27:58Z</time>
      </trkpt>
      <trkpt lat="48.63414" lon="7.77816">
        <ele>134.4</ele>
        <time>2020-06-28T10:27:59Z</time>
      </trkpt>
      <trkpt lat="48.63408" lon="7.77812">
        <ele>134.4</ele>
        <time>2020-06-28T10:28:00Z</time>
      </trkpt>
      <trkpt lat="48.63402" lon="7.77807">
        <ele>134.5</ele>
        <time>2020-06-28T10:28:01Z</time>
      </trkpt>
      <trkpt lat="48.63396" lon="7.77802">
        <ele>134.5</ele>
        <time>2020-06-28T10:28:02Z</time>
      </trkpt>
      <trkpt lat="48.63389" lon="7.77798">
        <ele>134.5</ele>
        <time>2020-06-28T10:28:03Z</time>
      </trkpt>
      <trkpt lat="48.63383" lon="7.77793">
        <ele>134.6</ele>
        <time>2020-06-28T10:28:04Z</time>
      </trkpt>
      <trkpt lat="48.63376" lon="7.77789">
        <ele>134.6</ele>
        <time>2020-06-28T10:28:05Z</time>
      </trkpt>
      <trkpt lat="48.6337" lon="7.77784">
        <ele>134.6</ele>
        <time>2020-06-28T10:28:06Z</time>
      </trkpt>
      <trkpt lat="48.63363" lon="7.7778">
        <ele>134.7</ele>
        <time>2020-06-28T10:28:07Z</time>
      </trkpt>
      <trkpt lat="48.63357" lon="7.77775">
        <ele>134.7</ele>
        <time>2020-06-28T10:28:08Z</time>
      </trkpt>
      <trkpt lat="48.63351" lon="7.7777">
        <ele>134.8</ele>
        <time>2020-06-28T10:28:09Z</time>
      </trkpt>
      <trkpt lat="48.63344" lon="7.77766">
        <ele>134.8</ele>
        <time>2020-06-28T10:28:10Z</time>
      </trkpt>
      <trkpt lat="48.63338" lon="7.77761">
        <ele>134.9</ele>
        <time>2020-06-28T10:28:11Z</time>
      </trkpt>
      <trkpt lat="48.63332" lon="7.77755">
        <ele>134.9</ele>
        <time>2020-06-28T10:28:12Z</time>
      </trkpt>
      <trkpt lat="48.63326" lon="7.7775">
        <ele>135</ele>
        <time>2020-06-28T10:28:13Z</time>
      </trkpt>
      <trkpt lat="48.63319" lon="7.77745">
        <ele>135</ele>
        <time>2020-06-28T10:28:14Z</time>
      </trkpt>
      <trkpt lat="48.63313" lon="7.7774">
        <ele>135.1</ele>
        <time>2020-06-28T10:28:15Z</time>
      </trkpt>
      <trkpt lat="48.63307" lon="7.77735">
        <ele>135.1</ele>
        <time>2020-06-28T10:28:16Z</time>
      </trkpt>
      <trkpt lat="48.63301" lon="7.7773">
        <ele>135.1</ele>
        <time>2020-06-28T10:28:17Z</time>
      </trkpt>
      <trkpt lat="48.63294" lon="7.77725">
        <ele>135.1</ele>
        <time>2020-06-28T10:28:18Z</time>
      </trkpt>
      <trkpt lat="48.63288" lon="7.77721">
        <ele>135.2</ele>
        <time>2020-06-28T10:28:19Z</time>
      </trkpt>
      <trkpt lat="48.63281" lon="7.77717">
        <ele>135.2</ele>
        <time>2020-06-28T10:28:20Z</time>
      </trkpt>
      <trkpt lat="48.63275" lon="7.77712">
        <ele>135.1</ele>
        <time>2020-06-28T10:28:21Z</time>
      </trkpt>
      <trkpt lat="48.63268" lon="7.77707">
        <ele>135.1</ele>
        <time>2020-06-28T10:28:22Z</time>
      </trkpt>
      <trkpt lat="48.63262" lon="7.77703">
        <ele>135.1</ele>
        <time>2020-06-28T10:28:23Z</time>
      </trkpt>
      <trkpt lat="48.63255" lon="7.77698">
        <ele>135.1</ele>
        <time>2020-06-28T10:28:24Z</time>
      </trkpt>
      <trkpt lat="48.63249" lon="7.77694">
        <ele>135.1</ele>
        <time>2020-06-28T10:28:25Z</time>
      </trkpt>
      <trkpt lat="48.63242" lon="7.77689">
        <ele>135</ele>
        <time>2020-06-28T10:28:26Z</time>
      </trkpt>
      <trkpt lat="48.63236" lon="7.77685">
        <ele>135</ele>
        <time>2020-06-28T10:28:27Z</time>
      </trkpt>
      <trkpt lat="48.63229" lon="7.77681">
        <ele>134.9</ele>
        <time>2020-06-28T10:28:28Z</time>
      </trkpt>
      <trkpt lat="48.63222" lon="7.77677">
        <ele>134.9</ele>
        <time>2020-06-28T10:28:29Z</time>
      </trkpt>
      <trkpt lat="48.63215" lon="7.77673">
        <ele>134.9</ele>
        <time>2020-06-28T10:28:30Z</time>
      </trkpt>
      <trkpt lat="48.63209" lon="7.77669">
        <ele>134.9</ele>
        <time>2020-06-28T10:28:31Z</time>
      </trkpt>
      <trkpt lat="48.63202" lon="7.77667">
        <ele>135</ele>
        <time>2020-06-28T10:28:32Z</time>
      </trkpt>
      <trkpt lat="48.63195" lon="7.77663">
        <ele>135</ele>
        <time>2020-06-28T10:28:33Z</time>
      </trkpt>
      <trkpt lat="48.63189" lon="7.7766">
        <ele>135</ele>
        <time>2020-06-28T10:28:34Z</time>
      </trkpt>
      <trkpt lat="48.63183" lon="7.77658">
        <ele>135</ele>
        <time>2020-06-28T10:28:35Z</time>
      </trkpt>
      <trkpt lat="48.63177" lon="7.77656">
        <ele>134.9</ele>
        <time>2020-06-28T10:28:36Z</time>
      </trkpt>
      <trkpt lat="48.63171" lon="7.77654">
        <ele>134.9</ele>
        <time>2020-06-28T10:28:37Z</time>
      </trkpt>
      <trkpt lat="48.63165" lon="7.77651">
        <ele>134.8</ele>
        <time>2020-06-28T10:28:38Z</time>
      </trkpt>
      <trkpt lat="48.6316" lon="7.77648">
        <ele>134.7</ele>
        <time>2020-06-28T10:28:39Z</time>
      </trkpt>
      <trkpt lat="48.63155" lon="7.77648">
        <ele>134.7</ele>
        <time>2020-06-28T10:28:40Z</time>
      </trkpt>
      <trkpt lat="48.6315" lon="7.77647">
        <ele>134.7</ele>
        <time>2020-06-28T10:28:41Z</time>
      </trkpt>
      <trkpt lat="48.63143" lon="7.77646">
        <ele>134.6</ele>
        <time>2020-06-28T10:28:42Z</time>
      </trkpt>
      <trkpt lat="48.63137" lon="7.77644">
        <ele>134.6</ele>
        <time>2020-06-28T10:28:43Z</time>
      </trkpt>
      <trkpt lat="48.6313" lon="7.77643">
        <ele>134.6</ele>
        <time>2020-06-28T10:28:44Z</time>
      </trkpt>
      <trkpt lat="48.63123" lon="7.77642">
        <ele>134.6</ele>
        <time>2020-06-28T10:28:45Z</time>
      </trkpt>
      <trkpt lat="48.63116" lon="7.7764">
        <ele>134.6</ele>
        <time>2020-06-28T10:28:46Z</time>
      </trkpt>
      <trkpt lat="48.63109" lon="7.77638">
        <ele>134.6</ele>
        <time>2020-06-28T10:28:47Z</time>
      </trkpt>
      <trkpt lat="48.63102" lon="7.77637">
        <ele>134.6</ele>
        <time>2020-06-28T10:28:48Z</time>
      </trkpt>
      <trkpt lat="48.63095" lon="7.77637">
        <ele>134.6</ele>
        <time>2020-06-28T10:28:49Z</time>
      </trkpt>
      <trkpt lat="48.63088" lon="7.77636">
        <ele>134.7</ele>
        <time>2020-06-28T10:28:50Z</time>
      </trkpt>
      <trkpt lat="48.63081" lon="7.77635">
        <ele>134.7</ele>
        <time>2020-06-28T10:28:51Z</time>
      </trkpt>
      <trkpt lat="48.63074" lon="7.77635">
        <ele>134.7</ele>
        <time>2020-06-28T10:28:52Z</time>
      </trkpt>
      <trkpt lat="48.63067" lon="7.77636">
        <ele>134.7</ele>
        <time>2020-06-28T10:28:53Z</time>
      </trkpt>
      <trkpt lat="48.6306" lon="7.77637">
        <ele>134.7</ele>
        <time>2020-06-28T10:28:54Z</time>
      </trkpt>
      <trkpt lat="48.63054" lon="7.77637">
        <ele>134.7</ele>
        <time>2020-06-28T10:28:55Z</time>
      </trkpt>
      <trkpt lat="48.63047" lon="7.77637">
        <ele>134.7</ele>
        <time>2020-06-28T10:28:56Z</time>
      </trkpt>
      <trkpt lat="48.63041" lon="7.77638">
        <ele>134.7</ele>
        <time>2020-06-28T10:28:57Z</time>
      </trkpt>
      <trkpt lat="48.63035" lon="7.77638">
        <ele>134.6</ele>
        <time>2020-06-28T10:28:58Z</time>
      </trkpt>
      <trkpt lat="48.63029" lon="7.77639">
        <ele>134.6</ele>
        <time>2020-06-28T10:28:59Z</time>
      </trkpt>
      <trkpt lat="48.63023" lon="7.7764">
        <ele>134.5</ele>
        <time>2020-06-28T10:29:00Z</time>
      </trkpt>
      <trkpt lat="48.63017" lon="7.77642">
        <ele>134.5</ele>
        <time>2020-06-28T10:29:01Z</time>
      </trkpt>
      <trkpt lat="48.63012" lon="7.77643">
        <ele>134.6</ele>
        <time>2020-06-28T10:29:02Z</time>
      </trkpt>
      <trkpt lat="48.63007" lon="7.77644">
        <ele>134.7</ele>
        <time>2020-06-28T10:29:03Z</time>
      </trkpt>
      <trkpt lat="48.63002" lon="7.77643">
        <ele>134.8</ele>
        <time>2020-06-28T10:29:04Z</time>
      </trkpt>
      <trkpt lat="48.62997" lon="7.77644">
        <ele>135</ele>
        <time>2020-06-28T10:29:05Z</time>
      </trkpt>
      <trkpt lat="48.62994" lon="7.77647">
        <ele>135.3</ele>
        <time>2020-06-28T10:29:06Z</time>
      </trkpt>
      <trkpt lat="48.6299" lon="7.77649">
        <ele>135.4</ele>
        <time>2020-06-28T10:29:07Z</time>
      </trkpt>
      <trkpt lat="48.62986" lon="7.77652">
        <ele>135.4</ele>
        <time>2020-06-28T10:29:08Z</time>
      </trkpt>
      <trkpt lat="48.62982" lon="7.77652">
        <ele>135.3</ele>
        <time>2020-06-28T10:29:09Z</time>
      </trkpt>
      <trkpt lat="48.62978" lon="7.77653">
        <ele>135.2</ele>
        <time>2020-06-28T10:29:10Z</time>
      </trkpt>
      <trkpt lat="48.62973" lon="7.77654">
        <ele>135.1</ele>
        <time>2020-06-28T10:29:11Z</time>
      </trkpt>
      <trkpt lat="48.62969" lon="7.77652">
        <ele>135.1</ele>
        <time>2020-06-28T10:29:12Z</time>
      </trkpt>
      <trkpt lat="48.62965" lon="7.77649">
        <ele>135</ele>
        <time>2020-06-28T10:29:13Z</time>
      </trkpt>
      <trkpt lat="48.62961" lon="7.77649">
        <ele>134.9</ele>
        <time>2020-06-28T10:29:14Z</time>
      </trkpt>
      <trkpt lat="48.62956" lon="7.7765">
        <ele>134.8</ele>
        <time>2020-06-28T10:29:15Z</time>
      </trkpt>
      <trkpt lat="48.62951" lon="7.77652">
        <ele>134.7</ele>
        <time>2020-06-28T10:29:16Z</time>
      </trkpt>
      <trkpt lat="48.62946" lon="7.77655">
        <ele>134.6</ele>
        <time>2020-06-28T10:29:17Z</time>
      </trkpt>
      <trkpt lat="48.62942" lon="7.77658">
        <ele>134.5</ele>
        <time>2020-06-28T10:29:18Z</time>
      </trkpt>
      <trkpt lat="48.62937" lon="7.77661">
        <ele>134.5</ele>
        <time>2020-06-28T10:29:19Z</time>
      </trkpt>
      <trkpt lat="48.62931" lon="7.77665">
        <ele>134.4</ele>
        <time>2020-06-28T10:29:20Z</time>
      </trkpt>
      <trkpt lat="48.62926" lon="7.77669">
        <ele>134.3</ele>
        <time>2020-06-28T10:29:21Z</time>
      </trkpt>
      <trkpt lat="48.6292" lon="7.77672">
        <ele>134.3</ele>
        <time>2020-06-28T10:29:22Z</time>
      </trkpt>
      <trkpt lat="48.62914" lon="7.77676">
        <ele>134.3</ele>
        <time>2020-06-28T10:29:23Z</time>
      </trkpt>
      <trkpt lat="48.62909" lon="7.77679">
        <ele>134.3</ele>
        <time>2020-06-28T10:29:24Z</time>
      </trkpt>
      <trkpt lat="48.62903" lon="7.77682">
        <ele>134.3</ele>
        <time>2020-06-28T10:29:25Z</time>
      </trkpt>
      <trkpt lat="48.62897" lon="7.77687">
        <ele>134.2</ele>
        <time>2020-06-28T10:29:26Z</time>
      </trkpt>
      <trkpt lat="48.62891" lon="7.77692">
        <ele>134.2</ele>
        <time>2020-06-28T10:29:27Z</time>
      </trkpt>
      <trkpt lat="48.62885" lon="7.77697">
        <ele>134.2</ele>
        <time>2020-06-28T10:29:28Z</time>
      </trkpt>
      <trkpt lat="48.62879" lon="7.77701">
        <ele>134.2</ele>
        <time>2020-06-28T10:29:29Z</time>
      </trkpt>
      <trkpt lat="48.62873" lon="7.77706">
        <ele>134.1</ele>
        <time>2020-06-28T10:29:30Z</time>
      </trkpt>
      <trkpt lat="48.62867" lon="7.77711">
        <ele>134.1</ele>
        <time>2020-06-28T10:29:31Z</time>
      </trkpt>
      <trkpt lat="48.6286" lon="7.77715">
        <ele>134.1</ele>
        <time>2020-06-28T10:29:32Z</time>
      </trkpt>
      <trkpt lat="48.62854" lon="7.77721">
        <ele>134.1</ele>
        <time>2020-06-28T10:29:33Z</time>
      </trkpt>
      <trkpt lat="48.62848" lon="7.77726">
        <ele>134</ele>
        <time>2020-06-28T10:29:34Z</time>
      </trkpt>
      <trkpt lat="48.62842" lon="7.77731">
        <ele>134</ele>
        <time>2020-06-28T10:29:35Z</time>
      </trkpt>
      <trkpt lat="48.62835" lon="7.77737">
        <ele>134</ele>
        <time>2020-06-28T10:29:36Z</time>
      </trkpt>
      <trkpt lat="48.62829" lon="7.77742">
        <ele>134</ele>
        <time>2020-06-28T10:29:37Z</time>
      </trkpt>
      <trkpt lat="48.62822" lon="7.77747">
        <ele>134</ele>
        <time>2020-06-28T10:29:38Z</time>
      </trkpt>
      <trkpt lat="48.62816" lon="7.77752">
        <ele>134.1</ele>
        <time>2020-06-28T10:29:39Z</time>
      </trkpt>
      <trkpt lat="48.62811" lon="7.77757">
        <ele>134.1</ele>
        <time>2020-06-28T10:29:40Z</time>
      </trkpt>
      <trkpt lat="48.62805" lon="7.77761">
        <ele>134.1</ele>
        <time>2020-06-28T10:29:41Z</time>
      </trkpt>
      <trkpt lat="48.62799" lon="7.77766">
        <ele>134.1</ele>
        <time>2020-06-28T10:29:42Z</time>
      </trkpt>
      <trkpt lat="48.62794" lon="7.77769">
        <ele>134</ele>
        <time>2020-06-28T10:29:43Z</time>
      </trkpt>
      <trkpt lat="48.62789" lon="7.77773">
        <ele>134</ele>
        <time>2020-06-28T10:29:44Z</time>
      </trkpt>
      <trkpt lat="48.62784" lon="7.77776">
        <ele>134.1</ele>
        <time>2020-06-28T10:29:45Z</time>
      </trkpt>
      <trkpt lat="48.62779" lon="7.7778">
        <ele>134.1</ele>
        <time>2020-06-28T10:29:46Z</time>
      </trkpt>
      <trkpt lat="48.62774" lon="7.77783">
        <ele>134.2</ele>
        <time>2020-06-28T10:29:47Z</time>
      </trkpt>
      <trkpt lat="48.62768" lon="7.77786">
        <ele>134.3</ele>
        <time>2020-06-28T10:29:48Z</time>
      </trkpt>
      <trkpt lat="48.62763" lon="7.77791">
        <ele>134.3</ele>
        <time>2020-06-28T10:29:49Z</time>
      </trkpt>
      <trkpt lat="48.62758" lon="7.77795">
        <ele>134.3</ele>
        <time>2020-06-28T10:29:50Z</time>
      </trkpt>
      <trkpt lat="48.62752" lon="7.77799">
        <ele>134.3</ele>
        <time>2020-06-28T10:29:51Z</time>
      </trkpt>
      <trkpt lat="48.62746" lon="7.77801">
        <ele>134.3</ele>
        <time>2020-06-28T10:29:52Z</time>
      </trkpt>
      <trkpt lat="48.62741" lon="7.77805">
        <ele>134.2</ele>
        <time>2020-06-28T10:29:53Z</time>
      </trkpt>
      <trkpt lat="48.62735" lon="7.77809">
        <ele>134.1</ele>
        <time>2020-06-28T10:29:54Z</time>
      </trkpt>
      <trkpt lat="48.62729" lon="7.77814">
        <ele>134.1</ele>
        <time>2020-06-28T10:29:55Z</time>
      </trkpt>
      <trkpt lat="48.62723" lon="7.77817">
        <ele>134</ele>
        <time>2020-06-28T10:29:56Z</time>
      </trkpt>
      <trkpt lat="48.62717" lon="7.77819">
        <ele>133.9</ele>
        <time>2020-06-28T10:29:57Z</time>
      </trkpt>
      <trkpt lat="48.62711" lon="7.77821">
        <ele>133.8</ele>
        <time>2020-06-28T10:29:58Z</time>
      </trkpt>
      <trkpt lat="48.62704" lon="7.77823">
        <ele>133.7</ele>
        <time>2020-06-28T10:29:59Z</time>
      </trkpt>
      <trkpt lat="48.62698" lon="7.77825">
        <ele>133.7</ele>
        <time>2020-06-28T10:30:00Z</time>
      </trkpt>
      <trkpt lat="48.62691" lon="7.77826">
        <ele>133.7</ele>
        <time>2020-06-28T10:30:01Z</time>
      </trkpt>
      <trkpt lat="48.62684" lon="7.77827">
        <ele>133.7</ele>
        <time>2020-06-28T10:30:02Z</time>
      </trkpt>
      <trkpt lat="48.62678" lon="7.77827">
        <ele>133.8</ele>
        <time>2020-06-28T10:30:03Z</time>
      </trkpt>
      <trkpt lat="48.62672" lon="7.77827">
        <ele>133.8</ele>
        <time>2020-06-28T10:30:04Z</time>
      </trkpt>
      <trkpt lat="48.62665" lon="7.77827">
        <ele>133.8</ele>
        <time>2020-06-28T10:30:05Z</time>
      </trkpt>
      <trkpt lat="48.62659" lon="7.77824">
        <ele>133.8</ele>
        <time>2020-06-28T10:30:06Z</time>
      </trkpt>
      <trkpt lat="48.62652" lon="7.77821">
        <ele>133.8</ele>
        <time>2020-06-28T10:30:07Z</time>
      </trkpt>
      <trkpt lat="48.62646" lon="7.77819">
        <ele>133.8</ele>
        <time>2020-06-28T10:30:08Z</time>
      </trkpt>
      <trkpt lat="48.6264" lon="7.77816">
        <ele>133.8</ele>
        <time>2020-06-28T10:30:09Z</time>
      </trkpt>
      <trkpt lat="48.62633" lon="7.77814">
        <ele>133.8</ele>
        <time>2020-06-28T10:30:10Z</time>
      </trkpt>
      <trkpt lat="48.62628" lon="7.77808">
        <ele>133.8</ele>
        <time>2020-06-28T10:30:11Z</time>
      </trkpt>
      <trkpt lat="48.62622" lon="7.77804">
        <ele>133.8</ele>
        <time>2020-06-28T10:30:12Z</time>
      </trkpt>
      <trkpt lat="48.62617" lon="7.778">
        <ele>133.7</ele>
        <time>2020-06-28T10:30:13Z</time>
      </trkpt>
      <trkpt lat="48.62611" lon="7.77795">
        <ele>133.7</ele>
        <time>2020-06-28T10:30:14Z</time>
      </trkpt>
      <trkpt lat="48.62605" lon="7.7779">
        <ele>133.8</ele>
        <time>2020-06-28T10:30:15Z</time>
      </trkpt>
      <trkpt lat="48.62599" lon="7.77787">
        <ele>133.9</ele>
        <time>2020-06-28T10:30:16Z</time>
      </trkpt>
      <trkpt lat="48.62593" lon="7.77783">
        <ele>133.9</ele>
        <time>2020-06-28T10:30:17Z</time>
      </trkpt>
      <trkpt lat="48.62588" lon="7.77777">
        <ele>133.9</ele>
        <time>2020-06-28T10:30:18Z</time>
      </trkpt>
      <trkpt lat="48.62582" lon="7.7777">
        <ele>133.9</ele>
        <time>2020-06-28T10:30:19Z</time>
      </trkpt>
      <trkpt lat="48.62577" lon="7.77764">
        <ele>133.9</ele>
        <time>2020-06-28T10:30:20Z</time>
      </trkpt>
      <trkpt lat="48.62572" lon="7.77758">
        <ele>133.9</ele>
        <time>2020-06-28T10:30:21Z</time>
      </trkpt>
      <trkpt lat="48.62568" lon="7.77751">
        <ele>133.9</ele>
        <time>2020-06-28T10:30:22Z</time>
      </trkpt>
      <trkpt lat="48.62563" lon="7.77743">
        <ele>133.9</ele>
        <time>2020-06-28T10:30:23Z</time>
      </trkpt>
      <trkpt lat="48.62559" lon="7.77736">
        <ele>133.9</ele>
        <time>2020-06-28T10:30:24Z</time>
      </trkpt>
      <trkpt lat="48.62556" lon="7.77729">
        <ele>133.9</ele>
        <time>2020-06-28T10:30:25Z</time>
      </trkpt>
      <trkpt lat="48.62552" lon="7.77723">
        <ele>134</ele>
        <time>2020-06-28T10:30:26Z</time>
      </trkpt>
      <trkpt lat="48.62548" lon="7.77716">
        <ele>134</ele>
        <time>2020-06-28T10:30:27Z</time>
      </trkpt>
      <trkpt lat="48.62545" lon="7.7771">
        <ele>134.1</ele>
        <time>2020-06-28T10:30:28Z</time>
      </trkpt>
      <trkpt lat="48.62542" lon="7.77703">
        <ele>134.1</ele>
        <time>2020-06-28T10:30:29Z</time>
      </trkpt>
      <trkpt lat="48.62539" lon="7.77696">
        <ele>134.1</ele>
        <time>2020-06-28T10:30:30Z</time>
      </trkpt>
      <trkpt lat="48.62537" lon="7.77689">
        <ele>134.1</ele>
        <time>2020-06-28T10:30:31Z</time>
      </trkpt>
      <trkpt lat="48.62534" lon="7.77682">
        <ele>134.1</ele>
        <time>2020-06-28T10:30:32Z</time>
      </trkpt>
      <trkpt lat="48.62533" lon="7.77674">
        <ele>134.2</ele>
        <time>2020-06-28T10:30:33Z</time>
      </trkpt>
      <trkpt lat="48.62529" lon="7.77665">
        <ele>134.2</ele>
        <time>2020-06-28T10:30:34Z</time>
      </trkpt>
      <trkpt lat="48.62527" lon="7.77656">
        <ele>134.3</ele>
        <time>2020-06-28T10:30:35Z</time>
      </trkpt>
      <trkpt lat="48.62525" lon="7.77646">
        <ele>134.3</ele>
        <time>2020-06-28T10:30:36Z</time>
      </trkpt>
      <trkpt lat="48.62525" lon="7.77636">
        <ele>134.4</ele>
        <time>2020-06-28T10:30:37Z</time>
      </trkpt>
      <trkpt lat="48.62523" lon="7.77627">
        <ele>134.5</ele>
        <time>2020-06-28T10:30:38Z</time>
      </trkpt>
      <trkpt lat="48.62522" lon="7.77617">
        <ele>134.5</ele>
        <time>2020-06-28T10:30:39Z</time>
      </trkpt>
      <trkpt lat="48.62521" lon="7.77608">
        <ele>134.6</ele>
        <time>2020-06-28T10:30:40Z</time>
      </trkpt>
      <trkpt lat="48.62519" lon="7.77599">
        <ele>134.6</ele>
        <time>2020-06-28T10:30:41Z</time>
      </trkpt>
      <trkpt lat="48.62519" lon="7.7759">
        <ele>134.6</ele>
        <time>2020-06-28T10:30:42Z</time>
      </trkpt>
      <trkpt lat="48.62516" lon="7.77581">
        <ele>134.7</ele>
        <time>2020-06-28T10:30:43Z</time>
      </trkpt>
      <trkpt lat="48.62515" lon="7.77573">
        <ele>134.7</ele>
        <time>2020-06-28T10:30:44Z</time>
      </trkpt>
      <trkpt lat="48.62513" lon="7.77564">
        <ele>134.7</ele>
        <time>2020-06-28T10:30:45Z</time>
      </trkpt>
      <trkpt lat="48.62512" lon="7.77555">
        <ele>134.7</ele>
        <time>2020-06-28T10:30:46Z</time>
      </trkpt>
      <trkpt lat="48.62511" lon="7.77546">
        <ele>134.7</ele>
        <time>2020-06-28T10:30:47Z</time>
      </trkpt>
      <trkpt lat="48.62509" lon="7.77537">
        <ele>134.7</ele>
        <time>2020-06-28T10:30:48Z</time>
      </trkpt>
      <trkpt lat="48.62505" lon="7.7753">
        <ele>134.7</ele>
        <time>2020-06-28T10:30:49Z</time>
      </trkpt>
      <trkpt lat="48.62502" lon="7.77522">
        <ele>134.8</ele>
        <time>2020-06-28T10:30:50Z</time>
      </trkpt>
      <trkpt lat="48.625" lon="7.77513">
        <ele>134.8</ele>
        <time>2020-06-28T10:30:51Z</time>
      </trkpt>
      <trkpt lat="48.62499" lon="7.77504">
        <ele>134.8</ele>
        <time>2020-06-28T10:30:52Z</time>
      </trkpt>
      <trkpt lat="48.62498" lon="7.77495">
        <ele>134.8</ele>
        <time>2020-06-28T10:30:53Z</time>
      </trkpt>
      <trkpt lat="48.62497" lon="7.77486">
        <ele>134.7</ele>
        <time>2020-06-28T10:30:54Z</time>
      </trkpt>
      <trkpt lat="48.62494" lon="7.77478">
        <ele>134.6</ele>
        <time>2020-06-28T10:30:55Z</time>
      </trkpt>
      <trkpt lat="48.6249" lon="7.7747">
        <ele>134.5</ele>
        <time>2020-06-28T10:30:56Z</time>
      </trkpt>
      <trkpt lat="48.62487" lon="7.77462">
        <ele>134.5</ele>
        <time>2020-06-28T10:30:57Z</time>
      </trkpt>
      <trkpt lat="48.62483" lon="7.77454">
        <ele>134.4</ele>
        <time>2020-06-28T10:30:58Z</time>
      </trkpt>
      <trkpt lat="48.62481" lon="7.77446">
        <ele>134.4</ele>
        <time>2020-06-28T10:30:59Z</time>
      </trkpt>
      <trkpt lat="48.62478" lon="7.77438">
        <ele>134.4</ele>
        <time>2020-06-28T10:31:00Z</time>
      </trkpt>
      <trkpt lat="48.62475" lon="7.7743">
        <ele>134.4</ele>
        <time>2020-06-28T10:31:01Z</time>
      </trkpt>
      <trkpt lat="48.62473" lon="7.77423">
        <ele>134.3</ele>
        <time>2020-06-28T10:31:02Z</time>
      </trkpt>
      <trkpt lat="48.6247" lon="7.77416">
        <ele>134.3</ele>
        <time>2020-06-28T10:31:03Z</time>
      </trkpt>
      <trkpt lat="48.62467" lon="7.77409">
        <ele>134.3</ele>
        <time>2020-06-28T10:31:04Z</time>
      </trkpt>
      <trkpt lat="48.62464" lon="7.77401">
        <ele>134.3</ele>
        <time>2020-06-28T10:31:05Z</time>
      </trkpt>
      <trkpt lat="48.62461" lon="7.77393">
        <ele>134.2</ele>
        <time>2020-06-28T10:31:06Z</time>
      </trkpt>
      <trkpt lat="48.62458" lon="7.77385">
        <ele>134.2</ele>
        <time>2020-06-28T10:31:07Z</time>
      </trkpt>
      <trkpt lat="48.62454" lon="7.77378">
        <ele>134.1</ele>
        <time>2020-06-28T10:31:08Z</time>
      </trkpt>
      <trkpt lat="48.6245" lon="7.7737">
        <ele>134</ele>
        <time>2020-06-28T10:31:09Z</time>
      </trkpt>
      <trkpt lat="48.62446" lon="7.77362">
        <ele>133.9</ele>
        <time>2020-06-28T10:31:10Z</time>
      </trkpt>
      <trkpt lat="48.62442" lon="7.77355">
        <ele>133.9</ele>
        <time>2020-06-28T10:31:11Z</time>
      </trkpt>
      <trkpt lat="48.62439" lon="7.77348">
        <ele>133.9</ele>
        <time>2020-06-28T10:31:12Z</time>
      </trkpt>
      <trkpt lat="48.62436" lon="7.77341">
        <ele>133.9</ele>
        <time>2020-06-28T10:31:13Z</time>
      </trkpt>
      <trkpt lat="48.62432" lon="7.77335">
        <ele>133.9</ele>
        <time>2020-06-28T10:31:14Z</time>
      </trkpt>
      <trkpt lat="48.62428" lon="7.77329">
        <ele>133.9</ele>
        <time>2020-06-28T10:31:15Z</time>
      </trkpt>
      <trkpt lat="48.62424" lon="7.77322">
        <ele>133.9</ele>
        <time>2020-06-28T10:31:16Z</time>
      </trkpt>
      <trkpt lat="48.62422" lon="7.77315">
        <ele>134</ele>
        <time>2020-06-28T10:31:17Z</time>
      </trkpt>
      <trkpt lat="48.62419" lon="7.77309">
        <ele>134</ele>
        <time>2020-06-28T10:31:18Z</time>
      </trkpt>
      <trkpt lat="48.62416" lon="7.77302">
        <ele>134.1</ele>
        <time>2020-06-28T10:31:19Z</time>
      </trkpt>
      <trkpt lat="48.62413" lon="7.77296">
        <ele>134.1</ele>
        <time>2020-06-28T10:31:20Z</time>
      </trkpt>
      <trkpt lat="48.6241" lon="7.77289">
        <ele>134.2</ele>
        <time>2020-06-28T10:31:21Z</time>
      </trkpt>
      <trkpt lat="48.62406" lon="7.77283">
        <ele>134.3</ele>
        <time>2020-06-28T10:31:22Z</time>
      </trkpt>
      <trkpt lat="48.62403" lon="7.77277">
        <ele>134.4</ele>
        <time>2020-06-28T10:31:23Z</time>
      </trkpt>
      <trkpt lat="48.624" lon="7.7727">
        <ele>134.4</ele>
        <time>2020-06-28T10:31:24Z</time>
      </trkpt>
      <trkpt lat="48.62397" lon="7.77264">
        <ele>134.5</ele>
        <time>2020-06-28T10:31:25Z</time>
      </trkpt>
      <trkpt lat="48.62394" lon="7.77257">
        <ele>134.5</ele>
        <time>2020-06-28T10:31:26Z</time>
      </trkpt>
      <trkpt lat="48.6239" lon="7.7725">
        <ele>134.5</ele>
        <time>2020-06-28T10:31:27Z</time>
      </trkpt>
      <trkpt lat="48.62387" lon="7.77242">
        <ele>134.5</ele>
        <time>2020-06-28T10:31:28Z</time>
      </trkpt>
      <trkpt lat="48.62383" lon="7.77236">
        <ele>134.5</ele>
        <time>2020-06-28T10:31:29Z</time>
      </trkpt>
      <trkpt lat="48.6238" lon="7.7723">
        <ele>134.5</ele>
        <time>2020-06-28T10:31:30Z</time>
      </trkpt>
      <trkpt lat="48.62376" lon="7.77223">
        <ele>134.6</ele>
        <time>2020-06-28T10:31:31Z</time>
      </trkpt>
      <trkpt lat="48.62372" lon="7.77216">
        <ele>134.6</ele>
        <time>2020-06-28T10:31:32Z</time>
      </trkpt>
      <trkpt lat="48.62369" lon="7.7721">
        <ele>134.7</ele>
        <time>2020-06-28T10:31:33Z</time>
      </trkpt>
      <trkpt lat="48.62366" lon="7.77204">
        <ele>134.7</ele>
        <time>2020-06-28T10:31:34Z</time>
      </trkpt>
      <trkpt lat="48.62362" lon="7.77199">
        <ele>134.7</ele>
        <time>2020-06-28T10:31:35Z</time>
      </trkpt>
      <trkpt lat="48.62359" lon="7.77193">
        <ele>134.8</ele>
        <time>2020-06-28T10:31:36Z</time>
      </trkpt>
      <trkpt lat="48.62358" lon="7.77184">
        <ele>134.9</ele>
        <time>2020-06-28T10:31:37Z</time>
      </trkpt>
      <trkpt lat="48.62354" lon="7.77179">
        <ele>135</ele>
        <time>2020-06-28T10:31:38Z</time>
      </trkpt>
      <trkpt lat="48.62349" lon="7.77174">
        <ele>135.1</ele>
        <time>2020-06-28T10:31:39Z</time>
      </trkpt>
      <trkpt lat="48.62346" lon="7.77169">
        <ele>135.2</ele>
        <time>2020-06-28T10:31:40Z</time>
      </trkpt>
      <trkpt lat="48.62343" lon="7.77164">
        <ele>135.3</ele>
        <time>2020-06-28T10:31:41Z</time>
      </trkpt>
      <trkpt lat="48.6234" lon="7.77158">
        <ele>135.4</ele>
        <time>2020-06-28T10:31:42Z</time>
      </trkpt>
      <trkpt lat="48.62337" lon="7.77153">
        <ele>135.5</ele>
        <time>2020-06-28T10:31:43Z</time>
      </trkpt>
      <trkpt lat="48.62334" lon="7.77148">
        <ele>135.7</ele>
        <time>2020-06-28T10:31:44Z</time>
      </trkpt>
      <trkpt lat="48.62331" lon="7.77143">
        <ele>135.8</ele>
        <time>2020-06-28T10:31:45Z</time>
      </trkpt>
      <trkpt lat="48.62327" lon="7.77139">
        <ele>135.8</ele>
        <time>2020-06-28T10:31:46Z</time>
      </trkpt>
      <trkpt lat="48.62325" lon="7.77133">
        <ele>135.8</ele>
        <time>2020-06-28T10:31:47Z</time>
      </trkpt>
      <trkpt lat="48.62322" lon="7.77127">
        <ele>135.8</ele>
        <time>2020-06-28T10:31:48Z</time>
      </trkpt>
      <trkpt lat="48.62319" lon="7.77121">
        <ele>135.7</ele>
        <time>2020-06-28T10:31:49Z</time>
      </trkpt>
      <trkpt lat="48.62316" lon="7.77115">
        <ele>135.7</ele>
        <time>2020-06-28T10:31:50Z</time>
      </trkpt>
      <trkpt lat="48.62312" lon="7.77109">
        <ele>135.7</ele>
        <time>2020-06-28T10:31:51Z</time>
      </trkpt>
      <trkpt lat="48.62307" lon="7.77102">
        <ele>135.7</ele>
        <time>2020-06-28T10:31:52Z</time>
      </trkpt>
      <trkpt lat="48.62303" lon="7.77098">
        <ele>135.6</ele>
        <time>2020-06-28T10:31:53Z</time>
      </trkpt>
      <trkpt lat="48.62298" lon="7.77092">
        <ele>135.6</ele>
        <time>2020-06-28T10:31:54Z</time>
      </trkpt>
      <trkpt lat="48.62294" lon="7.77085">
        <ele>135.5</ele>
        <time>2020-06-28T10:31:55Z</time>
      </trkpt>
      <trkpt lat="48.6229" lon="7.77081">
        <ele>135.5</ele>
        <time>2020-06-28T10:31:56Z</time>
      </trkpt>
      <trkpt lat="48.62285" lon="7.77076">
        <ele>135.5</ele>
        <time>2020-06-28T10:31:57Z</time>
      </trkpt>
      <trkpt lat="48.62281" lon="7.7707">
        <ele>135.5</ele>
        <time>2020-06-28T10:31:58Z</time>
      </trkpt>
      <trkpt lat="48.62277" lon="7.77064">
        <ele>135.5</ele>
        <time>2020-06-28T10:31:59Z</time>
      </trkpt>
      <trkpt lat="48.62273" lon="7.77058">
        <ele>135.5</ele>
        <time>2020-06-28T10:32:00Z</time>
      </trkpt>
      <trkpt lat="48.62269" lon="7.77054">
        <ele>135.5</ele>
        <time>2020-06-28T10:32:01Z</time>
      </trkpt>
      <trkpt lat="48.62264" lon="7.7705">
        <ele>135.5</ele>
        <time>2020-06-28T10:32:02Z</time>
      </trkpt>
      <trkpt lat="48.62258" lon="7.77045">
        <ele>135.5</ele>
        <time>2020-06-28T10:32:03Z</time>
      </trkpt>
      <trkpt lat="48.62253" lon="7.7704">
        <ele>135.5</ele>
        <time>2020-06-28T10:32:04Z</time>
      </trkpt>
      <trkpt lat="48.62248" lon="7.77035">
        <ele>135.5</ele>
        <time>2020-06-28T10:32:05Z</time>
      </trkpt>
      <trkpt lat="48.62243" lon="7.7703">
        <ele>135.5</ele>
        <time>2020-06-28T10:32:06Z</time>
      </trkpt>
      <trkpt lat="48.62238" lon="7.77025">
        <ele>135.5</ele>
        <time>2020-06-28T10:32:07Z</time>
      </trkpt>
      <trkpt lat="48.62232" lon="7.77021">
        <ele>135.5</ele>
        <time>2020-06-28T10:32:08Z</time>
      </trkpt>
      <trkpt lat="48.62228" lon="7.77016">
        <ele>135.5</ele>
        <time>2020-06-28T10:32:09Z</time>
      </trkpt>
      <trkpt lat="48.62223" lon="7.77011">
        <ele>135.6</ele>
        <time>2020-06-28T10:32:10Z</time>
      </trkpt>
      <trkpt lat="48.62219" lon="7.77006">
        <ele>135.6</ele>
        <time>2020-06-28T10:32:11Z</time>
      </trkpt>
      <trkpt lat="48.62215" lon="7.77001">
        <ele>135.6</ele>
        <time>2020-06-28T10:32:12Z</time>
      </trkpt>
      <trkpt lat="48.6221" lon="7.76999">
        <ele>135.7</ele>
        <time>2020-06-28T10:32:13Z</time>
      </trkpt>
      <trkpt lat="48.62206" lon="7.76998">
        <ele>135.7</ele>
        <time>2020-06-28T10:32:14Z</time>
      </trkpt>
      <trkpt lat="48.62202" lon="7.76995">
        <ele>135.8</ele>
        <time>2020-06-28T10:32:15Z</time>
      </trkpt>
      <trkpt lat="48.62198" lon="7.76992">
        <ele>135.8</ele>
        <time>2020-06-28T10:32:16Z</time>
      </trkpt>
      <trkpt lat="48.62195" lon="7.76988">
        <ele>135.9</ele>
        <time>2020-06-28T10:32:17Z</time>
      </trkpt>
      <trkpt lat="48.62193" lon="7.76985">
        <ele>135.9</ele>
        <time>2020-06-28T10:32:18Z</time>
      </trkpt>
      <trkpt lat="48.6219" lon="7.76982">
        <ele>135.9</ele>
        <time>2020-06-28T10:32:19Z</time>
      </trkpt>
      <trkpt lat="48.62186" lon="7.7698">
        <ele>135.9</ele>
        <time>2020-06-28T10:32:20Z</time>
      </trkpt>
      <trkpt lat="48.62182" lon="7.76978">
        <ele>136</ele>
        <time>2020-06-28T10:32:21Z</time>
      </trkpt>
      <trkpt lat="48.62178" lon="7.76975">
        <ele>136</ele>
        <time>2020-06-28T10:32:22Z</time>
      </trkpt>
      <trkpt lat="48.62173" lon="7.76972">
        <ele>136</ele>
        <time>2020-06-28T10:32:23Z</time>
      </trkpt>
      <trkpt lat="48.62169" lon="7.7697">
        <ele>136</ele>
        <time>2020-06-28T10:32:24Z</time>
      </trkpt>
      <trkpt lat="48.62165" lon="7.76967">
        <ele>136</ele>
        <time>2020-06-28T10:32:25Z</time>
      </trkpt>
      <trkpt lat="48.62161" lon="7.76963">
        <ele>136</ele>
        <time>2020-06-28T10:32:26Z</time>
      </trkpt>
      <trkpt lat="48.62157" lon="7.76958">
        <ele>135.9</ele>
        <time>2020-06-28T10:32:27Z</time>
      </trkpt>
      <trkpt lat="48.62152" lon="7.76956">
        <ele>135.9</ele>
        <time>2020-06-28T10:32:28Z</time>
      </trkpt>
      <trkpt lat="48.62148" lon="7.76954">
        <ele>136</ele>
        <time>2020-06-28T10:32:29Z</time>
      </trkpt>
      <trkpt lat="48.62144" lon="7.76952">
        <ele>136</ele>
        <time>2020-06-28T10:32:30Z</time>
      </trkpt>
      <trkpt lat="48.62139" lon="7.76949">
        <ele>136</ele>
        <time>2020-06-28T10:32:31Z</time>
      </trkpt>
      <trkpt lat="48.62135" lon="7.76946">
        <ele>136</ele>
        <time>2020-06-28T10:32:32Z</time>
      </trkpt>
      <trkpt lat="48.62131" lon="7.76943">
        <ele>136</ele>
        <time>2020-06-28T10:32:33Z</time>
      </trkpt>
      <trkpt lat="48.62127" lon="7.76939">
        <ele>136</ele>
        <time>2020-06-28T10:32:34Z</time>
      </trkpt>
      <trkpt lat="48.62122" lon="7.76936">
        <ele>136</ele>
        <time>2020-06-28T10:32:35Z</time>
      </trkpt>
      <trkpt lat="48.62119" lon="7.76933">
        <ele>136.1</ele>
        <time>2020-06-28T10:32:36Z</time>
      </trkpt>
      <trkpt lat="48.62117" lon="7.7693">
        <ele>136.1</ele>
        <time>2020-06-28T10:32:37Z</time>
      </trkpt>
      <trkpt lat="48.62114" lon="7.76926">
        <ele>136.1</ele>
        <time>2020-06-28T10:32:38Z</time>
      </trkpt>
      <trkpt lat="48.62113" lon="7.76925">
        <ele>136.1</ele>
        <time>2020-06-28T10:32:39Z</time>
      </trkpt>
      <trkpt lat="48.62112" lon="7.7692">
        <ele>136.2</ele>
        <time>2020-06-28T10:32:40Z</time>
      </trkpt>
      <trkpt lat="48.62109" lon="7.76916">
        <ele>136.5</ele>
        <time>2020-06-28T10:32:41Z</time>
      </trkpt>
      <trkpt lat="48.62106" lon="7.76913">
        <ele>136.5</ele>
        <time>2020-06-28T10:32:42Z</time>
      </trkpt>
      <trkpt lat="48.62103" lon="7.76909">
        <ele>136.5</ele>
        <time>2020-06-28T10:32:43Z</time>
      </trkpt>
      <trkpt lat="48.621" lon="7.76907">
        <ele>136.5</ele>
        <time>2020-06-28T10:32:44Z</time>
      </trkpt>
      <trkpt lat="48.62096" lon="7.76907">
        <ele>136.4</ele>
        <time>2020-06-28T10:32:45Z</time>
      </trkpt>
      <trkpt lat="48.62093" lon="7.7691">
        <ele>136.4</ele>
        <time>2020-06-28T10:32:46Z</time>
      </trkpt>
      <trkpt lat="48.6209" lon="7.76912">
        <ele>136.4</ele>
        <time>2020-06-28T10:32:47Z</time>
      </trkpt>
      <trkpt lat="48.62087" lon="7.76913">
        <ele>136.4</ele>
        <time>2020-06-28T10:32:48Z</time>
      </trkpt>
      <trkpt lat="48.62084" lon="7.76914">
        <ele>136.4</ele>
        <time>2020-06-28T10:32:49Z</time>
      </trkpt>
      <trkpt lat="48.62081" lon="7.76912">
        <ele>136.3</ele>
        <time>2020-06-28T10:32:50Z</time>
      </trkpt>
      <trkpt lat="48.62078" lon="7.76911">
        <ele>136.3</ele>
        <time>2020-06-28T10:32:51Z</time>
      </trkpt>
      <trkpt lat="48.62074" lon="7.7691">
        <ele>136.3</ele>
        <time>2020-06-28T10:32:52Z</time>
      </trkpt>
      <trkpt lat="48.62071" lon="7.7691">
        <ele>136.3</ele>
        <time>2020-06-28T10:32:53Z</time>
      </trkpt>
      <trkpt lat="48.62067" lon="7.76908">
        <ele>136.3</ele>
        <time>2020-06-28T10:32:54Z</time>
      </trkpt>
      <trkpt lat="48.62063" lon="7.76906">
        <ele>136.3</ele>
        <time>2020-06-28T10:32:55Z</time>
      </trkpt>
      <trkpt lat="48.62059" lon="7.76905">
        <ele>136.2</ele>
        <time>2020-06-28T10:32:56Z</time>
      </trkpt>
      <trkpt lat="48.62055" lon="7.76905">
        <ele>136.2</ele>
        <time>2020-06-28T10:32:57Z</time>
      </trkpt>
      <trkpt lat="48.6205" lon="7.76906">
        <ele>136.3</ele>
        <time>2020-06-28T10:32:58Z</time>
      </trkpt>
      <trkpt lat="48.62046" lon="7.76904">
        <ele>136.3</ele>
        <time>2020-06-28T10:32:59Z</time>
      </trkpt>
      <trkpt lat="48.62042" lon="7.76903">
        <ele>136.4</ele>
        <time>2020-06-28T10:33:00Z</time>
      </trkpt>
      <trkpt lat="48.62037" lon="7.76901">
        <ele>136.4</ele>
        <time>2020-06-28T10:33:01Z</time>
      </trkpt>
      <trkpt lat="48.62033" lon="7.769">
        <ele>136.4</ele>
        <time>2020-06-28T10:33:02Z</time>
      </trkpt>
      <trkpt lat="48.62028" lon="7.76897">
        <ele>136.5</ele>
        <time>2020-06-28T10:33:03Z</time>
      </trkpt>
      <trkpt lat="48.62023" lon="7.76896">
        <ele>136.5</ele>
        <time>2020-06-28T10:33:04Z</time>
      </trkpt>
      <trkpt lat="48.62018" lon="7.76895">
        <ele>136.5</ele>
        <time>2020-06-28T10:33:05Z</time>
      </trkpt>
      <trkpt lat="48.62013" lon="7.76894">
        <ele>136.5</ele>
        <time>2020-06-28T10:33:06Z</time>
      </trkpt>
      <trkpt lat="48.62009" lon="7.76894">
        <ele>136.5</ele>
        <time>2020-06-28T10:33:07Z</time>
      </trkpt>
      <trkpt lat="48.62005" lon="7.76894">
        <ele>136.5</ele>
        <time>2020-06-28T10:33:08Z</time>
      </trkpt>
      <trkpt lat="48.62002" lon="7.76891">
        <ele>136.5</ele>
        <time>2020-06-28T10:33:09Z</time>
      </trkpt>
      <trkpt lat="48.61997" lon="7.76889">
        <ele>136.5</ele>
        <time>2020-06-28T10:33:10Z</time>
      </trkpt>
      <trkpt lat="48.61993" lon="7.76888">
        <ele>136.5</ele>
        <time>2020-06-28T10:33:11Z</time>
      </trkpt>
      <trkpt lat="48.61988" lon="7.76885">
        <ele>136.5</ele>
        <time>2020-06-28T10:33:12Z</time>
      </trkpt>
      <trkpt lat="48.61983" lon="7.76881">
        <ele>136.5</ele>
        <time>2020-06-28T10:33:13Z</time>
      </trkpt>
      <trkpt lat="48.61978" lon="7.76878">
        <ele>136.5</ele>
        <time>2020-06-28T10:33:14Z</time>
      </trkpt>
      <trkpt lat="48.61973" lon="7.76873">
        <ele>136.5</ele>
        <time>2020-06-28T10:33:15Z</time>
      </trkpt>
      <trkpt lat="48.61967" lon="7.7687">
        <ele>136.5</ele>
        <time>2020-06-28T10:33:16Z</time>
      </trkpt>
      <trkpt lat="48.61962" lon="7.76868">
        <ele>136.5</ele>
        <time>2020-06-28T10:33:17Z</time>
      </trkpt>
      <trkpt lat="48.61957" lon="7.76864">
        <ele>136.5</ele>
        <time>2020-06-28T10:33:18Z</time>
      </trkpt>
      <trkpt lat="48.61952" lon="7.76863">
        <ele>136.5</ele>
        <time>2020-06-28T10:33:19Z</time>
      </trkpt>
      <trkpt lat="48.61947" lon="7.76861">
        <ele>136.5</ele>
        <time>2020-06-28T10:33:20Z</time>
      </trkpt>
      <trkpt lat="48.61941" lon="7.76859">
        <ele>136.5</ele>
        <time>2020-06-28T10:33:21Z</time>
      </trkpt>
      <trkpt lat="48.61936" lon="7.76856">
        <ele>136.5</ele>
        <time>2020-06-28T10:33:22Z</time>
      </trkpt>
      <trkpt lat="48.61931" lon="7.76854">
        <ele>136.5</ele>
        <time>2020-06-28T10:33:23Z</time>
      </trkpt>
      <trkpt lat="48.61926" lon="7.76853">
        <ele>136.5</ele>
        <time>2020-06-28T10:33:24Z</time>
      </trkpt>
      <trkpt lat="48.6192" lon="7.7685">
        <ele>136.6</ele>
        <time>2020-06-28T10:33:25Z</time>
      </trkpt>
      <trkpt lat="48.61915" lon="7.76849">
        <ele>136.6</ele>
        <time>2020-06-28T10:33:26Z</time>
      </trkpt>
      <trkpt lat="48.6191" lon="7.76847">
        <ele>136.6</ele>
        <time>2020-06-28T10:33:27Z</time>
      </trkpt>
      <trkpt lat="48.61905" lon="7.76846">
        <ele>136.6</ele>
        <time>2020-06-28T10:33:28Z</time>
      </trkpt>
      <trkpt lat="48.61899" lon="7.76844">
        <ele>136.7</ele>
        <time>2020-06-28T10:33:29Z</time>
      </trkpt>
      <trkpt lat="48.61894" lon="7.76843">
        <ele>136.7</ele>
        <time>2020-06-28T10:33:30Z</time>
      </trkpt>
      <trkpt lat="48.61888" lon="7.76842">
        <ele>136.7</ele>
        <time>2020-06-28T10:33:31Z</time>
      </trkpt>
      <trkpt lat="48.61883" lon="7.7684">
        <ele>136.7</ele>
        <time>2020-06-28T10:33:32Z</time>
      </trkpt>
      <trkpt lat="48.61877" lon="7.76839">
        <ele>136.7</ele>
        <time>2020-06-28T10:33:33Z</time>
      </trkpt>
      <trkpt lat="48.61871" lon="7.76838">
        <ele>136.7</ele>
        <time>2020-06-28T10:33:34Z</time>
      </trkpt>
      <trkpt lat="48.61865" lon="7.76838">
        <ele>136.7</ele>
        <time>2020-06-28T10:33:35Z</time>
      </trkpt>
      <trkpt lat="48.61859" lon="7.76839">
        <ele>136.7</ele>
        <time>2020-06-28T10:33:36Z</time>
      </trkpt>
      <trkpt lat="48.61854" lon="7.76836">
        <ele>136.7</ele>
        <time>2020-06-28T10:33:37Z</time>
      </trkpt>
      <trkpt lat="48.61848" lon="7.76835">
        <ele>136.6</ele>
        <time>2020-06-28T10:33:38Z</time>
      </trkpt>
      <trkpt lat="48.61843" lon="7.76832">
        <ele>136.6</ele>
        <time>2020-06-28T10:33:39Z</time>
      </trkpt>
      <trkpt lat="48.61837" lon="7.7683">
        <ele>136.6</ele>
        <time>2020-06-28T10:33:40Z</time>
      </trkpt>
      <trkpt lat="48.61831" lon="7.76827">
        <ele>136.5</ele>
        <time>2020-06-28T10:33:41Z</time>
      </trkpt>
      <trkpt lat="48.61825" lon="7.76825">
        <ele>136.4</ele>
        <time>2020-06-28T10:33:42Z</time>
      </trkpt>
      <trkpt lat="48.6182" lon="7.76822">
        <ele>136.3</ele>
        <time>2020-06-28T10:33:43Z</time>
      </trkpt>
      <trkpt lat="48.61814" lon="7.76819">
        <ele>136.3</ele>
        <time>2020-06-28T10:33:44Z</time>
      </trkpt>
      <trkpt lat="48.61809" lon="7.76818">
        <ele>136.2</ele>
        <time>2020-06-28T10:33:45Z</time>
      </trkpt>
      <trkpt lat="48.61803" lon="7.76817">
        <ele>136.2</ele>
        <time>2020-06-28T10:33:46Z</time>
      </trkpt>
      <trkpt lat="48.61799" lon="7.76816">
        <ele>136.2</ele>
        <time>2020-06-28T10:33:47Z</time>
      </trkpt>
      <trkpt lat="48.61794" lon="7.76814">
        <ele>136.2</ele>
        <time>2020-06-28T10:33:48Z</time>
      </trkpt>
      <trkpt lat="48.61789" lon="7.76812">
        <ele>136.2</ele>
        <time>2020-06-28T10:33:49Z</time>
      </trkpt>
      <trkpt lat="48.61784" lon="7.7681">
        <ele>136.2</ele>
        <time>2020-06-28T10:33:50Z</time>
      </trkpt>
      <trkpt lat="48.61779" lon="7.76809">
        <ele>136.2</ele>
        <time>2020-06-28T10:33:51Z</time>
      </trkpt>
      <trkpt lat="48.61774" lon="7.76807">
        <ele>136.2</ele>
        <time>2020-06-28T10:33:52Z</time>
      </trkpt>
      <trkpt lat="48.61769" lon="7.76805">
        <ele>136.1</ele>
        <time>2020-06-28T10:33:53Z</time>
      </trkpt>
      <trkpt lat="48.61765" lon="7.76802">
        <ele>136.1</ele>
        <time>2020-06-28T10:33:54Z</time>
      </trkpt>
      <trkpt lat="48.61761" lon="7.76801">
        <ele>136.1</ele>
        <time>2020-06-28T10:33:55Z</time>
      </trkpt>
      <trkpt lat="48.61757" lon="7.76799">
        <ele>136.1</ele>
        <time>2020-06-28T10:33:56Z</time>
      </trkpt>
      <trkpt lat="48.61752" lon="7.76797">
        <ele>136.1</ele>
        <time>2020-06-28T10:33:57Z</time>
      </trkpt>
      <trkpt lat="48.61748" lon="7.76796">
        <ele>136.1</ele>
        <time>2020-06-28T10:33:58Z</time>
      </trkpt>
      <trkpt lat="48.61744" lon="7.76795">
        <ele>136.1</ele>
        <time>2020-06-28T10:33:59Z</time>
      </trkpt>
      <trkpt lat="48.6174" lon="7.76793">
        <ele>136.1</ele>
        <time>2020-06-28T10:34:00Z</time>
      </trkpt>
      <trkpt lat="48.61737" lon="7.76792">
        <ele>136.1</ele>
        <time>2020-06-28T10:34:01Z</time>
      </trkpt>
      <trkpt lat="48.61734" lon="7.76789">
        <ele>136.2</ele>
        <time>2020-06-28T10:34:02Z</time>
      </trkpt>
      <trkpt lat="48.6173" lon="7.76788">
        <ele>136.2</ele>
        <time>2020-06-28T10:34:03Z</time>
      </trkpt>
      <trkpt lat="48.61727" lon="7.76785">
        <ele>136.2</ele>
        <time>2020-06-28T10:34:04Z</time>
      </trkpt>
      <trkpt lat="48.61723" lon="7.76783">
        <ele>136.2</ele>
        <time>2020-06-28T10:34:05Z</time>
      </trkpt>
      <trkpt lat="48.6172" lon="7.76783">
        <ele>136.1</ele>
        <time>2020-06-28T10:34:06Z</time>
      </trkpt>
      <trkpt lat="48.61717" lon="7.76782">
        <ele>136.1</ele>
        <time>2020-06-28T10:34:07Z</time>
      </trkpt>
      <trkpt lat="48.61713" lon="7.7678">
        <ele>136</ele>
        <time>2020-06-28T10:34:08Z</time>
      </trkpt>
      <trkpt lat="48.61711" lon="7.76776">
        <ele>136.2</ele>
        <time>2020-06-28T10:34:09Z</time>
      </trkpt>
      <trkpt lat="48.61708" lon="7.76775">
        <ele>136.4</ele>
        <time>2020-06-28T10:34:10Z</time>
      </trkpt>
      <trkpt lat="48.61704" lon="7.76775">
        <ele>136.4</ele>
        <time>2020-06-28T10:34:11Z</time>
      </trkpt>
      <trkpt lat="48.617" lon="7.76777">
        <ele>136.3</ele>
        <time>2020-06-28T10:34:12Z</time>
      </trkpt>
      <trkpt lat="48.61696" lon="7.76778">
        <ele>136.3</ele>
        <time>2020-06-28T10:34:13Z</time>
      </trkpt>
      <trkpt lat="48.61691" lon="7.76777">
        <ele>136.3</ele>
        <time>2020-06-28T10:34:14Z</time>
      </trkpt>
      <trkpt lat="48.61687" lon="7.76775">
        <ele>136.3</ele>
        <time>2020-06-28T10:34:15Z</time>
      </trkpt>
      <trkpt lat="48.61682" lon="7.76773">
        <ele>136.3</ele>
        <time>2020-06-28T10:34:16Z</time>
      </trkpt>
      <trkpt lat="48.61677" lon="7.7677">
        <ele>136.6</ele>
        <time>2020-06-28T10:34:17Z</time>
      </trkpt>
      <trkpt lat="48.61673" lon="7.76769">
        <ele>136.6</ele>
        <time>2020-06-28T10:34:18Z</time>
      </trkpt>
      <trkpt lat="48.61668" lon="7.76767">
        <ele>136.5</ele>
        <time>2020-06-28T10:34:19Z</time>
      </trkpt>
      <trkpt lat="48.61663" lon="7.76766">
        <ele>136.4</ele>
        <time>2020-06-28T10:34:20Z</time>
      </trkpt>
      <trkpt lat="48.61658" lon="7.76764">
        <ele>136.4</ele>
        <time>2020-06-28T10:34:21Z</time>
      </trkpt>
      <trkpt lat="48.61653" lon="7.76762">
        <ele>136.4</ele>
        <time>2020-06-28T10:34:22Z</time>
      </trkpt>
      <trkpt lat="48.61649" lon="7.7676">
        <ele>136.3</ele>
        <time>2020-06-28T10:34:23Z</time>
      </trkpt>
      <trkpt lat="48.61644" lon="7.76757">
        <ele>136.3</ele>
        <time>2020-06-28T10:34:24Z</time>
      </trkpt>
      <trkpt lat="48.61639" lon="7.76755">
        <ele>136.3</ele>
        <time>2020-06-28T10:34:25Z</time>
      </trkpt>
      <trkpt lat="48.61633" lon="7.76752">
        <ele>136.3</ele>
        <time>2020-06-28T10:34:26Z</time>
      </trkpt>
      <trkpt lat="48.61628" lon="7.7675">
        <ele>136.4</ele>
        <time>2020-06-28T10:34:27Z</time>
      </trkpt>
      <trkpt lat="48.61622" lon="7.76747">
        <ele>136.4</ele>
        <time>2020-06-28T10:34:28Z</time>
      </trkpt>
      <trkpt lat="48.61616" lon="7.76746">
        <ele>136.4</ele>
        <time>2020-06-28T10:34:29Z</time>
      </trkpt>
      <trkpt lat="48.6161" lon="7.76744">
        <ele>136.5</ele>
        <time>2020-06-28T10:34:30Z</time>
      </trkpt>
      <trkpt lat="48.61605" lon="7.76741">
        <ele>136.5</ele>
        <time>2020-06-28T10:34:31Z</time>
      </trkpt>
      <trkpt lat="48.61599" lon="7.76738">
        <ele>136.5</ele>
        <time>2020-06-28T10:34:32Z</time>
      </trkpt>
      <trkpt lat="48.61594" lon="7.76736">
        <ele>136.5</ele>
        <time>2020-06-28T10:34:33Z</time>
      </trkpt>
      <trkpt lat="48.61589" lon="7.76733">
        <ele>136.4</ele>
        <time>2020-06-28T10:34:34Z</time>
      </trkpt>
      <trkpt lat="48.61584" lon="7.7673">
        <ele>136.4</ele>
        <time>2020-06-28T10:34:35Z</time>
      </trkpt>
      <trkpt lat="48.61578" lon="7.76728">
        <ele>136.4</ele>
        <time>2020-06-28T10:34:36Z</time>
      </trkpt>
      <trkpt lat="48.61572" lon="7.76726">
        <ele>136.4</ele>
        <time>2020-06-28T10:34:37Z</time>
      </trkpt>
      <trkpt lat="48.61566" lon="7.76725">
        <ele>136.4</ele>
        <time>2020-06-28T10:34:38Z</time>
      </trkpt>
      <trkpt lat="48.6156" lon="7.76724">
        <ele>136.4</ele>
        <time>2020-06-28T10:34:39Z</time>
      </trkpt>
      <trkpt lat="48.61554" lon="7.76723">
        <ele>136.4</ele>
        <time>2020-06-28T10:34:40Z</time>
      </trkpt>
      <trkpt lat="48.61547" lon="7.7672">
        <ele>136.3</ele>
        <time>2020-06-28T10:34:41Z</time>
      </trkpt>
      <trkpt lat="48.61542" lon="7.76718">
        <ele>136.3</ele>
        <time>2020-06-28T10:34:42Z</time>
      </trkpt>
      <trkpt lat="48.61536" lon="7.76716">
        <ele>136.3</ele>
        <time>2020-06-28T10:34:43Z</time>
      </trkpt>
      <trkpt lat="48.6153" lon="7.76714">
        <ele>136.3</ele>
        <time>2020-06-28T10:34:44Z</time>
      </trkpt>
      <trkpt lat="48.61525" lon="7.76712">
        <ele>136.3</ele>
        <time>2020-06-28T10:34:45Z</time>
      </trkpt>
      <trkpt lat="48.6152" lon="7.76711">
        <ele>136.3</ele>
        <time>2020-06-28T10:34:46Z</time>
      </trkpt>
      <trkpt lat="48.61515" lon="7.76707">
        <ele>136.3</ele>
        <time>2020-06-28T10:34:47Z</time>
      </trkpt>
      <trkpt lat="48.6151" lon="7.76705">
        <ele>136.2</ele>
        <time>2020-06-28T10:34:48Z</time>
      </trkpt>
      <trkpt lat="48.61505" lon="7.76702">
        <ele>136.2</ele>
        <time>2020-06-28T10:34:49Z</time>
      </trkpt>
      <trkpt lat="48.615" lon="7.767">
        <ele>136.2</ele>
        <time>2020-06-28T10:34:50Z</time>
      </trkpt>
      <trkpt lat="48.61495" lon="7.76698">
        <ele>136.1</ele>
        <time>2020-06-28T10:34:51Z</time>
      </trkpt>
      <trkpt lat="48.61491" lon="7.76697">
        <ele>136.1</ele>
        <time>2020-06-28T10:34:52Z</time>
      </trkpt>
      <trkpt lat="48.61487" lon="7.76696">
        <ele>136.1</ele>
        <time>2020-06-28T10:34:53Z</time>
      </trkpt>
      <trkpt lat="48.61482" lon="7.76693">
        <ele>136.1</ele>
        <time>2020-06-28T10:34:54Z</time>
      </trkpt>
      <trkpt lat="48.61477" lon="7.76692">
        <ele>136.1</ele>
        <time>2020-06-28T10:34:55Z</time>
      </trkpt>
      <trkpt lat="48.61472" lon="7.7669">
        <ele>136.1</ele>
        <time>2020-06-28T10:34:56Z</time>
      </trkpt>
      <trkpt lat="48.61468" lon="7.76687">
        <ele>136.1</ele>
        <time>2020-06-28T10:34:57Z</time>
      </trkpt>
      <trkpt lat="48.6146" lon="7.76686">
        <ele>136.2</ele>
        <time>2020-06-28T10:34:58Z</time>
      </trkpt>
      <trkpt lat="48.61451" lon="7.76688">
        <ele>136.3</ele>
        <time>2020-06-28T10:34:59Z</time>
      </trkpt>
      <trkpt lat="48.61444" lon="7.76688">
        <ele>136.4</ele>
        <time>2020-06-28T10:35:00Z</time>
      </trkpt>
      <trkpt lat="48.61438" lon="7.76688">
        <ele>136.4</ele>
        <time>2020-06-28T10:35:01Z</time>
      </trkpt>
      <trkpt lat="48.61431" lon="7.76689">
        <ele>136.5</ele>
        <time>2020-06-28T10:35:02Z</time>
      </trkpt>
      <trkpt lat="48.61426" lon="7.76689">
        <ele>136.5</ele>
        <time>2020-06-28T10:35:03Z</time>
      </trkpt>
      <trkpt lat="48.6142" lon="7.76689">
        <ele>136.5</ele>
        <time>2020-06-28T10:35:04Z</time>
      </trkpt>
      <trkpt lat="48.61415" lon="7.76691">
        <ele>136.6</ele>
        <time>2020-06-28T10:35:05Z</time>
      </trkpt>
      <trkpt lat="48.6141" lon="7.76689">
        <ele>136.6</ele>
        <time>2020-06-28T10:35:06Z</time>
      </trkpt>
      <trkpt lat="48.61406" lon="7.76689">
        <ele>136.7</ele>
        <time>2020-06-28T10:35:07Z</time>
      </trkpt>
      <trkpt lat="48.61401" lon="7.76688">
        <ele>136.8</ele>
        <time>2020-06-28T10:35:08Z</time>
      </trkpt>
      <trkpt lat="48.61396" lon="7.76687">
        <ele>136.9</ele>
        <time>2020-06-28T10:35:09Z</time>
      </trkpt>
      <trkpt lat="48.61391" lon="7.76687">
        <ele>136.9</ele>
        <time>2020-06-28T10:35:10Z</time>
      </trkpt>
      <trkpt lat="48.61386" lon="7.76689">
        <ele>136.9</ele>
        <time>2020-06-28T10:35:11Z</time>
      </trkpt>
      <trkpt lat="48.61381" lon="7.76687">
        <ele>136.9</ele>
        <time>2020-06-28T10:35:12Z</time>
      </trkpt>
      <trkpt lat="48.61378" lon="7.76687">
        <ele>136.8</ele>
        <time>2020-06-28T10:35:13Z</time>
      </trkpt>
      <trkpt lat="48.61374" lon="7.76687">
        <ele>136.7</ele>
        <time>2020-06-28T10:35:14Z</time>
      </trkpt>
      <trkpt lat="48.6137" lon="7.76687">
        <ele>136.5</ele>
        <time>2020-06-28T10:35:15Z</time>
      </trkpt>
      <trkpt lat="48.61366" lon="7.76686">
        <ele>136.4</ele>
        <time>2020-06-28T10:35:16Z</time>
      </trkpt>
      <trkpt lat="48.61361" lon="7.76686">
        <ele>136.3</ele>
        <time>2020-06-28T10:35:17Z</time>
      </trkpt>
      <trkpt lat="48.61356" lon="7.76688">
        <ele>136.3</ele>
        <time>2020-06-28T10:35:18Z</time>
      </trkpt>
      <trkpt lat="48.61351" lon="7.76689">
        <ele>136.3</ele>
        <time>2020-06-28T10:35:19Z</time>
      </trkpt>
      <trkpt lat="48.61346" lon="7.76689">
        <ele>136.2</ele>
        <time>2020-06-28T10:35:20Z</time>
      </trkpt>
      <trkpt lat="48.61341" lon="7.76689">
        <ele>136.2</ele>
        <time>2020-06-28T10:35:21Z</time>
      </trkpt>
      <trkpt lat="48.61337" lon="7.76691">
        <ele>136.3</ele>
        <time>2020-06-28T10:35:22Z</time>
      </trkpt>
      <trkpt lat="48.61331" lon="7.76692">
        <ele>136.3</ele>
        <time>2020-06-28T10:35:23Z</time>
      </trkpt>
      <trkpt lat="48.61326" lon="7.76691">
        <ele>136.3</ele>
        <time>2020-06-28T10:35:24Z</time>
      </trkpt>
      <trkpt lat="48.61321" lon="7.76694">
        <ele>136.3</ele>
        <time>2020-06-28T10:35:25Z</time>
      </trkpt>
      <trkpt lat="48.61316" lon="7.76696">
        <ele>136.3</ele>
        <time>2020-06-28T10:35:26Z</time>
      </trkpt>
      <trkpt lat="48.61311" lon="7.76697">
        <ele>136.4</ele>
        <time>2020-06-28T10:35:27Z</time>
      </trkpt>
      <trkpt lat="48.61307" lon="7.76696">
        <ele>136.4</ele>
        <time>2020-06-28T10:35:28Z</time>
      </trkpt>
      <trkpt lat="48.61303" lon="7.76696">
        <ele>136.5</ele>
        <time>2020-06-28T10:35:29Z</time>
      </trkpt>
      <trkpt lat="48.61299" lon="7.76698">
        <ele>136.5</ele>
        <time>2020-06-28T10:35:30Z</time>
      </trkpt>
      <trkpt lat="48.61295" lon="7.76699">
        <ele>136.6</ele>
        <time>2020-06-28T10:35:31Z</time>
      </trkpt>
      <trkpt lat="48.6129" lon="7.76697">
        <ele>136.7</ele>
        <time>2020-06-28T10:35:32Z</time>
      </trkpt>
      <trkpt lat="48.61286" lon="7.76696">
        <ele>136.8</ele>
        <time>2020-06-28T10:35:33Z</time>
      </trkpt>
      <trkpt lat="48.61282" lon="7.76695">
        <ele>136.8</ele>
        <time>2020-06-28T10:35:34Z</time>
      </trkpt>
      <trkpt lat="48.61279" lon="7.76695">
        <ele>136.9</ele>
        <time>2020-06-28T10:35:35Z</time>
      </trkpt>
      <trkpt lat="48.61276" lon="7.76695">
        <ele>137</ele>
        <time>2020-06-28T10:35:36Z</time>
      </trkpt>
      <trkpt lat="48.61273" lon="7.76692">
        <ele>137.1</ele>
        <time>2020-06-28T10:35:37Z</time>
      </trkpt>
      <trkpt lat="48.6127" lon="7.76691">
        <ele>137.2</ele>
        <time>2020-06-28T10:35:38Z</time>
      </trkpt>
      <trkpt lat="48.61269" lon="7.76691">
        <ele>137.2</ele>
        <time>2020-06-28T10:35:39Z</time>
      </trkpt>
      <trkpt lat="48.61268" lon="7.76692">
        <ele>137.3</ele>
        <time>2020-06-28T10:35:40Z</time>
      </trkpt>
      <trkpt lat="48.61266" lon="7.76692">
        <ele>137.3</ele>
        <time>2020-06-28T10:35:41Z</time>
      </trkpt>
      <trkpt lat="48.61263" lon="7.76691">
        <ele>137.4</ele>
        <time>2020-06-28T10:35:42Z</time>
      </trkpt>
      <trkpt lat="48.61262" lon="7.76691">
        <ele>137.4</ele>
        <time>2020-06-28T10:35:43Z</time>
      </trkpt>
      <trkpt lat="48.61259" lon="7.76691">
        <ele>137.5</ele>
        <time>2020-06-28T10:35:44Z</time>
      </trkpt>
      <trkpt lat="48.61258" lon="7.76691">
        <ele>137.5</ele>
        <time>2020-06-28T10:35:45Z</time>
      </trkpt>
      <trkpt lat="48.61254" lon="7.76691">
        <ele>137.5</ele>
        <time>2020-06-28T10:35:46Z</time>
      </trkpt>
      <trkpt lat="48.61253" lon="7.76691">
        <ele>137.5</ele>
        <time>2020-06-28T10:35:47Z</time>
      </trkpt>
      <trkpt lat="48.61249" lon="7.76692">
        <ele>137.5</ele>
        <time>2020-06-28T10:35:48Z</time>
      </trkpt>
      <trkpt lat="48.61245" lon="7.76692">
        <ele>137.5</ele>
        <time>2020-06-28T10:35:49Z</time>
      </trkpt>
      <trkpt lat="48.61242" lon="7.76692">
        <ele>137.5</ele>
        <time>2020-06-28T10:35:50Z</time>
      </trkpt>
      <trkpt lat="48.61238" lon="7.76693">
        <ele>137.6</ele>
        <time>2020-06-28T10:35:51Z</time>
      </trkpt>
      <trkpt lat="48.61234" lon="7.76695">
        <ele>137.6</ele>
        <time>2020-06-28T10:35:52Z</time>
      </trkpt>
      <trkpt lat="48.61229" lon="7.76696">
        <ele>137.5</ele>
        <time>2020-06-28T10:35:53Z</time>
      </trkpt>
      <trkpt lat="48.61225" lon="7.76696">
        <ele>137.5</ele>
        <time>2020-06-28T10:35:54Z</time>
      </trkpt>
      <trkpt lat="48.6122" lon="7.76697">
        <ele>137.4</ele>
        <time>2020-06-28T10:35:55Z</time>
      </trkpt>
      <trkpt lat="48.61215" lon="7.76698">
        <ele>137.3</ele>
        <time>2020-06-28T10:35:56Z</time>
      </trkpt>
      <trkpt lat="48.6121" lon="7.76698">
        <ele>137.2</ele>
        <time>2020-06-28T10:35:57Z</time>
      </trkpt>
      <trkpt lat="48.61205" lon="7.76698">
        <ele>137.1</ele>
        <time>2020-06-28T10:35:58Z</time>
      </trkpt>
      <trkpt lat="48.612" lon="7.76697">
        <ele>137</ele>
        <time>2020-06-28T10:35:59Z</time>
      </trkpt>
      <trkpt lat="48.61196" lon="7.76695">
        <ele>137</ele>
        <time>2020-06-28T10:36:00Z</time>
      </trkpt>
      <trkpt lat="48.61191" lon="7.76694">
        <ele>136.9</ele>
        <time>2020-06-28T10:36:01Z</time>
      </trkpt>
      <trkpt lat="48.61187" lon="7.76692">
        <ele>136.8</ele>
        <time>2020-06-28T10:36:02Z</time>
      </trkpt>
      <trkpt lat="48.61182" lon="7.76688">
        <ele>136.8</ele>
        <time>2020-06-28T10:36:03Z</time>
      </trkpt>
      <trkpt lat="48.61177" lon="7.76684">
        <ele>136.8</ele>
        <time>2020-06-28T10:36:04Z</time>
      </trkpt>
      <trkpt lat="48.61172" lon="7.76684">
        <ele>136.7</ele>
        <time>2020-06-28T10:36:05Z</time>
      </trkpt>
      <trkpt lat="48.61167" lon="7.76684">
        <ele>136.7</ele>
        <time>2020-06-28T10:36:06Z</time>
      </trkpt>
      <trkpt lat="48.61162" lon="7.76682">
        <ele>136.7</ele>
        <time>2020-06-28T10:36:07Z</time>
      </trkpt>
      <trkpt lat="48.61157" lon="7.76679">
        <ele>136.6</ele>
        <time>2020-06-28T10:36:08Z</time>
      </trkpt>
      <trkpt lat="48.61152" lon="7.76676">
        <ele>136.6</ele>
        <time>2020-06-28T10:36:09Z</time>
      </trkpt>
      <trkpt lat="48.61148" lon="7.76674">
        <ele>136.6</ele>
        <time>2020-06-28T10:36:10Z</time>
      </trkpt>
      <trkpt lat="48.61143" lon="7.76671">
        <ele>136.6</ele>
        <time>2020-06-28T10:36:11Z</time>
      </trkpt>
      <trkpt lat="48.61139" lon="7.76667">
        <ele>136.6</ele>
        <time>2020-06-28T10:36:12Z</time>
      </trkpt>
      <trkpt lat="48.61134" lon="7.76665">
        <ele>136.6</ele>
        <time>2020-06-28T10:36:13Z</time>
      </trkpt>
      <trkpt lat="48.61129" lon="7.76663">
        <ele>136.6</ele>
        <time>2020-06-28T10:36:14Z</time>
      </trkpt>
      <trkpt lat="48.61124" lon="7.76661">
        <ele>136.6</ele>
        <time>2020-06-28T10:36:15Z</time>
      </trkpt>
      <trkpt lat="48.61119" lon="7.76658">
        <ele>136.6</ele>
        <time>2020-06-28T10:36:16Z</time>
      </trkpt>
      <trkpt lat="48.61114" lon="7.76653">
        <ele>136.5</ele>
        <time>2020-06-28T10:36:17Z</time>
      </trkpt>
      <trkpt lat="48.61108" lon="7.7665">
        <ele>136.5</ele>
        <time>2020-06-28T10:36:18Z</time>
      </trkpt>
      <trkpt lat="48.61103" lon="7.76645">
        <ele>136.4</ele>
        <time>2020-06-28T10:36:19Z</time>
      </trkpt>
      <trkpt lat="48.61098" lon="7.76642">
        <ele>136.3</ele>
        <time>2020-06-28T10:36:20Z</time>
      </trkpt>
      <trkpt lat="48.61093" lon="7.76639">
        <ele>136.2</ele>
        <time>2020-06-28T10:36:21Z</time>
      </trkpt>
      <trkpt lat="48.61087" lon="7.76637">
        <ele>136.1</ele>
        <time>2020-06-28T10:36:22Z</time>
      </trkpt>
      <trkpt lat="48.61081" lon="7.76636">
        <ele>136.1</ele>
        <time>2020-06-28T10:36:23Z</time>
      </trkpt>
      <trkpt lat="48.61077" lon="7.76634">
        <ele>136.1</ele>
        <time>2020-06-28T10:36:24Z</time>
      </trkpt>
      <trkpt lat="48.61072" lon="7.76631">
        <ele>136.1</ele>
        <time>2020-06-28T10:36:25Z</time>
      </trkpt>
      <trkpt lat="48.61068" lon="7.76629">
        <ele>136.1</ele>
        <time>2020-06-28T10:36:26Z</time>
      </trkpt>
      <trkpt lat="48.61062" lon="7.76626">
        <ele>136.1</ele>
        <time>2020-06-28T10:36:27Z</time>
      </trkpt>
      <trkpt lat="48.61058" lon="7.76622">
        <ele>136.2</ele>
        <time>2020-06-28T10:36:28Z</time>
      </trkpt>
      <trkpt lat="48.61053" lon="7.76618">
        <ele>136.2</ele>
        <time>2020-06-28T10:36:29Z</time>
      </trkpt>
      <trkpt lat="48.61048" lon="7.76613">
        <ele>136.2</ele>
        <time>2020-06-28T10:36:30Z</time>
      </trkpt>
      <trkpt lat="48.61044" lon="7.76609">
        <ele>136.3</ele>
        <time>2020-06-28T10:36:31Z</time>
      </trkpt>
      <trkpt lat="48.6104" lon="7.76603">
        <ele>136.3</ele>
        <time>2020-06-28T10:36:32Z</time>
      </trkpt>
      <trkpt lat="48.61037" lon="7.76597">
        <ele>136.4</ele>
        <time>2020-06-28T10:36:33Z</time>
      </trkpt>
      <trkpt lat="48.61033" lon="7.76593">
        <ele>136.4</ele>
        <time>2020-06-28T10:36:34Z</time>
      </trkpt>
      <trkpt lat="48.61029" lon="7.76589">
        <ele>136.4</ele>
        <time>2020-06-28T10:36:35Z</time>
      </trkpt>
      <trkpt lat="48.61026" lon="7.76586">
        <ele>136.5</ele>
        <time>2020-06-28T10:36:36Z</time>
      </trkpt>
      <trkpt lat="48.61023" lon="7.76582">
        <ele>136.5</ele>
        <time>2020-06-28T10:36:37Z</time>
      </trkpt>
      <trkpt lat="48.6102" lon="7.7658">
        <ele>136.5</ele>
        <time>2020-06-28T10:36:38Z</time>
      </trkpt>
      <trkpt lat="48.61018" lon="7.76577">
        <ele>136.5</ele>
        <time>2020-06-28T10:36:39Z</time>
      </trkpt>
      <trkpt lat="48.61014" lon="7.76574">
        <ele>136.6</ele>
        <time>2020-06-28T10:36:40Z</time>
      </trkpt>
      <trkpt lat="48.61013" lon="7.76573">
        <ele>136.6</ele>
        <time>2020-06-28T10:36:41Z</time>
      </trkpt>
      <trkpt lat="48.61011" lon="7.7657">
        <ele>136.6</ele>
        <time>2020-06-28T10:36:42Z</time>
      </trkpt>
      <trkpt lat="48.6101" lon="7.76569">
        <ele>136.6</ele>
        <time>2020-06-28T10:36:43Z</time>
      </trkpt>
      <trkpt lat="48.61007" lon="7.76565">
        <ele>136.7</ele>
        <time>2020-06-28T10:36:44Z</time>
      </trkpt>
      <trkpt lat="48.61006" lon="7.76564">
        <ele>136.7</ele>
        <time>2020-06-28T10:36:45Z</time>
      </trkpt>
      <trkpt lat="48.61004" lon="7.76559">
        <ele>136.7</ele>
        <time>2020-06-28T10:36:46Z</time>
      </trkpt>
      <trkpt lat="48.61003" lon="7.76557">
        <ele>136.7</ele>
        <time>2020-06-28T10:36:47Z</time>
      </trkpt>
      <trkpt lat="48.61" lon="7.76555">
        <ele>136.8</ele>
        <time>2020-06-28T10:36:48Z</time>
      </trkpt>
      <trkpt lat="48.60998" lon="7.7655">
        <ele>136.8</ele>
        <time>2020-06-28T10:36:49Z</time>
      </trkpt>
      <trkpt lat="48.60996" lon="7.76548">
        <ele>136.8</ele>
        <time>2020-06-28T10:36:50Z</time>
      </trkpt>
      <trkpt lat="48.60994" lon="7.76543">
        <ele>136.9</ele>
        <time>2020-06-28T10:36:51Z</time>
      </trkpt>
      <trkpt lat="48.60992" lon="7.7654">
        <ele>136.9</ele>
        <time>2020-06-28T10:36:52Z</time>
      </trkpt>
      <trkpt lat="48.60989" lon="7.76537">
        <ele>136.9</ele>
        <time>2020-06-28T10:36:53Z</time>
      </trkpt>
      <trkpt lat="48.60986" lon="7.76533">
        <ele>136.9</ele>
        <time>2020-06-28T10:36:54Z</time>
      </trkpt>
      <trkpt lat="48.60984" lon="7.7653">
        <ele>137</ele>
        <time>2020-06-28T10:36:55Z</time>
      </trkpt>
      <trkpt lat="48.60982" lon="7.76526">
        <ele>137</ele>
        <time>2020-06-28T10:36:56Z</time>
      </trkpt>
      <trkpt lat="48.6098" lon="7.76524">
        <ele>137.1</ele>
        <time>2020-06-28T10:36:57Z</time>
      </trkpt>
      <trkpt lat="48.60978" lon="7.76521">
        <ele>137.1</ele>
        <time>2020-06-28T10:36:58Z</time>
      </trkpt>
      <trkpt lat="48.60975" lon="7.76517">
        <ele>137.2</ele>
        <time>2020-06-28T10:36:59Z</time>
      </trkpt>
      <trkpt lat="48.60973" lon="7.76513">
        <ele>137.3</ele>
        <time>2020-06-28T10:37:00Z</time>
      </trkpt>
      <trkpt lat="48.6097" lon="7.7651">
        <ele>137.4</ele>
        <time>2020-06-28T10:37:01Z</time>
      </trkpt>
      <trkpt lat="48.60966" lon="7.76507">
        <ele>137.5</ele>
        <time>2020-06-28T10:37:02Z</time>
      </trkpt>
      <trkpt lat="48.60963" lon="7.76504">
        <ele>137.5</ele>
        <time>2020-06-28T10:37:03Z</time>
      </trkpt>
      <trkpt lat="48.60959" lon="7.765">
        <ele>137.5</ele>
        <time>2020-06-28T10:37:04Z</time>
      </trkpt>
      <trkpt lat="48.60955" lon="7.76496">
        <ele>137.5</ele>
        <time>2020-06-28T10:37:05Z</time>
      </trkpt>
      <trkpt lat="48.6095" lon="7.76493">
        <ele>137.4</ele>
        <time>2020-06-28T10:37:06Z</time>
      </trkpt>
      <trkpt lat="48.60947" lon="7.76487">
        <ele>137.4</ele>
        <time>2020-06-28T10:37:07Z</time>
      </trkpt>
      <trkpt lat="48.60942" lon="7.76483">
        <ele>137.4</ele>
        <time>2020-06-28T10:37:08Z</time>
      </trkpt>
      <trkpt lat="48.60938" lon="7.76479">
        <ele>137.4</ele>
        <time>2020-06-28T10:37:09Z</time>
      </trkpt>
      <trkpt lat="48.60933" lon="7.76474">
        <ele>137.4</ele>
        <time>2020-06-28T10:37:10Z</time>
      </trkpt>
      <trkpt lat="48.6093" lon="7.76467">
        <ele>137.4</ele>
        <time>2020-06-28T10:37:11Z</time>
      </trkpt>
      <trkpt lat="48.60925" lon="7.76462">
        <ele>137.4</ele>
        <time>2020-06-28T10:37:12Z</time>
      </trkpt>
      <trkpt lat="48.60921" lon="7.76457">
        <ele>137.3</ele>
        <time>2020-06-28T10:37:13Z</time>
      </trkpt>
      <trkpt lat="48.60918" lon="7.76452">
        <ele>137.3</ele>
        <time>2020-06-28T10:37:14Z</time>
      </trkpt>
      <trkpt lat="48.60914" lon="7.76448">
        <ele>137.3</ele>
        <time>2020-06-28T10:37:15Z</time>
      </trkpt>
      <trkpt lat="48.6091" lon="7.76443">
        <ele>137.3</ele>
        <time>2020-06-28T10:37:16Z</time>
      </trkpt>
      <trkpt lat="48.60907" lon="7.76439">
        <ele>137.3</ele>
        <time>2020-06-28T10:37:17Z</time>
      </trkpt>
      <trkpt lat="48.60904" lon="7.76433">
        <ele>137.3</ele>
        <time>2020-06-28T10:37:18Z</time>
      </trkpt>
      <trkpt lat="48.60899" lon="7.7643">
        <ele>137.3</ele>
        <time>2020-06-28T10:37:19Z</time>
      </trkpt>
      <trkpt lat="48.60895" lon="7.76426">
        <ele>137.3</ele>
        <time>2020-06-28T10:37:20Z</time>
      </trkpt>
      <trkpt lat="48.60891" lon="7.76421">
        <ele>137.3</ele>
        <time>2020-06-28T10:37:21Z</time>
      </trkpt>
      <trkpt lat="48.60886" lon="7.76418">
        <ele>137.4</ele>
        <time>2020-06-28T10:37:22Z</time>
      </trkpt>
      <trkpt lat="48.60883" lon="7.76411">
        <ele>137.4</ele>
        <time>2020-06-28T10:37:23Z</time>
      </trkpt>
      <trkpt lat="48.60879" lon="7.76406">
        <ele>137.4</ele>
        <time>2020-06-28T10:37:24Z</time>
      </trkpt>
      <trkpt lat="48.60876" lon="7.76401">
        <ele>137.5</ele>
        <time>2020-06-28T10:37:25Z</time>
      </trkpt>
      <trkpt lat="48.60873" lon="7.76394">
        <ele>137.5</ele>
        <time>2020-06-28T10:37:26Z</time>
      </trkpt>
      <trkpt lat="48.6087" lon="7.7639">
        <ele>137.6</ele>
        <time>2020-06-28T10:37:27Z</time>
      </trkpt>
      <trkpt lat="48.60866" lon="7.76385">
        <ele>137.6</ele>
        <time>2020-06-28T10:37:28Z</time>
      </trkpt>
      <trkpt lat="48.60863" lon="7.76379">
        <ele>137.7</ele>
        <time>2020-06-28T10:37:29Z</time>
      </trkpt>
      <trkpt lat="48.60859" lon="7.76374">
        <ele>137.8</ele>
        <time>2020-06-28T10:37:30Z</time>
      </trkpt>
      <trkpt lat="48.60854" lon="7.76369">
        <ele>137.9</ele>
        <time>2020-06-28T10:37:31Z</time>
      </trkpt>
      <trkpt lat="48.60849" lon="7.76365">
        <ele>138.1</ele>
        <time>2020-06-28T10:37:32Z</time>
      </trkpt>
      <trkpt lat="48.60844" lon="7.7636">
        <ele>138.3</ele>
        <time>2020-06-28T10:37:33Z</time>
      </trkpt>
      <trkpt lat="48.6084" lon="7.76355">
        <ele>138.5</ele>
        <time>2020-06-28T10:37:34Z</time>
      </trkpt>
      <trkpt lat="48.60837" lon="7.76349">
        <ele>138.7</ele>
        <time>2020-06-28T10:37:35Z</time>
      </trkpt>
      <trkpt lat="48.60832" lon="7.76346">
        <ele>138.9</ele>
        <time>2020-06-28T10:37:36Z</time>
      </trkpt>
      <trkpt lat="48.60828" lon="7.76341">
        <ele>139.2</ele>
        <time>2020-06-28T10:37:37Z</time>
      </trkpt>
      <trkpt lat="48.60825" lon="7.76337">
        <ele>139.4</ele>
        <time>2020-06-28T10:37:38Z</time>
      </trkpt>
      <trkpt lat="48.60821" lon="7.76333">
        <ele>139.6</ele>
        <time>2020-06-28T10:37:39Z</time>
      </trkpt>
      <trkpt lat="48.60818" lon="7.76327">
        <ele>139.9</ele>
        <time>2020-06-28T10:37:40Z</time>
      </trkpt>
      <trkpt lat="48.60814" lon="7.76321">
        <ele>140.1</ele>
        <time>2020-06-28T10:37:41Z</time>
      </trkpt>
      <trkpt lat="48.6081" lon="7.76316">
        <ele>140.4</ele>
        <time>2020-06-28T10:37:42Z</time>
      </trkpt>
      <trkpt lat="48.60807" lon="7.76312">
        <ele>140.6</ele>
        <time>2020-06-28T10:37:43Z</time>
      </trkpt>
      <trkpt lat="48.60803" lon="7.76307">
        <ele>140.8</ele>
        <time>2020-06-28T10:37:44Z</time>
      </trkpt>
      <trkpt lat="48.608" lon="7.76304">
        <ele>141.1</ele>
        <time>2020-06-28T10:37:45Z</time>
      </trkpt>
      <trkpt lat="48.60796" lon="7.763">
        <ele>141.3</ele>
        <time>2020-06-28T10:37:46Z</time>
      </trkpt>
      <trkpt lat="48.60795" lon="7.76296">
        <ele>141.4</ele>
        <time>2020-06-28T10:37:47Z</time>
      </trkpt>
      <trkpt lat="48.60791" lon="7.76291">
        <ele>141.5</ele>
        <time>2020-06-28T10:37:48Z</time>
      </trkpt>
      <trkpt lat="48.60787" lon="7.76286">
        <ele>141.7</ele>
        <time>2020-06-28T10:37:49Z</time>
      </trkpt>
      <trkpt lat="48.60784" lon="7.76283">
        <ele>141.8</ele>
        <time>2020-06-28T10:37:50Z</time>
      </trkpt>
      <trkpt lat="48.6078" lon="7.76279">
        <ele>141.9</ele>
        <time>2020-06-28T10:37:51Z</time>
      </trkpt>
      <trkpt lat="48.60778" lon="7.76275">
        <ele>142</ele>
        <time>2020-06-28T10:37:52Z</time>
      </trkpt>
      <trkpt lat="48.60775" lon="7.76274">
        <ele>142.1</ele>
        <time>2020-06-28T10:37:53Z</time>
      </trkpt>
      <trkpt lat="48.60772" lon="7.7627">
        <ele>142.2</ele>
        <time>2020-06-28T10:37:54Z</time>
      </trkpt>
      <trkpt lat="48.60769" lon="7.76266">
        <ele>142.3</ele>
        <time>2020-06-28T10:37:55Z</time>
      </trkpt>
      <trkpt lat="48.60765" lon="7.7626">
        <ele>142.4</ele>
        <time>2020-06-28T10:37:56Z</time>
      </trkpt>
      <trkpt lat="48.60762" lon="7.76255">
        <ele>142.4</ele>
        <time>2020-06-28T10:37:57Z</time>
      </trkpt>
      <trkpt lat="48.60758" lon="7.7625">
        <ele>142.5</ele>
        <time>2020-06-28T10:37:58Z</time>
      </trkpt>
      <trkpt lat="48.60754" lon="7.76245">
        <ele>142.5</ele>
        <time>2020-06-28T10:37:59Z</time>
      </trkpt>
      <trkpt lat="48.60751" lon="7.76242">
        <ele>142.5</ele>
        <time>2020-06-28T10:38:00Z</time>
      </trkpt>
      <trkpt lat="48.60748" lon="7.76239">
        <ele>142.4</ele>
        <time>2020-06-28T10:38:01Z</time>
      </trkpt>
      <trkpt lat="48.60745" lon="7.76235">
        <ele>142.5</ele>
        <time>2020-06-28T10:38:02Z</time>
      </trkpt>
      <trkpt lat="48.60741" lon="7.76228">
        <ele>142.5</ele>
        <time>2020-06-28T10:38:03Z</time>
      </trkpt>
      <trkpt lat="48.60738" lon="7.76224">
        <ele>142.5</ele>
        <time>2020-06-28T10:38:04Z</time>
      </trkpt>
      <trkpt lat="48.60737" lon="7.76223">
        <ele>142.5</ele>
        <time>2020-06-28T10:38:05Z</time>
      </trkpt>
      <trkpt lat="48.60734" lon="7.7622">
        <ele>142.5</ele>
        <time>2020-06-28T10:38:06Z</time>
      </trkpt>
      <trkpt lat="48.6073" lon="7.76214">
        <ele>142.2</ele>
        <time>2020-06-28T10:38:07Z</time>
      </trkpt>
      <trkpt lat="48.60727" lon="7.76211">
        <ele>142</ele>
        <time>2020-06-28T10:38:08Z</time>
      </trkpt>
      <trkpt lat="48.60723" lon="7.76208">
        <ele>141.8</ele>
        <time>2020-06-28T10:38:09Z</time>
      </trkpt>
      <trkpt lat="48.60718" lon="7.76203">
        <ele>141.6</ele>
        <time>2020-06-28T10:38:10Z</time>
      </trkpt>
      <trkpt lat="48.60713" lon="7.76199">
        <ele>141.4</ele>
        <time>2020-06-28T10:38:11Z</time>
      </trkpt>
      <trkpt lat="48.60707" lon="7.76193">
        <ele>141.2</ele>
        <time>2020-06-28T10:38:12Z</time>
      </trkpt>
      <trkpt lat="48.60702" lon="7.76187">
        <ele>141</ele>
        <time>2020-06-28T10:38:13Z</time>
      </trkpt>
      <trkpt lat="48.60698" lon="7.7618">
        <ele>140.8</ele>
        <time>2020-06-28T10:38:14Z</time>
      </trkpt>
      <trkpt lat="48.60693" lon="7.76173">
        <ele>140.5</ele>
        <time>2020-06-28T10:38:15Z</time>
      </trkpt>
      <trkpt lat="48.60689" lon="7.76167">
        <ele>140.3</ele>
        <time>2020-06-28T10:38:16Z</time>
      </trkpt>
      <trkpt lat="48.60685" lon="7.7616">
        <ele>140</ele>
        <time>2020-06-28T10:38:17Z</time>
      </trkpt>
      <trkpt lat="48.60681" lon="7.76154">
        <ele>139.8</ele>
        <time>2020-06-28T10:38:18Z</time>
      </trkpt>
      <trkpt lat="48.60677" lon="7.76147">
        <ele>139.6</ele>
        <time>2020-06-28T10:38:19Z</time>
      </trkpt>
      <trkpt lat="48.60672" lon="7.76141">
        <ele>139.4</ele>
        <time>2020-06-28T10:38:20Z</time>
      </trkpt>
      <trkpt lat="48.60666" lon="7.76137">
        <ele>139.1</ele>
        <time>2020-06-28T10:38:21Z</time>
      </trkpt>
      <trkpt lat="48.60662" lon="7.76133">
        <ele>138.9</ele>
        <time>2020-06-28T10:38:22Z</time>
      </trkpt>
      <trkpt lat="48.60658" lon="7.76124">
        <ele>138.6</ele>
        <time>2020-06-28T10:38:23Z</time>
      </trkpt>
      <trkpt lat="48.60653" lon="7.76117">
        <ele>138.3</ele>
        <time>2020-06-28T10:38:24Z</time>
      </trkpt>
      <trkpt lat="48.60648" lon="7.76109">
        <ele>137.9</ele>
        <time>2020-06-28T10:38:25Z</time>
      </trkpt>
      <trkpt lat="48.60642" lon="7.76101">
        <ele>137.7</ele>
        <time>2020-06-28T10:38:26Z</time>
      </trkpt>
      <trkpt lat="48.60635" lon="7.76092">
        <ele>137.6</ele>
        <time>2020-06-28T10:38:27Z</time>
      </trkpt>
      <trkpt lat="48.60629" lon="7.76084">
        <ele>137.5</ele>
        <time>2020-06-28T10:38:28Z</time>
      </trkpt>
      <trkpt lat="48.60624" lon="7.76076">
        <ele>137.4</ele>
        <time>2020-06-28T10:38:29Z</time>
      </trkpt>
      <trkpt lat="48.60618" lon="7.76068">
        <ele>137.4</ele>
        <time>2020-06-28T10:38:30Z</time>
      </trkpt>
      <trkpt lat="48.60613" lon="7.7606">
        <ele>137.4</ele>
        <time>2020-06-28T10:38:31Z</time>
      </trkpt>
      <trkpt lat="48.60608" lon="7.76053">
        <ele>137.4</ele>
        <time>2020-06-28T10:38:32Z</time>
      </trkpt>
      <trkpt lat="48.60603" lon="7.76045">
        <ele>137.4</ele>
        <time>2020-06-28T10:38:33Z</time>
      </trkpt>
      <trkpt lat="48.60598" lon="7.76037">
        <ele>137.5</ele>
        <time>2020-06-28T10:38:34Z</time>
      </trkpt>
      <trkpt lat="48.60593" lon="7.7603">
        <ele>137.5</ele>
        <time>2020-06-28T10:38:35Z</time>
      </trkpt>
      <trkpt lat="48.60585" lon="7.76022">
        <ele>137.6</ele>
        <time>2020-06-28T10:38:36Z</time>
      </trkpt>
      <trkpt lat="48.60578" lon="7.76014">
        <ele>137.6</ele>
        <time>2020-06-28T10:38:37Z</time>
      </trkpt>
      <trkpt lat="48.60571" lon="7.76008">
        <ele>137.6</ele>
        <time>2020-06-28T10:38:38Z</time>
      </trkpt>
      <trkpt lat="48.60566" lon="7.76001">
        <ele>137.7</ele>
        <time>2020-06-28T10:38:39Z</time>
      </trkpt>
      <trkpt lat="48.6056" lon="7.75995">
        <ele>137.7</ele>
        <time>2020-06-28T10:38:40Z</time>
      </trkpt>
      <trkpt lat="48.60555" lon="7.75988">
        <ele>137.8</ele>
        <time>2020-06-28T10:38:41Z</time>
      </trkpt>
      <trkpt lat="48.60551" lon="7.7598">
        <ele>137.9</ele>
        <time>2020-06-28T10:38:42Z</time>
      </trkpt>
      <trkpt lat="48.60546" lon="7.75973">
        <ele>138</ele>
        <time>2020-06-28T10:38:43Z</time>
      </trkpt>
      <trkpt lat="48.6054" lon="7.75967">
        <ele>138</ele>
        <time>2020-06-28T10:38:44Z</time>
      </trkpt>
      <trkpt lat="48.60536" lon="7.75958">
        <ele>138.1</ele>
        <time>2020-06-28T10:38:45Z</time>
      </trkpt>
      <trkpt lat="48.6053" lon="7.75952">
        <ele>138.1</ele>
        <time>2020-06-28T10:38:46Z</time>
      </trkpt>
      <trkpt lat="48.60526" lon="7.75946">
        <ele>138.1</ele>
        <time>2020-06-28T10:38:47Z</time>
      </trkpt>
      <trkpt lat="48.60522" lon="7.75939">
        <ele>138.1</ele>
        <time>2020-06-28T10:38:48Z</time>
      </trkpt>
      <trkpt lat="48.60517" lon="7.75933">
        <ele>138.1</ele>
        <time>2020-06-28T10:38:49Z</time>
      </trkpt>
      <trkpt lat="48.60513" lon="7.75927">
        <ele>138.2</ele>
        <time>2020-06-28T10:38:50Z</time>
      </trkpt>
      <trkpt lat="48.60509" lon="7.75922">
        <ele>138.2</ele>
        <time>2020-06-28T10:38:51Z</time>
      </trkpt>
      <trkpt lat="48.60504" lon="7.75917">
        <ele>138.3</ele>
        <time>2020-06-28T10:38:52Z</time>
      </trkpt>
      <trkpt lat="48.605" lon="7.75913">
        <ele>138.3</ele>
        <time>2020-06-28T10:38:53Z</time>
      </trkpt>
      <trkpt lat="48.60496" lon="7.75907">
        <ele>138.4</ele>
        <time>2020-06-28T10:38:54Z</time>
      </trkpt>
      <trkpt lat="48.60494" lon="7.759">
        <ele>138.5</ele>
        <time>2020-06-28T10:38:55Z</time>
      </trkpt>
      <trkpt lat="48.60491" lon="7.75894">
        <ele>138.5</ele>
        <time>2020-06-28T10:38:56Z</time>
      </trkpt>
      <trkpt lat="48.60487" lon="7.75889">
        <ele>138.5</ele>
        <time>2020-06-28T10:38:57Z</time>
      </trkpt>
      <trkpt lat="48.60484" lon="7.75884">
        <ele>138.5</ele>
        <time>2020-06-28T10:38:58Z</time>
      </trkpt>
      <trkpt lat="48.60481" lon="7.75879">
        <ele>138.5</ele>
        <time>2020-06-28T10:38:59Z</time>
      </trkpt>
      <trkpt lat="48.60477" lon="7.75874">
        <ele>138.5</ele>
        <time>2020-06-28T10:39:00Z</time>
      </trkpt>
      <trkpt lat="48.60473" lon="7.75868">
        <ele>138.4</ele>
        <time>2020-06-28T10:39:01Z</time>
      </trkpt>
      <trkpt lat="48.60469" lon="7.7586">
        <ele>138.3</ele>
        <time>2020-06-28T10:39:02Z</time>
      </trkpt>
      <trkpt lat="48.60465" lon="7.75856">
        <ele>138.3</ele>
        <time>2020-06-28T10:39:03Z</time>
      </trkpt>
      <trkpt lat="48.6046" lon="7.75853">
        <ele>138.3</ele>
        <time>2020-06-28T10:39:04Z</time>
      </trkpt>
      <trkpt lat="48.60456" lon="7.75848">
        <ele>138.2</ele>
        <time>2020-06-28T10:39:05Z</time>
      </trkpt>
      <trkpt lat="48.6045" lon="7.75844">
        <ele>138.2</ele>
        <time>2020-06-28T10:39:06Z</time>
      </trkpt>
      <trkpt lat="48.60446" lon="7.75838">
        <ele>138.2</ele>
        <time>2020-06-28T10:39:07Z</time>
      </trkpt>
      <trkpt lat="48.60441" lon="7.75832">
        <ele>138.1</ele>
        <time>2020-06-28T10:39:08Z</time>
      </trkpt>
      <trkpt lat="48.60436" lon="7.75827">
        <ele>138.1</ele>
        <time>2020-06-28T10:39:09Z</time>
      </trkpt>
      <trkpt lat="48.6043" lon="7.75822">
        <ele>138.1</ele>
        <time>2020-06-28T10:39:10Z</time>
      </trkpt>
      <trkpt lat="48.60425" lon="7.75816">
        <ele>138.1</ele>
        <time>2020-06-28T10:39:11Z</time>
      </trkpt>
      <trkpt lat="48.60421" lon="7.7581">
        <ele>138.1</ele>
        <time>2020-06-28T10:39:12Z</time>
      </trkpt>
      <trkpt lat="48.60416" lon="7.75804">
        <ele>138.2</ele>
        <time>2020-06-28T10:39:13Z</time>
      </trkpt>
      <trkpt lat="48.60412" lon="7.75799">
        <ele>138.2</ele>
        <time>2020-06-28T10:39:14Z</time>
      </trkpt>
      <trkpt lat="48.60407" lon="7.75793">
        <ele>138.2</ele>
        <time>2020-06-28T10:39:15Z</time>
      </trkpt>
      <trkpt lat="48.60403" lon="7.75787">
        <ele>138.2</ele>
        <time>2020-06-28T10:39:16Z</time>
      </trkpt>
      <trkpt lat="48.60399" lon="7.75783">
        <ele>138.2</ele>
        <time>2020-06-28T10:39:17Z</time>
      </trkpt>
      <trkpt lat="48.60395" lon="7.75778">
        <ele>138.2</ele>
        <time>2020-06-28T10:39:18Z</time>
      </trkpt>
      <trkpt lat="48.60392" lon="7.75771">
        <ele>138.2</ele>
        <time>2020-06-28T10:39:19Z</time>
      </trkpt>
      <trkpt lat="48.60388" lon="7.75764">
        <ele>138.2</ele>
        <time>2020-06-28T10:39:20Z</time>
      </trkpt>
      <trkpt lat="48.60383" lon="7.75758">
        <ele>138.2</ele>
        <time>2020-06-28T10:39:21Z</time>
      </trkpt>
      <trkpt lat="48.60379" lon="7.75752">
        <ele>138.2</ele>
        <time>2020-06-28T10:39:22Z</time>
      </trkpt>
      <trkpt lat="48.60375" lon="7.75746">
        <ele>138.2</ele>
        <time>2020-06-28T10:39:23Z</time>
      </trkpt>
      <trkpt lat="48.6037" lon="7.7574">
        <ele>138.2</ele>
        <time>2020-06-28T10:39:24Z</time>
      </trkpt>
      <trkpt lat="48.60365" lon="7.75736">
        <ele>138.2</ele>
        <time>2020-06-28T10:39:25Z</time>
      </trkpt>
      <trkpt lat="48.6036" lon="7.75731">
        <ele>138.2</ele>
        <time>2020-06-28T10:39:26Z</time>
      </trkpt>
      <trkpt lat="48.60354" lon="7.75727">
        <ele>138.2</ele>
        <time>2020-06-28T10:39:27Z</time>
      </trkpt>
      <trkpt lat="48.6035" lon="7.75722">
        <ele>138.2</ele>
        <time>2020-06-28T10:39:28Z</time>
      </trkpt>
      <trkpt lat="48.60346" lon="7.75714">
        <ele>138.3</ele>
        <time>2020-06-28T10:39:29Z</time>
      </trkpt>
      <trkpt lat="48.6034" lon="7.75711">
        <ele>138.3</ele>
        <time>2020-06-28T10:39:30Z</time>
      </trkpt>
      <trkpt lat="48.60336" lon="7.75707">
        <ele>138.3</ele>
        <time>2020-06-28T10:39:31Z</time>
      </trkpt>
      <trkpt lat="48.60333" lon="7.75702">
        <ele>138.3</ele>
        <time>2020-06-28T10:39:32Z</time>
      </trkpt>
      <trkpt lat="48.60329" lon="7.75699">
        <ele>138.2</ele>
        <time>2020-06-28T10:39:33Z</time>
      </trkpt>
      <trkpt lat="48.60326" lon="7.75695">
        <ele>138.2</ele>
        <time>2020-06-28T10:39:34Z</time>
      </trkpt>
      <trkpt lat="48.60323" lon="7.75692">
        <ele>138.2</ele>
        <time>2020-06-28T10:39:35Z</time>
      </trkpt>
      <trkpt lat="48.6032" lon="7.75687">
        <ele>138.3</ele>
        <time>2020-06-28T10:39:36Z</time>
      </trkpt>
      <trkpt lat="48.60318" lon="7.75681">
        <ele>138.3</ele>
        <time>2020-06-28T10:39:37Z</time>
      </trkpt>
      <trkpt lat="48.60314" lon="7.75677">
        <ele>138.2</ele>
        <time>2020-06-28T10:39:38Z</time>
      </trkpt>
      <trkpt lat="48.6031" lon="7.75674">
        <ele>138.1</ele>
        <time>2020-06-28T10:39:39Z</time>
      </trkpt>
      <trkpt lat="48.60306" lon="7.75672">
        <ele>138</ele>
        <time>2020-06-28T10:39:40Z</time>
      </trkpt>
      <trkpt lat="48.60302" lon="7.75669">
        <ele>137.9</ele>
        <time>2020-06-28T10:39:41Z</time>
      </trkpt>
      <trkpt lat="48.60298" lon="7.75665">
        <ele>137.8</ele>
        <time>2020-06-28T10:39:42Z</time>
      </trkpt>
      <trkpt lat="48.60294" lon="7.7566">
        <ele>137.7</ele>
        <time>2020-06-28T10:39:43Z</time>
      </trkpt>
      <trkpt lat="48.6029" lon="7.75654">
        <ele>137.6</ele>
        <time>2020-06-28T10:39:44Z</time>
      </trkpt>
      <trkpt lat="48.60286" lon="7.75648">
        <ele>137.5</ele>
        <time>2020-06-28T10:39:45Z</time>
      </trkpt>
      <trkpt lat="48.60282" lon="7.75644">
        <ele>137.4</ele>
        <time>2020-06-28T10:39:46Z</time>
      </trkpt>
      <trkpt lat="48.60277" lon="7.7564">
        <ele>137.4</ele>
        <time>2020-06-28T10:39:47Z</time>
      </trkpt>
      <trkpt lat="48.60273" lon="7.75636">
        <ele>137.3</ele>
        <time>2020-06-28T10:39:48Z</time>
      </trkpt>
      <trkpt lat="48.60267" lon="7.7563">
        <ele>137.2</ele>
        <time>2020-06-28T10:39:49Z</time>
      </trkpt>
      <trkpt lat="48.60262" lon="7.75625">
        <ele>137.2</ele>
        <time>2020-06-28T10:39:50Z</time>
      </trkpt>
      <trkpt lat="48.60258" lon="7.75619">
        <ele>137.2</ele>
        <time>2020-06-28T10:39:51Z</time>
      </trkpt>
      <trkpt lat="48.60253" lon="7.75613">
        <ele>137.3</ele>
        <time>2020-06-28T10:39:52Z</time>
      </trkpt>
      <trkpt lat="48.60249" lon="7.75605">
        <ele>137.3</ele>
        <time>2020-06-28T10:39:53Z</time>
      </trkpt>
      <trkpt lat="48.60245" lon="7.75599">
        <ele>137.4</ele>
        <time>2020-06-28T10:39:54Z</time>
      </trkpt>
      <trkpt lat="48.60241" lon="7.75593">
        <ele>137.4</ele>
        <time>2020-06-28T10:39:55Z</time>
      </trkpt>
      <trkpt lat="48.60237" lon="7.75587">
        <ele>137.5</ele>
        <time>2020-06-28T10:39:56Z</time>
      </trkpt>
      <trkpt lat="48.60233" lon="7.75581">
        <ele>137.5</ele>
        <time>2020-06-28T10:39:57Z</time>
      </trkpt>
      <trkpt lat="48.60229" lon="7.75575">
        <ele>137.5</ele>
        <time>2020-06-28T10:39:58Z</time>
      </trkpt>
      <trkpt lat="48.60224" lon="7.7557">
        <ele>137.6</ele>
        <time>2020-06-28T10:39:59Z</time>
      </trkpt>
      <trkpt lat="48.60219" lon="7.75565">
        <ele>137.6</ele>
        <time>2020-06-28T10:40:00Z</time>
      </trkpt>
      <trkpt lat="48.60214" lon="7.7556">
        <ele>137.7</ele>
        <time>2020-06-28T10:40:01Z</time>
      </trkpt>
      <trkpt lat="48.60209" lon="7.75555">
        <ele>137.7</ele>
        <time>2020-06-28T10:40:02Z</time>
      </trkpt>
      <trkpt lat="48.60204" lon="7.75549">
        <ele>137.7</ele>
        <time>2020-06-28T10:40:03Z</time>
      </trkpt>
      <trkpt lat="48.60199" lon="7.75543">
        <ele>137.8</ele>
        <time>2020-06-28T10:40:04Z</time>
      </trkpt>
      <trkpt lat="48.60195" lon="7.75535">
        <ele>137.8</ele>
        <time>2020-06-28T10:40:05Z</time>
      </trkpt>
      <trkpt lat="48.60191" lon="7.75528">
        <ele>137.8</ele>
        <time>2020-06-28T10:40:06Z</time>
      </trkpt>
      <trkpt lat="48.60186" lon="7.75523">
        <ele>137.8</ele>
        <time>2020-06-28T10:40:07Z</time>
      </trkpt>
      <trkpt lat="48.60183" lon="7.75515">
        <ele>137.9</ele>
        <time>2020-06-28T10:40:08Z</time>
      </trkpt>
      <trkpt lat="48.60179" lon="7.75509">
        <ele>137.9</ele>
        <time>2020-06-28T10:40:09Z</time>
      </trkpt>
      <trkpt lat="48.60176" lon="7.75504">
        <ele>137.9</ele>
        <time>2020-06-28T10:40:10Z</time>
      </trkpt>
      <trkpt lat="48.60172" lon="7.75497">
        <ele>137.9</ele>
        <time>2020-06-28T10:40:11Z</time>
      </trkpt>
      <trkpt lat="48.60169" lon="7.75491">
        <ele>137.9</ele>
        <time>2020-06-28T10:40:12Z</time>
      </trkpt>
      <trkpt lat="48.60165" lon="7.75486">
        <ele>137.9</ele>
        <time>2020-06-28T10:40:13Z</time>
      </trkpt>
      <trkpt lat="48.60162" lon="7.7548">
        <ele>137.9</ele>
        <time>2020-06-28T10:40:14Z</time>
      </trkpt>
      <trkpt lat="48.60158" lon="7.75476">
        <ele>138</ele>
        <time>2020-06-28T10:40:15Z</time>
      </trkpt>
      <trkpt lat="48.60155" lon="7.75473">
        <ele>138</ele>
        <time>2020-06-28T10:40:16Z</time>
      </trkpt>
      <trkpt lat="48.60152" lon="7.7547">
        <ele>138.1</ele>
        <time>2020-06-28T10:40:17Z</time>
      </trkpt>
      <trkpt lat="48.60149" lon="7.75469">
        <ele>138.1</ele>
        <time>2020-06-28T10:40:18Z</time>
      </trkpt>
      <trkpt lat="48.60147" lon="7.75467">
        <ele>138.1</ele>
        <time>2020-06-28T10:40:19Z</time>
      </trkpt>
      <trkpt lat="48.60147" lon="7.75465">
        <ele>138.1</ele>
        <time>2020-06-28T10:40:20Z</time>
      </trkpt>
      <trkpt lat="48.60145" lon="7.75462">
        <ele>138.1</ele>
        <time>2020-06-28T10:40:21Z</time>
      </trkpt>
      <trkpt lat="48.60144" lon="7.75461">
        <ele>138.2</ele>
        <time>2020-06-28T10:40:22Z</time>
      </trkpt>
      <trkpt lat="48.60141" lon="7.75459">
        <ele>138.2</ele>
        <time>2020-06-28T10:40:23Z</time>
      </trkpt>
      <trkpt lat="48.60138" lon="7.75456">
        <ele>138.2</ele>
        <time>2020-06-28T10:40:24Z</time>
      </trkpt>
      <trkpt lat="48.60135" lon="7.75452">
        <ele>138.2</ele>
        <time>2020-06-28T10:40:25Z</time>
      </trkpt>
      <trkpt lat="48.60131" lon="7.75449">
        <ele>138.2</ele>
        <time>2020-06-28T10:40:26Z</time>
      </trkpt>
      <trkpt lat="48.60128" lon="7.75444">
        <ele>138.2</ele>
        <time>2020-06-28T10:40:27Z</time>
      </trkpt>
      <trkpt lat="48.60125" lon="7.7544">
        <ele>138.3</ele>
        <time>2020-06-28T10:40:28Z</time>
      </trkpt>
      <trkpt lat="48.60122" lon="7.75437">
        <ele>138.3</ele>
        <time>2020-06-28T10:40:29Z</time>
      </trkpt>
      <trkpt lat="48.60118" lon="7.75434">
        <ele>138.3</ele>
        <time>2020-06-28T10:40:30Z</time>
      </trkpt>
      <trkpt lat="48.60114" lon="7.75431">
        <ele>138.3</ele>
        <time>2020-06-28T10:40:31Z</time>
      </trkpt>
      <trkpt lat="48.6011" lon="7.75428">
        <ele>138.3</ele>
        <time>2020-06-28T10:40:32Z</time>
      </trkpt>
      <trkpt lat="48.60107" lon="7.75424">
        <ele>138.3</ele>
        <time>2020-06-28T10:40:33Z</time>
      </trkpt>
      <trkpt lat="48.60103" lon="7.75421">
        <ele>138.5</ele>
        <time>2020-06-28T10:40:34Z</time>
      </trkpt>
      <trkpt lat="48.60099" lon="7.75418">
        <ele>138.5</ele>
        <time>2020-06-28T10:40:35Z</time>
      </trkpt>
      <trkpt lat="48.60096" lon="7.75415">
        <ele>138.6</ele>
        <time>2020-06-28T10:40:36Z</time>
      </trkpt>
      <trkpt lat="48.60092" lon="7.75412">
        <ele>138.6</ele>
        <time>2020-06-28T10:40:37Z</time>
      </trkpt>
      <trkpt lat="48.60088" lon="7.75409">
        <ele>138.6</ele>
        <time>2020-06-28T10:40:38Z</time>
      </trkpt>
      <trkpt lat="48.60084" lon="7.75407">
        <ele>138.6</ele>
        <time>2020-06-28T10:40:39Z</time>
      </trkpt>
      <trkpt lat="48.6008" lon="7.75405">
        <ele>138.6</ele>
        <time>2020-06-28T10:40:40Z</time>
      </trkpt>
      <trkpt lat="48.60076" lon="7.75402">
        <ele>138.6</ele>
        <time>2020-06-28T10:40:41Z</time>
      </trkpt>
      <trkpt lat="48.60072" lon="7.75402">
        <ele>138.6</ele>
        <time>2020-06-28T10:40:42Z</time>
      </trkpt>
      <trkpt lat="48.60067" lon="7.75401">
        <ele>138.7</ele>
        <time>2020-06-28T10:40:43Z</time>
      </trkpt>
      <trkpt lat="48.60063" lon="7.75398">
        <ele>138.7</ele>
        <time>2020-06-28T10:40:44Z</time>
      </trkpt>
      <trkpt lat="48.60059" lon="7.75396">
        <ele>138.7</ele>
        <time>2020-06-28T10:40:45Z</time>
      </trkpt>
      <trkpt lat="48.60056" lon="7.75393">
        <ele>138.7</ele>
        <time>2020-06-28T10:40:46Z</time>
      </trkpt>
      <trkpt lat="48.60053" lon="7.75386">
        <ele>138.8</ele>
        <time>2020-06-28T10:40:47Z</time>
      </trkpt>
      <trkpt lat="48.60048" lon="7.75383">
        <ele>138.8</ele>
        <time>2020-06-28T10:40:48Z</time>
      </trkpt>
      <trkpt lat="48.60044" lon="7.75379">
        <ele>138.9</ele>
        <time>2020-06-28T10:40:49Z</time>
      </trkpt>
      <trkpt lat="48.60039" lon="7.75376">
        <ele>138.9</ele>
        <time>2020-06-28T10:40:50Z</time>
      </trkpt>
      <trkpt lat="48.60035" lon="7.75372">
        <ele>139</ele>
        <time>2020-06-28T10:40:51Z</time>
      </trkpt>
      <trkpt lat="48.6003" lon="7.75367">
        <ele>138.9</ele>
        <time>2020-06-28T10:40:52Z</time>
      </trkpt>
      <trkpt lat="48.60026" lon="7.75365">
        <ele>138.9</ele>
        <time>2020-06-28T10:40:53Z</time>
      </trkpt>
      <trkpt lat="48.60021" lon="7.75362">
        <ele>138.8</ele>
        <time>2020-06-28T10:40:54Z</time>
      </trkpt>
      <trkpt lat="48.60015" lon="7.75359">
        <ele>138.9</ele>
        <time>2020-06-28T10:40:55Z</time>
      </trkpt>
      <trkpt lat="48.6001" lon="7.75356">
        <ele>138.9</ele>
        <time>2020-06-28T10:40:56Z</time>
      </trkpt>
      <trkpt lat="48.60006" lon="7.75351">
        <ele>139</ele>
        <time>2020-06-28T10:40:57Z</time>
      </trkpt>
      <trkpt lat="48.59999" lon="7.75348">
        <ele>139.1</ele>
        <time>2020-06-28T10:40:58Z</time>
      </trkpt>
      <trkpt lat="48.59993" lon="7.75346">
        <ele>139.1</ele>
        <time>2020-06-28T10:40:59Z</time>
      </trkpt>
      <trkpt lat="48.59988" lon="7.75343">
        <ele>139.1</ele>
        <time>2020-06-28T10:41:00Z</time>
      </trkpt>
      <trkpt lat="48.59982" lon="7.75342">
        <ele>139.2</ele>
        <time>2020-06-28T10:41:01Z</time>
      </trkpt>
      <trkpt lat="48.59978" lon="7.75338">
        <ele>139.2</ele>
        <time>2020-06-28T10:41:02Z</time>
      </trkpt>
      <trkpt lat="48.59973" lon="7.75334">
        <ele>139.2</ele>
        <time>2020-06-28T10:41:03Z</time>
      </trkpt>
      <trkpt lat="48.59969" lon="7.7533">
        <ele>139.2</ele>
        <time>2020-06-28T10:41:04Z</time>
      </trkpt>
      <trkpt lat="48.59965" lon="7.75328">
        <ele>139.3</ele>
        <time>2020-06-28T10:41:05Z</time>
      </trkpt>
      <trkpt lat="48.5996" lon="7.75325">
        <ele>139.3</ele>
        <time>2020-06-28T10:41:06Z</time>
      </trkpt>
      <trkpt lat="48.59957" lon="7.75322">
        <ele>139.3</ele>
        <time>2020-06-28T10:41:07Z</time>
      </trkpt>
      <trkpt lat="48.59953" lon="7.75319">
        <ele>139.3</ele>
        <time>2020-06-28T10:41:08Z</time>
      </trkpt>
      <trkpt lat="48.5995" lon="7.7532">
        <ele>139.3</ele>
        <time>2020-06-28T10:41:09Z</time>
      </trkpt>
      <trkpt lat="48.59946" lon="7.75319">
        <ele>139.3</ele>
        <time>2020-06-28T10:41:10Z</time>
      </trkpt>
      <trkpt lat="48.59942" lon="7.75319">
        <ele>139.3</ele>
        <time>2020-06-28T10:41:11Z</time>
      </trkpt>
      <trkpt lat="48.59938" lon="7.75318">
        <ele>139.2</ele>
        <time>2020-06-28T10:41:12Z</time>
      </trkpt>
      <trkpt lat="48.59935" lon="7.75316">
        <ele>139.3</ele>
        <time>2020-06-28T10:41:13Z</time>
      </trkpt>
      <trkpt lat="48.59932" lon="7.75316">
        <ele>139.3</ele>
        <time>2020-06-28T10:41:14Z</time>
      </trkpt>
      <trkpt lat="48.59929" lon="7.75315">
        <ele>139.3</ele>
        <time>2020-06-28T10:41:15Z</time>
      </trkpt>
      <trkpt lat="48.59926" lon="7.75315">
        <ele>139.3</ele>
        <time>2020-06-28T10:41:16Z</time>
      </trkpt>
      <trkpt lat="48.59923" lon="7.75316">
        <ele>139.2</ele>
        <time>2020-06-28T10:41:17Z</time>
      </trkpt>
      <trkpt lat="48.5992" lon="7.75319">
        <ele>139.2</ele>
        <time>2020-06-28T10:41:18Z</time>
      </trkpt>
      <trkpt lat="48.59917" lon="7.75323">
        <ele>139.2</ele>
        <time>2020-06-28T10:41:19Z</time>
      </trkpt>
      <trkpt lat="48.59916" lon="7.75323">
        <ele>139.2</ele>
        <time>2020-06-28T10:41:20Z</time>
      </trkpt>
      <trkpt lat="48.59912" lon="7.75322">
        <ele>139.2</ele>
        <time>2020-06-28T10:41:21Z</time>
      </trkpt>
      <trkpt lat="48.59911" lon="7.75321">
        <ele>139.2</ele>
        <time>2020-06-28T10:41:22Z</time>
      </trkpt>
      <trkpt lat="48.59907" lon="7.7532">
        <ele>139.2</ele>
        <time>2020-06-28T10:41:23Z</time>
      </trkpt>
      <trkpt lat="48.59906" lon="7.75323">
        <ele>139.2</ele>
        <time>2020-06-28T10:41:24Z</time>
      </trkpt>
      <trkpt lat="48.59905" lon="7.75325">
        <ele>139.2</ele>
        <time>2020-06-28T10:41:25Z</time>
      </trkpt>
      <trkpt lat="48.59904" lon="7.75326">
        <ele>139.2</ele>
        <time>2020-06-28T10:41:26Z</time>
      </trkpt>
      <trkpt lat="48.59903" lon="7.75326">
        <ele>139.1</ele>
        <time>2020-06-28T10:41:27Z</time>
      </trkpt>
      <trkpt lat="48.59903" lon="7.75328">
        <ele>139.2</ele>
        <time>2020-06-28T10:41:28Z</time>
      </trkpt>
      <trkpt lat="48.59903" lon="7.75328">
        <ele>139.2</ele>
        <time>2020-06-28T10:41:29Z</time>
      </trkpt>
      <trkpt lat="48.59903" lon="7.75327">
        <ele>139.2</ele>
        <time>2020-06-28T10:41:30Z</time>
      </trkpt>
      <trkpt lat="48.59903" lon="7.75328">
        <ele>139.2</ele>
        <time>2020-06-28T10:41:31Z</time>
      </trkpt>
      <trkpt lat="48.59902" lon="7.75325">
        <ele>139.2</ele>
        <time>2020-06-28T10:41:32Z</time>
      </trkpt>
      <trkpt lat="48.59902" lon="7.75324">
        <ele>139.2</ele>
        <time>2020-06-28T10:41:33Z</time>
      </trkpt>
      <trkpt lat="48.59902" lon="7.75322">
        <ele>139.2</ele>
        <time>2020-06-28T10:41:34Z</time>
      </trkpt>
      <trkpt lat="48.59902" lon="7.75321">
        <ele>139.3</ele>
        <time>2020-06-28T10:41:35Z</time>
      </trkpt>
      <trkpt lat="48.59901" lon="7.75319">
        <ele>139.3</ele>
        <time>2020-06-28T10:41:36Z</time>
      </trkpt>
      <trkpt lat="48.599" lon="7.75319">
        <ele>139.3</ele>
        <time>2020-06-28T10:41:37Z</time>
      </trkpt>
      <trkpt lat="48.59899" lon="7.75319">
        <ele>139.3</ele>
        <time>2020-06-28T10:41:49Z</time>
      </trkpt>
      <trkpt lat="48.59898" lon="7.7532">
        <ele>139.3</ele>
        <time>2020-06-28T10:41:50Z</time>
      </trkpt>
      <trkpt lat="48.59897" lon="7.7532">
        <ele>139.3</ele>
        <time>2020-06-28T10:41:51Z</time>
      </trkpt>
      <trkpt lat="48.59894" lon="7.75325">
        <ele>139.2</ele>
        <time>2020-06-28T10:41:52Z</time>
      </trkpt>
      <trkpt lat="48.59892" lon="7.75327">
        <ele>139.2</ele>
        <time>2020-06-28T10:41:53Z</time>
      </trkpt>
      <trkpt lat="48.5989" lon="7.75331">
        <ele>139.2</ele>
        <time>2020-06-28T10:41:54Z</time>
      </trkpt>
      <trkpt lat="48.59889" lon="7.75335">
        <ele>139.1</ele>
        <time>2020-06-28T10:41:55Z</time>
      </trkpt>
      <trkpt lat="48.59888" lon="7.7534">
        <ele>139.1</ele>
        <time>2020-06-28T10:41:56Z</time>
      </trkpt>
      <trkpt lat="48.59887" lon="7.75341">
        <ele>139.1</ele>
        <time>2020-06-28T10:41:57Z</time>
      </trkpt>
      <trkpt lat="48.59887" lon="7.75347">
        <ele>139.1</ele>
        <time>2020-06-28T10:41:58Z</time>
      </trkpt>
      <trkpt lat="48.59887" lon="7.75348">
        <ele>139</ele>
        <time>2020-06-28T10:41:59Z</time>
      </trkpt>
      <trkpt lat="48.59885" lon="7.75354">
        <ele>139</ele>
        <time>2020-06-28T10:42:00Z</time>
      </trkpt>
      <trkpt lat="48.59885" lon="7.75356">
        <ele>138.9</ele>
        <time>2020-06-28T10:42:01Z</time>
      </trkpt>
      <trkpt lat="48.59883" lon="7.75361">
        <ele>138.8</ele>
        <time>2020-06-28T10:42:02Z</time>
      </trkpt>
      <trkpt lat="48.59881" lon="7.75366">
        <ele>138.7</ele>
        <time>2020-06-28T10:42:03Z</time>
      </trkpt>
      <trkpt lat="48.59878" lon="7.75371">
        <ele>138.6</ele>
        <time>2020-06-28T10:42:04Z</time>
      </trkpt>
      <trkpt lat="48.59876" lon="7.75377">
        <ele>138.5</ele>
        <time>2020-06-28T10:42:05Z</time>
      </trkpt>
      <trkpt lat="48.59873" lon="7.7538">
        <ele>138.4</ele>
        <time>2020-06-28T10:42:06Z</time>
      </trkpt>
      <trkpt lat="48.59871" lon="7.75384">
        <ele>138.3</ele>
        <time>2020-06-28T10:42:07Z</time>
      </trkpt>
      <trkpt lat="48.5987" lon="7.75389">
        <ele>138.2</ele>
        <time>2020-06-28T10:42:08Z</time>
      </trkpt>
      <trkpt lat="48.59868" lon="7.75392">
        <ele>138</ele>
        <time>2020-06-28T10:42:09Z</time>
      </trkpt>
      <trkpt lat="48.59867" lon="7.75397">
        <ele>138</ele>
        <time>2020-06-28T10:42:10Z</time>
      </trkpt>
      <trkpt lat="48.59866" lon="7.75399">
        <ele>137.8</ele>
        <time>2020-06-28T10:42:11Z</time>
      </trkpt>
      <trkpt lat="48.59863" lon="7.75401">
        <ele>137.8</ele>
        <time>2020-06-28T10:42:12Z</time>
      </trkpt>
      <trkpt lat="48.59861" lon="7.75405">
        <ele>137.7</ele>
        <time>2020-06-28T10:42:13Z</time>
      </trkpt>
      <trkpt lat="48.59861" lon="7.75406">
        <ele>137.7</ele>
        <time>2020-06-28T10:42:14Z</time>
      </trkpt>
      <trkpt lat="48.59858" lon="7.75408">
        <ele>137.6</ele>
        <time>2020-06-28T10:42:15Z</time>
      </trkpt>
      <trkpt lat="48.59856" lon="7.75407">
        <ele>137.7</ele>
        <time>2020-06-28T10:42:16Z</time>
      </trkpt>
      <trkpt lat="48.59854" lon="7.7541">
        <ele>137.6</ele>
        <time>2020-06-28T10:42:17Z</time>
      </trkpt>
      <trkpt lat="48.59851" lon="7.75412">
        <ele>137.5</ele>
        <time>2020-06-28T10:42:18Z</time>
      </trkpt>
      <trkpt lat="48.59848" lon="7.75413">
        <ele>137.5</ele>
        <time>2020-06-28T10:42:19Z</time>
      </trkpt>
      <trkpt lat="48.59845" lon="7.75416">
        <ele>137.4</ele>
        <time>2020-06-28T10:42:20Z</time>
      </trkpt>
      <trkpt lat="48.59843" lon="7.75419">
        <ele>137.3</ele>
        <time>2020-06-28T10:42:21Z</time>
      </trkpt>
      <trkpt lat="48.5984" lon="7.75421">
        <ele>137.3</ele>
        <time>2020-06-28T10:42:22Z</time>
      </trkpt>
      <trkpt lat="48.59838" lon="7.75425">
        <ele>137.2</ele>
        <time>2020-06-28T10:42:23Z</time>
      </trkpt>
      <trkpt lat="48.59835" lon="7.75427">
        <ele>137.2</ele>
        <time>2020-06-28T10:42:24Z</time>
      </trkpt>
      <trkpt lat="48.59833" lon="7.75429">
        <ele>137.2</ele>
        <time>2020-06-28T10:42:25Z</time>
      </trkpt>
      <trkpt lat="48.59831" lon="7.75433">
        <ele>137.1</ele>
        <time>2020-06-28T10:42:26Z</time>
      </trkpt>
      <trkpt lat="48.59828" lon="7.75436">
        <ele>137.1</ele>
        <time>2020-06-28T10:42:27Z</time>
      </trkpt>
      <trkpt lat="48.59826" lon="7.75439">
        <ele>137.1</ele>
        <time>2020-06-28T10:42:28Z</time>
      </trkpt>
      <trkpt lat="48.59825" lon="7.75445">
        <ele>137.1</ele>
        <time>2020-06-28T10:42:29Z</time>
      </trkpt>
      <trkpt lat="48.59823" lon="7.75448">
        <ele>137.1</ele>
        <time>2020-06-28T10:42:30Z</time>
      </trkpt>
      <trkpt lat="48.5982" lon="7.75453">
        <ele>137.1</ele>
        <time>2020-06-28T10:42:31Z</time>
      </trkpt>
      <trkpt lat="48.59817" lon="7.75457">
        <ele>137.2</ele>
        <time>2020-06-28T10:42:32Z</time>
      </trkpt>
      <trkpt lat="48.59815" lon="7.75461">
        <ele>137.2</ele>
        <time>2020-06-28T10:42:33Z</time>
      </trkpt>
      <trkpt lat="48.59813" lon="7.75464">
        <ele>137.3</ele>
        <time>2020-06-28T10:42:34Z</time>
      </trkpt>
      <trkpt lat="48.5981" lon="7.75469">
        <ele>137.4</ele>
        <time>2020-06-28T10:42:35Z</time>
      </trkpt>
      <trkpt lat="48.59809" lon="7.75474">
        <ele>137.4</ele>
        <time>2020-06-28T10:42:36Z</time>
      </trkpt>
      <trkpt lat="48.59808" lon="7.75477">
        <ele>137.5</ele>
        <time>2020-06-28T10:42:37Z</time>
      </trkpt>
      <trkpt lat="48.59807" lon="7.75482">
        <ele>137.6</ele>
        <time>2020-06-28T10:42:38Z</time>
      </trkpt>
      <trkpt lat="48.59806" lon="7.75487">
        <ele>137.6</ele>
        <time>2020-06-28T10:42:39Z</time>
      </trkpt>
      <trkpt lat="48.59805" lon="7.75489">
        <ele>137.7</ele>
        <time>2020-06-28T10:42:40Z</time>
      </trkpt>
      <trkpt lat="48.59805" lon="7.75497">
        <ele>137.8</ele>
        <time>2020-06-28T10:42:41Z</time>
      </trkpt>
      <trkpt lat="48.59804" lon="7.75505">
        <ele>137.9</ele>
        <time>2020-06-28T10:42:42Z</time>
      </trkpt>
      <trkpt lat="48.59802" lon="7.75511">
        <ele>138.1</ele>
        <time>2020-06-28T10:42:43Z</time>
      </trkpt>
      <trkpt lat="48.59799" lon="7.75516">
        <ele>138.1</ele>
        <time>2020-06-28T10:42:44Z</time>
      </trkpt>
      <trkpt lat="48.59797" lon="7.75522">
        <ele>138.2</ele>
        <time>2020-06-28T10:42:45Z</time>
      </trkpt>
      <trkpt lat="48.59793" lon="7.75524">
        <ele>138.4</ele>
        <time>2020-06-28T10:42:46Z</time>
      </trkpt>
      <trkpt lat="48.5979" lon="7.7553">
        <ele>138.4</ele>
        <time>2020-06-28T10:42:47Z</time>
      </trkpt>
      <trkpt lat="48.59784" lon="7.75535">
        <ele>138.6</ele>
        <time>2020-06-28T10:42:48Z</time>
      </trkpt>
      <trkpt lat="48.5978" lon="7.75541">
        <ele>138.9</ele>
        <time>2020-06-28T10:42:49Z</time>
      </trkpt>
      <trkpt lat="48.59777" lon="7.75545">
        <ele>139</ele>
        <time>2020-06-28T10:42:50Z</time>
      </trkpt>
      <trkpt lat="48.59774" lon="7.75548">
        <ele>139.1</ele>
        <time>2020-06-28T10:42:51Z</time>
      </trkpt>
      <trkpt lat="48.59771" lon="7.75553">
        <ele>139.3</ele>
        <time>2020-06-28T10:42:52Z</time>
      </trkpt>
      <trkpt lat="48.59768" lon="7.75559">
        <ele>139.5</ele>
        <time>2020-06-28T10:42:53Z</time>
      </trkpt>
      <trkpt lat="48.59764" lon="7.75563">
        <ele>139.7</ele>
        <time>2020-06-28T10:42:54Z</time>
      </trkpt>
      <trkpt lat="48.59762" lon="7.75568">
        <ele>139.8</ele>
        <time>2020-06-28T10:42:55Z</time>
      </trkpt>
      <trkpt lat="48.59758" lon="7.7557">
        <ele>140</ele>
        <time>2020-06-28T10:42:56Z</time>
      </trkpt>
      <trkpt lat="48.59755" lon="7.75575">
        <ele>140.1</ele>
        <time>2020-06-28T10:42:57Z</time>
      </trkpt>
      <trkpt lat="48.59753" lon="7.7558">
        <ele>140.2</ele>
        <time>2020-06-28T10:42:58Z</time>
      </trkpt>
      <trkpt lat="48.59749" lon="7.75584">
        <ele>140.4</ele>
        <time>2020-06-28T10:42:59Z</time>
      </trkpt>
      <trkpt lat="48.59748" lon="7.7559">
        <ele>140.5</ele>
        <time>2020-06-28T10:43:00Z</time>
      </trkpt>
      <trkpt lat="48.59746" lon="7.75595">
        <ele>140.7</ele>
        <time>2020-06-28T10:43:01Z</time>
      </trkpt>
      <trkpt lat="48.59744" lon="7.75601">
        <ele>140.9</ele>
        <time>2020-06-28T10:43:02Z</time>
      </trkpt>
      <trkpt lat="48.59741" lon="7.75605">
        <ele>141</ele>
        <time>2020-06-28T10:43:03Z</time>
      </trkpt>
      <trkpt lat="48.5974" lon="7.7561">
        <ele>141.2</ele>
        <time>2020-06-28T10:43:04Z</time>
      </trkpt>
      <trkpt lat="48.59733" lon="7.7561">
        <ele>141.1</ele>
        <time>2020-06-28T10:43:05Z</time>
      </trkpt>
      <trkpt lat="48.59728" lon="7.7561">
        <ele>141.1</ele>
        <time>2020-06-28T10:43:06Z</time>
      </trkpt>
      <trkpt lat="48.59726" lon="7.75612">
        <ele>141.1</ele>
        <time>2020-06-28T10:43:07Z</time>
      </trkpt>
      <trkpt lat="48.59723" lon="7.75612">
        <ele>141.1</ele>
        <time>2020-06-28T10:43:08Z</time>
      </trkpt>
      <trkpt lat="48.59723" lon="7.75611">
        <ele>141.1</ele>
        <time>2020-06-28T10:43:09Z</time>
      </trkpt>
      <trkpt lat="48.59723" lon="7.75611">
        <ele>141.1</ele>
        <time>2020-06-28T10:43:10Z</time>
      </trkpt>
      <trkpt lat="48.59723" lon="7.7561">
        <ele>141.1</ele>
        <time>2020-06-28T10:43:11Z</time>
      </trkpt>
      <trkpt lat="48.59723" lon="7.75611">
        <ele>141.1</ele>
        <time>2020-06-28T10:43:12Z</time>
      </trkpt>
      <trkpt lat="48.59723" lon="7.75613">
        <ele>141.1</ele>
        <time>2020-06-28T10:43:13Z</time>
      </trkpt>
      <trkpt lat="48.59722" lon="7.75615">
        <ele>141.2</ele>
        <time>2020-06-28T10:43:14Z</time>
      </trkpt>
      <trkpt lat="48.5972" lon="7.75617">
        <ele>141.2</ele>
        <time>2020-06-28T10:43:15Z</time>
      </trkpt>
      <trkpt lat="48.59718" lon="7.75621">
        <ele>141.3</ele>
        <time>2020-06-28T10:43:16Z</time>
      </trkpt>
      <trkpt lat="48.59714" lon="7.75624">
        <ele>141.3</ele>
        <time>2020-06-28T10:43:17Z</time>
      </trkpt>
      <trkpt lat="48.59711" lon="7.75628">
        <ele>141.3</ele>
        <time>2020-06-28T10:43:18Z</time>
      </trkpt>
      <trkpt lat="48.59708" lon="7.75632">
        <ele>141.3</ele>
        <time>2020-06-28T10:43:19Z</time>
      </trkpt>
      <trkpt lat="48.59705" lon="7.75637">
        <ele>141.4</ele>
        <time>2020-06-28T10:43:20Z</time>
      </trkpt>
      <trkpt lat="48.59702" lon="7.75641">
        <ele>141.2</ele>
        <time>2020-06-28T10:43:21Z</time>
      </trkpt>
      <trkpt lat="48.597" lon="7.75642">
        <ele>141.2</ele>
        <time>2020-06-28T10:43:22Z</time>
      </trkpt>
      <trkpt lat="48.59697" lon="7.75645">
        <ele>141.1</ele>
        <time>2020-06-28T10:43:23Z</time>
      </trkpt>
      <trkpt lat="48.59693" lon="7.75649">
        <ele>140.9</ele>
        <time>2020-06-28T10:43:24Z</time>
      </trkpt>
      <trkpt lat="48.5969" lon="7.75652">
        <ele>140.7</ele>
        <time>2020-06-28T10:43:25Z</time>
      </trkpt>
      <trkpt lat="48.59686" lon="7.75655">
        <ele>140.6</ele>
        <time>2020-06-28T10:43:26Z</time>
      </trkpt>
      <trkpt lat="48.59682" lon="7.75658">
        <ele>140.5</ele>
        <time>2020-06-28T10:43:27Z</time>
      </trkpt>
      <trkpt lat="48.59678" lon="7.7566">
        <ele>140.3</ele>
        <time>2020-06-28T10:43:28Z</time>
      </trkpt>
      <trkpt lat="48.59674" lon="7.75662">
        <ele>140.2</ele>
        <time>2020-06-28T10:43:29Z</time>
      </trkpt>
      <trkpt lat="48.59667" lon="7.75666">
        <ele>139.8</ele>
        <time>2020-06-28T10:43:30Z</time>
      </trkpt>
      <trkpt lat="48.59663" lon="7.75668">
        <ele>139.7</ele>
        <time>2020-06-28T10:43:31Z</time>
      </trkpt>
      <trkpt lat="48.59659" lon="7.75671">
        <ele>139.4</ele>
        <time>2020-06-28T10:43:32Z</time>
      </trkpt>
      <trkpt lat="48.59656" lon="7.75673">
        <ele>139.3</ele>
        <time>2020-06-28T10:43:33Z</time>
      </trkpt>
      <trkpt lat="48.59653" lon="7.75674">
        <ele>139.4</ele>
        <time>2020-06-28T10:43:34Z</time>
      </trkpt>
      <trkpt lat="48.5965" lon="7.75675">
        <ele>139.3</ele>
        <time>2020-06-28T10:43:35Z</time>
      </trkpt>
      <trkpt lat="48.59648" lon="7.75677">
        <ele>139.2</ele>
        <time>2020-06-28T10:43:36Z</time>
      </trkpt>
      <trkpt lat="48.59645" lon="7.75678">
        <ele>139.4</ele>
        <time>2020-06-28T10:43:37Z</time>
      </trkpt>
      <trkpt lat="48.59644" lon="7.75679">
        <ele>139.3</ele>
        <time>2020-06-28T10:43:38Z</time>
      </trkpt>
      <trkpt lat="48.59642" lon="7.75682">
        <ele>139.3</ele>
        <time>2020-06-28T10:43:39Z</time>
      </trkpt>
      <trkpt lat="48.59638" lon="7.75686">
        <ele>139.4</ele>
        <time>2020-06-28T10:43:40Z</time>
      </trkpt>
      <trkpt lat="48.59633" lon="7.75689">
        <ele>139.5</ele>
        <time>2020-06-28T10:43:41Z</time>
      </trkpt>
      <trkpt lat="48.5963" lon="7.7569">
        <ele>139.5</ele>
        <time>2020-06-28T10:43:42Z</time>
      </trkpt>
      <trkpt lat="48.59626" lon="7.75693">
        <ele>139.5</ele>
        <time>2020-06-28T10:43:43Z</time>
      </trkpt>
      <trkpt lat="48.59623" lon="7.75696">
        <ele>139.5</ele>
        <time>2020-06-28T10:43:44Z</time>
      </trkpt>
      <trkpt lat="48.5962" lon="7.75699">
        <ele>139.5</ele>
        <time>2020-06-28T10:43:45Z</time>
      </trkpt>
      <trkpt lat="48.59617" lon="7.75703">
        <ele>139.5</ele>
        <time>2020-06-28T10:43:46Z</time>
      </trkpt>
      <trkpt lat="48.59613" lon="7.75707">
        <ele>139.4</ele>
        <time>2020-06-28T10:43:47Z</time>
      </trkpt>
      <trkpt lat="48.5961" lon="7.7571">
        <ele>139.4</ele>
        <time>2020-06-28T10:43:48Z</time>
      </trkpt>
      <trkpt lat="48.59607" lon="7.75714">
        <ele>139.4</ele>
        <time>2020-06-28T10:43:49Z</time>
      </trkpt>
      <trkpt lat="48.59604" lon="7.75717">
        <ele>139.4</ele>
        <time>2020-06-28T10:43:50Z</time>
      </trkpt>
      <trkpt lat="48.596" lon="7.75721">
        <ele>139.4</ele>
        <time>2020-06-28T10:43:51Z</time>
      </trkpt>
      <trkpt lat="48.59597" lon="7.75724">
        <ele>139.4</ele>
        <time>2020-06-28T10:43:52Z</time>
      </trkpt>
      <trkpt lat="48.59594" lon="7.75729">
        <ele>139.4</ele>
        <time>2020-06-28T10:43:53Z</time>
      </trkpt>
      <trkpt lat="48.59591" lon="7.75732">
        <ele>139.4</ele>
        <time>2020-06-28T10:43:54Z</time>
      </trkpt>
      <trkpt lat="48.59587" lon="7.75734">
        <ele>139.4</ele>
        <time>2020-06-28T10:43:55Z</time>
      </trkpt>
      <trkpt lat="48.59584" lon="7.75738">
        <ele>139.4</ele>
        <time>2020-06-28T10:43:56Z</time>
      </trkpt>
      <trkpt lat="48.5958" lon="7.75743">
        <ele>139.5</ele>
        <time>2020-06-28T10:43:57Z</time>
      </trkpt>
      <trkpt lat="48.59577" lon="7.75747">
        <ele>139.5</ele>
        <time>2020-06-28T10:43:58Z</time>
      </trkpt>
      <trkpt lat="48.59574" lon="7.75751">
        <ele>139.5</ele>
        <time>2020-06-28T10:43:59Z</time>
      </trkpt>
      <trkpt lat="48.59572" lon="7.75753">
        <ele>139.5</ele>
        <time>2020-06-28T10:44:00Z</time>
      </trkpt>
      <trkpt lat="48.5957" lon="7.75757">
        <ele>139.5</ele>
        <time>2020-06-28T10:44:01Z</time>
      </trkpt>
      <trkpt lat="48.59567" lon="7.75761">
        <ele>139.5</ele>
        <time>2020-06-28T10:44:02Z</time>
      </trkpt>
      <trkpt lat="48.59563" lon="7.75764">
        <ele>139.5</ele>
        <time>2020-06-28T10:44:03Z</time>
      </trkpt>
      <trkpt lat="48.59558" lon="7.75769">
        <ele>139.5</ele>
        <time>2020-06-28T10:44:04Z</time>
      </trkpt>
      <trkpt lat="48.59555" lon="7.75772">
        <ele>139.4</ele>
        <time>2020-06-28T10:44:05Z</time>
      </trkpt>
      <trkpt lat="48.59552" lon="7.75775">
        <ele>139.4</ele>
        <time>2020-06-28T10:44:06Z</time>
      </trkpt>
      <trkpt lat="48.59549" lon="7.75779">
        <ele>139.4</ele>
        <time>2020-06-28T10:44:07Z</time>
      </trkpt>
      <trkpt lat="48.59545" lon="7.75783">
        <ele>139.4</ele>
        <time>2020-06-28T10:44:08Z</time>
      </trkpt>
      <trkpt lat="48.59542" lon="7.75786">
        <ele>139.4</ele>
        <time>2020-06-28T10:44:09Z</time>
      </trkpt>
      <trkpt lat="48.5954" lon="7.75789">
        <ele>139.5</ele>
        <time>2020-06-28T10:44:10Z</time>
      </trkpt>
      <trkpt lat="48.59537" lon="7.75792">
        <ele>139.5</ele>
        <time>2020-06-28T10:44:11Z</time>
      </trkpt>
      <trkpt lat="48.59534" lon="7.75795">
        <ele>139.5</ele>
        <time>2020-06-28T10:44:12Z</time>
      </trkpt>
      <trkpt lat="48.5953" lon="7.75797">
        <ele>139.6</ele>
        <time>2020-06-28T10:44:13Z</time>
      </trkpt>
      <trkpt lat="48.59526" lon="7.75795">
        <ele>139.6</ele>
        <time>2020-06-28T10:44:14Z</time>
      </trkpt>
      <trkpt lat="48.59524" lon="7.75793">
        <ele>139.7</ele>
        <time>2020-06-28T10:44:15Z</time>
      </trkpt>
      <trkpt lat="48.59522" lon="7.7579">
        <ele>139.7</ele>
        <time>2020-06-28T10:44:16Z</time>
      </trkpt>
      <trkpt lat="48.5952" lon="7.75787">
        <ele>139.7</ele>
        <time>2020-06-28T10:44:17Z</time>
      </trkpt>
      <trkpt lat="48.59519" lon="7.75782">
        <ele>139.7</ele>
        <time>2020-06-28T10:44:18Z</time>
      </trkpt>
      <trkpt lat="48.59517" lon="7.75777">
        <ele>139.7</ele>
        <time>2020-06-28T10:44:19Z</time>
      </trkpt>
      <trkpt lat="48.59513" lon="7.75773">
        <ele>139.7</ele>
        <time>2020-06-28T10:44:20Z</time>
      </trkpt>
      <trkpt lat="48.59511" lon="7.75771">
        <ele>139.7</ele>
        <time>2020-06-28T10:44:21Z</time>
      </trkpt>
      <trkpt lat="48.59508" lon="7.75769">
        <ele>139.7</ele>
        <time>2020-06-28T10:44:22Z</time>
      </trkpt>
      <trkpt lat="48.59505" lon="7.75767">
        <ele>139.7</ele>
        <time>2020-06-28T10:44:23Z</time>
      </trkpt>
      <trkpt lat="48.59502" lon="7.75765">
        <ele>139.7</ele>
        <time>2020-06-28T10:44:24Z</time>
      </trkpt>
      <trkpt lat="48.59499" lon="7.75761">
        <ele>139.6</ele>
        <time>2020-06-28T10:44:25Z</time>
      </trkpt>
      <trkpt lat="48.59496" lon="7.75759">
        <ele>139.6</ele>
        <time>2020-06-28T10:44:26Z</time>
      </trkpt>
      <trkpt lat="48.59493" lon="7.75756">
        <ele>139.6</ele>
        <time>2020-06-28T10:44:27Z</time>
      </trkpt>
      <trkpt lat="48.59492" lon="7.75752">
        <ele>139.6</ele>
        <time>2020-06-28T10:44:28Z</time>
      </trkpt>
      <trkpt lat="48.59492" lon="7.75748">
        <ele>139.6</ele>
        <time>2020-06-28T10:44:29Z</time>
      </trkpt>
      <trkpt lat="48.59488" lon="7.75744">
        <ele>139.6</ele>
        <time>2020-06-28T10:44:30Z</time>
      </trkpt>
      <trkpt lat="48.59486" lon="7.75742">
        <ele>139.6</ele>
        <time>2020-06-28T10:44:31Z</time>
      </trkpt>
      <trkpt lat="48.59483" lon="7.75744">
        <ele>139.6</ele>
        <time>2020-06-28T10:44:32Z</time>
      </trkpt>
      <trkpt lat="48.59479" lon="7.75744">
        <ele>139.6</ele>
        <time>2020-06-28T10:44:33Z</time>
      </trkpt>
      <trkpt lat="48.59475" lon="7.75744">
        <ele>139.6</ele>
        <time>2020-06-28T10:44:34Z</time>
      </trkpt>
      <trkpt lat="48.59471" lon="7.75744">
        <ele>139.6</ele>
        <time>2020-06-28T10:44:35Z</time>
      </trkpt>
      <trkpt lat="48.59467" lon="7.75744">
        <ele>139.6</ele>
        <time>2020-06-28T10:44:36Z</time>
      </trkpt>
      <trkpt lat="48.59463" lon="7.75744">
        <ele>139.6</ele>
        <time>2020-06-28T10:44:37Z</time>
      </trkpt>
      <trkpt lat="48.59459" lon="7.75745">
        <ele>139.6</ele>
        <time>2020-06-28T10:44:38Z</time>
      </trkpt>
      <trkpt lat="48.59456" lon="7.75747">
        <ele>139.6</ele>
        <time>2020-06-28T10:44:39Z</time>
      </trkpt>
      <trkpt lat="48.59454" lon="7.75746">
        <ele>139.6</ele>
        <time>2020-06-28T10:44:40Z</time>
      </trkpt>
      <trkpt lat="48.5945" lon="7.75748">
        <ele>139.6</ele>
        <time>2020-06-28T10:44:41Z</time>
      </trkpt>
      <trkpt lat="48.59449" lon="7.75748">
        <ele>139.6</ele>
        <time>2020-06-28T10:44:42Z</time>
      </trkpt>
      <trkpt lat="48.59446" lon="7.75748">
        <ele>139.6</ele>
        <time>2020-06-28T10:44:43Z</time>
      </trkpt>
      <trkpt lat="48.59442" lon="7.75748">
        <ele>139.6</ele>
        <time>2020-06-28T10:44:44Z</time>
      </trkpt>
      <trkpt lat="48.59438" lon="7.75748">
        <ele>139.6</ele>
        <time>2020-06-28T10:44:45Z</time>
      </trkpt>
      <trkpt lat="48.59434" lon="7.75748">
        <ele>139.6</ele>
        <time>2020-06-28T10:44:46Z</time>
      </trkpt>
      <trkpt lat="48.59431" lon="7.75749">
        <ele>139.6</ele>
        <time>2020-06-28T10:44:47Z</time>
      </trkpt>
      <trkpt lat="48.59427" lon="7.75749">
        <ele>139.6</ele>
        <time>2020-06-28T10:44:48Z</time>
      </trkpt>
      <trkpt lat="48.59425" lon="7.75749">
        <ele>139.6</ele>
        <time>2020-06-28T10:44:49Z</time>
      </trkpt>
      <trkpt lat="48.59422" lon="7.75749">
        <ele>139.6</ele>
        <time>2020-06-28T10:44:50Z</time>
      </trkpt>
      <trkpt lat="48.59419" lon="7.75749">
        <ele>139.6</ele>
        <time>2020-06-28T10:44:51Z</time>
      </trkpt>
      <trkpt lat="48.59417" lon="7.75751">
        <ele>139.5</ele>
        <time>2020-06-28T10:44:52Z</time>
      </trkpt>
      <trkpt lat="48.59413" lon="7.75751">
        <ele>139.5</ele>
        <time>2020-06-28T10:44:53Z</time>
      </trkpt>
      <trkpt lat="48.59412" lon="7.75751">
        <ele>139.5</ele>
        <time>2020-06-28T10:44:54Z</time>
      </trkpt>
      <trkpt lat="48.59408" lon="7.75751">
        <ele>139.5</ele>
        <time>2020-06-28T10:44:55Z</time>
      </trkpt>
      <trkpt lat="48.59407" lon="7.75752">
        <ele>139.5</ele>
        <time>2020-06-28T10:44:56Z</time>
      </trkpt>
      <trkpt lat="48.59404" lon="7.75753">
        <ele>139.5</ele>
        <time>2020-06-28T10:44:57Z</time>
      </trkpt>
      <trkpt lat="48.59402" lon="7.75755">
        <ele>139.5</ele>
        <time>2020-06-28T10:44:58Z</time>
      </trkpt>
      <trkpt lat="48.59398" lon="7.75758">
        <ele>139.5</ele>
        <time>2020-06-28T10:44:59Z</time>
      </trkpt>
      <trkpt lat="48.59397" lon="7.75759">
        <ele>139.5</ele>
        <time>2020-06-28T10:45:00Z</time>
      </trkpt>
      <trkpt lat="48.59394" lon="7.75763">
        <ele>139.5</ele>
        <time>2020-06-28T10:45:01Z</time>
      </trkpt>
      <trkpt lat="48.59391" lon="7.75766">
        <ele>139.5</ele>
        <time>2020-06-28T10:45:02Z</time>
      </trkpt>
      <trkpt lat="48.5939" lon="7.75766">
        <ele>139.5</ele>
        <time>2020-06-28T10:45:03Z</time>
      </trkpt>
      <trkpt lat="48.59387" lon="7.75766">
        <ele>139.5</ele>
        <time>2020-06-28T10:45:04Z</time>
      </trkpt>
      <trkpt lat="48.59386" lon="7.75767">
        <ele>139.5</ele>
        <time>2020-06-28T10:45:05Z</time>
      </trkpt>
      <trkpt lat="48.59385" lon="7.75768">
        <ele>139.5</ele>
        <time>2020-06-28T10:45:06Z</time>
      </trkpt>
      <trkpt lat="48.59384" lon="7.7577">
        <ele>139.5</ele>
        <time>2020-06-28T10:45:07Z</time>
      </trkpt>
      <trkpt lat="48.59382" lon="7.75772">
        <ele>139.5</ele>
        <time>2020-06-28T10:45:08Z</time>
      </trkpt>
      <trkpt lat="48.59382" lon="7.75773">
        <ele>139.5</ele>
        <time>2020-06-28T10:45:09Z</time>
      </trkpt>
      <trkpt lat="48.59381" lon="7.75774">
        <ele>139.6</ele>
        <time>2020-06-28T10:45:10Z</time>
      </trkpt>
      <trkpt lat="48.59379" lon="7.75774">
        <ele>139.9</ele>
        <time>2020-06-28T10:45:11Z</time>
      </trkpt>
      <trkpt lat="48.59377" lon="7.75774">
        <ele>139.9</ele>
        <time>2020-06-28T10:45:12Z</time>
      </trkpt>
      <trkpt lat="48.59376" lon="7.75773">
        <ele>139.9</ele>
        <time>2020-06-28T10:45:13Z</time>
      </trkpt>
      <trkpt lat="48.59374" lon="7.75773">
        <ele>139.9</ele>
        <time>2020-06-28T10:45:14Z</time>
      </trkpt>
      <trkpt lat="48.59369" lon="7.75771">
        <ele>140</ele>
        <time>2020-06-28T10:45:15Z</time>
      </trkpt>
      <trkpt lat="48.59367" lon="7.7577">
        <ele>140</ele>
        <time>2020-06-28T10:45:16Z</time>
      </trkpt>
      <trkpt lat="48.59365" lon="7.75769">
        <ele>140</ele>
        <time>2020-06-28T10:45:17Z</time>
      </trkpt>
      <trkpt lat="48.59363" lon="7.75768">
        <ele>140</ele>
        <time>2020-06-28T10:45:18Z</time>
      </trkpt>
      <trkpt lat="48.59358" lon="7.75765">
        <ele>140</ele>
        <time>2020-06-28T10:45:19Z</time>
      </trkpt>
      <trkpt lat="48.59356" lon="7.75764">
        <ele>140.1</ele>
        <time>2020-06-28T10:45:20Z</time>
      </trkpt>
      <trkpt lat="48.59353" lon="7.75763">
        <ele>140.1</ele>
        <time>2020-06-28T10:45:21Z</time>
      </trkpt>
      <trkpt lat="48.5935" lon="7.7576">
        <ele>140.1</ele>
        <time>2020-06-28T10:45:22Z</time>
      </trkpt>
      <trkpt lat="48.59345" lon="7.75758">
        <ele>140.1</ele>
        <time>2020-06-28T10:45:23Z</time>
      </trkpt>
      <trkpt lat="48.59349" lon="7.75774">
        <ele>140.1</ele>
        <time>2020-06-28T10:45:24Z</time>
      </trkpt>
      <trkpt lat="48.59347" lon="7.75775">
        <ele>140.1</ele>
        <time>2020-06-28T10:45:25Z</time>
      </trkpt>
      <trkpt lat="48.59345" lon="7.75776">
        <ele>140.1</ele>
        <time>2020-06-28T10:45:26Z</time>
      </trkpt>
      <trkpt lat="48.59343" lon="7.75777">
        <ele>140.1</ele>
        <time>2020-06-28T10:45:27Z</time>
      </trkpt>
      <trkpt lat="48.5934" lon="7.75778">
        <ele>140.1</ele>
        <time>2020-06-28T10:45:28Z</time>
      </trkpt>
      <trkpt lat="48.59338" lon="7.75779">
        <ele>140.1</ele>
        <time>2020-06-28T10:45:29Z</time>
      </trkpt>
      <trkpt lat="48.59336" lon="7.7578">
        <ele>140.1</ele>
        <time>2020-06-28T10:45:30Z</time>
      </trkpt>
      <trkpt lat="48.59334" lon="7.7578">
        <ele>140.1</ele>
        <time>2020-06-28T10:45:31Z</time>
      </trkpt>
      <trkpt lat="48.59331" lon="7.75781">
        <ele>140.1</ele>
        <time>2020-06-28T10:45:32Z</time>
      </trkpt>
      <trkpt lat="48.59329" lon="7.75782">
        <ele>140.1</ele>
        <time>2020-06-28T10:45:33Z</time>
      </trkpt>
      <trkpt lat="48.59327" lon="7.75783">
        <ele>140.1</ele>
        <time>2020-06-28T10:45:34Z</time>
      </trkpt>
      <trkpt lat="48.59323" lon="7.75783">
        <ele>140.1</ele>
        <time>2020-06-28T10:45:35Z</time>
      </trkpt>
      <trkpt lat="48.59319" lon="7.75783">
        <ele>140.1</ele>
        <time>2020-06-28T10:45:36Z</time>
      </trkpt>
      <trkpt lat="48.59315" lon="7.75783">
        <ele>140.1</ele>
        <time>2020-06-28T10:45:37Z</time>
      </trkpt>
      <trkpt lat="48.5931" lon="7.75783">
        <ele>140.1</ele>
        <time>2020-06-28T10:45:38Z</time>
      </trkpt>
      <trkpt lat="48.59304" lon="7.75776">
        <ele>140.1</ele>
        <time>2020-06-28T10:45:41Z</time>
      </trkpt>
      <trkpt lat="48.593" lon="7.75773">
        <ele>140.1</ele>
        <time>2020-06-28T10:45:42Z</time>
      </trkpt>
      <trkpt lat="48.59295" lon="7.75772">
        <ele>140.2</ele>
        <time>2020-06-28T10:45:43Z</time>
      </trkpt>
      <trkpt lat="48.59291" lon="7.75768">
        <ele>140.3</ele>
        <time>2020-06-28T10:45:44Z</time>
      </trkpt>
      <trkpt lat="48.59288" lon="7.75763">
        <ele>140.3</ele>
        <time>2020-06-28T10:45:45Z</time>
      </trkpt>
      <trkpt lat="48.59283" lon="7.75755">
        <ele>140.4</ele>
        <time>2020-06-28T10:45:46Z</time>
      </trkpt>
      <trkpt lat="48.5928" lon="7.75753">
        <ele>140.5</ele>
        <time>2020-06-28T10:45:47Z</time>
      </trkpt>
      <trkpt lat="48.59275" lon="7.75748">
        <ele>140.6</ele>
        <time>2020-06-28T10:45:48Z</time>
      </trkpt>
      <trkpt lat="48.59272" lon="7.75746">
        <ele>140.7</ele>
        <time>2020-06-28T10:45:49Z</time>
      </trkpt>
      <trkpt lat="48.59268" lon="7.75743">
        <ele>140.7</ele>
        <time>2020-06-28T10:45:50Z</time>
      </trkpt>
      <trkpt lat="48.59265" lon="7.75739">
        <ele>140.8</ele>
        <time>2020-06-28T10:45:51Z</time>
      </trkpt>
      <trkpt lat="48.59261" lon="7.75736">
        <ele>140.9</ele>
        <time>2020-06-28T10:45:52Z</time>
      </trkpt>
      <trkpt lat="48.59258" lon="7.75734">
        <ele>140.9</ele>
        <time>2020-06-28T10:45:53Z</time>
      </trkpt>
      <trkpt lat="48.59255" lon="7.7573">
        <ele>141</ele>
        <time>2020-06-28T10:45:54Z</time>
      </trkpt>
      <trkpt lat="48.59252" lon="7.75728">
        <ele>141.1</ele>
        <time>2020-06-28T10:45:55Z</time>
      </trkpt>
      <trkpt lat="48.59251" lon="7.75726">
        <ele>141.1</ele>
        <time>2020-06-28T10:45:56Z</time>
      </trkpt>
      <trkpt lat="48.5925" lon="7.75725">
        <ele>141.1</ele>
        <time>2020-06-28T10:45:57Z</time>
      </trkpt>
      <trkpt lat="48.59247" lon="7.75724">
        <ele>141.2</ele>
        <time>2020-06-28T10:45:58Z</time>
      </trkpt>
      <trkpt lat="48.59246" lon="7.75723">
        <ele>141.2</ele>
        <time>2020-06-28T10:45:59Z</time>
      </trkpt>
      <trkpt lat="48.59243" lon="7.75722">
        <ele>141.2</ele>
        <time>2020-06-28T10:46:00Z</time>
      </trkpt>
      <trkpt lat="48.5924" lon="7.7572">
        <ele>141.3</ele>
        <time>2020-06-28T10:46:01Z</time>
      </trkpt>
      <trkpt lat="48.59237" lon="7.75717">
        <ele>141.4</ele>
        <time>2020-06-28T10:46:02Z</time>
      </trkpt>
      <trkpt lat="48.59234" lon="7.75714">
        <ele>141.4</ele>
        <time>2020-06-28T10:46:03Z</time>
      </trkpt>
      <trkpt lat="48.59231" lon="7.75711">
        <ele>141.4</ele>
        <time>2020-06-28T10:46:04Z</time>
      </trkpt>
      <trkpt lat="48.59228" lon="7.75709">
        <ele>141.4</ele>
        <time>2020-06-28T10:46:05Z</time>
      </trkpt>
      <trkpt lat="48.59228" lon="7.7571">
        <ele>141.4</ele>
        <time>2020-06-28T10:46:06Z</time>
      </trkpt>
      <trkpt lat="48.59225" lon="7.75709">
        <ele>141.5</ele>
        <time>2020-06-28T10:46:07Z</time>
      </trkpt>
      <trkpt lat="48.59221" lon="7.75706">
        <ele>141.5</ele>
        <time>2020-06-28T10:46:08Z</time>
      </trkpt>
      <trkpt lat="48.59218" lon="7.75705">
        <ele>141.5</ele>
        <time>2020-06-28T10:46:09Z</time>
      </trkpt>
      <trkpt lat="48.59216" lon="7.75702">
        <ele>141.5</ele>
        <time>2020-06-28T10:46:10Z</time>
      </trkpt>
      <trkpt lat="48.59213" lon="7.757">
        <ele>141.5</ele>
        <time>2020-06-28T10:46:11Z</time>
      </trkpt>
      <trkpt lat="48.5921" lon="7.75699">
        <ele>141.5</ele>
        <time>2020-06-28T10:46:12Z</time>
      </trkpt>
      <trkpt lat="48.59207" lon="7.75697">
        <ele>141.5</ele>
        <time>2020-06-28T10:46:13Z</time>
      </trkpt>
      <trkpt lat="48.59204" lon="7.75697">
        <ele>141.5</ele>
        <time>2020-06-28T10:46:14Z</time>
      </trkpt>
      <trkpt lat="48.592" lon="7.75695">
        <ele>141.5</ele>
        <time>2020-06-28T10:46:15Z</time>
      </trkpt>
      <trkpt lat="48.59199" lon="7.75695">
        <ele>141.5</ele>
        <time>2020-06-28T10:46:16Z</time>
      </trkpt>
      <trkpt lat="48.59197" lon="7.75694">
        <ele>141.5</ele>
        <time>2020-06-28T10:46:17Z</time>
      </trkpt>
      <trkpt lat="48.59196" lon="7.75695">
        <ele>141.5</ele>
        <time>2020-06-28T10:46:18Z</time>
      </trkpt>
      <trkpt lat="48.59194" lon="7.75693">
        <ele>141.5</ele>
        <time>2020-06-28T10:46:19Z</time>
      </trkpt>
      <trkpt lat="48.59193" lon="7.75691">
        <ele>141.6</ele>
        <time>2020-06-28T10:46:20Z</time>
      </trkpt>
      <trkpt lat="48.59191" lon="7.75688">
        <ele>141.6</ele>
        <time>2020-06-28T10:46:21Z</time>
      </trkpt>
      <trkpt lat="48.5919" lon="7.75687">
        <ele>141.6</ele>
        <time>2020-06-28T10:46:22Z</time>
      </trkpt>
      <trkpt lat="48.59185" lon="7.75686">
        <ele>141.6</ele>
        <time>2020-06-28T10:46:23Z</time>
      </trkpt>
      <trkpt lat="48.59183" lon="7.75686">
        <ele>141.6</ele>
        <time>2020-06-28T10:46:24Z</time>
      </trkpt>
      <trkpt lat="48.59181" lon="7.75684">
        <ele>141.6</ele>
        <time>2020-06-28T10:46:25Z</time>
      </trkpt>
      <trkpt lat="48.59178" lon="7.75682">
        <ele>141.6</ele>
        <time>2020-06-28T10:46:26Z</time>
      </trkpt>
      <trkpt lat="48.59175" lon="7.75679">
        <ele>141.6</ele>
        <time>2020-06-28T10:46:27Z</time>
      </trkpt>
      <trkpt lat="48.59174" lon="7.75677">
        <ele>141.6</ele>
        <time>2020-06-28T10:46:28Z</time>
      </trkpt>
      <trkpt lat="48.59173" lon="7.75674">
        <ele>141.6</ele>
        <time>2020-06-28T10:46:29Z</time>
      </trkpt>
      <trkpt lat="48.5917" lon="7.75672">
        <ele>141.6</ele>
        <time>2020-06-28T10:46:30Z</time>
      </trkpt>
      <trkpt lat="48.5917" lon="7.75671">
        <ele>141.6</ele>
        <time>2020-06-28T10:46:31Z</time>
      </trkpt>
      <trkpt lat="48.59169" lon="7.75669">
        <ele>141.6</ele>
        <time>2020-06-28T10:46:32Z</time>
      </trkpt>
      <trkpt lat="48.59168" lon="7.75668">
        <ele>141.6</ele>
        <time>2020-06-28T10:46:33Z</time>
      </trkpt>
      <trkpt lat="48.59165" lon="7.75666">
        <ele>141.6</ele>
        <time>2020-06-28T10:46:34Z</time>
      </trkpt>
      <trkpt lat="48.59164" lon="7.75665">
        <ele>141.6</ele>
        <time>2020-06-28T10:46:35Z</time>
      </trkpt>
      <trkpt lat="48.59163" lon="7.75669">
        <ele>141.7</ele>
        <time>2020-06-28T10:46:36Z</time>
      </trkpt>
      <trkpt lat="48.5916" lon="7.75667">
        <ele>141.7</ele>
        <time>2020-06-28T10:46:37Z</time>
      </trkpt>
      <trkpt lat="48.59159" lon="7.75666">
        <ele>141.7</ele>
        <time>2020-06-28T10:46:38Z</time>
      </trkpt>
      <trkpt lat="48.59156" lon="7.75665">
        <ele>141.7</ele>
        <time>2020-06-28T10:46:39Z</time>
      </trkpt>
      <trkpt lat="48.59153" lon="7.75662">
        <ele>141.7</ele>
        <time>2020-06-28T10:46:40Z</time>
      </trkpt>
      <trkpt lat="48.59151" lon="7.75659">
        <ele>141.7</ele>
        <time>2020-06-28T10:46:41Z</time>
      </trkpt>
      <trkpt lat="48.59148" lon="7.7566">
        <ele>141.7</ele>
        <time>2020-06-28T10:46:42Z</time>
      </trkpt>
      <trkpt lat="48.59143" lon="7.75658">
        <ele>141.7</ele>
        <time>2020-06-28T10:46:43Z</time>
      </trkpt>
      <trkpt lat="48.59139" lon="7.75656">
        <ele>141.7</ele>
        <time>2020-06-28T10:46:44Z</time>
      </trkpt>
      <trkpt lat="48.59136" lon="7.75655">
        <ele>141.7</ele>
        <time>2020-06-28T10:46:45Z</time>
      </trkpt>
      <trkpt lat="48.59133" lon="7.75653">
        <ele>141.7</ele>
        <time>2020-06-28T10:46:46Z</time>
      </trkpt>
      <trkpt lat="48.5913" lon="7.7565">
        <ele>141.7</ele>
        <time>2020-06-28T10:46:47Z</time>
      </trkpt>
      <trkpt lat="48.59127" lon="7.75649">
        <ele>141.7</ele>
        <time>2020-06-28T10:46:48Z</time>
      </trkpt>
      <trkpt lat="48.59124" lon="7.75648">
        <ele>141.7</ele>
        <time>2020-06-28T10:46:49Z</time>
      </trkpt>
      <trkpt lat="48.59123" lon="7.75648">
        <ele>141.7</ele>
        <time>2020-06-28T10:46:50Z</time>
      </trkpt>
      <trkpt lat="48.59119" lon="7.75646">
        <ele>141.7</ele>
        <time>2020-06-28T10:46:51Z</time>
      </trkpt>
      <trkpt lat="48.59118" lon="7.75645">
        <ele>141.7</ele>
        <time>2020-06-28T10:46:52Z</time>
      </trkpt>
      <trkpt lat="48.59115" lon="7.75643">
        <ele>141.7</ele>
        <time>2020-06-28T10:46:53Z</time>
      </trkpt>
      <trkpt lat="48.59113" lon="7.75642">
        <ele>141.8</ele>
        <time>2020-06-28T10:46:54Z</time>
      </trkpt>
      <trkpt lat="48.5911" lon="7.7564">
        <ele>141.8</ele>
        <time>2020-06-28T10:46:55Z</time>
      </trkpt>
      <trkpt lat="48.59107" lon="7.75641">
        <ele>141.8</ele>
        <time>2020-06-28T10:46:56Z</time>
      </trkpt>
      <trkpt lat="48.59104" lon="7.75638">
        <ele>141.8</ele>
        <time>2020-06-28T10:46:57Z</time>
      </trkpt>
      <trkpt lat="48.59103" lon="7.75637">
        <ele>141.8</ele>
        <time>2020-06-28T10:46:58Z</time>
      </trkpt>
      <trkpt lat="48.591" lon="7.75635">
        <ele>141.8</ele>
        <time>2020-06-28T10:46:59Z</time>
      </trkpt>
      <trkpt lat="48.59097" lon="7.75632">
        <ele>141.8</ele>
        <time>2020-06-28T10:47:00Z</time>
      </trkpt>
      <trkpt lat="48.59095" lon="7.75632">
        <ele>141.8</ele>
        <time>2020-06-28T10:47:01Z</time>
      </trkpt>
      <trkpt lat="48.59091" lon="7.75632">
        <ele>141.8</ele>
        <time>2020-06-28T10:47:02Z</time>
      </trkpt>
      <trkpt lat="48.59088" lon="7.75629">
        <ele>141.8</ele>
        <time>2020-06-28T10:47:03Z</time>
      </trkpt>
      <trkpt lat="48.59084" lon="7.75629">
        <ele>141.8</ele>
        <time>2020-06-28T10:47:04Z</time>
      </trkpt>
      <trkpt lat="48.59081" lon="7.75624">
        <ele>141.8</ele>
        <time>2020-06-28T10:47:05Z</time>
      </trkpt>
      <trkpt lat="48.59078" lon="7.75619">
        <ele>141.8</ele>
        <time>2020-06-28T10:47:06Z</time>
      </trkpt>
      <trkpt lat="48.59075" lon="7.75615">
        <ele>141.8</ele>
        <time>2020-06-28T10:47:07Z</time>
      </trkpt>
      <trkpt lat="48.59071" lon="7.75611">
        <ele>141.7</ele>
        <time>2020-06-28T10:47:08Z</time>
      </trkpt>
      <trkpt lat="48.59069" lon="7.75609">
        <ele>141.7</ele>
        <time>2020-06-28T10:47:09Z</time>
      </trkpt>
      <trkpt lat="48.59066" lon="7.75607">
        <ele>141.7</ele>
        <time>2020-06-28T10:47:10Z</time>
      </trkpt>
      <trkpt lat="48.59063" lon="7.75604">
        <ele>141.7</ele>
        <time>2020-06-28T10:47:11Z</time>
      </trkpt>
      <trkpt lat="48.59059" lon="7.75602">
        <ele>141.7</ele>
        <time>2020-06-28T10:47:12Z</time>
      </trkpt>
      <trkpt lat="48.59057" lon="7.75602">
        <ele>141.8</ele>
        <time>2020-06-28T10:47:13Z</time>
      </trkpt>
      <trkpt lat="48.59056" lon="7.75601">
        <ele>141.8</ele>
        <time>2020-06-28T10:47:14Z</time>
      </trkpt>
      <trkpt lat="48.59052" lon="7.75599">
        <ele>141.8</ele>
        <time>2020-06-28T10:47:15Z</time>
      </trkpt>
      <trkpt lat="48.59049" lon="7.75597">
        <ele>141.8</ele>
        <time>2020-06-28T10:47:16Z</time>
      </trkpt>
      <trkpt lat="48.59046" lon="7.75596">
        <ele>141.9</ele>
        <time>2020-06-28T10:47:17Z</time>
      </trkpt>
      <trkpt lat="48.59044" lon="7.75596">
        <ele>141.9</ele>
        <time>2020-06-28T10:47:18Z</time>
      </trkpt>
      <trkpt lat="48.59041" lon="7.75594">
        <ele>141.9</ele>
        <time>2020-06-28T10:47:19Z</time>
      </trkpt>
      <trkpt lat="48.59037" lon="7.75595">
        <ele>142</ele>
        <time>2020-06-28T10:47:20Z</time>
      </trkpt>
      <trkpt lat="48.59034" lon="7.75593">
        <ele>142</ele>
        <time>2020-06-28T10:47:21Z</time>
      </trkpt>
      <trkpt lat="48.59032" lon="7.75592">
        <ele>142</ele>
        <time>2020-06-28T10:47:22Z</time>
      </trkpt>
      <trkpt lat="48.59031" lon="7.75591">
        <ele>142</ele>
        <time>2020-06-28T10:47:23Z</time>
      </trkpt>
      <trkpt lat="48.59027" lon="7.75589">
        <ele>142.1</ele>
        <time>2020-06-28T10:47:24Z</time>
      </trkpt>
      <trkpt lat="48.59025" lon="7.75586">
        <ele>142.1</ele>
        <time>2020-06-28T10:47:25Z</time>
      </trkpt>
      <trkpt lat="48.59021" lon="7.75584">
        <ele>142.1</ele>
        <time>2020-06-28T10:47:26Z</time>
      </trkpt>
      <trkpt lat="48.59018" lon="7.75583">
        <ele>142.2</ele>
        <time>2020-06-28T10:47:27Z</time>
      </trkpt>
      <trkpt lat="48.59014" lon="7.75582">
        <ele>142.3</ele>
        <time>2020-06-28T10:47:28Z</time>
      </trkpt>
      <trkpt lat="48.5901" lon="7.75579">
        <ele>142.3</ele>
        <time>2020-06-28T10:47:29Z</time>
      </trkpt>
      <trkpt lat="48.59007" lon="7.75577">
        <ele>142.4</ele>
        <time>2020-06-28T10:47:30Z</time>
      </trkpt>
      <trkpt lat="48.59004" lon="7.75575">
        <ele>142.4</ele>
        <time>2020-06-28T10:47:31Z</time>
      </trkpt>
      <trkpt lat="48.59002" lon="7.75574">
        <ele>142.4</ele>
        <time>2020-06-28T10:47:32Z</time>
      </trkpt>
      <trkpt lat="48.59001" lon="7.75573">
        <ele>142.5</ele>
        <time>2020-06-28T10:47:33Z</time>
      </trkpt>
      <trkpt lat="48.58999" lon="7.75574">
        <ele>142.5</ele>
        <time>2020-06-28T10:47:34Z</time>
      </trkpt>
      <trkpt lat="48.58996" lon="7.75571">
        <ele>142.6</ele>
        <time>2020-06-28T10:47:35Z</time>
      </trkpt>
      <trkpt lat="48.58995" lon="7.7557">
        <ele>142.6</ele>
        <time>2020-06-28T10:47:36Z</time>
      </trkpt>
      <trkpt lat="48.58994" lon="7.75565">
        <ele>142.6</ele>
        <time>2020-06-28T10:47:37Z</time>
      </trkpt>
      <trkpt lat="48.58994" lon="7.75563">
        <ele>142.7</ele>
        <time>2020-06-28T10:47:38Z</time>
      </trkpt>
      <trkpt lat="48.58989" lon="7.7556">
        <ele>142.6</ele>
        <time>2020-06-28T10:47:39Z</time>
      </trkpt>
      <trkpt lat="48.58987" lon="7.7556">
        <ele>142.6</ele>
        <time>2020-06-28T10:47:40Z</time>
      </trkpt>
      <trkpt lat="48.58983" lon="7.75559">
        <ele>142.6</ele>
        <time>2020-06-28T10:47:41Z</time>
      </trkpt>
      <trkpt lat="48.5898" lon="7.75558">
        <ele>142.6</ele>
        <time>2020-06-28T10:47:42Z</time>
      </trkpt>
      <trkpt lat="48.58977" lon="7.75556">
        <ele>142.6</ele>
        <time>2020-06-28T10:47:43Z</time>
      </trkpt>
      <trkpt lat="48.58972" lon="7.75555">
        <ele>142.6</ele>
        <time>2020-06-28T10:47:44Z</time>
      </trkpt>
      <trkpt lat="48.58969" lon="7.75554">
        <ele>142.6</ele>
        <time>2020-06-28T10:47:45Z</time>
      </trkpt>
      <trkpt lat="48.58965" lon="7.75552">
        <ele>142.6</ele>
        <time>2020-06-28T10:47:46Z</time>
      </trkpt>
      <trkpt lat="48.58959" lon="7.7555">
        <ele>142.7</ele>
        <time>2020-06-28T10:47:47Z</time>
      </trkpt>
      <trkpt lat="48.58953" lon="7.75549">
        <ele>142.7</ele>
        <time>2020-06-28T10:47:48Z</time>
      </trkpt>
      <trkpt lat="48.58949" lon="7.75548">
        <ele>142.7</ele>
        <time>2020-06-28T10:47:49Z</time>
      </trkpt>
      <trkpt lat="48.58945" lon="7.75546">
        <ele>142.7</ele>
        <time>2020-06-28T10:47:50Z</time>
      </trkpt>
      <trkpt lat="48.58941" lon="7.75544">
        <ele>142.8</ele>
        <time>2020-06-28T10:47:51Z</time>
      </trkpt>
      <trkpt lat="48.58938" lon="7.7554">
        <ele>142.8</ele>
        <time>2020-06-28T10:47:52Z</time>
      </trkpt>
      <trkpt lat="48.58934" lon="7.75537">
        <ele>142.8</ele>
        <time>2020-06-28T10:47:53Z</time>
      </trkpt>
      <trkpt lat="48.5893" lon="7.75535">
        <ele>142.9</ele>
        <time>2020-06-28T10:47:54Z</time>
      </trkpt>
      <trkpt lat="48.58927" lon="7.75531">
        <ele>142.9</ele>
        <time>2020-06-28T10:47:55Z</time>
      </trkpt>
      <trkpt lat="48.58923" lon="7.75527">
        <ele>142.9</ele>
        <time>2020-06-28T10:47:56Z</time>
      </trkpt>
      <trkpt lat="48.58919" lon="7.75523">
        <ele>142.9</ele>
        <time>2020-06-28T10:47:57Z</time>
      </trkpt>
      <trkpt lat="48.58915" lon="7.75519">
        <ele>143</ele>
        <time>2020-06-28T10:47:58Z</time>
      </trkpt>
      <trkpt lat="48.58911" lon="7.75517">
        <ele>143</ele>
        <time>2020-06-28T10:47:59Z</time>
      </trkpt>
      <trkpt lat="48.58907" lon="7.75512">
        <ele>143.1</ele>
        <time>2020-06-28T10:48:00Z</time>
      </trkpt>
      <trkpt lat="48.58902" lon="7.75509">
        <ele>143.2</ele>
        <time>2020-06-28T10:48:01Z</time>
      </trkpt>
      <trkpt lat="48.58898" lon="7.75505">
        <ele>143.2</ele>
        <time>2020-06-28T10:48:02Z</time>
      </trkpt>
      <trkpt lat="48.58895" lon="7.75501">
        <ele>143.3</ele>
        <time>2020-06-28T10:48:03Z</time>
      </trkpt>
      <trkpt lat="48.58892" lon="7.75499">
        <ele>143.3</ele>
        <time>2020-06-28T10:48:04Z</time>
      </trkpt>
      <trkpt lat="48.58891" lon="7.75499">
        <ele>143.3</ele>
        <time>2020-06-28T10:48:05Z</time>
      </trkpt>
      <trkpt lat="48.58889" lon="7.75497">
        <ele>143.4</ele>
        <time>2020-06-28T10:48:06Z</time>
      </trkpt>
      <trkpt lat="48.58886" lon="7.75496">
        <ele>143.4</ele>
        <time>2020-06-28T10:48:07Z</time>
      </trkpt>
      <trkpt lat="48.58883" lon="7.75493">
        <ele>143.4</ele>
        <time>2020-06-28T10:48:08Z</time>
      </trkpt>
      <trkpt lat="48.58881" lon="7.75493">
        <ele>143.4</ele>
        <time>2020-06-28T10:48:09Z</time>
      </trkpt>
      <trkpt lat="48.58878" lon="7.75491">
        <ele>143.4</ele>
        <time>2020-06-28T10:48:10Z</time>
      </trkpt>
      <trkpt lat="48.58878" lon="7.7549">
        <ele>143.5</ele>
        <time>2020-06-28T10:48:11Z</time>
      </trkpt>
      <trkpt lat="48.58875" lon="7.75488">
        <ele>143.5</ele>
        <time>2020-06-28T10:48:12Z</time>
      </trkpt>
      <trkpt lat="48.58872" lon="7.75486">
        <ele>143.5</ele>
        <time>2020-06-28T10:48:13Z</time>
      </trkpt>
      <trkpt lat="48.58871" lon="7.75481">
        <ele>143.5</ele>
        <time>2020-06-28T10:48:14Z</time>
      </trkpt>
      <trkpt lat="48.58869" lon="7.75477">
        <ele>143.4</ele>
        <time>2020-06-28T10:48:15Z</time>
      </trkpt>
      <trkpt lat="48.58868" lon="7.75473">
        <ele>143.4</ele>
        <time>2020-06-28T10:48:16Z</time>
      </trkpt>
      <trkpt lat="48.58866" lon="7.75469">
        <ele>143.4</ele>
        <time>2020-06-28T10:48:17Z</time>
      </trkpt>
      <trkpt lat="48.58865" lon="7.75465">
        <ele>143.4</ele>
        <time>2020-06-28T10:48:18Z</time>
      </trkpt>
      <trkpt lat="48.58862" lon="7.75463">
        <ele>143.4</ele>
        <time>2020-06-28T10:48:19Z</time>
      </trkpt>
      <trkpt lat="48.58858" lon="7.7546">
        <ele>143.4</ele>
        <time>2020-06-28T10:48:20Z</time>
      </trkpt>
      <trkpt lat="48.58856" lon="7.7546">
        <ele>143.4</ele>
        <time>2020-06-28T10:48:21Z</time>
      </trkpt>
      <trkpt lat="48.58852" lon="7.75459">
        <ele>143.4</ele>
        <time>2020-06-28T10:48:22Z</time>
      </trkpt>
      <trkpt lat="48.58847" lon="7.75459">
        <ele>143.4</ele>
        <time>2020-06-28T10:48:23Z</time>
      </trkpt>
      <trkpt lat="48.58842" lon="7.75458">
        <ele>143.4</ele>
        <time>2020-06-28T10:48:24Z</time>
      </trkpt>
      <trkpt lat="48.58837" lon="7.75456">
        <ele>143.4</ele>
        <time>2020-06-28T10:48:25Z</time>
      </trkpt>
      <trkpt lat="48.58832" lon="7.75454">
        <ele>143.4</ele>
        <time>2020-06-28T10:48:26Z</time>
      </trkpt>
      <trkpt lat="48.58828" lon="7.75452">
        <ele>143.5</ele>
        <time>2020-06-28T10:48:27Z</time>
      </trkpt>
      <trkpt lat="48.58824" lon="7.7545">
        <ele>143.5</ele>
        <time>2020-06-28T10:48:28Z</time>
      </trkpt>
      <trkpt lat="48.58821" lon="7.75448">
        <ele>143.5</ele>
        <time>2020-06-28T10:48:29Z</time>
      </trkpt>
      <trkpt lat="48.58817" lon="7.7545">
        <ele>143.5</ele>
        <time>2020-06-28T10:48:30Z</time>
      </trkpt>
      <trkpt lat="48.58813" lon="7.75447">
        <ele>143.5</ele>
        <time>2020-06-28T10:48:31Z</time>
      </trkpt>
      <trkpt lat="48.5881" lon="7.75445">
        <ele>143.6</ele>
        <time>2020-06-28T10:48:32Z</time>
      </trkpt>
      <trkpt lat="48.58806" lon="7.75444">
        <ele>143.6</ele>
        <time>2020-06-28T10:48:33Z</time>
      </trkpt>
      <trkpt lat="48.58803" lon="7.75442">
        <ele>143.6</ele>
        <time>2020-06-28T10:48:34Z</time>
      </trkpt>
      <trkpt lat="48.588" lon="7.75441">
        <ele>143.6</ele>
        <time>2020-06-28T10:48:35Z</time>
      </trkpt>
      <trkpt lat="48.58799" lon="7.75431">
        <ele>143.7</ele>
        <time>2020-06-28T10:48:36Z</time>
      </trkpt>
      <trkpt lat="48.58797" lon="7.75427">
        <ele>143.7</ele>
        <time>2020-06-28T10:48:37Z</time>
      </trkpt>
      <trkpt lat="48.58795" lon="7.75427">
        <ele>143.7</ele>
        <time>2020-06-28T10:48:38Z</time>
      </trkpt>
      <trkpt lat="48.58794" lon="7.75427">
        <ele>143.7</ele>
        <time>2020-06-28T10:48:39Z</time>
      </trkpt>
      <trkpt lat="48.58791" lon="7.75428">
        <ele>143.7</ele>
        <time>2020-06-28T10:48:40Z</time>
      </trkpt>
      <trkpt lat="48.5879" lon="7.75428">
        <ele>143.7</ele>
        <time>2020-06-28T10:48:41Z</time>
      </trkpt>
      <trkpt lat="48.58787" lon="7.75428">
        <ele>143.7</ele>
        <time>2020-06-28T10:48:42Z</time>
      </trkpt>
      <trkpt lat="48.58784" lon="7.75427">
        <ele>143.7</ele>
        <time>2020-06-28T10:48:43Z</time>
      </trkpt>
      <trkpt lat="48.5878" lon="7.75425">
        <ele>143.5</ele>
        <time>2020-06-28T10:48:44Z</time>
      </trkpt>
      <trkpt lat="48.58777" lon="7.75426">
        <ele>143.5</ele>
        <time>2020-06-28T10:48:45Z</time>
      </trkpt>
      <trkpt lat="48.58774" lon="7.75427">
        <ele>143.5</ele>
        <time>2020-06-28T10:48:46Z</time>
      </trkpt>
      <trkpt lat="48.5877" lon="7.75425">
        <ele>143.4</ele>
        <time>2020-06-28T10:48:47Z</time>
      </trkpt>
      <trkpt lat="48.58769" lon="7.75424">
        <ele>143.4</ele>
        <time>2020-06-28T10:48:48Z</time>
      </trkpt>
      <trkpt lat="48.58766" lon="7.75425">
        <ele>143.4</ele>
        <time>2020-06-28T10:48:49Z</time>
      </trkpt>
      <trkpt lat="48.58764" lon="7.75427">
        <ele>143.4</ele>
        <time>2020-06-28T10:48:50Z</time>
      </trkpt>
      <trkpt lat="48.58761" lon="7.75428">
        <ele>143.4</ele>
        <time>2020-06-28T10:48:51Z</time>
      </trkpt>
      <trkpt lat="48.58759" lon="7.75431">
        <ele>143.3</ele>
        <time>2020-06-28T10:48:52Z</time>
      </trkpt>
      <trkpt lat="48.58756" lon="7.75432">
        <ele>143.3</ele>
        <time>2020-06-28T10:48:53Z</time>
      </trkpt>
      <trkpt lat="48.58752" lon="7.7543">
        <ele>143.3</ele>
        <time>2020-06-28T10:48:54Z</time>
      </trkpt>
      <trkpt lat="48.58749" lon="7.75428">
        <ele>143.2</ele>
        <time>2020-06-28T10:48:55Z</time>
      </trkpt>
      <trkpt lat="48.58746" lon="7.75425">
        <ele>143.2</ele>
        <time>2020-06-28T10:48:56Z</time>
      </trkpt>
      <trkpt lat="48.58742" lon="7.75423">
        <ele>143.2</ele>
        <time>2020-06-28T10:48:57Z</time>
      </trkpt>
      <trkpt lat="48.58739" lon="7.75421">
        <ele>143.2</ele>
        <time>2020-06-28T10:48:58Z</time>
      </trkpt>
      <trkpt lat="48.58736" lon="7.75419">
        <ele>143.1</ele>
        <time>2020-06-28T10:48:59Z</time>
      </trkpt>
      <trkpt lat="48.58733" lon="7.75416">
        <ele>143.1</ele>
        <time>2020-06-28T10:49:00Z</time>
      </trkpt>
      <trkpt lat="48.5873" lon="7.75413">
        <ele>143.1</ele>
        <time>2020-06-28T10:49:01Z</time>
      </trkpt>
      <trkpt lat="48.58728" lon="7.75412">
        <ele>143.1</ele>
        <time>2020-06-28T10:49:02Z</time>
      </trkpt>
      <trkpt lat="48.58725" lon="7.75411">
        <ele>143.1</ele>
        <time>2020-06-28T10:49:03Z</time>
      </trkpt>
      <trkpt lat="48.58721" lon="7.75409">
        <ele>143.1</ele>
        <time>2020-06-28T10:49:04Z</time>
      </trkpt>
      <trkpt lat="48.58717" lon="7.75408">
        <ele>143.1</ele>
        <time>2020-06-28T10:49:05Z</time>
      </trkpt>
      <trkpt lat="48.58713" lon="7.75406">
        <ele>143.1</ele>
        <time>2020-06-28T10:49:06Z</time>
      </trkpt>
      <trkpt lat="48.5871" lon="7.75405">
        <ele>143.1</ele>
        <time>2020-06-28T10:49:07Z</time>
      </trkpt>
      <trkpt lat="48.58707" lon="7.75402">
        <ele>143.1</ele>
        <time>2020-06-28T10:49:08Z</time>
      </trkpt>
      <trkpt lat="48.58703" lon="7.75399">
        <ele>143</ele>
        <time>2020-06-28T10:49:09Z</time>
      </trkpt>
      <trkpt lat="48.58702" lon="7.75398">
        <ele>143</ele>
        <time>2020-06-28T10:49:10Z</time>
      </trkpt>
      <trkpt lat="48.587" lon="7.75395">
        <ele>143</ele>
        <time>2020-06-28T10:49:11Z</time>
      </trkpt>
      <trkpt lat="48.58697" lon="7.75393">
        <ele>143</ele>
        <time>2020-06-28T10:49:12Z</time>
      </trkpt>
      <trkpt lat="48.58693" lon="7.75391">
        <ele>143</ele>
        <time>2020-06-28T10:49:13Z</time>
      </trkpt>
      <trkpt lat="48.58689" lon="7.75389">
        <ele>143</ele>
        <time>2020-06-28T10:49:14Z</time>
      </trkpt>
      <trkpt lat="48.58686" lon="7.75385">
        <ele>143</ele>
        <time>2020-06-28T10:49:15Z</time>
      </trkpt>
      <trkpt lat="48.58685" lon="7.75384">
        <ele>143</ele>
        <time>2020-06-28T10:49:16Z</time>
      </trkpt>
      <trkpt lat="48.58682" lon="7.7538">
        <ele>143</ele>
        <time>2020-06-28T10:49:17Z</time>
      </trkpt>
      <trkpt lat="48.58681" lon="7.75377">
        <ele>142.1</ele>
        <time>2020-06-28T10:49:18Z</time>
      </trkpt>
      <trkpt lat="48.58678" lon="7.75373">
        <ele>141.6</ele>
        <time>2020-06-28T10:49:19Z</time>
      </trkpt>
      <trkpt lat="48.58676" lon="7.7537">
        <ele>141.2</ele>
        <time>2020-06-28T10:49:20Z</time>
      </trkpt>
      <trkpt lat="48.58676" lon="7.75369">
        <ele>141.1</ele>
        <time>2020-06-28T10:49:21Z</time>
      </trkpt>
      <trkpt lat="48.58675" lon="7.75368">
        <ele>141</ele>
        <time>2020-06-28T10:49:22Z</time>
      </trkpt>
      <trkpt lat="48.58675" lon="7.75367">
        <ele>140.9</ele>
        <time>2020-06-28T10:49:23Z</time>
      </trkpt>
      <trkpt lat="48.58674" lon="7.75366">
        <ele>140.1</ele>
        <time>2020-06-28T10:49:24Z</time>
      </trkpt>
      <trkpt lat="48.58672" lon="7.75369">
        <ele>140.1</ele>
        <time>2020-06-28T10:49:25Z</time>
      </trkpt>
      <trkpt lat="48.58672" lon="7.75368">
        <ele>140.1</ele>
        <time>2020-06-28T10:49:26Z</time>
      </trkpt>
      <trkpt lat="48.58671" lon="7.75366">
        <ele>140.1</ele>
        <time>2020-06-28T10:49:27Z</time>
      </trkpt>
      <trkpt lat="48.5867" lon="7.75365">
        <ele>140.1</ele>
        <time>2020-06-28T10:49:28Z</time>
      </trkpt>
      <trkpt lat="48.58669" lon="7.75363">
        <ele>140.1</ele>
        <time>2020-06-28T10:49:29Z</time>
      </trkpt>
      <trkpt lat="48.58668" lon="7.75363">
        <ele>140.1</ele>
        <time>2020-06-28T10:49:30Z</time>
      </trkpt>
      <trkpt lat="48.58665" lon="7.7536">
        <ele>140.7</ele>
        <time>2020-06-28T10:49:31Z</time>
      </trkpt>
      <trkpt lat="48.58664" lon="7.75358">
        <ele>141.2</ele>
        <time>2020-06-28T10:49:32Z</time>
      </trkpt>
      <trkpt lat="48.58662" lon="7.75355">
        <ele>141.7</ele>
        <time>2020-06-28T10:49:33Z</time>
      </trkpt>
      <trkpt lat="48.5866" lon="7.75351">
        <ele>142</ele>
        <time>2020-06-28T10:49:34Z</time>
      </trkpt>
      <trkpt lat="48.58658" lon="7.75347">
        <ele>142.2</ele>
        <time>2020-06-28T10:49:35Z</time>
      </trkpt>
      <trkpt lat="48.58658" lon="7.75345">
        <ele>142.8</ele>
        <time>2020-06-28T10:49:36Z</time>
      </trkpt>
      <trkpt lat="48.58656" lon="7.75341">
        <ele>142.7</ele>
        <time>2020-06-28T10:49:37Z</time>
      </trkpt>
      <trkpt lat="48.58654" lon="7.75338">
        <ele>142.4</ele>
        <time>2020-06-28T10:49:38Z</time>
      </trkpt>
      <trkpt lat="48.58653" lon="7.75336">
        <ele>143</ele>
        <time>2020-06-28T10:49:39Z</time>
      </trkpt>
      <trkpt lat="48.58651" lon="7.75333">
        <ele>142.7</ele>
        <time>2020-06-28T10:49:40Z</time>
      </trkpt>
      <trkpt lat="48.5865" lon="7.75329">
        <ele>142.7</ele>
        <time>2020-06-28T10:49:41Z</time>
      </trkpt>
      <trkpt lat="48.58649" lon="7.75324">
        <ele>142.7</ele>
        <time>2020-06-28T10:49:42Z</time>
      </trkpt>
      <trkpt lat="48.5865" lon="7.75318">
        <ele>142.7</ele>
        <time>2020-06-28T10:49:43Z</time>
      </trkpt>
      <trkpt lat="48.58647" lon="7.75313">
        <ele>142.7</ele>
        <time>2020-06-28T10:49:44Z</time>
      </trkpt>
      <trkpt lat="48.58646" lon="7.75309">
        <ele>142.7</ele>
        <time>2020-06-28T10:49:45Z</time>
      </trkpt>
      <trkpt lat="48.58645" lon="7.75305">
        <ele>142.7</ele>
        <time>2020-06-28T10:49:46Z</time>
      </trkpt>
      <trkpt lat="48.58644" lon="7.75301">
        <ele>142.7</ele>
        <time>2020-06-28T10:49:47Z</time>
      </trkpt>
      <trkpt lat="48.58643" lon="7.75297">
        <ele>142.6</ele>
        <time>2020-06-28T10:49:48Z</time>
      </trkpt>
      <trkpt lat="48.58642" lon="7.75292">
        <ele>142.6</ele>
        <time>2020-06-28T10:49:49Z</time>
      </trkpt>
      <trkpt lat="48.58641" lon="7.75291">
        <ele>142.6</ele>
        <time>2020-06-28T10:49:50Z</time>
      </trkpt>
      <trkpt lat="48.58639" lon="7.75288">
        <ele>142.6</ele>
        <time>2020-06-28T10:49:51Z</time>
      </trkpt>
      <trkpt lat="48.58637" lon="7.75283">
        <ele>142.5</ele>
        <time>2020-06-28T10:49:52Z</time>
      </trkpt>
      <trkpt lat="48.58635" lon="7.75281">
        <ele>142.5</ele>
        <time>2020-06-28T10:49:53Z</time>
      </trkpt>
      <trkpt lat="48.58632" lon="7.75277">
        <ele>142.5</ele>
        <time>2020-06-28T10:49:54Z</time>
      </trkpt>
      <trkpt lat="48.5863" lon="7.75273">
        <ele>142.4</ele>
        <time>2020-06-28T10:49:55Z</time>
      </trkpt>
      <trkpt lat="48.58627" lon="7.75268">
        <ele>142.4</ele>
        <time>2020-06-28T10:49:56Z</time>
      </trkpt>
      <trkpt lat="48.58626" lon="7.75264">
        <ele>142.4</ele>
        <time>2020-06-28T10:49:57Z</time>
      </trkpt>
      <trkpt lat="48.58625" lon="7.75262">
        <ele>142.4</ele>
        <time>2020-06-28T10:49:58Z</time>
      </trkpt>
      <trkpt lat="48.58624" lon="7.75258">
        <ele>142.4</ele>
        <time>2020-06-28T10:49:59Z</time>
      </trkpt>
      <trkpt lat="48.58622" lon="7.75254">
        <ele>142.4</ele>
        <time>2020-06-28T10:50:00Z</time>
      </trkpt>
      <trkpt lat="48.58621" lon="7.7525">
        <ele>142.4</ele>
        <time>2020-06-28T10:50:01Z</time>
      </trkpt>
      <trkpt lat="48.58618" lon="7.75245">
        <ele>142.4</ele>
        <time>2020-06-28T10:50:02Z</time>
      </trkpt>
      <trkpt lat="48.58617" lon="7.75243">
        <ele>142.4</ele>
        <time>2020-06-28T10:50:03Z</time>
      </trkpt>
      <trkpt lat="48.58615" lon="7.75238">
        <ele>142.4</ele>
        <time>2020-06-28T10:50:04Z</time>
      </trkpt>
      <trkpt lat="48.58613" lon="7.75233">
        <ele>142.4</ele>
        <time>2020-06-28T10:50:05Z</time>
      </trkpt>
      <trkpt lat="48.5861" lon="7.75229">
        <ele>142.4</ele>
        <time>2020-06-28T10:50:06Z</time>
      </trkpt>
      <trkpt lat="48.58608" lon="7.75225">
        <ele>142.4</ele>
        <time>2020-06-28T10:50:07Z</time>
      </trkpt>
      <trkpt lat="48.58607" lon="7.7522">
        <ele>142.4</ele>
        <time>2020-06-28T10:50:08Z</time>
      </trkpt>
      <trkpt lat="48.58605" lon="7.75216">
        <ele>142.4</ele>
        <time>2020-06-28T10:50:09Z</time>
      </trkpt>
      <trkpt lat="48.58603" lon="7.75212">
        <ele>142.4</ele>
        <time>2020-06-28T10:50:10Z</time>
      </trkpt>
      <trkpt lat="48.58602" lon="7.75208">
        <ele>142.3</ele>
        <time>2020-06-28T10:50:11Z</time>
      </trkpt>
      <trkpt lat="48.58601" lon="7.75201">
        <ele>142.3</ele>
        <time>2020-06-28T10:50:12Z</time>
      </trkpt>
      <trkpt lat="48.586" lon="7.75198">
        <ele>142.3</ele>
        <time>2020-06-28T10:50:13Z</time>
      </trkpt>
      <trkpt lat="48.58598" lon="7.75193">
        <ele>142.3</ele>
        <time>2020-06-28T10:50:14Z</time>
      </trkpt>
      <trkpt lat="48.58596" lon="7.75187">
        <ele>142.3</ele>
        <time>2020-06-28T10:50:15Z</time>
      </trkpt>
      <trkpt lat="48.58594" lon="7.75183">
        <ele>142.3</ele>
        <time>2020-06-28T10:50:16Z</time>
      </trkpt>
      <trkpt lat="48.58591" lon="7.75179">
        <ele>142.3</ele>
        <time>2020-06-28T10:50:17Z</time>
      </trkpt>
      <trkpt lat="48.58588" lon="7.75175">
        <ele>142.3</ele>
        <time>2020-06-28T10:50:18Z</time>
      </trkpt>
      <trkpt lat="48.58586" lon="7.7517">
        <ele>142.3</ele>
        <time>2020-06-28T10:50:19Z</time>
      </trkpt>
      <trkpt lat="48.58582" lon="7.75168">
        <ele>142.3</ele>
        <time>2020-06-28T10:50:20Z</time>
      </trkpt>
      <trkpt lat="48.58579" lon="7.75162">
        <ele>142.3</ele>
        <time>2020-06-28T10:50:21Z</time>
      </trkpt>
      <trkpt lat="48.58575" lon="7.7516">
        <ele>142.3</ele>
        <time>2020-06-28T10:50:22Z</time>
      </trkpt>
      <trkpt lat="48.58572" lon="7.75158">
        <ele>142.3</ele>
        <time>2020-06-28T10:50:23Z</time>
      </trkpt>
      <trkpt lat="48.58569" lon="7.75154">
        <ele>142.3</ele>
        <time>2020-06-28T10:50:24Z</time>
      </trkpt>
      <trkpt lat="48.58567" lon="7.75151">
        <ele>142.4</ele>
        <time>2020-06-28T10:50:25Z</time>
      </trkpt>
      <trkpt lat="48.58565" lon="7.75147">
        <ele>142.4</ele>
        <time>2020-06-28T10:50:26Z</time>
      </trkpt>
      <trkpt lat="48.58562" lon="7.75142">
        <ele>142.4</ele>
        <time>2020-06-28T10:50:27Z</time>
      </trkpt>
      <trkpt lat="48.5856" lon="7.7514">
        <ele>142.4</ele>
        <time>2020-06-28T10:50:28Z</time>
      </trkpt>
      <trkpt lat="48.58558" lon="7.75135">
        <ele>142.5</ele>
        <time>2020-06-28T10:50:29Z</time>
      </trkpt>
      <trkpt lat="48.58556" lon="7.75132">
        <ele>142.5</ele>
        <time>2020-06-28T10:50:30Z</time>
      </trkpt>
      <trkpt lat="48.58554" lon="7.75127">
        <ele>142.5</ele>
        <time>2020-06-28T10:50:31Z</time>
      </trkpt>
      <trkpt lat="48.58551" lon="7.75121">
        <ele>142.6</ele>
        <time>2020-06-28T10:50:32Z</time>
      </trkpt>
      <trkpt lat="48.5855" lon="7.75115">
        <ele>142.6</ele>
        <time>2020-06-28T10:50:33Z</time>
      </trkpt>
      <trkpt lat="48.58547" lon="7.75109">
        <ele>142.7</ele>
        <time>2020-06-28T10:50:34Z</time>
      </trkpt>
      <trkpt lat="48.58545" lon="7.75105">
        <ele>142.8</ele>
        <time>2020-06-28T10:50:35Z</time>
      </trkpt>
      <trkpt lat="48.58543" lon="7.75102">
        <ele>142.8</ele>
        <time>2020-06-28T10:50:36Z</time>
      </trkpt>
      <trkpt lat="48.58541" lon="7.75098">
        <ele>142.8</ele>
        <time>2020-06-28T10:50:37Z</time>
      </trkpt>
      <trkpt lat="48.58538" lon="7.75093">
        <ele>142.9</ele>
        <time>2020-06-28T10:50:38Z</time>
      </trkpt>
      <trkpt lat="48.58537" lon="7.75088">
        <ele>143</ele>
        <time>2020-06-28T10:50:39Z</time>
      </trkpt>
      <trkpt lat="48.58537" lon="7.75086">
        <ele>143</ele>
        <time>2020-06-28T10:50:40Z</time>
      </trkpt>
      <trkpt lat="48.58537" lon="7.75081">
        <ele>143</ele>
        <time>2020-06-28T10:50:41Z</time>
      </trkpt>
      <trkpt lat="48.58537" lon="7.75079">
        <ele>143</ele>
        <time>2020-06-28T10:50:42Z</time>
      </trkpt>
      <trkpt lat="48.58537" lon="7.75074">
        <ele>143.1</ele>
        <time>2020-06-28T10:50:43Z</time>
      </trkpt>
      <trkpt lat="48.58536" lon="7.7507">
        <ele>143.1</ele>
        <time>2020-06-28T10:50:44Z</time>
      </trkpt>
      <trkpt lat="48.58535" lon="7.75066">
        <ele>143.1</ele>
        <time>2020-06-28T10:50:45Z</time>
      </trkpt>
      <trkpt lat="48.58531" lon="7.75062">
        <ele>143.1</ele>
        <time>2020-06-28T10:50:46Z</time>
      </trkpt>
      <trkpt lat="48.58529" lon="7.75058">
        <ele>143.1</ele>
        <time>2020-06-28T10:50:47Z</time>
      </trkpt>
      <trkpt lat="48.58528" lon="7.75054">
        <ele>143.2</ele>
        <time>2020-06-28T10:50:48Z</time>
      </trkpt>
      <trkpt lat="48.58527" lon="7.75049">
        <ele>143.2</ele>
        <time>2020-06-28T10:50:49Z</time>
      </trkpt>
      <trkpt lat="48.58525" lon="7.75045">
        <ele>143.2</ele>
        <time>2020-06-28T10:50:50Z</time>
      </trkpt>
      <trkpt lat="48.58524" lon="7.7504">
        <ele>143.3</ele>
        <time>2020-06-28T10:50:51Z</time>
      </trkpt>
      <trkpt lat="48.58521" lon="7.75036">
        <ele>143.3</ele>
        <time>2020-06-28T10:50:52Z</time>
      </trkpt>
      <trkpt lat="48.58519" lon="7.75033">
        <ele>143.3</ele>
        <time>2020-06-28T10:50:53Z</time>
      </trkpt>
      <trkpt lat="48.58515" lon="7.7503">
        <ele>143.3</ele>
        <time>2020-06-28T10:50:54Z</time>
      </trkpt>
      <trkpt lat="48.58512" lon="7.75027">
        <ele>143.4</ele>
        <time>2020-06-28T10:50:55Z</time>
      </trkpt>
      <trkpt lat="48.58509" lon="7.75022">
        <ele>143.5</ele>
        <time>2020-06-28T10:50:56Z</time>
      </trkpt>
      <trkpt lat="48.58507" lon="7.7502">
        <ele>143.5</ele>
        <time>2020-06-28T10:50:57Z</time>
      </trkpt>
      <trkpt lat="48.58504" lon="7.75017">
        <ele>143.6</ele>
        <time>2020-06-28T10:50:58Z</time>
      </trkpt>
      <trkpt lat="48.58501" lon="7.75013">
        <ele>143.7</ele>
        <time>2020-06-28T10:50:59Z</time>
      </trkpt>
      <trkpt lat="48.58499" lon="7.75008">
        <ele>143.7</ele>
        <time>2020-06-28T10:51:00Z</time>
      </trkpt>
      <trkpt lat="48.58497" lon="7.75004">
        <ele>143.8</ele>
        <time>2020-06-28T10:51:01Z</time>
      </trkpt>
      <trkpt lat="48.58495" lon="7.75">
        <ele>143.8</ele>
        <time>2020-06-28T10:51:02Z</time>
      </trkpt>
      <trkpt lat="48.58494" lon="7.74995">
        <ele>143.9</ele>
        <time>2020-06-28T10:51:03Z</time>
      </trkpt>
      <trkpt lat="48.58493" lon="7.74991">
        <ele>143.9</ele>
        <time>2020-06-28T10:51:04Z</time>
      </trkpt>
      <trkpt lat="48.5849" lon="7.74987">
        <ele>144</ele>
        <time>2020-06-28T10:51:05Z</time>
      </trkpt>
      <trkpt lat="48.58488" lon="7.74983">
        <ele>144</ele>
        <time>2020-06-28T10:51:06Z</time>
      </trkpt>
      <trkpt lat="48.58486" lon="7.74979">
        <ele>144</ele>
        <time>2020-06-28T10:51:07Z</time>
      </trkpt>
      <trkpt lat="48.58484" lon="7.74975">
        <ele>144.1</ele>
        <time>2020-06-28T10:51:08Z</time>
      </trkpt>
      <trkpt lat="48.58482" lon="7.74971">
        <ele>144.1</ele>
        <time>2020-06-28T10:51:09Z</time>
      </trkpt>
      <trkpt lat="48.58481" lon="7.74967">
        <ele>144.1</ele>
        <time>2020-06-28T10:51:10Z</time>
      </trkpt>
      <trkpt lat="48.58478" lon="7.74961">
        <ele>144.2</ele>
        <time>2020-06-28T10:51:11Z</time>
      </trkpt>
      <trkpt lat="48.58476" lon="7.74956">
        <ele>144.2</ele>
        <time>2020-06-28T10:51:12Z</time>
      </trkpt>
      <trkpt lat="48.58474" lon="7.7495">
        <ele>144.3</ele>
        <time>2020-06-28T10:51:13Z</time>
      </trkpt>
      <trkpt lat="48.58471" lon="7.74945">
        <ele>144.4</ele>
        <time>2020-06-28T10:51:14Z</time>
      </trkpt>
      <trkpt lat="48.58469" lon="7.7494">
        <ele>144.5</ele>
        <time>2020-06-28T10:51:15Z</time>
      </trkpt>
      <trkpt lat="48.58466" lon="7.74936">
        <ele>144.5</ele>
        <time>2020-06-28T10:51:16Z</time>
      </trkpt>
      <trkpt lat="48.58463" lon="7.74932">
        <ele>144.6</ele>
        <time>2020-06-28T10:51:17Z</time>
      </trkpt>
      <trkpt lat="48.5846" lon="7.74928">
        <ele>144.7</ele>
        <time>2020-06-28T10:51:18Z</time>
      </trkpt>
      <trkpt lat="48.58459" lon="7.74926">
        <ele>144.7</ele>
        <time>2020-06-28T10:51:19Z</time>
      </trkpt>
      <trkpt lat="48.58457" lon="7.74922">
        <ele>144.7</ele>
        <time>2020-06-28T10:51:20Z</time>
      </trkpt>
      <trkpt lat="48.58455" lon="7.74917">
        <ele>144.8</ele>
        <time>2020-06-28T10:51:21Z</time>
      </trkpt>
      <trkpt lat="48.58453" lon="7.74914">
        <ele>144.8</ele>
        <time>2020-06-28T10:51:22Z</time>
      </trkpt>
      <trkpt lat="48.58451" lon="7.7491">
        <ele>144.8</ele>
        <time>2020-06-28T10:51:23Z</time>
      </trkpt>
      <trkpt lat="48.58448" lon="7.74907">
        <ele>144.5</ele>
        <time>2020-06-28T10:51:24Z</time>
      </trkpt>
      <trkpt lat="48.58444" lon="7.74907">
        <ele>144.4</ele>
        <time>2020-06-28T10:51:25Z</time>
      </trkpt>
      <trkpt lat="48.58441" lon="7.74908">
        <ele>144.3</ele>
        <time>2020-06-28T10:51:26Z</time>
      </trkpt>
      <trkpt lat="48.58438" lon="7.74911">
        <ele>144.2</ele>
        <time>2020-06-28T10:51:27Z</time>
      </trkpt>
      <trkpt lat="48.58435" lon="7.74913">
        <ele>144</ele>
        <time>2020-06-28T10:51:28Z</time>
      </trkpt>
      <trkpt lat="48.58432" lon="7.74915">
        <ele>144</ele>
        <time>2020-06-28T10:51:29Z</time>
      </trkpt>
      <trkpt lat="48.58428" lon="7.74918">
        <ele>144.1</ele>
        <time>2020-06-28T10:51:30Z</time>
      </trkpt>
      <trkpt lat="48.58425" lon="7.7492">
        <ele>144.2</ele>
        <time>2020-06-28T10:51:31Z</time>
      </trkpt>
      <trkpt lat="48.58422" lon="7.74922">
        <ele>144.3</ele>
        <time>2020-06-28T10:51:32Z</time>
      </trkpt>
      <trkpt lat="48.58419" lon="7.74925">
        <ele>144.3</ele>
        <time>2020-06-28T10:51:33Z</time>
      </trkpt>
      <trkpt lat="48.58416" lon="7.74928">
        <ele>144.4</ele>
        <time>2020-06-28T10:51:34Z</time>
      </trkpt>
      <trkpt lat="48.58413" lon="7.74932">
        <ele>144.5</ele>
        <time>2020-06-28T10:51:35Z</time>
      </trkpt>
      <trkpt lat="48.5841" lon="7.74936">
        <ele>144.6</ele>
        <time>2020-06-28T10:51:36Z</time>
      </trkpt>
      <trkpt lat="48.58408" lon="7.74942">
        <ele>144.7</ele>
        <time>2020-06-28T10:51:37Z</time>
      </trkpt>
      <trkpt lat="48.58405" lon="7.74946">
        <ele>144.8</ele>
        <time>2020-06-28T10:51:38Z</time>
      </trkpt>
      <trkpt lat="48.58402" lon="7.74949">
        <ele>144.8</ele>
        <time>2020-06-28T10:51:39Z</time>
      </trkpt>
      <trkpt lat="48.58399" lon="7.74952">
        <ele>144.9</ele>
        <time>2020-06-28T10:51:40Z</time>
      </trkpt>
      <trkpt lat="48.58397" lon="7.74957">
        <ele>145</ele>
        <time>2020-06-28T10:51:41Z</time>
      </trkpt>
      <trkpt lat="48.58394" lon="7.74962">
        <ele>145.2</ele>
        <time>2020-06-28T10:51:42Z</time>
      </trkpt>
      <trkpt lat="48.58392" lon="7.74966">
        <ele>145.2</ele>
        <time>2020-06-28T10:51:43Z</time>
      </trkpt>
      <trkpt lat="48.5839" lon="7.7497">
        <ele>145.2</ele>
        <time>2020-06-28T10:51:44Z</time>
      </trkpt>
      <trkpt lat="48.58387" lon="7.74975">
        <ele>145.3</ele>
        <time>2020-06-28T10:51:45Z</time>
      </trkpt>
      <trkpt lat="48.58384" lon="7.74977">
        <ele>145.3</ele>
        <time>2020-06-28T10:51:46Z</time>
      </trkpt>
      <trkpt lat="48.58382" lon="7.74977">
        <ele>145.3</ele>
        <time>2020-06-28T10:51:47Z</time>
      </trkpt>
      <trkpt lat="48.58379" lon="7.74979">
        <ele>145.3</ele>
        <time>2020-06-28T10:51:48Z</time>
      </trkpt>
      <trkpt lat="48.58375" lon="7.74981">
        <ele>145.3</ele>
        <time>2020-06-28T10:51:49Z</time>
      </trkpt>
      <trkpt lat="48.58372" lon="7.74985">
        <ele>145.4</ele>
        <time>2020-06-28T10:51:50Z</time>
      </trkpt>
      <trkpt lat="48.58368" lon="7.74988">
        <ele>145.4</ele>
        <time>2020-06-28T10:51:51Z</time>
      </trkpt>
      <trkpt lat="48.58365" lon="7.74991">
        <ele>145.5</ele>
        <time>2020-06-28T10:51:52Z</time>
      </trkpt>
      <trkpt lat="48.58361" lon="7.74994">
        <ele>145.5</ele>
        <time>2020-06-28T10:51:53Z</time>
      </trkpt>
      <trkpt lat="48.58359" lon="7.74998">
        <ele>145.6</ele>
        <time>2020-06-28T10:51:54Z</time>
      </trkpt>
      <trkpt lat="48.58356" lon="7.74999">
        <ele>145.6</ele>
        <time>2020-06-28T10:51:55Z</time>
      </trkpt>
      <trkpt lat="48.58351" lon="7.75002">
        <ele>145.7</ele>
        <time>2020-06-28T10:51:56Z</time>
      </trkpt>
      <trkpt lat="48.58348" lon="7.75006">
        <ele>145.8</ele>
        <time>2020-06-28T10:51:57Z</time>
      </trkpt>
      <trkpt lat="48.58345" lon="7.75011">
        <ele>145.8</ele>
        <time>2020-06-28T10:51:58Z</time>
      </trkpt>
      <trkpt lat="48.58342" lon="7.75016">
        <ele>145.8</ele>
        <time>2020-06-28T10:51:59Z</time>
      </trkpt>
      <trkpt lat="48.58338" lon="7.7502">
        <ele>145.9</ele>
        <time>2020-06-28T10:52:00Z</time>
      </trkpt>
      <trkpt lat="48.58334" lon="7.75025">
        <ele>145.9</ele>
        <time>2020-06-28T10:52:01Z</time>
      </trkpt>
      <trkpt lat="48.58332" lon="7.75031">
        <ele>146</ele>
        <time>2020-06-28T10:52:02Z</time>
      </trkpt>
      <trkpt lat="48.5833" lon="7.75037">
        <ele>146</ele>
        <time>2020-06-28T10:52:03Z</time>
      </trkpt>
      <trkpt lat="48.58328" lon="7.75042">
        <ele>146.1</ele>
        <time>2020-06-28T10:52:04Z</time>
      </trkpt>
      <trkpt lat="48.58325" lon="7.75047">
        <ele>146.1</ele>
        <time>2020-06-28T10:52:05Z</time>
      </trkpt>
      <trkpt lat="48.58322" lon="7.75051">
        <ele>146.2</ele>
        <time>2020-06-28T10:52:06Z</time>
      </trkpt>
      <trkpt lat="48.58318" lon="7.75054">
        <ele>146.2</ele>
        <time>2020-06-28T10:52:07Z</time>
      </trkpt>
      <trkpt lat="48.58316" lon="7.75055">
        <ele>146.3</ele>
        <time>2020-06-28T10:52:08Z</time>
      </trkpt>
      <trkpt lat="48.58313" lon="7.75057">
        <ele>146.3</ele>
        <time>2020-06-28T10:52:09Z</time>
      </trkpt>
      <trkpt lat="48.5831" lon="7.75061">
        <ele>146.4</ele>
        <time>2020-06-28T10:52:10Z</time>
      </trkpt>
      <trkpt lat="48.58307" lon="7.75064">
        <ele>146.5</ele>
        <time>2020-06-28T10:52:11Z</time>
      </trkpt>
      <trkpt lat="48.58303" lon="7.75067">
        <ele>146.6</ele>
        <time>2020-06-28T10:52:12Z</time>
      </trkpt>
      <trkpt lat="48.583" lon="7.7507">
        <ele>146.6</ele>
        <time>2020-06-28T10:52:13Z</time>
      </trkpt>
      <trkpt lat="48.58296" lon="7.75073">
        <ele>146.7</ele>
        <time>2020-06-28T10:52:14Z</time>
      </trkpt>
      <trkpt lat="48.58293" lon="7.75075">
        <ele>146.8</ele>
        <time>2020-06-28T10:52:15Z</time>
      </trkpt>
      <trkpt lat="48.5829" lon="7.75078">
        <ele>146.9</ele>
        <time>2020-06-28T10:52:16Z</time>
      </trkpt>
      <trkpt lat="48.58287" lon="7.75082">
        <ele>146.9</ele>
        <time>2020-06-28T10:52:17Z</time>
      </trkpt>
      <trkpt lat="48.58284" lon="7.75086">
        <ele>147</ele>
        <time>2020-06-28T10:52:18Z</time>
      </trkpt>
      <trkpt lat="48.58282" lon="7.75089">
        <ele>147.1</ele>
        <time>2020-06-28T10:52:19Z</time>
      </trkpt>
      <trkpt lat="48.58279" lon="7.75092">
        <ele>147.1</ele>
        <time>2020-06-28T10:52:20Z</time>
      </trkpt>
      <trkpt lat="48.58277" lon="7.75095">
        <ele>147.2</ele>
        <time>2020-06-28T10:52:21Z</time>
      </trkpt>
      <trkpt lat="48.58274" lon="7.75097">
        <ele>147.2</ele>
        <time>2020-06-28T10:52:22Z</time>
      </trkpt>
      <trkpt lat="48.58271" lon="7.75101">
        <ele>147.2</ele>
        <time>2020-06-28T10:52:23Z</time>
      </trkpt>
      <trkpt lat="48.5827" lon="7.75103">
        <ele>147.2</ele>
        <time>2020-06-28T10:52:24Z</time>
      </trkpt>
      <trkpt lat="48.58267" lon="7.75107">
        <ele>147.2</ele>
        <time>2020-06-28T10:52:25Z</time>
      </trkpt>
      <trkpt lat="48.58266" lon="7.75109">
        <ele>147.3</ele>
        <time>2020-06-28T10:52:26Z</time>
      </trkpt>
      <trkpt lat="48.58264" lon="7.75112">
        <ele>147.3</ele>
        <time>2020-06-28T10:52:27Z</time>
      </trkpt>
      <trkpt lat="48.58261" lon="7.75113">
        <ele>147.3</ele>
        <time>2020-06-28T10:52:28Z</time>
      </trkpt>
      <trkpt lat="48.58259" lon="7.75115">
        <ele>147.3</ele>
        <time>2020-06-28T10:52:29Z</time>
      </trkpt>
      <trkpt lat="48.58258" lon="7.75116">
        <ele>147.3</ele>
        <time>2020-06-28T10:52:30Z</time>
      </trkpt>
      <trkpt lat="48.58254" lon="7.7512">
        <ele>147.3</ele>
        <time>2020-06-28T10:52:31Z</time>
      </trkpt>
      <trkpt lat="48.58253" lon="7.75122">
        <ele>147.3</ele>
        <time>2020-06-28T10:52:32Z</time>
      </trkpt>
      <trkpt lat="48.58251" lon="7.75125">
        <ele>147.3</ele>
        <time>2020-06-28T10:52:33Z</time>
      </trkpt>
      <trkpt lat="48.58248" lon="7.75123">
        <ele>147.4</ele>
        <time>2020-06-28T10:52:34Z</time>
      </trkpt>
      <trkpt lat="48.58246" lon="7.75123">
        <ele>147.4</ele>
        <time>2020-06-28T10:52:35Z</time>
      </trkpt>
      <trkpt lat="48.58245" lon="7.75124">
        <ele>147.4</ele>
        <time>2020-06-28T10:52:36Z</time>
      </trkpt>
      <trkpt lat="48.58244" lon="7.75123">
        <ele>147.4</ele>
        <time>2020-06-28T10:52:37Z</time>
      </trkpt>
      <trkpt lat="48.58244" lon="7.75122">
        <ele>147.4</ele>
        <time>2020-06-28T10:52:38Z</time>
      </trkpt>
      <trkpt lat="48.58243" lon="7.7512">
        <ele>147.4</ele>
        <time>2020-06-28T10:52:39Z</time>
      </trkpt>
      <trkpt lat="48.58242" lon="7.75115">
        <ele>147.4</ele>
        <time>2020-06-28T10:52:40Z</time>
      </trkpt>
      <trkpt lat="48.58241" lon="7.75114">
        <ele>147.4</ele>
        <time>2020-06-28T10:52:41Z</time>
      </trkpt>
      <trkpt lat="48.58241" lon="7.75108">
        <ele>147.4</ele>
        <time>2020-06-28T10:52:42Z</time>
      </trkpt>
      <trkpt lat="48.5824" lon="7.75105">
        <ele>147.4</ele>
        <time>2020-06-28T10:52:43Z</time>
      </trkpt>
      <trkpt lat="48.58239" lon="7.75101">
        <ele>147.4</ele>
        <time>2020-06-28T10:52:44Z</time>
      </trkpt>
      <trkpt lat="48.58237" lon="7.75097">
        <ele>147.4</ele>
        <time>2020-06-28T10:52:45Z</time>
      </trkpt>
      <trkpt lat="48.58237" lon="7.75095">
        <ele>147.4</ele>
        <time>2020-06-28T10:52:46Z</time>
      </trkpt>
      <trkpt lat="48.58235" lon="7.75091">
        <ele>147.5</ele>
        <time>2020-06-28T10:52:47Z</time>
      </trkpt>
      <trkpt lat="48.58234" lon="7.75089">
        <ele>147.5</ele>
        <time>2020-06-28T10:52:48Z</time>
      </trkpt>
      <trkpt lat="48.58232" lon="7.75085">
        <ele>147.5</ele>
        <time>2020-06-28T10:52:49Z</time>
      </trkpt>
      <trkpt lat="48.58231" lon="7.75083">
        <ele>147.5</ele>
        <time>2020-06-28T10:52:50Z</time>
      </trkpt>
      <trkpt lat="48.58229" lon="7.75081">
        <ele>147.5</ele>
        <time>2020-06-28T10:52:51Z</time>
      </trkpt>
      <trkpt lat="48.58226" lon="7.75079">
        <ele>147.5</ele>
        <time>2020-06-28T10:52:52Z</time>
      </trkpt>
      <trkpt lat="48.58222" lon="7.75077">
        <ele>147.5</ele>
        <time>2020-06-28T10:52:53Z</time>
      </trkpt>
      <trkpt lat="48.58219" lon="7.75074">
        <ele>147.5</ele>
        <time>2020-06-28T10:52:54Z</time>
      </trkpt>
      <trkpt lat="48.58216" lon="7.75071">
        <ele>147.5</ele>
        <time>2020-06-28T10:52:55Z</time>
      </trkpt>
      <trkpt lat="48.58214" lon="7.75066">
        <ele>147.5</ele>
        <time>2020-06-28T10:52:56Z</time>
      </trkpt>
      <trkpt lat="48.58213" lon="7.75062">
        <ele>147.5</ele>
        <time>2020-06-28T10:52:57Z</time>
      </trkpt>
      <trkpt lat="48.58212" lon="7.75057">
        <ele>147.5</ele>
        <time>2020-06-28T10:52:58Z</time>
      </trkpt>
      <trkpt lat="48.58211" lon="7.75052">
        <ele>147.5</ele>
        <time>2020-06-28T10:52:59Z</time>
      </trkpt>
      <trkpt lat="48.5821" lon="7.75049">
        <ele>147.5</ele>
        <time>2020-06-28T10:53:00Z</time>
      </trkpt>
      <trkpt lat="48.58209" lon="7.75044">
        <ele>147.5</ele>
        <time>2020-06-28T10:53:01Z</time>
      </trkpt>
      <trkpt lat="48.58208" lon="7.75038">
        <ele>147.6</ele>
        <time>2020-06-28T10:53:02Z</time>
      </trkpt>
      <trkpt lat="48.58208" lon="7.75036">
        <ele>147.6</ele>
        <time>2020-06-28T10:53:03Z</time>
      </trkpt>
      <trkpt lat="48.58207" lon="7.75032">
        <ele>147.6</ele>
        <time>2020-06-28T10:53:04Z</time>
      </trkpt>
      <trkpt lat="48.58205" lon="7.75027">
        <ele>147.6</ele>
        <time>2020-06-28T10:53:05Z</time>
      </trkpt>
      <trkpt lat="48.58204" lon="7.75026">
        <ele>147.6</ele>
        <time>2020-06-28T10:53:06Z</time>
      </trkpt>
      <trkpt lat="48.582" lon="7.75026">
        <ele>147.6</ele>
        <time>2020-06-28T10:53:07Z</time>
      </trkpt>
      <trkpt lat="48.58198" lon="7.75023">
        <ele>147.6</ele>
        <time>2020-06-28T10:53:08Z</time>
      </trkpt>
      <trkpt lat="48.58195" lon="7.7502">
        <ele>147.6</ele>
        <time>2020-06-28T10:53:09Z</time>
      </trkpt>
      <trkpt lat="48.58194" lon="7.75019">
        <ele>147.6</ele>
        <time>2020-06-28T10:53:10Z</time>
      </trkpt>
      <trkpt lat="48.58192" lon="7.75012">
        <ele>147.7</ele>
        <time>2020-06-28T10:53:11Z</time>
      </trkpt>
      <trkpt lat="48.58189" lon="7.75007">
        <ele>147.7</ele>
        <time>2020-06-28T10:53:12Z</time>
      </trkpt>
      <trkpt lat="48.58187" lon="7.75007">
        <ele>147.7</ele>
        <time>2020-06-28T10:53:13Z</time>
      </trkpt>
      <trkpt lat="48.58185" lon="7.75006">
        <ele>147.7</ele>
        <time>2020-06-28T10:53:14Z</time>
      </trkpt>
      <trkpt lat="48.58181" lon="7.75006">
        <ele>147.6</ele>
        <time>2020-06-28T10:53:15Z</time>
      </trkpt>
      <trkpt lat="48.58179" lon="7.75007">
        <ele>147.5</ele>
        <time>2020-06-28T10:53:16Z</time>
      </trkpt>
      <trkpt lat="48.58176" lon="7.75009">
        <ele>147.4</ele>
        <time>2020-06-28T10:53:17Z</time>
      </trkpt>
      <trkpt lat="48.58173" lon="7.75011">
        <ele>147.3</ele>
        <time>2020-06-28T10:53:18Z</time>
      </trkpt>
      <trkpt lat="48.58168" lon="7.75012">
        <ele>147.2</ele>
        <time>2020-06-28T10:53:19Z</time>
      </trkpt>
      <trkpt lat="48.58166" lon="7.75013">
        <ele>147.2</ele>
        <time>2020-06-28T10:53:20Z</time>
      </trkpt>
      <trkpt lat="48.58163" lon="7.75013">
        <ele>147</ele>
        <time>2020-06-28T10:53:21Z</time>
      </trkpt>
      <trkpt lat="48.5816" lon="7.75016">
        <ele>147</ele>
        <time>2020-06-28T10:53:22Z</time>
      </trkpt>
      <trkpt lat="48.58159" lon="7.75017">
        <ele>147</ele>
        <time>2020-06-28T10:53:23Z</time>
      </trkpt>
      <trkpt lat="48.58157" lon="7.75017">
        <ele>147</ele>
        <time>2020-06-28T10:53:24Z</time>
      </trkpt>
      <trkpt lat="48.58157" lon="7.75017">
        <ele>147</ele>
        <time>2020-06-28T10:53:25Z</time>
      </trkpt>
      <trkpt lat="48.58156" lon="7.75017">
        <ele>147</ele>
        <time>2020-06-28T10:53:26Z</time>
      </trkpt>
      <trkpt lat="48.58158" lon="7.75018">
        <ele>147</ele>
        <time>2020-06-28T10:53:27Z</time>
      </trkpt>
      <trkpt lat="48.5816" lon="7.7502">
        <ele>147</ele>
        <time>2020-06-28T10:53:28Z</time>
      </trkpt>
      <trkpt lat="48.5816" lon="7.7502">
        <ele>147</ele>
        <time>2020-06-28T10:53:29Z</time>
      </trkpt>
      <trkpt lat="48.58159" lon="7.7502">
        <ele>147</ele>
        <time>2020-06-28T10:53:30Z</time>
      </trkpt>
      <trkpt lat="48.58159" lon="7.75019">
        <ele>147</ele>
        <time>2020-06-28T10:53:31Z</time>
      </trkpt>
      <trkpt lat="48.58158" lon="7.75019">
        <ele>147</ele>
        <time>2020-06-28T10:53:32Z</time>
      </trkpt>
      <trkpt lat="48.58157" lon="7.75021">
        <ele>147</ele>
        <time>2020-06-28T10:53:33Z</time>
      </trkpt>
      <trkpt lat="48.58157" lon="7.7502">
        <ele>147</ele>
        <time>2020-06-28T10:53:34Z</time>
      </trkpt>
      <trkpt lat="48.58156" lon="7.75019">
        <ele>147</ele>
        <time>2020-06-28T10:53:35Z</time>
      </trkpt>
      <trkpt lat="48.58156" lon="7.75018">
        <ele>147</ele>
        <time>2020-06-28T10:53:36Z</time>
      </trkpt>
      <trkpt lat="48.58156" lon="7.75017">
        <ele>147</ele>
        <time>2020-06-28T10:53:37Z</time>
      </trkpt>
      <trkpt lat="48.58156" lon="7.75016">
        <ele>147</ele>
        <time>2020-06-28T10:53:38Z</time>
      </trkpt>
      <trkpt lat="48.58156" lon="7.75015">
        <ele>147</ele>
        <time>2020-06-28T10:53:39Z</time>
      </trkpt>
      <trkpt lat="48.58157" lon="7.75016">
        <ele>147</ele>
        <time>2020-06-28T10:53:40Z</time>
      </trkpt>
      <trkpt lat="48.58157" lon="7.75015">
        <ele>147</ele>
        <time>2020-06-28T10:53:41Z</time>
      </trkpt>
      <trkpt lat="48.58157" lon="7.75015">
        <ele>147</ele>
        <time>2020-06-28T10:53:42Z</time>
      </trkpt>
      <trkpt lat="48.58158" lon="7.75015">
        <ele>147</ele>
        <time>2020-06-28T10:53:43Z</time>
      </trkpt>
      <trkpt lat="48.58158" lon="7.75015">
        <ele>147</ele>
        <time>2020-06-28T10:53:44Z</time>
      </trkpt>
      <trkpt lat="48.58158" lon="7.75015">
        <ele>147</ele>
        <time>2020-06-28T10:53:45Z</time>
      </trkpt>
      <trkpt lat="48.58158" lon="7.75015">
        <ele>147</ele>
        <time>2020-06-28T10:53:46Z</time>
      </trkpt>
      <trkpt lat="48.58157" lon="7.75016">
        <ele>147</ele>
        <time>2020-06-28T10:53:47Z</time>
      </trkpt>
      <trkpt lat="48.58157" lon="7.75014">
        <ele>147</ele>
        <time>2020-06-28T10:53:48Z</time>
      </trkpt>
      <trkpt lat="48.58157" lon="7.75013">
        <ele>147</ele>
        <time>2020-06-28T10:53:49Z</time>
      </trkpt>
      <trkpt lat="48.58157" lon="7.75013">
        <ele>147</ele>
        <time>2020-06-28T10:53:50Z</time>
      </trkpt>
      <trkpt lat="48.58156" lon="7.75013">
        <ele>147</ele>
        <time>2020-06-28T10:53:51Z</time>
      </trkpt>
      <trkpt lat="48.58157" lon="7.75013">
        <ele>147</ele>
        <time>2020-06-28T10:53:52Z</time>
      </trkpt>
      <trkpt lat="48.58156" lon="7.75013">
        <ele>147</ele>
        <time>2020-06-28T10:53:53Z</time>
      </trkpt>
      <trkpt lat="48.58156" lon="7.75013">
        <ele>147</ele>
        <time>2020-06-28T10:53:54Z</time>
      </trkpt>
      <trkpt lat="48.58155" lon="7.75014">
        <ele>147</ele>
        <time>2020-06-28T10:53:55Z</time>
      </trkpt>
      <trkpt lat="48.58154" lon="7.75014">
        <ele>147</ele>
        <time>2020-06-28T10:53:56Z</time>
      </trkpt>
      <trkpt lat="48.58154" lon="7.75013">
        <ele>147</ele>
        <time>2020-06-28T10:53:57Z</time>
      </trkpt>
      <trkpt lat="48.58154" lon="7.75013">
        <ele>147</ele>
        <time>2020-06-28T10:53:58Z</time>
      </trkpt>
      <trkpt lat="48.58155" lon="7.75013">
        <ele>147</ele>
        <time>2020-06-28T10:53:59Z</time>
      </trkpt>
      <trkpt lat="48.58155" lon="7.75012">
        <ele>147</ele>
        <time>2020-06-28T10:54:00Z</time>
      </trkpt>
      <trkpt lat="48.58156" lon="7.75013">
        <ele>147</ele>
        <time>2020-06-28T10:54:01Z</time>
      </trkpt>
      <trkpt lat="48.58156" lon="7.75011">
        <ele>147</ele>
        <time>2020-06-28T10:54:02Z</time>
      </trkpt>
      <trkpt lat="48.58157" lon="7.75011">
        <ele>147</ele>
        <time>2020-06-28T10:54:03Z</time>
      </trkpt>
      <trkpt lat="48.58157" lon="7.75009">
        <ele>147</ele>
        <time>2020-06-28T10:54:04Z</time>
      </trkpt>
      <trkpt lat="48.58157" lon="7.75007">
        <ele>147</ele>
        <time>2020-06-28T10:54:05Z</time>
      </trkpt>
      <trkpt lat="48.58156" lon="7.75007">
        <ele>147</ele>
        <time>2020-06-28T10:54:06Z</time>
      </trkpt>
      <trkpt lat="48.58156" lon="7.75006">
        <ele>147</ele>
        <time>2020-06-28T10:54:07Z</time>
      </trkpt>
      <trkpt lat="48.58155" lon="7.75006">
        <ele>147</ele>
        <time>2020-06-28T10:54:08Z</time>
      </trkpt>
      <trkpt lat="48.58154" lon="7.75007">
        <ele>147</ele>
        <time>2020-06-28T10:54:09Z</time>
      </trkpt>
      <trkpt lat="48.58153" lon="7.75007">
        <ele>147</ele>
        <time>2020-06-28T10:54:10Z</time>
      </trkpt>
      <trkpt lat="48.58153" lon="7.75007">
        <ele>147</ele>
        <time>2020-06-28T10:54:11Z</time>
      </trkpt>
      <trkpt lat="48.58153" lon="7.75007">
        <ele>147</ele>
        <time>2020-06-28T10:54:12Z</time>
      </trkpt>
      <trkpt lat="48.58153" lon="7.75009">
        <ele>147</ele>
        <time>2020-06-28T10:54:13Z</time>
      </trkpt>
      <trkpt lat="48.58153" lon="7.75009">
        <ele>147</ele>
        <time>2020-06-28T10:54:14Z</time>
      </trkpt>
      <trkpt lat="48.58153" lon="7.75012">
        <ele>147</ele>
        <time>2020-06-28T10:54:15Z</time>
      </trkpt>
      <trkpt lat="48.58152" lon="7.75012">
        <ele>147</ele>
        <time>2020-06-28T10:54:16Z</time>
      </trkpt>
      <trkpt lat="48.58151" lon="7.75013">
        <ele>147</ele>
        <time>2020-06-28T10:54:17Z</time>
      </trkpt>
      <trkpt lat="48.58151" lon="7.75012">
        <ele>147</ele>
        <time>2020-06-28T10:54:18Z</time>
      </trkpt>
      <trkpt lat="48.58154" lon="7.75007">
        <ele>147</ele>
        <time>2020-06-28T10:55:00Z</time>
      </trkpt>
      <trkpt lat="48.58153" lon="7.75007">
        <ele>147</ele>
        <time>2020-06-28T10:55:01Z</time>
      </trkpt>
      <trkpt lat="48.58152" lon="7.75008">
        <ele>147</ele>
        <time>2020-06-28T10:55:02Z</time>
      </trkpt>
      <trkpt lat="48.58152" lon="7.75008">
        <ele>147</ele>
        <time>2020-06-28T10:55:03Z</time>
      </trkpt>
      <trkpt lat="48.58152" lon="7.75008">
        <ele>147</ele>
        <time>2020-06-28T10:55:04Z</time>
      </trkpt>
      <trkpt lat="48.58152" lon="7.75009">
        <ele>147</ele>
        <time>2020-06-28T10:55:05Z</time>
      </trkpt>
      <trkpt lat="48.58152" lon="7.75008">
        <ele>147</ele>
        <time>2020-06-28T10:55:06Z</time>
      </trkpt>
      <trkpt lat="48.58152" lon="7.75008">
        <ele>147</ele>
        <time>2020-06-28T10:55:07Z</time>
      </trkpt>
      <trkpt lat="48.58152" lon="7.75008">
        <ele>147</ele>
        <time>2020-06-28T10:55:08Z</time>
      </trkpt>
      <trkpt lat="48.58152" lon="7.75007">
        <ele>147</ele>
        <time>2020-06-28T10:55:09Z</time>
      </trkpt>
      <trkpt lat="48.58152" lon="7.75007">
        <ele>147</ele>
        <time>2020-06-28T10:55:10Z</time>
      </trkpt>
      <trkpt lat="48.58151" lon="7.75007">
        <ele>147</ele>
        <time>2020-06-28T10:55:11Z</time>
      </trkpt>
      <trkpt lat="48.58151" lon="7.75">
        <ele>147</ele>
        <time>2020-06-28T10:55:58Z</time>
      </trkpt>
      <trkpt lat="48.58151" lon="7.75">
        <ele>147</ele>
        <time>2020-06-28T10:55:59Z</time>
      </trkpt>
      <trkpt lat="48.58151" lon="7.74999">
        <ele>147</ele>
        <time>2020-06-28T10:56:00Z</time>
      </trkpt>
      <trkpt lat="48.58151" lon="7.74999">
        <ele>147</ele>
        <time>2020-06-28T10:56:01Z</time>
      </trkpt>
      <trkpt lat="48.5815" lon="7.74999">
        <ele>147</ele>
        <time>2020-06-28T10:56:02Z</time>
      </trkpt>
      <trkpt lat="48.5815" lon="7.75">
        <ele>147</ele>
        <time>2020-06-28T10:56:03Z</time>
      </trkpt>
      <trkpt lat="48.5815" lon="7.75">
        <ele>147</ele>
        <time>2020-06-28T10:56:04Z</time>
      </trkpt>
      <trkpt lat="48.58149" lon="7.75">
        <ele>147</ele>
        <time>2020-06-28T10:56:05Z</time>
      </trkpt>
      <trkpt lat="48.58149" lon="7.75001">
        <ele>147</ele>
        <time>2020-06-28T10:56:06Z</time>
      </trkpt>
      <trkpt lat="48.58148" lon="7.75001">
        <ele>147</ele>
        <time>2020-06-28T10:56:07Z</time>
      </trkpt>
      <trkpt lat="48.58147" lon="7.75001">
        <ele>146.9</ele>
        <time>2020-06-28T10:56:08Z</time>
      </trkpt>
      <trkpt lat="48.58147" lon="7.75001">
        <ele>146.9</ele>
        <time>2020-06-28T10:56:09Z</time>
      </trkpt>
      <trkpt lat="48.58147" lon="7.75001">
        <ele>146.9</ele>
        <time>2020-06-28T10:56:10Z</time>
      </trkpt>
      <trkpt lat="48.58147" lon="7.75001">
        <ele>146.9</ele>
        <time>2020-06-28T10:56:11Z</time>
      </trkpt>
      <trkpt lat="48.58147" lon="7.75001">
        <ele>146.9</ele>
        <time>2020-06-28T10:56:12Z</time>
      </trkpt>
      <trkpt lat="48.58147" lon="7.75002">
        <ele>146.9</ele>
        <time>2020-06-28T10:56:13Z</time>
      </trkpt>
      <trkpt lat="48.58147" lon="7.75003">
        <ele>146.9</ele>
        <time>2020-06-28T10:56:14Z</time>
      </trkpt>
      <trkpt lat="48.58146" lon="7.75003">
        <ele>146.9</ele>
        <time>2020-06-28T10:56:15Z</time>
      </trkpt>
      <trkpt lat="48.58146" lon="7.75004">
        <ele>146.9</ele>
        <time>2020-06-28T10:56:16Z</time>
      </trkpt>
      <trkpt lat="48.58146" lon="7.75004">
        <ele>146.9</ele>
        <time>2020-06-28T10:56:17Z</time>
      </trkpt>
      <trkpt lat="48.58147" lon="7.75004">
        <ele>146.9</ele>
        <time>2020-06-28T10:56:18Z</time>
      </trkpt>
      <trkpt lat="48.58147" lon="7.75003">
        <ele>146.9</ele>
        <time>2020-06-28T10:56:19Z</time>
      </trkpt>
      <trkpt lat="48.58147" lon="7.75004">
        <ele>146.9</ele>
        <time>2020-06-28T10:56:20Z</time>
      </trkpt>
      <trkpt lat="48.58147" lon="7.75005">
        <ele>146.9</ele>
        <time>2020-06-28T10:56:21Z</time>
      </trkpt>
      <trkpt lat="48.58147" lon="7.75006">
        <ele>146.9</ele>
        <time>2020-06-28T10:56:22Z</time>
      </trkpt>
      <trkpt lat="48.58147" lon="7.75005">
        <ele>146.9</ele>
        <time>2020-06-28T10:56:23Z</time>
      </trkpt>
      <trkpt lat="48.58148" lon="7.75004">
        <ele>146.9</ele>
        <time>2020-06-28T10:56:24Z</time>
      </trkpt>
      <trkpt lat="48.58148" lon="7.75004">
        <ele>146.9</ele>
        <time>2020-06-28T10:56:25Z</time>
      </trkpt>
      <trkpt lat="48.58149" lon="7.75003">
        <ele>146.9</ele>
        <time>2020-06-28T10:56:26Z</time>
      </trkpt>
      <trkpt lat="48.5815" lon="7.75002">
        <ele>146.9</ele>
        <time>2020-06-28T10:56:27Z</time>
      </trkpt>
      <trkpt lat="48.5815" lon="7.75002">
        <ele>146.9</ele>
        <time>2020-06-28T10:56:28Z</time>
      </trkpt>
      <trkpt lat="48.58151" lon="7.75002">
        <ele>146.9</ele>
        <time>2020-06-28T10:56:29Z</time>
      </trkpt>
      <trkpt lat="48.5815" lon="7.75004">
        <ele>146.9</ele>
        <time>2020-06-28T10:56:30Z</time>
      </trkpt>
      <trkpt lat="48.5815" lon="7.75006">
        <ele>146.9</ele>
        <time>2020-06-28T10:58:23Z</time>
      </trkpt>
      <trkpt lat="48.5815" lon="7.75008">
        <ele>146.9</ele>
        <time>2020-06-28T10:58:24Z</time>
      </trkpt>
      <trkpt lat="48.5815" lon="7.75009">
        <ele>146.9</ele>
        <time>2020-06-28T10:58:25Z</time>
      </trkpt>
      <trkpt lat="48.58149" lon="7.75011">
        <ele>146.9</ele>
        <time>2020-06-28T10:58:26Z</time>
      </trkpt>
      <trkpt lat="48.58149" lon="7.75013">
        <ele>146.9</ele>
        <time>2020-06-28T10:58:27Z</time>
      </trkpt>
      <trkpt lat="48.58149" lon="7.75015">
        <ele>146.9</ele>
        <time>2020-06-28T10:58:28Z</time>
      </trkpt>
      <trkpt lat="48.58148" lon="7.75017">
        <ele>147</ele>
        <time>2020-06-28T10:58:29Z</time>
      </trkpt>
      <trkpt lat="48.58148" lon="7.75019">
        <ele>147</ele>
        <time>2020-06-28T10:58:30Z</time>
      </trkpt>
      <trkpt lat="48.58148" lon="7.75021">
        <ele>147</ele>
        <time>2020-06-28T10:58:31Z</time>
      </trkpt>
      <trkpt lat="48.58148" lon="7.75021">
        <ele>147</ele>
        <time>2020-06-28T10:58:32Z</time>
      </trkpt>
      <trkpt lat="48.58148" lon="7.75021">
        <ele>147</ele>
        <time>2020-06-28T10:58:33Z</time>
      </trkpt>
      <trkpt lat="48.58148" lon="7.75021">
        <ele>147</ele>
        <time>2020-06-28T10:58:34Z</time>
      </trkpt>
      <trkpt lat="48.58148" lon="7.75021">
        <ele>147</ele>
        <time>2020-06-28T10:58:35Z</time>
      </trkpt>
      <trkpt lat="48.5815" lon="7.75014">
        <ele>147</ele>
        <time>2020-06-28T10:59:00Z</time>
      </trkpt>
      <trkpt lat="48.5815" lon="7.75013">
        <ele>147</ele>
        <time>2020-06-28T10:59:01Z</time>
      </trkpt>
      <trkpt lat="48.58149" lon="7.75012">
        <ele>147</ele>
        <time>2020-06-28T10:59:02Z</time>
      </trkpt>
      <trkpt lat="48.58149" lon="7.75011">
        <ele>147</ele>
        <time>2020-06-28T10:59:03Z</time>
      </trkpt>
      <trkpt lat="48.5815" lon="7.7501">
        <ele>147</ele>
        <time>2020-06-28T10:59:04Z</time>
      </trkpt>
      <trkpt lat="48.5815" lon="7.7501">
        <ele>147</ele>
        <time>2020-06-28T10:59:05Z</time>
      </trkpt>
      <trkpt lat="48.5815" lon="7.7501">
        <ele>147</ele>
        <time>2020-06-28T10:59:06Z</time>
      </trkpt>
      <trkpt lat="48.5815" lon="7.7501">
        <ele>147</ele>
        <time>2020-06-28T10:59:07Z</time>
      </trkpt>
      <trkpt lat="48.5815" lon="7.75009">
        <ele>147</ele>
        <time>2020-06-28T10:59:08Z</time>
      </trkpt>
      <trkpt lat="48.5815" lon="7.75009">
        <ele>147</ele>
        <time>2020-06-28T10:59:09Z</time>
      </trkpt>
      <trkpt lat="48.5815" lon="7.75008">
        <ele>147</ele>
        <time>2020-06-28T10:59:10Z</time>
      </trkpt>
      <trkpt lat="48.58151" lon="7.75007">
        <ele>147</ele>
        <time>2020-06-28T10:59:11Z</time>
      </trkpt>
      <trkpt lat="48.58161" lon="7.75021">
        <ele>147</ele>
        <time>2020-06-28T11:00:14Z</time>
      </trkpt>
      <trkpt lat="48.58162" lon="7.7502">
        <ele>147</ele>
        <time>2020-06-28T11:00:15Z</time>
      </trkpt>
      <trkpt lat="48.58162" lon="7.75019">
        <ele>147</ele>
        <time>2020-06-28T11:00:16Z</time>
      </trkpt>
      <trkpt lat="48.58162" lon="7.75019">
        <ele>147</ele>
        <time>2020-06-28T11:00:17Z</time>
      </trkpt>
      <trkpt lat="48.58163" lon="7.75022">
        <ele>147</ele>
        <time>2020-06-28T11:00:18Z</time>
      </trkpt>
      <trkpt lat="48.58163" lon="7.75024">
        <ele>147</ele>
        <time>2020-06-28T11:00:19Z</time>
      </trkpt>
      <trkpt lat="48.58164" lon="7.75025">
        <ele>147</ele>
        <time>2020-06-28T11:00:20Z</time>
      </trkpt>
      <trkpt lat="48.58163" lon="7.75026">
        <ele>147</ele>
        <time>2020-06-28T11:00:21Z</time>
      </trkpt>
      <trkpt lat="48.58163" lon="7.75026">
        <ele>147</ele>
        <time>2020-06-28T11:00:22Z</time>
      </trkpt>
      <trkpt lat="48.58163" lon="7.75025">
        <ele>147</ele>
        <time>2020-06-28T11:00:23Z</time>
      </trkpt>
      <trkpt lat="48.58163" lon="7.75025">
        <ele>147</ele>
        <time>2020-06-28T11:00:24Z</time>
      </trkpt>
      <trkpt lat="48.58163" lon="7.75024">
        <ele>147</ele>
        <time>2020-06-28T11:00:25Z</time>
      </trkpt>
      <trkpt lat="48.58163" lon="7.75025">
        <ele>147</ele>
        <time>2020-06-28T11:00:26Z</time>
      </trkpt>
      <trkpt lat="48.58162" lon="7.75024">
        <ele>147</ele>
        <time>2020-06-28T11:00:27Z</time>
      </trkpt>
      <trkpt lat="48.58162" lon="7.75025">
        <ele>147</ele>
        <time>2020-06-28T11:00:28Z</time>
      </trkpt>
      <trkpt lat="48.58162" lon="7.75027">
        <ele>147</ele>
        <time>2020-06-28T11:00:29Z</time>
      </trkpt>
      <trkpt lat="48.58162" lon="7.75028">
        <ele>147</ele>
        <time>2020-06-28T11:00:30Z</time>
      </trkpt>
      <trkpt lat="48.58163" lon="7.75029">
        <ele>147</ele>
        <time>2020-06-28T11:00:31Z</time>
      </trkpt>
      <trkpt lat="48.58163" lon="7.7503">
        <ele>147</ele>
        <time>2020-06-28T11:00:32Z</time>
      </trkpt>
      <trkpt lat="48.58163" lon="7.7503">
        <ele>147</ele>
        <time>2020-06-28T11:00:33Z</time>
      </trkpt>
      <trkpt lat="48.58163" lon="7.7503">
        <ele>147</ele>
        <time>2020-06-28T11:00:34Z</time>
      </trkpt>
      <trkpt lat="48.58163" lon="7.7503">
        <ele>147</ele>
        <time>2020-06-28T11:00:35Z</time>
      </trkpt>
      <trkpt lat="48.58163" lon="7.75031">
        <ele>147</ele>
        <time>2020-06-28T11:00:36Z</time>
      </trkpt>
      <trkpt lat="48.58163" lon="7.75031">
        <ele>147</ele>
        <time>2020-06-28T11:00:37Z</time>
      </trkpt>
      <trkpt lat="48.58163" lon="7.7503">
        <ele>147</ele>
        <time>2020-06-28T11:00:38Z</time>
      </trkpt>
      <trkpt lat="48.58164" lon="7.7503">
        <ele>147</ele>
        <time>2020-06-28T11:00:39Z</time>
      </trkpt>
      <trkpt lat="48.58163" lon="7.7503">
        <ele>147</ele>
        <time>2020-06-28T11:00:40Z</time>
      </trkpt>
      <trkpt lat="48.58163" lon="7.7503">
        <ele>147</ele>
        <time>2020-06-28T11:00:41Z</time>
      </trkpt>
      <trkpt lat="48.58163" lon="7.75031">
        <ele>147</ele>
        <time>2020-06-28T11:00:42Z</time>
      </trkpt>
      <trkpt lat="48.58164" lon="7.7503">
        <ele>147</ele>
        <time>2020-06-28T11:00:43Z</time>
      </trkpt>
      <trkpt lat="48.58163" lon="7.75026">
        <ele>147</ele>
        <time>2020-06-28T11:01:10Z</time>
      </trkpt>
      <trkpt lat="48.58163" lon="7.75026">
        <ele>147</ele>
        <time>2020-06-28T11:01:11Z</time>
      </trkpt>
      <trkpt lat="48.58163" lon="7.75026">
        <ele>147</ele>
        <time>2020-06-28T11:01:12Z</time>
      </trkpt>
      <trkpt lat="48.58163" lon="7.75025">
        <ele>147</ele>
        <time>2020-06-28T11:01:13Z</time>
      </trkpt>
      <trkpt lat="48.58163" lon="7.75025">
        <ele>147</ele>
        <time>2020-06-28T11:01:14Z</time>
      </trkpt>
      <trkpt lat="48.58163" lon="7.75025">
        <ele>147</ele>
        <time>2020-06-28T11:01:15Z</time>
      </trkpt>
      <trkpt lat="48.58164" lon="7.75025">
        <ele>147</ele>
        <time>2020-06-28T11:01:16Z</time>
      </trkpt>
      <trkpt lat="48.58165" lon="7.75026">
        <ele>147</ele>
        <time>2020-06-28T11:01:17Z</time>
      </trkpt>
      <trkpt lat="48.58166" lon="7.75025">
        <ele>147.1</ele>
        <time>2020-06-28T11:01:18Z</time>
      </trkpt>
      <trkpt lat="48.5817" lon="7.75024">
        <ele>147.2</ele>
        <time>2020-06-28T11:01:19Z</time>
      </trkpt>
      <trkpt lat="48.58173" lon="7.75023">
        <ele>147.2</ele>
        <time>2020-06-28T11:01:20Z</time>
      </trkpt>
      <trkpt lat="48.58176" lon="7.75022">
        <ele>147.3</ele>
        <time>2020-06-28T11:01:21Z</time>
      </trkpt>
      <trkpt lat="48.58177" lon="7.75022">
        <ele>147.4</ele>
        <time>2020-06-28T11:01:22Z</time>
      </trkpt>
      <trkpt lat="48.5818" lon="7.7502">
        <ele>147.5</ele>
        <time>2020-06-28T11:01:23Z</time>
      </trkpt>
      <trkpt lat="48.58183" lon="7.75016">
        <ele>147.6</ele>
        <time>2020-06-28T11:01:24Z</time>
      </trkpt>
      <trkpt lat="48.58186" lon="7.75014">
        <ele>147.6</ele>
        <time>2020-06-28T11:01:25Z</time>
      </trkpt>
      <trkpt lat="48.58189" lon="7.75012">
        <ele>147.7</ele>
        <time>2020-06-28T11:01:26Z</time>
      </trkpt>
      <trkpt lat="48.58191" lon="7.7501">
        <ele>147.8</ele>
        <time>2020-06-28T11:01:27Z</time>
      </trkpt>
      <trkpt lat="48.58192" lon="7.75009">
        <ele>147.8</ele>
        <time>2020-06-28T11:01:28Z</time>
      </trkpt>
      <trkpt lat="48.58194" lon="7.75005">
        <ele>147.8</ele>
        <time>2020-06-28T11:01:29Z</time>
      </trkpt>
      <trkpt lat="48.58194" lon="7.75004">
        <ele>147.8</ele>
        <time>2020-06-28T11:01:30Z</time>
      </trkpt>
      <trkpt lat="48.58195" lon="7.75003">
        <ele>147.9</ele>
        <time>2020-06-28T11:01:31Z</time>
      </trkpt>
      <trkpt lat="48.58195" lon="7.75">
        <ele>147.9</ele>
        <time>2020-06-28T11:01:32Z</time>
      </trkpt>
      <trkpt lat="48.58194" lon="7.74999">
        <ele>147.9</ele>
        <time>2020-06-28T11:01:33Z</time>
      </trkpt>
      <trkpt lat="48.58194" lon="7.74997">
        <ele>147.9</ele>
        <time>2020-06-28T11:01:34Z</time>
      </trkpt>
      <trkpt lat="48.58195" lon="7.74996">
        <ele>147.9</ele>
        <time>2020-06-28T11:01:35Z</time>
      </trkpt>
      <trkpt lat="48.58196" lon="7.74994">
        <ele>147.9</ele>
        <time>2020-06-28T11:01:36Z</time>
      </trkpt>
      <trkpt lat="48.58196" lon="7.74993">
        <ele>147.9</ele>
        <time>2020-06-28T11:01:37Z</time>
      </trkpt>
      <trkpt lat="48.58197" lon="7.74991">
        <ele>147.9</ele>
        <time>2020-06-28T11:01:38Z</time>
      </trkpt>
      <trkpt lat="48.58199" lon="7.74988">
        <ele>148.2</ele>
        <time>2020-06-28T11:01:39Z</time>
      </trkpt>
      <trkpt lat="48.582" lon="7.74987">
        <ele>148.2</ele>
        <time>2020-06-28T11:01:40Z</time>
      </trkpt>
      <trkpt lat="48.58203" lon="7.74984">
        <ele>148.2</ele>
        <time>2020-06-28T11:01:41Z</time>
      </trkpt>
      <trkpt lat="48.58205" lon="7.74982">
        <ele>148.2</ele>
        <time>2020-06-28T11:01:42Z</time>
      </trkpt>
      <trkpt lat="48.58207" lon="7.74979">
        <ele>148.2</ele>
        <time>2020-06-28T11:01:43Z</time>
      </trkpt>
      <trkpt lat="48.5821" lon="7.74976">
        <ele>148.2</ele>
        <time>2020-06-28T11:01:44Z</time>
      </trkpt>
      <trkpt lat="48.58212" lon="7.74974">
        <ele>148.2</ele>
        <time>2020-06-28T11:01:45Z</time>
      </trkpt>
      <trkpt lat="48.58212" lon="7.74972">
        <ele>148.2</ele>
        <time>2020-06-28T11:01:46Z</time>
      </trkpt>
      <trkpt lat="48.58212" lon="7.7497">
        <ele>148.2</ele>
        <time>2020-06-28T11:01:47Z</time>
      </trkpt>
      <trkpt lat="48.58214" lon="7.74967">
        <ele>148.2</ele>
        <time>2020-06-28T11:01:48Z</time>
      </trkpt>
      <trkpt lat="48.58215" lon="7.74965">
        <ele>148.2</ele>
        <time>2020-06-28T11:01:49Z</time>
      </trkpt>
      <trkpt lat="48.58215" lon="7.74964">
        <ele>148.2</ele>
        <time>2020-06-28T11:01:50Z</time>
      </trkpt>
      <trkpt lat="48.58215" lon="7.74963">
        <ele>148.2</ele>
        <time>2020-06-28T11:01:51Z</time>
      </trkpt>
      <trkpt lat="48.58215" lon="7.74962">
        <ele>148.2</ele>
        <time>2020-06-28T11:01:52Z</time>
      </trkpt>
      <trkpt lat="48.58215" lon="7.74961">
        <ele>148.2</ele>
        <time>2020-06-28T11:01:53Z</time>
      </trkpt>
      <trkpt lat="48.58215" lon="7.74955">
        <ele>148.2</ele>
        <time>2020-06-28T11:01:54Z</time>
      </trkpt>
      <trkpt lat="48.58215" lon="7.74953">
        <ele>148.2</ele>
        <time>2020-06-28T11:01:55Z</time>
      </trkpt>
      <trkpt lat="48.58215" lon="7.74949">
        <ele>148.2</ele>
        <time>2020-06-28T11:01:56Z</time>
      </trkpt>
      <trkpt lat="48.58215" lon="7.74947">
        <ele>148.2</ele>
        <time>2020-06-28T11:01:57Z</time>
      </trkpt>
      <trkpt lat="48.58208" lon="7.74936">
        <ele>148.1</ele>
        <time>2020-06-28T11:01:58Z</time>
      </trkpt>
      <trkpt lat="48.58207" lon="7.74931">
        <ele>148.1</ele>
        <time>2020-06-28T11:01:59Z</time>
      </trkpt>
      <trkpt lat="48.58205" lon="7.74927">
        <ele>148.1</ele>
        <time>2020-06-28T11:02:00Z</time>
      </trkpt>
      <trkpt lat="48.58204" lon="7.74923">
        <ele>148</ele>
        <time>2020-06-28T11:02:01Z</time>
      </trkpt>
      <trkpt lat="48.58203" lon="7.74918">
        <ele>148</ele>
        <time>2020-06-28T11:02:02Z</time>
      </trkpt>
      <trkpt lat="48.58203" lon="7.74916">
        <ele>148</ele>
        <time>2020-06-28T11:02:03Z</time>
      </trkpt>
      <trkpt lat="48.58198" lon="7.74908">
        <ele>147.9</ele>
        <time>2020-06-28T11:02:04Z</time>
      </trkpt>
      <trkpt lat="48.58194" lon="7.74903">
        <ele>147.9</ele>
        <time>2020-06-28T11:02:05Z</time>
      </trkpt>
      <trkpt lat="48.58191" lon="7.74898">
        <ele>147.8</ele>
        <time>2020-06-28T11:02:06Z</time>
      </trkpt>
      <trkpt lat="48.58185" lon="7.74892">
        <ele>147.7</ele>
        <time>2020-06-28T11:02:07Z</time>
      </trkpt>
      <trkpt lat="48.58183" lon="7.74887">
        <ele>147.5</ele>
        <time>2020-06-28T11:02:08Z</time>
      </trkpt>
      <trkpt lat="48.58182" lon="7.74886">
        <ele>147.4</ele>
        <time>2020-06-28T11:02:09Z</time>
      </trkpt>
      <trkpt lat="48.58179" lon="7.74881">
        <ele>147.3</ele>
        <time>2020-06-28T11:02:10Z</time>
      </trkpt>
      <trkpt lat="48.58176" lon="7.74875">
        <ele>147.2</ele>
        <time>2020-06-28T11:02:11Z</time>
      </trkpt>
      <trkpt lat="48.58174" lon="7.74869">
        <ele>147.1</ele>
        <time>2020-06-28T11:02:12Z</time>
      </trkpt>
      <trkpt lat="48.58172" lon="7.74865">
        <ele>147</ele>
        <time>2020-06-28T11:02:13Z</time>
      </trkpt>
      <trkpt lat="48.58172" lon="7.74859">
        <ele>146.9</ele>
        <time>2020-06-28T11:02:14Z</time>
      </trkpt>
      <trkpt lat="48.5817" lon="7.74852">
        <ele>146.7</ele>
        <time>2020-06-28T11:02:15Z</time>
      </trkpt>
      <trkpt lat="48.58169" lon="7.74848">
        <ele>146.4</ele>
        <time>2020-06-28T11:02:16Z</time>
      </trkpt>
      <trkpt lat="48.58166" lon="7.74843">
        <ele>146.4</ele>
        <time>2020-06-28T11:02:17Z</time>
      </trkpt>
      <trkpt lat="48.58165" lon="7.74842">
        <ele>146.4</ele>
        <time>2020-06-28T11:02:18Z</time>
      </trkpt>
      <trkpt lat="48.58161" lon="7.7484">
        <ele>146.4</ele>
        <time>2020-06-28T11:02:19Z</time>
      </trkpt>
      <trkpt lat="48.58157" lon="7.74837">
        <ele>146.2</ele>
        <time>2020-06-28T11:02:20Z</time>
      </trkpt>
      <trkpt lat="48.58154" lon="7.74834">
        <ele>146.2</ele>
        <time>2020-06-28T11:02:21Z</time>
      </trkpt>
      <trkpt lat="48.5815" lon="7.74832">
        <ele>146.2</ele>
        <time>2020-06-28T11:02:22Z</time>
      </trkpt>
      <trkpt lat="48.58145" lon="7.7483">
        <ele>146.3</ele>
        <time>2020-06-28T11:02:23Z</time>
      </trkpt>
      <trkpt lat="48.58141" lon="7.74828">
        <ele>146.3</ele>
        <time>2020-06-28T11:02:24Z</time>
      </trkpt>
      <trkpt lat="48.58137" lon="7.74828">
        <ele>146.3</ele>
        <time>2020-06-28T11:02:25Z</time>
      </trkpt>
      <trkpt lat="48.58133" lon="7.74825">
        <ele>146.3</ele>
        <time>2020-06-28T11:02:26Z</time>
      </trkpt>
      <trkpt lat="48.5813" lon="7.7482">
        <ele>146.4</ele>
        <time>2020-06-28T11:02:27Z</time>
      </trkpt>
      <trkpt lat="48.58128" lon="7.74815">
        <ele>146.4</ele>
        <time>2020-06-28T11:02:28Z</time>
      </trkpt>
      <trkpt lat="48.58125" lon="7.7481">
        <ele>146.5</ele>
        <time>2020-06-28T11:02:29Z</time>
      </trkpt>
      <trkpt lat="48.58123" lon="7.74804">
        <ele>146.5</ele>
        <time>2020-06-28T11:02:30Z</time>
      </trkpt>
      <trkpt lat="48.58122" lon="7.74796">
        <ele>146.5</ele>
        <time>2020-06-28T11:02:31Z</time>
      </trkpt>
      <trkpt lat="48.5812" lon="7.74791">
        <ele>146.5</ele>
        <time>2020-06-28T11:02:32Z</time>
      </trkpt>
      <trkpt lat="48.58113" lon="7.74789">
        <ele>146.4</ele>
        <time>2020-06-28T11:02:33Z</time>
      </trkpt>
      <trkpt lat="48.58112" lon="7.74784">
        <ele>146.4</ele>
        <time>2020-06-28T11:02:34Z</time>
      </trkpt>
      <trkpt lat="48.58109" lon="7.7478">
        <ele>146.4</ele>
        <time>2020-06-28T11:02:35Z</time>
      </trkpt>
      <trkpt lat="48.58107" lon="7.74775">
        <ele>146.4</ele>
        <time>2020-06-28T11:02:36Z</time>
      </trkpt>
      <trkpt lat="48.58105" lon="7.7477">
        <ele>146.4</ele>
        <time>2020-06-28T11:02:37Z</time>
      </trkpt>
      <trkpt lat="48.58104" lon="7.74765">
        <ele>146.4</ele>
        <time>2020-06-28T11:02:38Z</time>
      </trkpt>
      <trkpt lat="48.58102" lon="7.74761">
        <ele>146.3</ele>
        <time>2020-06-28T11:02:39Z</time>
      </trkpt>
      <trkpt lat="48.58101" lon="7.74757">
        <ele>146.3</ele>
        <time>2020-06-28T11:02:40Z</time>
      </trkpt>
      <trkpt lat="48.58099" lon="7.74754">
        <ele>146.3</ele>
        <time>2020-06-28T11:02:41Z</time>
      </trkpt>
      <trkpt lat="48.58094" lon="7.74753">
        <ele>146.3</ele>
        <time>2020-06-28T11:02:42Z</time>
      </trkpt>
      <trkpt lat="48.58092" lon="7.74749">
        <ele>146.3</ele>
        <time>2020-06-28T11:02:43Z</time>
      </trkpt>
      <trkpt lat="48.58089" lon="7.74745">
        <ele>146.2</ele>
        <time>2020-06-28T11:02:44Z</time>
      </trkpt>
      <trkpt lat="48.58088" lon="7.74744">
        <ele>146.2</ele>
        <time>2020-06-28T11:02:45Z</time>
      </trkpt>
      <trkpt lat="48.58085" lon="7.74741">
        <ele>146.2</ele>
        <time>2020-06-28T11:02:46Z</time>
      </trkpt>
      <trkpt lat="48.58082" lon="7.74739">
        <ele>146.1</ele>
        <time>2020-06-28T11:02:47Z</time>
      </trkpt>
      <trkpt lat="48.58084" lon="7.74727">
        <ele>146</ele>
        <time>2020-06-28T11:02:48Z</time>
      </trkpt>
      <trkpt lat="48.58081" lon="7.74724">
        <ele>146</ele>
        <time>2020-06-28T11:02:49Z</time>
      </trkpt>
      <trkpt lat="48.58079" lon="7.74721">
        <ele>146</ele>
        <time>2020-06-28T11:02:50Z</time>
      </trkpt>
      <trkpt lat="48.58076" lon="7.74717">
        <ele>145.9</ele>
        <time>2020-06-28T11:02:51Z</time>
      </trkpt>
      <trkpt lat="48.58075" lon="7.74716">
        <ele>145.9</ele>
        <time>2020-06-28T11:02:52Z</time>
      </trkpt>
      <trkpt lat="48.58073" lon="7.74713">
        <ele>145.9</ele>
        <time>2020-06-28T11:02:53Z</time>
      </trkpt>
      <trkpt lat="48.58071" lon="7.74709">
        <ele>145.8</ele>
        <time>2020-06-28T11:02:54Z</time>
      </trkpt>
      <trkpt lat="48.5807" lon="7.74709">
        <ele>145.8</ele>
        <time>2020-06-28T11:02:55Z</time>
      </trkpt>
      <trkpt lat="48.5807" lon="7.74707">
        <ele>145.8</ele>
        <time>2020-06-28T11:02:56Z</time>
      </trkpt>
      <trkpt lat="48.58069" lon="7.74706">
        <ele>145.8</ele>
        <time>2020-06-28T11:02:57Z</time>
      </trkpt>
      <trkpt lat="48.5807" lon="7.74705">
        <ele>145.8</ele>
        <time>2020-06-28T11:02:58Z</time>
      </trkpt>
      <trkpt lat="48.58071" lon="7.74704">
        <ele>145.8</ele>
        <time>2020-06-28T11:02:59Z</time>
      </trkpt>
      <trkpt lat="48.58074" lon="7.74702">
        <ele>145.9</ele>
        <time>2020-06-28T11:03:00Z</time>
      </trkpt>
      <trkpt lat="48.58075" lon="7.74701">
        <ele>146</ele>
        <time>2020-06-28T11:03:01Z</time>
      </trkpt>
      <trkpt lat="48.58078" lon="7.74698">
        <ele>146.1</ele>
        <time>2020-06-28T11:03:02Z</time>
      </trkpt>
      <trkpt lat="48.58081" lon="7.74696">
        <ele>146.2</ele>
        <time>2020-06-28T11:03:03Z</time>
      </trkpt>
      <trkpt lat="48.58084" lon="7.74692">
        <ele>146.3</ele>
        <time>2020-06-28T11:03:04Z</time>
      </trkpt>
      <trkpt lat="48.58086" lon="7.74689">
        <ele>146.4</ele>
        <time>2020-06-28T11:03:05Z</time>
      </trkpt>
      <trkpt lat="48.58089" lon="7.74684">
        <ele>146.5</ele>
        <time>2020-06-28T11:03:06Z</time>
      </trkpt>
      <trkpt lat="48.58089" lon="7.74683">
        <ele>146.5</ele>
        <time>2020-06-28T11:03:07Z</time>
      </trkpt>
      <trkpt lat="48.58092" lon="7.74679">
        <ele>146.6</ele>
        <time>2020-06-28T11:03:08Z</time>
      </trkpt>
      <trkpt lat="48.58094" lon="7.74676">
        <ele>146.6</ele>
        <time>2020-06-28T11:03:09Z</time>
      </trkpt>
      <trkpt lat="48.58097" lon="7.74672">
        <ele>146.7</ele>
        <time>2020-06-28T11:03:10Z</time>
      </trkpt>
      <trkpt lat="48.581" lon="7.74669">
        <ele>146.8</ele>
        <time>2020-06-28T11:03:11Z</time>
      </trkpt>
      <trkpt lat="48.58103" lon="7.74666">
        <ele>146.8</ele>
        <time>2020-06-28T11:03:12Z</time>
      </trkpt>
      <trkpt lat="48.58107" lon="7.74664">
        <ele>146.8</ele>
        <time>2020-06-28T11:03:13Z</time>
      </trkpt>
      <trkpt lat="48.58108" lon="7.74663">
        <ele>146.8</ele>
        <time>2020-06-28T11:03:14Z</time>
      </trkpt>
      <trkpt lat="48.58111" lon="7.74663">
        <ele>146.9</ele>
        <time>2020-06-28T11:03:15Z</time>
      </trkpt>
      <trkpt lat="48.58114" lon="7.74662">
        <ele>146.9</ele>
        <time>2020-06-28T11:03:16Z</time>
      </trkpt>
      <trkpt lat="48.58118" lon="7.74661">
        <ele>146.9</ele>
        <time>2020-06-28T11:03:17Z</time>
      </trkpt>
      <trkpt lat="48.58121" lon="7.74661">
        <ele>146.9</ele>
        <time>2020-06-28T11:03:18Z</time>
      </trkpt>
      <trkpt lat="48.58126" lon="7.74663">
        <ele>147</ele>
        <time>2020-06-28T11:03:19Z</time>
      </trkpt>
      <trkpt lat="48.58128" lon="7.74656">
        <ele>147</ele>
        <time>2020-06-28T11:03:20Z</time>
      </trkpt>
      <trkpt lat="48.58131" lon="7.74654">
        <ele>147</ele>
        <time>2020-06-28T11:03:21Z</time>
      </trkpt>
      <trkpt lat="48.58134" lon="7.74652">
        <ele>147</ele>
        <time>2020-06-28T11:03:22Z</time>
      </trkpt>
      <trkpt lat="48.58136" lon="7.7465">
        <ele>147.1</ele>
        <time>2020-06-28T11:03:23Z</time>
      </trkpt>
      <trkpt lat="48.58139" lon="7.74646">
        <ele>147.1</ele>
        <time>2020-06-28T11:03:24Z</time>
      </trkpt>
      <trkpt lat="48.58139" lon="7.74645">
        <ele>147.1</ele>
        <time>2020-06-28T11:03:25Z</time>
      </trkpt>
      <trkpt lat="48.58133" lon="7.7464">
        <ele>147.2</ele>
        <time>2020-06-28T11:03:26Z</time>
      </trkpt>
      <trkpt lat="48.58134" lon="7.74635">
        <ele>147.3</ele>
        <time>2020-06-28T11:03:27Z</time>
      </trkpt>
      <trkpt lat="48.58134" lon="7.74629">
        <ele>147.3</ele>
        <time>2020-06-28T11:03:28Z</time>
      </trkpt>
      <trkpt lat="48.58133" lon="7.74623">
        <ele>147.3</ele>
        <time>2020-06-28T11:03:29Z</time>
      </trkpt>
      <trkpt lat="48.58133" lon="7.74617">
        <ele>147.3</ele>
        <time>2020-06-28T11:03:30Z</time>
      </trkpt>
      <trkpt lat="48.58133" lon="7.74611">
        <ele>147.3</ele>
        <time>2020-06-28T11:03:31Z</time>
      </trkpt>
      <trkpt lat="48.58133" lon="7.74606">
        <ele>147.3</ele>
        <time>2020-06-28T11:03:32Z</time>
      </trkpt>
      <trkpt lat="48.58125" lon="7.74598">
        <ele>147.3</ele>
        <time>2020-06-28T11:03:33Z</time>
      </trkpt>
      <trkpt lat="48.58125" lon="7.74593">
        <ele>147.3</ele>
        <time>2020-06-28T11:03:34Z</time>
      </trkpt>
      <trkpt lat="48.58125" lon="7.74588">
        <ele>147.3</ele>
        <time>2020-06-28T11:03:35Z</time>
      </trkpt>
      <trkpt lat="48.58125" lon="7.74583">
        <ele>147.3</ele>
        <time>2020-06-28T11:03:36Z</time>
      </trkpt>
      <trkpt lat="48.58124" lon="7.74578">
        <ele>147.3</ele>
        <time>2020-06-28T11:03:37Z</time>
      </trkpt>
      <trkpt lat="48.58124" lon="7.74573">
        <ele>147.3</ele>
        <time>2020-06-28T11:03:38Z</time>
      </trkpt>
      <trkpt lat="48.58131" lon="7.7457">
        <ele>147.3</ele>
        <time>2020-06-28T11:03:39Z</time>
      </trkpt>
      <trkpt lat="48.5813" lon="7.74567">
        <ele>147.2</ele>
        <time>2020-06-28T11:03:40Z</time>
      </trkpt>
      <trkpt lat="48.5813" lon="7.74565">
        <ele>147.2</ele>
        <time>2020-06-28T11:03:41Z</time>
      </trkpt>
      <trkpt lat="48.5813" lon="7.74562">
        <ele>147.2</ele>
        <time>2020-06-28T11:03:42Z</time>
      </trkpt>
      <trkpt lat="48.58131" lon="7.7456">
        <ele>147.2</ele>
        <time>2020-06-28T11:03:43Z</time>
      </trkpt>
      <trkpt lat="48.58131" lon="7.74558">
        <ele>147.2</ele>
        <time>2020-06-28T11:03:44Z</time>
      </trkpt>
      <trkpt lat="48.58132" lon="7.74556">
        <ele>147.2</ele>
        <time>2020-06-28T11:03:45Z</time>
      </trkpt>
      <trkpt lat="48.58131" lon="7.7455">
        <ele>147.1</ele>
        <time>2020-06-28T11:03:46Z</time>
      </trkpt>
      <trkpt lat="48.58131" lon="7.74544">
        <ele>147.1</ele>
        <time>2020-06-28T11:03:47Z</time>
      </trkpt>
      <trkpt lat="48.5813" lon="7.74535">
        <ele>147.1</ele>
        <time>2020-06-28T11:03:48Z</time>
      </trkpt>
      <trkpt lat="48.58129" lon="7.74527">
        <ele>147</ele>
        <time>2020-06-28T11:03:49Z</time>
      </trkpt>
      <trkpt lat="48.58129" lon="7.74521">
        <ele>147</ele>
        <time>2020-06-28T11:03:50Z</time>
      </trkpt>
      <trkpt lat="48.58131" lon="7.74515">
        <ele>146.9</ele>
        <time>2020-06-28T11:03:51Z</time>
      </trkpt>
      <trkpt lat="48.58131" lon="7.74508">
        <ele>146.9</ele>
        <time>2020-06-28T11:03:52Z</time>
      </trkpt>
      <trkpt lat="48.58131" lon="7.74504">
        <ele>146.9</ele>
        <time>2020-06-28T11:03:53Z</time>
      </trkpt>
      <trkpt lat="48.58131" lon="7.74499">
        <ele>146.8</ele>
        <time>2020-06-28T11:03:54Z</time>
      </trkpt>
      <trkpt lat="48.58132" lon="7.74492">
        <ele>146.8</ele>
        <time>2020-06-28T11:03:55Z</time>
      </trkpt>
      <trkpt lat="48.58133" lon="7.7449">
        <ele>146.8</ele>
        <time>2020-06-28T11:03:56Z</time>
      </trkpt>
      <trkpt lat="48.58133" lon="7.74486">
        <ele>146.8</ele>
        <time>2020-06-28T11:03:57Z</time>
      </trkpt>
      <trkpt lat="48.58134" lon="7.74481">
        <ele>146.7</ele>
        <time>2020-06-28T11:03:58Z</time>
      </trkpt>
      <trkpt lat="48.58134" lon="7.74476">
        <ele>146.7</ele>
        <time>2020-06-28T11:03:59Z</time>
      </trkpt>
      <trkpt lat="48.58135" lon="7.74474">
        <ele>146.7</ele>
        <time>2020-06-28T11:04:00Z</time>
      </trkpt>
      <trkpt lat="48.58135" lon="7.74468">
        <ele>146.6</ele>
        <time>2020-06-28T11:04:01Z</time>
      </trkpt>
      <trkpt lat="48.58136" lon="7.74466">
        <ele>146.6</ele>
        <time>2020-06-28T11:04:02Z</time>
      </trkpt>
      <trkpt lat="48.58137" lon="7.74462">
        <ele>146.6</ele>
        <time>2020-06-28T11:04:03Z</time>
      </trkpt>
      <trkpt lat="48.58138" lon="7.74461">
        <ele>146.6</ele>
        <time>2020-06-28T11:04:04Z</time>
      </trkpt>
      <trkpt lat="48.58139" lon="7.74456">
        <ele>146.6</ele>
        <time>2020-06-28T11:04:05Z</time>
      </trkpt>
      <trkpt lat="48.58139" lon="7.74454">
        <ele>146.5</ele>
        <time>2020-06-28T11:04:06Z</time>
      </trkpt>
      <trkpt lat="48.5814" lon="7.7445">
        <ele>146.5</ele>
        <time>2020-06-28T11:04:07Z</time>
      </trkpt>
      <trkpt lat="48.5814" lon="7.74448">
        <ele>146.5</ele>
        <time>2020-06-28T11:04:08Z</time>
      </trkpt>
      <trkpt lat="48.58143" lon="7.74443">
        <ele>146.5</ele>
        <time>2020-06-28T11:04:09Z</time>
      </trkpt>
      <trkpt lat="48.58144" lon="7.74439">
        <ele>146.5</ele>
        <time>2020-06-28T11:04:10Z</time>
      </trkpt>
      <trkpt lat="48.58147" lon="7.74434">
        <ele>146.4</ele>
        <time>2020-06-28T11:04:11Z</time>
      </trkpt>
      <trkpt lat="48.58149" lon="7.74429">
        <ele>146.4</ele>
        <time>2020-06-28T11:04:12Z</time>
      </trkpt>
      <trkpt lat="48.5815" lon="7.74427">
        <ele>146.4</ele>
        <time>2020-06-28T11:04:13Z</time>
      </trkpt>
      <trkpt lat="48.58153" lon="7.74423">
        <ele>146.4</ele>
        <time>2020-06-28T11:04:14Z</time>
      </trkpt>
      <trkpt lat="48.58155" lon="7.74419">
        <ele>146.3</ele>
        <time>2020-06-28T11:04:15Z</time>
      </trkpt>
      <trkpt lat="48.58157" lon="7.74414">
        <ele>146.3</ele>
        <time>2020-06-28T11:04:16Z</time>
      </trkpt>
      <trkpt lat="48.58159" lon="7.74409">
        <ele>146.3</ele>
        <time>2020-06-28T11:04:17Z</time>
      </trkpt>
      <trkpt lat="48.58161" lon="7.74405">
        <ele>146.3</ele>
        <time>2020-06-28T11:04:18Z</time>
      </trkpt>
      <trkpt lat="48.58162" lon="7.74403">
        <ele>146.3</ele>
        <time>2020-06-28T11:04:19Z</time>
      </trkpt>
      <trkpt lat="48.58164" lon="7.74399">
        <ele>146.2</ele>
        <time>2020-06-28T11:04:20Z</time>
      </trkpt>
      <trkpt lat="48.58166" lon="7.74395">
        <ele>146.2</ele>
        <time>2020-06-28T11:04:21Z</time>
      </trkpt>
      <trkpt lat="48.58168" lon="7.74391">
        <ele>146.2</ele>
        <time>2020-06-28T11:04:22Z</time>
      </trkpt>
      <trkpt lat="48.5817" lon="7.74388">
        <ele>146.2</ele>
        <time>2020-06-28T11:04:23Z</time>
      </trkpt>
      <trkpt lat="48.5817" lon="7.74382">
        <ele>146.2</ele>
        <time>2020-06-28T11:04:24Z</time>
      </trkpt>
      <trkpt lat="48.58172" lon="7.74379">
        <ele>146.1</ele>
        <time>2020-06-28T11:04:25Z</time>
      </trkpt>
      <trkpt lat="48.58174" lon="7.74375">
        <ele>146.1</ele>
        <time>2020-06-28T11:04:26Z</time>
      </trkpt>
      <trkpt lat="48.58176" lon="7.7437">
        <ele>146.1</ele>
        <time>2020-06-28T11:04:27Z</time>
      </trkpt>
      <trkpt lat="48.58178" lon="7.74364">
        <ele>146</ele>
        <time>2020-06-28T11:04:28Z</time>
      </trkpt>
      <trkpt lat="48.5818" lon="7.74359">
        <ele>146</ele>
        <time>2020-06-28T11:04:29Z</time>
      </trkpt>
      <trkpt lat="48.58183" lon="7.74354">
        <ele>146</ele>
        <time>2020-06-28T11:04:30Z</time>
      </trkpt>
      <trkpt lat="48.58182" lon="7.74346">
        <ele>145.9</ele>
        <time>2020-06-28T11:04:31Z</time>
      </trkpt>
      <trkpt lat="48.58184" lon="7.74342">
        <ele>145.9</ele>
        <time>2020-06-28T11:04:32Z</time>
      </trkpt>
      <trkpt lat="48.58185" lon="7.7434">
        <ele>145.9</ele>
        <time>2020-06-28T11:04:33Z</time>
      </trkpt>
      <trkpt lat="48.58187" lon="7.74336">
        <ele>145.9</ele>
        <time>2020-06-28T11:04:34Z</time>
      </trkpt>
      <trkpt lat="48.58188" lon="7.74335">
        <ele>145.9</ele>
        <time>2020-06-28T11:04:35Z</time>
      </trkpt>
      <trkpt lat="48.58189" lon="7.74331">
        <ele>145.8</ele>
        <time>2020-06-28T11:04:36Z</time>
      </trkpt>
      <trkpt lat="48.5819" lon="7.74329">
        <ele>145.8</ele>
        <time>2020-06-28T11:04:37Z</time>
      </trkpt>
      <trkpt lat="48.58188" lon="7.74324">
        <ele>145.8</ele>
        <time>2020-06-28T11:04:38Z</time>
      </trkpt>
      <trkpt lat="48.58189" lon="7.74322">
        <ele>145.8</ele>
        <time>2020-06-28T11:04:39Z</time>
      </trkpt>
      <trkpt lat="48.5819" lon="7.7432">
        <ele>145.8</ele>
        <time>2020-06-28T11:04:40Z</time>
      </trkpt>
      <trkpt lat="48.58191" lon="7.74317">
        <ele>145.7</ele>
        <time>2020-06-28T11:04:41Z</time>
      </trkpt>
      <trkpt lat="48.58191" lon="7.74316">
        <ele>145.7</ele>
        <time>2020-06-28T11:04:42Z</time>
      </trkpt>
      <trkpt lat="48.58192" lon="7.74315">
        <ele>145.7</ele>
        <time>2020-06-28T11:04:43Z</time>
      </trkpt>
      <trkpt lat="48.58189" lon="7.74308">
        <ele>145.7</ele>
        <time>2020-06-28T11:04:44Z</time>
      </trkpt>
      <trkpt lat="48.58185" lon="7.74304">
        <ele>145.7</ele>
        <time>2020-06-28T11:04:45Z</time>
      </trkpt>
      <trkpt lat="48.58186" lon="7.74303">
        <ele>145.7</ele>
        <time>2020-06-28T11:04:46Z</time>
      </trkpt>
      <trkpt lat="48.58186" lon="7.74303">
        <ele>145.7</ele>
        <time>2020-06-28T11:04:47Z</time>
      </trkpt>
      <trkpt lat="48.58186" lon="7.74303">
        <ele>145.6</ele>
        <time>2020-06-28T11:04:48Z</time>
      </trkpt>
      <trkpt lat="48.58186" lon="7.74303">
        <ele>145.6</ele>
        <time>2020-06-28T11:04:49Z</time>
      </trkpt>
      <trkpt lat="48.58186" lon="7.74302">
        <ele>145.6</ele>
        <time>2020-06-28T11:04:50Z</time>
      </trkpt>
      <trkpt lat="48.58187" lon="7.74302">
        <ele>145.6</ele>
        <time>2020-06-28T11:04:51Z</time>
      </trkpt>
      <trkpt lat="48.58185" lon="7.743">
        <ele>145.6</ele>
        <time>2020-06-28T11:04:52Z</time>
      </trkpt>
      <trkpt lat="48.58184" lon="7.743">
        <ele>145.6</ele>
        <time>2020-06-28T11:04:53Z</time>
      </trkpt>
      <trkpt lat="48.58185" lon="7.743">
        <ele>145.6</ele>
        <time>2020-06-28T11:04:54Z</time>
      </trkpt>
      <trkpt lat="48.58185" lon="7.743">
        <ele>145.6</ele>
        <time>2020-06-28T11:04:55Z</time>
      </trkpt>
      <trkpt lat="48.58185" lon="7.743">
        <ele>145.6</ele>
        <time>2020-06-28T11:04:56Z</time>
      </trkpt>
      <trkpt lat="48.58185" lon="7.743">
        <ele>145.6</ele>
        <time>2020-06-28T11:04:57Z</time>
      </trkpt>
      <trkpt lat="48.58184" lon="7.74298">
        <ele>145.6</ele>
        <time>2020-06-28T11:04:58Z</time>
      </trkpt>
      <trkpt lat="48.58184" lon="7.74298">
        <ele>145.6</ele>
        <time>2020-06-28T11:04:59Z</time>
      </trkpt>
      <trkpt lat="48.58184" lon="7.74299">
        <ele>145.6</ele>
        <time>2020-06-28T11:05:00Z</time>
      </trkpt>
      <trkpt lat="48.58184" lon="7.74299">
        <ele>145.6</ele>
        <time>2020-06-28T11:05:01Z</time>
      </trkpt>
      <trkpt lat="48.58183" lon="7.74301">
        <ele>145.6</ele>
        <time>2020-06-28T11:05:02Z</time>
      </trkpt>
      <trkpt lat="48.58183" lon="7.74299">
        <ele>145.7</ele>
        <time>2020-06-28T11:05:03Z</time>
      </trkpt>
      <trkpt lat="48.58182" lon="7.74299">
        <ele>145.7</ele>
        <time>2020-06-28T11:05:04Z</time>
      </trkpt>
      <trkpt lat="48.58181" lon="7.74287">
        <ele>146.1</ele>
        <time>2020-06-28T11:05:05Z</time>
      </trkpt>
      <trkpt lat="48.58178" lon="7.74289">
        <ele>146.2</ele>
        <time>2020-06-28T11:05:06Z</time>
      </trkpt>
      <trkpt lat="48.58177" lon="7.74289">
        <ele>146.2</ele>
        <time>2020-06-28T11:05:07Z</time>
      </trkpt>
      <trkpt lat="48.58175" lon="7.74286">
        <ele>146.4</ele>
        <time>2020-06-28T11:05:08Z</time>
      </trkpt>
      <trkpt lat="48.58172" lon="7.74288">
        <ele>146.5</ele>
        <time>2020-06-28T11:05:09Z</time>
      </trkpt>
      <trkpt lat="48.58171" lon="7.7429">
        <ele>146.6</ele>
        <time>2020-06-28T11:05:10Z</time>
      </trkpt>
      <trkpt lat="48.58167" lon="7.7429">
        <ele>146.7</ele>
        <time>2020-06-28T11:05:11Z</time>
      </trkpt>
      <trkpt lat="48.58166" lon="7.74291">
        <ele>146.8</ele>
        <time>2020-06-28T11:05:12Z</time>
      </trkpt>
      <trkpt lat="48.58164" lon="7.7429">
        <ele>146.9</ele>
        <time>2020-06-28T11:05:13Z</time>
      </trkpt>
      <trkpt lat="48.58163" lon="7.7429">
        <ele>146.9</ele>
        <time>2020-06-28T11:05:14Z</time>
      </trkpt>
      <trkpt lat="48.58162" lon="7.74288">
        <ele>147</ele>
        <time>2020-06-28T11:05:15Z</time>
      </trkpt>
      <trkpt lat="48.58161" lon="7.74287">
        <ele>147</ele>
        <time>2020-06-28T11:05:16Z</time>
      </trkpt>
      <trkpt lat="48.58151" lon="7.74269">
        <ele>147.6</ele>
        <time>2020-06-28T11:05:59Z</time>
      </trkpt>
      <trkpt lat="48.5815" lon="7.74267">
        <ele>147.7</ele>
        <time>2020-06-28T11:06:00Z</time>
      </trkpt>
      <trkpt lat="48.58148" lon="7.74266">
        <ele>147.7</ele>
        <time>2020-06-28T11:06:01Z</time>
      </trkpt>
      <trkpt lat="48.58147" lon="7.74264">
        <ele>147.8</ele>
        <time>2020-06-28T11:06:02Z</time>
      </trkpt>
      <trkpt lat="48.58146" lon="7.74263">
        <ele>147.9</ele>
        <time>2020-06-28T11:06:03Z</time>
      </trkpt>
      <trkpt lat="48.58144" lon="7.74263">
        <ele>147.9</ele>
        <time>2020-06-28T11:06:04Z</time>
      </trkpt>
      <trkpt lat="48.58143" lon="7.74263">
        <ele>148</ele>
        <time>2020-06-28T11:06:05Z</time>
      </trkpt>
      <trkpt lat="48.58142" lon="7.74262">
        <ele>148</ele>
        <time>2020-06-28T11:06:06Z</time>
      </trkpt>
      <trkpt lat="48.58142" lon="7.74262">
        <ele>148</ele>
        <time>2020-06-28T11:06:07Z</time>
      </trkpt>
      <trkpt lat="48.58141" lon="7.74261">
        <ele>148.1</ele>
        <time>2020-06-28T11:06:08Z</time>
      </trkpt>
      <trkpt lat="48.5814" lon="7.74261">
        <ele>148.1</ele>
        <time>2020-06-28T11:06:09Z</time>
      </trkpt>
      <trkpt lat="48.5814" lon="7.74261">
        <ele>148.1</ele>
        <time>2020-06-28T11:06:10Z</time>
      </trkpt>
      <trkpt lat="48.58139" lon="7.74261">
        <ele>148.1</ele>
        <time>2020-06-28T11:06:11Z</time>
      </trkpt>
      <trkpt lat="48.5814" lon="7.74262">
        <ele>148.2</ele>
        <time>2020-06-28T11:06:12Z</time>
      </trkpt>
      <trkpt lat="48.5814" lon="7.74263">
        <ele>148.2</ele>
        <time>2020-06-28T11:06:13Z</time>
      </trkpt>
      <trkpt lat="48.58139" lon="7.74263">
        <ele>148.2</ele>
        <time>2020-06-28T11:06:14Z</time>
      </trkpt>
      <trkpt lat="48.58139" lon="7.74262">
        <ele>148.3</ele>
        <time>2020-06-28T11:06:15Z</time>
      </trkpt>
      <trkpt lat="48.58138" lon="7.74262">
        <ele>148.3</ele>
        <time>2020-06-28T11:06:16Z</time>
      </trkpt>
      <trkpt lat="48.58137" lon="7.74262">
        <ele>148.3</ele>
        <time>2020-06-28T11:06:17Z</time>
      </trkpt>
      <trkpt lat="48.58136" lon="7.74261">
        <ele>148.4</ele>
        <time>2020-06-28T11:06:18Z</time>
      </trkpt>
      <trkpt lat="48.58136" lon="7.74261">
        <ele>148.4</ele>
        <time>2020-06-28T11:06:19Z</time>
      </trkpt>
      <trkpt lat="48.58135" lon="7.74261">
        <ele>148.4</ele>
        <time>2020-06-28T11:06:20Z</time>
      </trkpt>
      <trkpt lat="48.58134" lon="7.74261">
        <ele>148.5</ele>
        <time>2020-06-28T11:06:21Z</time>
      </trkpt>
      <trkpt lat="48.58134" lon="7.74261">
        <ele>148.5</ele>
        <time>2020-06-28T11:06:22Z</time>
      </trkpt>
      <trkpt lat="48.58133" lon="7.74262">
        <ele>148.6</ele>
        <time>2020-06-28T11:06:23Z</time>
      </trkpt>
      <trkpt lat="48.58133" lon="7.74264">
        <ele>148.6</ele>
        <time>2020-06-28T11:06:24Z</time>
      </trkpt>
      <trkpt lat="48.58134" lon="7.74264">
        <ele>148.7</ele>
        <time>2020-06-28T11:06:25Z</time>
      </trkpt>
      <trkpt lat="48.58134" lon="7.74263">
        <ele>148.7</ele>
        <time>2020-06-28T11:06:26Z</time>
      </trkpt>
      <trkpt lat="48.58134" lon="7.74264">
        <ele>148.7</ele>
        <time>2020-06-28T11:06:27Z</time>
      </trkpt>
      <trkpt lat="48.58134" lon="7.74264">
        <ele>148.7</ele>
        <time>2020-06-28T11:06:28Z</time>
      </trkpt>
      <trkpt lat="48.58134" lon="7.74263">
        <ele>148.8</ele>
        <time>2020-06-28T11:06:29Z</time>
      </trkpt>
      <trkpt lat="48.58134" lon="7.74263">
        <ele>148.8</ele>
        <time>2020-06-28T11:06:30Z</time>
      </trkpt>
      <trkpt lat="48.58133" lon="7.74263">
        <ele>148.8</ele>
        <time>2020-06-28T11:06:31Z</time>
      </trkpt>
      <trkpt lat="48.58132" lon="7.74262">
        <ele>148.9</ele>
        <time>2020-06-28T11:06:32Z</time>
      </trkpt>
      <trkpt lat="48.58131" lon="7.74262">
        <ele>149</ele>
        <time>2020-06-28T11:06:33Z</time>
      </trkpt>
      <trkpt lat="48.5813" lon="7.74261">
        <ele>149</ele>
        <time>2020-06-28T11:06:34Z</time>
      </trkpt>
      <trkpt lat="48.5813" lon="7.74261">
        <ele>149.1</ele>
        <time>2020-06-28T11:06:35Z</time>
      </trkpt>
      <trkpt lat="48.58129" lon="7.74259">
        <ele>149.1</ele>
        <time>2020-06-28T11:06:36Z</time>
      </trkpt>
      <trkpt lat="48.58129" lon="7.74259">
        <ele>149.2</ele>
        <time>2020-06-28T11:06:37Z</time>
      </trkpt>
      <trkpt lat="48.58129" lon="7.74259">
        <ele>143</ele>
        <time>2020-06-28T11:06:38Z</time>
      </trkpt>
      <trkpt lat="48.58128" lon="7.74258">
        <ele>143</ele>
        <time>2020-06-28T11:06:39Z</time>
      </trkpt>
      <trkpt lat="48.58128" lon="7.74258">
        <ele>143</ele>
        <time>2020-06-28T11:06:40Z</time>
      </trkpt>
      <trkpt lat="48.58128" lon="7.74258">
        <ele>143</ele>
        <time>2020-06-28T11:06:41Z</time>
      </trkpt>
      <trkpt lat="48.58128" lon="7.74257">
        <ele>143</ele>
        <time>2020-06-28T11:06:42Z</time>
      </trkpt>
      <trkpt lat="48.58127" lon="7.74257">
        <ele>142.9</ele>
        <time>2020-06-28T11:06:43Z</time>
      </trkpt>
      <trkpt lat="48.58127" lon="7.74257">
        <ele>142.9</ele>
        <time>2020-06-28T11:06:44Z</time>
      </trkpt>
      <trkpt lat="48.58127" lon="7.74256">
        <ele>142.9</ele>
        <time>2020-06-28T11:06:45Z</time>
      </trkpt>
      <trkpt lat="48.58126" lon="7.74256">
        <ele>142.9</ele>
        <time>2020-06-28T11:06:46Z</time>
      </trkpt>
      <trkpt lat="48.58126" lon="7.74256">
        <ele>142.9</ele>
        <time>2020-06-28T11:06:47Z</time>
      </trkpt>
      <trkpt lat="48.58126" lon="7.74255">
        <ele>142.9</ele>
        <time>2020-06-28T11:06:48Z</time>
      </trkpt>
      <trkpt lat="48.58125" lon="7.74255">
        <ele>142.9</ele>
        <time>2020-06-28T11:06:49Z</time>
      </trkpt>
      <trkpt lat="48.58125" lon="7.74255">
        <ele>142.9</ele>
        <time>2020-06-28T11:06:50Z</time>
      </trkpt>
      <trkpt lat="48.58125" lon="7.74254">
        <ele>142.9</ele>
        <time>2020-06-28T11:06:51Z</time>
      </trkpt>
      <trkpt lat="48.58124" lon="7.74254">
        <ele>142.9</ele>
        <time>2020-06-28T11:06:52Z</time>
      </trkpt>
      <trkpt lat="48.58124" lon="7.74254">
        <ele>142.9</ele>
        <time>2020-06-28T11:06:53Z</time>
      </trkpt>
      <trkpt lat="48.58124" lon="7.74253">
        <ele>142.9</ele>
        <time>2020-06-28T11:06:54Z</time>
      </trkpt>
      <trkpt lat="48.58124" lon="7.74253">
        <ele>142.9</ele>
        <time>2020-06-28T11:06:55Z</time>
      </trkpt>
      <trkpt lat="48.58123" lon="7.74253">
        <ele>142.9</ele>
        <time>2020-06-28T11:06:56Z</time>
      </trkpt>
      <trkpt lat="48.58123" lon="7.74252">
        <ele>142.9</ele>
        <time>2020-06-28T11:06:57Z</time>
      </trkpt>
      <trkpt lat="48.58123" lon="7.74252">
        <ele>142.9</ele>
        <time>2020-06-28T11:06:58Z</time>
      </trkpt>
      <trkpt lat="48.58122" lon="7.74252">
        <ele>142.9</ele>
        <time>2020-06-28T11:06:59Z</time>
      </trkpt>
      <trkpt lat="48.58122" lon="7.74252">
        <ele>142.9</ele>
        <time>2020-06-28T11:07:00Z</time>
      </trkpt>
      <trkpt lat="48.58122" lon="7.74251">
        <ele>142.9</ele>
        <time>2020-06-28T11:08:16Z</time>
      </trkpt>
      <trkpt lat="48.58121" lon="7.74251">
        <ele>142.9</ele>
        <time>2020-06-28T11:08:17Z</time>
      </trkpt>
      <trkpt lat="48.58121" lon="7.74251">
        <ele>142.9</ele>
        <time>2020-06-28T11:08:18Z</time>
      </trkpt>
      <trkpt lat="48.58121" lon="7.7425">
        <ele>142.9</ele>
        <time>2020-06-28T11:08:19Z</time>
      </trkpt>
      <trkpt lat="48.58124" lon="7.74252">
        <ele>142.8</ele>
        <time>2020-06-28T11:08:20Z</time>
      </trkpt>
      <trkpt lat="48.58125" lon="7.74253">
        <ele>142.8</ele>
        <time>2020-06-28T11:08:21Z</time>
      </trkpt>
      <trkpt lat="48.58126" lon="7.74254">
        <ele>142.8</ele>
        <time>2020-06-28T11:08:22Z</time>
      </trkpt>
      <trkpt lat="48.58128" lon="7.74254">
        <ele>142.8</ele>
        <time>2020-06-28T11:08:23Z</time>
      </trkpt>
      <trkpt lat="48.58129" lon="7.74254">
        <ele>142.8</ele>
        <time>2020-06-28T11:08:24Z</time>
      </trkpt>
      <trkpt lat="48.58131" lon="7.74252">
        <ele>142.7</ele>
        <time>2020-06-28T11:08:25Z</time>
      </trkpt>
      <trkpt lat="48.58131" lon="7.74252">
        <ele>142.7</ele>
        <time>2020-06-28T11:08:26Z</time>
      </trkpt>
      <trkpt lat="48.58135" lon="7.74246">
        <ele>142.7</ele>
        <time>2020-06-28T11:08:29Z</time>
      </trkpt>
      <trkpt lat="48.58136" lon="7.74245">
        <ele>142.6</ele>
        <time>2020-06-28T11:08:30Z</time>
      </trkpt>
      <trkpt lat="48.58135" lon="7.74245">
        <ele>142.6</ele>
        <time>2020-06-28T11:08:31Z</time>
      </trkpt>
      <trkpt lat="48.58135" lon="7.74246">
        <ele>142.6</ele>
        <time>2020-06-28T11:08:32Z</time>
      </trkpt>
      <trkpt lat="48.58135" lon="7.74246">
        <ele>142.6</ele>
        <time>2020-06-28T11:08:33Z</time>
      </trkpt>
      <trkpt lat="48.58135" lon="7.74247">
        <ele>142.6</ele>
        <time>2020-06-28T11:08:34Z</time>
      </trkpt>
      <trkpt lat="48.58135" lon="7.74247">
        <ele>142.6</ele>
        <time>2020-06-28T11:08:35Z</time>
      </trkpt>
      <trkpt lat="48.58135" lon="7.74247">
        <ele>142.6</ele>
        <time>2020-06-28T11:08:36Z</time>
      </trkpt>
      <trkpt lat="48.58135" lon="7.74247">
        <ele>142.6</ele>
        <time>2020-06-28T11:08:37Z</time>
      </trkpt>
      <trkpt lat="48.58135" lon="7.74247">
        <ele>142.6</ele>
        <time>2020-06-28T11:08:38Z</time>
      </trkpt>
      <trkpt lat="48.58135" lon="7.74247">
        <ele>142.6</ele>
        <time>2020-06-28T11:08:39Z</time>
      </trkpt>
      <trkpt lat="48.58135" lon="7.74248">
        <ele>142.6</ele>
        <time>2020-06-28T11:08:40Z</time>
      </trkpt>
      <trkpt lat="48.58138" lon="7.74247">
        <ele>142.6</ele>
        <time>2020-06-28T11:08:52Z</time>
      </trkpt>
      <trkpt lat="48.58138" lon="7.74247">
        <ele>142.6</ele>
        <time>2020-06-28T11:08:53Z</time>
      </trkpt>
      <trkpt lat="48.58137" lon="7.74247">
        <ele>142.6</ele>
        <time>2020-06-28T11:08:54Z</time>
      </trkpt>
      <trkpt lat="48.58137" lon="7.74246">
        <ele>142.6</ele>
        <time>2020-06-28T11:08:55Z</time>
      </trkpt>
      <trkpt lat="48.58137" lon="7.74247">
        <ele>142.6</ele>
        <time>2020-06-28T11:08:56Z</time>
      </trkpt>
      <trkpt lat="48.58137" lon="7.74247">
        <ele>142.6</ele>
        <time>2020-06-28T11:08:57Z</time>
      </trkpt>
      <trkpt lat="48.58136" lon="7.74248">
        <ele>142.5</ele>
        <time>2020-06-28T11:08:58Z</time>
      </trkpt>
      <trkpt lat="48.58136" lon="7.74248">
        <ele>142.5</ele>
        <time>2020-06-28T11:08:59Z</time>
      </trkpt>
      <trkpt lat="48.58136" lon="7.74248">
        <ele>142.5</ele>
        <time>2020-06-28T11:09:00Z</time>
      </trkpt>
      <trkpt lat="48.58136" lon="7.74248">
        <ele>142.5</ele>
        <time>2020-06-28T11:09:01Z</time>
      </trkpt>
      <trkpt lat="48.58136" lon="7.74247">
        <ele>142.5</ele>
        <time>2020-06-28T11:09:02Z</time>
      </trkpt>
      <trkpt lat="48.58135" lon="7.74247">
        <ele>142.5</ele>
        <time>2020-06-28T11:09:03Z</time>
      </trkpt>
      <trkpt lat="48.58134" lon="7.74246">
        <ele>142.5</ele>
        <time>2020-06-28T11:09:04Z</time>
      </trkpt>
      <trkpt lat="48.58133" lon="7.74246">
        <ele>142.5</ele>
        <time>2020-06-28T11:09:05Z</time>
      </trkpt>
      <trkpt lat="48.58133" lon="7.74246">
        <ele>142.5</ele>
        <time>2020-06-28T11:09:06Z</time>
      </trkpt>
      <trkpt lat="48.58133" lon="7.74246">
        <ele>142.5</ele>
        <time>2020-06-28T11:09:07Z</time>
      </trkpt>
      <trkpt lat="48.58133" lon="7.74245">
        <ele>142.5</ele>
        <time>2020-06-28T11:09:08Z</time>
      </trkpt>
      <trkpt lat="48.58133" lon="7.74244">
        <ele>142.5</ele>
        <time>2020-06-28T11:09:09Z</time>
      </trkpt>
      <trkpt lat="48.58133" lon="7.74244">
        <ele>142.5</ele>
        <time>2020-06-28T11:09:10Z</time>
      </trkpt>
      <trkpt lat="48.58134" lon="7.74244">
        <ele>142.5</ele>
        <time>2020-06-28T11:09:11Z</time>
      </trkpt>
      <trkpt lat="48.58134" lon="7.74245">
        <ele>142.5</ele>
        <time>2020-06-28T11:09:12Z</time>
      </trkpt>
      <trkpt lat="48.58134" lon="7.74244">
        <ele>142.5</ele>
        <time>2020-06-28T11:09:13Z</time>
      </trkpt>
      <trkpt lat="48.58134" lon="7.74243">
        <ele>142.5</ele>
        <time>2020-06-28T11:09:14Z</time>
      </trkpt>
      <trkpt lat="48.58135" lon="7.74242">
        <ele>142.4</ele>
        <time>2020-06-28T11:09:15Z</time>
      </trkpt>
      <trkpt lat="48.58135" lon="7.74242">
        <ele>142.4</ele>
        <time>2020-06-28T11:09:16Z</time>
      </trkpt>
      <trkpt lat="48.58135" lon="7.74242">
        <ele>142.4</ele>
        <time>2020-06-28T11:09:17Z</time>
      </trkpt>
      <trkpt lat="48.58136" lon="7.74242">
        <ele>142.4</ele>
        <time>2020-06-28T11:09:18Z</time>
      </trkpt>
      <trkpt lat="48.58136" lon="7.74242">
        <ele>142.4</ele>
        <time>2020-06-28T11:09:19Z</time>
      </trkpt>
      <trkpt lat="48.58137" lon="7.74242">
        <ele>142.4</ele>
        <time>2020-06-28T11:09:20Z</time>
      </trkpt>
      <trkpt lat="48.58134" lon="7.74237">
        <ele>142.4</ele>
        <time>2020-06-28T11:09:39Z</time>
      </trkpt>
      <trkpt lat="48.58134" lon="7.74236">
        <ele>142.4</ele>
        <time>2020-06-28T11:09:40Z</time>
      </trkpt>
      <trkpt lat="48.58133" lon="7.74235">
        <ele>142.4</ele>
        <time>2020-06-28T11:09:41Z</time>
      </trkpt>
      <trkpt lat="48.58132" lon="7.74233">
        <ele>142.3</ele>
        <time>2020-06-28T11:09:42Z</time>
      </trkpt>
      <trkpt lat="48.58132" lon="7.74233">
        <ele>142.3</ele>
        <time>2020-06-28T11:09:43Z</time>
      </trkpt>
      <trkpt lat="48.58131" lon="7.74233">
        <ele>142.3</ele>
        <time>2020-06-28T11:09:44Z</time>
      </trkpt>
      <trkpt lat="48.58131" lon="7.74233">
        <ele>142.3</ele>
        <time>2020-06-28T11:09:45Z</time>
      </trkpt>
      <trkpt lat="48.58132" lon="7.74233">
        <ele>142.3</ele>
        <time>2020-06-28T11:09:46Z</time>
      </trkpt>
      <trkpt lat="48.58132" lon="7.74233">
        <ele>142.3</ele>
        <time>2020-06-28T11:09:47Z</time>
      </trkpt>
      <trkpt lat="48.58131" lon="7.74232">
        <ele>142.3</ele>
        <time>2020-06-28T11:09:48Z</time>
      </trkpt>
      <trkpt lat="48.58131" lon="7.74232">
        <ele>142.3</ele>
        <time>2020-06-28T11:09:49Z</time>
      </trkpt>
      <trkpt lat="48.5813" lon="7.74232">
        <ele>142.3</ele>
        <time>2020-06-28T11:09:50Z</time>
      </trkpt>
      <trkpt lat="48.5813" lon="7.74231">
        <ele>142.3</ele>
        <time>2020-06-28T11:09:51Z</time>
      </trkpt>
      <trkpt lat="48.58129" lon="7.74231">
        <ele>142.3</ele>
        <time>2020-06-28T11:09:52Z</time>
      </trkpt>
      <trkpt lat="48.58128" lon="7.74231">
        <ele>142.3</ele>
        <time>2020-06-28T11:09:53Z</time>
      </trkpt>
      <trkpt lat="48.58128" lon="7.74231">
        <ele>142.3</ele>
        <time>2020-06-28T11:09:54Z</time>
      </trkpt>
      <trkpt lat="48.58127" lon="7.74231">
        <ele>142.2</ele>
        <time>2020-06-28T11:09:55Z</time>
      </trkpt>
      <trkpt lat="48.58126" lon="7.7423">
        <ele>142.2</ele>
        <time>2020-06-28T11:09:56Z</time>
      </trkpt>
      <trkpt lat="48.58125" lon="7.74229">
        <ele>142.2</ele>
        <time>2020-06-28T11:09:57Z</time>
      </trkpt>
      <trkpt lat="48.58124" lon="7.74229">
        <ele>142.2</ele>
        <time>2020-06-28T11:09:58Z</time>
      </trkpt>
      <trkpt lat="48.58123" lon="7.74229">
        <ele>142.2</ele>
        <time>2020-06-28T11:09:59Z</time>
      </trkpt>
      <trkpt lat="48.58122" lon="7.74229">
        <ele>142.2</ele>
        <time>2020-06-28T11:10:00Z</time>
      </trkpt>
      <trkpt lat="48.58122" lon="7.7423">
        <ele>142.2</ele>
        <time>2020-06-28T11:10:01Z</time>
      </trkpt>
      <trkpt lat="48.58122" lon="7.74229">
        <ele>142.2</ele>
        <time>2020-06-28T11:10:02Z</time>
      </trkpt>
      <trkpt lat="48.58121" lon="7.74229">
        <ele>142.2</ele>
        <time>2020-06-28T11:10:03Z</time>
      </trkpt>
      <trkpt lat="48.58121" lon="7.74229">
        <ele>142.2</ele>
        <time>2020-06-28T11:10:04Z</time>
      </trkpt>
      <trkpt lat="48.58121" lon="7.74228">
        <ele>142.2</ele>
        <time>2020-06-28T11:10:05Z</time>
      </trkpt>
      <trkpt lat="48.58121" lon="7.74228">
        <ele>142.2</ele>
        <time>2020-06-28T11:10:06Z</time>
      </trkpt>
      <trkpt lat="48.58121" lon="7.74228">
        <ele>142.2</ele>
        <time>2020-06-28T11:10:07Z</time>
      </trkpt>
      <trkpt lat="48.58122" lon="7.74229">
        <ele>142.2</ele>
        <time>2020-06-28T11:10:08Z</time>
      </trkpt>
      <trkpt lat="48.58122" lon="7.74229">
        <ele>142.2</ele>
        <time>2020-06-28T11:10:09Z</time>
      </trkpt>
      <trkpt lat="48.58123" lon="7.7423">
        <ele>142.1</ele>
        <time>2020-06-28T11:10:10Z</time>
      </trkpt>
      <trkpt lat="48.58123" lon="7.7423">
        <ele>142.1</ele>
        <time>2020-06-28T11:10:11Z</time>
      </trkpt>
      <trkpt lat="48.58123" lon="7.7423">
        <ele>142.1</ele>
        <time>2020-06-28T11:10:12Z</time>
      </trkpt>
      <trkpt lat="48.58123" lon="7.7423">
        <ele>142.1</ele>
        <time>2020-06-28T11:10:13Z</time>
      </trkpt>
      <trkpt lat="48.58123" lon="7.7423">
        <ele>142.1</ele>
        <time>2020-06-28T11:10:14Z</time>
      </trkpt>
      <trkpt lat="48.58124" lon="7.7423">
        <ele>142.1</ele>
        <time>2020-06-28T11:10:15Z</time>
      </trkpt>
      <trkpt lat="48.58124" lon="7.74229">
        <ele>142.1</ele>
        <time>2020-06-28T11:10:16Z</time>
      </trkpt>
      <trkpt lat="48.58124" lon="7.74227">
        <ele>142.1</ele>
        <time>2020-06-28T11:10:17Z</time>
      </trkpt>
      <trkpt lat="48.58124" lon="7.74228">
        <ele>142.1</ele>
        <time>2020-06-28T11:10:18Z</time>
      </trkpt>
      <trkpt lat="48.58124" lon="7.74229">
        <ele>142.1</ele>
        <time>2020-06-28T11:10:19Z</time>
      </trkpt>
      <trkpt lat="48.58125" lon="7.74231">
        <ele>142.1</ele>
        <time>2020-06-28T11:10:20Z</time>
      </trkpt>
      <trkpt lat="48.58125" lon="7.7423">
        <ele>142.1</ele>
        <time>2020-06-28T11:10:21Z</time>
      </trkpt>
      <trkpt lat="48.58125" lon="7.7423">
        <ele>142.1</ele>
        <time>2020-06-28T11:10:22Z</time>
      </trkpt>
      <trkpt lat="48.58124" lon="7.74231">
        <ele>142.1</ele>
        <time>2020-06-28T11:10:23Z</time>
      </trkpt>
      <trkpt lat="48.58124" lon="7.7423">
        <ele>142.1</ele>
        <time>2020-06-28T11:10:24Z</time>
      </trkpt>
      <trkpt lat="48.58124" lon="7.7423">
        <ele>142.1</ele>
        <time>2020-06-28T11:10:25Z</time>
      </trkpt>
      <trkpt lat="48.58124" lon="7.74229">
        <ele>142.1</ele>
        <time>2020-06-28T11:10:26Z</time>
      </trkpt>
      <trkpt lat="48.58124" lon="7.7423">
        <ele>142.1</ele>
        <time>2020-06-28T11:10:27Z</time>
      </trkpt>
      <trkpt lat="48.58124" lon="7.74231">
        <ele>142.1</ele>
        <time>2020-06-28T11:10:28Z</time>
      </trkpt>
      <trkpt lat="48.58125" lon="7.74232">
        <ele>142</ele>
        <time>2020-06-28T11:10:29Z</time>
      </trkpt>
      <trkpt lat="48.58125" lon="7.74232">
        <ele>142</ele>
        <time>2020-06-28T11:10:30Z</time>
      </trkpt>
      <trkpt lat="48.58125" lon="7.74232">
        <ele>142</ele>
        <time>2020-06-28T11:10:31Z</time>
      </trkpt>
      <trkpt lat="48.58125" lon="7.74233">
        <ele>142</ele>
        <time>2020-06-28T11:10:32Z</time>
      </trkpt>
      <trkpt lat="48.58125" lon="7.74233">
        <ele>142</ele>
        <time>2020-06-28T11:10:33Z</time>
      </trkpt>
      <trkpt lat="48.58125" lon="7.74234">
        <ele>142</ele>
        <time>2020-06-28T11:10:34Z</time>
      </trkpt>
      <trkpt lat="48.58125" lon="7.74234">
        <ele>142</ele>
        <time>2020-06-28T11:10:35Z</time>
      </trkpt>
      <trkpt lat="48.58126" lon="7.74235">
        <ele>142.1</ele>
        <time>2020-06-28T11:10:36Z</time>
      </trkpt>
      <trkpt lat="48.58126" lon="7.74236">
        <ele>142.1</ele>
        <time>2020-06-28T11:10:37Z</time>
      </trkpt>
      <trkpt lat="48.58127" lon="7.74237">
        <ele>142.1</ele>
        <time>2020-06-28T11:10:38Z</time>
      </trkpt>
      <trkpt lat="48.58127" lon="7.74238">
        <ele>142.1</ele>
        <time>2020-06-28T11:10:39Z</time>
      </trkpt>
      <trkpt lat="48.58128" lon="7.74238">
        <ele>142.1</ele>
        <time>2020-06-28T11:10:40Z</time>
      </trkpt>
      <trkpt lat="48.58128" lon="7.74239">
        <ele>142.1</ele>
        <time>2020-06-28T11:10:41Z</time>
      </trkpt>
      <trkpt lat="48.58128" lon="7.74239">
        <ele>142.1</ele>
        <time>2020-06-28T11:10:42Z</time>
      </trkpt>
      <trkpt lat="48.58128" lon="7.74239">
        <ele>142.1</ele>
        <time>2020-06-28T11:10:43Z</time>
      </trkpt>
      <trkpt lat="48.58128" lon="7.7424">
        <ele>142.1</ele>
        <time>2020-06-28T11:10:44Z</time>
      </trkpt>
      <trkpt lat="48.58129" lon="7.74239">
        <ele>142.1</ele>
        <time>2020-06-28T11:10:45Z</time>
      </trkpt>
      <trkpt lat="48.58129" lon="7.74239">
        <ele>142.1</ele>
        <time>2020-06-28T11:10:46Z</time>
      </trkpt>
      <trkpt lat="48.58129" lon="7.7424">
        <ele>142.1</ele>
        <time>2020-06-28T11:10:47Z</time>
      </trkpt>
      <trkpt lat="48.58145" lon="7.74251">
        <ele>142.3</ele>
        <time>2020-06-28T11:21:35Z</time>
      </trkpt>
      <trkpt lat="48.58145" lon="7.7425">
        <ele>142.3</ele>
        <time>2020-06-28T11:21:36Z</time>
      </trkpt>
      <trkpt lat="48.58145" lon="7.7425">
        <ele>142.3</ele>
        <time>2020-06-28T11:21:37Z</time>
      </trkpt>
      <trkpt lat="48.58145" lon="7.7425">
        <ele>142.3</ele>
        <time>2020-06-28T11:21:38Z</time>
      </trkpt>
      <trkpt lat="48.58145" lon="7.74251">
        <ele>142.3</ele>
        <time>2020-06-28T11:21:39Z</time>
      </trkpt>
      <trkpt lat="48.58145" lon="7.74253">
        <ele>142.3</ele>
        <time>2020-06-28T11:21:40Z</time>
      </trkpt>
      <trkpt lat="48.58145" lon="7.74253">
        <ele>142.3</ele>
        <time>2020-06-28T11:21:41Z</time>
      </trkpt>
      <trkpt lat="48.58145" lon="7.74253">
        <ele>142.3</ele>
        <time>2020-06-28T11:21:42Z</time>
      </trkpt>
      <trkpt lat="48.58145" lon="7.74253">
        <ele>142.3</ele>
        <time>2020-06-28T11:21:43Z</time>
      </trkpt>
      <trkpt lat="48.58145" lon="7.74253">
        <ele>142.3</ele>
        <time>2020-06-28T11:21:44Z</time>
      </trkpt>
      <trkpt lat="48.58145" lon="7.74253">
        <ele>142.3</ele>
        <time>2020-06-28T11:21:45Z</time>
      </trkpt>
      <trkpt lat="48.58146" lon="7.74254">
        <ele>142.3</ele>
        <time>2020-06-28T11:21:46Z</time>
      </trkpt>
      <trkpt lat="48.58147" lon="7.74254">
        <ele>142.3</ele>
        <time>2020-06-28T11:21:47Z</time>
      </trkpt>
      <trkpt lat="48.58147" lon="7.74255">
        <ele>142.3</ele>
        <time>2020-06-28T11:21:48Z</time>
      </trkpt>
      <trkpt lat="48.58147" lon="7.74255">
        <ele>142.3</ele>
        <time>2020-06-28T11:21:49Z</time>
      </trkpt>
      <trkpt lat="48.58148" lon="7.74255">
        <ele>142.3</ele>
        <time>2020-06-28T11:21:50Z</time>
      </trkpt>
      <trkpt lat="48.58148" lon="7.74254">
        <ele>142.3</ele>
        <time>2020-06-28T11:21:51Z</time>
      </trkpt>
      <trkpt lat="48.58148" lon="7.74254">
        <ele>142.3</ele>
        <time>2020-06-28T11:21:52Z</time>
      </trkpt>
      <trkpt lat="48.58147" lon="7.74254">
        <ele>142.3</ele>
        <time>2020-06-28T11:21:53Z</time>
      </trkpt>
      <trkpt lat="48.58147" lon="7.74254">
        <ele>142.3</ele>
        <time>2020-06-28T11:21:54Z</time>
      </trkpt>
      <trkpt lat="48.58147" lon="7.74254">
        <ele>142.3</ele>
        <time>2020-06-28T11:21:55Z</time>
      </trkpt>
      <trkpt lat="48.58147" lon="7.74254">
        <ele>142.3</ele>
        <time>2020-06-28T11:21:56Z</time>
      </trkpt>
      <trkpt lat="48.58147" lon="7.74255">
        <ele>142.3</ele>
        <time>2020-06-28T11:21:57Z</time>
      </trkpt>
      <trkpt lat="48.58146" lon="7.74255">
        <ele>142.3</ele>
        <time>2020-06-28T11:21:58Z</time>
      </trkpt>
      <trkpt lat="48.58146" lon="7.74255">
        <ele>142.3</ele>
        <time>2020-06-28T11:21:59Z</time>
      </trkpt>
      <trkpt lat="48.58147" lon="7.74256">
        <ele>142.3</ele>
        <time>2020-06-28T11:22:00Z</time>
      </trkpt>
      <trkpt lat="48.58147" lon="7.74256">
        <ele>142.3</ele>
        <time>2020-06-28T11:22:01Z</time>
      </trkpt>
      <trkpt lat="48.58147" lon="7.74256">
        <ele>142.3</ele>
        <time>2020-06-28T11:22:02Z</time>
      </trkpt>
      <trkpt lat="48.58147" lon="7.74256">
        <ele>142.3</ele>
        <time>2020-06-28T11:22:03Z</time>
      </trkpt>
      <trkpt lat="48.58147" lon="7.74255">
        <ele>142.3</ele>
        <time>2020-06-28T11:22:04Z</time>
      </trkpt>
      <trkpt lat="48.5814" lon="7.7425">
        <ele>142.4</ele>
        <time>2020-06-28T11:23:03Z</time>
      </trkpt>
      <trkpt lat="48.58139" lon="7.7425">
        <ele>142.4</ele>
        <time>2020-06-28T11:23:04Z</time>
      </trkpt>
      <trkpt lat="48.58139" lon="7.74249">
        <ele>142.4</ele>
        <time>2020-06-28T11:23:05Z</time>
      </trkpt>
      <trkpt lat="48.58139" lon="7.74249">
        <ele>142.4</ele>
        <time>2020-06-28T11:23:06Z</time>
      </trkpt>
      <trkpt lat="48.58138" lon="7.74248">
        <ele>142.4</ele>
        <time>2020-06-28T11:23:07Z</time>
      </trkpt>
      <trkpt lat="48.58138" lon="7.74248">
        <ele>142.4</ele>
        <time>2020-06-28T11:23:08Z</time>
      </trkpt>
      <trkpt lat="48.58138" lon="7.74247">
        <ele>142.4</ele>
        <time>2020-06-28T11:23:09Z</time>
      </trkpt>
      <trkpt lat="48.58138" lon="7.74248">
        <ele>142.4</ele>
        <time>2020-06-28T11:23:10Z</time>
      </trkpt>
      <trkpt lat="48.58138" lon="7.74248">
        <ele>142.4</ele>
        <time>2020-06-28T11:23:11Z</time>
      </trkpt>
      <trkpt lat="48.58138" lon="7.74248">
        <ele>142.4</ele>
        <time>2020-06-28T11:23:12Z</time>
      </trkpt>
      <trkpt lat="48.58138" lon="7.74248">
        <ele>142.4</ele>
        <time>2020-06-28T11:23:13Z</time>
      </trkpt>
      <trkpt lat="48.58138" lon="7.74249">
        <ele>142.4</ele>
        <time>2020-06-28T11:23:14Z</time>
      </trkpt>
      <trkpt lat="48.58138" lon="7.74248">
        <ele>142.4</ele>
        <time>2020-06-28T11:23:15Z</time>
      </trkpt>
      <trkpt lat="48.58138" lon="7.74248">
        <ele>142.4</ele>
        <time>2020-06-28T11:23:16Z</time>
      </trkpt>
      <trkpt lat="48.58143" lon="7.74256">
        <ele>142.5</ele>
        <time>2020-06-28T11:25:52Z</time>
      </trkpt>
      <trkpt lat="48.58143" lon="7.74255">
        <ele>142.5</ele>
        <time>2020-06-28T11:25:53Z</time>
      </trkpt>
      <trkpt lat="48.58143" lon="7.74256">
        <ele>142.5</ele>
        <time>2020-06-28T11:25:54Z</time>
      </trkpt>
      <trkpt lat="48.58143" lon="7.74255">
        <ele>142.5</ele>
        <time>2020-06-28T11:25:55Z</time>
      </trkpt>
      <trkpt lat="48.58143" lon="7.74255">
        <ele>142.5</ele>
        <time>2020-06-28T11:25:56Z</time>
      </trkpt>
      <trkpt lat="48.58143" lon="7.74255">
        <ele>142.5</ele>
        <time>2020-06-28T11:25:57Z</time>
      </trkpt>
      <trkpt lat="48.58143" lon="7.74255">
        <ele>142.5</ele>
        <time>2020-06-28T11:25:58Z</time>
      </trkpt>
      <trkpt lat="48.58143" lon="7.74255">
        <ele>142.5</ele>
        <time>2020-06-28T11:25:59Z</time>
      </trkpt>
      <trkpt lat="48.58143" lon="7.74255">
        <ele>142.5</ele>
        <time>2020-06-28T11:26:00Z</time>
      </trkpt>
      <trkpt lat="48.58143" lon="7.74255">
        <ele>142.5</ele>
        <time>2020-06-28T11:26:01Z</time>
      </trkpt>
      <trkpt lat="48.58143" lon="7.74255">
        <ele>142.5</ele>
        <time>2020-06-28T11:26:02Z</time>
      </trkpt>
      <trkpt lat="48.58143" lon="7.74255">
        <ele>142.5</ele>
        <time>2020-06-28T11:26:03Z</time>
      </trkpt>
      <trkpt lat="48.58143" lon="7.74255">
        <ele>142.5</ele>
        <time>2020-06-28T11:26:04Z</time>
      </trkpt>
      <trkpt lat="48.58141" lon="7.74246">
        <ele>142.6</ele>
        <time>2020-06-28T11:27:54Z</time>
      </trkpt>
      <trkpt lat="48.58141" lon="7.74245">
        <ele>142.6</ele>
        <time>2020-06-28T11:27:55Z</time>
      </trkpt>
      <trkpt lat="48.58141" lon="7.74244">
        <ele>142.6</ele>
        <time>2020-06-28T11:27:56Z</time>
      </trkpt>
      <trkpt lat="48.5814" lon="7.74244">
        <ele>142.6</ele>
        <time>2020-06-28T11:27:57Z</time>
      </trkpt>
      <trkpt lat="48.5814" lon="7.74246">
        <ele>142.6</ele>
        <time>2020-06-28T11:27:58Z</time>
      </trkpt>
      <trkpt lat="48.5814" lon="7.74245">
        <ele>142.6</ele>
        <time>2020-06-28T11:27:59Z</time>
      </trkpt>
      <trkpt lat="48.5814" lon="7.74244">
        <ele>142.6</ele>
        <time>2020-06-28T11:28:00Z</time>
      </trkpt>
      <trkpt lat="48.5814" lon="7.74243">
        <ele>142.6</ele>
        <time>2020-06-28T11:28:01Z</time>
      </trkpt>
      <trkpt lat="48.58139" lon="7.74243">
        <ele>142.6</ele>
        <time>2020-06-28T11:28:02Z</time>
      </trkpt>
      <trkpt lat="48.5814" lon="7.74242">
        <ele>142.6</ele>
        <time>2020-06-28T11:28:03Z</time>
      </trkpt>
      <trkpt lat="48.5814" lon="7.74243">
        <ele>142.6</ele>
        <time>2020-06-28T11:28:04Z</time>
      </trkpt>
      <trkpt lat="48.5814" lon="7.74242">
        <ele>142.6</ele>
        <time>2020-06-28T11:28:05Z</time>
      </trkpt>
      <trkpt lat="48.5814" lon="7.74242">
        <ele>142.6</ele>
        <time>2020-06-28T11:28:06Z</time>
      </trkpt>
      <trkpt lat="48.58139" lon="7.74241">
        <ele>142.6</ele>
        <time>2020-06-28T11:28:07Z</time>
      </trkpt>
      <trkpt lat="48.58139" lon="7.74242">
        <ele>142.6</ele>
        <time>2020-06-28T11:28:08Z</time>
      </trkpt>
      <trkpt lat="48.58139" lon="7.74243">
        <ele>142.6</ele>
        <time>2020-06-28T11:28:09Z</time>
      </trkpt>
      <trkpt lat="48.58139" lon="7.74243">
        <ele>142.6</ele>
        <time>2020-06-28T11:28:10Z</time>
      </trkpt>
      <trkpt lat="48.58139" lon="7.74245">
        <ele>142.6</ele>
        <time>2020-06-28T11:28:11Z</time>
      </trkpt>
      <trkpt lat="48.5814" lon="7.74248">
        <ele>142.6</ele>
        <time>2020-06-28T11:34:26Z</time>
      </trkpt>
      <trkpt lat="48.58139" lon="7.74249">
        <ele>142.7</ele>
        <time>2020-06-28T11:34:27Z</time>
      </trkpt>
      <trkpt lat="48.58138" lon="7.7425">
        <ele>142.7</ele>
        <time>2020-06-28T11:34:28Z</time>
      </trkpt>
      <trkpt lat="48.58137" lon="7.74249">
        <ele>142.7</ele>
        <time>2020-06-28T11:34:29Z</time>
      </trkpt>
      <trkpt lat="48.58136" lon="7.74249">
        <ele>142.7</ele>
        <time>2020-06-28T11:34:30Z</time>
      </trkpt>
      <trkpt lat="48.58134" lon="7.74248">
        <ele>142.7</ele>
        <time>2020-06-28T11:34:31Z</time>
      </trkpt>
      <trkpt lat="48.58132" lon="7.74246">
        <ele>142.7</ele>
        <time>2020-06-28T11:34:32Z</time>
      </trkpt>
      <trkpt lat="48.58131" lon="7.74245">
        <ele>142.7</ele>
        <time>2020-06-28T11:34:33Z</time>
      </trkpt>
      <trkpt lat="48.5813" lon="7.74243">
        <ele>142.7</ele>
        <time>2020-06-28T11:34:34Z</time>
      </trkpt>
      <trkpt lat="48.58128" lon="7.74242">
        <ele>142.8</ele>
        <time>2020-06-28T11:34:35Z</time>
      </trkpt>
      <trkpt lat="48.58127" lon="7.74241">
        <ele>142.8</ele>
        <time>2020-06-28T11:34:36Z</time>
      </trkpt>
      <trkpt lat="48.58126" lon="7.7424">
        <ele>142.8</ele>
        <time>2020-06-28T11:34:37Z</time>
      </trkpt>
      <trkpt lat="48.58125" lon="7.74239">
        <ele>142.8</ele>
        <time>2020-06-28T11:34:38Z</time>
      </trkpt>
      <trkpt lat="48.58123" lon="7.74238">
        <ele>142.8</ele>
        <time>2020-06-28T11:34:39Z</time>
      </trkpt>
      <trkpt lat="48.58123" lon="7.74237">
        <ele>142.8</ele>
        <time>2020-06-28T11:34:40Z</time>
      </trkpt>
      <trkpt lat="48.58122" lon="7.74236">
        <ele>142.8</ele>
        <time>2020-06-28T11:34:41Z</time>
      </trkpt>
      <trkpt lat="48.58121" lon="7.74235">
        <ele>142.8</ele>
        <time>2020-06-28T11:34:42Z</time>
      </trkpt>
      <trkpt lat="48.58121" lon="7.74234">
        <ele>142.8</ele>
        <time>2020-06-28T11:34:43Z</time>
      </trkpt>
      <trkpt lat="48.58121" lon="7.74235">
        <ele>142.8</ele>
        <time>2020-06-28T11:34:44Z</time>
      </trkpt>
      <trkpt lat="48.58122" lon="7.74235">
        <ele>142.8</ele>
        <time>2020-06-28T11:34:45Z</time>
      </trkpt>
      <trkpt lat="48.58122" lon="7.74235">
        <ele>142.8</ele>
        <time>2020-06-28T11:34:46Z</time>
      </trkpt>
      <trkpt lat="48.58122" lon="7.74235">
        <ele>142.8</ele>
        <time>2020-06-28T11:34:47Z</time>
      </trkpt>
      <trkpt lat="48.58123" lon="7.74235">
        <ele>142.8</ele>
        <time>2020-06-28T11:34:48Z</time>
      </trkpt>
      <trkpt lat="48.58123" lon="7.74235">
        <ele>142.8</ele>
        <time>2020-06-28T11:34:49Z</time>
      </trkpt>
      <trkpt lat="48.58123" lon="7.74235">
        <ele>142.8</ele>
        <time>2020-06-28T11:34:50Z</time>
      </trkpt>
      <trkpt lat="48.58124" lon="7.74235">
        <ele>142.8</ele>
        <time>2020-06-28T11:34:51Z</time>
      </trkpt>
      <trkpt lat="48.58124" lon="7.74235">
        <ele>142.9</ele>
        <time>2020-06-28T11:34:52Z</time>
      </trkpt>
      <trkpt lat="48.58125" lon="7.74235">
        <ele>142.9</ele>
        <time>2020-06-28T11:34:53Z</time>
      </trkpt>
      <trkpt lat="48.58125" lon="7.74236">
        <ele>142.9</ele>
        <time>2020-06-28T11:34:54Z</time>
      </trkpt>
      <trkpt lat="48.58125" lon="7.74236">
        <ele>142.9</ele>
        <time>2020-06-28T11:34:55Z</time>
      </trkpt>
      <trkpt lat="48.58126" lon="7.74236">
        <ele>142.9</ele>
        <time>2020-06-28T11:34:56Z</time>
      </trkpt>
      <trkpt lat="48.58126" lon="7.74236">
        <ele>142.9</ele>
        <time>2020-06-28T11:35:56Z</time>
      </trkpt>
      <trkpt lat="48.58126" lon="7.74236">
        <ele>142.9</ele>
        <time>2020-06-28T11:35:57Z</time>
      </trkpt>
      <trkpt lat="48.58127" lon="7.74236">
        <ele>142.9</ele>
        <time>2020-06-28T11:35:58Z</time>
      </trkpt>
      <trkpt lat="48.58127" lon="7.74236">
        <ele>142.9</ele>
        <time>2020-06-28T11:35:59Z</time>
      </trkpt>
      <trkpt lat="48.58127" lon="7.74236">
        <ele>142.9</ele>
        <time>2020-06-28T11:36:00Z</time>
      </trkpt>
      <trkpt lat="48.58127" lon="7.74236">
        <ele>142.9</ele>
        <time>2020-06-28T11:36:01Z</time>
      </trkpt>
      <trkpt lat="48.58127" lon="7.74236">
        <ele>142.9</ele>
        <time>2020-06-28T11:36:02Z</time>
      </trkpt>
      <trkpt lat="48.58127" lon="7.74236">
        <ele>142.9</ele>
        <time>2020-06-28T11:36:03Z</time>
      </trkpt>
      <trkpt lat="48.58127" lon="7.74236">
        <ele>142.9</ele>
        <time>2020-06-28T11:36:04Z</time>
      </trkpt>
      <trkpt lat="48.58127" lon="7.74236">
        <ele>142.9</ele>
        <time>2020-06-28T11:36:05Z</time>
      </trkpt>
      <trkpt lat="48.58126" lon="7.74236">
        <ele>142.9</ele>
        <time>2020-06-28T11:36:06Z</time>
      </trkpt>
      <trkpt lat="48.58134" lon="7.74247">
        <ele>143</ele>
        <time>2020-06-28T11:38:14Z</time>
      </trkpt>
      <trkpt lat="48.58134" lon="7.74245">
        <ele>143</ele>
        <time>2020-06-28T11:38:15Z</time>
      </trkpt>
      <trkpt lat="48.58133" lon="7.74244">
        <ele>143</ele>
        <time>2020-06-28T11:38:16Z</time>
      </trkpt>
      <trkpt lat="48.58133" lon="7.74244">
        <ele>143</ele>
        <time>2020-06-28T11:38:17Z</time>
      </trkpt>
      <trkpt lat="48.58133" lon="7.74245">
        <ele>143</ele>
        <time>2020-06-28T11:38:18Z</time>
      </trkpt>
      <trkpt lat="48.58133" lon="7.74245">
        <ele>143</ele>
        <time>2020-06-28T11:38:19Z</time>
      </trkpt>
      <trkpt lat="48.58134" lon="7.74246">
        <ele>143</ele>
        <time>2020-06-28T11:38:20Z</time>
      </trkpt>
      <trkpt lat="48.58134" lon="7.74246">
        <ele>143</ele>
        <time>2020-06-28T11:38:21Z</time>
      </trkpt>
      <trkpt lat="48.58134" lon="7.74246">
        <ele>143</ele>
        <time>2020-06-28T11:38:22Z</time>
      </trkpt>
      <trkpt lat="48.58133" lon="7.74246">
        <ele>143</ele>
        <time>2020-06-28T11:38:23Z</time>
      </trkpt>
      <trkpt lat="48.58134" lon="7.74246">
        <ele>143</ele>
        <time>2020-06-28T11:38:24Z</time>
      </trkpt>
      <trkpt lat="48.58134" lon="7.74247">
        <ele>143</ele>
        <time>2020-06-28T11:38:25Z</time>
      </trkpt>
      <trkpt lat="48.58134" lon="7.74247">
        <ele>143</ele>
        <time>2020-06-28T11:38:26Z</time>
      </trkpt>
      <trkpt lat="48.58134" lon="7.74248">
        <ele>143</ele>
        <time>2020-06-28T11:38:27Z</time>
      </trkpt>
      <trkpt lat="48.58134" lon="7.74249">
        <ele>143</ele>
        <time>2020-06-28T11:38:28Z</time>
      </trkpt>
      <trkpt lat="48.58133" lon="7.74245">
        <ele>143</ele>
        <time>2020-06-28T11:38:47Z</time>
      </trkpt>
      <trkpt lat="48.58133" lon="7.74244">
        <ele>143</ele>
        <time>2020-06-28T11:38:48Z</time>
      </trkpt>
      <trkpt lat="48.58133" lon="7.74245">
        <ele>143</ele>
        <time>2020-06-28T11:38:49Z</time>
      </trkpt>
      <trkpt lat="48.58133" lon="7.74245">
        <ele>143</ele>
        <time>2020-06-28T11:38:50Z</time>
      </trkpt>
      <trkpt lat="48.58133" lon="7.74244">
        <ele>143</ele>
        <time>2020-06-28T11:38:51Z</time>
      </trkpt>
      <trkpt lat="48.58133" lon="7.74244">
        <ele>143.1</ele>
        <time>2020-06-28T11:38:52Z</time>
      </trkpt>
      <trkpt lat="48.58133" lon="7.74245">
        <ele>143.1</ele>
        <time>2020-06-28T11:38:53Z</time>
      </trkpt>
      <trkpt lat="48.58134" lon="7.74245">
        <ele>143.1</ele>
        <time>2020-06-28T11:38:54Z</time>
      </trkpt>
      <trkpt lat="48.58135" lon="7.74245">
        <ele>143.1</ele>
        <time>2020-06-28T11:38:55Z</time>
      </trkpt>
      <trkpt lat="48.58134" lon="7.74245">
        <ele>143.1</ele>
        <time>2020-06-28T11:38:56Z</time>
      </trkpt>
      <trkpt lat="48.58135" lon="7.74245">
        <ele>143.1</ele>
        <time>2020-06-28T11:38:57Z</time>
      </trkpt>
      <trkpt lat="48.58135" lon="7.74245">
        <ele>143.1</ele>
        <time>2020-06-28T11:38:58Z</time>
      </trkpt>
      <trkpt lat="48.58136" lon="7.74253">
        <ele>143.1</ele>
        <time>2020-06-28T12:06:56Z</time>
      </trkpt>
      <trkpt lat="48.58136" lon="7.74254">
        <ele>143.1</ele>
        <time>2020-06-28T12:06:57Z</time>
      </trkpt>
      <trkpt lat="48.58137" lon="7.74255">
        <ele>143.1</ele>
        <time>2020-06-28T12:06:58Z</time>
      </trkpt>
      <trkpt lat="48.58137" lon="7.74256">
        <ele>143.1</ele>
        <time>2020-06-28T12:06:59Z</time>
      </trkpt>
      <trkpt lat="48.58137" lon="7.74257">
        <ele>143.1</ele>
        <time>2020-06-28T12:07:00Z</time>
      </trkpt>
      <trkpt lat="48.58137" lon="7.74257">
        <ele>143.1</ele>
        <time>2020-06-28T12:07:01Z</time>
      </trkpt>
      <trkpt lat="48.58137" lon="7.74257">
        <ele>143.1</ele>
        <time>2020-06-28T12:07:02Z</time>
      </trkpt>
      <trkpt lat="48.58138" lon="7.74257">
        <ele>143.2</ele>
        <time>2020-06-28T12:07:03Z</time>
      </trkpt>
      <trkpt lat="48.58137" lon="7.74257">
        <ele>143.2</ele>
        <time>2020-06-28T12:07:04Z</time>
      </trkpt>
      <trkpt lat="48.58137" lon="7.74257">
        <ele>143.2</ele>
        <time>2020-06-28T12:07:05Z</time>
      </trkpt>
      <trkpt lat="48.58137" lon="7.74256">
        <ele>143.2</ele>
        <time>2020-06-28T12:07:06Z</time>
      </trkpt>
      <trkpt lat="48.58136" lon="7.74255">
        <ele>143.2</ele>
        <time>2020-06-28T12:07:07Z</time>
      </trkpt>
      <trkpt lat="48.58136" lon="7.74255">
        <ele>143.2</ele>
        <time>2020-06-28T12:07:08Z</time>
      </trkpt>
      <trkpt lat="48.58136" lon="7.74255">
        <ele>143.2</ele>
        <time>2020-06-28T12:07:09Z</time>
      </trkpt>
      <trkpt lat="48.58131" lon="7.74248">
        <ele>143.1</ele>
        <time>2020-06-28T12:26:29Z</time>
      </trkpt>
      <trkpt lat="48.58132" lon="7.74247">
        <ele>143.1</ele>
        <time>2020-06-28T12:26:30Z</time>
      </trkpt>
      <trkpt lat="48.58132" lon="7.74246">
        <ele>143.1</ele>
        <time>2020-06-28T12:26:31Z</time>
      </trkpt>
      <trkpt lat="48.58132" lon="7.74246">
        <ele>143.1</ele>
        <time>2020-06-28T12:26:32Z</time>
      </trkpt>
      <trkpt lat="48.58132" lon="7.74246">
        <ele>143.1</ele>
        <time>2020-06-28T12:26:33Z</time>
      </trkpt>
      <trkpt lat="48.58132" lon="7.74246">
        <ele>143.1</ele>
        <time>2020-06-28T12:26:34Z</time>
      </trkpt>
      <trkpt lat="48.58132" lon="7.74246">
        <ele>143.1</ele>
        <time>2020-06-28T12:26:35Z</time>
      </trkpt>
      <trkpt lat="48.58132" lon="7.74246">
        <ele>143.1</ele>
        <time>2020-06-28T12:26:36Z</time>
      </trkpt>
      <trkpt lat="48.58132" lon="7.74246">
        <ele>143.1</ele>
        <time>2020-06-28T12:26:37Z</time>
      </trkpt>
      <trkpt lat="48.58132" lon="7.74246">
        <ele>143.1</ele>
        <time>2020-06-28T12:26:38Z</time>
      </trkpt>
      <trkpt lat="48.58132" lon="7.74246">
        <ele>143.1</ele>
        <time>2020-06-28T12:26:39Z</time>
      </trkpt>
      <trkpt lat="48.58132" lon="7.74246">
        <ele>143.1</ele>
        <time>2020-06-28T12:26:40Z</time>
      </trkpt>
      <trkpt lat="48.58132" lon="7.74246">
        <ele>143.1</ele>
        <time>2020-06-28T12:26:41Z</time>
      </trkpt>
      <trkpt lat="48.58132" lon="7.74246">
        <ele>143.1</ele>
        <time>2020-06-28T12:26:42Z</time>
      </trkpt>
      <trkpt lat="48.58139" lon="7.74251">
        <ele>143.1</ele>
        <time>2020-06-28T12:44:26Z</time>
      </trkpt>
      <trkpt lat="48.58138" lon="7.74251">
        <ele>143.2</ele>
        <time>2020-06-28T12:44:27Z</time>
      </trkpt>
      <trkpt lat="48.58137" lon="7.74251">
        <ele>143.2</ele>
        <time>2020-06-28T12:44:28Z</time>
      </trkpt>
      <trkpt lat="48.58136" lon="7.7425">
        <ele>143.1</ele>
        <time>2020-06-28T12:44:29Z</time>
      </trkpt>
      <trkpt lat="48.58136" lon="7.7425">
        <ele>143.1</ele>
        <time>2020-06-28T12:44:30Z</time>
      </trkpt>
      <trkpt lat="48.58136" lon="7.7425">
        <ele>143.1</ele>
        <time>2020-06-28T12:44:31Z</time>
      </trkpt>
      <trkpt lat="48.58136" lon="7.7425">
        <ele>143.1</ele>
        <time>2020-06-28T12:44:32Z</time>
      </trkpt>
      <trkpt lat="48.58135" lon="7.7425">
        <ele>143.1</ele>
        <time>2020-06-28T12:44:33Z</time>
      </trkpt>
      <trkpt lat="48.58135" lon="7.7425">
        <ele>143.1</ele>
        <time>2020-06-28T12:44:34Z</time>
      </trkpt>
      <trkpt lat="48.58135" lon="7.7425">
        <ele>143.1</ele>
        <time>2020-06-28T12:44:35Z</time>
      </trkpt>
      <trkpt lat="48.58136" lon="7.7425">
        <ele>143.1</ele>
        <time>2020-06-28T12:44:36Z</time>
      </trkpt>
      <trkpt lat="48.58136" lon="7.7425">
        <ele>143.1</ele>
        <time>2020-06-28T12:44:37Z</time>
      </trkpt>
      <trkpt lat="48.58136" lon="7.7425">
        <ele>143.1</ele>
        <time>2020-06-28T12:44:38Z</time>
      </trkpt>
      <trkpt lat="48.58136" lon="7.7425">
        <ele>143.1</ele>
        <time>2020-06-28T12:44:39Z</time>
      </trkpt>
      <trkpt lat="48.58136" lon="7.7425">
        <ele>143.1</ele>
        <time>2020-06-28T12:44:40Z</time>
      </trkpt>
      <trkpt lat="48.58136" lon="7.7425">
        <ele>143.1</ele>
        <time>2020-06-28T12:44:41Z</time>
      </trkpt>
      <trkpt lat="48.58136" lon="7.7425">
        <ele>143.1</ele>
        <time>2020-06-28T12:44:42Z</time>
      </trkpt>
      <trkpt lat="48.58136" lon="7.7425">
        <ele>143.1</ele>
        <time>2020-06-28T12:44:43Z</time>
      </trkpt>
      <trkpt lat="48.58136" lon="7.7425">
        <ele>143.1</ele>
        <time>2020-06-28T12:44:44Z</time>
      </trkpt>
      <trkpt lat="48.58137" lon="7.74254">
        <ele>143.2</ele>
        <time>2020-06-28T12:50:20Z</time>
      </trkpt>
      <trkpt lat="48.58137" lon="7.74255">
        <ele>143.2</ele>
        <time>2020-06-28T12:50:21Z</time>
      </trkpt>
      <trkpt lat="48.58137" lon="7.74256">
        <ele>143.2</ele>
        <time>2020-06-28T12:50:22Z</time>
      </trkpt>
      <trkpt lat="48.58138" lon="7.74256">
        <ele>143.2</ele>
        <time>2020-06-28T12:50:23Z</time>
      </trkpt>
      <trkpt lat="48.58139" lon="7.74257">
        <ele>143.2</ele>
        <time>2020-06-28T12:50:24Z</time>
      </trkpt>
      <trkpt lat="48.58139" lon="7.74256">
        <ele>143.2</ele>
        <time>2020-06-28T12:50:25Z</time>
      </trkpt>
      <trkpt lat="48.58139" lon="7.74255">
        <ele>143.2</ele>
        <time>2020-06-28T12:50:26Z</time>
      </trkpt>
      <trkpt lat="48.58139" lon="7.74255">
        <ele>143.2</ele>
        <time>2020-06-28T12:50:27Z</time>
      </trkpt>
      <trkpt lat="48.58139" lon="7.74255">
        <ele>143.2</ele>
        <time>2020-06-28T12:50:28Z</time>
      </trkpt>
      <trkpt lat="48.58139" lon="7.74255">
        <ele>143.2</ele>
        <time>2020-06-28T12:50:29Z</time>
      </trkpt>
      <trkpt lat="48.58139" lon="7.74255">
        <ele>143.2</ele>
        <time>2020-06-28T12:50:30Z</time>
      </trkpt>
      <trkpt lat="48.58139" lon="7.74255">
        <ele>143.2</ele>
        <time>2020-06-28T12:50:31Z</time>
      </trkpt>
      <trkpt lat="48.58139" lon="7.74256">
        <ele>143.2</ele>
        <time>2020-06-28T12:50:32Z</time>
      </trkpt>
      <trkpt lat="48.58139" lon="7.74256">
        <ele>143.2</ele>
        <time>2020-06-28T12:50:33Z</time>
      </trkpt>
      <trkpt lat="48.58139" lon="7.74257">
        <ele>143.2</ele>
        <time>2020-06-28T12:50:34Z</time>
      </trkpt>
      <trkpt lat="48.58138" lon="7.74257">
        <ele>143.2</ele>
        <time>2020-06-28T12:50:35Z</time>
      </trkpt>
      <trkpt lat="48.58138" lon="7.74257">
        <ele>143.2</ele>
        <time>2020-06-28T12:50:36Z</time>
      </trkpt>
      <trkpt lat="48.58138" lon="7.74257">
        <ele>143.2</ele>
        <time>2020-06-28T12:50:37Z</time>
      </trkpt>
      <trkpt lat="48.58138" lon="7.74255">
        <ele>143.2</ele>
        <time>2020-06-28T12:50:38Z</time>
      </trkpt>
      <trkpt lat="48.58138" lon="7.74253">
        <ele>143.2</ele>
        <time>2020-06-28T12:50:39Z</time>
      </trkpt>
      <trkpt lat="48.58138" lon="7.74252">
        <ele>143.2</ele>
        <time>2020-06-28T12:50:40Z</time>
      </trkpt>
      <trkpt lat="48.58138" lon="7.74251">
        <ele>143.2</ele>
        <time>2020-06-28T12:50:41Z</time>
      </trkpt>
      <trkpt lat="48.58138" lon="7.74251">
        <ele>143.1</ele>
        <time>2020-06-28T12:50:42Z</time>
      </trkpt>
      <trkpt lat="48.58138" lon="7.7425">
        <ele>143.1</ele>
        <time>2020-06-28T12:50:43Z</time>
      </trkpt>
      <trkpt lat="48.58139" lon="7.74249">
        <ele>143.1</ele>
        <time>2020-06-28T12:50:44Z</time>
      </trkpt>
      <trkpt lat="48.58139" lon="7.74249">
        <ele>143.1</ele>
        <time>2020-06-28T12:50:45Z</time>
      </trkpt>
      <trkpt lat="48.58139" lon="7.74249">
        <ele>143.1</ele>
        <time>2020-06-28T12:50:46Z</time>
      </trkpt>
      <trkpt lat="48.58139" lon="7.74249">
        <ele>143.1</ele>
        <time>2020-06-28T12:50:47Z</time>
      </trkpt>
      <trkpt lat="48.58139" lon="7.74249">
        <ele>143.1</ele>
        <time>2020-06-28T12:50:48Z</time>
      </trkpt>
      <trkpt lat="48.58138" lon="7.74249">
        <ele>143.1</ele>
        <time>2020-06-28T12:50:49Z</time>
      </trkpt>
      <trkpt lat="48.58139" lon="7.74249">
        <ele>143.1</ele>
        <time>2020-06-28T12:50:50Z</time>
      </trkpt>
      <trkpt lat="48.58137" lon="7.74254">
        <ele>143.2</ele>
        <time>2020-06-28T13:05:29Z</time>
      </trkpt>
      <trkpt lat="48.58137" lon="7.74255">
        <ele>143.2</ele>
        <time>2020-06-28T13:05:30Z</time>
      </trkpt>
      <trkpt lat="48.58137" lon="7.74258">
        <ele>143.2</ele>
        <time>2020-06-28T13:05:31Z</time>
      </trkpt>
      <trkpt lat="48.58138" lon="7.74257">
        <ele>143.2</ele>
        <time>2020-06-28T13:05:32Z</time>
      </trkpt>
      <trkpt lat="48.58138" lon="7.74257">
        <ele>143.2</ele>
        <time>2020-06-28T13:05:33Z</time>
      </trkpt>
      <trkpt lat="48.58138" lon="7.74257">
        <ele>143.2</ele>
        <time>2020-06-28T13:05:34Z</time>
      </trkpt>
      <trkpt lat="48.58138" lon="7.74258">
        <ele>143.2</ele>
        <time>2020-06-28T13:05:35Z</time>
      </trkpt>
      <trkpt lat="48.58138" lon="7.74259">
        <ele>143.2</ele>
        <time>2020-06-28T13:05:36Z</time>
      </trkpt>
      <trkpt lat="48.58139" lon="7.7426">
        <ele>143.2</ele>
        <time>2020-06-28T13:05:37Z</time>
      </trkpt>
      <trkpt lat="48.58139" lon="7.7426">
        <ele>143.2</ele>
        <time>2020-06-28T13:05:38Z</time>
      </trkpt>
      <trkpt lat="48.58139" lon="7.74259">
        <ele>143.2</ele>
        <time>2020-06-28T13:05:39Z</time>
      </trkpt>
      <trkpt lat="48.58139" lon="7.74259">
        <ele>143.2</ele>
        <time>2020-06-28T13:05:40Z</time>
      </trkpt>
      <trkpt lat="48.58139" lon="7.74259">
        <ele>143.2</ele>
        <time>2020-06-28T13:05:41Z</time>
      </trkpt>
      <trkpt lat="48.5814" lon="7.74259">
        <ele>143.2</ele>
        <time>2020-06-28T13:05:42Z</time>
      </trkpt>
      <trkpt lat="48.5814" lon="7.74261">
        <ele>143.2</ele>
        <time>2020-06-28T13:05:43Z</time>
      </trkpt>
      <trkpt lat="48.58134" lon="7.74263">
        <ele>143.2</ele>
        <time>2020-06-28T13:08:30Z</time>
      </trkpt>
      <trkpt lat="48.58133" lon="7.74263">
        <ele>143.2</ele>
        <time>2020-06-28T13:08:31Z</time>
      </trkpt>
      <trkpt lat="48.58132" lon="7.74263">
        <ele>143.2</ele>
        <time>2020-06-28T13:08:32Z</time>
      </trkpt>
      <trkpt lat="48.58132" lon="7.74263">
        <ele>143.2</ele>
        <time>2020-06-28T13:08:33Z</time>
      </trkpt>
      <trkpt lat="48.58133" lon="7.74263">
        <ele>143.2</ele>
        <time>2020-06-28T13:08:34Z</time>
      </trkpt>
      <trkpt lat="48.58133" lon="7.74263">
        <ele>143.2</ele>
        <time>2020-06-28T13:08:35Z</time>
      </trkpt>
      <trkpt lat="48.58133" lon="7.74263">
        <ele>143.2</ele>
        <time>2020-06-28T13:08:36Z</time>
      </trkpt>
      <trkpt lat="48.58133" lon="7.74263">
        <ele>143.2</ele>
        <time>2020-06-28T13:08:37Z</time>
      </trkpt>
      <trkpt lat="48.58133" lon="7.74263">
        <ele>143.2</ele>
        <time>2020-06-28T13:08:38Z</time>
      </trkpt>
      <trkpt lat="48.58133" lon="7.74263">
        <ele>143.2</ele>
        <time>2020-06-28T13:08:39Z</time>
      </trkpt>
      <trkpt lat="48.58133" lon="7.74263">
        <ele>143.2</ele>
        <time>2020-06-28T13:08:40Z</time>
      </trkpt>
      <trkpt lat="48.58133" lon="7.74263">
        <ele>143.2</ele>
        <time>2020-06-28T13:08:41Z</time>
      </trkpt>
      <trkpt lat="48.58133" lon="7.74263">
        <ele>143.2</ele>
        <time>2020-06-28T13:08:42Z</time>
      </trkpt>
      <trkpt lat="48.58133" lon="7.74263">
        <ele>143.2</ele>
        <time>2020-06-28T13:08:43Z</time>
      </trkpt>
      <trkpt lat="48.58133" lon="7.74262">
        <ele>143.2</ele>
        <time>2020-06-28T13:08:44Z</time>
      </trkpt>
      <trkpt lat="48.5814" lon="7.74245">
        <ele>143.1</ele>
        <time>2020-06-28T13:10:46Z</time>
      </trkpt>
      <trkpt lat="48.5814" lon="7.74243">
        <ele>143.1</ele>
        <time>2020-06-28T13:10:47Z</time>
      </trkpt>
      <trkpt lat="48.58141" lon="7.74242">
        <ele>143.1</ele>
        <time>2020-06-28T13:10:48Z</time>
      </trkpt>
      <trkpt lat="48.58141" lon="7.74241">
        <ele>143.1</ele>
        <time>2020-06-28T13:10:49Z</time>
      </trkpt>
      <trkpt lat="48.5814" lon="7.74239">
        <ele>143.1</ele>
        <time>2020-06-28T13:10:50Z</time>
      </trkpt>
      <trkpt lat="48.5814" lon="7.74238">
        <ele>143.1</ele>
        <time>2020-06-28T13:10:51Z</time>
      </trkpt>
      <trkpt lat="48.58139" lon="7.74238">
        <ele>143.1</ele>
        <time>2020-06-28T13:10:52Z</time>
      </trkpt>
      <trkpt lat="48.58139" lon="7.74237">
        <ele>143.1</ele>
        <time>2020-06-28T13:10:53Z</time>
      </trkpt>
      <trkpt lat="48.58138" lon="7.74234">
        <ele>143.1</ele>
        <time>2020-06-28T13:10:54Z</time>
      </trkpt>
      <trkpt lat="48.58138" lon="7.74233">
        <ele>143</ele>
        <time>2020-06-28T13:10:55Z</time>
      </trkpt>
      <trkpt lat="48.58137" lon="7.74229">
        <ele>143</ele>
        <time>2020-06-28T13:10:56Z</time>
      </trkpt>
      <trkpt lat="48.58136" lon="7.74229">
        <ele>142.9</ele>
        <time>2020-06-28T13:10:57Z</time>
      </trkpt>
      <trkpt lat="48.58136" lon="7.74228">
        <ele>142.9</ele>
        <time>2020-06-28T13:10:58Z</time>
      </trkpt>
      <trkpt lat="48.58136" lon="7.74227">
        <ele>142.9</ele>
        <time>2020-06-28T13:10:59Z</time>
      </trkpt>
      <trkpt lat="48.58136" lon="7.74227">
        <ele>142.9</ele>
        <time>2020-06-28T13:11:00Z</time>
      </trkpt>
      <trkpt lat="48.58136" lon="7.74226">
        <ele>142.9</ele>
        <time>2020-06-28T13:11:01Z</time>
      </trkpt>
      <trkpt lat="48.58136" lon="7.74224">
        <ele>142.8</ele>
        <time>2020-06-28T13:11:02Z</time>
      </trkpt>
      <trkpt lat="48.58135" lon="7.74223">
        <ele>142.8</ele>
        <time>2020-06-28T13:11:03Z</time>
      </trkpt>
      <trkpt lat="48.58136" lon="7.7422">
        <ele>142.7</ele>
        <time>2020-06-28T13:11:04Z</time>
      </trkpt>
      <trkpt lat="48.58136" lon="7.74219">
        <ele>142.7</ele>
        <time>2020-06-28T13:11:05Z</time>
      </trkpt>
      <trkpt lat="48.58139" lon="7.74214">
        <ele>142.6</ele>
        <time>2020-06-28T13:11:06Z</time>
      </trkpt>
      <trkpt lat="48.5814" lon="7.74213">
        <ele>142.6</ele>
        <time>2020-06-28T13:11:07Z</time>
      </trkpt>
      <trkpt lat="48.58141" lon="7.7421">
        <ele>142.6</ele>
        <time>2020-06-28T13:11:08Z</time>
      </trkpt>
      <trkpt lat="48.58142" lon="7.74209">
        <ele>142.6</ele>
        <time>2020-06-28T13:11:09Z</time>
      </trkpt>
      <trkpt lat="48.58142" lon="7.74208">
        <ele>142.5</ele>
        <time>2020-06-28T13:11:10Z</time>
      </trkpt>
      <trkpt lat="48.58143" lon="7.74206">
        <ele>142.5</ele>
        <time>2020-06-28T13:11:11Z</time>
      </trkpt>
      <trkpt lat="48.58143" lon="7.74205">
        <ele>142.5</ele>
        <time>2020-06-28T13:11:12Z</time>
      </trkpt>
      <trkpt lat="48.58144" lon="7.74204">
        <ele>142.5</ele>
        <time>2020-06-28T13:11:13Z</time>
      </trkpt>
      <trkpt lat="48.58146" lon="7.742">
        <ele>142.5</ele>
        <time>2020-06-28T13:11:14Z</time>
      </trkpt>
      <trkpt lat="48.58147" lon="7.74199">
        <ele>142.5</ele>
        <time>2020-06-28T13:11:15Z</time>
      </trkpt>
      <trkpt lat="48.58149" lon="7.74195">
        <ele>142.5</ele>
        <time>2020-06-28T13:11:16Z</time>
      </trkpt>
      <trkpt lat="48.5815" lon="7.74193">
        <ele>142.5</ele>
        <time>2020-06-28T13:11:17Z</time>
      </trkpt>
      <trkpt lat="48.58151" lon="7.74192">
        <ele>142.5</ele>
        <time>2020-06-28T13:11:18Z</time>
      </trkpt>
      <trkpt lat="48.58154" lon="7.74187">
        <ele>142.5</ele>
        <time>2020-06-28T13:11:19Z</time>
      </trkpt>
      <trkpt lat="48.58155" lon="7.74186">
        <ele>142.4</ele>
        <time>2020-06-28T13:11:20Z</time>
      </trkpt>
      <trkpt lat="48.58156" lon="7.74184">
        <ele>142.4</ele>
        <time>2020-06-28T13:11:21Z</time>
      </trkpt>
      <trkpt lat="48.58157" lon="7.74183">
        <ele>142.4</ele>
        <time>2020-06-28T13:11:22Z</time>
      </trkpt>
      <trkpt lat="48.58158" lon="7.74182">
        <ele>142.4</ele>
        <time>2020-06-28T13:11:23Z</time>
      </trkpt>
      <trkpt lat="48.58159" lon="7.7418">
        <ele>142.4</ele>
        <time>2020-06-28T13:11:24Z</time>
      </trkpt>
      <trkpt lat="48.5816" lon="7.74179">
        <ele>142.4</ele>
        <time>2020-06-28T13:11:25Z</time>
      </trkpt>
      <trkpt lat="48.58161" lon="7.74177">
        <ele>142.4</ele>
        <time>2020-06-28T13:11:26Z</time>
      </trkpt>
      <trkpt lat="48.58163" lon="7.74176">
        <ele>142.4</ele>
        <time>2020-06-28T13:11:27Z</time>
      </trkpt>
      <trkpt lat="48.58164" lon="7.74174">
        <ele>142.4</ele>
        <time>2020-06-28T13:11:28Z</time>
      </trkpt>
      <trkpt lat="48.58165" lon="7.74173">
        <ele>142.4</ele>
        <time>2020-06-28T13:11:29Z</time>
      </trkpt>
      <trkpt lat="48.58166" lon="7.74171">
        <ele>142.4</ele>
        <time>2020-06-28T13:11:30Z</time>
      </trkpt>
      <trkpt lat="48.58167" lon="7.7417">
        <ele>142.4</ele>
        <time>2020-06-28T13:11:31Z</time>
      </trkpt>
      <trkpt lat="48.58167" lon="7.7417">
        <ele>142.4</ele>
        <time>2020-06-28T13:11:32Z</time>
      </trkpt>
      <trkpt lat="48.58167" lon="7.7417">
        <ele>142.4</ele>
        <time>2020-06-28T13:11:33Z</time>
      </trkpt>
      <trkpt lat="48.58167" lon="7.7417">
        <ele>142.4</ele>
        <time>2020-06-28T13:11:34Z</time>
      </trkpt>
      <trkpt lat="48.58167" lon="7.7417">
        <ele>142.4</ele>
        <time>2020-06-28T13:11:35Z</time>
      </trkpt>
      <trkpt lat="48.58166" lon="7.7417">
        <ele>142.4</ele>
        <time>2020-06-28T13:11:36Z</time>
      </trkpt>
      <trkpt lat="48.58166" lon="7.74169">
        <ele>142.4</ele>
        <time>2020-06-28T13:11:37Z</time>
      </trkpt>
      <trkpt lat="48.58167" lon="7.74168">
        <ele>142.4</ele>
        <time>2020-06-28T13:11:38Z</time>
      </trkpt>
      <trkpt lat="48.58168" lon="7.74168">
        <ele>142.4</ele>
        <time>2020-06-28T13:11:39Z</time>
      </trkpt>
      <trkpt lat="48.58169" lon="7.74168">
        <ele>142.4</ele>
        <time>2020-06-28T13:11:40Z</time>
      </trkpt>
      <trkpt lat="48.58169" lon="7.74168">
        <ele>142.4</ele>
        <time>2020-06-28T13:11:41Z</time>
      </trkpt>
      <trkpt lat="48.5817" lon="7.74166">
        <ele>142.4</ele>
        <time>2020-06-28T13:11:42Z</time>
      </trkpt>
      <trkpt lat="48.58171" lon="7.74165">
        <ele>142.4</ele>
        <time>2020-06-28T13:11:43Z</time>
      </trkpt>
      <trkpt lat="48.58172" lon="7.74162">
        <ele>142.3</ele>
        <time>2020-06-28T13:11:44Z</time>
      </trkpt>
      <trkpt lat="48.58173" lon="7.74161">
        <ele>142.3</ele>
        <time>2020-06-28T13:11:45Z</time>
      </trkpt>
      <trkpt lat="48.58173" lon="7.7416">
        <ele>142.3</ele>
        <time>2020-06-28T13:11:46Z</time>
      </trkpt>
      <trkpt lat="48.58174" lon="7.74158">
        <ele>142.2</ele>
        <time>2020-06-28T13:11:47Z</time>
      </trkpt>
      <trkpt lat="48.58175" lon="7.74156">
        <ele>142.2</ele>
        <time>2020-06-28T13:11:48Z</time>
      </trkpt>
      <trkpt lat="48.58177" lon="7.74152">
        <ele>142.2</ele>
        <time>2020-06-28T13:11:49Z</time>
      </trkpt>
      <trkpt lat="48.58177" lon="7.74151">
        <ele>142.2</ele>
        <time>2020-06-28T13:11:50Z</time>
      </trkpt>
      <trkpt lat="48.58178" lon="7.74148">
        <ele>142.2</ele>
        <time>2020-06-28T13:11:51Z</time>
      </trkpt>
      <trkpt lat="48.58178" lon="7.74147">
        <ele>142.2</ele>
        <time>2020-06-28T13:11:52Z</time>
      </trkpt>
      <trkpt lat="48.58179" lon="7.74146">
        <ele>142.2</ele>
        <time>2020-06-28T13:11:53Z</time>
      </trkpt>
      <trkpt lat="48.58178" lon="7.74145">
        <ele>142.2</ele>
        <time>2020-06-28T13:11:54Z</time>
      </trkpt>
      <trkpt lat="48.58178" lon="7.74145">
        <ele>142.2</ele>
        <time>2020-06-28T13:11:55Z</time>
      </trkpt>
      <trkpt lat="48.58178" lon="7.74145">
        <ele>142.2</ele>
        <time>2020-06-28T13:11:56Z</time>
      </trkpt>
      <trkpt lat="48.58178" lon="7.74144">
        <ele>142.2</ele>
        <time>2020-06-28T13:11:57Z</time>
      </trkpt>
      <trkpt lat="48.58178" lon="7.74143">
        <ele>142.2</ele>
        <time>2020-06-28T13:11:58Z</time>
      </trkpt>
      <trkpt lat="48.58178" lon="7.74142">
        <ele>142.2</ele>
        <time>2020-06-28T13:11:59Z</time>
      </trkpt>
      <trkpt lat="48.58177" lon="7.74141">
        <ele>142.2</ele>
        <time>2020-06-28T13:12:00Z</time>
      </trkpt>
      <trkpt lat="48.58175" lon="7.7414">
        <ele>142.1</ele>
        <time>2020-06-28T13:12:01Z</time>
      </trkpt>
      <trkpt lat="48.58173" lon="7.74139">
        <ele>142.1</ele>
        <time>2020-06-28T13:12:02Z</time>
      </trkpt>
      <trkpt lat="48.58171" lon="7.74139">
        <ele>142.1</ele>
        <time>2020-06-28T13:12:03Z</time>
      </trkpt>
      <trkpt lat="48.5817" lon="7.74138">
        <ele>142.1</ele>
        <time>2020-06-28T13:12:04Z</time>
      </trkpt>
      <trkpt lat="48.58169" lon="7.74136">
        <ele>142.1</ele>
        <time>2020-06-28T13:12:05Z</time>
      </trkpt>
      <trkpt lat="48.58167" lon="7.74135">
        <ele>142.1</ele>
        <time>2020-06-28T13:12:06Z</time>
      </trkpt>
      <trkpt lat="48.58166" lon="7.74134">
        <ele>142.1</ele>
        <time>2020-06-28T13:12:07Z</time>
      </trkpt>
      <trkpt lat="48.58166" lon="7.74132">
        <ele>142.1</ele>
        <time>2020-06-28T13:12:08Z</time>
      </trkpt>
      <trkpt lat="48.58166" lon="7.74129">
        <ele>142.1</ele>
        <time>2020-06-28T13:12:09Z</time>
      </trkpt>
      <trkpt lat="48.58168" lon="7.74125">
        <ele>142</ele>
        <time>2020-06-28T13:12:10Z</time>
      </trkpt>
      <trkpt lat="48.58169" lon="7.74123">
        <ele>142</ele>
        <time>2020-06-28T13:12:11Z</time>
      </trkpt>
      <trkpt lat="48.5817" lon="7.74121">
        <ele>142</ele>
        <time>2020-06-28T13:12:12Z</time>
      </trkpt>
      <trkpt lat="48.5817" lon="7.74119">
        <ele>142.5</ele>
        <time>2020-06-28T13:12:13Z</time>
      </trkpt>
      <trkpt lat="48.58172" lon="7.74115">
        <ele>142.6</ele>
        <time>2020-06-28T13:12:14Z</time>
      </trkpt>
      <trkpt lat="48.58173" lon="7.74112">
        <ele>142.6</ele>
        <time>2020-06-28T13:12:15Z</time>
      </trkpt>
      <trkpt lat="48.58174" lon="7.74109">
        <ele>142.7</ele>
        <time>2020-06-28T13:12:16Z</time>
      </trkpt>
      <trkpt lat="48.58174" lon="7.74108">
        <ele>142.7</ele>
        <time>2020-06-28T13:12:17Z</time>
      </trkpt>
      <trkpt lat="48.58174" lon="7.74107">
        <ele>142.7</ele>
        <time>2020-06-28T13:12:18Z</time>
      </trkpt>
      <trkpt lat="48.58175" lon="7.74105">
        <ele>142.8</ele>
        <time>2020-06-28T13:12:19Z</time>
      </trkpt>
      <trkpt lat="48.58176" lon="7.74103">
        <ele>142.8</ele>
        <time>2020-06-28T13:12:20Z</time>
      </trkpt>
      <trkpt lat="48.58179" lon="7.74101">
        <ele>142.9</ele>
        <time>2020-06-28T13:12:21Z</time>
      </trkpt>
      <trkpt lat="48.5818" lon="7.741">
        <ele>142.9</ele>
        <time>2020-06-28T13:12:22Z</time>
      </trkpt>
      <trkpt lat="48.58181" lon="7.74099">
        <ele>142.9</ele>
        <time>2020-06-28T13:12:23Z</time>
      </trkpt>
      <trkpt lat="48.58182" lon="7.74098">
        <ele>143</ele>
        <time>2020-06-28T13:12:24Z</time>
      </trkpt>
      <trkpt lat="48.58183" lon="7.74098">
        <ele>143</ele>
        <time>2020-06-28T13:12:25Z</time>
      </trkpt>
      <trkpt lat="48.58186" lon="7.74098">
        <ele>143</ele>
        <time>2020-06-28T13:12:26Z</time>
      </trkpt>
      <trkpt lat="48.58189" lon="7.74097">
        <ele>143.1</ele>
        <time>2020-06-28T13:12:27Z</time>
      </trkpt>
      <trkpt lat="48.58189" lon="7.74096">
        <ele>143.1</ele>
        <time>2020-06-28T13:12:28Z</time>
      </trkpt>
      <trkpt lat="48.58191" lon="7.74096">
        <ele>143.2</ele>
        <time>2020-06-28T13:12:29Z</time>
      </trkpt>
      <trkpt lat="48.58193" lon="7.74095">
        <ele>143.2</ele>
        <time>2020-06-28T13:12:30Z</time>
      </trkpt>
      <trkpt lat="48.58194" lon="7.74094">
        <ele>143.3</ele>
        <time>2020-06-28T13:12:31Z</time>
      </trkpt>
      <trkpt lat="48.58195" lon="7.74094">
        <ele>143.3</ele>
        <time>2020-06-28T13:12:32Z</time>
      </trkpt>
      <trkpt lat="48.58196" lon="7.74094">
        <ele>143.3</ele>
        <time>2020-06-28T13:12:33Z</time>
      </trkpt>
      <trkpt lat="48.58197" lon="7.74092">
        <ele>143.4</ele>
        <time>2020-06-28T13:12:34Z</time>
      </trkpt>
      <trkpt lat="48.58199" lon="7.74091">
        <ele>143.4</ele>
        <time>2020-06-28T13:12:35Z</time>
      </trkpt>
      <trkpt lat="48.58202" lon="7.7409">
        <ele>143.5</ele>
        <time>2020-06-28T13:12:36Z</time>
      </trkpt>
      <trkpt lat="48.58205" lon="7.74091">
        <ele>143.6</ele>
        <time>2020-06-28T13:12:37Z</time>
      </trkpt>
      <trkpt lat="48.58208" lon="7.74091">
        <ele>143.7</ele>
        <time>2020-06-28T13:12:38Z</time>
      </trkpt>
      <trkpt lat="48.58209" lon="7.7409">
        <ele>143.8</ele>
        <time>2020-06-28T13:12:39Z</time>
      </trkpt>
      <trkpt lat="48.58212" lon="7.74089">
        <ele>143.9</ele>
        <time>2020-06-28T13:12:40Z</time>
      </trkpt>
      <trkpt lat="48.58213" lon="7.74089">
        <ele>143.9</ele>
        <time>2020-06-28T13:12:41Z</time>
      </trkpt>
      <trkpt lat="48.58215" lon="7.74088">
        <ele>144</ele>
        <time>2020-06-28T13:12:42Z</time>
      </trkpt>
      <trkpt lat="48.58216" lon="7.74089">
        <ele>144.1</ele>
        <time>2020-06-28T13:12:43Z</time>
      </trkpt>
      <trkpt lat="48.58217" lon="7.74089">
        <ele>144.1</ele>
        <time>2020-06-28T13:12:44Z</time>
      </trkpt>
      <trkpt lat="48.58218" lon="7.74089">
        <ele>144.1</ele>
        <time>2020-06-28T13:12:45Z</time>
      </trkpt>
      <trkpt lat="48.58219" lon="7.74089">
        <ele>144.2</ele>
        <time>2020-06-28T13:12:46Z</time>
      </trkpt>
      <trkpt lat="48.5822" lon="7.74088">
        <ele>144.2</ele>
        <time>2020-06-28T13:12:47Z</time>
      </trkpt>
      <trkpt lat="48.58221" lon="7.74087">
        <ele>144.3</ele>
        <time>2020-06-28T13:12:48Z</time>
      </trkpt>
      <trkpt lat="48.58222" lon="7.74087">
        <ele>144.6</ele>
        <time>2020-06-28T13:12:49Z</time>
      </trkpt>
      <trkpt lat="48.58223" lon="7.74086">
        <ele>144.6</ele>
        <time>2020-06-28T13:12:50Z</time>
      </trkpt>
      <trkpt lat="48.58224" lon="7.74086">
        <ele>144.6</ele>
        <time>2020-06-28T13:12:51Z</time>
      </trkpt>
      <trkpt lat="48.58226" lon="7.74084">
        <ele>144.6</ele>
        <time>2020-06-28T13:12:52Z</time>
      </trkpt>
      <trkpt lat="48.58227" lon="7.74083">
        <ele>144.6</ele>
        <time>2020-06-28T13:12:53Z</time>
      </trkpt>
      <trkpt lat="48.58227" lon="7.74081">
        <ele>144.6</ele>
        <time>2020-06-28T13:12:54Z</time>
      </trkpt>
      <trkpt lat="48.58228" lon="7.74081">
        <ele>144.6</ele>
        <time>2020-06-28T13:12:55Z</time>
      </trkpt>
      <trkpt lat="48.58228" lon="7.74081">
        <ele>144.6</ele>
        <time>2020-06-28T13:12:56Z</time>
      </trkpt>
      <trkpt lat="48.58229" lon="7.74079">
        <ele>144.6</ele>
        <time>2020-06-28T13:12:57Z</time>
      </trkpt>
      <trkpt lat="48.58231" lon="7.74075">
        <ele>144.6</ele>
        <time>2020-06-28T13:12:58Z</time>
      </trkpt>
      <trkpt lat="48.58232" lon="7.74074">
        <ele>144.6</ele>
        <time>2020-06-28T13:12:59Z</time>
      </trkpt>
      <trkpt lat="48.58235" lon="7.74072">
        <ele>144.6</ele>
        <time>2020-06-28T13:13:00Z</time>
      </trkpt>
      <trkpt lat="48.58236" lon="7.74071">
        <ele>144.6</ele>
        <time>2020-06-28T13:13:01Z</time>
      </trkpt>
      <trkpt lat="48.58238" lon="7.74068">
        <ele>144.6</ele>
        <time>2020-06-28T13:13:02Z</time>
      </trkpt>
      <trkpt lat="48.58239" lon="7.74066">
        <ele>144.5</ele>
        <time>2020-06-28T13:13:03Z</time>
      </trkpt>
      <trkpt lat="48.5824" lon="7.74061">
        <ele>144.5</ele>
        <time>2020-06-28T13:13:04Z</time>
      </trkpt>
      <trkpt lat="48.58241" lon="7.7406">
        <ele>144.5</ele>
        <time>2020-06-28T13:13:05Z</time>
      </trkpt>
      <trkpt lat="48.58243" lon="7.74055">
        <ele>144.4</ele>
        <time>2020-06-28T13:13:06Z</time>
      </trkpt>
      <trkpt lat="48.58244" lon="7.74054">
        <ele>144.4</ele>
        <time>2020-06-28T13:13:07Z</time>
      </trkpt>
      <trkpt lat="48.58246" lon="7.74051">
        <ele>144.4</ele>
        <time>2020-06-28T13:13:08Z</time>
      </trkpt>
      <trkpt lat="48.58247" lon="7.74048">
        <ele>144.4</ele>
        <time>2020-06-28T13:13:09Z</time>
      </trkpt>
      <trkpt lat="48.58249" lon="7.74044">
        <ele>144.3</ele>
        <time>2020-06-28T13:13:10Z</time>
      </trkpt>
      <trkpt lat="48.58252" lon="7.7404">
        <ele>144.3</ele>
        <time>2020-06-28T13:13:11Z</time>
      </trkpt>
      <trkpt lat="48.58254" lon="7.74035">
        <ele>144.2</ele>
        <time>2020-06-28T13:13:12Z</time>
      </trkpt>
      <trkpt lat="48.58256" lon="7.74031">
        <ele>144.2</ele>
        <time>2020-06-28T13:13:13Z</time>
      </trkpt>
      <trkpt lat="48.58259" lon="7.74026">
        <ele>144.1</ele>
        <time>2020-06-28T13:13:14Z</time>
      </trkpt>
      <trkpt lat="48.5826" lon="7.74022">
        <ele>144.1</ele>
        <time>2020-06-28T13:13:15Z</time>
      </trkpt>
      <trkpt lat="48.58262" lon="7.74017">
        <ele>144.1</ele>
        <time>2020-06-28T13:13:16Z</time>
      </trkpt>
      <trkpt lat="48.58264" lon="7.74013">
        <ele>144.1</ele>
        <time>2020-06-28T13:13:17Z</time>
      </trkpt>
      <trkpt lat="48.58266" lon="7.74009">
        <ele>144</ele>
        <time>2020-06-28T13:13:18Z</time>
      </trkpt>
      <trkpt lat="48.58267" lon="7.74005">
        <ele>144</ele>
        <time>2020-06-28T13:13:19Z</time>
      </trkpt>
      <trkpt lat="48.58268" lon="7.74">
        <ele>144</ele>
        <time>2020-06-28T13:13:20Z</time>
      </trkpt>
      <trkpt lat="48.58269" lon="7.73996">
        <ele>143.9</ele>
        <time>2020-06-28T13:13:21Z</time>
      </trkpt>
      <trkpt lat="48.58271" lon="7.73991">
        <ele>143.9</ele>
        <time>2020-06-28T13:13:22Z</time>
      </trkpt>
      <trkpt lat="48.58271" lon="7.73989">
        <ele>143.9</ele>
        <time>2020-06-28T13:13:23Z</time>
      </trkpt>
      <trkpt lat="48.58272" lon="7.73985">
        <ele>143.9</ele>
        <time>2020-06-28T13:13:24Z</time>
      </trkpt>
      <trkpt lat="48.58273" lon="7.73977">
        <ele>143.8</ele>
        <time>2020-06-28T13:13:25Z</time>
      </trkpt>
      <trkpt lat="48.58274" lon="7.73973">
        <ele>143.8</ele>
        <time>2020-06-28T13:13:26Z</time>
      </trkpt>
      <trkpt lat="48.58276" lon="7.73968">
        <ele>143.8</ele>
        <time>2020-06-28T13:13:27Z</time>
      </trkpt>
      <trkpt lat="48.58277" lon="7.73967">
        <ele>143.7</ele>
        <time>2020-06-28T13:13:28Z</time>
      </trkpt>
      <trkpt lat="48.58278" lon="7.73962">
        <ele>143.7</ele>
        <time>2020-06-28T13:13:29Z</time>
      </trkpt>
      <trkpt lat="48.58278" lon="7.73961">
        <ele>143.7</ele>
        <time>2020-06-28T13:13:30Z</time>
      </trkpt>
      <trkpt lat="48.58279" lon="7.73956">
        <ele>143.7</ele>
        <time>2020-06-28T13:13:31Z</time>
      </trkpt>
      <trkpt lat="48.58279" lon="7.73954">
        <ele>143.7</ele>
        <time>2020-06-28T13:13:32Z</time>
      </trkpt>
      <trkpt lat="48.58281" lon="7.73949">
        <ele>143.6</ele>
        <time>2020-06-28T13:13:33Z</time>
      </trkpt>
      <trkpt lat="48.58282" lon="7.73947">
        <ele>143.6</ele>
        <time>2020-06-28T13:13:34Z</time>
      </trkpt>
      <trkpt lat="48.58282" lon="7.73942">
        <ele>143.6</ele>
        <time>2020-06-28T13:13:35Z</time>
      </trkpt>
      <trkpt lat="48.58282" lon="7.7394">
        <ele>143.6</ele>
        <time>2020-06-28T13:13:36Z</time>
      </trkpt>
      <trkpt lat="48.58282" lon="7.73935">
        <ele>143.6</ele>
        <time>2020-06-28T13:13:37Z</time>
      </trkpt>
      <trkpt lat="48.58282" lon="7.73933">
        <ele>143.5</ele>
        <time>2020-06-28T13:13:38Z</time>
      </trkpt>
      <trkpt lat="48.58282" lon="7.73929">
        <ele>143.5</ele>
        <time>2020-06-28T13:13:39Z</time>
      </trkpt>
      <trkpt lat="48.58281" lon="7.73924">
        <ele>143.5</ele>
        <time>2020-06-28T13:13:40Z</time>
      </trkpt>
      <trkpt lat="48.58282" lon="7.73917">
        <ele>143.4</ele>
        <time>2020-06-28T13:13:41Z</time>
      </trkpt>
      <trkpt lat="48.58278" lon="7.73914">
        <ele>143.3</ele>
        <time>2020-06-28T13:13:42Z</time>
      </trkpt>
      <trkpt lat="48.58278" lon="7.73912">
        <ele>143.3</ele>
        <time>2020-06-28T13:13:43Z</time>
      </trkpt>
      <trkpt lat="48.58277" lon="7.73909">
        <ele>143.3</ele>
        <time>2020-06-28T13:13:44Z</time>
      </trkpt>
      <trkpt lat="48.58278" lon="7.73907">
        <ele>143.2</ele>
        <time>2020-06-28T13:13:45Z</time>
      </trkpt>
      <trkpt lat="48.58279" lon="7.73904">
        <ele>143.2</ele>
        <time>2020-06-28T13:13:46Z</time>
      </trkpt>
      <trkpt lat="48.5828" lon="7.73899">
        <ele>143.2</ele>
        <time>2020-06-28T13:13:47Z</time>
      </trkpt>
      <trkpt lat="48.5828" lon="7.73897">
        <ele>143.2</ele>
        <time>2020-06-28T13:13:48Z</time>
      </trkpt>
      <trkpt lat="48.5828" lon="7.73893">
        <ele>143</ele>
        <time>2020-06-28T13:13:49Z</time>
      </trkpt>
      <trkpt lat="48.5828" lon="7.73891">
        <ele>143</ele>
        <time>2020-06-28T13:13:50Z</time>
      </trkpt>
      <trkpt lat="48.58278" lon="7.7389">
        <ele>143</ele>
        <time>2020-06-28T13:13:51Z</time>
      </trkpt>
      <trkpt lat="48.58277" lon="7.73889">
        <ele>143</ele>
        <time>2020-06-28T13:13:52Z</time>
      </trkpt>
      <trkpt lat="48.58277" lon="7.73886">
        <ele>143</ele>
        <time>2020-06-28T13:13:53Z</time>
      </trkpt>
      <trkpt lat="48.58277" lon="7.73884">
        <ele>142.9</ele>
        <time>2020-06-28T13:13:54Z</time>
      </trkpt>
      <trkpt lat="48.58278" lon="7.73883">
        <ele>142.9</ele>
        <time>2020-06-28T13:13:55Z</time>
      </trkpt>
      <trkpt lat="48.5828" lon="7.73884">
        <ele>142.9</ele>
        <time>2020-06-28T13:13:56Z</time>
      </trkpt>
      <trkpt lat="48.58281" lon="7.73886">
        <ele>142.7</ele>
        <time>2020-06-28T13:13:57Z</time>
      </trkpt>
      <trkpt lat="48.58282" lon="7.73887">
        <ele>142.8</ele>
        <time>2020-06-28T13:13:58Z</time>
      </trkpt>
      <trkpt lat="48.58285" lon="7.73891">
        <ele>142.8</ele>
        <time>2020-06-28T13:13:59Z</time>
      </trkpt>
      <trkpt lat="48.58287" lon="7.73893">
        <ele>142.8</ele>
        <time>2020-06-28T13:14:00Z</time>
      </trkpt>
      <trkpt lat="48.58289" lon="7.73896">
        <ele>142.9</ele>
        <time>2020-06-28T13:14:01Z</time>
      </trkpt>
      <trkpt lat="48.58293" lon="7.73899">
        <ele>142.9</ele>
        <time>2020-06-28T13:14:02Z</time>
      </trkpt>
      <trkpt lat="48.58294" lon="7.73901">
        <ele>142.9</ele>
        <time>2020-06-28T13:14:03Z</time>
      </trkpt>
      <trkpt lat="48.58297" lon="7.73904">
        <ele>142.9</ele>
        <time>2020-06-28T13:14:04Z</time>
      </trkpt>
      <trkpt lat="48.583" lon="7.73907">
        <ele>143</ele>
        <time>2020-06-28T13:14:06Z</time>
      </trkpt>
      <trkpt lat="48.58303" lon="7.73909">
        <ele>143</ele>
        <time>2020-06-28T13:14:07Z</time>
      </trkpt>
      <trkpt lat="48.58304" lon="7.73911">
        <ele>143</ele>
        <time>2020-06-28T13:14:08Z</time>
      </trkpt>
      <trkpt lat="48.58306" lon="7.73914">
        <ele>143</ele>
        <time>2020-06-28T13:14:09Z</time>
      </trkpt>
      <trkpt lat="48.58309" lon="7.73917">
        <ele>143</ele>
        <time>2020-06-28T13:14:10Z</time>
      </trkpt>
      <trkpt lat="48.5831" lon="7.73919">
        <ele>143</ele>
        <time>2020-06-28T13:14:11Z</time>
      </trkpt>
      <trkpt lat="48.58312" lon="7.73922">
        <ele>143</ele>
        <time>2020-06-28T13:14:12Z</time>
      </trkpt>
      <trkpt lat="48.58313" lon="7.73926">
        <ele>143</ele>
        <time>2020-06-28T13:14:13Z</time>
      </trkpt>
      <trkpt lat="48.58315" lon="7.7393">
        <ele>143</ele>
        <time>2020-06-28T13:14:14Z</time>
      </trkpt>
      <trkpt lat="48.58316" lon="7.73932">
        <ele>143</ele>
        <time>2020-06-28T13:14:15Z</time>
      </trkpt>
      <trkpt lat="48.58317" lon="7.73935">
        <ele>143</ele>
        <time>2020-06-28T13:14:16Z</time>
      </trkpt>
      <trkpt lat="48.5832" lon="7.73937">
        <ele>143</ele>
        <time>2020-06-28T13:14:17Z</time>
      </trkpt>
      <trkpt lat="48.58322" lon="7.73941">
        <ele>143</ele>
        <time>2020-06-28T13:14:18Z</time>
      </trkpt>
      <trkpt lat="48.58323" lon="7.73944">
        <ele>142.9</ele>
        <time>2020-06-28T13:14:19Z</time>
      </trkpt>
      <trkpt lat="48.58327" lon="7.73948">
        <ele>142.9</ele>
        <time>2020-06-28T13:14:20Z</time>
      </trkpt>
      <trkpt lat="48.5833" lon="7.73952">
        <ele>142.8</ele>
        <time>2020-06-28T13:14:21Z</time>
      </trkpt>
      <trkpt lat="48.58332" lon="7.73955">
        <ele>142.8</ele>
        <time>2020-06-28T13:14:22Z</time>
      </trkpt>
      <trkpt lat="48.58335" lon="7.73959">
        <ele>142.7</ele>
        <time>2020-06-28T13:14:23Z</time>
      </trkpt>
      <trkpt lat="48.58337" lon="7.73962">
        <ele>142.7</ele>
        <time>2020-06-28T13:14:24Z</time>
      </trkpt>
      <trkpt lat="48.58339" lon="7.73966">
        <ele>142.6</ele>
        <time>2020-06-28T13:14:25Z</time>
      </trkpt>
      <trkpt lat="48.58342" lon="7.7397">
        <ele>142.5</ele>
        <time>2020-06-28T13:14:26Z</time>
      </trkpt>
      <trkpt lat="48.58345" lon="7.73973">
        <ele>142.5</ele>
        <time>2020-06-28T13:14:27Z</time>
      </trkpt>
      <trkpt lat="48.58347" lon="7.73976">
        <ele>142.4</ele>
        <time>2020-06-28T13:14:28Z</time>
      </trkpt>
      <trkpt lat="48.58351" lon="7.73978">
        <ele>142.3</ele>
        <time>2020-06-28T13:14:29Z</time>
      </trkpt>
      <trkpt lat="48.58353" lon="7.73981">
        <ele>142.3</ele>
        <time>2020-06-28T13:14:30Z</time>
      </trkpt>
      <trkpt lat="48.58356" lon="7.73986">
        <ele>142.2</ele>
        <time>2020-06-28T13:14:31Z</time>
      </trkpt>
      <trkpt lat="48.58358" lon="7.7399">
        <ele>142.2</ele>
        <time>2020-06-28T13:14:32Z</time>
      </trkpt>
      <trkpt lat="48.5836" lon="7.73994">
        <ele>142.1</ele>
        <time>2020-06-28T13:14:33Z</time>
      </trkpt>
      <trkpt lat="48.58362" lon="7.74">
        <ele>142.1</ele>
        <time>2020-06-28T13:14:34Z</time>
      </trkpt>
      <trkpt lat="48.58364" lon="7.74005">
        <ele>142</ele>
        <time>2020-06-28T13:14:35Z</time>
      </trkpt>
      <trkpt lat="48.58367" lon="7.74012">
        <ele>142</ele>
        <time>2020-06-28T13:14:36Z</time>
      </trkpt>
      <trkpt lat="48.5837" lon="7.74017">
        <ele>141.9</ele>
        <time>2020-06-28T13:14:37Z</time>
      </trkpt>
      <trkpt lat="48.58371" lon="7.74021">
        <ele>141.9</ele>
        <time>2020-06-28T13:14:38Z</time>
      </trkpt>
      <trkpt lat="48.58374" lon="7.74025">
        <ele>141.9</ele>
        <time>2020-06-28T13:14:39Z</time>
      </trkpt>
      <trkpt lat="48.58376" lon="7.7403">
        <ele>141.9</ele>
        <time>2020-06-28T13:14:40Z</time>
      </trkpt>
      <trkpt lat="48.58379" lon="7.74034">
        <ele>141.8</ele>
        <time>2020-06-28T13:14:41Z</time>
      </trkpt>
      <trkpt lat="48.58381" lon="7.74038">
        <ele>141.8</ele>
        <time>2020-06-28T13:14:42Z</time>
      </trkpt>
      <trkpt lat="48.58383" lon="7.74043">
        <ele>141.8</ele>
        <time>2020-06-28T13:14:43Z</time>
      </trkpt>
      <trkpt lat="48.58386" lon="7.74047">
        <ele>141.8</ele>
        <time>2020-06-28T13:14:44Z</time>
      </trkpt>
      <trkpt lat="48.58389" lon="7.74053">
        <ele>141.8</ele>
        <time>2020-06-28T13:14:45Z</time>
      </trkpt>
      <trkpt lat="48.58391" lon="7.74058">
        <ele>141.8</ele>
        <time>2020-06-28T13:14:46Z</time>
      </trkpt>
      <trkpt lat="48.58392" lon="7.74062">
        <ele>141.7</ele>
        <time>2020-06-28T13:14:47Z</time>
      </trkpt>
      <trkpt lat="48.58393" lon="7.74066">
        <ele>141.7</ele>
        <time>2020-06-28T13:14:48Z</time>
      </trkpt>
      <trkpt lat="48.58395" lon="7.74069">
        <ele>141.7</ele>
        <time>2020-06-28T13:14:49Z</time>
      </trkpt>
      <trkpt lat="48.58396" lon="7.74073">
        <ele>141.7</ele>
        <time>2020-06-28T13:14:50Z</time>
      </trkpt>
      <trkpt lat="48.58398" lon="7.74078">
        <ele>141.7</ele>
        <time>2020-06-28T13:14:51Z</time>
      </trkpt>
      <trkpt lat="48.58398" lon="7.7408">
        <ele>141.7</ele>
        <time>2020-06-28T13:14:52Z</time>
      </trkpt>
      <trkpt lat="48.58399" lon="7.74085">
        <ele>141.7</ele>
        <time>2020-06-28T13:14:53Z</time>
      </trkpt>
      <trkpt lat="48.58401" lon="7.7409">
        <ele>141.7</ele>
        <time>2020-06-28T13:14:54Z</time>
      </trkpt>
      <trkpt lat="48.58401" lon="7.74094">
        <ele>141.7</ele>
        <time>2020-06-28T13:14:55Z</time>
      </trkpt>
      <trkpt lat="48.58403" lon="7.74098">
        <ele>141.7</ele>
        <time>2020-06-28T13:14:56Z</time>
      </trkpt>
      <trkpt lat="48.58405" lon="7.74101">
        <ele>141.7</ele>
        <time>2020-06-28T13:14:57Z</time>
      </trkpt>
      <trkpt lat="48.58408" lon="7.74103">
        <ele>141.6</ele>
        <time>2020-06-28T13:14:58Z</time>
      </trkpt>
      <trkpt lat="48.58411" lon="7.74105">
        <ele>141.6</ele>
        <time>2020-06-28T13:14:59Z</time>
      </trkpt>
      <trkpt lat="48.58413" lon="7.74105">
        <ele>141.6</ele>
        <time>2020-06-28T13:15:00Z</time>
      </trkpt>
      <trkpt lat="48.58416" lon="7.74105">
        <ele>141.6</ele>
        <time>2020-06-28T13:15:01Z</time>
      </trkpt>
      <trkpt lat="48.58419" lon="7.74105">
        <ele>141.6</ele>
        <time>2020-06-28T13:15:02Z</time>
      </trkpt>
      <trkpt lat="48.58422" lon="7.74104">
        <ele>141.6</ele>
        <time>2020-06-28T13:15:03Z</time>
      </trkpt>
      <trkpt lat="48.58426" lon="7.74102">
        <ele>141.6</ele>
        <time>2020-06-28T13:15:04Z</time>
      </trkpt>
      <trkpt lat="48.58429" lon="7.741">
        <ele>141.6</ele>
        <time>2020-06-28T13:15:05Z</time>
      </trkpt>
      <trkpt lat="48.58431" lon="7.74098">
        <ele>141.6</ele>
        <time>2020-06-28T13:15:06Z</time>
      </trkpt>
      <trkpt lat="48.58434" lon="7.74096">
        <ele>141.6</ele>
        <time>2020-06-28T13:15:07Z</time>
      </trkpt>
      <trkpt lat="48.58435" lon="7.74095">
        <ele>141.6</ele>
        <time>2020-06-28T13:15:08Z</time>
      </trkpt>
      <trkpt lat="48.58438" lon="7.74093">
        <ele>141.6</ele>
        <time>2020-06-28T13:15:09Z</time>
      </trkpt>
      <trkpt lat="48.58439" lon="7.74093">
        <ele>141.6</ele>
        <time>2020-06-28T13:15:10Z</time>
      </trkpt>
      <trkpt lat="48.58441" lon="7.74092">
        <ele>141.7</ele>
        <time>2020-06-28T13:15:11Z</time>
      </trkpt>
      <trkpt lat="48.58443" lon="7.74092">
        <ele>141.7</ele>
        <time>2020-06-28T13:15:12Z</time>
      </trkpt>
      <trkpt lat="48.58444" lon="7.74092">
        <ele>141.7</ele>
        <time>2020-06-28T13:15:13Z</time>
      </trkpt>
      <trkpt lat="48.58444" lon="7.74092">
        <ele>141.7</ele>
        <time>2020-06-28T13:15:14Z</time>
      </trkpt>
      <trkpt lat="48.58444" lon="7.74094">
        <ele>141.7</ele>
        <time>2020-06-28T13:15:15Z</time>
      </trkpt>
      <trkpt lat="48.58443" lon="7.74096">
        <ele>141.7</ele>
        <time>2020-06-28T13:15:16Z</time>
      </trkpt>
      <trkpt lat="48.58441" lon="7.741">
        <ele>141.7</ele>
        <time>2020-06-28T13:15:17Z</time>
      </trkpt>
      <trkpt lat="48.5844" lon="7.741">
        <ele>141.7</ele>
        <time>2020-06-28T13:15:18Z</time>
      </trkpt>
      <trkpt lat="48.58439" lon="7.741">
        <ele>141.7</ele>
        <time>2020-06-28T13:15:19Z</time>
      </trkpt>
      <trkpt lat="48.58438" lon="7.741">
        <ele>141.7</ele>
        <time>2020-06-28T13:15:20Z</time>
      </trkpt>
      <trkpt lat="48.58437" lon="7.741">
        <ele>141.7</ele>
        <time>2020-06-28T13:15:21Z</time>
      </trkpt>
      <trkpt lat="48.58437" lon="7.74099">
        <ele>141.7</ele>
        <time>2020-06-28T13:15:22Z</time>
      </trkpt>
      <trkpt lat="48.58437" lon="7.74099">
        <ele>141.7</ele>
        <time>2020-06-28T13:15:23Z</time>
      </trkpt>
      <trkpt lat="48.58439" lon="7.74094">
        <ele>141.7</ele>
        <time>2020-06-28T13:15:26Z</time>
      </trkpt>
      <trkpt lat="48.5844" lon="7.74093">
        <ele>141.7</ele>
        <time>2020-06-28T13:15:27Z</time>
      </trkpt>
      <trkpt lat="48.58441" lon="7.74091">
        <ele>141.7</ele>
        <time>2020-06-28T13:15:28Z</time>
      </trkpt>
      <trkpt lat="48.58444" lon="7.74089">
        <ele>141.7</ele>
        <time>2020-06-28T13:15:29Z</time>
      </trkpt>
      <trkpt lat="48.58445" lon="7.74088">
        <ele>141.7</ele>
        <time>2020-06-28T13:15:30Z</time>
      </trkpt>
      <trkpt lat="48.58448" lon="7.74085">
        <ele>141.7</ele>
        <time>2020-06-28T13:15:31Z</time>
      </trkpt>
      <trkpt lat="48.58449" lon="7.74084">
        <ele>141.7</ele>
        <time>2020-06-28T13:15:32Z</time>
      </trkpt>
      <trkpt lat="48.58452" lon="7.74082">
        <ele>141.7</ele>
        <time>2020-06-28T13:15:33Z</time>
      </trkpt>
      <trkpt lat="48.58452" lon="7.74081">
        <ele>141.7</ele>
        <time>2020-06-28T13:15:34Z</time>
      </trkpt>
      <trkpt lat="48.58454" lon="7.7408">
        <ele>141.7</ele>
        <time>2020-06-28T13:15:35Z</time>
      </trkpt>
      <trkpt lat="48.58455" lon="7.74079">
        <ele>141.7</ele>
        <time>2020-06-28T13:15:36Z</time>
      </trkpt>
      <trkpt lat="48.58456" lon="7.74079">
        <ele>141.7</ele>
        <time>2020-06-28T13:15:37Z</time>
      </trkpt>
      <trkpt lat="48.58457" lon="7.74078">
        <ele>141.7</ele>
        <time>2020-06-28T13:15:38Z</time>
      </trkpt>
      <trkpt lat="48.58458" lon="7.74078">
        <ele>141.7</ele>
        <time>2020-06-28T13:15:39Z</time>
      </trkpt>
      <trkpt lat="48.58459" lon="7.74078">
        <ele>141.7</ele>
        <time>2020-06-28T13:15:40Z</time>
      </trkpt>
      <trkpt lat="48.58459" lon="7.74079">
        <ele>141.7</ele>
        <time>2020-06-28T13:15:41Z</time>
      </trkpt>
      <trkpt lat="48.58458" lon="7.74079">
        <ele>141.7</ele>
        <time>2020-06-28T13:15:42Z</time>
      </trkpt>
      <trkpt lat="48.58459" lon="7.7408">
        <ele>141.7</ele>
        <time>2020-06-28T13:15:43Z</time>
      </trkpt>
      <trkpt lat="48.58459" lon="7.7408">
        <ele>141.7</ele>
        <time>2020-06-28T13:15:44Z</time>
      </trkpt>
      <trkpt lat="48.58459" lon="7.74079">
        <ele>141.7</ele>
        <time>2020-06-28T13:15:45Z</time>
      </trkpt>
      <trkpt lat="48.58459" lon="7.7408">
        <ele>141.7</ele>
        <time>2020-06-28T13:15:46Z</time>
      </trkpt>
      <trkpt lat="48.58459" lon="7.7408">
        <ele>141.7</ele>
        <time>2020-06-28T13:15:47Z</time>
      </trkpt>
      <trkpt lat="48.58459" lon="7.74079">
        <ele>141.7</ele>
        <time>2020-06-28T13:15:48Z</time>
      </trkpt>
      <trkpt lat="48.58459" lon="7.74079">
        <ele>141.7</ele>
        <time>2020-06-28T13:15:49Z</time>
      </trkpt>
      <trkpt lat="48.58476" lon="7.74083">
        <ele>141.5</ele>
        <time>2020-06-28T13:18:06Z</time>
      </trkpt>
      <trkpt lat="48.58476" lon="7.74082">
        <ele>141.5</ele>
        <time>2020-06-28T13:18:07Z</time>
      </trkpt>
      <trkpt lat="48.58477" lon="7.74083">
        <ele>141.5</ele>
        <time>2020-06-28T13:18:08Z</time>
      </trkpt>
      <trkpt lat="48.58479" lon="7.74083">
        <ele>141.5</ele>
        <time>2020-06-28T13:18:09Z</time>
      </trkpt>
      <trkpt lat="48.5848" lon="7.74083">
        <ele>141.5</ele>
        <time>2020-06-28T13:18:10Z</time>
      </trkpt>
      <trkpt lat="48.58482" lon="7.74083">
        <ele>141.5</ele>
        <time>2020-06-28T13:18:11Z</time>
      </trkpt>
      <trkpt lat="48.58484" lon="7.74079">
        <ele>141.5</ele>
        <time>2020-06-28T13:18:12Z</time>
      </trkpt>
      <trkpt lat="48.58485" lon="7.74078">
        <ele>141.4</ele>
        <time>2020-06-28T13:18:13Z</time>
      </trkpt>
      <trkpt lat="48.58487" lon="7.74077">
        <ele>141.4</ele>
        <time>2020-06-28T13:18:14Z</time>
      </trkpt>
      <trkpt lat="48.58488" lon="7.74076">
        <ele>141.4</ele>
        <time>2020-06-28T13:18:15Z</time>
      </trkpt>
      <trkpt lat="48.58489" lon="7.74073">
        <ele>141.4</ele>
        <time>2020-06-28T13:18:16Z</time>
      </trkpt>
      <trkpt lat="48.5849" lon="7.74071">
        <ele>141.4</ele>
        <time>2020-06-28T13:18:17Z</time>
      </trkpt>
      <trkpt lat="48.58493" lon="7.74069">
        <ele>141.4</ele>
        <time>2020-06-28T13:18:18Z</time>
      </trkpt>
      <trkpt lat="48.58494" lon="7.74068">
        <ele>141.4</ele>
        <time>2020-06-28T13:18:19Z</time>
      </trkpt>
      <trkpt lat="48.58494" lon="7.74068">
        <ele>141.4</ele>
        <time>2020-06-28T13:18:20Z</time>
      </trkpt>
      <trkpt lat="48.58495" lon="7.74067">
        <ele>141.4</ele>
        <time>2020-06-28T13:18:21Z</time>
      </trkpt>
      <trkpt lat="48.58496" lon="7.74067">
        <ele>141.3</ele>
        <time>2020-06-28T13:18:22Z</time>
      </trkpt>
      <trkpt lat="48.58496" lon="7.74067">
        <ele>141.3</ele>
        <time>2020-06-28T13:18:23Z</time>
      </trkpt>
      <trkpt lat="48.58497" lon="7.74068">
        <ele>141.3</ele>
        <time>2020-06-28T13:18:24Z</time>
      </trkpt>
      <trkpt lat="48.58497" lon="7.74068">
        <ele>141.3</ele>
        <time>2020-06-28T13:18:25Z</time>
      </trkpt>
      <trkpt lat="48.58497" lon="7.74068">
        <ele>141.3</ele>
        <time>2020-06-28T13:18:26Z</time>
      </trkpt>
      <trkpt lat="48.58497" lon="7.74067">
        <ele>141.3</ele>
        <time>2020-06-28T13:18:27Z</time>
      </trkpt>
      <trkpt lat="48.58498" lon="7.74067">
        <ele>141.3</ele>
        <time>2020-06-28T13:18:28Z</time>
      </trkpt>
      <trkpt lat="48.58498" lon="7.74067">
        <ele>141.3</ele>
        <time>2020-06-28T13:18:29Z</time>
      </trkpt>
      <trkpt lat="48.58498" lon="7.74067">
        <ele>141.3</ele>
        <time>2020-06-28T13:18:30Z</time>
      </trkpt>
      <trkpt lat="48.58498" lon="7.74067">
        <ele>141.3</ele>
        <time>2020-06-28T13:18:31Z</time>
      </trkpt>
      <trkpt lat="48.58499" lon="7.74065">
        <ele>141.3</ele>
        <time>2020-06-28T13:18:32Z</time>
      </trkpt>
      <trkpt lat="48.58499" lon="7.74065">
        <ele>141.3</ele>
        <time>2020-06-28T13:18:33Z</time>
      </trkpt>
      <trkpt lat="48.58499" lon="7.74066">
        <ele>141.3</ele>
        <time>2020-06-28T13:18:34Z</time>
      </trkpt>
      <trkpt lat="48.58493" lon="7.74062">
        <ele>141.3</ele>
        <time>2020-06-28T13:20:40Z</time>
      </trkpt>
      <trkpt lat="48.58493" lon="7.74063">
        <ele>141.3</ele>
        <time>2020-06-28T13:20:41Z</time>
      </trkpt>
      <trkpt lat="48.58494" lon="7.74063">
        <ele>141.3</ele>
        <time>2020-06-28T13:20:42Z</time>
      </trkpt>
      <trkpt lat="48.58494" lon="7.74064">
        <ele>141.3</ele>
        <time>2020-06-28T13:20:43Z</time>
      </trkpt>
      <trkpt lat="48.58494" lon="7.74064">
        <ele>141.3</ele>
        <time>2020-06-28T13:20:44Z</time>
      </trkpt>
      <trkpt lat="48.58494" lon="7.74064">
        <ele>141.3</ele>
        <time>2020-06-28T13:20:45Z</time>
      </trkpt>
      <trkpt lat="48.58494" lon="7.74064">
        <ele>141.3</ele>
        <time>2020-06-28T13:20:46Z</time>
      </trkpt>
      <trkpt lat="48.58494" lon="7.74064">
        <ele>141.3</ele>
        <time>2020-06-28T13:20:47Z</time>
      </trkpt>
      <trkpt lat="48.58494" lon="7.74064">
        <ele>141.3</ele>
        <time>2020-06-28T13:20:48Z</time>
      </trkpt>
      <trkpt lat="48.58494" lon="7.74064">
        <ele>141.3</ele>
        <time>2020-06-28T13:20:49Z</time>
      </trkpt>
      <trkpt lat="48.58494" lon="7.74064">
        <ele>141.3</ele>
        <time>2020-06-28T13:20:50Z</time>
      </trkpt>
      <trkpt lat="48.58494" lon="7.74064">
        <ele>141.3</ele>
        <time>2020-06-28T13:20:51Z</time>
      </trkpt>
      <trkpt lat="48.58494" lon="7.74064">
        <ele>141.3</ele>
        <time>2020-06-28T13:20:52Z</time>
      </trkpt>
      <trkpt lat="48.58494" lon="7.74064">
        <ele>141.3</ele>
        <time>2020-06-28T13:20:53Z</time>
      </trkpt>
      <trkpt lat="48.58501" lon="7.74034">
        <ele>141.2</ele>
        <time>2020-06-28T13:23:05Z</time>
      </trkpt>
      <trkpt lat="48.58502" lon="7.74034">
        <ele>141.2</ele>
        <time>2020-06-28T13:23:06Z</time>
      </trkpt>
      <trkpt lat="48.58501" lon="7.74035">
        <ele>141.2</ele>
        <time>2020-06-28T13:23:07Z</time>
      </trkpt>
      <trkpt lat="48.58501" lon="7.74037">
        <ele>141.2</ele>
        <time>2020-06-28T13:23:08Z</time>
      </trkpt>
      <trkpt lat="48.58501" lon="7.74036">
        <ele>141.2</ele>
        <time>2020-06-28T13:23:09Z</time>
      </trkpt>
      <trkpt lat="48.58501" lon="7.74035">
        <ele>141.2</ele>
        <time>2020-06-28T13:23:10Z</time>
      </trkpt>
      <trkpt lat="48.58502" lon="7.74034">
        <ele>141.2</ele>
        <time>2020-06-28T13:23:11Z</time>
      </trkpt>
      <trkpt lat="48.58501" lon="7.74033">
        <ele>141.2</ele>
        <time>2020-06-28T13:23:12Z</time>
      </trkpt>
      <trkpt lat="48.58502" lon="7.74033">
        <ele>141.2</ele>
        <time>2020-06-28T13:23:13Z</time>
      </trkpt>
      <trkpt lat="48.58502" lon="7.74036">
        <ele>141.2</ele>
        <time>2020-06-28T13:23:14Z</time>
      </trkpt>
      <trkpt lat="48.58502" lon="7.74034">
        <ele>141.2</ele>
        <time>2020-06-28T13:23:15Z</time>
      </trkpt>
      <trkpt lat="48.58502" lon="7.74035">
        <ele>141.2</ele>
        <time>2020-06-28T13:23:16Z</time>
      </trkpt>
      <trkpt lat="48.58501" lon="7.74037">
        <ele>141.2</ele>
        <time>2020-06-28T13:23:17Z</time>
      </trkpt>
      <trkpt lat="48.58502" lon="7.74037">
        <ele>141.2</ele>
        <time>2020-06-28T13:23:18Z</time>
      </trkpt>
      <trkpt lat="48.58502" lon="7.74037">
        <ele>141.2</ele>
        <time>2020-06-28T13:23:19Z</time>
      </trkpt>
      <trkpt lat="48.58501" lon="7.74038">
        <ele>141.2</ele>
        <time>2020-06-28T13:23:20Z</time>
      </trkpt>
      <trkpt lat="48.58501" lon="7.74039">
        <ele>141.2</ele>
        <time>2020-06-28T13:23:21Z</time>
      </trkpt>
      <trkpt lat="48.58501" lon="7.7404">
        <ele>141.2</ele>
        <time>2020-06-28T13:23:22Z</time>
      </trkpt>
      <trkpt lat="48.58502" lon="7.7404">
        <ele>141.2</ele>
        <time>2020-06-28T13:23:23Z</time>
      </trkpt>
      <trkpt lat="48.58501" lon="7.74043">
        <ele>141.2</ele>
        <time>2020-06-28T13:23:24Z</time>
      </trkpt>
      <trkpt lat="48.58501" lon="7.74043">
        <ele>141.2</ele>
        <time>2020-06-28T13:23:25Z</time>
      </trkpt>
      <trkpt lat="48.58501" lon="7.74043">
        <ele>141.3</ele>
        <time>2020-06-28T13:23:26Z</time>
      </trkpt>
      <trkpt lat="48.58501" lon="7.74043">
        <ele>141.3</ele>
        <time>2020-06-28T13:23:27Z</time>
      </trkpt>
      <trkpt lat="48.58501" lon="7.74043">
        <ele>141.3</ele>
        <time>2020-06-28T13:23:28Z</time>
      </trkpt>
      <trkpt lat="48.585" lon="7.74041">
        <ele>141.3</ele>
        <time>2020-06-28T13:23:29Z</time>
      </trkpt>
      <trkpt lat="48.585" lon="7.74041">
        <ele>141.3</ele>
        <time>2020-06-28T13:23:30Z</time>
      </trkpt>
      <trkpt lat="48.585" lon="7.74041">
        <ele>141.3</ele>
        <time>2020-06-28T13:23:31Z</time>
      </trkpt>
      <trkpt lat="48.585" lon="7.74042">
        <ele>141.3</ele>
        <time>2020-06-28T13:23:32Z</time>
      </trkpt>
      <trkpt lat="48.585" lon="7.74043">
        <ele>141.3</ele>
        <time>2020-06-28T13:23:33Z</time>
      </trkpt>
      <trkpt lat="48.585" lon="7.74043">
        <ele>141.3</ele>
        <time>2020-06-28T13:23:34Z</time>
      </trkpt>
      <trkpt lat="48.585" lon="7.74044">
        <ele>141.3</ele>
        <time>2020-06-28T13:23:35Z</time>
      </trkpt>
      <trkpt lat="48.58499" lon="7.74045">
        <ele>141.3</ele>
        <time>2020-06-28T13:23:36Z</time>
      </trkpt>
      <trkpt lat="48.58499" lon="7.74046">
        <ele>141.3</ele>
        <time>2020-06-28T13:23:37Z</time>
      </trkpt>
      <trkpt lat="48.58501" lon="7.74053">
        <ele>141.3</ele>
        <time>2020-06-28T13:24:23Z</time>
      </trkpt>
      <trkpt lat="48.58499" lon="7.74052">
        <ele>141.3</ele>
        <time>2020-06-28T13:24:24Z</time>
      </trkpt>
      <trkpt lat="48.58499" lon="7.74051">
        <ele>141.3</ele>
        <time>2020-06-28T13:24:25Z</time>
      </trkpt>
      <trkpt lat="48.58498" lon="7.74052">
        <ele>141.3</ele>
        <time>2020-06-28T13:24:26Z</time>
      </trkpt>
      <trkpt lat="48.58498" lon="7.74051">
        <ele>141.3</ele>
        <time>2020-06-28T13:24:27Z</time>
      </trkpt>
      <trkpt lat="48.58497" lon="7.7405">
        <ele>141.3</ele>
        <time>2020-06-28T13:24:28Z</time>
      </trkpt>
      <trkpt lat="48.58496" lon="7.7405">
        <ele>141.3</ele>
        <time>2020-06-28T13:24:29Z</time>
      </trkpt>
      <trkpt lat="48.58495" lon="7.7405">
        <ele>141.3</ele>
        <time>2020-06-28T13:24:30Z</time>
      </trkpt>
      <trkpt lat="48.58496" lon="7.74049">
        <ele>141.3</ele>
        <time>2020-06-28T13:24:31Z</time>
      </trkpt>
      <trkpt lat="48.58497" lon="7.74049">
        <ele>141.3</ele>
        <time>2020-06-28T13:24:32Z</time>
      </trkpt>
      <trkpt lat="48.58498" lon="7.74049">
        <ele>141.3</ele>
        <time>2020-06-28T13:24:33Z</time>
      </trkpt>
      <trkpt lat="48.58498" lon="7.74049">
        <ele>141.3</ele>
        <time>2020-06-28T13:24:34Z</time>
      </trkpt>
      <trkpt lat="48.58498" lon="7.74048">
        <ele>141.3</ele>
        <time>2020-06-28T13:24:35Z</time>
      </trkpt>
      <trkpt lat="48.58498" lon="7.74048">
        <ele>141.3</ele>
        <time>2020-06-28T13:24:36Z</time>
      </trkpt>
      <trkpt lat="48.58498" lon="7.74047">
        <ele>141.3</ele>
        <time>2020-06-28T13:24:37Z</time>
      </trkpt>
      <trkpt lat="48.58498" lon="7.74047">
        <ele>141.3</ele>
        <time>2020-06-28T13:24:38Z</time>
      </trkpt>
      <trkpt lat="48.58499" lon="7.74047">
        <ele>141.3</ele>
        <time>2020-06-28T13:24:39Z</time>
      </trkpt>
      <trkpt lat="48.58499" lon="7.74046">
        <ele>141.3</ele>
        <time>2020-06-28T13:24:40Z</time>
      </trkpt>
      <trkpt lat="48.58487" lon="7.74042">
        <ele>141.3</ele>
        <time>2020-06-28T13:27:10Z</time>
      </trkpt>
      <trkpt lat="48.58486" lon="7.74042">
        <ele>141.4</ele>
        <time>2020-06-28T13:27:11Z</time>
      </trkpt>
      <trkpt lat="48.58486" lon="7.74041">
        <ele>141.4</ele>
        <time>2020-06-28T13:27:12Z</time>
      </trkpt>
      <trkpt lat="48.58486" lon="7.74041">
        <ele>141.4</ele>
        <time>2020-06-28T13:27:13Z</time>
      </trkpt>
      <trkpt lat="48.58486" lon="7.74041">
        <ele>141.4</ele>
        <time>2020-06-28T13:27:14Z</time>
      </trkpt>
      <trkpt lat="48.58486" lon="7.74041">
        <ele>141.4</ele>
        <time>2020-06-28T13:27:15Z</time>
      </trkpt>
      <trkpt lat="48.58487" lon="7.74041">
        <ele>141.4</ele>
        <time>2020-06-28T13:27:16Z</time>
      </trkpt>
      <trkpt lat="48.58487" lon="7.74042">
        <ele>141.4</ele>
        <time>2020-06-28T13:27:17Z</time>
      </trkpt>
      <trkpt lat="48.58487" lon="7.74042">
        <ele>141.4</ele>
        <time>2020-06-28T13:27:18Z</time>
      </trkpt>
      <trkpt lat="48.58487" lon="7.74042">
        <ele>141.4</ele>
        <time>2020-06-28T13:27:19Z</time>
      </trkpt>
      <trkpt lat="48.58487" lon="7.74044">
        <ele>141.4</ele>
        <time>2020-06-28T13:27:20Z</time>
      </trkpt>
      <trkpt lat="48.58486" lon="7.74044">
        <ele>141.4</ele>
        <time>2020-06-28T13:27:21Z</time>
      </trkpt>
      <trkpt lat="48.58486" lon="7.74044">
        <ele>141.4</ele>
        <time>2020-06-28T13:27:22Z</time>
      </trkpt>
      <trkpt lat="48.58487" lon="7.74044">
        <ele>141.4</ele>
        <time>2020-06-28T13:27:23Z</time>
      </trkpt>
      <trkpt lat="48.58488" lon="7.74044">
        <ele>141.4</ele>
        <time>2020-06-28T13:27:24Z</time>
      </trkpt>
      <trkpt lat="48.58488" lon="7.74043">
        <ele>141.4</ele>
        <time>2020-06-28T13:27:25Z</time>
      </trkpt>
      <trkpt lat="48.58489" lon="7.74041">
        <ele>141.4</ele>
        <time>2020-06-28T13:27:26Z</time>
      </trkpt>
      <trkpt lat="48.5849" lon="7.7404">
        <ele>141.4</ele>
        <time>2020-06-28T13:27:27Z</time>
      </trkpt>
      <trkpt lat="48.5849" lon="7.7404">
        <ele>141.4</ele>
        <time>2020-06-28T13:27:28Z</time>
      </trkpt>
      <trkpt lat="48.5849" lon="7.74039">
        <ele>141.4</ele>
        <time>2020-06-28T13:27:29Z</time>
      </trkpt>
      <trkpt lat="48.5849" lon="7.7404">
        <ele>141.4</ele>
        <time>2020-06-28T13:27:30Z</time>
      </trkpt>
      <trkpt lat="48.5849" lon="7.7404">
        <ele>141.4</ele>
        <time>2020-06-28T13:27:31Z</time>
      </trkpt>
      <trkpt lat="48.58489" lon="7.7404">
        <ele>141.4</ele>
        <time>2020-06-28T13:27:32Z</time>
      </trkpt>
      <trkpt lat="48.58489" lon="7.7404">
        <ele>141.4</ele>
        <time>2020-06-28T13:27:33Z</time>
      </trkpt>
      <trkpt lat="48.58488" lon="7.7404">
        <ele>141.4</ele>
        <time>2020-06-28T13:27:34Z</time>
      </trkpt>
      <trkpt lat="48.58488" lon="7.74041">
        <ele>141.4</ele>
        <time>2020-06-28T13:27:35Z</time>
      </trkpt>
      <trkpt lat="48.58488" lon="7.74041">
        <ele>141.4</ele>
        <time>2020-06-28T13:27:36Z</time>
      </trkpt>
      <trkpt lat="48.58488" lon="7.74041">
        <ele>141.4</ele>
        <time>2020-06-28T13:27:37Z</time>
      </trkpt>
      <trkpt lat="48.58488" lon="7.74041">
        <ele>141.4</ele>
        <time>2020-06-28T13:27:38Z</time>
      </trkpt>
      <trkpt lat="48.58487" lon="7.74042">
        <ele>141.4</ele>
        <time>2020-06-28T13:27:39Z</time>
      </trkpt>
      <trkpt lat="48.58487" lon="7.74041">
        <ele>141.4</ele>
        <time>2020-06-28T13:27:40Z</time>
      </trkpt>
      <trkpt lat="48.58487" lon="7.74042">
        <ele>141.4</ele>
        <time>2020-06-28T13:27:41Z</time>
      </trkpt>
      <trkpt lat="48.58488" lon="7.74042">
        <ele>141.4</ele>
        <time>2020-06-28T13:27:42Z</time>
      </trkpt>
      <trkpt lat="48.58488" lon="7.74042">
        <ele>141.4</ele>
        <time>2020-06-28T13:27:43Z</time>
      </trkpt>
      <trkpt lat="48.58489" lon="7.7404">
        <ele>141.4</ele>
        <time>2020-06-28T13:27:44Z</time>
      </trkpt>
      <trkpt lat="48.5849" lon="7.7404">
        <ele>141.4</ele>
        <time>2020-06-28T13:27:45Z</time>
      </trkpt>
      <trkpt lat="48.58491" lon="7.7404">
        <ele>141.4</ele>
        <time>2020-06-28T13:27:46Z</time>
      </trkpt>
      <trkpt lat="48.58491" lon="7.74039">
        <ele>141.4</ele>
        <time>2020-06-28T13:27:47Z</time>
      </trkpt>
      <trkpt lat="48.58492" lon="7.74039">
        <ele>141.4</ele>
        <time>2020-06-28T13:27:48Z</time>
      </trkpt>
      <trkpt lat="48.58491" lon="7.7404">
        <ele>141.4</ele>
        <time>2020-06-28T13:27:49Z</time>
      </trkpt>
      <trkpt lat="48.58492" lon="7.7404">
        <ele>141.4</ele>
        <time>2020-06-28T13:27:50Z</time>
      </trkpt>
      <trkpt lat="48.58492" lon="7.74041">
        <ele>141.4</ele>
        <time>2020-06-28T13:27:51Z</time>
      </trkpt>
      <trkpt lat="48.58492" lon="7.7404">
        <ele>141.4</ele>
        <time>2020-06-28T13:27:52Z</time>
      </trkpt>
      <trkpt lat="48.58493" lon="7.74039">
        <ele>141.4</ele>
        <time>2020-06-28T13:27:53Z</time>
      </trkpt>
      <trkpt lat="48.58493" lon="7.74039">
        <ele>141.4</ele>
        <time>2020-06-28T13:27:54Z</time>
      </trkpt>
      <trkpt lat="48.58493" lon="7.74039">
        <ele>141.4</ele>
        <time>2020-06-28T13:27:55Z</time>
      </trkpt>
      <trkpt lat="48.58494" lon="7.74036">
        <ele>141.4</ele>
        <time>2020-06-28T13:27:56Z</time>
      </trkpt>
      <trkpt lat="48.58493" lon="7.74034">
        <ele>141.4</ele>
        <time>2020-06-28T13:27:57Z</time>
      </trkpt>
      <trkpt lat="48.58493" lon="7.74032">
        <ele>141.4</ele>
        <time>2020-06-28T13:27:58Z</time>
      </trkpt>
      <trkpt lat="48.58492" lon="7.7403">
        <ele>141.4</ele>
        <time>2020-06-28T13:27:59Z</time>
      </trkpt>
      <trkpt lat="48.58491" lon="7.74029">
        <ele>141.4</ele>
        <time>2020-06-28T13:28:00Z</time>
      </trkpt>
      <trkpt lat="48.58491" lon="7.74029">
        <ele>141.4</ele>
        <time>2020-06-28T13:28:01Z</time>
      </trkpt>
      <trkpt lat="48.58491" lon="7.74027">
        <ele>141.4</ele>
        <time>2020-06-28T13:28:02Z</time>
      </trkpt>
      <trkpt lat="48.58491" lon="7.74025">
        <ele>141.4</ele>
        <time>2020-06-28T13:28:03Z</time>
      </trkpt>
      <trkpt lat="48.5849" lon="7.74025">
        <ele>141.4</ele>
        <time>2020-06-28T13:28:04Z</time>
      </trkpt>
      <trkpt lat="48.5849" lon="7.74026">
        <ele>141.4</ele>
        <time>2020-06-28T13:28:05Z</time>
      </trkpt>
      <trkpt lat="48.5849" lon="7.74027">
        <ele>141.4</ele>
        <time>2020-06-28T13:28:06Z</time>
      </trkpt>
      <trkpt lat="48.5849" lon="7.74028">
        <ele>141.4</ele>
        <time>2020-06-28T13:28:07Z</time>
      </trkpt>
      <trkpt lat="48.58489" lon="7.74029">
        <ele>141.4</ele>
        <time>2020-06-28T13:28:08Z</time>
      </trkpt>
      <trkpt lat="48.58489" lon="7.7403">
        <ele>141.4</ele>
        <time>2020-06-28T13:28:09Z</time>
      </trkpt>
      <trkpt lat="48.58489" lon="7.74031">
        <ele>141.4</ele>
        <time>2020-06-28T13:28:10Z</time>
      </trkpt>
      <trkpt lat="48.58489" lon="7.74032">
        <ele>141.4</ele>
        <time>2020-06-28T13:28:11Z</time>
      </trkpt>
      <trkpt lat="48.58489" lon="7.74033">
        <ele>141.4</ele>
        <time>2020-06-28T13:28:12Z</time>
      </trkpt>
      <trkpt lat="48.58489" lon="7.74034">
        <ele>141.4</ele>
        <time>2020-06-28T13:28:13Z</time>
      </trkpt>
      <trkpt lat="48.58489" lon="7.74035">
        <ele>141.5</ele>
        <time>2020-06-28T13:28:14Z</time>
      </trkpt>
      <trkpt lat="48.58488" lon="7.74036">
        <ele>141.5</ele>
        <time>2020-06-28T13:28:15Z</time>
      </trkpt>
      <trkpt lat="48.58488" lon="7.74037">
        <ele>141.5</ele>
        <time>2020-06-28T13:28:41Z</time>
      </trkpt>
      <trkpt lat="48.58488" lon="7.74038">
        <ele>141.5</ele>
        <time>2020-06-28T13:28:42Z</time>
      </trkpt>
      <trkpt lat="48.58488" lon="7.7404">
        <ele>141.5</ele>
        <time>2020-06-28T13:28:43Z</time>
      </trkpt>
      <trkpt lat="48.58488" lon="7.74041">
        <ele>141.5</ele>
        <time>2020-06-28T13:28:44Z</time>
      </trkpt>
      <trkpt lat="48.58488" lon="7.74042">
        <ele>141.5</ele>
        <time>2020-06-28T13:28:45Z</time>
      </trkpt>
      <trkpt lat="48.58487" lon="7.74043">
        <ele>141.5</ele>
        <time>2020-06-28T13:28:46Z</time>
      </trkpt>
      <trkpt lat="48.58487" lon="7.74044">
        <ele>141.5</ele>
        <time>2020-06-28T13:28:47Z</time>
      </trkpt>
      <trkpt lat="48.58487" lon="7.74045">
        <ele>141.5</ele>
        <time>2020-06-28T13:28:48Z</time>
      </trkpt>
      <trkpt lat="48.58487" lon="7.74046">
        <ele>141.5</ele>
        <time>2020-06-28T13:28:49Z</time>
      </trkpt>
      <trkpt lat="48.58487" lon="7.74047">
        <ele>141.5</ele>
        <time>2020-06-28T13:28:50Z</time>
      </trkpt>
      <trkpt lat="48.58487" lon="7.74048">
        <ele>141.5</ele>
        <time>2020-06-28T13:28:51Z</time>
      </trkpt>
      <trkpt lat="48.58487" lon="7.74049">
        <ele>141.5</ele>
        <time>2020-06-28T13:28:52Z</time>
      </trkpt>
      <trkpt lat="48.58486" lon="7.7405">
        <ele>141.5</ele>
        <time>2020-06-28T13:28:53Z</time>
      </trkpt>
      <trkpt lat="48.58486" lon="7.74051">
        <ele>141.5</ele>
        <time>2020-06-28T13:29:36Z</time>
      </trkpt>
      <trkpt lat="48.58486" lon="7.74052">
        <ele>141.5</ele>
        <time>2020-06-28T13:29:37Z</time>
      </trkpt>
      <trkpt lat="48.58486" lon="7.74053">
        <ele>141.5</ele>
        <time>2020-06-28T13:29:38Z</time>
      </trkpt>
      <trkpt lat="48.58486" lon="7.74054">
        <ele>141.5</ele>
        <time>2020-06-28T13:29:39Z</time>
      </trkpt>
      <trkpt lat="48.58483" lon="7.74055">
        <ele>141.5</ele>
        <time>2020-06-28T13:29:40Z</time>
      </trkpt>
      <trkpt lat="48.58482" lon="7.74056">
        <ele>141.5</ele>
        <time>2020-06-28T13:29:41Z</time>
      </trkpt>
      <trkpt lat="48.5848" lon="7.74058">
        <ele>141.5</ele>
        <time>2020-06-28T13:29:42Z</time>
      </trkpt>
      <trkpt lat="48.58477" lon="7.7406">
        <ele>141.5</ele>
        <time>2020-06-28T13:29:43Z</time>
      </trkpt>
      <trkpt lat="48.58474" lon="7.74061">
        <ele>141.5</ele>
        <time>2020-06-28T13:29:44Z</time>
      </trkpt>
      <trkpt lat="48.58472" lon="7.74062">
        <ele>141.5</ele>
        <time>2020-06-28T13:29:45Z</time>
      </trkpt>
      <trkpt lat="48.58469" lon="7.74064">
        <ele>141.5</ele>
        <time>2020-06-28T13:29:46Z</time>
      </trkpt>
      <trkpt lat="48.58466" lon="7.74067">
        <ele>141.6</ele>
        <time>2020-06-28T13:29:47Z</time>
      </trkpt>
      <trkpt lat="48.58465" lon="7.74068">
        <ele>141.6</ele>
        <time>2020-06-28T13:29:48Z</time>
      </trkpt>
      <trkpt lat="48.58463" lon="7.74071">
        <ele>141.6</ele>
        <time>2020-06-28T13:29:49Z</time>
      </trkpt>
      <trkpt lat="48.58462" lon="7.74072">
        <ele>141.6</ele>
        <time>2020-06-28T13:29:50Z</time>
      </trkpt>
      <trkpt lat="48.58463" lon="7.74072">
        <ele>141.6</ele>
        <time>2020-06-28T13:29:51Z</time>
      </trkpt>
      <trkpt lat="48.58462" lon="7.74073">
        <ele>141.6</ele>
        <time>2020-06-28T13:29:52Z</time>
      </trkpt>
      <trkpt lat="48.58462" lon="7.74074">
        <ele>141.6</ele>
        <time>2020-06-28T13:29:53Z</time>
      </trkpt>
      <trkpt lat="48.58462" lon="7.74074">
        <ele>141.6</ele>
        <time>2020-06-28T13:29:54Z</time>
      </trkpt>
      <trkpt lat="48.58461" lon="7.74074">
        <ele>141.6</ele>
        <time>2020-06-28T13:29:55Z</time>
      </trkpt>
      <trkpt lat="48.58461" lon="7.74074">
        <ele>141.6</ele>
        <time>2020-06-28T13:29:56Z</time>
      </trkpt>
      <trkpt lat="48.58461" lon="7.74073">
        <ele>141.6</ele>
        <time>2020-06-28T13:29:57Z</time>
      </trkpt>
      <trkpt lat="48.5846" lon="7.74073">
        <ele>141.6</ele>
        <time>2020-06-28T13:29:58Z</time>
      </trkpt>
      <trkpt lat="48.5846" lon="7.74074">
        <ele>141.6</ele>
        <time>2020-06-28T13:29:59Z</time>
      </trkpt>
      <trkpt lat="48.58459" lon="7.74074">
        <ele>141.6</ele>
        <time>2020-06-28T13:30:00Z</time>
      </trkpt>
      <trkpt lat="48.58456" lon="7.7407">
        <ele>141.6</ele>
        <time>2020-06-28T13:30:01Z</time>
      </trkpt>
      <trkpt lat="48.58455" lon="7.74069">
        <ele>141.6</ele>
        <time>2020-06-28T13:30:02Z</time>
      </trkpt>
      <trkpt lat="48.58452" lon="7.74066">
        <ele>141.6</ele>
        <time>2020-06-28T13:30:03Z</time>
      </trkpt>
      <trkpt lat="48.5845" lon="7.74061">
        <ele>141.6</ele>
        <time>2020-06-28T13:30:04Z</time>
      </trkpt>
      <trkpt lat="48.58447" lon="7.74057">
        <ele>141.6</ele>
        <time>2020-06-28T13:30:05Z</time>
      </trkpt>
      <trkpt lat="48.58445" lon="7.74052">
        <ele>141.6</ele>
        <time>2020-06-28T13:30:06Z</time>
      </trkpt>
      <trkpt lat="48.58442" lon="7.74047">
        <ele>141.6</ele>
        <time>2020-06-28T13:30:07Z</time>
      </trkpt>
      <trkpt lat="48.58439" lon="7.74043">
        <ele>141.6</ele>
        <time>2020-06-28T13:30:08Z</time>
      </trkpt>
      <trkpt lat="48.58436" lon="7.74039">
        <ele>141.6</ele>
        <time>2020-06-28T13:30:09Z</time>
      </trkpt>
      <trkpt lat="48.58433" lon="7.74033">
        <ele>141.5</ele>
        <time>2020-06-28T13:30:10Z</time>
      </trkpt>
      <trkpt lat="48.58429" lon="7.74028">
        <ele>141.5</ele>
        <time>2020-06-28T13:30:11Z</time>
      </trkpt>
      <trkpt lat="48.58426" lon="7.74023">
        <ele>141.5</ele>
        <time>2020-06-28T13:30:12Z</time>
      </trkpt>
      <trkpt lat="48.58424" lon="7.74019">
        <ele>141.5</ele>
        <time>2020-06-28T13:30:13Z</time>
      </trkpt>
      <trkpt lat="48.58421" lon="7.74014">
        <ele>141.5</ele>
        <time>2020-06-28T13:30:14Z</time>
      </trkpt>
      <trkpt lat="48.58418" lon="7.74011">
        <ele>141.5</ele>
        <time>2020-06-28T13:30:15Z</time>
      </trkpt>
      <trkpt lat="48.58415" lon="7.74008">
        <ele>141.4</ele>
        <time>2020-06-28T13:30:16Z</time>
      </trkpt>
      <trkpt lat="48.58411" lon="7.74005">
        <ele>141.4</ele>
        <time>2020-06-28T13:30:17Z</time>
      </trkpt>
      <trkpt lat="48.58409" lon="7.73998">
        <ele>141.4</ele>
        <time>2020-06-28T13:30:18Z</time>
      </trkpt>
      <trkpt lat="48.58406" lon="7.73992">
        <ele>141.4</ele>
        <time>2020-06-28T13:30:19Z</time>
      </trkpt>
      <trkpt lat="48.58404" lon="7.73987">
        <ele>141.4</ele>
        <time>2020-06-28T13:30:20Z</time>
      </trkpt>
      <trkpt lat="48.58402" lon="7.73981">
        <ele>141.4</ele>
        <time>2020-06-28T13:30:21Z</time>
      </trkpt>
      <trkpt lat="48.584" lon="7.73976">
        <ele>141.4</ele>
        <time>2020-06-28T13:30:22Z</time>
      </trkpt>
      <trkpt lat="48.58397" lon="7.73972">
        <ele>141.4</ele>
        <time>2020-06-28T13:30:23Z</time>
      </trkpt>
      <trkpt lat="48.58394" lon="7.73968">
        <ele>141.4</ele>
        <time>2020-06-28T13:30:24Z</time>
      </trkpt>
      <trkpt lat="48.58391" lon="7.73963">
        <ele>141.4</ele>
        <time>2020-06-28T13:30:25Z</time>
      </trkpt>
      <trkpt lat="48.5839" lon="7.73962">
        <ele>141.4</ele>
        <time>2020-06-28T13:30:26Z</time>
      </trkpt>
      <trkpt lat="48.58386" lon="7.73959">
        <ele>141.4</ele>
        <time>2020-06-28T13:30:27Z</time>
      </trkpt>
      <trkpt lat="48.58382" lon="7.73956">
        <ele>141.4</ele>
        <time>2020-06-28T13:30:28Z</time>
      </trkpt>
      <trkpt lat="48.58378" lon="7.73953">
        <ele>141.4</ele>
        <time>2020-06-28T13:30:29Z</time>
      </trkpt>
      <trkpt lat="48.58376" lon="7.73949">
        <ele>141.4</ele>
        <time>2020-06-28T13:30:30Z</time>
      </trkpt>
      <trkpt lat="48.58372" lon="7.73944">
        <ele>141.4</ele>
        <time>2020-06-28T13:30:31Z</time>
      </trkpt>
      <trkpt lat="48.5837" lon="7.7394">
        <ele>141.4</ele>
        <time>2020-06-28T13:30:32Z</time>
      </trkpt>
      <trkpt lat="48.58367" lon="7.73935">
        <ele>141.4</ele>
        <time>2020-06-28T13:30:33Z</time>
      </trkpt>
      <trkpt lat="48.58364" lon="7.73931">
        <ele>141.4</ele>
        <time>2020-06-28T13:30:34Z</time>
      </trkpt>
      <trkpt lat="48.58361" lon="7.73926">
        <ele>141.4</ele>
        <time>2020-06-28T13:30:35Z</time>
      </trkpt>
      <trkpt lat="48.58358" lon="7.73922">
        <ele>141.4</ele>
        <time>2020-06-28T13:30:36Z</time>
      </trkpt>
      <trkpt lat="48.58356" lon="7.73918">
        <ele>141.5</ele>
        <time>2020-06-28T13:30:37Z</time>
      </trkpt>
      <trkpt lat="48.58353" lon="7.73914">
        <ele>141.6</ele>
        <time>2020-06-28T13:30:38Z</time>
      </trkpt>
      <trkpt lat="48.5835" lon="7.73909">
        <ele>141.7</ele>
        <time>2020-06-28T13:30:39Z</time>
      </trkpt>
      <trkpt lat="48.58348" lon="7.73904">
        <ele>141.8</ele>
        <time>2020-06-28T13:30:40Z</time>
      </trkpt>
      <trkpt lat="48.58347" lon="7.73898">
        <ele>141.8</ele>
        <time>2020-06-28T13:30:41Z</time>
      </trkpt>
      <trkpt lat="48.58347" lon="7.73889">
        <ele>141.9</ele>
        <time>2020-06-28T13:30:42Z</time>
      </trkpt>
      <trkpt lat="48.58349" lon="7.73878">
        <ele>142</ele>
        <time>2020-06-28T13:30:43Z</time>
      </trkpt>
      <trkpt lat="48.58349" lon="7.73872">
        <ele>142.1</ele>
        <time>2020-06-28T13:30:44Z</time>
      </trkpt>
      <trkpt lat="48.58349" lon="7.73869">
        <ele>142.1</ele>
        <time>2020-06-28T13:30:45Z</time>
      </trkpt>
      <trkpt lat="48.58351" lon="7.73864">
        <ele>142.2</ele>
        <time>2020-06-28T13:30:46Z</time>
      </trkpt>
      <trkpt lat="48.58354" lon="7.73862">
        <ele>142.2</ele>
        <time>2020-06-28T13:30:47Z</time>
      </trkpt>
      <trkpt lat="48.58355" lon="7.73858">
        <ele>142.2</ele>
        <time>2020-06-28T13:30:48Z</time>
      </trkpt>
      <trkpt lat="48.58356" lon="7.73852">
        <ele>142.3</ele>
        <time>2020-06-28T13:30:49Z</time>
      </trkpt>
      <trkpt lat="48.58357" lon="7.73849">
        <ele>142.3</ele>
        <time>2020-06-28T13:30:50Z</time>
      </trkpt>
      <trkpt lat="48.58357" lon="7.73844">
        <ele>142.3</ele>
        <time>2020-06-28T13:30:51Z</time>
      </trkpt>
      <trkpt lat="48.58357" lon="7.73842">
        <ele>142.3</ele>
        <time>2020-06-28T13:30:52Z</time>
      </trkpt>
      <trkpt lat="48.58357" lon="7.73839">
        <ele>142.3</ele>
        <time>2020-06-28T13:30:53Z</time>
      </trkpt>
      <trkpt lat="48.58357" lon="7.73837">
        <ele>142.3</ele>
        <time>2020-06-28T13:30:54Z</time>
      </trkpt>
      <trkpt lat="48.58357" lon="7.73835">
        <ele>142.2</ele>
        <time>2020-06-28T13:30:55Z</time>
      </trkpt>
      <trkpt lat="48.58358" lon="7.73832">
        <ele>142.2</ele>
        <time>2020-06-28T13:30:56Z</time>
      </trkpt>
      <trkpt lat="48.5836" lon="7.73826">
        <ele>142.2</ele>
        <time>2020-06-28T13:30:57Z</time>
      </trkpt>
      <trkpt lat="48.5836" lon="7.73823">
        <ele>142.2</ele>
        <time>2020-06-28T13:30:58Z</time>
      </trkpt>
      <trkpt lat="48.58361" lon="7.73817">
        <ele>142.2</ele>
        <time>2020-06-28T13:30:59Z</time>
      </trkpt>
      <trkpt lat="48.58362" lon="7.73811">
        <ele>142.2</ele>
        <time>2020-06-28T13:31:00Z</time>
      </trkpt>
      <trkpt lat="48.58363" lon="7.73805">
        <ele>142.2</ele>
        <time>2020-06-28T13:31:01Z</time>
      </trkpt>
      <trkpt lat="48.58365" lon="7.73799">
        <ele>142.2</ele>
        <time>2020-06-28T13:31:02Z</time>
      </trkpt>
      <trkpt lat="48.58367" lon="7.73795">
        <ele>142.2</ele>
        <time>2020-06-28T13:31:03Z</time>
      </trkpt>
      <trkpt lat="48.5837" lon="7.73791">
        <ele>142.2</ele>
        <time>2020-06-28T13:31:04Z</time>
      </trkpt>
      <trkpt lat="48.58372" lon="7.73787">
        <ele>142.2</ele>
        <time>2020-06-28T13:31:05Z</time>
      </trkpt>
      <trkpt lat="48.58374" lon="7.73782">
        <ele>142.3</ele>
        <time>2020-06-28T13:31:06Z</time>
      </trkpt>
      <trkpt lat="48.58376" lon="7.73777">
        <ele>142.3</ele>
        <time>2020-06-28T13:31:07Z</time>
      </trkpt>
      <trkpt lat="48.58377" lon="7.73772">
        <ele>142.3</ele>
        <time>2020-06-28T13:31:08Z</time>
      </trkpt>
      <trkpt lat="48.58377" lon="7.73771">
        <ele>142.3</ele>
        <time>2020-06-28T13:31:09Z</time>
      </trkpt>
      <trkpt lat="48.58378" lon="7.73766">
        <ele>142.4</ele>
        <time>2020-06-28T13:31:10Z</time>
      </trkpt>
      <trkpt lat="48.58378" lon="7.73765">
        <ele>142.4</ele>
        <time>2020-06-28T13:31:11Z</time>
      </trkpt>
      <trkpt lat="48.58378" lon="7.73761">
        <ele>142.4</ele>
        <time>2020-06-28T13:31:12Z</time>
      </trkpt>
      <trkpt lat="48.58379" lon="7.73759">
        <ele>142.5</ele>
        <time>2020-06-28T13:31:13Z</time>
      </trkpt>
      <trkpt lat="48.5838" lon="7.73755">
        <ele>142.8</ele>
        <time>2020-06-28T13:31:14Z</time>
      </trkpt>
      <trkpt lat="48.5838" lon="7.73753">
        <ele>142.9</ele>
        <time>2020-06-28T13:31:15Z</time>
      </trkpt>
      <trkpt lat="48.5838" lon="7.73747">
        <ele>143.3</ele>
        <time>2020-06-28T13:31:16Z</time>
      </trkpt>
      <trkpt lat="48.5838" lon="7.73742">
        <ele>143.6</ele>
        <time>2020-06-28T13:31:17Z</time>
      </trkpt>
      <trkpt lat="48.58379" lon="7.73738">
        <ele>143.9</ele>
        <time>2020-06-28T13:31:18Z</time>
      </trkpt>
      <trkpt lat="48.58376" lon="7.73733">
        <ele>144.2</ele>
        <time>2020-06-28T13:31:19Z</time>
      </trkpt>
      <trkpt lat="48.58374" lon="7.73732">
        <ele>144.3</ele>
        <time>2020-06-28T13:31:20Z</time>
      </trkpt>
      <trkpt lat="48.58373" lon="7.73728">
        <ele>144.6</ele>
        <time>2020-06-28T13:31:21Z</time>
      </trkpt>
      <trkpt lat="48.58373" lon="7.73723">
        <ele>144.8</ele>
        <time>2020-06-28T13:31:22Z</time>
      </trkpt>
      <trkpt lat="48.58372" lon="7.73719">
        <ele>145</ele>
        <time>2020-06-28T13:31:23Z</time>
      </trkpt>
      <trkpt lat="48.58373" lon="7.73712">
        <ele>145.7</ele>
        <time>2020-06-28T13:31:24Z</time>
      </trkpt>
      <trkpt lat="48.58373" lon="7.73708">
        <ele>145.5</ele>
        <time>2020-06-28T13:31:25Z</time>
      </trkpt>
      <trkpt lat="48.58372" lon="7.7371">
        <ele>145.5</ele>
        <time>2020-06-28T13:31:26Z</time>
      </trkpt>
      <trkpt lat="48.58371" lon="7.73712">
        <ele>145.4</ele>
        <time>2020-06-28T13:31:27Z</time>
      </trkpt>
      <trkpt lat="48.5837" lon="7.73714">
        <ele>145.3</ele>
        <time>2020-06-28T13:31:28Z</time>
      </trkpt>
      <trkpt lat="48.58369" lon="7.73716">
        <ele>145.2</ele>
        <time>2020-06-28T13:31:29Z</time>
      </trkpt>
      <trkpt lat="48.58367" lon="7.73717">
        <ele>145.1</ele>
        <time>2020-06-28T13:31:30Z</time>
      </trkpt>
      <trkpt lat="48.58365" lon="7.7372">
        <ele>145</ele>
        <time>2020-06-28T13:31:31Z</time>
      </trkpt>
      <trkpt lat="48.58363" lon="7.73721">
        <ele>144.9</ele>
        <time>2020-06-28T13:31:32Z</time>
      </trkpt>
      <trkpt lat="48.58361" lon="7.73724">
        <ele>144.8</ele>
        <time>2020-06-28T13:31:33Z</time>
      </trkpt>
      <trkpt lat="48.5836" lon="7.73724">
        <ele>144.7</ele>
        <time>2020-06-28T13:31:34Z</time>
      </trkpt>
      <trkpt lat="48.58357" lon="7.73725">
        <ele>144.6</ele>
        <time>2020-06-28T13:31:35Z</time>
      </trkpt>
      <trkpt lat="48.58356" lon="7.73726">
        <ele>144.5</ele>
        <time>2020-06-28T13:31:36Z</time>
      </trkpt>
      <trkpt lat="48.58355" lon="7.73726">
        <ele>144.5</ele>
        <time>2020-06-28T13:31:37Z</time>
      </trkpt>
      <trkpt lat="48.58355" lon="7.73727">
        <ele>144.4</ele>
        <time>2020-06-28T13:31:38Z</time>
      </trkpt>
      <trkpt lat="48.58353" lon="7.73727">
        <ele>144.4</ele>
        <time>2020-06-28T13:31:39Z</time>
      </trkpt>
      <trkpt lat="48.58352" lon="7.73727">
        <ele>144.3</ele>
        <time>2020-06-28T13:31:40Z</time>
      </trkpt>
      <trkpt lat="48.58351" lon="7.73727">
        <ele>144.3</ele>
        <time>2020-06-28T13:31:41Z</time>
      </trkpt>
      <trkpt lat="48.5835" lon="7.73727">
        <ele>144.2</ele>
        <time>2020-06-28T13:31:42Z</time>
      </trkpt>
      <trkpt lat="48.5835" lon="7.73727">
        <ele>144.2</ele>
        <time>2020-06-28T13:31:43Z</time>
      </trkpt>
      <trkpt lat="48.58348" lon="7.73726">
        <ele>144.1</ele>
        <time>2020-06-28T13:31:44Z</time>
      </trkpt>
      <trkpt lat="48.58348" lon="7.73726">
        <ele>144.1</ele>
        <time>2020-06-28T13:31:45Z</time>
      </trkpt>
      <trkpt lat="48.58348" lon="7.73726">
        <ele>144.1</ele>
        <time>2020-06-28T13:31:46Z</time>
      </trkpt>
      <trkpt lat="48.58348" lon="7.73726">
        <ele>144.1</ele>
        <time>2020-06-28T13:31:47Z</time>
      </trkpt>
      <trkpt lat="48.58348" lon="7.73726">
        <ele>144.1</ele>
        <time>2020-06-28T13:31:48Z</time>
      </trkpt>
      <trkpt lat="48.58348" lon="7.73726">
        <ele>144.1</ele>
        <time>2020-06-28T13:31:49Z</time>
      </trkpt>
      <trkpt lat="48.58347" lon="7.73726">
        <ele>144.1</ele>
        <time>2020-06-28T13:31:50Z</time>
      </trkpt>
      <trkpt lat="48.58347" lon="7.73727">
        <ele>144.1</ele>
        <time>2020-06-28T13:31:51Z</time>
      </trkpt>
      <trkpt lat="48.58346" lon="7.73727">
        <ele>144.1</ele>
        <time>2020-06-28T13:31:52Z</time>
      </trkpt>
      <trkpt lat="48.58346" lon="7.73727">
        <ele>144</ele>
        <time>2020-06-28T13:31:53Z</time>
      </trkpt>
      <trkpt lat="48.58345" lon="7.73727">
        <ele>144</ele>
        <time>2020-06-28T13:31:54Z</time>
      </trkpt>
      <trkpt lat="48.58344" lon="7.73727">
        <ele>144</ele>
        <time>2020-06-28T13:31:55Z</time>
      </trkpt>
      <trkpt lat="48.58344" lon="7.73727">
        <ele>143.9</ele>
        <time>2020-06-28T13:31:56Z</time>
      </trkpt>
      <trkpt lat="48.58343" lon="7.73727">
        <ele>143.9</ele>
        <time>2020-06-28T13:31:57Z</time>
      </trkpt>
      <trkpt lat="48.58342" lon="7.73728">
        <ele>143.9</ele>
        <time>2020-06-28T13:31:58Z</time>
      </trkpt>
      <trkpt lat="48.58342" lon="7.73728">
        <ele>143.8</ele>
        <time>2020-06-28T13:31:59Z</time>
      </trkpt>
      <trkpt lat="48.58342" lon="7.73728">
        <ele>143.8</ele>
        <time>2020-06-28T13:32:00Z</time>
      </trkpt>
      <trkpt lat="48.58342" lon="7.73728">
        <ele>143.8</ele>
        <time>2020-06-28T13:32:01Z</time>
      </trkpt>
      <trkpt lat="48.58342" lon="7.73728">
        <ele>143.8</ele>
        <time>2020-06-28T13:32:02Z</time>
      </trkpt>
      <trkpt lat="48.58336" lon="7.73727">
        <ele>143.6</ele>
        <time>2020-06-28T13:33:05Z</time>
      </trkpt>
      <trkpt lat="48.58337" lon="7.73728">
        <ele>143.6</ele>
        <time>2020-06-28T13:33:06Z</time>
      </trkpt>
      <trkpt lat="48.58337" lon="7.73728">
        <ele>143.6</ele>
        <time>2020-06-28T13:33:07Z</time>
      </trkpt>
      <trkpt lat="48.58336" lon="7.73728">
        <ele>143.6</ele>
        <time>2020-06-28T13:33:08Z</time>
      </trkpt>
      <trkpt lat="48.58336" lon="7.73728">
        <ele>143.6</ele>
        <time>2020-06-28T13:33:09Z</time>
      </trkpt>
      <trkpt lat="48.58336" lon="7.73728">
        <ele>143.5</ele>
        <time>2020-06-28T13:33:10Z</time>
      </trkpt>
      <trkpt lat="48.58337" lon="7.73728">
        <ele>143.5</ele>
        <time>2020-06-28T13:33:11Z</time>
      </trkpt>
      <trkpt lat="48.58337" lon="7.73729">
        <ele>143.5</ele>
        <time>2020-06-28T13:33:12Z</time>
      </trkpt>
      <trkpt lat="48.58337" lon="7.73729">
        <ele>143.5</ele>
        <time>2020-06-28T13:33:13Z</time>
      </trkpt>
      <trkpt lat="48.58336" lon="7.73729">
        <ele>143.5</ele>
        <time>2020-06-28T13:33:14Z</time>
      </trkpt>
      <trkpt lat="48.58336" lon="7.73729">
        <ele>143.4</ele>
        <time>2020-06-28T13:33:15Z</time>
      </trkpt>
      <trkpt lat="48.58336" lon="7.73729">
        <ele>143.4</ele>
        <time>2020-06-28T13:33:16Z</time>
      </trkpt>
      <trkpt lat="48.58337" lon="7.73729">
        <ele>143.4</ele>
        <time>2020-06-28T13:33:17Z</time>
      </trkpt>
      <trkpt lat="48.58337" lon="7.73729">
        <ele>143.4</ele>
        <time>2020-06-28T13:33:18Z</time>
      </trkpt>
      <trkpt lat="48.58337" lon="7.7373">
        <ele>143.4</ele>
        <time>2020-06-28T13:33:19Z</time>
      </trkpt>
      <trkpt lat="48.58337" lon="7.7373">
        <ele>143.4</ele>
        <time>2020-06-28T13:33:20Z</time>
      </trkpt>
      <trkpt lat="48.58337" lon="7.7373">
        <ele>143.4</ele>
        <time>2020-06-28T13:33:21Z</time>
      </trkpt>
      <trkpt lat="48.58337" lon="7.7373">
        <ele>143.4</ele>
        <time>2020-06-28T13:33:22Z</time>
      </trkpt>
      <trkpt lat="48.58338" lon="7.7373">
        <ele>143.3</ele>
        <time>2020-06-28T13:33:23Z</time>
      </trkpt>
      <trkpt lat="48.58328" lon="7.73727">
        <ele>143</ele>
        <time>2020-06-28T13:35:02Z</time>
      </trkpt>
      <trkpt lat="48.58329" lon="7.73728">
        <ele>142.9</ele>
        <time>2020-06-28T13:35:03Z</time>
      </trkpt>
      <trkpt lat="48.58329" lon="7.73727">
        <ele>142.9</ele>
        <time>2020-06-28T13:35:04Z</time>
      </trkpt>
      <trkpt lat="48.5833" lon="7.73727">
        <ele>142.9</ele>
        <time>2020-06-28T13:35:05Z</time>
      </trkpt>
      <trkpt lat="48.58331" lon="7.73728">
        <ele>142.8</ele>
        <time>2020-06-28T13:35:06Z</time>
      </trkpt>
      <trkpt lat="48.5833" lon="7.73728">
        <ele>142.8</ele>
        <time>2020-06-28T13:35:07Z</time>
      </trkpt>
      <trkpt lat="48.5833" lon="7.73728">
        <ele>142.8</ele>
        <time>2020-06-28T13:35:08Z</time>
      </trkpt>
      <trkpt lat="48.5833" lon="7.73728">
        <ele>142.8</ele>
        <time>2020-06-28T13:35:09Z</time>
      </trkpt>
      <trkpt lat="48.5833" lon="7.73728">
        <ele>142.8</ele>
        <time>2020-06-28T13:35:10Z</time>
      </trkpt>
      <trkpt lat="48.5833" lon="7.73727">
        <ele>142.8</ele>
        <time>2020-06-28T13:35:11Z</time>
      </trkpt>
      <trkpt lat="48.5833" lon="7.73726">
        <ele>142.8</ele>
        <time>2020-06-28T13:35:12Z</time>
      </trkpt>
      <trkpt lat="48.5833" lon="7.73725">
        <ele>142.8</ele>
        <time>2020-06-28T13:35:13Z</time>
      </trkpt>
      <trkpt lat="48.58329" lon="7.73725">
        <ele>142.7</ele>
        <time>2020-06-28T13:35:14Z</time>
      </trkpt>
      <trkpt lat="48.58329" lon="7.73725">
        <ele>142.7</ele>
        <time>2020-06-28T13:35:15Z</time>
      </trkpt>
      <trkpt lat="48.58329" lon="7.73725">
        <ele>142.7</ele>
        <time>2020-06-28T13:35:16Z</time>
      </trkpt>
      <trkpt lat="48.58328" lon="7.73732">
        <ele>142.5</ele>
        <time>2020-06-28T13:35:45Z</time>
      </trkpt>
      <trkpt lat="48.58328" lon="7.73736">
        <ele>142.4</ele>
        <time>2020-06-28T13:35:46Z</time>
      </trkpt>
      <trkpt lat="48.58329" lon="7.7374">
        <ele>141.9</ele>
        <time>2020-06-28T13:35:47Z</time>
      </trkpt>
      <trkpt lat="48.58329" lon="7.73742">
        <ele>141.9</ele>
        <time>2020-06-28T13:35:48Z</time>
      </trkpt>
      <trkpt lat="48.58328" lon="7.73747">
        <ele>141.9</ele>
        <time>2020-06-28T13:35:49Z</time>
      </trkpt>
      <trkpt lat="48.58328" lon="7.73749">
        <ele>141.8</ele>
        <time>2020-06-28T13:35:50Z</time>
      </trkpt>
      <trkpt lat="48.58328" lon="7.73753">
        <ele>141.8</ele>
        <time>2020-06-28T13:35:51Z</time>
      </trkpt>
      <trkpt lat="48.58328" lon="7.73758">
        <ele>141.8</ele>
        <time>2020-06-28T13:35:52Z</time>
      </trkpt>
      <trkpt lat="48.5833" lon="7.73764">
        <ele>141.8</ele>
        <time>2020-06-28T13:35:53Z</time>
      </trkpt>
      <trkpt lat="48.5833" lon="7.7377">
        <ele>141.8</ele>
        <time>2020-06-28T13:35:54Z</time>
      </trkpt>
      <trkpt lat="48.58331" lon="7.73775">
        <ele>141.9</ele>
        <time>2020-06-28T13:35:55Z</time>
      </trkpt>
      <trkpt lat="48.5833" lon="7.73779">
        <ele>141.9</ele>
        <time>2020-06-28T13:35:56Z</time>
      </trkpt>
      <trkpt lat="48.5833" lon="7.73789">
        <ele>141.9</ele>
        <time>2020-06-28T13:35:57Z</time>
      </trkpt>
      <trkpt lat="48.58331" lon="7.73795">
        <ele>141.9</ele>
        <time>2020-06-28T13:35:58Z</time>
      </trkpt>
      <trkpt lat="48.58331" lon="7.738">
        <ele>142</ele>
        <time>2020-06-28T13:35:59Z</time>
      </trkpt>
      <trkpt lat="48.58331" lon="7.73804">
        <ele>142</ele>
        <time>2020-06-28T13:36:00Z</time>
      </trkpt>
      <trkpt lat="48.58332" lon="7.7381">
        <ele>142</ele>
        <time>2020-06-28T13:36:01Z</time>
      </trkpt>
      <trkpt lat="48.58332" lon="7.73811">
        <ele>142</ele>
        <time>2020-06-28T13:36:02Z</time>
      </trkpt>
      <trkpt lat="48.5833" lon="7.73818">
        <ele>142.1</ele>
        <time>2020-06-28T13:36:03Z</time>
      </trkpt>
      <trkpt lat="48.58331" lon="7.73821">
        <ele>142.1</ele>
        <time>2020-06-28T13:36:04Z</time>
      </trkpt>
      <trkpt lat="48.58332" lon="7.73822">
        <ele>142.1</ele>
        <time>2020-06-28T13:36:05Z</time>
      </trkpt>
      <trkpt lat="48.58333" lon="7.73823">
        <ele>142.1</ele>
        <time>2020-06-28T13:36:06Z</time>
      </trkpt>
      <trkpt lat="48.58335" lon="7.73828">
        <ele>142.2</ele>
        <time>2020-06-28T13:36:07Z</time>
      </trkpt>
      <trkpt lat="48.58336" lon="7.7383">
        <ele>142.2</ele>
        <time>2020-06-28T13:36:08Z</time>
      </trkpt>
      <trkpt lat="48.58337" lon="7.73836">
        <ele>142.2</ele>
        <time>2020-06-28T13:36:09Z</time>
      </trkpt>
      <trkpt lat="48.58339" lon="7.7384">
        <ele>142.3</ele>
        <time>2020-06-28T13:36:10Z</time>
      </trkpt>
      <trkpt lat="48.58339" lon="7.73842">
        <ele>142.3</ele>
        <time>2020-06-28T13:36:11Z</time>
      </trkpt>
      <trkpt lat="48.58341" lon="7.73846">
        <ele>142.3</ele>
        <time>2020-06-28T13:36:12Z</time>
      </trkpt>
      <trkpt lat="48.58341" lon="7.73847">
        <ele>142.3</ele>
        <time>2020-06-28T13:36:13Z</time>
      </trkpt>
      <trkpt lat="48.58342" lon="7.73851">
        <ele>142.2</ele>
        <time>2020-06-28T13:36:14Z</time>
      </trkpt>
      <trkpt lat="48.58344" lon="7.73857">
        <ele>142.2</ele>
        <time>2020-06-28T13:36:15Z</time>
      </trkpt>
      <trkpt lat="48.58347" lon="7.73861">
        <ele>142.2</ele>
        <time>2020-06-28T13:36:16Z</time>
      </trkpt>
      <trkpt lat="48.58349" lon="7.73866">
        <ele>142.2</ele>
        <time>2020-06-28T13:36:17Z</time>
      </trkpt>
      <trkpt lat="48.58352" lon="7.7387">
        <ele>142.1</ele>
        <time>2020-06-28T13:36:18Z</time>
      </trkpt>
      <trkpt lat="48.58354" lon="7.73874">
        <ele>142.1</ele>
        <time>2020-06-28T13:36:19Z</time>
      </trkpt>
      <trkpt lat="48.58357" lon="7.73878">
        <ele>142.1</ele>
        <time>2020-06-28T13:36:20Z</time>
      </trkpt>
      <trkpt lat="48.58359" lon="7.73886">
        <ele>142</ele>
        <time>2020-06-28T13:36:21Z</time>
      </trkpt>
      <trkpt lat="48.58362" lon="7.7389">
        <ele>141.9</ele>
        <time>2020-06-28T13:36:22Z</time>
      </trkpt>
      <trkpt lat="48.58363" lon="7.73891">
        <ele>141.9</ele>
        <time>2020-06-28T13:36:23Z</time>
      </trkpt>
      <trkpt lat="48.58365" lon="7.73894">
        <ele>141.9</ele>
        <time>2020-06-28T13:36:24Z</time>
      </trkpt>
      <trkpt lat="48.58368" lon="7.73896">
        <ele>141.8</ele>
        <time>2020-06-28T13:36:25Z</time>
      </trkpt>
      <trkpt lat="48.5837" lon="7.73897">
        <ele>141.8</ele>
        <time>2020-06-28T13:36:26Z</time>
      </trkpt>
      <trkpt lat="48.58374" lon="7.73905">
        <ele>141.6</ele>
        <time>2020-06-28T13:36:27Z</time>
      </trkpt>
      <trkpt lat="48.58378" lon="7.73908">
        <ele>141.6</ele>
        <time>2020-06-28T13:36:28Z</time>
      </trkpt>
      <trkpt lat="48.58381" lon="7.73911">
        <ele>141.5</ele>
        <time>2020-06-28T13:36:29Z</time>
      </trkpt>
      <trkpt lat="48.58382" lon="7.73912">
        <ele>141.5</ele>
        <time>2020-06-28T13:36:30Z</time>
      </trkpt>
      <trkpt lat="48.58385" lon="7.73914">
        <ele>141.5</ele>
        <time>2020-06-28T13:36:31Z</time>
      </trkpt>
      <trkpt lat="48.58388" lon="7.73916">
        <ele>141.4</ele>
        <time>2020-06-28T13:36:32Z</time>
      </trkpt>
      <trkpt lat="48.58391" lon="7.73927">
        <ele>141.3</ele>
        <time>2020-06-28T13:36:33Z</time>
      </trkpt>
      <trkpt lat="48.58394" lon="7.73929">
        <ele>141.3</ele>
        <time>2020-06-28T13:36:34Z</time>
      </trkpt>
      <trkpt lat="48.58397" lon="7.73929">
        <ele>142</ele>
        <time>2020-06-28T13:36:35Z</time>
      </trkpt>
      <trkpt lat="48.58401" lon="7.7393">
        <ele>142.7</ele>
        <time>2020-06-28T13:36:36Z</time>
      </trkpt>
      <trkpt lat="48.58405" lon="7.73932">
        <ele>143.9</ele>
        <time>2020-06-28T13:36:37Z</time>
      </trkpt>
      <trkpt lat="48.58409" lon="7.73937">
        <ele>144.5</ele>
        <time>2020-06-28T13:36:38Z</time>
      </trkpt>
      <trkpt lat="48.5841" lon="7.73942">
        <ele>144.8</ele>
        <time>2020-06-28T13:36:39Z</time>
      </trkpt>
      <trkpt lat="48.58414" lon="7.73943">
        <ele>144.9</ele>
        <time>2020-06-28T13:36:40Z</time>
      </trkpt>
      <trkpt lat="48.58416" lon="7.73944">
        <ele>144.9</ele>
        <time>2020-06-28T13:36:41Z</time>
      </trkpt>
      <trkpt lat="48.5842" lon="7.73947">
        <ele>144.6</ele>
        <time>2020-06-28T13:36:42Z</time>
      </trkpt>
      <trkpt lat="48.58421" lon="7.73946">
        <ele>144.6</ele>
        <time>2020-06-28T13:36:43Z</time>
      </trkpt>
      <trkpt lat="48.58423" lon="7.73947">
        <ele>144.4</ele>
        <time>2020-06-28T13:36:44Z</time>
      </trkpt>
      <trkpt lat="48.58421" lon="7.73963">
        <ele>143.6</ele>
        <time>2020-06-28T13:36:45Z</time>
      </trkpt>
      <trkpt lat="48.58421" lon="7.73963">
        <ele>143.6</ele>
        <time>2020-06-28T13:36:46Z</time>
      </trkpt>
      <trkpt lat="48.58422" lon="7.73964">
        <ele>143.6</ele>
        <time>2020-06-28T13:36:47Z</time>
      </trkpt>
      <trkpt lat="48.58422" lon="7.73963">
        <ele>143.6</ele>
        <time>2020-06-28T13:36:48Z</time>
      </trkpt>
      <trkpt lat="48.58423" lon="7.73963">
        <ele>143.6</ele>
        <time>2020-06-28T13:36:49Z</time>
      </trkpt>
      <trkpt lat="48.58424" lon="7.73963">
        <ele>143.6</ele>
        <time>2020-06-28T13:36:50Z</time>
      </trkpt>
      <trkpt lat="48.58425" lon="7.73967">
        <ele>143.3</ele>
        <time>2020-06-28T13:36:51Z</time>
      </trkpt>
      <trkpt lat="48.58427" lon="7.73968">
        <ele>143.3</ele>
        <time>2020-06-28T13:36:52Z</time>
      </trkpt>
      <trkpt lat="48.58429" lon="7.73969">
        <ele>143.4</ele>
        <time>2020-06-28T13:36:53Z</time>
      </trkpt>
      <trkpt lat="48.58431" lon="7.7397">
        <ele>143.4</ele>
        <time>2020-06-28T13:36:54Z</time>
      </trkpt>
      <trkpt lat="48.58435" lon="7.73972">
        <ele>143.6</ele>
        <time>2020-06-28T13:36:55Z</time>
      </trkpt>
      <trkpt lat="48.58435" lon="7.73972">
        <ele>143.6</ele>
        <time>2020-06-28T13:36:56Z</time>
      </trkpt>
      <trkpt lat="48.58437" lon="7.73987">
        <ele>144.2</ele>
        <time>2020-06-28T13:36:57Z</time>
      </trkpt>
      <trkpt lat="48.5844" lon="7.73987">
        <ele>144.6</ele>
        <time>2020-06-28T13:36:58Z</time>
      </trkpt>
      <trkpt lat="48.58442" lon="7.73988">
        <ele>144.6</ele>
        <time>2020-06-28T13:36:59Z</time>
      </trkpt>
      <trkpt lat="48.58445" lon="7.73989">
        <ele>144.5</ele>
        <time>2020-06-28T13:37:00Z</time>
      </trkpt>
      <trkpt lat="48.58446" lon="7.7399">
        <ele>144.5</ele>
        <time>2020-06-28T13:37:01Z</time>
      </trkpt>
      <trkpt lat="48.58448" lon="7.74">
        <ele>144.4</ele>
        <time>2020-06-28T13:37:02Z</time>
      </trkpt>
      <trkpt lat="48.58448" lon="7.74007">
        <ele>144.3</ele>
        <time>2020-06-28T13:37:03Z</time>
      </trkpt>
      <trkpt lat="48.58452" lon="7.7401">
        <ele>143.8</ele>
        <time>2020-06-28T13:37:04Z</time>
      </trkpt>
      <trkpt lat="48.58453" lon="7.74011">
        <ele>143.8</ele>
        <time>2020-06-28T13:37:05Z</time>
      </trkpt>
      <trkpt lat="48.58456" lon="7.74011">
        <ele>143.3</ele>
        <time>2020-06-28T13:37:06Z</time>
      </trkpt>
      <trkpt lat="48.58459" lon="7.7401">
        <ele>143.2</ele>
        <time>2020-06-28T13:37:07Z</time>
      </trkpt>
      <trkpt lat="48.58463" lon="7.74009">
        <ele>143.1</ele>
        <time>2020-06-28T13:37:08Z</time>
      </trkpt>
      <trkpt lat="48.58471" lon="7.74015">
        <ele>143</ele>
        <time>2020-06-28T13:37:09Z</time>
      </trkpt>
      <trkpt lat="48.58474" lon="7.74019">
        <ele>143</ele>
        <time>2020-06-28T13:37:10Z</time>
      </trkpt>
      <trkpt lat="48.58477" lon="7.74018">
        <ele>143.1</ele>
        <time>2020-06-28T13:37:11Z</time>
      </trkpt>
      <trkpt lat="48.5848" lon="7.74021">
        <ele>143.1</ele>
        <time>2020-06-28T13:37:12Z</time>
      </trkpt>
      <trkpt lat="48.58481" lon="7.74021">
        <ele>143</ele>
        <time>2020-06-28T13:37:13Z</time>
      </trkpt>
      <trkpt lat="48.58485" lon="7.74025">
        <ele>143</ele>
        <time>2020-06-28T13:37:14Z</time>
      </trkpt>
      <trkpt lat="48.58488" lon="7.74028">
        <ele>142.8</ele>
        <time>2020-06-28T13:37:15Z</time>
      </trkpt>
      <trkpt lat="48.5849" lon="7.74031">
        <ele>142.6</ele>
        <time>2020-06-28T13:37:16Z</time>
      </trkpt>
      <trkpt lat="48.58491" lon="7.74033">
        <ele>142.6</ele>
        <time>2020-06-28T13:37:17Z</time>
      </trkpt>
      <trkpt lat="48.58492" lon="7.74036">
        <ele>142.4</ele>
        <time>2020-06-28T13:37:18Z</time>
      </trkpt>
      <trkpt lat="48.58493" lon="7.74038">
        <ele>142.4</ele>
        <time>2020-06-28T13:37:19Z</time>
      </trkpt>
      <trkpt lat="48.58494" lon="7.74045">
        <ele>142.1</ele>
        <time>2020-06-28T13:37:20Z</time>
      </trkpt>
      <trkpt lat="48.58494" lon="7.74048">
        <ele>141.9</ele>
        <time>2020-06-28T13:37:21Z</time>
      </trkpt>
      <trkpt lat="48.58497" lon="7.7405">
        <ele>141.9</ele>
        <time>2020-06-28T13:37:22Z</time>
      </trkpt>
      <trkpt lat="48.58498" lon="7.74051">
        <ele>141.9</ele>
        <time>2020-06-28T13:37:23Z</time>
      </trkpt>
      <trkpt lat="48.585" lon="7.74053">
        <ele>141.8</ele>
        <time>2020-06-28T13:37:24Z</time>
      </trkpt>
      <trkpt lat="48.58501" lon="7.74054">
        <ele>141.8</ele>
        <time>2020-06-28T13:37:25Z</time>
      </trkpt>
      <trkpt lat="48.58501" lon="7.74055">
        <ele>141.9</ele>
        <time>2020-06-28T13:37:26Z</time>
      </trkpt>
      <trkpt lat="48.58502" lon="7.74056">
        <ele>141.8</ele>
        <time>2020-06-28T13:37:27Z</time>
      </trkpt>
      <trkpt lat="48.58503" lon="7.74059">
        <ele>141.8</ele>
        <time>2020-06-28T13:37:28Z</time>
      </trkpt>
      <trkpt lat="48.58505" lon="7.74061">
        <ele>141.8</ele>
        <time>2020-06-28T13:37:29Z</time>
      </trkpt>
      <trkpt lat="48.58506" lon="7.74063">
        <ele>141.8</ele>
        <time>2020-06-28T13:37:30Z</time>
      </trkpt>
      <trkpt lat="48.58505" lon="7.74062">
        <ele>141.8</ele>
        <time>2020-06-28T13:37:31Z</time>
      </trkpt>
      <trkpt lat="48.58502" lon="7.7406">
        <ele>141.7</ele>
        <time>2020-06-28T13:41:21Z</time>
      </trkpt>
      <trkpt lat="48.585" lon="7.74058">
        <ele>141.7</ele>
        <time>2020-06-28T13:41:22Z</time>
      </trkpt>
      <trkpt lat="48.58497" lon="7.74056">
        <ele>141.7</ele>
        <time>2020-06-28T13:41:23Z</time>
      </trkpt>
      <trkpt lat="48.58494" lon="7.74055">
        <ele>141.8</ele>
        <time>2020-06-28T13:41:24Z</time>
      </trkpt>
      <trkpt lat="48.58494" lon="7.74053">
        <ele>141.8</ele>
        <time>2020-06-28T13:41:25Z</time>
      </trkpt>
      <trkpt lat="48.58493" lon="7.74052">
        <ele>141.8</ele>
        <time>2020-06-28T13:41:26Z</time>
      </trkpt>
      <trkpt lat="48.58493" lon="7.74051">
        <ele>141.8</ele>
        <time>2020-06-28T13:41:27Z</time>
      </trkpt>
      <trkpt lat="48.58493" lon="7.7405">
        <ele>141.9</ele>
        <time>2020-06-28T13:41:28Z</time>
      </trkpt>
      <trkpt lat="48.58492" lon="7.74047">
        <ele>141.9</ele>
        <time>2020-06-28T13:41:29Z</time>
      </trkpt>
      <trkpt lat="48.58492" lon="7.74046">
        <ele>142.1</ele>
        <time>2020-06-28T13:41:30Z</time>
      </trkpt>
      <trkpt lat="48.58492" lon="7.74044">
        <ele>142.1</ele>
        <time>2020-06-28T13:41:31Z</time>
      </trkpt>
      <trkpt lat="48.58492" lon="7.74044">
        <ele>142.1</ele>
        <time>2020-06-28T13:41:32Z</time>
      </trkpt>
      <trkpt lat="48.58492" lon="7.74043">
        <ele>142.1</ele>
        <time>2020-06-28T13:41:33Z</time>
      </trkpt>
      <trkpt lat="48.58492" lon="7.74041">
        <ele>142.2</ele>
        <time>2020-06-28T13:41:34Z</time>
      </trkpt>
      <trkpt lat="48.58492" lon="7.7404">
        <ele>142.2</ele>
        <time>2020-06-28T13:41:35Z</time>
      </trkpt>
      <trkpt lat="48.58492" lon="7.74037">
        <ele>142.4</ele>
        <time>2020-06-28T13:41:36Z</time>
      </trkpt>
      <trkpt lat="48.58492" lon="7.74036">
        <ele>142.4</ele>
        <time>2020-06-28T13:41:37Z</time>
      </trkpt>
      <trkpt lat="48.58493" lon="7.74034">
        <ele>142.4</ele>
        <time>2020-06-28T13:41:38Z</time>
      </trkpt>
      <trkpt lat="48.58493" lon="7.74034">
        <ele>142.5</ele>
        <time>2020-06-28T13:41:39Z</time>
      </trkpt>
      <trkpt lat="48.58493" lon="7.74034">
        <ele>142.3</ele>
        <time>2020-06-28T13:41:40Z</time>
      </trkpt>
      <trkpt lat="48.58493" lon="7.74035">
        <ele>142.3</ele>
        <time>2020-06-28T13:41:41Z</time>
      </trkpt>
      <trkpt lat="48.58493" lon="7.74035">
        <ele>142.3</ele>
        <time>2020-06-28T13:41:42Z</time>
      </trkpt>
      <trkpt lat="48.58493" lon="7.74035">
        <ele>142.3</ele>
        <time>2020-06-28T13:41:43Z</time>
      </trkpt>
      <trkpt lat="48.58493" lon="7.74036">
        <ele>142.3</ele>
        <time>2020-06-28T13:41:44Z</time>
      </trkpt>
      <trkpt lat="48.58493" lon="7.74036">
        <ele>142.3</ele>
        <time>2020-06-28T13:41:45Z</time>
      </trkpt>
      <trkpt lat="48.58493" lon="7.74036">
        <ele>142.3</ele>
        <time>2020-06-28T13:41:46Z</time>
      </trkpt>
      <trkpt lat="48.58493" lon="7.74036">
        <ele>142.3</ele>
        <time>2020-06-28T13:41:47Z</time>
      </trkpt>
      <trkpt lat="48.58493" lon="7.74037">
        <ele>142.3</ele>
        <time>2020-06-28T13:41:48Z</time>
      </trkpt>
      <trkpt lat="48.58493" lon="7.74037">
        <ele>142.3</ele>
        <time>2020-06-28T13:41:49Z</time>
      </trkpt>
      <trkpt lat="48.58493" lon="7.74037">
        <ele>142.3</ele>
        <time>2020-06-28T13:41:50Z</time>
      </trkpt>
      <trkpt lat="48.58493" lon="7.74038">
        <ele>142.3</ele>
        <time>2020-06-28T13:41:51Z</time>
      </trkpt>
      <trkpt lat="48.58493" lon="7.74038">
        <ele>142.3</ele>
        <time>2020-06-28T13:41:52Z</time>
      </trkpt>
      <trkpt lat="48.58493" lon="7.74038">
        <ele>142.3</ele>
        <time>2020-06-28T13:41:53Z</time>
      </trkpt>
      <trkpt lat="48.58493" lon="7.74039">
        <ele>142.1</ele>
        <time>2020-06-28T13:41:54Z</time>
      </trkpt>
      <trkpt lat="48.58493" lon="7.74039">
        <ele>142.1</ele>
        <time>2020-06-28T13:41:55Z</time>
      </trkpt>
      <trkpt lat="48.58493" lon="7.74039">
        <ele>142.1</ele>
        <time>2020-06-28T13:41:56Z</time>
      </trkpt>
      <trkpt lat="48.58493" lon="7.7404">
        <ele>142.1</ele>
        <time>2020-06-28T13:41:57Z</time>
      </trkpt>
      <trkpt lat="48.58493" lon="7.7404">
        <ele>142.1</ele>
        <time>2020-06-28T13:41:58Z</time>
      </trkpt>
      <trkpt lat="48.58493" lon="7.7404">
        <ele>142.1</ele>
        <time>2020-06-28T13:41:59Z</time>
      </trkpt>
      <trkpt lat="48.58493" lon="7.74041">
        <ele>142.1</ele>
        <time>2020-06-28T13:42:00Z</time>
      </trkpt>
      <trkpt lat="48.58493" lon="7.74041">
        <ele>142.1</ele>
        <time>2020-06-28T13:42:01Z</time>
      </trkpt>
      <trkpt lat="48.58493" lon="7.74041">
        <ele>142.1</ele>
        <time>2020-06-28T13:42:02Z</time>
      </trkpt>
      <trkpt lat="48.58493" lon="7.74047">
        <ele>142</ele>
        <time>2020-06-28T13:42:03Z</time>
      </trkpt>
      <trkpt lat="48.58493" lon="7.74049">
        <ele>141.8</ele>
        <time>2020-06-28T13:42:04Z</time>
      </trkpt>
      <trkpt lat="48.58493" lon="7.74052">
        <ele>141.7</ele>
        <time>2020-06-28T13:42:05Z</time>
      </trkpt>
      <trkpt lat="48.58493" lon="7.74054">
        <ele>141.7</ele>
        <time>2020-06-28T13:42:06Z</time>
      </trkpt>
      <trkpt lat="48.58493" lon="7.74055">
        <ele>141.7</ele>
        <time>2020-06-28T13:42:07Z</time>
      </trkpt>
      <trkpt lat="48.58493" lon="7.74056">
        <ele>141.6</ele>
        <time>2020-06-28T13:42:08Z</time>
      </trkpt>
      <trkpt lat="48.58493" lon="7.74057">
        <ele>141.6</ele>
        <time>2020-06-28T13:42:09Z</time>
      </trkpt>
      <trkpt lat="48.58493" lon="7.74058">
        <ele>141.6</ele>
        <time>2020-06-28T13:42:10Z</time>
      </trkpt>
      <trkpt lat="48.58493" lon="7.7406">
        <ele>141.5</ele>
        <time>2020-06-28T13:42:11Z</time>
      </trkpt>
      <trkpt lat="48.58493" lon="7.74061">
        <ele>141.5</ele>
        <time>2020-06-28T13:42:12Z</time>
      </trkpt>
      <trkpt lat="48.58493" lon="7.74061">
        <ele>141.5</ele>
        <time>2020-06-28T13:42:13Z</time>
      </trkpt>
      <trkpt lat="48.58493" lon="7.74062">
        <ele>141.5</ele>
        <time>2020-06-28T13:42:14Z</time>
      </trkpt>
      <trkpt lat="48.58493" lon="7.74063">
        <ele>141.5</ele>
        <time>2020-06-28T13:42:15Z</time>
      </trkpt>
      <trkpt lat="48.58493" lon="7.74064">
        <ele>141.5</ele>
        <time>2020-06-28T13:42:16Z</time>
      </trkpt>
      <trkpt lat="48.58494" lon="7.74066">
        <ele>141.4</ele>
        <time>2020-06-28T13:42:17Z</time>
      </trkpt>
      <trkpt lat="48.58494" lon="7.74067">
        <ele>141.4</ele>
        <time>2020-06-28T13:42:18Z</time>
      </trkpt>
      <trkpt lat="48.58494" lon="7.74068">
        <ele>141.4</ele>
        <time>2020-06-28T13:42:19Z</time>
      </trkpt>
      <trkpt lat="48.58494" lon="7.74069">
        <ele>141.4</ele>
        <time>2020-06-28T13:42:20Z</time>
      </trkpt>
      <trkpt lat="48.58495" lon="7.7407">
        <ele>141.4</ele>
        <time>2020-06-28T13:42:21Z</time>
      </trkpt>
      <trkpt lat="48.58495" lon="7.7407">
        <ele>141.4</ele>
        <time>2020-06-28T13:42:22Z</time>
      </trkpt>
      <trkpt lat="48.58495" lon="7.74071">
        <ele>141.4</ele>
        <time>2020-06-28T13:42:23Z</time>
      </trkpt>
      <trkpt lat="48.58496" lon="7.74073">
        <ele>141.4</ele>
        <time>2020-06-28T13:42:24Z</time>
      </trkpt>
      <trkpt lat="48.58496" lon="7.74074">
        <ele>141.4</ele>
        <time>2020-06-28T13:42:25Z</time>
      </trkpt>
      <trkpt lat="48.58496" lon="7.74075">
        <ele>141.4</ele>
        <time>2020-06-28T13:42:26Z</time>
      </trkpt>
      <trkpt lat="48.58496" lon="7.74076">
        <ele>141.4</ele>
        <time>2020-06-28T13:42:27Z</time>
      </trkpt>
      <trkpt lat="48.58495" lon="7.74077">
        <ele>141.4</ele>
        <time>2020-06-28T13:42:28Z</time>
      </trkpt>
      <trkpt lat="48.58495" lon="7.74078">
        <ele>141.4</ele>
        <time>2020-06-28T13:42:29Z</time>
      </trkpt>
      <trkpt lat="48.58495" lon="7.74078">
        <ele>141.3</ele>
        <time>2020-06-28T13:42:30Z</time>
      </trkpt>
      <trkpt lat="48.58495" lon="7.74078">
        <ele>141.3</ele>
        <time>2020-06-28T13:42:31Z</time>
      </trkpt>
      <trkpt lat="48.58495" lon="7.74077">
        <ele>141.3</ele>
        <time>2020-06-28T13:42:32Z</time>
      </trkpt>
      <trkpt lat="48.58495" lon="7.74078">
        <ele>141.3</ele>
        <time>2020-06-28T13:42:33Z</time>
      </trkpt>
      <trkpt lat="48.58495" lon="7.74079">
        <ele>141.3</ele>
        <time>2020-06-28T13:42:34Z</time>
      </trkpt>
      <trkpt lat="48.58495" lon="7.7408">
        <ele>141.3</ele>
        <time>2020-06-28T13:42:35Z</time>
      </trkpt>
      <trkpt lat="48.58496" lon="7.74082">
        <ele>141.4</ele>
        <time>2020-06-28T13:42:36Z</time>
      </trkpt>
      <trkpt lat="48.58496" lon="7.74084">
        <ele>141.4</ele>
        <time>2020-06-28T13:42:37Z</time>
      </trkpt>
      <trkpt lat="48.58496" lon="7.74086">
        <ele>141.5</ele>
        <time>2020-06-28T13:42:38Z</time>
      </trkpt>
      <trkpt lat="48.58496" lon="7.74087">
        <ele>141.5</ele>
        <time>2020-06-28T13:42:39Z</time>
      </trkpt>
      <trkpt lat="48.58496" lon="7.74087">
        <ele>141.5</ele>
        <time>2020-06-28T13:42:40Z</time>
      </trkpt>
      <trkpt lat="48.58496" lon="7.74087">
        <ele>141.5</ele>
        <time>2020-06-28T13:42:41Z</time>
      </trkpt>
      <trkpt lat="48.58497" lon="7.74087">
        <ele>141.5</ele>
        <time>2020-06-28T13:42:42Z</time>
      </trkpt>
      <trkpt lat="48.58497" lon="7.74087">
        <ele>141.5</ele>
        <time>2020-06-28T13:42:43Z</time>
      </trkpt>
      <trkpt lat="48.58497" lon="7.74086">
        <ele>141.5</ele>
        <time>2020-06-28T13:42:44Z</time>
      </trkpt>
      <trkpt lat="48.58498" lon="7.74086">
        <ele>141.5</ele>
        <time>2020-06-28T13:42:45Z</time>
      </trkpt>
      <trkpt lat="48.58498" lon="7.74085">
        <ele>141.4</ele>
        <time>2020-06-28T13:42:46Z</time>
      </trkpt>
      <trkpt lat="48.58497" lon="7.74084">
        <ele>141.4</ele>
        <time>2020-06-28T13:42:47Z</time>
      </trkpt>
      <trkpt lat="48.58498" lon="7.74083">
        <ele>141.4</ele>
        <time>2020-06-28T13:42:48Z</time>
      </trkpt>
      <trkpt lat="48.58498" lon="7.74083">
        <ele>141.4</ele>
        <time>2020-06-28T13:42:49Z</time>
      </trkpt>
      <trkpt lat="48.58498" lon="7.74083">
        <ele>141.4</ele>
        <time>2020-06-28T13:42:50Z</time>
      </trkpt>
      <trkpt lat="48.58498" lon="7.74082">
        <ele>141.4</ele>
        <time>2020-06-28T13:42:51Z</time>
      </trkpt>
      <trkpt lat="48.58498" lon="7.74081">
        <ele>141.4</ele>
        <time>2020-06-28T13:42:52Z</time>
      </trkpt>
      <trkpt lat="48.58498" lon="7.74081">
        <ele>141.3</ele>
        <time>2020-06-28T13:42:53Z</time>
      </trkpt>
      <trkpt lat="48.58498" lon="7.7408">
        <ele>141.3</ele>
        <time>2020-06-28T13:42:54Z</time>
      </trkpt>
      <trkpt lat="48.58498" lon="7.74079">
        <ele>141.3</ele>
        <time>2020-06-28T13:42:55Z</time>
      </trkpt>
      <trkpt lat="48.58498" lon="7.74079">
        <ele>141.3</ele>
        <time>2020-06-28T13:42:56Z</time>
      </trkpt>
      <trkpt lat="48.58498" lon="7.74078">
        <ele>141.3</ele>
        <time>2020-06-28T13:42:57Z</time>
      </trkpt>
      <trkpt lat="48.58499" lon="7.74077">
        <ele>141.4</ele>
        <time>2020-06-28T13:42:58Z</time>
      </trkpt>
      <trkpt lat="48.58499" lon="7.74077">
        <ele>141.4</ele>
        <time>2020-06-28T13:42:59Z</time>
      </trkpt>
      <trkpt lat="48.58499" lon="7.74076">
        <ele>141.4</ele>
        <time>2020-06-28T13:43:00Z</time>
      </trkpt>
      <trkpt lat="48.585" lon="7.74075">
        <ele>141.4</ele>
        <time>2020-06-28T13:43:01Z</time>
      </trkpt>
      <trkpt lat="48.58501" lon="7.74075">
        <ele>141.4</ele>
        <time>2020-06-28T13:43:02Z</time>
      </trkpt>
      <trkpt lat="48.58502" lon="7.74076">
        <ele>141.4</ele>
        <time>2020-06-28T13:43:03Z</time>
      </trkpt>
      <trkpt lat="48.58502" lon="7.74077">
        <ele>141.4</ele>
        <time>2020-06-28T13:43:04Z</time>
      </trkpt>
      <trkpt lat="48.58502" lon="7.74077">
        <ele>141.4</ele>
        <time>2020-06-28T13:43:05Z</time>
      </trkpt>
      <trkpt lat="48.58503" lon="7.74078">
        <ele>141.4</ele>
        <time>2020-06-28T13:43:06Z</time>
      </trkpt>
      <trkpt lat="48.58503" lon="7.74078">
        <ele>141.4</ele>
        <time>2020-06-28T13:43:07Z</time>
      </trkpt>
      <trkpt lat="48.58503" lon="7.74078">
        <ele>141.4</ele>
        <time>2020-06-28T13:43:08Z</time>
      </trkpt>
      <trkpt lat="48.58503" lon="7.74077">
        <ele>141.4</ele>
        <time>2020-06-28T13:43:09Z</time>
      </trkpt>
      <trkpt lat="48.58504" lon="7.74076">
        <ele>141.4</ele>
        <time>2020-06-28T13:43:10Z</time>
      </trkpt>
      <trkpt lat="48.58504" lon="7.74075">
        <ele>141.4</ele>
        <time>2020-06-28T13:43:11Z</time>
      </trkpt>
      <trkpt lat="48.58505" lon="7.74075">
        <ele>141.4</ele>
        <time>2020-06-28T13:43:12Z</time>
      </trkpt>
      <trkpt lat="48.58505" lon="7.74074">
        <ele>141.4</ele>
        <time>2020-06-28T13:43:13Z</time>
      </trkpt>
      <trkpt lat="48.58505" lon="7.74074">
        <ele>141.4</ele>
        <time>2020-06-28T13:43:14Z</time>
      </trkpt>
      <trkpt lat="48.58505" lon="7.74074">
        <ele>141.4</ele>
        <time>2020-06-28T13:43:15Z</time>
      </trkpt>
      <trkpt lat="48.58505" lon="7.74073">
        <ele>141.4</ele>
        <time>2020-06-28T13:43:16Z</time>
      </trkpt>
      <trkpt lat="48.58505" lon="7.74073">
        <ele>141.4</ele>
        <time>2020-06-28T13:43:17Z</time>
      </trkpt>
      <trkpt lat="48.58505" lon="7.74072">
        <ele>141.5</ele>
        <time>2020-06-28T13:43:18Z</time>
      </trkpt>
      <trkpt lat="48.58505" lon="7.74072">
        <ele>141.5</ele>
        <time>2020-06-28T13:43:19Z</time>
      </trkpt>
      <trkpt lat="48.58505" lon="7.74072">
        <ele>141.4</ele>
        <time>2020-06-28T13:43:20Z</time>
      </trkpt>
      <trkpt lat="48.58505" lon="7.74071">
        <ele>141.4</ele>
        <time>2020-06-28T13:43:21Z</time>
      </trkpt>
      <trkpt lat="48.58505" lon="7.74071">
        <ele>141.4</ele>
        <time>2020-06-28T13:43:22Z</time>
      </trkpt>
      <trkpt lat="48.58504" lon="7.74071">
        <ele>141.4</ele>
        <time>2020-06-28T13:43:23Z</time>
      </trkpt>
      <trkpt lat="48.58504" lon="7.7407">
        <ele>141.4</ele>
        <time>2020-06-28T13:43:24Z</time>
      </trkpt>
      <trkpt lat="48.58504" lon="7.7407">
        <ele>141.4</ele>
        <time>2020-06-28T13:43:25Z</time>
      </trkpt>
      <trkpt lat="48.58504" lon="7.7407">
        <ele>141.4</ele>
        <time>2020-06-28T13:43:26Z</time>
      </trkpt>
      <trkpt lat="48.58503" lon="7.74069">
        <ele>141.4</ele>
        <time>2020-06-28T13:43:27Z</time>
      </trkpt>
      <trkpt lat="48.58492" lon="7.74058">
        <ele>141.5</ele>
        <time>2020-06-28T13:47:17Z</time>
      </trkpt>
      <trkpt lat="48.58492" lon="7.74058">
        <ele>141.5</ele>
        <time>2020-06-28T13:47:18Z</time>
      </trkpt>
      <trkpt lat="48.58493" lon="7.74057">
        <ele>141.5</ele>
        <time>2020-06-28T13:47:19Z</time>
      </trkpt>
      <trkpt lat="48.58493" lon="7.74057">
        <ele>141.4</ele>
        <time>2020-06-28T13:47:20Z</time>
      </trkpt>
      <trkpt lat="48.58493" lon="7.74056">
        <ele>141.4</ele>
        <time>2020-06-28T13:47:21Z</time>
      </trkpt>
      <trkpt lat="48.58494" lon="7.74056">
        <ele>141.4</ele>
        <time>2020-06-28T13:47:22Z</time>
      </trkpt>
      <trkpt lat="48.58494" lon="7.74055">
        <ele>141.5</ele>
        <time>2020-06-28T13:47:23Z</time>
      </trkpt>
      <trkpt lat="48.58494" lon="7.74055">
        <ele>141.5</ele>
        <time>2020-06-28T13:47:24Z</time>
      </trkpt>
      <trkpt lat="48.58494" lon="7.74056">
        <ele>141.4</ele>
        <time>2020-06-28T13:47:25Z</time>
      </trkpt>
      <trkpt lat="48.58494" lon="7.74056">
        <ele>141.4</ele>
        <time>2020-06-28T13:47:26Z</time>
      </trkpt>
      <trkpt lat="48.58494" lon="7.74057">
        <ele>141.4</ele>
        <time>2020-06-28T13:47:27Z</time>
      </trkpt>
      <trkpt lat="48.58493" lon="7.74059">
        <ele>141.4</ele>
        <time>2020-06-28T13:47:28Z</time>
      </trkpt>
      <trkpt lat="48.58493" lon="7.7406">
        <ele>141.3</ele>
        <time>2020-06-28T13:47:29Z</time>
      </trkpt>
      <trkpt lat="48.58493" lon="7.74062">
        <ele>141.3</ele>
        <time>2020-06-28T13:47:30Z</time>
      </trkpt>
      <trkpt lat="48.58493" lon="7.74064">
        <ele>141.3</ele>
        <time>2020-06-28T13:47:31Z</time>
      </trkpt>
      <trkpt lat="48.58493" lon="7.74065">
        <ele>141.3</ele>
        <time>2020-06-28T13:47:32Z</time>
      </trkpt>
      <trkpt lat="48.58493" lon="7.74066">
        <ele>141.3</ele>
        <time>2020-06-28T13:47:33Z</time>
      </trkpt>
      <trkpt lat="48.58493" lon="7.74065">
        <ele>141.3</ele>
        <time>2020-06-28T13:47:34Z</time>
      </trkpt>
      <trkpt lat="48.58493" lon="7.74066">
        <ele>141.3</ele>
        <time>2020-06-28T13:47:35Z</time>
      </trkpt>
      <trkpt lat="48.58492" lon="7.74067">
        <ele>141.3</ele>
        <time>2020-06-28T13:47:36Z</time>
      </trkpt>
      <trkpt lat="48.58493" lon="7.74067">
        <ele>141.3</ele>
        <time>2020-06-28T13:47:37Z</time>
      </trkpt>
      <trkpt lat="48.58493" lon="7.74067">
        <ele>141.3</ele>
        <time>2020-06-28T13:47:38Z</time>
      </trkpt>
      <trkpt lat="48.58493" lon="7.74067">
        <ele>141.3</ele>
        <time>2020-06-28T13:47:39Z</time>
      </trkpt>
      <trkpt lat="48.58493" lon="7.74067">
        <ele>141.2</ele>
        <time>2020-06-28T13:47:40Z</time>
      </trkpt>
      <trkpt lat="48.58493" lon="7.74067">
        <ele>141.2</ele>
        <time>2020-06-28T13:47:41Z</time>
      </trkpt>
      <trkpt lat="48.58493" lon="7.74067">
        <ele>141.2</ele>
        <time>2020-06-28T13:47:42Z</time>
      </trkpt>
      <trkpt lat="48.58493" lon="7.74068">
        <ele>141.2</ele>
        <time>2020-06-28T13:47:43Z</time>
      </trkpt>
      <trkpt lat="48.58493" lon="7.74068">
        <ele>141.2</ele>
        <time>2020-06-28T13:47:44Z</time>
      </trkpt>
      <trkpt lat="48.58493" lon="7.74069">
        <ele>141.2</ele>
        <time>2020-06-28T13:47:45Z</time>
      </trkpt>
      <trkpt lat="48.58493" lon="7.74069">
        <ele>141.2</ele>
        <time>2020-06-28T13:47:46Z</time>
      </trkpt>
      <trkpt lat="48.58493" lon="7.74069">
        <ele>141.2</ele>
        <time>2020-06-28T13:47:47Z</time>
      </trkpt>
      <trkpt lat="48.58493" lon="7.7407">
        <ele>141.2</ele>
        <time>2020-06-28T13:47:48Z</time>
      </trkpt>
      <trkpt lat="48.58493" lon="7.74071">
        <ele>141.2</ele>
        <time>2020-06-28T13:47:49Z</time>
      </trkpt>
      <trkpt lat="48.58492" lon="7.74072">
        <ele>141.2</ele>
        <time>2020-06-28T13:47:50Z</time>
      </trkpt>
      <trkpt lat="48.58492" lon="7.74073">
        <ele>141.2</ele>
        <time>2020-06-28T13:47:51Z</time>
      </trkpt>
      <trkpt lat="48.58491" lon="7.74073">
        <ele>141.2</ele>
        <time>2020-06-28T13:47:52Z</time>
      </trkpt>
      <trkpt lat="48.58491" lon="7.74073">
        <ele>141.2</ele>
        <time>2020-06-28T13:47:53Z</time>
      </trkpt>
      <trkpt lat="48.58491" lon="7.74073">
        <ele>141.2</ele>
        <time>2020-06-28T13:47:54Z</time>
      </trkpt>
      <trkpt lat="48.5849" lon="7.74074">
        <ele>141.2</ele>
        <time>2020-06-28T13:47:55Z</time>
      </trkpt>
      <trkpt lat="48.58491" lon="7.74075">
        <ele>141.2</ele>
        <time>2020-06-28T13:47:56Z</time>
      </trkpt>
      <trkpt lat="48.58491" lon="7.74075">
        <ele>141.1</ele>
        <time>2020-06-28T13:47:57Z</time>
      </trkpt>
      <trkpt lat="48.58491" lon="7.74075">
        <ele>141.1</ele>
        <time>2020-06-28T13:47:58Z</time>
      </trkpt>
      <trkpt lat="48.58491" lon="7.74075">
        <ele>141.1</ele>
        <time>2020-06-28T13:47:59Z</time>
      </trkpt>
      <trkpt lat="48.58491" lon="7.74075">
        <ele>141.1</ele>
        <time>2020-06-28T13:48:00Z</time>
      </trkpt>
      <trkpt lat="48.58491" lon="7.74076">
        <ele>141.1</ele>
        <time>2020-06-28T13:48:01Z</time>
      </trkpt>
      <trkpt lat="48.58491" lon="7.74077">
        <ele>141.1</ele>
        <time>2020-06-28T13:48:02Z</time>
      </trkpt>
      <trkpt lat="48.58491" lon="7.74078">
        <ele>141.1</ele>
        <time>2020-06-28T13:48:03Z</time>
      </trkpt>
      <trkpt lat="48.58491" lon="7.74078">
        <ele>141.1</ele>
        <time>2020-06-28T13:48:04Z</time>
      </trkpt>
      <trkpt lat="48.58492" lon="7.74079">
        <ele>141.1</ele>
        <time>2020-06-28T13:48:05Z</time>
      </trkpt>
      <trkpt lat="48.58492" lon="7.7408">
        <ele>141.1</ele>
        <time>2020-06-28T13:48:06Z</time>
      </trkpt>
      <trkpt lat="48.58493" lon="7.7408">
        <ele>141.2</ele>
        <time>2020-06-28T13:48:07Z</time>
      </trkpt>
      <trkpt lat="48.58493" lon="7.7408">
        <ele>141.1</ele>
        <time>2020-06-28T13:48:08Z</time>
      </trkpt>
      <trkpt lat="48.58493" lon="7.7408">
        <ele>141.1</ele>
        <time>2020-06-28T13:48:09Z</time>
      </trkpt>
      <trkpt lat="48.58494" lon="7.7408">
        <ele>141.1</ele>
        <time>2020-06-28T13:48:10Z</time>
      </trkpt>
      <trkpt lat="48.58494" lon="7.74081">
        <ele>141.1</ele>
        <time>2020-06-28T13:48:11Z</time>
      </trkpt>
      <trkpt lat="48.58494" lon="7.74081">
        <ele>141.1</ele>
        <time>2020-06-28T13:48:12Z</time>
      </trkpt>
      <trkpt lat="48.58494" lon="7.74081">
        <ele>141.1</ele>
        <time>2020-06-28T13:48:13Z</time>
      </trkpt>
      <trkpt lat="48.58495" lon="7.74081">
        <ele>141.1</ele>
        <time>2020-06-28T13:48:14Z</time>
      </trkpt>
      <trkpt lat="48.58495" lon="7.74081">
        <ele>141.2</ele>
        <time>2020-06-28T13:48:15Z</time>
      </trkpt>
      <trkpt lat="48.58496" lon="7.74081">
        <ele>141.2</ele>
        <time>2020-06-28T13:48:16Z</time>
      </trkpt>
      <trkpt lat="48.58496" lon="7.74082">
        <ele>141.2</ele>
        <time>2020-06-28T13:48:17Z</time>
      </trkpt>
      <trkpt lat="48.58496" lon="7.74083">
        <ele>141.2</ele>
        <time>2020-06-28T13:48:18Z</time>
      </trkpt>
      <trkpt lat="48.58496" lon="7.74085">
        <ele>141.2</ele>
        <time>2020-06-28T13:48:19Z</time>
      </trkpt>
      <trkpt lat="48.58496" lon="7.74086">
        <ele>141.3</ele>
        <time>2020-06-28T13:48:20Z</time>
      </trkpt>
      <trkpt lat="48.58497" lon="7.74086">
        <ele>141.3</ele>
        <time>2020-06-28T13:48:21Z</time>
      </trkpt>
      <trkpt lat="48.58497" lon="7.74088">
        <ele>141.3</ele>
        <time>2020-06-28T13:48:22Z</time>
      </trkpt>
      <trkpt lat="48.58497" lon="7.74088">
        <ele>141.3</ele>
        <time>2020-06-28T13:48:23Z</time>
      </trkpt>
      <trkpt lat="48.58498" lon="7.74089">
        <ele>141.3</ele>
        <time>2020-06-28T13:48:24Z</time>
      </trkpt>
      <trkpt lat="48.58498" lon="7.7409">
        <ele>141.4</ele>
        <time>2020-06-28T13:48:25Z</time>
      </trkpt>
      <trkpt lat="48.58499" lon="7.74091">
        <ele>141.4</ele>
        <time>2020-06-28T13:48:26Z</time>
      </trkpt>
      <trkpt lat="48.585" lon="7.74092">
        <ele>141.4</ele>
        <time>2020-06-28T13:48:27Z</time>
      </trkpt>
      <trkpt lat="48.58501" lon="7.74094">
        <ele>141.4</ele>
        <time>2020-06-28T13:48:28Z</time>
      </trkpt>
      <trkpt lat="48.58501" lon="7.74095">
        <ele>141.4</ele>
        <time>2020-06-28T13:48:29Z</time>
      </trkpt>
      <trkpt lat="48.58502" lon="7.74097">
        <ele>141.4</ele>
        <time>2020-06-28T13:48:30Z</time>
      </trkpt>
      <trkpt lat="48.58503" lon="7.74098">
        <ele>141.4</ele>
        <time>2020-06-28T13:48:31Z</time>
      </trkpt>
      <trkpt lat="48.58503" lon="7.74099">
        <ele>141.6</ele>
        <time>2020-06-28T13:48:32Z</time>
      </trkpt>
      <trkpt lat="48.58504" lon="7.74101">
        <ele>141.6</ele>
        <time>2020-06-28T13:48:33Z</time>
      </trkpt>
      <trkpt lat="48.58505" lon="7.74102">
        <ele>141.4</ele>
        <time>2020-06-28T13:48:34Z</time>
      </trkpt>
      <trkpt lat="48.58505" lon="7.74103">
        <ele>141.4</ele>
        <time>2020-06-28T13:48:35Z</time>
      </trkpt>
      <trkpt lat="48.58506" lon="7.74103">
        <ele>141.5</ele>
        <time>2020-06-28T13:48:36Z</time>
      </trkpt>
      <trkpt lat="48.58506" lon="7.74103">
        <ele>141.5</ele>
        <time>2020-06-28T13:48:37Z</time>
      </trkpt>
      <trkpt lat="48.58505" lon="7.74103">
        <ele>141.5</ele>
        <time>2020-06-28T13:48:38Z</time>
      </trkpt>
      <trkpt lat="48.58505" lon="7.74102">
        <ele>141.4</ele>
        <time>2020-06-28T13:48:39Z</time>
      </trkpt>
      <trkpt lat="48.58505" lon="7.74101">
        <ele>141.4</ele>
        <time>2020-06-28T13:48:40Z</time>
      </trkpt>
      <trkpt lat="48.58505" lon="7.741">
        <ele>141.4</ele>
        <time>2020-06-28T13:48:41Z</time>
      </trkpt>
      <trkpt lat="48.58504" lon="7.74099">
        <ele>141.4</ele>
        <time>2020-06-28T13:48:42Z</time>
      </trkpt>
      <trkpt lat="48.58505" lon="7.74099">
        <ele>141.4</ele>
        <time>2020-06-28T13:48:43Z</time>
      </trkpt>
      <trkpt lat="48.58504" lon="7.74099">
        <ele>141.4</ele>
        <time>2020-06-28T13:48:44Z</time>
      </trkpt>
      <trkpt lat="48.58504" lon="7.74097">
        <ele>141.4</ele>
        <time>2020-06-28T13:48:45Z</time>
      </trkpt>
      <trkpt lat="48.58503" lon="7.74095">
        <ele>141.4</ele>
        <time>2020-06-28T13:48:46Z</time>
      </trkpt>
      <trkpt lat="48.58503" lon="7.74095">
        <ele>141.4</ele>
        <time>2020-06-28T13:48:47Z</time>
      </trkpt>
      <trkpt lat="48.58502" lon="7.74094">
        <ele>141.3</ele>
        <time>2020-06-28T13:48:48Z</time>
      </trkpt>
      <trkpt lat="48.58503" lon="7.74094">
        <ele>141.3</ele>
        <time>2020-06-28T13:48:49Z</time>
      </trkpt>
      <trkpt lat="48.58502" lon="7.74093">
        <ele>141.3</ele>
        <time>2020-06-28T13:48:50Z</time>
      </trkpt>
      <trkpt lat="48.58503" lon="7.74089">
        <ele>141.3</ele>
        <time>2020-06-28T13:49:20Z</time>
      </trkpt>
      <trkpt lat="48.58503" lon="7.74089">
        <ele>141.3</ele>
        <time>2020-06-28T13:49:21Z</time>
      </trkpt>
      <trkpt lat="48.58502" lon="7.7409">
        <ele>141.3</ele>
        <time>2020-06-28T13:49:22Z</time>
      </trkpt>
      <trkpt lat="48.58502" lon="7.74089">
        <ele>141.2</ele>
        <time>2020-06-28T13:49:23Z</time>
      </trkpt>
      <trkpt lat="48.58501" lon="7.74087">
        <ele>141.2</ele>
        <time>2020-06-28T13:49:24Z</time>
      </trkpt>
      <trkpt lat="48.585" lon="7.74085">
        <ele>141.2</ele>
        <time>2020-06-28T13:49:25Z</time>
      </trkpt>
      <trkpt lat="48.58499" lon="7.74084">
        <ele>141.2</ele>
        <time>2020-06-28T13:49:26Z</time>
      </trkpt>
      <trkpt lat="48.58498" lon="7.74084">
        <ele>141.2</ele>
        <time>2020-06-28T13:49:27Z</time>
      </trkpt>
      <trkpt lat="48.58498" lon="7.74084">
        <ele>141.1</ele>
        <time>2020-06-28T13:49:28Z</time>
      </trkpt>
      <trkpt lat="48.58498" lon="7.74084">
        <ele>141.1</ele>
        <time>2020-06-28T13:49:29Z</time>
      </trkpt>
      <trkpt lat="48.58498" lon="7.74084">
        <ele>141.1</ele>
        <time>2020-06-28T13:49:30Z</time>
      </trkpt>
      <trkpt lat="48.58498" lon="7.74084">
        <ele>141.1</ele>
        <time>2020-06-28T13:49:31Z</time>
      </trkpt>
      <trkpt lat="48.58498" lon="7.74084">
        <ele>141.1</ele>
        <time>2020-06-28T13:49:32Z</time>
      </trkpt>
      <trkpt lat="48.58497" lon="7.74084">
        <ele>141.1</ele>
        <time>2020-06-28T13:49:33Z</time>
      </trkpt>
      <trkpt lat="48.58497" lon="7.74084">
        <ele>141.1</ele>
        <time>2020-06-28T13:49:34Z</time>
      </trkpt>
      <trkpt lat="48.58497" lon="7.74084">
        <ele>141.1</ele>
        <time>2020-06-28T13:49:35Z</time>
      </trkpt>
      <trkpt lat="48.58497" lon="7.74084">
        <ele>141.1</ele>
        <time>2020-06-28T13:49:36Z</time>
      </trkpt>
      <trkpt lat="48.58495" lon="7.74081">
        <ele>141</ele>
        <time>2020-06-28T13:49:37Z</time>
      </trkpt>
      <trkpt lat="48.5849" lon="7.74079">
        <ele>141</ele>
        <time>2020-06-28T13:49:38Z</time>
      </trkpt>
      <trkpt lat="48.58483" lon="7.74075">
        <ele>141.1</ele>
        <time>2020-06-28T13:49:41Z</time>
      </trkpt>
      <trkpt lat="48.58482" lon="7.74074">
        <ele>141.1</ele>
        <time>2020-06-28T13:49:42Z</time>
      </trkpt>
      <trkpt lat="48.58481" lon="7.74074">
        <ele>141.1</ele>
        <time>2020-06-28T13:49:43Z</time>
      </trkpt>
      <trkpt lat="48.58481" lon="7.74073">
        <ele>141.1</ele>
        <time>2020-06-28T13:49:44Z</time>
      </trkpt>
      <trkpt lat="48.58481" lon="7.74074">
        <ele>141.1</ele>
        <time>2020-06-28T13:49:45Z</time>
      </trkpt>
      <trkpt lat="48.58484" lon="7.74077">
        <ele>141.1</ele>
        <time>2020-06-28T13:49:46Z</time>
      </trkpt>
      <trkpt lat="48.58485" lon="7.74077">
        <ele>140.9</ele>
        <time>2020-06-28T13:49:47Z</time>
      </trkpt>
      <trkpt lat="48.58484" lon="7.74075">
        <ele>141</ele>
        <time>2020-06-28T13:49:48Z</time>
      </trkpt>
      <trkpt lat="48.58484" lon="7.74075">
        <ele>141.1</ele>
        <time>2020-06-28T13:49:49Z</time>
      </trkpt>
      <trkpt lat="48.58482" lon="7.74073">
        <ele>141</ele>
        <time>2020-06-28T13:49:50Z</time>
      </trkpt>
      <trkpt lat="48.58481" lon="7.74071">
        <ele>141.4</ele>
        <time>2020-06-28T13:49:51Z</time>
      </trkpt>
      <trkpt lat="48.58481" lon="7.74071">
        <ele>141.4</ele>
        <time>2020-06-28T13:49:52Z</time>
      </trkpt>
      <trkpt lat="48.58481" lon="7.74071">
        <ele>141.4</ele>
        <time>2020-06-28T13:49:53Z</time>
      </trkpt>
      <trkpt lat="48.58481" lon="7.74071">
        <ele>141.4</ele>
        <time>2020-06-28T13:49:54Z</time>
      </trkpt>
      <trkpt lat="48.58481" lon="7.7407">
        <ele>141.4</ele>
        <time>2020-06-28T13:49:55Z</time>
      </trkpt>
      <trkpt lat="48.58481" lon="7.7407">
        <ele>141.4</ele>
        <time>2020-06-28T13:49:56Z</time>
      </trkpt>
      <trkpt lat="48.58481" lon="7.7407">
        <ele>141.4</ele>
        <time>2020-06-28T13:49:57Z</time>
      </trkpt>
      <trkpt lat="48.58485" lon="7.74076">
        <ele>141</ele>
        <time>2020-06-28T13:50:45Z</time>
      </trkpt>
      <trkpt lat="48.58486" lon="7.74077">
        <ele>140.9</ele>
        <time>2020-06-28T13:50:46Z</time>
      </trkpt>
      <trkpt lat="48.58487" lon="7.74078">
        <ele>140.9</ele>
        <time>2020-06-28T13:50:47Z</time>
      </trkpt>
      <trkpt lat="48.58487" lon="7.7408">
        <ele>140.9</ele>
        <time>2020-06-28T13:50:48Z</time>
      </trkpt>
      <trkpt lat="48.58488" lon="7.74083">
        <ele>140.9</ele>
        <time>2020-06-28T13:50:49Z</time>
      </trkpt>
      <trkpt lat="48.58489" lon="7.74085">
        <ele>140.8</ele>
        <time>2020-06-28T13:50:50Z</time>
      </trkpt>
      <trkpt lat="48.58489" lon="7.74087">
        <ele>140.8</ele>
        <time>2020-06-28T13:50:51Z</time>
      </trkpt>
      <trkpt lat="48.5849" lon="7.74088">
        <ele>140.8</ele>
        <time>2020-06-28T13:50:52Z</time>
      </trkpt>
      <trkpt lat="48.5849" lon="7.74089">
        <ele>141</ele>
        <time>2020-06-28T13:50:53Z</time>
      </trkpt>
      <trkpt lat="48.58491" lon="7.74091">
        <ele>141</ele>
        <time>2020-06-28T13:50:54Z</time>
      </trkpt>
      <trkpt lat="48.58491" lon="7.74092">
        <ele>141</ele>
        <time>2020-06-28T13:50:55Z</time>
      </trkpt>
      <trkpt lat="48.58491" lon="7.7409">
        <ele>141</ele>
        <time>2020-06-28T13:50:56Z</time>
      </trkpt>
      <trkpt lat="48.58492" lon="7.74091">
        <ele>141</ele>
        <time>2020-06-28T13:50:57Z</time>
      </trkpt>
      <trkpt lat="48.58492" lon="7.74094">
        <ele>141.2</ele>
        <time>2020-06-28T13:50:58Z</time>
      </trkpt>
      <trkpt lat="48.58492" lon="7.74096">
        <ele>141.1</ele>
        <time>2020-06-28T13:50:59Z</time>
      </trkpt>
      <trkpt lat="48.58492" lon="7.74097">
        <ele>141.1</ele>
        <time>2020-06-28T13:51:00Z</time>
      </trkpt>
      <trkpt lat="48.58492" lon="7.74099">
        <ele>141.3</ele>
        <time>2020-06-28T13:51:01Z</time>
      </trkpt>
      <trkpt lat="48.58491" lon="7.741">
        <ele>141.3</ele>
        <time>2020-06-28T13:51:02Z</time>
      </trkpt>
      <trkpt lat="48.58491" lon="7.74101">
        <ele>141.3</ele>
        <time>2020-06-28T13:51:03Z</time>
      </trkpt>
      <trkpt lat="48.58491" lon="7.74099">
        <ele>141.3</ele>
        <time>2020-06-28T13:51:04Z</time>
      </trkpt>
      <trkpt lat="48.58491" lon="7.74099">
        <ele>141.3</ele>
        <time>2020-06-28T13:51:05Z</time>
      </trkpt>
      <trkpt lat="48.58491" lon="7.741">
        <ele>141.3</ele>
        <time>2020-06-28T13:51:06Z</time>
      </trkpt>
      <trkpt lat="48.5849" lon="7.741">
        <ele>141.3</ele>
        <time>2020-06-28T13:51:07Z</time>
      </trkpt>
      <trkpt lat="48.5849" lon="7.74098">
        <ele>141.1</ele>
        <time>2020-06-28T13:51:08Z</time>
      </trkpt>
      <trkpt lat="48.5849" lon="7.74094">
        <ele>140.9</ele>
        <time>2020-06-28T13:51:09Z</time>
      </trkpt>
      <trkpt lat="48.58489" lon="7.74094">
        <ele>140.8</ele>
        <time>2020-06-28T13:51:10Z</time>
      </trkpt>
      <trkpt lat="48.58489" lon="7.74095">
        <ele>140.9</ele>
        <time>2020-06-28T13:51:11Z</time>
      </trkpt>
      <trkpt lat="48.58489" lon="7.74097">
        <ele>140.9</ele>
        <time>2020-06-28T13:51:12Z</time>
      </trkpt>
      <trkpt lat="48.58488" lon="7.74098">
        <ele>141.1</ele>
        <time>2020-06-28T13:51:13Z</time>
      </trkpt>
      <trkpt lat="48.58488" lon="7.74099">
        <ele>141.1</ele>
        <time>2020-06-28T13:51:14Z</time>
      </trkpt>
      <trkpt lat="48.58488" lon="7.741">
        <ele>141.1</ele>
        <time>2020-06-28T13:51:15Z</time>
      </trkpt>
      <trkpt lat="48.58488" lon="7.741">
        <ele>141.1</ele>
        <time>2020-06-28T13:51:16Z</time>
      </trkpt>
      <trkpt lat="48.58488" lon="7.741">
        <ele>141.1</ele>
        <time>2020-06-28T13:51:17Z</time>
      </trkpt>
      <trkpt lat="48.58488" lon="7.74099">
        <ele>141.1</ele>
        <time>2020-06-28T13:51:18Z</time>
      </trkpt>
      <trkpt lat="48.58488" lon="7.74098">
        <ele>141.1</ele>
        <time>2020-06-28T13:51:19Z</time>
      </trkpt>
      <trkpt lat="48.58488" lon="7.74098">
        <ele>140.9</ele>
        <time>2020-06-28T13:51:20Z</time>
      </trkpt>
      <trkpt lat="48.58488" lon="7.74097">
        <ele>140.9</ele>
        <time>2020-06-28T13:51:21Z</time>
      </trkpt>
      <trkpt lat="48.58488" lon="7.74096">
        <ele>140.9</ele>
        <time>2020-06-28T13:51:22Z</time>
      </trkpt>
      <trkpt lat="48.58488" lon="7.74095">
        <ele>140.9</ele>
        <time>2020-06-28T13:51:23Z</time>
      </trkpt>
      <trkpt lat="48.58488" lon="7.74094">
        <ele>140.9</ele>
        <time>2020-06-28T13:51:24Z</time>
      </trkpt>
      <trkpt lat="48.58488" lon="7.74095">
        <ele>140.9</ele>
        <time>2020-06-28T13:51:25Z</time>
      </trkpt>
      <trkpt lat="48.58488" lon="7.74095">
        <ele>140.9</ele>
        <time>2020-06-28T13:51:26Z</time>
      </trkpt>
      <trkpt lat="48.58489" lon="7.74096">
        <ele>140.9</ele>
        <time>2020-06-28T13:51:27Z</time>
      </trkpt>
      <trkpt lat="48.5849" lon="7.74098">
        <ele>141.1</ele>
        <time>2020-06-28T13:51:28Z</time>
      </trkpt>
      <trkpt lat="48.58491" lon="7.74099">
        <ele>141.3</ele>
        <time>2020-06-28T13:51:29Z</time>
      </trkpt>
      <trkpt lat="48.58491" lon="7.741">
        <ele>141.3</ele>
        <time>2020-06-28T13:51:30Z</time>
      </trkpt>
      <trkpt lat="48.58491" lon="7.741">
        <ele>141.3</ele>
        <time>2020-06-28T13:51:31Z</time>
      </trkpt>
      <trkpt lat="48.5849" lon="7.74099">
        <ele>141.3</ele>
        <time>2020-06-28T13:51:32Z</time>
      </trkpt>
      <trkpt lat="48.5849" lon="7.74098">
        <ele>141.1</ele>
        <time>2020-06-28T13:51:33Z</time>
      </trkpt>
      <trkpt lat="48.5849" lon="7.74097">
        <ele>141.1</ele>
        <time>2020-06-28T13:51:34Z</time>
      </trkpt>
      <trkpt lat="48.5849" lon="7.74095">
        <ele>141.1</ele>
        <time>2020-06-28T13:51:35Z</time>
      </trkpt>
      <trkpt lat="48.5849" lon="7.74093">
        <ele>141</ele>
        <time>2020-06-28T13:51:36Z</time>
      </trkpt>
      <trkpt lat="48.5849" lon="7.74091">
        <ele>141</ele>
        <time>2020-06-28T13:51:37Z</time>
      </trkpt>
      <trkpt lat="48.5849" lon="7.74091">
        <ele>140.9</ele>
        <time>2020-06-28T13:51:38Z</time>
      </trkpt>
      <trkpt lat="48.5849" lon="7.7409">
        <ele>140.9</ele>
        <time>2020-06-28T13:51:39Z</time>
      </trkpt>
      <trkpt lat="48.5849" lon="7.7409">
        <ele>140.9</ele>
        <time>2020-06-28T13:51:40Z</time>
      </trkpt>
      <trkpt lat="48.58491" lon="7.7409">
        <ele>140.9</ele>
        <time>2020-06-28T13:51:41Z</time>
      </trkpt>
      <trkpt lat="48.58491" lon="7.7409">
        <ele>140.9</ele>
        <time>2020-06-28T13:51:42Z</time>
      </trkpt>
      <trkpt lat="48.58491" lon="7.74091">
        <ele>140.9</ele>
        <time>2020-06-28T13:51:43Z</time>
      </trkpt>
      <trkpt lat="48.58491" lon="7.74092">
        <ele>140.9</ele>
        <time>2020-06-28T13:51:44Z</time>
      </trkpt>
      <trkpt lat="48.58491" lon="7.74092">
        <ele>140.9</ele>
        <time>2020-06-28T13:51:45Z</time>
      </trkpt>
      <trkpt lat="48.58491" lon="7.74093">
        <ele>140.9</ele>
        <time>2020-06-28T13:51:46Z</time>
      </trkpt>
      <trkpt lat="48.58491" lon="7.74092">
        <ele>140.9</ele>
        <time>2020-06-28T13:51:47Z</time>
      </trkpt>
      <trkpt lat="48.58491" lon="7.74092">
        <ele>140.9</ele>
        <time>2020-06-28T13:51:48Z</time>
      </trkpt>
      <trkpt lat="48.58492" lon="7.74093">
        <ele>140.9</ele>
        <time>2020-06-28T13:51:49Z</time>
      </trkpt>
      <trkpt lat="48.58492" lon="7.74094">
        <ele>140.9</ele>
        <time>2020-06-28T13:51:50Z</time>
      </trkpt>
      <trkpt lat="48.58492" lon="7.74093">
        <ele>140.9</ele>
        <time>2020-06-28T13:51:51Z</time>
      </trkpt>
      <trkpt lat="48.58492" lon="7.74091">
        <ele>140.9</ele>
        <time>2020-06-28T13:51:52Z</time>
      </trkpt>
      <trkpt lat="48.58492" lon="7.74091">
        <ele>140.9</ele>
        <time>2020-06-28T13:51:53Z</time>
      </trkpt>
      <trkpt lat="48.58491" lon="7.74091">
        <ele>140.9</ele>
        <time>2020-06-28T13:51:54Z</time>
      </trkpt>
      <trkpt lat="48.58491" lon="7.74091">
        <ele>140.9</ele>
        <time>2020-06-28T13:51:55Z</time>
      </trkpt>
      <trkpt lat="48.58492" lon="7.74092">
        <ele>140.9</ele>
        <time>2020-06-28T13:51:56Z</time>
      </trkpt>
      <trkpt lat="48.58492" lon="7.74092">
        <ele>140.9</ele>
        <time>2020-06-28T13:51:57Z</time>
      </trkpt>
      <trkpt lat="48.58491" lon="7.74091">
        <ele>140.9</ele>
        <time>2020-06-28T13:51:58Z</time>
      </trkpt>
      <trkpt lat="48.58491" lon="7.74092">
        <ele>140.9</ele>
        <time>2020-06-28T13:51:59Z</time>
      </trkpt>
      <trkpt lat="48.58491" lon="7.74092">
        <ele>140.9</ele>
        <time>2020-06-28T13:52:00Z</time>
      </trkpt>
      <trkpt lat="48.58491" lon="7.74092">
        <ele>140.9</ele>
        <time>2020-06-28T13:52:01Z</time>
      </trkpt>
      <trkpt lat="48.5849" lon="7.74091">
        <ele>140.9</ele>
        <time>2020-06-28T13:52:02Z</time>
      </trkpt>
      <trkpt lat="48.5849" lon="7.7409">
        <ele>140.9</ele>
        <time>2020-06-28T13:52:03Z</time>
      </trkpt>
      <trkpt lat="48.5849" lon="7.74089">
        <ele>140.7</ele>
        <time>2020-06-28T13:52:04Z</time>
      </trkpt>
      <trkpt lat="48.5849" lon="7.74087">
        <ele>140.8</ele>
        <time>2020-06-28T13:52:05Z</time>
      </trkpt>
      <trkpt lat="48.5849" lon="7.74085">
        <ele>140.8</ele>
        <time>2020-06-28T13:52:06Z</time>
      </trkpt>
      <trkpt lat="48.58488" lon="7.74092">
        <ele>140.7</ele>
        <time>2020-06-28T13:52:23Z</time>
      </trkpt>
      <trkpt lat="48.58488" lon="7.74093">
        <ele>140.7</ele>
        <time>2020-06-28T13:52:24Z</time>
      </trkpt>
      <trkpt lat="48.58488" lon="7.74093">
        <ele>140.7</ele>
        <time>2020-06-28T13:52:25Z</time>
      </trkpt>
      <trkpt lat="48.58489" lon="7.74092">
        <ele>140.7</ele>
        <time>2020-06-28T13:52:26Z</time>
      </trkpt>
      <trkpt lat="48.58489" lon="7.74092">
        <ele>140.7</ele>
        <time>2020-06-28T13:52:27Z</time>
      </trkpt>
      <trkpt lat="48.58489" lon="7.74091">
        <ele>140.7</ele>
        <time>2020-06-28T13:52:28Z</time>
      </trkpt>
      <trkpt lat="48.58489" lon="7.74091">
        <ele>140.7</ele>
        <time>2020-06-28T13:52:29Z</time>
      </trkpt>
      <trkpt lat="48.58489" lon="7.7409">
        <ele>140.7</ele>
        <time>2020-06-28T13:52:30Z</time>
      </trkpt>
      <trkpt lat="48.5849" lon="7.74089">
        <ele>140.7</ele>
        <time>2020-06-28T13:52:31Z</time>
      </trkpt>
      <trkpt lat="48.5849" lon="7.74088">
        <ele>140.8</ele>
        <time>2020-06-28T13:52:32Z</time>
      </trkpt>
      <trkpt lat="48.5849" lon="7.74088">
        <ele>140.8</ele>
        <time>2020-06-28T13:52:33Z</time>
      </trkpt>
      <trkpt lat="48.5849" lon="7.74089">
        <ele>140.7</ele>
        <time>2020-06-28T13:52:34Z</time>
      </trkpt>
      <trkpt lat="48.5849" lon="7.74089">
        <ele>140.7</ele>
        <time>2020-06-28T13:52:35Z</time>
      </trkpt>
      <trkpt lat="48.5849" lon="7.74089">
        <ele>140.7</ele>
        <time>2020-06-28T13:52:36Z</time>
      </trkpt>
      <trkpt lat="48.5849" lon="7.74088">
        <ele>140.8</ele>
        <time>2020-06-28T13:52:37Z</time>
      </trkpt>
      <trkpt lat="48.58491" lon="7.74087">
        <ele>140.8</ele>
        <time>2020-06-28T13:52:38Z</time>
      </trkpt>
      <trkpt lat="48.58492" lon="7.74085">
        <ele>140.8</ele>
        <time>2020-06-28T13:52:39Z</time>
      </trkpt>
      <trkpt lat="48.58493" lon="7.74083">
        <ele>140.9</ele>
        <time>2020-06-28T13:52:40Z</time>
      </trkpt>
      <trkpt lat="48.58493" lon="7.74082">
        <ele>140.9</ele>
        <time>2020-06-28T13:52:41Z</time>
      </trkpt>
      <trkpt lat="48.58494" lon="7.74081">
        <ele>140.8</ele>
        <time>2020-06-28T13:52:42Z</time>
      </trkpt>
      <trkpt lat="48.58494" lon="7.74081">
        <ele>140.8</ele>
        <time>2020-06-28T13:52:43Z</time>
      </trkpt>
      <trkpt lat="48.58495" lon="7.7408">
        <ele>140.8</ele>
        <time>2020-06-28T13:52:44Z</time>
      </trkpt>
      <trkpt lat="48.58495" lon="7.74079">
        <ele>140.8</ele>
        <time>2020-06-28T13:52:45Z</time>
      </trkpt>
      <trkpt lat="48.58495" lon="7.74078">
        <ele>140.8</ele>
        <time>2020-06-28T13:52:46Z</time>
      </trkpt>
      <trkpt lat="48.58496" lon="7.74078">
        <ele>140.9</ele>
        <time>2020-06-28T13:52:47Z</time>
      </trkpt>
      <trkpt lat="48.58496" lon="7.74078">
        <ele>140.8</ele>
        <time>2020-06-28T13:52:48Z</time>
      </trkpt>
      <trkpt lat="48.58496" lon="7.74078">
        <ele>140.8</ele>
        <time>2020-06-28T13:52:49Z</time>
      </trkpt>
      <trkpt lat="48.58496" lon="7.74079">
        <ele>140.8</ele>
        <time>2020-06-28T13:52:50Z</time>
      </trkpt>
      <trkpt lat="48.58496" lon="7.74079">
        <ele>140.8</ele>
        <time>2020-06-28T13:52:51Z</time>
      </trkpt>
      <trkpt lat="48.58496" lon="7.74079">
        <ele>140.8</ele>
        <time>2020-06-28T13:52:52Z</time>
      </trkpt>
      <trkpt lat="48.58496" lon="7.74079">
        <ele>140.8</ele>
        <time>2020-06-28T13:52:53Z</time>
      </trkpt>
      <trkpt lat="48.58496" lon="7.74079">
        <ele>140.8</ele>
        <time>2020-06-28T13:52:54Z</time>
      </trkpt>
      <trkpt lat="48.58496" lon="7.74079">
        <ele>140.8</ele>
        <time>2020-06-28T13:52:55Z</time>
      </trkpt>
      <trkpt lat="48.58496" lon="7.74079">
        <ele>140.8</ele>
        <time>2020-06-28T13:52:56Z</time>
      </trkpt>
      <trkpt lat="48.58496" lon="7.74082">
        <ele>140.9</ele>
        <time>2020-06-28T13:52:57Z</time>
      </trkpt>
      <trkpt lat="48.58496" lon="7.74082">
        <ele>140.9</ele>
        <time>2020-06-28T13:52:58Z</time>
      </trkpt>
      <trkpt lat="48.58496" lon="7.74081">
        <ele>140.8</ele>
        <time>2020-06-28T13:52:59Z</time>
      </trkpt>
      <trkpt lat="48.58496" lon="7.74081">
        <ele>140.8</ele>
        <time>2020-06-28T13:53:00Z</time>
      </trkpt>
      <trkpt lat="48.58496" lon="7.7408">
        <ele>140.8</ele>
        <time>2020-06-28T13:53:01Z</time>
      </trkpt>
      <trkpt lat="48.58497" lon="7.74081">
        <ele>140.8</ele>
        <time>2020-06-28T13:53:02Z</time>
      </trkpt>
      <trkpt lat="48.58498" lon="7.74081">
        <ele>140.8</ele>
        <time>2020-06-28T13:53:03Z</time>
      </trkpt>
      <trkpt lat="48.58498" lon="7.7408">
        <ele>140.8</ele>
        <time>2020-06-28T13:53:04Z</time>
      </trkpt>
      <trkpt lat="48.58498" lon="7.7408">
        <ele>140.8</ele>
        <time>2020-06-28T13:53:05Z</time>
      </trkpt>
      <trkpt lat="48.58498" lon="7.7408">
        <ele>140.8</ele>
        <time>2020-06-28T13:53:06Z</time>
      </trkpt>
      <trkpt lat="48.58498" lon="7.7408">
        <ele>140.8</ele>
        <time>2020-06-28T13:53:07Z</time>
      </trkpt>
      <trkpt lat="48.58498" lon="7.74079">
        <ele>140.8</ele>
        <time>2020-06-28T13:53:08Z</time>
      </trkpt>
      <trkpt lat="48.58498" lon="7.74079">
        <ele>140.8</ele>
        <time>2020-06-28T13:53:09Z</time>
      </trkpt>
      <trkpt lat="48.58498" lon="7.74079">
        <ele>140.8</ele>
        <time>2020-06-28T13:53:10Z</time>
      </trkpt>
      <trkpt lat="48.58497" lon="7.74071">
        <ele>140.8</ele>
        <time>2020-06-28T13:53:55Z</time>
      </trkpt>
      <trkpt lat="48.58497" lon="7.7407">
        <ele>140.8</ele>
        <time>2020-06-28T13:53:56Z</time>
      </trkpt>
      <trkpt lat="48.58497" lon="7.7407">
        <ele>140.8</ele>
        <time>2020-06-28T13:53:57Z</time>
      </trkpt>
      <trkpt lat="48.58497" lon="7.7407">
        <ele>140.8</ele>
        <time>2020-06-28T13:53:58Z</time>
      </trkpt>
      <trkpt lat="48.58497" lon="7.7407">
        <ele>140.8</ele>
        <time>2020-06-28T13:53:59Z</time>
      </trkpt>
      <trkpt lat="48.58497" lon="7.7407">
        <ele>140.8</ele>
        <time>2020-06-28T13:54:00Z</time>
      </trkpt>
      <trkpt lat="48.58497" lon="7.7407">
        <ele>140.8</ele>
        <time>2020-06-28T13:54:01Z</time>
      </trkpt>
      <trkpt lat="48.58497" lon="7.7407">
        <ele>140.8</ele>
        <time>2020-06-28T13:54:02Z</time>
      </trkpt>
      <trkpt lat="48.58496" lon="7.74069">
        <ele>140.8</ele>
        <time>2020-06-28T13:54:03Z</time>
      </trkpt>
      <trkpt lat="48.58495" lon="7.74069">
        <ele>140.8</ele>
        <time>2020-06-28T13:54:04Z</time>
      </trkpt>
      <trkpt lat="48.58494" lon="7.74069">
        <ele>140.7</ele>
        <time>2020-06-28T13:54:05Z</time>
      </trkpt>
      <trkpt lat="48.58493" lon="7.74069">
        <ele>140.8</ele>
        <time>2020-06-28T13:54:06Z</time>
      </trkpt>
      <trkpt lat="48.58492" lon="7.74068">
        <ele>140.8</ele>
        <time>2020-06-28T13:54:07Z</time>
      </trkpt>
      <trkpt lat="48.58499" lon="7.74069">
        <ele>140.8</ele>
        <time>2020-06-28T13:55:42Z</time>
      </trkpt>
      <trkpt lat="48.58499" lon="7.7407">
        <ele>140.8</ele>
        <time>2020-06-28T13:55:43Z</time>
      </trkpt>
      <trkpt lat="48.585" lon="7.74071">
        <ele>140.8</ele>
        <time>2020-06-28T13:55:44Z</time>
      </trkpt>
      <trkpt lat="48.585" lon="7.74071">
        <ele>140.8</ele>
        <time>2020-06-28T13:55:45Z</time>
      </trkpt>
      <trkpt lat="48.585" lon="7.74071">
        <ele>140.8</ele>
        <time>2020-06-28T13:55:46Z</time>
      </trkpt>
      <trkpt lat="48.585" lon="7.74072">
        <ele>140.8</ele>
        <time>2020-06-28T13:55:47Z</time>
      </trkpt>
      <trkpt lat="48.585" lon="7.74072">
        <ele>140.8</ele>
        <time>2020-06-28T13:55:48Z</time>
      </trkpt>
      <trkpt lat="48.585" lon="7.74072">
        <ele>140.8</ele>
        <time>2020-06-28T13:55:49Z</time>
      </trkpt>
      <trkpt lat="48.585" lon="7.74072">
        <ele>140.8</ele>
        <time>2020-06-28T13:55:50Z</time>
      </trkpt>
      <trkpt lat="48.585" lon="7.74073">
        <ele>140.8</ele>
        <time>2020-06-28T13:55:51Z</time>
      </trkpt>
      <trkpt lat="48.585" lon="7.74076">
        <ele>140.8</ele>
        <time>2020-06-28T13:55:52Z</time>
      </trkpt>
      <trkpt lat="48.585" lon="7.74077">
        <ele>140.8</ele>
        <time>2020-06-28T13:55:53Z</time>
      </trkpt>
      <trkpt lat="48.585" lon="7.74078">
        <ele>140.8</ele>
        <time>2020-06-28T13:55:54Z</time>
      </trkpt>
      <trkpt lat="48.585" lon="7.74078">
        <ele>140.8</ele>
        <time>2020-06-28T13:55:55Z</time>
      </trkpt>
      <trkpt lat="48.58501" lon="7.74079">
        <ele>140.8</ele>
        <time>2020-06-28T13:55:56Z</time>
      </trkpt>
      <trkpt lat="48.58501" lon="7.74079">
        <ele>140.8</ele>
        <time>2020-06-28T13:55:57Z</time>
      </trkpt>
      <trkpt lat="48.58501" lon="7.74079">
        <ele>140.8</ele>
        <time>2020-06-28T13:55:58Z</time>
      </trkpt>
      <trkpt lat="48.58501" lon="7.7408">
        <ele>140.8</ele>
        <time>2020-06-28T13:55:59Z</time>
      </trkpt>
      <trkpt lat="48.58501" lon="7.7408">
        <ele>140.8</ele>
        <time>2020-06-28T13:56:00Z</time>
      </trkpt>
      <trkpt lat="48.58502" lon="7.74082">
        <ele>140.8</ele>
        <time>2020-06-28T13:56:01Z</time>
      </trkpt>
      <trkpt lat="48.58502" lon="7.74084">
        <ele>140.8</ele>
        <time>2020-06-28T13:56:02Z</time>
      </trkpt>
      <trkpt lat="48.58503" lon="7.74086">
        <ele>140.9</ele>
        <time>2020-06-28T13:56:03Z</time>
      </trkpt>
      <trkpt lat="48.58503" lon="7.74088">
        <ele>140.9</ele>
        <time>2020-06-28T13:56:04Z</time>
      </trkpt>
      <trkpt lat="48.58503" lon="7.74087">
        <ele>140.9</ele>
        <time>2020-06-28T13:56:05Z</time>
      </trkpt>
      <trkpt lat="48.58504" lon="7.74087">
        <ele>140.9</ele>
        <time>2020-06-28T13:56:06Z</time>
      </trkpt>
      <trkpt lat="48.58504" lon="7.74087">
        <ele>140.9</ele>
        <time>2020-06-28T13:56:07Z</time>
      </trkpt>
      <trkpt lat="48.58504" lon="7.74087">
        <ele>140.9</ele>
        <time>2020-06-28T13:56:08Z</time>
      </trkpt>
      <trkpt lat="48.58504" lon="7.74087">
        <ele>140.9</ele>
        <time>2020-06-28T13:56:09Z</time>
      </trkpt>
      <trkpt lat="48.58504" lon="7.74087">
        <ele>140.9</ele>
        <time>2020-06-28T13:56:10Z</time>
      </trkpt>
      <trkpt lat="48.58504" lon="7.74088">
        <ele>140.9</ele>
        <time>2020-06-28T13:56:11Z</time>
      </trkpt>
      <trkpt lat="48.58503" lon="7.74088">
        <ele>140.9</ele>
        <time>2020-06-28T13:56:12Z</time>
      </trkpt>
      <trkpt lat="48.58503" lon="7.74088">
        <ele>140.9</ele>
        <time>2020-06-28T13:56:13Z</time>
      </trkpt>
      <trkpt lat="48.58503" lon="7.74089">
        <ele>140.9</ele>
        <time>2020-06-28T13:56:14Z</time>
      </trkpt>
      <trkpt lat="48.58503" lon="7.7409">
        <ele>140.9</ele>
        <time>2020-06-28T13:56:15Z</time>
      </trkpt>
      <trkpt lat="48.58503" lon="7.7409">
        <ele>140.9</ele>
        <time>2020-06-28T13:56:16Z</time>
      </trkpt>
      <trkpt lat="48.58503" lon="7.74091">
        <ele>140.9</ele>
        <time>2020-06-28T13:56:17Z</time>
      </trkpt>
      <trkpt lat="48.58504" lon="7.74097">
        <ele>141</ele>
        <time>2020-06-28T13:56:25Z</time>
      </trkpt>
      <trkpt lat="48.58504" lon="7.74098">
        <ele>141</ele>
        <time>2020-06-28T13:56:26Z</time>
      </trkpt>
      <trkpt lat="48.58504" lon="7.741">
        <ele>141</ele>
        <time>2020-06-28T13:56:27Z</time>
      </trkpt>
      <trkpt lat="48.58505" lon="7.74101">
        <ele>141</ele>
        <time>2020-06-28T13:56:28Z</time>
      </trkpt>
      <trkpt lat="48.58505" lon="7.74102">
        <ele>141</ele>
        <time>2020-06-28T13:56:29Z</time>
      </trkpt>
      <trkpt lat="48.58505" lon="7.74103">
        <ele>141.1</ele>
        <time>2020-06-28T13:56:30Z</time>
      </trkpt>
      <trkpt lat="48.58506" lon="7.74103">
        <ele>141.1</ele>
        <time>2020-06-28T13:56:31Z</time>
      </trkpt>
      <trkpt lat="48.58506" lon="7.74103">
        <ele>141.1</ele>
        <time>2020-06-28T13:56:32Z</time>
      </trkpt>
      <trkpt lat="48.58506" lon="7.74104">
        <ele>141.1</ele>
        <time>2020-06-28T13:56:33Z</time>
      </trkpt>
      <trkpt lat="48.58505" lon="7.741">
        <ele>141</ele>
        <time>2020-06-28T13:56:34Z</time>
      </trkpt>
      <trkpt lat="48.58505" lon="7.74099">
        <ele>141</ele>
        <time>2020-06-28T13:56:35Z</time>
      </trkpt>
      <trkpt lat="48.58502" lon="7.74099">
        <ele>141.1</ele>
        <time>2020-06-28T13:56:36Z</time>
      </trkpt>
      <trkpt lat="48.58502" lon="7.74099">
        <ele>141.1</ele>
        <time>2020-06-28T13:56:37Z</time>
      </trkpt>
      <trkpt lat="48.58501" lon="7.74109">
        <ele>141.5</ele>
        <time>2020-06-28T13:56:49Z</time>
      </trkpt>
      <trkpt lat="48.58501" lon="7.7411">
        <ele>141.4</ele>
        <time>2020-06-28T13:56:50Z</time>
      </trkpt>
      <trkpt lat="48.58502" lon="7.74112">
        <ele>141.4</ele>
        <time>2020-06-28T13:56:51Z</time>
      </trkpt>
      <trkpt lat="48.58503" lon="7.74115">
        <ele>141.4</ele>
        <time>2020-06-28T13:56:52Z</time>
      </trkpt>
      <trkpt lat="48.58503" lon="7.74117">
        <ele>141.4</ele>
        <time>2020-06-28T13:56:53Z</time>
      </trkpt>
      <trkpt lat="48.58499" lon="7.7412">
        <ele>141.4</ele>
        <time>2020-06-28T13:56:54Z</time>
      </trkpt>
      <trkpt lat="48.58499" lon="7.74123">
        <ele>141.4</ele>
        <time>2020-06-28T13:56:55Z</time>
      </trkpt>
      <trkpt lat="48.585" lon="7.74124">
        <ele>141.1</ele>
        <time>2020-06-28T13:56:56Z</time>
      </trkpt>
      <trkpt lat="48.58501" lon="7.74126">
        <ele>141.1</ele>
        <time>2020-06-28T13:56:57Z</time>
      </trkpt>
      <trkpt lat="48.58501" lon="7.74128">
        <ele>141</ele>
        <time>2020-06-28T13:56:58Z</time>
      </trkpt>
      <trkpt lat="48.58502" lon="7.74129">
        <ele>140.6</ele>
        <time>2020-06-28T13:56:59Z</time>
      </trkpt>
      <trkpt lat="48.58497" lon="7.74119">
        <ele>141.7</ele>
        <time>2020-06-28T13:57:00Z</time>
      </trkpt>
      <trkpt lat="48.58497" lon="7.7412">
        <ele>141.7</ele>
        <time>2020-06-28T13:57:01Z</time>
      </trkpt>
      <trkpt lat="48.58497" lon="7.7412">
        <ele>141.7</ele>
        <time>2020-06-28T13:57:03Z</time>
      </trkpt>
      <trkpt lat="48.58497" lon="7.74119">
        <ele>141.7</ele>
        <time>2020-06-28T13:57:04Z</time>
      </trkpt>
      <trkpt lat="48.58497" lon="7.74119">
        <ele>141.7</ele>
        <time>2020-06-28T13:57:05Z</time>
      </trkpt>
      <trkpt lat="48.58496" lon="7.74117">
        <ele>141.7</ele>
        <time>2020-06-28T13:57:06Z</time>
      </trkpt>
      <trkpt lat="48.58496" lon="7.74115">
        <ele>141.7</ele>
        <time>2020-06-28T13:57:07Z</time>
      </trkpt>
      <trkpt lat="48.58496" lon="7.74112">
        <ele>141.7</ele>
        <time>2020-06-28T13:57:08Z</time>
      </trkpt>
      <trkpt lat="48.58496" lon="7.74111">
        <ele>141.6</ele>
        <time>2020-06-28T13:57:09Z</time>
      </trkpt>
      <trkpt lat="48.58497" lon="7.7411">
        <ele>141.6</ele>
        <time>2020-06-28T13:57:10Z</time>
      </trkpt>
      <trkpt lat="48.58497" lon="7.74109">
        <ele>141.6</ele>
        <time>2020-06-28T13:57:11Z</time>
      </trkpt>
      <trkpt lat="48.58497" lon="7.74108">
        <ele>141.6</ele>
        <time>2020-06-28T13:57:12Z</time>
      </trkpt>
      <trkpt lat="48.58498" lon="7.74107">
        <ele>141.4</ele>
        <time>2020-06-28T13:57:13Z</time>
      </trkpt>
      <trkpt lat="48.58498" lon="7.74106">
        <ele>141.4</ele>
        <time>2020-06-28T13:57:58Z</time>
      </trkpt>
      <trkpt lat="48.58498" lon="7.74105">
        <ele>141.4</ele>
        <time>2020-06-28T13:57:59Z</time>
      </trkpt>
      <trkpt lat="48.58499" lon="7.74104">
        <ele>141.3</ele>
        <time>2020-06-28T13:58:00Z</time>
      </trkpt>
      <trkpt lat="48.58499" lon="7.74103">
        <ele>141.2</ele>
        <time>2020-06-28T13:58:01Z</time>
      </trkpt>
      <trkpt lat="48.58499" lon="7.74102">
        <ele>141.1</ele>
        <time>2020-06-28T13:58:02Z</time>
      </trkpt>
      <trkpt lat="48.585" lon="7.741">
        <ele>141.1</ele>
        <time>2020-06-28T13:58:03Z</time>
      </trkpt>
      <trkpt lat="48.585" lon="7.741">
        <ele>141.1</ele>
        <time>2020-06-28T13:58:04Z</time>
      </trkpt>
      <trkpt lat="48.585" lon="7.741">
        <ele>141.1</ele>
        <time>2020-06-28T13:58:05Z</time>
      </trkpt>
      <trkpt lat="48.585" lon="7.74099">
        <ele>141.1</ele>
        <time>2020-06-28T13:58:06Z</time>
      </trkpt>
      <trkpt lat="48.585" lon="7.74099">
        <ele>141.1</ele>
        <time>2020-06-28T13:58:07Z</time>
      </trkpt>
      <trkpt lat="48.585" lon="7.74099">
        <ele>141.1</ele>
        <time>2020-06-28T13:58:08Z</time>
      </trkpt>
      <trkpt lat="48.58499" lon="7.74098">
        <ele>141</ele>
        <time>2020-06-28T13:58:09Z</time>
      </trkpt>
      <trkpt lat="48.58499" lon="7.74096">
        <ele>141</ele>
        <time>2020-06-28T13:58:10Z</time>
      </trkpt>
      <trkpt lat="48.58499" lon="7.74096">
        <ele>141</ele>
        <time>2020-06-28T13:58:11Z</time>
      </trkpt>
      <trkpt lat="48.58499" lon="7.74095">
        <ele>141</ele>
        <time>2020-06-28T13:58:12Z</time>
      </trkpt>
      <trkpt lat="48.58499" lon="7.74094">
        <ele>140.8</ele>
        <time>2020-06-28T13:58:13Z</time>
      </trkpt>
      <trkpt lat="48.58499" lon="7.74094">
        <ele>140.8</ele>
        <time>2020-06-28T13:58:14Z</time>
      </trkpt>
      <trkpt lat="48.58499" lon="7.74093">
        <ele>140.8</ele>
        <time>2020-06-28T13:58:15Z</time>
      </trkpt>
      <trkpt lat="48.58499" lon="7.74095">
        <ele>141</ele>
        <time>2020-06-28T13:58:16Z</time>
      </trkpt>
      <trkpt lat="48.58499" lon="7.74094">
        <ele>141</ele>
        <time>2020-06-28T13:58:17Z</time>
      </trkpt>
      <trkpt lat="48.58492" lon="7.74039">
        <ele>141.3</ele>
        <time>2020-06-28T14:05:11Z</time>
      </trkpt>
      <trkpt lat="48.58493" lon="7.74036">
        <ele>141.3</ele>
        <time>2020-06-28T14:05:12Z</time>
      </trkpt>
      <trkpt lat="48.58494" lon="7.74034">
        <ele>141.3</ele>
        <time>2020-06-28T14:05:13Z</time>
      </trkpt>
      <trkpt lat="48.58495" lon="7.74033">
        <ele>141.3</ele>
        <time>2020-06-28T14:05:14Z</time>
      </trkpt>
      <trkpt lat="48.58499" lon="7.74033">
        <ele>141.2</ele>
        <time>2020-06-28T14:05:15Z</time>
      </trkpt>
      <trkpt lat="48.58501" lon="7.74031">
        <ele>141.2</ele>
        <time>2020-06-28T14:05:16Z</time>
      </trkpt>
      <trkpt lat="48.58504" lon="7.74028">
        <ele>141.2</ele>
        <time>2020-06-28T14:05:17Z</time>
      </trkpt>
      <trkpt lat="48.58508" lon="7.74024">
        <ele>141.2</ele>
        <time>2020-06-28T14:05:18Z</time>
      </trkpt>
      <trkpt lat="48.58509" lon="7.74022">
        <ele>141.2</ele>
        <time>2020-06-28T14:05:19Z</time>
      </trkpt>
      <trkpt lat="48.58512" lon="7.74019">
        <ele>141.2</ele>
        <time>2020-06-28T14:05:20Z</time>
      </trkpt>
      <trkpt lat="48.58513" lon="7.74018">
        <ele>141.1</ele>
        <time>2020-06-28T14:05:21Z</time>
      </trkpt>
      <trkpt lat="48.58517" lon="7.74016">
        <ele>141.1</ele>
        <time>2020-06-28T14:05:22Z</time>
      </trkpt>
      <trkpt lat="48.58518" lon="7.74014">
        <ele>141.1</ele>
        <time>2020-06-28T14:05:23Z</time>
      </trkpt>
      <trkpt lat="48.5852" lon="7.74012">
        <ele>141.1</ele>
        <time>2020-06-28T14:05:24Z</time>
      </trkpt>
      <trkpt lat="48.58523" lon="7.74009">
        <ele>141.1</ele>
        <time>2020-06-28T14:05:25Z</time>
      </trkpt>
      <trkpt lat="48.58523" lon="7.74008">
        <ele>141.1</ele>
        <time>2020-06-28T14:05:26Z</time>
      </trkpt>
      <trkpt lat="48.58526" lon="7.74008">
        <ele>141.1</ele>
        <time>2020-06-28T14:05:27Z</time>
      </trkpt>
      <trkpt lat="48.58527" lon="7.74008">
        <ele>141.1</ele>
        <time>2020-06-28T14:05:28Z</time>
      </trkpt>
      <trkpt lat="48.58528" lon="7.74007">
        <ele>141.1</ele>
        <time>2020-06-28T14:05:29Z</time>
      </trkpt>
      <trkpt lat="48.5853" lon="7.74007">
        <ele>141.1</ele>
        <time>2020-06-28T14:05:30Z</time>
      </trkpt>
      <trkpt lat="48.58531" lon="7.74005">
        <ele>141.1</ele>
        <time>2020-06-28T14:05:31Z</time>
      </trkpt>
      <trkpt lat="48.58532" lon="7.74004">
        <ele>141.1</ele>
        <time>2020-06-28T14:05:32Z</time>
      </trkpt>
      <trkpt lat="48.58533" lon="7.74003">
        <ele>141.1</ele>
        <time>2020-06-28T14:05:33Z</time>
      </trkpt>
      <trkpt lat="48.58534" lon="7.74003">
        <ele>141.1</ele>
        <time>2020-06-28T14:05:34Z</time>
      </trkpt>
      <trkpt lat="48.58536" lon="7.74002">
        <ele>141.1</ele>
        <time>2020-06-28T14:05:35Z</time>
      </trkpt>
      <trkpt lat="48.58539" lon="7.74">
        <ele>141.1</ele>
        <time>2020-06-28T14:05:36Z</time>
      </trkpt>
      <trkpt lat="48.58541" lon="7.74">
        <ele>141.1</ele>
        <time>2020-06-28T14:05:37Z</time>
      </trkpt>
      <trkpt lat="48.58543" lon="7.74003">
        <ele>141</ele>
        <time>2020-06-28T14:05:38Z</time>
      </trkpt>
      <trkpt lat="48.58546" lon="7.74003">
        <ele>141</ele>
        <time>2020-06-28T14:05:39Z</time>
      </trkpt>
      <trkpt lat="48.58548" lon="7.74004">
        <ele>141</ele>
        <time>2020-06-28T14:05:40Z</time>
      </trkpt>
      <trkpt lat="48.5855" lon="7.74004">
        <ele>141</ele>
        <time>2020-06-28T14:05:41Z</time>
      </trkpt>
      <trkpt lat="48.58554" lon="7.74001">
        <ele>141</ele>
        <time>2020-06-28T14:05:42Z</time>
      </trkpt>
      <trkpt lat="48.58558" lon="7.73999">
        <ele>140.9</ele>
        <time>2020-06-28T14:05:43Z</time>
      </trkpt>
      <trkpt lat="48.58563" lon="7.73996">
        <ele>140.9</ele>
        <time>2020-06-28T14:05:44Z</time>
      </trkpt>
      <trkpt lat="48.58569" lon="7.73991">
        <ele>140.9</ele>
        <time>2020-06-28T14:05:45Z</time>
      </trkpt>
      <trkpt lat="48.58573" lon="7.73989">
        <ele>140.9</ele>
        <time>2020-06-28T14:05:46Z</time>
      </trkpt>
      <trkpt lat="48.58578" lon="7.73987">
        <ele>140.9</ele>
        <time>2020-06-28T14:05:47Z</time>
      </trkpt>
      <trkpt lat="48.58582" lon="7.73984">
        <ele>140.8</ele>
        <time>2020-06-28T14:05:48Z</time>
      </trkpt>
      <trkpt lat="48.58586" lon="7.73981">
        <ele>140.8</ele>
        <time>2020-06-28T14:05:49Z</time>
      </trkpt>
      <trkpt lat="48.58589" lon="7.73978">
        <ele>140.8</ele>
        <time>2020-06-28T14:05:50Z</time>
      </trkpt>
      <trkpt lat="48.58592" lon="7.73976">
        <ele>140.8</ele>
        <time>2020-06-28T14:05:51Z</time>
      </trkpt>
      <trkpt lat="48.58595" lon="7.7397">
        <ele>140.8</ele>
        <time>2020-06-28T14:05:52Z</time>
      </trkpt>
      <trkpt lat="48.58599" lon="7.73965">
        <ele>140.8</ele>
        <time>2020-06-28T14:05:53Z</time>
      </trkpt>
      <trkpt lat="48.58603" lon="7.73961">
        <ele>140.8</ele>
        <time>2020-06-28T14:05:54Z</time>
      </trkpt>
      <trkpt lat="48.58607" lon="7.73958">
        <ele>140.8</ele>
        <time>2020-06-28T14:05:55Z</time>
      </trkpt>
      <trkpt lat="48.58612" lon="7.73955">
        <ele>140.8</ele>
        <time>2020-06-28T14:05:56Z</time>
      </trkpt>
      <trkpt lat="48.58616" lon="7.73952">
        <ele>140.8</ele>
        <time>2020-06-28T14:05:57Z</time>
      </trkpt>
      <trkpt lat="48.58619" lon="7.7395">
        <ele>140.7</ele>
        <time>2020-06-28T14:05:58Z</time>
      </trkpt>
      <trkpt lat="48.58623" lon="7.73948">
        <ele>140.7</ele>
        <time>2020-06-28T14:05:59Z</time>
      </trkpt>
      <trkpt lat="48.58627" lon="7.73944">
        <ele>140.7</ele>
        <time>2020-06-28T14:06:00Z</time>
      </trkpt>
      <trkpt lat="48.58631" lon="7.73941">
        <ele>140.7</ele>
        <time>2020-06-28T14:06:01Z</time>
      </trkpt>
      <trkpt lat="48.58636" lon="7.73938">
        <ele>140.7</ele>
        <time>2020-06-28T14:06:02Z</time>
      </trkpt>
      <trkpt lat="48.58641" lon="7.73934">
        <ele>140.7</ele>
        <time>2020-06-28T14:06:03Z</time>
      </trkpt>
      <trkpt lat="48.58644" lon="7.73932">
        <ele>140.7</ele>
        <time>2020-06-28T14:06:04Z</time>
      </trkpt>
      <trkpt lat="48.58647" lon="7.73929">
        <ele>140.6</ele>
        <time>2020-06-28T14:06:05Z</time>
      </trkpt>
      <trkpt lat="48.58651" lon="7.73925">
        <ele>140.6</ele>
        <time>2020-06-28T14:06:06Z</time>
      </trkpt>
      <trkpt lat="48.58655" lon="7.73922">
        <ele>140.6</ele>
        <time>2020-06-28T14:06:07Z</time>
      </trkpt>
      <trkpt lat="48.58659" lon="7.73919">
        <ele>140.6</ele>
        <time>2020-06-28T14:06:08Z</time>
      </trkpt>
      <trkpt lat="48.58663" lon="7.73917">
        <ele>140.6</ele>
        <time>2020-06-28T14:06:09Z</time>
      </trkpt>
      <trkpt lat="48.58666" lon="7.73914">
        <ele>140.6</ele>
        <time>2020-06-28T14:06:10Z</time>
      </trkpt>
      <trkpt lat="48.5867" lon="7.73911">
        <ele>140.6</ele>
        <time>2020-06-28T14:06:11Z</time>
      </trkpt>
      <trkpt lat="48.58673" lon="7.73909">
        <ele>140.5</ele>
        <time>2020-06-28T14:06:12Z</time>
      </trkpt>
      <trkpt lat="48.58677" lon="7.73907">
        <ele>140.5</ele>
        <time>2020-06-28T14:06:13Z</time>
      </trkpt>
      <trkpt lat="48.58681" lon="7.73906">
        <ele>140.5</ele>
        <time>2020-06-28T14:06:14Z</time>
      </trkpt>
      <trkpt lat="48.58686" lon="7.73905">
        <ele>140.5</ele>
        <time>2020-06-28T14:06:15Z</time>
      </trkpt>
      <trkpt lat="48.58691" lon="7.739">
        <ele>140.5</ele>
        <time>2020-06-28T14:06:16Z</time>
      </trkpt>
      <trkpt lat="48.58697" lon="7.73896">
        <ele>140.6</ele>
        <time>2020-06-28T14:06:17Z</time>
      </trkpt>
      <trkpt lat="48.58701" lon="7.73894">
        <ele>140.6</ele>
        <time>2020-06-28T14:06:18Z</time>
      </trkpt>
      <trkpt lat="48.58706" lon="7.73892">
        <ele>140.7</ele>
        <time>2020-06-28T14:06:19Z</time>
      </trkpt>
      <trkpt lat="48.58709" lon="7.7389">
        <ele>140.7</ele>
        <time>2020-06-28T14:06:20Z</time>
      </trkpt>
      <trkpt lat="48.58712" lon="7.73888">
        <ele>140.7</ele>
        <time>2020-06-28T14:06:21Z</time>
      </trkpt>
      <trkpt lat="48.58716" lon="7.73886">
        <ele>140.8</ele>
        <time>2020-06-28T14:06:22Z</time>
      </trkpt>
      <trkpt lat="48.58719" lon="7.73884">
        <ele>140.8</ele>
        <time>2020-06-28T14:06:23Z</time>
      </trkpt>
      <trkpt lat="48.58722" lon="7.73879">
        <ele>140.9</ele>
        <time>2020-06-28T14:06:24Z</time>
      </trkpt>
      <trkpt lat="48.58724" lon="7.73875">
        <ele>140.9</ele>
        <time>2020-06-28T14:06:25Z</time>
      </trkpt>
      <trkpt lat="48.58727" lon="7.73872">
        <ele>141</ele>
        <time>2020-06-28T14:06:26Z</time>
      </trkpt>
      <trkpt lat="48.58731" lon="7.73868">
        <ele>141</ele>
        <time>2020-06-28T14:06:27Z</time>
      </trkpt>
      <trkpt lat="48.58734" lon="7.73868">
        <ele>141.1</ele>
        <time>2020-06-28T14:06:28Z</time>
      </trkpt>
      <trkpt lat="48.58735" lon="7.73868">
        <ele>141.1</ele>
        <time>2020-06-28T14:06:29Z</time>
      </trkpt>
      <trkpt lat="48.58739" lon="7.73868">
        <ele>141.1</ele>
        <time>2020-06-28T14:06:30Z</time>
      </trkpt>
      <trkpt lat="48.5874" lon="7.73867">
        <ele>141.2</ele>
        <time>2020-06-28T14:06:31Z</time>
      </trkpt>
      <trkpt lat="48.58743" lon="7.73863">
        <ele>141.2</ele>
        <time>2020-06-28T14:06:32Z</time>
      </trkpt>
      <trkpt lat="48.58745" lon="7.73864">
        <ele>141.2</ele>
        <time>2020-06-28T14:06:33Z</time>
      </trkpt>
      <trkpt lat="48.58747" lon="7.73865">
        <ele>141.3</ele>
        <time>2020-06-28T14:06:34Z</time>
      </trkpt>
      <trkpt lat="48.58748" lon="7.73866">
        <ele>141.3</ele>
        <time>2020-06-28T14:06:35Z</time>
      </trkpt>
      <trkpt lat="48.5875" lon="7.73866">
        <ele>141.3</ele>
        <time>2020-06-28T14:06:36Z</time>
      </trkpt>
      <trkpt lat="48.58751" lon="7.73868">
        <ele>141.3</ele>
        <time>2020-06-28T14:06:37Z</time>
      </trkpt>
      <trkpt lat="48.58753" lon="7.7387">
        <ele>141.3</ele>
        <time>2020-06-28T14:06:38Z</time>
      </trkpt>
      <trkpt lat="48.58754" lon="7.7387">
        <ele>141.3</ele>
        <time>2020-06-28T14:06:39Z</time>
      </trkpt>
      <trkpt lat="48.58758" lon="7.73872">
        <ele>141.4</ele>
        <time>2020-06-28T14:06:40Z</time>
      </trkpt>
      <trkpt lat="48.58762" lon="7.73871">
        <ele>141.4</ele>
        <time>2020-06-28T14:06:41Z</time>
      </trkpt>
      <trkpt lat="48.58766" lon="7.73868">
        <ele>141.5</ele>
        <time>2020-06-28T14:06:42Z</time>
      </trkpt>
      <trkpt lat="48.5877" lon="7.73866">
        <ele>141.5</ele>
        <time>2020-06-28T14:06:43Z</time>
      </trkpt>
      <trkpt lat="48.58771" lon="7.73866">
        <ele>141.4</ele>
        <time>2020-06-28T14:06:44Z</time>
      </trkpt>
      <trkpt lat="48.58772" lon="7.73864">
        <ele>141.4</ele>
        <time>2020-06-28T14:06:45Z</time>
      </trkpt>
      <trkpt lat="48.58772" lon="7.73864">
        <ele>141.4</ele>
        <time>2020-06-28T14:06:46Z</time>
      </trkpt>
      <trkpt lat="48.58773" lon="7.73863">
        <ele>141.4</ele>
        <time>2020-06-28T14:06:47Z</time>
      </trkpt>
      <trkpt lat="48.58773" lon="7.73862">
        <ele>141.4</ele>
        <time>2020-06-28T14:06:48Z</time>
      </trkpt>
      <trkpt lat="48.58773" lon="7.73862">
        <ele>141.3</ele>
        <time>2020-06-28T14:06:49Z</time>
      </trkpt>
      <trkpt lat="48.58774" lon="7.73861">
        <ele>141.3</ele>
        <time>2020-06-28T14:06:50Z</time>
      </trkpt>
      <trkpt lat="48.58774" lon="7.7386">
        <ele>141.3</ele>
        <time>2020-06-28T14:06:51Z</time>
      </trkpt>
      <trkpt lat="48.58775" lon="7.7386">
        <ele>141.3</ele>
        <time>2020-06-28T14:06:52Z</time>
      </trkpt>
      <trkpt lat="48.58775" lon="7.73859">
        <ele>141.3</ele>
        <time>2020-06-28T14:06:53Z</time>
      </trkpt>
      <trkpt lat="48.58775" lon="7.73858">
        <ele>141.3</ele>
        <time>2020-06-28T14:06:54Z</time>
      </trkpt>
      <trkpt lat="48.58776" lon="7.73858">
        <ele>141.2</ele>
        <time>2020-06-28T14:06:55Z</time>
      </trkpt>
      <trkpt lat="48.58776" lon="7.73857">
        <ele>141.2</ele>
        <time>2020-06-28T14:06:56Z</time>
      </trkpt>
      <trkpt lat="48.58776" lon="7.73856">
        <ele>141.2</ele>
        <time>2020-06-28T14:06:59Z</time>
      </trkpt>
      <trkpt lat="48.58777" lon="7.73856">
        <ele>141.2</ele>
        <time>2020-06-28T14:07:00Z</time>
      </trkpt>
      <trkpt lat="48.5878" lon="7.7385">
        <ele>141.1</ele>
        <time>2020-06-28T14:07:01Z</time>
      </trkpt>
      <trkpt lat="48.58783" lon="7.73845">
        <ele>141</ele>
        <time>2020-06-28T14:07:02Z</time>
      </trkpt>
      <trkpt lat="48.58786" lon="7.7384">
        <ele>140.9</ele>
        <time>2020-06-28T14:07:03Z</time>
      </trkpt>
      <trkpt lat="48.58789" lon="7.73836">
        <ele>140.8</ele>
        <time>2020-06-28T14:07:04Z</time>
      </trkpt>
      <trkpt lat="48.58792" lon="7.73831">
        <ele>140.7</ele>
        <time>2020-06-28T14:07:05Z</time>
      </trkpt>
      <trkpt lat="48.58795" lon="7.73825">
        <ele>140.6</ele>
        <time>2020-06-28T14:07:06Z</time>
      </trkpt>
      <trkpt lat="48.58797" lon="7.7382">
        <ele>140.5</ele>
        <time>2020-06-28T14:07:07Z</time>
      </trkpt>
      <trkpt lat="48.58798" lon="7.73815">
        <ele>140.4</ele>
        <time>2020-06-28T14:07:08Z</time>
      </trkpt>
      <trkpt lat="48.58801" lon="7.73809">
        <ele>140.4</ele>
        <time>2020-06-28T14:07:09Z</time>
      </trkpt>
      <trkpt lat="48.58803" lon="7.73804">
        <ele>140.3</ele>
        <time>2020-06-28T14:07:10Z</time>
      </trkpt>
      <trkpt lat="48.58807" lon="7.73798">
        <ele>140.3</ele>
        <time>2020-06-28T14:07:11Z</time>
      </trkpt>
      <trkpt lat="48.5881" lon="7.73792">
        <ele>140.3</ele>
        <time>2020-06-28T14:07:12Z</time>
      </trkpt>
      <trkpt lat="48.58814" lon="7.73787">
        <ele>140.3</ele>
        <time>2020-06-28T14:07:13Z</time>
      </trkpt>
      <trkpt lat="48.58817" lon="7.73782">
        <ele>140.3</ele>
        <time>2020-06-28T14:07:14Z</time>
      </trkpt>
      <trkpt lat="48.5882" lon="7.73776">
        <ele>140.3</ele>
        <time>2020-06-28T14:07:15Z</time>
      </trkpt>
      <trkpt lat="48.58821" lon="7.73773">
        <ele>140.3</ele>
        <time>2020-06-28T14:07:16Z</time>
      </trkpt>
      <trkpt lat="48.58824" lon="7.73768">
        <ele>140.3</ele>
        <time>2020-06-28T14:07:17Z</time>
      </trkpt>
      <trkpt lat="48.58826" lon="7.73763">
        <ele>140.3</ele>
        <time>2020-06-28T14:07:18Z</time>
      </trkpt>
      <trkpt lat="48.58827" lon="7.73758">
        <ele>140.3</ele>
        <time>2020-06-28T14:07:19Z</time>
      </trkpt>
      <trkpt lat="48.5883" lon="7.73753">
        <ele>140.3</ele>
        <time>2020-06-28T14:07:20Z</time>
      </trkpt>
      <trkpt lat="48.58831" lon="7.73749">
        <ele>140.3</ele>
        <time>2020-06-28T14:07:21Z</time>
      </trkpt>
      <trkpt lat="48.58833" lon="7.73744">
        <ele>140.4</ele>
        <time>2020-06-28T14:07:22Z</time>
      </trkpt>
      <trkpt lat="48.58835" lon="7.73741">
        <ele>140.3</ele>
        <time>2020-06-28T14:07:23Z</time>
      </trkpt>
      <trkpt lat="48.58836" lon="7.73736">
        <ele>140.3</ele>
        <time>2020-06-28T14:07:24Z</time>
      </trkpt>
      <trkpt lat="48.58837" lon="7.73731">
        <ele>140.2</ele>
        <time>2020-06-28T14:07:25Z</time>
      </trkpt>
      <trkpt lat="48.58838" lon="7.73728">
        <ele>140.2</ele>
        <time>2020-06-28T14:07:26Z</time>
      </trkpt>
      <trkpt lat="48.58838" lon="7.73724">
        <ele>140.2</ele>
        <time>2020-06-28T14:07:27Z</time>
      </trkpt>
      <trkpt lat="48.5884" lon="7.73713">
        <ele>140.2</ele>
        <time>2020-06-28T14:07:28Z</time>
      </trkpt>
      <trkpt lat="48.58841" lon="7.73703">
        <ele>140.1</ele>
        <time>2020-06-28T14:07:29Z</time>
      </trkpt>
      <trkpt lat="48.58842" lon="7.73694">
        <ele>140.1</ele>
        <time>2020-06-28T14:07:30Z</time>
      </trkpt>
      <trkpt lat="48.58843" lon="7.73685">
        <ele>140.1</ele>
        <time>2020-06-28T14:07:31Z</time>
      </trkpt>
      <trkpt lat="48.58844" lon="7.73676">
        <ele>140</ele>
        <time>2020-06-28T14:07:32Z</time>
      </trkpt>
      <trkpt lat="48.58845" lon="7.73667">
        <ele>140</ele>
        <time>2020-06-28T14:07:33Z</time>
      </trkpt>
      <trkpt lat="48.58847" lon="7.73658">
        <ele>139.9</ele>
        <time>2020-06-28T14:07:34Z</time>
      </trkpt>
      <trkpt lat="48.58848" lon="7.73649">
        <ele>139.8</ele>
        <time>2020-06-28T14:07:35Z</time>
      </trkpt>
      <trkpt lat="48.58849" lon="7.73639">
        <ele>139.6</ele>
        <time>2020-06-28T14:07:36Z</time>
      </trkpt>
      <trkpt lat="48.5885" lon="7.7363">
        <ele>139.4</ele>
        <time>2020-06-28T14:07:40Z</time>
      </trkpt>
      <trkpt lat="48.58862" lon="7.73639">
        <ele>139.4</ele>
        <time>2020-06-28T14:07:41Z</time>
      </trkpt>
      <trkpt lat="48.58866" lon="7.73644">
        <ele>139.4</ele>
        <time>2020-06-28T14:07:42Z</time>
      </trkpt>
      <trkpt lat="48.58871" lon="7.73643">
        <ele>139.4</ele>
        <time>2020-06-28T14:07:43Z</time>
      </trkpt>
      <trkpt lat="48.58875" lon="7.73639">
        <ele>139.4</ele>
        <time>2020-06-28T14:07:44Z</time>
      </trkpt>
      <trkpt lat="48.5888" lon="7.73634">
        <ele>139.4</ele>
        <time>2020-06-28T14:07:45Z</time>
      </trkpt>
      <trkpt lat="48.58884" lon="7.73632">
        <ele>139.4</ele>
        <time>2020-06-28T14:07:46Z</time>
      </trkpt>
      <trkpt lat="48.58888" lon="7.73628">
        <ele>139.4</ele>
        <time>2020-06-28T14:07:47Z</time>
      </trkpt>
      <trkpt lat="48.58892" lon="7.73623">
        <ele>139.5</ele>
        <time>2020-06-28T14:07:48Z</time>
      </trkpt>
      <trkpt lat="48.58895" lon="7.73618">
        <ele>139.5</ele>
        <time>2020-06-28T14:07:49Z</time>
      </trkpt>
      <trkpt lat="48.589" lon="7.73616">
        <ele>139.6</ele>
        <time>2020-06-28T14:07:50Z</time>
      </trkpt>
      <trkpt lat="48.58904" lon="7.73614">
        <ele>139.6</ele>
        <time>2020-06-28T14:07:51Z</time>
      </trkpt>
      <trkpt lat="48.58909" lon="7.73611">
        <ele>139.7</ele>
        <time>2020-06-28T14:07:52Z</time>
      </trkpt>
      <trkpt lat="48.58915" lon="7.73608">
        <ele>140.2</ele>
        <time>2020-06-28T14:07:53Z</time>
      </trkpt>
      <trkpt lat="48.58919" lon="7.73606">
        <ele>140.4</ele>
        <time>2020-06-28T14:07:54Z</time>
      </trkpt>
      <trkpt lat="48.58923" lon="7.73604">
        <ele>140.6</ele>
        <time>2020-06-28T14:07:55Z</time>
      </trkpt>
      <trkpt lat="48.58926" lon="7.73602">
        <ele>140.7</ele>
        <time>2020-06-28T14:07:56Z</time>
      </trkpt>
      <trkpt lat="48.5893" lon="7.736">
        <ele>140.9</ele>
        <time>2020-06-28T14:07:57Z</time>
      </trkpt>
      <trkpt lat="48.58931" lon="7.73599">
        <ele>141</ele>
        <time>2020-06-28T14:07:58Z</time>
      </trkpt>
      <trkpt lat="48.58935" lon="7.73597">
        <ele>141.1</ele>
        <time>2020-06-28T14:07:59Z</time>
      </trkpt>
      <trkpt lat="48.58939" lon="7.73596">
        <ele>141.3</ele>
        <time>2020-06-28T14:08:00Z</time>
      </trkpt>
      <trkpt lat="48.58943" lon="7.73594">
        <ele>141.4</ele>
        <time>2020-06-28T14:08:01Z</time>
      </trkpt>
      <trkpt lat="48.58947" lon="7.73591">
        <ele>141.4</ele>
        <time>2020-06-28T14:08:02Z</time>
      </trkpt>
      <trkpt lat="48.58952" lon="7.73589">
        <ele>141.3</ele>
        <time>2020-06-28T14:08:03Z</time>
      </trkpt>
      <trkpt lat="48.58957" lon="7.73587">
        <ele>141.3</ele>
        <time>2020-06-28T14:08:04Z</time>
      </trkpt>
      <trkpt lat="48.58961" lon="7.73584">
        <ele>141.2</ele>
        <time>2020-06-28T14:08:05Z</time>
      </trkpt>
      <trkpt lat="48.58966" lon="7.7358">
        <ele>141.2</ele>
        <time>2020-06-28T14:08:06Z</time>
      </trkpt>
      <trkpt lat="48.5897" lon="7.73577">
        <ele>141.1</ele>
        <time>2020-06-28T14:08:07Z</time>
      </trkpt>
      <trkpt lat="48.58973" lon="7.73574">
        <ele>141</ele>
        <time>2020-06-28T14:08:08Z</time>
      </trkpt>
      <trkpt lat="48.58976" lon="7.73571">
        <ele>140.9</ele>
        <time>2020-06-28T14:08:09Z</time>
      </trkpt>
      <trkpt lat="48.5898" lon="7.73567">
        <ele>140.8</ele>
        <time>2020-06-28T14:08:10Z</time>
      </trkpt>
      <trkpt lat="48.58982" lon="7.73565">
        <ele>140.7</ele>
        <time>2020-06-28T14:08:11Z</time>
      </trkpt>
      <trkpt lat="48.58986" lon="7.73562">
        <ele>140.7</ele>
        <time>2020-06-28T14:08:12Z</time>
      </trkpt>
      <trkpt lat="48.5899" lon="7.73559">
        <ele>140.6</ele>
        <time>2020-06-28T14:08:13Z</time>
      </trkpt>
      <trkpt lat="48.58993" lon="7.73554">
        <ele>140.4</ele>
        <time>2020-06-28T14:08:14Z</time>
      </trkpt>
      <trkpt lat="48.58997" lon="7.73551">
        <ele>140.4</ele>
        <time>2020-06-28T14:08:15Z</time>
      </trkpt>
      <trkpt lat="48.59" lon="7.73548">
        <ele>140.3</ele>
        <time>2020-06-28T14:08:16Z</time>
      </trkpt>
      <trkpt lat="48.59004" lon="7.73544">
        <ele>140.2</ele>
        <time>2020-06-28T14:08:17Z</time>
      </trkpt>
      <trkpt lat="48.59008" lon="7.73541">
        <ele>140.2</ele>
        <time>2020-06-28T14:08:18Z</time>
      </trkpt>
      <trkpt lat="48.59013" lon="7.73536">
        <ele>140.1</ele>
        <time>2020-06-28T14:08:19Z</time>
      </trkpt>
      <trkpt lat="48.59016" lon="7.73531">
        <ele>140.1</ele>
        <time>2020-06-28T14:08:20Z</time>
      </trkpt>
      <trkpt lat="48.59021" lon="7.73528">
        <ele>140</ele>
        <time>2020-06-28T14:08:21Z</time>
      </trkpt>
      <trkpt lat="48.59026" lon="7.73524">
        <ele>140</ele>
        <time>2020-06-28T14:08:22Z</time>
      </trkpt>
      <trkpt lat="48.5903" lon="7.7352">
        <ele>140</ele>
        <time>2020-06-28T14:08:23Z</time>
      </trkpt>
      <trkpt lat="48.59035" lon="7.73518">
        <ele>140</ele>
        <time>2020-06-28T14:08:24Z</time>
      </trkpt>
      <trkpt lat="48.59039" lon="7.73515">
        <ele>140</ele>
        <time>2020-06-28T14:08:25Z</time>
      </trkpt>
      <trkpt lat="48.59043" lon="7.73512">
        <ele>140</ele>
        <time>2020-06-28T14:08:26Z</time>
      </trkpt>
      <trkpt lat="48.59047" lon="7.7351">
        <ele>140</ele>
        <time>2020-06-28T14:08:27Z</time>
      </trkpt>
      <trkpt lat="48.59051" lon="7.73505">
        <ele>140</ele>
        <time>2020-06-28T14:08:28Z</time>
      </trkpt>
      <trkpt lat="48.59055" lon="7.73502">
        <ele>140</ele>
        <time>2020-06-28T14:08:29Z</time>
      </trkpt>
      <trkpt lat="48.59058" lon="7.735">
        <ele>140</ele>
        <time>2020-06-28T14:08:30Z</time>
      </trkpt>
      <trkpt lat="48.59061" lon="7.73497">
        <ele>140</ele>
        <time>2020-06-28T14:08:31Z</time>
      </trkpt>
      <trkpt lat="48.59064" lon="7.73495">
        <ele>140</ele>
        <time>2020-06-28T14:08:32Z</time>
      </trkpt>
      <trkpt lat="48.59067" lon="7.73492">
        <ele>140.1</ele>
        <time>2020-06-28T14:08:33Z</time>
      </trkpt>
      <trkpt lat="48.59071" lon="7.73489">
        <ele>140.1</ele>
        <time>2020-06-28T14:08:34Z</time>
      </trkpt>
      <trkpt lat="48.59075" lon="7.73486">
        <ele>140.2</ele>
        <time>2020-06-28T14:08:35Z</time>
      </trkpt>
      <trkpt lat="48.59079" lon="7.73484">
        <ele>140.3</ele>
        <time>2020-06-28T14:08:36Z</time>
      </trkpt>
      <trkpt lat="48.59082" lon="7.73481">
        <ele>140.3</ele>
        <time>2020-06-28T14:08:37Z</time>
      </trkpt>
      <trkpt lat="48.59086" lon="7.73478">
        <ele>140.3</ele>
        <time>2020-06-28T14:08:38Z</time>
      </trkpt>
      <trkpt lat="48.5909" lon="7.73476">
        <ele>140.4</ele>
        <time>2020-06-28T14:08:39Z</time>
      </trkpt>
      <trkpt lat="48.59093" lon="7.73472">
        <ele>140.4</ele>
        <time>2020-06-28T14:08:40Z</time>
      </trkpt>
      <trkpt lat="48.59097" lon="7.7347">
        <ele>140.5</ele>
        <time>2020-06-28T14:08:41Z</time>
      </trkpt>
      <trkpt lat="48.59101" lon="7.73468">
        <ele>140.5</ele>
        <time>2020-06-28T14:08:42Z</time>
      </trkpt>
      <trkpt lat="48.59105" lon="7.73465">
        <ele>140.6</ele>
        <time>2020-06-28T14:08:43Z</time>
      </trkpt>
      <trkpt lat="48.59109" lon="7.73461">
        <ele>140.6</ele>
        <time>2020-06-28T14:08:44Z</time>
      </trkpt>
      <trkpt lat="48.59112" lon="7.73457">
        <ele>140.7</ele>
        <time>2020-06-28T14:08:45Z</time>
      </trkpt>
      <trkpt lat="48.59115" lon="7.73452">
        <ele>140.8</ele>
        <time>2020-06-28T14:08:46Z</time>
      </trkpt>
      <trkpt lat="48.59118" lon="7.73448">
        <ele>140.8</ele>
        <time>2020-06-28T14:08:47Z</time>
      </trkpt>
      <trkpt lat="48.59122" lon="7.73443">
        <ele>140.9</ele>
        <time>2020-06-28T14:08:48Z</time>
      </trkpt>
      <trkpt lat="48.59126" lon="7.73439">
        <ele>141</ele>
        <time>2020-06-28T14:08:49Z</time>
      </trkpt>
      <trkpt lat="48.5913" lon="7.73435">
        <ele>141.1</ele>
        <time>2020-06-28T14:08:50Z</time>
      </trkpt>
      <trkpt lat="48.59133" lon="7.73431">
        <ele>141.2</ele>
        <time>2020-06-28T14:08:51Z</time>
      </trkpt>
      <trkpt lat="48.59137" lon="7.73429">
        <ele>141.3</ele>
        <time>2020-06-28T14:08:52Z</time>
      </trkpt>
      <trkpt lat="48.5914" lon="7.73427">
        <ele>141.4</ele>
        <time>2020-06-28T14:08:53Z</time>
      </trkpt>
      <trkpt lat="48.59144" lon="7.73424">
        <ele>141.6</ele>
        <time>2020-06-28T14:08:54Z</time>
      </trkpt>
      <trkpt lat="48.59147" lon="7.73424">
        <ele>141.7</ele>
        <time>2020-06-28T14:08:55Z</time>
      </trkpt>
      <trkpt lat="48.59152" lon="7.73423">
        <ele>141.9</ele>
        <time>2020-06-28T14:08:56Z</time>
      </trkpt>
      <trkpt lat="48.59156" lon="7.73422">
        <ele>141.8</ele>
        <time>2020-06-28T14:08:57Z</time>
      </trkpt>
      <trkpt lat="48.59158" lon="7.73422">
        <ele>141.7</ele>
        <time>2020-06-28T14:08:58Z</time>
      </trkpt>
      <trkpt lat="48.59159" lon="7.73421">
        <ele>141.7</ele>
        <time>2020-06-28T14:08:59Z</time>
      </trkpt>
      <trkpt lat="48.5916" lon="7.73421">
        <ele>141.7</ele>
        <time>2020-06-28T14:09:00Z</time>
      </trkpt>
      <trkpt lat="48.5916" lon="7.73419">
        <ele>141.6</ele>
        <time>2020-06-28T14:09:01Z</time>
      </trkpt>
      <trkpt lat="48.5916" lon="7.73419">
        <ele>141.6</ele>
        <time>2020-06-28T14:09:02Z</time>
      </trkpt>
      <trkpt lat="48.59159" lon="7.73419">
        <ele>141.6</ele>
        <time>2020-06-28T14:09:03Z</time>
      </trkpt>
      <trkpt lat="48.59159" lon="7.73418">
        <ele>141.6</ele>
        <time>2020-06-28T14:09:04Z</time>
      </trkpt>
      <trkpt lat="48.59157" lon="7.73419">
        <ele>141.5</ele>
        <time>2020-06-28T14:09:05Z</time>
      </trkpt>
      <trkpt lat="48.59157" lon="7.73419">
        <ele>141.5</ele>
        <time>2020-06-28T14:09:06Z</time>
      </trkpt>
      <trkpt lat="48.59156" lon="7.73419">
        <ele>141.5</ele>
        <time>2020-06-28T14:09:07Z</time>
      </trkpt>
      <trkpt lat="48.59154" lon="7.73418">
        <ele>141.4</ele>
        <time>2020-06-28T14:09:08Z</time>
      </trkpt>
      <trkpt lat="48.59154" lon="7.73418">
        <ele>141.4</ele>
        <time>2020-06-28T14:09:09Z</time>
      </trkpt>
      <trkpt lat="48.59153" lon="7.73418">
        <ele>141.4</ele>
        <time>2020-06-28T14:09:10Z</time>
      </trkpt>
      <trkpt lat="48.59152" lon="7.73418">
        <ele>141.4</ele>
        <time>2020-06-28T14:09:11Z</time>
      </trkpt>
      <trkpt lat="48.59152" lon="7.73418">
        <ele>141.4</ele>
        <time>2020-06-28T14:09:12Z</time>
      </trkpt>
      <trkpt lat="48.59151" lon="7.73418">
        <ele>141.4</ele>
        <time>2020-06-28T14:09:13Z</time>
      </trkpt>
      <trkpt lat="48.59151" lon="7.73418">
        <ele>141.4</ele>
        <time>2020-06-28T14:09:14Z</time>
      </trkpt>
      <trkpt lat="48.5915" lon="7.73418">
        <ele>141.3</ele>
        <time>2020-06-28T14:09:15Z</time>
      </trkpt>
      <trkpt lat="48.5915" lon="7.73418">
        <ele>141.3</ele>
        <time>2020-06-28T14:09:16Z</time>
      </trkpt>
      <trkpt lat="48.59149" lon="7.73419">
        <ele>141.3</ele>
        <time>2020-06-28T14:09:17Z</time>
      </trkpt>
      <trkpt lat="48.59149" lon="7.73419">
        <ele>141.3</ele>
        <time>2020-06-28T14:09:18Z</time>
      </trkpt>
      <trkpt lat="48.59148" lon="7.73419">
        <ele>141.3</ele>
        <time>2020-06-28T14:09:30Z</time>
      </trkpt>
      <trkpt lat="48.59148" lon="7.73419">
        <ele>141.3</ele>
        <time>2020-06-28T14:09:31Z</time>
      </trkpt>
      <trkpt lat="48.59144" lon="7.73421">
        <ele>141.2</ele>
        <time>2020-06-28T14:09:32Z</time>
      </trkpt>
      <trkpt lat="48.59141" lon="7.73423">
        <ele>141.1</ele>
        <time>2020-06-28T14:09:33Z</time>
      </trkpt>
      <trkpt lat="48.59138" lon="7.73427">
        <ele>141</ele>
        <time>2020-06-28T14:09:34Z</time>
      </trkpt>
      <trkpt lat="48.59135" lon="7.73431">
        <ele>141</ele>
        <time>2020-06-28T14:09:35Z</time>
      </trkpt>
      <trkpt lat="48.59131" lon="7.73435">
        <ele>140.9</ele>
        <time>2020-06-28T14:09:36Z</time>
      </trkpt>
      <trkpt lat="48.59127" lon="7.73439">
        <ele>140.8</ele>
        <time>2020-06-28T14:09:37Z</time>
      </trkpt>
      <trkpt lat="48.59124" lon="7.73443">
        <ele>140.8</ele>
        <time>2020-06-28T14:09:38Z</time>
      </trkpt>
      <trkpt lat="48.59121" lon="7.73447">
        <ele>140.7</ele>
        <time>2020-06-28T14:09:39Z</time>
      </trkpt>
      <trkpt lat="48.59117" lon="7.73453">
        <ele>140.7</ele>
        <time>2020-06-28T14:09:40Z</time>
      </trkpt>
      <trkpt lat="48.59114" lon="7.73457">
        <ele>140.6</ele>
        <time>2020-06-28T14:09:41Z</time>
      </trkpt>
      <trkpt lat="48.59109" lon="7.73463">
        <ele>140.6</ele>
        <time>2020-06-28T14:09:42Z</time>
      </trkpt>
      <trkpt lat="48.59104" lon="7.73468">
        <ele>140.5</ele>
        <time>2020-06-28T14:09:43Z</time>
      </trkpt>
      <trkpt lat="48.59099" lon="7.73472">
        <ele>140.5</ele>
        <time>2020-06-28T14:09:44Z</time>
      </trkpt>
      <trkpt lat="48.59094" lon="7.73477">
        <ele>140.4</ele>
        <time>2020-06-28T14:09:45Z</time>
      </trkpt>
      <trkpt lat="48.5909" lon="7.73482">
        <ele>140.3</ele>
        <time>2020-06-28T14:09:46Z</time>
      </trkpt>
      <trkpt lat="48.59085" lon="7.73488">
        <ele>140.3</ele>
        <time>2020-06-28T14:09:47Z</time>
      </trkpt>
      <trkpt lat="48.5908" lon="7.73492">
        <ele>140.2</ele>
        <time>2020-06-28T14:09:48Z</time>
      </trkpt>
      <trkpt lat="48.59075" lon="7.73496">
        <ele>140.2</ele>
        <time>2020-06-28T14:09:49Z</time>
      </trkpt>
      <trkpt lat="48.59068" lon="7.73501">
        <ele>140.1</ele>
        <time>2020-06-28T14:09:50Z</time>
      </trkpt>
      <trkpt lat="48.59064" lon="7.73506">
        <ele>140</ele>
        <time>2020-06-28T14:09:51Z</time>
      </trkpt>
      <trkpt lat="48.5906" lon="7.73511">
        <ele>140</ele>
        <time>2020-06-28T14:09:52Z</time>
      </trkpt>
      <trkpt lat="48.59054" lon="7.73514">
        <ele>140</ele>
        <time>2020-06-28T14:09:53Z</time>
      </trkpt>
      <trkpt lat="48.59051" lon="7.73517">
        <ele>140</ele>
        <time>2020-06-28T14:09:54Z</time>
      </trkpt>
      <trkpt lat="48.59047" lon="7.7352">
        <ele>140</ele>
        <time>2020-06-28T14:09:55Z</time>
      </trkpt>
      <trkpt lat="48.59044" lon="7.73523">
        <ele>140</ele>
        <time>2020-06-28T14:09:56Z</time>
      </trkpt>
      <trkpt lat="48.59043" lon="7.73525">
        <ele>140</ele>
        <time>2020-06-28T14:09:57Z</time>
      </trkpt>
      <trkpt lat="48.59041" lon="7.73525">
        <ele>140</ele>
        <time>2020-06-28T14:09:58Z</time>
      </trkpt>
      <trkpt lat="48.59038" lon="7.73523">
        <ele>139.9</ele>
        <time>2020-06-28T14:09:59Z</time>
      </trkpt>
      <trkpt lat="48.59036" lon="7.73521">
        <ele>139.8</ele>
        <time>2020-06-28T14:10:00Z</time>
      </trkpt>
      <trkpt lat="48.59036" lon="7.73519">
        <ele>139.8</ele>
        <time>2020-06-28T14:10:01Z</time>
      </trkpt>
      <trkpt lat="48.59035" lon="7.73517">
        <ele>139.8</ele>
        <time>2020-06-28T14:10:02Z</time>
      </trkpt>
      <trkpt lat="48.59036" lon="7.73511">
        <ele>139.7</ele>
        <time>2020-06-28T14:10:03Z</time>
      </trkpt>
      <trkpt lat="48.59037" lon="7.73506">
        <ele>139.7</ele>
        <time>2020-06-28T14:10:04Z</time>
      </trkpt>
      <trkpt lat="48.59038" lon="7.73504">
        <ele>139.8</ele>
        <time>2020-06-28T14:10:05Z</time>
      </trkpt>
      <trkpt lat="48.5904" lon="7.73501">
        <ele>139.8</ele>
        <time>2020-06-28T14:10:06Z</time>
      </trkpt>
      <trkpt lat="48.59043" lon="7.73497">
        <ele>139.8</ele>
        <time>2020-06-28T14:10:07Z</time>
      </trkpt>
      <trkpt lat="48.59044" lon="7.73493">
        <ele>139.9</ele>
        <time>2020-06-28T14:10:08Z</time>
      </trkpt>
      <trkpt lat="48.59045" lon="7.73489">
        <ele>139.9</ele>
        <time>2020-06-28T14:10:09Z</time>
      </trkpt>
      <trkpt lat="48.59047" lon="7.73485">
        <ele>139.9</ele>
        <time>2020-06-28T14:10:10Z</time>
      </trkpt>
      <trkpt lat="48.59048" lon="7.73484">
        <ele>139.9</ele>
        <time>2020-06-28T14:10:11Z</time>
      </trkpt>
      <trkpt lat="48.5905" lon="7.73481">
        <ele>139.9</ele>
        <time>2020-06-28T14:10:12Z</time>
      </trkpt>
      <trkpt lat="48.59053" lon="7.73478">
        <ele>140</ele>
        <time>2020-06-28T14:10:13Z</time>
      </trkpt>
      <trkpt lat="48.59057" lon="7.73477">
        <ele>140.1</ele>
        <time>2020-06-28T14:10:14Z</time>
      </trkpt>
      <trkpt lat="48.59059" lon="7.73475">
        <ele>140.2</ele>
        <time>2020-06-28T14:10:15Z</time>
      </trkpt>
      <trkpt lat="48.59063" lon="7.73474">
        <ele>140.4</ele>
        <time>2020-06-28T14:10:16Z</time>
      </trkpt>
      <trkpt lat="48.59066" lon="7.7347">
        <ele>140.5</ele>
        <time>2020-06-28T14:10:17Z</time>
      </trkpt>
      <trkpt lat="48.59067" lon="7.73469">
        <ele>140.5</ele>
        <time>2020-06-28T14:10:18Z</time>
      </trkpt>
      <trkpt lat="48.59068" lon="7.73467">
        <ele>140.5</ele>
        <time>2020-06-28T14:10:19Z</time>
      </trkpt>
      <trkpt lat="48.59069" lon="7.73465">
        <ele>140.5</ele>
        <time>2020-06-28T14:10:20Z</time>
      </trkpt>
      <trkpt lat="48.59069" lon="7.73464">
        <ele>140.5</ele>
        <time>2020-06-28T14:10:21Z</time>
      </trkpt>
      <trkpt lat="48.5907" lon="7.73462">
        <ele>140.6</ele>
        <time>2020-06-28T14:10:22Z</time>
      </trkpt>
      <trkpt lat="48.5907" lon="7.7346">
        <ele>140.5</ele>
        <time>2020-06-28T14:10:23Z</time>
      </trkpt>
      <trkpt lat="48.5907" lon="7.7346">
        <ele>140.5</ele>
        <time>2020-06-28T14:10:24Z</time>
      </trkpt>
      <trkpt lat="48.59071" lon="7.73462">
        <ele>140.5</ele>
        <time>2020-06-28T14:10:25Z</time>
      </trkpt>
      <trkpt lat="48.59071" lon="7.73461">
        <ele>140.4</ele>
        <time>2020-06-28T14:10:26Z</time>
      </trkpt>
      <trkpt lat="48.5907" lon="7.73462">
        <ele>140.4</ele>
        <time>2020-06-28T14:10:27Z</time>
      </trkpt>
      <trkpt lat="48.5907" lon="7.73463">
        <ele>140.4</ele>
        <time>2020-06-28T14:10:28Z</time>
      </trkpt>
      <trkpt lat="48.5907" lon="7.73463">
        <ele>140.3</ele>
        <time>2020-06-28T14:10:29Z</time>
      </trkpt>
      <trkpt lat="48.59071" lon="7.73465">
        <ele>140.3</ele>
        <time>2020-06-28T14:10:30Z</time>
      </trkpt>
      <trkpt lat="48.59069" lon="7.73465">
        <ele>140.3</ele>
        <time>2020-06-28T14:10:31Z</time>
      </trkpt>
      <trkpt lat="48.5907" lon="7.73465">
        <ele>140.2</ele>
        <time>2020-06-28T14:10:32Z</time>
      </trkpt>
      <trkpt lat="48.5907" lon="7.73469">
        <ele>140.1</ele>
        <time>2020-06-28T14:10:33Z</time>
      </trkpt>
      <trkpt lat="48.59071" lon="7.73472">
        <ele>140.1</ele>
        <time>2020-06-28T14:10:34Z</time>
      </trkpt>
      <trkpt lat="48.5907" lon="7.73459">
        <ele>140.2</ele>
        <time>2020-06-28T14:10:56Z</time>
      </trkpt>
      <trkpt lat="48.59069" lon="7.73457">
        <ele>140.2</ele>
        <time>2020-06-28T14:10:57Z</time>
      </trkpt>
      <trkpt lat="48.59069" lon="7.73455">
        <ele>140.2</ele>
        <time>2020-06-28T14:10:58Z</time>
      </trkpt>
      <trkpt lat="48.59069" lon="7.73455">
        <ele>140.1</ele>
        <time>2020-06-28T14:10:59Z</time>
      </trkpt>
      <trkpt lat="48.59069" lon="7.73455">
        <ele>140.1</ele>
        <time>2020-06-28T14:11:00Z</time>
      </trkpt>
      <trkpt lat="48.59069" lon="7.73454">
        <ele>140.1</ele>
        <time>2020-06-28T14:11:01Z</time>
      </trkpt>
      <trkpt lat="48.59069" lon="7.73454">
        <ele>140.1</ele>
        <time>2020-06-28T14:11:02Z</time>
      </trkpt>
      <trkpt lat="48.59069" lon="7.73453">
        <ele>140</ele>
        <time>2020-06-28T14:11:03Z</time>
      </trkpt>
      <trkpt lat="48.59068" lon="7.73452">
        <ele>139.9</ele>
        <time>2020-06-28T14:11:04Z</time>
      </trkpt>
      <trkpt lat="48.59068" lon="7.7345">
        <ele>139.9</ele>
        <time>2020-06-28T14:11:05Z</time>
      </trkpt>
      <trkpt lat="48.59068" lon="7.73449">
        <ele>139.9</ele>
        <time>2020-06-28T14:11:06Z</time>
      </trkpt>
      <trkpt lat="48.59068" lon="7.73448">
        <ele>139.9</ele>
        <time>2020-06-28T14:11:07Z</time>
      </trkpt>
      <trkpt lat="48.59067" lon="7.73442">
        <ele>139.9</ele>
        <time>2020-06-28T14:11:08Z</time>
      </trkpt>
      <trkpt lat="48.59066" lon="7.7344">
        <ele>139.9</ele>
        <time>2020-06-28T14:11:09Z</time>
      </trkpt>
      <trkpt lat="48.59065" lon="7.73436">
        <ele>139.8</ele>
        <time>2020-06-28T14:11:10Z</time>
      </trkpt>
      <trkpt lat="48.59065" lon="7.73434">
        <ele>139.8</ele>
        <time>2020-06-28T14:11:11Z</time>
      </trkpt>
      <trkpt lat="48.59063" lon="7.73428">
        <ele>139.8</ele>
        <time>2020-06-28T14:11:12Z</time>
      </trkpt>
      <trkpt lat="48.59059" lon="7.73422">
        <ele>139.8</ele>
        <time>2020-06-28T14:11:13Z</time>
      </trkpt>
      <trkpt lat="48.59055" lon="7.73415">
        <ele>139.7</ele>
        <time>2020-06-28T14:11:14Z</time>
      </trkpt>
      <trkpt lat="48.5905" lon="7.73408">
        <ele>139.7</ele>
        <time>2020-06-28T14:11:15Z</time>
      </trkpt>
      <trkpt lat="48.59047" lon="7.73402">
        <ele>139.6</ele>
        <time>2020-06-28T14:11:16Z</time>
      </trkpt>
      <trkpt lat="48.59043" lon="7.73396">
        <ele>139.5</ele>
        <time>2020-06-28T14:11:17Z</time>
      </trkpt>
      <trkpt lat="48.5904" lon="7.73391">
        <ele>139.5</ele>
        <time>2020-06-28T14:11:18Z</time>
      </trkpt>
      <trkpt lat="48.59037" lon="7.73385">
        <ele>139.4</ele>
        <time>2020-06-28T14:11:19Z</time>
      </trkpt>
      <trkpt lat="48.59033" lon="7.73378">
        <ele>139.4</ele>
        <time>2020-06-28T14:11:20Z</time>
      </trkpt>
      <trkpt lat="48.5903" lon="7.73372">
        <ele>139.3</ele>
        <time>2020-06-28T14:11:21Z</time>
      </trkpt>
      <trkpt lat="48.59027" lon="7.73366">
        <ele>139.3</ele>
        <time>2020-06-28T14:11:22Z</time>
      </trkpt>
      <trkpt lat="48.59024" lon="7.73361">
        <ele>139.2</ele>
        <time>2020-06-28T14:11:23Z</time>
      </trkpt>
      <trkpt lat="48.59021" lon="7.73356">
        <ele>139.2</ele>
        <time>2020-06-28T14:11:24Z</time>
      </trkpt>
      <trkpt lat="48.59018" lon="7.73351">
        <ele>139.2</ele>
        <time>2020-06-28T14:11:25Z</time>
      </trkpt>
      <trkpt lat="48.59016" lon="7.73348">
        <ele>139.2</ele>
        <time>2020-06-28T14:11:26Z</time>
      </trkpt>
      <trkpt lat="48.59016" lon="7.73347">
        <ele>139.1</ele>
        <time>2020-06-28T14:11:27Z</time>
      </trkpt>
      <trkpt lat="48.59014" lon="7.73341">
        <ele>139.1</ele>
        <time>2020-06-28T14:11:28Z</time>
      </trkpt>
      <trkpt lat="48.59014" lon="7.73339">
        <ele>139.1</ele>
        <time>2020-06-28T14:11:29Z</time>
      </trkpt>
      <trkpt lat="48.59013" lon="7.73334">
        <ele>139.2</ele>
        <time>2020-06-28T14:11:30Z</time>
      </trkpt>
      <trkpt lat="48.59013" lon="7.73329">
        <ele>139.2</ele>
        <time>2020-06-28T14:11:31Z</time>
      </trkpt>
      <trkpt lat="48.59013" lon="7.73324">
        <ele>139.2</ele>
        <time>2020-06-28T14:11:32Z</time>
      </trkpt>
      <trkpt lat="48.59014" lon="7.73319">
        <ele>139.2</ele>
        <time>2020-06-28T14:11:33Z</time>
      </trkpt>
      <trkpt lat="48.59015" lon="7.73314">
        <ele>139.2</ele>
        <time>2020-06-28T14:11:34Z</time>
      </trkpt>
      <trkpt lat="48.59015" lon="7.73309">
        <ele>139.2</ele>
        <time>2020-06-28T14:11:35Z</time>
      </trkpt>
      <trkpt lat="48.59016" lon="7.73306">
        <ele>139.2</ele>
        <time>2020-06-28T14:11:36Z</time>
      </trkpt>
      <trkpt lat="48.59017" lon="7.73301">
        <ele>139.2</ele>
        <time>2020-06-28T14:11:37Z</time>
      </trkpt>
      <trkpt lat="48.59019" lon="7.733">
        <ele>139.2</ele>
        <time>2020-06-28T14:11:38Z</time>
      </trkpt>
      <trkpt lat="48.5902" lon="7.73299">
        <ele>139.2</ele>
        <time>2020-06-28T14:11:39Z</time>
      </trkpt>
      <trkpt lat="48.59044" lon="7.73246">
        <ele>141.5</ele>
        <time>2020-06-28T14:11:51Z</time>
      </trkpt>
      <trkpt lat="48.5905" lon="7.73242">
        <ele>141.7</ele>
        <time>2020-06-28T14:11:52Z</time>
      </trkpt>
      <trkpt lat="48.59053" lon="7.73237">
        <ele>141.8</ele>
        <time>2020-06-28T14:11:53Z</time>
      </trkpt>
      <trkpt lat="48.59056" lon="7.73236">
        <ele>141.8</ele>
        <time>2020-06-28T14:11:54Z</time>
      </trkpt>
      <trkpt lat="48.59059" lon="7.73234">
        <ele>141.9</ele>
        <time>2020-06-28T14:11:55Z</time>
      </trkpt>
      <trkpt lat="48.59062" lon="7.73233">
        <ele>141.9</ele>
        <time>2020-06-28T14:11:56Z</time>
      </trkpt>
      <trkpt lat="48.59065" lon="7.7323">
        <ele>142</ele>
        <time>2020-06-28T14:11:57Z</time>
      </trkpt>
      <trkpt lat="48.59066" lon="7.73229">
        <ele>142</ele>
        <time>2020-06-28T14:11:58Z</time>
      </trkpt>
      <trkpt lat="48.59067" lon="7.7323">
        <ele>142</ele>
        <time>2020-06-28T14:11:59Z</time>
      </trkpt>
      <trkpt lat="48.59069" lon="7.73228">
        <ele>142.1</ele>
        <time>2020-06-28T14:12:00Z</time>
      </trkpt>
      <trkpt lat="48.59071" lon="7.73225">
        <ele>142.1</ele>
        <time>2020-06-28T14:12:01Z</time>
      </trkpt>
      <trkpt lat="48.59074" lon="7.73219">
        <ele>142.2</ele>
        <time>2020-06-28T14:12:02Z</time>
      </trkpt>
      <trkpt lat="48.59074" lon="7.73217">
        <ele>142.2</ele>
        <time>2020-06-28T14:12:03Z</time>
      </trkpt>
      <trkpt lat="48.59075" lon="7.73212">
        <ele>142.3</ele>
        <time>2020-06-28T14:12:04Z</time>
      </trkpt>
      <trkpt lat="48.59076" lon="7.73205">
        <ele>142.3</ele>
        <time>2020-06-28T14:12:05Z</time>
      </trkpt>
      <trkpt lat="48.59078" lon="7.73198">
        <ele>142.4</ele>
        <time>2020-06-28T14:12:06Z</time>
      </trkpt>
      <trkpt lat="48.59079" lon="7.73192">
        <ele>142.4</ele>
        <time>2020-06-28T14:12:07Z</time>
      </trkpt>
      <trkpt lat="48.5908" lon="7.73186">
        <ele>142.4</ele>
        <time>2020-06-28T14:12:08Z</time>
      </trkpt>
      <trkpt lat="48.59079" lon="7.7318">
        <ele>142.5</ele>
        <time>2020-06-28T14:12:09Z</time>
      </trkpt>
      <trkpt lat="48.59078" lon="7.73175">
        <ele>142.5</ele>
        <time>2020-06-28T14:12:10Z</time>
      </trkpt>
      <trkpt lat="48.59076" lon="7.7317">
        <ele>142.6</ele>
        <time>2020-06-28T14:12:11Z</time>
      </trkpt>
      <trkpt lat="48.59076" lon="7.73162">
        <ele>142.6</ele>
        <time>2020-06-28T14:12:12Z</time>
      </trkpt>
      <trkpt lat="48.59075" lon="7.73155">
        <ele>142.6</ele>
        <time>2020-06-28T14:12:13Z</time>
      </trkpt>
      <trkpt lat="48.59074" lon="7.73148">
        <ele>142.6</ele>
        <time>2020-06-28T14:12:14Z</time>
      </trkpt>
      <trkpt lat="48.59072" lon="7.7314">
        <ele>142.6</ele>
        <time>2020-06-28T14:12:15Z</time>
      </trkpt>
      <trkpt lat="48.59071" lon="7.73134">
        <ele>142.7</ele>
        <time>2020-06-28T14:12:16Z</time>
      </trkpt>
      <trkpt lat="48.59069" lon="7.73127">
        <ele>142.7</ele>
        <time>2020-06-28T14:12:17Z</time>
      </trkpt>
      <trkpt lat="48.59068" lon="7.7312">
        <ele>142.7</ele>
        <time>2020-06-28T14:12:18Z</time>
      </trkpt>
      <trkpt lat="48.59065" lon="7.73114">
        <ele>142.8</ele>
        <time>2020-06-28T14:12:19Z</time>
      </trkpt>
      <trkpt lat="48.59064" lon="7.73108">
        <ele>142.8</ele>
        <time>2020-06-28T14:12:20Z</time>
      </trkpt>
      <trkpt lat="48.59062" lon="7.73102">
        <ele>142.9</ele>
        <time>2020-06-28T14:12:21Z</time>
      </trkpt>
      <trkpt lat="48.59061" lon="7.73097">
        <ele>143</ele>
        <time>2020-06-28T14:12:22Z</time>
      </trkpt>
      <trkpt lat="48.59059" lon="7.73092">
        <ele>143</ele>
        <time>2020-06-28T14:12:23Z</time>
      </trkpt>
      <trkpt lat="48.59059" lon="7.73086">
        <ele>143.1</ele>
        <time>2020-06-28T14:12:24Z</time>
      </trkpt>
      <trkpt lat="48.59058" lon="7.73081">
        <ele>143.1</ele>
        <time>2020-06-28T14:12:25Z</time>
      </trkpt>
      <trkpt lat="48.59057" lon="7.73075">
        <ele>143.2</ele>
        <time>2020-06-28T14:12:26Z</time>
      </trkpt>
      <trkpt lat="48.59056" lon="7.73068">
        <ele>143.2</ele>
        <time>2020-06-28T14:12:27Z</time>
      </trkpt>
      <trkpt lat="48.59056" lon="7.73063">
        <ele>143.3</ele>
        <time>2020-06-28T14:12:28Z</time>
      </trkpt>
      <trkpt lat="48.59055" lon="7.73058">
        <ele>143.3</ele>
        <time>2020-06-28T14:12:29Z</time>
      </trkpt>
      <trkpt lat="48.59053" lon="7.73051">
        <ele>143.4</ele>
        <time>2020-06-28T14:12:30Z</time>
      </trkpt>
      <trkpt lat="48.59051" lon="7.73045">
        <ele>143.4</ele>
        <time>2020-06-28T14:12:31Z</time>
      </trkpt>
      <trkpt lat="48.5905" lon="7.73041">
        <ele>143.5</ele>
        <time>2020-06-28T14:12:32Z</time>
      </trkpt>
      <trkpt lat="48.59048" lon="7.73036">
        <ele>143.5</ele>
        <time>2020-06-28T14:12:33Z</time>
      </trkpt>
      <trkpt lat="48.59048" lon="7.7303">
        <ele>143.6</ele>
        <time>2020-06-28T14:12:34Z</time>
      </trkpt>
      <trkpt lat="48.59048" lon="7.73023">
        <ele>143.7</ele>
        <time>2020-06-28T14:12:35Z</time>
      </trkpt>
      <trkpt lat="48.59048" lon="7.73018">
        <ele>143.7</ele>
        <time>2020-06-28T14:12:36Z</time>
      </trkpt>
      <trkpt lat="48.59047" lon="7.73013">
        <ele>143.8</ele>
        <time>2020-06-28T14:12:37Z</time>
      </trkpt>
      <trkpt lat="48.59046" lon="7.73007">
        <ele>143.9</ele>
        <time>2020-06-28T14:12:38Z</time>
      </trkpt>
      <trkpt lat="48.59045" lon="7.73001">
        <ele>143.9</ele>
        <time>2020-06-28T14:12:39Z</time>
      </trkpt>
      <trkpt lat="48.59044" lon="7.72996">
        <ele>144</ele>
        <time>2020-06-28T14:12:40Z</time>
      </trkpt>
      <trkpt lat="48.59043" lon="7.72991">
        <ele>144</ele>
        <time>2020-06-28T14:12:41Z</time>
      </trkpt>
      <trkpt lat="48.59042" lon="7.72986">
        <ele>144.1</ele>
        <time>2020-06-28T14:12:42Z</time>
      </trkpt>
      <trkpt lat="48.59042" lon="7.72981">
        <ele>144.2</ele>
        <time>2020-06-28T14:12:43Z</time>
      </trkpt>
      <trkpt lat="48.59041" lon="7.72974">
        <ele>144.2</ele>
        <time>2020-06-28T14:12:44Z</time>
      </trkpt>
      <trkpt lat="48.5904" lon="7.72967">
        <ele>144.3</ele>
        <time>2020-06-28T14:12:45Z</time>
      </trkpt>
      <trkpt lat="48.59039" lon="7.72962">
        <ele>144.4</ele>
        <time>2020-06-28T14:12:46Z</time>
      </trkpt>
      <trkpt lat="48.59039" lon="7.72956">
        <ele>144.5</ele>
        <time>2020-06-28T14:12:47Z</time>
      </trkpt>
      <trkpt lat="48.59038" lon="7.72948">
        <ele>144.5</ele>
        <time>2020-06-28T14:12:48Z</time>
      </trkpt>
      <trkpt lat="48.59037" lon="7.72941">
        <ele>144.6</ele>
        <time>2020-06-28T14:12:49Z</time>
      </trkpt>
      <trkpt lat="48.59034" lon="7.72933">
        <ele>144.7</ele>
        <time>2020-06-28T14:12:50Z</time>
      </trkpt>
      <trkpt lat="48.59033" lon="7.72927">
        <ele>144.7</ele>
        <time>2020-06-28T14:12:51Z</time>
      </trkpt>
      <trkpt lat="48.59031" lon="7.72921">
        <ele>144.7</ele>
        <time>2020-06-28T14:12:52Z</time>
      </trkpt>
      <trkpt lat="48.59031" lon="7.72916">
        <ele>144.8</ele>
        <time>2020-06-28T14:12:53Z</time>
      </trkpt>
      <trkpt lat="48.59031" lon="7.72909">
        <ele>144.8</ele>
        <time>2020-06-28T14:12:54Z</time>
      </trkpt>
      <trkpt lat="48.59032" lon="7.72905">
        <ele>144.8</ele>
        <time>2020-06-28T14:12:55Z</time>
      </trkpt>
      <trkpt lat="48.59031" lon="7.729">
        <ele>144.9</ele>
        <time>2020-06-28T14:12:56Z</time>
      </trkpt>
      <trkpt lat="48.5903" lon="7.72895">
        <ele>144.9</ele>
        <time>2020-06-28T14:12:57Z</time>
      </trkpt>
      <trkpt lat="48.59029" lon="7.72889">
        <ele>144.9</ele>
        <time>2020-06-28T14:12:58Z</time>
      </trkpt>
      <trkpt lat="48.5903" lon="7.72884">
        <ele>144.9</ele>
        <time>2020-06-28T14:12:59Z</time>
      </trkpt>
      <trkpt lat="48.5903" lon="7.72876">
        <ele>145</ele>
        <time>2020-06-28T14:13:00Z</time>
      </trkpt>
      <trkpt lat="48.5903" lon="7.72869">
        <ele>145</ele>
        <time>2020-06-28T14:13:01Z</time>
      </trkpt>
      <trkpt lat="48.59031" lon="7.72863">
        <ele>145</ele>
        <time>2020-06-28T14:13:02Z</time>
      </trkpt>
      <trkpt lat="48.59031" lon="7.72856">
        <ele>145.1</ele>
        <time>2020-06-28T14:13:03Z</time>
      </trkpt>
      <trkpt lat="48.59032" lon="7.7285">
        <ele>145.1</ele>
        <time>2020-06-28T14:13:04Z</time>
      </trkpt>
      <trkpt lat="48.59032" lon="7.72841">
        <ele>145.2</ele>
        <time>2020-06-28T14:13:05Z</time>
      </trkpt>
      <trkpt lat="48.59034" lon="7.72836">
        <ele>145.2</ele>
        <time>2020-06-28T14:13:06Z</time>
      </trkpt>
      <trkpt lat="48.59036" lon="7.7283">
        <ele>145.3</ele>
        <time>2020-06-28T14:13:07Z</time>
      </trkpt>
      <trkpt lat="48.59036" lon="7.72822">
        <ele>145.3</ele>
        <time>2020-06-28T14:13:08Z</time>
      </trkpt>
      <trkpt lat="48.59035" lon="7.72813">
        <ele>145.4</ele>
        <time>2020-06-28T14:13:09Z</time>
      </trkpt>
      <trkpt lat="48.59033" lon="7.72805">
        <ele>145.4</ele>
        <time>2020-06-28T14:13:10Z</time>
      </trkpt>
      <trkpt lat="48.59032" lon="7.728">
        <ele>145.4</ele>
        <time>2020-06-28T14:13:11Z</time>
      </trkpt>
      <trkpt lat="48.5903" lon="7.72793">
        <ele>145.4</ele>
        <time>2020-06-28T14:13:12Z</time>
      </trkpt>
      <trkpt lat="48.59031" lon="7.72788">
        <ele>145.4</ele>
        <time>2020-06-28T14:13:13Z</time>
      </trkpt>
      <trkpt lat="48.59032" lon="7.72782">
        <ele>145.4</ele>
        <time>2020-06-28T14:13:14Z</time>
      </trkpt>
      <trkpt lat="48.59033" lon="7.72775">
        <ele>145.4</ele>
        <time>2020-06-28T14:13:15Z</time>
      </trkpt>
      <trkpt lat="48.59034" lon="7.72768">
        <ele>145.5</ele>
        <time>2020-06-28T14:13:16Z</time>
      </trkpt>
      <trkpt lat="48.59036" lon="7.72758">
        <ele>145.5</ele>
        <time>2020-06-28T14:13:17Z</time>
      </trkpt>
      <trkpt lat="48.59038" lon="7.7275">
        <ele>145.5</ele>
        <time>2020-06-28T14:13:18Z</time>
      </trkpt>
      <trkpt lat="48.59038" lon="7.72743">
        <ele>145.6</ele>
        <time>2020-06-28T14:13:19Z</time>
      </trkpt>
      <trkpt lat="48.59037" lon="7.72739">
        <ele>145.6</ele>
        <time>2020-06-28T14:13:20Z</time>
      </trkpt>
      <trkpt lat="48.59039" lon="7.72734">
        <ele>145.6</ele>
        <time>2020-06-28T14:13:21Z</time>
      </trkpt>
      <trkpt lat="48.5904" lon="7.72732">
        <ele>145.6</ele>
        <time>2020-06-28T14:13:22Z</time>
      </trkpt>
      <trkpt lat="48.59041" lon="7.72726">
        <ele>145.6</ele>
        <time>2020-06-28T14:13:23Z</time>
      </trkpt>
      <trkpt lat="48.59043" lon="7.7272">
        <ele>145.6</ele>
        <time>2020-06-28T14:13:24Z</time>
      </trkpt>
      <trkpt lat="48.59043" lon="7.72714">
        <ele>145.6</ele>
        <time>2020-06-28T14:13:25Z</time>
      </trkpt>
      <trkpt lat="48.59043" lon="7.72707">
        <ele>145.6</ele>
        <time>2020-06-28T14:13:26Z</time>
      </trkpt>
      <trkpt lat="48.59043" lon="7.72701">
        <ele>145.6</ele>
        <time>2020-06-28T14:13:27Z</time>
      </trkpt>
      <trkpt lat="48.59043" lon="7.72696">
        <ele>145.6</ele>
        <time>2020-06-28T14:13:28Z</time>
      </trkpt>
      <trkpt lat="48.59045" lon="7.72692">
        <ele>145.6</ele>
        <time>2020-06-28T14:13:29Z</time>
      </trkpt>
      <trkpt lat="48.59047" lon="7.72686">
        <ele>145.6</ele>
        <time>2020-06-28T14:13:30Z</time>
      </trkpt>
      <trkpt lat="48.59048" lon="7.72679">
        <ele>145.6</ele>
        <time>2020-06-28T14:13:31Z</time>
      </trkpt>
      <trkpt lat="48.59049" lon="7.72673">
        <ele>145.6</ele>
        <time>2020-06-28T14:13:32Z</time>
      </trkpt>
      <trkpt lat="48.59049" lon="7.72667">
        <ele>145.6</ele>
        <time>2020-06-28T14:13:33Z</time>
      </trkpt>
      <trkpt lat="48.5905" lon="7.72661">
        <ele>145.6</ele>
        <time>2020-06-28T14:13:34Z</time>
      </trkpt>
      <trkpt lat="48.59053" lon="7.72656">
        <ele>145.6</ele>
        <time>2020-06-28T14:13:35Z</time>
      </trkpt>
      <trkpt lat="48.59054" lon="7.72651">
        <ele>145.6</ele>
        <time>2020-06-28T14:13:36Z</time>
      </trkpt>
      <trkpt lat="48.59054" lon="7.72642">
        <ele>145.6</ele>
        <time>2020-06-28T14:13:37Z</time>
      </trkpt>
      <trkpt lat="48.59057" lon="7.72636">
        <ele>145.6</ele>
        <time>2020-06-28T14:13:38Z</time>
      </trkpt>
      <trkpt lat="48.59058" lon="7.72628">
        <ele>145.6</ele>
        <time>2020-06-28T14:13:39Z</time>
      </trkpt>
      <trkpt lat="48.5906" lon="7.7262">
        <ele>145.5</ele>
        <time>2020-06-28T14:13:40Z</time>
      </trkpt>
      <trkpt lat="48.59061" lon="7.72614">
        <ele>145.5</ele>
        <time>2020-06-28T14:13:41Z</time>
      </trkpt>
      <trkpt lat="48.59061" lon="7.72607">
        <ele>145.5</ele>
        <time>2020-06-28T14:13:42Z</time>
      </trkpt>
      <trkpt lat="48.59061" lon="7.726">
        <ele>145.5</ele>
        <time>2020-06-28T14:13:43Z</time>
      </trkpt>
      <trkpt lat="48.59062" lon="7.72592">
        <ele>145.5</ele>
        <time>2020-06-28T14:13:44Z</time>
      </trkpt>
      <trkpt lat="48.59064" lon="7.72584">
        <ele>145.5</ele>
        <time>2020-06-28T14:13:45Z</time>
      </trkpt>
      <trkpt lat="48.59066" lon="7.72577">
        <ele>145.5</ele>
        <time>2020-06-28T14:13:46Z</time>
      </trkpt>
      <trkpt lat="48.59067" lon="7.72569">
        <ele>145.5</ele>
        <time>2020-06-28T14:13:47Z</time>
      </trkpt>
      <trkpt lat="48.59066" lon="7.72561">
        <ele>145.5</ele>
        <time>2020-06-28T14:13:48Z</time>
      </trkpt>
      <trkpt lat="48.59068" lon="7.72556">
        <ele>145.5</ele>
        <time>2020-06-28T14:13:49Z</time>
      </trkpt>
      <trkpt lat="48.59069" lon="7.72548">
        <ele>145.5</ele>
        <time>2020-06-28T14:13:50Z</time>
      </trkpt>
      <trkpt lat="48.5907" lon="7.7254">
        <ele>145.6</ele>
        <time>2020-06-28T14:13:51Z</time>
      </trkpt>
      <trkpt lat="48.59073" lon="7.72532">
        <ele>145.6</ele>
        <time>2020-06-28T14:13:52Z</time>
      </trkpt>
      <trkpt lat="48.59075" lon="7.72523">
        <ele>145.6</ele>
        <time>2020-06-28T14:13:53Z</time>
      </trkpt>
      <trkpt lat="48.59076" lon="7.72514">
        <ele>145.6</ele>
        <time>2020-06-28T14:13:54Z</time>
      </trkpt>
      <trkpt lat="48.59078" lon="7.72509">
        <ele>145.6</ele>
        <time>2020-06-28T14:13:55Z</time>
      </trkpt>
      <trkpt lat="48.59078" lon="7.72502">
        <ele>145.6</ele>
        <time>2020-06-28T14:13:56Z</time>
      </trkpt>
      <trkpt lat="48.59079" lon="7.72495">
        <ele>145.5</ele>
        <time>2020-06-28T14:13:57Z</time>
      </trkpt>
      <trkpt lat="48.59081" lon="7.72488">
        <ele>145.5</ele>
        <time>2020-06-28T14:13:58Z</time>
      </trkpt>
      <trkpt lat="48.59083" lon="7.72481">
        <ele>145.5</ele>
        <time>2020-06-28T14:13:59Z</time>
      </trkpt>
      <trkpt lat="48.59084" lon="7.72474">
        <ele>145.5</ele>
        <time>2020-06-28T14:14:00Z</time>
      </trkpt>
      <trkpt lat="48.59085" lon="7.72467">
        <ele>145.5</ele>
        <time>2020-06-28T14:14:01Z</time>
      </trkpt>
      <trkpt lat="48.59087" lon="7.7246">
        <ele>145.5</ele>
        <time>2020-06-28T14:14:02Z</time>
      </trkpt>
      <trkpt lat="48.59088" lon="7.72452">
        <ele>145.5</ele>
        <time>2020-06-28T14:14:03Z</time>
      </trkpt>
      <trkpt lat="48.59091" lon="7.72447">
        <ele>145.5</ele>
        <time>2020-06-28T14:14:04Z</time>
      </trkpt>
      <trkpt lat="48.59092" lon="7.72438">
        <ele>145.5</ele>
        <time>2020-06-28T14:14:05Z</time>
      </trkpt>
      <trkpt lat="48.59095" lon="7.72433">
        <ele>145.5</ele>
        <time>2020-06-28T14:14:06Z</time>
      </trkpt>
      <trkpt lat="48.59097" lon="7.72427">
        <ele>145.5</ele>
        <time>2020-06-28T14:14:07Z</time>
      </trkpt>
      <trkpt lat="48.59098" lon="7.72419">
        <ele>145.4</ele>
        <time>2020-06-28T14:14:08Z</time>
      </trkpt>
      <trkpt lat="48.59101" lon="7.72413">
        <ele>145.4</ele>
        <time>2020-06-28T14:14:09Z</time>
      </trkpt>
      <trkpt lat="48.59103" lon="7.72404">
        <ele>145.3</ele>
        <time>2020-06-28T14:14:10Z</time>
      </trkpt>
      <trkpt lat="48.59105" lon="7.72398">
        <ele>145.3</ele>
        <time>2020-06-28T14:14:11Z</time>
      </trkpt>
      <trkpt lat="48.59106" lon="7.72391">
        <ele>145.3</ele>
        <time>2020-06-28T14:14:12Z</time>
      </trkpt>
      <trkpt lat="48.59108" lon="7.72385">
        <ele>145.3</ele>
        <time>2020-06-28T14:14:13Z</time>
      </trkpt>
      <trkpt lat="48.5911" lon="7.72378">
        <ele>145.3</ele>
        <time>2020-06-28T14:14:14Z</time>
      </trkpt>
      <trkpt lat="48.59112" lon="7.72373">
        <ele>145.2</ele>
        <time>2020-06-28T14:14:15Z</time>
      </trkpt>
      <trkpt lat="48.59114" lon="7.72368">
        <ele>145.2</ele>
        <time>2020-06-28T14:14:16Z</time>
      </trkpt>
      <trkpt lat="48.59114" lon="7.72361">
        <ele>145.2</ele>
        <time>2020-06-28T14:14:17Z</time>
      </trkpt>
      <trkpt lat="48.59116" lon="7.72354">
        <ele>145.2</ele>
        <time>2020-06-28T14:14:18Z</time>
      </trkpt>
      <trkpt lat="48.59118" lon="7.72348">
        <ele>145.1</ele>
        <time>2020-06-28T14:14:19Z</time>
      </trkpt>
      <trkpt lat="48.5912" lon="7.72342">
        <ele>145.1</ele>
        <time>2020-06-28T14:14:20Z</time>
      </trkpt>
      <trkpt lat="48.5912" lon="7.72336">
        <ele>145.1</ele>
        <time>2020-06-28T14:14:21Z</time>
      </trkpt>
      <trkpt lat="48.5912" lon="7.7233">
        <ele>145.1</ele>
        <time>2020-06-28T14:14:22Z</time>
      </trkpt>
      <trkpt lat="48.59121" lon="7.72325">
        <ele>145.2</ele>
        <time>2020-06-28T14:14:23Z</time>
      </trkpt>
      <trkpt lat="48.59122" lon="7.72321">
        <ele>145.2</ele>
        <time>2020-06-28T14:14:24Z</time>
      </trkpt>
      <trkpt lat="48.59122" lon="7.72317">
        <ele>145.2</ele>
        <time>2020-06-28T14:14:25Z</time>
      </trkpt>
      <trkpt lat="48.59124" lon="7.72314">
        <ele>145.2</ele>
        <time>2020-06-28T14:14:26Z</time>
      </trkpt>
      <trkpt lat="48.59125" lon="7.72309">
        <ele>145.2</ele>
        <time>2020-06-28T14:14:27Z</time>
      </trkpt>
      <trkpt lat="48.59126" lon="7.72304">
        <ele>145.2</ele>
        <time>2020-06-28T14:14:28Z</time>
      </trkpt>
      <trkpt lat="48.59126" lon="7.72299">
        <ele>145.2</ele>
        <time>2020-06-28T14:14:29Z</time>
      </trkpt>
      <trkpt lat="48.59126" lon="7.72295">
        <ele>145.2</ele>
        <time>2020-06-28T14:14:30Z</time>
      </trkpt>
      <trkpt lat="48.59128" lon="7.72291">
        <ele>145.1</ele>
        <time>2020-06-28T14:14:31Z</time>
      </trkpt>
      <trkpt lat="48.59128" lon="7.72285">
        <ele>145.1</ele>
        <time>2020-06-28T14:14:32Z</time>
      </trkpt>
      <trkpt lat="48.59128" lon="7.7228">
        <ele>145.1</ele>
        <time>2020-06-28T14:14:33Z</time>
      </trkpt>
      <trkpt lat="48.59129" lon="7.72275">
        <ele>145.1</ele>
        <time>2020-06-28T14:14:34Z</time>
      </trkpt>
      <trkpt lat="48.59129" lon="7.72269">
        <ele>145.1</ele>
        <time>2020-06-28T14:14:35Z</time>
      </trkpt>
      <trkpt lat="48.59131" lon="7.72261">
        <ele>145.1</ele>
        <time>2020-06-28T14:14:36Z</time>
      </trkpt>
      <trkpt lat="48.59133" lon="7.72255">
        <ele>145.1</ele>
        <time>2020-06-28T14:14:37Z</time>
      </trkpt>
      <trkpt lat="48.59132" lon="7.72246">
        <ele>145.1</ele>
        <time>2020-06-28T14:14:38Z</time>
      </trkpt>
      <trkpt lat="48.59134" lon="7.7224">
        <ele>145</ele>
        <time>2020-06-28T14:14:39Z</time>
      </trkpt>
      <trkpt lat="48.59136" lon="7.72232">
        <ele>145</ele>
        <time>2020-06-28T14:14:40Z</time>
      </trkpt>
      <trkpt lat="48.59136" lon="7.72225">
        <ele>145</ele>
        <time>2020-06-28T14:14:41Z</time>
      </trkpt>
      <trkpt lat="48.59137" lon="7.72219">
        <ele>145</ele>
        <time>2020-06-28T14:14:42Z</time>
      </trkpt>
      <trkpt lat="48.59137" lon="7.72213">
        <ele>145</ele>
        <time>2020-06-28T14:14:43Z</time>
      </trkpt>
      <trkpt lat="48.59138" lon="7.72209">
        <ele>144.9</ele>
        <time>2020-06-28T14:14:44Z</time>
      </trkpt>
      <trkpt lat="48.5914" lon="7.72203">
        <ele>144.9</ele>
        <time>2020-06-28T14:14:45Z</time>
      </trkpt>
      <trkpt lat="48.5914" lon="7.72198">
        <ele>144.9</ele>
        <time>2020-06-28T14:14:46Z</time>
      </trkpt>
      <trkpt lat="48.59141" lon="7.72194">
        <ele>144.9</ele>
        <time>2020-06-28T14:14:47Z</time>
      </trkpt>
      <trkpt lat="48.59141" lon="7.72187">
        <ele>144.9</ele>
        <time>2020-06-28T14:14:48Z</time>
      </trkpt>
      <trkpt lat="48.59142" lon="7.7218">
        <ele>144.9</ele>
        <time>2020-06-28T14:14:49Z</time>
      </trkpt>
      <trkpt lat="48.59143" lon="7.72172">
        <ele>144.9</ele>
        <time>2020-06-28T14:14:50Z</time>
      </trkpt>
      <trkpt lat="48.59144" lon="7.72165">
        <ele>144.9</ele>
        <time>2020-06-28T14:14:51Z</time>
      </trkpt>
      <trkpt lat="48.59146" lon="7.72157">
        <ele>144.9</ele>
        <time>2020-06-28T14:14:52Z</time>
      </trkpt>
      <trkpt lat="48.59149" lon="7.7215">
        <ele>144.9</ele>
        <time>2020-06-28T14:14:53Z</time>
      </trkpt>
      <trkpt lat="48.59152" lon="7.72141">
        <ele>144.9</ele>
        <time>2020-06-28T14:14:54Z</time>
      </trkpt>
      <trkpt lat="48.59153" lon="7.72135">
        <ele>144.9</ele>
        <time>2020-06-28T14:14:55Z</time>
      </trkpt>
      <trkpt lat="48.59153" lon="7.72129">
        <ele>144.9</ele>
        <time>2020-06-28T14:14:56Z</time>
      </trkpt>
      <trkpt lat="48.59153" lon="7.72126">
        <ele>144.9</ele>
        <time>2020-06-28T14:14:57Z</time>
      </trkpt>
      <trkpt lat="48.59154" lon="7.72122">
        <ele>144.9</ele>
        <time>2020-06-28T14:14:58Z</time>
      </trkpt>
      <trkpt lat="48.59154" lon="7.72116">
        <ele>144.9</ele>
        <time>2020-06-28T14:14:59Z</time>
      </trkpt>
      <trkpt lat="48.59155" lon="7.72109">
        <ele>145</ele>
        <time>2020-06-28T14:15:00Z</time>
      </trkpt>
      <trkpt lat="48.59155" lon="7.72104">
        <ele>145</ele>
        <time>2020-06-28T14:15:01Z</time>
      </trkpt>
      <trkpt lat="48.59154" lon="7.72097">
        <ele>145</ele>
        <time>2020-06-28T14:15:02Z</time>
      </trkpt>
      <trkpt lat="48.59152" lon="7.72091">
        <ele>145.1</ele>
        <time>2020-06-28T14:15:03Z</time>
      </trkpt>
      <trkpt lat="48.59151" lon="7.72086">
        <ele>145</ele>
        <time>2020-06-28T14:15:04Z</time>
      </trkpt>
      <trkpt lat="48.5915" lon="7.72079">
        <ele>144.9</ele>
        <time>2020-06-28T14:15:05Z</time>
      </trkpt>
      <trkpt lat="48.59148" lon="7.72073">
        <ele>144.8</ele>
        <time>2020-06-28T14:15:06Z</time>
      </trkpt>
      <trkpt lat="48.59147" lon="7.72068">
        <ele>144.7</ele>
        <time>2020-06-28T14:15:07Z</time>
      </trkpt>
      <trkpt lat="48.59146" lon="7.72063">
        <ele>144.7</ele>
        <time>2020-06-28T14:15:08Z</time>
      </trkpt>
      <trkpt lat="48.59144" lon="7.72057">
        <ele>144.6</ele>
        <time>2020-06-28T14:15:09Z</time>
      </trkpt>
      <trkpt lat="48.59143" lon="7.72054">
        <ele>144.6</ele>
        <time>2020-06-28T14:15:10Z</time>
      </trkpt>
      <trkpt lat="48.59142" lon="7.72047">
        <ele>144.6</ele>
        <time>2020-06-28T14:15:11Z</time>
      </trkpt>
      <trkpt lat="48.59141" lon="7.72042">
        <ele>144.6</ele>
        <time>2020-06-28T14:15:12Z</time>
      </trkpt>
      <trkpt lat="48.59141" lon="7.72036">
        <ele>144.6</ele>
        <time>2020-06-28T14:15:13Z</time>
      </trkpt>
      <trkpt lat="48.59141" lon="7.7203">
        <ele>144.6</ele>
        <time>2020-06-28T14:15:14Z</time>
      </trkpt>
      <trkpt lat="48.5914" lon="7.72025">
        <ele>144.6</ele>
        <time>2020-06-28T14:15:15Z</time>
      </trkpt>
      <trkpt lat="48.59139" lon="7.7202">
        <ele>144.6</ele>
        <time>2020-06-28T14:15:16Z</time>
      </trkpt>
      <trkpt lat="48.59138" lon="7.72019">
        <ele>144.6</ele>
        <time>2020-06-28T14:15:17Z</time>
      </trkpt>
      <trkpt lat="48.59135" lon="7.72013">
        <ele>144.6</ele>
        <time>2020-06-28T14:15:18Z</time>
      </trkpt>
      <trkpt lat="48.59134" lon="7.72008">
        <ele>144.6</ele>
        <time>2020-06-28T14:15:19Z</time>
      </trkpt>
      <trkpt lat="48.59133" lon="7.72006">
        <ele>144.6</ele>
        <time>2020-06-28T14:15:20Z</time>
      </trkpt>
      <trkpt lat="48.59133" lon="7.72">
        <ele>144.6</ele>
        <time>2020-06-28T14:15:21Z</time>
      </trkpt>
      <trkpt lat="48.59133" lon="7.71998">
        <ele>144.7</ele>
        <time>2020-06-28T14:15:22Z</time>
      </trkpt>
      <trkpt lat="48.59133" lon="7.71993">
        <ele>144.7</ele>
        <time>2020-06-28T14:15:23Z</time>
      </trkpt>
      <trkpt lat="48.59134" lon="7.71989">
        <ele>144.7</ele>
        <time>2020-06-28T14:15:24Z</time>
      </trkpt>
      <trkpt lat="48.59135" lon="7.71988">
        <ele>144.8</ele>
        <time>2020-06-28T14:15:25Z</time>
      </trkpt>
      <trkpt lat="48.59138" lon="7.71985">
        <ele>144.8</ele>
        <time>2020-06-28T14:15:26Z</time>
      </trkpt>
      <trkpt lat="48.59139" lon="7.71984">
        <ele>144.7</ele>
        <time>2020-06-28T14:15:27Z</time>
      </trkpt>
      <trkpt lat="48.59142" lon="7.71983">
        <ele>144.7</ele>
        <time>2020-06-28T14:15:28Z</time>
      </trkpt>
      <trkpt lat="48.59145" lon="7.71983">
        <ele>144.7</ele>
        <time>2020-06-28T14:15:29Z</time>
      </trkpt>
      <trkpt lat="48.59149" lon="7.71982">
        <ele>144.7</ele>
        <time>2020-06-28T14:15:30Z</time>
      </trkpt>
      <trkpt lat="48.5915" lon="7.71983">
        <ele>144.7</ele>
        <time>2020-06-28T14:15:31Z</time>
      </trkpt>
      <trkpt lat="48.59151" lon="7.71987">
        <ele>144.7</ele>
        <time>2020-06-28T14:15:32Z</time>
      </trkpt>
      <trkpt lat="48.59153" lon="7.71992">
        <ele>144.7</ele>
        <time>2020-06-28T14:15:33Z</time>
      </trkpt>
      <trkpt lat="48.59153" lon="7.71994">
        <ele>144.7</ele>
        <time>2020-06-28T14:15:34Z</time>
      </trkpt>
      <trkpt lat="48.59156" lon="7.71998">
        <ele>144.7</ele>
        <time>2020-06-28T14:15:35Z</time>
      </trkpt>
      <trkpt lat="48.59157" lon="7.72002">
        <ele>144.8</ele>
        <time>2020-06-28T14:15:36Z</time>
      </trkpt>
      <trkpt lat="48.59158" lon="7.72007">
        <ele>144.8</ele>
        <time>2020-06-28T14:15:37Z</time>
      </trkpt>
      <trkpt lat="48.5916" lon="7.72011">
        <ele>144.8</ele>
        <time>2020-06-28T14:15:38Z</time>
      </trkpt>
      <trkpt lat="48.59161" lon="7.72016">
        <ele>144.8</ele>
        <time>2020-06-28T14:15:39Z</time>
      </trkpt>
      <trkpt lat="48.59162" lon="7.72021">
        <ele>144.9</ele>
        <time>2020-06-28T14:15:40Z</time>
      </trkpt>
      <trkpt lat="48.59164" lon="7.72026">
        <ele>144.9</ele>
        <time>2020-06-28T14:15:41Z</time>
      </trkpt>
      <trkpt lat="48.59164" lon="7.72028">
        <ele>145</ele>
        <time>2020-06-28T14:15:42Z</time>
      </trkpt>
      <trkpt lat="48.59166" lon="7.72032">
        <ele>145</ele>
        <time>2020-06-28T14:15:43Z</time>
      </trkpt>
      <trkpt lat="48.59166" lon="7.72034">
        <ele>145</ele>
        <time>2020-06-28T14:15:44Z</time>
      </trkpt>
      <trkpt lat="48.59168" lon="7.72041">
        <ele>145.1</ele>
        <time>2020-06-28T14:15:45Z</time>
      </trkpt>
      <trkpt lat="48.59169" lon="7.72044">
        <ele>145.1</ele>
        <time>2020-06-28T14:15:46Z</time>
      </trkpt>
      <trkpt lat="48.5917" lon="7.7205">
        <ele>145.3</ele>
        <time>2020-06-28T14:15:47Z</time>
      </trkpt>
      <trkpt lat="48.59171" lon="7.72055">
        <ele>145.3</ele>
        <time>2020-06-28T14:15:48Z</time>
      </trkpt>
      <trkpt lat="48.59173" lon="7.72059">
        <ele>145.3</ele>
        <time>2020-06-28T14:15:49Z</time>
      </trkpt>
      <trkpt lat="48.59175" lon="7.7206">
        <ele>145.3</ele>
        <time>2020-06-28T14:15:50Z</time>
      </trkpt>
      <trkpt lat="48.59176" lon="7.72058">
        <ele>145.3</ele>
        <time>2020-06-28T14:15:51Z</time>
      </trkpt>
      <trkpt lat="48.59176" lon="7.72056">
        <ele>145.3</ele>
        <time>2020-06-28T14:15:52Z</time>
      </trkpt>
      <trkpt lat="48.59178" lon="7.72053">
        <ele>145.3</ele>
        <time>2020-06-28T14:15:53Z</time>
      </trkpt>
      <trkpt lat="48.59179" lon="7.72051">
        <ele>145.3</ele>
        <time>2020-06-28T14:15:54Z</time>
      </trkpt>
      <trkpt lat="48.59181" lon="7.72046">
        <ele>145.3</ele>
        <time>2020-06-28T14:15:55Z</time>
      </trkpt>
      <trkpt lat="48.59182" lon="7.72041">
        <ele>145.2</ele>
        <time>2020-06-28T14:15:56Z</time>
      </trkpt>
      <trkpt lat="48.59183" lon="7.72035">
        <ele>145.2</ele>
        <time>2020-06-28T14:15:57Z</time>
      </trkpt>
      <trkpt lat="48.59184" lon="7.72031">
        <ele>145.2</ele>
        <time>2020-06-28T14:15:58Z</time>
      </trkpt>
      <trkpt lat="48.59185" lon="7.72024">
        <ele>145.2</ele>
        <time>2020-06-28T14:15:59Z</time>
      </trkpt>
      <trkpt lat="48.59187" lon="7.72018">
        <ele>145.2</ele>
        <time>2020-06-28T14:16:00Z</time>
      </trkpt>
      <trkpt lat="48.59188" lon="7.72011">
        <ele>145.2</ele>
        <time>2020-06-28T14:16:01Z</time>
      </trkpt>
      <trkpt lat="48.59189" lon="7.72005">
        <ele>145.3</ele>
        <time>2020-06-28T14:16:02Z</time>
      </trkpt>
      <trkpt lat="48.5919" lon="7.72">
        <ele>145.3</ele>
        <time>2020-06-28T14:16:03Z</time>
      </trkpt>
      <trkpt lat="48.59191" lon="7.71993">
        <ele>145.3</ele>
        <time>2020-06-28T14:16:04Z</time>
      </trkpt>
      <trkpt lat="48.59193" lon="7.71986">
        <ele>145.3</ele>
        <time>2020-06-28T14:16:05Z</time>
      </trkpt>
      <trkpt lat="48.59193" lon="7.7198">
        <ele>145.4</ele>
        <time>2020-06-28T14:16:06Z</time>
      </trkpt>
      <trkpt lat="48.59195" lon="7.71974">
        <ele>145.4</ele>
        <time>2020-06-28T14:16:07Z</time>
      </trkpt>
      <trkpt lat="48.59197" lon="7.7197">
        <ele>145.4</ele>
        <time>2020-06-28T14:16:08Z</time>
      </trkpt>
      <trkpt lat="48.59199" lon="7.71963">
        <ele>145.4</ele>
        <time>2020-06-28T14:16:09Z</time>
      </trkpt>
      <trkpt lat="48.59201" lon="7.71956">
        <ele>145.4</ele>
        <time>2020-06-28T14:16:10Z</time>
      </trkpt>
      <trkpt lat="48.59203" lon="7.7195">
        <ele>145.5</ele>
        <time>2020-06-28T14:16:11Z</time>
      </trkpt>
      <trkpt lat="48.59204" lon="7.71944">
        <ele>145.5</ele>
        <time>2020-06-28T14:16:12Z</time>
      </trkpt>
      <trkpt lat="48.59204" lon="7.71938">
        <ele>145.5</ele>
        <time>2020-06-28T14:16:13Z</time>
      </trkpt>
      <trkpt lat="48.59205" lon="7.71932">
        <ele>145.6</ele>
        <time>2020-06-28T14:16:14Z</time>
      </trkpt>
      <trkpt lat="48.59205" lon="7.71927">
        <ele>145.6</ele>
        <time>2020-06-28T14:16:15Z</time>
      </trkpt>
      <trkpt lat="48.59206" lon="7.7192">
        <ele>145.6</ele>
        <time>2020-06-28T14:16:16Z</time>
      </trkpt>
      <trkpt lat="48.59207" lon="7.71913">
        <ele>145.7</ele>
        <time>2020-06-28T14:16:17Z</time>
      </trkpt>
      <trkpt lat="48.59207" lon="7.71906">
        <ele>145.7</ele>
        <time>2020-06-28T14:16:18Z</time>
      </trkpt>
      <trkpt lat="48.59209" lon="7.71899">
        <ele>145.7</ele>
        <time>2020-06-28T14:16:19Z</time>
      </trkpt>
      <trkpt lat="48.59211" lon="7.71893">
        <ele>145.7</ele>
        <time>2020-06-28T14:16:20Z</time>
      </trkpt>
      <trkpt lat="48.59212" lon="7.71886">
        <ele>145.8</ele>
        <time>2020-06-28T14:16:21Z</time>
      </trkpt>
      <trkpt lat="48.59213" lon="7.7188">
        <ele>145.8</ele>
        <time>2020-06-28T14:16:22Z</time>
      </trkpt>
      <trkpt lat="48.59215" lon="7.71875">
        <ele>145.8</ele>
        <time>2020-06-28T14:16:23Z</time>
      </trkpt>
      <trkpt lat="48.59216" lon="7.71867">
        <ele>145.8</ele>
        <time>2020-06-28T14:16:24Z</time>
      </trkpt>
      <trkpt lat="48.59218" lon="7.71861">
        <ele>145.8</ele>
        <time>2020-06-28T14:16:25Z</time>
      </trkpt>
      <trkpt lat="48.59219" lon="7.71854">
        <ele>145.8</ele>
        <time>2020-06-28T14:16:26Z</time>
      </trkpt>
      <trkpt lat="48.5922" lon="7.71848">
        <ele>145.8</ele>
        <time>2020-06-28T14:16:27Z</time>
      </trkpt>
      <trkpt lat="48.59222" lon="7.71841">
        <ele>145.8</ele>
        <time>2020-06-28T14:16:28Z</time>
      </trkpt>
      <trkpt lat="48.59223" lon="7.71834">
        <ele>145.8</ele>
        <time>2020-06-28T14:16:29Z</time>
      </trkpt>
      <trkpt lat="48.59224" lon="7.71827">
        <ele>145.8</ele>
        <time>2020-06-28T14:16:30Z</time>
      </trkpt>
      <trkpt lat="48.59222" lon="7.71818">
        <ele>145.8</ele>
        <time>2020-06-28T14:16:31Z</time>
      </trkpt>
      <trkpt lat="48.59224" lon="7.71813">
        <ele>145.8</ele>
        <time>2020-06-28T14:16:32Z</time>
      </trkpt>
      <trkpt lat="48.59225" lon="7.71807">
        <ele>145.8</ele>
        <time>2020-06-28T14:16:33Z</time>
      </trkpt>
      <trkpt lat="48.59227" lon="7.71799">
        <ele>145.8</ele>
        <time>2020-06-28T14:16:34Z</time>
      </trkpt>
      <trkpt lat="48.59229" lon="7.71793">
        <ele>145.8</ele>
        <time>2020-06-28T14:16:35Z</time>
      </trkpt>
      <trkpt lat="48.59231" lon="7.71787">
        <ele>145.8</ele>
        <time>2020-06-28T14:16:36Z</time>
      </trkpt>
      <trkpt lat="48.59232" lon="7.7178">
        <ele>145.8</ele>
        <time>2020-06-28T14:16:37Z</time>
      </trkpt>
      <trkpt lat="48.59234" lon="7.71774">
        <ele>145.8</ele>
        <time>2020-06-28T14:16:38Z</time>
      </trkpt>
      <trkpt lat="48.59235" lon="7.71765">
        <ele>145.7</ele>
        <time>2020-06-28T14:16:39Z</time>
      </trkpt>
      <trkpt lat="48.59238" lon="7.71757">
        <ele>145.7</ele>
        <time>2020-06-28T14:16:40Z</time>
      </trkpt>
      <trkpt lat="48.59239" lon="7.71749">
        <ele>145.7</ele>
        <time>2020-06-28T14:16:41Z</time>
      </trkpt>
      <trkpt lat="48.59241" lon="7.71741">
        <ele>145.7</ele>
        <time>2020-06-28T14:16:42Z</time>
      </trkpt>
      <trkpt lat="48.59242" lon="7.71734">
        <ele>145.6</ele>
        <time>2020-06-28T14:16:43Z</time>
      </trkpt>
      <trkpt lat="48.59244" lon="7.71727">
        <ele>145.6</ele>
        <time>2020-06-28T14:16:44Z</time>
      </trkpt>
      <trkpt lat="48.59246" lon="7.7172">
        <ele>145.6</ele>
        <time>2020-06-28T14:16:45Z</time>
      </trkpt>
      <trkpt lat="48.59248" lon="7.71713">
        <ele>145.6</ele>
        <time>2020-06-28T14:16:46Z</time>
      </trkpt>
      <trkpt lat="48.5925" lon="7.71705">
        <ele>145.5</ele>
        <time>2020-06-28T14:16:47Z</time>
      </trkpt>
      <trkpt lat="48.59252" lon="7.71698">
        <ele>145.5</ele>
        <time>2020-06-28T14:16:48Z</time>
      </trkpt>
      <trkpt lat="48.59253" lon="7.71689">
        <ele>145.4</ele>
        <time>2020-06-28T14:16:49Z</time>
      </trkpt>
      <trkpt lat="48.59254" lon="7.7168">
        <ele>145.4</ele>
        <time>2020-06-28T14:16:50Z</time>
      </trkpt>
      <trkpt lat="48.59255" lon="7.71673">
        <ele>145.4</ele>
        <time>2020-06-28T14:16:51Z</time>
      </trkpt>
      <trkpt lat="48.59255" lon="7.71667">
        <ele>145.4</ele>
        <time>2020-06-28T14:16:52Z</time>
      </trkpt>
      <trkpt lat="48.59255" lon="7.71663">
        <ele>145.3</ele>
        <time>2020-06-28T14:16:53Z</time>
      </trkpt>
      <trkpt lat="48.59256" lon="7.71657">
        <ele>145.3</ele>
        <time>2020-06-28T14:16:54Z</time>
      </trkpt>
      <trkpt lat="48.59255" lon="7.71655">
        <ele>145.3</ele>
        <time>2020-06-28T14:16:55Z</time>
      </trkpt>
      <trkpt lat="48.59256" lon="7.71649">
        <ele>145.3</ele>
        <time>2020-06-28T14:16:56Z</time>
      </trkpt>
      <trkpt lat="48.59257" lon="7.71643">
        <ele>145.3</ele>
        <time>2020-06-28T14:16:57Z</time>
      </trkpt>
      <trkpt lat="48.59259" lon="7.71637">
        <ele>145.2</ele>
        <time>2020-06-28T14:16:58Z</time>
      </trkpt>
      <trkpt lat="48.59261" lon="7.7163">
        <ele>145.2</ele>
        <time>2020-06-28T14:16:59Z</time>
      </trkpt>
      <trkpt lat="48.59263" lon="7.71622">
        <ele>145.1</ele>
        <time>2020-06-28T14:17:00Z</time>
      </trkpt>
      <trkpt lat="48.59265" lon="7.71615">
        <ele>145.1</ele>
        <time>2020-06-28T14:17:01Z</time>
      </trkpt>
      <trkpt lat="48.59267" lon="7.71608">
        <ele>145</ele>
        <time>2020-06-28T14:17:02Z</time>
      </trkpt>
      <trkpt lat="48.59269" lon="7.71601">
        <ele>145</ele>
        <time>2020-06-28T14:17:03Z</time>
      </trkpt>
      <trkpt lat="48.59271" lon="7.71593">
        <ele>144.9</ele>
        <time>2020-06-28T14:17:04Z</time>
      </trkpt>
      <trkpt lat="48.59273" lon="7.71586">
        <ele>144.9</ele>
        <time>2020-06-28T14:17:05Z</time>
      </trkpt>
      <trkpt lat="48.59275" lon="7.71579">
        <ele>144.9</ele>
        <time>2020-06-28T14:17:06Z</time>
      </trkpt>
      <trkpt lat="48.59276" lon="7.71571">
        <ele>144.9</ele>
        <time>2020-06-28T14:17:07Z</time>
      </trkpt>
      <trkpt lat="48.59278" lon="7.71564">
        <ele>144.9</ele>
        <time>2020-06-28T14:17:08Z</time>
      </trkpt>
      <trkpt lat="48.59279" lon="7.71556">
        <ele>144.8</ele>
        <time>2020-06-28T14:17:09Z</time>
      </trkpt>
      <trkpt lat="48.5928" lon="7.71548">
        <ele>144.8</ele>
        <time>2020-06-28T14:17:10Z</time>
      </trkpt>
      <trkpt lat="48.59281" lon="7.7154">
        <ele>144.7</ele>
        <time>2020-06-28T14:17:11Z</time>
      </trkpt>
      <trkpt lat="48.59283" lon="7.71532">
        <ele>144.7</ele>
        <time>2020-06-28T14:17:12Z</time>
      </trkpt>
      <trkpt lat="48.59286" lon="7.71525">
        <ele>144.7</ele>
        <time>2020-06-28T14:17:13Z</time>
      </trkpt>
      <trkpt lat="48.59288" lon="7.71517">
        <ele>144.7</ele>
        <time>2020-06-28T14:17:14Z</time>
      </trkpt>
      <trkpt lat="48.5929" lon="7.71511">
        <ele>144.6</ele>
        <time>2020-06-28T14:17:15Z</time>
      </trkpt>
      <trkpt lat="48.5929" lon="7.71503">
        <ele>144.6</ele>
        <time>2020-06-28T14:17:16Z</time>
      </trkpt>
      <trkpt lat="48.59294" lon="7.71496">
        <ele>144.6</ele>
        <time>2020-06-28T14:17:17Z</time>
      </trkpt>
      <trkpt lat="48.59296" lon="7.7149">
        <ele>144.5</ele>
        <time>2020-06-28T14:17:18Z</time>
      </trkpt>
      <trkpt lat="48.59299" lon="7.71484">
        <ele>144.5</ele>
        <time>2020-06-28T14:17:19Z</time>
      </trkpt>
      <trkpt lat="48.59299" lon="7.71476">
        <ele>144.5</ele>
        <time>2020-06-28T14:17:20Z</time>
      </trkpt>
      <trkpt lat="48.59302" lon="7.71469">
        <ele>144.5</ele>
        <time>2020-06-28T14:17:21Z</time>
      </trkpt>
      <trkpt lat="48.59304" lon="7.71462">
        <ele>144.5</ele>
        <time>2020-06-28T14:17:22Z</time>
      </trkpt>
      <trkpt lat="48.59304" lon="7.71455">
        <ele>144.5</ele>
        <time>2020-06-28T14:17:23Z</time>
      </trkpt>
      <trkpt lat="48.59308" lon="7.7145">
        <ele>144.5</ele>
        <time>2020-06-28T14:17:24Z</time>
      </trkpt>
      <trkpt lat="48.59309" lon="7.71447">
        <ele>144.5</ele>
        <time>2020-06-28T14:17:25Z</time>
      </trkpt>
      <trkpt lat="48.59312" lon="7.71442">
        <ele>144.4</ele>
        <time>2020-06-28T14:17:26Z</time>
      </trkpt>
      <trkpt lat="48.59313" lon="7.71436">
        <ele>144.4</ele>
        <time>2020-06-28T14:17:27Z</time>
      </trkpt>
      <trkpt lat="48.59315" lon="7.71431">
        <ele>144.4</ele>
        <time>2020-06-28T14:17:28Z</time>
      </trkpt>
      <trkpt lat="48.59317" lon="7.71425">
        <ele>144.4</ele>
        <time>2020-06-28T14:17:29Z</time>
      </trkpt>
      <trkpt lat="48.5932" lon="7.71419">
        <ele>144.4</ele>
        <time>2020-06-28T14:17:30Z</time>
      </trkpt>
      <trkpt lat="48.59322" lon="7.71411">
        <ele>144.3</ele>
        <time>2020-06-28T14:17:31Z</time>
      </trkpt>
      <trkpt lat="48.59324" lon="7.71404">
        <ele>144.3</ele>
        <time>2020-06-28T14:17:32Z</time>
      </trkpt>
      <trkpt lat="48.59326" lon="7.71398">
        <ele>144.2</ele>
        <time>2020-06-28T14:17:33Z</time>
      </trkpt>
      <trkpt lat="48.59328" lon="7.7139">
        <ele>144.2</ele>
        <time>2020-06-28T14:17:34Z</time>
      </trkpt>
      <trkpt lat="48.5933" lon="7.71384">
        <ele>144.2</ele>
        <time>2020-06-28T14:17:35Z</time>
      </trkpt>
      <trkpt lat="48.59331" lon="7.71379">
        <ele>144.1</ele>
        <time>2020-06-28T14:17:36Z</time>
      </trkpt>
      <trkpt lat="48.59333" lon="7.71372">
        <ele>144.1</ele>
        <time>2020-06-28T14:17:37Z</time>
      </trkpt>
      <trkpt lat="48.59333" lon="7.71365">
        <ele>144</ele>
        <time>2020-06-28T14:17:38Z</time>
      </trkpt>
      <trkpt lat="48.59335" lon="7.7136">
        <ele>144</ele>
        <time>2020-06-28T14:17:39Z</time>
      </trkpt>
      <trkpt lat="48.59336" lon="7.71354">
        <ele>143.9</ele>
        <time>2020-06-28T14:17:40Z</time>
      </trkpt>
      <trkpt lat="48.59338" lon="7.71348">
        <ele>143.9</ele>
        <time>2020-06-28T14:17:41Z</time>
      </trkpt>
      <trkpt lat="48.5934" lon="7.71342">
        <ele>143.8</ele>
        <time>2020-06-28T14:17:42Z</time>
      </trkpt>
      <trkpt lat="48.59343" lon="7.71336">
        <ele>143.8</ele>
        <time>2020-06-28T14:17:43Z</time>
      </trkpt>
      <trkpt lat="48.59344" lon="7.71329">
        <ele>143.7</ele>
        <time>2020-06-28T14:17:44Z</time>
      </trkpt>
      <trkpt lat="48.59347" lon="7.71322">
        <ele>143.7</ele>
        <time>2020-06-28T14:17:45Z</time>
      </trkpt>
      <trkpt lat="48.59349" lon="7.71317">
        <ele>143.7</ele>
        <time>2020-06-28T14:17:46Z</time>
      </trkpt>
      <trkpt lat="48.59353" lon="7.71311">
        <ele>143.6</ele>
        <time>2020-06-28T14:17:47Z</time>
      </trkpt>
      <trkpt lat="48.59355" lon="7.71304">
        <ele>143.6</ele>
        <time>2020-06-28T14:17:48Z</time>
      </trkpt>
      <trkpt lat="48.59359" lon="7.71297">
        <ele>143.5</ele>
        <time>2020-06-28T14:17:49Z</time>
      </trkpt>
      <trkpt lat="48.59363" lon="7.7129">
        <ele>143.5</ele>
        <time>2020-06-28T14:17:50Z</time>
      </trkpt>
      <trkpt lat="48.59367" lon="7.71286">
        <ele>143.5</ele>
        <time>2020-06-28T14:17:51Z</time>
      </trkpt>
      <trkpt lat="48.5937" lon="7.71281">
        <ele>143.5</ele>
        <time>2020-06-28T14:17:52Z</time>
      </trkpt>
      <trkpt lat="48.59371" lon="7.71279">
        <ele>143.5</ele>
        <time>2020-06-28T14:17:53Z</time>
      </trkpt>
      <trkpt lat="48.59375" lon="7.71271">
        <ele>143.5</ele>
        <time>2020-06-28T14:17:54Z</time>
      </trkpt>
      <trkpt lat="48.59378" lon="7.71263">
        <ele>143.5</ele>
        <time>2020-06-28T14:17:55Z</time>
      </trkpt>
      <trkpt lat="48.59382" lon="7.71255">
        <ele>143.5</ele>
        <time>2020-06-28T14:17:56Z</time>
      </trkpt>
      <trkpt lat="48.59385" lon="7.71245">
        <ele>143.5</ele>
        <time>2020-06-28T14:17:57Z</time>
      </trkpt>
      <trkpt lat="48.59389" lon="7.71238">
        <ele>143.5</ele>
        <time>2020-06-28T14:17:58Z</time>
      </trkpt>
      <trkpt lat="48.59392" lon="7.71232">
        <ele>143.5</ele>
        <time>2020-06-28T14:17:59Z</time>
      </trkpt>
      <trkpt lat="48.59396" lon="7.71226">
        <ele>143.5</ele>
        <time>2020-06-28T14:18:00Z</time>
      </trkpt>
      <trkpt lat="48.59401" lon="7.71219">
        <ele>143.5</ele>
        <time>2020-06-28T14:18:01Z</time>
      </trkpt>
      <trkpt lat="48.59404" lon="7.71216">
        <ele>143.5</ele>
        <time>2020-06-28T14:18:02Z</time>
      </trkpt>
      <trkpt lat="48.59406" lon="7.7121">
        <ele>143.5</ele>
        <time>2020-06-28T14:18:03Z</time>
      </trkpt>
      <trkpt lat="48.59411" lon="7.71206">
        <ele>143.2</ele>
        <time>2020-06-28T14:18:04Z</time>
      </trkpt>
      <trkpt lat="48.59416" lon="7.71201">
        <ele>143.2</ele>
        <time>2020-06-28T14:18:05Z</time>
      </trkpt>
      <trkpt lat="48.59419" lon="7.71195">
        <ele>143.2</ele>
        <time>2020-06-28T14:18:06Z</time>
      </trkpt>
      <trkpt lat="48.59422" lon="7.71189">
        <ele>143.2</ele>
        <time>2020-06-28T14:18:07Z</time>
      </trkpt>
      <trkpt lat="48.59426" lon="7.71182">
        <ele>143.2</ele>
        <time>2020-06-28T14:18:08Z</time>
      </trkpt>
      <trkpt lat="48.59429" lon="7.71176">
        <ele>143.2</ele>
        <time>2020-06-28T14:18:09Z</time>
      </trkpt>
      <trkpt lat="48.59433" lon="7.7117">
        <ele>143.2</ele>
        <time>2020-06-28T14:18:10Z</time>
      </trkpt>
      <trkpt lat="48.59436" lon="7.71164">
        <ele>143.1</ele>
        <time>2020-06-28T14:18:11Z</time>
      </trkpt>
      <trkpt lat="48.59438" lon="7.71157">
        <ele>143.1</ele>
        <time>2020-06-28T14:18:12Z</time>
      </trkpt>
      <trkpt lat="48.59441" lon="7.71151">
        <ele>143.1</ele>
        <time>2020-06-28T14:18:13Z</time>
      </trkpt>
      <trkpt lat="48.59444" lon="7.71144">
        <ele>143.1</ele>
        <time>2020-06-28T14:18:14Z</time>
      </trkpt>
      <trkpt lat="48.59448" lon="7.71139">
        <ele>143.1</ele>
        <time>2020-06-28T14:18:15Z</time>
      </trkpt>
      <trkpt lat="48.59451" lon="7.71133">
        <ele>143.1</ele>
        <time>2020-06-28T14:18:16Z</time>
      </trkpt>
      <trkpt lat="48.59455" lon="7.71129">
        <ele>143.1</ele>
        <time>2020-06-28T14:18:17Z</time>
      </trkpt>
      <trkpt lat="48.59459" lon="7.71124">
        <ele>143.1</ele>
        <time>2020-06-28T14:18:18Z</time>
      </trkpt>
      <trkpt lat="48.59462" lon="7.71118">
        <ele>143.1</ele>
        <time>2020-06-28T14:18:19Z</time>
      </trkpt>
      <trkpt lat="48.59466" lon="7.71112">
        <ele>143.1</ele>
        <time>2020-06-28T14:18:20Z</time>
      </trkpt>
      <trkpt lat="48.59468" lon="7.71107">
        <ele>143.2</ele>
        <time>2020-06-28T14:18:21Z</time>
      </trkpt>
      <trkpt lat="48.59471" lon="7.71102">
        <ele>143.2</ele>
        <time>2020-06-28T14:18:22Z</time>
      </trkpt>
      <trkpt lat="48.59474" lon="7.71097">
        <ele>143.2</ele>
        <time>2020-06-28T14:18:23Z</time>
      </trkpt>
      <trkpt lat="48.59477" lon="7.71091">
        <ele>143.2</ele>
        <time>2020-06-28T14:18:24Z</time>
      </trkpt>
      <trkpt lat="48.59479" lon="7.71086">
        <ele>143.2</ele>
        <time>2020-06-28T14:18:25Z</time>
      </trkpt>
      <trkpt lat="48.59482" lon="7.7108">
        <ele>143.2</ele>
        <time>2020-06-28T14:18:26Z</time>
      </trkpt>
      <trkpt lat="48.59485" lon="7.71073">
        <ele>143.3</ele>
        <time>2020-06-28T14:18:27Z</time>
      </trkpt>
      <trkpt lat="48.59488" lon="7.71068">
        <ele>143.3</ele>
        <time>2020-06-28T14:18:28Z</time>
      </trkpt>
      <trkpt lat="48.59491" lon="7.71061">
        <ele>143.4</ele>
        <time>2020-06-28T14:18:29Z</time>
      </trkpt>
      <trkpt lat="48.59493" lon="7.71055">
        <ele>143.4</ele>
        <time>2020-06-28T14:18:30Z</time>
      </trkpt>
      <trkpt lat="48.59496" lon="7.71052">
        <ele>143.5</ele>
        <time>2020-06-28T14:18:31Z</time>
      </trkpt>
      <trkpt lat="48.59498" lon="7.71047">
        <ele>143.5</ele>
        <time>2020-06-28T14:18:32Z</time>
      </trkpt>
      <trkpt lat="48.59499" lon="7.71039">
        <ele>143.5</ele>
        <time>2020-06-28T14:18:33Z</time>
      </trkpt>
      <trkpt lat="48.59501" lon="7.71035">
        <ele>143.6</ele>
        <time>2020-06-28T14:18:34Z</time>
      </trkpt>
      <trkpt lat="48.59503" lon="7.7103">
        <ele>143.6</ele>
        <time>2020-06-28T14:18:35Z</time>
      </trkpt>
      <trkpt lat="48.59505" lon="7.71027">
        <ele>143.7</ele>
        <time>2020-06-28T14:18:36Z</time>
      </trkpt>
      <trkpt lat="48.59506" lon="7.71025">
        <ele>143.7</ele>
        <time>2020-06-28T14:18:37Z</time>
      </trkpt>
      <trkpt lat="48.59508" lon="7.71024">
        <ele>143.7</ele>
        <time>2020-06-28T14:18:38Z</time>
      </trkpt>
      <trkpt lat="48.59509" lon="7.71022">
        <ele>143.7</ele>
        <time>2020-06-28T14:18:39Z</time>
      </trkpt>
      <trkpt lat="48.5951" lon="7.7102">
        <ele>143.7</ele>
        <time>2020-06-28T14:18:40Z</time>
      </trkpt>
      <trkpt lat="48.5951" lon="7.71014">
        <ele>143.7</ele>
        <time>2020-06-28T14:18:41Z</time>
      </trkpt>
      <trkpt lat="48.5951" lon="7.71012">
        <ele>143.7</ele>
        <time>2020-06-28T14:18:42Z</time>
      </trkpt>
      <trkpt lat="48.59511" lon="7.71006">
        <ele>143.6</ele>
        <time>2020-06-28T14:18:43Z</time>
      </trkpt>
      <trkpt lat="48.59513" lon="7.70999">
        <ele>143.6</ele>
        <time>2020-06-28T14:18:44Z</time>
      </trkpt>
      <trkpt lat="48.59516" lon="7.70993">
        <ele>143.6</ele>
        <time>2020-06-28T14:18:45Z</time>
      </trkpt>
      <trkpt lat="48.59519" lon="7.70987">
        <ele>143.5</ele>
        <time>2020-06-28T14:18:46Z</time>
      </trkpt>
      <trkpt lat="48.59522" lon="7.70981">
        <ele>143.5</ele>
        <time>2020-06-28T14:18:47Z</time>
      </trkpt>
      <trkpt lat="48.59524" lon="7.70975">
        <ele>143.5</ele>
        <time>2020-06-28T14:18:48Z</time>
      </trkpt>
      <trkpt lat="48.59527" lon="7.70969">
        <ele>143.5</ele>
        <time>2020-06-28T14:18:49Z</time>
      </trkpt>
      <trkpt lat="48.59529" lon="7.70963">
        <ele>143.6</ele>
        <time>2020-06-28T14:18:50Z</time>
      </trkpt>
      <trkpt lat="48.59531" lon="7.70958">
        <ele>143.6</ele>
        <time>2020-06-28T14:18:51Z</time>
      </trkpt>
      <trkpt lat="48.59534" lon="7.70954">
        <ele>143.6</ele>
        <time>2020-06-28T14:18:52Z</time>
      </trkpt>
      <trkpt lat="48.59536" lon="7.70948">
        <ele>143.6</ele>
        <time>2020-06-28T14:18:53Z</time>
      </trkpt>
      <trkpt lat="48.59539" lon="7.70942">
        <ele>143.6</ele>
        <time>2020-06-28T14:18:54Z</time>
      </trkpt>
      <trkpt lat="48.59542" lon="7.70938">
        <ele>143.6</ele>
        <time>2020-06-28T14:18:55Z</time>
      </trkpt>
      <trkpt lat="48.59545" lon="7.70933">
        <ele>143.6</ele>
        <time>2020-06-28T14:18:56Z</time>
      </trkpt>
      <trkpt lat="48.59548" lon="7.70928">
        <ele>143.7</ele>
        <time>2020-06-28T14:18:57Z</time>
      </trkpt>
      <trkpt lat="48.59552" lon="7.70922">
        <ele>143.7</ele>
        <time>2020-06-28T14:18:58Z</time>
      </trkpt>
      <trkpt lat="48.59555" lon="7.70916">
        <ele>143.7</ele>
        <time>2020-06-28T14:18:59Z</time>
      </trkpt>
      <trkpt lat="48.59558" lon="7.7091">
        <ele>143.7</ele>
        <time>2020-06-28T14:19:00Z</time>
      </trkpt>
      <trkpt lat="48.59561" lon="7.70903">
        <ele>143.8</ele>
        <time>2020-06-28T14:19:01Z</time>
      </trkpt>
      <trkpt lat="48.59564" lon="7.70897">
        <ele>143.8</ele>
        <time>2020-06-28T14:19:02Z</time>
      </trkpt>
      <trkpt lat="48.59567" lon="7.70891">
        <ele>143.9</ele>
        <time>2020-06-28T14:19:03Z</time>
      </trkpt>
      <trkpt lat="48.59569" lon="7.70884">
        <ele>143.9</ele>
        <time>2020-06-28T14:19:04Z</time>
      </trkpt>
      <trkpt lat="48.5957" lon="7.70878">
        <ele>144</ele>
        <time>2020-06-28T14:19:05Z</time>
      </trkpt>
      <trkpt lat="48.59573" lon="7.70872">
        <ele>144.1</ele>
        <time>2020-06-28T14:19:06Z</time>
      </trkpt>
      <trkpt lat="48.59577" lon="7.70866">
        <ele>144.1</ele>
        <time>2020-06-28T14:19:07Z</time>
      </trkpt>
      <trkpt lat="48.59579" lon="7.70859">
        <ele>144.1</ele>
        <time>2020-06-28T14:19:08Z</time>
      </trkpt>
      <trkpt lat="48.59581" lon="7.70853">
        <ele>144.1</ele>
        <time>2020-06-28T14:19:09Z</time>
      </trkpt>
      <trkpt lat="48.59583" lon="7.70847">
        <ele>144.1</ele>
        <time>2020-06-28T14:19:10Z</time>
      </trkpt>
      <trkpt lat="48.59587" lon="7.70841">
        <ele>144.1</ele>
        <time>2020-06-28T14:19:11Z</time>
      </trkpt>
      <trkpt lat="48.59589" lon="7.70836">
        <ele>144.1</ele>
        <time>2020-06-28T14:19:12Z</time>
      </trkpt>
      <trkpt lat="48.5959" lon="7.70831">
        <ele>144.1</ele>
        <time>2020-06-28T14:19:13Z</time>
      </trkpt>
      <trkpt lat="48.59593" lon="7.70826">
        <ele>144.1</ele>
        <time>2020-06-28T14:19:14Z</time>
      </trkpt>
      <trkpt lat="48.59595" lon="7.7082">
        <ele>144.1</ele>
        <time>2020-06-28T14:19:15Z</time>
      </trkpt>
      <trkpt lat="48.59597" lon="7.70814">
        <ele>144.1</ele>
        <time>2020-06-28T14:19:16Z</time>
      </trkpt>
      <trkpt lat="48.59598" lon="7.70808">
        <ele>144.1</ele>
        <time>2020-06-28T14:19:17Z</time>
      </trkpt>
      <trkpt lat="48.596" lon="7.70802">
        <ele>144.2</ele>
        <time>2020-06-28T14:19:18Z</time>
      </trkpt>
      <trkpt lat="48.59602" lon="7.70796">
        <ele>144.2</ele>
        <time>2020-06-28T14:19:19Z</time>
      </trkpt>
      <trkpt lat="48.59604" lon="7.7079">
        <ele>144.2</ele>
        <time>2020-06-28T14:19:20Z</time>
      </trkpt>
      <trkpt lat="48.59606" lon="7.70784">
        <ele>144.1</ele>
        <time>2020-06-28T14:19:21Z</time>
      </trkpt>
      <trkpt lat="48.59608" lon="7.70779">
        <ele>144.1</ele>
        <time>2020-06-28T14:19:22Z</time>
      </trkpt>
      <trkpt lat="48.59611" lon="7.70773">
        <ele>144.1</ele>
        <time>2020-06-28T14:19:23Z</time>
      </trkpt>
      <trkpt lat="48.59614" lon="7.70766">
        <ele>144.1</ele>
        <time>2020-06-28T14:19:24Z</time>
      </trkpt>
      <trkpt lat="48.59617" lon="7.70759">
        <ele>144</ele>
        <time>2020-06-28T14:19:25Z</time>
      </trkpt>
      <trkpt lat="48.59619" lon="7.70752">
        <ele>144</ele>
        <time>2020-06-28T14:19:26Z</time>
      </trkpt>
      <trkpt lat="48.59622" lon="7.70745">
        <ele>144</ele>
        <time>2020-06-28T14:19:27Z</time>
      </trkpt>
      <trkpt lat="48.59624" lon="7.70738">
        <ele>143.9</ele>
        <time>2020-06-28T14:19:28Z</time>
      </trkpt>
      <trkpt lat="48.59625" lon="7.70732">
        <ele>143.9</ele>
        <time>2020-06-28T14:19:29Z</time>
      </trkpt>
      <trkpt lat="48.59626" lon="7.70726">
        <ele>143.9</ele>
        <time>2020-06-28T14:19:30Z</time>
      </trkpt>
      <trkpt lat="48.59628" lon="7.70719">
        <ele>143.8</ele>
        <time>2020-06-28T14:19:31Z</time>
      </trkpt>
      <trkpt lat="48.5963" lon="7.70713">
        <ele>143.8</ele>
        <time>2020-06-28T14:19:32Z</time>
      </trkpt>
      <trkpt lat="48.59632" lon="7.70705">
        <ele>143.8</ele>
        <time>2020-06-28T14:19:33Z</time>
      </trkpt>
      <trkpt lat="48.59634" lon="7.70699">
        <ele>143.8</ele>
        <time>2020-06-28T14:19:34Z</time>
      </trkpt>
      <trkpt lat="48.59637" lon="7.70693">
        <ele>143.7</ele>
        <time>2020-06-28T14:19:35Z</time>
      </trkpt>
      <trkpt lat="48.59639" lon="7.70686">
        <ele>143.7</ele>
        <time>2020-06-28T14:19:36Z</time>
      </trkpt>
      <trkpt lat="48.59642" lon="7.70679">
        <ele>143.7</ele>
        <time>2020-06-28T14:19:37Z</time>
      </trkpt>
      <trkpt lat="48.59645" lon="7.7067">
        <ele>143.7</ele>
        <time>2020-06-28T14:19:38Z</time>
      </trkpt>
      <trkpt lat="48.59647" lon="7.70663">
        <ele>143.6</ele>
        <time>2020-06-28T14:19:39Z</time>
      </trkpt>
      <trkpt lat="48.5965" lon="7.70656">
        <ele>143.6</ele>
        <time>2020-06-28T14:19:40Z</time>
      </trkpt>
      <trkpt lat="48.59653" lon="7.7065">
        <ele>143.6</ele>
        <time>2020-06-28T14:19:41Z</time>
      </trkpt>
      <trkpt lat="48.59656" lon="7.70642">
        <ele>143.6</ele>
        <time>2020-06-28T14:19:42Z</time>
      </trkpt>
      <trkpt lat="48.59659" lon="7.70634">
        <ele>143.5</ele>
        <time>2020-06-28T14:19:43Z</time>
      </trkpt>
      <trkpt lat="48.59662" lon="7.70627">
        <ele>143.5</ele>
        <time>2020-06-28T14:19:44Z</time>
      </trkpt>
      <trkpt lat="48.59665" lon="7.7062">
        <ele>143.5</ele>
        <time>2020-06-28T14:19:45Z</time>
      </trkpt>
      <trkpt lat="48.59668" lon="7.70614">
        <ele>143.5</ele>
        <time>2020-06-28T14:19:46Z</time>
      </trkpt>
      <trkpt lat="48.59672" lon="7.70608">
        <ele>143.5</ele>
        <time>2020-06-28T14:19:47Z</time>
      </trkpt>
      <trkpt lat="48.59674" lon="7.70602">
        <ele>143.5</ele>
        <time>2020-06-28T14:19:48Z</time>
      </trkpt>
      <trkpt lat="48.59677" lon="7.70596">
        <ele>143.6</ele>
        <time>2020-06-28T14:19:49Z</time>
      </trkpt>
      <trkpt lat="48.5968" lon="7.70589">
        <ele>143.6</ele>
        <time>2020-06-28T14:19:50Z</time>
      </trkpt>
      <trkpt lat="48.59682" lon="7.70581">
        <ele>143.6</ele>
        <time>2020-06-28T14:19:51Z</time>
      </trkpt>
      <trkpt lat="48.59685" lon="7.70573">
        <ele>143.7</ele>
        <time>2020-06-28T14:19:52Z</time>
      </trkpt>
      <trkpt lat="48.59688" lon="7.70567">
        <ele>143.7</ele>
        <time>2020-06-28T14:19:53Z</time>
      </trkpt>
      <trkpt lat="48.5969" lon="7.7056">
        <ele>143.8</ele>
        <time>2020-06-28T14:19:54Z</time>
      </trkpt>
      <trkpt lat="48.59692" lon="7.70552">
        <ele>143.8</ele>
        <time>2020-06-28T14:19:55Z</time>
      </trkpt>
      <trkpt lat="48.59695" lon="7.70546">
        <ele>143.8</ele>
        <time>2020-06-28T14:19:56Z</time>
      </trkpt>
      <trkpt lat="48.59698" lon="7.70539">
        <ele>143.9</ele>
        <time>2020-06-28T14:19:57Z</time>
      </trkpt>
      <trkpt lat="48.597" lon="7.70533">
        <ele>143.9</ele>
        <time>2020-06-28T14:19:58Z</time>
      </trkpt>
      <trkpt lat="48.59702" lon="7.70526">
        <ele>143.9</ele>
        <time>2020-06-28T14:19:59Z</time>
      </trkpt>
      <trkpt lat="48.59705" lon="7.70519">
        <ele>143.9</ele>
        <time>2020-06-28T14:20:00Z</time>
      </trkpt>
      <trkpt lat="48.59707" lon="7.70512">
        <ele>143.9</ele>
        <time>2020-06-28T14:20:01Z</time>
      </trkpt>
      <trkpt lat="48.59709" lon="7.70506">
        <ele>143.9</ele>
        <time>2020-06-28T14:20:02Z</time>
      </trkpt>
      <trkpt lat="48.59711" lon="7.70497">
        <ele>143.9</ele>
        <time>2020-06-28T14:20:03Z</time>
      </trkpt>
      <trkpt lat="48.59714" lon="7.7049">
        <ele>144</ele>
        <time>2020-06-28T14:20:04Z</time>
      </trkpt>
      <trkpt lat="48.59716" lon="7.70481">
        <ele>144</ele>
        <time>2020-06-28T14:20:05Z</time>
      </trkpt>
      <trkpt lat="48.59719" lon="7.70474">
        <ele>144.1</ele>
        <time>2020-06-28T14:20:06Z</time>
      </trkpt>
      <trkpt lat="48.59722" lon="7.70467">
        <ele>144.2</ele>
        <time>2020-06-28T14:20:07Z</time>
      </trkpt>
      <trkpt lat="48.59725" lon="7.70461">
        <ele>144.2</ele>
        <time>2020-06-28T14:20:08Z</time>
      </trkpt>
      <trkpt lat="48.59728" lon="7.70455">
        <ele>144.3</ele>
        <time>2020-06-28T14:20:09Z</time>
      </trkpt>
      <trkpt lat="48.59731" lon="7.70449">
        <ele>144.3</ele>
        <time>2020-06-28T14:20:10Z</time>
      </trkpt>
      <trkpt lat="48.59734" lon="7.70443">
        <ele>144.4</ele>
        <time>2020-06-28T14:20:11Z</time>
      </trkpt>
      <trkpt lat="48.59737" lon="7.70437">
        <ele>144.4</ele>
        <time>2020-06-28T14:20:12Z</time>
      </trkpt>
      <trkpt lat="48.59739" lon="7.70431">
        <ele>144.5</ele>
        <time>2020-06-28T14:20:13Z</time>
      </trkpt>
      <trkpt lat="48.59742" lon="7.70424">
        <ele>144.6</ele>
        <time>2020-06-28T14:20:14Z</time>
      </trkpt>
      <trkpt lat="48.59744" lon="7.70417">
        <ele>144.6</ele>
        <time>2020-06-28T14:20:15Z</time>
      </trkpt>
      <trkpt lat="48.59746" lon="7.7041">
        <ele>144.6</ele>
        <time>2020-06-28T14:20:16Z</time>
      </trkpt>
      <trkpt lat="48.5975" lon="7.70405">
        <ele>144.7</ele>
        <time>2020-06-28T14:20:17Z</time>
      </trkpt>
      <trkpt lat="48.59754" lon="7.704">
        <ele>144.7</ele>
        <time>2020-06-28T14:20:18Z</time>
      </trkpt>
      <trkpt lat="48.59757" lon="7.70394">
        <ele>144.8</ele>
        <time>2020-06-28T14:20:19Z</time>
      </trkpt>
      <trkpt lat="48.5976" lon="7.70387">
        <ele>144.8</ele>
        <time>2020-06-28T14:20:20Z</time>
      </trkpt>
      <trkpt lat="48.59763" lon="7.70381">
        <ele>144.9</ele>
        <time>2020-06-28T14:20:21Z</time>
      </trkpt>
      <trkpt lat="48.59766" lon="7.70376">
        <ele>145</ele>
        <time>2020-06-28T14:20:22Z</time>
      </trkpt>
      <trkpt lat="48.5977" lon="7.70371">
        <ele>145.1</ele>
        <time>2020-06-28T14:20:23Z</time>
      </trkpt>
      <trkpt lat="48.59773" lon="7.70366">
        <ele>145.1</ele>
        <time>2020-06-28T14:20:24Z</time>
      </trkpt>
      <trkpt lat="48.59776" lon="7.70361">
        <ele>145.2</ele>
        <time>2020-06-28T14:20:25Z</time>
      </trkpt>
      <trkpt lat="48.59779" lon="7.70356">
        <ele>145.3</ele>
        <time>2020-06-28T14:20:26Z</time>
      </trkpt>
      <trkpt lat="48.59783" lon="7.70351">
        <ele>145.4</ele>
        <time>2020-06-28T14:20:27Z</time>
      </trkpt>
      <trkpt lat="48.59786" lon="7.70345">
        <ele>145.4</ele>
        <time>2020-06-28T14:20:28Z</time>
      </trkpt>
      <trkpt lat="48.5979" lon="7.70341">
        <ele>145.5</ele>
        <time>2020-06-28T14:20:29Z</time>
      </trkpt>
      <trkpt lat="48.59794" lon="7.70336">
        <ele>145.5</ele>
        <time>2020-06-28T14:20:30Z</time>
      </trkpt>
      <trkpt lat="48.59798" lon="7.70331">
        <ele>145.6</ele>
        <time>2020-06-28T14:20:31Z</time>
      </trkpt>
      <trkpt lat="48.59801" lon="7.70326">
        <ele>145.7</ele>
        <time>2020-06-28T14:20:32Z</time>
      </trkpt>
      <trkpt lat="48.59805" lon="7.70322">
        <ele>145.7</ele>
        <time>2020-06-28T14:20:33Z</time>
      </trkpt>
      <trkpt lat="48.59809" lon="7.70317">
        <ele>145.7</ele>
        <time>2020-06-28T14:20:34Z</time>
      </trkpt>
      <trkpt lat="48.59812" lon="7.7031">
        <ele>145.8</ele>
        <time>2020-06-28T14:20:35Z</time>
      </trkpt>
      <trkpt lat="48.59816" lon="7.70303">
        <ele>145.9</ele>
        <time>2020-06-28T14:20:36Z</time>
      </trkpt>
      <trkpt lat="48.5982" lon="7.70297">
        <ele>145.9</ele>
        <time>2020-06-28T14:20:37Z</time>
      </trkpt>
      <trkpt lat="48.59824" lon="7.70293">
        <ele>146</ele>
        <time>2020-06-28T14:20:38Z</time>
      </trkpt>
      <trkpt lat="48.59829" lon="7.70288">
        <ele>146</ele>
        <time>2020-06-28T14:20:39Z</time>
      </trkpt>
      <trkpt lat="48.59833" lon="7.70284">
        <ele>146.1</ele>
        <time>2020-06-28T14:20:40Z</time>
      </trkpt>
      <trkpt lat="48.59837" lon="7.70279">
        <ele>146.2</ele>
        <time>2020-06-28T14:20:41Z</time>
      </trkpt>
      <trkpt lat="48.59841" lon="7.70274">
        <ele>146.2</ele>
        <time>2020-06-28T14:20:42Z</time>
      </trkpt>
      <trkpt lat="48.59845" lon="7.7027">
        <ele>146.2</ele>
        <time>2020-06-28T14:20:43Z</time>
      </trkpt>
      <trkpt lat="48.59849" lon="7.70264">
        <ele>146.3</ele>
        <time>2020-06-28T14:20:44Z</time>
      </trkpt>
      <trkpt lat="48.59853" lon="7.70257">
        <ele>146.3</ele>
        <time>2020-06-28T14:20:45Z</time>
      </trkpt>
      <trkpt lat="48.59857" lon="7.70251">
        <ele>146.4</ele>
        <time>2020-06-28T14:20:46Z</time>
      </trkpt>
      <trkpt lat="48.5986" lon="7.70244">
        <ele>146.4</ele>
        <time>2020-06-28T14:20:47Z</time>
      </trkpt>
      <trkpt lat="48.59863" lon="7.70241">
        <ele>146.4</ele>
        <time>2020-06-28T14:20:48Z</time>
      </trkpt>
      <trkpt lat="48.59868" lon="7.70237">
        <ele>146.5</ele>
        <time>2020-06-28T14:20:49Z</time>
      </trkpt>
      <trkpt lat="48.59872" lon="7.70233">
        <ele>146.5</ele>
        <time>2020-06-28T14:20:50Z</time>
      </trkpt>
      <trkpt lat="48.59875" lon="7.70227">
        <ele>146.5</ele>
        <time>2020-06-28T14:20:51Z</time>
      </trkpt>
      <trkpt lat="48.59879" lon="7.70223">
        <ele>146.6</ele>
        <time>2020-06-28T14:20:52Z</time>
      </trkpt>
      <trkpt lat="48.59883" lon="7.70218">
        <ele>146.6</ele>
        <time>2020-06-28T14:20:53Z</time>
      </trkpt>
      <trkpt lat="48.59887" lon="7.70214">
        <ele>146.6</ele>
        <time>2020-06-28T14:20:54Z</time>
      </trkpt>
      <trkpt lat="48.59891" lon="7.70209">
        <ele>146.6</ele>
        <time>2020-06-28T14:20:55Z</time>
      </trkpt>
      <trkpt lat="48.59894" lon="7.70204">
        <ele>146.7</ele>
        <time>2020-06-28T14:20:56Z</time>
      </trkpt>
      <trkpt lat="48.59898" lon="7.702">
        <ele>146.7</ele>
        <time>2020-06-28T14:20:57Z</time>
      </trkpt>
      <trkpt lat="48.59902" lon="7.70195">
        <ele>146.7</ele>
        <time>2020-06-28T14:20:58Z</time>
      </trkpt>
      <trkpt lat="48.59907" lon="7.70191">
        <ele>146.7</ele>
        <time>2020-06-28T14:20:59Z</time>
      </trkpt>
      <trkpt lat="48.59911" lon="7.70185">
        <ele>146.6</ele>
        <time>2020-06-28T14:21:00Z</time>
      </trkpt>
      <trkpt lat="48.59914" lon="7.7018">
        <ele>146.6</ele>
        <time>2020-06-28T14:21:01Z</time>
      </trkpt>
      <trkpt lat="48.59918" lon="7.70175">
        <ele>146.6</ele>
        <time>2020-06-28T14:21:02Z</time>
      </trkpt>
      <trkpt lat="48.59921" lon="7.70169">
        <ele>146.6</ele>
        <time>2020-06-28T14:21:03Z</time>
      </trkpt>
      <trkpt lat="48.59924" lon="7.70162">
        <ele>146.6</ele>
        <time>2020-06-28T14:21:04Z</time>
      </trkpt>
      <trkpt lat="48.59927" lon="7.70156">
        <ele>146.6</ele>
        <time>2020-06-28T14:21:05Z</time>
      </trkpt>
      <trkpt lat="48.5993" lon="7.70149">
        <ele>146.6</ele>
        <time>2020-06-28T14:21:06Z</time>
      </trkpt>
      <trkpt lat="48.59933" lon="7.70142">
        <ele>146.6</ele>
        <time>2020-06-28T14:21:07Z</time>
      </trkpt>
      <trkpt lat="48.59937" lon="7.70136">
        <ele>146.5</ele>
        <time>2020-06-28T14:21:08Z</time>
      </trkpt>
      <trkpt lat="48.59941" lon="7.7013">
        <ele>146.5</ele>
        <time>2020-06-28T14:21:09Z</time>
      </trkpt>
      <trkpt lat="48.59943" lon="7.70124">
        <ele>146.4</ele>
        <time>2020-06-28T14:21:10Z</time>
      </trkpt>
      <trkpt lat="48.59946" lon="7.70117">
        <ele>146.4</ele>
        <time>2020-06-28T14:21:11Z</time>
      </trkpt>
      <trkpt lat="48.5995" lon="7.70111">
        <ele>146.3</ele>
        <time>2020-06-28T14:21:12Z</time>
      </trkpt>
      <trkpt lat="48.59953" lon="7.70106">
        <ele>146.2</ele>
        <time>2020-06-28T14:21:13Z</time>
      </trkpt>
      <trkpt lat="48.59957" lon="7.701">
        <ele>146.2</ele>
        <time>2020-06-28T14:21:14Z</time>
      </trkpt>
      <trkpt lat="48.5996" lon="7.70093">
        <ele>146.1</ele>
        <time>2020-06-28T14:21:15Z</time>
      </trkpt>
      <trkpt lat="48.59963" lon="7.70085">
        <ele>146.1</ele>
        <time>2020-06-28T14:21:16Z</time>
      </trkpt>
      <trkpt lat="48.59967" lon="7.70078">
        <ele>146</ele>
        <time>2020-06-28T14:21:17Z</time>
      </trkpt>
      <trkpt lat="48.5997" lon="7.70072">
        <ele>146</ele>
        <time>2020-06-28T14:21:18Z</time>
      </trkpt>
      <trkpt lat="48.59973" lon="7.70065">
        <ele>146</ele>
        <time>2020-06-28T14:21:19Z</time>
      </trkpt>
      <trkpt lat="48.59976" lon="7.70059">
        <ele>146</ele>
        <time>2020-06-28T14:21:20Z</time>
      </trkpt>
      <trkpt lat="48.59979" lon="7.70053">
        <ele>146</ele>
        <time>2020-06-28T14:21:21Z</time>
      </trkpt>
      <trkpt lat="48.59982" lon="7.70046">
        <ele>146.1</ele>
        <time>2020-06-28T14:21:22Z</time>
      </trkpt>
      <trkpt lat="48.59986" lon="7.7004">
        <ele>146.1</ele>
        <time>2020-06-28T14:21:23Z</time>
      </trkpt>
      <trkpt lat="48.59989" lon="7.70034">
        <ele>146.1</ele>
        <time>2020-06-28T14:21:24Z</time>
      </trkpt>
      <trkpt lat="48.59992" lon="7.70027">
        <ele>146.1</ele>
        <time>2020-06-28T14:21:25Z</time>
      </trkpt>
      <trkpt lat="48.59995" lon="7.7002">
        <ele>146.2</ele>
        <time>2020-06-28T14:21:26Z</time>
      </trkpt>
      <trkpt lat="48.59998" lon="7.70012">
        <ele>146.2</ele>
        <time>2020-06-28T14:21:27Z</time>
      </trkpt>
      <trkpt lat="48.60001" lon="7.70006">
        <ele>146.2</ele>
        <time>2020-06-28T14:21:28Z</time>
      </trkpt>
      <trkpt lat="48.60004" lon="7.7">
        <ele>146.2</ele>
        <time>2020-06-28T14:21:29Z</time>
      </trkpt>
      <trkpt lat="48.60007" lon="7.69994">
        <ele>146.3</ele>
        <time>2020-06-28T14:21:30Z</time>
      </trkpt>
      <trkpt lat="48.6001" lon="7.69987">
        <ele>146.3</ele>
        <time>2020-06-28T14:21:31Z</time>
      </trkpt>
      <trkpt lat="48.60012" lon="7.69981">
        <ele>146.4</ele>
        <time>2020-06-28T14:21:32Z</time>
      </trkpt>
      <trkpt lat="48.60015" lon="7.69978">
        <ele>146.4</ele>
        <time>2020-06-28T14:21:33Z</time>
      </trkpt>
      <trkpt lat="48.60016" lon="7.69978">
        <ele>146.4</ele>
        <time>2020-06-28T14:21:34Z</time>
      </trkpt>
      <trkpt lat="48.60018" lon="7.69974">
        <ele>146.4</ele>
        <time>2020-06-28T14:21:35Z</time>
      </trkpt>
      <trkpt lat="48.60018" lon="7.69973">
        <ele>146.5</ele>
        <time>2020-06-28T14:21:36Z</time>
      </trkpt>
      <trkpt lat="48.6002" lon="7.69969">
        <ele>146.5</ele>
        <time>2020-06-28T14:21:37Z</time>
      </trkpt>
      <trkpt lat="48.60021" lon="7.69964">
        <ele>146.5</ele>
        <time>2020-06-28T14:21:38Z</time>
      </trkpt>
      <trkpt lat="48.60022" lon="7.69962">
        <ele>146.5</ele>
        <time>2020-06-28T14:21:39Z</time>
      </trkpt>
      <trkpt lat="48.60025" lon="7.69958">
        <ele>146.5</ele>
        <time>2020-06-28T14:21:40Z</time>
      </trkpt>
      <trkpt lat="48.60027" lon="7.69954">
        <ele>146.5</ele>
        <time>2020-06-28T14:21:41Z</time>
      </trkpt>
      <trkpt lat="48.60031" lon="7.69949">
        <ele>146.4</ele>
        <time>2020-06-28T14:21:42Z</time>
      </trkpt>
      <trkpt lat="48.60035" lon="7.69944">
        <ele>146.4</ele>
        <time>2020-06-28T14:21:43Z</time>
      </trkpt>
      <trkpt lat="48.60037" lon="7.69936">
        <ele>146.4</ele>
        <time>2020-06-28T14:21:44Z</time>
      </trkpt>
      <trkpt lat="48.60039" lon="7.69928">
        <ele>146.4</ele>
        <time>2020-06-28T14:21:45Z</time>
      </trkpt>
      <trkpt lat="48.60041" lon="7.6992">
        <ele>146.4</ele>
        <time>2020-06-28T14:21:46Z</time>
      </trkpt>
      <trkpt lat="48.60044" lon="7.69915">
        <ele>146.4</ele>
        <time>2020-06-28T14:21:47Z</time>
      </trkpt>
      <trkpt lat="48.60046" lon="7.69909">
        <ele>146.4</ele>
        <time>2020-06-28T14:21:48Z</time>
      </trkpt>
      <trkpt lat="48.60049" lon="7.69902">
        <ele>146.4</ele>
        <time>2020-06-28T14:21:49Z</time>
      </trkpt>
      <trkpt lat="48.60051" lon="7.69895">
        <ele>146.4</ele>
        <time>2020-06-28T14:21:50Z</time>
      </trkpt>
      <trkpt lat="48.60054" lon="7.69889">
        <ele>146.4</ele>
        <time>2020-06-28T14:21:51Z</time>
      </trkpt>
      <trkpt lat="48.60057" lon="7.69883">
        <ele>146.3</ele>
        <time>2020-06-28T14:21:52Z</time>
      </trkpt>
      <trkpt lat="48.6006" lon="7.69876">
        <ele>146.3</ele>
        <time>2020-06-28T14:21:53Z</time>
      </trkpt>
      <trkpt lat="48.60061" lon="7.6987">
        <ele>146.3</ele>
        <time>2020-06-28T14:21:54Z</time>
      </trkpt>
      <trkpt lat="48.60063" lon="7.69862">
        <ele>146.3</ele>
        <time>2020-06-28T14:21:55Z</time>
      </trkpt>
      <trkpt lat="48.60065" lon="7.69854">
        <ele>146.3</ele>
        <time>2020-06-28T14:21:56Z</time>
      </trkpt>
      <trkpt lat="48.60068" lon="7.69847">
        <ele>146.3</ele>
        <time>2020-06-28T14:21:57Z</time>
      </trkpt>
      <trkpt lat="48.60071" lon="7.6984">
        <ele>146.3</ele>
        <time>2020-06-28T14:21:58Z</time>
      </trkpt>
      <trkpt lat="48.60074" lon="7.69832">
        <ele>146.2</ele>
        <time>2020-06-28T14:21:59Z</time>
      </trkpt>
      <trkpt lat="48.60077" lon="7.69826">
        <ele>146.2</ele>
        <time>2020-06-28T14:22:00Z</time>
      </trkpt>
      <trkpt lat="48.6008" lon="7.69818">
        <ele>146.2</ele>
        <time>2020-06-28T14:22:01Z</time>
      </trkpt>
      <trkpt lat="48.60083" lon="7.69811">
        <ele>146.2</ele>
        <time>2020-06-28T14:22:02Z</time>
      </trkpt>
      <trkpt lat="48.60085" lon="7.69804">
        <ele>146.2</ele>
        <time>2020-06-28T14:22:03Z</time>
      </trkpt>
      <trkpt lat="48.60087" lon="7.69799">
        <ele>146.2</ele>
        <time>2020-06-28T14:22:04Z</time>
      </trkpt>
      <trkpt lat="48.60089" lon="7.69793">
        <ele>146.2</ele>
        <time>2020-06-28T14:22:05Z</time>
      </trkpt>
      <trkpt lat="48.60092" lon="7.69786">
        <ele>146.3</ele>
        <time>2020-06-28T14:22:06Z</time>
      </trkpt>
      <trkpt lat="48.60094" lon="7.69779">
        <ele>146.3</ele>
        <time>2020-06-28T14:22:07Z</time>
      </trkpt>
      <trkpt lat="48.60097" lon="7.69773">
        <ele>146.3</ele>
        <time>2020-06-28T14:22:08Z</time>
      </trkpt>
      <trkpt lat="48.601" lon="7.69767">
        <ele>146.4</ele>
        <time>2020-06-28T14:22:09Z</time>
      </trkpt>
      <trkpt lat="48.60103" lon="7.69761">
        <ele>146.4</ele>
        <time>2020-06-28T14:22:10Z</time>
      </trkpt>
      <trkpt lat="48.60106" lon="7.69755">
        <ele>146.4</ele>
        <time>2020-06-28T14:22:11Z</time>
      </trkpt>
      <trkpt lat="48.60108" lon="7.69749">
        <ele>146.5</ele>
        <time>2020-06-28T14:22:12Z</time>
      </trkpt>
      <trkpt lat="48.60112" lon="7.69744">
        <ele>146.5</ele>
        <time>2020-06-28T14:22:13Z</time>
      </trkpt>
      <trkpt lat="48.60114" lon="7.69738">
        <ele>146.6</ele>
        <time>2020-06-28T14:22:14Z</time>
      </trkpt>
      <trkpt lat="48.60116" lon="7.69732">
        <ele>146.7</ele>
        <time>2020-06-28T14:22:15Z</time>
      </trkpt>
      <trkpt lat="48.60118" lon="7.69727">
        <ele>146.7</ele>
        <time>2020-06-28T14:22:16Z</time>
      </trkpt>
      <trkpt lat="48.6012" lon="7.69721">
        <ele>146.7</ele>
        <time>2020-06-28T14:22:17Z</time>
      </trkpt>
      <trkpt lat="48.60121" lon="7.69714">
        <ele>146.7</ele>
        <time>2020-06-28T14:22:18Z</time>
      </trkpt>
      <trkpt lat="48.60124" lon="7.69709">
        <ele>146.7</ele>
        <time>2020-06-28T14:22:19Z</time>
      </trkpt>
      <trkpt lat="48.60125" lon="7.69704">
        <ele>146.8</ele>
        <time>2020-06-28T14:22:20Z</time>
      </trkpt>
      <trkpt lat="48.60127" lon="7.697">
        <ele>146.8</ele>
        <time>2020-06-28T14:22:21Z</time>
      </trkpt>
      <trkpt lat="48.60129" lon="7.69694">
        <ele>146.8</ele>
        <time>2020-06-28T14:22:22Z</time>
      </trkpt>
      <trkpt lat="48.60129" lon="7.69689">
        <ele>146.8</ele>
        <time>2020-06-28T14:22:23Z</time>
      </trkpt>
      <trkpt lat="48.6013" lon="7.69686">
        <ele>146.8</ele>
        <time>2020-06-28T14:22:24Z</time>
      </trkpt>
      <trkpt lat="48.60131" lon="7.69681">
        <ele>146.8</ele>
        <time>2020-06-28T14:22:25Z</time>
      </trkpt>
      <trkpt lat="48.60133" lon="7.69677">
        <ele>146.8</ele>
        <time>2020-06-28T14:22:26Z</time>
      </trkpt>
      <trkpt lat="48.60135" lon="7.69671">
        <ele>146.8</ele>
        <time>2020-06-28T14:22:27Z</time>
      </trkpt>
      <trkpt lat="48.60138" lon="7.69665">
        <ele>146.8</ele>
        <time>2020-06-28T14:22:28Z</time>
      </trkpt>
      <trkpt lat="48.60141" lon="7.69659">
        <ele>146.8</ele>
        <time>2020-06-28T14:22:29Z</time>
      </trkpt>
      <trkpt lat="48.60143" lon="7.69653">
        <ele>146.8</ele>
        <time>2020-06-28T14:22:30Z</time>
      </trkpt>
      <trkpt lat="48.60146" lon="7.69647">
        <ele>146.9</ele>
        <time>2020-06-28T14:22:31Z</time>
      </trkpt>
      <trkpt lat="48.60148" lon="7.69641">
        <ele>146.9</ele>
        <time>2020-06-28T14:22:32Z</time>
      </trkpt>
      <trkpt lat="48.60151" lon="7.69634">
        <ele>146.9</ele>
        <time>2020-06-28T14:22:33Z</time>
      </trkpt>
      <trkpt lat="48.60152" lon="7.69627">
        <ele>146.9</ele>
        <time>2020-06-28T14:22:34Z</time>
      </trkpt>
      <trkpt lat="48.60154" lon="7.69619">
        <ele>147</ele>
        <time>2020-06-28T14:22:35Z</time>
      </trkpt>
      <trkpt lat="48.60156" lon="7.69612">
        <ele>147</ele>
        <time>2020-06-28T14:22:36Z</time>
      </trkpt>
      <trkpt lat="48.60158" lon="7.69606">
        <ele>147</ele>
        <time>2020-06-28T14:22:37Z</time>
      </trkpt>
      <trkpt lat="48.60161" lon="7.696">
        <ele>147</ele>
        <time>2020-06-28T14:22:38Z</time>
      </trkpt>
      <trkpt lat="48.60163" lon="7.69593">
        <ele>147.1</ele>
        <time>2020-06-28T14:22:39Z</time>
      </trkpt>
      <trkpt lat="48.60166" lon="7.69588">
        <ele>147.1</ele>
        <time>2020-06-28T14:22:40Z</time>
      </trkpt>
      <trkpt lat="48.60168" lon="7.69582">
        <ele>147.2</ele>
        <time>2020-06-28T14:22:41Z</time>
      </trkpt>
      <trkpt lat="48.60171" lon="7.69575">
        <ele>147.2</ele>
        <time>2020-06-28T14:22:42Z</time>
      </trkpt>
      <trkpt lat="48.60172" lon="7.69568">
        <ele>147.3</ele>
        <time>2020-06-28T14:22:43Z</time>
      </trkpt>
      <trkpt lat="48.60175" lon="7.6956">
        <ele>147.3</ele>
        <time>2020-06-28T14:22:44Z</time>
      </trkpt>
      <trkpt lat="48.60178" lon="7.69553">
        <ele>147.3</ele>
        <time>2020-06-28T14:22:45Z</time>
      </trkpt>
      <trkpt lat="48.60181" lon="7.69547">
        <ele>147.3</ele>
        <time>2020-06-28T14:22:46Z</time>
      </trkpt>
      <trkpt lat="48.60184" lon="7.69541">
        <ele>147.3</ele>
        <time>2020-06-28T14:22:47Z</time>
      </trkpt>
      <trkpt lat="48.60187" lon="7.69536">
        <ele>147.4</ele>
        <time>2020-06-28T14:22:48Z</time>
      </trkpt>
      <trkpt lat="48.60189" lon="7.69532">
        <ele>147.4</ele>
        <time>2020-06-28T14:22:49Z</time>
      </trkpt>
      <trkpt lat="48.60191" lon="7.69527">
        <ele>147.4</ele>
        <time>2020-06-28T14:22:50Z</time>
      </trkpt>
      <trkpt lat="48.60193" lon="7.69522">
        <ele>147.4</ele>
        <time>2020-06-28T14:22:51Z</time>
      </trkpt>
      <trkpt lat="48.60195" lon="7.69516">
        <ele>147.5</ele>
        <time>2020-06-28T14:22:52Z</time>
      </trkpt>
      <trkpt lat="48.60197" lon="7.6951">
        <ele>147.5</ele>
        <time>2020-06-28T14:22:53Z</time>
      </trkpt>
      <trkpt lat="48.60199" lon="7.69505">
        <ele>147.6</ele>
        <time>2020-06-28T14:22:54Z</time>
      </trkpt>
      <trkpt lat="48.602" lon="7.69498">
        <ele>147.6</ele>
        <time>2020-06-28T14:22:55Z</time>
      </trkpt>
      <trkpt lat="48.60202" lon="7.69491">
        <ele>147.7</ele>
        <time>2020-06-28T14:22:56Z</time>
      </trkpt>
      <trkpt lat="48.60205" lon="7.69485">
        <ele>147.8</ele>
        <time>2020-06-28T14:22:57Z</time>
      </trkpt>
      <trkpt lat="48.60209" lon="7.6948">
        <ele>147.8</ele>
        <time>2020-06-28T14:22:58Z</time>
      </trkpt>
      <trkpt lat="48.60211" lon="7.69472">
        <ele>147.9</ele>
        <time>2020-06-28T14:22:59Z</time>
      </trkpt>
      <trkpt lat="48.60213" lon="7.69466">
        <ele>148</ele>
        <time>2020-06-28T14:23:00Z</time>
      </trkpt>
      <trkpt lat="48.60215" lon="7.6946">
        <ele>148.1</ele>
        <time>2020-06-28T14:23:01Z</time>
      </trkpt>
      <trkpt lat="48.60216" lon="7.69454">
        <ele>148.1</ele>
        <time>2020-06-28T14:23:02Z</time>
      </trkpt>
      <trkpt lat="48.60219" lon="7.69451">
        <ele>148.2</ele>
        <time>2020-06-28T14:23:03Z</time>
      </trkpt>
      <trkpt lat="48.60222" lon="7.69445">
        <ele>148.2</ele>
        <time>2020-06-28T14:23:04Z</time>
      </trkpt>
      <trkpt lat="48.60224" lon="7.6944">
        <ele>148.3</ele>
        <time>2020-06-28T14:23:05Z</time>
      </trkpt>
      <trkpt lat="48.60226" lon="7.69432">
        <ele>148.4</ele>
        <time>2020-06-28T14:23:06Z</time>
      </trkpt>
      <trkpt lat="48.60228" lon="7.69425">
        <ele>148.5</ele>
        <time>2020-06-28T14:23:07Z</time>
      </trkpt>
      <trkpt lat="48.60231" lon="7.69418">
        <ele>148.6</ele>
        <time>2020-06-28T14:23:08Z</time>
      </trkpt>
      <trkpt lat="48.60234" lon="7.69413">
        <ele>148.7</ele>
        <time>2020-06-28T14:23:09Z</time>
      </trkpt>
      <trkpt lat="48.60237" lon="7.69407">
        <ele>148.7</ele>
        <time>2020-06-28T14:23:10Z</time>
      </trkpt>
      <trkpt lat="48.60239" lon="7.694">
        <ele>148.8</ele>
        <time>2020-06-28T14:23:11Z</time>
      </trkpt>
      <trkpt lat="48.60241" lon="7.69394">
        <ele>148.9</ele>
        <time>2020-06-28T14:23:12Z</time>
      </trkpt>
      <trkpt lat="48.60243" lon="7.69387">
        <ele>149</ele>
        <time>2020-06-28T14:23:13Z</time>
      </trkpt>
      <trkpt lat="48.60246" lon="7.69381">
        <ele>149</ele>
        <time>2020-06-28T14:23:14Z</time>
      </trkpt>
      <trkpt lat="48.60248" lon="7.69374">
        <ele>149.1</ele>
        <time>2020-06-28T14:23:15Z</time>
      </trkpt>
      <trkpt lat="48.60251" lon="7.69369">
        <ele>149.2</ele>
        <time>2020-06-28T14:23:16Z</time>
      </trkpt>
      <trkpt lat="48.60252" lon="7.69367">
        <ele>149.2</ele>
        <time>2020-06-28T14:23:17Z</time>
      </trkpt>
      <trkpt lat="48.60254" lon="7.69363">
        <ele>149.3</ele>
        <time>2020-06-28T14:23:18Z</time>
      </trkpt>
      <trkpt lat="48.60256" lon="7.69358">
        <ele>149.4</ele>
        <time>2020-06-28T14:23:19Z</time>
      </trkpt>
      <trkpt lat="48.60258" lon="7.69352">
        <ele>149.5</ele>
        <time>2020-06-28T14:23:20Z</time>
      </trkpt>
      <trkpt lat="48.6026" lon="7.69347">
        <ele>149.6</ele>
        <time>2020-06-28T14:23:21Z</time>
      </trkpt>
      <trkpt lat="48.60263" lon="7.69342">
        <ele>149.7</ele>
        <time>2020-06-28T14:23:22Z</time>
      </trkpt>
      <trkpt lat="48.60267" lon="7.69334">
        <ele>149.7</ele>
        <time>2020-06-28T14:23:23Z</time>
      </trkpt>
      <trkpt lat="48.6027" lon="7.69327">
        <ele>149.8</ele>
        <time>2020-06-28T14:23:24Z</time>
      </trkpt>
      <trkpt lat="48.60274" lon="7.69319">
        <ele>149.8</ele>
        <time>2020-06-28T14:23:25Z</time>
      </trkpt>
      <trkpt lat="48.60278" lon="7.69312">
        <ele>149.8</ele>
        <time>2020-06-28T14:23:26Z</time>
      </trkpt>
      <trkpt lat="48.60281" lon="7.69305">
        <ele>149.9</ele>
        <time>2020-06-28T14:23:27Z</time>
      </trkpt>
      <trkpt lat="48.60284" lon="7.69299">
        <ele>149.9</ele>
        <time>2020-06-28T14:23:28Z</time>
      </trkpt>
      <trkpt lat="48.60287" lon="7.69293">
        <ele>149.9</ele>
        <time>2020-06-28T14:23:29Z</time>
      </trkpt>
      <trkpt lat="48.60292" lon="7.69287">
        <ele>150</ele>
        <time>2020-06-28T14:23:30Z</time>
      </trkpt>
      <trkpt lat="48.60295" lon="7.6928">
        <ele>150</ele>
        <time>2020-06-28T14:23:31Z</time>
      </trkpt>
      <trkpt lat="48.60298" lon="7.69272">
        <ele>150.1</ele>
        <time>2020-06-28T14:23:32Z</time>
      </trkpt>
      <trkpt lat="48.60301" lon="7.69264">
        <ele>150.1</ele>
        <time>2020-06-28T14:23:33Z</time>
      </trkpt>
      <trkpt lat="48.60304" lon="7.69257">
        <ele>150.1</ele>
        <time>2020-06-28T14:23:34Z</time>
      </trkpt>
      <trkpt lat="48.60306" lon="7.6925">
        <ele>150.1</ele>
        <time>2020-06-28T14:23:35Z</time>
      </trkpt>
      <trkpt lat="48.60308" lon="7.69243">
        <ele>150.2</ele>
        <time>2020-06-28T14:23:36Z</time>
      </trkpt>
      <trkpt lat="48.60309" lon="7.69236">
        <ele>150.2</ele>
        <time>2020-06-28T14:23:37Z</time>
      </trkpt>
      <trkpt lat="48.60311" lon="7.6923">
        <ele>150.3</ele>
        <time>2020-06-28T14:23:38Z</time>
      </trkpt>
      <trkpt lat="48.60314" lon="7.69224">
        <ele>150.4</ele>
        <time>2020-06-28T14:23:39Z</time>
      </trkpt>
      <trkpt lat="48.60318" lon="7.69218">
        <ele>150.5</ele>
        <time>2020-06-28T14:23:40Z</time>
      </trkpt>
      <trkpt lat="48.6032" lon="7.69211">
        <ele>150.6</ele>
        <time>2020-06-28T14:23:41Z</time>
      </trkpt>
      <trkpt lat="48.60323" lon="7.69205">
        <ele>150.7</ele>
        <time>2020-06-28T14:23:42Z</time>
      </trkpt>
      <trkpt lat="48.60326" lon="7.69197">
        <ele>150.8</ele>
        <time>2020-06-28T14:23:43Z</time>
      </trkpt>
      <trkpt lat="48.60328" lon="7.6919">
        <ele>150.8</ele>
        <time>2020-06-28T14:23:44Z</time>
      </trkpt>
      <trkpt lat="48.60331" lon="7.69185">
        <ele>150.9</ele>
        <time>2020-06-28T14:23:45Z</time>
      </trkpt>
      <trkpt lat="48.60334" lon="7.69179">
        <ele>150.9</ele>
        <time>2020-06-28T14:23:46Z</time>
      </trkpt>
      <trkpt lat="48.60337" lon="7.69174">
        <ele>151</ele>
        <time>2020-06-28T14:23:47Z</time>
      </trkpt>
      <trkpt lat="48.6034" lon="7.69168">
        <ele>151</ele>
        <time>2020-06-28T14:23:48Z</time>
      </trkpt>
      <trkpt lat="48.60343" lon="7.69162">
        <ele>151.1</ele>
        <time>2020-06-28T14:23:49Z</time>
      </trkpt>
      <trkpt lat="48.60345" lon="7.69157">
        <ele>151.1</ele>
        <time>2020-06-28T14:23:50Z</time>
      </trkpt>
      <trkpt lat="48.60347" lon="7.6915">
        <ele>151.2</ele>
        <time>2020-06-28T14:23:51Z</time>
      </trkpt>
      <trkpt lat="48.6035" lon="7.69143">
        <ele>151.3</ele>
        <time>2020-06-28T14:23:52Z</time>
      </trkpt>
      <trkpt lat="48.60352" lon="7.69135">
        <ele>151.4</ele>
        <time>2020-06-28T14:23:53Z</time>
      </trkpt>
      <trkpt lat="48.60355" lon="7.69129">
        <ele>151.4</ele>
        <time>2020-06-28T14:23:54Z</time>
      </trkpt>
      <trkpt lat="48.60357" lon="7.69123">
        <ele>151.5</ele>
        <time>2020-06-28T14:23:55Z</time>
      </trkpt>
      <trkpt lat="48.60359" lon="7.69116">
        <ele>151.6</ele>
        <time>2020-06-28T14:23:56Z</time>
      </trkpt>
      <trkpt lat="48.60362" lon="7.69111">
        <ele>151.6</ele>
        <time>2020-06-28T14:23:57Z</time>
      </trkpt>
      <trkpt lat="48.60364" lon="7.69105">
        <ele>151.6</ele>
        <time>2020-06-28T14:23:58Z</time>
      </trkpt>
      <trkpt lat="48.60366" lon="7.69098">
        <ele>151.6</ele>
        <time>2020-06-28T14:23:59Z</time>
      </trkpt>
      <trkpt lat="48.60368" lon="7.69092">
        <ele>151.7</ele>
        <time>2020-06-28T14:24:00Z</time>
      </trkpt>
      <trkpt lat="48.60371" lon="7.69087">
        <ele>151.7</ele>
        <time>2020-06-28T14:24:01Z</time>
      </trkpt>
      <trkpt lat="48.60373" lon="7.69082">
        <ele>151.7</ele>
        <time>2020-06-28T14:24:02Z</time>
      </trkpt>
      <trkpt lat="48.60376" lon="7.69076">
        <ele>151.7</ele>
        <time>2020-06-28T14:24:03Z</time>
      </trkpt>
      <trkpt lat="48.60378" lon="7.69071">
        <ele>151.7</ele>
        <time>2020-06-28T14:24:04Z</time>
      </trkpt>
      <trkpt lat="48.6038" lon="7.69066">
        <ele>151.7</ele>
        <time>2020-06-28T14:24:05Z</time>
      </trkpt>
      <trkpt lat="48.60382" lon="7.6906">
        <ele>151.7</ele>
        <time>2020-06-28T14:24:06Z</time>
      </trkpt>
      <trkpt lat="48.60385" lon="7.69055">
        <ele>151.7</ele>
        <time>2020-06-28T14:24:07Z</time>
      </trkpt>
      <trkpt lat="48.60387" lon="7.6905">
        <ele>151.7</ele>
        <time>2020-06-28T14:24:08Z</time>
      </trkpt>
      <trkpt lat="48.60389" lon="7.69044">
        <ele>151.7</ele>
        <time>2020-06-28T14:24:09Z</time>
      </trkpt>
      <trkpt lat="48.60391" lon="7.69038">
        <ele>151.7</ele>
        <time>2020-06-28T14:24:10Z</time>
      </trkpt>
      <trkpt lat="48.60393" lon="7.69032">
        <ele>151.7</ele>
        <time>2020-06-28T14:24:11Z</time>
      </trkpt>
      <trkpt lat="48.60397" lon="7.69026">
        <ele>151.7</ele>
        <time>2020-06-28T14:24:12Z</time>
      </trkpt>
      <trkpt lat="48.60399" lon="7.69018">
        <ele>151.7</ele>
        <time>2020-06-28T14:24:13Z</time>
      </trkpt>
      <trkpt lat="48.60403" lon="7.69012">
        <ele>151.7</ele>
        <time>2020-06-28T14:24:14Z</time>
      </trkpt>
      <trkpt lat="48.60405" lon="7.69006">
        <ele>151.7</ele>
        <time>2020-06-28T14:24:15Z</time>
      </trkpt>
      <trkpt lat="48.60408" lon="7.69">
        <ele>151.7</ele>
        <time>2020-06-28T14:24:16Z</time>
      </trkpt>
      <trkpt lat="48.60412" lon="7.68995">
        <ele>151.7</ele>
        <time>2020-06-28T14:24:17Z</time>
      </trkpt>
      <trkpt lat="48.60416" lon="7.68988">
        <ele>151.6</ele>
        <time>2020-06-28T14:24:18Z</time>
      </trkpt>
      <trkpt lat="48.60419" lon="7.68982">
        <ele>151.6</ele>
        <time>2020-06-28T14:24:19Z</time>
      </trkpt>
      <trkpt lat="48.6042" lon="7.68975">
        <ele>151.6</ele>
        <time>2020-06-28T14:24:20Z</time>
      </trkpt>
      <trkpt lat="48.60423" lon="7.68969">
        <ele>151.6</ele>
        <time>2020-06-28T14:24:21Z</time>
      </trkpt>
      <trkpt lat="48.60427" lon="7.68964">
        <ele>151.5</ele>
        <time>2020-06-28T14:24:22Z</time>
      </trkpt>
      <trkpt lat="48.60429" lon="7.68959">
        <ele>151.5</ele>
        <time>2020-06-28T14:24:23Z</time>
      </trkpt>
      <trkpt lat="48.60431" lon="7.68955">
        <ele>151.5</ele>
        <time>2020-06-28T14:24:24Z</time>
      </trkpt>
      <trkpt lat="48.60435" lon="7.68948">
        <ele>151.5</ele>
        <time>2020-06-28T14:24:25Z</time>
      </trkpt>
      <trkpt lat="48.60437" lon="7.68942">
        <ele>151.4</ele>
        <time>2020-06-28T14:24:26Z</time>
      </trkpt>
      <trkpt lat="48.6044" lon="7.68937">
        <ele>151.4</ele>
        <time>2020-06-28T14:24:27Z</time>
      </trkpt>
      <trkpt lat="48.60442" lon="7.68929">
        <ele>151.3</ele>
        <time>2020-06-28T14:24:28Z</time>
      </trkpt>
      <trkpt lat="48.60445" lon="7.68923">
        <ele>151.3</ele>
        <time>2020-06-28T14:24:29Z</time>
      </trkpt>
      <trkpt lat="48.60448" lon="7.68916">
        <ele>151.3</ele>
        <time>2020-06-28T14:24:30Z</time>
      </trkpt>
      <trkpt lat="48.60451" lon="7.6891">
        <ele>151.2</ele>
        <time>2020-06-28T14:24:31Z</time>
      </trkpt>
      <trkpt lat="48.60453" lon="7.68903">
        <ele>151.2</ele>
        <time>2020-06-28T14:24:32Z</time>
      </trkpt>
      <trkpt lat="48.60456" lon="7.68898">
        <ele>151.2</ele>
        <time>2020-06-28T14:24:33Z</time>
      </trkpt>
      <trkpt lat="48.60459" lon="7.68892">
        <ele>151.2</ele>
        <time>2020-06-28T14:24:34Z</time>
      </trkpt>
      <trkpt lat="48.60461" lon="7.68885">
        <ele>151.2</ele>
        <time>2020-06-28T14:24:35Z</time>
      </trkpt>
      <trkpt lat="48.60463" lon="7.68879">
        <ele>151.1</ele>
        <time>2020-06-28T14:24:36Z</time>
      </trkpt>
      <trkpt lat="48.60464" lon="7.68873">
        <ele>151.1</ele>
        <time>2020-06-28T14:24:37Z</time>
      </trkpt>
      <trkpt lat="48.60467" lon="7.68868">
        <ele>151.1</ele>
        <time>2020-06-28T14:24:38Z</time>
      </trkpt>
      <trkpt lat="48.60468" lon="7.68863">
        <ele>151.1</ele>
        <time>2020-06-28T14:24:39Z</time>
      </trkpt>
      <trkpt lat="48.60471" lon="7.68857">
        <ele>151</ele>
        <time>2020-06-28T14:24:40Z</time>
      </trkpt>
      <trkpt lat="48.60473" lon="7.6885">
        <ele>151</ele>
        <time>2020-06-28T14:24:41Z</time>
      </trkpt>
      <trkpt lat="48.60476" lon="7.68846">
        <ele>151</ele>
        <time>2020-06-28T14:24:42Z</time>
      </trkpt>
      <trkpt lat="48.60478" lon="7.6884">
        <ele>151</ele>
        <time>2020-06-28T14:24:43Z</time>
      </trkpt>
      <trkpt lat="48.6048" lon="7.68833">
        <ele>151</ele>
        <time>2020-06-28T14:24:44Z</time>
      </trkpt>
      <trkpt lat="48.60483" lon="7.68826">
        <ele>151</ele>
        <time>2020-06-28T14:24:45Z</time>
      </trkpt>
      <trkpt lat="48.60486" lon="7.6882">
        <ele>151</ele>
        <time>2020-06-28T14:24:46Z</time>
      </trkpt>
      <trkpt lat="48.60486" lon="7.68812">
        <ele>150.9</ele>
        <time>2020-06-28T14:24:47Z</time>
      </trkpt>
      <trkpt lat="48.60487" lon="7.68803">
        <ele>150.9</ele>
        <time>2020-06-28T14:24:48Z</time>
      </trkpt>
      <trkpt lat="48.60489" lon="7.68795">
        <ele>150.9</ele>
        <time>2020-06-28T14:24:49Z</time>
      </trkpt>
      <trkpt lat="48.60492" lon="7.68788">
        <ele>150.9</ele>
        <time>2020-06-28T14:24:50Z</time>
      </trkpt>
      <trkpt lat="48.60492" lon="7.68781">
        <ele>150.9</ele>
        <time>2020-06-28T14:24:51Z</time>
      </trkpt>
      <trkpt lat="48.60493" lon="7.68775">
        <ele>150.8</ele>
        <time>2020-06-28T14:24:52Z</time>
      </trkpt>
      <trkpt lat="48.60494" lon="7.68768">
        <ele>150.8</ele>
        <time>2020-06-28T14:24:53Z</time>
      </trkpt>
      <trkpt lat="48.60498" lon="7.68764">
        <ele>150.8</ele>
        <time>2020-06-28T14:24:54Z</time>
      </trkpt>
      <trkpt lat="48.605" lon="7.68756">
        <ele>150.8</ele>
        <time>2020-06-28T14:24:55Z</time>
      </trkpt>
      <trkpt lat="48.60501" lon="7.68747">
        <ele>150.8</ele>
        <time>2020-06-28T14:24:56Z</time>
      </trkpt>
      <trkpt lat="48.60503" lon="7.68739">
        <ele>150.9</ele>
        <time>2020-06-28T14:24:57Z</time>
      </trkpt>
      <trkpt lat="48.60504" lon="7.68732">
        <ele>150.8</ele>
        <time>2020-06-28T14:24:58Z</time>
      </trkpt>
      <trkpt lat="48.60505" lon="7.68725">
        <ele>150.8</ele>
        <time>2020-06-28T14:24:59Z</time>
      </trkpt>
      <trkpt lat="48.60506" lon="7.6872">
        <ele>150.8</ele>
        <time>2020-06-28T14:25:00Z</time>
      </trkpt>
      <trkpt lat="48.60507" lon="7.68713">
        <ele>150.7</ele>
        <time>2020-06-28T14:25:01Z</time>
      </trkpt>
      <trkpt lat="48.60511" lon="7.6871">
        <ele>150.7</ele>
        <time>2020-06-28T14:25:02Z</time>
      </trkpt>
      <trkpt lat="48.60512" lon="7.68703">
        <ele>150.7</ele>
        <time>2020-06-28T14:25:03Z</time>
      </trkpt>
      <trkpt lat="48.60513" lon="7.68698">
        <ele>150.6</ele>
        <time>2020-06-28T14:25:04Z</time>
      </trkpt>
      <trkpt lat="48.60514" lon="7.68693">
        <ele>150.6</ele>
        <time>2020-06-28T14:25:05Z</time>
      </trkpt>
      <trkpt lat="48.60517" lon="7.68687">
        <ele>150.6</ele>
        <time>2020-06-28T14:25:06Z</time>
      </trkpt>
      <trkpt lat="48.60518" lon="7.6868">
        <ele>150.6</ele>
        <time>2020-06-28T14:25:07Z</time>
      </trkpt>
      <trkpt lat="48.60519" lon="7.68673">
        <ele>150.5</ele>
        <time>2020-06-28T14:25:08Z</time>
      </trkpt>
      <trkpt lat="48.60521" lon="7.68667">
        <ele>150.5</ele>
        <time>2020-06-28T14:25:09Z</time>
      </trkpt>
      <trkpt lat="48.60522" lon="7.6866">
        <ele>150.4</ele>
        <time>2020-06-28T14:25:10Z</time>
      </trkpt>
      <trkpt lat="48.60524" lon="7.68652">
        <ele>150.4</ele>
        <time>2020-06-28T14:25:11Z</time>
      </trkpt>
      <trkpt lat="48.60525" lon="7.68644">
        <ele>150.4</ele>
        <time>2020-06-28T14:25:12Z</time>
      </trkpt>
      <trkpt lat="48.60526" lon="7.68637">
        <ele>150.3</ele>
        <time>2020-06-28T14:25:13Z</time>
      </trkpt>
      <trkpt lat="48.60528" lon="7.6863">
        <ele>150.3</ele>
        <time>2020-06-28T14:25:14Z</time>
      </trkpt>
      <trkpt lat="48.6053" lon="7.68623">
        <ele>150.3</ele>
        <time>2020-06-28T14:25:15Z</time>
      </trkpt>
      <trkpt lat="48.60531" lon="7.68616">
        <ele>150.3</ele>
        <time>2020-06-28T14:25:16Z</time>
      </trkpt>
      <trkpt lat="48.60532" lon="7.68609">
        <ele>150.3</ele>
        <time>2020-06-28T14:25:17Z</time>
      </trkpt>
      <trkpt lat="48.60533" lon="7.68603">
        <ele>150.3</ele>
        <time>2020-06-28T14:25:18Z</time>
      </trkpt>
      <trkpt lat="48.60535" lon="7.68597">
        <ele>150.3</ele>
        <time>2020-06-28T14:25:19Z</time>
      </trkpt>
      <trkpt lat="48.60536" lon="7.68591">
        <ele>150.2</ele>
        <time>2020-06-28T14:25:20Z</time>
      </trkpt>
      <trkpt lat="48.60537" lon="7.68585">
        <ele>150.2</ele>
        <time>2020-06-28T14:25:21Z</time>
      </trkpt>
      <trkpt lat="48.60537" lon="7.68576">
        <ele>150.2</ele>
        <time>2020-06-28T14:25:22Z</time>
      </trkpt>
      <trkpt lat="48.60539" lon="7.68568">
        <ele>150.2</ele>
        <time>2020-06-28T14:25:23Z</time>
      </trkpt>
      <trkpt lat="48.60541" lon="7.68561">
        <ele>150.2</ele>
        <time>2020-06-28T14:25:24Z</time>
      </trkpt>
      <trkpt lat="48.60544" lon="7.68555">
        <ele>150.2</ele>
        <time>2020-06-28T14:25:25Z</time>
      </trkpt>
      <trkpt lat="48.60546" lon="7.68548">
        <ele>150.2</ele>
        <time>2020-06-28T14:25:26Z</time>
      </trkpt>
      <trkpt lat="48.60548" lon="7.68541">
        <ele>150.2</ele>
        <time>2020-06-28T14:25:27Z</time>
      </trkpt>
      <trkpt lat="48.60551" lon="7.68535">
        <ele>150.2</ele>
        <time>2020-06-28T14:25:28Z</time>
      </trkpt>
      <trkpt lat="48.60552" lon="7.68526">
        <ele>150.2</ele>
        <time>2020-06-28T14:25:29Z</time>
      </trkpt>
      <trkpt lat="48.60554" lon="7.68519">
        <ele>150.2</ele>
        <time>2020-06-28T14:25:30Z</time>
      </trkpt>
      <trkpt lat="48.60556" lon="7.68512">
        <ele>150.2</ele>
        <time>2020-06-28T14:25:31Z</time>
      </trkpt>
      <trkpt lat="48.60559" lon="7.68507">
        <ele>150.2</ele>
        <time>2020-06-28T14:25:32Z</time>
      </trkpt>
      <trkpt lat="48.60561" lon="7.68501">
        <ele>150.2</ele>
        <time>2020-06-28T14:25:33Z</time>
      </trkpt>
      <trkpt lat="48.60563" lon="7.68495">
        <ele>150.1</ele>
        <time>2020-06-28T14:25:34Z</time>
      </trkpt>
      <trkpt lat="48.60566" lon="7.68488">
        <ele>150.1</ele>
        <time>2020-06-28T14:25:35Z</time>
      </trkpt>
      <trkpt lat="48.60568" lon="7.68481">
        <ele>150.1</ele>
        <time>2020-06-28T14:25:36Z</time>
      </trkpt>
      <trkpt lat="48.60569" lon="7.68473">
        <ele>150.1</ele>
        <time>2020-06-28T14:25:37Z</time>
      </trkpt>
      <trkpt lat="48.60572" lon="7.68465">
        <ele>150</ele>
        <time>2020-06-28T14:25:38Z</time>
      </trkpt>
      <trkpt lat="48.60573" lon="7.68458">
        <ele>150</ele>
        <time>2020-06-28T14:25:39Z</time>
      </trkpt>
      <trkpt lat="48.60575" lon="7.6845">
        <ele>150</ele>
        <time>2020-06-28T14:25:40Z</time>
      </trkpt>
      <trkpt lat="48.60577" lon="7.68443">
        <ele>150</ele>
        <time>2020-06-28T14:25:41Z</time>
      </trkpt>
      <trkpt lat="48.60579" lon="7.68437">
        <ele>150</ele>
        <time>2020-06-28T14:25:42Z</time>
      </trkpt>
      <trkpt lat="48.6058" lon="7.6843">
        <ele>149.9</ele>
        <time>2020-06-28T14:25:43Z</time>
      </trkpt>
      <trkpt lat="48.60582" lon="7.68423">
        <ele>149.9</ele>
        <time>2020-06-28T14:25:44Z</time>
      </trkpt>
      <trkpt lat="48.60584" lon="7.68417">
        <ele>149.9</ele>
        <time>2020-06-28T14:25:45Z</time>
      </trkpt>
      <trkpt lat="48.60585" lon="7.68409">
        <ele>149.9</ele>
        <time>2020-06-28T14:25:46Z</time>
      </trkpt>
      <trkpt lat="48.60588" lon="7.68403">
        <ele>149.9</ele>
        <time>2020-06-28T14:25:47Z</time>
      </trkpt>
      <trkpt lat="48.6059" lon="7.68396">
        <ele>149.9</ele>
        <time>2020-06-28T14:25:48Z</time>
      </trkpt>
      <trkpt lat="48.60592" lon="7.68389">
        <ele>149.9</ele>
        <time>2020-06-28T14:25:49Z</time>
      </trkpt>
      <trkpt lat="48.60595" lon="7.68383">
        <ele>149.9</ele>
        <time>2020-06-28T14:25:50Z</time>
      </trkpt>
      <trkpt lat="48.60597" lon="7.68376">
        <ele>149.8</ele>
        <time>2020-06-28T14:25:51Z</time>
      </trkpt>
      <trkpt lat="48.606" lon="7.68369">
        <ele>149.8</ele>
        <time>2020-06-28T14:25:52Z</time>
      </trkpt>
      <trkpt lat="48.60601" lon="7.6836">
        <ele>149.8</ele>
        <time>2020-06-28T14:25:53Z</time>
      </trkpt>
      <trkpt lat="48.60603" lon="7.68354">
        <ele>149.7</ele>
        <time>2020-06-28T14:25:54Z</time>
      </trkpt>
      <trkpt lat="48.60605" lon="7.68348">
        <ele>149.7</ele>
        <time>2020-06-28T14:25:55Z</time>
      </trkpt>
      <trkpt lat="48.60607" lon="7.68342">
        <ele>149.7</ele>
        <time>2020-06-28T14:25:56Z</time>
      </trkpt>
      <trkpt lat="48.6061" lon="7.68335">
        <ele>149.7</ele>
        <time>2020-06-28T14:25:57Z</time>
      </trkpt>
      <trkpt lat="48.60612" lon="7.68327">
        <ele>149.6</ele>
        <time>2020-06-28T14:25:58Z</time>
      </trkpt>
      <trkpt lat="48.60614" lon="7.68319">
        <ele>149.6</ele>
        <time>2020-06-28T14:25:59Z</time>
      </trkpt>
      <trkpt lat="48.60615" lon="7.68311">
        <ele>149.6</ele>
        <time>2020-06-28T14:26:00Z</time>
      </trkpt>
      <trkpt lat="48.60616" lon="7.68303">
        <ele>149.5</ele>
        <time>2020-06-28T14:26:01Z</time>
      </trkpt>
      <trkpt lat="48.60619" lon="7.68295">
        <ele>149.5</ele>
        <time>2020-06-28T14:26:02Z</time>
      </trkpt>
      <trkpt lat="48.60621" lon="7.68288">
        <ele>149.5</ele>
        <time>2020-06-28T14:26:03Z</time>
      </trkpt>
      <trkpt lat="48.60623" lon="7.68281">
        <ele>149.4</ele>
        <time>2020-06-28T14:26:04Z</time>
      </trkpt>
      <trkpt lat="48.60626" lon="7.68274">
        <ele>149.4</ele>
        <time>2020-06-28T14:26:05Z</time>
      </trkpt>
      <trkpt lat="48.60628" lon="7.68266">
        <ele>149.4</ele>
        <time>2020-06-28T14:26:06Z</time>
      </trkpt>
      <trkpt lat="48.60631" lon="7.68259">
        <ele>149.4</ele>
        <time>2020-06-28T14:26:07Z</time>
      </trkpt>
      <trkpt lat="48.60633" lon="7.68253">
        <ele>149.4</ele>
        <time>2020-06-28T14:26:08Z</time>
      </trkpt>
      <trkpt lat="48.60636" lon="7.68247">
        <ele>149.4</ele>
        <time>2020-06-28T14:26:09Z</time>
      </trkpt>
      <trkpt lat="48.60639" lon="7.68241">
        <ele>149.3</ele>
        <time>2020-06-28T14:26:10Z</time>
      </trkpt>
      <trkpt lat="48.6064" lon="7.68234">
        <ele>149.3</ele>
        <time>2020-06-28T14:26:11Z</time>
      </trkpt>
      <trkpt lat="48.60641" lon="7.68227">
        <ele>149.3</ele>
        <time>2020-06-28T14:26:12Z</time>
      </trkpt>
      <trkpt lat="48.60643" lon="7.68218">
        <ele>149.3</ele>
        <time>2020-06-28T14:26:13Z</time>
      </trkpt>
      <trkpt lat="48.60645" lon="7.68211">
        <ele>149.3</ele>
        <time>2020-06-28T14:26:14Z</time>
      </trkpt>
      <trkpt lat="48.60649" lon="7.68203">
        <ele>149.3</ele>
        <time>2020-06-28T14:26:15Z</time>
      </trkpt>
      <trkpt lat="48.60651" lon="7.68196">
        <ele>149.2</ele>
        <time>2020-06-28T14:26:16Z</time>
      </trkpt>
      <trkpt lat="48.60654" lon="7.68189">
        <ele>149.2</ele>
        <time>2020-06-28T14:26:17Z</time>
      </trkpt>
      <trkpt lat="48.60656" lon="7.68181">
        <ele>149.2</ele>
        <time>2020-06-28T14:26:18Z</time>
      </trkpt>
      <trkpt lat="48.60658" lon="7.68173">
        <ele>149.3</ele>
        <time>2020-06-28T14:26:19Z</time>
      </trkpt>
      <trkpt lat="48.60664" lon="7.68167">
        <ele>149.3</ele>
        <time>2020-06-28T14:26:20Z</time>
      </trkpt>
      <trkpt lat="48.60668" lon="7.6816">
        <ele>149.4</ele>
        <time>2020-06-28T14:26:21Z</time>
      </trkpt>
      <trkpt lat="48.60671" lon="7.68152">
        <ele>149.4</ele>
        <time>2020-06-28T14:26:22Z</time>
      </trkpt>
      <trkpt lat="48.60673" lon="7.68145">
        <ele>149.4</ele>
        <time>2020-06-28T14:26:23Z</time>
      </trkpt>
      <trkpt lat="48.60675" lon="7.68137">
        <ele>149.4</ele>
        <time>2020-06-28T14:26:24Z</time>
      </trkpt>
      <trkpt lat="48.60679" lon="7.68129">
        <ele>149.5</ele>
        <time>2020-06-28T14:26:25Z</time>
      </trkpt>
      <trkpt lat="48.60682" lon="7.68122">
        <ele>149.5</ele>
        <time>2020-06-28T14:26:26Z</time>
      </trkpt>
      <trkpt lat="48.60685" lon="7.68114">
        <ele>149.5</ele>
        <time>2020-06-28T14:26:27Z</time>
      </trkpt>
      <trkpt lat="48.60687" lon="7.68107">
        <ele>149.6</ele>
        <time>2020-06-28T14:26:28Z</time>
      </trkpt>
      <trkpt lat="48.60689" lon="7.68101">
        <ele>149.6</ele>
        <time>2020-06-28T14:26:29Z</time>
      </trkpt>
      <trkpt lat="48.60691" lon="7.68094">
        <ele>149.7</ele>
        <time>2020-06-28T14:26:30Z</time>
      </trkpt>
      <trkpt lat="48.60692" lon="7.68087">
        <ele>149.8</ele>
        <time>2020-06-28T14:26:31Z</time>
      </trkpt>
      <trkpt lat="48.60694" lon="7.6808">
        <ele>149.8</ele>
        <time>2020-06-28T14:26:32Z</time>
      </trkpt>
      <trkpt lat="48.60696" lon="7.68071">
        <ele>149.9</ele>
        <time>2020-06-28T14:26:33Z</time>
      </trkpt>
      <trkpt lat="48.60698" lon="7.68064">
        <ele>150</ele>
        <time>2020-06-28T14:26:34Z</time>
      </trkpt>
      <trkpt lat="48.60701" lon="7.68057">
        <ele>150.1</ele>
        <time>2020-06-28T14:26:35Z</time>
      </trkpt>
      <trkpt lat="48.60703" lon="7.68049">
        <ele>150.2</ele>
        <time>2020-06-28T14:26:36Z</time>
      </trkpt>
      <trkpt lat="48.60704" lon="7.68042">
        <ele>150.4</ele>
        <time>2020-06-28T14:26:37Z</time>
      </trkpt>
      <trkpt lat="48.60706" lon="7.68035">
        <ele>150.5</ele>
        <time>2020-06-28T14:26:38Z</time>
      </trkpt>
      <trkpt lat="48.60708" lon="7.68027">
        <ele>150.6</ele>
        <time>2020-06-28T14:26:39Z</time>
      </trkpt>
      <trkpt lat="48.60709" lon="7.68021">
        <ele>150.7</ele>
        <time>2020-06-28T14:26:40Z</time>
      </trkpt>
      <trkpt lat="48.6071" lon="7.68014">
        <ele>150.8</ele>
        <time>2020-06-28T14:26:41Z</time>
      </trkpt>
      <trkpt lat="48.60712" lon="7.68007">
        <ele>150.9</ele>
        <time>2020-06-28T14:26:42Z</time>
      </trkpt>
      <trkpt lat="48.60714" lon="7.68001">
        <ele>150.9</ele>
        <time>2020-06-28T14:26:43Z</time>
      </trkpt>
      <trkpt lat="48.60714" lon="7.67995">
        <ele>151</ele>
        <time>2020-06-28T14:26:44Z</time>
      </trkpt>
      <trkpt lat="48.60715" lon="7.67988">
        <ele>151</ele>
        <time>2020-06-28T14:26:45Z</time>
      </trkpt>
      <trkpt lat="48.60716" lon="7.67983">
        <ele>151</ele>
        <time>2020-06-28T14:26:46Z</time>
      </trkpt>
      <trkpt lat="48.60716" lon="7.67976">
        <ele>151.1</ele>
        <time>2020-06-28T14:26:47Z</time>
      </trkpt>
      <trkpt lat="48.60717" lon="7.67969">
        <ele>151.1</ele>
        <time>2020-06-28T14:26:48Z</time>
      </trkpt>
      <trkpt lat="48.60718" lon="7.67963">
        <ele>151.1</ele>
        <time>2020-06-28T14:26:49Z</time>
      </trkpt>
      <trkpt lat="48.60719" lon="7.67956">
        <ele>151.2</ele>
        <time>2020-06-28T14:26:50Z</time>
      </trkpt>
      <trkpt lat="48.60721" lon="7.6795">
        <ele>151.2</ele>
        <time>2020-06-28T14:26:51Z</time>
      </trkpt>
      <trkpt lat="48.60723" lon="7.67944">
        <ele>151.3</ele>
        <time>2020-06-28T14:26:52Z</time>
      </trkpt>
      <trkpt lat="48.60724" lon="7.67937">
        <ele>151.3</ele>
        <time>2020-06-28T14:26:53Z</time>
      </trkpt>
      <trkpt lat="48.60726" lon="7.6793">
        <ele>151.4</ele>
        <time>2020-06-28T14:26:54Z</time>
      </trkpt>
      <trkpt lat="48.60728" lon="7.67923">
        <ele>151.4</ele>
        <time>2020-06-28T14:26:55Z</time>
      </trkpt>
      <trkpt lat="48.6073" lon="7.67917">
        <ele>151.5</ele>
        <time>2020-06-28T14:26:56Z</time>
      </trkpt>
      <trkpt lat="48.60732" lon="7.67911">
        <ele>151.5</ele>
        <time>2020-06-28T14:26:57Z</time>
      </trkpt>
      <trkpt lat="48.60734" lon="7.67904">
        <ele>151.6</ele>
        <time>2020-06-28T14:26:58Z</time>
      </trkpt>
      <trkpt lat="48.60736" lon="7.67898">
        <ele>151.7</ele>
        <time>2020-06-28T14:26:59Z</time>
      </trkpt>
      <trkpt lat="48.60737" lon="7.67892">
        <ele>151.7</ele>
        <time>2020-06-28T14:27:00Z</time>
      </trkpt>
      <trkpt lat="48.60738" lon="7.67886">
        <ele>151.8</ele>
        <time>2020-06-28T14:27:01Z</time>
      </trkpt>
      <trkpt lat="48.60739" lon="7.6788">
        <ele>151.8</ele>
        <time>2020-06-28T14:27:02Z</time>
      </trkpt>
      <trkpt lat="48.60741" lon="7.67871">
        <ele>151.9</ele>
        <time>2020-06-28T14:27:03Z</time>
      </trkpt>
      <trkpt lat="48.60744" lon="7.67865">
        <ele>152</ele>
        <time>2020-06-28T14:27:04Z</time>
      </trkpt>
      <trkpt lat="48.60747" lon="7.67858">
        <ele>152.1</ele>
        <time>2020-06-28T14:27:05Z</time>
      </trkpt>
      <trkpt lat="48.60748" lon="7.67852">
        <ele>152.1</ele>
        <time>2020-06-28T14:27:06Z</time>
      </trkpt>
      <trkpt lat="48.60749" lon="7.67846">
        <ele>152.2</ele>
        <time>2020-06-28T14:27:07Z</time>
      </trkpt>
      <trkpt lat="48.6075" lon="7.6784">
        <ele>152.2</ele>
        <time>2020-06-28T14:27:08Z</time>
      </trkpt>
      <trkpt lat="48.60752" lon="7.67836">
        <ele>152.3</ele>
        <time>2020-06-28T14:27:09Z</time>
      </trkpt>
      <trkpt lat="48.60756" lon="7.67833">
        <ele>152.3</ele>
        <time>2020-06-28T14:27:10Z</time>
      </trkpt>
      <trkpt lat="48.60759" lon="7.67829">
        <ele>152.4</ele>
        <time>2020-06-28T14:27:11Z</time>
      </trkpt>
      <trkpt lat="48.60762" lon="7.67825">
        <ele>152.5</ele>
        <time>2020-06-28T14:27:12Z</time>
      </trkpt>
      <trkpt lat="48.60767" lon="7.67819">
        <ele>152.6</ele>
        <time>2020-06-28T14:27:13Z</time>
      </trkpt>
      <trkpt lat="48.60768" lon="7.67813">
        <ele>152.8</ele>
        <time>2020-06-28T14:27:14Z</time>
      </trkpt>
      <trkpt lat="48.6077" lon="7.67808">
        <ele>152.9</ele>
        <time>2020-06-28T14:27:15Z</time>
      </trkpt>
      <trkpt lat="48.60771" lon="7.67802">
        <ele>152.9</ele>
        <time>2020-06-28T14:27:16Z</time>
      </trkpt>
      <trkpt lat="48.60771" lon="7.67795">
        <ele>152.9</ele>
        <time>2020-06-28T14:27:17Z</time>
      </trkpt>
      <trkpt lat="48.60771" lon="7.67788">
        <ele>152.9</ele>
        <time>2020-06-28T14:27:18Z</time>
      </trkpt>
      <trkpt lat="48.60771" lon="7.67782">
        <ele>152.9</ele>
        <time>2020-06-28T14:27:19Z</time>
      </trkpt>
      <trkpt lat="48.60772" lon="7.67776">
        <ele>152.9</ele>
        <time>2020-06-28T14:27:20Z</time>
      </trkpt>
      <trkpt lat="48.60773" lon="7.67771">
        <ele>153.2</ele>
        <time>2020-06-28T14:27:21Z</time>
      </trkpt>
      <trkpt lat="48.60774" lon="7.67765">
        <ele>153.3</ele>
        <time>2020-06-28T14:27:22Z</time>
      </trkpt>
      <trkpt lat="48.60775" lon="7.6776">
        <ele>153.5</ele>
        <time>2020-06-28T14:27:23Z</time>
      </trkpt>
      <trkpt lat="48.60777" lon="7.67755">
        <ele>153.6</ele>
        <time>2020-06-28T14:27:24Z</time>
      </trkpt>
      <trkpt lat="48.60779" lon="7.67748">
        <ele>153.6</ele>
        <time>2020-06-28T14:27:25Z</time>
      </trkpt>
      <trkpt lat="48.60781" lon="7.67741">
        <ele>153.6</ele>
        <time>2020-06-28T14:27:26Z</time>
      </trkpt>
      <trkpt lat="48.60786" lon="7.67736">
        <ele>153.6</ele>
        <time>2020-06-28T14:27:27Z</time>
      </trkpt>
      <trkpt lat="48.60789" lon="7.6773">
        <ele>153.6</ele>
        <time>2020-06-28T14:27:28Z</time>
      </trkpt>
      <trkpt lat="48.60791" lon="7.67724">
        <ele>153.6</ele>
        <time>2020-06-28T14:27:29Z</time>
      </trkpt>
      <trkpt lat="48.60794" lon="7.67717">
        <ele>153.6</ele>
        <time>2020-06-28T14:27:30Z</time>
      </trkpt>
      <trkpt lat="48.60796" lon="7.6771">
        <ele>153.6</ele>
        <time>2020-06-28T14:27:31Z</time>
      </trkpt>
      <trkpt lat="48.60799" lon="7.67704">
        <ele>153.6</ele>
        <time>2020-06-28T14:27:32Z</time>
      </trkpt>
      <trkpt lat="48.60802" lon="7.67698">
        <ele>153.6</ele>
        <time>2020-06-28T14:27:33Z</time>
      </trkpt>
      <trkpt lat="48.60805" lon="7.67691">
        <ele>153.6</ele>
        <time>2020-06-28T14:27:34Z</time>
      </trkpt>
      <trkpt lat="48.60807" lon="7.67684">
        <ele>153.6</ele>
        <time>2020-06-28T14:27:35Z</time>
      </trkpt>
      <trkpt lat="48.6081" lon="7.67679">
        <ele>153.7</ele>
        <time>2020-06-28T14:27:36Z</time>
      </trkpt>
      <trkpt lat="48.60812" lon="7.67672">
        <ele>153.7</ele>
        <time>2020-06-28T14:27:37Z</time>
      </trkpt>
      <trkpt lat="48.60814" lon="7.67665">
        <ele>153.8</ele>
        <time>2020-06-28T14:27:38Z</time>
      </trkpt>
      <trkpt lat="48.60817" lon="7.67659">
        <ele>153.8</ele>
        <time>2020-06-28T14:27:39Z</time>
      </trkpt>
      <trkpt lat="48.60819" lon="7.67653">
        <ele>153.9</ele>
        <time>2020-06-28T14:27:40Z</time>
      </trkpt>
      <trkpt lat="48.60821" lon="7.67647">
        <ele>153.9</ele>
        <time>2020-06-28T14:27:41Z</time>
      </trkpt>
      <trkpt lat="48.60823" lon="7.67641">
        <ele>154</ele>
        <time>2020-06-28T14:27:42Z</time>
      </trkpt>
      <trkpt lat="48.60823" lon="7.67636">
        <ele>154</ele>
        <time>2020-06-28T14:27:43Z</time>
      </trkpt>
      <trkpt lat="48.60825" lon="7.6763">
        <ele>154.1</ele>
        <time>2020-06-28T14:27:44Z</time>
      </trkpt>
      <trkpt lat="48.60826" lon="7.67624">
        <ele>154.2</ele>
        <time>2020-06-28T14:27:45Z</time>
      </trkpt>
      <trkpt lat="48.60828" lon="7.67619">
        <ele>154.2</ele>
        <time>2020-06-28T14:27:46Z</time>
      </trkpt>
      <trkpt lat="48.6083" lon="7.67614">
        <ele>154.3</ele>
        <time>2020-06-28T14:27:47Z</time>
      </trkpt>
      <trkpt lat="48.60832" lon="7.67608">
        <ele>154.3</ele>
        <time>2020-06-28T14:27:48Z</time>
      </trkpt>
      <trkpt lat="48.60834" lon="7.67602">
        <ele>154.4</ele>
        <time>2020-06-28T14:27:49Z</time>
      </trkpt>
      <trkpt lat="48.60837" lon="7.67598">
        <ele>154.4</ele>
        <time>2020-06-28T14:27:50Z</time>
      </trkpt>
      <trkpt lat="48.60839" lon="7.67591">
        <ele>154.5</ele>
        <time>2020-06-28T14:27:51Z</time>
      </trkpt>
      <trkpt lat="48.60841" lon="7.67584">
        <ele>154.5</ele>
        <time>2020-06-28T14:27:52Z</time>
      </trkpt>
      <trkpt lat="48.60843" lon="7.67578">
        <ele>154.6</ele>
        <time>2020-06-28T14:27:53Z</time>
      </trkpt>
      <trkpt lat="48.60844" lon="7.67572">
        <ele>154.6</ele>
        <time>2020-06-28T14:27:54Z</time>
      </trkpt>
      <trkpt lat="48.60846" lon="7.67566">
        <ele>154.6</ele>
        <time>2020-06-28T14:27:55Z</time>
      </trkpt>
      <trkpt lat="48.60848" lon="7.6756">
        <ele>154.7</ele>
        <time>2020-06-28T14:27:56Z</time>
      </trkpt>
      <trkpt lat="48.6085" lon="7.67553">
        <ele>154.8</ele>
        <time>2020-06-28T14:27:57Z</time>
      </trkpt>
      <trkpt lat="48.60851" lon="7.67546">
        <ele>154.8</ele>
        <time>2020-06-28T14:27:58Z</time>
      </trkpt>
      <trkpt lat="48.60853" lon="7.67539">
        <ele>154.9</ele>
        <time>2020-06-28T14:27:59Z</time>
      </trkpt>
      <trkpt lat="48.60855" lon="7.67533">
        <ele>155</ele>
        <time>2020-06-28T14:28:00Z</time>
      </trkpt>
      <trkpt lat="48.60856" lon="7.67527">
        <ele>155</ele>
        <time>2020-06-28T14:28:01Z</time>
      </trkpt>
      <trkpt lat="48.60858" lon="7.67522">
        <ele>155.1</ele>
        <time>2020-06-28T14:28:02Z</time>
      </trkpt>
      <trkpt lat="48.60861" lon="7.67518">
        <ele>155.1</ele>
        <time>2020-06-28T14:28:03Z</time>
      </trkpt>
      <trkpt lat="48.60863" lon="7.67515">
        <ele>155.1</ele>
        <time>2020-06-28T14:28:04Z</time>
      </trkpt>
      <trkpt lat="48.60866" lon="7.67512">
        <ele>155.2</ele>
        <time>2020-06-28T14:28:05Z</time>
      </trkpt>
      <trkpt lat="48.6087" lon="7.67509">
        <ele>155.2</ele>
        <time>2020-06-28T14:28:06Z</time>
      </trkpt>
      <trkpt lat="48.60872" lon="7.67504">
        <ele>155.1</ele>
        <time>2020-06-28T14:28:07Z</time>
      </trkpt>
      <trkpt lat="48.60872" lon="7.67503">
        <ele>155.1</ele>
        <time>2020-06-28T14:28:08Z</time>
      </trkpt>
      <trkpt lat="48.60874" lon="7.67498">
        <ele>155.1</ele>
        <time>2020-06-28T14:28:09Z</time>
      </trkpt>
      <trkpt lat="48.60875" lon="7.67494">
        <ele>155.1</ele>
        <time>2020-06-28T14:28:10Z</time>
      </trkpt>
      <trkpt lat="48.60878" lon="7.67489">
        <ele>155.1</ele>
        <time>2020-06-28T14:28:11Z</time>
      </trkpt>
      <trkpt lat="48.6088" lon="7.67484">
        <ele>155.1</ele>
        <time>2020-06-28T14:28:12Z</time>
      </trkpt>
      <trkpt lat="48.60882" lon="7.67478">
        <ele>155.1</ele>
        <time>2020-06-28T14:28:13Z</time>
      </trkpt>
      <trkpt lat="48.60883" lon="7.67472">
        <ele>155.1</ele>
        <time>2020-06-28T14:28:14Z</time>
      </trkpt>
      <trkpt lat="48.60885" lon="7.67467">
        <ele>155.1</ele>
        <time>2020-06-28T14:28:15Z</time>
      </trkpt>
      <trkpt lat="48.60888" lon="7.67462">
        <ele>155.1</ele>
        <time>2020-06-28T14:28:16Z</time>
      </trkpt>
      <trkpt lat="48.60891" lon="7.67457">
        <ele>155.1</ele>
        <time>2020-06-28T14:28:17Z</time>
      </trkpt>
      <trkpt lat="48.60893" lon="7.67452">
        <ele>155.1</ele>
        <time>2020-06-28T14:28:18Z</time>
      </trkpt>
      <trkpt lat="48.60896" lon="7.67445">
        <ele>155.1</ele>
        <time>2020-06-28T14:28:19Z</time>
      </trkpt>
      <trkpt lat="48.60898" lon="7.6744">
        <ele>155</ele>
        <time>2020-06-28T14:28:20Z</time>
      </trkpt>
      <trkpt lat="48.60901" lon="7.67435">
        <ele>155</ele>
        <time>2020-06-28T14:28:21Z</time>
      </trkpt>
      <trkpt lat="48.60903" lon="7.67429">
        <ele>155</ele>
        <time>2020-06-28T14:28:22Z</time>
      </trkpt>
      <trkpt lat="48.60905" lon="7.67424">
        <ele>155</ele>
        <time>2020-06-28T14:28:23Z</time>
      </trkpt>
      <trkpt lat="48.60907" lon="7.67417">
        <ele>155</ele>
        <time>2020-06-28T14:28:24Z</time>
      </trkpt>
      <trkpt lat="48.60909" lon="7.67411">
        <ele>155</ele>
        <time>2020-06-28T14:28:25Z</time>
      </trkpt>
      <trkpt lat="48.60912" lon="7.67405">
        <ele>155.1</ele>
        <time>2020-06-28T14:28:26Z</time>
      </trkpt>
      <trkpt lat="48.60914" lon="7.674">
        <ele>155.1</ele>
        <time>2020-06-28T14:28:27Z</time>
      </trkpt>
      <trkpt lat="48.60916" lon="7.67395">
        <ele>155.1</ele>
        <time>2020-06-28T14:28:28Z</time>
      </trkpt>
      <trkpt lat="48.60919" lon="7.67389">
        <ele>155.2</ele>
        <time>2020-06-28T14:28:29Z</time>
      </trkpt>
      <trkpt lat="48.60921" lon="7.67383">
        <ele>155.3</ele>
        <time>2020-06-28T14:28:30Z</time>
      </trkpt>
      <trkpt lat="48.60923" lon="7.67377">
        <ele>155.3</ele>
        <time>2020-06-28T14:28:31Z</time>
      </trkpt>
      <trkpt lat="48.60926" lon="7.67371">
        <ele>155.4</ele>
        <time>2020-06-28T14:28:32Z</time>
      </trkpt>
      <trkpt lat="48.60928" lon="7.67366">
        <ele>155.4</ele>
        <time>2020-06-28T14:28:33Z</time>
      </trkpt>
      <trkpt lat="48.6093" lon="7.67361">
        <ele>155.5</ele>
        <time>2020-06-28T14:28:34Z</time>
      </trkpt>
      <trkpt lat="48.60932" lon="7.67356">
        <ele>155.5</ele>
        <time>2020-06-28T14:28:35Z</time>
      </trkpt>
      <trkpt lat="48.60934" lon="7.67352">
        <ele>155.6</ele>
        <time>2020-06-28T14:28:36Z</time>
      </trkpt>
      <trkpt lat="48.60937" lon="7.67347">
        <ele>155.6</ele>
        <time>2020-06-28T14:28:37Z</time>
      </trkpt>
      <trkpt lat="48.60939" lon="7.67342">
        <ele>155.6</ele>
        <time>2020-06-28T14:28:38Z</time>
      </trkpt>
      <trkpt lat="48.60941" lon="7.67337">
        <ele>155.6</ele>
        <time>2020-06-28T14:28:39Z</time>
      </trkpt>
      <trkpt lat="48.60944" lon="7.67331">
        <ele>155.6</ele>
        <time>2020-06-28T14:28:40Z</time>
      </trkpt>
      <trkpt lat="48.60946" lon="7.67327">
        <ele>155.6</ele>
        <time>2020-06-28T14:28:41Z</time>
      </trkpt>
      <trkpt lat="48.60949" lon="7.67321">
        <ele>155.6</ele>
        <time>2020-06-28T14:28:42Z</time>
      </trkpt>
      <trkpt lat="48.60952" lon="7.67316">
        <ele>155.6</ele>
        <time>2020-06-28T14:28:43Z</time>
      </trkpt>
      <trkpt lat="48.60954" lon="7.67311">
        <ele>155.6</ele>
        <time>2020-06-28T14:28:44Z</time>
      </trkpt>
      <trkpt lat="48.60956" lon="7.67305">
        <ele>155.6</ele>
        <time>2020-06-28T14:28:45Z</time>
      </trkpt>
      <trkpt lat="48.60959" lon="7.67299">
        <ele>155.5</ele>
        <time>2020-06-28T14:28:46Z</time>
      </trkpt>
      <trkpt lat="48.60963" lon="7.67294">
        <ele>155.5</ele>
        <time>2020-06-28T14:28:47Z</time>
      </trkpt>
      <trkpt lat="48.60965" lon="7.67289">
        <ele>155.5</ele>
        <time>2020-06-28T14:28:48Z</time>
      </trkpt>
      <trkpt lat="48.60968" lon="7.67283">
        <ele>155.5</ele>
        <time>2020-06-28T14:28:49Z</time>
      </trkpt>
      <trkpt lat="48.60971" lon="7.67276">
        <ele>155.5</ele>
        <time>2020-06-28T14:28:50Z</time>
      </trkpt>
      <trkpt lat="48.60975" lon="7.6727">
        <ele>155.4</ele>
        <time>2020-06-28T14:28:51Z</time>
      </trkpt>
      <trkpt lat="48.60978" lon="7.67264">
        <ele>155.4</ele>
        <time>2020-06-28T14:28:52Z</time>
      </trkpt>
      <trkpt lat="48.60981" lon="7.67258">
        <ele>155.4</ele>
        <time>2020-06-28T14:28:53Z</time>
      </trkpt>
      <trkpt lat="48.60984" lon="7.67253">
        <ele>155.4</ele>
        <time>2020-06-28T14:28:54Z</time>
      </trkpt>
      <trkpt lat="48.60987" lon="7.67247">
        <ele>155.4</ele>
        <time>2020-06-28T14:28:55Z</time>
      </trkpt>
      <trkpt lat="48.6099" lon="7.67241">
        <ele>155.4</ele>
        <time>2020-06-28T14:28:56Z</time>
      </trkpt>
      <trkpt lat="48.60993" lon="7.67235">
        <ele>155.4</ele>
        <time>2020-06-28T14:28:57Z</time>
      </trkpt>
      <trkpt lat="48.60996" lon="7.67229">
        <ele>155.5</ele>
        <time>2020-06-28T14:28:58Z</time>
      </trkpt>
      <trkpt lat="48.60999" lon="7.67224">
        <ele>155.5</ele>
        <time>2020-06-28T14:28:59Z</time>
      </trkpt>
      <trkpt lat="48.61001" lon="7.67218">
        <ele>155.6</ele>
        <time>2020-06-28T14:29:00Z</time>
      </trkpt>
      <trkpt lat="48.61004" lon="7.67213">
        <ele>155.6</ele>
        <time>2020-06-28T14:29:01Z</time>
      </trkpt>
      <trkpt lat="48.61007" lon="7.67207">
        <ele>155.5</ele>
        <time>2020-06-28T14:29:02Z</time>
      </trkpt>
      <trkpt lat="48.61009" lon="7.67201">
        <ele>155.5</ele>
        <time>2020-06-28T14:29:03Z</time>
      </trkpt>
      <trkpt lat="48.61012" lon="7.67195">
        <ele>155.4</ele>
        <time>2020-06-28T14:29:04Z</time>
      </trkpt>
      <trkpt lat="48.61015" lon="7.6719">
        <ele>155.4</ele>
        <time>2020-06-28T14:29:05Z</time>
      </trkpt>
      <trkpt lat="48.61019" lon="7.67184">
        <ele>155.4</ele>
        <time>2020-06-28T14:29:06Z</time>
      </trkpt>
      <trkpt lat="48.61022" lon="7.67178">
        <ele>155.4</ele>
        <time>2020-06-28T14:29:07Z</time>
      </trkpt>
      <trkpt lat="48.61023" lon="7.67172">
        <ele>155.4</ele>
        <time>2020-06-28T14:29:08Z</time>
      </trkpt>
      <trkpt lat="48.61026" lon="7.67167">
        <ele>155.5</ele>
        <time>2020-06-28T14:29:09Z</time>
      </trkpt>
      <trkpt lat="48.61028" lon="7.67161">
        <ele>155.5</ele>
        <time>2020-06-28T14:29:10Z</time>
      </trkpt>
      <trkpt lat="48.61031" lon="7.67155">
        <ele>155.6</ele>
        <time>2020-06-28T14:29:11Z</time>
      </trkpt>
      <trkpt lat="48.61034" lon="7.6715">
        <ele>155.6</ele>
        <time>2020-06-28T14:29:12Z</time>
      </trkpt>
      <trkpt lat="48.61037" lon="7.67145">
        <ele>155.7</ele>
        <time>2020-06-28T14:29:13Z</time>
      </trkpt>
      <trkpt lat="48.6104" lon="7.67139">
        <ele>155.8</ele>
        <time>2020-06-28T14:29:14Z</time>
      </trkpt>
      <trkpt lat="48.61042" lon="7.67133">
        <ele>155.8</ele>
        <time>2020-06-28T14:29:15Z</time>
      </trkpt>
      <trkpt lat="48.61045" lon="7.67127">
        <ele>155.9</ele>
        <time>2020-06-28T14:29:16Z</time>
      </trkpt>
      <trkpt lat="48.61048" lon="7.67121">
        <ele>156</ele>
        <time>2020-06-28T14:29:17Z</time>
      </trkpt>
      <trkpt lat="48.6105" lon="7.67115">
        <ele>156.1</ele>
        <time>2020-06-28T14:29:18Z</time>
      </trkpt>
      <trkpt lat="48.61053" lon="7.67109">
        <ele>156.2</ele>
        <time>2020-06-28T14:29:19Z</time>
      </trkpt>
      <trkpt lat="48.61056" lon="7.67103">
        <ele>156.3</ele>
        <time>2020-06-28T14:29:20Z</time>
      </trkpt>
      <trkpt lat="48.61059" lon="7.67098">
        <ele>156.3</ele>
        <time>2020-06-28T14:29:21Z</time>
      </trkpt>
      <trkpt lat="48.61062" lon="7.67092">
        <ele>156.3</ele>
        <time>2020-06-28T14:29:22Z</time>
      </trkpt>
      <trkpt lat="48.61066" lon="7.67086">
        <ele>156.3</ele>
        <time>2020-06-28T14:29:23Z</time>
      </trkpt>
      <trkpt lat="48.6107" lon="7.6708">
        <ele>156.4</ele>
        <time>2020-06-28T14:29:24Z</time>
      </trkpt>
      <trkpt lat="48.61073" lon="7.67074">
        <ele>156.4</ele>
        <time>2020-06-28T14:29:25Z</time>
      </trkpt>
      <trkpt lat="48.61077" lon="7.67067">
        <ele>156.4</ele>
        <time>2020-06-28T14:29:26Z</time>
      </trkpt>
      <trkpt lat="48.6108" lon="7.67061">
        <ele>156.4</ele>
        <time>2020-06-28T14:29:27Z</time>
      </trkpt>
      <trkpt lat="48.61083" lon="7.67055">
        <ele>156.4</ele>
        <time>2020-06-28T14:29:28Z</time>
      </trkpt>
      <trkpt lat="48.61087" lon="7.67049">
        <ele>156.4</ele>
        <time>2020-06-28T14:29:29Z</time>
      </trkpt>
      <trkpt lat="48.6109" lon="7.67043">
        <ele>156.5</ele>
        <time>2020-06-28T14:29:30Z</time>
      </trkpt>
      <trkpt lat="48.61094" lon="7.67038">
        <ele>156.5</ele>
        <time>2020-06-28T14:29:31Z</time>
      </trkpt>
      <trkpt lat="48.61098" lon="7.67033">
        <ele>156.5</ele>
        <time>2020-06-28T14:29:32Z</time>
      </trkpt>
      <trkpt lat="48.61101" lon="7.67026">
        <ele>156.5</ele>
        <time>2020-06-28T14:29:33Z</time>
      </trkpt>
      <trkpt lat="48.61105" lon="7.6702">
        <ele>156.6</ele>
        <time>2020-06-28T14:29:34Z</time>
      </trkpt>
      <trkpt lat="48.61109" lon="7.67014">
        <ele>156.6</ele>
        <time>2020-06-28T14:29:35Z</time>
      </trkpt>
      <trkpt lat="48.61113" lon="7.67008">
        <ele>156.7</ele>
        <time>2020-06-28T14:29:36Z</time>
      </trkpt>
      <trkpt lat="48.61117" lon="7.67003">
        <ele>156.8</ele>
        <time>2020-06-28T14:29:37Z</time>
      </trkpt>
      <trkpt lat="48.6112" lon="7.66998">
        <ele>156.8</ele>
        <time>2020-06-28T14:29:38Z</time>
      </trkpt>
      <trkpt lat="48.61123" lon="7.66993">
        <ele>156.9</ele>
        <time>2020-06-28T14:29:39Z</time>
      </trkpt>
      <trkpt lat="48.61127" lon="7.66987">
        <ele>156.9</ele>
        <time>2020-06-28T14:29:40Z</time>
      </trkpt>
      <trkpt lat="48.61131" lon="7.66981">
        <ele>157</ele>
        <time>2020-06-28T14:29:41Z</time>
      </trkpt>
      <trkpt lat="48.61134" lon="7.66973">
        <ele>157.1</ele>
        <time>2020-06-28T14:29:42Z</time>
      </trkpt>
      <trkpt lat="48.61137" lon="7.66967">
        <ele>157.2</ele>
        <time>2020-06-28T14:29:43Z</time>
      </trkpt>
      <trkpt lat="48.6114" lon="7.66962">
        <ele>157.2</ele>
        <time>2020-06-28T14:29:44Z</time>
      </trkpt>
      <trkpt lat="48.61144" lon="7.66957">
        <ele>157.3</ele>
        <time>2020-06-28T14:29:45Z</time>
      </trkpt>
      <trkpt lat="48.61147" lon="7.66953">
        <ele>157.4</ele>
        <time>2020-06-28T14:29:46Z</time>
      </trkpt>
      <trkpt lat="48.61149" lon="7.66949">
        <ele>157.5</ele>
        <time>2020-06-28T14:29:47Z</time>
      </trkpt>
      <trkpt lat="48.61152" lon="7.66944">
        <ele>157.5</ele>
        <time>2020-06-28T14:29:48Z</time>
      </trkpt>
      <trkpt lat="48.61154" lon="7.66939">
        <ele>157.6</ele>
        <time>2020-06-28T14:29:49Z</time>
      </trkpt>
      <trkpt lat="48.61157" lon="7.66934">
        <ele>157.6</ele>
        <time>2020-06-28T14:29:50Z</time>
      </trkpt>
      <trkpt lat="48.6116" lon="7.66929">
        <ele>157.7</ele>
        <time>2020-06-28T14:29:51Z</time>
      </trkpt>
      <trkpt lat="48.61163" lon="7.66923">
        <ele>157.7</ele>
        <time>2020-06-28T14:29:52Z</time>
      </trkpt>
      <trkpt lat="48.61166" lon="7.66919">
        <ele>157.8</ele>
        <time>2020-06-28T14:29:53Z</time>
      </trkpt>
      <trkpt lat="48.61169" lon="7.66913">
        <ele>157.8</ele>
        <time>2020-06-28T14:29:54Z</time>
      </trkpt>
      <trkpt lat="48.61173" lon="7.66907">
        <ele>157.9</ele>
        <time>2020-06-28T14:29:55Z</time>
      </trkpt>
      <trkpt lat="48.61177" lon="7.66901">
        <ele>157.9</ele>
        <time>2020-06-28T14:29:56Z</time>
      </trkpt>
      <trkpt lat="48.6118" lon="7.66895">
        <ele>158</ele>
        <time>2020-06-28T14:29:57Z</time>
      </trkpt>
      <trkpt lat="48.61184" lon="7.6689">
        <ele>158</ele>
        <time>2020-06-28T14:29:58Z</time>
      </trkpt>
      <trkpt lat="48.61186" lon="7.66884">
        <ele>158.1</ele>
        <time>2020-06-28T14:29:59Z</time>
      </trkpt>
      <trkpt lat="48.6119" lon="7.66879">
        <ele>158.1</ele>
        <time>2020-06-28T14:30:00Z</time>
      </trkpt>
      <trkpt lat="48.61194" lon="7.66874">
        <ele>158.1</ele>
        <time>2020-06-28T14:30:01Z</time>
      </trkpt>
      <trkpt lat="48.61198" lon="7.66868">
        <ele>158.1</ele>
        <time>2020-06-28T14:30:02Z</time>
      </trkpt>
      <trkpt lat="48.61201" lon="7.66862">
        <ele>158.1</ele>
        <time>2020-06-28T14:30:03Z</time>
      </trkpt>
      <trkpt lat="48.61204" lon="7.66856">
        <ele>158.1</ele>
        <time>2020-06-28T14:30:04Z</time>
      </trkpt>
      <trkpt lat="48.61205" lon="7.6685">
        <ele>158</ele>
        <time>2020-06-28T14:30:05Z</time>
      </trkpt>
      <trkpt lat="48.61206" lon="7.66845">
        <ele>158</ele>
        <time>2020-06-28T14:30:06Z</time>
      </trkpt>
      <trkpt lat="48.61208" lon="7.66839">
        <ele>158</ele>
        <time>2020-06-28T14:30:07Z</time>
      </trkpt>
      <trkpt lat="48.6121" lon="7.66833">
        <ele>157.9</ele>
        <time>2020-06-28T14:30:08Z</time>
      </trkpt>
      <trkpt lat="48.61212" lon="7.66827">
        <ele>157.9</ele>
        <time>2020-06-28T14:30:09Z</time>
      </trkpt>
      <trkpt lat="48.61213" lon="7.6682">
        <ele>157.8</ele>
        <time>2020-06-28T14:30:10Z</time>
      </trkpt>
      <trkpt lat="48.61216" lon="7.66814">
        <ele>157.8</ele>
        <time>2020-06-28T14:30:11Z</time>
      </trkpt>
      <trkpt lat="48.61219" lon="7.66807">
        <ele>157.7</ele>
        <time>2020-06-28T14:30:12Z</time>
      </trkpt>
      <trkpt lat="48.61222" lon="7.66798">
        <ele>157.7</ele>
        <time>2020-06-28T14:30:13Z</time>
      </trkpt>
      <trkpt lat="48.61224" lon="7.6679">
        <ele>157.7</ele>
        <time>2020-06-28T14:30:14Z</time>
      </trkpt>
      <trkpt lat="48.61228" lon="7.6678">
        <ele>157.7</ele>
        <time>2020-06-28T14:30:15Z</time>
      </trkpt>
      <trkpt lat="48.61232" lon="7.66773">
        <ele>157.7</ele>
        <time>2020-06-28T14:30:16Z</time>
      </trkpt>
      <trkpt lat="48.61235" lon="7.66763">
        <ele>157.7</ele>
        <time>2020-06-28T14:30:17Z</time>
      </trkpt>
      <trkpt lat="48.61239" lon="7.66756">
        <ele>157.7</ele>
        <time>2020-06-28T14:30:18Z</time>
      </trkpt>
      <trkpt lat="48.61243" lon="7.66748">
        <ele>157.6</ele>
        <time>2020-06-28T14:30:19Z</time>
      </trkpt>
      <trkpt lat="48.61246" lon="7.66738">
        <ele>157.6</ele>
        <time>2020-06-28T14:30:20Z</time>
      </trkpt>
      <trkpt lat="48.61249" lon="7.66728">
        <ele>157.5</ele>
        <time>2020-06-28T14:30:21Z</time>
      </trkpt>
      <trkpt lat="48.61252" lon="7.6672">
        <ele>157.5</ele>
        <time>2020-06-28T14:30:22Z</time>
      </trkpt>
      <trkpt lat="48.61255" lon="7.66713">
        <ele>157.5</ele>
        <time>2020-06-28T14:30:23Z</time>
      </trkpt>
      <trkpt lat="48.61258" lon="7.66705">
        <ele>157.5</ele>
        <time>2020-06-28T14:30:24Z</time>
      </trkpt>
      <trkpt lat="48.61262" lon="7.66696">
        <ele>157.4</ele>
        <time>2020-06-28T14:30:25Z</time>
      </trkpt>
      <trkpt lat="48.61266" lon="7.66688">
        <ele>157.2</ele>
        <time>2020-06-28T14:30:26Z</time>
      </trkpt>
      <trkpt lat="48.6127" lon="7.66679">
        <ele>157.1</ele>
        <time>2020-06-28T14:30:27Z</time>
      </trkpt>
      <trkpt lat="48.61273" lon="7.66671">
        <ele>157</ele>
        <time>2020-06-28T14:30:28Z</time>
      </trkpt>
      <trkpt lat="48.61277" lon="7.66664">
        <ele>156.9</ele>
        <time>2020-06-28T14:30:29Z</time>
      </trkpt>
      <trkpt lat="48.6128" lon="7.66656">
        <ele>156.9</ele>
        <time>2020-06-28T14:30:30Z</time>
      </trkpt>
      <trkpt lat="48.61284" lon="7.66647">
        <ele>156.8</ele>
        <time>2020-06-28T14:30:31Z</time>
      </trkpt>
      <trkpt lat="48.61287" lon="7.66639">
        <ele>156.7</ele>
        <time>2020-06-28T14:30:32Z</time>
      </trkpt>
      <trkpt lat="48.6129" lon="7.66633">
        <ele>156.7</ele>
        <time>2020-06-28T14:30:33Z</time>
      </trkpt>
      <trkpt lat="48.61293" lon="7.66625">
        <ele>156.7</ele>
        <time>2020-06-28T14:30:34Z</time>
      </trkpt>
      <trkpt lat="48.61295" lon="7.66617">
        <ele>156.7</ele>
        <time>2020-06-28T14:30:35Z</time>
      </trkpt>
      <trkpt lat="48.61298" lon="7.6661">
        <ele>156.8</ele>
        <time>2020-06-28T14:30:36Z</time>
      </trkpt>
      <trkpt lat="48.61301" lon="7.66603">
        <ele>156.8</ele>
        <time>2020-06-28T14:30:37Z</time>
      </trkpt>
      <trkpt lat="48.61304" lon="7.66597">
        <ele>156.8</ele>
        <time>2020-06-28T14:30:38Z</time>
      </trkpt>
      <trkpt lat="48.61306" lon="7.66592">
        <ele>156.8</ele>
        <time>2020-06-28T14:30:39Z</time>
      </trkpt>
      <trkpt lat="48.61309" lon="7.66586">
        <ele>156.9</ele>
        <time>2020-06-28T14:30:40Z</time>
      </trkpt>
      <trkpt lat="48.61314" lon="7.66581">
        <ele>156.9</ele>
        <time>2020-06-28T14:30:41Z</time>
      </trkpt>
      <trkpt lat="48.61318" lon="7.66577">
        <ele>156.9</ele>
        <time>2020-06-28T14:30:42Z</time>
      </trkpt>
      <trkpt lat="48.61321" lon="7.66572">
        <ele>157.2</ele>
        <time>2020-06-28T14:30:43Z</time>
      </trkpt>
      <trkpt lat="48.61323" lon="7.66566">
        <ele>157.2</ele>
        <time>2020-06-28T14:30:44Z</time>
      </trkpt>
      <trkpt lat="48.61325" lon="7.6656">
        <ele>157.3</ele>
        <time>2020-06-28T14:30:45Z</time>
      </trkpt>
      <trkpt lat="48.61326" lon="7.66553">
        <ele>157.4</ele>
        <time>2020-06-28T14:30:46Z</time>
      </trkpt>
      <trkpt lat="48.61327" lon="7.66546">
        <ele>158.3</ele>
        <time>2020-06-28T14:30:47Z</time>
      </trkpt>
      <trkpt lat="48.61329" lon="7.66539">
        <ele>158.2</ele>
        <time>2020-06-28T14:30:48Z</time>
      </trkpt>
      <trkpt lat="48.6133" lon="7.66533">
        <ele>158.1</ele>
        <time>2020-06-28T14:30:49Z</time>
      </trkpt>
      <trkpt lat="48.61332" lon="7.66528">
        <ele>158</ele>
        <time>2020-06-28T14:30:50Z</time>
      </trkpt>
      <trkpt lat="48.61333" lon="7.66518">
        <ele>157.9</ele>
        <time>2020-06-28T14:30:51Z</time>
      </trkpt>
      <trkpt lat="48.61336" lon="7.66511">
        <ele>157.8</ele>
        <time>2020-06-28T14:30:52Z</time>
      </trkpt>
      <trkpt lat="48.61338" lon="7.66504">
        <ele>157.9</ele>
        <time>2020-06-28T14:30:53Z</time>
      </trkpt>
      <trkpt lat="48.61339" lon="7.66497">
        <ele>158</ele>
        <time>2020-06-28T14:30:54Z</time>
      </trkpt>
      <trkpt lat="48.61342" lon="7.6649">
        <ele>158.1</ele>
        <time>2020-06-28T14:30:55Z</time>
      </trkpt>
      <trkpt lat="48.61344" lon="7.66484">
        <ele>158.2</ele>
        <time>2020-06-28T14:30:56Z</time>
      </trkpt>
      <trkpt lat="48.61347" lon="7.66477">
        <ele>158.2</ele>
        <time>2020-06-28T14:30:57Z</time>
      </trkpt>
      <trkpt lat="48.61349" lon="7.66472">
        <ele>158.3</ele>
        <time>2020-06-28T14:30:58Z</time>
      </trkpt>
      <trkpt lat="48.6135" lon="7.66466">
        <ele>158.4</ele>
        <time>2020-06-28T14:30:59Z</time>
      </trkpt>
      <trkpt lat="48.61352" lon="7.66459">
        <ele>158.5</ele>
        <time>2020-06-28T14:31:00Z</time>
      </trkpt>
      <trkpt lat="48.61354" lon="7.66454">
        <ele>158.5</ele>
        <time>2020-06-28T14:31:01Z</time>
      </trkpt>
      <trkpt lat="48.61356" lon="7.66446">
        <ele>158.6</ele>
        <time>2020-06-28T14:31:02Z</time>
      </trkpt>
      <trkpt lat="48.61358" lon="7.66441">
        <ele>158.7</ele>
        <time>2020-06-28T14:31:03Z</time>
      </trkpt>
      <trkpt lat="48.61361" lon="7.66435">
        <ele>158.7</ele>
        <time>2020-06-28T14:31:04Z</time>
      </trkpt>
      <trkpt lat="48.61362" lon="7.66429">
        <ele>158.8</ele>
        <time>2020-06-28T14:31:05Z</time>
      </trkpt>
      <trkpt lat="48.61364" lon="7.66422">
        <ele>158.9</ele>
        <time>2020-06-28T14:31:06Z</time>
      </trkpt>
      <trkpt lat="48.61366" lon="7.66415">
        <ele>158.9</ele>
        <time>2020-06-28T14:31:07Z</time>
      </trkpt>
      <trkpt lat="48.61368" lon="7.6641">
        <ele>159</ele>
        <time>2020-06-28T14:31:08Z</time>
      </trkpt>
      <trkpt lat="48.6137" lon="7.66404">
        <ele>159.1</ele>
        <time>2020-06-28T14:31:09Z</time>
      </trkpt>
      <trkpt lat="48.61371" lon="7.66399">
        <ele>159.1</ele>
        <time>2020-06-28T14:31:10Z</time>
      </trkpt>
      <trkpt lat="48.61373" lon="7.66394">
        <ele>159.2</ele>
        <time>2020-06-28T14:31:11Z</time>
      </trkpt>
      <trkpt lat="48.61374" lon="7.66389">
        <ele>159.3</ele>
        <time>2020-06-28T14:31:12Z</time>
      </trkpt>
      <trkpt lat="48.61375" lon="7.66383">
        <ele>159.4</ele>
        <time>2020-06-28T14:31:13Z</time>
      </trkpt>
      <trkpt lat="48.61377" lon="7.66377">
        <ele>159.4</ele>
        <time>2020-06-28T14:31:14Z</time>
      </trkpt>
      <trkpt lat="48.61378" lon="7.66371">
        <ele>159.5</ele>
        <time>2020-06-28T14:31:15Z</time>
      </trkpt>
      <trkpt lat="48.6138" lon="7.66366">
        <ele>159.6</ele>
        <time>2020-06-28T14:31:16Z</time>
      </trkpt>
      <trkpt lat="48.61381" lon="7.6636">
        <ele>159.6</ele>
        <time>2020-06-28T14:31:17Z</time>
      </trkpt>
      <trkpt lat="48.61383" lon="7.66353">
        <ele>159.7</ele>
        <time>2020-06-28T14:31:18Z</time>
      </trkpt>
      <trkpt lat="48.61385" lon="7.66347">
        <ele>159.8</ele>
        <time>2020-06-28T14:31:19Z</time>
      </trkpt>
      <trkpt lat="48.61387" lon="7.6634">
        <ele>159.8</ele>
        <time>2020-06-28T14:31:20Z</time>
      </trkpt>
      <trkpt lat="48.61389" lon="7.66334">
        <ele>159.9</ele>
        <time>2020-06-28T14:31:21Z</time>
      </trkpt>
      <trkpt lat="48.61391" lon="7.66327">
        <ele>159.9</ele>
        <time>2020-06-28T14:31:22Z</time>
      </trkpt>
      <trkpt lat="48.61394" lon="7.66322">
        <ele>160</ele>
        <time>2020-06-28T14:31:23Z</time>
      </trkpt>
      <trkpt lat="48.61396" lon="7.66315">
        <ele>160</ele>
        <time>2020-06-28T14:31:24Z</time>
      </trkpt>
      <trkpt lat="48.61398" lon="7.66309">
        <ele>160.1</ele>
        <time>2020-06-28T14:31:25Z</time>
      </trkpt>
      <trkpt lat="48.614" lon="7.66304">
        <ele>160.2</ele>
        <time>2020-06-28T14:31:26Z</time>
      </trkpt>
      <trkpt lat="48.61403" lon="7.66297">
        <ele>160.3</ele>
        <time>2020-06-28T14:31:27Z</time>
      </trkpt>
      <trkpt lat="48.61404" lon="7.66291">
        <ele>160.3</ele>
        <time>2020-06-28T14:31:28Z</time>
      </trkpt>
      <trkpt lat="48.61406" lon="7.66286">
        <ele>160.4</ele>
        <time>2020-06-28T14:31:29Z</time>
      </trkpt>
      <trkpt lat="48.61408" lon="7.66279">
        <ele>160.5</ele>
        <time>2020-06-28T14:31:30Z</time>
      </trkpt>
      <trkpt lat="48.6141" lon="7.66273">
        <ele>160.6</ele>
        <time>2020-06-28T14:31:31Z</time>
      </trkpt>
      <trkpt lat="48.61412" lon="7.66267">
        <ele>160.7</ele>
        <time>2020-06-28T14:31:32Z</time>
      </trkpt>
      <trkpt lat="48.61414" lon="7.66261">
        <ele>160.8</ele>
        <time>2020-06-28T14:31:33Z</time>
      </trkpt>
      <trkpt lat="48.61416" lon="7.66254">
        <ele>160.9</ele>
        <time>2020-06-28T14:31:34Z</time>
      </trkpt>
      <trkpt lat="48.61418" lon="7.66249">
        <ele>161</ele>
        <time>2020-06-28T14:31:35Z</time>
      </trkpt>
      <trkpt lat="48.6142" lon="7.66243">
        <ele>161.1</ele>
        <time>2020-06-28T14:31:36Z</time>
      </trkpt>
      <trkpt lat="48.61422" lon="7.66237">
        <ele>161.1</ele>
        <time>2020-06-28T14:31:37Z</time>
      </trkpt>
      <trkpt lat="48.61424" lon="7.66232">
        <ele>161.2</ele>
        <time>2020-06-28T14:31:38Z</time>
      </trkpt>
      <trkpt lat="48.61427" lon="7.66225">
        <ele>161.3</ele>
        <time>2020-06-28T14:31:39Z</time>
      </trkpt>
      <trkpt lat="48.61429" lon="7.6622">
        <ele>161.4</ele>
        <time>2020-06-28T14:31:40Z</time>
      </trkpt>
      <trkpt lat="48.61431" lon="7.66214">
        <ele>161.6</ele>
        <time>2020-06-28T14:31:41Z</time>
      </trkpt>
      <trkpt lat="48.61433" lon="7.66209">
        <ele>161.7</ele>
        <time>2020-06-28T14:31:42Z</time>
      </trkpt>
      <trkpt lat="48.61436" lon="7.66203">
        <ele>161.8</ele>
        <time>2020-06-28T14:31:43Z</time>
      </trkpt>
      <trkpt lat="48.61438" lon="7.66195">
        <ele>162</ele>
        <time>2020-06-28T14:31:44Z</time>
      </trkpt>
      <trkpt lat="48.6144" lon="7.66189">
        <ele>162.2</ele>
        <time>2020-06-28T14:31:45Z</time>
      </trkpt>
      <trkpt lat="48.61443" lon="7.66183">
        <ele>162.3</ele>
        <time>2020-06-28T14:31:46Z</time>
      </trkpt>
      <trkpt lat="48.61445" lon="7.66177">
        <ele>162.5</ele>
        <time>2020-06-28T14:31:47Z</time>
      </trkpt>
      <trkpt lat="48.61449" lon="7.6617">
        <ele>162.6</ele>
        <time>2020-06-28T14:31:48Z</time>
      </trkpt>
      <trkpt lat="48.61451" lon="7.66163">
        <ele>162.8</ele>
        <time>2020-06-28T14:31:49Z</time>
      </trkpt>
      <trkpt lat="48.61452" lon="7.66158">
        <ele>162.9</ele>
        <time>2020-06-28T14:31:50Z</time>
      </trkpt>
      <trkpt lat="48.61454" lon="7.66153">
        <ele>163</ele>
        <time>2020-06-28T14:31:51Z</time>
      </trkpt>
      <trkpt lat="48.61456" lon="7.66148">
        <ele>163.1</ele>
        <time>2020-06-28T14:31:52Z</time>
      </trkpt>
      <trkpt lat="48.61458" lon="7.66141">
        <ele>163.3</ele>
        <time>2020-06-28T14:31:53Z</time>
      </trkpt>
      <trkpt lat="48.61461" lon="7.66135">
        <ele>163.4</ele>
        <time>2020-06-28T14:31:54Z</time>
      </trkpt>
      <trkpt lat="48.61463" lon="7.66129">
        <ele>163.6</ele>
        <time>2020-06-28T14:31:55Z</time>
      </trkpt>
      <trkpt lat="48.61466" lon="7.66123">
        <ele>163.8</ele>
        <time>2020-06-28T14:31:56Z</time>
      </trkpt>
      <trkpt lat="48.61469" lon="7.66117">
        <ele>164</ele>
        <time>2020-06-28T14:31:57Z</time>
      </trkpt>
      <trkpt lat="48.61472" lon="7.6611">
        <ele>164.2</ele>
        <time>2020-06-28T14:31:58Z</time>
      </trkpt>
      <trkpt lat="48.61474" lon="7.66104">
        <ele>164.4</ele>
        <time>2020-06-28T14:31:59Z</time>
      </trkpt>
      <trkpt lat="48.61477" lon="7.66098">
        <ele>164.5</ele>
        <time>2020-06-28T14:32:00Z</time>
      </trkpt>
      <trkpt lat="48.61479" lon="7.66093">
        <ele>164.7</ele>
        <time>2020-06-28T14:32:01Z</time>
      </trkpt>
      <trkpt lat="48.61482" lon="7.66088">
        <ele>164.8</ele>
        <time>2020-06-28T14:32:02Z</time>
      </trkpt>
      <trkpt lat="48.61483" lon="7.66083">
        <ele>165</ele>
        <time>2020-06-28T14:32:03Z</time>
      </trkpt>
      <trkpt lat="48.61487" lon="7.66077">
        <ele>165.2</ele>
        <time>2020-06-28T14:32:04Z</time>
      </trkpt>
      <trkpt lat="48.61488" lon="7.66072">
        <ele>165.3</ele>
        <time>2020-06-28T14:32:05Z</time>
      </trkpt>
      <trkpt lat="48.6149" lon="7.66066">
        <ele>165.5</ele>
        <time>2020-06-28T14:32:06Z</time>
      </trkpt>
      <trkpt lat="48.61493" lon="7.6606">
        <ele>165.7</ele>
        <time>2020-06-28T14:32:07Z</time>
      </trkpt>
      <trkpt lat="48.61495" lon="7.66056">
        <ele>165.9</ele>
        <time>2020-06-28T14:32:08Z</time>
      </trkpt>
      <trkpt lat="48.61496" lon="7.66051">
        <ele>166</ele>
        <time>2020-06-28T14:32:09Z</time>
      </trkpt>
      <trkpt lat="48.61497" lon="7.66048">
        <ele>166.1</ele>
        <time>2020-06-28T14:32:10Z</time>
      </trkpt>
      <trkpt lat="48.61497" lon="7.66043">
        <ele>166.2</ele>
        <time>2020-06-28T14:32:11Z</time>
      </trkpt>
      <trkpt lat="48.61498" lon="7.66037">
        <ele>166.4</ele>
        <time>2020-06-28T14:32:12Z</time>
      </trkpt>
      <trkpt lat="48.61499" lon="7.66031">
        <ele>166.6</ele>
        <time>2020-06-28T14:32:13Z</time>
      </trkpt>
      <trkpt lat="48.61501" lon="7.66025">
        <ele>166.7</ele>
        <time>2020-06-28T14:32:14Z</time>
      </trkpt>
      <trkpt lat="48.61504" lon="7.66018">
        <ele>167</ele>
        <time>2020-06-28T14:32:15Z</time>
      </trkpt>
      <trkpt lat="48.61507" lon="7.66009">
        <ele>167.3</ele>
        <time>2020-06-28T14:32:16Z</time>
      </trkpt>
      <trkpt lat="48.61509" lon="7.66002">
        <ele>167.5</ele>
        <time>2020-06-28T14:32:17Z</time>
      </trkpt>
      <trkpt lat="48.61513" lon="7.65995">
        <ele>167.8</ele>
        <time>2020-06-28T14:32:18Z</time>
      </trkpt>
      <trkpt lat="48.61515" lon="7.65989">
        <ele>168</ele>
        <time>2020-06-28T14:32:19Z</time>
      </trkpt>
      <trkpt lat="48.61518" lon="7.65983">
        <ele>168.2</ele>
        <time>2020-06-28T14:32:20Z</time>
      </trkpt>
      <trkpt lat="48.6152" lon="7.65978">
        <ele>168.4</ele>
        <time>2020-06-28T14:32:21Z</time>
      </trkpt>
      <trkpt lat="48.61522" lon="7.65972">
        <ele>168.5</ele>
        <time>2020-06-28T14:32:22Z</time>
      </trkpt>
      <trkpt lat="48.61525" lon="7.65967">
        <ele>168.7</ele>
        <time>2020-06-28T14:32:23Z</time>
      </trkpt>
      <trkpt lat="48.61527" lon="7.6596">
        <ele>168.9</ele>
        <time>2020-06-28T14:32:24Z</time>
      </trkpt>
      <trkpt lat="48.61529" lon="7.65954">
        <ele>169.1</ele>
        <time>2020-06-28T14:32:25Z</time>
      </trkpt>
      <trkpt lat="48.61531" lon="7.65948">
        <ele>169.2</ele>
        <time>2020-06-28T14:32:26Z</time>
      </trkpt>
      <trkpt lat="48.61533" lon="7.65943">
        <ele>169.4</ele>
        <time>2020-06-28T14:32:27Z</time>
      </trkpt>
      <trkpt lat="48.61535" lon="7.65937">
        <ele>169.6</ele>
        <time>2020-06-28T14:32:28Z</time>
      </trkpt>
      <trkpt lat="48.61537" lon="7.65932">
        <ele>169.7</ele>
        <time>2020-06-28T14:32:29Z</time>
      </trkpt>
      <trkpt lat="48.61539" lon="7.65927">
        <ele>169.9</ele>
        <time>2020-06-28T14:32:30Z</time>
      </trkpt>
      <trkpt lat="48.61541" lon="7.65922">
        <ele>170</ele>
        <time>2020-06-28T14:32:31Z</time>
      </trkpt>
      <trkpt lat="48.61543" lon="7.65917">
        <ele>170.2</ele>
        <time>2020-06-28T14:32:32Z</time>
      </trkpt>
      <trkpt lat="48.61546" lon="7.65911">
        <ele>170.4</ele>
        <time>2020-06-28T14:32:33Z</time>
      </trkpt>
      <trkpt lat="48.61547" lon="7.65904">
        <ele>170.6</ele>
        <time>2020-06-28T14:32:34Z</time>
      </trkpt>
      <trkpt lat="48.61549" lon="7.65899">
        <ele>170.8</ele>
        <time>2020-06-28T14:32:35Z</time>
      </trkpt>
      <trkpt lat="48.61551" lon="7.65895">
        <ele>170.9</ele>
        <time>2020-06-28T14:32:36Z</time>
      </trkpt>
      <trkpt lat="48.61554" lon="7.6589">
        <ele>171.1</ele>
        <time>2020-06-28T14:32:37Z</time>
      </trkpt>
      <trkpt lat="48.61556" lon="7.65885">
        <ele>171.3</ele>
        <time>2020-06-28T14:32:38Z</time>
      </trkpt>
      <trkpt lat="48.61558" lon="7.65878">
        <ele>171.5</ele>
        <time>2020-06-28T14:32:39Z</time>
      </trkpt>
      <trkpt lat="48.61561" lon="7.65873">
        <ele>171.7</ele>
        <time>2020-06-28T14:32:40Z</time>
      </trkpt>
      <trkpt lat="48.61564" lon="7.65869">
        <ele>171.8</ele>
        <time>2020-06-28T14:32:41Z</time>
      </trkpt>
      <trkpt lat="48.61565" lon="7.65863">
        <ele>172</ele>
        <time>2020-06-28T14:32:42Z</time>
      </trkpt>
      <trkpt lat="48.61567" lon="7.65857">
        <ele>172.2</ele>
        <time>2020-06-28T14:32:43Z</time>
      </trkpt>
      <trkpt lat="48.61569" lon="7.65851">
        <ele>172.3</ele>
        <time>2020-06-28T14:32:44Z</time>
      </trkpt>
      <trkpt lat="48.61571" lon="7.65845">
        <ele>172.4</ele>
        <time>2020-06-28T14:32:45Z</time>
      </trkpt>
      <trkpt lat="48.61574" lon="7.6584">
        <ele>172.6</ele>
        <time>2020-06-28T14:32:46Z</time>
      </trkpt>
      <trkpt lat="48.61575" lon="7.65835">
        <ele>172.7</ele>
        <time>2020-06-28T14:32:47Z</time>
      </trkpt>
      <trkpt lat="48.61577" lon="7.6583">
        <ele>172.8</ele>
        <time>2020-06-28T14:32:48Z</time>
      </trkpt>
      <trkpt lat="48.61579" lon="7.65824">
        <ele>172.8</ele>
        <time>2020-06-28T14:32:49Z</time>
      </trkpt>
      <trkpt lat="48.61581" lon="7.65818">
        <ele>172.9</ele>
        <time>2020-06-28T14:32:50Z</time>
      </trkpt>
      <trkpt lat="48.61583" lon="7.65812">
        <ele>173.1</ele>
        <time>2020-06-28T14:32:51Z</time>
      </trkpt>
      <trkpt lat="48.61584" lon="7.65807">
        <ele>173.3</ele>
        <time>2020-06-28T14:32:52Z</time>
      </trkpt>
      <trkpt lat="48.61586" lon="7.658">
        <ele>173.4</ele>
        <time>2020-06-28T14:32:53Z</time>
      </trkpt>
      <trkpt lat="48.61588" lon="7.65795">
        <ele>173.5</ele>
        <time>2020-06-28T14:32:54Z</time>
      </trkpt>
      <trkpt lat="48.6159" lon="7.65789">
        <ele>173.7</ele>
        <time>2020-06-28T14:32:55Z</time>
      </trkpt>
      <trkpt lat="48.61593" lon="7.65784">
        <ele>173.8</ele>
        <time>2020-06-28T14:32:56Z</time>
      </trkpt>
      <trkpt lat="48.61595" lon="7.6578">
        <ele>173.9</ele>
        <time>2020-06-28T14:32:57Z</time>
      </trkpt>
      <trkpt lat="48.61597" lon="7.65776">
        <ele>173.9</ele>
        <time>2020-06-28T14:32:58Z</time>
      </trkpt>
      <trkpt lat="48.616" lon="7.65771">
        <ele>174</ele>
        <time>2020-06-28T14:32:59Z</time>
      </trkpt>
      <trkpt lat="48.61601" lon="7.65767">
        <ele>174.1</ele>
        <time>2020-06-28T14:33:00Z</time>
      </trkpt>
      <trkpt lat="48.61603" lon="7.65761">
        <ele>174.1</ele>
        <time>2020-06-28T14:33:01Z</time>
      </trkpt>
      <trkpt lat="48.61606" lon="7.65756">
        <ele>174.2</ele>
        <time>2020-06-28T14:33:02Z</time>
      </trkpt>
      <trkpt lat="48.61609" lon="7.6575">
        <ele>174.2</ele>
        <time>2020-06-28T14:33:03Z</time>
      </trkpt>
      <trkpt lat="48.61612" lon="7.65743">
        <ele>174.3</ele>
        <time>2020-06-28T14:33:04Z</time>
      </trkpt>
      <trkpt lat="48.61615" lon="7.65736">
        <ele>174.3</ele>
        <time>2020-06-28T14:33:05Z</time>
      </trkpt>
      <trkpt lat="48.61618" lon="7.6573">
        <ele>174.3</ele>
        <time>2020-06-28T14:33:06Z</time>
      </trkpt>
      <trkpt lat="48.61621" lon="7.65723">
        <ele>174.4</ele>
        <time>2020-06-28T14:33:07Z</time>
      </trkpt>
      <trkpt lat="48.61623" lon="7.65717">
        <ele>174.4</ele>
        <time>2020-06-28T14:33:08Z</time>
      </trkpt>
      <trkpt lat="48.61625" lon="7.65711">
        <ele>174.5</ele>
        <time>2020-06-28T14:33:09Z</time>
      </trkpt>
      <trkpt lat="48.61626" lon="7.65705">
        <ele>174.5</ele>
        <time>2020-06-28T14:33:10Z</time>
      </trkpt>
      <trkpt lat="48.61628" lon="7.657">
        <ele>174.5</ele>
        <time>2020-06-28T14:33:11Z</time>
      </trkpt>
      <trkpt lat="48.6163" lon="7.65693">
        <ele>174.5</ele>
        <time>2020-06-28T14:33:12Z</time>
      </trkpt>
      <trkpt lat="48.61633" lon="7.65688">
        <ele>174.6</ele>
        <time>2020-06-28T14:33:13Z</time>
      </trkpt>
      <trkpt lat="48.61635" lon="7.65682">
        <ele>174.6</ele>
        <time>2020-06-28T14:33:14Z</time>
      </trkpt>
      <trkpt lat="48.61637" lon="7.65676">
        <ele>174.6</ele>
        <time>2020-06-28T14:33:15Z</time>
      </trkpt>
      <trkpt lat="48.6164" lon="7.6567">
        <ele>174.7</ele>
        <time>2020-06-28T14:33:16Z</time>
      </trkpt>
      <trkpt lat="48.61641" lon="7.65665">
        <ele>174.7</ele>
        <time>2020-06-28T14:33:17Z</time>
      </trkpt>
      <trkpt lat="48.61644" lon="7.65659">
        <ele>174.7</ele>
        <time>2020-06-28T14:33:18Z</time>
      </trkpt>
      <trkpt lat="48.61646" lon="7.65654">
        <ele>174.7</ele>
        <time>2020-06-28T14:33:19Z</time>
      </trkpt>
      <trkpt lat="48.61649" lon="7.65648">
        <ele>174.7</ele>
        <time>2020-06-28T14:33:20Z</time>
      </trkpt>
      <trkpt lat="48.61651" lon="7.65641">
        <ele>174.7</ele>
        <time>2020-06-28T14:33:21Z</time>
      </trkpt>
      <trkpt lat="48.61653" lon="7.65635">
        <ele>174.7</ele>
        <time>2020-06-28T14:33:22Z</time>
      </trkpt>
      <trkpt lat="48.61656" lon="7.65628">
        <ele>174.7</ele>
        <time>2020-06-28T14:33:23Z</time>
      </trkpt>
      <trkpt lat="48.6166" lon="7.6562">
        <ele>174.7</ele>
        <time>2020-06-28T14:33:24Z</time>
      </trkpt>
      <trkpt lat="48.61663" lon="7.65613">
        <ele>174.8</ele>
        <time>2020-06-28T14:33:25Z</time>
      </trkpt>
      <trkpt lat="48.61666" lon="7.65607">
        <ele>174.8</ele>
        <time>2020-06-28T14:33:26Z</time>
      </trkpt>
      <trkpt lat="48.61668" lon="7.65601">
        <ele>174.8</ele>
        <time>2020-06-28T14:33:27Z</time>
      </trkpt>
      <trkpt lat="48.61671" lon="7.65595">
        <ele>174.8</ele>
        <time>2020-06-28T14:33:28Z</time>
      </trkpt>
      <trkpt lat="48.61673" lon="7.65588">
        <ele>174.9</ele>
        <time>2020-06-28T14:33:29Z</time>
      </trkpt>
      <trkpt lat="48.61675" lon="7.65582">
        <ele>174.9</ele>
        <time>2020-06-28T14:33:30Z</time>
      </trkpt>
      <trkpt lat="48.61678" lon="7.65576">
        <ele>175</ele>
        <time>2020-06-28T14:33:31Z</time>
      </trkpt>
      <trkpt lat="48.6168" lon="7.65569">
        <ele>175</ele>
        <time>2020-06-28T14:33:32Z</time>
      </trkpt>
      <trkpt lat="48.61683" lon="7.65563">
        <ele>175</ele>
        <time>2020-06-28T14:33:33Z</time>
      </trkpt>
      <trkpt lat="48.61686" lon="7.65557">
        <ele>175</ele>
        <time>2020-06-28T14:33:34Z</time>
      </trkpt>
      <trkpt lat="48.61688" lon="7.65552">
        <ele>175</ele>
        <time>2020-06-28T14:33:35Z</time>
      </trkpt>
      <trkpt lat="48.6169" lon="7.65546">
        <ele>175</ele>
        <time>2020-06-28T14:33:36Z</time>
      </trkpt>
      <trkpt lat="48.61693" lon="7.6554">
        <ele>175</ele>
        <time>2020-06-28T14:33:37Z</time>
      </trkpt>
      <trkpt lat="48.61695" lon="7.65534">
        <ele>175</ele>
        <time>2020-06-28T14:33:38Z</time>
      </trkpt>
      <trkpt lat="48.61698" lon="7.65527">
        <ele>175</ele>
        <time>2020-06-28T14:33:39Z</time>
      </trkpt>
      <trkpt lat="48.617" lon="7.65521">
        <ele>175</ele>
        <time>2020-06-28T14:33:40Z</time>
      </trkpt>
      <trkpt lat="48.61703" lon="7.65514">
        <ele>175</ele>
        <time>2020-06-28T14:33:41Z</time>
      </trkpt>
      <trkpt lat="48.61706" lon="7.65506">
        <ele>175</ele>
        <time>2020-06-28T14:33:42Z</time>
      </trkpt>
      <trkpt lat="48.61711" lon="7.655">
        <ele>175</ele>
        <time>2020-06-28T14:33:43Z</time>
      </trkpt>
      <trkpt lat="48.61714" lon="7.65493">
        <ele>175</ele>
        <time>2020-06-28T14:33:44Z</time>
      </trkpt>
      <trkpt lat="48.61716" lon="7.65485">
        <ele>175</ele>
        <time>2020-06-28T14:33:45Z</time>
      </trkpt>
      <trkpt lat="48.61719" lon="7.65478">
        <ele>175</ele>
        <time>2020-06-28T14:33:46Z</time>
      </trkpt>
      <trkpt lat="48.61722" lon="7.65472">
        <ele>174.9</ele>
        <time>2020-06-28T14:33:47Z</time>
      </trkpt>
      <trkpt lat="48.61724" lon="7.65465">
        <ele>174.9</ele>
        <time>2020-06-28T14:33:48Z</time>
      </trkpt>
      <trkpt lat="48.61728" lon="7.65459">
        <ele>174.9</ele>
        <time>2020-06-28T14:33:49Z</time>
      </trkpt>
      <trkpt lat="48.6173" lon="7.65452">
        <ele>174.9</ele>
        <time>2020-06-28T14:33:50Z</time>
      </trkpt>
      <trkpt lat="48.61733" lon="7.65443">
        <ele>174.9</ele>
        <time>2020-06-28T14:33:51Z</time>
      </trkpt>
      <trkpt lat="48.61736" lon="7.65436">
        <ele>174.9</ele>
        <time>2020-06-28T14:33:52Z</time>
      </trkpt>
      <trkpt lat="48.61739" lon="7.65429">
        <ele>174.8</ele>
        <time>2020-06-28T14:33:53Z</time>
      </trkpt>
      <trkpt lat="48.61742" lon="7.65422">
        <ele>174.7</ele>
        <time>2020-06-28T14:33:54Z</time>
      </trkpt>
      <trkpt lat="48.61744" lon="7.65415">
        <ele>174.6</ele>
        <time>2020-06-28T14:33:55Z</time>
      </trkpt>
      <trkpt lat="48.61747" lon="7.65408">
        <ele>174.5</ele>
        <time>2020-06-28T14:33:56Z</time>
      </trkpt>
      <trkpt lat="48.6175" lon="7.65401">
        <ele>174.5</ele>
        <time>2020-06-28T14:33:57Z</time>
      </trkpt>
      <trkpt lat="48.61753" lon="7.65393">
        <ele>174.5</ele>
        <time>2020-06-28T14:33:58Z</time>
      </trkpt>
      <trkpt lat="48.61756" lon="7.65386">
        <ele>174.4</ele>
        <time>2020-06-28T14:33:59Z</time>
      </trkpt>
      <trkpt lat="48.61759" lon="7.65378">
        <ele>174.4</ele>
        <time>2020-06-28T14:34:00Z</time>
      </trkpt>
      <trkpt lat="48.61763" lon="7.6537">
        <ele>174.4</ele>
        <time>2020-06-28T14:34:01Z</time>
      </trkpt>
      <trkpt lat="48.61765" lon="7.65363">
        <ele>174.4</ele>
        <time>2020-06-28T14:34:02Z</time>
      </trkpt>
      <trkpt lat="48.61769" lon="7.65355">
        <ele>174.3</ele>
        <time>2020-06-28T14:34:03Z</time>
      </trkpt>
      <trkpt lat="48.61771" lon="7.65348">
        <ele>174.3</ele>
        <time>2020-06-28T14:34:04Z</time>
      </trkpt>
      <trkpt lat="48.61776" lon="7.65343">
        <ele>174.3</ele>
        <time>2020-06-28T14:34:05Z</time>
      </trkpt>
      <trkpt lat="48.61779" lon="7.65334">
        <ele>174.3</ele>
        <time>2020-06-28T14:34:06Z</time>
      </trkpt>
      <trkpt lat="48.61782" lon="7.65326">
        <ele>174.3</ele>
        <time>2020-06-28T14:34:07Z</time>
      </trkpt>
      <trkpt lat="48.61784" lon="7.65319">
        <ele>174.3</ele>
        <time>2020-06-28T14:34:08Z</time>
      </trkpt>
      <trkpt lat="48.61789" lon="7.65314">
        <ele>174.4</ele>
        <time>2020-06-28T14:34:09Z</time>
      </trkpt>
      <trkpt lat="48.61792" lon="7.65307">
        <ele>174.4</ele>
        <time>2020-06-28T14:34:10Z</time>
      </trkpt>
      <trkpt lat="48.61793" lon="7.65302">
        <ele>174.5</ele>
        <time>2020-06-28T14:34:11Z</time>
      </trkpt>
      <trkpt lat="48.61796" lon="7.65296">
        <ele>174.5</ele>
        <time>2020-06-28T14:34:12Z</time>
      </trkpt>
      <trkpt lat="48.61799" lon="7.6529">
        <ele>174.6</ele>
        <time>2020-06-28T14:34:13Z</time>
      </trkpt>
      <trkpt lat="48.61802" lon="7.65282">
        <ele>174.6</ele>
        <time>2020-06-28T14:34:14Z</time>
      </trkpt>
      <trkpt lat="48.61806" lon="7.65276">
        <ele>174.7</ele>
        <time>2020-06-28T14:34:15Z</time>
      </trkpt>
      <trkpt lat="48.61809" lon="7.6527">
        <ele>174.7</ele>
        <time>2020-06-28T14:34:16Z</time>
      </trkpt>
      <trkpt lat="48.61812" lon="7.65262">
        <ele>174.7</ele>
        <time>2020-06-28T14:34:17Z</time>
      </trkpt>
      <trkpt lat="48.61815" lon="7.65256">
        <ele>174.8</ele>
        <time>2020-06-28T14:34:18Z</time>
      </trkpt>
      <trkpt lat="48.61818" lon="7.65249">
        <ele>174.8</ele>
        <time>2020-06-28T14:34:19Z</time>
      </trkpt>
      <trkpt lat="48.61821" lon="7.65242">
        <ele>174.8</ele>
        <time>2020-06-28T14:34:20Z</time>
      </trkpt>
      <trkpt lat="48.61824" lon="7.65236">
        <ele>174.8</ele>
        <time>2020-06-28T14:34:21Z</time>
      </trkpt>
      <trkpt lat="48.61827" lon="7.65229">
        <ele>174.9</ele>
        <time>2020-06-28T14:34:22Z</time>
      </trkpt>
      <trkpt lat="48.61829" lon="7.65222">
        <ele>174.9</ele>
        <time>2020-06-28T14:34:23Z</time>
      </trkpt>
      <trkpt lat="48.61832" lon="7.65215">
        <ele>174.9</ele>
        <time>2020-06-28T14:34:24Z</time>
      </trkpt>
      <trkpt lat="48.61835" lon="7.65209">
        <ele>174.9</ele>
        <time>2020-06-28T14:34:25Z</time>
      </trkpt>
      <trkpt lat="48.61837" lon="7.65203">
        <ele>174.9</ele>
        <time>2020-06-28T14:34:26Z</time>
      </trkpt>
      <trkpt lat="48.6184" lon="7.65197">
        <ele>174.9</ele>
        <time>2020-06-28T14:34:27Z</time>
      </trkpt>
      <trkpt lat="48.61843" lon="7.6519">
        <ele>174.9</ele>
        <time>2020-06-28T14:34:28Z</time>
      </trkpt>
      <trkpt lat="48.61846" lon="7.65184">
        <ele>174.9</ele>
        <time>2020-06-28T14:34:29Z</time>
      </trkpt>
      <trkpt lat="48.61849" lon="7.65178">
        <ele>174.8</ele>
        <time>2020-06-28T14:34:30Z</time>
      </trkpt>
      <trkpt lat="48.6185" lon="7.65172">
        <ele>174.8</ele>
        <time>2020-06-28T14:34:31Z</time>
      </trkpt>
      <trkpt lat="48.61851" lon="7.65167">
        <ele>174.8</ele>
        <time>2020-06-28T14:34:32Z</time>
      </trkpt>
      <trkpt lat="48.61854" lon="7.6516">
        <ele>174.8</ele>
        <time>2020-06-28T14:34:33Z</time>
      </trkpt>
      <trkpt lat="48.61855" lon="7.65154">
        <ele>174.8</ele>
        <time>2020-06-28T14:34:34Z</time>
      </trkpt>
      <trkpt lat="48.61858" lon="7.65147">
        <ele>174.8</ele>
        <time>2020-06-28T14:34:35Z</time>
      </trkpt>
      <trkpt lat="48.61861" lon="7.65139">
        <ele>174.7</ele>
        <time>2020-06-28T14:34:36Z</time>
      </trkpt>
      <trkpt lat="48.61864" lon="7.65133">
        <ele>174.7</ele>
        <time>2020-06-28T14:34:37Z</time>
      </trkpt>
      <trkpt lat="48.61867" lon="7.65127">
        <ele>174.6</ele>
        <time>2020-06-28T14:34:38Z</time>
      </trkpt>
      <trkpt lat="48.6187" lon="7.65121">
        <ele>174.6</ele>
        <time>2020-06-28T14:34:39Z</time>
      </trkpt>
      <trkpt lat="48.61872" lon="7.65114">
        <ele>174.5</ele>
        <time>2020-06-28T14:34:40Z</time>
      </trkpt>
      <trkpt lat="48.61874" lon="7.65106">
        <ele>174.5</ele>
        <time>2020-06-28T14:34:41Z</time>
      </trkpt>
      <trkpt lat="48.61877" lon="7.65101">
        <ele>174.4</ele>
        <time>2020-06-28T14:34:42Z</time>
      </trkpt>
      <trkpt lat="48.6188" lon="7.65093">
        <ele>174.3</ele>
        <time>2020-06-28T14:34:43Z</time>
      </trkpt>
      <trkpt lat="48.61884" lon="7.65086">
        <ele>174.3</ele>
        <time>2020-06-28T14:34:44Z</time>
      </trkpt>
      <trkpt lat="48.61887" lon="7.65078">
        <ele>174.2</ele>
        <time>2020-06-28T14:34:45Z</time>
      </trkpt>
      <trkpt lat="48.61891" lon="7.65071">
        <ele>174.2</ele>
        <time>2020-06-28T14:34:46Z</time>
      </trkpt>
      <trkpt lat="48.61894" lon="7.65063">
        <ele>174.1</ele>
        <time>2020-06-28T14:34:47Z</time>
      </trkpt>
      <trkpt lat="48.61897" lon="7.65056">
        <ele>174.1</ele>
        <time>2020-06-28T14:34:48Z</time>
      </trkpt>
      <trkpt lat="48.619" lon="7.6505">
        <ele>174.1</ele>
        <time>2020-06-28T14:34:49Z</time>
      </trkpt>
      <trkpt lat="48.61903" lon="7.65044">
        <ele>174.1</ele>
        <time>2020-06-28T14:34:50Z</time>
      </trkpt>
      <trkpt lat="48.61905" lon="7.65037">
        <ele>174.1</ele>
        <time>2020-06-28T14:34:51Z</time>
      </trkpt>
      <trkpt lat="48.61908" lon="7.6503">
        <ele>174</ele>
        <time>2020-06-28T14:34:52Z</time>
      </trkpt>
      <trkpt lat="48.6191" lon="7.65023">
        <ele>174</ele>
        <time>2020-06-28T14:34:53Z</time>
      </trkpt>
      <trkpt lat="48.61913" lon="7.65016">
        <ele>174</ele>
        <time>2020-06-28T14:34:54Z</time>
      </trkpt>
      <trkpt lat="48.61916" lon="7.65009">
        <ele>173.9</ele>
        <time>2020-06-28T14:34:55Z</time>
      </trkpt>
      <trkpt lat="48.61919" lon="7.65004">
        <ele>173.9</ele>
        <time>2020-06-28T14:34:56Z</time>
      </trkpt>
      <trkpt lat="48.61922" lon="7.64997">
        <ele>173.9</ele>
        <time>2020-06-28T14:34:57Z</time>
      </trkpt>
      <trkpt lat="48.61925" lon="7.64989">
        <ele>173.8</ele>
        <time>2020-06-28T14:34:58Z</time>
      </trkpt>
      <trkpt lat="48.61929" lon="7.64981">
        <ele>173.8</ele>
        <time>2020-06-28T14:34:59Z</time>
      </trkpt>
      <trkpt lat="48.61932" lon="7.64974">
        <ele>173.8</ele>
        <time>2020-06-28T14:35:00Z</time>
      </trkpt>
      <trkpt lat="48.61934" lon="7.64967">
        <ele>173.8</ele>
        <time>2020-06-28T14:35:01Z</time>
      </trkpt>
      <trkpt lat="48.61937" lon="7.6496">
        <ele>173.7</ele>
        <time>2020-06-28T14:35:02Z</time>
      </trkpt>
      <trkpt lat="48.61941" lon="7.64954">
        <ele>173.7</ele>
        <time>2020-06-28T14:35:03Z</time>
      </trkpt>
      <trkpt lat="48.61943" lon="7.64947">
        <ele>173.8</ele>
        <time>2020-06-28T14:35:04Z</time>
      </trkpt>
      <trkpt lat="48.61946" lon="7.6494">
        <ele>173.8</ele>
        <time>2020-06-28T14:35:05Z</time>
      </trkpt>
      <trkpt lat="48.61948" lon="7.64934">
        <ele>173.8</ele>
        <time>2020-06-28T14:35:06Z</time>
      </trkpt>
      <trkpt lat="48.6195" lon="7.64928">
        <ele>173.7</ele>
        <time>2020-06-28T14:35:07Z</time>
      </trkpt>
      <trkpt lat="48.61953" lon="7.64921">
        <ele>173.7</ele>
        <time>2020-06-28T14:35:08Z</time>
      </trkpt>
      <trkpt lat="48.61955" lon="7.64912">
        <ele>173.6</ele>
        <time>2020-06-28T14:35:09Z</time>
      </trkpt>
      <trkpt lat="48.61958" lon="7.64905">
        <ele>173.5</ele>
        <time>2020-06-28T14:35:10Z</time>
      </trkpt>
      <trkpt lat="48.61961" lon="7.64898">
        <ele>173.5</ele>
        <time>2020-06-28T14:35:11Z</time>
      </trkpt>
      <trkpt lat="48.61964" lon="7.64892">
        <ele>173.4</ele>
        <time>2020-06-28T14:35:12Z</time>
      </trkpt>
      <trkpt lat="48.61967" lon="7.64884">
        <ele>173.4</ele>
        <time>2020-06-28T14:35:13Z</time>
      </trkpt>
      <trkpt lat="48.61971" lon="7.64878">
        <ele>173.4</ele>
        <time>2020-06-28T14:35:14Z</time>
      </trkpt>
      <trkpt lat="48.61974" lon="7.64871">
        <ele>173.5</ele>
        <time>2020-06-28T14:35:15Z</time>
      </trkpt>
      <trkpt lat="48.61978" lon="7.64863">
        <ele>173.5</ele>
        <time>2020-06-28T14:35:16Z</time>
      </trkpt>
      <trkpt lat="48.61981" lon="7.64856">
        <ele>173.5</ele>
        <time>2020-06-28T14:35:17Z</time>
      </trkpt>
      <trkpt lat="48.61983" lon="7.64849">
        <ele>173.5</ele>
        <time>2020-06-28T14:35:18Z</time>
      </trkpt>
      <trkpt lat="48.61988" lon="7.64844">
        <ele>173.5</ele>
        <time>2020-06-28T14:35:19Z</time>
      </trkpt>
      <trkpt lat="48.6199" lon="7.64837">
        <ele>173.5</ele>
        <time>2020-06-28T14:35:20Z</time>
      </trkpt>
      <trkpt lat="48.61994" lon="7.6483">
        <ele>173.5</ele>
        <time>2020-06-28T14:35:21Z</time>
      </trkpt>
      <trkpt lat="48.61996" lon="7.64824">
        <ele>173.5</ele>
        <time>2020-06-28T14:35:22Z</time>
      </trkpt>
      <trkpt lat="48.61998" lon="7.64818">
        <ele>173.5</ele>
        <time>2020-06-28T14:35:23Z</time>
      </trkpt>
      <trkpt lat="48.62" lon="7.64812">
        <ele>173.5</ele>
        <time>2020-06-28T14:35:24Z</time>
      </trkpt>
      <trkpt lat="48.62002" lon="7.64807">
        <ele>173.5</ele>
        <time>2020-06-28T14:35:25Z</time>
      </trkpt>
      <trkpt lat="48.62005" lon="7.64801">
        <ele>173.5</ele>
        <time>2020-06-28T14:35:26Z</time>
      </trkpt>
      <trkpt lat="48.62007" lon="7.64795">
        <ele>173.5</ele>
        <time>2020-06-28T14:35:27Z</time>
      </trkpt>
      <trkpt lat="48.6201" lon="7.64789">
        <ele>173.5</ele>
        <time>2020-06-28T14:35:28Z</time>
      </trkpt>
      <trkpt lat="48.62014" lon="7.64781">
        <ele>173.6</ele>
        <time>2020-06-28T14:35:29Z</time>
      </trkpt>
      <trkpt lat="48.62017" lon="7.64772">
        <ele>173.6</ele>
        <time>2020-06-28T14:35:30Z</time>
      </trkpt>
      <trkpt lat="48.62021" lon="7.64764">
        <ele>173.6</ele>
        <time>2020-06-28T14:35:31Z</time>
      </trkpt>
      <trkpt lat="48.62024" lon="7.64755">
        <ele>173.7</ele>
        <time>2020-06-28T14:35:32Z</time>
      </trkpt>
      <trkpt lat="48.62028" lon="7.64745">
        <ele>173.7</ele>
        <time>2020-06-28T14:35:33Z</time>
      </trkpt>
      <trkpt lat="48.62031" lon="7.64737">
        <ele>173.8</ele>
        <time>2020-06-28T14:35:34Z</time>
      </trkpt>
      <trkpt lat="48.62033" lon="7.64729">
        <ele>173.9</ele>
        <time>2020-06-28T14:35:35Z</time>
      </trkpt>
      <trkpt lat="48.62037" lon="7.64722">
        <ele>173.9</ele>
        <time>2020-06-28T14:35:36Z</time>
      </trkpt>
      <trkpt lat="48.6204" lon="7.64713">
        <ele>174</ele>
        <time>2020-06-28T14:35:37Z</time>
      </trkpt>
      <trkpt lat="48.62042" lon="7.64705">
        <ele>174.1</ele>
        <time>2020-06-28T14:35:38Z</time>
      </trkpt>
      <trkpt lat="48.62045" lon="7.64698">
        <ele>174.1</ele>
        <time>2020-06-28T14:35:39Z</time>
      </trkpt>
      <trkpt lat="48.62048" lon="7.6469">
        <ele>174.2</ele>
        <time>2020-06-28T14:35:40Z</time>
      </trkpt>
      <trkpt lat="48.6205" lon="7.64684">
        <ele>174.3</ele>
        <time>2020-06-28T14:35:41Z</time>
      </trkpt>
      <trkpt lat="48.62053" lon="7.64676">
        <ele>174.4</ele>
        <time>2020-06-28T14:35:42Z</time>
      </trkpt>
      <trkpt lat="48.62055" lon="7.64668">
        <ele>174.5</ele>
        <time>2020-06-28T14:35:43Z</time>
      </trkpt>
      <trkpt lat="48.62056" lon="7.6466">
        <ele>174.3</ele>
        <time>2020-06-28T14:35:44Z</time>
      </trkpt>
      <trkpt lat="48.62059" lon="7.64652">
        <ele>174.2</ele>
        <time>2020-06-28T14:35:45Z</time>
      </trkpt>
      <trkpt lat="48.62061" lon="7.64645">
        <ele>174.1</ele>
        <time>2020-06-28T14:35:46Z</time>
      </trkpt>
      <trkpt lat="48.62063" lon="7.64636">
        <ele>174.1</ele>
        <time>2020-06-28T14:35:47Z</time>
      </trkpt>
      <trkpt lat="48.62064" lon="7.64627">
        <ele>174</ele>
        <time>2020-06-28T14:35:48Z</time>
      </trkpt>
      <trkpt lat="48.62066" lon="7.64618">
        <ele>173.9</ele>
        <time>2020-06-28T14:35:49Z</time>
      </trkpt>
      <trkpt lat="48.62067" lon="7.6461">
        <ele>174</ele>
        <time>2020-06-28T14:35:50Z</time>
      </trkpt>
      <trkpt lat="48.62069" lon="7.64601">
        <ele>174</ele>
        <time>2020-06-28T14:35:51Z</time>
      </trkpt>
      <trkpt lat="48.6207" lon="7.64592">
        <ele>174</ele>
        <time>2020-06-28T14:35:52Z</time>
      </trkpt>
      <trkpt lat="48.62072" lon="7.64584">
        <ele>174.1</ele>
        <time>2020-06-28T14:35:53Z</time>
      </trkpt>
      <trkpt lat="48.62074" lon="7.64576">
        <ele>174.1</ele>
        <time>2020-06-28T14:35:54Z</time>
      </trkpt>
      <trkpt lat="48.62074" lon="7.64568">
        <ele>174.2</ele>
        <time>2020-06-28T14:35:55Z</time>
      </trkpt>
      <trkpt lat="48.62075" lon="7.64559">
        <ele>174.3</ele>
        <time>2020-06-28T14:35:56Z</time>
      </trkpt>
      <trkpt lat="48.62075" lon="7.64551">
        <ele>174.4</ele>
        <time>2020-06-28T14:35:57Z</time>
      </trkpt>
      <trkpt lat="48.62077" lon="7.64543">
        <ele>174.5</ele>
        <time>2020-06-28T14:35:58Z</time>
      </trkpt>
      <trkpt lat="48.62079" lon="7.64536">
        <ele>174.6</ele>
        <time>2020-06-28T14:35:59Z</time>
      </trkpt>
      <trkpt lat="48.6208" lon="7.64529">
        <ele>174.7</ele>
        <time>2020-06-28T14:36:00Z</time>
      </trkpt>
      <trkpt lat="48.62082" lon="7.64521">
        <ele>174.8</ele>
        <time>2020-06-28T14:36:01Z</time>
      </trkpt>
      <trkpt lat="48.62083" lon="7.64513">
        <ele>174.9</ele>
        <time>2020-06-28T14:36:02Z</time>
      </trkpt>
      <trkpt lat="48.62085" lon="7.64506">
        <ele>174.9</ele>
        <time>2020-06-28T14:36:03Z</time>
      </trkpt>
      <trkpt lat="48.62086" lon="7.64499">
        <ele>175</ele>
        <time>2020-06-28T14:36:04Z</time>
      </trkpt>
      <trkpt lat="48.62086" lon="7.64492">
        <ele>175</ele>
        <time>2020-06-28T14:36:05Z</time>
      </trkpt>
      <trkpt lat="48.62088" lon="7.64485">
        <ele>175.1</ele>
        <time>2020-06-28T14:36:06Z</time>
      </trkpt>
      <trkpt lat="48.62089" lon="7.64479">
        <ele>175.2</ele>
        <time>2020-06-28T14:36:07Z</time>
      </trkpt>
      <trkpt lat="48.62091" lon="7.64472">
        <ele>175.2</ele>
        <time>2020-06-28T14:36:08Z</time>
      </trkpt>
      <trkpt lat="48.62093" lon="7.64465">
        <ele>175.3</ele>
        <time>2020-06-28T14:36:09Z</time>
      </trkpt>
      <trkpt lat="48.62094" lon="7.64457">
        <ele>175.3</ele>
        <time>2020-06-28T14:36:10Z</time>
      </trkpt>
      <trkpt lat="48.62096" lon="7.6445">
        <ele>175.4</ele>
        <time>2020-06-28T14:36:11Z</time>
      </trkpt>
      <trkpt lat="48.62097" lon="7.64442">
        <ele>175.4</ele>
        <time>2020-06-28T14:36:12Z</time>
      </trkpt>
      <trkpt lat="48.62098" lon="7.64434">
        <ele>175.4</ele>
        <time>2020-06-28T14:36:13Z</time>
      </trkpt>
      <trkpt lat="48.621" lon="7.64427">
        <ele>175.5</ele>
        <time>2020-06-28T14:36:14Z</time>
      </trkpt>
      <trkpt lat="48.62102" lon="7.6442">
        <ele>175.5</ele>
        <time>2020-06-28T14:36:15Z</time>
      </trkpt>
      <trkpt lat="48.62103" lon="7.64414">
        <ele>175.5</ele>
        <time>2020-06-28T14:36:16Z</time>
      </trkpt>
      <trkpt lat="48.62105" lon="7.64407">
        <ele>175.6</ele>
        <time>2020-06-28T14:36:17Z</time>
      </trkpt>
      <trkpt lat="48.62107" lon="7.644">
        <ele>175.6</ele>
        <time>2020-06-28T14:36:18Z</time>
      </trkpt>
      <trkpt lat="48.62109" lon="7.64394">
        <ele>175.6</ele>
        <time>2020-06-28T14:36:19Z</time>
      </trkpt>
      <trkpt lat="48.62111" lon="7.64387">
        <ele>175.7</ele>
        <time>2020-06-28T14:36:20Z</time>
      </trkpt>
      <trkpt lat="48.62113" lon="7.6438">
        <ele>175.7</ele>
        <time>2020-06-28T14:36:21Z</time>
      </trkpt>
      <trkpt lat="48.62116" lon="7.64373">
        <ele>175.8</ele>
        <time>2020-06-28T14:36:22Z</time>
      </trkpt>
      <trkpt lat="48.62118" lon="7.64366">
        <ele>175.8</ele>
        <time>2020-06-28T14:36:23Z</time>
      </trkpt>
      <trkpt lat="48.6212" lon="7.64359">
        <ele>175.9</ele>
        <time>2020-06-28T14:36:24Z</time>
      </trkpt>
      <trkpt lat="48.62122" lon="7.64352">
        <ele>175.9</ele>
        <time>2020-06-28T14:36:25Z</time>
      </trkpt>
      <trkpt lat="48.62124" lon="7.64346">
        <ele>176</ele>
        <time>2020-06-28T14:36:26Z</time>
      </trkpt>
      <trkpt lat="48.62127" lon="7.6434">
        <ele>176</ele>
        <time>2020-06-28T14:36:27Z</time>
      </trkpt>
      <trkpt lat="48.6213" lon="7.64333">
        <ele>176.1</ele>
        <time>2020-06-28T14:36:28Z</time>
      </trkpt>
      <trkpt lat="48.62133" lon="7.64326">
        <ele>176.1</ele>
        <time>2020-06-28T14:36:29Z</time>
      </trkpt>
      <trkpt lat="48.62136" lon="7.6432">
        <ele>176.2</ele>
        <time>2020-06-28T14:36:30Z</time>
      </trkpt>
      <trkpt lat="48.6214" lon="7.64314">
        <ele>176.2</ele>
        <time>2020-06-28T14:36:31Z</time>
      </trkpt>
      <trkpt lat="48.62143" lon="7.64308">
        <ele>176.2</ele>
        <time>2020-06-28T14:36:32Z</time>
      </trkpt>
      <trkpt lat="48.62147" lon="7.64302">
        <ele>176.2</ele>
        <time>2020-06-28T14:36:33Z</time>
      </trkpt>
      <trkpt lat="48.6215" lon="7.64296">
        <ele>176.2</ele>
        <time>2020-06-28T14:36:34Z</time>
      </trkpt>
      <trkpt lat="48.62152" lon="7.64289">
        <ele>176.2</ele>
        <time>2020-06-28T14:36:35Z</time>
      </trkpt>
      <trkpt lat="48.62155" lon="7.64283">
        <ele>176.2</ele>
        <time>2020-06-28T14:36:36Z</time>
      </trkpt>
      <trkpt lat="48.62158" lon="7.64276">
        <ele>176.2</ele>
        <time>2020-06-28T14:36:37Z</time>
      </trkpt>
      <trkpt lat="48.6216" lon="7.6427">
        <ele>176.2</ele>
        <time>2020-06-28T14:36:38Z</time>
      </trkpt>
      <trkpt lat="48.62163" lon="7.64263">
        <ele>176.2</ele>
        <time>2020-06-28T14:36:39Z</time>
      </trkpt>
      <trkpt lat="48.62167" lon="7.64257">
        <ele>176.2</ele>
        <time>2020-06-28T14:36:40Z</time>
      </trkpt>
      <trkpt lat="48.62169" lon="7.64251">
        <ele>176.2</ele>
        <time>2020-06-28T14:36:41Z</time>
      </trkpt>
      <trkpt lat="48.62172" lon="7.64245">
        <ele>176.2</ele>
        <time>2020-06-28T14:36:42Z</time>
      </trkpt>
      <trkpt lat="48.62175" lon="7.64239">
        <ele>176.2</ele>
        <time>2020-06-28T14:36:43Z</time>
      </trkpt>
      <trkpt lat="48.62178" lon="7.64233">
        <ele>176.2</ele>
        <time>2020-06-28T14:36:44Z</time>
      </trkpt>
      <trkpt lat="48.62182" lon="7.64227">
        <ele>176.1</ele>
        <time>2020-06-28T14:36:45Z</time>
      </trkpt>
      <trkpt lat="48.62184" lon="7.64221">
        <ele>176.1</ele>
        <time>2020-06-28T14:36:46Z</time>
      </trkpt>
      <trkpt lat="48.62188" lon="7.64215">
        <ele>176</ele>
        <time>2020-06-28T14:36:47Z</time>
      </trkpt>
      <trkpt lat="48.62191" lon="7.64208">
        <ele>176</ele>
        <time>2020-06-28T14:36:48Z</time>
      </trkpt>
      <trkpt lat="48.62194" lon="7.64202">
        <ele>175.9</ele>
        <time>2020-06-28T14:36:49Z</time>
      </trkpt>
      <trkpt lat="48.62198" lon="7.64195">
        <ele>175.8</ele>
        <time>2020-06-28T14:36:50Z</time>
      </trkpt>
      <trkpt lat="48.62202" lon="7.64191">
        <ele>175.7</ele>
        <time>2020-06-28T14:36:51Z</time>
      </trkpt>
      <trkpt lat="48.62206" lon="7.64186">
        <ele>175.6</ele>
        <time>2020-06-28T14:36:52Z</time>
      </trkpt>
      <trkpt lat="48.62209" lon="7.64181">
        <ele>175.5</ele>
        <time>2020-06-28T14:36:53Z</time>
      </trkpt>
      <trkpt lat="48.62212" lon="7.64177">
        <ele>175.4</ele>
        <time>2020-06-28T14:36:54Z</time>
      </trkpt>
      <trkpt lat="48.62215" lon="7.64172">
        <ele>175.3</ele>
        <time>2020-06-28T14:36:55Z</time>
      </trkpt>
      <trkpt lat="48.62217" lon="7.64168">
        <ele>175.2</ele>
        <time>2020-06-28T14:36:56Z</time>
      </trkpt>
      <trkpt lat="48.6222" lon="7.64164">
        <ele>175.1</ele>
        <time>2020-06-28T14:36:57Z</time>
      </trkpt>
      <trkpt lat="48.62223" lon="7.64159">
        <ele>175.1</ele>
        <time>2020-06-28T14:36:58Z</time>
      </trkpt>
      <trkpt lat="48.62225" lon="7.64155">
        <ele>175</ele>
        <time>2020-06-28T14:36:59Z</time>
      </trkpt>
      <trkpt lat="48.62227" lon="7.6415">
        <ele>174.9</ele>
        <time>2020-06-28T14:37:00Z</time>
      </trkpt>
      <trkpt lat="48.62229" lon="7.64146">
        <ele>174.9</ele>
        <time>2020-06-28T14:37:01Z</time>
      </trkpt>
      <trkpt lat="48.62232" lon="7.64141">
        <ele>174.8</ele>
        <time>2020-06-28T14:37:02Z</time>
      </trkpt>
      <trkpt lat="48.62235" lon="7.64135">
        <ele>174.7</ele>
        <time>2020-06-28T14:37:03Z</time>
      </trkpt>
      <trkpt lat="48.62238" lon="7.6413">
        <ele>174.7</ele>
        <time>2020-06-28T14:37:04Z</time>
      </trkpt>
      <trkpt lat="48.6224" lon="7.64124">
        <ele>174.6</ele>
        <time>2020-06-28T14:37:05Z</time>
      </trkpt>
      <trkpt lat="48.62243" lon="7.64119">
        <ele>174.6</ele>
        <time>2020-06-28T14:37:06Z</time>
      </trkpt>
      <trkpt lat="48.62245" lon="7.64114">
        <ele>174.5</ele>
        <time>2020-06-28T14:37:07Z</time>
      </trkpt>
      <trkpt lat="48.62248" lon="7.6411">
        <ele>174.5</ele>
        <time>2020-06-28T14:37:08Z</time>
      </trkpt>
      <trkpt lat="48.62251" lon="7.64105">
        <ele>174.5</ele>
        <time>2020-06-28T14:37:09Z</time>
      </trkpt>
      <trkpt lat="48.62254" lon="7.641">
        <ele>174.4</ele>
        <time>2020-06-28T14:37:10Z</time>
      </trkpt>
      <trkpt lat="48.62256" lon="7.64094">
        <ele>174.4</ele>
        <time>2020-06-28T14:37:11Z</time>
      </trkpt>
      <trkpt lat="48.62259" lon="7.64088">
        <ele>174.3</ele>
        <time>2020-06-28T14:37:12Z</time>
      </trkpt>
      <trkpt lat="48.62263" lon="7.64082">
        <ele>174.2</ele>
        <time>2020-06-28T14:37:13Z</time>
      </trkpt>
      <trkpt lat="48.62265" lon="7.64076">
        <ele>174.2</ele>
        <time>2020-06-28T14:37:14Z</time>
      </trkpt>
      <trkpt lat="48.62269" lon="7.64071">
        <ele>174.1</ele>
        <time>2020-06-28T14:37:15Z</time>
      </trkpt>
      <trkpt lat="48.62271" lon="7.64065">
        <ele>174</ele>
        <time>2020-06-28T14:37:16Z</time>
      </trkpt>
      <trkpt lat="48.62275" lon="7.6406">
        <ele>173.9</ele>
        <time>2020-06-28T14:37:17Z</time>
      </trkpt>
      <trkpt lat="48.62279" lon="7.64054">
        <ele>173.8</ele>
        <time>2020-06-28T14:37:18Z</time>
      </trkpt>
      <trkpt lat="48.62283" lon="7.64048">
        <ele>173.7</ele>
        <time>2020-06-28T14:37:19Z</time>
      </trkpt>
      <trkpt lat="48.62286" lon="7.64043">
        <ele>173.5</ele>
        <time>2020-06-28T14:37:20Z</time>
      </trkpt>
      <trkpt lat="48.62289" lon="7.64038">
        <ele>173.4</ele>
        <time>2020-06-28T14:37:21Z</time>
      </trkpt>
      <trkpt lat="48.62292" lon="7.64032">
        <ele>173.2</ele>
        <time>2020-06-28T14:37:22Z</time>
      </trkpt>
      <trkpt lat="48.62295" lon="7.64027">
        <ele>173.1</ele>
        <time>2020-06-28T14:37:23Z</time>
      </trkpt>
      <trkpt lat="48.62298" lon="7.64021">
        <ele>172.9</ele>
        <time>2020-06-28T14:37:24Z</time>
      </trkpt>
      <trkpt lat="48.62301" lon="7.64015">
        <ele>172.8</ele>
        <time>2020-06-28T14:37:25Z</time>
      </trkpt>
      <trkpt lat="48.62304" lon="7.6401">
        <ele>172.6</ele>
        <time>2020-06-28T14:37:26Z</time>
      </trkpt>
      <trkpt lat="48.62307" lon="7.64003">
        <ele>172.5</ele>
        <time>2020-06-28T14:37:27Z</time>
      </trkpt>
      <trkpt lat="48.6231" lon="7.63997">
        <ele>172.3</ele>
        <time>2020-06-28T14:37:28Z</time>
      </trkpt>
      <trkpt lat="48.62312" lon="7.6399">
        <ele>172.2</ele>
        <time>2020-06-28T14:37:29Z</time>
      </trkpt>
      <trkpt lat="48.62315" lon="7.63984">
        <ele>172</ele>
        <time>2020-06-28T14:37:30Z</time>
      </trkpt>
      <trkpt lat="48.62318" lon="7.63978">
        <ele>171.9</ele>
        <time>2020-06-28T14:37:31Z</time>
      </trkpt>
      <trkpt lat="48.62321" lon="7.63973">
        <ele>171.7</ele>
        <time>2020-06-28T14:37:32Z</time>
      </trkpt>
      <trkpt lat="48.62325" lon="7.63966">
        <ele>171.6</ele>
        <time>2020-06-28T14:37:33Z</time>
      </trkpt>
      <trkpt lat="48.62328" lon="7.63961">
        <ele>171.4</ele>
        <time>2020-06-28T14:37:34Z</time>
      </trkpt>
      <trkpt lat="48.62331" lon="7.63954">
        <ele>171.3</ele>
        <time>2020-06-28T14:37:35Z</time>
      </trkpt>
      <trkpt lat="48.62335" lon="7.63948">
        <ele>171.2</ele>
        <time>2020-06-28T14:37:36Z</time>
      </trkpt>
      <trkpt lat="48.62338" lon="7.63942">
        <ele>171</ele>
        <time>2020-06-28T14:37:37Z</time>
      </trkpt>
      <trkpt lat="48.62341" lon="7.63936">
        <ele>170.9</ele>
        <time>2020-06-28T14:37:38Z</time>
      </trkpt>
      <trkpt lat="48.62344" lon="7.6393">
        <ele>170.7</ele>
        <time>2020-06-28T14:37:39Z</time>
      </trkpt>
      <trkpt lat="48.62348" lon="7.63924">
        <ele>170.6</ele>
        <time>2020-06-28T14:37:40Z</time>
      </trkpt>
      <trkpt lat="48.62351" lon="7.63918">
        <ele>170.4</ele>
        <time>2020-06-28T14:37:41Z</time>
      </trkpt>
      <trkpt lat="48.62355" lon="7.63912">
        <ele>170.2</ele>
        <time>2020-06-28T14:37:42Z</time>
      </trkpt>
      <trkpt lat="48.62357" lon="7.63907">
        <ele>170.1</ele>
        <time>2020-06-28T14:37:43Z</time>
      </trkpt>
      <trkpt lat="48.62361" lon="7.63902">
        <ele>170</ele>
        <time>2020-06-28T14:37:44Z</time>
      </trkpt>
      <trkpt lat="48.62365" lon="7.63897">
        <ele>169.9</ele>
        <time>2020-06-28T14:37:45Z</time>
      </trkpt>
      <trkpt lat="48.62368" lon="7.63891">
        <ele>169.7</ele>
        <time>2020-06-28T14:37:46Z</time>
      </trkpt>
      <trkpt lat="48.62372" lon="7.63885">
        <ele>169.6</ele>
        <time>2020-06-28T14:37:47Z</time>
      </trkpt>
      <trkpt lat="48.62375" lon="7.63878">
        <ele>169.4</ele>
        <time>2020-06-28T14:37:48Z</time>
      </trkpt>
      <trkpt lat="48.62378" lon="7.63871">
        <ele>169.3</ele>
        <time>2020-06-28T14:37:49Z</time>
      </trkpt>
      <trkpt lat="48.62381" lon="7.63864">
        <ele>169.2</ele>
        <time>2020-06-28T14:37:50Z</time>
      </trkpt>
      <trkpt lat="48.62385" lon="7.63858">
        <ele>169.1</ele>
        <time>2020-06-28T14:37:51Z</time>
      </trkpt>
      <trkpt lat="48.62388" lon="7.63852">
        <ele>169</ele>
        <time>2020-06-28T14:37:52Z</time>
      </trkpt>
      <trkpt lat="48.62391" lon="7.63845">
        <ele>168.9</ele>
        <time>2020-06-28T14:37:53Z</time>
      </trkpt>
      <trkpt lat="48.62393" lon="7.63838">
        <ele>168.8</ele>
        <time>2020-06-28T14:37:54Z</time>
      </trkpt>
      <trkpt lat="48.62396" lon="7.63831">
        <ele>168.7</ele>
        <time>2020-06-28T14:37:55Z</time>
      </trkpt>
      <trkpt lat="48.62399" lon="7.63824">
        <ele>168.7</ele>
        <time>2020-06-28T14:37:56Z</time>
      </trkpt>
      <trkpt lat="48.62402" lon="7.63817">
        <ele>168.6</ele>
        <time>2020-06-28T14:37:57Z</time>
      </trkpt>
      <trkpt lat="48.62405" lon="7.63811">
        <ele>168.6</ele>
        <time>2020-06-28T14:37:58Z</time>
      </trkpt>
      <trkpt lat="48.62409" lon="7.63803">
        <ele>168.6</ele>
        <time>2020-06-28T14:37:59Z</time>
      </trkpt>
      <trkpt lat="48.62413" lon="7.63796">
        <ele>168.6</ele>
        <time>2020-06-28T14:38:00Z</time>
      </trkpt>
      <trkpt lat="48.62417" lon="7.63789">
        <ele>168.6</ele>
        <time>2020-06-28T14:38:01Z</time>
      </trkpt>
      <trkpt lat="48.62421" lon="7.63783">
        <ele>168.6</ele>
        <time>2020-06-28T14:38:02Z</time>
      </trkpt>
      <trkpt lat="48.62424" lon="7.63776">
        <ele>168.6</ele>
        <time>2020-06-28T14:38:03Z</time>
      </trkpt>
      <trkpt lat="48.62428" lon="7.6377">
        <ele>168.6</ele>
        <time>2020-06-28T14:38:04Z</time>
      </trkpt>
      <trkpt lat="48.62431" lon="7.63763">
        <ele>168.6</ele>
        <time>2020-06-28T14:38:05Z</time>
      </trkpt>
      <trkpt lat="48.62434" lon="7.63757">
        <ele>168.7</ele>
        <time>2020-06-28T14:38:06Z</time>
      </trkpt>
      <trkpt lat="48.62437" lon="7.6375">
        <ele>168.7</ele>
        <time>2020-06-28T14:38:07Z</time>
      </trkpt>
      <trkpt lat="48.62441" lon="7.63744">
        <ele>168.7</ele>
        <time>2020-06-28T14:38:08Z</time>
      </trkpt>
      <trkpt lat="48.62444" lon="7.63737">
        <ele>168.7</ele>
        <time>2020-06-28T14:38:09Z</time>
      </trkpt>
      <trkpt lat="48.62447" lon="7.63731">
        <ele>168.7</ele>
        <time>2020-06-28T14:38:10Z</time>
      </trkpt>
      <trkpt lat="48.62451" lon="7.63725">
        <ele>168.7</ele>
        <time>2020-06-28T14:38:11Z</time>
      </trkpt>
      <trkpt lat="48.62454" lon="7.63719">
        <ele>168.7</ele>
        <time>2020-06-28T14:38:12Z</time>
      </trkpt>
      <trkpt lat="48.62459" lon="7.63714">
        <ele>168.8</ele>
        <time>2020-06-28T14:38:13Z</time>
      </trkpt>
      <trkpt lat="48.62462" lon="7.63709">
        <ele>168.8</ele>
        <time>2020-06-28T14:38:14Z</time>
      </trkpt>
      <trkpt lat="48.62465" lon="7.63704">
        <ele>168.8</ele>
        <time>2020-06-28T14:38:15Z</time>
      </trkpt>
      <trkpt lat="48.62469" lon="7.63698">
        <ele>168.9</ele>
        <time>2020-06-28T14:38:16Z</time>
      </trkpt>
      <trkpt lat="48.62472" lon="7.63693">
        <ele>169</ele>
        <time>2020-06-28T14:38:17Z</time>
      </trkpt>
      <trkpt lat="48.62475" lon="7.63687">
        <ele>169</ele>
        <time>2020-06-28T14:38:18Z</time>
      </trkpt>
      <trkpt lat="48.62478" lon="7.63682">
        <ele>169.1</ele>
        <time>2020-06-28T14:38:19Z</time>
      </trkpt>
      <trkpt lat="48.6248" lon="7.63677">
        <ele>169.2</ele>
        <time>2020-06-28T14:38:20Z</time>
      </trkpt>
      <trkpt lat="48.62483" lon="7.63672">
        <ele>169.2</ele>
        <time>2020-06-28T14:38:21Z</time>
      </trkpt>
      <trkpt lat="48.62485" lon="7.63667">
        <ele>169.3</ele>
        <time>2020-06-28T14:38:22Z</time>
      </trkpt>
      <trkpt lat="48.62487" lon="7.63662">
        <ele>169.3</ele>
        <time>2020-06-28T14:38:23Z</time>
      </trkpt>
      <trkpt lat="48.62491" lon="7.63658">
        <ele>169.4</ele>
        <time>2020-06-28T14:38:24Z</time>
      </trkpt>
      <trkpt lat="48.62493" lon="7.63654">
        <ele>169.5</ele>
        <time>2020-06-28T14:38:25Z</time>
      </trkpt>
      <trkpt lat="48.62496" lon="7.6365">
        <ele>169.6</ele>
        <time>2020-06-28T14:38:26Z</time>
      </trkpt>
      <trkpt lat="48.62498" lon="7.63644">
        <ele>169.6</ele>
        <time>2020-06-28T14:38:27Z</time>
      </trkpt>
      <trkpt lat="48.625" lon="7.6364">
        <ele>169.7</ele>
        <time>2020-06-28T14:38:28Z</time>
      </trkpt>
      <trkpt lat="48.62503" lon="7.63636">
        <ele>169.8</ele>
        <time>2020-06-28T14:38:29Z</time>
      </trkpt>
      <trkpt lat="48.62505" lon="7.63631">
        <ele>169.8</ele>
        <time>2020-06-28T14:38:30Z</time>
      </trkpt>
      <trkpt lat="48.62507" lon="7.63626">
        <ele>169.9</ele>
        <time>2020-06-28T14:38:31Z</time>
      </trkpt>
      <trkpt lat="48.6251" lon="7.63621">
        <ele>170</ele>
        <time>2020-06-28T14:38:32Z</time>
      </trkpt>
      <trkpt lat="48.62512" lon="7.63617">
        <ele>170.1</ele>
        <time>2020-06-28T14:38:33Z</time>
      </trkpt>
      <trkpt lat="48.62515" lon="7.63612">
        <ele>170.2</ele>
        <time>2020-06-28T14:38:34Z</time>
      </trkpt>
      <trkpt lat="48.62517" lon="7.63607">
        <ele>170.3</ele>
        <time>2020-06-28T14:38:35Z</time>
      </trkpt>
      <trkpt lat="48.6252" lon="7.63601">
        <ele>170.4</ele>
        <time>2020-06-28T14:38:36Z</time>
      </trkpt>
      <trkpt lat="48.62523" lon="7.63596">
        <ele>170.4</ele>
        <time>2020-06-28T14:38:37Z</time>
      </trkpt>
      <trkpt lat="48.62525" lon="7.63592">
        <ele>170.5</ele>
        <time>2020-06-28T14:38:38Z</time>
      </trkpt>
      <trkpt lat="48.62528" lon="7.63588">
        <ele>170.5</ele>
        <time>2020-06-28T14:38:39Z</time>
      </trkpt>
      <trkpt lat="48.6253" lon="7.63584">
        <ele>170.6</ele>
        <time>2020-06-28T14:38:40Z</time>
      </trkpt>
      <trkpt lat="48.62532" lon="7.63578">
        <ele>170.7</ele>
        <time>2020-06-28T14:38:41Z</time>
      </trkpt>
      <trkpt lat="48.62535" lon="7.63574">
        <ele>170.7</ele>
        <time>2020-06-28T14:38:42Z</time>
      </trkpt>
      <trkpt lat="48.62538" lon="7.63569">
        <ele>170.8</ele>
        <time>2020-06-28T14:38:43Z</time>
      </trkpt>
      <trkpt lat="48.6254" lon="7.63564">
        <ele>170.9</ele>
        <time>2020-06-28T14:38:44Z</time>
      </trkpt>
      <trkpt lat="48.62542" lon="7.63559">
        <ele>170.9</ele>
        <time>2020-06-28T14:38:45Z</time>
      </trkpt>
      <trkpt lat="48.62544" lon="7.63554">
        <ele>171</ele>
        <time>2020-06-28T14:38:46Z</time>
      </trkpt>
      <trkpt lat="48.62545" lon="7.63549">
        <ele>171.1</ele>
        <time>2020-06-28T14:38:47Z</time>
      </trkpt>
      <trkpt lat="48.62548" lon="7.63544">
        <ele>171.2</ele>
        <time>2020-06-28T14:38:48Z</time>
      </trkpt>
      <trkpt lat="48.6255" lon="7.63539">
        <ele>171.2</ele>
        <time>2020-06-28T14:38:49Z</time>
      </trkpt>
      <trkpt lat="48.62552" lon="7.63535">
        <ele>171.3</ele>
        <time>2020-06-28T14:38:50Z</time>
      </trkpt>
      <trkpt lat="48.62554" lon="7.6353">
        <ele>171.4</ele>
        <time>2020-06-28T14:38:51Z</time>
      </trkpt>
      <trkpt lat="48.62556" lon="7.63525">
        <ele>171.5</ele>
        <time>2020-06-28T14:38:52Z</time>
      </trkpt>
      <trkpt lat="48.62558" lon="7.6352">
        <ele>171.5</ele>
        <time>2020-06-28T14:38:53Z</time>
      </trkpt>
      <trkpt lat="48.62561" lon="7.63515">
        <ele>171.6</ele>
        <time>2020-06-28T14:38:54Z</time>
      </trkpt>
      <trkpt lat="48.62563" lon="7.63509">
        <ele>171.7</ele>
        <time>2020-06-28T14:38:55Z</time>
      </trkpt>
      <trkpt lat="48.62565" lon="7.63504">
        <ele>171.8</ele>
        <time>2020-06-28T14:38:56Z</time>
      </trkpt>
      <trkpt lat="48.62567" lon="7.63498">
        <ele>171.9</ele>
        <time>2020-06-28T14:38:57Z</time>
      </trkpt>
      <trkpt lat="48.6257" lon="7.63493">
        <ele>172</ele>
        <time>2020-06-28T14:38:58Z</time>
      </trkpt>
      <trkpt lat="48.62572" lon="7.63487">
        <ele>172</ele>
        <time>2020-06-28T14:38:59Z</time>
      </trkpt>
      <trkpt lat="48.62574" lon="7.63482">
        <ele>172.1</ele>
        <time>2020-06-28T14:39:00Z</time>
      </trkpt>
      <trkpt lat="48.62577" lon="7.63477">
        <ele>172.1</ele>
        <time>2020-06-28T14:39:01Z</time>
      </trkpt>
      <trkpt lat="48.62579" lon="7.63472">
        <ele>172.2</ele>
        <time>2020-06-28T14:39:02Z</time>
      </trkpt>
      <trkpt lat="48.62581" lon="7.63466">
        <ele>172.3</ele>
        <time>2020-06-28T14:39:03Z</time>
      </trkpt>
      <trkpt lat="48.62584" lon="7.6346">
        <ele>172.4</ele>
        <time>2020-06-28T14:39:04Z</time>
      </trkpt>
      <trkpt lat="48.62587" lon="7.63454">
        <ele>172.4</ele>
        <time>2020-06-28T14:39:05Z</time>
      </trkpt>
      <trkpt lat="48.62589" lon="7.63448">
        <ele>172.5</ele>
        <time>2020-06-28T14:39:06Z</time>
      </trkpt>
      <trkpt lat="48.62591" lon="7.63443">
        <ele>172.6</ele>
        <time>2020-06-28T14:39:07Z</time>
      </trkpt>
      <trkpt lat="48.62593" lon="7.63438">
        <ele>172.6</ele>
        <time>2020-06-28T14:39:08Z</time>
      </trkpt>
      <trkpt lat="48.62594" lon="7.63433">
        <ele>172.7</ele>
        <time>2020-06-28T14:39:09Z</time>
      </trkpt>
      <trkpt lat="48.62596" lon="7.63428">
        <ele>172.7</ele>
        <time>2020-06-28T14:39:10Z</time>
      </trkpt>
      <trkpt lat="48.62598" lon="7.63424">
        <ele>172.8</ele>
        <time>2020-06-28T14:39:11Z</time>
      </trkpt>
      <trkpt lat="48.62598" lon="7.63418">
        <ele>172.8</ele>
        <time>2020-06-28T14:39:12Z</time>
      </trkpt>
      <trkpt lat="48.62598" lon="7.63417">
        <ele>172.8</ele>
        <time>2020-06-28T14:39:13Z</time>
      </trkpt>
      <trkpt lat="48.62601" lon="7.63412">
        <ele>172.8</ele>
        <time>2020-06-28T14:39:14Z</time>
      </trkpt>
      <trkpt lat="48.62603" lon="7.63406">
        <ele>172.9</ele>
        <time>2020-06-28T14:39:15Z</time>
      </trkpt>
      <trkpt lat="48.62604" lon="7.63401">
        <ele>172.9</ele>
        <time>2020-06-28T14:39:16Z</time>
      </trkpt>
      <trkpt lat="48.62606" lon="7.63396">
        <ele>172.8</ele>
        <time>2020-06-28T14:39:17Z</time>
      </trkpt>
      <trkpt lat="48.62609" lon="7.63392">
        <ele>172.8</ele>
        <time>2020-06-28T14:39:18Z</time>
      </trkpt>
      <trkpt lat="48.6261" lon="7.63385">
        <ele>172.8</ele>
        <time>2020-06-28T14:39:19Z</time>
      </trkpt>
      <trkpt lat="48.62613" lon="7.6338">
        <ele>172.7</ele>
        <time>2020-06-28T14:39:20Z</time>
      </trkpt>
      <trkpt lat="48.62616" lon="7.63376">
        <ele>172.6</ele>
        <time>2020-06-28T14:39:21Z</time>
      </trkpt>
      <trkpt lat="48.6262" lon="7.63371">
        <ele>173</ele>
        <time>2020-06-28T14:39:22Z</time>
      </trkpt>
      <trkpt lat="48.62622" lon="7.63366">
        <ele>172.7</ele>
        <time>2020-06-28T14:39:23Z</time>
      </trkpt>
      <trkpt lat="48.62625" lon="7.63362">
        <ele>172.5</ele>
        <time>2020-06-28T14:39:24Z</time>
      </trkpt>
      <trkpt lat="48.62627" lon="7.63356">
        <ele>171.6</ele>
        <time>2020-06-28T14:39:25Z</time>
      </trkpt>
      <trkpt lat="48.62628" lon="7.63349">
        <ele>171.5</ele>
        <time>2020-06-28T14:39:26Z</time>
      </trkpt>
      <trkpt lat="48.62629" lon="7.63343">
        <ele>171.3</ele>
        <time>2020-06-28T14:39:27Z</time>
      </trkpt>
      <trkpt lat="48.62631" lon="7.63336">
        <ele>171.2</ele>
        <time>2020-06-28T14:39:28Z</time>
      </trkpt>
      <trkpt lat="48.62631" lon="7.63329">
        <ele>171</ele>
        <time>2020-06-28T14:39:29Z</time>
      </trkpt>
      <trkpt lat="48.62632" lon="7.63321">
        <ele>170.8</ele>
        <time>2020-06-28T14:39:30Z</time>
      </trkpt>
      <trkpt lat="48.62634" lon="7.63314">
        <ele>170.7</ele>
        <time>2020-06-28T14:39:31Z</time>
      </trkpt>
      <trkpt lat="48.62636" lon="7.63308">
        <ele>170.5</ele>
        <time>2020-06-28T14:39:32Z</time>
      </trkpt>
      <trkpt lat="48.62638" lon="7.63301">
        <ele>170.3</ele>
        <time>2020-06-28T14:39:33Z</time>
      </trkpt>
      <trkpt lat="48.6264" lon="7.63294">
        <ele>170.1</ele>
        <time>2020-06-28T14:39:34Z</time>
      </trkpt>
      <trkpt lat="48.62642" lon="7.63288">
        <ele>169.9</ele>
        <time>2020-06-28T14:39:35Z</time>
      </trkpt>
      <trkpt lat="48.62643" lon="7.63282">
        <ele>169.8</ele>
        <time>2020-06-28T14:39:36Z</time>
      </trkpt>
      <trkpt lat="48.62645" lon="7.63275">
        <ele>169.6</ele>
        <time>2020-06-28T14:39:37Z</time>
      </trkpt>
      <trkpt lat="48.62647" lon="7.63268">
        <ele>169.4</ele>
        <time>2020-06-28T14:39:38Z</time>
      </trkpt>
      <trkpt lat="48.62649" lon="7.6326">
        <ele>169.2</ele>
        <time>2020-06-28T14:39:39Z</time>
      </trkpt>
      <trkpt lat="48.62651" lon="7.63253">
        <ele>169</ele>
        <time>2020-06-28T14:39:40Z</time>
      </trkpt>
      <trkpt lat="48.62654" lon="7.63246">
        <ele>168.8</ele>
        <time>2020-06-28T14:39:41Z</time>
      </trkpt>
      <trkpt lat="48.62656" lon="7.63239">
        <ele>168.6</ele>
        <time>2020-06-28T14:39:42Z</time>
      </trkpt>
      <trkpt lat="48.62658" lon="7.63231">
        <ele>168.4</ele>
        <time>2020-06-28T14:39:43Z</time>
      </trkpt>
      <trkpt lat="48.6266" lon="7.63224">
        <ele>168.2</ele>
        <time>2020-06-28T14:39:44Z</time>
      </trkpt>
      <trkpt lat="48.62662" lon="7.63216">
        <ele>168</ele>
        <time>2020-06-28T14:39:45Z</time>
      </trkpt>
      <trkpt lat="48.62663" lon="7.63209">
        <ele>167.9</ele>
        <time>2020-06-28T14:39:46Z</time>
      </trkpt>
      <trkpt lat="48.62664" lon="7.63202">
        <ele>167.8</ele>
        <time>2020-06-28T14:39:47Z</time>
      </trkpt>
      <trkpt lat="48.62666" lon="7.63195">
        <ele>167.6</ele>
        <time>2020-06-28T14:39:48Z</time>
      </trkpt>
      <trkpt lat="48.62669" lon="7.63189">
        <ele>167.5</ele>
        <time>2020-06-28T14:39:49Z</time>
      </trkpt>
      <trkpt lat="48.62671" lon="7.63181">
        <ele>167.3</ele>
        <time>2020-06-28T14:39:50Z</time>
      </trkpt>
      <trkpt lat="48.62673" lon="7.63174">
        <ele>167.2</ele>
        <time>2020-06-28T14:39:51Z</time>
      </trkpt>
      <trkpt lat="48.62676" lon="7.63166">
        <ele>167</ele>
        <time>2020-06-28T14:39:52Z</time>
      </trkpt>
      <trkpt lat="48.6268" lon="7.63159">
        <ele>166.9</ele>
        <time>2020-06-28T14:39:53Z</time>
      </trkpt>
      <trkpt lat="48.62682" lon="7.63152">
        <ele>166.8</ele>
        <time>2020-06-28T14:39:54Z</time>
      </trkpt>
      <trkpt lat="48.62683" lon="7.63144">
        <ele>166.6</ele>
        <time>2020-06-28T14:39:55Z</time>
      </trkpt>
      <trkpt lat="48.62685" lon="7.63136">
        <ele>166.5</ele>
        <time>2020-06-28T14:39:56Z</time>
      </trkpt>
      <trkpt lat="48.62687" lon="7.63129">
        <ele>166.4</ele>
        <time>2020-06-28T14:39:57Z</time>
      </trkpt>
      <trkpt lat="48.62689" lon="7.6312">
        <ele>166.3</ele>
        <time>2020-06-28T14:39:58Z</time>
      </trkpt>
      <trkpt lat="48.62692" lon="7.63113">
        <ele>166.1</ele>
        <time>2020-06-28T14:39:59Z</time>
      </trkpt>
      <trkpt lat="48.62694" lon="7.63105">
        <ele>166</ele>
        <time>2020-06-28T14:40:00Z</time>
      </trkpt>
      <trkpt lat="48.62697" lon="7.63095">
        <ele>165.9</ele>
        <time>2020-06-28T14:40:01Z</time>
      </trkpt>
      <trkpt lat="48.62699" lon="7.63087">
        <ele>165.7</ele>
        <time>2020-06-28T14:40:02Z</time>
      </trkpt>
      <trkpt lat="48.62702" lon="7.63078">
        <ele>165.6</ele>
        <time>2020-06-28T14:40:03Z</time>
      </trkpt>
      <trkpt lat="48.62705" lon="7.6307">
        <ele>165.4</ele>
        <time>2020-06-28T14:40:04Z</time>
      </trkpt>
      <trkpt lat="48.62707" lon="7.63061">
        <ele>165.3</ele>
        <time>2020-06-28T14:40:05Z</time>
      </trkpt>
      <trkpt lat="48.6271" lon="7.63052">
        <ele>165.2</ele>
        <time>2020-06-28T14:40:06Z</time>
      </trkpt>
      <trkpt lat="48.62712" lon="7.63045">
        <ele>165.1</ele>
        <time>2020-06-28T14:40:07Z</time>
      </trkpt>
      <trkpt lat="48.62714" lon="7.63037">
        <ele>165</ele>
        <time>2020-06-28T14:40:08Z</time>
      </trkpt>
      <trkpt lat="48.62715" lon="7.6303">
        <ele>164.9</ele>
        <time>2020-06-28T14:40:09Z</time>
      </trkpt>
      <trkpt lat="48.62718" lon="7.63023">
        <ele>164.8</ele>
        <time>2020-06-28T14:40:10Z</time>
      </trkpt>
      <trkpt lat="48.62717" lon="7.63011">
        <ele>164.6</ele>
        <time>2020-06-28T14:40:11Z</time>
      </trkpt>
      <trkpt lat="48.62718" lon="7.63002">
        <ele>164.5</ele>
        <time>2020-06-28T14:40:12Z</time>
      </trkpt>
      <trkpt lat="48.6272" lon="7.62993">
        <ele>164.4</ele>
        <time>2020-06-28T14:40:13Z</time>
      </trkpt>
      <trkpt lat="48.62721" lon="7.62988">
        <ele>164.4</ele>
        <time>2020-06-28T14:40:14Z</time>
      </trkpt>
      <trkpt lat="48.62722" lon="7.62978">
        <ele>164.3</ele>
        <time>2020-06-28T14:40:15Z</time>
      </trkpt>
      <trkpt lat="48.62723" lon="7.62968">
        <ele>164.2</ele>
        <time>2020-06-28T14:40:16Z</time>
      </trkpt>
      <trkpt lat="48.62724" lon="7.62959">
        <ele>164.1</ele>
        <time>2020-06-28T14:40:17Z</time>
      </trkpt>
      <trkpt lat="48.62726" lon="7.6295">
        <ele>163.9</ele>
        <time>2020-06-28T14:40:18Z</time>
      </trkpt>
      <trkpt lat="48.62728" lon="7.62944">
        <ele>163.8</ele>
        <time>2020-06-28T14:40:19Z</time>
      </trkpt>
      <trkpt lat="48.62729" lon="7.62935">
        <ele>163.7</ele>
        <time>2020-06-28T14:40:20Z</time>
      </trkpt>
      <trkpt lat="48.6273" lon="7.62928">
        <ele>163.6</ele>
        <time>2020-06-28T14:40:21Z</time>
      </trkpt>
      <trkpt lat="48.62732" lon="7.62922">
        <ele>163.5</ele>
        <time>2020-06-28T14:40:22Z</time>
      </trkpt>
      <trkpt lat="48.62734" lon="7.62913">
        <ele>163.4</ele>
        <time>2020-06-28T14:40:23Z</time>
      </trkpt>
      <trkpt lat="48.62736" lon="7.62906">
        <ele>163.4</ele>
        <time>2020-06-28T14:40:24Z</time>
      </trkpt>
      <trkpt lat="48.62738" lon="7.62895">
        <ele>163.3</ele>
        <time>2020-06-28T14:40:25Z</time>
      </trkpt>
      <trkpt lat="48.62739" lon="7.62888">
        <ele>163.2</ele>
        <time>2020-06-28T14:40:26Z</time>
      </trkpt>
      <trkpt lat="48.6274" lon="7.6288">
        <ele>163.1</ele>
        <time>2020-06-28T14:40:27Z</time>
      </trkpt>
      <trkpt lat="48.62741" lon="7.62872">
        <ele>162.9</ele>
        <time>2020-06-28T14:40:28Z</time>
      </trkpt>
      <trkpt lat="48.62742" lon="7.62861">
        <ele>162.8</ele>
        <time>2020-06-28T14:40:29Z</time>
      </trkpt>
      <trkpt lat="48.62743" lon="7.62853">
        <ele>162.6</ele>
        <time>2020-06-28T14:40:30Z</time>
      </trkpt>
      <trkpt lat="48.62745" lon="7.62843">
        <ele>162.5</ele>
        <time>2020-06-28T14:40:31Z</time>
      </trkpt>
      <trkpt lat="48.62746" lon="7.62834">
        <ele>162.4</ele>
        <time>2020-06-28T14:40:32Z</time>
      </trkpt>
      <trkpt lat="48.62748" lon="7.62827">
        <ele>162.4</ele>
        <time>2020-06-28T14:40:33Z</time>
      </trkpt>
      <trkpt lat="48.6275" lon="7.62817">
        <ele>162.3</ele>
        <time>2020-06-28T14:40:34Z</time>
      </trkpt>
      <trkpt lat="48.62752" lon="7.62808">
        <ele>162.2</ele>
        <time>2020-06-28T14:40:35Z</time>
      </trkpt>
      <trkpt lat="48.62753" lon="7.62796">
        <ele>162.1</ele>
        <time>2020-06-28T14:40:36Z</time>
      </trkpt>
      <trkpt lat="48.62755" lon="7.62787">
        <ele>161.9</ele>
        <time>2020-06-28T14:40:37Z</time>
      </trkpt>
      <trkpt lat="48.62757" lon="7.62776">
        <ele>161.8</ele>
        <time>2020-06-28T14:40:38Z</time>
      </trkpt>
      <trkpt lat="48.62759" lon="7.62767">
        <ele>161.6</ele>
        <time>2020-06-28T14:40:39Z</time>
      </trkpt>
      <trkpt lat="48.6276" lon="7.6276">
        <ele>161.5</ele>
        <time>2020-06-28T14:40:40Z</time>
      </trkpt>
      <trkpt lat="48.62761" lon="7.62753">
        <ele>161.3</ele>
        <time>2020-06-28T14:40:41Z</time>
      </trkpt>
      <trkpt lat="48.62763" lon="7.62744">
        <ele>161.2</ele>
        <time>2020-06-28T14:40:42Z</time>
      </trkpt>
      <trkpt lat="48.62765" lon="7.62736">
        <ele>161</ele>
        <time>2020-06-28T14:40:43Z</time>
      </trkpt>
      <trkpt lat="48.62767" lon="7.62727">
        <ele>160.9</ele>
        <time>2020-06-28T14:40:44Z</time>
      </trkpt>
      <trkpt lat="48.62768" lon="7.62718">
        <ele>160.8</ele>
        <time>2020-06-28T14:40:45Z</time>
      </trkpt>
      <trkpt lat="48.62769" lon="7.62707">
        <ele>160.8</ele>
        <time>2020-06-28T14:40:46Z</time>
      </trkpt>
      <trkpt lat="48.62771" lon="7.62698">
        <ele>160.6</ele>
        <time>2020-06-28T14:40:47Z</time>
      </trkpt>
      <trkpt lat="48.62773" lon="7.62691">
        <ele>160.5</ele>
        <time>2020-06-28T14:40:48Z</time>
      </trkpt>
      <trkpt lat="48.62775" lon="7.62682">
        <ele>160.4</ele>
        <time>2020-06-28T14:40:49Z</time>
      </trkpt>
      <trkpt lat="48.62778" lon="7.62673">
        <ele>160.3</ele>
        <time>2020-06-28T14:40:50Z</time>
      </trkpt>
      <trkpt lat="48.6278" lon="7.62663">
        <ele>160.2</ele>
        <time>2020-06-28T14:40:51Z</time>
      </trkpt>
      <trkpt lat="48.62782" lon="7.62649">
        <ele>160.1</ele>
        <time>2020-06-28T14:40:52Z</time>
      </trkpt>
      <trkpt lat="48.62784" lon="7.62638">
        <ele>160</ele>
        <time>2020-06-28T14:40:53Z</time>
      </trkpt>
      <trkpt lat="48.62785" lon="7.62628">
        <ele>160</ele>
        <time>2020-06-28T14:40:54Z</time>
      </trkpt>
      <trkpt lat="48.62786" lon="7.62619">
        <ele>159.9</ele>
        <time>2020-06-28T14:40:55Z</time>
      </trkpt>
      <trkpt lat="48.62786" lon="7.62612">
        <ele>159.8</ele>
        <time>2020-06-28T14:40:56Z</time>
      </trkpt>
      <trkpt lat="48.62786" lon="7.62604">
        <ele>159.8</ele>
        <time>2020-06-28T14:40:57Z</time>
      </trkpt>
      <trkpt lat="48.62786" lon="7.62596">
        <ele>159.8</ele>
        <time>2020-06-28T14:40:58Z</time>
      </trkpt>
      <trkpt lat="48.62787" lon="7.62588">
        <ele>159.8</ele>
        <time>2020-06-28T14:40:59Z</time>
      </trkpt>
      <trkpt lat="48.62787" lon="7.62579">
        <ele>159.8</ele>
        <time>2020-06-28T14:41:00Z</time>
      </trkpt>
      <trkpt lat="48.62789" lon="7.62571">
        <ele>159.8</ele>
        <time>2020-06-28T14:41:01Z</time>
      </trkpt>
      <trkpt lat="48.6279" lon="7.62562">
        <ele>159.8</ele>
        <time>2020-06-28T14:41:02Z</time>
      </trkpt>
      <trkpt lat="48.6279" lon="7.62555">
        <ele>159.8</ele>
        <time>2020-06-28T14:41:03Z</time>
      </trkpt>
      <trkpt lat="48.62791" lon="7.62547">
        <ele>159.8</ele>
        <time>2020-06-28T14:41:04Z</time>
      </trkpt>
      <trkpt lat="48.62792" lon="7.62538">
        <ele>159.8</ele>
        <time>2020-06-28T14:41:05Z</time>
      </trkpt>
      <trkpt lat="48.62792" lon="7.6253">
        <ele>159.8</ele>
        <time>2020-06-28T14:41:06Z</time>
      </trkpt>
      <trkpt lat="48.62792" lon="7.62522">
        <ele>159.9</ele>
        <time>2020-06-28T14:41:07Z</time>
      </trkpt>
      <trkpt lat="48.62794" lon="7.62514">
        <ele>159.9</ele>
        <time>2020-06-28T14:41:08Z</time>
      </trkpt>
      <trkpt lat="48.62794" lon="7.62504">
        <ele>159.9</ele>
        <time>2020-06-28T14:41:09Z</time>
      </trkpt>
      <trkpt lat="48.62794" lon="7.62496">
        <ele>159.9</ele>
        <time>2020-06-28T14:41:10Z</time>
      </trkpt>
      <trkpt lat="48.62794" lon="7.62487">
        <ele>160</ele>
        <time>2020-06-28T14:41:11Z</time>
      </trkpt>
      <trkpt lat="48.62793" lon="7.62479">
        <ele>160</ele>
        <time>2020-06-28T14:41:12Z</time>
      </trkpt>
      <trkpt lat="48.62793" lon="7.62469">
        <ele>160</ele>
        <time>2020-06-28T14:41:13Z</time>
      </trkpt>
      <trkpt lat="48.62794" lon="7.62462">
        <ele>160.1</ele>
        <time>2020-06-28T14:41:14Z</time>
      </trkpt>
      <trkpt lat="48.62795" lon="7.62455">
        <ele>160.1</ele>
        <time>2020-06-28T14:41:15Z</time>
      </trkpt>
      <trkpt lat="48.62795" lon="7.62448">
        <ele>160.1</ele>
        <time>2020-06-28T14:41:16Z</time>
      </trkpt>
      <trkpt lat="48.62794" lon="7.62443">
        <ele>160.1</ele>
        <time>2020-06-28T14:41:17Z</time>
      </trkpt>
      <trkpt lat="48.62793" lon="7.62433">
        <ele>160.1</ele>
        <time>2020-06-28T14:41:18Z</time>
      </trkpt>
      <trkpt lat="48.62792" lon="7.62422">
        <ele>160.2</ele>
        <time>2020-06-28T14:41:19Z</time>
      </trkpt>
      <trkpt lat="48.62791" lon="7.62417">
        <ele>160.2</ele>
        <time>2020-06-28T14:41:20Z</time>
      </trkpt>
      <trkpt lat="48.62789" lon="7.6241">
        <ele>160.2</ele>
        <time>2020-06-28T14:41:21Z</time>
      </trkpt>
      <trkpt lat="48.62788" lon="7.62404">
        <ele>160.2</ele>
        <time>2020-06-28T14:41:22Z</time>
      </trkpt>
      <trkpt lat="48.62787" lon="7.62399">
        <ele>160.2</ele>
        <time>2020-06-28T14:41:23Z</time>
      </trkpt>
      <trkpt lat="48.62786" lon="7.6239">
        <ele>160.2</ele>
        <time>2020-06-28T14:41:24Z</time>
      </trkpt>
      <trkpt lat="48.62786" lon="7.62384">
        <ele>160.2</ele>
        <time>2020-06-28T14:41:25Z</time>
      </trkpt>
      <trkpt lat="48.62785" lon="7.62376">
        <ele>160.2</ele>
        <time>2020-06-28T14:41:26Z</time>
      </trkpt>
      <trkpt lat="48.62785" lon="7.62369">
        <ele>160.1</ele>
        <time>2020-06-28T14:41:27Z</time>
      </trkpt>
      <trkpt lat="48.62784" lon="7.62362">
        <ele>160.1</ele>
        <time>2020-06-28T14:41:28Z</time>
      </trkpt>
      <trkpt lat="48.62784" lon="7.62355">
        <ele>160.1</ele>
        <time>2020-06-28T14:41:29Z</time>
      </trkpt>
      <trkpt lat="48.62783" lon="7.62348">
        <ele>160</ele>
        <time>2020-06-28T14:41:30Z</time>
      </trkpt>
      <trkpt lat="48.62783" lon="7.62341">
        <ele>160</ele>
        <time>2020-06-28T14:41:31Z</time>
      </trkpt>
      <trkpt lat="48.62781" lon="7.62333">
        <ele>159.9</ele>
        <time>2020-06-28T14:41:32Z</time>
      </trkpt>
      <trkpt lat="48.62781" lon="7.62328">
        <ele>159.9</ele>
        <time>2020-06-28T14:41:33Z</time>
      </trkpt>
      <trkpt lat="48.6278" lon="7.62319">
        <ele>159.9</ele>
        <time>2020-06-28T14:41:34Z</time>
      </trkpt>
      <trkpt lat="48.62779" lon="7.62311">
        <ele>159.8</ele>
        <time>2020-06-28T14:41:35Z</time>
      </trkpt>
      <trkpt lat="48.62778" lon="7.62303">
        <ele>159.8</ele>
        <time>2020-06-28T14:41:36Z</time>
      </trkpt>
      <trkpt lat="48.62777" lon="7.62295">
        <ele>159.8</ele>
        <time>2020-06-28T14:41:37Z</time>
      </trkpt>
      <trkpt lat="48.62775" lon="7.62286">
        <ele>159.8</ele>
        <time>2020-06-28T14:41:38Z</time>
      </trkpt>
      <trkpt lat="48.62774" lon="7.62277">
        <ele>159.8</ele>
        <time>2020-06-28T14:41:39Z</time>
      </trkpt>
      <trkpt lat="48.62774" lon="7.62269">
        <ele>159.8</ele>
        <time>2020-06-28T14:41:40Z</time>
      </trkpt>
      <trkpt lat="48.62772" lon="7.6226">
        <ele>159.8</ele>
        <time>2020-06-28T14:41:41Z</time>
      </trkpt>
      <trkpt lat="48.62773" lon="7.62252">
        <ele>159.8</ele>
        <time>2020-06-28T14:41:42Z</time>
      </trkpt>
      <trkpt lat="48.62773" lon="7.62244">
        <ele>159.9</ele>
        <time>2020-06-28T14:41:43Z</time>
      </trkpt>
      <trkpt lat="48.62774" lon="7.62237">
        <ele>159.9</ele>
        <time>2020-06-28T14:41:44Z</time>
      </trkpt>
      <trkpt lat="48.62774" lon="7.62229">
        <ele>159.9</ele>
        <time>2020-06-28T14:41:45Z</time>
      </trkpt>
      <trkpt lat="48.62774" lon="7.62221">
        <ele>159.9</ele>
        <time>2020-06-28T14:41:46Z</time>
      </trkpt>
      <trkpt lat="48.62774" lon="7.62212">
        <ele>160</ele>
        <time>2020-06-28T14:41:47Z</time>
      </trkpt>
      <trkpt lat="48.62775" lon="7.62202">
        <ele>160</ele>
        <time>2020-06-28T14:41:48Z</time>
      </trkpt>
      <trkpt lat="48.62776" lon="7.62195">
        <ele>160</ele>
        <time>2020-06-28T14:41:49Z</time>
      </trkpt>
      <trkpt lat="48.62777" lon="7.62188">
        <ele>160.1</ele>
        <time>2020-06-28T14:41:50Z</time>
      </trkpt>
      <trkpt lat="48.62777" lon="7.62182">
        <ele>160.1</ele>
        <time>2020-06-28T14:41:51Z</time>
      </trkpt>
      <trkpt lat="48.62777" lon="7.62174">
        <ele>160.2</ele>
        <time>2020-06-28T14:41:52Z</time>
      </trkpt>
      <trkpt lat="48.62777" lon="7.62165">
        <ele>160.3</ele>
        <time>2020-06-28T14:41:53Z</time>
      </trkpt>
      <trkpt lat="48.62778" lon="7.62156">
        <ele>160.4</ele>
        <time>2020-06-28T14:41:54Z</time>
      </trkpt>
      <trkpt lat="48.62778" lon="7.62149">
        <ele>160.5</ele>
        <time>2020-06-28T14:41:55Z</time>
      </trkpt>
      <trkpt lat="48.62779" lon="7.62142">
        <ele>160.5</ele>
        <time>2020-06-28T14:41:56Z</time>
      </trkpt>
      <trkpt lat="48.62779" lon="7.62134">
        <ele>160.6</ele>
        <time>2020-06-28T14:41:57Z</time>
      </trkpt>
      <trkpt lat="48.62779" lon="7.62127">
        <ele>160.7</ele>
        <time>2020-06-28T14:41:58Z</time>
      </trkpt>
      <trkpt lat="48.62781" lon="7.62121">
        <ele>160.8</ele>
        <time>2020-06-28T14:41:59Z</time>
      </trkpt>
      <trkpt lat="48.62782" lon="7.62116">
        <ele>160.8</ele>
        <time>2020-06-28T14:42:00Z</time>
      </trkpt>
      <trkpt lat="48.62783" lon="7.62111">
        <ele>160.9</ele>
        <time>2020-06-28T14:42:01Z</time>
      </trkpt>
      <trkpt lat="48.62783" lon="7.62105">
        <ele>161</ele>
        <time>2020-06-28T14:42:02Z</time>
      </trkpt>
      <trkpt lat="48.62783" lon="7.62097">
        <ele>161.1</ele>
        <time>2020-06-28T14:42:03Z</time>
      </trkpt>
      <trkpt lat="48.62784" lon="7.62091">
        <ele>161.1</ele>
        <time>2020-06-28T14:42:04Z</time>
      </trkpt>
      <trkpt lat="48.62786" lon="7.62085">
        <ele>161.1</ele>
        <time>2020-06-28T14:42:05Z</time>
      </trkpt>
      <trkpt lat="48.62787" lon="7.62076">
        <ele>161.2</ele>
        <time>2020-06-28T14:42:06Z</time>
      </trkpt>
      <trkpt lat="48.6279" lon="7.62068">
        <ele>161.1</ele>
        <time>2020-06-28T14:42:07Z</time>
      </trkpt>
      <trkpt lat="48.62792" lon="7.62061">
        <ele>161</ele>
        <time>2020-06-28T14:42:08Z</time>
      </trkpt>
      <trkpt lat="48.62794" lon="7.62056">
        <ele>161</ele>
        <time>2020-06-28T14:42:09Z</time>
      </trkpt>
      <trkpt lat="48.62797" lon="7.62051">
        <ele>160.8</ele>
        <time>2020-06-28T14:42:10Z</time>
      </trkpt>
      <trkpt lat="48.628" lon="7.62045">
        <ele>160.7</ele>
        <time>2020-06-28T14:42:11Z</time>
      </trkpt>
      <trkpt lat="48.62802" lon="7.62038">
        <ele>160.6</ele>
        <time>2020-06-28T14:42:12Z</time>
      </trkpt>
      <trkpt lat="48.62804" lon="7.62031">
        <ele>160.5</ele>
        <time>2020-06-28T14:42:13Z</time>
      </trkpt>
      <trkpt lat="48.62808" lon="7.62024">
        <ele>160.4</ele>
        <time>2020-06-28T14:42:14Z</time>
      </trkpt>
      <trkpt lat="48.62812" lon="7.62018">
        <ele>160.2</ele>
        <time>2020-06-28T14:42:15Z</time>
      </trkpt>
      <trkpt lat="48.62816" lon="7.62011">
        <ele>160</ele>
        <time>2020-06-28T14:42:16Z</time>
      </trkpt>
      <trkpt lat="48.62821" lon="7.62005">
        <ele>159.8</ele>
        <time>2020-06-28T14:42:17Z</time>
      </trkpt>
      <trkpt lat="48.62826" lon="7.61999">
        <ele>159.6</ele>
        <time>2020-06-28T14:42:18Z</time>
      </trkpt>
      <trkpt lat="48.6283" lon="7.61994">
        <ele>159.4</ele>
        <time>2020-06-28T14:42:19Z</time>
      </trkpt>
      <trkpt lat="48.62835" lon="7.61989">
        <ele>159.2</ele>
        <time>2020-06-28T14:42:20Z</time>
      </trkpt>
      <trkpt lat="48.62839" lon="7.61984">
        <ele>159</ele>
        <time>2020-06-28T14:42:21Z</time>
      </trkpt>
      <trkpt lat="48.62844" lon="7.61981">
        <ele>158.9</ele>
        <time>2020-06-28T14:42:22Z</time>
      </trkpt>
      <trkpt lat="48.6285" lon="7.61978">
        <ele>158.7</ele>
        <time>2020-06-28T14:42:23Z</time>
      </trkpt>
      <trkpt lat="48.62856" lon="7.61976">
        <ele>158.5</ele>
        <time>2020-06-28T14:42:24Z</time>
      </trkpt>
      <trkpt lat="48.62862" lon="7.61974">
        <ele>158.2</ele>
        <time>2020-06-28T14:42:25Z</time>
      </trkpt>
      <trkpt lat="48.62869" lon="7.61971">
        <ele>158</ele>
        <time>2020-06-28T14:42:26Z</time>
      </trkpt>
      <trkpt lat="48.62875" lon="7.61969">
        <ele>157.7</ele>
        <time>2020-06-28T14:42:27Z</time>
      </trkpt>
      <trkpt lat="48.62882" lon="7.61968">
        <ele>157.5</ele>
        <time>2020-06-28T14:42:28Z</time>
      </trkpt>
      <trkpt lat="48.62888" lon="7.61967">
        <ele>157.3</ele>
        <time>2020-06-28T14:42:29Z</time>
      </trkpt>
      <trkpt lat="48.62894" lon="7.61964">
        <ele>157</ele>
        <time>2020-06-28T14:42:30Z</time>
      </trkpt>
      <trkpt lat="48.629" lon="7.61964">
        <ele>156.9</ele>
        <time>2020-06-28T14:42:31Z</time>
      </trkpt>
      <trkpt lat="48.62906" lon="7.61963">
        <ele>156.6</ele>
        <time>2020-06-28T14:42:32Z</time>
      </trkpt>
      <trkpt lat="48.62913" lon="7.61961">
        <ele>156.3</ele>
        <time>2020-06-28T14:42:33Z</time>
      </trkpt>
      <trkpt lat="48.6292" lon="7.6196">
        <ele>156</ele>
        <time>2020-06-28T14:42:34Z</time>
      </trkpt>
      <trkpt lat="48.62927" lon="7.61959">
        <ele>155.7</ele>
        <time>2020-06-28T14:42:35Z</time>
      </trkpt>
      <trkpt lat="48.62934" lon="7.61957">
        <ele>155.5</ele>
        <time>2020-06-28T14:42:36Z</time>
      </trkpt>
      <trkpt lat="48.62941" lon="7.61955">
        <ele>155.2</ele>
        <time>2020-06-28T14:42:37Z</time>
      </trkpt>
      <trkpt lat="48.62948" lon="7.61953">
        <ele>154.9</ele>
        <time>2020-06-28T14:42:38Z</time>
      </trkpt>
      <trkpt lat="48.62955" lon="7.6195">
        <ele>154.7</ele>
        <time>2020-06-28T14:42:39Z</time>
      </trkpt>
      <trkpt lat="48.62962" lon="7.61948">
        <ele>154.5</ele>
        <time>2020-06-28T14:42:40Z</time>
      </trkpt>
      <trkpt lat="48.62969" lon="7.61947">
        <ele>154.3</ele>
        <time>2020-06-28T14:42:41Z</time>
      </trkpt>
      <trkpt lat="48.62976" lon="7.61945">
        <ele>154</ele>
        <time>2020-06-28T14:42:42Z</time>
      </trkpt>
      <trkpt lat="48.62983" lon="7.61943">
        <ele>153.7</ele>
        <time>2020-06-28T14:42:43Z</time>
      </trkpt>
      <trkpt lat="48.62991" lon="7.6194">
        <ele>153.5</ele>
        <time>2020-06-28T14:42:44Z</time>
      </trkpt>
      <trkpt lat="48.62999" lon="7.61938">
        <ele>153.5</ele>
        <time>2020-06-28T14:42:45Z</time>
      </trkpt>
      <trkpt lat="48.63007" lon="7.61936">
        <ele>153.4</ele>
        <time>2020-06-28T14:42:46Z</time>
      </trkpt>
      <trkpt lat="48.63014" lon="7.61934">
        <ele>153.4</ele>
        <time>2020-06-28T14:42:47Z</time>
      </trkpt>
      <trkpt lat="48.63021" lon="7.61933">
        <ele>153.5</ele>
        <time>2020-06-28T14:42:48Z</time>
      </trkpt>
      <trkpt lat="48.63029" lon="7.61931">
        <ele>153.5</ele>
        <time>2020-06-28T14:42:49Z</time>
      </trkpt>
      <trkpt lat="48.63035" lon="7.6193">
        <ele>153.6</ele>
        <time>2020-06-28T14:42:50Z</time>
      </trkpt>
      <trkpt lat="48.63042" lon="7.61928">
        <ele>153.8</ele>
        <time>2020-06-28T14:42:51Z</time>
      </trkpt>
      <trkpt lat="48.63049" lon="7.61926">
        <ele>153.9</ele>
        <time>2020-06-28T14:42:52Z</time>
      </trkpt>
      <trkpt lat="48.63055" lon="7.61923">
        <ele>153.9</ele>
        <time>2020-06-28T14:42:53Z</time>
      </trkpt>
      <trkpt lat="48.63061" lon="7.61921">
        <ele>153.8</ele>
        <time>2020-06-28T14:42:54Z</time>
      </trkpt>
      <trkpt lat="48.63067" lon="7.61919">
        <ele>153.7</ele>
        <time>2020-06-28T14:42:55Z</time>
      </trkpt>
      <trkpt lat="48.63073" lon="7.61918">
        <ele>153.7</ele>
        <time>2020-06-28T14:42:56Z</time>
      </trkpt>
      <trkpt lat="48.63079" lon="7.61915">
        <ele>153.6</ele>
        <time>2020-06-28T14:42:57Z</time>
      </trkpt>
      <trkpt lat="48.63085" lon="7.61914">
        <ele>153.6</ele>
        <time>2020-06-28T14:42:58Z</time>
      </trkpt>
      <trkpt lat="48.63091" lon="7.61912">
        <ele>153.7</ele>
        <time>2020-06-28T14:42:59Z</time>
      </trkpt>
      <trkpt lat="48.63096" lon="7.61909">
        <ele>153.7</ele>
        <time>2020-06-28T14:43:00Z</time>
      </trkpt>
      <trkpt lat="48.63102" lon="7.61908">
        <ele>153.8</ele>
        <time>2020-06-28T14:43:01Z</time>
      </trkpt>
      <trkpt lat="48.63108" lon="7.61908">
        <ele>153.8</ele>
        <time>2020-06-28T14:43:02Z</time>
      </trkpt>
      <trkpt lat="48.63113" lon="7.61905">
        <ele>154</ele>
        <time>2020-06-28T14:43:03Z</time>
      </trkpt>
      <trkpt lat="48.63119" lon="7.61904">
        <ele>154.1</ele>
        <time>2020-06-28T14:43:04Z</time>
      </trkpt>
      <trkpt lat="48.63124" lon="7.61902">
        <ele>154.2</ele>
        <time>2020-06-28T14:43:05Z</time>
      </trkpt>
      <trkpt lat="48.6313" lon="7.61901">
        <ele>154.4</ele>
        <time>2020-06-28T14:43:06Z</time>
      </trkpt>
      <trkpt lat="48.63135" lon="7.619">
        <ele>154.5</ele>
        <time>2020-06-28T14:43:07Z</time>
      </trkpt>
      <trkpt lat="48.6314" lon="7.61898">
        <ele>154.6</ele>
        <time>2020-06-28T14:43:08Z</time>
      </trkpt>
      <trkpt lat="48.63145" lon="7.61896">
        <ele>154.8</ele>
        <time>2020-06-28T14:43:09Z</time>
      </trkpt>
      <trkpt lat="48.6315" lon="7.61893">
        <ele>155</ele>
        <time>2020-06-28T14:43:10Z</time>
      </trkpt>
      <trkpt lat="48.63156" lon="7.61891">
        <ele>155.1</ele>
        <time>2020-06-28T14:43:11Z</time>
      </trkpt>
      <trkpt lat="48.63161" lon="7.61889">
        <ele>155.3</ele>
        <time>2020-06-28T14:43:12Z</time>
      </trkpt>
      <trkpt lat="48.63166" lon="7.61887">
        <ele>155.4</ele>
        <time>2020-06-28T14:43:13Z</time>
      </trkpt>
      <trkpt lat="48.6317" lon="7.61885">
        <ele>155.5</ele>
        <time>2020-06-28T14:43:14Z</time>
      </trkpt>
      <trkpt lat="48.63174" lon="7.61881">
        <ele>155.6</ele>
        <time>2020-06-28T14:43:15Z</time>
      </trkpt>
      <trkpt lat="48.63178" lon="7.61878">
        <ele>155.8</ele>
        <time>2020-06-28T14:43:16Z</time>
      </trkpt>
      <trkpt lat="48.63182" lon="7.61876">
        <ele>156</ele>
        <time>2020-06-28T14:43:17Z</time>
      </trkpt>
      <trkpt lat="48.63186" lon="7.61873">
        <ele>156.1</ele>
        <time>2020-06-28T14:43:18Z</time>
      </trkpt>
      <trkpt lat="48.63189" lon="7.61868">
        <ele>156.3</ele>
        <time>2020-06-28T14:43:19Z</time>
      </trkpt>
      <trkpt lat="48.63193" lon="7.61864">
        <ele>156.5</ele>
        <time>2020-06-28T14:43:20Z</time>
      </trkpt>
      <trkpt lat="48.63195" lon="7.61859">
        <ele>156.7</ele>
        <time>2020-06-28T14:43:21Z</time>
      </trkpt>
      <trkpt lat="48.63197" lon="7.61854">
        <ele>156.9</ele>
        <time>2020-06-28T14:43:22Z</time>
      </trkpt>
      <trkpt lat="48.63198" lon="7.61851">
        <ele>157</ele>
        <time>2020-06-28T14:43:23Z</time>
      </trkpt>
      <trkpt lat="48.632" lon="7.61847">
        <ele>157.2</ele>
        <time>2020-06-28T14:43:24Z</time>
      </trkpt>
      <trkpt lat="48.63202" lon="7.61842">
        <ele>157.4</ele>
        <time>2020-06-28T14:43:25Z</time>
      </trkpt>
      <trkpt lat="48.63203" lon="7.61839">
        <ele>157.6</ele>
        <time>2020-06-28T14:43:26Z</time>
      </trkpt>
      <trkpt lat="48.63206" lon="7.61833">
        <ele>157.8</ele>
        <time>2020-06-28T14:43:27Z</time>
      </trkpt>
      <trkpt lat="48.63208" lon="7.61828">
        <ele>158.1</ele>
        <time>2020-06-28T14:43:28Z</time>
      </trkpt>
      <trkpt lat="48.63208" lon="7.61826">
        <ele>158.2</ele>
        <time>2020-06-28T14:43:29Z</time>
      </trkpt>
      <trkpt lat="48.6321" lon="7.61822">
        <ele>158.4</ele>
        <time>2020-06-28T14:43:30Z</time>
      </trkpt>
      <trkpt lat="48.6321" lon="7.6182">
        <ele>158.5</ele>
        <time>2020-06-28T14:43:31Z</time>
      </trkpt>
      <trkpt lat="48.63212" lon="7.61817">
        <ele>158.8</ele>
        <time>2020-06-28T14:43:32Z</time>
      </trkpt>
      <trkpt lat="48.63213" lon="7.61814">
        <ele>159.6</ele>
        <time>2020-06-28T14:43:33Z</time>
      </trkpt>
      <trkpt lat="48.63213" lon="7.61815">
        <ele>158.9</ele>
        <time>2020-06-28T14:43:34Z</time>
      </trkpt>
      <trkpt lat="48.63213" lon="7.61816">
        <ele>158.9</ele>
        <time>2020-06-28T14:43:35Z</time>
      </trkpt>
      <trkpt lat="48.63212" lon="7.61816">
        <ele>158.9</ele>
        <time>2020-06-28T14:43:36Z</time>
      </trkpt>
      <trkpt lat="48.63212" lon="7.61816">
        <ele>158.9</ele>
        <time>2020-06-28T14:43:37Z</time>
      </trkpt>
      <trkpt lat="48.63212" lon="7.61817">
        <ele>158.9</ele>
        <time>2020-06-28T14:43:38Z</time>
      </trkpt>
      <trkpt lat="48.63211" lon="7.61817">
        <ele>158.9</ele>
        <time>2020-06-28T14:43:39Z</time>
      </trkpt>
      <trkpt lat="48.63211" lon="7.61817">
        <ele>158.9</ele>
        <time>2020-06-28T14:43:40Z</time>
      </trkpt>
      <trkpt lat="48.63212" lon="7.61814">
        <ele>158.9</ele>
        <time>2020-06-28T14:43:41Z</time>
      </trkpt>
      <trkpt lat="48.63213" lon="7.6181">
        <ele>159.6</ele>
        <time>2020-06-28T14:43:42Z</time>
      </trkpt>
      <trkpt lat="48.63214" lon="7.61806">
        <ele>159.7</ele>
        <time>2020-06-28T14:43:43Z</time>
      </trkpt>
      <trkpt lat="48.63215" lon="7.61802">
        <ele>159.7</ele>
        <time>2020-06-28T14:43:52Z</time>
      </trkpt>
      <trkpt lat="48.63215" lon="7.61799">
        <ele>159.8</ele>
        <time>2020-06-28T14:43:53Z</time>
      </trkpt>
      <trkpt lat="48.63216" lon="7.61794">
        <ele>159.9</ele>
        <time>2020-06-28T14:43:54Z</time>
      </trkpt>
      <trkpt lat="48.63216" lon="7.61788">
        <ele>160</ele>
        <time>2020-06-28T14:43:55Z</time>
      </trkpt>
      <trkpt lat="48.63216" lon="7.61782">
        <ele>160</ele>
        <time>2020-06-28T14:43:56Z</time>
      </trkpt>
      <trkpt lat="48.63217" lon="7.61776">
        <ele>160</ele>
        <time>2020-06-28T14:43:57Z</time>
      </trkpt>
      <trkpt lat="48.63217" lon="7.61769">
        <ele>160</ele>
        <time>2020-06-28T14:43:58Z</time>
      </trkpt>
      <trkpt lat="48.63218" lon="7.61762">
        <ele>160.1</ele>
        <time>2020-06-28T14:43:59Z</time>
      </trkpt>
      <trkpt lat="48.63219" lon="7.61757">
        <ele>160.1</ele>
        <time>2020-06-28T14:44:00Z</time>
      </trkpt>
      <trkpt lat="48.6322" lon="7.61751">
        <ele>160.1</ele>
        <time>2020-06-28T14:44:01Z</time>
      </trkpt>
      <trkpt lat="48.6322" lon="7.61745">
        <ele>160.1</ele>
        <time>2020-06-28T14:44:02Z</time>
      </trkpt>
      <trkpt lat="48.63221" lon="7.61738">
        <ele>160.2</ele>
        <time>2020-06-28T14:44:03Z</time>
      </trkpt>
      <trkpt lat="48.63221" lon="7.61731">
        <ele>160.2</ele>
        <time>2020-06-28T14:44:04Z</time>
      </trkpt>
      <trkpt lat="48.63222" lon="7.61725">
        <ele>160.2</ele>
        <time>2020-06-28T14:44:05Z</time>
      </trkpt>
      <trkpt lat="48.63222" lon="7.61718">
        <ele>160.2</ele>
        <time>2020-06-28T14:44:06Z</time>
      </trkpt>
      <trkpt lat="48.63222" lon="7.61712">
        <ele>160.3</ele>
        <time>2020-06-28T14:44:07Z</time>
      </trkpt>
      <trkpt lat="48.63222" lon="7.61705">
        <ele>160.3</ele>
        <time>2020-06-28T14:44:08Z</time>
      </trkpt>
      <trkpt lat="48.63223" lon="7.61697">
        <ele>160.4</ele>
        <time>2020-06-28T14:44:09Z</time>
      </trkpt>
      <trkpt lat="48.63221" lon="7.61689">
        <ele>160.4</ele>
        <time>2020-06-28T14:44:10Z</time>
      </trkpt>
      <trkpt lat="48.63222" lon="7.61683">
        <ele>160.4</ele>
        <time>2020-06-28T14:44:11Z</time>
      </trkpt>
      <trkpt lat="48.63221" lon="7.61678">
        <ele>160.5</ele>
        <time>2020-06-28T14:44:12Z</time>
      </trkpt>
      <trkpt lat="48.63222" lon="7.61674">
        <ele>160.5</ele>
        <time>2020-06-28T14:44:13Z</time>
      </trkpt>
      <trkpt lat="48.63222" lon="7.61668">
        <ele>160.5</ele>
        <time>2020-06-28T14:44:14Z</time>
      </trkpt>
      <trkpt lat="48.63222" lon="7.61662">
        <ele>160.5</ele>
        <time>2020-06-28T14:44:15Z</time>
      </trkpt>
      <trkpt lat="48.63224" lon="7.61657">
        <ele>160.6</ele>
        <time>2020-06-28T14:44:16Z</time>
      </trkpt>
      <trkpt lat="48.63225" lon="7.61649">
        <ele>160.6</ele>
        <time>2020-06-28T14:44:17Z</time>
      </trkpt>
      <trkpt lat="48.63225" lon="7.61643">
        <ele>160.6</ele>
        <time>2020-06-28T14:44:18Z</time>
      </trkpt>
      <trkpt lat="48.63225" lon="7.61639">
        <ele>160.7</ele>
        <time>2020-06-28T14:44:19Z</time>
      </trkpt>
      <trkpt lat="48.63225" lon="7.61634">
        <ele>160.7</ele>
        <time>2020-06-28T14:44:20Z</time>
      </trkpt>
      <trkpt lat="48.63226" lon="7.61628">
        <ele>160.7</ele>
        <time>2020-06-28T14:44:21Z</time>
      </trkpt>
      <trkpt lat="48.63226" lon="7.61623">
        <ele>160.8</ele>
        <time>2020-06-28T14:44:22Z</time>
      </trkpt>
      <trkpt lat="48.63226" lon="7.61615">
        <ele>160.9</ele>
        <time>2020-06-28T14:44:23Z</time>
      </trkpt>
      <trkpt lat="48.63226" lon="7.61608">
        <ele>160.9</ele>
        <time>2020-06-28T14:44:24Z</time>
      </trkpt>
      <trkpt lat="48.63226" lon="7.61602">
        <ele>161</ele>
        <time>2020-06-28T14:44:25Z</time>
      </trkpt>
      <trkpt lat="48.63226" lon="7.61596">
        <ele>161</ele>
        <time>2020-06-28T14:44:26Z</time>
      </trkpt>
      <trkpt lat="48.63227" lon="7.6159">
        <ele>161.1</ele>
        <time>2020-06-28T14:44:27Z</time>
      </trkpt>
      <trkpt lat="48.63229" lon="7.61584">
        <ele>161.1</ele>
        <time>2020-06-28T14:44:28Z</time>
      </trkpt>
      <trkpt lat="48.6323" lon="7.61577">
        <ele>161.2</ele>
        <time>2020-06-28T14:44:29Z</time>
      </trkpt>
      <trkpt lat="48.63232" lon="7.61572">
        <ele>161.3</ele>
        <time>2020-06-28T14:44:30Z</time>
      </trkpt>
      <trkpt lat="48.63233" lon="7.61567">
        <ele>161.4</ele>
        <time>2020-06-28T14:44:31Z</time>
      </trkpt>
      <trkpt lat="48.63236" lon="7.61562">
        <ele>161.5</ele>
        <time>2020-06-28T14:44:32Z</time>
      </trkpt>
      <trkpt lat="48.63238" lon="7.61555">
        <ele>161.6</ele>
        <time>2020-06-28T14:44:33Z</time>
      </trkpt>
      <trkpt lat="48.63241" lon="7.61549">
        <ele>161.8</ele>
        <time>2020-06-28T14:44:34Z</time>
      </trkpt>
      <trkpt lat="48.63243" lon="7.61544">
        <ele>161.9</ele>
        <time>2020-06-28T14:44:35Z</time>
      </trkpt>
      <trkpt lat="48.63245" lon="7.61539">
        <ele>162</ele>
        <time>2020-06-28T14:44:36Z</time>
      </trkpt>
      <trkpt lat="48.63247" lon="7.61534">
        <ele>162.1</ele>
        <time>2020-06-28T14:44:37Z</time>
      </trkpt>
      <trkpt lat="48.63249" lon="7.61528">
        <ele>162.2</ele>
        <time>2020-06-28T14:44:38Z</time>
      </trkpt>
      <trkpt lat="48.63251" lon="7.61523">
        <ele>162.3</ele>
        <time>2020-06-28T14:44:39Z</time>
      </trkpt>
      <trkpt lat="48.63253" lon="7.61519">
        <ele>162.4</ele>
        <time>2020-06-28T14:44:40Z</time>
      </trkpt>
      <trkpt lat="48.63255" lon="7.61515">
        <ele>162.5</ele>
        <time>2020-06-28T14:44:41Z</time>
      </trkpt>
      <trkpt lat="48.63257" lon="7.6151">
        <ele>162.6</ele>
        <time>2020-06-28T14:44:42Z</time>
      </trkpt>
      <trkpt lat="48.63259" lon="7.61505">
        <ele>162.7</ele>
        <time>2020-06-28T14:44:43Z</time>
      </trkpt>
      <trkpt lat="48.63261" lon="7.615">
        <ele>162.8</ele>
        <time>2020-06-28T14:44:44Z</time>
      </trkpt>
      <trkpt lat="48.63263" lon="7.61495">
        <ele>163</ele>
        <time>2020-06-28T14:44:45Z</time>
      </trkpt>
      <trkpt lat="48.63265" lon="7.61491">
        <ele>163.1</ele>
        <time>2020-06-28T14:44:46Z</time>
      </trkpt>
      <trkpt lat="48.63267" lon="7.61486">
        <ele>163.2</ele>
        <time>2020-06-28T14:44:47Z</time>
      </trkpt>
      <trkpt lat="48.63269" lon="7.6148">
        <ele>163.4</ele>
        <time>2020-06-28T14:44:48Z</time>
      </trkpt>
      <trkpt lat="48.63272" lon="7.61475">
        <ele>163.6</ele>
        <time>2020-06-28T14:44:49Z</time>
      </trkpt>
      <trkpt lat="48.63275" lon="7.61471">
        <ele>163.7</ele>
        <time>2020-06-28T14:44:50Z</time>
      </trkpt>
      <trkpt lat="48.63277" lon="7.61466">
        <ele>163.9</ele>
        <time>2020-06-28T14:44:51Z</time>
      </trkpt>
      <trkpt lat="48.6328" lon="7.61461">
        <ele>164</ele>
        <time>2020-06-28T14:44:52Z</time>
      </trkpt>
      <trkpt lat="48.63282" lon="7.61457">
        <ele>164.2</ele>
        <time>2020-06-28T14:44:53Z</time>
      </trkpt>
      <trkpt lat="48.63285" lon="7.61451">
        <ele>164.4</ele>
        <time>2020-06-28T14:44:54Z</time>
      </trkpt>
      <trkpt lat="48.63287" lon="7.61446">
        <ele>164.5</ele>
        <time>2020-06-28T14:44:55Z</time>
      </trkpt>
      <trkpt lat="48.63289" lon="7.61441">
        <ele>164.7</ele>
        <time>2020-06-28T14:44:56Z</time>
      </trkpt>
      <trkpt lat="48.6329" lon="7.61436">
        <ele>164.8</ele>
        <time>2020-06-28T14:44:57Z</time>
      </trkpt>
      <trkpt lat="48.63292" lon="7.61432">
        <ele>164.9</ele>
        <time>2020-06-28T14:44:58Z</time>
      </trkpt>
      <trkpt lat="48.63294" lon="7.61428">
        <ele>165.1</ele>
        <time>2020-06-28T14:44:59Z</time>
      </trkpt>
      <trkpt lat="48.63296" lon="7.61424">
        <ele>165.4</ele>
        <time>2020-06-28T14:45:00Z</time>
      </trkpt>
      <trkpt lat="48.63298" lon="7.61418">
        <ele>165.6</ele>
        <time>2020-06-28T14:45:01Z</time>
      </trkpt>
      <trkpt lat="48.633" lon="7.61414">
        <ele>165.7</ele>
        <time>2020-06-28T14:45:02Z</time>
      </trkpt>
      <trkpt lat="48.63302" lon="7.6141">
        <ele>165.9</ele>
        <time>2020-06-28T14:45:03Z</time>
      </trkpt>
      <trkpt lat="48.63304" lon="7.61406">
        <ele>166</ele>
        <time>2020-06-28T14:45:04Z</time>
      </trkpt>
      <trkpt lat="48.63307" lon="7.61402">
        <ele>166.2</ele>
        <time>2020-06-28T14:45:05Z</time>
      </trkpt>
      <trkpt lat="48.63309" lon="7.61398">
        <ele>166.3</ele>
        <time>2020-06-28T14:45:06Z</time>
      </trkpt>
      <trkpt lat="48.63311" lon="7.61394">
        <ele>166.4</ele>
        <time>2020-06-28T14:45:07Z</time>
      </trkpt>
      <trkpt lat="48.63314" lon="7.6139">
        <ele>166.6</ele>
        <time>2020-06-28T14:45:08Z</time>
      </trkpt>
      <trkpt lat="48.63315" lon="7.61384">
        <ele>166.7</ele>
        <time>2020-06-28T14:45:09Z</time>
      </trkpt>
      <trkpt lat="48.63317" lon="7.6138">
        <ele>166.8</ele>
        <time>2020-06-28T14:45:10Z</time>
      </trkpt>
      <trkpt lat="48.63319" lon="7.61376">
        <ele>166.9</ele>
        <time>2020-06-28T14:45:11Z</time>
      </trkpt>
      <trkpt lat="48.63321" lon="7.61372">
        <ele>167</ele>
        <time>2020-06-28T14:45:12Z</time>
      </trkpt>
      <trkpt lat="48.63322" lon="7.61368">
        <ele>167.1</ele>
        <time>2020-06-28T14:45:13Z</time>
      </trkpt>
      <trkpt lat="48.63324" lon="7.61363">
        <ele>167.2</ele>
        <time>2020-06-28T14:45:14Z</time>
      </trkpt>
      <trkpt lat="48.63325" lon="7.6136">
        <ele>167.3</ele>
        <time>2020-06-28T14:45:15Z</time>
      </trkpt>
      <trkpt lat="48.63327" lon="7.61356">
        <ele>167.4</ele>
        <time>2020-06-28T14:45:16Z</time>
      </trkpt>
      <trkpt lat="48.63329" lon="7.61353">
        <ele>167.5</ele>
        <time>2020-06-28T14:45:17Z</time>
      </trkpt>
      <trkpt lat="48.6333" lon="7.61348">
        <ele>167.6</ele>
        <time>2020-06-28T14:45:18Z</time>
      </trkpt>
      <trkpt lat="48.63333" lon="7.61344">
        <ele>167.7</ele>
        <time>2020-06-28T14:45:19Z</time>
      </trkpt>
      <trkpt lat="48.63336" lon="7.61341">
        <ele>167.8</ele>
        <time>2020-06-28T14:45:20Z</time>
      </trkpt>
      <trkpt lat="48.63339" lon="7.61337">
        <ele>167.9</ele>
        <time>2020-06-28T14:45:21Z</time>
      </trkpt>
      <trkpt lat="48.63342" lon="7.61335">
        <ele>168</ele>
        <time>2020-06-28T14:45:22Z</time>
      </trkpt>
      <trkpt lat="48.63345" lon="7.6133">
        <ele>168.1</ele>
        <time>2020-06-28T14:45:23Z</time>
      </trkpt>
      <trkpt lat="48.63347" lon="7.61326">
        <ele>168.2</ele>
        <time>2020-06-28T14:45:24Z</time>
      </trkpt>
      <trkpt lat="48.6335" lon="7.61321">
        <ele>168.3</ele>
        <time>2020-06-28T14:45:25Z</time>
      </trkpt>
      <trkpt lat="48.63353" lon="7.61316">
        <ele>168.4</ele>
        <time>2020-06-28T14:45:26Z</time>
      </trkpt>
      <trkpt lat="48.63355" lon="7.61309">
        <ele>168.4</ele>
        <time>2020-06-28T14:45:27Z</time>
      </trkpt>
      <trkpt lat="48.63359" lon="7.61304">
        <ele>168.5</ele>
        <time>2020-06-28T14:45:28Z</time>
      </trkpt>
      <trkpt lat="48.63362" lon="7.61298">
        <ele>168.6</ele>
        <time>2020-06-28T14:45:29Z</time>
      </trkpt>
      <trkpt lat="48.63366" lon="7.61291">
        <ele>168.7</ele>
        <time>2020-06-28T14:45:30Z</time>
      </trkpt>
      <trkpt lat="48.6337" lon="7.61285">
        <ele>168.9</ele>
        <time>2020-06-28T14:45:31Z</time>
      </trkpt>
      <trkpt lat="48.63374" lon="7.61281">
        <ele>169</ele>
        <time>2020-06-28T14:45:32Z</time>
      </trkpt>
      <trkpt lat="48.63376" lon="7.61275">
        <ele>169.1</ele>
        <time>2020-06-28T14:45:33Z</time>
      </trkpt>
      <trkpt lat="48.63379" lon="7.6127">
        <ele>169.3</ele>
        <time>2020-06-28T14:45:34Z</time>
      </trkpt>
      <trkpt lat="48.63382" lon="7.61266">
        <ele>169.4</ele>
        <time>2020-06-28T14:45:35Z</time>
      </trkpt>
      <trkpt lat="48.63385" lon="7.6126">
        <ele>169.5</ele>
        <time>2020-06-28T14:45:36Z</time>
      </trkpt>
      <trkpt lat="48.63389" lon="7.61254">
        <ele>169.7</ele>
        <time>2020-06-28T14:45:37Z</time>
      </trkpt>
      <trkpt lat="48.63392" lon="7.61248">
        <ele>169.8</ele>
        <time>2020-06-28T14:45:38Z</time>
      </trkpt>
      <trkpt lat="48.63396" lon="7.61242">
        <ele>170</ele>
        <time>2020-06-28T14:45:39Z</time>
      </trkpt>
      <trkpt lat="48.63399" lon="7.61236">
        <ele>170.1</ele>
        <time>2020-06-28T14:45:40Z</time>
      </trkpt>
      <trkpt lat="48.63403" lon="7.61229">
        <ele>170.3</ele>
        <time>2020-06-28T14:45:41Z</time>
      </trkpt>
      <trkpt lat="48.63406" lon="7.61224">
        <ele>170.3</ele>
        <time>2020-06-28T14:45:42Z</time>
      </trkpt>
      <trkpt lat="48.6341" lon="7.61221">
        <ele>170.4</ele>
        <time>2020-06-28T14:45:43Z</time>
      </trkpt>
      <trkpt lat="48.63414" lon="7.61217">
        <ele>170.5</ele>
        <time>2020-06-28T14:45:44Z</time>
      </trkpt>
      <trkpt lat="48.63417" lon="7.61213">
        <ele>170.5</ele>
        <time>2020-06-28T14:45:45Z</time>
      </trkpt>
      <trkpt lat="48.63419" lon="7.61209">
        <ele>170.6</ele>
        <time>2020-06-28T14:45:46Z</time>
      </trkpt>
      <trkpt lat="48.63422" lon="7.61207">
        <ele>170.6</ele>
        <time>2020-06-28T14:45:47Z</time>
      </trkpt>
      <trkpt lat="48.63423" lon="7.61206">
        <ele>170.7</ele>
        <time>2020-06-28T14:45:48Z</time>
      </trkpt>
      <trkpt lat="48.63425" lon="7.61204">
        <ele>170.7</ele>
        <time>2020-06-28T14:45:49Z</time>
      </trkpt>
      <trkpt lat="48.63427" lon="7.612">
        <ele>170.8</ele>
        <time>2020-06-28T14:45:50Z</time>
      </trkpt>
      <trkpt lat="48.6343" lon="7.61196">
        <ele>170.8</ele>
        <time>2020-06-28T14:45:51Z</time>
      </trkpt>
      <trkpt lat="48.63434" lon="7.61191">
        <ele>170.9</ele>
        <time>2020-06-28T14:45:52Z</time>
      </trkpt>
      <trkpt lat="48.63437" lon="7.61187">
        <ele>171.1</ele>
        <time>2020-06-28T14:45:53Z</time>
      </trkpt>
      <trkpt lat="48.63441" lon="7.61182">
        <ele>171.2</ele>
        <time>2020-06-28T14:45:54Z</time>
      </trkpt>
      <trkpt lat="48.63444" lon="7.61177">
        <ele>171.4</ele>
        <time>2020-06-28T14:45:55Z</time>
      </trkpt>
      <trkpt lat="48.63448" lon="7.61172">
        <ele>171.5</ele>
        <time>2020-06-28T14:45:56Z</time>
      </trkpt>
      <trkpt lat="48.63452" lon="7.61165">
        <ele>171.7</ele>
        <time>2020-06-28T14:45:57Z</time>
      </trkpt>
      <trkpt lat="48.63456" lon="7.6116">
        <ele>171.8</ele>
        <time>2020-06-28T14:45:58Z</time>
      </trkpt>
      <trkpt lat="48.6346" lon="7.61155">
        <ele>172</ele>
        <time>2020-06-28T14:45:59Z</time>
      </trkpt>
      <trkpt lat="48.63465" lon="7.6115">
        <ele>172.1</ele>
        <time>2020-06-28T14:46:00Z</time>
      </trkpt>
      <trkpt lat="48.63469" lon="7.61146">
        <ele>172.2</ele>
        <time>2020-06-28T14:46:01Z</time>
      </trkpt>
      <trkpt lat="48.63472" lon="7.61142">
        <ele>172.3</ele>
        <time>2020-06-28T14:46:02Z</time>
      </trkpt>
      <trkpt lat="48.63475" lon="7.61138">
        <ele>172.4</ele>
        <time>2020-06-28T14:46:03Z</time>
      </trkpt>
      <trkpt lat="48.63478" lon="7.61135">
        <ele>172.5</ele>
        <time>2020-06-28T14:46:04Z</time>
      </trkpt>
      <trkpt lat="48.63482" lon="7.61132">
        <ele>172.5</ele>
        <time>2020-06-28T14:46:05Z</time>
      </trkpt>
      <trkpt lat="48.63485" lon="7.6113">
        <ele>172.6</ele>
        <time>2020-06-28T14:46:06Z</time>
      </trkpt>
      <trkpt lat="48.63489" lon="7.61127">
        <ele>172.7</ele>
        <time>2020-06-28T14:46:07Z</time>
      </trkpt>
      <trkpt lat="48.63492" lon="7.61125">
        <ele>172.7</ele>
        <time>2020-06-28T14:46:08Z</time>
      </trkpt>
      <trkpt lat="48.63495" lon="7.61121">
        <ele>172.8</ele>
        <time>2020-06-28T14:46:09Z</time>
      </trkpt>
      <trkpt lat="48.63498" lon="7.61117">
        <ele>172.9</ele>
        <time>2020-06-28T14:46:10Z</time>
      </trkpt>
      <trkpt lat="48.63501" lon="7.61113">
        <ele>172.9</ele>
        <time>2020-06-28T14:46:11Z</time>
      </trkpt>
      <trkpt lat="48.63504" lon="7.61109">
        <ele>173</ele>
        <time>2020-06-28T14:46:12Z</time>
      </trkpt>
      <trkpt lat="48.63507" lon="7.61105">
        <ele>173.1</ele>
        <time>2020-06-28T14:46:13Z</time>
      </trkpt>
      <trkpt lat="48.63511" lon="7.61102">
        <ele>173.1</ele>
        <time>2020-06-28T14:46:14Z</time>
      </trkpt>
      <trkpt lat="48.63515" lon="7.611">
        <ele>173.2</ele>
        <time>2020-06-28T14:46:15Z</time>
      </trkpt>
      <trkpt lat="48.63519" lon="7.61097">
        <ele>173.3</ele>
        <time>2020-06-28T14:46:16Z</time>
      </trkpt>
      <trkpt lat="48.63521" lon="7.61093">
        <ele>173.3</ele>
        <time>2020-06-28T14:46:17Z</time>
      </trkpt>
      <trkpt lat="48.63525" lon="7.6109">
        <ele>173.4</ele>
        <time>2020-06-28T14:46:18Z</time>
      </trkpt>
      <trkpt lat="48.63528" lon="7.61087">
        <ele>173.5</ele>
        <time>2020-06-28T14:46:19Z</time>
      </trkpt>
      <trkpt lat="48.63531" lon="7.61083">
        <ele>173.5</ele>
        <time>2020-06-28T14:46:20Z</time>
      </trkpt>
      <trkpt lat="48.63533" lon="7.61078">
        <ele>173.6</ele>
        <time>2020-06-28T14:46:21Z</time>
      </trkpt>
      <trkpt lat="48.63537" lon="7.61074">
        <ele>173.6</ele>
        <time>2020-06-28T14:46:22Z</time>
      </trkpt>
      <trkpt lat="48.63539" lon="7.6107">
        <ele>173.7</ele>
        <time>2020-06-28T14:46:23Z</time>
      </trkpt>
      <trkpt lat="48.63543" lon="7.61066">
        <ele>173.8</ele>
        <time>2020-06-28T14:46:24Z</time>
      </trkpt>
      <trkpt lat="48.63546" lon="7.61063">
        <ele>173.8</ele>
        <time>2020-06-28T14:46:25Z</time>
      </trkpt>
      <trkpt lat="48.63548" lon="7.61059">
        <ele>173.9</ele>
        <time>2020-06-28T14:46:26Z</time>
      </trkpt>
      <trkpt lat="48.63552" lon="7.61054">
        <ele>173.9</ele>
        <time>2020-06-28T14:46:27Z</time>
      </trkpt>
      <trkpt lat="48.63556" lon="7.61051">
        <ele>174</ele>
        <time>2020-06-28T14:46:28Z</time>
      </trkpt>
      <trkpt lat="48.63559" lon="7.61048">
        <ele>174.1</ele>
        <time>2020-06-28T14:46:29Z</time>
      </trkpt>
      <trkpt lat="48.63563" lon="7.61046">
        <ele>174.1</ele>
        <time>2020-06-28T14:46:30Z</time>
      </trkpt>
      <trkpt lat="48.63567" lon="7.61042">
        <ele>174.2</ele>
        <time>2020-06-28T14:46:31Z</time>
      </trkpt>
      <trkpt lat="48.6357" lon="7.61039">
        <ele>174.3</ele>
        <time>2020-06-28T14:46:32Z</time>
      </trkpt>
      <trkpt lat="48.63574" lon="7.61036">
        <ele>174.4</ele>
        <time>2020-06-28T14:46:33Z</time>
      </trkpt>
      <trkpt lat="48.63577" lon="7.61032">
        <ele>174.5</ele>
        <time>2020-06-28T14:46:34Z</time>
      </trkpt>
      <trkpt lat="48.63581" lon="7.61029">
        <ele>174.5</ele>
        <time>2020-06-28T14:46:35Z</time>
      </trkpt>
      <trkpt lat="48.63584" lon="7.61026">
        <ele>174.6</ele>
        <time>2020-06-28T14:46:36Z</time>
      </trkpt>
      <trkpt lat="48.63588" lon="7.61022">
        <ele>174.6</ele>
        <time>2020-06-28T14:46:37Z</time>
      </trkpt>
      <trkpt lat="48.63591" lon="7.61018">
        <ele>174.7</ele>
        <time>2020-06-28T14:46:38Z</time>
      </trkpt>
      <trkpt lat="48.63594" lon="7.61015">
        <ele>174.7</ele>
        <time>2020-06-28T14:46:39Z</time>
      </trkpt>
      <trkpt lat="48.63597" lon="7.61011">
        <ele>174.7</ele>
        <time>2020-06-28T14:46:40Z</time>
      </trkpt>
      <trkpt lat="48.63601" lon="7.61008">
        <ele>174.8</ele>
        <time>2020-06-28T14:46:41Z</time>
      </trkpt>
      <trkpt lat="48.63604" lon="7.61005">
        <ele>174.8</ele>
        <time>2020-06-28T14:46:42Z</time>
      </trkpt>
      <trkpt lat="48.63607" lon="7.61002">
        <ele>174.8</ele>
        <time>2020-06-28T14:46:43Z</time>
      </trkpt>
      <trkpt lat="48.6361" lon="7.60998">
        <ele>174.9</ele>
        <time>2020-06-28T14:46:44Z</time>
      </trkpt>
      <trkpt lat="48.63613" lon="7.60995">
        <ele>174.9</ele>
        <time>2020-06-28T14:46:45Z</time>
      </trkpt>
      <trkpt lat="48.63616" lon="7.6099">
        <ele>174.9</ele>
        <time>2020-06-28T14:46:46Z</time>
      </trkpt>
      <trkpt lat="48.63619" lon="7.60986">
        <ele>174.9</ele>
        <time>2020-06-28T14:46:47Z</time>
      </trkpt>
      <trkpt lat="48.63623" lon="7.60983">
        <ele>175</ele>
        <time>2020-06-28T14:46:48Z</time>
      </trkpt>
      <trkpt lat="48.63626" lon="7.60979">
        <ele>175.1</ele>
        <time>2020-06-28T14:46:49Z</time>
      </trkpt>
      <trkpt lat="48.6363" lon="7.60976">
        <ele>175.1</ele>
        <time>2020-06-28T14:46:50Z</time>
      </trkpt>
      <trkpt lat="48.63634" lon="7.60972">
        <ele>175.2</ele>
        <time>2020-06-28T14:46:51Z</time>
      </trkpt>
      <trkpt lat="48.63638" lon="7.60968">
        <ele>175.3</ele>
        <time>2020-06-28T14:46:52Z</time>
      </trkpt>
      <trkpt lat="48.63642" lon="7.60965">
        <ele>175.3</ele>
        <time>2020-06-28T14:46:53Z</time>
      </trkpt>
      <trkpt lat="48.63645" lon="7.60962">
        <ele>175.4</ele>
        <time>2020-06-28T14:46:54Z</time>
      </trkpt>
      <trkpt lat="48.63649" lon="7.60959">
        <ele>175.4</ele>
        <time>2020-06-28T14:46:55Z</time>
      </trkpt>
      <trkpt lat="48.63653" lon="7.60955">
        <ele>175.5</ele>
        <time>2020-06-28T14:46:56Z</time>
      </trkpt>
      <trkpt lat="48.63656" lon="7.60952">
        <ele>175.5</ele>
        <time>2020-06-28T14:46:57Z</time>
      </trkpt>
      <trkpt lat="48.6366" lon="7.60948">
        <ele>175.6</ele>
        <time>2020-06-28T14:46:58Z</time>
      </trkpt>
      <trkpt lat="48.63664" lon="7.60944">
        <ele>175.6</ele>
        <time>2020-06-28T14:46:59Z</time>
      </trkpt>
      <trkpt lat="48.63668" lon="7.60941">
        <ele>175.6</ele>
        <time>2020-06-28T14:47:00Z</time>
      </trkpt>
      <trkpt lat="48.63672" lon="7.60938">
        <ele>175.7</ele>
        <time>2020-06-28T14:47:01Z</time>
      </trkpt>
      <trkpt lat="48.63675" lon="7.60934">
        <ele>175.8</ele>
        <time>2020-06-28T14:47:02Z</time>
      </trkpt>
      <trkpt lat="48.63677" lon="7.60931">
        <ele>175.8</ele>
        <time>2020-06-28T14:47:03Z</time>
      </trkpt>
      <trkpt lat="48.63681" lon="7.60927">
        <ele>175.9</ele>
        <time>2020-06-28T14:47:04Z</time>
      </trkpt>
      <trkpt lat="48.63684" lon="7.60924">
        <ele>176</ele>
        <time>2020-06-28T14:47:05Z</time>
      </trkpt>
      <trkpt lat="48.63688" lon="7.60921">
        <ele>176.1</ele>
        <time>2020-06-28T14:47:06Z</time>
      </trkpt>
      <trkpt lat="48.63692" lon="7.60918">
        <ele>176.1</ele>
        <time>2020-06-28T14:47:07Z</time>
      </trkpt>
      <trkpt lat="48.63695" lon="7.60914">
        <ele>176.2</ele>
        <time>2020-06-28T14:47:08Z</time>
      </trkpt>
      <trkpt lat="48.63698" lon="7.60911">
        <ele>176.2</ele>
        <time>2020-06-28T14:47:09Z</time>
      </trkpt>
      <trkpt lat="48.63701" lon="7.60908">
        <ele>176.2</ele>
        <time>2020-06-28T14:47:10Z</time>
      </trkpt>
      <trkpt lat="48.63704" lon="7.60905">
        <ele>176.3</ele>
        <time>2020-06-28T14:47:11Z</time>
      </trkpt>
      <trkpt lat="48.63707" lon="7.60901">
        <ele>176.4</ele>
        <time>2020-06-28T14:47:12Z</time>
      </trkpt>
      <trkpt lat="48.6371" lon="7.60898">
        <ele>176.4</ele>
        <time>2020-06-28T14:47:13Z</time>
      </trkpt>
      <trkpt lat="48.63713" lon="7.60896">
        <ele>176.5</ele>
        <time>2020-06-28T14:47:14Z</time>
      </trkpt>
      <trkpt lat="48.63716" lon="7.60893">
        <ele>176.5</ele>
        <time>2020-06-28T14:47:15Z</time>
      </trkpt>
      <trkpt lat="48.6372" lon="7.60892">
        <ele>176.6</ele>
        <time>2020-06-28T14:47:16Z</time>
      </trkpt>
      <trkpt lat="48.63723" lon="7.6089">
        <ele>176.6</ele>
        <time>2020-06-28T14:47:17Z</time>
      </trkpt>
      <trkpt lat="48.63726" lon="7.60888">
        <ele>176.6</ele>
        <time>2020-06-28T14:47:18Z</time>
      </trkpt>
      <trkpt lat="48.63729" lon="7.60887">
        <ele>176.6</ele>
        <time>2020-06-28T14:47:19Z</time>
      </trkpt>
      <trkpt lat="48.63733" lon="7.60885">
        <ele>176.6</ele>
        <time>2020-06-28T14:47:20Z</time>
      </trkpt>
      <trkpt lat="48.63736" lon="7.60883">
        <ele>176.6</ele>
        <time>2020-06-28T14:47:21Z</time>
      </trkpt>
      <trkpt lat="48.63739" lon="7.6088">
        <ele>176.6</ele>
        <time>2020-06-28T14:47:22Z</time>
      </trkpt>
      <trkpt lat="48.63743" lon="7.60879">
        <ele>176.5</ele>
        <time>2020-06-28T14:47:23Z</time>
      </trkpt>
      <trkpt lat="48.63747" lon="7.60877">
        <ele>176.5</ele>
        <time>2020-06-28T14:47:24Z</time>
      </trkpt>
      <trkpt lat="48.63751" lon="7.60875">
        <ele>176.4</ele>
        <time>2020-06-28T14:47:25Z</time>
      </trkpt>
      <trkpt lat="48.63755" lon="7.60873">
        <ele>176.4</ele>
        <time>2020-06-28T14:47:26Z</time>
      </trkpt>
      <trkpt lat="48.63758" lon="7.60871">
        <ele>176.3</ele>
        <time>2020-06-28T14:47:27Z</time>
      </trkpt>
      <trkpt lat="48.63761" lon="7.6087">
        <ele>176.3</ele>
        <time>2020-06-28T14:47:28Z</time>
      </trkpt>
      <trkpt lat="48.63764" lon="7.6087">
        <ele>176.2</ele>
        <time>2020-06-28T14:47:29Z</time>
      </trkpt>
      <trkpt lat="48.63767" lon="7.6087">
        <ele>176.2</ele>
        <time>2020-06-28T14:47:30Z</time>
      </trkpt>
      <trkpt lat="48.63771" lon="7.60868">
        <ele>176.1</ele>
        <time>2020-06-28T14:47:31Z</time>
      </trkpt>
      <trkpt lat="48.63775" lon="7.60867">
        <ele>176.1</ele>
        <time>2020-06-28T14:47:32Z</time>
      </trkpt>
      <trkpt lat="48.63777" lon="7.60866">
        <ele>176.1</ele>
        <time>2020-06-28T14:47:33Z</time>
      </trkpt>
      <trkpt lat="48.6378" lon="7.60866">
        <ele>176</ele>
        <time>2020-06-28T14:47:34Z</time>
      </trkpt>
      <trkpt lat="48.63782" lon="7.60865">
        <ele>176</ele>
        <time>2020-06-28T14:47:35Z</time>
      </trkpt>
      <trkpt lat="48.63785" lon="7.60864">
        <ele>176</ele>
        <time>2020-06-28T14:47:36Z</time>
      </trkpt>
      <trkpt lat="48.63788" lon="7.60863">
        <ele>176</ele>
        <time>2020-06-28T14:47:37Z</time>
      </trkpt>
      <trkpt lat="48.63792" lon="7.60862">
        <ele>175.9</ele>
        <time>2020-06-28T14:47:38Z</time>
      </trkpt>
      <trkpt lat="48.63796" lon="7.60862">
        <ele>175.9</ele>
        <time>2020-06-28T14:47:39Z</time>
      </trkpt>
      <trkpt lat="48.638" lon="7.60862">
        <ele>175.9</ele>
        <time>2020-06-28T14:47:40Z</time>
      </trkpt>
      <trkpt lat="48.63803" lon="7.60864">
        <ele>175.9</ele>
        <time>2020-06-28T14:47:41Z</time>
      </trkpt>
      <trkpt lat="48.63805" lon="7.60867">
        <ele>175.8</ele>
        <time>2020-06-28T14:47:42Z</time>
      </trkpt>
      <trkpt lat="48.63806" lon="7.60868">
        <ele>175.8</ele>
        <time>2020-06-28T14:47:43Z</time>
      </trkpt>
      <trkpt lat="48.63808" lon="7.60872">
        <ele>175.8</ele>
        <time>2020-06-28T14:47:44Z</time>
      </trkpt>
      <trkpt lat="48.63809" lon="7.60873">
        <ele>175.8</ele>
        <time>2020-06-28T14:47:45Z</time>
      </trkpt>
      <trkpt lat="48.63811" lon="7.60872">
        <ele>175.8</ele>
        <time>2020-06-28T14:47:46Z</time>
      </trkpt>
      <trkpt lat="48.63812" lon="7.6087">
        <ele>175.8</ele>
        <time>2020-06-28T14:47:47Z</time>
      </trkpt>
      <trkpt lat="48.63812" lon="7.60867">
        <ele>175.8</ele>
        <time>2020-06-28T14:47:48Z</time>
      </trkpt>
      <trkpt lat="48.63812" lon="7.60866">
        <ele>175.7</ele>
        <time>2020-06-28T14:47:49Z</time>
      </trkpt>
      <trkpt lat="48.63812" lon="7.60864">
        <ele>175.7</ele>
        <time>2020-06-28T14:47:50Z</time>
      </trkpt>
      <trkpt lat="48.63812" lon="7.60862">
        <ele>175.7</ele>
        <time>2020-06-28T14:47:51Z</time>
      </trkpt>
      <trkpt lat="48.63813" lon="7.6086">
        <ele>175.7</ele>
        <time>2020-06-28T14:47:52Z</time>
      </trkpt>
      <trkpt lat="48.63817" lon="7.60859">
        <ele>175.7</ele>
        <time>2020-06-28T14:47:53Z</time>
      </trkpt>
      <trkpt lat="48.63819" lon="7.60858">
        <ele>175.7</ele>
        <time>2020-06-28T14:47:54Z</time>
      </trkpt>
      <trkpt lat="48.63822" lon="7.60857">
        <ele>175.7</ele>
        <time>2020-06-28T14:47:55Z</time>
      </trkpt>
      <trkpt lat="48.63826" lon="7.60856">
        <ele>175.6</ele>
        <time>2020-06-28T14:47:56Z</time>
      </trkpt>
      <trkpt lat="48.6383" lon="7.60854">
        <ele>175.6</ele>
        <time>2020-06-28T14:47:57Z</time>
      </trkpt>
      <trkpt lat="48.63834" lon="7.60851">
        <ele>175.5</ele>
        <time>2020-06-28T14:47:58Z</time>
      </trkpt>
      <trkpt lat="48.63838" lon="7.60849">
        <ele>175.5</ele>
        <time>2020-06-28T14:47:59Z</time>
      </trkpt>
      <trkpt lat="48.63842" lon="7.60846">
        <ele>175.4</ele>
        <time>2020-06-28T14:48:00Z</time>
      </trkpt>
      <trkpt lat="48.63846" lon="7.60844">
        <ele>175.4</ele>
        <time>2020-06-28T14:48:01Z</time>
      </trkpt>
      <trkpt lat="48.6385" lon="7.60843">
        <ele>175.4</ele>
        <time>2020-06-28T14:48:02Z</time>
      </trkpt>
      <trkpt lat="48.63853" lon="7.60841">
        <ele>175.4</ele>
        <time>2020-06-28T14:48:03Z</time>
      </trkpt>
      <trkpt lat="48.63857" lon="7.60839">
        <ele>175.3</ele>
        <time>2020-06-28T14:48:04Z</time>
      </trkpt>
      <trkpt lat="48.63861" lon="7.60837">
        <ele>175.2</ele>
        <time>2020-06-28T14:48:05Z</time>
      </trkpt>
      <trkpt lat="48.63865" lon="7.60835">
        <ele>175.2</ele>
        <time>2020-06-28T14:48:06Z</time>
      </trkpt>
      <trkpt lat="48.63869" lon="7.60832">
        <ele>175.1</ele>
        <time>2020-06-28T14:48:07Z</time>
      </trkpt>
      <trkpt lat="48.63873" lon="7.60829">
        <ele>175.1</ele>
        <time>2020-06-28T14:48:08Z</time>
      </trkpt>
      <trkpt lat="48.63877" lon="7.60825">
        <ele>175</ele>
        <time>2020-06-28T14:48:09Z</time>
      </trkpt>
      <trkpt lat="48.63881" lon="7.60818">
        <ele>175</ele>
        <time>2020-06-28T14:48:10Z</time>
      </trkpt>
      <trkpt lat="48.63885" lon="7.60813">
        <ele>174.9</ele>
        <time>2020-06-28T14:48:11Z</time>
      </trkpt>
      <trkpt lat="48.6389" lon="7.6081">
        <ele>174.8</ele>
        <time>2020-06-28T14:48:12Z</time>
      </trkpt>
      <trkpt lat="48.63893" lon="7.60806">
        <ele>174.8</ele>
        <time>2020-06-28T14:48:13Z</time>
      </trkpt>
      <trkpt lat="48.63896" lon="7.60802">
        <ele>174.8</ele>
        <time>2020-06-28T14:48:14Z</time>
      </trkpt>
      <trkpt lat="48.639" lon="7.60798">
        <ele>174.7</ele>
        <time>2020-06-28T14:48:15Z</time>
      </trkpt>
      <trkpt lat="48.63904" lon="7.60794">
        <ele>174.7</ele>
        <time>2020-06-28T14:48:16Z</time>
      </trkpt>
      <trkpt lat="48.63908" lon="7.60792">
        <ele>174.7</ele>
        <time>2020-06-28T14:48:17Z</time>
      </trkpt>
      <trkpt lat="48.63912" lon="7.60788">
        <ele>174.6</ele>
        <time>2020-06-28T14:48:18Z</time>
      </trkpt>
      <trkpt lat="48.63916" lon="7.60785">
        <ele>174.6</ele>
        <time>2020-06-28T14:48:19Z</time>
      </trkpt>
      <trkpt lat="48.63921" lon="7.60782">
        <ele>174.6</ele>
        <time>2020-06-28T14:48:20Z</time>
      </trkpt>
      <trkpt lat="48.63927" lon="7.60779">
        <ele>174.5</ele>
        <time>2020-06-28T14:48:21Z</time>
      </trkpt>
      <trkpt lat="48.63932" lon="7.60777">
        <ele>174.5</ele>
        <time>2020-06-28T14:48:22Z</time>
      </trkpt>
      <trkpt lat="48.63938" lon="7.60773">
        <ele>174.4</ele>
        <time>2020-06-28T14:48:23Z</time>
      </trkpt>
      <trkpt lat="48.63943" lon="7.60769">
        <ele>174.4</ele>
        <time>2020-06-28T14:48:24Z</time>
      </trkpt>
      <trkpt lat="48.63949" lon="7.60766">
        <ele>174.4</ele>
        <time>2020-06-28T14:48:25Z</time>
      </trkpt>
      <trkpt lat="48.63955" lon="7.60763">
        <ele>174.4</ele>
        <time>2020-06-28T14:48:26Z</time>
      </trkpt>
      <trkpt lat="48.63961" lon="7.60761">
        <ele>174.4</ele>
        <time>2020-06-28T14:48:27Z</time>
      </trkpt>
      <trkpt lat="48.63966" lon="7.60758">
        <ele>174.5</ele>
        <time>2020-06-28T14:48:28Z</time>
      </trkpt>
      <trkpt lat="48.63972" lon="7.60755">
        <ele>174.5</ele>
        <time>2020-06-28T14:48:29Z</time>
      </trkpt>
      <trkpt lat="48.63977" lon="7.60752">
        <ele>174.5</ele>
        <time>2020-06-28T14:48:30Z</time>
      </trkpt>
      <trkpt lat="48.63983" lon="7.6075">
        <ele>174.5</ele>
        <time>2020-06-28T14:48:31Z</time>
      </trkpt>
      <trkpt lat="48.63988" lon="7.60749">
        <ele>174.6</ele>
        <time>2020-06-28T14:48:32Z</time>
      </trkpt>
      <trkpt lat="48.63993" lon="7.60745">
        <ele>174.6</ele>
        <time>2020-06-28T14:48:33Z</time>
      </trkpt>
      <trkpt lat="48.63997" lon="7.60744">
        <ele>174.6</ele>
        <time>2020-06-28T14:48:34Z</time>
      </trkpt>
      <trkpt lat="48.64002" lon="7.60742">
        <ele>174.6</ele>
        <time>2020-06-28T14:48:35Z</time>
      </trkpt>
      <trkpt lat="48.64007" lon="7.60738">
        <ele>174.6</ele>
        <time>2020-06-28T14:48:36Z</time>
      </trkpt>
      <trkpt lat="48.64013" lon="7.60736">
        <ele>174.7</ele>
        <time>2020-06-28T14:48:37Z</time>
      </trkpt>
      <trkpt lat="48.64019" lon="7.60733">
        <ele>174.7</ele>
        <time>2020-06-28T14:48:38Z</time>
      </trkpt>
      <trkpt lat="48.64026" lon="7.60731">
        <ele>174.8</ele>
        <time>2020-06-28T14:48:39Z</time>
      </trkpt>
      <trkpt lat="48.64031" lon="7.6073">
        <ele>174.8</ele>
        <time>2020-06-28T14:48:40Z</time>
      </trkpt>
      <trkpt lat="48.64036" lon="7.60728">
        <ele>174.9</ele>
        <time>2020-06-28T14:48:41Z</time>
      </trkpt>
      <trkpt lat="48.64041" lon="7.60728">
        <ele>174.9</ele>
        <time>2020-06-28T14:48:42Z</time>
      </trkpt>
      <trkpt lat="48.64046" lon="7.60727">
        <ele>174.9</ele>
        <time>2020-06-28T14:48:43Z</time>
      </trkpt>
      <trkpt lat="48.64051" lon="7.60725">
        <ele>175</ele>
        <time>2020-06-28T14:48:44Z</time>
      </trkpt>
      <trkpt lat="48.64057" lon="7.60721">
        <ele>175</ele>
        <time>2020-06-28T14:48:45Z</time>
      </trkpt>
      <trkpt lat="48.64062" lon="7.60716">
        <ele>175.1</ele>
        <time>2020-06-28T14:48:46Z</time>
      </trkpt>
      <trkpt lat="48.64067" lon="7.60712">
        <ele>175.1</ele>
        <time>2020-06-28T14:48:47Z</time>
      </trkpt>
      <trkpt lat="48.64072" lon="7.60709">
        <ele>175.2</ele>
        <time>2020-06-28T14:48:48Z</time>
      </trkpt>
      <trkpt lat="48.64077" lon="7.60705">
        <ele>175.2</ele>
        <time>2020-06-28T14:48:49Z</time>
      </trkpt>
      <trkpt lat="48.6408" lon="7.60703">
        <ele>175.3</ele>
        <time>2020-06-28T14:48:50Z</time>
      </trkpt>
      <trkpt lat="48.64084" lon="7.607">
        <ele>175.3</ele>
        <time>2020-06-28T14:48:51Z</time>
      </trkpt>
      <trkpt lat="48.64086" lon="7.60696">
        <ele>175.4</ele>
        <time>2020-06-28T14:48:52Z</time>
      </trkpt>
      <trkpt lat="48.64092" lon="7.60692">
        <ele>175.4</ele>
        <time>2020-06-28T14:48:53Z</time>
      </trkpt>
      <trkpt lat="48.64095" lon="7.60688">
        <ele>175.4</ele>
        <time>2020-06-28T14:48:54Z</time>
      </trkpt>
      <trkpt lat="48.64099" lon="7.60684">
        <ele>175.4</ele>
        <time>2020-06-28T14:48:55Z</time>
      </trkpt>
      <trkpt lat="48.64102" lon="7.6068">
        <ele>175.4</ele>
        <time>2020-06-28T14:48:56Z</time>
      </trkpt>
      <trkpt lat="48.64106" lon="7.60676">
        <ele>175.5</ele>
        <time>2020-06-28T14:48:57Z</time>
      </trkpt>
      <trkpt lat="48.64109" lon="7.60671">
        <ele>175.5</ele>
        <time>2020-06-28T14:48:58Z</time>
      </trkpt>
      <trkpt lat="48.6411" lon="7.60662">
        <ele>175.5</ele>
        <time>2020-06-28T14:48:59Z</time>
      </trkpt>
      <trkpt lat="48.64112" lon="7.60656">
        <ele>175.5</ele>
        <time>2020-06-28T14:49:00Z</time>
      </trkpt>
      <trkpt lat="48.64114" lon="7.6065">
        <ele>175.5</ele>
        <time>2020-06-28T14:49:01Z</time>
      </trkpt>
      <trkpt lat="48.64116" lon="7.60642">
        <ele>175.6</ele>
        <time>2020-06-28T14:49:02Z</time>
      </trkpt>
      <trkpt lat="48.64118" lon="7.60635">
        <ele>175.6</ele>
        <time>2020-06-28T14:49:03Z</time>
      </trkpt>
      <trkpt lat="48.6412" lon="7.60629">
        <ele>175.7</ele>
        <time>2020-06-28T14:49:04Z</time>
      </trkpt>
      <trkpt lat="48.64122" lon="7.60622">
        <ele>175.7</ele>
        <time>2020-06-28T14:49:05Z</time>
      </trkpt>
      <trkpt lat="48.64123" lon="7.60617">
        <ele>175.7</ele>
        <time>2020-06-28T14:49:06Z</time>
      </trkpt>
      <trkpt lat="48.64125" lon="7.60609">
        <ele>175.8</ele>
        <time>2020-06-28T14:49:07Z</time>
      </trkpt>
      <trkpt lat="48.64126" lon="7.60601">
        <ele>175.8</ele>
        <time>2020-06-28T14:49:08Z</time>
      </trkpt>
      <trkpt lat="48.64128" lon="7.60593">
        <ele>175.9</ele>
        <time>2020-06-28T14:49:09Z</time>
      </trkpt>
      <trkpt lat="48.6413" lon="7.60587">
        <ele>175.9</ele>
        <time>2020-06-28T14:49:10Z</time>
      </trkpt>
      <trkpt lat="48.64131" lon="7.6058">
        <ele>175.9</ele>
        <time>2020-06-28T14:49:11Z</time>
      </trkpt>
      <trkpt lat="48.64133" lon="7.60572">
        <ele>175.9</ele>
        <time>2020-06-28T14:49:12Z</time>
      </trkpt>
      <trkpt lat="48.64135" lon="7.60566">
        <ele>175.9</ele>
        <time>2020-06-28T14:49:13Z</time>
      </trkpt>
      <trkpt lat="48.64137" lon="7.60559">
        <ele>175.9</ele>
        <time>2020-06-28T14:49:14Z</time>
      </trkpt>
      <trkpt lat="48.64138" lon="7.60551">
        <ele>175.9</ele>
        <time>2020-06-28T14:49:15Z</time>
      </trkpt>
      <trkpt lat="48.6414" lon="7.60543">
        <ele>175.9</ele>
        <time>2020-06-28T14:49:16Z</time>
      </trkpt>
      <trkpt lat="48.64142" lon="7.60537">
        <ele>175.9</ele>
        <time>2020-06-28T14:49:17Z</time>
      </trkpt>
      <trkpt lat="48.64143" lon="7.6053">
        <ele>175.9</ele>
        <time>2020-06-28T14:49:18Z</time>
      </trkpt>
      <trkpt lat="48.64145" lon="7.60524">
        <ele>175.9</ele>
        <time>2020-06-28T14:49:19Z</time>
      </trkpt>
      <trkpt lat="48.64146" lon="7.60517">
        <ele>176</ele>
        <time>2020-06-28T14:49:20Z</time>
      </trkpt>
      <trkpt lat="48.64147" lon="7.60509">
        <ele>176</ele>
        <time>2020-06-28T14:49:21Z</time>
      </trkpt>
      <trkpt lat="48.64149" lon="7.60503">
        <ele>176</ele>
        <time>2020-06-28T14:49:22Z</time>
      </trkpt>
      <trkpt lat="48.6415" lon="7.60497">
        <ele>176</ele>
        <time>2020-06-28T14:49:23Z</time>
      </trkpt>
      <trkpt lat="48.64152" lon="7.60492">
        <ele>176</ele>
        <time>2020-06-28T14:49:24Z</time>
      </trkpt>
      <trkpt lat="48.64154" lon="7.60485">
        <ele>176</ele>
        <time>2020-06-28T14:49:25Z</time>
      </trkpt>
      <trkpt lat="48.64156" lon="7.60479">
        <ele>176</ele>
        <time>2020-06-28T14:49:26Z</time>
      </trkpt>
      <trkpt lat="48.64157" lon="7.6047">
        <ele>176.1</ele>
        <time>2020-06-28T14:49:27Z</time>
      </trkpt>
      <trkpt lat="48.64159" lon="7.60463">
        <ele>176.1</ele>
        <time>2020-06-28T14:49:28Z</time>
      </trkpt>
      <trkpt lat="48.6416" lon="7.60456">
        <ele>176.2</ele>
        <time>2020-06-28T14:49:29Z</time>
      </trkpt>
      <trkpt lat="48.64162" lon="7.6045">
        <ele>176.2</ele>
        <time>2020-06-28T14:49:30Z</time>
      </trkpt>
      <trkpt lat="48.64164" lon="7.60445">
        <ele>176.3</ele>
        <time>2020-06-28T14:49:31Z</time>
      </trkpt>
      <trkpt lat="48.64168" lon="7.60439">
        <ele>176.2</ele>
        <time>2020-06-28T14:49:32Z</time>
      </trkpt>
      <trkpt lat="48.64172" lon="7.60434">
        <ele>176.2</ele>
        <time>2020-06-28T14:49:33Z</time>
      </trkpt>
      <trkpt lat="48.64175" lon="7.60427">
        <ele>176.2</ele>
        <time>2020-06-28T14:49:34Z</time>
      </trkpt>
      <trkpt lat="48.64178" lon="7.6042">
        <ele>176.2</ele>
        <time>2020-06-28T14:49:35Z</time>
      </trkpt>
      <trkpt lat="48.64182" lon="7.60413">
        <ele>176.2</ele>
        <time>2020-06-28T14:49:36Z</time>
      </trkpt>
      <trkpt lat="48.64184" lon="7.60407">
        <ele>176.2</ele>
        <time>2020-06-28T14:49:37Z</time>
      </trkpt>
      <trkpt lat="48.64187" lon="7.60401">
        <ele>176.2</ele>
        <time>2020-06-28T14:49:38Z</time>
      </trkpt>
      <trkpt lat="48.6419" lon="7.60396">
        <ele>176.2</ele>
        <time>2020-06-28T14:49:39Z</time>
      </trkpt>
      <trkpt lat="48.64192" lon="7.60389">
        <ele>176.2</ele>
        <time>2020-06-28T14:49:40Z</time>
      </trkpt>
      <trkpt lat="48.64195" lon="7.60383">
        <ele>176.2</ele>
        <time>2020-06-28T14:49:41Z</time>
      </trkpt>
      <trkpt lat="48.64198" lon="7.60377">
        <ele>176.1</ele>
        <time>2020-06-28T14:49:42Z</time>
      </trkpt>
      <trkpt lat="48.64202" lon="7.6037">
        <ele>176.1</ele>
        <time>2020-06-28T14:49:43Z</time>
      </trkpt>
      <trkpt lat="48.64204" lon="7.60363">
        <ele>176.1</ele>
        <time>2020-06-28T14:49:44Z</time>
      </trkpt>
      <trkpt lat="48.64208" lon="7.60358">
        <ele>176.1</ele>
        <time>2020-06-28T14:49:45Z</time>
      </trkpt>
      <trkpt lat="48.64211" lon="7.60352">
        <ele>176.1</ele>
        <time>2020-06-28T14:49:46Z</time>
      </trkpt>
      <trkpt lat="48.64213" lon="7.60345">
        <ele>176.1</ele>
        <time>2020-06-28T14:49:47Z</time>
      </trkpt>
      <trkpt lat="48.64215" lon="7.60339">
        <ele>176</ele>
        <time>2020-06-28T14:49:48Z</time>
      </trkpt>
      <trkpt lat="48.64216" lon="7.60334">
        <ele>176</ele>
        <time>2020-06-28T14:49:49Z</time>
      </trkpt>
      <trkpt lat="48.64219" lon="7.6033">
        <ele>176</ele>
        <time>2020-06-28T14:49:50Z</time>
      </trkpt>
      <trkpt lat="48.64222" lon="7.60324">
        <ele>175.9</ele>
        <time>2020-06-28T14:49:51Z</time>
      </trkpt>
      <trkpt lat="48.64226" lon="7.60319">
        <ele>175.9</ele>
        <time>2020-06-28T14:49:52Z</time>
      </trkpt>
      <trkpt lat="48.64228" lon="7.60313">
        <ele>175.9</ele>
        <time>2020-06-28T14:49:53Z</time>
      </trkpt>
      <trkpt lat="48.6423" lon="7.60307">
        <ele>175.9</ele>
        <time>2020-06-28T14:49:54Z</time>
      </trkpt>
      <trkpt lat="48.64234" lon="7.60301">
        <ele>175.9</ele>
        <time>2020-06-28T14:49:55Z</time>
      </trkpt>
      <trkpt lat="48.64236" lon="7.60295">
        <ele>175.9</ele>
        <time>2020-06-28T14:49:56Z</time>
      </trkpt>
      <trkpt lat="48.6424" lon="7.6029">
        <ele>175.9</ele>
        <time>2020-06-28T14:49:57Z</time>
      </trkpt>
      <trkpt lat="48.64242" lon="7.60285">
        <ele>175.9</ele>
        <time>2020-06-28T14:49:58Z</time>
      </trkpt>
      <trkpt lat="48.64244" lon="7.6028">
        <ele>175.9</ele>
        <time>2020-06-28T14:49:59Z</time>
      </trkpt>
      <trkpt lat="48.64246" lon="7.60274">
        <ele>175.8</ele>
        <time>2020-06-28T14:50:00Z</time>
      </trkpt>
      <trkpt lat="48.6425" lon="7.60269">
        <ele>175.8</ele>
        <time>2020-06-28T14:50:01Z</time>
      </trkpt>
      <trkpt lat="48.64253" lon="7.60262">
        <ele>175.8</ele>
        <time>2020-06-28T14:50:02Z</time>
      </trkpt>
      <trkpt lat="48.64256" lon="7.60256">
        <ele>175.8</ele>
        <time>2020-06-28T14:50:03Z</time>
      </trkpt>
      <trkpt lat="48.6426" lon="7.60252">
        <ele>175.8</ele>
        <time>2020-06-28T14:50:04Z</time>
      </trkpt>
      <trkpt lat="48.64264" lon="7.60247">
        <ele>175.8</ele>
        <time>2020-06-28T14:50:05Z</time>
      </trkpt>
      <trkpt lat="48.64268" lon="7.60244">
        <ele>175.8</ele>
        <time>2020-06-28T14:50:06Z</time>
      </trkpt>
      <trkpt lat="48.64271" lon="7.60242">
        <ele>175.8</ele>
        <time>2020-06-28T14:50:07Z</time>
      </trkpt>
      <trkpt lat="48.64275" lon="7.60241">
        <ele>175.9</ele>
        <time>2020-06-28T14:50:08Z</time>
      </trkpt>
      <trkpt lat="48.64278" lon="7.60238">
        <ele>175.9</ele>
        <time>2020-06-28T14:50:09Z</time>
      </trkpt>
      <trkpt lat="48.6428" lon="7.60233">
        <ele>175.9</ele>
        <time>2020-06-28T14:50:10Z</time>
      </trkpt>
      <trkpt lat="48.64283" lon="7.60227">
        <ele>176</ele>
        <time>2020-06-28T14:50:11Z</time>
      </trkpt>
      <trkpt lat="48.64285" lon="7.60221">
        <ele>176</ele>
        <time>2020-06-28T14:50:12Z</time>
      </trkpt>
      <trkpt lat="48.64286" lon="7.60216">
        <ele>176.1</ele>
        <time>2020-06-28T14:50:13Z</time>
      </trkpt>
      <trkpt lat="48.64286" lon="7.6021">
        <ele>176.1</ele>
        <time>2020-06-28T14:50:14Z</time>
      </trkpt>
      <trkpt lat="48.64288" lon="7.60203">
        <ele>176.2</ele>
        <time>2020-06-28T14:50:15Z</time>
      </trkpt>
      <trkpt lat="48.64289" lon="7.60198">
        <ele>176.2</ele>
        <time>2020-06-28T14:50:16Z</time>
      </trkpt>
      <trkpt lat="48.64289" lon="7.60191">
        <ele>176.2</ele>
        <time>2020-06-28T14:50:17Z</time>
      </trkpt>
      <trkpt lat="48.64292" lon="7.60184">
        <ele>176.2</ele>
        <time>2020-06-28T14:50:18Z</time>
      </trkpt>
      <trkpt lat="48.64295" lon="7.60177">
        <ele>176.2</ele>
        <time>2020-06-28T14:50:19Z</time>
      </trkpt>
      <trkpt lat="48.64297" lon="7.60168">
        <ele>176.2</ele>
        <time>2020-06-28T14:50:20Z</time>
      </trkpt>
      <trkpt lat="48.64299" lon="7.6016">
        <ele>176.2</ele>
        <time>2020-06-28T14:50:21Z</time>
      </trkpt>
      <trkpt lat="48.64302" lon="7.60154">
        <ele>176.2</ele>
        <time>2020-06-28T14:50:22Z</time>
      </trkpt>
      <trkpt lat="48.64304" lon="7.60148">
        <ele>176.2</ele>
        <time>2020-06-28T14:50:23Z</time>
      </trkpt>
      <trkpt lat="48.64306" lon="7.60141">
        <ele>176.2</ele>
        <time>2020-06-28T14:50:24Z</time>
      </trkpt>
      <trkpt lat="48.64309" lon="7.60135">
        <ele>176.1</ele>
        <time>2020-06-28T14:50:25Z</time>
      </trkpt>
      <trkpt lat="48.64312" lon="7.6013">
        <ele>176.1</ele>
        <time>2020-06-28T14:50:26Z</time>
      </trkpt>
      <trkpt lat="48.64315" lon="7.60124">
        <ele>176.1</ele>
        <time>2020-06-28T14:50:27Z</time>
      </trkpt>
      <trkpt lat="48.64318" lon="7.60117">
        <ele>176.1</ele>
        <time>2020-06-28T14:50:28Z</time>
      </trkpt>
      <trkpt lat="48.64321" lon="7.60111">
        <ele>176.1</ele>
        <time>2020-06-28T14:50:29Z</time>
      </trkpt>
      <trkpt lat="48.64322" lon="7.60102">
        <ele>176.1</ele>
        <time>2020-06-28T14:50:30Z</time>
      </trkpt>
      <trkpt lat="48.64325" lon="7.60097">
        <ele>176.2</ele>
        <time>2020-06-28T14:50:31Z</time>
      </trkpt>
      <trkpt lat="48.64327" lon="7.60091">
        <ele>176.2</ele>
        <time>2020-06-28T14:50:32Z</time>
      </trkpt>
      <trkpt lat="48.64331" lon="7.60087">
        <ele>176.3</ele>
        <time>2020-06-28T14:50:33Z</time>
      </trkpt>
      <trkpt lat="48.64334" lon="7.60082">
        <ele>176.3</ele>
        <time>2020-06-28T14:50:34Z</time>
      </trkpt>
      <trkpt lat="48.64336" lon="7.60078">
        <ele>176.3</ele>
        <time>2020-06-28T14:50:35Z</time>
      </trkpt>
      <trkpt lat="48.64338" lon="7.60073">
        <ele>176.4</ele>
        <time>2020-06-28T14:50:36Z</time>
      </trkpt>
      <trkpt lat="48.64341" lon="7.60068">
        <ele>176.4</ele>
        <time>2020-06-28T14:50:37Z</time>
      </trkpt>
      <trkpt lat="48.64344" lon="7.60063">
        <ele>176.5</ele>
        <time>2020-06-28T14:50:38Z</time>
      </trkpt>
      <trkpt lat="48.64346" lon="7.60058">
        <ele>176.5</ele>
        <time>2020-06-28T14:50:39Z</time>
      </trkpt>
      <trkpt lat="48.64348" lon="7.60053">
        <ele>176.5</ele>
        <time>2020-06-28T14:50:40Z</time>
      </trkpt>
      <trkpt lat="48.64351" lon="7.60047">
        <ele>176.6</ele>
        <time>2020-06-28T14:50:41Z</time>
      </trkpt>
      <trkpt lat="48.64353" lon="7.60041">
        <ele>176.6</ele>
        <time>2020-06-28T14:50:42Z</time>
      </trkpt>
      <trkpt lat="48.64355" lon="7.60036">
        <ele>176.7</ele>
        <time>2020-06-28T14:50:43Z</time>
      </trkpt>
      <trkpt lat="48.64359" lon="7.60033">
        <ele>176.7</ele>
        <time>2020-06-28T14:50:44Z</time>
      </trkpt>
      <trkpt lat="48.64361" lon="7.60029">
        <ele>176.8</ele>
        <time>2020-06-28T14:50:45Z</time>
      </trkpt>
      <trkpt lat="48.64363" lon="7.60025">
        <ele>176.8</ele>
        <time>2020-06-28T14:50:46Z</time>
      </trkpt>
      <trkpt lat="48.64365" lon="7.60021">
        <ele>176.8</ele>
        <time>2020-06-28T14:50:47Z</time>
      </trkpt>
      <trkpt lat="48.64366" lon="7.60016">
        <ele>176.9</ele>
        <time>2020-06-28T14:50:48Z</time>
      </trkpt>
      <trkpt lat="48.64369" lon="7.6001">
        <ele>176.9</ele>
        <time>2020-06-28T14:50:49Z</time>
      </trkpt>
      <trkpt lat="48.64372" lon="7.60006">
        <ele>176.9</ele>
        <time>2020-06-28T14:50:50Z</time>
      </trkpt>
      <trkpt lat="48.64375" lon="7.6">
        <ele>176.9</ele>
        <time>2020-06-28T14:50:51Z</time>
      </trkpt>
      <trkpt lat="48.64377" lon="7.59993">
        <ele>176.9</ele>
        <time>2020-06-28T14:50:52Z</time>
      </trkpt>
      <trkpt lat="48.64379" lon="7.59988">
        <ele>176.9</ele>
        <time>2020-06-28T14:50:53Z</time>
      </trkpt>
      <trkpt lat="48.64381" lon="7.59984">
        <ele>176.9</ele>
        <time>2020-06-28T14:50:54Z</time>
      </trkpt>
      <trkpt lat="48.64384" lon="7.59979">
        <ele>176.9</ele>
        <time>2020-06-28T14:50:55Z</time>
      </trkpt>
      <trkpt lat="48.64387" lon="7.59972">
        <ele>176.9</ele>
        <time>2020-06-28T14:50:56Z</time>
      </trkpt>
      <trkpt lat="48.64389" lon="7.59966">
        <ele>177</ele>
        <time>2020-06-28T14:50:57Z</time>
      </trkpt>
      <trkpt lat="48.6439" lon="7.59959">
        <ele>177</ele>
        <time>2020-06-28T14:50:58Z</time>
      </trkpt>
      <trkpt lat="48.64393" lon="7.59954">
        <ele>177.1</ele>
        <time>2020-06-28T14:50:59Z</time>
      </trkpt>
      <trkpt lat="48.64395" lon="7.59948">
        <ele>177.1</ele>
        <time>2020-06-28T14:51:00Z</time>
      </trkpt>
      <trkpt lat="48.64397" lon="7.59944">
        <ele>177.1</ele>
        <time>2020-06-28T14:51:01Z</time>
      </trkpt>
      <trkpt lat="48.64399" lon="7.59937">
        <ele>177.2</ele>
        <time>2020-06-28T14:51:02Z</time>
      </trkpt>
      <trkpt lat="48.64403" lon="7.59931">
        <ele>177.2</ele>
        <time>2020-06-28T14:51:03Z</time>
      </trkpt>
      <trkpt lat="48.64407" lon="7.59926">
        <ele>177.3</ele>
        <time>2020-06-28T14:51:04Z</time>
      </trkpt>
      <trkpt lat="48.6441" lon="7.5992">
        <ele>177.3</ele>
        <time>2020-06-28T14:51:05Z</time>
      </trkpt>
      <trkpt lat="48.64413" lon="7.59914">
        <ele>177.3</ele>
        <time>2020-06-28T14:51:06Z</time>
      </trkpt>
      <trkpt lat="48.64415" lon="7.59908">
        <ele>177.3</ele>
        <time>2020-06-28T14:51:07Z</time>
      </trkpt>
      <trkpt lat="48.64418" lon="7.59903">
        <ele>177.3</ele>
        <time>2020-06-28T14:51:08Z</time>
      </trkpt>
      <trkpt lat="48.64421" lon="7.59897">
        <ele>177.3</ele>
        <time>2020-06-28T14:51:09Z</time>
      </trkpt>
      <trkpt lat="48.64425" lon="7.59891">
        <ele>177.3</ele>
        <time>2020-06-28T14:51:10Z</time>
      </trkpt>
      <trkpt lat="48.64428" lon="7.59885">
        <ele>177.3</ele>
        <time>2020-06-28T14:51:11Z</time>
      </trkpt>
      <trkpt lat="48.64431" lon="7.59878">
        <ele>177.3</ele>
        <time>2020-06-28T14:51:12Z</time>
      </trkpt>
      <trkpt lat="48.64433" lon="7.59872">
        <ele>177.3</ele>
        <time>2020-06-28T14:51:13Z</time>
      </trkpt>
      <trkpt lat="48.64437" lon="7.59867">
        <ele>177.3</ele>
        <time>2020-06-28T14:51:14Z</time>
      </trkpt>
      <trkpt lat="48.64439" lon="7.59862">
        <ele>177.3</ele>
        <time>2020-06-28T14:51:15Z</time>
      </trkpt>
      <trkpt lat="48.64442" lon="7.59857">
        <ele>177.3</ele>
        <time>2020-06-28T14:51:16Z</time>
      </trkpt>
      <trkpt lat="48.64443" lon="7.5985">
        <ele>177.3</ele>
        <time>2020-06-28T14:51:17Z</time>
      </trkpt>
      <trkpt lat="48.64445" lon="7.59844">
        <ele>177.3</ele>
        <time>2020-06-28T14:51:18Z</time>
      </trkpt>
      <trkpt lat="48.64448" lon="7.59839">
        <ele>177.4</ele>
        <time>2020-06-28T14:51:19Z</time>
      </trkpt>
      <trkpt lat="48.6445" lon="7.59833">
        <ele>177.4</ele>
        <time>2020-06-28T14:51:20Z</time>
      </trkpt>
      <trkpt lat="48.64452" lon="7.59827">
        <ele>177.4</ele>
        <time>2020-06-28T14:51:21Z</time>
      </trkpt>
      <trkpt lat="48.64454" lon="7.59821">
        <ele>177.4</ele>
        <time>2020-06-28T14:51:22Z</time>
      </trkpt>
      <trkpt lat="48.64457" lon="7.59815">
        <ele>177.4</ele>
        <time>2020-06-28T14:51:23Z</time>
      </trkpt>
      <trkpt lat="48.64459" lon="7.59808">
        <ele>177.4</ele>
        <time>2020-06-28T14:51:24Z</time>
      </trkpt>
      <trkpt lat="48.64462" lon="7.59802">
        <ele>177.4</ele>
        <time>2020-06-28T14:51:25Z</time>
      </trkpt>
      <trkpt lat="48.64465" lon="7.59795">
        <ele>177.5</ele>
        <time>2020-06-28T14:51:26Z</time>
      </trkpt>
      <trkpt lat="48.64468" lon="7.59789">
        <ele>177.6</ele>
        <time>2020-06-28T14:51:27Z</time>
      </trkpt>
      <trkpt lat="48.64472" lon="7.59783">
        <ele>177.6</ele>
        <time>2020-06-28T14:51:28Z</time>
      </trkpt>
      <trkpt lat="48.64475" lon="7.59776">
        <ele>177.7</ele>
        <time>2020-06-28T14:51:29Z</time>
      </trkpt>
      <trkpt lat="48.64478" lon="7.5977">
        <ele>177.7</ele>
        <time>2020-06-28T14:51:30Z</time>
      </trkpt>
      <trkpt lat="48.64481" lon="7.59764">
        <ele>177.8</ele>
        <time>2020-06-28T14:51:31Z</time>
      </trkpt>
      <trkpt lat="48.64484" lon="7.59757">
        <ele>177.8</ele>
        <time>2020-06-28T14:51:32Z</time>
      </trkpt>
      <trkpt lat="48.64487" lon="7.59752">
        <ele>177.8</ele>
        <time>2020-06-28T14:51:33Z</time>
      </trkpt>
      <trkpt lat="48.6449" lon="7.59746">
        <ele>177.8</ele>
        <time>2020-06-28T14:51:34Z</time>
      </trkpt>
      <trkpt lat="48.64492" lon="7.5974">
        <ele>177.8</ele>
        <time>2020-06-28T14:51:35Z</time>
      </trkpt>
      <trkpt lat="48.64495" lon="7.59734">
        <ele>177.8</ele>
        <time>2020-06-28T14:51:36Z</time>
      </trkpt>
      <trkpt lat="48.64497" lon="7.59729">
        <ele>177.9</ele>
        <time>2020-06-28T14:51:37Z</time>
      </trkpt>
      <trkpt lat="48.645" lon="7.59723">
        <ele>177.9</ele>
        <time>2020-06-28T14:51:38Z</time>
      </trkpt>
      <trkpt lat="48.64503" lon="7.59717">
        <ele>177.9</ele>
        <time>2020-06-28T14:51:39Z</time>
      </trkpt>
      <trkpt lat="48.64506" lon="7.5971">
        <ele>178</ele>
        <time>2020-06-28T14:51:40Z</time>
      </trkpt>
      <trkpt lat="48.64509" lon="7.59704">
        <ele>178</ele>
        <time>2020-06-28T14:51:41Z</time>
      </trkpt>
      <trkpt lat="48.64512" lon="7.59698">
        <ele>178</ele>
        <time>2020-06-28T14:51:42Z</time>
      </trkpt>
      <trkpt lat="48.64515" lon="7.59692">
        <ele>178.1</ele>
        <time>2020-06-28T14:51:43Z</time>
      </trkpt>
      <trkpt lat="48.64519" lon="7.59686">
        <ele>178.1</ele>
        <time>2020-06-28T14:51:44Z</time>
      </trkpt>
      <trkpt lat="48.64522" lon="7.5968">
        <ele>178.2</ele>
        <time>2020-06-28T14:51:45Z</time>
      </trkpt>
      <trkpt lat="48.64525" lon="7.59675">
        <ele>178.2</ele>
        <time>2020-06-28T14:51:46Z</time>
      </trkpt>
      <trkpt lat="48.64527" lon="7.59668">
        <ele>178.2</ele>
        <time>2020-06-28T14:51:47Z</time>
      </trkpt>
      <trkpt lat="48.6453" lon="7.59661">
        <ele>178.3</ele>
        <time>2020-06-28T14:51:48Z</time>
      </trkpt>
      <trkpt lat="48.64534" lon="7.59656">
        <ele>178.3</ele>
        <time>2020-06-28T14:51:49Z</time>
      </trkpt>
      <trkpt lat="48.64537" lon="7.5965">
        <ele>178.3</ele>
        <time>2020-06-28T14:51:50Z</time>
      </trkpt>
      <trkpt lat="48.64539" lon="7.59644">
        <ele>178.3</ele>
        <time>2020-06-28T14:51:51Z</time>
      </trkpt>
      <trkpt lat="48.64543" lon="7.59637">
        <ele>178.4</ele>
        <time>2020-06-28T14:51:52Z</time>
      </trkpt>
      <trkpt lat="48.64545" lon="7.59633">
        <ele>178.4</ele>
        <time>2020-06-28T14:51:53Z</time>
      </trkpt>
      <trkpt lat="48.64548" lon="7.59626">
        <ele>178.4</ele>
        <time>2020-06-28T14:51:54Z</time>
      </trkpt>
      <trkpt lat="48.6455" lon="7.5962">
        <ele>178.5</ele>
        <time>2020-06-28T14:51:55Z</time>
      </trkpt>
      <trkpt lat="48.64553" lon="7.59615">
        <ele>178.5</ele>
        <time>2020-06-28T14:51:56Z</time>
      </trkpt>
      <trkpt lat="48.64556" lon="7.59609">
        <ele>178.5</ele>
        <time>2020-06-28T14:51:57Z</time>
      </trkpt>
      <trkpt lat="48.64558" lon="7.59603">
        <ele>178.6</ele>
        <time>2020-06-28T14:51:58Z</time>
      </trkpt>
      <trkpt lat="48.64561" lon="7.59598">
        <ele>178.6</ele>
        <time>2020-06-28T14:51:59Z</time>
      </trkpt>
      <trkpt lat="48.64563" lon="7.59591">
        <ele>178.6</ele>
        <time>2020-06-28T14:52:00Z</time>
      </trkpt>
      <trkpt lat="48.64566" lon="7.59585">
        <ele>178.7</ele>
        <time>2020-06-28T14:52:01Z</time>
      </trkpt>
      <trkpt lat="48.64569" lon="7.59578">
        <ele>178.7</ele>
        <time>2020-06-28T14:52:02Z</time>
      </trkpt>
      <trkpt lat="48.64572" lon="7.59572">
        <ele>178.7</ele>
        <time>2020-06-28T14:52:03Z</time>
      </trkpt>
      <trkpt lat="48.64575" lon="7.59567">
        <ele>178.8</ele>
        <time>2020-06-28T14:52:04Z</time>
      </trkpt>
      <trkpt lat="48.64578" lon="7.5956">
        <ele>178.8</ele>
        <time>2020-06-28T14:52:05Z</time>
      </trkpt>
      <trkpt lat="48.64582" lon="7.59554">
        <ele>178.9</ele>
        <time>2020-06-28T14:52:06Z</time>
      </trkpt>
      <trkpt lat="48.64584" lon="7.59548">
        <ele>178.9</ele>
        <time>2020-06-28T14:52:07Z</time>
      </trkpt>
      <trkpt lat="48.64587" lon="7.59541">
        <ele>179</ele>
        <time>2020-06-28T14:52:08Z</time>
      </trkpt>
      <trkpt lat="48.6459" lon="7.59535">
        <ele>179</ele>
        <time>2020-06-28T14:52:09Z</time>
      </trkpt>
      <trkpt lat="48.64592" lon="7.59529">
        <ele>179</ele>
        <time>2020-06-28T14:52:10Z</time>
      </trkpt>
      <trkpt lat="48.64595" lon="7.59523">
        <ele>179</ele>
        <time>2020-06-28T14:52:11Z</time>
      </trkpt>
      <trkpt lat="48.64599" lon="7.59515">
        <ele>179.1</ele>
        <time>2020-06-28T14:52:12Z</time>
      </trkpt>
      <trkpt lat="48.64603" lon="7.59507">
        <ele>179.1</ele>
        <time>2020-06-28T14:52:13Z</time>
      </trkpt>
      <trkpt lat="48.64606" lon="7.595">
        <ele>179.1</ele>
        <time>2020-06-28T14:52:14Z</time>
      </trkpt>
      <trkpt lat="48.64609" lon="7.59493">
        <ele>179.1</ele>
        <time>2020-06-28T14:52:15Z</time>
      </trkpt>
      <trkpt lat="48.64611" lon="7.59487">
        <ele>179.1</ele>
        <time>2020-06-28T14:52:16Z</time>
      </trkpt>
      <trkpt lat="48.64614" lon="7.59481">
        <ele>179.2</ele>
        <time>2020-06-28T14:52:17Z</time>
      </trkpt>
      <trkpt lat="48.64617" lon="7.59475">
        <ele>179.2</ele>
        <time>2020-06-28T14:52:18Z</time>
      </trkpt>
      <trkpt lat="48.64618" lon="7.59469">
        <ele>179.2</ele>
        <time>2020-06-28T14:52:19Z</time>
      </trkpt>
      <trkpt lat="48.6462" lon="7.59464">
        <ele>179.2</ele>
        <time>2020-06-28T14:52:20Z</time>
      </trkpt>
      <trkpt lat="48.64622" lon="7.59458">
        <ele>179.2</ele>
        <time>2020-06-28T14:52:21Z</time>
      </trkpt>
      <trkpt lat="48.64624" lon="7.59453">
        <ele>179.3</ele>
        <time>2020-06-28T14:52:22Z</time>
      </trkpt>
      <trkpt lat="48.64627" lon="7.59448">
        <ele>179.3</ele>
        <time>2020-06-28T14:52:23Z</time>
      </trkpt>
      <trkpt lat="48.6463" lon="7.59442">
        <ele>179.3</ele>
        <time>2020-06-28T14:52:24Z</time>
      </trkpt>
      <trkpt lat="48.64633" lon="7.59437">
        <ele>179.3</ele>
        <time>2020-06-28T14:52:25Z</time>
      </trkpt>
      <trkpt lat="48.64636" lon="7.59432">
        <ele>179.3</ele>
        <time>2020-06-28T14:52:26Z</time>
      </trkpt>
      <trkpt lat="48.64638" lon="7.59426">
        <ele>179.3</ele>
        <time>2020-06-28T14:52:27Z</time>
      </trkpt>
      <trkpt lat="48.64641" lon="7.5942">
        <ele>179.3</ele>
        <time>2020-06-28T14:52:28Z</time>
      </trkpt>
      <trkpt lat="48.64644" lon="7.59415">
        <ele>179.3</ele>
        <time>2020-06-28T14:52:29Z</time>
      </trkpt>
      <trkpt lat="48.64646" lon="7.5941">
        <ele>179.4</ele>
        <time>2020-06-28T14:52:30Z</time>
      </trkpt>
      <trkpt lat="48.64648" lon="7.59404">
        <ele>179.4</ele>
        <time>2020-06-28T14:52:31Z</time>
      </trkpt>
      <trkpt lat="48.64651" lon="7.59397">
        <ele>179.4</ele>
        <time>2020-06-28T14:52:32Z</time>
      </trkpt>
      <trkpt lat="48.64654" lon="7.59391">
        <ele>179.4</ele>
        <time>2020-06-28T14:52:33Z</time>
      </trkpt>
      <trkpt lat="48.64657" lon="7.59385">
        <ele>179.4</ele>
        <time>2020-06-28T14:52:34Z</time>
      </trkpt>
      <trkpt lat="48.64659" lon="7.59379">
        <ele>179.5</ele>
        <time>2020-06-28T14:52:35Z</time>
      </trkpt>
      <trkpt lat="48.64661" lon="7.59373">
        <ele>179.5</ele>
        <time>2020-06-28T14:52:36Z</time>
      </trkpt>
      <trkpt lat="48.64663" lon="7.59367">
        <ele>179.5</ele>
        <time>2020-06-28T14:52:37Z</time>
      </trkpt>
      <trkpt lat="48.64665" lon="7.59361">
        <ele>179.5</ele>
        <time>2020-06-28T14:52:38Z</time>
      </trkpt>
      <trkpt lat="48.64668" lon="7.59355">
        <ele>179.5</ele>
        <time>2020-06-28T14:52:39Z</time>
      </trkpt>
      <trkpt lat="48.6467" lon="7.59349">
        <ele>179.6</ele>
        <time>2020-06-28T14:52:40Z</time>
      </trkpt>
      <trkpt lat="48.64673" lon="7.59343">
        <ele>179.6</ele>
        <time>2020-06-28T14:52:41Z</time>
      </trkpt>
      <trkpt lat="48.64677" lon="7.59337">
        <ele>179.6</ele>
        <time>2020-06-28T14:52:42Z</time>
      </trkpt>
      <trkpt lat="48.6468" lon="7.59332">
        <ele>179.6</ele>
        <time>2020-06-28T14:52:43Z</time>
      </trkpt>
      <trkpt lat="48.64683" lon="7.59326">
        <ele>179.7</ele>
        <time>2020-06-28T14:52:44Z</time>
      </trkpt>
      <trkpt lat="48.64686" lon="7.5932">
        <ele>179.7</ele>
        <time>2020-06-28T14:52:45Z</time>
      </trkpt>
      <trkpt lat="48.64689" lon="7.59314">
        <ele>179.8</ele>
        <time>2020-06-28T14:52:46Z</time>
      </trkpt>
      <trkpt lat="48.64693" lon="7.59309">
        <ele>179.8</ele>
        <time>2020-06-28T14:52:47Z</time>
      </trkpt>
      <trkpt lat="48.64697" lon="7.59303">
        <ele>179.8</ele>
        <time>2020-06-28T14:52:48Z</time>
      </trkpt>
      <trkpt lat="48.64699" lon="7.59296">
        <ele>179.8</ele>
        <time>2020-06-28T14:52:49Z</time>
      </trkpt>
      <trkpt lat="48.64703" lon="7.5929">
        <ele>179.8</ele>
        <time>2020-06-28T14:52:50Z</time>
      </trkpt>
      <trkpt lat="48.64707" lon="7.59285">
        <ele>179.8</ele>
        <time>2020-06-28T14:52:51Z</time>
      </trkpt>
      <trkpt lat="48.6471" lon="7.59279">
        <ele>179.8</ele>
        <time>2020-06-28T14:52:52Z</time>
      </trkpt>
      <trkpt lat="48.64713" lon="7.59273">
        <ele>179.8</ele>
        <time>2020-06-28T14:52:53Z</time>
      </trkpt>
      <trkpt lat="48.64715" lon="7.59266">
        <ele>179.9</ele>
        <time>2020-06-28T14:52:54Z</time>
      </trkpt>
      <trkpt lat="48.64717" lon="7.5926">
        <ele>179.9</ele>
        <time>2020-06-28T14:52:55Z</time>
      </trkpt>
      <trkpt lat="48.6472" lon="7.59253">
        <ele>179.9</ele>
        <time>2020-06-28T14:52:56Z</time>
      </trkpt>
      <trkpt lat="48.64723" lon="7.59248">
        <ele>179.9</ele>
        <time>2020-06-28T14:52:57Z</time>
      </trkpt>
      <trkpt lat="48.64726" lon="7.59242">
        <ele>179.9</ele>
        <time>2020-06-28T14:52:58Z</time>
      </trkpt>
      <trkpt lat="48.64729" lon="7.59236">
        <ele>179.9</ele>
        <time>2020-06-28T14:52:59Z</time>
      </trkpt>
      <trkpt lat="48.64732" lon="7.59231">
        <ele>179.9</ele>
        <time>2020-06-28T14:53:00Z</time>
      </trkpt>
      <trkpt lat="48.64735" lon="7.59224">
        <ele>179.9</ele>
        <time>2020-06-28T14:53:01Z</time>
      </trkpt>
      <trkpt lat="48.64738" lon="7.59217">
        <ele>179.9</ele>
        <time>2020-06-28T14:53:02Z</time>
      </trkpt>
      <trkpt lat="48.64741" lon="7.5921">
        <ele>180</ele>
        <time>2020-06-28T14:53:03Z</time>
      </trkpt>
      <trkpt lat="48.64744" lon="7.59204">
        <ele>180</ele>
        <time>2020-06-28T14:53:04Z</time>
      </trkpt>
      <trkpt lat="48.64747" lon="7.59198">
        <ele>180</ele>
        <time>2020-06-28T14:53:05Z</time>
      </trkpt>
      <trkpt lat="48.6475" lon="7.59192">
        <ele>180</ele>
        <time>2020-06-28T14:53:06Z</time>
      </trkpt>
      <trkpt lat="48.64752" lon="7.59187">
        <ele>180</ele>
        <time>2020-06-28T14:53:07Z</time>
      </trkpt>
      <trkpt lat="48.64754" lon="7.59181">
        <ele>179.9</ele>
        <time>2020-06-28T14:53:08Z</time>
      </trkpt>
      <trkpt lat="48.64756" lon="7.59175">
        <ele>179.9</ele>
        <time>2020-06-28T14:53:09Z</time>
      </trkpt>
      <trkpt lat="48.64759" lon="7.59169">
        <ele>179.9</ele>
        <time>2020-06-28T14:53:10Z</time>
      </trkpt>
      <trkpt lat="48.64763" lon="7.59163">
        <ele>179.9</ele>
        <time>2020-06-28T14:53:11Z</time>
      </trkpt>
      <trkpt lat="48.64766" lon="7.59156">
        <ele>179.9</ele>
        <time>2020-06-28T14:53:12Z</time>
      </trkpt>
      <trkpt lat="48.64769" lon="7.5915">
        <ele>179.9</ele>
        <time>2020-06-28T14:53:13Z</time>
      </trkpt>
      <trkpt lat="48.64772" lon="7.59144">
        <ele>179.9</ele>
        <time>2020-06-28T14:53:14Z</time>
      </trkpt>
      <trkpt lat="48.64775" lon="7.59137">
        <ele>179.9</ele>
        <time>2020-06-28T14:53:15Z</time>
      </trkpt>
      <trkpt lat="48.64778" lon="7.5913">
        <ele>179.9</ele>
        <time>2020-06-28T14:53:16Z</time>
      </trkpt>
      <trkpt lat="48.6478" lon="7.59124">
        <ele>179.9</ele>
        <time>2020-06-28T14:53:17Z</time>
      </trkpt>
      <trkpt lat="48.64783" lon="7.59119">
        <ele>179.9</ele>
        <time>2020-06-28T14:53:18Z</time>
      </trkpt>
      <trkpt lat="48.64785" lon="7.59113">
        <ele>179.9</ele>
        <time>2020-06-28T14:53:19Z</time>
      </trkpt>
      <trkpt lat="48.64788" lon="7.59107">
        <ele>179.9</ele>
        <time>2020-06-28T14:53:20Z</time>
      </trkpt>
      <trkpt lat="48.64791" lon="7.59101">
        <ele>179.9</ele>
        <time>2020-06-28T14:53:21Z</time>
      </trkpt>
      <trkpt lat="48.64794" lon="7.59096">
        <ele>179.9</ele>
        <time>2020-06-28T14:53:22Z</time>
      </trkpt>
      <trkpt lat="48.64797" lon="7.59091">
        <ele>180</ele>
        <time>2020-06-28T14:53:23Z</time>
      </trkpt>
      <trkpt lat="48.64798" lon="7.59084">
        <ele>180</ele>
        <time>2020-06-28T14:53:24Z</time>
      </trkpt>
      <trkpt lat="48.648" lon="7.59079">
        <ele>180</ele>
        <time>2020-06-28T14:53:25Z</time>
      </trkpt>
      <trkpt lat="48.64802" lon="7.59073">
        <ele>180</ele>
        <time>2020-06-28T14:53:26Z</time>
      </trkpt>
      <trkpt lat="48.64805" lon="7.59069">
        <ele>180</ele>
        <time>2020-06-28T14:53:27Z</time>
      </trkpt>
      <trkpt lat="48.64807" lon="7.59065">
        <ele>180</ele>
        <time>2020-06-28T14:53:28Z</time>
      </trkpt>
      <trkpt lat="48.6481" lon="7.59059">
        <ele>180</ele>
        <time>2020-06-28T14:53:29Z</time>
      </trkpt>
      <trkpt lat="48.64812" lon="7.59053">
        <ele>180</ele>
        <time>2020-06-28T14:53:30Z</time>
      </trkpt>
      <trkpt lat="48.64815" lon="7.59047">
        <ele>180</ele>
        <time>2020-06-28T14:53:31Z</time>
      </trkpt>
      <trkpt lat="48.64818" lon="7.59041">
        <ele>180</ele>
        <time>2020-06-28T14:53:32Z</time>
      </trkpt>
      <trkpt lat="48.64821" lon="7.59034">
        <ele>180</ele>
        <time>2020-06-28T14:53:33Z</time>
      </trkpt>
      <trkpt lat="48.64824" lon="7.59028">
        <ele>180</ele>
        <time>2020-06-28T14:53:34Z</time>
      </trkpt>
      <trkpt lat="48.64826" lon="7.59023">
        <ele>180</ele>
        <time>2020-06-28T14:53:35Z</time>
      </trkpt>
      <trkpt lat="48.64829" lon="7.59017">
        <ele>180</ele>
        <time>2020-06-28T14:53:36Z</time>
      </trkpt>
      <trkpt lat="48.64832" lon="7.59012">
        <ele>180</ele>
        <time>2020-06-28T14:53:37Z</time>
      </trkpt>
      <trkpt lat="48.64835" lon="7.59006">
        <ele>180</ele>
        <time>2020-06-28T14:53:38Z</time>
      </trkpt>
      <trkpt lat="48.64837" lon="7.59001">
        <ele>180</ele>
        <time>2020-06-28T14:53:39Z</time>
      </trkpt>
      <trkpt lat="48.64841" lon="7.58994">
        <ele>180</ele>
        <time>2020-06-28T14:53:40Z</time>
      </trkpt>
      <trkpt lat="48.64844" lon="7.58988">
        <ele>180</ele>
        <time>2020-06-28T14:53:41Z</time>
      </trkpt>
      <trkpt lat="48.64847" lon="7.58981">
        <ele>180</ele>
        <time>2020-06-28T14:53:42Z</time>
      </trkpt>
      <trkpt lat="48.6485" lon="7.58976">
        <ele>180</ele>
        <time>2020-06-28T14:53:43Z</time>
      </trkpt>
      <trkpt lat="48.64853" lon="7.5897">
        <ele>180</ele>
        <time>2020-06-28T14:53:44Z</time>
      </trkpt>
      <trkpt lat="48.64856" lon="7.58963">
        <ele>180</ele>
        <time>2020-06-28T14:53:45Z</time>
      </trkpt>
      <trkpt lat="48.64859" lon="7.58957">
        <ele>180</ele>
        <time>2020-06-28T14:53:46Z</time>
      </trkpt>
      <trkpt lat="48.64861" lon="7.58951">
        <ele>180</ele>
        <time>2020-06-28T14:53:47Z</time>
      </trkpt>
      <trkpt lat="48.64864" lon="7.58945">
        <ele>180</ele>
        <time>2020-06-28T14:53:48Z</time>
      </trkpt>
      <trkpt lat="48.64866" lon="7.58939">
        <ele>180</ele>
        <time>2020-06-28T14:53:49Z</time>
      </trkpt>
      <trkpt lat="48.6487" lon="7.58934">
        <ele>180.1</ele>
        <time>2020-06-28T14:53:50Z</time>
      </trkpt>
      <trkpt lat="48.64873" lon="7.58929">
        <ele>180.1</ele>
        <time>2020-06-28T14:53:51Z</time>
      </trkpt>
      <trkpt lat="48.64876" lon="7.58923">
        <ele>180.1</ele>
        <time>2020-06-28T14:53:52Z</time>
      </trkpt>
      <trkpt lat="48.6488" lon="7.58917">
        <ele>180.1</ele>
        <time>2020-06-28T14:53:53Z</time>
      </trkpt>
      <trkpt lat="48.64883" lon="7.5891">
        <ele>180.2</ele>
        <time>2020-06-28T14:53:54Z</time>
      </trkpt>
      <trkpt lat="48.64886" lon="7.58904">
        <ele>180.2</ele>
        <time>2020-06-28T14:53:55Z</time>
      </trkpt>
      <trkpt lat="48.64888" lon="7.58896">
        <ele>180.2</ele>
        <time>2020-06-28T14:53:56Z</time>
      </trkpt>
      <trkpt lat="48.64892" lon="7.58889">
        <ele>180.1</ele>
        <time>2020-06-28T14:53:57Z</time>
      </trkpt>
      <trkpt lat="48.64895" lon="7.58882">
        <ele>180.1</ele>
        <time>2020-06-28T14:53:58Z</time>
      </trkpt>
      <trkpt lat="48.64898" lon="7.58874">
        <ele>180.1</ele>
        <time>2020-06-28T14:53:59Z</time>
      </trkpt>
      <trkpt lat="48.64901" lon="7.58867">
        <ele>180.2</ele>
        <time>2020-06-28T14:54:00Z</time>
      </trkpt>
      <trkpt lat="48.64904" lon="7.58861">
        <ele>180.3</ele>
        <time>2020-06-28T14:54:01Z</time>
      </trkpt>
      <trkpt lat="48.64907" lon="7.58855">
        <ele>180.3</ele>
        <time>2020-06-28T14:54:02Z</time>
      </trkpt>
      <trkpt lat="48.64911" lon="7.58849">
        <ele>180.4</ele>
        <time>2020-06-28T14:54:03Z</time>
      </trkpt>
      <trkpt lat="48.64914" lon="7.58842">
        <ele>180.5</ele>
        <time>2020-06-28T14:54:04Z</time>
      </trkpt>
      <trkpt lat="48.64917" lon="7.58835">
        <ele>180.6</ele>
        <time>2020-06-28T14:54:05Z</time>
      </trkpt>
      <trkpt lat="48.64919" lon="7.58828">
        <ele>180.6</ele>
        <time>2020-06-28T14:54:06Z</time>
      </trkpt>
      <trkpt lat="48.64922" lon="7.58821">
        <ele>180.7</ele>
        <time>2020-06-28T14:54:07Z</time>
      </trkpt>
      <trkpt lat="48.64924" lon="7.58816">
        <ele>180.8</ele>
        <time>2020-06-28T14:54:08Z</time>
      </trkpt>
      <trkpt lat="48.64927" lon="7.5881">
        <ele>180.8</ele>
        <time>2020-06-28T14:54:09Z</time>
      </trkpt>
      <trkpt lat="48.6493" lon="7.58804">
        <ele>180.9</ele>
        <time>2020-06-28T14:54:10Z</time>
      </trkpt>
      <trkpt lat="48.64932" lon="7.58797">
        <ele>180.9</ele>
        <time>2020-06-28T14:54:11Z</time>
      </trkpt>
      <trkpt lat="48.64935" lon="7.58791">
        <ele>181</ele>
        <time>2020-06-28T14:54:12Z</time>
      </trkpt>
      <trkpt lat="48.64937" lon="7.58785">
        <ele>181.1</ele>
        <time>2020-06-28T14:54:13Z</time>
      </trkpt>
      <trkpt lat="48.6494" lon="7.5878">
        <ele>181.2</ele>
        <time>2020-06-28T14:54:14Z</time>
      </trkpt>
      <trkpt lat="48.64943" lon="7.58774">
        <ele>181.3</ele>
        <time>2020-06-28T14:54:15Z</time>
      </trkpt>
      <trkpt lat="48.64945" lon="7.58769">
        <ele>181.4</ele>
        <time>2020-06-28T14:54:16Z</time>
      </trkpt>
      <trkpt lat="48.64947" lon="7.58763">
        <ele>181.5</ele>
        <time>2020-06-28T14:54:17Z</time>
      </trkpt>
      <trkpt lat="48.6495" lon="7.58758">
        <ele>181.6</ele>
        <time>2020-06-28T14:54:18Z</time>
      </trkpt>
      <trkpt lat="48.64953" lon="7.58751">
        <ele>181.7</ele>
        <time>2020-06-28T14:54:19Z</time>
      </trkpt>
      <trkpt lat="48.64955" lon="7.58746">
        <ele>181.8</ele>
        <time>2020-06-28T14:54:20Z</time>
      </trkpt>
      <trkpt lat="48.64958" lon="7.5874">
        <ele>181.9</ele>
        <time>2020-06-28T14:54:21Z</time>
      </trkpt>
      <trkpt lat="48.6496" lon="7.58734">
        <ele>182</ele>
        <time>2020-06-28T14:54:22Z</time>
      </trkpt>
      <trkpt lat="48.64962" lon="7.58729">
        <ele>182</ele>
        <time>2020-06-28T14:54:23Z</time>
      </trkpt>
      <trkpt lat="48.64966" lon="7.58724">
        <ele>182.1</ele>
        <time>2020-06-28T14:54:24Z</time>
      </trkpt>
      <trkpt lat="48.64969" lon="7.58719">
        <ele>182.2</ele>
        <time>2020-06-28T14:54:25Z</time>
      </trkpt>
      <trkpt lat="48.64973" lon="7.58713">
        <ele>182.2</ele>
        <time>2020-06-28T14:54:26Z</time>
      </trkpt>
      <trkpt lat="48.64976" lon="7.58707">
        <ele>182.3</ele>
        <time>2020-06-28T14:54:27Z</time>
      </trkpt>
      <trkpt lat="48.64979" lon="7.587">
        <ele>182.4</ele>
        <time>2020-06-28T14:54:28Z</time>
      </trkpt>
      <trkpt lat="48.64982" lon="7.58693">
        <ele>182.5</ele>
        <time>2020-06-28T14:54:29Z</time>
      </trkpt>
      <trkpt lat="48.64985" lon="7.58687">
        <ele>182.6</ele>
        <time>2020-06-28T14:54:30Z</time>
      </trkpt>
      <trkpt lat="48.64988" lon="7.58681">
        <ele>182.6</ele>
        <time>2020-06-28T14:54:31Z</time>
      </trkpt>
      <trkpt lat="48.64991" lon="7.58676">
        <ele>182.7</ele>
        <time>2020-06-28T14:54:32Z</time>
      </trkpt>
      <trkpt lat="48.64993" lon="7.5867">
        <ele>182.8</ele>
        <time>2020-06-28T14:54:33Z</time>
      </trkpt>
      <trkpt lat="48.64996" lon="7.58664">
        <ele>182.8</ele>
        <time>2020-06-28T14:54:34Z</time>
      </trkpt>
      <trkpt lat="48.64999" lon="7.58658">
        <ele>182.9</ele>
        <time>2020-06-28T14:54:35Z</time>
      </trkpt>
      <trkpt lat="48.65002" lon="7.58651">
        <ele>183</ele>
        <time>2020-06-28T14:54:36Z</time>
      </trkpt>
      <trkpt lat="48.65005" lon="7.58644">
        <ele>183</ele>
        <time>2020-06-28T14:54:37Z</time>
      </trkpt>
      <trkpt lat="48.65009" lon="7.58639">
        <ele>183.1</ele>
        <time>2020-06-28T14:54:38Z</time>
      </trkpt>
      <trkpt lat="48.65011" lon="7.58634">
        <ele>183.1</ele>
        <time>2020-06-28T14:54:39Z</time>
      </trkpt>
      <trkpt lat="48.65014" lon="7.58629">
        <ele>183.2</ele>
        <time>2020-06-28T14:54:40Z</time>
      </trkpt>
      <trkpt lat="48.65016" lon="7.58622">
        <ele>183.2</ele>
        <time>2020-06-28T14:54:41Z</time>
      </trkpt>
      <trkpt lat="48.65018" lon="7.58616">
        <ele>183.3</ele>
        <time>2020-06-28T14:54:42Z</time>
      </trkpt>
      <trkpt lat="48.65022" lon="7.5861">
        <ele>183.4</ele>
        <time>2020-06-28T14:54:43Z</time>
      </trkpt>
      <trkpt lat="48.65025" lon="7.58604">
        <ele>183.5</ele>
        <time>2020-06-28T14:54:44Z</time>
      </trkpt>
      <trkpt lat="48.65027" lon="7.58599">
        <ele>183.5</ele>
        <time>2020-06-28T14:54:45Z</time>
      </trkpt>
      <trkpt lat="48.6503" lon="7.58592">
        <ele>183.6</ele>
        <time>2020-06-28T14:54:46Z</time>
      </trkpt>
      <trkpt lat="48.65032" lon="7.58585">
        <ele>183.7</ele>
        <time>2020-06-28T14:54:47Z</time>
      </trkpt>
      <trkpt lat="48.65034" lon="7.58579">
        <ele>183.8</ele>
        <time>2020-06-28T14:54:48Z</time>
      </trkpt>
      <trkpt lat="48.65037" lon="7.58574">
        <ele>183.9</ele>
        <time>2020-06-28T14:54:49Z</time>
      </trkpt>
      <trkpt lat="48.6504" lon="7.58569">
        <ele>184</ele>
        <time>2020-06-28T14:54:50Z</time>
      </trkpt>
      <trkpt lat="48.65042" lon="7.58564">
        <ele>184</ele>
        <time>2020-06-28T14:54:51Z</time>
      </trkpt>
      <trkpt lat="48.65046" lon="7.58559">
        <ele>184.2</ele>
        <time>2020-06-28T14:54:52Z</time>
      </trkpt>
      <trkpt lat="48.65049" lon="7.58554">
        <ele>184.3</ele>
        <time>2020-06-28T14:54:53Z</time>
      </trkpt>
      <trkpt lat="48.65053" lon="7.5855">
        <ele>184.4</ele>
        <time>2020-06-28T14:54:54Z</time>
      </trkpt>
      <trkpt lat="48.65055" lon="7.58543">
        <ele>184.5</ele>
        <time>2020-06-28T14:54:55Z</time>
      </trkpt>
      <trkpt lat="48.65058" lon="7.58538">
        <ele>184.6</ele>
        <time>2020-06-28T14:54:56Z</time>
      </trkpt>
      <trkpt lat="48.65062" lon="7.58532">
        <ele>184.7</ele>
        <time>2020-06-28T14:54:57Z</time>
      </trkpt>
      <trkpt lat="48.65064" lon="7.58526">
        <ele>184.8</ele>
        <time>2020-06-28T14:54:58Z</time>
      </trkpt>
      <trkpt lat="48.65067" lon="7.58521">
        <ele>184.9</ele>
        <time>2020-06-28T14:54:59Z</time>
      </trkpt>
      <trkpt lat="48.6507" lon="7.58516">
        <ele>185</ele>
        <time>2020-06-28T14:55:00Z</time>
      </trkpt>
      <trkpt lat="48.65072" lon="7.58512">
        <ele>185.1</ele>
        <time>2020-06-28T14:55:01Z</time>
      </trkpt>
      <trkpt lat="48.65075" lon="7.58507">
        <ele>185.2</ele>
        <time>2020-06-28T14:55:02Z</time>
      </trkpt>
      <trkpt lat="48.65077" lon="7.58502">
        <ele>185.4</ele>
        <time>2020-06-28T14:55:03Z</time>
      </trkpt>
      <trkpt lat="48.6508" lon="7.58498">
        <ele>185.5</ele>
        <time>2020-06-28T14:55:04Z</time>
      </trkpt>
      <trkpt lat="48.65081" lon="7.58492">
        <ele>185.6</ele>
        <time>2020-06-28T14:55:05Z</time>
      </trkpt>
      <trkpt lat="48.65083" lon="7.58486">
        <ele>185.7</ele>
        <time>2020-06-28T14:55:06Z</time>
      </trkpt>
      <trkpt lat="48.65087" lon="7.5848">
        <ele>185.8</ele>
        <time>2020-06-28T14:55:07Z</time>
      </trkpt>
      <trkpt lat="48.6509" lon="7.58475">
        <ele>185.9</ele>
        <time>2020-06-28T14:55:08Z</time>
      </trkpt>
      <trkpt lat="48.65093" lon="7.5847">
        <ele>186.1</ele>
        <time>2020-06-28T14:55:09Z</time>
      </trkpt>
      <trkpt lat="48.65096" lon="7.58465">
        <ele>186.2</ele>
        <time>2020-06-28T14:55:10Z</time>
      </trkpt>
      <trkpt lat="48.65098" lon="7.5846">
        <ele>186.3</ele>
        <time>2020-06-28T14:55:11Z</time>
      </trkpt>
      <trkpt lat="48.65101" lon="7.58455">
        <ele>186.3</ele>
        <time>2020-06-28T14:55:12Z</time>
      </trkpt>
      <trkpt lat="48.65103" lon="7.58449">
        <ele>186.5</ele>
        <time>2020-06-28T14:55:13Z</time>
      </trkpt>
      <trkpt lat="48.65105" lon="7.58442">
        <ele>186.6</ele>
        <time>2020-06-28T14:55:14Z</time>
      </trkpt>
      <trkpt lat="48.65107" lon="7.58435">
        <ele>186.7</ele>
        <time>2020-06-28T14:55:15Z</time>
      </trkpt>
      <trkpt lat="48.6511" lon="7.58429">
        <ele>186.8</ele>
        <time>2020-06-28T14:55:16Z</time>
      </trkpt>
      <trkpt lat="48.65112" lon="7.58424">
        <ele>186.9</ele>
        <time>2020-06-28T14:55:17Z</time>
      </trkpt>
      <trkpt lat="48.65113" lon="7.58418">
        <ele>187.1</ele>
        <time>2020-06-28T14:55:18Z</time>
      </trkpt>
      <trkpt lat="48.65116" lon="7.58413">
        <ele>187.2</ele>
        <time>2020-06-28T14:55:19Z</time>
      </trkpt>
      <trkpt lat="48.65118" lon="7.58408">
        <ele>187.3</ele>
        <time>2020-06-28T14:55:20Z</time>
      </trkpt>
      <trkpt lat="48.65121" lon="7.58403">
        <ele>187.4</ele>
        <time>2020-06-28T14:55:21Z</time>
      </trkpt>
      <trkpt lat="48.65123" lon="7.58396">
        <ele>187.6</ele>
        <time>2020-06-28T14:55:22Z</time>
      </trkpt>
      <trkpt lat="48.65126" lon="7.58391">
        <ele>187.7</ele>
        <time>2020-06-28T14:55:23Z</time>
      </trkpt>
      <trkpt lat="48.65129" lon="7.58386">
        <ele>187.9</ele>
        <time>2020-06-28T14:55:24Z</time>
      </trkpt>
      <trkpt lat="48.65131" lon="7.5838">
        <ele>188</ele>
        <time>2020-06-28T14:55:25Z</time>
      </trkpt>
      <trkpt lat="48.65134" lon="7.58373">
        <ele>188.1</ele>
        <time>2020-06-28T14:55:26Z</time>
      </trkpt>
      <trkpt lat="48.65136" lon="7.58368">
        <ele>188.3</ele>
        <time>2020-06-28T14:55:27Z</time>
      </trkpt>
      <trkpt lat="48.65139" lon="7.58362">
        <ele>188.4</ele>
        <time>2020-06-28T14:55:28Z</time>
      </trkpt>
      <trkpt lat="48.65142" lon="7.58356">
        <ele>188.5</ele>
        <time>2020-06-28T14:55:29Z</time>
      </trkpt>
      <trkpt lat="48.65145" lon="7.5835">
        <ele>188.6</ele>
        <time>2020-06-28T14:55:30Z</time>
      </trkpt>
      <trkpt lat="48.65149" lon="7.58344">
        <ele>188.7</ele>
        <time>2020-06-28T14:55:31Z</time>
      </trkpt>
      <trkpt lat="48.65151" lon="7.58339">
        <ele>188.8</ele>
        <time>2020-06-28T14:55:32Z</time>
      </trkpt>
      <trkpt lat="48.65154" lon="7.58333">
        <ele>188.9</ele>
        <time>2020-06-28T14:55:33Z</time>
      </trkpt>
      <trkpt lat="48.65157" lon="7.58327">
        <ele>189</ele>
        <time>2020-06-28T14:55:34Z</time>
      </trkpt>
      <trkpt lat="48.65159" lon="7.5832">
        <ele>189.1</ele>
        <time>2020-06-28T14:55:35Z</time>
      </trkpt>
      <trkpt lat="48.65162" lon="7.58315">
        <ele>189.2</ele>
        <time>2020-06-28T14:55:36Z</time>
      </trkpt>
      <trkpt lat="48.65165" lon="7.5831">
        <ele>189.2</ele>
        <time>2020-06-28T14:55:37Z</time>
      </trkpt>
      <trkpt lat="48.65167" lon="7.58305">
        <ele>189.3</ele>
        <time>2020-06-28T14:55:38Z</time>
      </trkpt>
      <trkpt lat="48.6517" lon="7.58299">
        <ele>189.4</ele>
        <time>2020-06-28T14:55:39Z</time>
      </trkpt>
      <trkpt lat="48.65173" lon="7.58294">
        <ele>189.5</ele>
        <time>2020-06-28T14:55:40Z</time>
      </trkpt>
      <trkpt lat="48.65175" lon="7.58288">
        <ele>189.6</ele>
        <time>2020-06-28T14:55:41Z</time>
      </trkpt>
      <trkpt lat="48.65177" lon="7.58281">
        <ele>189.7</ele>
        <time>2020-06-28T14:55:42Z</time>
      </trkpt>
      <trkpt lat="48.6518" lon="7.58275">
        <ele>189.8</ele>
        <time>2020-06-28T14:55:43Z</time>
      </trkpt>
      <trkpt lat="48.65183" lon="7.58269">
        <ele>189.9</ele>
        <time>2020-06-28T14:55:44Z</time>
      </trkpt>
      <trkpt lat="48.65186" lon="7.58263">
        <ele>190</ele>
        <time>2020-06-28T14:55:45Z</time>
      </trkpt>
      <trkpt lat="48.65188" lon="7.58258">
        <ele>190</ele>
        <time>2020-06-28T14:55:46Z</time>
      </trkpt>
      <trkpt lat="48.65191" lon="7.58253">
        <ele>190.1</ele>
        <time>2020-06-28T14:55:47Z</time>
      </trkpt>
      <trkpt lat="48.65193" lon="7.58247">
        <ele>190.2</ele>
        <time>2020-06-28T14:55:48Z</time>
      </trkpt>
      <trkpt lat="48.65196" lon="7.58241">
        <ele>190.3</ele>
        <time>2020-06-28T14:55:49Z</time>
      </trkpt>
      <trkpt lat="48.65199" lon="7.58235">
        <ele>190.4</ele>
        <time>2020-06-28T14:55:50Z</time>
      </trkpt>
      <trkpt lat="48.65202" lon="7.5823">
        <ele>190.4</ele>
        <time>2020-06-28T14:55:51Z</time>
      </trkpt>
      <trkpt lat="48.65204" lon="7.58223">
        <ele>190.5</ele>
        <time>2020-06-28T14:55:52Z</time>
      </trkpt>
      <trkpt lat="48.65207" lon="7.58218">
        <ele>190.6</ele>
        <time>2020-06-28T14:55:53Z</time>
      </trkpt>
      <trkpt lat="48.6521" lon="7.58212">
        <ele>190.7</ele>
        <time>2020-06-28T14:55:54Z</time>
      </trkpt>
      <trkpt lat="48.65214" lon="7.58207">
        <ele>190.9</ele>
        <time>2020-06-28T14:55:55Z</time>
      </trkpt>
      <trkpt lat="48.65218" lon="7.58202">
        <ele>191</ele>
        <time>2020-06-28T14:55:56Z</time>
      </trkpt>
      <trkpt lat="48.65222" lon="7.58197">
        <ele>191.2</ele>
        <time>2020-06-28T14:55:57Z</time>
      </trkpt>
      <trkpt lat="48.65225" lon="7.58193">
        <ele>191.4</ele>
        <time>2020-06-28T14:55:58Z</time>
      </trkpt>
      <trkpt lat="48.65229" lon="7.58188">
        <ele>191.4</ele>
        <time>2020-06-28T14:55:59Z</time>
      </trkpt>
      <trkpt lat="48.65232" lon="7.58184">
        <ele>191.5</ele>
        <time>2020-06-28T14:56:00Z</time>
      </trkpt>
      <trkpt lat="48.65235" lon="7.58179">
        <ele>191.5</ele>
        <time>2020-06-28T14:56:01Z</time>
      </trkpt>
      <trkpt lat="48.65237" lon="7.58173">
        <ele>191.6</ele>
        <time>2020-06-28T14:56:02Z</time>
      </trkpt>
      <trkpt lat="48.65239" lon="7.58165">
        <ele>191.7</ele>
        <time>2020-06-28T14:56:03Z</time>
      </trkpt>
      <trkpt lat="48.6524" lon="7.58158">
        <ele>192.1</ele>
        <time>2020-06-28T14:56:04Z</time>
      </trkpt>
      <trkpt lat="48.65243" lon="7.5815">
        <ele>192</ele>
        <time>2020-06-28T14:56:05Z</time>
      </trkpt>
      <trkpt lat="48.65245" lon="7.58144">
        <ele>192</ele>
        <time>2020-06-28T14:56:06Z</time>
      </trkpt>
      <trkpt lat="48.65247" lon="7.58137">
        <ele>191.9</ele>
        <time>2020-06-28T14:56:07Z</time>
      </trkpt>
      <trkpt lat="48.65249" lon="7.58131">
        <ele>191.9</ele>
        <time>2020-06-28T14:56:08Z</time>
      </trkpt>
      <trkpt lat="48.65251" lon="7.58124">
        <ele>191.9</ele>
        <time>2020-06-28T14:56:09Z</time>
      </trkpt>
      <trkpt lat="48.65254" lon="7.58117">
        <ele>191.9</ele>
        <time>2020-06-28T14:56:10Z</time>
      </trkpt>
      <trkpt lat="48.65256" lon="7.58111">
        <ele>191.9</ele>
        <time>2020-06-28T14:56:11Z</time>
      </trkpt>
      <trkpt lat="48.65259" lon="7.58105">
        <ele>192</ele>
        <time>2020-06-28T14:56:12Z</time>
      </trkpt>
      <trkpt lat="48.65262" lon="7.58099">
        <ele>192.1</ele>
        <time>2020-06-28T14:56:13Z</time>
      </trkpt>
      <trkpt lat="48.65264" lon="7.58092">
        <ele>192.1</ele>
        <time>2020-06-28T14:56:14Z</time>
      </trkpt>
      <trkpt lat="48.65268" lon="7.58089">
        <ele>192.2</ele>
        <time>2020-06-28T14:56:15Z</time>
      </trkpt>
      <trkpt lat="48.65269" lon="7.58082">
        <ele>192.3</ele>
        <time>2020-06-28T14:56:16Z</time>
      </trkpt>
      <trkpt lat="48.65272" lon="7.58078">
        <ele>192.3</ele>
        <time>2020-06-28T14:56:17Z</time>
      </trkpt>
      <trkpt lat="48.65275" lon="7.58073">
        <ele>192.3</ele>
        <time>2020-06-28T14:56:18Z</time>
      </trkpt>
      <trkpt lat="48.65277" lon="7.58067">
        <ele>192.3</ele>
        <time>2020-06-28T14:56:19Z</time>
      </trkpt>
      <trkpt lat="48.65281" lon="7.58062">
        <ele>192.4</ele>
        <time>2020-06-28T14:56:20Z</time>
      </trkpt>
      <trkpt lat="48.65284" lon="7.58056">
        <ele>192.4</ele>
        <time>2020-06-28T14:56:21Z</time>
      </trkpt>
      <trkpt lat="48.65287" lon="7.5805">
        <ele>192.4</ele>
        <time>2020-06-28T14:56:22Z</time>
      </trkpt>
      <trkpt lat="48.6529" lon="7.58045">
        <ele>192.4</ele>
        <time>2020-06-28T14:56:23Z</time>
      </trkpt>
      <trkpt lat="48.65293" lon="7.58039">
        <ele>192.4</ele>
        <time>2020-06-28T14:56:24Z</time>
      </trkpt>
      <trkpt lat="48.65295" lon="7.58032">
        <ele>192.5</ele>
        <time>2020-06-28T14:56:25Z</time>
      </trkpt>
      <trkpt lat="48.65298" lon="7.58025">
        <ele>192.5</ele>
        <time>2020-06-28T14:56:26Z</time>
      </trkpt>
      <trkpt lat="48.65301" lon="7.58019">
        <ele>192.6</ele>
        <time>2020-06-28T14:56:27Z</time>
      </trkpt>
      <trkpt lat="48.65304" lon="7.58013">
        <ele>192.6</ele>
        <time>2020-06-28T14:56:28Z</time>
      </trkpt>
      <trkpt lat="48.65308" lon="7.58007">
        <ele>192.6</ele>
        <time>2020-06-28T14:56:29Z</time>
      </trkpt>
      <trkpt lat="48.65311" lon="7.58001">
        <ele>192.6</ele>
        <time>2020-06-28T14:56:30Z</time>
      </trkpt>
      <trkpt lat="48.65314" lon="7.57996">
        <ele>192.7</ele>
        <time>2020-06-28T14:56:31Z</time>
      </trkpt>
      <trkpt lat="48.65317" lon="7.5799">
        <ele>192.7</ele>
        <time>2020-06-28T14:56:32Z</time>
      </trkpt>
      <trkpt lat="48.6532" lon="7.57983">
        <ele>192.7</ele>
        <time>2020-06-28T14:56:33Z</time>
      </trkpt>
      <trkpt lat="48.65323" lon="7.57976">
        <ele>192.7</ele>
        <time>2020-06-28T14:56:34Z</time>
      </trkpt>
      <trkpt lat="48.65325" lon="7.57969">
        <ele>192.7</ele>
        <time>2020-06-28T14:56:35Z</time>
      </trkpt>
      <trkpt lat="48.65329" lon="7.57963">
        <ele>192.7</ele>
        <time>2020-06-28T14:56:36Z</time>
      </trkpt>
      <trkpt lat="48.65332" lon="7.57956">
        <ele>192.8</ele>
        <time>2020-06-28T14:56:37Z</time>
      </trkpt>
      <trkpt lat="48.65335" lon="7.5795">
        <ele>192.8</ele>
        <time>2020-06-28T14:56:38Z</time>
      </trkpt>
      <trkpt lat="48.65338" lon="7.57943">
        <ele>192.8</ele>
        <time>2020-06-28T14:56:39Z</time>
      </trkpt>
      <trkpt lat="48.65341" lon="7.57938">
        <ele>192.8</ele>
        <time>2020-06-28T14:56:40Z</time>
      </trkpt>
      <trkpt lat="48.65344" lon="7.57931">
        <ele>192.8</ele>
        <time>2020-06-28T14:56:41Z</time>
      </trkpt>
      <trkpt lat="48.65346" lon="7.57926">
        <ele>192.8</ele>
        <time>2020-06-28T14:56:42Z</time>
      </trkpt>
      <trkpt lat="48.65348" lon="7.5792">
        <ele>192.8</ele>
        <time>2020-06-28T14:56:43Z</time>
      </trkpt>
      <trkpt lat="48.65351" lon="7.57915">
        <ele>192.8</ele>
        <time>2020-06-28T14:56:44Z</time>
      </trkpt>
      <trkpt lat="48.65353" lon="7.57909">
        <ele>192.9</ele>
        <time>2020-06-28T14:56:45Z</time>
      </trkpt>
      <trkpt lat="48.65356" lon="7.57902">
        <ele>192.9</ele>
        <time>2020-06-28T14:56:46Z</time>
      </trkpt>
      <trkpt lat="48.65359" lon="7.57896">
        <ele>192.9</ele>
        <time>2020-06-28T14:56:47Z</time>
      </trkpt>
      <trkpt lat="48.65361" lon="7.5789">
        <ele>192.9</ele>
        <time>2020-06-28T14:56:48Z</time>
      </trkpt>
      <trkpt lat="48.65364" lon="7.57884">
        <ele>193</ele>
        <time>2020-06-28T14:56:49Z</time>
      </trkpt>
      <trkpt lat="48.65367" lon="7.57877">
        <ele>193</ele>
        <time>2020-06-28T14:56:50Z</time>
      </trkpt>
      <trkpt lat="48.6537" lon="7.57871">
        <ele>193</ele>
        <time>2020-06-28T14:56:51Z</time>
      </trkpt>
      <trkpt lat="48.65373" lon="7.57865">
        <ele>193</ele>
        <time>2020-06-28T14:56:52Z</time>
      </trkpt>
      <trkpt lat="48.65376" lon="7.57859">
        <ele>193.1</ele>
        <time>2020-06-28T14:56:53Z</time>
      </trkpt>
      <trkpt lat="48.65378" lon="7.57853">
        <ele>193.1</ele>
        <time>2020-06-28T14:56:54Z</time>
      </trkpt>
      <trkpt lat="48.65381" lon="7.57847">
        <ele>193.2</ele>
        <time>2020-06-28T14:56:55Z</time>
      </trkpt>
      <trkpt lat="48.65384" lon="7.57841">
        <ele>193.2</ele>
        <time>2020-06-28T14:56:56Z</time>
      </trkpt>
      <trkpt lat="48.65385" lon="7.57833">
        <ele>193.2</ele>
        <time>2020-06-28T14:56:57Z</time>
      </trkpt>
      <trkpt lat="48.65388" lon="7.57828">
        <ele>193.3</ele>
        <time>2020-06-28T14:56:58Z</time>
      </trkpt>
      <trkpt lat="48.65391" lon="7.57822">
        <ele>193.3</ele>
        <time>2020-06-28T14:56:59Z</time>
      </trkpt>
      <trkpt lat="48.65394" lon="7.57815">
        <ele>193.4</ele>
        <time>2020-06-28T14:57:00Z</time>
      </trkpt>
      <trkpt lat="48.65397" lon="7.5781">
        <ele>193.4</ele>
        <time>2020-06-28T14:57:01Z</time>
      </trkpt>
      <trkpt lat="48.654" lon="7.57803">
        <ele>193.5</ele>
        <time>2020-06-28T14:57:02Z</time>
      </trkpt>
      <trkpt lat="48.65403" lon="7.57797">
        <ele>193.5</ele>
        <time>2020-06-28T14:57:03Z</time>
      </trkpt>
      <trkpt lat="48.65406" lon="7.5779">
        <ele>193.6</ele>
        <time>2020-06-28T14:57:04Z</time>
      </trkpt>
      <trkpt lat="48.65408" lon="7.57784">
        <ele>193.6</ele>
        <time>2020-06-28T14:57:05Z</time>
      </trkpt>
      <trkpt lat="48.6541" lon="7.57777">
        <ele>193.7</ele>
        <time>2020-06-28T14:57:06Z</time>
      </trkpt>
      <trkpt lat="48.65412" lon="7.57771">
        <ele>193.7</ele>
        <time>2020-06-28T14:57:07Z</time>
      </trkpt>
      <trkpt lat="48.65414" lon="7.57765">
        <ele>193.8</ele>
        <time>2020-06-28T14:57:08Z</time>
      </trkpt>
      <trkpt lat="48.65417" lon="7.57759">
        <ele>193.8</ele>
        <time>2020-06-28T14:57:09Z</time>
      </trkpt>
      <trkpt lat="48.65419" lon="7.57752">
        <ele>193.8</ele>
        <time>2020-06-28T14:57:10Z</time>
      </trkpt>
      <trkpt lat="48.65422" lon="7.57746">
        <ele>193.9</ele>
        <time>2020-06-28T14:57:11Z</time>
      </trkpt>
      <trkpt lat="48.65425" lon="7.57741">
        <ele>193.9</ele>
        <time>2020-06-28T14:57:12Z</time>
      </trkpt>
      <trkpt lat="48.65428" lon="7.57735">
        <ele>193.9</ele>
        <time>2020-06-28T14:57:13Z</time>
      </trkpt>
      <trkpt lat="48.65431" lon="7.5773">
        <ele>194</ele>
        <time>2020-06-28T14:57:14Z</time>
      </trkpt>
      <trkpt lat="48.65435" lon="7.57724">
        <ele>194</ele>
        <time>2020-06-28T14:57:15Z</time>
      </trkpt>
      <trkpt lat="48.65438" lon="7.57718">
        <ele>194.1</ele>
        <time>2020-06-28T14:57:16Z</time>
      </trkpt>
      <trkpt lat="48.65441" lon="7.57712">
        <ele>194.1</ele>
        <time>2020-06-28T14:57:17Z</time>
      </trkpt>
      <trkpt lat="48.65444" lon="7.57706">
        <ele>194.2</ele>
        <time>2020-06-28T14:57:18Z</time>
      </trkpt>
      <trkpt lat="48.65446" lon="7.57701">
        <ele>194.2</ele>
        <time>2020-06-28T14:57:19Z</time>
      </trkpt>
      <trkpt lat="48.65449" lon="7.57696">
        <ele>194.2</ele>
        <time>2020-06-28T14:57:20Z</time>
      </trkpt>
      <trkpt lat="48.65451" lon="7.5769">
        <ele>194.2</ele>
        <time>2020-06-28T14:57:21Z</time>
      </trkpt>
      <trkpt lat="48.65454" lon="7.57686">
        <ele>194.3</ele>
        <time>2020-06-28T14:57:22Z</time>
      </trkpt>
      <trkpt lat="48.65458" lon="7.57682">
        <ele>194.3</ele>
        <time>2020-06-28T14:57:23Z</time>
      </trkpt>
      <trkpt lat="48.65461" lon="7.57679">
        <ele>194.4</ele>
        <time>2020-06-28T14:57:24Z</time>
      </trkpt>
      <trkpt lat="48.65464" lon="7.57673">
        <ele>194.4</ele>
        <time>2020-06-28T14:57:25Z</time>
      </trkpt>
      <trkpt lat="48.65467" lon="7.57666">
        <ele>194.5</ele>
        <time>2020-06-28T14:57:26Z</time>
      </trkpt>
      <trkpt lat="48.6547" lon="7.5766">
        <ele>194.5</ele>
        <time>2020-06-28T14:57:27Z</time>
      </trkpt>
      <trkpt lat="48.65473" lon="7.57654">
        <ele>194.5</ele>
        <time>2020-06-28T14:57:28Z</time>
      </trkpt>
      <trkpt lat="48.65476" lon="7.57648">
        <ele>194.6</ele>
        <time>2020-06-28T14:57:29Z</time>
      </trkpt>
      <trkpt lat="48.65478" lon="7.57641">
        <ele>194.6</ele>
        <time>2020-06-28T14:57:30Z</time>
      </trkpt>
      <trkpt lat="48.6548" lon="7.57635">
        <ele>194.7</ele>
        <time>2020-06-28T14:57:31Z</time>
      </trkpt>
      <trkpt lat="48.65483" lon="7.57629">
        <ele>194.7</ele>
        <time>2020-06-28T14:57:32Z</time>
      </trkpt>
      <trkpt lat="48.65484" lon="7.57625">
        <ele>194.7</ele>
        <time>2020-06-28T14:57:33Z</time>
      </trkpt>
      <trkpt lat="48.65487" lon="7.5762">
        <ele>194.7</ele>
        <time>2020-06-28T14:57:34Z</time>
      </trkpt>
      <trkpt lat="48.6549" lon="7.57616">
        <ele>194.8</ele>
        <time>2020-06-28T14:57:35Z</time>
      </trkpt>
      <trkpt lat="48.65493" lon="7.57612">
        <ele>194.8</ele>
        <time>2020-06-28T14:57:36Z</time>
      </trkpt>
      <trkpt lat="48.65498" lon="7.57612">
        <ele>194.8</ele>
        <time>2020-06-28T14:57:37Z</time>
      </trkpt>
      <trkpt lat="48.65503" lon="7.5761">
        <ele>194.8</ele>
        <time>2020-06-28T14:57:38Z</time>
      </trkpt>
      <trkpt lat="48.65506" lon="7.57605">
        <ele>194.9</ele>
        <time>2020-06-28T14:57:39Z</time>
      </trkpt>
      <trkpt lat="48.65509" lon="7.57601">
        <ele>194.9</ele>
        <time>2020-06-28T14:57:40Z</time>
      </trkpt>
      <trkpt lat="48.65511" lon="7.57596">
        <ele>195</ele>
        <time>2020-06-28T14:57:41Z</time>
      </trkpt>
      <trkpt lat="48.65513" lon="7.5759">
        <ele>195</ele>
        <time>2020-06-28T14:57:42Z</time>
      </trkpt>
      <trkpt lat="48.65515" lon="7.57584">
        <ele>195.1</ele>
        <time>2020-06-28T14:57:43Z</time>
      </trkpt>
      <trkpt lat="48.65516" lon="7.57579">
        <ele>195.2</ele>
        <time>2020-06-28T14:57:44Z</time>
      </trkpt>
      <trkpt lat="48.65517" lon="7.57573">
        <ele>195.2</ele>
        <time>2020-06-28T14:57:45Z</time>
      </trkpt>
      <trkpt lat="48.65519" lon="7.57567">
        <ele>195.3</ele>
        <time>2020-06-28T14:57:46Z</time>
      </trkpt>
      <trkpt lat="48.6552" lon="7.57561">
        <ele>195.4</ele>
        <time>2020-06-28T14:57:47Z</time>
      </trkpt>
      <trkpt lat="48.65522" lon="7.57555">
        <ele>195.5</ele>
        <time>2020-06-28T14:57:48Z</time>
      </trkpt>
      <trkpt lat="48.65523" lon="7.57549">
        <ele>195.6</ele>
        <time>2020-06-28T14:57:49Z</time>
      </trkpt>
      <trkpt lat="48.65525" lon="7.57543">
        <ele>195.7</ele>
        <time>2020-06-28T14:57:50Z</time>
      </trkpt>
      <trkpt lat="48.65526" lon="7.57537">
        <ele>195.8</ele>
        <time>2020-06-28T14:57:51Z</time>
      </trkpt>
      <trkpt lat="48.65528" lon="7.57532">
        <ele>195.9</ele>
        <time>2020-06-28T14:57:52Z</time>
      </trkpt>
      <trkpt lat="48.6553" lon="7.57526">
        <ele>195.9</ele>
        <time>2020-06-28T14:57:53Z</time>
      </trkpt>
      <trkpt lat="48.65533" lon="7.57521">
        <ele>196</ele>
        <time>2020-06-28T14:57:54Z</time>
      </trkpt>
      <trkpt lat="48.65535" lon="7.57516">
        <ele>196</ele>
        <time>2020-06-28T14:57:55Z</time>
      </trkpt>
      <trkpt lat="48.65538" lon="7.57511">
        <ele>196.1</ele>
        <time>2020-06-28T14:57:56Z</time>
      </trkpt>
      <trkpt lat="48.65541" lon="7.57506">
        <ele>196.2</ele>
        <time>2020-06-28T14:57:57Z</time>
      </trkpt>
      <trkpt lat="48.65544" lon="7.57501">
        <ele>196.2</ele>
        <time>2020-06-28T14:57:58Z</time>
      </trkpt>
      <trkpt lat="48.65546" lon="7.57495">
        <ele>196.3</ele>
        <time>2020-06-28T14:57:59Z</time>
      </trkpt>
      <trkpt lat="48.65548" lon="7.57489">
        <ele>196.4</ele>
        <time>2020-06-28T14:58:00Z</time>
      </trkpt>
      <trkpt lat="48.65551" lon="7.57483">
        <ele>196.4</ele>
        <time>2020-06-28T14:58:01Z</time>
      </trkpt>
      <trkpt lat="48.65553" lon="7.57477">
        <ele>196.4</ele>
        <time>2020-06-28T14:58:02Z</time>
      </trkpt>
      <trkpt lat="48.65555" lon="7.57473">
        <ele>196.5</ele>
        <time>2020-06-28T14:58:03Z</time>
      </trkpt>
      <trkpt lat="48.65558" lon="7.57468">
        <ele>196.5</ele>
        <time>2020-06-28T14:58:04Z</time>
      </trkpt>
      <trkpt lat="48.6556" lon="7.57462">
        <ele>196.6</ele>
        <time>2020-06-28T14:58:05Z</time>
      </trkpt>
      <trkpt lat="48.65563" lon="7.57458">
        <ele>196.6</ele>
        <time>2020-06-28T14:58:06Z</time>
      </trkpt>
      <trkpt lat="48.65565" lon="7.57453">
        <ele>196.7</ele>
        <time>2020-06-28T14:58:07Z</time>
      </trkpt>
      <trkpt lat="48.65568" lon="7.57448">
        <ele>196.8</ele>
        <time>2020-06-28T14:58:08Z</time>
      </trkpt>
      <trkpt lat="48.65571" lon="7.57443">
        <ele>196.9</ele>
        <time>2020-06-28T14:58:09Z</time>
      </trkpt>
      <trkpt lat="48.65573" lon="7.57439">
        <ele>196.9</ele>
        <time>2020-06-28T14:58:10Z</time>
      </trkpt>
      <trkpt lat="48.65575" lon="7.57434">
        <ele>197</ele>
        <time>2020-06-28T14:58:11Z</time>
      </trkpt>
      <trkpt lat="48.65578" lon="7.57429">
        <ele>197.1</ele>
        <time>2020-06-28T14:58:12Z</time>
      </trkpt>
      <trkpt lat="48.6558" lon="7.57425">
        <ele>197.2</ele>
        <time>2020-06-28T14:58:13Z</time>
      </trkpt>
      <trkpt lat="48.65583" lon="7.57419">
        <ele>197.2</ele>
        <time>2020-06-28T14:58:14Z</time>
      </trkpt>
      <trkpt lat="48.65585" lon="7.57414">
        <ele>197.3</ele>
        <time>2020-06-28T14:58:15Z</time>
      </trkpt>
      <trkpt lat="48.65587" lon="7.57408">
        <ele>197.4</ele>
        <time>2020-06-28T14:58:16Z</time>
      </trkpt>
      <trkpt lat="48.6559" lon="7.57404">
        <ele>197.4</ele>
        <time>2020-06-28T14:58:17Z</time>
      </trkpt>
      <trkpt lat="48.65592" lon="7.57398">
        <ele>197.5</ele>
        <time>2020-06-28T14:58:18Z</time>
      </trkpt>
      <trkpt lat="48.65594" lon="7.57392">
        <ele>197.6</ele>
        <time>2020-06-28T14:58:19Z</time>
      </trkpt>
      <trkpt lat="48.65596" lon="7.57387">
        <ele>197.6</ele>
        <time>2020-06-28T14:58:20Z</time>
      </trkpt>
      <trkpt lat="48.65599" lon="7.57382">
        <ele>197.7</ele>
        <time>2020-06-28T14:58:21Z</time>
      </trkpt>
      <trkpt lat="48.65602" lon="7.57377">
        <ele>197.7</ele>
        <time>2020-06-28T14:58:22Z</time>
      </trkpt>
      <trkpt lat="48.65604" lon="7.57371">
        <ele>197.7</ele>
        <time>2020-06-28T14:58:23Z</time>
      </trkpt>
      <trkpt lat="48.65606" lon="7.57366">
        <ele>197.7</ele>
        <time>2020-06-28T14:58:24Z</time>
      </trkpt>
      <trkpt lat="48.65608" lon="7.57362">
        <ele>197.7</ele>
        <time>2020-06-28T14:58:25Z</time>
      </trkpt>
      <trkpt lat="48.65609" lon="7.57358">
        <ele>197.7</ele>
        <time>2020-06-28T14:58:26Z</time>
      </trkpt>
      <trkpt lat="48.6561" lon="7.57354">
        <ele>197.7</ele>
        <time>2020-06-28T14:58:27Z</time>
      </trkpt>
      <trkpt lat="48.65612" lon="7.57349">
        <ele>197.7</ele>
        <time>2020-06-28T14:58:28Z</time>
      </trkpt>
      <trkpt lat="48.65615" lon="7.57344">
        <ele>197.7</ele>
        <time>2020-06-28T14:58:29Z</time>
      </trkpt>
      <trkpt lat="48.65617" lon="7.57339">
        <ele>197.7</ele>
        <time>2020-06-28T14:58:30Z</time>
      </trkpt>
      <trkpt lat="48.65619" lon="7.57334">
        <ele>197.7</ele>
        <time>2020-06-28T14:58:31Z</time>
      </trkpt>
      <trkpt lat="48.65621" lon="7.57329">
        <ele>197.7</ele>
        <time>2020-06-28T14:58:32Z</time>
      </trkpt>
      <trkpt lat="48.65623" lon="7.57324">
        <ele>197.7</ele>
        <time>2020-06-28T14:58:33Z</time>
      </trkpt>
      <trkpt lat="48.65625" lon="7.57318">
        <ele>197.7</ele>
        <time>2020-06-28T14:58:34Z</time>
      </trkpt>
      <trkpt lat="48.65628" lon="7.57312">
        <ele>197.7</ele>
        <time>2020-06-28T14:58:35Z</time>
      </trkpt>
      <trkpt lat="48.6563" lon="7.57306">
        <ele>197.7</ele>
        <time>2020-06-28T14:58:36Z</time>
      </trkpt>
      <trkpt lat="48.65633" lon="7.57301">
        <ele>197.7</ele>
        <time>2020-06-28T14:58:37Z</time>
      </trkpt>
      <trkpt lat="48.65636" lon="7.57295">
        <ele>197.7</ele>
        <time>2020-06-28T14:58:38Z</time>
      </trkpt>
      <trkpt lat="48.65638" lon="7.57289">
        <ele>197.7</ele>
        <time>2020-06-28T14:58:39Z</time>
      </trkpt>
      <trkpt lat="48.65641" lon="7.57284">
        <ele>197.7</ele>
        <time>2020-06-28T14:58:40Z</time>
      </trkpt>
      <trkpt lat="48.65643" lon="7.57279">
        <ele>197.7</ele>
        <time>2020-06-28T14:58:41Z</time>
      </trkpt>
      <trkpt lat="48.65646" lon="7.57274">
        <ele>197.7</ele>
        <time>2020-06-28T14:58:42Z</time>
      </trkpt>
      <trkpt lat="48.65648" lon="7.57269">
        <ele>197.7</ele>
        <time>2020-06-28T14:58:43Z</time>
      </trkpt>
      <trkpt lat="48.65651" lon="7.57264">
        <ele>197.7</ele>
        <time>2020-06-28T14:58:44Z</time>
      </trkpt>
      <trkpt lat="48.65654" lon="7.57258">
        <ele>197.7</ele>
        <time>2020-06-28T14:58:45Z</time>
      </trkpt>
      <trkpt lat="48.65657" lon="7.57252">
        <ele>197.8</ele>
        <time>2020-06-28T14:58:46Z</time>
      </trkpt>
      <trkpt lat="48.6566" lon="7.57246">
        <ele>197.8</ele>
        <time>2020-06-28T14:58:47Z</time>
      </trkpt>
      <trkpt lat="48.65664" lon="7.57241">
        <ele>197.8</ele>
        <time>2020-06-28T14:58:48Z</time>
      </trkpt>
      <trkpt lat="48.65667" lon="7.57236">
        <ele>197.8</ele>
        <time>2020-06-28T14:58:49Z</time>
      </trkpt>
      <trkpt lat="48.6567" lon="7.5723">
        <ele>197.8</ele>
        <time>2020-06-28T14:58:50Z</time>
      </trkpt>
      <trkpt lat="48.65671" lon="7.57225">
        <ele>197.9</ele>
        <time>2020-06-28T14:58:51Z</time>
      </trkpt>
      <trkpt lat="48.65673" lon="7.57221">
        <ele>197.9</ele>
        <time>2020-06-28T14:58:52Z</time>
      </trkpt>
      <trkpt lat="48.65674" lon="7.57217">
        <ele>197.9</ele>
        <time>2020-06-28T14:58:53Z</time>
      </trkpt>
      <trkpt lat="48.65676" lon="7.57214">
        <ele>197.9</ele>
        <time>2020-06-28T14:58:54Z</time>
      </trkpt>
      <trkpt lat="48.65678" lon="7.57209">
        <ele>197.9</ele>
        <time>2020-06-28T14:58:55Z</time>
      </trkpt>
      <trkpt lat="48.65681" lon="7.57204">
        <ele>197.9</ele>
        <time>2020-06-28T14:58:56Z</time>
      </trkpt>
      <trkpt lat="48.65684" lon="7.57195">
        <ele>197.9</ele>
        <time>2020-06-28T14:58:57Z</time>
      </trkpt>
      <trkpt lat="48.65685" lon="7.57187">
        <ele>197.9</ele>
        <time>2020-06-28T14:58:58Z</time>
      </trkpt>
      <trkpt lat="48.65687" lon="7.57179">
        <ele>197.9</ele>
        <time>2020-06-28T14:58:59Z</time>
      </trkpt>
      <trkpt lat="48.6569" lon="7.5717">
        <ele>197.9</ele>
        <time>2020-06-28T14:59:00Z</time>
      </trkpt>
      <trkpt lat="48.65693" lon="7.57163">
        <ele>197.8</ele>
        <time>2020-06-28T14:59:01Z</time>
      </trkpt>
      <trkpt lat="48.65696" lon="7.57155">
        <ele>197.8</ele>
        <time>2020-06-28T14:59:02Z</time>
      </trkpt>
      <trkpt lat="48.657" lon="7.57149">
        <ele>197.8</ele>
        <time>2020-06-28T14:59:03Z</time>
      </trkpt>
      <trkpt lat="48.65703" lon="7.5714">
        <ele>197.9</ele>
        <time>2020-06-28T14:59:04Z</time>
      </trkpt>
      <trkpt lat="48.65707" lon="7.57134">
        <ele>197.9</ele>
        <time>2020-06-28T14:59:05Z</time>
      </trkpt>
      <trkpt lat="48.65709" lon="7.57127">
        <ele>197.9</ele>
        <time>2020-06-28T14:59:06Z</time>
      </trkpt>
      <trkpt lat="48.65714" lon="7.57121">
        <ele>197.9</ele>
        <time>2020-06-28T14:59:07Z</time>
      </trkpt>
      <trkpt lat="48.65717" lon="7.57116">
        <ele>198</ele>
        <time>2020-06-28T14:59:08Z</time>
      </trkpt>
      <trkpt lat="48.65721" lon="7.5711">
        <ele>197.9</ele>
        <time>2020-06-28T14:59:09Z</time>
      </trkpt>
      <trkpt lat="48.65724" lon="7.57106">
        <ele>197.9</ele>
        <time>2020-06-28T14:59:10Z</time>
      </trkpt>
      <trkpt lat="48.65727" lon="7.57101">
        <ele>197.9</ele>
        <time>2020-06-28T14:59:11Z</time>
      </trkpt>
      <trkpt lat="48.65729" lon="7.57095">
        <ele>197.9</ele>
        <time>2020-06-28T14:59:12Z</time>
      </trkpt>
      <trkpt lat="48.65733" lon="7.57089">
        <ele>197.9</ele>
        <time>2020-06-28T14:59:13Z</time>
      </trkpt>
      <trkpt lat="48.65735" lon="7.57087">
        <ele>197.9</ele>
        <time>2020-06-28T14:59:14Z</time>
      </trkpt>
      <trkpt lat="48.65739" lon="7.57083">
        <ele>197.9</ele>
        <time>2020-06-28T14:59:15Z</time>
      </trkpt>
      <trkpt lat="48.65742" lon="7.57079">
        <ele>197.9</ele>
        <time>2020-06-28T14:59:16Z</time>
      </trkpt>
      <trkpt lat="48.65746" lon="7.57074">
        <ele>198</ele>
        <time>2020-06-28T14:59:17Z</time>
      </trkpt>
      <trkpt lat="48.6575" lon="7.57069">
        <ele>198</ele>
        <time>2020-06-28T14:59:18Z</time>
      </trkpt>
      <trkpt lat="48.65753" lon="7.57064">
        <ele>198</ele>
        <time>2020-06-28T14:59:19Z</time>
      </trkpt>
      <trkpt lat="48.65756" lon="7.5706">
        <ele>198</ele>
        <time>2020-06-28T14:59:20Z</time>
      </trkpt>
      <trkpt lat="48.6576" lon="7.57055">
        <ele>198</ele>
        <time>2020-06-28T14:59:21Z</time>
      </trkpt>
      <trkpt lat="48.65764" lon="7.5705">
        <ele>198</ele>
        <time>2020-06-28T14:59:22Z</time>
      </trkpt>
      <trkpt lat="48.65767" lon="7.57046">
        <ele>198.3</ele>
        <time>2020-06-28T14:59:23Z</time>
      </trkpt>
      <trkpt lat="48.65772" lon="7.57042">
        <ele>198.5</ele>
        <time>2020-06-28T14:59:24Z</time>
      </trkpt>
      <trkpt lat="48.65775" lon="7.57037">
        <ele>198.6</ele>
        <time>2020-06-28T14:59:25Z</time>
      </trkpt>
      <trkpt lat="48.65779" lon="7.57033">
        <ele>198.7</ele>
        <time>2020-06-28T14:59:26Z</time>
      </trkpt>
      <trkpt lat="48.65782" lon="7.57029">
        <ele>198.8</ele>
        <time>2020-06-28T14:59:27Z</time>
      </trkpt>
      <trkpt lat="48.65784" lon="7.57022">
        <ele>199</ele>
        <time>2020-06-28T14:59:28Z</time>
      </trkpt>
      <trkpt lat="48.65786" lon="7.57016">
        <ele>199.1</ele>
        <time>2020-06-28T14:59:29Z</time>
      </trkpt>
      <trkpt lat="48.6579" lon="7.57011">
        <ele>199.2</ele>
        <time>2020-06-28T14:59:30Z</time>
      </trkpt>
      <trkpt lat="48.65793" lon="7.57006">
        <ele>199.4</ele>
        <time>2020-06-28T14:59:31Z</time>
      </trkpt>
      <trkpt lat="48.65795" lon="7.57">
        <ele>199.5</ele>
        <time>2020-06-28T14:59:32Z</time>
      </trkpt>
      <trkpt lat="48.65798" lon="7.56997">
        <ele>199.9</ele>
        <time>2020-06-28T14:59:33Z</time>
      </trkpt>
      <trkpt lat="48.65801" lon="7.56992">
        <ele>199.9</ele>
        <time>2020-06-28T14:59:34Z</time>
      </trkpt>
      <trkpt lat="48.65801" lon="7.56985">
        <ele>199.9</ele>
        <time>2020-06-28T14:59:35Z</time>
      </trkpt>
      <trkpt lat="48.65804" lon="7.56978">
        <ele>199.9</ele>
        <time>2020-06-28T14:59:36Z</time>
      </trkpt>
      <trkpt lat="48.65805" lon="7.56971">
        <ele>199.8</ele>
        <time>2020-06-28T14:59:37Z</time>
      </trkpt>
      <trkpt lat="48.65807" lon="7.56967">
        <ele>199.8</ele>
        <time>2020-06-28T14:59:38Z</time>
      </trkpt>
      <trkpt lat="48.65808" lon="7.56961">
        <ele>199.8</ele>
        <time>2020-06-28T14:59:39Z</time>
      </trkpt>
      <trkpt lat="48.6581" lon="7.56954">
        <ele>199.8</ele>
        <time>2020-06-28T14:59:40Z</time>
      </trkpt>
      <trkpt lat="48.65811" lon="7.56944">
        <ele>199.7</ele>
        <time>2020-06-28T14:59:41Z</time>
      </trkpt>
      <trkpt lat="48.65812" lon="7.56935">
        <ele>199.7</ele>
        <time>2020-06-28T14:59:42Z</time>
      </trkpt>
      <trkpt lat="48.65812" lon="7.56926">
        <ele>199.7</ele>
        <time>2020-06-28T14:59:43Z</time>
      </trkpt>
      <trkpt lat="48.65813" lon="7.56917">
        <ele>199.7</ele>
        <time>2020-06-28T14:59:44Z</time>
      </trkpt>
      <trkpt lat="48.65813" lon="7.56909">
        <ele>199.7</ele>
        <time>2020-06-28T14:59:45Z</time>
      </trkpt>
      <trkpt lat="48.65813" lon="7.56902">
        <ele>199.7</ele>
        <time>2020-06-28T14:59:46Z</time>
      </trkpt>
      <trkpt lat="48.65813" lon="7.56892">
        <ele>199.7</ele>
        <time>2020-06-28T14:59:47Z</time>
      </trkpt>
      <trkpt lat="48.65812" lon="7.56884">
        <ele>199.7</ele>
        <time>2020-06-28T14:59:48Z</time>
      </trkpt>
      <trkpt lat="48.65813" lon="7.56878">
        <ele>199.7</ele>
        <time>2020-06-28T14:59:49Z</time>
      </trkpt>
      <trkpt lat="48.65813" lon="7.56871">
        <ele>199.7</ele>
        <time>2020-06-28T14:59:50Z</time>
      </trkpt>
      <trkpt lat="48.65812" lon="7.56863">
        <ele>199.8</ele>
        <time>2020-06-28T14:59:51Z</time>
      </trkpt>
      <trkpt lat="48.65812" lon="7.56856">
        <ele>199.8</ele>
        <time>2020-06-28T14:59:52Z</time>
      </trkpt>
      <trkpt lat="48.65812" lon="7.56847">
        <ele>199.8</ele>
        <time>2020-06-28T14:59:53Z</time>
      </trkpt>
      <trkpt lat="48.65812" lon="7.56838">
        <ele>199.8</ele>
        <time>2020-06-28T14:59:54Z</time>
      </trkpt>
      <trkpt lat="48.65811" lon="7.56828">
        <ele>199.9</ele>
        <time>2020-06-28T14:59:55Z</time>
      </trkpt>
      <trkpt lat="48.65812" lon="7.56821">
        <ele>199.9</ele>
        <time>2020-06-28T14:59:56Z</time>
      </trkpt>
      <trkpt lat="48.65811" lon="7.56811">
        <ele>199.9</ele>
        <time>2020-06-28T14:59:57Z</time>
      </trkpt>
      <trkpt lat="48.65811" lon="7.56803">
        <ele>199.9</ele>
        <time>2020-06-28T14:59:58Z</time>
      </trkpt>
      <trkpt lat="48.65812" lon="7.56796">
        <ele>200</ele>
        <time>2020-06-28T14:59:59Z</time>
      </trkpt>
      <trkpt lat="48.65811" lon="7.56787">
        <ele>200</ele>
        <time>2020-06-28T15:00:00Z</time>
      </trkpt>
      <trkpt lat="48.65811" lon="7.56779">
        <ele>200</ele>
        <time>2020-06-28T15:00:01Z</time>
      </trkpt>
      <trkpt lat="48.65811" lon="7.56771">
        <ele>200</ele>
        <time>2020-06-28T15:00:02Z</time>
      </trkpt>
      <trkpt lat="48.65811" lon="7.56763">
        <ele>200</ele>
        <time>2020-06-28T15:00:03Z</time>
      </trkpt>
      <trkpt lat="48.6581" lon="7.56755">
        <ele>200.1</ele>
        <time>2020-06-28T15:00:04Z</time>
      </trkpt>
      <trkpt lat="48.6581" lon="7.56747">
        <ele>200.1</ele>
        <time>2020-06-28T15:00:05Z</time>
      </trkpt>
      <trkpt lat="48.6581" lon="7.56739">
        <ele>200.2</ele>
        <time>2020-06-28T15:00:06Z</time>
      </trkpt>
      <trkpt lat="48.6581" lon="7.5673">
        <ele>200.2</ele>
        <time>2020-06-28T15:00:07Z</time>
      </trkpt>
      <trkpt lat="48.65809" lon="7.56721">
        <ele>200.3</ele>
        <time>2020-06-28T15:00:08Z</time>
      </trkpt>
      <trkpt lat="48.65809" lon="7.56713">
        <ele>200.3</ele>
        <time>2020-06-28T15:00:09Z</time>
      </trkpt>
      <trkpt lat="48.65808" lon="7.56704">
        <ele>200.4</ele>
        <time>2020-06-28T15:00:10Z</time>
      </trkpt>
      <trkpt lat="48.65808" lon="7.56696">
        <ele>200.5</ele>
        <time>2020-06-28T15:00:11Z</time>
      </trkpt>
      <trkpt lat="48.65809" lon="7.5669">
        <ele>200.5</ele>
        <time>2020-06-28T15:00:12Z</time>
      </trkpt>
      <trkpt lat="48.65807" lon="7.56681">
        <ele>200.6</ele>
        <time>2020-06-28T15:00:13Z</time>
      </trkpt>
      <trkpt lat="48.65807" lon="7.56673">
        <ele>200.6</ele>
        <time>2020-06-28T15:00:14Z</time>
      </trkpt>
      <trkpt lat="48.65807" lon="7.56665">
        <ele>200.7</ele>
        <time>2020-06-28T15:00:15Z</time>
      </trkpt>
      <trkpt lat="48.65806" lon="7.56657">
        <ele>200.7</ele>
        <time>2020-06-28T15:00:16Z</time>
      </trkpt>
      <trkpt lat="48.65806" lon="7.5665">
        <ele>200.8</ele>
        <time>2020-06-28T15:00:17Z</time>
      </trkpt>
      <trkpt lat="48.65806" lon="7.56641">
        <ele>200.9</ele>
        <time>2020-06-28T15:00:18Z</time>
      </trkpt>
      <trkpt lat="48.65805" lon="7.56631">
        <ele>201</ele>
        <time>2020-06-28T15:00:19Z</time>
      </trkpt>
      <trkpt lat="48.65805" lon="7.56623">
        <ele>201.1</ele>
        <time>2020-06-28T15:00:20Z</time>
      </trkpt>
      <trkpt lat="48.65804" lon="7.56615">
        <ele>201.2</ele>
        <time>2020-06-28T15:00:21Z</time>
      </trkpt>
      <trkpt lat="48.65804" lon="7.56607">
        <ele>201.3</ele>
        <time>2020-06-28T15:00:22Z</time>
      </trkpt>
      <trkpt lat="48.65804" lon="7.566">
        <ele>201.3</ele>
        <time>2020-06-28T15:00:23Z</time>
      </trkpt>
      <trkpt lat="48.65803" lon="7.56591">
        <ele>201.3</ele>
        <time>2020-06-28T15:00:24Z</time>
      </trkpt>
      <trkpt lat="48.65803" lon="7.56584">
        <ele>201.4</ele>
        <time>2020-06-28T15:00:25Z</time>
      </trkpt>
      <trkpt lat="48.65802" lon="7.56577">
        <ele>201.4</ele>
        <time>2020-06-28T15:00:26Z</time>
      </trkpt>
      <trkpt lat="48.65801" lon="7.56569">
        <ele>201.4</ele>
        <time>2020-06-28T15:00:27Z</time>
      </trkpt>
      <trkpt lat="48.65801" lon="7.56562">
        <ele>201.5</ele>
        <time>2020-06-28T15:00:28Z</time>
      </trkpt>
      <trkpt lat="48.65799" lon="7.56551">
        <ele>201.6</ele>
        <time>2020-06-28T15:00:29Z</time>
      </trkpt>
      <trkpt lat="48.65798" lon="7.56542">
        <ele>201.6</ele>
        <time>2020-06-28T15:00:30Z</time>
      </trkpt>
      <trkpt lat="48.65798" lon="7.56536">
        <ele>201.7</ele>
        <time>2020-06-28T15:00:31Z</time>
      </trkpt>
      <trkpt lat="48.65799" lon="7.56529">
        <ele>201.7</ele>
        <time>2020-06-28T15:00:32Z</time>
      </trkpt>
      <trkpt lat="48.65797" lon="7.56518">
        <ele>201.8</ele>
        <time>2020-06-28T15:00:33Z</time>
      </trkpt>
      <trkpt lat="48.65797" lon="7.5651">
        <ele>201.9</ele>
        <time>2020-06-28T15:00:34Z</time>
      </trkpt>
      <trkpt lat="48.65795" lon="7.56501">
        <ele>202</ele>
        <time>2020-06-28T15:00:35Z</time>
      </trkpt>
      <trkpt lat="48.65795" lon="7.56493">
        <ele>202.1</ele>
        <time>2020-06-28T15:00:36Z</time>
      </trkpt>
      <trkpt lat="48.65795" lon="7.56486">
        <ele>202.2</ele>
        <time>2020-06-28T15:00:37Z</time>
      </trkpt>
      <trkpt lat="48.65796" lon="7.5648">
        <ele>202.3</ele>
        <time>2020-06-28T15:00:38Z</time>
      </trkpt>
      <trkpt lat="48.65795" lon="7.56473">
        <ele>202.5</ele>
        <time>2020-06-28T15:00:39Z</time>
      </trkpt>
      <trkpt lat="48.65795" lon="7.56464">
        <ele>202.6</ele>
        <time>2020-06-28T15:00:40Z</time>
      </trkpt>
      <trkpt lat="48.65793" lon="7.56455">
        <ele>202.8</ele>
        <time>2020-06-28T15:00:41Z</time>
      </trkpt>
      <trkpt lat="48.65794" lon="7.56447">
        <ele>203</ele>
        <time>2020-06-28T15:00:42Z</time>
      </trkpt>
      <trkpt lat="48.65794" lon="7.56439">
        <ele>203.1</ele>
        <time>2020-06-28T15:00:43Z</time>
      </trkpt>
      <trkpt lat="48.65795" lon="7.56433">
        <ele>203.2</ele>
        <time>2020-06-28T15:00:44Z</time>
      </trkpt>
      <trkpt lat="48.65796" lon="7.56426">
        <ele>203.4</ele>
        <time>2020-06-28T15:00:45Z</time>
      </trkpt>
      <trkpt lat="48.65798" lon="7.56419">
        <ele>203.5</ele>
        <time>2020-06-28T15:00:46Z</time>
      </trkpt>
      <trkpt lat="48.65801" lon="7.56412">
        <ele>203.7</ele>
        <time>2020-06-28T15:00:47Z</time>
      </trkpt>
      <trkpt lat="48.65804" lon="7.56406">
        <ele>203.8</ele>
        <time>2020-06-28T15:00:48Z</time>
      </trkpt>
      <trkpt lat="48.65808" lon="7.56401">
        <ele>204</ele>
        <time>2020-06-28T15:00:49Z</time>
      </trkpt>
      <trkpt lat="48.65811" lon="7.56396">
        <ele>204.1</ele>
        <time>2020-06-28T15:00:50Z</time>
      </trkpt>
      <trkpt lat="48.65813" lon="7.5639">
        <ele>204.2</ele>
        <time>2020-06-28T15:00:51Z</time>
      </trkpt>
      <trkpt lat="48.65816" lon="7.56386">
        <ele>204.3</ele>
        <time>2020-06-28T15:00:52Z</time>
      </trkpt>
      <trkpt lat="48.65819" lon="7.56381">
        <ele>204.3</ele>
        <time>2020-06-28T15:00:53Z</time>
      </trkpt>
      <trkpt lat="48.65823" lon="7.56375">
        <ele>204.4</ele>
        <time>2020-06-28T15:00:54Z</time>
      </trkpt>
      <trkpt lat="48.65827" lon="7.56371">
        <ele>204.5</ele>
        <time>2020-06-28T15:00:55Z</time>
      </trkpt>
      <trkpt lat="48.65831" lon="7.56369">
        <ele>204.5</ele>
        <time>2020-06-28T15:00:56Z</time>
      </trkpt>
      <trkpt lat="48.65835" lon="7.56365">
        <ele>204.6</ele>
        <time>2020-06-28T15:00:57Z</time>
      </trkpt>
      <trkpt lat="48.65839" lon="7.56362">
        <ele>204.6</ele>
        <time>2020-06-28T15:00:58Z</time>
      </trkpt>
      <trkpt lat="48.65843" lon="7.56358">
        <ele>204.7</ele>
        <time>2020-06-28T15:00:59Z</time>
      </trkpt>
      <trkpt lat="48.65847" lon="7.56355">
        <ele>204.7</ele>
        <time>2020-06-28T15:01:00Z</time>
      </trkpt>
      <trkpt lat="48.65852" lon="7.56353">
        <ele>204.7</ele>
        <time>2020-06-28T15:01:01Z</time>
      </trkpt>
      <trkpt lat="48.65856" lon="7.56349">
        <ele>204.8</ele>
        <time>2020-06-28T15:01:02Z</time>
      </trkpt>
      <trkpt lat="48.65861" lon="7.56346">
        <ele>204.8</ele>
        <time>2020-06-28T15:01:03Z</time>
      </trkpt>
      <trkpt lat="48.65866" lon="7.56343">
        <ele>204.8</ele>
        <time>2020-06-28T15:01:04Z</time>
      </trkpt>
      <trkpt lat="48.65869" lon="7.56339">
        <ele>204.8</ele>
        <time>2020-06-28T15:01:05Z</time>
      </trkpt>
      <trkpt lat="48.65873" lon="7.56333">
        <ele>204.8</ele>
        <time>2020-06-28T15:01:06Z</time>
      </trkpt>
      <trkpt lat="48.65876" lon="7.56329">
        <ele>204.9</ele>
        <time>2020-06-28T15:01:07Z</time>
      </trkpt>
      <trkpt lat="48.65879" lon="7.56323">
        <ele>204.9</ele>
        <time>2020-06-28T15:01:08Z</time>
      </trkpt>
      <trkpt lat="48.65883" lon="7.56318">
        <ele>204.9</ele>
        <time>2020-06-28T15:01:09Z</time>
      </trkpt>
      <trkpt lat="48.65887" lon="7.56313">
        <ele>205</ele>
        <time>2020-06-28T15:01:10Z</time>
      </trkpt>
      <trkpt lat="48.65892" lon="7.56308">
        <ele>205</ele>
        <time>2020-06-28T15:01:11Z</time>
      </trkpt>
      <trkpt lat="48.65896" lon="7.56305">
        <ele>205.1</ele>
        <time>2020-06-28T15:01:12Z</time>
      </trkpt>
      <trkpt lat="48.659" lon="7.56301">
        <ele>205.1</ele>
        <time>2020-06-28T15:01:13Z</time>
      </trkpt>
      <trkpt lat="48.65903" lon="7.56295">
        <ele>205.2</ele>
        <time>2020-06-28T15:01:14Z</time>
      </trkpt>
      <trkpt lat="48.65907" lon="7.5629">
        <ele>205.2</ele>
        <time>2020-06-28T15:01:15Z</time>
      </trkpt>
      <trkpt lat="48.65911" lon="7.56285">
        <ele>205.3</ele>
        <time>2020-06-28T15:01:16Z</time>
      </trkpt>
      <trkpt lat="48.65915" lon="7.5628">
        <ele>205.3</ele>
        <time>2020-06-28T15:01:17Z</time>
      </trkpt>
      <trkpt lat="48.65919" lon="7.56276">
        <ele>205.3</ele>
        <time>2020-06-28T15:01:18Z</time>
      </trkpt>
      <trkpt lat="48.65923" lon="7.56272">
        <ele>205.3</ele>
        <time>2020-06-28T15:01:19Z</time>
      </trkpt>
      <trkpt lat="48.65928" lon="7.56268">
        <ele>205.4</ele>
        <time>2020-06-28T15:01:20Z</time>
      </trkpt>
      <trkpt lat="48.65934" lon="7.56265">
        <ele>205.4</ele>
        <time>2020-06-28T15:01:21Z</time>
      </trkpt>
      <trkpt lat="48.65939" lon="7.56262">
        <ele>205.5</ele>
        <time>2020-06-28T15:01:22Z</time>
      </trkpt>
      <trkpt lat="48.65944" lon="7.56258">
        <ele>205.5</ele>
        <time>2020-06-28T15:01:23Z</time>
      </trkpt>
      <trkpt lat="48.65948" lon="7.56256">
        <ele>205.6</ele>
        <time>2020-06-28T15:01:24Z</time>
      </trkpt>
      <trkpt lat="48.65953" lon="7.56253">
        <ele>205.6</ele>
        <time>2020-06-28T15:01:25Z</time>
      </trkpt>
      <trkpt lat="48.65956" lon="7.56251">
        <ele>205.6</ele>
        <time>2020-06-28T15:01:26Z</time>
      </trkpt>
      <trkpt lat="48.6596" lon="7.56246">
        <ele>205.7</ele>
        <time>2020-06-28T15:01:27Z</time>
      </trkpt>
      <trkpt lat="48.65964" lon="7.56243">
        <ele>205.7</ele>
        <time>2020-06-28T15:01:28Z</time>
      </trkpt>
      <trkpt lat="48.65969" lon="7.56237">
        <ele>205.8</ele>
        <time>2020-06-28T15:01:29Z</time>
      </trkpt>
      <trkpt lat="48.65973" lon="7.56232">
        <ele>205.8</ele>
        <time>2020-06-28T15:01:30Z</time>
      </trkpt>
      <trkpt lat="48.65976" lon="7.56227">
        <ele>205.8</ele>
        <time>2020-06-28T15:01:31Z</time>
      </trkpt>
      <trkpt lat="48.6598" lon="7.56224">
        <ele>205.9</ele>
        <time>2020-06-28T15:01:32Z</time>
      </trkpt>
      <trkpt lat="48.65983" lon="7.56219">
        <ele>205.9</ele>
        <time>2020-06-28T15:01:33Z</time>
      </trkpt>
      <trkpt lat="48.65987" lon="7.56214">
        <ele>206</ele>
        <time>2020-06-28T15:01:34Z</time>
      </trkpt>
      <trkpt lat="48.65991" lon="7.56211">
        <ele>206</ele>
        <time>2020-06-28T15:01:35Z</time>
      </trkpt>
      <trkpt lat="48.65994" lon="7.56204">
        <ele>206.1</ele>
        <time>2020-06-28T15:01:36Z</time>
      </trkpt>
      <trkpt lat="48.65997" lon="7.56199">
        <ele>206.1</ele>
        <time>2020-06-28T15:01:37Z</time>
      </trkpt>
      <trkpt lat="48.66001" lon="7.56196">
        <ele>206.1</ele>
        <time>2020-06-28T15:01:38Z</time>
      </trkpt>
      <trkpt lat="48.66004" lon="7.56193">
        <ele>206.2</ele>
        <time>2020-06-28T15:01:39Z</time>
      </trkpt>
      <trkpt lat="48.66008" lon="7.56188">
        <ele>206.2</ele>
        <time>2020-06-28T15:01:40Z</time>
      </trkpt>
      <trkpt lat="48.6601" lon="7.56183">
        <ele>206.3</ele>
        <time>2020-06-28T15:01:41Z</time>
      </trkpt>
      <trkpt lat="48.66012" lon="7.56178">
        <ele>206.3</ele>
        <time>2020-06-28T15:01:42Z</time>
      </trkpt>
      <trkpt lat="48.66015" lon="7.56171">
        <ele>206.3</ele>
        <time>2020-06-28T15:01:43Z</time>
      </trkpt>
      <trkpt lat="48.66019" lon="7.56166">
        <ele>206.4</ele>
        <time>2020-06-28T15:01:44Z</time>
      </trkpt>
      <trkpt lat="48.66023" lon="7.56161">
        <ele>206.4</ele>
        <time>2020-06-28T15:01:45Z</time>
      </trkpt>
      <trkpt lat="48.66026" lon="7.56156">
        <ele>206.5</ele>
        <time>2020-06-28T15:01:46Z</time>
      </trkpt>
      <trkpt lat="48.66029" lon="7.5615">
        <ele>206.5</ele>
        <time>2020-06-28T15:01:47Z</time>
      </trkpt>
      <trkpt lat="48.66032" lon="7.56145">
        <ele>206.6</ele>
        <time>2020-06-28T15:01:48Z</time>
      </trkpt>
      <trkpt lat="48.66035" lon="7.5614">
        <ele>206.6</ele>
        <time>2020-06-28T15:01:49Z</time>
      </trkpt>
      <trkpt lat="48.66037" lon="7.56133">
        <ele>206.7</ele>
        <time>2020-06-28T15:01:50Z</time>
      </trkpt>
      <trkpt lat="48.6604" lon="7.56127">
        <ele>206.7</ele>
        <time>2020-06-28T15:01:51Z</time>
      </trkpt>
      <trkpt lat="48.66042" lon="7.5612">
        <ele>206.8</ele>
        <time>2020-06-28T15:01:52Z</time>
      </trkpt>
      <trkpt lat="48.66044" lon="7.56114">
        <ele>206.9</ele>
        <time>2020-06-28T15:01:53Z</time>
      </trkpt>
      <trkpt lat="48.66046" lon="7.56108">
        <ele>206.9</ele>
        <time>2020-06-28T15:01:54Z</time>
      </trkpt>
      <trkpt lat="48.66049" lon="7.56102">
        <ele>206.9</ele>
        <time>2020-06-28T15:01:55Z</time>
      </trkpt>
      <trkpt lat="48.66052" lon="7.56096">
        <ele>207</ele>
        <time>2020-06-28T15:01:56Z</time>
      </trkpt>
      <trkpt lat="48.66053" lon="7.56088">
        <ele>207</ele>
        <time>2020-06-28T15:01:57Z</time>
      </trkpt>
      <trkpt lat="48.66056" lon="7.56081">
        <ele>207.1</ele>
        <time>2020-06-28T15:01:58Z</time>
      </trkpt>
      <trkpt lat="48.66059" lon="7.56076">
        <ele>207.1</ele>
        <time>2020-06-28T15:01:59Z</time>
      </trkpt>
      <trkpt lat="48.66061" lon="7.5607">
        <ele>207.2</ele>
        <time>2020-06-28T15:02:00Z</time>
      </trkpt>
      <trkpt lat="48.66062" lon="7.56062">
        <ele>207.3</ele>
        <time>2020-06-28T15:02:01Z</time>
      </trkpt>
      <trkpt lat="48.66063" lon="7.56056">
        <ele>207.4</ele>
        <time>2020-06-28T15:02:02Z</time>
      </trkpt>
      <trkpt lat="48.66066" lon="7.56049">
        <ele>207.5</ele>
        <time>2020-06-28T15:02:03Z</time>
      </trkpt>
      <trkpt lat="48.66067" lon="7.56041">
        <ele>207.5</ele>
        <time>2020-06-28T15:02:04Z</time>
      </trkpt>
      <trkpt lat="48.66069" lon="7.56033">
        <ele>207.6</ele>
        <time>2020-06-28T15:02:05Z</time>
      </trkpt>
      <trkpt lat="48.66071" lon="7.56026">
        <ele>207.7</ele>
        <time>2020-06-28T15:02:06Z</time>
      </trkpt>
      <trkpt lat="48.66074" lon="7.5602">
        <ele>207.8</ele>
        <time>2020-06-28T15:02:07Z</time>
      </trkpt>
      <trkpt lat="48.66077" lon="7.56014">
        <ele>207.9</ele>
        <time>2020-06-28T15:02:08Z</time>
      </trkpt>
      <trkpt lat="48.66079" lon="7.56008">
        <ele>208</ele>
        <time>2020-06-28T15:02:09Z</time>
      </trkpt>
      <trkpt lat="48.6608" lon="7.56">
        <ele>208.2</ele>
        <time>2020-06-28T15:02:10Z</time>
      </trkpt>
      <trkpt lat="48.66082" lon="7.55995">
        <ele>208.3</ele>
        <time>2020-06-28T15:02:11Z</time>
      </trkpt>
      <trkpt lat="48.66084" lon="7.5599">
        <ele>208.4</ele>
        <time>2020-06-28T15:02:12Z</time>
      </trkpt>
      <trkpt lat="48.66086" lon="7.55983">
        <ele>208.5</ele>
        <time>2020-06-28T15:02:13Z</time>
      </trkpt>
      <trkpt lat="48.66088" lon="7.55978">
        <ele>208.6</ele>
        <time>2020-06-28T15:02:14Z</time>
      </trkpt>
      <trkpt lat="48.6609" lon="7.55973">
        <ele>208.8</ele>
        <time>2020-06-28T15:02:15Z</time>
      </trkpt>
      <trkpt lat="48.6609" lon="7.55966">
        <ele>208.9</ele>
        <time>2020-06-28T15:02:16Z</time>
      </trkpt>
      <trkpt lat="48.66092" lon="7.55961">
        <ele>209.1</ele>
        <time>2020-06-28T15:02:17Z</time>
      </trkpt>
      <trkpt lat="48.66095" lon="7.55956">
        <ele>209.2</ele>
        <time>2020-06-28T15:02:18Z</time>
      </trkpt>
      <trkpt lat="48.66096" lon="7.55948">
        <ele>209.5</ele>
        <time>2020-06-28T15:02:19Z</time>
      </trkpt>
      <trkpt lat="48.66099" lon="7.55943">
        <ele>209.6</ele>
        <time>2020-06-28T15:02:20Z</time>
      </trkpt>
      <trkpt lat="48.661" lon="7.55936">
        <ele>209.8</ele>
        <time>2020-06-28T15:02:21Z</time>
      </trkpt>
      <trkpt lat="48.66102" lon="7.55929">
        <ele>210</ele>
        <time>2020-06-28T15:02:22Z</time>
      </trkpt>
      <trkpt lat="48.66104" lon="7.55924">
        <ele>210.2</ele>
        <time>2020-06-28T15:02:23Z</time>
      </trkpt>
      <trkpt lat="48.66105" lon="7.55919">
        <ele>210.4</ele>
        <time>2020-06-28T15:02:24Z</time>
      </trkpt>
      <trkpt lat="48.66107" lon="7.55913">
        <ele>210.6</ele>
        <time>2020-06-28T15:02:25Z</time>
      </trkpt>
      <trkpt lat="48.66109" lon="7.55908">
        <ele>210.7</ele>
        <time>2020-06-28T15:02:26Z</time>
      </trkpt>
      <trkpt lat="48.6611" lon="7.55902">
        <ele>210.9</ele>
        <time>2020-06-28T15:02:27Z</time>
      </trkpt>
      <trkpt lat="48.66112" lon="7.55896">
        <ele>211.1</ele>
        <time>2020-06-28T15:02:28Z</time>
      </trkpt>
      <trkpt lat="48.66114" lon="7.55891">
        <ele>211.3</ele>
        <time>2020-06-28T15:02:29Z</time>
      </trkpt>
      <trkpt lat="48.66115" lon="7.55885">
        <ele>211.5</ele>
        <time>2020-06-28T15:02:30Z</time>
      </trkpt>
      <trkpt lat="48.66117" lon="7.55881">
        <ele>211.6</ele>
        <time>2020-06-28T15:02:31Z</time>
      </trkpt>
      <trkpt lat="48.66118" lon="7.55875">
        <ele>211.8</ele>
        <time>2020-06-28T15:02:32Z</time>
      </trkpt>
      <trkpt lat="48.6612" lon="7.55869">
        <ele>211.9</ele>
        <time>2020-06-28T15:02:33Z</time>
      </trkpt>
      <trkpt lat="48.66121" lon="7.55864">
        <ele>212</ele>
        <time>2020-06-28T15:02:34Z</time>
      </trkpt>
      <trkpt lat="48.66123" lon="7.55861">
        <ele>212.1</ele>
        <time>2020-06-28T15:02:35Z</time>
      </trkpt>
      <trkpt lat="48.66125" lon="7.55857">
        <ele>212.2</ele>
        <time>2020-06-28T15:02:36Z</time>
      </trkpt>
      <trkpt lat="48.66126" lon="7.55852">
        <ele>212.3</ele>
        <time>2020-06-28T15:02:37Z</time>
      </trkpt>
      <trkpt lat="48.66128" lon="7.55848">
        <ele>212.4</ele>
        <time>2020-06-28T15:02:38Z</time>
      </trkpt>
      <trkpt lat="48.66129" lon="7.55843">
        <ele>212.5</ele>
        <time>2020-06-28T15:02:39Z</time>
      </trkpt>
      <trkpt lat="48.66131" lon="7.55838">
        <ele>212.6</ele>
        <time>2020-06-28T15:02:40Z</time>
      </trkpt>
      <trkpt lat="48.66132" lon="7.55832">
        <ele>212.7</ele>
        <time>2020-06-28T15:02:41Z</time>
      </trkpt>
      <trkpt lat="48.66133" lon="7.55826">
        <ele>212.8</ele>
        <time>2020-06-28T15:02:42Z</time>
      </trkpt>
      <trkpt lat="48.66134" lon="7.55821">
        <ele>212.9</ele>
        <time>2020-06-28T15:02:43Z</time>
      </trkpt>
      <trkpt lat="48.66136" lon="7.55816">
        <ele>213</ele>
        <time>2020-06-28T15:02:44Z</time>
      </trkpt>
      <trkpt lat="48.66137" lon="7.5581">
        <ele>213.1</ele>
        <time>2020-06-28T15:02:45Z</time>
      </trkpt>
      <trkpt lat="48.6614" lon="7.55805">
        <ele>213.2</ele>
        <time>2020-06-28T15:02:46Z</time>
      </trkpt>
      <trkpt lat="48.66141" lon="7.55798">
        <ele>213.3</ele>
        <time>2020-06-28T15:02:47Z</time>
      </trkpt>
      <trkpt lat="48.66142" lon="7.55792">
        <ele>213.4</ele>
        <time>2020-06-28T15:02:48Z</time>
      </trkpt>
      <trkpt lat="48.66144" lon="7.55786">
        <ele>213.6</ele>
        <time>2020-06-28T15:02:49Z</time>
      </trkpt>
      <trkpt lat="48.66146" lon="7.55781">
        <ele>213.7</ele>
        <time>2020-06-28T15:02:50Z</time>
      </trkpt>
      <trkpt lat="48.66148" lon="7.55776">
        <ele>213.8</ele>
        <time>2020-06-28T15:02:51Z</time>
      </trkpt>
      <trkpt lat="48.6615" lon="7.5577">
        <ele>213.9</ele>
        <time>2020-06-28T15:02:52Z</time>
      </trkpt>
      <trkpt lat="48.66152" lon="7.55765">
        <ele>214</ele>
        <time>2020-06-28T15:02:53Z</time>
      </trkpt>
      <trkpt lat="48.66154" lon="7.5576">
        <ele>214.1</ele>
        <time>2020-06-28T15:02:54Z</time>
      </trkpt>
      <trkpt lat="48.66157" lon="7.55755">
        <ele>214.2</ele>
        <time>2020-06-28T15:02:55Z</time>
      </trkpt>
      <trkpt lat="48.66157" lon="7.55749">
        <ele>214.3</ele>
        <time>2020-06-28T15:02:56Z</time>
      </trkpt>
      <trkpt lat="48.6616" lon="7.55744">
        <ele>214.4</ele>
        <time>2020-06-28T15:02:57Z</time>
      </trkpt>
      <trkpt lat="48.66162" lon="7.55739">
        <ele>214.5</ele>
        <time>2020-06-28T15:02:58Z</time>
      </trkpt>
      <trkpt lat="48.66164" lon="7.55735">
        <ele>214.6</ele>
        <time>2020-06-28T15:02:59Z</time>
      </trkpt>
      <trkpt lat="48.66166" lon="7.5573">
        <ele>214.6</ele>
        <time>2020-06-28T15:03:00Z</time>
      </trkpt>
      <trkpt lat="48.66167" lon="7.55725">
        <ele>214.7</ele>
        <time>2020-06-28T15:03:01Z</time>
      </trkpt>
      <trkpt lat="48.66169" lon="7.5572">
        <ele>214.7</ele>
        <time>2020-06-28T15:03:02Z</time>
      </trkpt>
      <trkpt lat="48.66171" lon="7.55715">
        <ele>214.8</ele>
        <time>2020-06-28T15:03:03Z</time>
      </trkpt>
      <trkpt lat="48.66173" lon="7.55711">
        <ele>214.8</ele>
        <time>2020-06-28T15:03:04Z</time>
      </trkpt>
      <trkpt lat="48.66174" lon="7.55705">
        <ele>214.9</ele>
        <time>2020-06-28T15:03:05Z</time>
      </trkpt>
      <trkpt lat="48.66174" lon="7.557">
        <ele>214.9</ele>
        <time>2020-06-28T15:03:06Z</time>
      </trkpt>
      <trkpt lat="48.66177" lon="7.55696">
        <ele>215</ele>
        <time>2020-06-28T15:03:07Z</time>
      </trkpt>
      <trkpt lat="48.66178" lon="7.55691">
        <ele>215</ele>
        <time>2020-06-28T15:03:08Z</time>
      </trkpt>
      <trkpt lat="48.66178" lon="7.55687">
        <ele>215.1</ele>
        <time>2020-06-28T15:03:09Z</time>
      </trkpt>
      <trkpt lat="48.6618" lon="7.55683">
        <ele>215.1</ele>
        <time>2020-06-28T15:03:10Z</time>
      </trkpt>
      <trkpt lat="48.66181" lon="7.55679">
        <ele>215.2</ele>
        <time>2020-06-28T15:03:11Z</time>
      </trkpt>
      <trkpt lat="48.66181" lon="7.55672">
        <ele>215.3</ele>
        <time>2020-06-28T15:03:12Z</time>
      </trkpt>
      <trkpt lat="48.66182" lon="7.55668">
        <ele>215.4</ele>
        <time>2020-06-28T15:03:13Z</time>
      </trkpt>
      <trkpt lat="48.66182" lon="7.55662">
        <ele>215.4</ele>
        <time>2020-06-28T15:03:14Z</time>
      </trkpt>
      <trkpt lat="48.66183" lon="7.55656">
        <ele>215.5</ele>
        <time>2020-06-28T15:03:15Z</time>
      </trkpt>
      <trkpt lat="48.66183" lon="7.5565">
        <ele>215.6</ele>
        <time>2020-06-28T15:03:16Z</time>
      </trkpt>
      <trkpt lat="48.66186" lon="7.55646">
        <ele>215.7</ele>
        <time>2020-06-28T15:03:17Z</time>
      </trkpt>
      <trkpt lat="48.66187" lon="7.55639">
        <ele>215.7</ele>
        <time>2020-06-28T15:03:18Z</time>
      </trkpt>
      <trkpt lat="48.66188" lon="7.55634">
        <ele>215.8</ele>
        <time>2020-06-28T15:03:19Z</time>
      </trkpt>
      <trkpt lat="48.66189" lon="7.55627">
        <ele>215.9</ele>
        <time>2020-06-28T15:03:20Z</time>
      </trkpt>
      <trkpt lat="48.66191" lon="7.55622">
        <ele>216</ele>
        <time>2020-06-28T15:03:21Z</time>
      </trkpt>
      <trkpt lat="48.66191" lon="7.55616">
        <ele>216.1</ele>
        <time>2020-06-28T15:03:22Z</time>
      </trkpt>
      <trkpt lat="48.66193" lon="7.5561">
        <ele>216.2</ele>
        <time>2020-06-28T15:03:23Z</time>
      </trkpt>
      <trkpt lat="48.66195" lon="7.55605">
        <ele>216.3</ele>
        <time>2020-06-28T15:03:24Z</time>
      </trkpt>
      <trkpt lat="48.66197" lon="7.55599">
        <ele>216.3</ele>
        <time>2020-06-28T15:03:25Z</time>
      </trkpt>
      <trkpt lat="48.66198" lon="7.55592">
        <ele>216.5</ele>
        <time>2020-06-28T15:03:26Z</time>
      </trkpt>
      <trkpt lat="48.66199" lon="7.55588">
        <ele>216.5</ele>
        <time>2020-06-28T15:03:27Z</time>
      </trkpt>
      <trkpt lat="48.662" lon="7.55582">
        <ele>216.6</ele>
        <time>2020-06-28T15:03:28Z</time>
      </trkpt>
      <trkpt lat="48.66201" lon="7.55575">
        <ele>216.8</ele>
        <time>2020-06-28T15:03:29Z</time>
      </trkpt>
      <trkpt lat="48.66202" lon="7.55569">
        <ele>216.9</ele>
        <time>2020-06-28T15:03:30Z</time>
      </trkpt>
      <trkpt lat="48.66202" lon="7.55564">
        <ele>217</ele>
        <time>2020-06-28T15:03:31Z</time>
      </trkpt>
      <trkpt lat="48.66204" lon="7.5556">
        <ele>217</ele>
        <time>2020-06-28T15:03:32Z</time>
      </trkpt>
      <trkpt lat="48.66204" lon="7.55553">
        <ele>217.1</ele>
        <time>2020-06-28T15:03:33Z</time>
      </trkpt>
      <trkpt lat="48.66205" lon="7.55546">
        <ele>217.2</ele>
        <time>2020-06-28T15:03:34Z</time>
      </trkpt>
      <trkpt lat="48.66207" lon="7.5554">
        <ele>217.2</ele>
        <time>2020-06-28T15:03:35Z</time>
      </trkpt>
      <trkpt lat="48.66207" lon="7.55532">
        <ele>217.3</ele>
        <time>2020-06-28T15:03:36Z</time>
      </trkpt>
      <trkpt lat="48.66208" lon="7.55526">
        <ele>217.4</ele>
        <time>2020-06-28T15:03:37Z</time>
      </trkpt>
      <trkpt lat="48.66209" lon="7.55519">
        <ele>217.4</ele>
        <time>2020-06-28T15:03:38Z</time>
      </trkpt>
      <trkpt lat="48.6621" lon="7.55514">
        <ele>217.5</ele>
        <time>2020-06-28T15:03:39Z</time>
      </trkpt>
      <trkpt lat="48.66211" lon="7.55508">
        <ele>217.6</ele>
        <time>2020-06-28T15:03:40Z</time>
      </trkpt>
      <trkpt lat="48.66212" lon="7.55501">
        <ele>217.7</ele>
        <time>2020-06-28T15:03:41Z</time>
      </trkpt>
      <trkpt lat="48.66213" lon="7.55495">
        <ele>217.8</ele>
        <time>2020-06-28T15:03:42Z</time>
      </trkpt>
      <trkpt lat="48.66214" lon="7.5549">
        <ele>217.9</ele>
        <time>2020-06-28T15:03:43Z</time>
      </trkpt>
      <trkpt lat="48.66214" lon="7.55483">
        <ele>218</ele>
        <time>2020-06-28T15:03:44Z</time>
      </trkpt>
      <trkpt lat="48.66214" lon="7.55477">
        <ele>218</ele>
        <time>2020-06-28T15:03:45Z</time>
      </trkpt>
      <trkpt lat="48.66216" lon="7.55471">
        <ele>218.1</ele>
        <time>2020-06-28T15:03:46Z</time>
      </trkpt>
      <trkpt lat="48.66217" lon="7.55464">
        <ele>218.1</ele>
        <time>2020-06-28T15:03:47Z</time>
      </trkpt>
      <trkpt lat="48.66217" lon="7.55457">
        <ele>218.2</ele>
        <time>2020-06-28T15:03:48Z</time>
      </trkpt>
      <trkpt lat="48.66217" lon="7.55451">
        <ele>218.2</ele>
        <time>2020-06-28T15:03:49Z</time>
      </trkpt>
      <trkpt lat="48.66219" lon="7.55447">
        <ele>218.3</ele>
        <time>2020-06-28T15:03:50Z</time>
      </trkpt>
      <trkpt lat="48.6622" lon="7.55442">
        <ele>218.3</ele>
        <time>2020-06-28T15:03:51Z</time>
      </trkpt>
      <trkpt lat="48.6622" lon="7.55436">
        <ele>218.4</ele>
        <time>2020-06-28T15:03:52Z</time>
      </trkpt>
      <trkpt lat="48.66221" lon="7.55429">
        <ele>218.4</ele>
        <time>2020-06-28T15:03:53Z</time>
      </trkpt>
      <trkpt lat="48.66222" lon="7.55423">
        <ele>218.5</ele>
        <time>2020-06-28T15:03:54Z</time>
      </trkpt>
      <trkpt lat="48.66223" lon="7.55417">
        <ele>218.5</ele>
        <time>2020-06-28T15:03:55Z</time>
      </trkpt>
      <trkpt lat="48.66224" lon="7.55411">
        <ele>218.6</ele>
        <time>2020-06-28T15:03:56Z</time>
      </trkpt>
      <trkpt lat="48.66225" lon="7.55402">
        <ele>218.7</ele>
        <time>2020-06-28T15:03:57Z</time>
      </trkpt>
      <trkpt lat="48.66224" lon="7.55395">
        <ele>218.8</ele>
        <time>2020-06-28T15:03:58Z</time>
      </trkpt>
      <trkpt lat="48.66226" lon="7.55388">
        <ele>218.9</ele>
        <time>2020-06-28T15:03:59Z</time>
      </trkpt>
      <trkpt lat="48.66225" lon="7.5538">
        <ele>219</ele>
        <time>2020-06-28T15:04:00Z</time>
      </trkpt>
      <trkpt lat="48.66225" lon="7.55373">
        <ele>219.1</ele>
        <time>2020-06-28T15:04:01Z</time>
      </trkpt>
      <trkpt lat="48.66225" lon="7.55367">
        <ele>219.2</ele>
        <time>2020-06-28T15:04:02Z</time>
      </trkpt>
      <trkpt lat="48.66226" lon="7.55362">
        <ele>219.3</ele>
        <time>2020-06-28T15:04:03Z</time>
      </trkpt>
      <trkpt lat="48.66226" lon="7.55357">
        <ele>219.3</ele>
        <time>2020-06-28T15:04:04Z</time>
      </trkpt>
      <trkpt lat="48.66227" lon="7.55351">
        <ele>219.4</ele>
        <time>2020-06-28T15:04:05Z</time>
      </trkpt>
      <trkpt lat="48.66227" lon="7.55343">
        <ele>219.4</ele>
        <time>2020-06-28T15:04:06Z</time>
      </trkpt>
      <trkpt lat="48.66228" lon="7.55337">
        <ele>219.5</ele>
        <time>2020-06-28T15:04:07Z</time>
      </trkpt>
      <trkpt lat="48.66228" lon="7.55331">
        <ele>219.5</ele>
        <time>2020-06-28T15:04:08Z</time>
      </trkpt>
      <trkpt lat="48.6623" lon="7.55326">
        <ele>219.6</ele>
        <time>2020-06-28T15:04:09Z</time>
      </trkpt>
      <trkpt lat="48.66231" lon="7.5532">
        <ele>219.7</ele>
        <time>2020-06-28T15:04:10Z</time>
      </trkpt>
      <trkpt lat="48.66231" lon="7.55313">
        <ele>219.8</ele>
        <time>2020-06-28T15:04:11Z</time>
      </trkpt>
      <trkpt lat="48.66232" lon="7.55307">
        <ele>219.9</ele>
        <time>2020-06-28T15:04:12Z</time>
      </trkpt>
      <trkpt lat="48.66233" lon="7.55301">
        <ele>220</ele>
        <time>2020-06-28T15:04:13Z</time>
      </trkpt>
      <trkpt lat="48.66235" lon="7.55295">
        <ele>220.1</ele>
        <time>2020-06-28T15:04:14Z</time>
      </trkpt>
      <trkpt lat="48.66235" lon="7.55287">
        <ele>220.2</ele>
        <time>2020-06-28T15:04:15Z</time>
      </trkpt>
      <trkpt lat="48.66236" lon="7.55281">
        <ele>220.2</ele>
        <time>2020-06-28T15:04:16Z</time>
      </trkpt>
      <trkpt lat="48.66236" lon="7.55273">
        <ele>220.3</ele>
        <time>2020-06-28T15:04:17Z</time>
      </trkpt>
      <trkpt lat="48.66239" lon="7.55267">
        <ele>220.5</ele>
        <time>2020-06-28T15:04:18Z</time>
      </trkpt>
      <trkpt lat="48.6624" lon="7.5526">
        <ele>220.6</ele>
        <time>2020-06-28T15:04:19Z</time>
      </trkpt>
      <trkpt lat="48.66241" lon="7.55253">
        <ele>220.7</ele>
        <time>2020-06-28T15:04:20Z</time>
      </trkpt>
      <trkpt lat="48.66243" lon="7.55246">
        <ele>220.8</ele>
        <time>2020-06-28T15:04:21Z</time>
      </trkpt>
      <trkpt lat="48.66245" lon="7.55241">
        <ele>220.9</ele>
        <time>2020-06-28T15:04:22Z</time>
      </trkpt>
      <trkpt lat="48.66246" lon="7.55236">
        <ele>221</ele>
        <time>2020-06-28T15:04:23Z</time>
      </trkpt>
      <trkpt lat="48.66248" lon="7.5523">
        <ele>221.2</ele>
        <time>2020-06-28T15:04:24Z</time>
      </trkpt>
      <trkpt lat="48.6625" lon="7.55226">
        <ele>221.3</ele>
        <time>2020-06-28T15:04:25Z</time>
      </trkpt>
      <trkpt lat="48.66251" lon="7.5522">
        <ele>221.4</ele>
        <time>2020-06-28T15:04:26Z</time>
      </trkpt>
      <trkpt lat="48.66253" lon="7.55215">
        <ele>221.5</ele>
        <time>2020-06-28T15:04:27Z</time>
      </trkpt>
      <trkpt lat="48.66254" lon="7.55208">
        <ele>221.6</ele>
        <time>2020-06-28T15:04:28Z</time>
      </trkpt>
      <trkpt lat="48.66257" lon="7.55204">
        <ele>221.7</ele>
        <time>2020-06-28T15:04:29Z</time>
      </trkpt>
      <trkpt lat="48.66259" lon="7.55199">
        <ele>221.9</ele>
        <time>2020-06-28T15:04:30Z</time>
      </trkpt>
      <trkpt lat="48.66261" lon="7.55194">
        <ele>222</ele>
        <time>2020-06-28T15:04:31Z</time>
      </trkpt>
      <trkpt lat="48.66264" lon="7.5519">
        <ele>222.2</ele>
        <time>2020-06-28T15:04:32Z</time>
      </trkpt>
      <trkpt lat="48.66266" lon="7.55185">
        <ele>222.3</ele>
        <time>2020-06-28T15:04:33Z</time>
      </trkpt>
      <trkpt lat="48.66267" lon="7.55179">
        <ele>222.5</ele>
        <time>2020-06-28T15:04:34Z</time>
      </trkpt>
      <trkpt lat="48.66269" lon="7.55174">
        <ele>222.6</ele>
        <time>2020-06-28T15:04:35Z</time>
      </trkpt>
      <trkpt lat="48.66271" lon="7.5517">
        <ele>222.7</ele>
        <time>2020-06-28T15:04:36Z</time>
      </trkpt>
      <trkpt lat="48.66273" lon="7.55165">
        <ele>222.9</ele>
        <time>2020-06-28T15:04:37Z</time>
      </trkpt>
      <trkpt lat="48.66275" lon="7.5516">
        <ele>223</ele>
        <time>2020-06-28T15:04:38Z</time>
      </trkpt>
      <trkpt lat="48.66277" lon="7.55156">
        <ele>223.2</ele>
        <time>2020-06-28T15:04:39Z</time>
      </trkpt>
      <trkpt lat="48.6628" lon="7.55152">
        <ele>223.3</ele>
        <time>2020-06-28T15:04:40Z</time>
      </trkpt>
      <trkpt lat="48.66282" lon="7.55149">
        <ele>223.5</ele>
        <time>2020-06-28T15:04:41Z</time>
      </trkpt>
      <trkpt lat="48.66284" lon="7.55144">
        <ele>223.6</ele>
        <time>2020-06-28T15:04:42Z</time>
      </trkpt>
      <trkpt lat="48.66285" lon="7.55139">
        <ele>223.8</ele>
        <time>2020-06-28T15:04:43Z</time>
      </trkpt>
      <trkpt lat="48.66286" lon="7.55134">
        <ele>224</ele>
        <time>2020-06-28T15:04:44Z</time>
      </trkpt>
      <trkpt lat="48.6629" lon="7.5513">
        <ele>224.3</ele>
        <time>2020-06-28T15:04:45Z</time>
      </trkpt>
      <trkpt lat="48.66292" lon="7.55126">
        <ele>224.5</ele>
        <time>2020-06-28T15:04:46Z</time>
      </trkpt>
      <trkpt lat="48.66293" lon="7.55121">
        <ele>224.7</ele>
        <time>2020-06-28T15:04:47Z</time>
      </trkpt>
      <trkpt lat="48.66295" lon="7.55117">
        <ele>224.9</ele>
        <time>2020-06-28T15:04:48Z</time>
      </trkpt>
      <trkpt lat="48.66296" lon="7.55112">
        <ele>225.1</ele>
        <time>2020-06-28T15:04:49Z</time>
      </trkpt>
      <trkpt lat="48.66299" lon="7.55108">
        <ele>225.3</ele>
        <time>2020-06-28T15:04:50Z</time>
      </trkpt>
      <trkpt lat="48.66301" lon="7.55103">
        <ele>225.5</ele>
        <time>2020-06-28T15:04:51Z</time>
      </trkpt>
      <trkpt lat="48.66304" lon="7.55099">
        <ele>225.7</ele>
        <time>2020-06-28T15:04:52Z</time>
      </trkpt>
      <trkpt lat="48.66306" lon="7.55095">
        <ele>225.9</ele>
        <time>2020-06-28T15:04:53Z</time>
      </trkpt>
      <trkpt lat="48.66306" lon="7.55089">
        <ele>226.1</ele>
        <time>2020-06-28T15:04:54Z</time>
      </trkpt>
      <trkpt lat="48.66308" lon="7.55085">
        <ele>226.2</ele>
        <time>2020-06-28T15:04:55Z</time>
      </trkpt>
      <trkpt lat="48.66309" lon="7.55081">
        <ele>226.4</ele>
        <time>2020-06-28T15:04:56Z</time>
      </trkpt>
      <trkpt lat="48.6631" lon="7.55077">
        <ele>226.6</ele>
        <time>2020-06-28T15:04:57Z</time>
      </trkpt>
      <trkpt lat="48.66313" lon="7.55073">
        <ele>226.8</ele>
        <time>2020-06-28T15:04:58Z</time>
      </trkpt>
      <trkpt lat="48.66314" lon="7.55069">
        <ele>227</ele>
        <time>2020-06-28T15:04:59Z</time>
      </trkpt>
      <trkpt lat="48.66317" lon="7.55065">
        <ele>227.2</ele>
        <time>2020-06-28T15:05:00Z</time>
      </trkpt>
      <trkpt lat="48.66319" lon="7.55061">
        <ele>227.3</ele>
        <time>2020-06-28T15:05:01Z</time>
      </trkpt>
      <trkpt lat="48.66321" lon="7.55057">
        <ele>227.5</ele>
        <time>2020-06-28T15:05:02Z</time>
      </trkpt>
      <trkpt lat="48.66322" lon="7.55052">
        <ele>227.7</ele>
        <time>2020-06-28T15:05:03Z</time>
      </trkpt>
      <trkpt lat="48.66324" lon="7.55048">
        <ele>227.9</ele>
        <time>2020-06-28T15:05:04Z</time>
      </trkpt>
      <trkpt lat="48.66326" lon="7.55043">
        <ele>228.2</ele>
        <time>2020-06-28T15:05:05Z</time>
      </trkpt>
      <trkpt lat="48.66328" lon="7.55039">
        <ele>228.4</ele>
        <time>2020-06-28T15:05:06Z</time>
      </trkpt>
      <trkpt lat="48.6633" lon="7.55035">
        <ele>228.6</ele>
        <time>2020-06-28T15:05:07Z</time>
      </trkpt>
      <trkpt lat="48.66332" lon="7.55032">
        <ele>228.8</ele>
        <time>2020-06-28T15:05:08Z</time>
      </trkpt>
      <trkpt lat="48.66334" lon="7.55027">
        <ele>229</ele>
        <time>2020-06-28T15:05:09Z</time>
      </trkpt>
      <trkpt lat="48.66335" lon="7.55026">
        <ele>229.1</ele>
        <time>2020-06-28T15:05:10Z</time>
      </trkpt>
      <trkpt lat="48.66338" lon="7.55023">
        <ele>229.4</ele>
        <time>2020-06-28T15:05:11Z</time>
      </trkpt>
      <trkpt lat="48.66339" lon="7.55021">
        <ele>229.5</ele>
        <time>2020-06-28T15:05:12Z</time>
      </trkpt>
      <trkpt lat="48.66341" lon="7.55016">
        <ele>229.7</ele>
        <time>2020-06-28T15:05:13Z</time>
      </trkpt>
      <trkpt lat="48.66342" lon="7.55012">
        <ele>229.9</ele>
        <time>2020-06-28T15:05:14Z</time>
      </trkpt>
      <trkpt lat="48.66344" lon="7.55008">
        <ele>230.1</ele>
        <time>2020-06-28T15:05:15Z</time>
      </trkpt>
      <trkpt lat="48.66346" lon="7.55004">
        <ele>230.3</ele>
        <time>2020-06-28T15:05:16Z</time>
      </trkpt>
      <trkpt lat="48.66349" lon="7.55001">
        <ele>230.5</ele>
        <time>2020-06-28T15:05:17Z</time>
      </trkpt>
      <trkpt lat="48.66351" lon="7.54997">
        <ele>230.7</ele>
        <time>2020-06-28T15:05:18Z</time>
      </trkpt>
      <trkpt lat="48.66352" lon="7.54994">
        <ele>230.9</ele>
        <time>2020-06-28T15:05:19Z</time>
      </trkpt>
      <trkpt lat="48.66355" lon="7.5499">
        <ele>231.1</ele>
        <time>2020-06-28T15:05:20Z</time>
      </trkpt>
      <trkpt lat="48.66356" lon="7.54988">
        <ele>231.2</ele>
        <time>2020-06-28T15:05:21Z</time>
      </trkpt>
      <trkpt lat="48.66358" lon="7.54984">
        <ele>231.5</ele>
        <time>2020-06-28T15:05:22Z</time>
      </trkpt>
      <trkpt lat="48.66359" lon="7.54982">
        <ele>231.6</ele>
        <time>2020-06-28T15:05:23Z</time>
      </trkpt>
      <trkpt lat="48.66362" lon="7.54978">
        <ele>231.8</ele>
        <time>2020-06-28T15:05:24Z</time>
      </trkpt>
      <trkpt lat="48.66363" lon="7.54976">
        <ele>231.9</ele>
        <time>2020-06-28T15:05:25Z</time>
      </trkpt>
      <trkpt lat="48.66364" lon="7.54972">
        <ele>232.1</ele>
        <time>2020-06-28T15:05:26Z</time>
      </trkpt>
      <trkpt lat="48.66366" lon="7.54969">
        <ele>232.3</ele>
        <time>2020-06-28T15:05:27Z</time>
      </trkpt>
      <trkpt lat="48.66368" lon="7.54964">
        <ele>232.6</ele>
        <time>2020-06-28T15:05:28Z</time>
      </trkpt>
      <trkpt lat="48.66369" lon="7.54962">
        <ele>232.7</ele>
        <time>2020-06-28T15:05:29Z</time>
      </trkpt>
      <trkpt lat="48.6637" lon="7.54958">
        <ele>232.9</ele>
        <time>2020-06-28T15:05:30Z</time>
      </trkpt>
      <trkpt lat="48.66373" lon="7.54955">
        <ele>233.2</ele>
        <time>2020-06-28T15:05:31Z</time>
      </trkpt>
      <trkpt lat="48.66375" lon="7.5495">
        <ele>233.5</ele>
        <time>2020-06-28T15:05:32Z</time>
      </trkpt>
      <trkpt lat="48.66376" lon="7.54948">
        <ele>233.6</ele>
        <time>2020-06-28T15:05:33Z</time>
      </trkpt>
      <trkpt lat="48.66378" lon="7.54945">
        <ele>233.8</ele>
        <time>2020-06-28T15:05:34Z</time>
      </trkpt>
      <trkpt lat="48.66379" lon="7.54941">
        <ele>234</ele>
        <time>2020-06-28T15:05:35Z</time>
      </trkpt>
      <trkpt lat="48.66381" lon="7.54938">
        <ele>234.2</ele>
        <time>2020-06-28T15:05:36Z</time>
      </trkpt>
      <trkpt lat="48.66383" lon="7.54933">
        <ele>234.5</ele>
        <time>2020-06-28T15:05:37Z</time>
      </trkpt>
      <trkpt lat="48.66383" lon="7.54932">
        <ele>234.6</ele>
        <time>2020-06-28T15:05:38Z</time>
      </trkpt>
      <trkpt lat="48.66384" lon="7.54928">
        <ele>234.8</ele>
        <time>2020-06-28T15:05:39Z</time>
      </trkpt>
      <trkpt lat="48.66386" lon="7.54924">
        <ele>235.1</ele>
        <time>2020-06-28T15:05:40Z</time>
      </trkpt>
      <trkpt lat="48.66387" lon="7.54922">
        <ele>235.1</ele>
        <time>2020-06-28T15:05:41Z</time>
      </trkpt>
      <trkpt lat="48.66389" lon="7.54917">
        <ele>235.4</ele>
        <time>2020-06-28T15:05:42Z</time>
      </trkpt>
      <trkpt lat="48.66389" lon="7.54916">
        <ele>235.5</ele>
        <time>2020-06-28T15:05:43Z</time>
      </trkpt>
      <trkpt lat="48.6639" lon="7.5491">
        <ele>235.8</ele>
        <time>2020-06-28T15:05:44Z</time>
      </trkpt>
      <trkpt lat="48.66391" lon="7.54908">
        <ele>235.9</ele>
        <time>2020-06-28T15:05:45Z</time>
      </trkpt>
      <trkpt lat="48.66393" lon="7.54905">
        <ele>236.1</ele>
        <time>2020-06-28T15:05:46Z</time>
      </trkpt>
      <trkpt lat="48.66394" lon="7.54901">
        <ele>236.3</ele>
        <time>2020-06-28T15:05:47Z</time>
      </trkpt>
      <trkpt lat="48.66396" lon="7.54897">
        <ele>236.5</ele>
        <time>2020-06-28T15:05:48Z</time>
      </trkpt>
      <trkpt lat="48.66397" lon="7.54896">
        <ele>236.6</ele>
        <time>2020-06-28T15:05:49Z</time>
      </trkpt>
      <trkpt lat="48.66399" lon="7.54893">
        <ele>236.8</ele>
        <time>2020-06-28T15:05:50Z</time>
      </trkpt>
      <trkpt lat="48.66401" lon="7.54888">
        <ele>237</ele>
        <time>2020-06-28T15:05:51Z</time>
      </trkpt>
      <trkpt lat="48.66401" lon="7.54886">
        <ele>237.1</ele>
        <time>2020-06-28T15:05:52Z</time>
      </trkpt>
      <trkpt lat="48.66404" lon="7.54882">
        <ele>237.4</ele>
        <time>2020-06-28T15:05:53Z</time>
      </trkpt>
      <trkpt lat="48.66406" lon="7.54878">
        <ele>237.6</ele>
        <time>2020-06-28T15:05:54Z</time>
      </trkpt>
      <trkpt lat="48.66407" lon="7.54876">
        <ele>237.7</ele>
        <time>2020-06-28T15:05:55Z</time>
      </trkpt>
      <trkpt lat="48.66409" lon="7.54871">
        <ele>237.9</ele>
        <time>2020-06-28T15:05:56Z</time>
      </trkpt>
      <trkpt lat="48.66409" lon="7.54869">
        <ele>238</ele>
        <time>2020-06-28T15:05:57Z</time>
      </trkpt>
      <trkpt lat="48.6641" lon="7.54863">
        <ele>238.3</ele>
        <time>2020-06-28T15:05:58Z</time>
      </trkpt>
      <trkpt lat="48.6641" lon="7.54861">
        <ele>238.4</ele>
        <time>2020-06-28T15:05:59Z</time>
      </trkpt>
      <trkpt lat="48.66411" lon="7.54856">
        <ele>238.7</ele>
        <time>2020-06-28T15:06:00Z</time>
      </trkpt>
      <trkpt lat="48.66411" lon="7.54854">
        <ele>238.8</ele>
        <time>2020-06-28T15:06:01Z</time>
      </trkpt>
      <trkpt lat="48.66412" lon="7.54849">
        <ele>239</ele>
        <time>2020-06-28T15:06:02Z</time>
      </trkpt>
      <trkpt lat="48.66413" lon="7.54848">
        <ele>239.1</ele>
        <time>2020-06-28T15:06:03Z</time>
      </trkpt>
      <trkpt lat="48.66414" lon="7.54843">
        <ele>239.3</ele>
        <time>2020-06-28T15:06:04Z</time>
      </trkpt>
      <trkpt lat="48.66414" lon="7.54841">
        <ele>239.4</ele>
        <time>2020-06-28T15:06:05Z</time>
      </trkpt>
      <trkpt lat="48.66417" lon="7.54839">
        <ele>239.6</ele>
        <time>2020-06-28T15:06:06Z</time>
      </trkpt>
      <trkpt lat="48.66417" lon="7.54833">
        <ele>239.9</ele>
        <time>2020-06-28T15:06:07Z</time>
      </trkpt>
      <trkpt lat="48.66417" lon="7.54832">
        <ele>240</ele>
        <time>2020-06-28T15:06:08Z</time>
      </trkpt>
      <trkpt lat="48.66418" lon="7.54826">
        <ele>240.2</ele>
        <time>2020-06-28T15:06:09Z</time>
      </trkpt>
      <trkpt lat="48.66418" lon="7.54824">
        <ele>240.3</ele>
        <time>2020-06-28T15:06:10Z</time>
      </trkpt>
      <trkpt lat="48.6642" lon="7.54818">
        <ele>240.6</ele>
        <time>2020-06-28T15:06:11Z</time>
      </trkpt>
      <trkpt lat="48.6642" lon="7.54816">
        <ele>240.7</ele>
        <time>2020-06-28T15:06:12Z</time>
      </trkpt>
      <trkpt lat="48.66421" lon="7.5481">
        <ele>240.9</ele>
        <time>2020-06-28T15:06:13Z</time>
      </trkpt>
      <trkpt lat="48.66421" lon="7.54806">
        <ele>241.1</ele>
        <time>2020-06-28T15:06:14Z</time>
      </trkpt>
      <trkpt lat="48.66422" lon="7.54802">
        <ele>241.3</ele>
        <time>2020-06-28T15:06:15Z</time>
      </trkpt>
      <trkpt lat="48.66422" lon="7.54797">
        <ele>241.5</ele>
        <time>2020-06-28T15:06:16Z</time>
      </trkpt>
      <trkpt lat="48.66422" lon="7.54795">
        <ele>241.6</ele>
        <time>2020-06-28T15:06:17Z</time>
      </trkpt>
      <trkpt lat="48.66422" lon="7.54789">
        <ele>241.8</ele>
        <time>2020-06-28T15:06:18Z</time>
      </trkpt>
      <trkpt lat="48.66422" lon="7.54784">
        <ele>242</ele>
        <time>2020-06-28T15:06:19Z</time>
      </trkpt>
      <trkpt lat="48.66422" lon="7.54782">
        <ele>242.1</ele>
        <time>2020-06-28T15:06:20Z</time>
      </trkpt>
      <trkpt lat="48.66422" lon="7.54776">
        <ele>242.3</ele>
        <time>2020-06-28T15:06:21Z</time>
      </trkpt>
      <trkpt lat="48.66422" lon="7.54774">
        <ele>242.4</ele>
        <time>2020-06-28T15:06:22Z</time>
      </trkpt>
      <trkpt lat="48.66422" lon="7.54769">
        <ele>242.7</ele>
        <time>2020-06-28T15:06:23Z</time>
      </trkpt>
      <trkpt lat="48.66423" lon="7.54767">
        <ele>242.8</ele>
        <time>2020-06-28T15:06:24Z</time>
      </trkpt>
      <trkpt lat="48.66424" lon="7.54763">
        <ele>242.9</ele>
        <time>2020-06-28T15:06:25Z</time>
      </trkpt>
      <trkpt lat="48.66423" lon="7.54759">
        <ele>243.1</ele>
        <time>2020-06-28T15:06:26Z</time>
      </trkpt>
      <trkpt lat="48.66424" lon="7.54753">
        <ele>243.3</ele>
        <time>2020-06-28T15:06:27Z</time>
      </trkpt>
      <trkpt lat="48.66424" lon="7.54751">
        <ele>243.4</ele>
        <time>2020-06-28T15:06:28Z</time>
      </trkpt>
      <trkpt lat="48.66424" lon="7.54746">
        <ele>243.6</ele>
        <time>2020-06-28T15:06:29Z</time>
      </trkpt>
      <trkpt lat="48.66425" lon="7.54743">
        <ele>243.8</ele>
        <time>2020-06-28T15:06:30Z</time>
      </trkpt>
      <trkpt lat="48.66426" lon="7.54737">
        <ele>244</ele>
        <time>2020-06-28T15:06:31Z</time>
      </trkpt>
      <trkpt lat="48.66427" lon="7.54735">
        <ele>244.1</ele>
        <time>2020-06-28T15:06:32Z</time>
      </trkpt>
      <trkpt lat="48.66429" lon="7.54732">
        <ele>244.3</ele>
        <time>2020-06-28T15:06:33Z</time>
      </trkpt>
      <trkpt lat="48.66429" lon="7.54727">
        <ele>244.5</ele>
        <time>2020-06-28T15:06:34Z</time>
      </trkpt>
      <trkpt lat="48.6643" lon="7.54721">
        <ele>244.8</ele>
        <time>2020-06-28T15:06:35Z</time>
      </trkpt>
      <trkpt lat="48.66431" lon="7.54716">
        <ele>245</ele>
        <time>2020-06-28T15:06:36Z</time>
      </trkpt>
      <trkpt lat="48.66432" lon="7.54712">
        <ele>245.1</ele>
        <time>2020-06-28T15:06:37Z</time>
      </trkpt>
      <trkpt lat="48.66432" lon="7.54707">
        <ele>245.3</ele>
        <time>2020-06-28T15:06:38Z</time>
      </trkpt>
      <trkpt lat="48.66432" lon="7.54702">
        <ele>245.6</ele>
        <time>2020-06-28T15:06:39Z</time>
      </trkpt>
      <trkpt lat="48.66433" lon="7.54697">
        <ele>245.7</ele>
        <time>2020-06-28T15:06:40Z</time>
      </trkpt>
      <trkpt lat="48.66434" lon="7.54692">
        <ele>246</ele>
        <time>2020-06-28T15:06:41Z</time>
      </trkpt>
      <trkpt lat="48.66434" lon="7.5469">
        <ele>246</ele>
        <time>2020-06-28T15:06:42Z</time>
      </trkpt>
      <trkpt lat="48.66435" lon="7.54685">
        <ele>246.3</ele>
        <time>2020-06-28T15:06:43Z</time>
      </trkpt>
      <trkpt lat="48.66436" lon="7.54682">
        <ele>246.3</ele>
        <time>2020-06-28T15:06:44Z</time>
      </trkpt>
      <trkpt lat="48.66435" lon="7.54677">
        <ele>246.6</ele>
        <time>2020-06-28T15:06:45Z</time>
      </trkpt>
      <trkpt lat="48.66436" lon="7.54671">
        <ele>246.8</ele>
        <time>2020-06-28T15:06:46Z</time>
      </trkpt>
      <trkpt lat="48.66436" lon="7.54669">
        <ele>246.9</ele>
        <time>2020-06-28T15:06:47Z</time>
      </trkpt>
      <trkpt lat="48.66436" lon="7.54664">
        <ele>247.1</ele>
        <time>2020-06-28T15:06:48Z</time>
      </trkpt>
      <trkpt lat="48.66436" lon="7.54659">
        <ele>247.3</ele>
        <time>2020-06-28T15:06:49Z</time>
      </trkpt>
      <trkpt lat="48.66437" lon="7.54654">
        <ele>247.5</ele>
        <time>2020-06-28T15:06:50Z</time>
      </trkpt>
      <trkpt lat="48.66439" lon="7.5465">
        <ele>247.7</ele>
        <time>2020-06-28T15:06:51Z</time>
      </trkpt>
      <trkpt lat="48.66438" lon="7.54644">
        <ele>248</ele>
        <time>2020-06-28T15:06:52Z</time>
      </trkpt>
      <trkpt lat="48.66439" lon="7.54641">
        <ele>248.1</ele>
        <time>2020-06-28T15:06:53Z</time>
      </trkpt>
      <trkpt lat="48.66439" lon="7.54635">
        <ele>248.4</ele>
        <time>2020-06-28T15:06:54Z</time>
      </trkpt>
      <trkpt lat="48.6644" lon="7.54631">
        <ele>248.6</ele>
        <time>2020-06-28T15:06:55Z</time>
      </trkpt>
      <trkpt lat="48.66441" lon="7.54626">
        <ele>248.8</ele>
        <time>2020-06-28T15:06:56Z</time>
      </trkpt>
      <trkpt lat="48.66443" lon="7.54621">
        <ele>249</ele>
        <time>2020-06-28T15:06:57Z</time>
      </trkpt>
      <trkpt lat="48.66443" lon="7.54619">
        <ele>249.1</ele>
        <time>2020-06-28T15:06:58Z</time>
      </trkpt>
      <trkpt lat="48.66444" lon="7.54614">
        <ele>249.4</ele>
        <time>2020-06-28T15:06:59Z</time>
      </trkpt>
      <trkpt lat="48.66444" lon="7.54612">
        <ele>249.5</ele>
        <time>2020-06-28T15:07:00Z</time>
      </trkpt>
      <trkpt lat="48.66446" lon="7.54609">
        <ele>249.7</ele>
        <time>2020-06-28T15:07:01Z</time>
      </trkpt>
      <trkpt lat="48.66447" lon="7.54603">
        <ele>250</ele>
        <time>2020-06-28T15:07:02Z</time>
      </trkpt>
      <trkpt lat="48.66448" lon="7.54602">
        <ele>250.1</ele>
        <time>2020-06-28T15:07:03Z</time>
      </trkpt>
      <trkpt lat="48.6645" lon="7.54597">
        <ele>250.4</ele>
        <time>2020-06-28T15:07:04Z</time>
      </trkpt>
      <trkpt lat="48.6645" lon="7.54595">
        <ele>250.5</ele>
        <time>2020-06-28T15:07:05Z</time>
      </trkpt>
      <trkpt lat="48.66452" lon="7.5459">
        <ele>250.8</ele>
        <time>2020-06-28T15:07:06Z</time>
      </trkpt>
      <trkpt lat="48.66453" lon="7.54588">
        <ele>250.9</ele>
        <time>2020-06-28T15:07:07Z</time>
      </trkpt>
      <trkpt lat="48.66453" lon="7.54584">
        <ele>251.1</ele>
        <time>2020-06-28T15:07:08Z</time>
      </trkpt>
      <trkpt lat="48.66454" lon="7.54578">
        <ele>251.3</ele>
        <time>2020-06-28T15:07:09Z</time>
      </trkpt>
      <trkpt lat="48.66454" lon="7.54576">
        <ele>251.4</ele>
        <time>2020-06-28T15:07:10Z</time>
      </trkpt>
      <trkpt lat="48.66456" lon="7.54573">
        <ele>251.5</ele>
        <time>2020-06-28T15:07:11Z</time>
      </trkpt>
      <trkpt lat="48.66457" lon="7.54567">
        <ele>251.7</ele>
        <time>2020-06-28T15:07:12Z</time>
      </trkpt>
      <trkpt lat="48.66458" lon="7.54566">
        <ele>251.7</ele>
        <time>2020-06-28T15:07:13Z</time>
      </trkpt>
      <trkpt lat="48.66459" lon="7.54562">
        <ele>251.8</ele>
        <time>2020-06-28T15:07:14Z</time>
      </trkpt>
      <trkpt lat="48.66461" lon="7.54559">
        <ele>251.9</ele>
        <time>2020-06-28T15:07:15Z</time>
      </trkpt>
      <trkpt lat="48.66463" lon="7.54555">
        <ele>252</ele>
        <time>2020-06-28T15:07:16Z</time>
      </trkpt>
      <trkpt lat="48.66464" lon="7.54551">
        <ele>252.2</ele>
        <time>2020-06-28T15:07:17Z</time>
      </trkpt>
      <trkpt lat="48.66466" lon="7.54547">
        <ele>252.4</ele>
        <time>2020-06-28T15:07:18Z</time>
      </trkpt>
      <trkpt lat="48.66469" lon="7.54543">
        <ele>252.7</ele>
        <time>2020-06-28T15:07:19Z</time>
      </trkpt>
      <trkpt lat="48.66469" lon="7.54541">
        <ele>252.8</ele>
        <time>2020-06-28T15:07:20Z</time>
      </trkpt>
      <trkpt lat="48.6647" lon="7.54536">
        <ele>253</ele>
        <time>2020-06-28T15:07:21Z</time>
      </trkpt>
      <trkpt lat="48.66471" lon="7.54534">
        <ele>253.1</ele>
        <time>2020-06-28T15:07:22Z</time>
      </trkpt>
      <trkpt lat="48.66474" lon="7.54531">
        <ele>253.4</ele>
        <time>2020-06-28T15:07:23Z</time>
      </trkpt>
      <trkpt lat="48.66475" lon="7.54529">
        <ele>253.5</ele>
        <time>2020-06-28T15:07:24Z</time>
      </trkpt>
      <trkpt lat="48.66477" lon="7.54526">
        <ele>253.7</ele>
        <time>2020-06-28T15:07:25Z</time>
      </trkpt>
      <trkpt lat="48.66479" lon="7.54521">
        <ele>254</ele>
        <time>2020-06-28T15:07:26Z</time>
      </trkpt>
      <trkpt lat="48.6648" lon="7.54519">
        <ele>254.2</ele>
        <time>2020-06-28T15:07:27Z</time>
      </trkpt>
      <trkpt lat="48.66483" lon="7.54515">
        <ele>254.4</ele>
        <time>2020-06-28T15:07:28Z</time>
      </trkpt>
      <trkpt lat="48.66485" lon="7.5451">
        <ele>254.6</ele>
        <time>2020-06-28T15:07:29Z</time>
      </trkpt>
      <trkpt lat="48.66487" lon="7.54509">
        <ele>254.7</ele>
        <time>2020-06-28T15:07:30Z</time>
      </trkpt>
      <trkpt lat="48.66489" lon="7.54504">
        <ele>255</ele>
        <time>2020-06-28T15:07:31Z</time>
      </trkpt>
      <trkpt lat="48.6649" lon="7.54503">
        <ele>255.1</ele>
        <time>2020-06-28T15:07:32Z</time>
      </trkpt>
      <trkpt lat="48.66492" lon="7.54497">
        <ele>255.4</ele>
        <time>2020-06-28T15:07:33Z</time>
      </trkpt>
      <trkpt lat="48.66492" lon="7.54495">
        <ele>255.5</ele>
        <time>2020-06-28T15:07:34Z</time>
      </trkpt>
      <trkpt lat="48.66494" lon="7.5449">
        <ele>255.7</ele>
        <time>2020-06-28T15:07:35Z</time>
      </trkpt>
      <trkpt lat="48.66496" lon="7.54487">
        <ele>256.1</ele>
        <time>2020-06-28T15:07:36Z</time>
      </trkpt>
      <trkpt lat="48.66499" lon="7.54484">
        <ele>256.3</ele>
        <time>2020-06-28T15:07:37Z</time>
      </trkpt>
      <trkpt lat="48.66501" lon="7.54479">
        <ele>256.5</ele>
        <time>2020-06-28T15:07:38Z</time>
      </trkpt>
      <trkpt lat="48.66502" lon="7.54478">
        <ele>256.6</ele>
        <time>2020-06-28T15:07:39Z</time>
      </trkpt>
      <trkpt lat="48.66504" lon="7.54473">
        <ele>256.8</ele>
        <time>2020-06-28T15:07:40Z</time>
      </trkpt>
      <trkpt lat="48.66505" lon="7.54471">
        <ele>256.9</ele>
        <time>2020-06-28T15:07:41Z</time>
      </trkpt>
      <trkpt lat="48.66506" lon="7.54468">
        <ele>257.1</ele>
        <time>2020-06-28T15:07:42Z</time>
      </trkpt>
      <trkpt lat="48.66509" lon="7.54465">
        <ele>257.3</ele>
        <time>2020-06-28T15:07:43Z</time>
      </trkpt>
      <trkpt lat="48.66511" lon="7.54462">
        <ele>257.5</ele>
        <time>2020-06-28T15:07:44Z</time>
      </trkpt>
      <trkpt lat="48.66513" lon="7.54458">
        <ele>257.7</ele>
        <time>2020-06-28T15:07:45Z</time>
      </trkpt>
      <trkpt lat="48.66515" lon="7.54454">
        <ele>257.9</ele>
        <time>2020-06-28T15:07:46Z</time>
      </trkpt>
      <trkpt lat="48.66516" lon="7.5445">
        <ele>258.1</ele>
        <time>2020-06-28T15:07:47Z</time>
      </trkpt>
      <trkpt lat="48.66517" lon="7.54449">
        <ele>258.2</ele>
        <time>2020-06-28T15:07:48Z</time>
      </trkpt>
      <trkpt lat="48.6652" lon="7.54444">
        <ele>258.5</ele>
        <time>2020-06-28T15:07:49Z</time>
      </trkpt>
      <trkpt lat="48.66521" lon="7.54443">
        <ele>258.6</ele>
        <time>2020-06-28T15:07:50Z</time>
      </trkpt>
      <trkpt lat="48.66523" lon="7.54438">
        <ele>258.9</ele>
        <time>2020-06-28T15:07:51Z</time>
      </trkpt>
      <trkpt lat="48.66523" lon="7.54436">
        <ele>258.9</ele>
        <time>2020-06-28T15:07:52Z</time>
      </trkpt>
      <trkpt lat="48.66526" lon="7.54433">
        <ele>259.2</ele>
        <time>2020-06-28T15:07:53Z</time>
      </trkpt>
      <trkpt lat="48.66526" lon="7.54432">
        <ele>259.2</ele>
        <time>2020-06-28T15:07:54Z</time>
      </trkpt>
      <trkpt lat="48.66529" lon="7.54428">
        <ele>259.5</ele>
        <time>2020-06-28T15:07:55Z</time>
      </trkpt>
      <trkpt lat="48.6653" lon="7.54426">
        <ele>259.6</ele>
        <time>2020-06-28T15:07:56Z</time>
      </trkpt>
      <trkpt lat="48.66533" lon="7.54421">
        <ele>259.8</ele>
        <time>2020-06-28T15:07:57Z</time>
      </trkpt>
      <trkpt lat="48.66533" lon="7.5442">
        <ele>259.9</ele>
        <time>2020-06-28T15:07:58Z</time>
      </trkpt>
      <trkpt lat="48.66534" lon="7.54416">
        <ele>260.1</ele>
        <time>2020-06-28T15:07:59Z</time>
      </trkpt>
      <trkpt lat="48.66536" lon="7.54413">
        <ele>260.3</ele>
        <time>2020-06-28T15:08:00Z</time>
      </trkpt>
      <trkpt lat="48.66538" lon="7.54408">
        <ele>260.5</ele>
        <time>2020-06-28T15:08:01Z</time>
      </trkpt>
      <trkpt lat="48.66539" lon="7.54407">
        <ele>260.6</ele>
        <time>2020-06-28T15:08:02Z</time>
      </trkpt>
      <trkpt lat="48.66541" lon="7.54402">
        <ele>260.9</ele>
        <time>2020-06-28T15:08:03Z</time>
      </trkpt>
      <trkpt lat="48.66542" lon="7.54401">
        <ele>261</ele>
        <time>2020-06-28T15:08:04Z</time>
      </trkpt>
      <trkpt lat="48.66543" lon="7.54397">
        <ele>261.2</ele>
        <time>2020-06-28T15:08:05Z</time>
      </trkpt>
      <trkpt lat="48.66544" lon="7.54395">
        <ele>261.3</ele>
        <time>2020-06-28T15:08:06Z</time>
      </trkpt>
      <trkpt lat="48.66546" lon="7.54391">
        <ele>261.5</ele>
        <time>2020-06-28T15:08:07Z</time>
      </trkpt>
      <trkpt lat="48.66547" lon="7.5439">
        <ele>261.6</ele>
        <time>2020-06-28T15:08:08Z</time>
      </trkpt>
      <trkpt lat="48.66549" lon="7.54387">
        <ele>261.8</ele>
        <time>2020-06-28T15:08:09Z</time>
      </trkpt>
      <trkpt lat="48.66552" lon="7.54384">
        <ele>262</ele>
        <time>2020-06-28T15:08:10Z</time>
      </trkpt>
      <trkpt lat="48.66553" lon="7.54379">
        <ele>262.3</ele>
        <time>2020-06-28T15:08:11Z</time>
      </trkpt>
      <trkpt lat="48.66554" lon="7.54377">
        <ele>262.4</ele>
        <time>2020-06-28T15:08:12Z</time>
      </trkpt>
      <trkpt lat="48.66557" lon="7.54376">
        <ele>262.6</ele>
        <time>2020-06-28T15:08:13Z</time>
      </trkpt>
      <trkpt lat="48.66559" lon="7.54373">
        <ele>262.8</ele>
        <time>2020-06-28T15:08:14Z</time>
      </trkpt>
      <trkpt lat="48.66561" lon="7.54369">
        <ele>263</ele>
        <time>2020-06-28T15:08:15Z</time>
      </trkpt>
      <trkpt lat="48.66562" lon="7.54367">
        <ele>263.1</ele>
        <time>2020-06-28T15:08:16Z</time>
      </trkpt>
      <trkpt lat="48.66564" lon="7.54363">
        <ele>263.4</ele>
        <time>2020-06-28T15:08:17Z</time>
      </trkpt>
      <trkpt lat="48.66566" lon="7.54359">
        <ele>263.6</ele>
        <time>2020-06-28T15:08:18Z</time>
      </trkpt>
      <trkpt lat="48.66566" lon="7.54354">
        <ele>263.9</ele>
        <time>2020-06-28T15:08:19Z</time>
      </trkpt>
      <trkpt lat="48.66568" lon="7.54351">
        <ele>264.1</ele>
        <time>2020-06-28T15:08:20Z</time>
      </trkpt>
      <trkpt lat="48.6657" lon="7.54347">
        <ele>264.4</ele>
        <time>2020-06-28T15:08:21Z</time>
      </trkpt>
      <trkpt lat="48.66572" lon="7.54343">
        <ele>264.6</ele>
        <time>2020-06-28T15:08:22Z</time>
      </trkpt>
      <trkpt lat="48.66573" lon="7.54341">
        <ele>264.7</ele>
        <time>2020-06-28T15:08:23Z</time>
      </trkpt>
      <trkpt lat="48.66576" lon="7.54337">
        <ele>265</ele>
        <time>2020-06-28T15:08:24Z</time>
      </trkpt>
      <trkpt lat="48.66576" lon="7.54335">
        <ele>265.1</ele>
        <time>2020-06-28T15:08:25Z</time>
      </trkpt>
      <trkpt lat="48.66578" lon="7.54332">
        <ele>265.3</ele>
        <time>2020-06-28T15:08:26Z</time>
      </trkpt>
      <trkpt lat="48.6658" lon="7.54328">
        <ele>265.5</ele>
        <time>2020-06-28T15:08:27Z</time>
      </trkpt>
      <trkpt lat="48.66581" lon="7.54327">
        <ele>265.6</ele>
        <time>2020-06-28T15:08:28Z</time>
      </trkpt>
      <trkpt lat="48.66583" lon="7.54322">
        <ele>265.8</ele>
        <time>2020-06-28T15:08:29Z</time>
      </trkpt>
      <trkpt lat="48.66584" lon="7.5432">
        <ele>265.9</ele>
        <time>2020-06-28T15:08:30Z</time>
      </trkpt>
      <trkpt lat="48.66585" lon="7.54317">
        <ele>266</ele>
        <time>2020-06-28T15:08:31Z</time>
      </trkpt>
      <trkpt lat="48.66587" lon="7.54312">
        <ele>266.3</ele>
        <time>2020-06-28T15:08:32Z</time>
      </trkpt>
      <trkpt lat="48.66588" lon="7.5431">
        <ele>266.4</ele>
        <time>2020-06-28T15:08:33Z</time>
      </trkpt>
      <trkpt lat="48.66591" lon="7.54306">
        <ele>266.6</ele>
        <time>2020-06-28T15:08:34Z</time>
      </trkpt>
      <trkpt lat="48.66592" lon="7.54304">
        <ele>266.7</ele>
        <time>2020-06-28T15:08:35Z</time>
      </trkpt>
      <trkpt lat="48.66594" lon="7.543">
        <ele>267</ele>
        <time>2020-06-28T15:08:36Z</time>
      </trkpt>
      <trkpt lat="48.66595" lon="7.54299">
        <ele>267</ele>
        <time>2020-06-28T15:08:37Z</time>
      </trkpt>
      <trkpt lat="48.66597" lon="7.54295">
        <ele>267.3</ele>
        <time>2020-06-28T15:08:38Z</time>
      </trkpt>
      <trkpt lat="48.66597" lon="7.54293">
        <ele>267.3</ele>
        <time>2020-06-28T15:08:39Z</time>
      </trkpt>
      <trkpt lat="48.666" lon="7.54289">
        <ele>267.6</ele>
        <time>2020-06-28T15:08:40Z</time>
      </trkpt>
      <trkpt lat="48.666" lon="7.54287">
        <ele>267.7</ele>
        <time>2020-06-28T15:08:41Z</time>
      </trkpt>
      <trkpt lat="48.66602" lon="7.54282">
        <ele>267.9</ele>
        <time>2020-06-28T15:08:42Z</time>
      </trkpt>
      <trkpt lat="48.66602" lon="7.54281">
        <ele>267.9</ele>
        <time>2020-06-28T15:08:43Z</time>
      </trkpt>
      <trkpt lat="48.66604" lon="7.54278">
        <ele>268.1</ele>
        <time>2020-06-28T15:08:44Z</time>
      </trkpt>
      <trkpt lat="48.66606" lon="7.54274">
        <ele>268.3</ele>
        <time>2020-06-28T15:08:45Z</time>
      </trkpt>
      <trkpt lat="48.66608" lon="7.5427">
        <ele>268.5</ele>
        <time>2020-06-28T15:08:46Z</time>
      </trkpt>
      <trkpt lat="48.6661" lon="7.54266">
        <ele>268.7</ele>
        <time>2020-06-28T15:08:47Z</time>
      </trkpt>
      <trkpt lat="48.66611" lon="7.54265">
        <ele>268.8</ele>
        <time>2020-06-28T15:08:48Z</time>
      </trkpt>
      <trkpt lat="48.66613" lon="7.54259">
        <ele>269</ele>
        <time>2020-06-28T15:08:49Z</time>
      </trkpt>
      <trkpt lat="48.66614" lon="7.54257">
        <ele>269.1</ele>
        <time>2020-06-28T15:08:50Z</time>
      </trkpt>
      <trkpt lat="48.66615" lon="7.54253">
        <ele>269.3</ele>
        <time>2020-06-28T15:08:51Z</time>
      </trkpt>
      <trkpt lat="48.66616" lon="7.54251">
        <ele>269.4</ele>
        <time>2020-06-28T15:08:52Z</time>
      </trkpt>
      <trkpt lat="48.66617" lon="7.54248">
        <ele>269.5</ele>
        <time>2020-06-28T15:08:53Z</time>
      </trkpt>
      <trkpt lat="48.6662" lon="7.54245">
        <ele>269.7</ele>
        <time>2020-06-28T15:08:54Z</time>
      </trkpt>
      <trkpt lat="48.66621" lon="7.5424">
        <ele>269.9</ele>
        <time>2020-06-28T15:08:55Z</time>
      </trkpt>
      <trkpt lat="48.66622" lon="7.54236">
        <ele>270.1</ele>
        <time>2020-06-28T15:08:56Z</time>
      </trkpt>
      <trkpt lat="48.66625" lon="7.54231">
        <ele>270.3</ele>
        <time>2020-06-28T15:08:57Z</time>
      </trkpt>
      <trkpt lat="48.66626" lon="7.54227">
        <ele>270.5</ele>
        <time>2020-06-28T15:08:58Z</time>
      </trkpt>
      <trkpt lat="48.66628" lon="7.54223">
        <ele>270.7</ele>
        <time>2020-06-28T15:08:59Z</time>
      </trkpt>
      <trkpt lat="48.66629" lon="7.54221">
        <ele>270.8</ele>
        <time>2020-06-28T15:09:00Z</time>
      </trkpt>
      <trkpt lat="48.66632" lon="7.54217">
        <ele>271</ele>
        <time>2020-06-28T15:09:01Z</time>
      </trkpt>
      <trkpt lat="48.66633" lon="7.54212">
        <ele>271.2</ele>
        <time>2020-06-28T15:09:02Z</time>
      </trkpt>
      <trkpt lat="48.66635" lon="7.5421">
        <ele>271.3</ele>
        <time>2020-06-28T15:09:03Z</time>
      </trkpt>
      <trkpt lat="48.66636" lon="7.54206">
        <ele>271.4</ele>
        <time>2020-06-28T15:09:04Z</time>
      </trkpt>
      <trkpt lat="48.66637" lon="7.54202">
        <ele>271.6</ele>
        <time>2020-06-28T15:09:05Z</time>
      </trkpt>
      <trkpt lat="48.66638" lon="7.54197">
        <ele>271.8</ele>
        <time>2020-06-28T15:09:06Z</time>
      </trkpt>
      <trkpt lat="48.6664" lon="7.54192">
        <ele>271.9</ele>
        <time>2020-06-28T15:09:07Z</time>
      </trkpt>
      <trkpt lat="48.6664" lon="7.54187">
        <ele>272</ele>
        <time>2020-06-28T15:09:08Z</time>
      </trkpt>
      <trkpt lat="48.6664" lon="7.54183">
        <ele>272.2</ele>
        <time>2020-06-28T15:09:09Z</time>
      </trkpt>
      <trkpt lat="48.66642" lon="7.54178">
        <ele>272.3</ele>
        <time>2020-06-28T15:09:10Z</time>
      </trkpt>
      <trkpt lat="48.66643" lon="7.54174">
        <ele>272.4</ele>
        <time>2020-06-28T15:09:11Z</time>
      </trkpt>
      <trkpt lat="48.66646" lon="7.54169">
        <ele>272.5</ele>
        <time>2020-06-28T15:09:12Z</time>
      </trkpt>
      <trkpt lat="48.66646" lon="7.54165">
        <ele>272.6</ele>
        <time>2020-06-28T15:09:13Z</time>
      </trkpt>
      <trkpt lat="48.66648" lon="7.54161">
        <ele>272.7</ele>
        <time>2020-06-28T15:09:14Z</time>
      </trkpt>
      <trkpt lat="48.66649" lon="7.54156">
        <ele>272.8</ele>
        <time>2020-06-28T15:09:15Z</time>
      </trkpt>
      <trkpt lat="48.6665" lon="7.54152">
        <ele>272.9</ele>
        <time>2020-06-28T15:09:16Z</time>
      </trkpt>
      <trkpt lat="48.66652" lon="7.54148">
        <ele>273</ele>
        <time>2020-06-28T15:09:17Z</time>
      </trkpt>
      <trkpt lat="48.66653" lon="7.54143">
        <ele>273.1</ele>
        <time>2020-06-28T15:09:18Z</time>
      </trkpt>
      <trkpt lat="48.66655" lon="7.54139">
        <ele>273.1</ele>
        <time>2020-06-28T15:09:19Z</time>
      </trkpt>
      <trkpt lat="48.66655" lon="7.54134">
        <ele>273.2</ele>
        <time>2020-06-28T15:09:20Z</time>
      </trkpt>
      <trkpt lat="48.66657" lon="7.5413">
        <ele>273.3</ele>
        <time>2020-06-28T15:09:21Z</time>
      </trkpt>
      <trkpt lat="48.66658" lon="7.54126">
        <ele>273.3</ele>
        <time>2020-06-28T15:09:22Z</time>
      </trkpt>
      <trkpt lat="48.66658" lon="7.54121">
        <ele>273.4</ele>
        <time>2020-06-28T15:09:23Z</time>
      </trkpt>
      <trkpt lat="48.6666" lon="7.54116">
        <ele>273.4</ele>
        <time>2020-06-28T15:09:24Z</time>
      </trkpt>
      <trkpt lat="48.66662" lon="7.54112">
        <ele>273.5</ele>
        <time>2020-06-28T15:09:25Z</time>
      </trkpt>
      <trkpt lat="48.66663" lon="7.54108">
        <ele>273.5</ele>
        <time>2020-06-28T15:09:26Z</time>
      </trkpt>
      <trkpt lat="48.66665" lon="7.54104">
        <ele>273.6</ele>
        <time>2020-06-28T15:09:27Z</time>
      </trkpt>
      <trkpt lat="48.66666" lon="7.54099">
        <ele>273.6</ele>
        <time>2020-06-28T15:09:28Z</time>
      </trkpt>
      <trkpt lat="48.66669" lon="7.54095">
        <ele>273.6</ele>
        <time>2020-06-28T15:09:29Z</time>
      </trkpt>
      <trkpt lat="48.6667" lon="7.5409">
        <ele>273.6</ele>
        <time>2020-06-28T15:09:30Z</time>
      </trkpt>
      <trkpt lat="48.66672" lon="7.54086">
        <ele>273.6</ele>
        <time>2020-06-28T15:09:31Z</time>
      </trkpt>
      <trkpt lat="48.66673" lon="7.54082">
        <ele>273.6</ele>
        <time>2020-06-28T15:09:32Z</time>
      </trkpt>
      <trkpt lat="48.66674" lon="7.54078">
        <ele>273.6</ele>
        <time>2020-06-28T15:09:33Z</time>
      </trkpt>
      <trkpt lat="48.66674" lon="7.54076">
        <ele>273.6</ele>
        <time>2020-06-28T15:09:34Z</time>
      </trkpt>
      <trkpt lat="48.66676" lon="7.54071">
        <ele>273.6</ele>
        <time>2020-06-28T15:09:35Z</time>
      </trkpt>
      <trkpt lat="48.66676" lon="7.54069">
        <ele>273.6</ele>
        <time>2020-06-28T15:09:36Z</time>
      </trkpt>
      <trkpt lat="48.66677" lon="7.54063">
        <ele>273.5</ele>
        <time>2020-06-28T15:09:37Z</time>
      </trkpt>
      <trkpt lat="48.66678" lon="7.54061">
        <ele>273.5</ele>
        <time>2020-06-28T15:09:38Z</time>
      </trkpt>
      <trkpt lat="48.6668" lon="7.54057">
        <ele>273.5</ele>
        <time>2020-06-28T15:09:39Z</time>
      </trkpt>
      <trkpt lat="48.66681" lon="7.54056">
        <ele>273.4</ele>
        <time>2020-06-28T15:09:40Z</time>
      </trkpt>
      <trkpt lat="48.66683" lon="7.54052">
        <ele>273.4</ele>
        <time>2020-06-28T15:09:41Z</time>
      </trkpt>
      <trkpt lat="48.66685" lon="7.54048">
        <ele>273.3</ele>
        <time>2020-06-28T15:09:42Z</time>
      </trkpt>
      <trkpt lat="48.66686" lon="7.54044">
        <ele>273.3</ele>
        <time>2020-06-28T15:09:43Z</time>
      </trkpt>
      <trkpt lat="48.66688" lon="7.54041">
        <ele>273.2</ele>
        <time>2020-06-28T15:09:44Z</time>
      </trkpt>
      <trkpt lat="48.66689" lon="7.54037">
        <ele>273.2</ele>
        <time>2020-06-28T15:09:45Z</time>
      </trkpt>
      <trkpt lat="48.66691" lon="7.54033">
        <ele>273.1</ele>
        <time>2020-06-28T15:09:46Z</time>
      </trkpt>
      <trkpt lat="48.66694" lon="7.54029">
        <ele>273</ele>
        <time>2020-06-28T15:09:47Z</time>
      </trkpt>
      <trkpt lat="48.66696" lon="7.54026">
        <ele>272.9</ele>
        <time>2020-06-28T15:09:48Z</time>
      </trkpt>
      <trkpt lat="48.66698" lon="7.54022">
        <ele>272.8</ele>
        <time>2020-06-28T15:09:49Z</time>
      </trkpt>
      <trkpt lat="48.66701" lon="7.5402">
        <ele>272.6</ele>
        <time>2020-06-28T15:09:50Z</time>
      </trkpt>
      <trkpt lat="48.66702" lon="7.5402">
        <ele>272.6</ele>
        <time>2020-06-28T15:09:51Z</time>
      </trkpt>
      <trkpt lat="48.66702" lon="7.54021">
        <ele>272.6</ele>
        <time>2020-06-28T15:09:52Z</time>
      </trkpt>
      <trkpt lat="48.66702" lon="7.54019">
        <ele>272.6</ele>
        <time>2020-06-28T15:09:53Z</time>
      </trkpt>
      <trkpt lat="48.66702" lon="7.5402">
        <ele>272.5</ele>
        <time>2020-06-28T15:09:54Z</time>
      </trkpt>
      <trkpt lat="48.66701" lon="7.54021">
        <ele>272.5</ele>
        <time>2020-06-28T15:09:55Z</time>
      </trkpt>
      <trkpt lat="48.66701" lon="7.54021">
        <ele>272.5</ele>
        <time>2020-06-28T15:09:56Z</time>
      </trkpt>
      <trkpt lat="48.66701" lon="7.54023">
        <ele>272.4</ele>
        <time>2020-06-28T15:09:57Z</time>
      </trkpt>
      <trkpt lat="48.667" lon="7.54024">
        <ele>272.4</ele>
        <time>2020-06-28T15:09:58Z</time>
      </trkpt>
      <trkpt lat="48.66702" lon="7.54023">
        <ele>272.3</ele>
        <time>2020-06-28T15:09:59Z</time>
      </trkpt>
      <trkpt lat="48.66703" lon="7.54021">
        <ele>272.3</ele>
        <time>2020-06-28T15:10:00Z</time>
      </trkpt>
      <trkpt lat="48.66704" lon="7.54018">
        <ele>272.2</ele>
        <time>2020-06-28T15:10:01Z</time>
      </trkpt>
      <trkpt lat="48.66705" lon="7.54016">
        <ele>272.1</ele>
        <time>2020-06-28T15:10:02Z</time>
      </trkpt>
      <trkpt lat="48.66706" lon="7.54013">
        <ele>272</ele>
        <time>2020-06-28T15:10:03Z</time>
      </trkpt>
      <trkpt lat="48.66706" lon="7.54011">
        <ele>272</ele>
        <time>2020-06-28T15:10:04Z</time>
      </trkpt>
      <trkpt lat="48.66707" lon="7.54009">
        <ele>271.9</ele>
        <time>2020-06-28T15:12:09Z</time>
      </trkpt>
      <trkpt lat="48.66708" lon="7.54006">
        <ele>271.8</ele>
        <time>2020-06-28T15:12:10Z</time>
      </trkpt>
      <trkpt lat="48.6671" lon="7.54001">
        <ele>271.6</ele>
        <time>2020-06-28T15:12:11Z</time>
      </trkpt>
      <trkpt lat="48.66712" lon="7.53997">
        <ele>271.4</ele>
        <time>2020-06-28T15:12:12Z</time>
      </trkpt>
      <trkpt lat="48.66715" lon="7.53991">
        <ele>271.1</ele>
        <time>2020-06-28T15:12:13Z</time>
      </trkpt>
      <trkpt lat="48.66718" lon="7.53985">
        <ele>270.8</ele>
        <time>2020-06-28T15:12:14Z</time>
      </trkpt>
      <trkpt lat="48.66721" lon="7.53979">
        <ele>270.5</ele>
        <time>2020-06-28T15:12:15Z</time>
      </trkpt>
      <trkpt lat="48.66725" lon="7.53973">
        <ele>270.5</ele>
        <time>2020-06-28T15:12:16Z</time>
      </trkpt>
      <trkpt lat="48.66728" lon="7.53966">
        <ele>270.4</ele>
        <time>2020-06-28T15:12:17Z</time>
      </trkpt>
      <trkpt lat="48.66731" lon="7.53956">
        <ele>270</ele>
        <time>2020-06-28T15:12:18Z</time>
      </trkpt>
      <trkpt lat="48.66734" lon="7.53949">
        <ele>269.6</ele>
        <time>2020-06-28T15:12:19Z</time>
      </trkpt>
      <trkpt lat="48.66736" lon="7.5394">
        <ele>269.2</ele>
        <time>2020-06-28T15:12:20Z</time>
      </trkpt>
      <trkpt lat="48.6674" lon="7.53933">
        <ele>268.7</ele>
        <time>2020-06-28T15:12:21Z</time>
      </trkpt>
      <trkpt lat="48.66744" lon="7.53925">
        <ele>268.2</ele>
        <time>2020-06-28T15:12:22Z</time>
      </trkpt>
      <trkpt lat="48.66748" lon="7.53917">
        <ele>267.7</ele>
        <time>2020-06-28T15:12:23Z</time>
      </trkpt>
      <trkpt lat="48.66752" lon="7.53909">
        <ele>267.1</ele>
        <time>2020-06-28T15:12:24Z</time>
      </trkpt>
      <trkpt lat="48.66756" lon="7.53899">
        <ele>266.4</ele>
        <time>2020-06-28T15:12:25Z</time>
      </trkpt>
      <trkpt lat="48.66761" lon="7.53891">
        <ele>265.8</ele>
        <time>2020-06-28T15:12:26Z</time>
      </trkpt>
      <trkpt lat="48.66766" lon="7.53881">
        <ele>265.1</ele>
        <time>2020-06-28T15:12:27Z</time>
      </trkpt>
      <trkpt lat="48.66771" lon="7.53871">
        <ele>264.5</ele>
        <time>2020-06-28T15:12:28Z</time>
      </trkpt>
      <trkpt lat="48.66776" lon="7.53862">
        <ele>263.8</ele>
        <time>2020-06-28T15:12:29Z</time>
      </trkpt>
      <trkpt lat="48.6678" lon="7.53849">
        <ele>262.9</ele>
        <time>2020-06-28T15:12:30Z</time>
      </trkpt>
      <trkpt lat="48.66785" lon="7.53838">
        <ele>262.1</ele>
        <time>2020-06-28T15:12:31Z</time>
      </trkpt>
      <trkpt lat="48.66789" lon="7.53826">
        <ele>261.3</ele>
        <time>2020-06-28T15:12:32Z</time>
      </trkpt>
      <trkpt lat="48.66793" lon="7.53814">
        <ele>260.5</ele>
        <time>2020-06-28T15:12:33Z</time>
      </trkpt>
      <trkpt lat="48.66798" lon="7.53802">
        <ele>259.7</ele>
        <time>2020-06-28T15:12:34Z</time>
      </trkpt>
      <trkpt lat="48.66802" lon="7.5379">
        <ele>258.9</ele>
        <time>2020-06-28T15:12:35Z</time>
      </trkpt>
      <trkpt lat="48.66807" lon="7.53778">
        <ele>258.2</ele>
        <time>2020-06-28T15:12:36Z</time>
      </trkpt>
      <trkpt lat="48.66811" lon="7.53766">
        <ele>257.5</ele>
        <time>2020-06-28T15:12:37Z</time>
      </trkpt>
      <trkpt lat="48.66816" lon="7.53754">
        <ele>256.8</ele>
        <time>2020-06-28T15:12:38Z</time>
      </trkpt>
      <trkpt lat="48.66821" lon="7.53742">
        <ele>256.1</ele>
        <time>2020-06-28T15:12:39Z</time>
      </trkpt>
      <trkpt lat="48.66827" lon="7.53729">
        <ele>255.2</ele>
        <time>2020-06-28T15:12:40Z</time>
      </trkpt>
      <trkpt lat="48.66832" lon="7.53717">
        <ele>254.3</ele>
        <time>2020-06-28T15:12:41Z</time>
      </trkpt>
      <trkpt lat="48.66838" lon="7.53704">
        <ele>253.3</ele>
        <time>2020-06-28T15:12:42Z</time>
      </trkpt>
      <trkpt lat="48.66844" lon="7.53692">
        <ele>252.3</ele>
        <time>2020-06-28T15:12:43Z</time>
      </trkpt>
      <trkpt lat="48.6685" lon="7.5368">
        <ele>251.5</ele>
        <time>2020-06-28T15:12:44Z</time>
      </trkpt>
      <trkpt lat="48.66856" lon="7.53667">
        <ele>250.7</ele>
        <time>2020-06-28T15:12:45Z</time>
      </trkpt>
      <trkpt lat="48.66861" lon="7.53655">
        <ele>249.9</ele>
        <time>2020-06-28T15:12:46Z</time>
      </trkpt>
      <trkpt lat="48.66867" lon="7.53643">
        <ele>249.2</ele>
        <time>2020-06-28T15:12:47Z</time>
      </trkpt>
      <trkpt lat="48.66872" lon="7.53631">
        <ele>248.5</ele>
        <time>2020-06-28T15:12:48Z</time>
      </trkpt>
      <trkpt lat="48.66878" lon="7.5362">
        <ele>247.8</ele>
        <time>2020-06-28T15:12:49Z</time>
      </trkpt>
      <trkpt lat="48.66883" lon="7.53608">
        <ele>247.1</ele>
        <time>2020-06-28T15:12:50Z</time>
      </trkpt>
      <trkpt lat="48.66889" lon="7.53596">
        <ele>246.3</ele>
        <time>2020-06-28T15:12:51Z</time>
      </trkpt>
      <trkpt lat="48.66894" lon="7.53583">
        <ele>245.5</ele>
        <time>2020-06-28T15:12:52Z</time>
      </trkpt>
      <trkpt lat="48.66898" lon="7.53569">
        <ele>244.6</ele>
        <time>2020-06-28T15:12:53Z</time>
      </trkpt>
      <trkpt lat="48.66903" lon="7.53555">
        <ele>243.8</ele>
        <time>2020-06-28T15:12:54Z</time>
      </trkpt>
      <trkpt lat="48.66907" lon="7.5354">
        <ele>242.8</ele>
        <time>2020-06-28T15:12:55Z</time>
      </trkpt>
      <trkpt lat="48.66911" lon="7.53524">
        <ele>241.9</ele>
        <time>2020-06-28T15:12:56Z</time>
      </trkpt>
      <trkpt lat="48.66915" lon="7.53508">
        <ele>240.9</ele>
        <time>2020-06-28T15:12:57Z</time>
      </trkpt>
      <trkpt lat="48.66919" lon="7.53491">
        <ele>240</ele>
        <time>2020-06-28T15:12:58Z</time>
      </trkpt>
      <trkpt lat="48.66922" lon="7.53475">
        <ele>239.1</ele>
        <time>2020-06-28T15:12:59Z</time>
      </trkpt>
      <trkpt lat="48.66926" lon="7.53458">
        <ele>238.3</ele>
        <time>2020-06-28T15:13:00Z</time>
      </trkpt>
      <trkpt lat="48.66929" lon="7.53441">
        <ele>237.4</ele>
        <time>2020-06-28T15:13:01Z</time>
      </trkpt>
      <trkpt lat="48.66932" lon="7.53423">
        <ele>236.4</ele>
        <time>2020-06-28T15:13:02Z</time>
      </trkpt>
      <trkpt lat="48.66935" lon="7.53406">
        <ele>235.5</ele>
        <time>2020-06-28T15:13:03Z</time>
      </trkpt>
      <trkpt lat="48.66938" lon="7.53388">
        <ele>234.5</ele>
        <time>2020-06-28T15:13:04Z</time>
      </trkpt>
      <trkpt lat="48.6694" lon="7.53369">
        <ele>233.6</ele>
        <time>2020-06-28T15:13:05Z</time>
      </trkpt>
      <trkpt lat="48.66942" lon="7.5335">
        <ele>232.6</ele>
        <time>2020-06-28T15:13:06Z</time>
      </trkpt>
      <trkpt lat="48.66944" lon="7.53331">
        <ele>231.7</ele>
        <time>2020-06-28T15:13:07Z</time>
      </trkpt>
      <trkpt lat="48.66946" lon="7.53312">
        <ele>230.8</ele>
        <time>2020-06-28T15:13:08Z</time>
      </trkpt>
      <trkpt lat="48.66948" lon="7.53292">
        <ele>229.9</ele>
        <time>2020-06-28T15:13:09Z</time>
      </trkpt>
      <trkpt lat="48.6695" lon="7.53272">
        <ele>229.2</ele>
        <time>2020-06-28T15:13:10Z</time>
      </trkpt>
      <trkpt lat="48.66952" lon="7.53252">
        <ele>228.5</ele>
        <time>2020-06-28T15:13:11Z</time>
      </trkpt>
      <trkpt lat="48.66953" lon="7.53233">
        <ele>228</ele>
        <time>2020-06-28T15:13:12Z</time>
      </trkpt>
      <trkpt lat="48.66955" lon="7.53214">
        <ele>227.5</ele>
        <time>2020-06-28T15:13:13Z</time>
      </trkpt>
      <trkpt lat="48.66956" lon="7.53195">
        <ele>227</ele>
        <time>2020-06-28T15:13:14Z</time>
      </trkpt>
      <trkpt lat="48.66957" lon="7.53178">
        <ele>226.6</ele>
        <time>2020-06-28T15:13:15Z</time>
      </trkpt>
      <trkpt lat="48.66959" lon="7.5316">
        <ele>226.3</ele>
        <time>2020-06-28T15:13:16Z</time>
      </trkpt>
      <trkpt lat="48.6696" lon="7.53143">
        <ele>226</ele>
        <time>2020-06-28T15:13:17Z</time>
      </trkpt>
      <trkpt lat="48.66962" lon="7.53126">
        <ele>225.7</ele>
        <time>2020-06-28T15:13:18Z</time>
      </trkpt>
      <trkpt lat="48.66963" lon="7.5311">
        <ele>225.4</ele>
        <time>2020-06-28T15:13:19Z</time>
      </trkpt>
      <trkpt lat="48.66965" lon="7.53094">
        <ele>225.1</ele>
        <time>2020-06-28T15:13:20Z</time>
      </trkpt>
      <trkpt lat="48.66966" lon="7.53078">
        <ele>224.9</ele>
        <time>2020-06-28T15:13:21Z</time>
      </trkpt>
      <trkpt lat="48.66967" lon="7.53062">
        <ele>224.7</ele>
        <time>2020-06-28T15:13:22Z</time>
      </trkpt>
      <trkpt lat="48.66968" lon="7.53047">
        <ele>224.8</ele>
        <time>2020-06-28T15:13:23Z</time>
      </trkpt>
      <trkpt lat="48.66969" lon="7.53032">
        <ele>224.9</ele>
        <time>2020-06-28T15:13:24Z</time>
      </trkpt>
      <trkpt lat="48.66969" lon="7.53018">
        <ele>225</ele>
        <time>2020-06-28T15:13:25Z</time>
      </trkpt>
      <trkpt lat="48.6697" lon="7.53004">
        <ele>225.2</ele>
        <time>2020-06-28T15:13:26Z</time>
      </trkpt>
      <trkpt lat="48.66971" lon="7.52991">
        <ele>225.4</ele>
        <time>2020-06-28T15:13:27Z</time>
      </trkpt>
      <trkpt lat="48.66971" lon="7.52978">
        <ele>225.6</ele>
        <time>2020-06-28T15:13:28Z</time>
      </trkpt>
      <trkpt lat="48.66972" lon="7.52966">
        <ele>225.9</ele>
        <time>2020-06-28T15:13:29Z</time>
      </trkpt>
      <trkpt lat="48.66973" lon="7.52955">
        <ele>226.2</ele>
        <time>2020-06-28T15:13:30Z</time>
      </trkpt>
      <trkpt lat="48.66974" lon="7.52944">
        <ele>226.6</ele>
        <time>2020-06-28T15:13:31Z</time>
      </trkpt>
      <trkpt lat="48.66974" lon="7.52933">
        <ele>227</ele>
        <time>2020-06-28T15:13:32Z</time>
      </trkpt>
      <trkpt lat="48.66975" lon="7.52922">
        <ele>227.4</ele>
        <time>2020-06-28T15:13:33Z</time>
      </trkpt>
      <trkpt lat="48.66976" lon="7.52912">
        <ele>227.9</ele>
        <time>2020-06-28T15:13:34Z</time>
      </trkpt>
      <trkpt lat="48.66976" lon="7.52902">
        <ele>228.3</ele>
        <time>2020-06-28T15:13:35Z</time>
      </trkpt>
      <trkpt lat="48.66977" lon="7.52893">
        <ele>228.7</ele>
        <time>2020-06-28T15:13:36Z</time>
      </trkpt>
      <trkpt lat="48.66977" lon="7.52884">
        <ele>229.1</ele>
        <time>2020-06-28T15:13:37Z</time>
      </trkpt>
      <trkpt lat="48.66976" lon="7.52876">
        <ele>229.4</ele>
        <time>2020-06-28T15:13:38Z</time>
      </trkpt>
      <trkpt lat="48.66976" lon="7.52869">
        <ele>229.8</ele>
        <time>2020-06-28T15:13:39Z</time>
      </trkpt>
      <trkpt lat="48.66975" lon="7.52861">
        <ele>230.2</ele>
        <time>2020-06-28T15:13:40Z</time>
      </trkpt>
      <trkpt lat="48.66975" lon="7.52854">
        <ele>230.5</ele>
        <time>2020-06-28T15:13:41Z</time>
      </trkpt>
      <trkpt lat="48.66975" lon="7.52847">
        <ele>230.9</ele>
        <time>2020-06-28T15:13:42Z</time>
      </trkpt>
      <trkpt lat="48.66975" lon="7.5284">
        <ele>231.3</ele>
        <time>2020-06-28T15:13:43Z</time>
      </trkpt>
      <trkpt lat="48.66976" lon="7.52834">
        <ele>231.6</ele>
        <time>2020-06-28T15:13:44Z</time>
      </trkpt>
      <trkpt lat="48.66976" lon="7.52828">
        <ele>231.8</ele>
        <time>2020-06-28T15:13:45Z</time>
      </trkpt>
      <trkpt lat="48.66977" lon="7.52822">
        <ele>232.1</ele>
        <time>2020-06-28T15:13:46Z</time>
      </trkpt>
      <trkpt lat="48.66977" lon="7.52817">
        <ele>232.3</ele>
        <time>2020-06-28T15:13:47Z</time>
      </trkpt>
      <trkpt lat="48.66977" lon="7.52813">
        <ele>232.5</ele>
        <time>2020-06-28T15:13:48Z</time>
      </trkpt>
      <trkpt lat="48.66978" lon="7.52809">
        <ele>232.7</ele>
        <time>2020-06-28T15:13:49Z</time>
      </trkpt>
      <trkpt lat="48.66978" lon="7.52804">
        <ele>232.9</ele>
        <time>2020-06-28T15:13:50Z</time>
      </trkpt>
      <trkpt lat="48.66979" lon="7.528">
        <ele>233</ele>
        <time>2020-06-28T15:13:51Z</time>
      </trkpt>
      <trkpt lat="48.66979" lon="7.52794">
        <ele>233.3</ele>
        <time>2020-06-28T15:13:52Z</time>
      </trkpt>
      <trkpt lat="48.66979" lon="7.52792">
        <ele>233.4</ele>
        <time>2020-06-28T15:13:53Z</time>
      </trkpt>
      <trkpt lat="48.66979" lon="7.52787">
        <ele>233.7</ele>
        <time>2020-06-28T15:13:54Z</time>
      </trkpt>
      <trkpt lat="48.66979" lon="7.52783">
        <ele>233.9</ele>
        <time>2020-06-28T15:13:55Z</time>
      </trkpt>
      <trkpt lat="48.66979" lon="7.52778">
        <ele>234.2</ele>
        <time>2020-06-28T15:13:56Z</time>
      </trkpt>
      <trkpt lat="48.66979" lon="7.52772">
        <ele>234.5</ele>
        <time>2020-06-28T15:13:57Z</time>
      </trkpt>
      <trkpt lat="48.66979" lon="7.52767">
        <ele>234.8</ele>
        <time>2020-06-28T15:13:58Z</time>
      </trkpt>
      <trkpt lat="48.66979" lon="7.52762">
        <ele>235</ele>
        <time>2020-06-28T15:13:59Z</time>
      </trkpt>
      <trkpt lat="48.6698" lon="7.52757">
        <ele>235.3</ele>
        <time>2020-06-28T15:14:00Z</time>
      </trkpt>
      <trkpt lat="48.66979" lon="7.52752">
        <ele>235.6</ele>
        <time>2020-06-28T15:14:01Z</time>
      </trkpt>
      <trkpt lat="48.6698" lon="7.52747">
        <ele>235.8</ele>
        <time>2020-06-28T15:14:02Z</time>
      </trkpt>
      <trkpt lat="48.6698" lon="7.52741">
        <ele>236.1</ele>
        <time>2020-06-28T15:14:03Z</time>
      </trkpt>
      <trkpt lat="48.66981" lon="7.52736">
        <ele>236.3</ele>
        <time>2020-06-28T15:14:04Z</time>
      </trkpt>
      <trkpt lat="48.66981" lon="7.5273">
        <ele>236.6</ele>
        <time>2020-06-28T15:14:05Z</time>
      </trkpt>
      <trkpt lat="48.66982" lon="7.52723">
        <ele>236.9</ele>
        <time>2020-06-28T15:14:06Z</time>
      </trkpt>
      <trkpt lat="48.66983" lon="7.52718">
        <ele>237.2</ele>
        <time>2020-06-28T15:14:07Z</time>
      </trkpt>
      <trkpt lat="48.66984" lon="7.52712">
        <ele>237.4</ele>
        <time>2020-06-28T15:14:08Z</time>
      </trkpt>
      <trkpt lat="48.66983" lon="7.52707">
        <ele>237.6</ele>
        <time>2020-06-28T15:14:09Z</time>
      </trkpt>
      <trkpt lat="48.66983" lon="7.52703">
        <ele>237.9</ele>
        <time>2020-06-28T15:14:10Z</time>
      </trkpt>
      <trkpt lat="48.66984" lon="7.52698">
        <ele>238.1</ele>
        <time>2020-06-28T15:14:11Z</time>
      </trkpt>
      <trkpt lat="48.66984" lon="7.52693">
        <ele>238.3</ele>
        <time>2020-06-28T15:14:12Z</time>
      </trkpt>
      <trkpt lat="48.66984" lon="7.52687">
        <ele>238.5</ele>
        <time>2020-06-28T15:14:13Z</time>
      </trkpt>
      <trkpt lat="48.66984" lon="7.52682">
        <ele>238.7</ele>
        <time>2020-06-28T15:14:14Z</time>
      </trkpt>
      <trkpt lat="48.66984" lon="7.52676">
        <ele>238.9</ele>
        <time>2020-06-28T15:14:15Z</time>
      </trkpt>
      <trkpt lat="48.66983" lon="7.5267">
        <ele>239.2</ele>
        <time>2020-06-28T15:14:16Z</time>
      </trkpt>
      <trkpt lat="48.66984" lon="7.52665">
        <ele>239.3</ele>
        <time>2020-06-28T15:14:17Z</time>
      </trkpt>
      <trkpt lat="48.66984" lon="7.5266">
        <ele>239.5</ele>
        <time>2020-06-28T15:14:18Z</time>
      </trkpt>
      <trkpt lat="48.66985" lon="7.52656">
        <ele>239.7</ele>
        <time>2020-06-28T15:14:19Z</time>
      </trkpt>
      <trkpt lat="48.66986" lon="7.52651">
        <ele>239.9</ele>
        <time>2020-06-28T15:14:20Z</time>
      </trkpt>
      <trkpt lat="48.66986" lon="7.52646">
        <ele>240.1</ele>
        <time>2020-06-28T15:14:21Z</time>
      </trkpt>
      <trkpt lat="48.66986" lon="7.5264">
        <ele>240.3</ele>
        <time>2020-06-28T15:14:22Z</time>
      </trkpt>
      <trkpt lat="48.66986" lon="7.52635">
        <ele>240.4</ele>
        <time>2020-06-28T15:14:23Z</time>
      </trkpt>
      <trkpt lat="48.66985" lon="7.52628">
        <ele>240.6</ele>
        <time>2020-06-28T15:14:24Z</time>
      </trkpt>
      <trkpt lat="48.66985" lon="7.52623">
        <ele>240.7</ele>
        <time>2020-06-28T15:14:25Z</time>
      </trkpt>
      <trkpt lat="48.66986" lon="7.52616">
        <ele>240.9</ele>
        <time>2020-06-28T15:14:26Z</time>
      </trkpt>
      <trkpt lat="48.66986" lon="7.5261">
        <ele>241</ele>
        <time>2020-06-28T15:14:27Z</time>
      </trkpt>
      <trkpt lat="48.66985" lon="7.52603">
        <ele>241.2</ele>
        <time>2020-06-28T15:14:28Z</time>
      </trkpt>
      <trkpt lat="48.66985" lon="7.52598">
        <ele>241.2</ele>
        <time>2020-06-28T15:14:29Z</time>
      </trkpt>
      <trkpt lat="48.66985" lon="7.52593">
        <ele>241.3</ele>
        <time>2020-06-28T15:14:30Z</time>
      </trkpt>
      <trkpt lat="48.66984" lon="7.52587">
        <ele>241.4</ele>
        <time>2020-06-28T15:14:31Z</time>
      </trkpt>
      <trkpt lat="48.66984" lon="7.52582">
        <ele>241.5</ele>
        <time>2020-06-28T15:14:32Z</time>
      </trkpt>
      <trkpt lat="48.66985" lon="7.52578">
        <ele>241.6</ele>
        <time>2020-06-28T15:14:33Z</time>
      </trkpt>
      <trkpt lat="48.66985" lon="7.52572">
        <ele>241.6</ele>
        <time>2020-06-28T15:14:34Z</time>
      </trkpt>
      <trkpt lat="48.66985" lon="7.52567">
        <ele>241.7</ele>
        <time>2020-06-28T15:14:35Z</time>
      </trkpt>
      <trkpt lat="48.66985" lon="7.52561">
        <ele>241.8</ele>
        <time>2020-06-28T15:14:36Z</time>
      </trkpt>
      <trkpt lat="48.66985" lon="7.52556">
        <ele>241.8</ele>
        <time>2020-06-28T15:14:37Z</time>
      </trkpt>
      <trkpt lat="48.66985" lon="7.5255">
        <ele>241.9</ele>
        <time>2020-06-28T15:14:38Z</time>
      </trkpt>
      <trkpt lat="48.66985" lon="7.52545">
        <ele>242</ele>
        <time>2020-06-28T15:14:39Z</time>
      </trkpt>
      <trkpt lat="48.66985" lon="7.52539">
        <ele>242</ele>
        <time>2020-06-28T15:14:40Z</time>
      </trkpt>
      <trkpt lat="48.66985" lon="7.52534">
        <ele>242.1</ele>
        <time>2020-06-28T15:14:41Z</time>
      </trkpt>
      <trkpt lat="48.66986" lon="7.52528">
        <ele>242.1</ele>
        <time>2020-06-28T15:14:42Z</time>
      </trkpt>
      <trkpt lat="48.66986" lon="7.52522">
        <ele>242.2</ele>
        <time>2020-06-28T15:14:43Z</time>
      </trkpt>
      <trkpt lat="48.66985" lon="7.52515">
        <ele>242.2</ele>
        <time>2020-06-28T15:14:44Z</time>
      </trkpt>
      <trkpt lat="48.66985" lon="7.52509">
        <ele>242.3</ele>
        <time>2020-06-28T15:14:45Z</time>
      </trkpt>
      <trkpt lat="48.66985" lon="7.52503">
        <ele>242.3</ele>
        <time>2020-06-28T15:14:46Z</time>
      </trkpt>
      <trkpt lat="48.66985" lon="7.52497">
        <ele>242.3</ele>
        <time>2020-06-28T15:14:47Z</time>
      </trkpt>
      <trkpt lat="48.66985" lon="7.5249">
        <ele>242.3</ele>
        <time>2020-06-28T15:14:48Z</time>
      </trkpt>
      <trkpt lat="48.66987" lon="7.52484">
        <ele>242.4</ele>
        <time>2020-06-28T15:14:49Z</time>
      </trkpt>
      <trkpt lat="48.66987" lon="7.52476">
        <ele>242.4</ele>
        <time>2020-06-28T15:14:50Z</time>
      </trkpt>
      <trkpt lat="48.66986" lon="7.5247">
        <ele>242.3</ele>
        <time>2020-06-28T15:14:51Z</time>
      </trkpt>
      <trkpt lat="48.66986" lon="7.52464">
        <ele>242.3</ele>
        <time>2020-06-28T15:14:52Z</time>
      </trkpt>
      <trkpt lat="48.66985" lon="7.52455">
        <ele>242.3</ele>
        <time>2020-06-28T15:14:53Z</time>
      </trkpt>
      <trkpt lat="48.66985" lon="7.52448">
        <ele>242.2</ele>
        <time>2020-06-28T15:14:54Z</time>
      </trkpt>
      <trkpt lat="48.66986" lon="7.5244">
        <ele>242.1</ele>
        <time>2020-06-28T15:14:55Z</time>
      </trkpt>
      <trkpt lat="48.66986" lon="7.52432">
        <ele>242.1</ele>
        <time>2020-06-28T15:14:56Z</time>
      </trkpt>
      <trkpt lat="48.66985" lon="7.52425">
        <ele>242.1</ele>
        <time>2020-06-28T15:14:57Z</time>
      </trkpt>
      <trkpt lat="48.66985" lon="7.52417">
        <ele>242</ele>
        <time>2020-06-28T15:14:58Z</time>
      </trkpt>
      <trkpt lat="48.66984" lon="7.52409">
        <ele>241.9</ele>
        <time>2020-06-28T15:14:59Z</time>
      </trkpt>
      <trkpt lat="48.66984" lon="7.52402">
        <ele>241.9</ele>
        <time>2020-06-28T15:15:00Z</time>
      </trkpt>
      <trkpt lat="48.66984" lon="7.52395">
        <ele>241.8</ele>
        <time>2020-06-28T15:15:01Z</time>
      </trkpt>
      <trkpt lat="48.66985" lon="7.52388">
        <ele>241.7</ele>
        <time>2020-06-28T15:15:02Z</time>
      </trkpt>
      <trkpt lat="48.66985" lon="7.52381">
        <ele>241.6</ele>
        <time>2020-06-28T15:15:03Z</time>
      </trkpt>
      <trkpt lat="48.66985" lon="7.52374">
        <ele>241.4</ele>
        <time>2020-06-28T15:15:04Z</time>
      </trkpt>
      <trkpt lat="48.66985" lon="7.52368">
        <ele>241.3</ele>
        <time>2020-06-28T15:15:05Z</time>
      </trkpt>
      <trkpt lat="48.66986" lon="7.52361">
        <ele>241.2</ele>
        <time>2020-06-28T15:15:06Z</time>
      </trkpt>
      <trkpt lat="48.66985" lon="7.52354">
        <ele>241.1</ele>
        <time>2020-06-28T15:15:07Z</time>
      </trkpt>
      <trkpt lat="48.66985" lon="7.52348">
        <ele>240.9</ele>
        <time>2020-06-28T15:15:08Z</time>
      </trkpt>
      <trkpt lat="48.66985" lon="7.5234">
        <ele>240.8</ele>
        <time>2020-06-28T15:15:09Z</time>
      </trkpt>
      <trkpt lat="48.66985" lon="7.52334">
        <ele>240.6</ele>
        <time>2020-06-28T15:15:10Z</time>
      </trkpt>
      <trkpt lat="48.66985" lon="7.52328">
        <ele>240.5</ele>
        <time>2020-06-28T15:15:11Z</time>
      </trkpt>
      <trkpt lat="48.66985" lon="7.52319">
        <ele>240.3</ele>
        <time>2020-06-28T15:15:12Z</time>
      </trkpt>
      <trkpt lat="48.66986" lon="7.52311">
        <ele>240</ele>
        <time>2020-06-28T15:15:13Z</time>
      </trkpt>
      <trkpt lat="48.66986" lon="7.52303">
        <ele>239.8</ele>
        <time>2020-06-28T15:15:14Z</time>
      </trkpt>
      <trkpt lat="48.66985" lon="7.52294">
        <ele>239.5</ele>
        <time>2020-06-28T15:15:15Z</time>
      </trkpt>
      <trkpt lat="48.66985" lon="7.52285">
        <ele>239.2</ele>
        <time>2020-06-28T15:15:16Z</time>
      </trkpt>
      <trkpt lat="48.66985" lon="7.52276">
        <ele>238.9</ele>
        <time>2020-06-28T15:15:17Z</time>
      </trkpt>
      <trkpt lat="48.66986" lon="7.52267">
        <ele>238.6</ele>
        <time>2020-06-28T15:15:18Z</time>
      </trkpt>
      <trkpt lat="48.66984" lon="7.52257">
        <ele>238.3</ele>
        <time>2020-06-28T15:15:19Z</time>
      </trkpt>
      <trkpt lat="48.66984" lon="7.52246">
        <ele>238</ele>
        <time>2020-06-28T15:15:20Z</time>
      </trkpt>
      <trkpt lat="48.66983" lon="7.52236">
        <ele>237.6</ele>
        <time>2020-06-28T15:15:21Z</time>
      </trkpt>
      <trkpt lat="48.66982" lon="7.52225">
        <ele>237.2</ele>
        <time>2020-06-28T15:15:22Z</time>
      </trkpt>
      <trkpt lat="48.66981" lon="7.52216">
        <ele>236.9</ele>
        <time>2020-06-28T15:15:23Z</time>
      </trkpt>
      <trkpt lat="48.6698" lon="7.52204">
        <ele>236.5</ele>
        <time>2020-06-28T15:15:24Z</time>
      </trkpt>
      <trkpt lat="48.66978" lon="7.52193">
        <ele>236.1</ele>
        <time>2020-06-28T15:15:25Z</time>
      </trkpt>
      <trkpt lat="48.66977" lon="7.52181">
        <ele>235.7</ele>
        <time>2020-06-28T15:15:26Z</time>
      </trkpt>
      <trkpt lat="48.66975" lon="7.5217">
        <ele>235.3</ele>
        <time>2020-06-28T15:15:27Z</time>
      </trkpt>
      <trkpt lat="48.66973" lon="7.52158">
        <ele>234.9</ele>
        <time>2020-06-28T15:15:28Z</time>
      </trkpt>
      <trkpt lat="48.66971" lon="7.52146">
        <ele>234.4</ele>
        <time>2020-06-28T15:15:29Z</time>
      </trkpt>
      <trkpt lat="48.6697" lon="7.52134">
        <ele>234</ele>
        <time>2020-06-28T15:15:30Z</time>
      </trkpt>
      <trkpt lat="48.66967" lon="7.52122">
        <ele>233.6</ele>
        <time>2020-06-28T15:15:31Z</time>
      </trkpt>
      <trkpt lat="48.66965" lon="7.5211">
        <ele>233.1</ele>
        <time>2020-06-28T15:15:32Z</time>
      </trkpt>
      <trkpt lat="48.66964" lon="7.52098">
        <ele>232.6</ele>
        <time>2020-06-28T15:15:33Z</time>
      </trkpt>
      <trkpt lat="48.66962" lon="7.52086">
        <ele>232.1</ele>
        <time>2020-06-28T15:15:34Z</time>
      </trkpt>
      <trkpt lat="48.6696" lon="7.52074">
        <ele>231.6</ele>
        <time>2020-06-28T15:15:35Z</time>
      </trkpt>
      <trkpt lat="48.66958" lon="7.52062">
        <ele>231</ele>
        <time>2020-06-28T15:15:36Z</time>
      </trkpt>
      <trkpt lat="48.66956" lon="7.52049">
        <ele>230.5</ele>
        <time>2020-06-28T15:15:37Z</time>
      </trkpt>
      <trkpt lat="48.66954" lon="7.52037">
        <ele>230.1</ele>
        <time>2020-06-28T15:15:38Z</time>
      </trkpt>
      <trkpt lat="48.66952" lon="7.52025">
        <ele>229.7</ele>
        <time>2020-06-28T15:15:39Z</time>
      </trkpt>
      <trkpt lat="48.66949" lon="7.52012">
        <ele>229.2</ele>
        <time>2020-06-28T15:15:40Z</time>
      </trkpt>
      <trkpt lat="48.66947" lon="7.52">
        <ele>228.6</ele>
        <time>2020-06-28T15:15:41Z</time>
      </trkpt>
      <trkpt lat="48.66944" lon="7.51988">
        <ele>228</ele>
        <time>2020-06-28T15:15:42Z</time>
      </trkpt>
      <trkpt lat="48.66942" lon="7.51976">
        <ele>227.5</ele>
        <time>2020-06-28T15:15:43Z</time>
      </trkpt>
      <trkpt lat="48.66939" lon="7.51964">
        <ele>227</ele>
        <time>2020-06-28T15:15:44Z</time>
      </trkpt>
      <trkpt lat="48.66935" lon="7.51952">
        <ele>226.4</ele>
        <time>2020-06-28T15:15:45Z</time>
      </trkpt>
      <trkpt lat="48.66932" lon="7.5194">
        <ele>225.9</ele>
        <time>2020-06-28T15:15:46Z</time>
      </trkpt>
      <trkpt lat="48.66928" lon="7.51928">
        <ele>225.3</ele>
        <time>2020-06-28T15:15:47Z</time>
      </trkpt>
      <trkpt lat="48.66924" lon="7.51917">
        <ele>224.8</ele>
        <time>2020-06-28T15:15:48Z</time>
      </trkpt>
      <trkpt lat="48.66919" lon="7.51906">
        <ele>224.2</ele>
        <time>2020-06-28T15:15:49Z</time>
      </trkpt>
      <trkpt lat="48.66915" lon="7.51895">
        <ele>223.6</ele>
        <time>2020-06-28T15:15:50Z</time>
      </trkpt>
      <trkpt lat="48.66911" lon="7.51884">
        <ele>223</ele>
        <time>2020-06-28T15:15:51Z</time>
      </trkpt>
      <trkpt lat="48.66907" lon="7.51873">
        <ele>222.5</ele>
        <time>2020-06-28T15:15:52Z</time>
      </trkpt>
      <trkpt lat="48.66903" lon="7.51863">
        <ele>222</ele>
        <time>2020-06-28T15:15:53Z</time>
      </trkpt>
      <trkpt lat="48.66899" lon="7.51853">
        <ele>221.5</ele>
        <time>2020-06-28T15:15:54Z</time>
      </trkpt>
      <trkpt lat="48.66895" lon="7.51844">
        <ele>221</ele>
        <time>2020-06-28T15:15:55Z</time>
      </trkpt>
      <trkpt lat="48.66892" lon="7.51836">
        <ele>220.7</ele>
        <time>2020-06-28T15:15:56Z</time>
      </trkpt>
      <trkpt lat="48.66887" lon="7.51829">
        <ele>220.4</ele>
        <time>2020-06-28T15:15:57Z</time>
      </trkpt>
      <trkpt lat="48.66883" lon="7.51821">
        <ele>220.1</ele>
        <time>2020-06-28T15:15:58Z</time>
      </trkpt>
      <trkpt lat="48.66881" lon="7.51813">
        <ele>219.7</ele>
        <time>2020-06-28T15:15:59Z</time>
      </trkpt>
      <trkpt lat="48.66879" lon="7.51803">
        <ele>219.7</ele>
        <time>2020-06-28T15:16:00Z</time>
      </trkpt>
      <trkpt lat="48.66877" lon="7.51794">
        <ele>219.7</ele>
        <time>2020-06-28T15:16:01Z</time>
      </trkpt>
      <trkpt lat="48.66875" lon="7.51784">
        <ele>218.8</ele>
        <time>2020-06-28T15:16:02Z</time>
      </trkpt>
      <trkpt lat="48.66873" lon="7.51773">
        <ele>218.3</ele>
        <time>2020-06-28T15:16:03Z</time>
      </trkpt>
      <trkpt lat="48.66871" lon="7.51762">
        <ele>217.7</ele>
        <time>2020-06-28T15:16:04Z</time>
      </trkpt>
      <trkpt lat="48.66869" lon="7.51751">
        <ele>217.1</ele>
        <time>2020-06-28T15:16:05Z</time>
      </trkpt>
      <trkpt lat="48.66867" lon="7.5174">
        <ele>216.3</ele>
        <time>2020-06-28T15:16:06Z</time>
      </trkpt>
      <trkpt lat="48.66864" lon="7.5173">
        <ele>215.9</ele>
        <time>2020-06-28T15:16:07Z</time>
      </trkpt>
      <trkpt lat="48.66861" lon="7.51719">
        <ele>215.5</ele>
        <time>2020-06-28T15:16:08Z</time>
      </trkpt>
      <trkpt lat="48.66859" lon="7.51709">
        <ele>215.1</ele>
        <time>2020-06-28T15:16:09Z</time>
      </trkpt>
      <trkpt lat="48.66857" lon="7.51699">
        <ele>215.1</ele>
        <time>2020-06-28T15:16:10Z</time>
      </trkpt>
      <trkpt lat="48.66854" lon="7.51689">
        <ele>214.7</ele>
        <time>2020-06-28T15:16:11Z</time>
      </trkpt>
      <trkpt lat="48.66851" lon="7.51679">
        <ele>214.2</ele>
        <time>2020-06-28T15:16:12Z</time>
      </trkpt>
      <trkpt lat="48.66849" lon="7.51669">
        <ele>213.7</ele>
        <time>2020-06-28T15:16:13Z</time>
      </trkpt>
      <trkpt lat="48.66847" lon="7.51658">
        <ele>213.3</ele>
        <time>2020-06-28T15:16:14Z</time>
      </trkpt>
      <trkpt lat="48.66844" lon="7.51649">
        <ele>212.9</ele>
        <time>2020-06-28T15:16:15Z</time>
      </trkpt>
      <trkpt lat="48.66841" lon="7.51639">
        <ele>212.6</ele>
        <time>2020-06-28T15:16:16Z</time>
      </trkpt>
      <trkpt lat="48.66839" lon="7.51628">
        <ele>212.3</ele>
        <time>2020-06-28T15:16:17Z</time>
      </trkpt>
      <trkpt lat="48.66837" lon="7.51618">
        <ele>212</ele>
        <time>2020-06-28T15:16:18Z</time>
      </trkpt>
      <trkpt lat="48.66835" lon="7.51608">
        <ele>211.8</ele>
        <time>2020-06-28T15:16:19Z</time>
      </trkpt>
      <trkpt lat="48.66833" lon="7.51599">
        <ele>211.9</ele>
        <time>2020-06-28T15:16:20Z</time>
      </trkpt>
      <trkpt lat="48.6683" lon="7.51589">
        <ele>212</ele>
        <time>2020-06-28T15:16:21Z</time>
      </trkpt>
      <trkpt lat="48.66829" lon="7.51579">
        <ele>212.1</ele>
        <time>2020-06-28T15:16:22Z</time>
      </trkpt>
      <trkpt lat="48.66828" lon="7.51569">
        <ele>212.5</ele>
        <time>2020-06-28T15:16:23Z</time>
      </trkpt>
      <trkpt lat="48.66827" lon="7.51559">
        <ele>212.6</ele>
        <time>2020-06-28T15:16:24Z</time>
      </trkpt>
      <trkpt lat="48.66828" lon="7.51549">
        <ele>212.4</ele>
        <time>2020-06-28T15:16:25Z</time>
      </trkpt>
      <trkpt lat="48.66828" lon="7.5154">
        <ele>212.1</ele>
        <time>2020-06-28T15:16:26Z</time>
      </trkpt>
      <trkpt lat="48.66828" lon="7.51531">
        <ele>211.8</ele>
        <time>2020-06-28T15:16:27Z</time>
      </trkpt>
      <trkpt lat="48.66828" lon="7.51522">
        <ele>211.5</ele>
        <time>2020-06-28T15:16:28Z</time>
      </trkpt>
      <trkpt lat="48.66829" lon="7.51513">
        <ele>211.3</ele>
        <time>2020-06-28T15:16:29Z</time>
      </trkpt>
      <trkpt lat="48.6683" lon="7.51504">
        <ele>211.3</ele>
        <time>2020-06-28T15:16:30Z</time>
      </trkpt>
      <trkpt lat="48.66831" lon="7.51496">
        <ele>211.3</ele>
        <time>2020-06-28T15:16:31Z</time>
      </trkpt>
      <trkpt lat="48.66832" lon="7.51488">
        <ele>211.3</ele>
        <time>2020-06-28T15:16:32Z</time>
      </trkpt>
      <trkpt lat="48.66833" lon="7.51479">
        <ele>211.3</ele>
        <time>2020-06-28T15:16:33Z</time>
      </trkpt>
      <trkpt lat="48.66835" lon="7.51471">
        <ele>211.3</ele>
        <time>2020-06-28T15:16:34Z</time>
      </trkpt>
      <trkpt lat="48.66836" lon="7.51462">
        <ele>211.3</ele>
        <time>2020-06-28T15:16:35Z</time>
      </trkpt>
      <trkpt lat="48.66837" lon="7.51452">
        <ele>211.2</ele>
        <time>2020-06-28T15:16:36Z</time>
      </trkpt>
      <trkpt lat="48.66838" lon="7.51443">
        <ele>211.2</ele>
        <time>2020-06-28T15:16:37Z</time>
      </trkpt>
      <trkpt lat="48.66839" lon="7.51434">
        <ele>211.2</ele>
        <time>2020-06-28T15:16:38Z</time>
      </trkpt>
      <trkpt lat="48.66841" lon="7.51426">
        <ele>211.2</ele>
        <time>2020-06-28T15:16:39Z</time>
      </trkpt>
      <trkpt lat="48.66843" lon="7.51418">
        <ele>211.2</ele>
        <time>2020-06-28T15:16:40Z</time>
      </trkpt>
      <trkpt lat="48.66844" lon="7.51409">
        <ele>211.1</ele>
        <time>2020-06-28T15:16:41Z</time>
      </trkpt>
      <trkpt lat="48.66846" lon="7.51401">
        <ele>211.1</ele>
        <time>2020-06-28T15:16:42Z</time>
      </trkpt>
      <trkpt lat="48.66848" lon="7.51392">
        <ele>211</ele>
        <time>2020-06-28T15:16:43Z</time>
      </trkpt>
      <trkpt lat="48.66849" lon="7.51384">
        <ele>211</ele>
        <time>2020-06-28T15:16:44Z</time>
      </trkpt>
      <trkpt lat="48.66851" lon="7.51375">
        <ele>211</ele>
        <time>2020-06-28T15:16:45Z</time>
      </trkpt>
      <trkpt lat="48.66853" lon="7.51367">
        <ele>211</ele>
        <time>2020-06-28T15:16:46Z</time>
      </trkpt>
      <trkpt lat="48.66855" lon="7.51359">
        <ele>211</ele>
        <time>2020-06-28T15:16:47Z</time>
      </trkpt>
      <trkpt lat="48.66856" lon="7.51351">
        <ele>211</ele>
        <time>2020-06-28T15:16:48Z</time>
      </trkpt>
      <trkpt lat="48.66859" lon="7.51343">
        <ele>211.1</ele>
        <time>2020-06-28T15:16:49Z</time>
      </trkpt>
      <trkpt lat="48.66859" lon="7.51335">
        <ele>211.2</ele>
        <time>2020-06-28T15:16:50Z</time>
      </trkpt>
      <trkpt lat="48.66861" lon="7.51327">
        <ele>211.2</ele>
        <time>2020-06-28T15:16:51Z</time>
      </trkpt>
      <trkpt lat="48.66863" lon="7.51319">
        <ele>211.3</ele>
        <time>2020-06-28T15:16:52Z</time>
      </trkpt>
      <trkpt lat="48.66864" lon="7.51311">
        <ele>211.4</ele>
        <time>2020-06-28T15:16:53Z</time>
      </trkpt>
      <trkpt lat="48.66866" lon="7.51301">
        <ele>211.4</ele>
        <time>2020-06-28T15:16:54Z</time>
      </trkpt>
      <trkpt lat="48.66867" lon="7.51292">
        <ele>211.5</ele>
        <time>2020-06-28T15:16:55Z</time>
      </trkpt>
      <trkpt lat="48.66867" lon="7.51285">
        <ele>211.5</ele>
        <time>2020-06-28T15:16:56Z</time>
      </trkpt>
      <trkpt lat="48.66867" lon="7.51278">
        <ele>211.6</ele>
        <time>2020-06-28T15:16:57Z</time>
      </trkpt>
      <trkpt lat="48.66867" lon="7.51271">
        <ele>211.6</ele>
        <time>2020-06-28T15:16:58Z</time>
      </trkpt>
      <trkpt lat="48.66866" lon="7.51262">
        <ele>211.7</ele>
        <time>2020-06-28T15:16:59Z</time>
      </trkpt>
      <trkpt lat="48.66866" lon="7.51255">
        <ele>211.9</ele>
        <time>2020-06-28T15:17:00Z</time>
      </trkpt>
      <trkpt lat="48.66866" lon="7.51246">
        <ele>212</ele>
        <time>2020-06-28T15:17:01Z</time>
      </trkpt>
      <trkpt lat="48.66865" lon="7.5124">
        <ele>212.1</ele>
        <time>2020-06-28T15:17:02Z</time>
      </trkpt>
      <trkpt lat="48.66864" lon="7.51234">
        <ele>212.2</ele>
        <time>2020-06-28T15:17:03Z</time>
      </trkpt>
      <trkpt lat="48.66862" lon="7.51225">
        <ele>212.3</ele>
        <time>2020-06-28T15:17:04Z</time>
      </trkpt>
      <trkpt lat="48.66864" lon="7.51221">
        <ele>212.4</ele>
        <time>2020-06-28T15:17:05Z</time>
      </trkpt>
      <trkpt lat="48.66866" lon="7.51213">
        <ele>212.6</ele>
        <time>2020-06-28T15:17:06Z</time>
      </trkpt>
      <trkpt lat="48.66868" lon="7.51207">
        <ele>212.6</ele>
        <time>2020-06-28T15:17:07Z</time>
      </trkpt>
      <trkpt lat="48.66871" lon="7.51202">
        <ele>212.7</ele>
        <time>2020-06-28T15:17:08Z</time>
      </trkpt>
      <trkpt lat="48.66875" lon="7.51198">
        <ele>212.8</ele>
        <time>2020-06-28T15:17:09Z</time>
      </trkpt>
      <trkpt lat="48.6688" lon="7.51198">
        <ele>212.8</ele>
        <time>2020-06-28T15:17:10Z</time>
      </trkpt>
      <trkpt lat="48.66884" lon="7.51198">
        <ele>212.9</ele>
        <time>2020-06-28T15:17:11Z</time>
      </trkpt>
      <trkpt lat="48.66888" lon="7.51198">
        <ele>212.9</ele>
        <time>2020-06-28T15:17:12Z</time>
      </trkpt>
      <trkpt lat="48.66892" lon="7.51198">
        <ele>213</ele>
        <time>2020-06-28T15:17:13Z</time>
      </trkpt>
      <trkpt lat="48.66895" lon="7.51199">
        <ele>213</ele>
        <time>2020-06-28T15:17:14Z</time>
      </trkpt>
      <trkpt lat="48.669" lon="7.51198">
        <ele>213.1</ele>
        <time>2020-06-28T15:17:15Z</time>
      </trkpt>
      <trkpt lat="48.66904" lon="7.51198">
        <ele>213.1</ele>
        <time>2020-06-28T15:17:16Z</time>
      </trkpt>
      <trkpt lat="48.66909" lon="7.51198">
        <ele>213.2</ele>
        <time>2020-06-28T15:17:17Z</time>
      </trkpt>
      <trkpt lat="48.66913" lon="7.51199">
        <ele>213.2</ele>
        <time>2020-06-28T15:17:18Z</time>
      </trkpt>
      <trkpt lat="48.66919" lon="7.51199">
        <ele>213.2</ele>
        <time>2020-06-28T15:17:19Z</time>
      </trkpt>
      <trkpt lat="48.66923" lon="7.512">
        <ele>213.3</ele>
        <time>2020-06-28T15:17:20Z</time>
      </trkpt>
      <trkpt lat="48.66927" lon="7.51201">
        <ele>213.3</ele>
        <time>2020-06-28T15:17:21Z</time>
      </trkpt>
      <trkpt lat="48.66931" lon="7.51202">
        <ele>213.3</ele>
        <time>2020-06-28T15:17:22Z</time>
      </trkpt>
      <trkpt lat="48.66936" lon="7.51203">
        <ele>213.3</ele>
        <time>2020-06-28T15:17:23Z</time>
      </trkpt>
      <trkpt lat="48.6694" lon="7.51204">
        <ele>213.3</ele>
        <time>2020-06-28T15:17:24Z</time>
      </trkpt>
      <trkpt lat="48.66946" lon="7.51205">
        <ele>213.3</ele>
        <time>2020-06-28T15:17:25Z</time>
      </trkpt>
      <trkpt lat="48.66952" lon="7.51207">
        <ele>213.3</ele>
        <time>2020-06-28T15:17:26Z</time>
      </trkpt>
      <trkpt lat="48.66958" lon="7.5121">
        <ele>213.3</ele>
        <time>2020-06-28T15:17:27Z</time>
      </trkpt>
      <trkpt lat="48.66964" lon="7.51212">
        <ele>213.3</ele>
        <time>2020-06-28T15:17:28Z</time>
      </trkpt>
      <trkpt lat="48.66968" lon="7.51213">
        <ele>213.3</ele>
        <time>2020-06-28T15:17:29Z</time>
      </trkpt>
      <trkpt lat="48.66973" lon="7.51213">
        <ele>213.3</ele>
        <time>2020-06-28T15:17:30Z</time>
      </trkpt>
      <trkpt lat="48.66978" lon="7.51213">
        <ele>213.4</ele>
        <time>2020-06-28T15:17:31Z</time>
      </trkpt>
      <trkpt lat="48.66984" lon="7.51211">
        <ele>213.4</ele>
        <time>2020-06-28T15:17:32Z</time>
      </trkpt>
      <trkpt lat="48.66988" lon="7.5121">
        <ele>213.4</ele>
        <time>2020-06-28T15:17:33Z</time>
      </trkpt>
      <trkpt lat="48.66995" lon="7.51212">
        <ele>213.5</ele>
        <time>2020-06-28T15:17:34Z</time>
      </trkpt>
      <trkpt lat="48.66999" lon="7.51213">
        <ele>213.6</ele>
        <time>2020-06-28T15:17:35Z</time>
      </trkpt>
      <trkpt lat="48.67005" lon="7.51213">
        <ele>213.7</ele>
        <time>2020-06-28T15:17:36Z</time>
      </trkpt>
      <trkpt lat="48.67009" lon="7.51212">
        <ele>213.8</ele>
        <time>2020-06-28T15:17:37Z</time>
      </trkpt>
      <trkpt lat="48.67013" lon="7.5121">
        <ele>213.8</ele>
        <time>2020-06-28T15:17:38Z</time>
      </trkpt>
      <trkpt lat="48.67017" lon="7.51209">
        <ele>213.9</ele>
        <time>2020-06-28T15:17:39Z</time>
      </trkpt>
      <trkpt lat="48.67022" lon="7.51208">
        <ele>214.1</ele>
        <time>2020-06-28T15:17:40Z</time>
      </trkpt>
      <trkpt lat="48.67026" lon="7.51205">
        <ele>214.2</ele>
        <time>2020-06-28T15:17:41Z</time>
      </trkpt>
      <trkpt lat="48.67032" lon="7.512">
        <ele>214.4</ele>
        <time>2020-06-28T15:17:42Z</time>
      </trkpt>
      <trkpt lat="48.67037" lon="7.51198">
        <ele>214.6</ele>
        <time>2020-06-28T15:17:43Z</time>
      </trkpt>
      <trkpt lat="48.67042" lon="7.51195">
        <ele>214.7</ele>
        <time>2020-06-28T15:17:44Z</time>
      </trkpt>
      <trkpt lat="48.67046" lon="7.51193">
        <ele>214.8</ele>
        <time>2020-06-28T15:17:45Z</time>
      </trkpt>
      <trkpt lat="48.6705" lon="7.51191">
        <ele>215</ele>
        <time>2020-06-28T15:17:46Z</time>
      </trkpt>
      <trkpt lat="48.67053" lon="7.51187">
        <ele>215.1</ele>
        <time>2020-06-28T15:17:47Z</time>
      </trkpt>
      <trkpt lat="48.67058" lon="7.51184">
        <ele>215.2</ele>
        <time>2020-06-28T15:17:48Z</time>
      </trkpt>
      <trkpt lat="48.67062" lon="7.51179">
        <ele>215.4</ele>
        <time>2020-06-28T15:17:49Z</time>
      </trkpt>
      <trkpt lat="48.67065" lon="7.51178">
        <ele>215.6</ele>
        <time>2020-06-28T15:17:50Z</time>
      </trkpt>
      <trkpt lat="48.67068" lon="7.51177">
        <ele>215.7</ele>
        <time>2020-06-28T15:17:51Z</time>
      </trkpt>
      <trkpt lat="48.67073" lon="7.51175">
        <ele>215.9</ele>
        <time>2020-06-28T15:17:52Z</time>
      </trkpt>
      <trkpt lat="48.67075" lon="7.51171">
        <ele>216</ele>
        <time>2020-06-28T15:17:53Z</time>
      </trkpt>
      <trkpt lat="48.67078" lon="7.51168">
        <ele>216.2</ele>
        <time>2020-06-28T15:17:54Z</time>
      </trkpt>
      <trkpt lat="48.6708" lon="7.51164">
        <ele>216.3</ele>
        <time>2020-06-28T15:17:55Z</time>
      </trkpt>
      <trkpt lat="48.67083" lon="7.51161">
        <ele>216.4</ele>
        <time>2020-06-28T15:17:56Z</time>
      </trkpt>
      <trkpt lat="48.67086" lon="7.51156">
        <ele>216.6</ele>
        <time>2020-06-28T15:17:57Z</time>
      </trkpt>
      <trkpt lat="48.6709" lon="7.51152">
        <ele>216.7</ele>
        <time>2020-06-28T15:17:58Z</time>
      </trkpt>
      <trkpt lat="48.67095" lon="7.51151">
        <ele>217</ele>
        <time>2020-06-28T15:17:59Z</time>
      </trkpt>
      <trkpt lat="48.67099" lon="7.5115">
        <ele>217.3</ele>
        <time>2020-06-28T15:18:00Z</time>
      </trkpt>
      <trkpt lat="48.67103" lon="7.51148">
        <ele>217.5</ele>
        <time>2020-06-28T15:18:01Z</time>
      </trkpt>
      <trkpt lat="48.67106" lon="7.51147">
        <ele>217.7</ele>
        <time>2020-06-28T15:18:02Z</time>
      </trkpt>
      <trkpt lat="48.67108" lon="7.51144">
        <ele>217.9</ele>
        <time>2020-06-28T15:18:03Z</time>
      </trkpt>
      <trkpt lat="48.67111" lon="7.51143">
        <ele>218.1</ele>
        <time>2020-06-28T15:18:04Z</time>
      </trkpt>
      <trkpt lat="48.67116" lon="7.51141">
        <ele>218.4</ele>
        <time>2020-06-28T15:18:05Z</time>
      </trkpt>
      <trkpt lat="48.67119" lon="7.51139">
        <ele>218.7</ele>
        <time>2020-06-28T15:18:06Z</time>
      </trkpt>
      <trkpt lat="48.67122" lon="7.51137">
        <ele>218.9</ele>
        <time>2020-06-28T15:18:07Z</time>
      </trkpt>
      <trkpt lat="48.67125" lon="7.51136">
        <ele>219.1</ele>
        <time>2020-06-28T15:18:08Z</time>
      </trkpt>
      <trkpt lat="48.67128" lon="7.51133">
        <ele>219.3</ele>
        <time>2020-06-28T15:18:09Z</time>
      </trkpt>
      <trkpt lat="48.6713" lon="7.51132">
        <ele>219.4</ele>
        <time>2020-06-28T15:18:10Z</time>
      </trkpt>
      <trkpt lat="48.67133" lon="7.51128">
        <ele>219.6</ele>
        <time>2020-06-28T15:18:11Z</time>
      </trkpt>
      <trkpt lat="48.67135" lon="7.51125">
        <ele>219.8</ele>
        <time>2020-06-28T15:18:12Z</time>
      </trkpt>
      <trkpt lat="48.67138" lon="7.51123">
        <ele>219.9</ele>
        <time>2020-06-28T15:18:13Z</time>
      </trkpt>
      <trkpt lat="48.67142" lon="7.5112">
        <ele>219.9</ele>
        <time>2020-06-28T15:18:14Z</time>
      </trkpt>
      <trkpt lat="48.67144" lon="7.51119">
        <ele>220.2</ele>
        <time>2020-06-28T15:18:15Z</time>
      </trkpt>
      <trkpt lat="48.67146" lon="7.51115">
        <ele>220.4</ele>
        <time>2020-06-28T15:18:16Z</time>
      </trkpt>
      <trkpt lat="48.67147" lon="7.51114">
        <ele>220.4</ele>
        <time>2020-06-28T15:18:17Z</time>
      </trkpt>
      <trkpt lat="48.6715" lon="7.5111">
        <ele>220.6</ele>
        <time>2020-06-28T15:18:18Z</time>
      </trkpt>
      <trkpt lat="48.6715" lon="7.51108">
        <ele>220.6</ele>
        <time>2020-06-28T15:18:19Z</time>
      </trkpt>
      <trkpt lat="48.67153" lon="7.51105">
        <ele>220.7</ele>
        <time>2020-06-28T15:18:20Z</time>
      </trkpt>
      <trkpt lat="48.67155" lon="7.51101">
        <ele>220.8</ele>
        <time>2020-06-28T15:18:21Z</time>
      </trkpt>
      <trkpt lat="48.67157" lon="7.51097">
        <ele>220.9</ele>
        <time>2020-06-28T15:18:22Z</time>
      </trkpt>
      <trkpt lat="48.6716" lon="7.51095">
        <ele>221</ele>
        <time>2020-06-28T15:18:23Z</time>
      </trkpt>
      <trkpt lat="48.67164" lon="7.5109">
        <ele>221.1</ele>
        <time>2020-06-28T15:18:24Z</time>
      </trkpt>
      <trkpt lat="48.67165" lon="7.51089">
        <ele>221.1</ele>
        <time>2020-06-28T15:18:25Z</time>
      </trkpt>
      <trkpt lat="48.67169" lon="7.51085">
        <ele>221.1</ele>
        <time>2020-06-28T15:18:26Z</time>
      </trkpt>
      <trkpt lat="48.67173" lon="7.51082">
        <ele>221.1</ele>
        <time>2020-06-28T15:18:27Z</time>
      </trkpt>
      <trkpt lat="48.67175" lon="7.51078">
        <ele>221.1</ele>
        <time>2020-06-28T15:18:28Z</time>
      </trkpt>
      <trkpt lat="48.67178" lon="7.51073">
        <ele>221.1</ele>
        <time>2020-06-28T15:18:29Z</time>
      </trkpt>
      <trkpt lat="48.67182" lon="7.51068">
        <ele>221.1</ele>
        <time>2020-06-28T15:18:30Z</time>
      </trkpt>
      <trkpt lat="48.67184" lon="7.51062">
        <ele>221.1</ele>
        <time>2020-06-28T15:18:31Z</time>
      </trkpt>
      <trkpt lat="48.67187" lon="7.51058">
        <ele>221.1</ele>
        <time>2020-06-28T15:18:32Z</time>
      </trkpt>
      <trkpt lat="48.67191" lon="7.51055">
        <ele>221.1</ele>
        <time>2020-06-28T15:18:33Z</time>
      </trkpt>
      <trkpt lat="48.67193" lon="7.51054">
        <ele>221.1</ele>
        <time>2020-06-28T15:18:34Z</time>
      </trkpt>
      <trkpt lat="48.67196" lon="7.51051">
        <ele>221</ele>
        <time>2020-06-28T15:18:35Z</time>
      </trkpt>
      <trkpt lat="48.672" lon="7.51046">
        <ele>221</ele>
        <time>2020-06-28T15:18:36Z</time>
      </trkpt>
      <trkpt lat="48.67204" lon="7.51043">
        <ele>220.9</ele>
        <time>2020-06-28T15:18:37Z</time>
      </trkpt>
      <trkpt lat="48.67208" lon="7.5104">
        <ele>220.9</ele>
        <time>2020-06-28T15:18:38Z</time>
      </trkpt>
      <trkpt lat="48.67212" lon="7.51035">
        <ele>220.8</ele>
        <time>2020-06-28T15:18:39Z</time>
      </trkpt>
      <trkpt lat="48.67216" lon="7.51031">
        <ele>220.7</ele>
        <time>2020-06-28T15:18:40Z</time>
      </trkpt>
      <trkpt lat="48.67219" lon="7.51026">
        <ele>220.7</ele>
        <time>2020-06-28T15:18:41Z</time>
      </trkpt>
      <trkpt lat="48.67225" lon="7.51021">
        <ele>220.7</ele>
        <time>2020-06-28T15:18:42Z</time>
      </trkpt>
      <trkpt lat="48.67227" lon="7.51015">
        <ele>220.6</ele>
        <time>2020-06-28T15:18:43Z</time>
      </trkpt>
      <trkpt lat="48.67231" lon="7.51012">
        <ele>220.6</ele>
        <time>2020-06-28T15:18:44Z</time>
      </trkpt>
      <trkpt lat="48.67236" lon="7.51007">
        <ele>220.5</ele>
        <time>2020-06-28T15:18:45Z</time>
      </trkpt>
      <trkpt lat="48.67241" lon="7.51003">
        <ele>220.4</ele>
        <time>2020-06-28T15:18:46Z</time>
      </trkpt>
      <trkpt lat="48.67247" lon="7.50999">
        <ele>220.4</ele>
        <time>2020-06-28T15:18:47Z</time>
      </trkpt>
      <trkpt lat="48.67251" lon="7.50995">
        <ele>220.4</ele>
        <time>2020-06-28T15:18:48Z</time>
      </trkpt>
      <trkpt lat="48.67255" lon="7.50991">
        <ele>220.4</ele>
        <time>2020-06-28T15:18:49Z</time>
      </trkpt>
      <trkpt lat="48.6726" lon="7.50988">
        <ele>220.4</ele>
        <time>2020-06-28T15:18:50Z</time>
      </trkpt>
      <trkpt lat="48.67265" lon="7.50984">
        <ele>220.4</ele>
        <time>2020-06-28T15:18:51Z</time>
      </trkpt>
      <trkpt lat="48.6727" lon="7.50982">
        <ele>220.4</ele>
        <time>2020-06-28T15:18:52Z</time>
      </trkpt>
      <trkpt lat="48.67274" lon="7.50978">
        <ele>220.5</ele>
        <time>2020-06-28T15:18:53Z</time>
      </trkpt>
      <trkpt lat="48.67278" lon="7.50974">
        <ele>220.5</ele>
        <time>2020-06-28T15:18:54Z</time>
      </trkpt>
      <trkpt lat="48.67283" lon="7.50972">
        <ele>220.6</ele>
        <time>2020-06-28T15:18:55Z</time>
      </trkpt>
      <trkpt lat="48.67288" lon="7.5097">
        <ele>220.6</ele>
        <time>2020-06-28T15:18:56Z</time>
      </trkpt>
      <trkpt lat="48.67292" lon="7.50967">
        <ele>220.7</ele>
        <time>2020-06-28T15:18:57Z</time>
      </trkpt>
      <trkpt lat="48.67297" lon="7.50963">
        <ele>220.8</ele>
        <time>2020-06-28T15:18:58Z</time>
      </trkpt>
      <trkpt lat="48.67302" lon="7.5096">
        <ele>220.8</ele>
        <time>2020-06-28T15:18:59Z</time>
      </trkpt>
      <trkpt lat="48.67307" lon="7.50956">
        <ele>220.9</ele>
        <time>2020-06-28T15:19:00Z</time>
      </trkpt>
      <trkpt lat="48.67312" lon="7.50952">
        <ele>221</ele>
        <time>2020-06-28T15:19:01Z</time>
      </trkpt>
      <trkpt lat="48.67317" lon="7.50947">
        <ele>221.1</ele>
        <time>2020-06-28T15:19:02Z</time>
      </trkpt>
      <trkpt lat="48.6732" lon="7.50943">
        <ele>221.2</ele>
        <time>2020-06-28T15:19:03Z</time>
      </trkpt>
      <trkpt lat="48.67324" lon="7.5094">
        <ele>221.3</ele>
        <time>2020-06-28T15:19:04Z</time>
      </trkpt>
      <trkpt lat="48.67329" lon="7.50937">
        <ele>221.5</ele>
        <time>2020-06-28T15:19:05Z</time>
      </trkpt>
      <trkpt lat="48.67332" lon="7.50935">
        <ele>221.6</ele>
        <time>2020-06-28T15:19:06Z</time>
      </trkpt>
      <trkpt lat="48.67337" lon="7.50931">
        <ele>221.8</ele>
        <time>2020-06-28T15:19:07Z</time>
      </trkpt>
      <trkpt lat="48.6734" lon="7.50926">
        <ele>222</ele>
        <time>2020-06-28T15:19:08Z</time>
      </trkpt>
      <trkpt lat="48.67343" lon="7.50923">
        <ele>222.1</ele>
        <time>2020-06-28T15:19:09Z</time>
      </trkpt>
      <trkpt lat="48.67346" lon="7.5092">
        <ele>222.3</ele>
        <time>2020-06-28T15:19:10Z</time>
      </trkpt>
      <trkpt lat="48.67351" lon="7.50917">
        <ele>222.5</ele>
        <time>2020-06-28T15:19:11Z</time>
      </trkpt>
      <trkpt lat="48.67354" lon="7.50914">
        <ele>222.6</ele>
        <time>2020-06-28T15:19:12Z</time>
      </trkpt>
      <trkpt lat="48.67358" lon="7.50912">
        <ele>222.8</ele>
        <time>2020-06-28T15:19:13Z</time>
      </trkpt>
      <trkpt lat="48.67362" lon="7.50909">
        <ele>222.9</ele>
        <time>2020-06-28T15:19:14Z</time>
      </trkpt>
      <trkpt lat="48.67365" lon="7.50907">
        <ele>223</ele>
        <time>2020-06-28T15:19:15Z</time>
      </trkpt>
      <trkpt lat="48.67368" lon="7.50906">
        <ele>223.2</ele>
        <time>2020-06-28T15:19:16Z</time>
      </trkpt>
      <trkpt lat="48.67371" lon="7.50903">
        <ele>223.3</ele>
        <time>2020-06-28T15:19:17Z</time>
      </trkpt>
      <trkpt lat="48.67373" lon="7.50898">
        <ele>223.5</ele>
        <time>2020-06-28T15:19:18Z</time>
      </trkpt>
      <trkpt lat="48.67376" lon="7.50896">
        <ele>223.6</ele>
        <time>2020-06-28T15:19:19Z</time>
      </trkpt>
      <trkpt lat="48.67378" lon="7.50892">
        <ele>223.7</ele>
        <time>2020-06-28T15:19:20Z</time>
      </trkpt>
      <trkpt lat="48.67381" lon="7.50887">
        <ele>224</ele>
        <time>2020-06-28T15:19:21Z</time>
      </trkpt>
      <trkpt lat="48.67384" lon="7.50883">
        <ele>224.2</ele>
        <time>2020-06-28T15:19:22Z</time>
      </trkpt>
      <trkpt lat="48.67387" lon="7.50878">
        <ele>224.5</ele>
        <time>2020-06-28T15:19:23Z</time>
      </trkpt>
      <trkpt lat="48.6739" lon="7.50872">
        <ele>224.7</ele>
        <time>2020-06-28T15:19:24Z</time>
      </trkpt>
      <trkpt lat="48.67392" lon="7.50868">
        <ele>224.9</ele>
        <time>2020-06-28T15:19:25Z</time>
      </trkpt>
      <trkpt lat="48.67394" lon="7.50864">
        <ele>225.1</ele>
        <time>2020-06-28T15:19:26Z</time>
      </trkpt>
      <trkpt lat="48.67396" lon="7.5086">
        <ele>225.4</ele>
        <time>2020-06-28T15:19:27Z</time>
      </trkpt>
      <trkpt lat="48.67399" lon="7.50855">
        <ele>225.6</ele>
        <time>2020-06-28T15:19:28Z</time>
      </trkpt>
      <trkpt lat="48.67401" lon="7.5085">
        <ele>225.9</ele>
        <time>2020-06-28T15:19:29Z</time>
      </trkpt>
      <trkpt lat="48.67403" lon="7.50847">
        <ele>226.1</ele>
        <time>2020-06-28T15:19:30Z</time>
      </trkpt>
      <trkpt lat="48.67406" lon="7.50842">
        <ele>226.4</ele>
        <time>2020-06-28T15:19:31Z</time>
      </trkpt>
      <trkpt lat="48.67409" lon="7.50839">
        <ele>226.7</ele>
        <time>2020-06-28T15:19:32Z</time>
      </trkpt>
      <trkpt lat="48.67411" lon="7.50834">
        <ele>227</ele>
        <time>2020-06-28T15:19:33Z</time>
      </trkpt>
      <trkpt lat="48.67413" lon="7.5083">
        <ele>227.2</ele>
        <time>2020-06-28T15:19:34Z</time>
      </trkpt>
      <trkpt lat="48.67416" lon="7.50825">
        <ele>227.5</ele>
        <time>2020-06-28T15:19:35Z</time>
      </trkpt>
      <trkpt lat="48.67418" lon="7.50821">
        <ele>227.7</ele>
        <time>2020-06-28T15:19:36Z</time>
      </trkpt>
      <trkpt lat="48.6742" lon="7.50817">
        <ele>228</ele>
        <time>2020-06-28T15:19:37Z</time>
      </trkpt>
      <trkpt lat="48.67421" lon="7.50812">
        <ele>228.2</ele>
        <time>2020-06-28T15:19:38Z</time>
      </trkpt>
      <trkpt lat="48.67423" lon="7.50807">
        <ele>228.5</ele>
        <time>2020-06-28T15:19:39Z</time>
      </trkpt>
      <trkpt lat="48.67424" lon="7.50806">
        <ele>228.5</ele>
        <time>2020-06-28T15:19:40Z</time>
      </trkpt>
      <trkpt lat="48.67426" lon="7.50802">
        <ele>228.7</ele>
        <time>2020-06-28T15:19:41Z</time>
      </trkpt>
      <trkpt lat="48.67428" lon="7.50797">
        <ele>229</ele>
        <time>2020-06-28T15:19:42Z</time>
      </trkpt>
      <trkpt lat="48.67429" lon="7.50795">
        <ele>229</ele>
        <time>2020-06-28T15:19:43Z</time>
      </trkpt>
      <trkpt lat="48.6743" lon="7.50791">
        <ele>229.2</ele>
        <time>2020-06-28T15:19:44Z</time>
      </trkpt>
      <trkpt lat="48.67432" lon="7.50786">
        <ele>229.4</ele>
        <time>2020-06-28T15:19:45Z</time>
      </trkpt>
      <trkpt lat="48.67434" lon="7.50783">
        <ele>229.5</ele>
        <time>2020-06-28T15:19:46Z</time>
      </trkpt>
      <trkpt lat="48.67436" lon="7.50779">
        <ele>229.7</ele>
        <time>2020-06-28T15:19:47Z</time>
      </trkpt>
      <trkpt lat="48.67439" lon="7.50774">
        <ele>229.8</ele>
        <time>2020-06-28T15:19:48Z</time>
      </trkpt>
      <trkpt lat="48.67441" lon="7.50769">
        <ele>230</ele>
        <time>2020-06-28T15:19:49Z</time>
      </trkpt>
      <trkpt lat="48.67444" lon="7.50764">
        <ele>230.2</ele>
        <time>2020-06-28T15:19:50Z</time>
      </trkpt>
      <trkpt lat="48.67447" lon="7.5076">
        <ele>230.3</ele>
        <time>2020-06-28T15:19:51Z</time>
      </trkpt>
      <trkpt lat="48.67449" lon="7.50756">
        <ele>230.4</ele>
        <time>2020-06-28T15:19:52Z</time>
      </trkpt>
      <trkpt lat="48.6745" lon="7.50751">
        <ele>230.5</ele>
        <time>2020-06-28T15:19:53Z</time>
      </trkpt>
      <trkpt lat="48.67452" lon="7.50748">
        <ele>230.6</ele>
        <time>2020-06-28T15:19:54Z</time>
      </trkpt>
      <trkpt lat="48.67454" lon="7.50743">
        <ele>230.7</ele>
        <time>2020-06-28T15:19:55Z</time>
      </trkpt>
      <trkpt lat="48.67456" lon="7.50739">
        <ele>230.7</ele>
        <time>2020-06-28T15:19:56Z</time>
      </trkpt>
      <trkpt lat="48.67459" lon="7.50734">
        <ele>230.8</ele>
        <time>2020-06-28T15:19:57Z</time>
      </trkpt>
      <trkpt lat="48.67462" lon="7.50729">
        <ele>230.9</ele>
        <time>2020-06-28T15:19:58Z</time>
      </trkpt>
      <trkpt lat="48.67465" lon="7.50724">
        <ele>230.9</ele>
        <time>2020-06-28T15:19:59Z</time>
      </trkpt>
      <trkpt lat="48.67467" lon="7.50719">
        <ele>231</ele>
        <time>2020-06-28T15:20:00Z</time>
      </trkpt>
      <trkpt lat="48.6747" lon="7.50714">
        <ele>231</ele>
        <time>2020-06-28T15:20:01Z</time>
      </trkpt>
      <trkpt lat="48.67472" lon="7.50709">
        <ele>231</ele>
        <time>2020-06-28T15:20:02Z</time>
      </trkpt>
      <trkpt lat="48.67475" lon="7.50703">
        <ele>231</ele>
        <time>2020-06-28T15:20:03Z</time>
      </trkpt>
      <trkpt lat="48.67477" lon="7.50697">
        <ele>231</ele>
        <time>2020-06-28T15:20:04Z</time>
      </trkpt>
      <trkpt lat="48.6748" lon="7.50691">
        <ele>231</ele>
        <time>2020-06-28T15:20:05Z</time>
      </trkpt>
      <trkpt lat="48.67482" lon="7.50685">
        <ele>230.9</ele>
        <time>2020-06-28T15:20:06Z</time>
      </trkpt>
      <trkpt lat="48.67484" lon="7.5068">
        <ele>230.8</ele>
        <time>2020-06-28T15:20:07Z</time>
      </trkpt>
      <trkpt lat="48.67486" lon="7.50674">
        <ele>230.8</ele>
        <time>2020-06-28T15:20:08Z</time>
      </trkpt>
      <trkpt lat="48.67488" lon="7.50668">
        <ele>230.7</ele>
        <time>2020-06-28T15:20:09Z</time>
      </trkpt>
      <trkpt lat="48.67491" lon="7.50663">
        <ele>230.7</ele>
        <time>2020-06-28T15:20:10Z</time>
      </trkpt>
      <trkpt lat="48.67492" lon="7.50658">
        <ele>230.7</ele>
        <time>2020-06-28T15:20:11Z</time>
      </trkpt>
      <trkpt lat="48.67495" lon="7.50652">
        <ele>230.6</ele>
        <time>2020-06-28T15:20:12Z</time>
      </trkpt>
      <trkpt lat="48.67497" lon="7.50646">
        <ele>230.6</ele>
        <time>2020-06-28T15:20:13Z</time>
      </trkpt>
      <trkpt lat="48.675" lon="7.50641">
        <ele>230.3</ele>
        <time>2020-06-28T15:20:14Z</time>
      </trkpt>
      <trkpt lat="48.67502" lon="7.50635">
        <ele>230.1</ele>
        <time>2020-06-28T15:20:15Z</time>
      </trkpt>
      <trkpt lat="48.67503" lon="7.50629">
        <ele>230</ele>
        <time>2020-06-28T15:20:16Z</time>
      </trkpt>
      <trkpt lat="48.67506" lon="7.50623">
        <ele>229.7</ele>
        <time>2020-06-28T15:20:17Z</time>
      </trkpt>
      <trkpt lat="48.67509" lon="7.50618">
        <ele>229.5</ele>
        <time>2020-06-28T15:20:18Z</time>
      </trkpt>
      <trkpt lat="48.67513" lon="7.50613">
        <ele>229.2</ele>
        <time>2020-06-28T15:20:19Z</time>
      </trkpt>
      <trkpt lat="48.67517" lon="7.50608">
        <ele>228.8</ele>
        <time>2020-06-28T15:20:20Z</time>
      </trkpt>
      <trkpt lat="48.6752" lon="7.50602">
        <ele>228.5</ele>
        <time>2020-06-28T15:20:21Z</time>
      </trkpt>
      <trkpt lat="48.67522" lon="7.50595">
        <ele>228.1</ele>
        <time>2020-06-28T15:20:22Z</time>
      </trkpt>
      <trkpt lat="48.67525" lon="7.50589">
        <ele>227.7</ele>
        <time>2020-06-28T15:20:23Z</time>
      </trkpt>
      <trkpt lat="48.67528" lon="7.50583">
        <ele>227.4</ele>
        <time>2020-06-28T15:20:24Z</time>
      </trkpt>
      <trkpt lat="48.67533" lon="7.50578">
        <ele>226.9</ele>
        <time>2020-06-28T15:20:25Z</time>
      </trkpt>
      <trkpt lat="48.67537" lon="7.50572">
        <ele>226.4</ele>
        <time>2020-06-28T15:20:26Z</time>
      </trkpt>
      <trkpt lat="48.67542" lon="7.50565">
        <ele>225.9</ele>
        <time>2020-06-28T15:20:27Z</time>
      </trkpt>
      <trkpt lat="48.67548" lon="7.50558">
        <ele>225.3</ele>
        <time>2020-06-28T15:20:28Z</time>
      </trkpt>
      <trkpt lat="48.67553" lon="7.50551">
        <ele>224.6</ele>
        <time>2020-06-28T15:20:29Z</time>
      </trkpt>
      <trkpt lat="48.67559" lon="7.50544">
        <ele>224</ele>
        <time>2020-06-28T15:20:30Z</time>
      </trkpt>
      <trkpt lat="48.67565" lon="7.50537">
        <ele>223.3</ele>
        <time>2020-06-28T15:20:31Z</time>
      </trkpt>
      <trkpt lat="48.67571" lon="7.5053">
        <ele>222.8</ele>
        <time>2020-06-28T15:20:32Z</time>
      </trkpt>
      <trkpt lat="48.67577" lon="7.50524">
        <ele>222.1</ele>
        <time>2020-06-28T15:20:33Z</time>
      </trkpt>
      <trkpt lat="48.67583" lon="7.50518">
        <ele>221.5</ele>
        <time>2020-06-28T15:20:34Z</time>
      </trkpt>
      <trkpt lat="48.67589" lon="7.50513">
        <ele>220.9</ele>
        <time>2020-06-28T15:20:35Z</time>
      </trkpt>
      <trkpt lat="48.67595" lon="7.50508">
        <ele>220.4</ele>
        <time>2020-06-28T15:20:36Z</time>
      </trkpt>
      <trkpt lat="48.676" lon="7.50502">
        <ele>219.8</ele>
        <time>2020-06-28T15:20:37Z</time>
      </trkpt>
      <trkpt lat="48.67606" lon="7.50495">
        <ele>219.2</ele>
        <time>2020-06-28T15:20:38Z</time>
      </trkpt>
      <trkpt lat="48.67613" lon="7.50489">
        <ele>218.5</ele>
        <time>2020-06-28T15:20:39Z</time>
      </trkpt>
      <trkpt lat="48.67619" lon="7.50482">
        <ele>217.9</ele>
        <time>2020-06-28T15:20:40Z</time>
      </trkpt>
      <trkpt lat="48.67625" lon="7.50477">
        <ele>217.3</ele>
        <time>2020-06-28T15:20:41Z</time>
      </trkpt>
      <trkpt lat="48.67631" lon="7.5047">
        <ele>216.7</ele>
        <time>2020-06-28T15:20:42Z</time>
      </trkpt>
      <trkpt lat="48.67638" lon="7.50463">
        <ele>216.1</ele>
        <time>2020-06-28T15:20:43Z</time>
      </trkpt>
      <trkpt lat="48.67645" lon="7.50457">
        <ele>215.4</ele>
        <time>2020-06-28T15:20:44Z</time>
      </trkpt>
      <trkpt lat="48.67651" lon="7.5045">
        <ele>214.7</ele>
        <time>2020-06-28T15:20:45Z</time>
      </trkpt>
      <trkpt lat="48.67658" lon="7.50443">
        <ele>214</ele>
        <time>2020-06-28T15:20:46Z</time>
      </trkpt>
      <trkpt lat="48.67666" lon="7.50436">
        <ele>213.4</ele>
        <time>2020-06-28T15:20:47Z</time>
      </trkpt>
      <trkpt lat="48.67673" lon="7.5043">
        <ele>212.7</ele>
        <time>2020-06-28T15:20:48Z</time>
      </trkpt>
      <trkpt lat="48.67681" lon="7.50424">
        <ele>212.1</ele>
        <time>2020-06-28T15:20:49Z</time>
      </trkpt>
      <trkpt lat="48.6769" lon="7.50418">
        <ele>211.5</ele>
        <time>2020-06-28T15:20:50Z</time>
      </trkpt>
      <trkpt lat="48.67698" lon="7.50414">
        <ele>210.9</ele>
        <time>2020-06-28T15:20:51Z</time>
      </trkpt>
      <trkpt lat="48.67706" lon="7.5041">
        <ele>210.5</ele>
        <time>2020-06-28T15:20:52Z</time>
      </trkpt>
      <trkpt lat="48.67713" lon="7.50407">
        <ele>210.2</ele>
        <time>2020-06-28T15:20:53Z</time>
      </trkpt>
      <trkpt lat="48.6772" lon="7.50403">
        <ele>210</ele>
        <time>2020-06-28T15:20:54Z</time>
      </trkpt>
      <trkpt lat="48.67727" lon="7.50399">
        <ele>209.8</ele>
        <time>2020-06-28T15:20:55Z</time>
      </trkpt>
      <trkpt lat="48.67734" lon="7.50397">
        <ele>211</ele>
        <time>2020-06-28T15:20:56Z</time>
      </trkpt>
      <trkpt lat="48.67742" lon="7.50395">
        <ele>211.8</ele>
        <time>2020-06-28T15:20:57Z</time>
      </trkpt>
      <trkpt lat="48.67749" lon="7.50391">
        <ele>210.2</ele>
        <time>2020-06-28T15:20:58Z</time>
      </trkpt>
      <trkpt lat="48.67755" lon="7.50386">
        <ele>210.3</ele>
        <time>2020-06-28T15:20:59Z</time>
      </trkpt>
      <trkpt lat="48.67761" lon="7.50379">
        <ele>210.2</ele>
        <time>2020-06-28T15:21:00Z</time>
      </trkpt>
      <trkpt lat="48.67767" lon="7.50372">
        <ele>210.2</ele>
        <time>2020-06-28T15:21:01Z</time>
      </trkpt>
      <trkpt lat="48.67772" lon="7.50368">
        <ele>210.2</ele>
        <time>2020-06-28T15:21:02Z</time>
      </trkpt>
      <trkpt lat="48.67778" lon="7.50364">
        <ele>210.2</ele>
        <time>2020-06-28T15:21:03Z</time>
      </trkpt>
      <trkpt lat="48.67784" lon="7.5036">
        <ele>210.4</ele>
        <time>2020-06-28T15:21:04Z</time>
      </trkpt>
      <trkpt lat="48.67789" lon="7.50357">
        <ele>210.7</ele>
        <time>2020-06-28T15:21:05Z</time>
      </trkpt>
      <trkpt lat="48.67794" lon="7.50355">
        <ele>211</ele>
        <time>2020-06-28T15:21:06Z</time>
      </trkpt>
      <trkpt lat="48.67799" lon="7.50353">
        <ele>211.3</ele>
        <time>2020-06-28T15:21:07Z</time>
      </trkpt>
      <trkpt lat="48.67803" lon="7.50352">
        <ele>211.6</ele>
        <time>2020-06-28T15:21:08Z</time>
      </trkpt>
      <trkpt lat="48.67808" lon="7.50351">
        <ele>211.9</ele>
        <time>2020-06-28T15:21:09Z</time>
      </trkpt>
      <trkpt lat="48.67812" lon="7.5035">
        <ele>212.3</ele>
        <time>2020-06-28T15:21:10Z</time>
      </trkpt>
      <trkpt lat="48.67816" lon="7.50349">
        <ele>212.6</ele>
        <time>2020-06-28T15:21:11Z</time>
      </trkpt>
      <trkpt lat="48.6782" lon="7.50349">
        <ele>212.8</ele>
        <time>2020-06-28T15:21:12Z</time>
      </trkpt>
      <trkpt lat="48.67824" lon="7.5035">
        <ele>213.1</ele>
        <time>2020-06-28T15:21:13Z</time>
      </trkpt>
      <trkpt lat="48.67828" lon="7.5035">
        <ele>213.4</ele>
        <time>2020-06-28T15:21:14Z</time>
      </trkpt>
      <trkpt lat="48.67831" lon="7.5035">
        <ele>213.7</ele>
        <time>2020-06-28T15:21:15Z</time>
      </trkpt>
      <trkpt lat="48.67835" lon="7.5035">
        <ele>213.9</ele>
        <time>2020-06-28T15:21:16Z</time>
      </trkpt>
      <trkpt lat="48.67839" lon="7.50351">
        <ele>214.2</ele>
        <time>2020-06-28T15:21:17Z</time>
      </trkpt>
      <trkpt lat="48.67843" lon="7.50351">
        <ele>214.5</ele>
        <time>2020-06-28T15:21:18Z</time>
      </trkpt>
      <trkpt lat="48.67847" lon="7.50351">
        <ele>214.8</ele>
        <time>2020-06-28T15:21:19Z</time>
      </trkpt>
      <trkpt lat="48.67851" lon="7.50351">
        <ele>215.1</ele>
        <time>2020-06-28T15:21:20Z</time>
      </trkpt>
      <trkpt lat="48.67855" lon="7.50351">
        <ele>215.4</ele>
        <time>2020-06-28T15:21:21Z</time>
      </trkpt>
      <trkpt lat="48.67859" lon="7.50351">
        <ele>215.6</ele>
        <time>2020-06-28T15:21:22Z</time>
      </trkpt>
      <trkpt lat="48.67864" lon="7.5035">
        <ele>215.9</ele>
        <time>2020-06-28T15:21:23Z</time>
      </trkpt>
      <trkpt lat="48.67867" lon="7.50349">
        <ele>216.1</ele>
        <time>2020-06-28T15:21:24Z</time>
      </trkpt>
      <trkpt lat="48.6787" lon="7.50349">
        <ele>216.3</ele>
        <time>2020-06-28T15:21:25Z</time>
      </trkpt>
      <trkpt lat="48.67874" lon="7.50348">
        <ele>216.5</ele>
        <time>2020-06-28T15:21:26Z</time>
      </trkpt>
      <trkpt lat="48.67878" lon="7.50348">
        <ele>216.7</ele>
        <time>2020-06-28T15:21:27Z</time>
      </trkpt>
      <trkpt lat="48.67882" lon="7.50347">
        <ele>216.8</ele>
        <time>2020-06-28T15:21:28Z</time>
      </trkpt>
      <trkpt lat="48.67885" lon="7.50347">
        <ele>217</ele>
        <time>2020-06-28T15:21:29Z</time>
      </trkpt>
      <trkpt lat="48.67888" lon="7.50346">
        <ele>217.1</ele>
        <time>2020-06-28T15:21:30Z</time>
      </trkpt>
      <trkpt lat="48.67894" lon="7.50346">
        <ele>217.4</ele>
        <time>2020-06-28T15:21:31Z</time>
      </trkpt>
      <trkpt lat="48.67898" lon="7.50345">
        <ele>217.5</ele>
        <time>2020-06-28T15:21:32Z</time>
      </trkpt>
      <trkpt lat="48.67902" lon="7.50343">
        <ele>217.7</ele>
        <time>2020-06-28T15:21:33Z</time>
      </trkpt>
      <trkpt lat="48.67906" lon="7.50342">
        <ele>217.8</ele>
        <time>2020-06-28T15:21:34Z</time>
      </trkpt>
      <trkpt lat="48.67912" lon="7.50341">
        <ele>217.9</ele>
        <time>2020-06-28T15:21:35Z</time>
      </trkpt>
      <trkpt lat="48.67916" lon="7.5034">
        <ele>217.9</ele>
        <time>2020-06-28T15:21:36Z</time>
      </trkpt>
      <trkpt lat="48.67919" lon="7.5034">
        <ele>218</ele>
        <time>2020-06-28T15:21:37Z</time>
      </trkpt>
      <trkpt lat="48.67923" lon="7.50338">
        <ele>218</ele>
        <time>2020-06-28T15:21:38Z</time>
      </trkpt>
      <trkpt lat="48.67928" lon="7.50337">
        <ele>218</ele>
        <time>2020-06-28T15:21:39Z</time>
      </trkpt>
      <trkpt lat="48.67933" lon="7.50334">
        <ele>218.1</ele>
        <time>2020-06-28T15:21:40Z</time>
      </trkpt>
      <trkpt lat="48.67938" lon="7.50332">
        <ele>218.1</ele>
        <time>2020-06-28T15:21:41Z</time>
      </trkpt>
      <trkpt lat="48.67942" lon="7.5033">
        <ele>218.1</ele>
        <time>2020-06-28T15:21:42Z</time>
      </trkpt>
      <trkpt lat="48.67947" lon="7.50329">
        <ele>218.1</ele>
        <time>2020-06-28T15:21:43Z</time>
      </trkpt>
      <trkpt lat="48.67951" lon="7.50326">
        <ele>218.1</ele>
        <time>2020-06-28T15:21:44Z</time>
      </trkpt>
      <trkpt lat="48.67956" lon="7.50324">
        <ele>218</ele>
        <time>2020-06-28T15:21:45Z</time>
      </trkpt>
      <trkpt lat="48.6796" lon="7.50322">
        <ele>218</ele>
        <time>2020-06-28T15:21:46Z</time>
      </trkpt>
      <trkpt lat="48.67965" lon="7.5032">
        <ele>217.9</ele>
        <time>2020-06-28T15:21:47Z</time>
      </trkpt>
      <trkpt lat="48.67969" lon="7.50318">
        <ele>217.9</ele>
        <time>2020-06-28T15:21:48Z</time>
      </trkpt>
      <trkpt lat="48.67973" lon="7.50314">
        <ele>217.8</ele>
        <time>2020-06-28T15:21:49Z</time>
      </trkpt>
      <trkpt lat="48.67978" lon="7.50311">
        <ele>217.7</ele>
        <time>2020-06-28T15:21:50Z</time>
      </trkpt>
      <trkpt lat="48.67982" lon="7.50308">
        <ele>217.6</ele>
        <time>2020-06-28T15:21:51Z</time>
      </trkpt>
      <trkpt lat="48.67987" lon="7.50305">
        <ele>217.5</ele>
        <time>2020-06-28T15:21:52Z</time>
      </trkpt>
      <trkpt lat="48.67991" lon="7.50301">
        <ele>217.4</ele>
        <time>2020-06-28T15:21:53Z</time>
      </trkpt>
      <trkpt lat="48.67996" lon="7.50297">
        <ele>217.3</ele>
        <time>2020-06-28T15:21:54Z</time>
      </trkpt>
      <trkpt lat="48.68001" lon="7.50294">
        <ele>217.2</ele>
        <time>2020-06-28T15:21:55Z</time>
      </trkpt>
      <trkpt lat="48.68007" lon="7.5029">
        <ele>217</ele>
        <time>2020-06-28T15:21:56Z</time>
      </trkpt>
      <trkpt lat="48.68012" lon="7.50286">
        <ele>216.9</ele>
        <time>2020-06-28T15:21:57Z</time>
      </trkpt>
      <trkpt lat="48.68015" lon="7.50283">
        <ele>216.8</ele>
        <time>2020-06-28T15:21:58Z</time>
      </trkpt>
      <trkpt lat="48.68019" lon="7.50279">
        <ele>216.6</ele>
        <time>2020-06-28T15:21:59Z</time>
      </trkpt>
      <trkpt lat="48.68023" lon="7.50275">
        <ele>216.3</ele>
        <time>2020-06-28T15:22:00Z</time>
      </trkpt>
      <trkpt lat="48.68028" lon="7.50271">
        <ele>216</ele>
        <time>2020-06-28T15:22:01Z</time>
      </trkpt>
      <trkpt lat="48.68033" lon="7.50267">
        <ele>215.7</ele>
        <time>2020-06-28T15:22:02Z</time>
      </trkpt>
      <trkpt lat="48.68039" lon="7.50263">
        <ele>215.4</ele>
        <time>2020-06-28T15:22:03Z</time>
      </trkpt>
      <trkpt lat="48.68046" lon="7.50258">
        <ele>214.9</ele>
        <time>2020-06-28T15:22:04Z</time>
      </trkpt>
      <trkpt lat="48.68052" lon="7.50253">
        <ele>214.5</ele>
        <time>2020-06-28T15:22:05Z</time>
      </trkpt>
      <trkpt lat="48.68058" lon="7.50248">
        <ele>214.2</ele>
        <time>2020-06-28T15:22:06Z</time>
      </trkpt>
      <trkpt lat="48.68065" lon="7.50241">
        <ele>213.8</ele>
        <time>2020-06-28T15:22:07Z</time>
      </trkpt>
      <trkpt lat="48.68072" lon="7.50235">
        <ele>213.4</ele>
        <time>2020-06-28T15:22:08Z</time>
      </trkpt>
      <trkpt lat="48.68078" lon="7.50229">
        <ele>213.1</ele>
        <time>2020-06-28T15:22:09Z</time>
      </trkpt>
      <trkpt lat="48.68085" lon="7.50224">
        <ele>212.9</ele>
        <time>2020-06-28T15:22:10Z</time>
      </trkpt>
      <trkpt lat="48.68092" lon="7.50218">
        <ele>212.7</ele>
        <time>2020-06-28T15:22:11Z</time>
      </trkpt>
      <trkpt lat="48.68098" lon="7.50213">
        <ele>212.5</ele>
        <time>2020-06-28T15:22:12Z</time>
      </trkpt>
      <trkpt lat="48.68105" lon="7.50208">
        <ele>212.4</ele>
        <time>2020-06-28T15:22:13Z</time>
      </trkpt>
      <trkpt lat="48.68111" lon="7.50203">
        <ele>212.3</ele>
        <time>2020-06-28T15:22:14Z</time>
      </trkpt>
      <trkpt lat="48.68118" lon="7.50198">
        <ele>212.2</ele>
        <time>2020-06-28T15:22:15Z</time>
      </trkpt>
      <trkpt lat="48.68125" lon="7.50192">
        <ele>212.2</ele>
        <time>2020-06-28T15:22:16Z</time>
      </trkpt>
      <trkpt lat="48.68131" lon="7.50187">
        <ele>212.2</ele>
        <time>2020-06-28T15:22:17Z</time>
      </trkpt>
      <trkpt lat="48.68138" lon="7.50182">
        <ele>212.3</ele>
        <time>2020-06-28T15:22:18Z</time>
      </trkpt>
      <trkpt lat="48.68143" lon="7.50177">
        <ele>212.3</ele>
        <time>2020-06-28T15:22:19Z</time>
      </trkpt>
      <trkpt lat="48.6815" lon="7.50172">
        <ele>212.5</ele>
        <time>2020-06-28T15:22:20Z</time>
      </trkpt>
      <trkpt lat="48.68156" lon="7.50167">
        <ele>212.6</ele>
        <time>2020-06-28T15:22:21Z</time>
      </trkpt>
      <trkpt lat="48.68162" lon="7.50163">
        <ele>212.8</ele>
        <time>2020-06-28T15:22:22Z</time>
      </trkpt>
      <trkpt lat="48.68168" lon="7.50158">
        <ele>213</ele>
        <time>2020-06-28T15:22:23Z</time>
      </trkpt>
      <trkpt lat="48.68173" lon="7.50153">
        <ele>213.2</ele>
        <time>2020-06-28T15:22:24Z</time>
      </trkpt>
      <trkpt lat="48.68178" lon="7.50149">
        <ele>213.5</ele>
        <time>2020-06-28T15:22:25Z</time>
      </trkpt>
      <trkpt lat="48.68182" lon="7.50143">
        <ele>213.7</ele>
        <time>2020-06-28T15:22:26Z</time>
      </trkpt>
      <trkpt lat="48.68188" lon="7.50138">
        <ele>213.9</ele>
        <time>2020-06-28T15:22:27Z</time>
      </trkpt>
      <trkpt lat="48.68192" lon="7.50135">
        <ele>214.1</ele>
        <time>2020-06-28T15:22:28Z</time>
      </trkpt>
      <trkpt lat="48.68197" lon="7.50131">
        <ele>214.3</ele>
        <time>2020-06-28T15:22:29Z</time>
      </trkpt>
      <trkpt lat="48.68201" lon="7.50128">
        <ele>214.5</ele>
        <time>2020-06-28T15:22:30Z</time>
      </trkpt>
      <trkpt lat="48.68206" lon="7.50124">
        <ele>214.7</ele>
        <time>2020-06-28T15:22:31Z</time>
      </trkpt>
      <trkpt lat="48.68211" lon="7.5012">
        <ele>214.9</ele>
        <time>2020-06-28T15:22:32Z</time>
      </trkpt>
      <trkpt lat="48.68215" lon="7.50115">
        <ele>215</ele>
        <time>2020-06-28T15:22:33Z</time>
      </trkpt>
      <trkpt lat="48.6822" lon="7.50112">
        <ele>215.2</ele>
        <time>2020-06-28T15:22:34Z</time>
      </trkpt>
      <trkpt lat="48.68224" lon="7.50109">
        <ele>215.3</ele>
        <time>2020-06-28T15:22:35Z</time>
      </trkpt>
      <trkpt lat="48.68229" lon="7.50107">
        <ele>215.4</ele>
        <time>2020-06-28T15:22:36Z</time>
      </trkpt>
      <trkpt lat="48.68233" lon="7.50102">
        <ele>215.5</ele>
        <time>2020-06-28T15:22:37Z</time>
      </trkpt>
      <trkpt lat="48.68238" lon="7.50098">
        <ele>215.6</ele>
        <time>2020-06-28T15:22:38Z</time>
      </trkpt>
      <trkpt lat="48.68243" lon="7.50094">
        <ele>215.7</ele>
        <time>2020-06-28T15:22:39Z</time>
      </trkpt>
      <trkpt lat="48.68247" lon="7.5009">
        <ele>215.8</ele>
        <time>2020-06-28T15:22:40Z</time>
      </trkpt>
      <trkpt lat="48.68252" lon="7.50086">
        <ele>215.8</ele>
        <time>2020-06-28T15:22:41Z</time>
      </trkpt>
      <trkpt lat="48.68256" lon="7.50083">
        <ele>215.9</ele>
        <time>2020-06-28T15:22:42Z</time>
      </trkpt>
      <trkpt lat="48.6826" lon="7.50079">
        <ele>215.9</ele>
        <time>2020-06-28T15:22:43Z</time>
      </trkpt>
      <trkpt lat="48.68265" lon="7.50077">
        <ele>215.9</ele>
        <time>2020-06-28T15:22:44Z</time>
      </trkpt>
      <trkpt lat="48.68269" lon="7.50073">
        <ele>215.8</ele>
        <time>2020-06-28T15:22:45Z</time>
      </trkpt>
      <trkpt lat="48.68274" lon="7.5007">
        <ele>215.7</ele>
        <time>2020-06-28T15:22:46Z</time>
      </trkpt>
      <trkpt lat="48.68279" lon="7.50066">
        <ele>215.6</ele>
        <time>2020-06-28T15:22:47Z</time>
      </trkpt>
      <trkpt lat="48.68284" lon="7.50063">
        <ele>215.5</ele>
        <time>2020-06-28T15:22:48Z</time>
      </trkpt>
      <trkpt lat="48.68289" lon="7.50058">
        <ele>215.3</ele>
        <time>2020-06-28T15:22:49Z</time>
      </trkpt>
      <trkpt lat="48.68294" lon="7.50054">
        <ele>215.2</ele>
        <time>2020-06-28T15:22:50Z</time>
      </trkpt>
      <trkpt lat="48.68298" lon="7.5005">
        <ele>215</ele>
        <time>2020-06-28T15:22:51Z</time>
      </trkpt>
      <trkpt lat="48.68302" lon="7.50046">
        <ele>214.9</ele>
        <time>2020-06-28T15:22:52Z</time>
      </trkpt>
      <trkpt lat="48.68306" lon="7.50042">
        <ele>214.7</ele>
        <time>2020-06-28T15:22:53Z</time>
      </trkpt>
      <trkpt lat="48.68311" lon="7.50038">
        <ele>214.6</ele>
        <time>2020-06-28T15:22:54Z</time>
      </trkpt>
      <trkpt lat="48.68316" lon="7.50034">
        <ele>214.4</ele>
        <time>2020-06-28T15:22:55Z</time>
      </trkpt>
      <trkpt lat="48.68321" lon="7.50031">
        <ele>214.2</ele>
        <time>2020-06-28T15:22:56Z</time>
      </trkpt>
      <trkpt lat="48.68326" lon="7.50026">
        <ele>214</ele>
        <time>2020-06-28T15:22:57Z</time>
      </trkpt>
      <trkpt lat="48.68332" lon="7.50022">
        <ele>213.9</ele>
        <time>2020-06-28T15:22:58Z</time>
      </trkpt>
      <trkpt lat="48.68338" lon="7.50019">
        <ele>213.6</ele>
        <time>2020-06-28T15:22:59Z</time>
      </trkpt>
      <trkpt lat="48.68343" lon="7.50016">
        <ele>213.4</ele>
        <time>2020-06-28T15:23:00Z</time>
      </trkpt>
      <trkpt lat="48.68348" lon="7.50013">
        <ele>213.2</ele>
        <time>2020-06-28T15:23:01Z</time>
      </trkpt>
      <trkpt lat="48.68353" lon="7.5001">
        <ele>213</ele>
        <time>2020-06-28T15:23:02Z</time>
      </trkpt>
      <trkpt lat="48.68358" lon="7.50006">
        <ele>212.8</ele>
        <time>2020-06-28T15:23:03Z</time>
      </trkpt>
      <trkpt lat="48.68364" lon="7.50002">
        <ele>212.6</ele>
        <time>2020-06-28T15:23:04Z</time>
      </trkpt>
      <trkpt lat="48.6837" lon="7.49998">
        <ele>212.5</ele>
        <time>2020-06-28T15:23:05Z</time>
      </trkpt>
      <trkpt lat="48.68376" lon="7.49994">
        <ele>212.3</ele>
        <time>2020-06-28T15:23:06Z</time>
      </trkpt>
      <trkpt lat="48.68382" lon="7.4999">
        <ele>212.1</ele>
        <time>2020-06-28T15:23:07Z</time>
      </trkpt>
      <trkpt lat="48.68387" lon="7.49987">
        <ele>211.9</ele>
        <time>2020-06-28T15:23:08Z</time>
      </trkpt>
      <trkpt lat="48.68392" lon="7.49983">
        <ele>211.8</ele>
        <time>2020-06-28T15:23:09Z</time>
      </trkpt>
      <trkpt lat="48.68399" lon="7.4998">
        <ele>211.6</ele>
        <time>2020-06-28T15:23:10Z</time>
      </trkpt>
      <trkpt lat="48.68405" lon="7.49976">
        <ele>211.4</ele>
        <time>2020-06-28T15:23:11Z</time>
      </trkpt>
      <trkpt lat="48.68412" lon="7.49972">
        <ele>211.2</ele>
        <time>2020-06-28T15:23:12Z</time>
      </trkpt>
      <trkpt lat="48.68418" lon="7.49969">
        <ele>211</ele>
        <time>2020-06-28T15:23:13Z</time>
      </trkpt>
      <trkpt lat="48.68424" lon="7.49965">
        <ele>210.8</ele>
        <time>2020-06-28T15:23:14Z</time>
      </trkpt>
      <trkpt lat="48.68431" lon="7.49961">
        <ele>210.6</ele>
        <time>2020-06-28T15:23:15Z</time>
      </trkpt>
      <trkpt lat="48.68437" lon="7.49957">
        <ele>210.3</ele>
        <time>2020-06-28T15:23:16Z</time>
      </trkpt>
      <trkpt lat="48.68443" lon="7.49952">
        <ele>210.1</ele>
        <time>2020-06-28T15:23:17Z</time>
      </trkpt>
      <trkpt lat="48.6845" lon="7.49948">
        <ele>209.9</ele>
        <time>2020-06-28T15:23:18Z</time>
      </trkpt>
      <trkpt lat="48.68456" lon="7.49944">
        <ele>209.7</ele>
        <time>2020-06-28T15:23:19Z</time>
      </trkpt>
      <trkpt lat="48.68463" lon="7.4994">
        <ele>209.4</ele>
        <time>2020-06-28T15:23:20Z</time>
      </trkpt>
      <trkpt lat="48.68469" lon="7.49936">
        <ele>209.2</ele>
        <time>2020-06-28T15:23:21Z</time>
      </trkpt>
      <trkpt lat="48.68476" lon="7.49932">
        <ele>209</ele>
        <time>2020-06-28T15:23:22Z</time>
      </trkpt>
      <trkpt lat="48.68483" lon="7.49928">
        <ele>208.8</ele>
        <time>2020-06-28T15:23:23Z</time>
      </trkpt>
      <trkpt lat="48.68489" lon="7.49923">
        <ele>208.6</ele>
        <time>2020-06-28T15:23:24Z</time>
      </trkpt>
      <trkpt lat="48.68496" lon="7.4992">
        <ele>208.3</ele>
        <time>2020-06-28T15:23:25Z</time>
      </trkpt>
      <trkpt lat="48.68502" lon="7.49916">
        <ele>208.1</ele>
        <time>2020-06-28T15:23:26Z</time>
      </trkpt>
      <trkpt lat="48.68508" lon="7.49912">
        <ele>207.9</ele>
        <time>2020-06-28T15:23:27Z</time>
      </trkpt>
      <trkpt lat="48.68515" lon="7.49908">
        <ele>207.7</ele>
        <time>2020-06-28T15:23:28Z</time>
      </trkpt>
      <trkpt lat="48.68521" lon="7.49904">
        <ele>207.5</ele>
        <time>2020-06-28T15:23:29Z</time>
      </trkpt>
      <trkpt lat="48.68527" lon="7.499">
        <ele>207.3</ele>
        <time>2020-06-28T15:23:30Z</time>
      </trkpt>
      <trkpt lat="48.68534" lon="7.49896">
        <ele>206.9</ele>
        <time>2020-06-28T15:23:31Z</time>
      </trkpt>
      <trkpt lat="48.6854" lon="7.49893">
        <ele>206.7</ele>
        <time>2020-06-28T15:23:32Z</time>
      </trkpt>
      <trkpt lat="48.68546" lon="7.49889">
        <ele>206.4</ele>
        <time>2020-06-28T15:23:33Z</time>
      </trkpt>
      <trkpt lat="48.68552" lon="7.49885">
        <ele>206.1</ele>
        <time>2020-06-28T15:23:34Z</time>
      </trkpt>
      <trkpt lat="48.68558" lon="7.49882">
        <ele>205.9</ele>
        <time>2020-06-28T15:23:35Z</time>
      </trkpt>
      <trkpt lat="48.68564" lon="7.49879">
        <ele>205.7</ele>
        <time>2020-06-28T15:23:36Z</time>
      </trkpt>
      <trkpt lat="48.68569" lon="7.49876">
        <ele>205.4</ele>
        <time>2020-06-28T15:23:37Z</time>
      </trkpt>
      <trkpt lat="48.68575" lon="7.49872">
        <ele>205.3</ele>
        <time>2020-06-28T15:23:38Z</time>
      </trkpt>
      <trkpt lat="48.68581" lon="7.49869">
        <ele>205.1</ele>
        <time>2020-06-28T15:23:39Z</time>
      </trkpt>
      <trkpt lat="48.68588" lon="7.49866">
        <ele>204.8</ele>
        <time>2020-06-28T15:23:40Z</time>
      </trkpt>
      <trkpt lat="48.68594" lon="7.49863">
        <ele>204.5</ele>
        <time>2020-06-28T15:23:41Z</time>
      </trkpt>
      <trkpt lat="48.686" lon="7.4986">
        <ele>204.3</ele>
        <time>2020-06-28T15:23:42Z</time>
      </trkpt>
      <trkpt lat="48.68606" lon="7.49856">
        <ele>204</ele>
        <time>2020-06-28T15:23:43Z</time>
      </trkpt>
      <trkpt lat="48.68613" lon="7.49854">
        <ele>203.7</ele>
        <time>2020-06-28T15:23:44Z</time>
      </trkpt>
      <trkpt lat="48.68619" lon="7.49851">
        <ele>203.4</ele>
        <time>2020-06-28T15:23:45Z</time>
      </trkpt>
      <trkpt lat="48.68626" lon="7.49848">
        <ele>203.1</ele>
        <time>2020-06-28T15:23:46Z</time>
      </trkpt>
      <trkpt lat="48.68632" lon="7.49845">
        <ele>202.7</ele>
        <time>2020-06-28T15:23:47Z</time>
      </trkpt>
      <trkpt lat="48.68639" lon="7.49842">
        <ele>202.4</ele>
        <time>2020-06-28T15:23:48Z</time>
      </trkpt>
      <trkpt lat="48.68646" lon="7.49839">
        <ele>201.9</ele>
        <time>2020-06-28T15:23:49Z</time>
      </trkpt>
      <trkpt lat="48.68653" lon="7.49835">
        <ele>201.5</ele>
        <time>2020-06-28T15:23:50Z</time>
      </trkpt>
      <trkpt lat="48.6866" lon="7.49832">
        <ele>201.1</ele>
        <time>2020-06-28T15:23:51Z</time>
      </trkpt>
      <trkpt lat="48.68667" lon="7.49828">
        <ele>200.7</ele>
        <time>2020-06-28T15:23:52Z</time>
      </trkpt>
      <trkpt lat="48.68674" lon="7.49825">
        <ele>200.3</ele>
        <time>2020-06-28T15:23:53Z</time>
      </trkpt>
      <trkpt lat="48.68681" lon="7.49822">
        <ele>199.8</ele>
        <time>2020-06-28T15:23:54Z</time>
      </trkpt>
      <trkpt lat="48.68688" lon="7.49818">
        <ele>199.4</ele>
        <time>2020-06-28T15:23:55Z</time>
      </trkpt>
      <trkpt lat="48.68696" lon="7.49816">
        <ele>198.9</ele>
        <time>2020-06-28T15:23:56Z</time>
      </trkpt>
      <trkpt lat="48.68703" lon="7.49813">
        <ele>198.5</ele>
        <time>2020-06-28T15:23:57Z</time>
      </trkpt>
      <trkpt lat="48.68711" lon="7.4981">
        <ele>198</ele>
        <time>2020-06-28T15:23:58Z</time>
      </trkpt>
      <trkpt lat="48.68718" lon="7.49806">
        <ele>197.6</ele>
        <time>2020-06-28T15:23:59Z</time>
      </trkpt>
      <trkpt lat="48.68726" lon="7.49802">
        <ele>197.1</ele>
        <time>2020-06-28T15:24:00Z</time>
      </trkpt>
      <trkpt lat="48.68733" lon="7.49798">
        <ele>196.7</ele>
        <time>2020-06-28T15:24:01Z</time>
      </trkpt>
      <trkpt lat="48.68741" lon="7.49795">
        <ele>196.2</ele>
        <time>2020-06-28T15:24:02Z</time>
      </trkpt>
      <trkpt lat="48.68748" lon="7.49792">
        <ele>195.8</ele>
        <time>2020-06-28T15:24:03Z</time>
      </trkpt>
      <trkpt lat="48.68756" lon="7.49788">
        <ele>195.3</ele>
        <time>2020-06-28T15:24:04Z</time>
      </trkpt>
      <trkpt lat="48.68765" lon="7.49785">
        <ele>194.9</ele>
        <time>2020-06-28T15:24:05Z</time>
      </trkpt>
      <trkpt lat="48.68772" lon="7.49781">
        <ele>194.4</ele>
        <time>2020-06-28T15:24:06Z</time>
      </trkpt>
      <trkpt lat="48.6878" lon="7.49778">
        <ele>194</ele>
        <time>2020-06-28T15:24:07Z</time>
      </trkpt>
      <trkpt lat="48.68788" lon="7.49775">
        <ele>193.5</ele>
        <time>2020-06-28T15:24:08Z</time>
      </trkpt>
      <trkpt lat="48.68795" lon="7.49771">
        <ele>193.1</ele>
        <time>2020-06-28T15:24:09Z</time>
      </trkpt>
      <trkpt lat="48.68803" lon="7.49768">
        <ele>192.6</ele>
        <time>2020-06-28T15:24:10Z</time>
      </trkpt>
      <trkpt lat="48.68811" lon="7.49765">
        <ele>192.2</ele>
        <time>2020-06-28T15:24:11Z</time>
      </trkpt>
      <trkpt lat="48.68819" lon="7.49762">
        <ele>191.8</ele>
        <time>2020-06-28T15:24:12Z</time>
      </trkpt>
      <trkpt lat="48.68827" lon="7.4976">
        <ele>191.5</ele>
        <time>2020-06-28T15:24:13Z</time>
      </trkpt>
      <trkpt lat="48.68835" lon="7.49757">
        <ele>191.1</ele>
        <time>2020-06-28T15:24:14Z</time>
      </trkpt>
      <trkpt lat="48.68843" lon="7.49754">
        <ele>190.8</ele>
        <time>2020-06-28T15:24:15Z</time>
      </trkpt>
      <trkpt lat="48.68852" lon="7.49754">
        <ele>190.7</ele>
        <time>2020-06-28T15:24:16Z</time>
      </trkpt>
      <trkpt lat="48.6886" lon="7.49753">
        <ele>190.8</ele>
        <time>2020-06-28T15:24:17Z</time>
      </trkpt>
      <trkpt lat="48.68869" lon="7.49752">
        <ele>190.9</ele>
        <time>2020-06-28T15:24:18Z</time>
      </trkpt>
      <trkpt lat="48.68877" lon="7.49752">
        <ele>191.3</ele>
        <time>2020-06-28T15:24:19Z</time>
      </trkpt>
      <trkpt lat="48.68885" lon="7.49755">
        <ele>190.9</ele>
        <time>2020-06-28T15:24:20Z</time>
      </trkpt>
      <trkpt lat="48.68893" lon="7.49757">
        <ele>190.6</ele>
        <time>2020-06-28T15:24:21Z</time>
      </trkpt>
      <trkpt lat="48.68901" lon="7.49761">
        <ele>190.3</ele>
        <time>2020-06-28T15:24:22Z</time>
      </trkpt>
      <trkpt lat="48.68908" lon="7.49764">
        <ele>190</ele>
        <time>2020-06-28T15:24:23Z</time>
      </trkpt>
      <trkpt lat="48.68916" lon="7.49766">
        <ele>189.7</ele>
        <time>2020-06-28T15:24:24Z</time>
      </trkpt>
      <trkpt lat="48.68922" lon="7.49768">
        <ele>189.8</ele>
        <time>2020-06-28T15:24:25Z</time>
      </trkpt>
      <trkpt lat="48.68929" lon="7.4977">
        <ele>190</ele>
        <time>2020-06-28T15:24:26Z</time>
      </trkpt>
      <trkpt lat="48.68935" lon="7.49771">
        <ele>190.2</ele>
        <time>2020-06-28T15:24:27Z</time>
      </trkpt>
      <trkpt lat="48.68941" lon="7.49773">
        <ele>190.4</ele>
        <time>2020-06-28T15:24:28Z</time>
      </trkpt>
      <trkpt lat="48.68946" lon="7.49775">
        <ele>190.6</ele>
        <time>2020-06-28T15:24:29Z</time>
      </trkpt>
      <trkpt lat="48.68951" lon="7.49777">
        <ele>190.8</ele>
        <time>2020-06-28T15:24:30Z</time>
      </trkpt>
      <trkpt lat="48.68956" lon="7.49778">
        <ele>191</ele>
        <time>2020-06-28T15:24:31Z</time>
      </trkpt>
      <trkpt lat="48.6896" lon="7.49777">
        <ele>191.3</ele>
        <time>2020-06-28T15:24:32Z</time>
      </trkpt>
      <trkpt lat="48.68965" lon="7.49777">
        <ele>191.5</ele>
        <time>2020-06-28T15:24:33Z</time>
      </trkpt>
      <trkpt lat="48.68969" lon="7.49777">
        <ele>191.6</ele>
        <time>2020-06-28T15:24:34Z</time>
      </trkpt>
      <trkpt lat="48.68972" lon="7.49775">
        <ele>191.7</ele>
        <time>2020-06-28T15:24:35Z</time>
      </trkpt>
      <trkpt lat="48.68975" lon="7.49772">
        <ele>191.8</ele>
        <time>2020-06-28T15:24:36Z</time>
      </trkpt>
      <trkpt lat="48.68978" lon="7.49771">
        <ele>191.9</ele>
        <time>2020-06-28T15:24:37Z</time>
      </trkpt>
      <trkpt lat="48.68979" lon="7.4977">
        <ele>192</ele>
        <time>2020-06-28T15:24:38Z</time>
      </trkpt>
      <trkpt lat="48.68981" lon="7.49768">
        <ele>192</ele>
        <time>2020-06-28T15:24:39Z</time>
      </trkpt>
      <trkpt lat="48.68983" lon="7.49767">
        <ele>192.1</ele>
        <time>2020-06-28T15:24:40Z</time>
      </trkpt>
      <trkpt lat="48.68983" lon="7.49766">
        <ele>192.1</ele>
        <time>2020-06-28T15:24:41Z</time>
      </trkpt>
      <trkpt lat="48.68984" lon="7.49765">
        <ele>192.2</ele>
        <time>2020-06-28T15:24:42Z</time>
      </trkpt>
      <trkpt lat="48.68985" lon="7.49766">
        <ele>192.2</ele>
        <time>2020-06-28T15:24:43Z</time>
      </trkpt>
      <trkpt lat="48.68985" lon="7.49766">
        <ele>192.2</ele>
        <time>2020-06-28T15:24:44Z</time>
      </trkpt>
      <trkpt lat="48.68985" lon="7.49768">
        <ele>192.2</ele>
        <time>2020-06-28T15:24:45Z</time>
      </trkpt>
      <trkpt lat="48.68985" lon="7.49769">
        <ele>192.3</ele>
        <time>2020-06-28T15:24:46Z</time>
      </trkpt>
      <trkpt lat="48.68985" lon="7.49769">
        <ele>192.3</ele>
        <time>2020-06-28T15:24:47Z</time>
      </trkpt>
      <trkpt lat="48.68985" lon="7.49768">
        <ele>192.3</ele>
        <time>2020-06-28T15:24:48Z</time>
      </trkpt>
      <trkpt lat="48.68985" lon="7.49767">
        <ele>192.3</ele>
        <time>2020-06-28T15:24:49Z</time>
      </trkpt>
      <trkpt lat="48.68985" lon="7.49767">
        <ele>192.4</ele>
        <time>2020-06-28T15:24:50Z</time>
      </trkpt>
      <trkpt lat="48.68985" lon="7.49767">
        <ele>192.4</ele>
        <time>2020-06-28T15:24:51Z</time>
      </trkpt>
      <trkpt lat="48.68985" lon="7.49767">
        <ele>192.4</ele>
        <time>2020-06-28T15:24:52Z</time>
      </trkpt>
      <trkpt lat="48.68985" lon="7.49768">
        <ele>192.4</ele>
        <time>2020-06-28T15:24:53Z</time>
      </trkpt>
      <trkpt lat="48.68989" lon="7.49755">
        <ele>192.9</ele>
        <time>2020-06-28T15:31:46Z</time>
      </trkpt>
      <trkpt lat="48.68991" lon="7.49754">
        <ele>193</ele>
        <time>2020-06-28T15:31:47Z</time>
      </trkpt>
      <trkpt lat="48.68992" lon="7.49753">
        <ele>193.1</ele>
        <time>2020-06-28T15:31:48Z</time>
      </trkpt>
      <trkpt lat="48.68993" lon="7.49751">
        <ele>193.2</ele>
        <time>2020-06-28T15:31:49Z</time>
      </trkpt>
      <trkpt lat="48.68995" lon="7.49748">
        <ele>193.4</ele>
        <time>2020-06-28T15:31:50Z</time>
      </trkpt>
      <trkpt lat="48.68996" lon="7.49748">
        <ele>193.5</ele>
        <time>2020-06-28T15:31:51Z</time>
      </trkpt>
      <trkpt lat="48.68999" lon="7.49746">
        <ele>193.7</ele>
        <time>2020-06-28T15:31:52Z</time>
      </trkpt>
      <trkpt lat="48.69001" lon="7.49745">
        <ele>193.8</ele>
        <time>2020-06-28T15:31:53Z</time>
      </trkpt>
      <trkpt lat="48.69003" lon="7.49742">
        <ele>194</ele>
        <time>2020-06-28T15:31:54Z</time>
      </trkpt>
      <trkpt lat="48.69005" lon="7.49738">
        <ele>194.2</ele>
        <time>2020-06-28T15:31:55Z</time>
      </trkpt>
      <trkpt lat="48.69007" lon="7.49735">
        <ele>194.4</ele>
        <time>2020-06-28T15:31:56Z</time>
      </trkpt>
      <trkpt lat="48.69009" lon="7.49731">
        <ele>194.6</ele>
        <time>2020-06-28T15:31:57Z</time>
      </trkpt>
      <trkpt lat="48.69011" lon="7.49727">
        <ele>194.8</ele>
        <time>2020-06-28T15:31:58Z</time>
      </trkpt>
      <trkpt lat="48.69012" lon="7.49723">
        <ele>195</ele>
        <time>2020-06-28T15:31:59Z</time>
      </trkpt>
      <trkpt lat="48.69014" lon="7.49719">
        <ele>195.2</ele>
        <time>2020-06-28T15:32:00Z</time>
      </trkpt>
      <trkpt lat="48.69015" lon="7.49715">
        <ele>195.4</ele>
        <time>2020-06-28T15:32:01Z</time>
      </trkpt>
      <trkpt lat="48.69016" lon="7.4971">
        <ele>195.6</ele>
        <time>2020-06-28T15:32:02Z</time>
      </trkpt>
      <trkpt lat="48.69016" lon="7.49705">
        <ele>195.8</ele>
        <time>2020-06-28T15:32:03Z</time>
      </trkpt>
      <trkpt lat="48.69017" lon="7.49701">
        <ele>196</ele>
        <time>2020-06-28T15:32:04Z</time>
      </trkpt>
      <trkpt lat="48.69018" lon="7.49697">
        <ele>196.2</ele>
        <time>2020-06-28T15:32:05Z</time>
      </trkpt>
      <trkpt lat="48.69019" lon="7.49693">
        <ele>196.4</ele>
        <time>2020-06-28T15:32:06Z</time>
      </trkpt>
      <trkpt lat="48.69019" lon="7.49687">
        <ele>196.6</ele>
        <time>2020-06-28T15:32:07Z</time>
      </trkpt>
      <trkpt lat="48.6902" lon="7.49684">
        <ele>196.7</ele>
        <time>2020-06-28T15:32:08Z</time>
      </trkpt>
      <trkpt lat="48.69021" lon="7.49678">
        <ele>197</ele>
        <time>2020-06-28T15:32:09Z</time>
      </trkpt>
      <trkpt lat="48.69021" lon="7.49676">
        <ele>197.1</ele>
        <time>2020-06-28T15:32:10Z</time>
      </trkpt>
      <trkpt lat="48.69022" lon="7.49671">
        <ele>197.3</ele>
        <time>2020-06-28T15:32:11Z</time>
      </trkpt>
      <trkpt lat="48.69023" lon="7.49665">
        <ele>197.5</ele>
        <time>2020-06-28T15:32:12Z</time>
      </trkpt>
      <trkpt lat="48.69023" lon="7.4966">
        <ele>197.7</ele>
        <time>2020-06-28T15:32:13Z</time>
      </trkpt>
      <trkpt lat="48.69024" lon="7.49656">
        <ele>197.9</ele>
        <time>2020-06-28T15:32:14Z</time>
      </trkpt>
      <trkpt lat="48.69024" lon="7.49651">
        <ele>198.1</ele>
        <time>2020-06-28T15:32:15Z</time>
      </trkpt>
      <trkpt lat="48.69023" lon="7.49645">
        <ele>198.3</ele>
        <time>2020-06-28T15:32:16Z</time>
      </trkpt>
      <trkpt lat="48.69023" lon="7.49643">
        <ele>198.4</ele>
        <time>2020-06-28T15:32:17Z</time>
      </trkpt>
      <trkpt lat="48.69023" lon="7.49638">
        <ele>198.6</ele>
        <time>2020-06-28T15:32:18Z</time>
      </trkpt>
      <trkpt lat="48.69022" lon="7.49632">
        <ele>198.9</ele>
        <time>2020-06-28T15:32:19Z</time>
      </trkpt>
      <trkpt lat="48.69022" lon="7.49628">
        <ele>199.1</ele>
        <time>2020-06-28T15:32:20Z</time>
      </trkpt>
      <trkpt lat="48.69022" lon="7.49621">
        <ele>199.3</ele>
        <time>2020-06-28T15:32:21Z</time>
      </trkpt>
      <trkpt lat="48.69021" lon="7.49618">
        <ele>199.4</ele>
        <time>2020-06-28T15:32:22Z</time>
      </trkpt>
      <trkpt lat="48.6902" lon="7.49613">
        <ele>199.7</ele>
        <time>2020-06-28T15:32:23Z</time>
      </trkpt>
      <trkpt lat="48.69019" lon="7.49608">
        <ele>199.9</ele>
        <time>2020-06-28T15:32:24Z</time>
      </trkpt>
      <trkpt lat="48.69018" lon="7.49603">
        <ele>200.1</ele>
        <time>2020-06-28T15:32:25Z</time>
      </trkpt>
      <trkpt lat="48.69018" lon="7.49601">
        <ele>200.2</ele>
        <time>2020-06-28T15:32:26Z</time>
      </trkpt>
      <trkpt lat="48.69017" lon="7.49596">
        <ele>200.4</ele>
        <time>2020-06-28T15:32:27Z</time>
      </trkpt>
      <trkpt lat="48.69016" lon="7.49592">
        <ele>200.5</ele>
        <time>2020-06-28T15:32:28Z</time>
      </trkpt>
      <trkpt lat="48.69016" lon="7.49588">
        <ele>200.7</ele>
        <time>2020-06-28T15:32:29Z</time>
      </trkpt>
      <trkpt lat="48.69014" lon="7.49581">
        <ele>201</ele>
        <time>2020-06-28T15:32:30Z</time>
      </trkpt>
      <trkpt lat="48.69014" lon="7.49578">
        <ele>201.1</ele>
        <time>2020-06-28T15:32:31Z</time>
      </trkpt>
      <trkpt lat="48.69013" lon="7.49574">
        <ele>201.3</ele>
        <time>2020-06-28T15:32:32Z</time>
      </trkpt>
      <trkpt lat="48.69012" lon="7.4957">
        <ele>201.5</ele>
        <time>2020-06-28T15:32:33Z</time>
      </trkpt>
      <trkpt lat="48.69012" lon="7.49568">
        <ele>201.5</ele>
        <time>2020-06-28T15:32:34Z</time>
      </trkpt>
      <trkpt lat="48.69011" lon="7.49563">
        <ele>201.7</ele>
        <time>2020-06-28T15:32:35Z</time>
      </trkpt>
      <trkpt lat="48.69011" lon="7.4956">
        <ele>201.8</ele>
        <time>2020-06-28T15:32:36Z</time>
      </trkpt>
      <trkpt lat="48.69011" lon="7.49556">
        <ele>201.9</ele>
        <time>2020-06-28T15:32:37Z</time>
      </trkpt>
      <trkpt lat="48.69011" lon="7.49552">
        <ele>202.1</ele>
        <time>2020-06-28T15:32:38Z</time>
      </trkpt>
      <trkpt lat="48.6901" lon="7.49546">
        <ele>202.2</ele>
        <time>2020-06-28T15:32:39Z</time>
      </trkpt>
      <trkpt lat="48.6901" lon="7.49542">
        <ele>202.3</ele>
        <time>2020-06-28T15:32:40Z</time>
      </trkpt>
      <trkpt lat="48.6901" lon="7.49535">
        <ele>202.5</ele>
        <time>2020-06-28T15:32:41Z</time>
      </trkpt>
      <trkpt lat="48.69009" lon="7.49532">
        <ele>202.6</ele>
        <time>2020-06-28T15:32:42Z</time>
      </trkpt>
      <trkpt lat="48.69009" lon="7.49527">
        <ele>202.7</ele>
        <time>2020-06-28T15:32:43Z</time>
      </trkpt>
      <trkpt lat="48.69009" lon="7.49523">
        <ele>203</ele>
        <time>2020-06-28T15:32:44Z</time>
      </trkpt>
      <trkpt lat="48.69009" lon="7.49517">
        <ele>203.1</ele>
        <time>2020-06-28T15:32:45Z</time>
      </trkpt>
      <trkpt lat="48.69008" lon="7.49511">
        <ele>203.1</ele>
        <time>2020-06-28T15:32:46Z</time>
      </trkpt>
      <trkpt lat="48.69008" lon="7.49504">
        <ele>203.2</ele>
        <time>2020-06-28T15:32:47Z</time>
      </trkpt>
      <trkpt lat="48.69008" lon="7.495">
        <ele>203.2</ele>
        <time>2020-06-28T15:32:48Z</time>
      </trkpt>
      <trkpt lat="48.69009" lon="7.49496">
        <ele>203.2</ele>
        <time>2020-06-28T15:32:49Z</time>
      </trkpt>
      <trkpt lat="48.69009" lon="7.49489">
        <ele>203.4</ele>
        <time>2020-06-28T15:32:50Z</time>
      </trkpt>
      <trkpt lat="48.69011" lon="7.49484">
        <ele>203.5</ele>
        <time>2020-06-28T15:32:51Z</time>
      </trkpt>
      <trkpt lat="48.69014" lon="7.4948">
        <ele>203.6</ele>
        <time>2020-06-28T15:32:52Z</time>
      </trkpt>
      <trkpt lat="48.69017" lon="7.49478">
        <ele>203.7</ele>
        <time>2020-06-28T15:32:53Z</time>
      </trkpt>
      <trkpt lat="48.6902" lon="7.49476">
        <ele>203.8</ele>
        <time>2020-06-28T15:32:54Z</time>
      </trkpt>
      <trkpt lat="48.69021" lon="7.49475">
        <ele>203.9</ele>
        <time>2020-06-28T15:32:55Z</time>
      </trkpt>
      <trkpt lat="48.69024" lon="7.49472">
        <ele>204</ele>
        <time>2020-06-28T15:32:56Z</time>
      </trkpt>
      <trkpt lat="48.69027" lon="7.4947">
        <ele>204</ele>
        <time>2020-06-28T15:32:57Z</time>
      </trkpt>
      <trkpt lat="48.69029" lon="7.49468">
        <ele>204.1</ele>
        <time>2020-06-28T15:32:58Z</time>
      </trkpt>
      <trkpt lat="48.6903" lon="7.49468">
        <ele>204.1</ele>
        <time>2020-06-28T15:32:59Z</time>
      </trkpt>
      <trkpt lat="48.69035" lon="7.49466">
        <ele>204.3</ele>
        <time>2020-06-28T15:33:00Z</time>
      </trkpt>
      <trkpt lat="48.69038" lon="7.49464">
        <ele>204.4</ele>
        <time>2020-06-28T15:33:01Z</time>
      </trkpt>
      <trkpt lat="48.69039" lon="7.49462">
        <ele>204.4</ele>
        <time>2020-06-28T15:33:02Z</time>
      </trkpt>
      <trkpt lat="48.69043" lon="7.49461">
        <ele>204.5</ele>
        <time>2020-06-28T15:33:03Z</time>
      </trkpt>
      <trkpt lat="48.69046" lon="7.49457">
        <ele>204.7</ele>
        <time>2020-06-28T15:33:04Z</time>
      </trkpt>
      <trkpt lat="48.69047" lon="7.49456">
        <ele>204.7</ele>
        <time>2020-06-28T15:33:05Z</time>
      </trkpt>
      <trkpt lat="48.69051" lon="7.49453">
        <ele>204.9</ele>
        <time>2020-06-28T15:33:06Z</time>
      </trkpt>
      <trkpt lat="48.69054" lon="7.49451">
        <ele>205</ele>
        <time>2020-06-28T15:33:07Z</time>
      </trkpt>
      <trkpt lat="48.69057" lon="7.4945">
        <ele>205.1</ele>
        <time>2020-06-28T15:33:08Z</time>
      </trkpt>
      <trkpt lat="48.69061" lon="7.4945">
        <ele>205.2</ele>
        <time>2020-06-28T15:33:09Z</time>
      </trkpt>
      <trkpt lat="48.69063" lon="7.49449">
        <ele>205.3</ele>
        <time>2020-06-28T15:33:10Z</time>
      </trkpt>
      <trkpt lat="48.69066" lon="7.49447">
        <ele>205.4</ele>
        <time>2020-06-28T15:33:11Z</time>
      </trkpt>
      <trkpt lat="48.69069" lon="7.49445">
        <ele>205.6</ele>
        <time>2020-06-28T15:33:12Z</time>
      </trkpt>
      <trkpt lat="48.69073" lon="7.49443">
        <ele>205.7</ele>
        <time>2020-06-28T15:33:13Z</time>
      </trkpt>
      <trkpt lat="48.69075" lon="7.49442">
        <ele>205.8</ele>
        <time>2020-06-28T15:33:14Z</time>
      </trkpt>
      <trkpt lat="48.69078" lon="7.4944">
        <ele>205.9</ele>
        <time>2020-06-28T15:33:15Z</time>
      </trkpt>
      <trkpt lat="48.69082" lon="7.49438">
        <ele>206.2</ele>
        <time>2020-06-28T15:33:16Z</time>
      </trkpt>
      <trkpt lat="48.69085" lon="7.49436">
        <ele>206.3</ele>
        <time>2020-06-28T15:33:17Z</time>
      </trkpt>
      <trkpt lat="48.69089" lon="7.49434">
        <ele>206.5</ele>
        <time>2020-06-28T15:33:18Z</time>
      </trkpt>
      <trkpt lat="48.69093" lon="7.49432">
        <ele>206.7</ele>
        <time>2020-06-28T15:33:19Z</time>
      </trkpt>
      <trkpt lat="48.69094" lon="7.4943">
        <ele>206.8</ele>
        <time>2020-06-28T15:33:20Z</time>
      </trkpt>
      <trkpt lat="48.69099" lon="7.49428">
        <ele>207</ele>
        <time>2020-06-28T15:33:21Z</time>
      </trkpt>
      <trkpt lat="48.69101" lon="7.49427">
        <ele>207.1</ele>
        <time>2020-06-28T15:33:22Z</time>
      </trkpt>
      <trkpt lat="48.69105" lon="7.49426">
        <ele>207.3</ele>
        <time>2020-06-28T15:33:23Z</time>
      </trkpt>
      <trkpt lat="48.69108" lon="7.49423">
        <ele>207.5</ele>
        <time>2020-06-28T15:33:24Z</time>
      </trkpt>
      <trkpt lat="48.69112" lon="7.4942">
        <ele>207.8</ele>
        <time>2020-06-28T15:33:25Z</time>
      </trkpt>
      <trkpt lat="48.69114" lon="7.49419">
        <ele>207.9</ele>
        <time>2020-06-28T15:33:26Z</time>
      </trkpt>
      <trkpt lat="48.69118" lon="7.49417">
        <ele>208.1</ele>
        <time>2020-06-28T15:33:27Z</time>
      </trkpt>
      <trkpt lat="48.6912" lon="7.49416">
        <ele>208.2</ele>
        <time>2020-06-28T15:33:28Z</time>
      </trkpt>
      <trkpt lat="48.69124" lon="7.49416">
        <ele>208.4</ele>
        <time>2020-06-28T15:33:29Z</time>
      </trkpt>
      <trkpt lat="48.69126" lon="7.49415">
        <ele>208.5</ele>
        <time>2020-06-28T15:33:30Z</time>
      </trkpt>
      <trkpt lat="48.69128" lon="7.49414">
        <ele>208.7</ele>
        <time>2020-06-28T15:33:31Z</time>
      </trkpt>
      <trkpt lat="48.69129" lon="7.49413">
        <ele>208.7</ele>
        <time>2020-06-28T15:33:32Z</time>
      </trkpt>
      <trkpt lat="48.69133" lon="7.49409">
        <ele>209.1</ele>
        <time>2020-06-28T15:33:33Z</time>
      </trkpt>
      <trkpt lat="48.69136" lon="7.49406">
        <ele>209.3</ele>
        <time>2020-06-28T15:33:34Z</time>
      </trkpt>
      <trkpt lat="48.69138" lon="7.49404">
        <ele>209.5</ele>
        <time>2020-06-28T15:33:35Z</time>
      </trkpt>
      <trkpt lat="48.69139" lon="7.49404">
        <ele>209.5</ele>
        <time>2020-06-28T15:33:36Z</time>
      </trkpt>
      <trkpt lat="48.69142" lon="7.49402">
        <ele>209.7</ele>
        <time>2020-06-28T15:33:37Z</time>
      </trkpt>
      <trkpt lat="48.69144" lon="7.49398">
        <ele>209.9</ele>
        <time>2020-06-28T15:33:38Z</time>
      </trkpt>
      <trkpt lat="48.69148" lon="7.49395">
        <ele>210.3</ele>
        <time>2020-06-28T15:33:39Z</time>
      </trkpt>
      <trkpt lat="48.69148" lon="7.49393">
        <ele>210.4</ele>
        <time>2020-06-28T15:33:40Z</time>
      </trkpt>
      <trkpt lat="48.69151" lon="7.49389">
        <ele>210.6</ele>
        <time>2020-06-28T15:33:41Z</time>
      </trkpt>
      <trkpt lat="48.69151" lon="7.49387">
        <ele>210.7</ele>
        <time>2020-06-28T15:33:42Z</time>
      </trkpt>
      <trkpt lat="48.69153" lon="7.49382">
        <ele>210.9</ele>
        <time>2020-06-28T15:33:43Z</time>
      </trkpt>
      <trkpt lat="48.69154" lon="7.49377">
        <ele>211.1</ele>
        <time>2020-06-28T15:33:44Z</time>
      </trkpt>
      <trkpt lat="48.69154" lon="7.49375">
        <ele>211.2</ele>
        <time>2020-06-28T15:33:45Z</time>
      </trkpt>
      <trkpt lat="48.69155" lon="7.49369">
        <ele>211.4</ele>
        <time>2020-06-28T15:33:46Z</time>
      </trkpt>
      <trkpt lat="48.69156" lon="7.49367">
        <ele>211.4</ele>
        <time>2020-06-28T15:33:47Z</time>
      </trkpt>
      <trkpt lat="48.69156" lon="7.49362">
        <ele>211.6</ele>
        <time>2020-06-28T15:33:48Z</time>
      </trkpt>
      <trkpt lat="48.69155" lon="7.49357">
        <ele>211.7</ele>
        <time>2020-06-28T15:33:49Z</time>
      </trkpt>
      <trkpt lat="48.69155" lon="7.49351">
        <ele>211.8</ele>
        <time>2020-06-28T15:33:50Z</time>
      </trkpt>
      <trkpt lat="48.69155" lon="7.49346">
        <ele>211.9</ele>
        <time>2020-06-28T15:33:51Z</time>
      </trkpt>
      <trkpt lat="48.69155" lon="7.49341">
        <ele>211.9</ele>
        <time>2020-06-28T15:33:52Z</time>
      </trkpt>
      <trkpt lat="48.69156" lon="7.49336">
        <ele>212</ele>
        <time>2020-06-28T15:33:53Z</time>
      </trkpt>
      <trkpt lat="48.69156" lon="7.49329">
        <ele>212.1</ele>
        <time>2020-06-28T15:33:54Z</time>
      </trkpt>
      <trkpt lat="48.69156" lon="7.49323">
        <ele>212.2</ele>
        <time>2020-06-28T15:33:55Z</time>
      </trkpt>
      <trkpt lat="48.69155" lon="7.49317">
        <ele>212.2</ele>
        <time>2020-06-28T15:33:56Z</time>
      </trkpt>
      <trkpt lat="48.69155" lon="7.49313">
        <ele>212.3</ele>
        <time>2020-06-28T15:33:57Z</time>
      </trkpt>
      <trkpt lat="48.69153" lon="7.49305">
        <ele>212.3</ele>
        <time>2020-06-28T15:33:58Z</time>
      </trkpt>
      <trkpt lat="48.69152" lon="7.49295">
        <ele>212.4</ele>
        <time>2020-06-28T15:33:59Z</time>
      </trkpt>
      <trkpt lat="48.69151" lon="7.49288">
        <ele>212.4</ele>
        <time>2020-06-28T15:34:00Z</time>
      </trkpt>
      <trkpt lat="48.69151" lon="7.49282">
        <ele>212.5</ele>
        <time>2020-06-28T15:34:01Z</time>
      </trkpt>
      <trkpt lat="48.69151" lon="7.49275">
        <ele>212.5</ele>
        <time>2020-06-28T15:34:02Z</time>
      </trkpt>
      <trkpt lat="48.69151" lon="7.49269">
        <ele>212.5</ele>
        <time>2020-06-28T15:34:03Z</time>
      </trkpt>
      <trkpt lat="48.6915" lon="7.49262">
        <ele>212.6</ele>
        <time>2020-06-28T15:34:04Z</time>
      </trkpt>
      <trkpt lat="48.6915" lon="7.49256">
        <ele>212.6</ele>
        <time>2020-06-28T15:34:05Z</time>
      </trkpt>
      <trkpt lat="48.6915" lon="7.49251">
        <ele>212.6</ele>
        <time>2020-06-28T15:34:06Z</time>
      </trkpt>
      <trkpt lat="48.6915" lon="7.49246">
        <ele>212.6</ele>
        <time>2020-06-28T15:34:07Z</time>
      </trkpt>
      <trkpt lat="48.69149" lon="7.49238">
        <ele>212.7</ele>
        <time>2020-06-28T15:34:08Z</time>
      </trkpt>
      <trkpt lat="48.69149" lon="7.49229">
        <ele>212.7</ele>
        <time>2020-06-28T15:34:09Z</time>
      </trkpt>
      <trkpt lat="48.69149" lon="7.49223">
        <ele>212.7</ele>
        <time>2020-06-28T15:34:10Z</time>
      </trkpt>
      <trkpt lat="48.69149" lon="7.49216">
        <ele>212.8</ele>
        <time>2020-06-28T15:34:11Z</time>
      </trkpt>
      <trkpt lat="48.69148" lon="7.49208">
        <ele>212.8</ele>
        <time>2020-06-28T15:34:12Z</time>
      </trkpt>
      <trkpt lat="48.69148" lon="7.492">
        <ele>212.9</ele>
        <time>2020-06-28T15:34:13Z</time>
      </trkpt>
      <trkpt lat="48.69147" lon="7.49193">
        <ele>212.9</ele>
        <time>2020-06-28T15:34:14Z</time>
      </trkpt>
      <trkpt lat="48.69147" lon="7.49186">
        <ele>213</ele>
        <time>2020-06-28T15:34:15Z</time>
      </trkpt>
      <trkpt lat="48.69148" lon="7.49181">
        <ele>213.1</ele>
        <time>2020-06-28T15:34:16Z</time>
      </trkpt>
      <trkpt lat="48.69148" lon="7.49174">
        <ele>213.1</ele>
        <time>2020-06-28T15:34:17Z</time>
      </trkpt>
      <trkpt lat="48.69148" lon="7.49167">
        <ele>213.2</ele>
        <time>2020-06-28T15:34:18Z</time>
      </trkpt>
      <trkpt lat="48.69148" lon="7.49161">
        <ele>213.2</ele>
        <time>2020-06-28T15:34:19Z</time>
      </trkpt>
      <trkpt lat="48.69148" lon="7.49155">
        <ele>213.3</ele>
        <time>2020-06-28T15:34:20Z</time>
      </trkpt>
      <trkpt lat="48.69148" lon="7.49147">
        <ele>213.4</ele>
        <time>2020-06-28T15:34:21Z</time>
      </trkpt>
      <trkpt lat="48.69147" lon="7.49139">
        <ele>213.4</ele>
        <time>2020-06-28T15:34:22Z</time>
      </trkpt>
      <trkpt lat="48.69147" lon="7.49131">
        <ele>213.5</ele>
        <time>2020-06-28T15:34:23Z</time>
      </trkpt>
      <trkpt lat="48.69146" lon="7.49124">
        <ele>213.5</ele>
        <time>2020-06-28T15:34:24Z</time>
      </trkpt>
      <trkpt lat="48.69147" lon="7.49118">
        <ele>213.6</ele>
        <time>2020-06-28T15:34:25Z</time>
      </trkpt>
      <trkpt lat="48.69147" lon="7.4911">
        <ele>213.6</ele>
        <time>2020-06-28T15:34:26Z</time>
      </trkpt>
      <trkpt lat="48.69147" lon="7.49103">
        <ele>213.7</ele>
        <time>2020-06-28T15:34:27Z</time>
      </trkpt>
      <trkpt lat="48.69147" lon="7.49095">
        <ele>213.8</ele>
        <time>2020-06-28T15:34:28Z</time>
      </trkpt>
      <trkpt lat="48.69147" lon="7.49089">
        <ele>213.8</ele>
        <time>2020-06-28T15:34:29Z</time>
      </trkpt>
      <trkpt lat="48.69148" lon="7.49085">
        <ele>213.9</ele>
        <time>2020-06-28T15:34:30Z</time>
      </trkpt>
      <trkpt lat="48.6915" lon="7.49078">
        <ele>213.9</ele>
        <time>2020-06-28T15:34:31Z</time>
      </trkpt>
      <trkpt lat="48.69153" lon="7.49071">
        <ele>213.9</ele>
        <time>2020-06-28T15:34:32Z</time>
      </trkpt>
      <trkpt lat="48.69154" lon="7.49065">
        <ele>214</ele>
        <time>2020-06-28T15:34:33Z</time>
      </trkpt>
      <trkpt lat="48.69156" lon="7.49059">
        <ele>214</ele>
        <time>2020-06-28T15:34:34Z</time>
      </trkpt>
      <trkpt lat="48.69158" lon="7.49051">
        <ele>214.1</ele>
        <time>2020-06-28T15:34:35Z</time>
      </trkpt>
      <trkpt lat="48.69161" lon="7.49043">
        <ele>214.1</ele>
        <time>2020-06-28T15:34:36Z</time>
      </trkpt>
      <trkpt lat="48.69163" lon="7.49037">
        <ele>214.1</ele>
        <time>2020-06-28T15:34:37Z</time>
      </trkpt>
      <trkpt lat="48.69165" lon="7.49031">
        <ele>214.1</ele>
        <time>2020-06-28T15:34:38Z</time>
      </trkpt>
      <trkpt lat="48.69167" lon="7.49025">
        <ele>214.2</ele>
        <time>2020-06-28T15:34:39Z</time>
      </trkpt>
      <trkpt lat="48.6917" lon="7.49019">
        <ele>214.3</ele>
        <time>2020-06-28T15:34:40Z</time>
      </trkpt>
      <trkpt lat="48.69173" lon="7.49013">
        <ele>214.3</ele>
        <time>2020-06-28T15:34:41Z</time>
      </trkpt>
      <trkpt lat="48.69175" lon="7.49007">
        <ele>214.4</ele>
        <time>2020-06-28T15:34:42Z</time>
      </trkpt>
      <trkpt lat="48.69178" lon="7.49">
        <ele>214.5</ele>
        <time>2020-06-28T15:34:43Z</time>
      </trkpt>
      <trkpt lat="48.69181" lon="7.48994">
        <ele>214.6</ele>
        <time>2020-06-28T15:34:44Z</time>
      </trkpt>
      <trkpt lat="48.69183" lon="7.48988">
        <ele>214.7</ele>
        <time>2020-06-28T15:34:45Z</time>
      </trkpt>
      <trkpt lat="48.69186" lon="7.48981">
        <ele>214.8</ele>
        <time>2020-06-28T15:34:46Z</time>
      </trkpt>
      <trkpt lat="48.69188" lon="7.48976">
        <ele>214.9</ele>
        <time>2020-06-28T15:34:47Z</time>
      </trkpt>
      <trkpt lat="48.69191" lon="7.4897">
        <ele>215</ele>
        <time>2020-06-28T15:34:48Z</time>
      </trkpt>
      <trkpt lat="48.69193" lon="7.48963">
        <ele>215.1</ele>
        <time>2020-06-28T15:34:49Z</time>
      </trkpt>
      <trkpt lat="48.69195" lon="7.48956">
        <ele>215.2</ele>
        <time>2020-06-28T15:34:50Z</time>
      </trkpt>
      <trkpt lat="48.69197" lon="7.48951">
        <ele>215.3</ele>
        <time>2020-06-28T15:34:51Z</time>
      </trkpt>
      <trkpt lat="48.69199" lon="7.48945">
        <ele>215.4</ele>
        <time>2020-06-28T15:34:52Z</time>
      </trkpt>
      <trkpt lat="48.69202" lon="7.48938">
        <ele>215.5</ele>
        <time>2020-06-28T15:34:53Z</time>
      </trkpt>
      <trkpt lat="48.69205" lon="7.48932">
        <ele>215.6</ele>
        <time>2020-06-28T15:34:54Z</time>
      </trkpt>
      <trkpt lat="48.69207" lon="7.48926">
        <ele>215.6</ele>
        <time>2020-06-28T15:34:55Z</time>
      </trkpt>
      <trkpt lat="48.69209" lon="7.48921">
        <ele>215.7</ele>
        <time>2020-06-28T15:34:56Z</time>
      </trkpt>
      <trkpt lat="48.69211" lon="7.48915">
        <ele>215.8</ele>
        <time>2020-06-28T15:34:57Z</time>
      </trkpt>
      <trkpt lat="48.69213" lon="7.4891">
        <ele>215.9</ele>
        <time>2020-06-28T15:34:58Z</time>
      </trkpt>
      <trkpt lat="48.69215" lon="7.48904">
        <ele>216</ele>
        <time>2020-06-28T15:34:59Z</time>
      </trkpt>
      <trkpt lat="48.69216" lon="7.489">
        <ele>216.1</ele>
        <time>2020-06-28T15:35:00Z</time>
      </trkpt>
      <trkpt lat="48.69218" lon="7.48894">
        <ele>216.2</ele>
        <time>2020-06-28T15:35:01Z</time>
      </trkpt>
      <trkpt lat="48.6922" lon="7.4889">
        <ele>216.3</ele>
        <time>2020-06-28T15:35:02Z</time>
      </trkpt>
      <trkpt lat="48.69222" lon="7.48884">
        <ele>216.5</ele>
        <time>2020-06-28T15:35:03Z</time>
      </trkpt>
      <trkpt lat="48.69224" lon="7.48879">
        <ele>216.6</ele>
        <time>2020-06-28T15:35:04Z</time>
      </trkpt>
      <trkpt lat="48.69225" lon="7.48873">
        <ele>216.7</ele>
        <time>2020-06-28T15:35:05Z</time>
      </trkpt>
      <trkpt lat="48.69227" lon="7.48868">
        <ele>216.8</ele>
        <time>2020-06-28T15:35:06Z</time>
      </trkpt>
      <trkpt lat="48.69229" lon="7.48864">
        <ele>216.9</ele>
        <time>2020-06-28T15:35:07Z</time>
      </trkpt>
      <trkpt lat="48.69232" lon="7.48856">
        <ele>217.1</ele>
        <time>2020-06-28T15:35:08Z</time>
      </trkpt>
      <trkpt lat="48.69234" lon="7.48849">
        <ele>217.2</ele>
        <time>2020-06-28T15:35:09Z</time>
      </trkpt>
      <trkpt lat="48.69236" lon="7.48845">
        <ele>217.3</ele>
        <time>2020-06-28T15:35:10Z</time>
      </trkpt>
      <trkpt lat="48.6924" lon="7.48838">
        <ele>217.4</ele>
        <time>2020-06-28T15:35:11Z</time>
      </trkpt>
      <trkpt lat="48.69242" lon="7.48833">
        <ele>217.5</ele>
        <time>2020-06-28T15:35:12Z</time>
      </trkpt>
      <trkpt lat="48.69245" lon="7.48825">
        <ele>217.6</ele>
        <time>2020-06-28T15:35:13Z</time>
      </trkpt>
      <trkpt lat="48.69247" lon="7.48819">
        <ele>217.7</ele>
        <time>2020-06-28T15:35:14Z</time>
      </trkpt>
      <trkpt lat="48.69248" lon="7.48814">
        <ele>217.7</ele>
        <time>2020-06-28T15:35:15Z</time>
      </trkpt>
      <trkpt lat="48.69249" lon="7.48808">
        <ele>217.8</ele>
        <time>2020-06-28T15:35:16Z</time>
      </trkpt>
      <trkpt lat="48.6925" lon="7.48806">
        <ele>217.8</ele>
        <time>2020-06-28T15:35:17Z</time>
      </trkpt>
      <trkpt lat="48.69253" lon="7.488">
        <ele>217.9</ele>
        <time>2020-06-28T15:35:18Z</time>
      </trkpt>
      <trkpt lat="48.69254" lon="7.48794">
        <ele>218</ele>
        <time>2020-06-28T15:35:19Z</time>
      </trkpt>
      <trkpt lat="48.69255" lon="7.4879">
        <ele>218.1</ele>
        <time>2020-06-28T15:35:20Z</time>
      </trkpt>
      <trkpt lat="48.69258" lon="7.48785">
        <ele>218.1</ele>
        <time>2020-06-28T15:35:21Z</time>
      </trkpt>
      <trkpt lat="48.69259" lon="7.48781">
        <ele>218.2</ele>
        <time>2020-06-28T15:35:22Z</time>
      </trkpt>
      <trkpt lat="48.69261" lon="7.48776">
        <ele>218.2</ele>
        <time>2020-06-28T15:35:23Z</time>
      </trkpt>
      <trkpt lat="48.69264" lon="7.48771">
        <ele>218.3</ele>
        <time>2020-06-28T15:35:24Z</time>
      </trkpt>
      <trkpt lat="48.69267" lon="7.48765">
        <ele>218.3</ele>
        <time>2020-06-28T15:35:25Z</time>
      </trkpt>
      <trkpt lat="48.69269" lon="7.48759">
        <ele>218.4</ele>
        <time>2020-06-28T15:35:26Z</time>
      </trkpt>
      <trkpt lat="48.69272" lon="7.48753">
        <ele>218.4</ele>
        <time>2020-06-28T15:35:27Z</time>
      </trkpt>
      <trkpt lat="48.69274" lon="7.48748">
        <ele>218.4</ele>
        <time>2020-06-28T15:35:28Z</time>
      </trkpt>
      <trkpt lat="48.69274" lon="7.48742">
        <ele>218.5</ele>
        <time>2020-06-28T15:35:29Z</time>
      </trkpt>
      <trkpt lat="48.69277" lon="7.48737">
        <ele>218.5</ele>
        <time>2020-06-28T15:35:30Z</time>
      </trkpt>
      <trkpt lat="48.69279" lon="7.48731">
        <ele>218.5</ele>
        <time>2020-06-28T15:35:31Z</time>
      </trkpt>
      <trkpt lat="48.69281" lon="7.48726">
        <ele>218.6</ele>
        <time>2020-06-28T15:35:32Z</time>
      </trkpt>
      <trkpt lat="48.69284" lon="7.48719">
        <ele>218.6</ele>
        <time>2020-06-28T15:35:33Z</time>
      </trkpt>
      <trkpt lat="48.69286" lon="7.48714">
        <ele>218.7</ele>
        <time>2020-06-28T15:35:34Z</time>
      </trkpt>
      <trkpt lat="48.69287" lon="7.48709">
        <ele>218.7</ele>
        <time>2020-06-28T15:35:35Z</time>
      </trkpt>
      <trkpt lat="48.6929" lon="7.48702">
        <ele>218.8</ele>
        <time>2020-06-28T15:35:36Z</time>
      </trkpt>
      <trkpt lat="48.69292" lon="7.48696">
        <ele>218.8</ele>
        <time>2020-06-28T15:35:37Z</time>
      </trkpt>
      <trkpt lat="48.69295" lon="7.48689">
        <ele>218.9</ele>
        <time>2020-06-28T15:35:38Z</time>
      </trkpt>
      <trkpt lat="48.69297" lon="7.48682">
        <ele>219</ele>
        <time>2020-06-28T15:35:39Z</time>
      </trkpt>
      <trkpt lat="48.69299" lon="7.48676">
        <ele>219</ele>
        <time>2020-06-28T15:35:40Z</time>
      </trkpt>
      <trkpt lat="48.69301" lon="7.48671">
        <ele>219</ele>
        <time>2020-06-28T15:35:41Z</time>
      </trkpt>
      <trkpt lat="48.69303" lon="7.48665">
        <ele>219.1</ele>
        <time>2020-06-28T15:35:42Z</time>
      </trkpt>
      <trkpt lat="48.69305" lon="7.48659">
        <ele>219.1</ele>
        <time>2020-06-28T15:35:43Z</time>
      </trkpt>
      <trkpt lat="48.69307" lon="7.48652">
        <ele>219.2</ele>
        <time>2020-06-28T15:35:44Z</time>
      </trkpt>
      <trkpt lat="48.69309" lon="7.48644">
        <ele>219.2</ele>
        <time>2020-06-28T15:35:45Z</time>
      </trkpt>
      <trkpt lat="48.69311" lon="7.48637">
        <ele>219.3</ele>
        <time>2020-06-28T15:35:46Z</time>
      </trkpt>
      <trkpt lat="48.69313" lon="7.48631">
        <ele>219.3</ele>
        <time>2020-06-28T15:35:47Z</time>
      </trkpt>
      <trkpt lat="48.69315" lon="7.48625">
        <ele>219.4</ele>
        <time>2020-06-28T15:35:48Z</time>
      </trkpt>
      <trkpt lat="48.69318" lon="7.48619">
        <ele>219.4</ele>
        <time>2020-06-28T15:35:49Z</time>
      </trkpt>
      <trkpt lat="48.6932" lon="7.48613">
        <ele>219.4</ele>
        <time>2020-06-28T15:35:50Z</time>
      </trkpt>
      <trkpt lat="48.69323" lon="7.48608">
        <ele>219.4</ele>
        <time>2020-06-28T15:35:51Z</time>
      </trkpt>
      <trkpt lat="48.69324" lon="7.48602">
        <ele>219.4</ele>
        <time>2020-06-28T15:35:52Z</time>
      </trkpt>
      <trkpt lat="48.69326" lon="7.48596">
        <ele>219.4</ele>
        <time>2020-06-28T15:35:53Z</time>
      </trkpt>
      <trkpt lat="48.69328" lon="7.4859">
        <ele>219.5</ele>
        <time>2020-06-28T15:35:54Z</time>
      </trkpt>
      <trkpt lat="48.69331" lon="7.48582">
        <ele>219.5</ele>
        <time>2020-06-28T15:35:55Z</time>
      </trkpt>
      <trkpt lat="48.69333" lon="7.48577">
        <ele>219.5</ele>
        <time>2020-06-28T15:35:56Z</time>
      </trkpt>
      <trkpt lat="48.69336" lon="7.48571">
        <ele>219.5</ele>
        <time>2020-06-28T15:35:57Z</time>
      </trkpt>
      <trkpt lat="48.69338" lon="7.48564">
        <ele>219.5</ele>
        <time>2020-06-28T15:35:58Z</time>
      </trkpt>
      <trkpt lat="48.6934" lon="7.48558">
        <ele>219.5</ele>
        <time>2020-06-28T15:35:59Z</time>
      </trkpt>
      <trkpt lat="48.69342" lon="7.48552">
        <ele>219.6</ele>
        <time>2020-06-28T15:36:00Z</time>
      </trkpt>
      <trkpt lat="48.69344" lon="7.48545">
        <ele>219.6</ele>
        <time>2020-06-28T15:36:01Z</time>
      </trkpt>
      <trkpt lat="48.69346" lon="7.48537">
        <ele>219.6</ele>
        <time>2020-06-28T15:36:02Z</time>
      </trkpt>
      <trkpt lat="48.69348" lon="7.48531">
        <ele>219.6</ele>
        <time>2020-06-28T15:36:03Z</time>
      </trkpt>
      <trkpt lat="48.69351" lon="7.48524">
        <ele>219.7</ele>
        <time>2020-06-28T15:36:04Z</time>
      </trkpt>
      <trkpt lat="48.69354" lon="7.48517">
        <ele>219.7</ele>
        <time>2020-06-28T15:36:05Z</time>
      </trkpt>
      <trkpt lat="48.69356" lon="7.4851">
        <ele>219.7</ele>
        <time>2020-06-28T15:36:06Z</time>
      </trkpt>
      <trkpt lat="48.69358" lon="7.48504">
        <ele>219.7</ele>
        <time>2020-06-28T15:36:07Z</time>
      </trkpt>
      <trkpt lat="48.6936" lon="7.48497">
        <ele>219.8</ele>
        <time>2020-06-28T15:36:08Z</time>
      </trkpt>
      <trkpt lat="48.69362" lon="7.4849">
        <ele>219.8</ele>
        <time>2020-06-28T15:36:09Z</time>
      </trkpt>
      <trkpt lat="48.69365" lon="7.48483">
        <ele>219.8</ele>
        <time>2020-06-28T15:36:10Z</time>
      </trkpt>
      <trkpt lat="48.69367" lon="7.48476">
        <ele>219.8</ele>
        <time>2020-06-28T15:36:11Z</time>
      </trkpt>
      <trkpt lat="48.69369" lon="7.48469">
        <ele>219.8</ele>
        <time>2020-06-28T15:36:12Z</time>
      </trkpt>
      <trkpt lat="48.69371" lon="7.48463">
        <ele>219.9</ele>
        <time>2020-06-28T15:36:13Z</time>
      </trkpt>
      <trkpt lat="48.69374" lon="7.48455">
        <ele>219.9</ele>
        <time>2020-06-28T15:36:14Z</time>
      </trkpt>
      <trkpt lat="48.69376" lon="7.48448">
        <ele>220</ele>
        <time>2020-06-28T15:36:15Z</time>
      </trkpt>
      <trkpt lat="48.69378" lon="7.48442">
        <ele>220</ele>
        <time>2020-06-28T15:36:16Z</time>
      </trkpt>
      <trkpt lat="48.6938" lon="7.48434">
        <ele>220.1</ele>
        <time>2020-06-28T15:36:17Z</time>
      </trkpt>
      <trkpt lat="48.69382" lon="7.48427">
        <ele>220.1</ele>
        <time>2020-06-28T15:36:18Z</time>
      </trkpt>
      <trkpt lat="48.69384" lon="7.48421">
        <ele>220.1</ele>
        <time>2020-06-28T15:36:19Z</time>
      </trkpt>
      <trkpt lat="48.69386" lon="7.48415">
        <ele>220.1</ele>
        <time>2020-06-28T15:36:20Z</time>
      </trkpt>
      <trkpt lat="48.69389" lon="7.48408">
        <ele>220.1</ele>
        <time>2020-06-28T15:36:21Z</time>
      </trkpt>
      <trkpt lat="48.69391" lon="7.48401">
        <ele>220.1</ele>
        <time>2020-06-28T15:36:22Z</time>
      </trkpt>
      <trkpt lat="48.69393" lon="7.48395">
        <ele>220.1</ele>
        <time>2020-06-28T15:36:23Z</time>
      </trkpt>
      <trkpt lat="48.69396" lon="7.48388">
        <ele>220.1</ele>
        <time>2020-06-28T15:36:24Z</time>
      </trkpt>
      <trkpt lat="48.69398" lon="7.48382">
        <ele>220.1</ele>
        <time>2020-06-28T15:36:25Z</time>
      </trkpt>
      <trkpt lat="48.69401" lon="7.48375">
        <ele>220.2</ele>
        <time>2020-06-28T15:36:26Z</time>
      </trkpt>
      <trkpt lat="48.69403" lon="7.48368">
        <ele>220.2</ele>
        <time>2020-06-28T15:36:27Z</time>
      </trkpt>
      <trkpt lat="48.69405" lon="7.48361">
        <ele>220.2</ele>
        <time>2020-06-28T15:36:28Z</time>
      </trkpt>
      <trkpt lat="48.69408" lon="7.48354">
        <ele>220.3</ele>
        <time>2020-06-28T15:36:29Z</time>
      </trkpt>
      <trkpt lat="48.6941" lon="7.48347">
        <ele>220.3</ele>
        <time>2020-06-28T15:36:30Z</time>
      </trkpt>
      <trkpt lat="48.69413" lon="7.4834">
        <ele>220.4</ele>
        <time>2020-06-28T15:36:31Z</time>
      </trkpt>
      <trkpt lat="48.69415" lon="7.48333">
        <ele>220.4</ele>
        <time>2020-06-28T15:36:32Z</time>
      </trkpt>
      <trkpt lat="48.69418" lon="7.48325">
        <ele>220.4</ele>
        <time>2020-06-28T15:36:33Z</time>
      </trkpt>
      <trkpt lat="48.69421" lon="7.48319">
        <ele>220.4</ele>
        <time>2020-06-28T15:36:34Z</time>
      </trkpt>
      <trkpt lat="48.69423" lon="7.48312">
        <ele>220.5</ele>
        <time>2020-06-28T15:36:35Z</time>
      </trkpt>
      <trkpt lat="48.69425" lon="7.48305">
        <ele>220.6</ele>
        <time>2020-06-28T15:36:36Z</time>
      </trkpt>
      <trkpt lat="48.69427" lon="7.48298">
        <ele>220.6</ele>
        <time>2020-06-28T15:36:37Z</time>
      </trkpt>
      <trkpt lat="48.69429" lon="7.48291">
        <ele>220.7</ele>
        <time>2020-06-28T15:36:38Z</time>
      </trkpt>
      <trkpt lat="48.69431" lon="7.48284">
        <ele>220.7</ele>
        <time>2020-06-28T15:36:39Z</time>
      </trkpt>
      <trkpt lat="48.69433" lon="7.48278">
        <ele>220.8</ele>
        <time>2020-06-28T15:36:40Z</time>
      </trkpt>
      <trkpt lat="48.69437" lon="7.48272">
        <ele>220.9</ele>
        <time>2020-06-28T15:36:41Z</time>
      </trkpt>
      <trkpt lat="48.69439" lon="7.48265">
        <ele>220.9</ele>
        <time>2020-06-28T15:36:42Z</time>
      </trkpt>
      <trkpt lat="48.69441" lon="7.48258">
        <ele>221</ele>
        <time>2020-06-28T15:36:43Z</time>
      </trkpt>
      <trkpt lat="48.69442" lon="7.48252">
        <ele>221.1</ele>
        <time>2020-06-28T15:36:44Z</time>
      </trkpt>
      <trkpt lat="48.69443" lon="7.48245">
        <ele>221.1</ele>
        <time>2020-06-28T15:36:45Z</time>
      </trkpt>
      <trkpt lat="48.69445" lon="7.48238">
        <ele>221.2</ele>
        <time>2020-06-28T15:36:46Z</time>
      </trkpt>
      <trkpt lat="48.69447" lon="7.48231">
        <ele>221.2</ele>
        <time>2020-06-28T15:36:47Z</time>
      </trkpt>
      <trkpt lat="48.69448" lon="7.48222">
        <ele>221.2</ele>
        <time>2020-06-28T15:36:48Z</time>
      </trkpt>
      <trkpt lat="48.69451" lon="7.48217">
        <ele>221.3</ele>
        <time>2020-06-28T15:36:49Z</time>
      </trkpt>
      <trkpt lat="48.69453" lon="7.48211">
        <ele>221.3</ele>
        <time>2020-06-28T15:36:50Z</time>
      </trkpt>
      <trkpt lat="48.69455" lon="7.48205">
        <ele>221.3</ele>
        <time>2020-06-28T15:36:51Z</time>
      </trkpt>
      <trkpt lat="48.69456" lon="7.482">
        <ele>221.4</ele>
        <time>2020-06-28T15:36:52Z</time>
      </trkpt>
      <trkpt lat="48.69459" lon="7.48194">
        <ele>221.4</ele>
        <time>2020-06-28T15:36:53Z</time>
      </trkpt>
      <trkpt lat="48.69461" lon="7.48188">
        <ele>221.5</ele>
        <time>2020-06-28T15:36:54Z</time>
      </trkpt>
      <trkpt lat="48.69464" lon="7.48182">
        <ele>221.6</ele>
        <time>2020-06-28T15:36:55Z</time>
      </trkpt>
      <trkpt lat="48.69466" lon="7.48176">
        <ele>221.6</ele>
        <time>2020-06-28T15:36:56Z</time>
      </trkpt>
      <trkpt lat="48.69468" lon="7.48171">
        <ele>221.7</ele>
        <time>2020-06-28T15:36:57Z</time>
      </trkpt>
      <trkpt lat="48.69471" lon="7.48164">
        <ele>221.7</ele>
        <time>2020-06-28T15:36:58Z</time>
      </trkpt>
      <trkpt lat="48.69473" lon="7.48158">
        <ele>221.8</ele>
        <time>2020-06-28T15:36:59Z</time>
      </trkpt>
      <trkpt lat="48.69475" lon="7.48152">
        <ele>221.8</ele>
        <time>2020-06-28T15:37:00Z</time>
      </trkpt>
      <trkpt lat="48.69477" lon="7.48146">
        <ele>221.9</ele>
        <time>2020-06-28T15:37:01Z</time>
      </trkpt>
      <trkpt lat="48.69479" lon="7.4814">
        <ele>221.9</ele>
        <time>2020-06-28T15:37:02Z</time>
      </trkpt>
      <trkpt lat="48.6948" lon="7.48134">
        <ele>222</ele>
        <time>2020-06-28T15:37:03Z</time>
      </trkpt>
      <trkpt lat="48.69482" lon="7.48128">
        <ele>222</ele>
        <time>2020-06-28T15:37:04Z</time>
      </trkpt>
      <trkpt lat="48.69484" lon="7.48122">
        <ele>222.1</ele>
        <time>2020-06-28T15:37:05Z</time>
      </trkpt>
      <trkpt lat="48.69486" lon="7.48116">
        <ele>222.1</ele>
        <time>2020-06-28T15:37:06Z</time>
      </trkpt>
      <trkpt lat="48.69487" lon="7.4811">
        <ele>222.1</ele>
        <time>2020-06-28T15:37:07Z</time>
      </trkpt>
      <trkpt lat="48.69489" lon="7.48105">
        <ele>222.2</ele>
        <time>2020-06-28T15:37:08Z</time>
      </trkpt>
      <trkpt lat="48.69491" lon="7.48099">
        <ele>222.2</ele>
        <time>2020-06-28T15:37:09Z</time>
      </trkpt>
      <trkpt lat="48.69493" lon="7.48092">
        <ele>222.2</ele>
        <time>2020-06-28T15:37:10Z</time>
      </trkpt>
      <trkpt lat="48.69494" lon="7.48087">
        <ele>222.3</ele>
        <time>2020-06-28T15:37:11Z</time>
      </trkpt>
      <trkpt lat="48.69496" lon="7.4808">
        <ele>222.4</ele>
        <time>2020-06-28T15:37:12Z</time>
      </trkpt>
      <trkpt lat="48.69499" lon="7.48076">
        <ele>222.4</ele>
        <time>2020-06-28T15:37:13Z</time>
      </trkpt>
      <trkpt lat="48.69501" lon="7.48069">
        <ele>222.5</ele>
        <time>2020-06-28T15:37:14Z</time>
      </trkpt>
      <trkpt lat="48.69503" lon="7.48063">
        <ele>222.6</ele>
        <time>2020-06-28T15:37:15Z</time>
      </trkpt>
      <trkpt lat="48.69506" lon="7.48057">
        <ele>222.6</ele>
        <time>2020-06-28T15:37:16Z</time>
      </trkpt>
      <trkpt lat="48.69508" lon="7.48051">
        <ele>222.6</ele>
        <time>2020-06-28T15:37:17Z</time>
      </trkpt>
      <trkpt lat="48.69511" lon="7.48045">
        <ele>222.6</ele>
        <time>2020-06-28T15:37:18Z</time>
      </trkpt>
      <trkpt lat="48.69513" lon="7.48039">
        <ele>222.7</ele>
        <time>2020-06-28T15:37:19Z</time>
      </trkpt>
      <trkpt lat="48.69515" lon="7.48033">
        <ele>222.7</ele>
        <time>2020-06-28T15:37:20Z</time>
      </trkpt>
      <trkpt lat="48.69516" lon="7.48027">
        <ele>222.7</ele>
        <time>2020-06-28T15:37:21Z</time>
      </trkpt>
      <trkpt lat="48.69517" lon="7.48021">
        <ele>222.7</ele>
        <time>2020-06-28T15:37:22Z</time>
      </trkpt>
      <trkpt lat="48.69519" lon="7.48014">
        <ele>222.7</ele>
        <time>2020-06-28T15:37:23Z</time>
      </trkpt>
      <trkpt lat="48.6952" lon="7.48006">
        <ele>222.8</ele>
        <time>2020-06-28T15:37:24Z</time>
      </trkpt>
      <trkpt lat="48.69522" lon="7.48">
        <ele>222.8</ele>
        <time>2020-06-28T15:37:25Z</time>
      </trkpt>
      <trkpt lat="48.69523" lon="7.47994">
        <ele>222.8</ele>
        <time>2020-06-28T15:37:26Z</time>
      </trkpt>
      <trkpt lat="48.69525" lon="7.47988">
        <ele>222.9</ele>
        <time>2020-06-28T15:37:27Z</time>
      </trkpt>
      <trkpt lat="48.69527" lon="7.47982">
        <ele>222.9</ele>
        <time>2020-06-28T15:37:28Z</time>
      </trkpt>
      <trkpt lat="48.69529" lon="7.47976">
        <ele>223</ele>
        <time>2020-06-28T15:37:29Z</time>
      </trkpt>
      <trkpt lat="48.6953" lon="7.4797">
        <ele>223</ele>
        <time>2020-06-28T15:37:30Z</time>
      </trkpt>
      <trkpt lat="48.69532" lon="7.47964">
        <ele>223.1</ele>
        <time>2020-06-28T15:37:31Z</time>
      </trkpt>
      <trkpt lat="48.69534" lon="7.47958">
        <ele>223.1</ele>
        <time>2020-06-28T15:37:32Z</time>
      </trkpt>
      <trkpt lat="48.69536" lon="7.47952">
        <ele>223.1</ele>
        <time>2020-06-28T15:37:33Z</time>
      </trkpt>
      <trkpt lat="48.69538" lon="7.47945">
        <ele>223.2</ele>
        <time>2020-06-28T15:37:34Z</time>
      </trkpt>
      <trkpt lat="48.6954" lon="7.47938">
        <ele>223.2</ele>
        <time>2020-06-28T15:37:35Z</time>
      </trkpt>
      <trkpt lat="48.69542" lon="7.47933">
        <ele>223.3</ele>
        <time>2020-06-28T15:37:36Z</time>
      </trkpt>
      <trkpt lat="48.69545" lon="7.47927">
        <ele>223.3</ele>
        <time>2020-06-28T15:37:37Z</time>
      </trkpt>
      <trkpt lat="48.69547" lon="7.47921">
        <ele>223.3</ele>
        <time>2020-06-28T15:37:38Z</time>
      </trkpt>
      <trkpt lat="48.6955" lon="7.47915">
        <ele>223.3</ele>
        <time>2020-06-28T15:37:39Z</time>
      </trkpt>
      <trkpt lat="48.69553" lon="7.47907">
        <ele>223.3</ele>
        <time>2020-06-28T15:37:40Z</time>
      </trkpt>
      <trkpt lat="48.69555" lon="7.47901">
        <ele>223.3</ele>
        <time>2020-06-28T15:37:41Z</time>
      </trkpt>
      <trkpt lat="48.69557" lon="7.47895">
        <ele>223.3</ele>
        <time>2020-06-28T15:37:42Z</time>
      </trkpt>
      <trkpt lat="48.69558" lon="7.47889">
        <ele>223.3</ele>
        <time>2020-06-28T15:37:43Z</time>
      </trkpt>
      <trkpt lat="48.6956" lon="7.47883">
        <ele>223.3</ele>
        <time>2020-06-28T15:37:44Z</time>
      </trkpt>
      <trkpt lat="48.69562" lon="7.47876">
        <ele>223.3</ele>
        <time>2020-06-28T15:37:45Z</time>
      </trkpt>
      <trkpt lat="48.69564" lon="7.47869">
        <ele>223.3</ele>
        <time>2020-06-28T15:37:46Z</time>
      </trkpt>
      <trkpt lat="48.69566" lon="7.47862">
        <ele>223.3</ele>
        <time>2020-06-28T15:37:47Z</time>
      </trkpt>
      <trkpt lat="48.69569" lon="7.47854">
        <ele>223.3</ele>
        <time>2020-06-28T15:37:48Z</time>
      </trkpt>
      <trkpt lat="48.69571" lon="7.47847">
        <ele>223.3</ele>
        <time>2020-06-28T15:37:49Z</time>
      </trkpt>
      <trkpt lat="48.69574" lon="7.4784">
        <ele>223.3</ele>
        <time>2020-06-28T15:37:50Z</time>
      </trkpt>
      <trkpt lat="48.69577" lon="7.47834">
        <ele>223.4</ele>
        <time>2020-06-28T15:37:51Z</time>
      </trkpt>
      <trkpt lat="48.69579" lon="7.47827">
        <ele>223.4</ele>
        <time>2020-06-28T15:37:52Z</time>
      </trkpt>
      <trkpt lat="48.69582" lon="7.47818">
        <ele>223.4</ele>
        <time>2020-06-28T15:37:53Z</time>
      </trkpt>
      <trkpt lat="48.69584" lon="7.47811">
        <ele>223.4</ele>
        <time>2020-06-28T15:37:54Z</time>
      </trkpt>
      <trkpt lat="48.69586" lon="7.47804">
        <ele>223.4</ele>
        <time>2020-06-28T15:37:55Z</time>
      </trkpt>
      <trkpt lat="48.69588" lon="7.47798">
        <ele>223.5</ele>
        <time>2020-06-28T15:37:56Z</time>
      </trkpt>
      <trkpt lat="48.6959" lon="7.47792">
        <ele>223.5</ele>
        <time>2020-06-28T15:37:57Z</time>
      </trkpt>
      <trkpt lat="48.69593" lon="7.47786">
        <ele>223.6</ele>
        <time>2020-06-28T15:37:58Z</time>
      </trkpt>
      <trkpt lat="48.69595" lon="7.47779">
        <ele>223.6</ele>
        <time>2020-06-28T15:37:59Z</time>
      </trkpt>
      <trkpt lat="48.69597" lon="7.47773">
        <ele>223.7</ele>
        <time>2020-06-28T15:38:00Z</time>
      </trkpt>
      <trkpt lat="48.69598" lon="7.47767">
        <ele>223.7</ele>
        <time>2020-06-28T15:38:01Z</time>
      </trkpt>
      <trkpt lat="48.696" lon="7.4776">
        <ele>223.7</ele>
        <time>2020-06-28T15:38:02Z</time>
      </trkpt>
      <trkpt lat="48.69602" lon="7.47753">
        <ele>223.8</ele>
        <time>2020-06-28T15:38:03Z</time>
      </trkpt>
      <trkpt lat="48.69604" lon="7.47746">
        <ele>223.8</ele>
        <time>2020-06-28T15:38:04Z</time>
      </trkpt>
      <trkpt lat="48.69606" lon="7.4774">
        <ele>223.9</ele>
        <time>2020-06-28T15:38:05Z</time>
      </trkpt>
      <trkpt lat="48.69608" lon="7.47733">
        <ele>223.9</ele>
        <time>2020-06-28T15:38:06Z</time>
      </trkpt>
      <trkpt lat="48.6961" lon="7.47726">
        <ele>224</ele>
        <time>2020-06-28T15:38:07Z</time>
      </trkpt>
      <trkpt lat="48.69612" lon="7.4772">
        <ele>224</ele>
        <time>2020-06-28T15:38:08Z</time>
      </trkpt>
      <trkpt lat="48.69615" lon="7.47714">
        <ele>224.1</ele>
        <time>2020-06-28T15:38:09Z</time>
      </trkpt>
      <trkpt lat="48.69617" lon="7.47707">
        <ele>224.2</ele>
        <time>2020-06-28T15:38:10Z</time>
      </trkpt>
      <trkpt lat="48.69619" lon="7.47701">
        <ele>224.2</ele>
        <time>2020-06-28T15:38:11Z</time>
      </trkpt>
      <trkpt lat="48.69621" lon="7.47695">
        <ele>224.3</ele>
        <time>2020-06-28T15:38:12Z</time>
      </trkpt>
      <trkpt lat="48.69622" lon="7.47689">
        <ele>224.4</ele>
        <time>2020-06-28T15:38:13Z</time>
      </trkpt>
      <trkpt lat="48.69624" lon="7.47683">
        <ele>224.4</ele>
        <time>2020-06-28T15:38:14Z</time>
      </trkpt>
      <trkpt lat="48.69626" lon="7.47675">
        <ele>224.5</ele>
        <time>2020-06-28T15:38:15Z</time>
      </trkpt>
      <trkpt lat="48.69628" lon="7.47669">
        <ele>224.6</ele>
        <time>2020-06-28T15:38:16Z</time>
      </trkpt>
      <trkpt lat="48.69632" lon="7.47664">
        <ele>224.6</ele>
        <time>2020-06-28T15:38:17Z</time>
      </trkpt>
      <trkpt lat="48.69634" lon="7.47658">
        <ele>224.7</ele>
        <time>2020-06-28T15:38:18Z</time>
      </trkpt>
      <trkpt lat="48.69636" lon="7.47651">
        <ele>224.8</ele>
        <time>2020-06-28T15:38:19Z</time>
      </trkpt>
      <trkpt lat="48.69637" lon="7.47645">
        <ele>224.9</ele>
        <time>2020-06-28T15:38:20Z</time>
      </trkpt>
      <trkpt lat="48.69639" lon="7.47638">
        <ele>225</ele>
        <time>2020-06-28T15:38:21Z</time>
      </trkpt>
      <trkpt lat="48.69641" lon="7.47631">
        <ele>225.1</ele>
        <time>2020-06-28T15:38:22Z</time>
      </trkpt>
      <trkpt lat="48.69643" lon="7.47626">
        <ele>225.2</ele>
        <time>2020-06-28T15:38:23Z</time>
      </trkpt>
      <trkpt lat="48.69645" lon="7.4762">
        <ele>225.3</ele>
        <time>2020-06-28T15:38:24Z</time>
      </trkpt>
      <trkpt lat="48.69647" lon="7.47615">
        <ele>225.3</ele>
        <time>2020-06-28T15:38:25Z</time>
      </trkpt>
      <trkpt lat="48.6965" lon="7.47609">
        <ele>225.4</ele>
        <time>2020-06-28T15:38:26Z</time>
      </trkpt>
      <trkpt lat="48.69651" lon="7.47603">
        <ele>225.5</ele>
        <time>2020-06-28T15:38:27Z</time>
      </trkpt>
      <trkpt lat="48.69653" lon="7.47599">
        <ele>225.5</ele>
        <time>2020-06-28T15:38:28Z</time>
      </trkpt>
      <trkpt lat="48.69655" lon="7.47593">
        <ele>225.6</ele>
        <time>2020-06-28T15:38:29Z</time>
      </trkpt>
      <trkpt lat="48.69658" lon="7.47588">
        <ele>225.7</ele>
        <time>2020-06-28T15:38:30Z</time>
      </trkpt>
      <trkpt lat="48.69661" lon="7.47582">
        <ele>225.8</ele>
        <time>2020-06-28T15:38:31Z</time>
      </trkpt>
      <trkpt lat="48.69664" lon="7.47577">
        <ele>225.9</ele>
        <time>2020-06-28T15:38:32Z</time>
      </trkpt>
      <trkpt lat="48.69666" lon="7.47573">
        <ele>226</ele>
        <time>2020-06-28T15:38:33Z</time>
      </trkpt>
      <trkpt lat="48.6967" lon="7.47569">
        <ele>226.1</ele>
        <time>2020-06-28T15:38:34Z</time>
      </trkpt>
      <trkpt lat="48.69672" lon="7.47565">
        <ele>226.2</ele>
        <time>2020-06-28T15:38:35Z</time>
      </trkpt>
      <trkpt lat="48.69675" lon="7.47561">
        <ele>226.3</ele>
        <time>2020-06-28T15:38:36Z</time>
      </trkpt>
      <trkpt lat="48.69678" lon="7.47558">
        <ele>226.4</ele>
        <time>2020-06-28T15:38:37Z</time>
      </trkpt>
      <trkpt lat="48.6968" lon="7.47554">
        <ele>226.5</ele>
        <time>2020-06-28T15:38:38Z</time>
      </trkpt>
      <trkpt lat="48.69683" lon="7.4755">
        <ele>226.5</ele>
        <time>2020-06-28T15:38:39Z</time>
      </trkpt>
      <trkpt lat="48.69686" lon="7.47547">
        <ele>226.6</ele>
        <time>2020-06-28T15:38:40Z</time>
      </trkpt>
      <trkpt lat="48.69689" lon="7.47543">
        <ele>226.7</ele>
        <time>2020-06-28T15:38:41Z</time>
      </trkpt>
      <trkpt lat="48.69693" lon="7.47539">
        <ele>226.8</ele>
        <time>2020-06-28T15:38:42Z</time>
      </trkpt>
      <trkpt lat="48.69697" lon="7.47536">
        <ele>226.8</ele>
        <time>2020-06-28T15:38:43Z</time>
      </trkpt>
      <trkpt lat="48.697" lon="7.47534">
        <ele>226.9</ele>
        <time>2020-06-28T15:38:44Z</time>
      </trkpt>
      <trkpt lat="48.69704" lon="7.47532">
        <ele>227</ele>
        <time>2020-06-28T15:38:45Z</time>
      </trkpt>
      <trkpt lat="48.69708" lon="7.4753">
        <ele>227.1</ele>
        <time>2020-06-28T15:38:46Z</time>
      </trkpt>
      <trkpt lat="48.69711" lon="7.47527">
        <ele>227.2</ele>
        <time>2020-06-28T15:38:47Z</time>
      </trkpt>
      <trkpt lat="48.69714" lon="7.47524">
        <ele>227.2</ele>
        <time>2020-06-28T15:38:48Z</time>
      </trkpt>
      <trkpt lat="48.69717" lon="7.47522">
        <ele>227.3</ele>
        <time>2020-06-28T15:38:49Z</time>
      </trkpt>
      <trkpt lat="48.69721" lon="7.4752">
        <ele>227.4</ele>
        <time>2020-06-28T15:38:50Z</time>
      </trkpt>
      <trkpt lat="48.69725" lon="7.47518">
        <ele>227.5</ele>
        <time>2020-06-28T15:38:51Z</time>
      </trkpt>
      <trkpt lat="48.69729" lon="7.47516">
        <ele>227.5</ele>
        <time>2020-06-28T15:38:52Z</time>
      </trkpt>
      <trkpt lat="48.69733" lon="7.47514">
        <ele>227.5</ele>
        <time>2020-06-28T15:38:53Z</time>
      </trkpt>
      <trkpt lat="48.69737" lon="7.47512">
        <ele>227.5</ele>
        <time>2020-06-28T15:38:54Z</time>
      </trkpt>
      <trkpt lat="48.6974" lon="7.47511">
        <ele>227.5</ele>
        <time>2020-06-28T15:38:55Z</time>
      </trkpt>
      <trkpt lat="48.69743" lon="7.47509">
        <ele>227.6</ele>
        <time>2020-06-28T15:38:56Z</time>
      </trkpt>
      <trkpt lat="48.69747" lon="7.47507">
        <ele>227.6</ele>
        <time>2020-06-28T15:38:57Z</time>
      </trkpt>
      <trkpt lat="48.69751" lon="7.47506">
        <ele>227.6</ele>
        <time>2020-06-28T15:38:58Z</time>
      </trkpt>
      <trkpt lat="48.69755" lon="7.47503">
        <ele>227.6</ele>
        <time>2020-06-28T15:38:59Z</time>
      </trkpt>
      <trkpt lat="48.69758" lon="7.47502">
        <ele>227.5</ele>
        <time>2020-06-28T15:39:00Z</time>
      </trkpt>
      <trkpt lat="48.69762" lon="7.47499">
        <ele>227.5</ele>
        <time>2020-06-28T15:39:01Z</time>
      </trkpt>
      <trkpt lat="48.69763" lon="7.47498">
        <ele>227.5</ele>
        <time>2020-06-28T15:39:02Z</time>
      </trkpt>
      <trkpt lat="48.69766" lon="7.47495">
        <ele>227.4</ele>
        <time>2020-06-28T15:39:03Z</time>
      </trkpt>
      <trkpt lat="48.69767" lon="7.47493">
        <ele>227.4</ele>
        <time>2020-06-28T15:39:04Z</time>
      </trkpt>
      <trkpt lat="48.6977" lon="7.47491">
        <ele>227.3</ele>
        <time>2020-06-28T15:39:05Z</time>
      </trkpt>
      <trkpt lat="48.69773" lon="7.47489">
        <ele>227.2</ele>
        <time>2020-06-28T15:39:06Z</time>
      </trkpt>
      <trkpt lat="48.69777" lon="7.47488">
        <ele>227.2</ele>
        <time>2020-06-28T15:39:07Z</time>
      </trkpt>
      <trkpt lat="48.69778" lon="7.47488">
        <ele>227.1</ele>
        <time>2020-06-28T15:39:08Z</time>
      </trkpt>
      <trkpt lat="48.69781" lon="7.47487">
        <ele>227</ele>
        <time>2020-06-28T15:39:09Z</time>
      </trkpt>
      <trkpt lat="48.69784" lon="7.47484">
        <ele>227</ele>
        <time>2020-06-28T15:39:10Z</time>
      </trkpt>
      <trkpt lat="48.69786" lon="7.47481">
        <ele>226.9</ele>
        <time>2020-06-28T15:39:11Z</time>
      </trkpt>
      <trkpt lat="48.69789" lon="7.47478">
        <ele>226.7</ele>
        <time>2020-06-28T15:39:12Z</time>
      </trkpt>
      <trkpt lat="48.69794" lon="7.47475">
        <ele>226.6</ele>
        <time>2020-06-28T15:39:13Z</time>
      </trkpt>
      <trkpt lat="48.69798" lon="7.47474">
        <ele>226.4</ele>
        <time>2020-06-28T15:39:14Z</time>
      </trkpt>
      <trkpt lat="48.69803" lon="7.47472">
        <ele>226.2</ele>
        <time>2020-06-28T15:39:15Z</time>
      </trkpt>
      <trkpt lat="48.69807" lon="7.47469">
        <ele>226</ele>
        <time>2020-06-28T15:39:16Z</time>
      </trkpt>
      <trkpt lat="48.69812" lon="7.47466">
        <ele>225.8</ele>
        <time>2020-06-28T15:39:17Z</time>
      </trkpt>
      <trkpt lat="48.69818" lon="7.47463">
        <ele>225.5</ele>
        <time>2020-06-28T15:39:18Z</time>
      </trkpt>
      <trkpt lat="48.69824" lon="7.47459">
        <ele>225.2</ele>
        <time>2020-06-28T15:39:19Z</time>
      </trkpt>
      <trkpt lat="48.69829" lon="7.47455">
        <ele>224.9</ele>
        <time>2020-06-28T15:39:20Z</time>
      </trkpt>
      <trkpt lat="48.69835" lon="7.4745">
        <ele>224.5</ele>
        <time>2020-06-28T15:39:21Z</time>
      </trkpt>
      <trkpt lat="48.6984" lon="7.47446">
        <ele>224.2</ele>
        <time>2020-06-28T15:39:22Z</time>
      </trkpt>
      <trkpt lat="48.69845" lon="7.47442">
        <ele>223.9</ele>
        <time>2020-06-28T15:39:23Z</time>
      </trkpt>
      <trkpt lat="48.6985" lon="7.47438">
        <ele>223.5</ele>
        <time>2020-06-28T15:39:24Z</time>
      </trkpt>
      <trkpt lat="48.69855" lon="7.47435">
        <ele>223.2</ele>
        <time>2020-06-28T15:39:25Z</time>
      </trkpt>
      <trkpt lat="48.69859" lon="7.4743">
        <ele>222.9</ele>
        <time>2020-06-28T15:39:26Z</time>
      </trkpt>
      <trkpt lat="48.69864" lon="7.47425">
        <ele>222.6</ele>
        <time>2020-06-28T15:39:27Z</time>
      </trkpt>
      <trkpt lat="48.69867" lon="7.47419">
        <ele>222.2</ele>
        <time>2020-06-28T15:39:28Z</time>
      </trkpt>
      <trkpt lat="48.69869" lon="7.47409">
        <ele>221.8</ele>
        <time>2020-06-28T15:39:29Z</time>
      </trkpt>
      <trkpt lat="48.69872" lon="7.47398">
        <ele>221.4</ele>
        <time>2020-06-28T15:39:30Z</time>
      </trkpt>
      <trkpt lat="48.69874" lon="7.47387">
        <ele>220.9</ele>
        <time>2020-06-28T15:39:31Z</time>
      </trkpt>
      <trkpt lat="48.69876" lon="7.47377">
        <ele>220.5</ele>
        <time>2020-06-28T15:39:32Z</time>
      </trkpt>
      <trkpt lat="48.69876" lon="7.47365">
        <ele>220.1</ele>
        <time>2020-06-28T15:39:33Z</time>
      </trkpt>
      <trkpt lat="48.69875" lon="7.47354">
        <ele>219.7</ele>
        <time>2020-06-28T15:39:34Z</time>
      </trkpt>
      <trkpt lat="48.69874" lon="7.47343">
        <ele>219.2</ele>
        <time>2020-06-28T15:39:35Z</time>
      </trkpt>
      <trkpt lat="48.69873" lon="7.47334">
        <ele>218.9</ele>
        <time>2020-06-28T15:39:36Z</time>
      </trkpt>
      <trkpt lat="48.6987" lon="7.47323">
        <ele>218.5</ele>
        <time>2020-06-28T15:39:37Z</time>
      </trkpt>
      <trkpt lat="48.69868" lon="7.47312">
        <ele>218.1</ele>
        <time>2020-06-28T15:39:38Z</time>
      </trkpt>
      <trkpt lat="48.69866" lon="7.47301">
        <ele>217.7</ele>
        <time>2020-06-28T15:39:39Z</time>
      </trkpt>
      <trkpt lat="48.69864" lon="7.47289">
        <ele>217.3</ele>
        <time>2020-06-28T15:39:40Z</time>
      </trkpt>
      <trkpt lat="48.69862" lon="7.47277">
        <ele>216.8</ele>
        <time>2020-06-28T15:39:41Z</time>
      </trkpt>
      <trkpt lat="48.69859" lon="7.47265">
        <ele>216.3</ele>
        <time>2020-06-28T15:39:42Z</time>
      </trkpt>
      <trkpt lat="48.69857" lon="7.47252">
        <ele>215.8</ele>
        <time>2020-06-28T15:39:43Z</time>
      </trkpt>
      <trkpt lat="48.69854" lon="7.4724">
        <ele>215.3</ele>
        <time>2020-06-28T15:39:44Z</time>
      </trkpt>
      <trkpt lat="48.69851" lon="7.47227">
        <ele>214.7</ele>
        <time>2020-06-28T15:39:45Z</time>
      </trkpt>
      <trkpt lat="48.69849" lon="7.47214">
        <ele>214.2</ele>
        <time>2020-06-28T15:39:46Z</time>
      </trkpt>
      <trkpt lat="48.69847" lon="7.472">
        <ele>213.7</ele>
        <time>2020-06-28T15:39:47Z</time>
      </trkpt>
      <trkpt lat="48.69845" lon="7.47187">
        <ele>213.2</ele>
        <time>2020-06-28T15:39:48Z</time>
      </trkpt>
      <trkpt lat="48.69842" lon="7.47173">
        <ele>212.6</ele>
        <time>2020-06-28T15:39:49Z</time>
      </trkpt>
      <trkpt lat="48.6984" lon="7.47159">
        <ele>212.1</ele>
        <time>2020-06-28T15:39:50Z</time>
      </trkpt>
      <trkpt lat="48.69838" lon="7.47145">
        <ele>211.5</ele>
        <time>2020-06-28T15:39:51Z</time>
      </trkpt>
      <trkpt lat="48.69836" lon="7.47131">
        <ele>211</ele>
        <time>2020-06-28T15:39:52Z</time>
      </trkpt>
      <trkpt lat="48.69834" lon="7.47117">
        <ele>210.4</ele>
        <time>2020-06-28T15:39:53Z</time>
      </trkpt>
      <trkpt lat="48.69834" lon="7.47102">
        <ele>209.8</ele>
        <time>2020-06-28T15:39:54Z</time>
      </trkpt>
      <trkpt lat="48.69834" lon="7.47087">
        <ele>209.2</ele>
        <time>2020-06-28T15:39:55Z</time>
      </trkpt>
      <trkpt lat="48.69835" lon="7.47072">
        <ele>208.6</ele>
        <time>2020-06-28T15:39:56Z</time>
      </trkpt>
      <trkpt lat="48.69836" lon="7.47058">
        <ele>208</ele>
        <time>2020-06-28T15:39:57Z</time>
      </trkpt>
      <trkpt lat="48.69837" lon="7.47043">
        <ele>207.4</ele>
        <time>2020-06-28T15:39:58Z</time>
      </trkpt>
      <trkpt lat="48.69838" lon="7.47029">
        <ele>206.9</ele>
        <time>2020-06-28T15:39:59Z</time>
      </trkpt>
      <trkpt lat="48.69839" lon="7.47015">
        <ele>206.4</ele>
        <time>2020-06-28T15:40:00Z</time>
      </trkpt>
      <trkpt lat="48.69841" lon="7.47002">
        <ele>205.9</ele>
        <time>2020-06-28T15:40:01Z</time>
      </trkpt>
      <trkpt lat="48.69842" lon="7.46988">
        <ele>205.5</ele>
        <time>2020-06-28T15:40:02Z</time>
      </trkpt>
      <trkpt lat="48.69844" lon="7.46975">
        <ele>205.1</ele>
        <time>2020-06-28T15:40:03Z</time>
      </trkpt>
      <trkpt lat="48.69845" lon="7.46961">
        <ele>204.9</ele>
        <time>2020-06-28T15:40:04Z</time>
      </trkpt>
      <trkpt lat="48.69847" lon="7.46948">
        <ele>204.8</ele>
        <time>2020-06-28T15:40:05Z</time>
      </trkpt>
      <trkpt lat="48.69848" lon="7.46936">
        <ele>204.7</ele>
        <time>2020-06-28T15:40:06Z</time>
      </trkpt>
      <trkpt lat="48.6985" lon="7.46923">
        <ele>204.7</ele>
        <time>2020-06-28T15:40:07Z</time>
      </trkpt>
      <trkpt lat="48.69851" lon="7.46911">
        <ele>204.7</ele>
        <time>2020-06-28T15:40:08Z</time>
      </trkpt>
      <trkpt lat="48.69853" lon="7.46899">
        <ele>204.7</ele>
        <time>2020-06-28T15:40:09Z</time>
      </trkpt>
      <trkpt lat="48.69854" lon="7.46888">
        <ele>204.8</ele>
        <time>2020-06-28T15:40:10Z</time>
      </trkpt>
      <trkpt lat="48.69855" lon="7.46876">
        <ele>204.8</ele>
        <time>2020-06-28T15:40:11Z</time>
      </trkpt>
      <trkpt lat="48.69856" lon="7.46865">
        <ele>204.5</ele>
        <time>2020-06-28T15:40:12Z</time>
      </trkpt>
      <trkpt lat="48.69856" lon="7.46853">
        <ele>204.2</ele>
        <time>2020-06-28T15:40:13Z</time>
      </trkpt>
      <trkpt lat="48.69857" lon="7.46843">
        <ele>204</ele>
        <time>2020-06-28T15:40:14Z</time>
      </trkpt>
      <trkpt lat="48.69858" lon="7.46832">
        <ele>203.9</ele>
        <time>2020-06-28T15:40:15Z</time>
      </trkpt>
      <trkpt lat="48.69859" lon="7.46822">
        <ele>203.7</ele>
        <time>2020-06-28T15:40:16Z</time>
      </trkpt>
      <trkpt lat="48.69861" lon="7.46811">
        <ele>203.7</ele>
        <time>2020-06-28T15:40:17Z</time>
      </trkpt>
      <trkpt lat="48.69862" lon="7.46801">
        <ele>203.7</ele>
        <time>2020-06-28T15:40:18Z</time>
      </trkpt>
      <trkpt lat="48.69864" lon="7.46791">
        <ele>203.8</ele>
        <time>2020-06-28T15:40:19Z</time>
      </trkpt>
      <trkpt lat="48.69866" lon="7.46782">
        <ele>203.9</ele>
        <time>2020-06-28T15:40:20Z</time>
      </trkpt>
      <trkpt lat="48.69868" lon="7.46772">
        <ele>204</ele>
        <time>2020-06-28T15:40:21Z</time>
      </trkpt>
      <trkpt lat="48.69871" lon="7.46763">
        <ele>204.1</ele>
        <time>2020-06-28T15:40:22Z</time>
      </trkpt>
      <trkpt lat="48.69874" lon="7.46754">
        <ele>204.3</ele>
        <time>2020-06-28T15:40:23Z</time>
      </trkpt>
      <trkpt lat="48.69877" lon="7.46746">
        <ele>204.6</ele>
        <time>2020-06-28T15:40:24Z</time>
      </trkpt>
      <trkpt lat="48.6988" lon="7.46738">
        <ele>204.8</ele>
        <time>2020-06-28T15:40:25Z</time>
      </trkpt>
      <trkpt lat="48.69884" lon="7.46731">
        <ele>205</ele>
        <time>2020-06-28T15:40:26Z</time>
      </trkpt>
      <trkpt lat="48.69887" lon="7.46724">
        <ele>205.3</ele>
        <time>2020-06-28T15:40:27Z</time>
      </trkpt>
      <trkpt lat="48.69889" lon="7.46718">
        <ele>205.5</ele>
        <time>2020-06-28T15:40:28Z</time>
      </trkpt>
      <trkpt lat="48.69892" lon="7.46712">
        <ele>205.8</ele>
        <time>2020-06-28T15:40:29Z</time>
      </trkpt>
      <trkpt lat="48.69895" lon="7.46706">
        <ele>206</ele>
        <time>2020-06-28T15:40:30Z</time>
      </trkpt>
      <trkpt lat="48.69899" lon="7.46701">
        <ele>206.3</ele>
        <time>2020-06-28T15:40:31Z</time>
      </trkpt>
      <trkpt lat="48.69901" lon="7.46696">
        <ele>206.5</ele>
        <time>2020-06-28T15:40:32Z</time>
      </trkpt>
      <trkpt lat="48.69904" lon="7.46692">
        <ele>206.8</ele>
        <time>2020-06-28T15:40:33Z</time>
      </trkpt>
      <trkpt lat="48.69907" lon="7.46687">
        <ele>207.1</ele>
        <time>2020-06-28T15:40:34Z</time>
      </trkpt>
      <trkpt lat="48.6991" lon="7.46682">
        <ele>207.4</ele>
        <time>2020-06-28T15:40:35Z</time>
      </trkpt>
      <trkpt lat="48.69912" lon="7.46677">
        <ele>207.6</ele>
        <time>2020-06-28T15:40:36Z</time>
      </trkpt>
      <trkpt lat="48.69915" lon="7.46672">
        <ele>207.9</ele>
        <time>2020-06-28T15:40:37Z</time>
      </trkpt>
      <trkpt lat="48.69918" lon="7.46667">
        <ele>208.2</ele>
        <time>2020-06-28T15:40:38Z</time>
      </trkpt>
      <trkpt lat="48.69921" lon="7.46662">
        <ele>208.4</ele>
        <time>2020-06-28T15:40:39Z</time>
      </trkpt>
      <trkpt lat="48.69924" lon="7.46656">
        <ele>208.7</ele>
        <time>2020-06-28T15:40:40Z</time>
      </trkpt>
      <trkpt lat="48.69927" lon="7.46651">
        <ele>209</ele>
        <time>2020-06-28T15:40:41Z</time>
      </trkpt>
      <trkpt lat="48.6993" lon="7.46645">
        <ele>209.3</ele>
        <time>2020-06-28T15:40:42Z</time>
      </trkpt>
      <trkpt lat="48.69933" lon="7.4664">
        <ele>209.6</ele>
        <time>2020-06-28T15:40:43Z</time>
      </trkpt>
      <trkpt lat="48.69935" lon="7.46635">
        <ele>209.9</ele>
        <time>2020-06-28T15:40:44Z</time>
      </trkpt>
      <trkpt lat="48.69938" lon="7.46631">
        <ele>210.1</ele>
        <time>2020-06-28T15:40:45Z</time>
      </trkpt>
      <trkpt lat="48.69942" lon="7.46626">
        <ele>210.4</ele>
        <time>2020-06-28T15:40:46Z</time>
      </trkpt>
      <trkpt lat="48.69944" lon="7.46622">
        <ele>210.7</ele>
        <time>2020-06-28T15:40:47Z</time>
      </trkpt>
      <trkpt lat="48.69947" lon="7.46617">
        <ele>210.9</ele>
        <time>2020-06-28T15:40:48Z</time>
      </trkpt>
      <trkpt lat="48.6995" lon="7.46614">
        <ele>211.2</ele>
        <time>2020-06-28T15:40:49Z</time>
      </trkpt>
      <trkpt lat="48.69953" lon="7.4661">
        <ele>211.4</ele>
        <time>2020-06-28T15:40:50Z</time>
      </trkpt>
      <trkpt lat="48.69955" lon="7.46607">
        <ele>211.6</ele>
        <time>2020-06-28T15:40:51Z</time>
      </trkpt>
      <trkpt lat="48.69958" lon="7.46603">
        <ele>211.8</ele>
        <time>2020-06-28T15:40:52Z</time>
      </trkpt>
      <trkpt lat="48.69959" lon="7.46599">
        <ele>212</ele>
        <time>2020-06-28T15:40:53Z</time>
      </trkpt>
      <trkpt lat="48.69962" lon="7.46593">
        <ele>212.3</ele>
        <time>2020-06-28T15:40:54Z</time>
      </trkpt>
      <trkpt lat="48.69964" lon="7.46589">
        <ele>212.5</ele>
        <time>2020-06-28T15:40:55Z</time>
      </trkpt>
      <trkpt lat="48.69967" lon="7.46585">
        <ele>212.8</ele>
        <time>2020-06-28T15:40:56Z</time>
      </trkpt>
      <trkpt lat="48.69969" lon="7.46582">
        <ele>213</ele>
        <time>2020-06-28T15:40:57Z</time>
      </trkpt>
      <trkpt lat="48.69972" lon="7.46577">
        <ele>213.2</ele>
        <time>2020-06-28T15:40:58Z</time>
      </trkpt>
      <trkpt lat="48.69974" lon="7.46573">
        <ele>213.5</ele>
        <time>2020-06-28T15:40:59Z</time>
      </trkpt>
      <trkpt lat="48.69977" lon="7.46569">
        <ele>213.7</ele>
        <time>2020-06-28T15:41:00Z</time>
      </trkpt>
      <trkpt lat="48.6998" lon="7.46566">
        <ele>213.9</ele>
        <time>2020-06-28T15:41:01Z</time>
      </trkpt>
      <trkpt lat="48.69982" lon="7.46563">
        <ele>214.1</ele>
        <time>2020-06-28T15:41:02Z</time>
      </trkpt>
      <trkpt lat="48.69984" lon="7.46559">
        <ele>214.3</ele>
        <time>2020-06-28T15:41:03Z</time>
      </trkpt>
      <trkpt lat="48.69986" lon="7.46554">
        <ele>214.6</ele>
        <time>2020-06-28T15:41:04Z</time>
      </trkpt>
      <trkpt lat="48.69988" lon="7.46551">
        <ele>214.8</ele>
        <time>2020-06-28T15:41:05Z</time>
      </trkpt>
      <trkpt lat="48.6999" lon="7.46546">
        <ele>215</ele>
        <time>2020-06-28T15:41:06Z</time>
      </trkpt>
      <trkpt lat="48.69992" lon="7.46541">
        <ele>215.2</ele>
        <time>2020-06-28T15:41:07Z</time>
      </trkpt>
      <trkpt lat="48.69994" lon="7.46537">
        <ele>215.4</ele>
        <time>2020-06-28T15:41:08Z</time>
      </trkpt>
      <trkpt lat="48.69996" lon="7.46532">
        <ele>215.7</ele>
        <time>2020-06-28T15:41:09Z</time>
      </trkpt>
      <trkpt lat="48.69997" lon="7.46529">
        <ele>215.8</ele>
        <time>2020-06-28T15:41:10Z</time>
      </trkpt>
      <trkpt lat="48.69998" lon="7.46523">
        <ele>216</ele>
        <time>2020-06-28T15:41:11Z</time>
      </trkpt>
      <trkpt lat="48.69998" lon="7.46521">
        <ele>216.2</ele>
        <time>2020-06-28T15:41:12Z</time>
      </trkpt>
      <trkpt lat="48.69999" lon="7.46516">
        <ele>216.3</ele>
        <time>2020-06-28T15:41:13Z</time>
      </trkpt>
      <trkpt lat="48.69999" lon="7.46512">
        <ele>216.4</ele>
        <time>2020-06-28T15:41:14Z</time>
      </trkpt>
      <trkpt lat="48.69999" lon="7.46509">
        <ele>216.5</ele>
        <time>2020-06-28T15:41:15Z</time>
      </trkpt>
      <trkpt lat="48.69998" lon="7.46503">
        <ele>216.6</ele>
        <time>2020-06-28T15:41:16Z</time>
      </trkpt>
      <trkpt lat="48.69998" lon="7.46498">
        <ele>216.7</ele>
        <time>2020-06-28T15:41:17Z</time>
      </trkpt>
      <trkpt lat="48.69997" lon="7.46493">
        <ele>216.8</ele>
        <time>2020-06-28T15:41:18Z</time>
      </trkpt>
      <trkpt lat="48.69996" lon="7.46485">
        <ele>217</ele>
        <time>2020-06-28T15:41:19Z</time>
      </trkpt>
      <trkpt lat="48.69995" lon="7.46478">
        <ele>217.2</ele>
        <time>2020-06-28T15:41:20Z</time>
      </trkpt>
      <trkpt lat="48.69995" lon="7.46472">
        <ele>217.4</ele>
        <time>2020-06-28T15:41:21Z</time>
      </trkpt>
      <trkpt lat="48.69993" lon="7.46465">
        <ele>217.5</ele>
        <time>2020-06-28T15:41:22Z</time>
      </trkpt>
      <trkpt lat="48.69993" lon="7.46459">
        <ele>217.6</ele>
        <time>2020-06-28T15:41:23Z</time>
      </trkpt>
      <trkpt lat="48.69991" lon="7.46452">
        <ele>217.8</ele>
        <time>2020-06-28T15:41:24Z</time>
      </trkpt>
      <trkpt lat="48.6999" lon="7.46445">
        <ele>217.9</ele>
        <time>2020-06-28T15:41:25Z</time>
      </trkpt>
      <trkpt lat="48.69989" lon="7.46437">
        <ele>218</ele>
        <time>2020-06-28T15:41:26Z</time>
      </trkpt>
      <trkpt lat="48.69989" lon="7.46432">
        <ele>218.1</ele>
        <time>2020-06-28T15:41:27Z</time>
      </trkpt>
      <trkpt lat="48.69988" lon="7.46426">
        <ele>218.2</ele>
        <time>2020-06-28T15:41:28Z</time>
      </trkpt>
      <trkpt lat="48.69988" lon="7.4642">
        <ele>218.3</ele>
        <time>2020-06-28T15:41:29Z</time>
      </trkpt>
      <trkpt lat="48.69987" lon="7.46413">
        <ele>218.4</ele>
        <time>2020-06-28T15:41:30Z</time>
      </trkpt>
      <trkpt lat="48.69986" lon="7.46406">
        <ele>218.5</ele>
        <time>2020-06-28T15:41:31Z</time>
      </trkpt>
      <trkpt lat="48.69985" lon="7.464">
        <ele>218.6</ele>
        <time>2020-06-28T15:41:32Z</time>
      </trkpt>
      <trkpt lat="48.69984" lon="7.46394">
        <ele>218.7</ele>
        <time>2020-06-28T15:41:33Z</time>
      </trkpt>
      <trkpt lat="48.69984" lon="7.46388">
        <ele>218.8</ele>
        <time>2020-06-28T15:41:34Z</time>
      </trkpt>
      <trkpt lat="48.69983" lon="7.46383">
        <ele>218.9</ele>
        <time>2020-06-28T15:41:35Z</time>
      </trkpt>
      <trkpt lat="48.69983" lon="7.46374">
        <ele>219</ele>
        <time>2020-06-28T15:41:36Z</time>
      </trkpt>
      <trkpt lat="48.69982" lon="7.46368">
        <ele>219.1</ele>
        <time>2020-06-28T15:41:37Z</time>
      </trkpt>
      <trkpt lat="48.69982" lon="7.46361">
        <ele>219.2</ele>
        <time>2020-06-28T15:41:38Z</time>
      </trkpt>
      <trkpt lat="48.69981" lon="7.46355">
        <ele>219.3</ele>
        <time>2020-06-28T15:41:39Z</time>
      </trkpt>
      <trkpt lat="48.6998" lon="7.4635">
        <ele>219.3</ele>
        <time>2020-06-28T15:41:40Z</time>
      </trkpt>
      <trkpt lat="48.69978" lon="7.46343">
        <ele>219.4</ele>
        <time>2020-06-28T15:41:41Z</time>
      </trkpt>
      <trkpt lat="48.69977" lon="7.46336">
        <ele>219.5</ele>
        <time>2020-06-28T15:41:42Z</time>
      </trkpt>
      <trkpt lat="48.69976" lon="7.46331">
        <ele>219.6</ele>
        <time>2020-06-28T15:41:43Z</time>
      </trkpt>
      <trkpt lat="48.69976" lon="7.46322">
        <ele>219.7</ele>
        <time>2020-06-28T15:41:44Z</time>
      </trkpt>
      <trkpt lat="48.69975" lon="7.46314">
        <ele>219.8</ele>
        <time>2020-06-28T15:41:45Z</time>
      </trkpt>
      <trkpt lat="48.69973" lon="7.46308">
        <ele>219.9</ele>
        <time>2020-06-28T15:41:46Z</time>
      </trkpt>
      <trkpt lat="48.69972" lon="7.46303">
        <ele>220</ele>
        <time>2020-06-28T15:41:47Z</time>
      </trkpt>
      <trkpt lat="48.69971" lon="7.46296">
        <ele>220.2</ele>
        <time>2020-06-28T15:41:48Z</time>
      </trkpt>
      <trkpt lat="48.6997" lon="7.4629">
        <ele>220.3</ele>
        <time>2020-06-28T15:41:49Z</time>
      </trkpt>
      <trkpt lat="48.6997" lon="7.46284">
        <ele>220.4</ele>
        <time>2020-06-28T15:41:50Z</time>
      </trkpt>
      <trkpt lat="48.69969" lon="7.46278">
        <ele>220.5</ele>
        <time>2020-06-28T15:41:51Z</time>
      </trkpt>
      <trkpt lat="48.69968" lon="7.46272">
        <ele>220.5</ele>
        <time>2020-06-28T15:41:52Z</time>
      </trkpt>
      <trkpt lat="48.69967" lon="7.46264">
        <ele>220.6</ele>
        <time>2020-06-28T15:41:53Z</time>
      </trkpt>
      <trkpt lat="48.69966" lon="7.46257">
        <ele>220.7</ele>
        <time>2020-06-28T15:41:54Z</time>
      </trkpt>
      <trkpt lat="48.69966" lon="7.46251">
        <ele>220.8</ele>
        <time>2020-06-28T15:41:55Z</time>
      </trkpt>
      <trkpt lat="48.69965" lon="7.46243">
        <ele>220.9</ele>
        <time>2020-06-28T15:41:56Z</time>
      </trkpt>
      <trkpt lat="48.69965" lon="7.46235">
        <ele>221</ele>
        <time>2020-06-28T15:41:57Z</time>
      </trkpt>
      <trkpt lat="48.69964" lon="7.46229">
        <ele>221</ele>
        <time>2020-06-28T15:41:58Z</time>
      </trkpt>
      <trkpt lat="48.69964" lon="7.46221">
        <ele>221.1</ele>
        <time>2020-06-28T15:41:59Z</time>
      </trkpt>
      <trkpt lat="48.69964" lon="7.46214">
        <ele>221.2</ele>
        <time>2020-06-28T15:42:00Z</time>
      </trkpt>
      <trkpt lat="48.69963" lon="7.46208">
        <ele>221.2</ele>
        <time>2020-06-28T15:42:01Z</time>
      </trkpt>
      <trkpt lat="48.69963" lon="7.46201">
        <ele>221.3</ele>
        <time>2020-06-28T15:42:02Z</time>
      </trkpt>
      <trkpt lat="48.69961" lon="7.46194">
        <ele>221.4</ele>
        <time>2020-06-28T15:42:03Z</time>
      </trkpt>
      <trkpt lat="48.6996" lon="7.46187">
        <ele>221.4</ele>
        <time>2020-06-28T15:42:04Z</time>
      </trkpt>
      <trkpt lat="48.6996" lon="7.46179">
        <ele>221.5</ele>
        <time>2020-06-28T15:42:05Z</time>
      </trkpt>
      <trkpt lat="48.69959" lon="7.46171">
        <ele>221.6</ele>
        <time>2020-06-28T15:42:06Z</time>
      </trkpt>
      <trkpt lat="48.69958" lon="7.46164">
        <ele>221.6</ele>
        <time>2020-06-28T15:42:07Z</time>
      </trkpt>
      <trkpt lat="48.69957" lon="7.46156">
        <ele>221.7</ele>
        <time>2020-06-28T15:42:08Z</time>
      </trkpt>
      <trkpt lat="48.69956" lon="7.46148">
        <ele>221.8</ele>
        <time>2020-06-28T15:42:09Z</time>
      </trkpt>
      <trkpt lat="48.69954" lon="7.46141">
        <ele>221.9</ele>
        <time>2020-06-28T15:42:10Z</time>
      </trkpt>
      <trkpt lat="48.69953" lon="7.46133">
        <ele>221.9</ele>
        <time>2020-06-28T15:42:11Z</time>
      </trkpt>
      <trkpt lat="48.69952" lon="7.46127">
        <ele>222</ele>
        <time>2020-06-28T15:42:12Z</time>
      </trkpt>
      <trkpt lat="48.69951" lon="7.46119">
        <ele>222.1</ele>
        <time>2020-06-28T15:42:13Z</time>
      </trkpt>
      <trkpt lat="48.6995" lon="7.46112">
        <ele>222.2</ele>
        <time>2020-06-28T15:42:14Z</time>
      </trkpt>
      <trkpt lat="48.69949" lon="7.46104">
        <ele>222.2</ele>
        <time>2020-06-28T15:42:15Z</time>
      </trkpt>
      <trkpt lat="48.69949" lon="7.46098">
        <ele>222.3</ele>
        <time>2020-06-28T15:42:16Z</time>
      </trkpt>
      <trkpt lat="48.69948" lon="7.46091">
        <ele>222.4</ele>
        <time>2020-06-28T15:42:17Z</time>
      </trkpt>
      <trkpt lat="48.69948" lon="7.46083">
        <ele>222.5</ele>
        <time>2020-06-28T15:42:18Z</time>
      </trkpt>
      <trkpt lat="48.69948" lon="7.46075">
        <ele>222.6</ele>
        <time>2020-06-28T15:42:19Z</time>
      </trkpt>
      <trkpt lat="48.69947" lon="7.46068">
        <ele>222.8</ele>
        <time>2020-06-28T15:42:20Z</time>
      </trkpt>
      <trkpt lat="48.69947" lon="7.46062">
        <ele>223</ele>
        <time>2020-06-28T15:42:21Z</time>
      </trkpt>
      <trkpt lat="48.69946" lon="7.46055">
        <ele>223.1</ele>
        <time>2020-06-28T15:42:22Z</time>
      </trkpt>
      <trkpt lat="48.69945" lon="7.46048">
        <ele>223.2</ele>
        <time>2020-06-28T15:42:23Z</time>
      </trkpt>
      <trkpt lat="48.69944" lon="7.46042">
        <ele>223.3</ele>
        <time>2020-06-28T15:42:24Z</time>
      </trkpt>
      <trkpt lat="48.69943" lon="7.46035">
        <ele>223.4</ele>
        <time>2020-06-28T15:42:25Z</time>
      </trkpt>
      <trkpt lat="48.69942" lon="7.46029">
        <ele>223.4</ele>
        <time>2020-06-28T15:42:26Z</time>
      </trkpt>
      <trkpt lat="48.69942" lon="7.46023">
        <ele>223.5</ele>
        <time>2020-06-28T15:42:27Z</time>
      </trkpt>
      <trkpt lat="48.69941" lon="7.46017">
        <ele>223.6</ele>
        <time>2020-06-28T15:42:28Z</time>
      </trkpt>
      <trkpt lat="48.6994" lon="7.4601">
        <ele>223.7</ele>
        <time>2020-06-28T15:42:29Z</time>
      </trkpt>
      <trkpt lat="48.69938" lon="7.46003">
        <ele>223.8</ele>
        <time>2020-06-28T15:42:30Z</time>
      </trkpt>
      <trkpt lat="48.69938" lon="7.45996">
        <ele>223.8</ele>
        <time>2020-06-28T15:42:31Z</time>
      </trkpt>
      <trkpt lat="48.69937" lon="7.4599">
        <ele>223.9</ele>
        <time>2020-06-28T15:42:32Z</time>
      </trkpt>
      <trkpt lat="48.69935" lon="7.45983">
        <ele>224</ele>
        <time>2020-06-28T15:42:33Z</time>
      </trkpt>
      <trkpt lat="48.69935" lon="7.45973">
        <ele>224</ele>
        <time>2020-06-28T15:42:34Z</time>
      </trkpt>
      <trkpt lat="48.69933" lon="7.45965">
        <ele>224.1</ele>
        <time>2020-06-28T15:42:35Z</time>
      </trkpt>
      <trkpt lat="48.69933" lon="7.45958">
        <ele>224.1</ele>
        <time>2020-06-28T15:42:36Z</time>
      </trkpt>
      <trkpt lat="48.69932" lon="7.4595">
        <ele>224.1</ele>
        <time>2020-06-28T15:42:37Z</time>
      </trkpt>
      <trkpt lat="48.69931" lon="7.45942">
        <ele>224.1</ele>
        <time>2020-06-28T15:42:38Z</time>
      </trkpt>
      <trkpt lat="48.69929" lon="7.45934">
        <ele>224.2</ele>
        <time>2020-06-28T15:42:39Z</time>
      </trkpt>
      <trkpt lat="48.69929" lon="7.45926">
        <ele>224.2</ele>
        <time>2020-06-28T15:42:40Z</time>
      </trkpt>
      <trkpt lat="48.69928" lon="7.45918">
        <ele>224.2</ele>
        <time>2020-06-28T15:42:41Z</time>
      </trkpt>
      <trkpt lat="48.69927" lon="7.45911">
        <ele>224.3</ele>
        <time>2020-06-28T15:42:42Z</time>
      </trkpt>
      <trkpt lat="48.69925" lon="7.45904">
        <ele>224.3</ele>
        <time>2020-06-28T15:42:43Z</time>
      </trkpt>
      <trkpt lat="48.69924" lon="7.45896">
        <ele>224.3</ele>
        <time>2020-06-28T15:42:44Z</time>
      </trkpt>
      <trkpt lat="48.69923" lon="7.45889">
        <ele>224.4</ele>
        <time>2020-06-28T15:42:45Z</time>
      </trkpt>
      <trkpt lat="48.69922" lon="7.45882">
        <ele>224.4</ele>
        <time>2020-06-28T15:42:46Z</time>
      </trkpt>
      <trkpt lat="48.69921" lon="7.45875">
        <ele>224.4</ele>
        <time>2020-06-28T15:42:47Z</time>
      </trkpt>
      <trkpt lat="48.6992" lon="7.45868">
        <ele>224.4</ele>
        <time>2020-06-28T15:42:48Z</time>
      </trkpt>
      <trkpt lat="48.69919" lon="7.4586">
        <ele>224.4</ele>
        <time>2020-06-28T15:42:49Z</time>
      </trkpt>
      <trkpt lat="48.69919" lon="7.45852">
        <ele>224.4</ele>
        <time>2020-06-28T15:42:50Z</time>
      </trkpt>
      <trkpt lat="48.69918" lon="7.45845">
        <ele>224.4</ele>
        <time>2020-06-28T15:42:51Z</time>
      </trkpt>
      <trkpt lat="48.69918" lon="7.45838">
        <ele>224.5</ele>
        <time>2020-06-28T15:42:52Z</time>
      </trkpt>
      <trkpt lat="48.69917" lon="7.45832">
        <ele>224.6</ele>
        <time>2020-06-28T15:42:53Z</time>
      </trkpt>
      <trkpt lat="48.69917" lon="7.45826">
        <ele>224.6</ele>
        <time>2020-06-28T15:42:54Z</time>
      </trkpt>
      <trkpt lat="48.69917" lon="7.4582">
        <ele>224.7</ele>
        <time>2020-06-28T15:42:55Z</time>
      </trkpt>
      <trkpt lat="48.69915" lon="7.45813">
        <ele>224.7</ele>
        <time>2020-06-28T15:42:56Z</time>
      </trkpt>
      <trkpt lat="48.69913" lon="7.45807">
        <ele>224.8</ele>
        <time>2020-06-28T15:42:57Z</time>
      </trkpt>
      <trkpt lat="48.69912" lon="7.45801">
        <ele>224.9</ele>
        <time>2020-06-28T15:42:58Z</time>
      </trkpt>
      <trkpt lat="48.69911" lon="7.45794">
        <ele>225</ele>
        <time>2020-06-28T15:42:59Z</time>
      </trkpt>
      <trkpt lat="48.69911" lon="7.45787">
        <ele>225.1</ele>
        <time>2020-06-28T15:43:00Z</time>
      </trkpt>
      <trkpt lat="48.6991" lon="7.45781">
        <ele>225.1</ele>
        <time>2020-06-28T15:43:01Z</time>
      </trkpt>
      <trkpt lat="48.69909" lon="7.45774">
        <ele>225.2</ele>
        <time>2020-06-28T15:43:02Z</time>
      </trkpt>
      <trkpt lat="48.69908" lon="7.45767">
        <ele>225.2</ele>
        <time>2020-06-28T15:43:03Z</time>
      </trkpt>
      <trkpt lat="48.69907" lon="7.4576">
        <ele>225.3</ele>
        <time>2020-06-28T15:43:04Z</time>
      </trkpt>
      <trkpt lat="48.69907" lon="7.45753">
        <ele>225.3</ele>
        <time>2020-06-28T15:43:05Z</time>
      </trkpt>
      <trkpt lat="48.69905" lon="7.45747">
        <ele>225.4</ele>
        <time>2020-06-28T15:43:06Z</time>
      </trkpt>
      <trkpt lat="48.69904" lon="7.45741">
        <ele>225.4</ele>
        <time>2020-06-28T15:43:07Z</time>
      </trkpt>
      <trkpt lat="48.69902" lon="7.45734">
        <ele>225.5</ele>
        <time>2020-06-28T15:43:08Z</time>
      </trkpt>
      <trkpt lat="48.69901" lon="7.45727">
        <ele>225.5</ele>
        <time>2020-06-28T15:43:09Z</time>
      </trkpt>
      <trkpt lat="48.69899" lon="7.4572">
        <ele>225.6</ele>
        <time>2020-06-28T15:43:10Z</time>
      </trkpt>
      <trkpt lat="48.69898" lon="7.45714">
        <ele>225.6</ele>
        <time>2020-06-28T15:43:11Z</time>
      </trkpt>
      <trkpt lat="48.69897" lon="7.45707">
        <ele>225.7</ele>
        <time>2020-06-28T15:43:12Z</time>
      </trkpt>
      <trkpt lat="48.69896" lon="7.45701">
        <ele>225.7</ele>
        <time>2020-06-28T15:43:13Z</time>
      </trkpt>
      <trkpt lat="48.69895" lon="7.45695">
        <ele>225.8</ele>
        <time>2020-06-28T15:43:14Z</time>
      </trkpt>
      <trkpt lat="48.69894" lon="7.45688">
        <ele>225.9</ele>
        <time>2020-06-28T15:43:15Z</time>
      </trkpt>
      <trkpt lat="48.69893" lon="7.45681">
        <ele>225.9</ele>
        <time>2020-06-28T15:43:16Z</time>
      </trkpt>
      <trkpt lat="48.69892" lon="7.45675">
        <ele>226</ele>
        <time>2020-06-28T15:43:17Z</time>
      </trkpt>
      <trkpt lat="48.69891" lon="7.45668">
        <ele>226.1</ele>
        <time>2020-06-28T15:43:18Z</time>
      </trkpt>
      <trkpt lat="48.69891" lon="7.45661">
        <ele>226.2</ele>
        <time>2020-06-28T15:43:19Z</time>
      </trkpt>
      <trkpt lat="48.6989" lon="7.45653">
        <ele>226.2</ele>
        <time>2020-06-28T15:43:20Z</time>
      </trkpt>
      <trkpt lat="48.6989" lon="7.45645">
        <ele>226.3</ele>
        <time>2020-06-28T15:43:21Z</time>
      </trkpt>
      <trkpt lat="48.6989" lon="7.45639">
        <ele>226.4</ele>
        <time>2020-06-28T15:43:22Z</time>
      </trkpt>
      <trkpt lat="48.69889" lon="7.45634">
        <ele>226.4</ele>
        <time>2020-06-28T15:43:23Z</time>
      </trkpt>
      <trkpt lat="48.69888" lon="7.45628">
        <ele>226.4</ele>
        <time>2020-06-28T15:43:24Z</time>
      </trkpt>
      <trkpt lat="48.69886" lon="7.45621">
        <ele>226.5</ele>
        <time>2020-06-28T15:43:25Z</time>
      </trkpt>
      <trkpt lat="48.69885" lon="7.45615">
        <ele>226.5</ele>
        <time>2020-06-28T15:43:26Z</time>
      </trkpt>
      <trkpt lat="48.69884" lon="7.45608">
        <ele>226.6</ele>
        <time>2020-06-28T15:43:27Z</time>
      </trkpt>
      <trkpt lat="48.69883" lon="7.45601">
        <ele>226.6</ele>
        <time>2020-06-28T15:43:28Z</time>
      </trkpt>
      <trkpt lat="48.69882" lon="7.45595">
        <ele>226.7</ele>
        <time>2020-06-28T15:43:29Z</time>
      </trkpt>
      <trkpt lat="48.69881" lon="7.45588">
        <ele>226.7</ele>
        <time>2020-06-28T15:43:30Z</time>
      </trkpt>
      <trkpt lat="48.69881" lon="7.45581">
        <ele>226.8</ele>
        <time>2020-06-28T15:43:31Z</time>
      </trkpt>
      <trkpt lat="48.6988" lon="7.45575">
        <ele>226.8</ele>
        <time>2020-06-28T15:43:32Z</time>
      </trkpt>
      <trkpt lat="48.69879" lon="7.45569">
        <ele>226.9</ele>
        <time>2020-06-28T15:43:33Z</time>
      </trkpt>
      <trkpt lat="48.69878" lon="7.45562">
        <ele>226.9</ele>
        <time>2020-06-28T15:43:34Z</time>
      </trkpt>
      <trkpt lat="48.69877" lon="7.45556">
        <ele>226.9</ele>
        <time>2020-06-28T15:43:35Z</time>
      </trkpt>
      <trkpt lat="48.69876" lon="7.4555">
        <ele>226.9</ele>
        <time>2020-06-28T15:43:36Z</time>
      </trkpt>
      <trkpt lat="48.69874" lon="7.45543">
        <ele>226.9</ele>
        <time>2020-06-28T15:43:37Z</time>
      </trkpt>
      <trkpt lat="48.69873" lon="7.45537">
        <ele>227</ele>
        <time>2020-06-28T15:43:38Z</time>
      </trkpt>
      <trkpt lat="48.69872" lon="7.4553">
        <ele>227</ele>
        <time>2020-06-28T15:43:39Z</time>
      </trkpt>
      <trkpt lat="48.69871" lon="7.45524">
        <ele>227</ele>
        <time>2020-06-28T15:43:40Z</time>
      </trkpt>
      <trkpt lat="48.6987" lon="7.45517">
        <ele>227.1</ele>
        <time>2020-06-28T15:43:41Z</time>
      </trkpt>
      <trkpt lat="48.69869" lon="7.45511">
        <ele>227.1</ele>
        <time>2020-06-28T15:43:42Z</time>
      </trkpt>
      <trkpt lat="48.69869" lon="7.45504">
        <ele>227.1</ele>
        <time>2020-06-28T15:43:43Z</time>
      </trkpt>
      <trkpt lat="48.69868" lon="7.45497">
        <ele>227.1</ele>
        <time>2020-06-28T15:43:44Z</time>
      </trkpt>
      <trkpt lat="48.69868" lon="7.4549">
        <ele>227.2</ele>
        <time>2020-06-28T15:43:45Z</time>
      </trkpt>
      <trkpt lat="48.69868" lon="7.45484">
        <ele>227.2</ele>
        <time>2020-06-28T15:43:46Z</time>
      </trkpt>
      <trkpt lat="48.69867" lon="7.45477">
        <ele>227.2</ele>
        <time>2020-06-28T15:43:47Z</time>
      </trkpt>
      <trkpt lat="48.69866" lon="7.45471">
        <ele>227.2</ele>
        <time>2020-06-28T15:43:48Z</time>
      </trkpt>
      <trkpt lat="48.69866" lon="7.45464">
        <ele>227.3</ele>
        <time>2020-06-28T15:43:49Z</time>
      </trkpt>
      <trkpt lat="48.69865" lon="7.45457">
        <ele>227.3</ele>
        <time>2020-06-28T15:43:50Z</time>
      </trkpt>
      <trkpt lat="48.69864" lon="7.45451">
        <ele>227.4</ele>
        <time>2020-06-28T15:43:51Z</time>
      </trkpt>
      <trkpt lat="48.69863" lon="7.45444">
        <ele>227.4</ele>
        <time>2020-06-28T15:43:52Z</time>
      </trkpt>
      <trkpt lat="48.69863" lon="7.45438">
        <ele>227.5</ele>
        <time>2020-06-28T15:43:53Z</time>
      </trkpt>
      <trkpt lat="48.69862" lon="7.45431">
        <ele>227.5</ele>
        <time>2020-06-28T15:43:54Z</time>
      </trkpt>
      <trkpt lat="48.69859" lon="7.45425">
        <ele>227.6</ele>
        <time>2020-06-28T15:43:55Z</time>
      </trkpt>
      <trkpt lat="48.69858" lon="7.45419">
        <ele>227.6</ele>
        <time>2020-06-28T15:43:56Z</time>
      </trkpt>
      <trkpt lat="48.69858" lon="7.45412">
        <ele>227.7</ele>
        <time>2020-06-28T15:43:57Z</time>
      </trkpt>
      <trkpt lat="48.69857" lon="7.45405">
        <ele>227.7</ele>
        <time>2020-06-28T15:43:58Z</time>
      </trkpt>
      <trkpt lat="48.69857" lon="7.45399">
        <ele>227.7</ele>
        <time>2020-06-28T15:43:59Z</time>
      </trkpt>
      <trkpt lat="48.69856" lon="7.45392">
        <ele>227.8</ele>
        <time>2020-06-28T15:44:00Z</time>
      </trkpt>
      <trkpt lat="48.69855" lon="7.45385">
        <ele>227.8</ele>
        <time>2020-06-28T15:44:01Z</time>
      </trkpt>
      <trkpt lat="48.69854" lon="7.45379">
        <ele>227.8</ele>
        <time>2020-06-28T15:44:02Z</time>
      </trkpt>
      <trkpt lat="48.69853" lon="7.45372">
        <ele>227.9</ele>
        <time>2020-06-28T15:44:03Z</time>
      </trkpt>
      <trkpt lat="48.69852" lon="7.45365">
        <ele>227.9</ele>
        <time>2020-06-28T15:44:04Z</time>
      </trkpt>
      <trkpt lat="48.69851" lon="7.45358">
        <ele>228</ele>
        <time>2020-06-28T15:44:05Z</time>
      </trkpt>
      <trkpt lat="48.69851" lon="7.45352">
        <ele>228</ele>
        <time>2020-06-28T15:44:06Z</time>
      </trkpt>
      <trkpt lat="48.6985" lon="7.45344">
        <ele>228</ele>
        <time>2020-06-28T15:44:07Z</time>
      </trkpt>
      <trkpt lat="48.69849" lon="7.45337">
        <ele>228.1</ele>
        <time>2020-06-28T15:44:08Z</time>
      </trkpt>
      <trkpt lat="48.69849" lon="7.4533">
        <ele>228.1</ele>
        <time>2020-06-28T15:44:09Z</time>
      </trkpt>
      <trkpt lat="48.69847" lon="7.45321">
        <ele>228.2</ele>
        <time>2020-06-28T15:44:10Z</time>
      </trkpt>
      <trkpt lat="48.69847" lon="7.45314">
        <ele>228.2</ele>
        <time>2020-06-28T15:44:11Z</time>
      </trkpt>
      <trkpt lat="48.69845" lon="7.45308">
        <ele>228.2</ele>
        <time>2020-06-28T15:44:12Z</time>
      </trkpt>
      <trkpt lat="48.69844" lon="7.45301">
        <ele>228.1</ele>
        <time>2020-06-28T15:44:13Z</time>
      </trkpt>
      <trkpt lat="48.69843" lon="7.45294">
        <ele>228.1</ele>
        <time>2020-06-28T15:44:14Z</time>
      </trkpt>
      <trkpt lat="48.69842" lon="7.45286">
        <ele>228.1</ele>
        <time>2020-06-28T15:44:15Z</time>
      </trkpt>
      <trkpt lat="48.69841" lon="7.45278">
        <ele>228.1</ele>
        <time>2020-06-28T15:44:16Z</time>
      </trkpt>
      <trkpt lat="48.6984" lon="7.45271">
        <ele>228.1</ele>
        <time>2020-06-28T15:44:17Z</time>
      </trkpt>
      <trkpt lat="48.69839" lon="7.45263">
        <ele>228.1</ele>
        <time>2020-06-28T15:44:18Z</time>
      </trkpt>
      <trkpt lat="48.69838" lon="7.45255">
        <ele>228.2</ele>
        <time>2020-06-28T15:44:19Z</time>
      </trkpt>
      <trkpt lat="48.69836" lon="7.45246">
        <ele>228.2</ele>
        <time>2020-06-28T15:44:20Z</time>
      </trkpt>
      <trkpt lat="48.69835" lon="7.45237">
        <ele>228.2</ele>
        <time>2020-06-28T15:44:21Z</time>
      </trkpt>
      <trkpt lat="48.69834" lon="7.4523">
        <ele>228.2</ele>
        <time>2020-06-28T15:44:22Z</time>
      </trkpt>
      <trkpt lat="48.69832" lon="7.45223">
        <ele>228.1</ele>
        <time>2020-06-28T15:44:23Z</time>
      </trkpt>
      <trkpt lat="48.69831" lon="7.45215">
        <ele>228.1</ele>
        <time>2020-06-28T15:44:24Z</time>
      </trkpt>
      <trkpt lat="48.6983" lon="7.45207">
        <ele>228.1</ele>
        <time>2020-06-28T15:44:25Z</time>
      </trkpt>
      <trkpt lat="48.69829" lon="7.45199">
        <ele>228.1</ele>
        <time>2020-06-28T15:44:26Z</time>
      </trkpt>
      <trkpt lat="48.69827" lon="7.45192">
        <ele>228.1</ele>
        <time>2020-06-28T15:44:27Z</time>
      </trkpt>
      <trkpt lat="48.69826" lon="7.45184">
        <ele>228.1</ele>
        <time>2020-06-28T15:44:28Z</time>
      </trkpt>
      <trkpt lat="48.69825" lon="7.45175">
        <ele>228.2</ele>
        <time>2020-06-28T15:44:29Z</time>
      </trkpt>
      <trkpt lat="48.69824" lon="7.45167">
        <ele>228.2</ele>
        <time>2020-06-28T15:44:30Z</time>
      </trkpt>
      <trkpt lat="48.69823" lon="7.45159">
        <ele>228.2</ele>
        <time>2020-06-28T15:44:31Z</time>
      </trkpt>
      <trkpt lat="48.69822" lon="7.4515">
        <ele>228.2</ele>
        <time>2020-06-28T15:44:32Z</time>
      </trkpt>
      <trkpt lat="48.69821" lon="7.45142">
        <ele>228.2</ele>
        <time>2020-06-28T15:44:33Z</time>
      </trkpt>
      <trkpt lat="48.6982" lon="7.45134">
        <ele>228.2</ele>
        <time>2020-06-28T15:44:34Z</time>
      </trkpt>
      <trkpt lat="48.69818" lon="7.45126">
        <ele>228.2</ele>
        <time>2020-06-28T15:44:35Z</time>
      </trkpt>
      <trkpt lat="48.69818" lon="7.45119">
        <ele>228.2</ele>
        <time>2020-06-28T15:44:36Z</time>
      </trkpt>
      <trkpt lat="48.69817" lon="7.45111">
        <ele>228.1</ele>
        <time>2020-06-28T15:44:37Z</time>
      </trkpt>
      <trkpt lat="48.69815" lon="7.45103">
        <ele>228.1</ele>
        <time>2020-06-28T15:44:38Z</time>
      </trkpt>
      <trkpt lat="48.69814" lon="7.45095">
        <ele>228.1</ele>
        <time>2020-06-28T15:44:39Z</time>
      </trkpt>
      <trkpt lat="48.69813" lon="7.45087">
        <ele>228</ele>
        <time>2020-06-28T15:44:40Z</time>
      </trkpt>
      <trkpt lat="48.69812" lon="7.45079">
        <ele>228</ele>
        <time>2020-06-28T15:44:41Z</time>
      </trkpt>
      <trkpt lat="48.69811" lon="7.45071">
        <ele>228</ele>
        <time>2020-06-28T15:44:42Z</time>
      </trkpt>
      <trkpt lat="48.69811" lon="7.45062">
        <ele>228</ele>
        <time>2020-06-28T15:44:43Z</time>
      </trkpt>
      <trkpt lat="48.69812" lon="7.45055">
        <ele>227.9</ele>
        <time>2020-06-28T15:44:44Z</time>
      </trkpt>
      <trkpt lat="48.69812" lon="7.45047">
        <ele>227.8</ele>
        <time>2020-06-28T15:44:45Z</time>
      </trkpt>
      <trkpt lat="48.69813" lon="7.45038">
        <ele>227.8</ele>
        <time>2020-06-28T15:44:46Z</time>
      </trkpt>
      <trkpt lat="48.69814" lon="7.45029">
        <ele>227.7</ele>
        <time>2020-06-28T15:44:47Z</time>
      </trkpt>
      <trkpt lat="48.69815" lon="7.45019">
        <ele>227.6</ele>
        <time>2020-06-28T15:44:48Z</time>
      </trkpt>
      <trkpt lat="48.69818" lon="7.45011">
        <ele>227.6</ele>
        <time>2020-06-28T15:44:49Z</time>
      </trkpt>
      <trkpt lat="48.69819" lon="7.45002">
        <ele>227.6</ele>
        <time>2020-06-28T15:44:50Z</time>
      </trkpt>
      <trkpt lat="48.6982" lon="7.44994">
        <ele>227.6</ele>
        <time>2020-06-28T15:44:51Z</time>
      </trkpt>
      <trkpt lat="48.69822" lon="7.44986">
        <ele>227.6</ele>
        <time>2020-06-28T15:44:52Z</time>
      </trkpt>
      <trkpt lat="48.69823" lon="7.44978">
        <ele>227.6</ele>
        <time>2020-06-28T15:44:53Z</time>
      </trkpt>
      <trkpt lat="48.69824" lon="7.44969">
        <ele>227.6</ele>
        <time>2020-06-28T15:44:54Z</time>
      </trkpt>
      <trkpt lat="48.69824" lon="7.44962">
        <ele>227.6</ele>
        <time>2020-06-28T15:44:55Z</time>
      </trkpt>
      <trkpt lat="48.69825" lon="7.44953">
        <ele>227.7</ele>
        <time>2020-06-28T15:44:56Z</time>
      </trkpt>
      <trkpt lat="48.69826" lon="7.44946">
        <ele>227.7</ele>
        <time>2020-06-28T15:44:57Z</time>
      </trkpt>
      <trkpt lat="48.69827" lon="7.44938">
        <ele>227.8</ele>
        <time>2020-06-28T15:44:58Z</time>
      </trkpt>
      <trkpt lat="48.69828" lon="7.4493">
        <ele>227.9</ele>
        <time>2020-06-28T15:44:59Z</time>
      </trkpt>
      <trkpt lat="48.69829" lon="7.4492">
        <ele>228</ele>
        <time>2020-06-28T15:45:00Z</time>
      </trkpt>
      <trkpt lat="48.69831" lon="7.44912">
        <ele>228.1</ele>
        <time>2020-06-28T15:45:01Z</time>
      </trkpt>
      <trkpt lat="48.69832" lon="7.44904">
        <ele>228.2</ele>
        <time>2020-06-28T15:45:02Z</time>
      </trkpt>
      <trkpt lat="48.69832" lon="7.44896">
        <ele>228.3</ele>
        <time>2020-06-28T15:45:03Z</time>
      </trkpt>
      <trkpt lat="48.69833" lon="7.44888">
        <ele>228.4</ele>
        <time>2020-06-28T15:45:04Z</time>
      </trkpt>
      <trkpt lat="48.69834" lon="7.44881">
        <ele>228.5</ele>
        <time>2020-06-28T15:45:05Z</time>
      </trkpt>
      <trkpt lat="48.69835" lon="7.44873">
        <ele>228.6</ele>
        <time>2020-06-28T15:45:06Z</time>
      </trkpt>
      <trkpt lat="48.69836" lon="7.44866">
        <ele>228.7</ele>
        <time>2020-06-28T15:45:07Z</time>
      </trkpt>
      <trkpt lat="48.69837" lon="7.44859">
        <ele>228.7</ele>
        <time>2020-06-28T15:45:08Z</time>
      </trkpt>
      <trkpt lat="48.69838" lon="7.44853">
        <ele>228.7</ele>
        <time>2020-06-28T15:45:09Z</time>
      </trkpt>
      <trkpt lat="48.69839" lon="7.44845">
        <ele>228.7</ele>
        <time>2020-06-28T15:45:10Z</time>
      </trkpt>
      <trkpt lat="48.69839" lon="7.44838">
        <ele>228.7</ele>
        <time>2020-06-28T15:45:11Z</time>
      </trkpt>
      <trkpt lat="48.69839" lon="7.4483">
        <ele>228.8</ele>
        <time>2020-06-28T15:45:12Z</time>
      </trkpt>
      <trkpt lat="48.6984" lon="7.44823">
        <ele>228.8</ele>
        <time>2020-06-28T15:45:13Z</time>
      </trkpt>
      <trkpt lat="48.69841" lon="7.44816">
        <ele>228.9</ele>
        <time>2020-06-28T15:45:14Z</time>
      </trkpt>
      <trkpt lat="48.69841" lon="7.44809">
        <ele>229</ele>
        <time>2020-06-28T15:45:15Z</time>
      </trkpt>
      <trkpt lat="48.69842" lon="7.44802">
        <ele>229.1</ele>
        <time>2020-06-28T15:45:16Z</time>
      </trkpt>
      <trkpt lat="48.69844" lon="7.44794">
        <ele>229.3</ele>
        <time>2020-06-28T15:45:17Z</time>
      </trkpt>
      <trkpt lat="48.69845" lon="7.44786">
        <ele>229.5</ele>
        <time>2020-06-28T15:45:18Z</time>
      </trkpt>
      <trkpt lat="48.69846" lon="7.44778">
        <ele>229.7</ele>
        <time>2020-06-28T15:45:19Z</time>
      </trkpt>
      <trkpt lat="48.69846" lon="7.44772">
        <ele>229.8</ele>
        <time>2020-06-28T15:45:20Z</time>
      </trkpt>
      <trkpt lat="48.69847" lon="7.44766">
        <ele>230</ele>
        <time>2020-06-28T15:45:21Z</time>
      </trkpt>
      <trkpt lat="48.69848" lon="7.4476">
        <ele>230.1</ele>
        <time>2020-06-28T15:45:22Z</time>
      </trkpt>
      <trkpt lat="48.69849" lon="7.44754">
        <ele>230.3</ele>
        <time>2020-06-28T15:45:23Z</time>
      </trkpt>
      <trkpt lat="48.6985" lon="7.44749">
        <ele>230.4</ele>
        <time>2020-06-28T15:45:24Z</time>
      </trkpt>
      <trkpt lat="48.69851" lon="7.44743">
        <ele>230.6</ele>
        <time>2020-06-28T15:45:25Z</time>
      </trkpt>
      <trkpt lat="48.69852" lon="7.44737">
        <ele>230.8</ele>
        <time>2020-06-28T15:45:26Z</time>
      </trkpt>
      <trkpt lat="48.69852" lon="7.4473">
        <ele>231</ele>
        <time>2020-06-28T15:45:27Z</time>
      </trkpt>
      <trkpt lat="48.69853" lon="7.44723">
        <ele>231.1</ele>
        <time>2020-06-28T15:45:28Z</time>
      </trkpt>
      <trkpt lat="48.69854" lon="7.44717">
        <ele>231.2</ele>
        <time>2020-06-28T15:45:29Z</time>
      </trkpt>
      <trkpt lat="48.69855" lon="7.44709">
        <ele>231.4</ele>
        <time>2020-06-28T15:45:30Z</time>
      </trkpt>
      <trkpt lat="48.69855" lon="7.44702">
        <ele>231.5</ele>
        <time>2020-06-28T15:45:31Z</time>
      </trkpt>
      <trkpt lat="48.69856" lon="7.44696">
        <ele>231.6</ele>
        <time>2020-06-28T15:45:32Z</time>
      </trkpt>
      <trkpt lat="48.69857" lon="7.44689">
        <ele>231.8</ele>
        <time>2020-06-28T15:45:33Z</time>
      </trkpt>
      <trkpt lat="48.69858" lon="7.44683">
        <ele>231.9</ele>
        <time>2020-06-28T15:45:34Z</time>
      </trkpt>
      <trkpt lat="48.69859" lon="7.44677">
        <ele>232</ele>
        <time>2020-06-28T15:45:35Z</time>
      </trkpt>
      <trkpt lat="48.69859" lon="7.44671">
        <ele>232.1</ele>
        <time>2020-06-28T15:45:36Z</time>
      </trkpt>
      <trkpt lat="48.6986" lon="7.44665">
        <ele>232.3</ele>
        <time>2020-06-28T15:45:37Z</time>
      </trkpt>
      <trkpt lat="48.6986" lon="7.44658">
        <ele>232.5</ele>
        <time>2020-06-28T15:45:38Z</time>
      </trkpt>
      <trkpt lat="48.69861" lon="7.44651">
        <ele>232.6</ele>
        <time>2020-06-28T15:45:39Z</time>
      </trkpt>
      <trkpt lat="48.69861" lon="7.44644">
        <ele>232.8</ele>
        <time>2020-06-28T15:45:40Z</time>
      </trkpt>
      <trkpt lat="48.69861" lon="7.44637">
        <ele>233</ele>
        <time>2020-06-28T15:45:41Z</time>
      </trkpt>
      <trkpt lat="48.69861" lon="7.44631">
        <ele>233.1</ele>
        <time>2020-06-28T15:45:42Z</time>
      </trkpt>
      <trkpt lat="48.69862" lon="7.44624">
        <ele>233.3</ele>
        <time>2020-06-28T15:45:43Z</time>
      </trkpt>
      <trkpt lat="48.69863" lon="7.44618">
        <ele>233.4</ele>
        <time>2020-06-28T15:45:44Z</time>
      </trkpt>
      <trkpt lat="48.69863" lon="7.44611">
        <ele>233.6</ele>
        <time>2020-06-28T15:45:45Z</time>
      </trkpt>
      <trkpt lat="48.69864" lon="7.44605">
        <ele>233.7</ele>
        <time>2020-06-28T15:45:46Z</time>
      </trkpt>
      <trkpt lat="48.69865" lon="7.44598">
        <ele>233.9</ele>
        <time>2020-06-28T15:45:47Z</time>
      </trkpt>
      <trkpt lat="48.69866" lon="7.44591">
        <ele>234</ele>
        <time>2020-06-28T15:45:48Z</time>
      </trkpt>
      <trkpt lat="48.69866" lon="7.44585">
        <ele>234.1</ele>
        <time>2020-06-28T15:45:49Z</time>
      </trkpt>
      <trkpt lat="48.69867" lon="7.44578">
        <ele>234.3</ele>
        <time>2020-06-28T15:45:50Z</time>
      </trkpt>
      <trkpt lat="48.69867" lon="7.44571">
        <ele>234.4</ele>
        <time>2020-06-28T15:45:51Z</time>
      </trkpt>
      <trkpt lat="48.69868" lon="7.44564">
        <ele>234.5</ele>
        <time>2020-06-28T15:45:52Z</time>
      </trkpt>
      <trkpt lat="48.69868" lon="7.44557">
        <ele>234.6</ele>
        <time>2020-06-28T15:45:53Z</time>
      </trkpt>
      <trkpt lat="48.69869" lon="7.44551">
        <ele>234.8</ele>
        <time>2020-06-28T15:45:54Z</time>
      </trkpt>
      <trkpt lat="48.6987" lon="7.44544">
        <ele>234.9</ele>
        <time>2020-06-28T15:45:55Z</time>
      </trkpt>
      <trkpt lat="48.69871" lon="7.44537">
        <ele>235</ele>
        <time>2020-06-28T15:45:56Z</time>
      </trkpt>
      <trkpt lat="48.69872" lon="7.44531">
        <ele>235.2</ele>
        <time>2020-06-28T15:45:57Z</time>
      </trkpt>
      <trkpt lat="48.69872" lon="7.44525">
        <ele>235.3</ele>
        <time>2020-06-28T15:45:58Z</time>
      </trkpt>
      <trkpt lat="48.69872" lon="7.44519">
        <ele>235.4</ele>
        <time>2020-06-28T15:45:59Z</time>
      </trkpt>
      <trkpt lat="48.69873" lon="7.44513">
        <ele>235.6</ele>
        <time>2020-06-28T15:46:00Z</time>
      </trkpt>
      <trkpt lat="48.69874" lon="7.44507">
        <ele>235.7</ele>
        <time>2020-06-28T15:46:01Z</time>
      </trkpt>
      <trkpt lat="48.69874" lon="7.44501">
        <ele>235.8</ele>
        <time>2020-06-28T15:46:02Z</time>
      </trkpt>
      <trkpt lat="48.69875" lon="7.44496">
        <ele>236</ele>
        <time>2020-06-28T15:46:03Z</time>
      </trkpt>
      <trkpt lat="48.69875" lon="7.4449">
        <ele>236.1</ele>
        <time>2020-06-28T15:46:04Z</time>
      </trkpt>
      <trkpt lat="48.69876" lon="7.44485">
        <ele>236.2</ele>
        <time>2020-06-28T15:46:05Z</time>
      </trkpt>
      <trkpt lat="48.69877" lon="7.4448">
        <ele>236.4</ele>
        <time>2020-06-28T15:46:06Z</time>
      </trkpt>
      <trkpt lat="48.69878" lon="7.44474">
        <ele>236.5</ele>
        <time>2020-06-28T15:46:07Z</time>
      </trkpt>
      <trkpt lat="48.69878" lon="7.44468">
        <ele>236.6</ele>
        <time>2020-06-28T15:46:08Z</time>
      </trkpt>
      <trkpt lat="48.69879" lon="7.44462">
        <ele>236.8</ele>
        <time>2020-06-28T15:46:09Z</time>
      </trkpt>
      <trkpt lat="48.69879" lon="7.44455">
        <ele>236.9</ele>
        <time>2020-06-28T15:46:10Z</time>
      </trkpt>
      <trkpt lat="48.6988" lon="7.44449">
        <ele>237.1</ele>
        <time>2020-06-28T15:46:11Z</time>
      </trkpt>
      <trkpt lat="48.69881" lon="7.44443">
        <ele>237.2</ele>
        <time>2020-06-28T15:46:12Z</time>
      </trkpt>
      <trkpt lat="48.69881" lon="7.44437">
        <ele>237.4</ele>
        <time>2020-06-28T15:46:13Z</time>
      </trkpt>
      <trkpt lat="48.69881" lon="7.44431">
        <ele>237.5</ele>
        <time>2020-06-28T15:46:14Z</time>
      </trkpt>
      <trkpt lat="48.69882" lon="7.44425">
        <ele>237.7</ele>
        <time>2020-06-28T15:46:15Z</time>
      </trkpt>
      <trkpt lat="48.69882" lon="7.44419">
        <ele>237.9</ele>
        <time>2020-06-28T15:46:16Z</time>
      </trkpt>
      <trkpt lat="48.69883" lon="7.44412">
        <ele>238</ele>
        <time>2020-06-28T15:46:17Z</time>
      </trkpt>
      <trkpt lat="48.69882" lon="7.44407">
        <ele>238.2</ele>
        <time>2020-06-28T15:46:18Z</time>
      </trkpt>
      <trkpt lat="48.69883" lon="7.44402">
        <ele>238.3</ele>
        <time>2020-06-28T15:46:19Z</time>
      </trkpt>
      <trkpt lat="48.69884" lon="7.44396">
        <ele>238.5</ele>
        <time>2020-06-28T15:46:20Z</time>
      </trkpt>
      <trkpt lat="48.69884" lon="7.44391">
        <ele>238.6</ele>
        <time>2020-06-28T15:46:21Z</time>
      </trkpt>
      <trkpt lat="48.69885" lon="7.44385">
        <ele>238.8</ele>
        <time>2020-06-28T15:46:22Z</time>
      </trkpt>
      <trkpt lat="48.69885" lon="7.44378">
        <ele>238.9</ele>
        <time>2020-06-28T15:46:23Z</time>
      </trkpt>
      <trkpt lat="48.69885" lon="7.44373">
        <ele>239</ele>
        <time>2020-06-28T15:46:24Z</time>
      </trkpt>
      <trkpt lat="48.69886" lon="7.44367">
        <ele>239.2</ele>
        <time>2020-06-28T15:46:25Z</time>
      </trkpt>
      <trkpt lat="48.69886" lon="7.44361">
        <ele>239.3</ele>
        <time>2020-06-28T15:46:26Z</time>
      </trkpt>
      <trkpt lat="48.69888" lon="7.44355">
        <ele>239.5</ele>
        <time>2020-06-28T15:46:27Z</time>
      </trkpt>
      <trkpt lat="48.69888" lon="7.4435">
        <ele>239.6</ele>
        <time>2020-06-28T15:46:28Z</time>
      </trkpt>
      <trkpt lat="48.69888" lon="7.44344">
        <ele>239.8</ele>
        <time>2020-06-28T15:46:29Z</time>
      </trkpt>
      <trkpt lat="48.69889" lon="7.44337">
        <ele>239.9</ele>
        <time>2020-06-28T15:46:30Z</time>
      </trkpt>
      <trkpt lat="48.6989" lon="7.44331">
        <ele>240.1</ele>
        <time>2020-06-28T15:46:31Z</time>
      </trkpt>
      <trkpt lat="48.69891" lon="7.44325">
        <ele>240.3</ele>
        <time>2020-06-28T15:46:32Z</time>
      </trkpt>
      <trkpt lat="48.69892" lon="7.44319">
        <ele>240.4</ele>
        <time>2020-06-28T15:46:33Z</time>
      </trkpt>
      <trkpt lat="48.69893" lon="7.44314">
        <ele>240.5</ele>
        <time>2020-06-28T15:46:34Z</time>
      </trkpt>
      <trkpt lat="48.69894" lon="7.44308">
        <ele>240.7</ele>
        <time>2020-06-28T15:46:35Z</time>
      </trkpt>
      <trkpt lat="48.69895" lon="7.44302">
        <ele>240.8</ele>
        <time>2020-06-28T15:46:36Z</time>
      </trkpt>
      <trkpt lat="48.69895" lon="7.44296">
        <ele>241</ele>
        <time>2020-06-28T15:46:37Z</time>
      </trkpt>
      <trkpt lat="48.69896" lon="7.4429">
        <ele>241.1</ele>
        <time>2020-06-28T15:46:38Z</time>
      </trkpt>
      <trkpt lat="48.69897" lon="7.44283">
        <ele>241.2</ele>
        <time>2020-06-28T15:46:39Z</time>
      </trkpt>
      <trkpt lat="48.69897" lon="7.44277">
        <ele>241.4</ele>
        <time>2020-06-28T15:46:40Z</time>
      </trkpt>
      <trkpt lat="48.69898" lon="7.44271">
        <ele>241.5</ele>
        <time>2020-06-28T15:46:41Z</time>
      </trkpt>
      <trkpt lat="48.69898" lon="7.44265">
        <ele>241.6</ele>
        <time>2020-06-28T15:46:42Z</time>
      </trkpt>
      <trkpt lat="48.69899" lon="7.44258">
        <ele>241.7</ele>
        <time>2020-06-28T15:46:43Z</time>
      </trkpt>
      <trkpt lat="48.699" lon="7.44252">
        <ele>241.8</ele>
        <time>2020-06-28T15:46:44Z</time>
      </trkpt>
      <trkpt lat="48.69901" lon="7.44246">
        <ele>241.9</ele>
        <time>2020-06-28T15:46:45Z</time>
      </trkpt>
      <trkpt lat="48.69902" lon="7.44239">
        <ele>242</ele>
        <time>2020-06-28T15:46:46Z</time>
      </trkpt>
      <trkpt lat="48.69904" lon="7.44233">
        <ele>242</ele>
        <time>2020-06-28T15:46:47Z</time>
      </trkpt>
      <trkpt lat="48.69905" lon="7.44226">
        <ele>242.1</ele>
        <time>2020-06-28T15:46:48Z</time>
      </trkpt>
      <trkpt lat="48.69905" lon="7.44219">
        <ele>242.2</ele>
        <time>2020-06-28T15:46:49Z</time>
      </trkpt>
      <trkpt lat="48.69906" lon="7.44212">
        <ele>242.3</ele>
        <time>2020-06-28T15:46:50Z</time>
      </trkpt>
      <trkpt lat="48.69906" lon="7.44206">
        <ele>242.4</ele>
        <time>2020-06-28T15:46:51Z</time>
      </trkpt>
      <trkpt lat="48.69907" lon="7.44199">
        <ele>242.4</ele>
        <time>2020-06-28T15:46:52Z</time>
      </trkpt>
      <trkpt lat="48.69908" lon="7.44192">
        <ele>242.5</ele>
        <time>2020-06-28T15:46:53Z</time>
      </trkpt>
      <trkpt lat="48.69909" lon="7.44186">
        <ele>242.6</ele>
        <time>2020-06-28T15:46:54Z</time>
      </trkpt>
      <trkpt lat="48.69909" lon="7.44178">
        <ele>242.7</ele>
        <time>2020-06-28T15:46:55Z</time>
      </trkpt>
      <trkpt lat="48.69909" lon="7.4417">
        <ele>242.7</ele>
        <time>2020-06-28T15:46:56Z</time>
      </trkpt>
      <trkpt lat="48.6991" lon="7.44163">
        <ele>242.8</ele>
        <time>2020-06-28T15:46:57Z</time>
      </trkpt>
      <trkpt lat="48.69911" lon="7.44157">
        <ele>242.8</ele>
        <time>2020-06-28T15:46:58Z</time>
      </trkpt>
      <trkpt lat="48.69912" lon="7.4415">
        <ele>242.9</ele>
        <time>2020-06-28T15:46:59Z</time>
      </trkpt>
      <trkpt lat="48.69913" lon="7.44144">
        <ele>242.9</ele>
        <time>2020-06-28T15:47:00Z</time>
      </trkpt>
      <trkpt lat="48.69914" lon="7.44137">
        <ele>242.9</ele>
        <time>2020-06-28T15:47:01Z</time>
      </trkpt>
      <trkpt lat="48.69915" lon="7.4413">
        <ele>243</ele>
        <time>2020-06-28T15:47:02Z</time>
      </trkpt>
      <trkpt lat="48.69916" lon="7.44123">
        <ele>243</ele>
        <time>2020-06-28T15:47:03Z</time>
      </trkpt>
      <trkpt lat="48.69917" lon="7.44116">
        <ele>242.9</ele>
        <time>2020-06-28T15:47:04Z</time>
      </trkpt>
      <trkpt lat="48.69918" lon="7.44108">
        <ele>242.9</ele>
        <time>2020-06-28T15:47:05Z</time>
      </trkpt>
      <trkpt lat="48.69919" lon="7.44101">
        <ele>242.8</ele>
        <time>2020-06-28T15:47:06Z</time>
      </trkpt>
      <trkpt lat="48.6992" lon="7.44093">
        <ele>242.7</ele>
        <time>2020-06-28T15:47:07Z</time>
      </trkpt>
      <trkpt lat="48.69921" lon="7.44086">
        <ele>242.6</ele>
        <time>2020-06-28T15:47:08Z</time>
      </trkpt>
      <trkpt lat="48.69921" lon="7.44079">
        <ele>242.5</ele>
        <time>2020-06-28T15:47:09Z</time>
      </trkpt>
      <trkpt lat="48.69921" lon="7.44071">
        <ele>242.4</ele>
        <time>2020-06-28T15:47:10Z</time>
      </trkpt>
      <trkpt lat="48.69923" lon="7.44063">
        <ele>242.3</ele>
        <time>2020-06-28T15:47:11Z</time>
      </trkpt>
      <trkpt lat="48.69924" lon="7.44055">
        <ele>242.1</ele>
        <time>2020-06-28T15:47:12Z</time>
      </trkpt>
      <trkpt lat="48.69925" lon="7.44046">
        <ele>242</ele>
        <time>2020-06-28T15:47:13Z</time>
      </trkpt>
      <trkpt lat="48.69927" lon="7.44039">
        <ele>241.8</ele>
        <time>2020-06-28T15:47:14Z</time>
      </trkpt>
      <trkpt lat="48.69928" lon="7.4403">
        <ele>241.6</ele>
        <time>2020-06-28T15:47:15Z</time>
      </trkpt>
      <trkpt lat="48.69931" lon="7.44021">
        <ele>241.4</ele>
        <time>2020-06-28T15:47:16Z</time>
      </trkpt>
      <trkpt lat="48.69934" lon="7.44014">
        <ele>241.2</ele>
        <time>2020-06-28T15:47:17Z</time>
      </trkpt>
      <trkpt lat="48.69938" lon="7.44006">
        <ele>241</ele>
        <time>2020-06-28T15:47:18Z</time>
      </trkpt>
      <trkpt lat="48.69943" lon="7.43997">
        <ele>240.6</ele>
        <time>2020-06-28T15:47:19Z</time>
      </trkpt>
      <trkpt lat="48.69948" lon="7.4399">
        <ele>240.3</ele>
        <time>2020-06-28T15:47:20Z</time>
      </trkpt>
      <trkpt lat="48.69954" lon="7.43984">
        <ele>240</ele>
        <time>2020-06-28T15:47:21Z</time>
      </trkpt>
      <trkpt lat="48.6996" lon="7.43977">
        <ele>239.7</ele>
        <time>2020-06-28T15:47:22Z</time>
      </trkpt>
      <trkpt lat="48.69967" lon="7.43969">
        <ele>239.3</ele>
        <time>2020-06-28T15:47:23Z</time>
      </trkpt>
      <trkpt lat="48.69974" lon="7.43962">
        <ele>238.9</ele>
        <time>2020-06-28T15:47:24Z</time>
      </trkpt>
      <trkpt lat="48.6998" lon="7.43955">
        <ele>238.7</ele>
        <time>2020-06-28T15:47:25Z</time>
      </trkpt>
      <trkpt lat="48.69986" lon="7.43948">
        <ele>238.4</ele>
        <time>2020-06-28T15:47:26Z</time>
      </trkpt>
      <trkpt lat="48.69992" lon="7.43941">
        <ele>238.2</ele>
        <time>2020-06-28T15:47:27Z</time>
      </trkpt>
      <trkpt lat="48.69998" lon="7.43934">
        <ele>237.9</ele>
        <time>2020-06-28T15:47:28Z</time>
      </trkpt>
      <trkpt lat="48.70004" lon="7.43928">
        <ele>237.7</ele>
        <time>2020-06-28T15:47:29Z</time>
      </trkpt>
      <trkpt lat="48.70009" lon="7.43923">
        <ele>237.5</ele>
        <time>2020-06-28T15:47:30Z</time>
      </trkpt>
      <trkpt lat="48.70014" lon="7.43917">
        <ele>237.3</ele>
        <time>2020-06-28T15:47:31Z</time>
      </trkpt>
      <trkpt lat="48.70019" lon="7.43911">
        <ele>237.1</ele>
        <time>2020-06-28T15:47:32Z</time>
      </trkpt>
      <trkpt lat="48.70025" lon="7.43906">
        <ele>236.8</ele>
        <time>2020-06-28T15:47:33Z</time>
      </trkpt>
      <trkpt lat="48.7003" lon="7.439">
        <ele>236.6</ele>
        <time>2020-06-28T15:47:34Z</time>
      </trkpt>
      <trkpt lat="48.70035" lon="7.43895">
        <ele>236.3</ele>
        <time>2020-06-28T15:47:35Z</time>
      </trkpt>
      <trkpt lat="48.70041" lon="7.43889">
        <ele>236</ele>
        <time>2020-06-28T15:47:36Z</time>
      </trkpt>
      <trkpt lat="48.70046" lon="7.43883">
        <ele>235.6</ele>
        <time>2020-06-28T15:47:37Z</time>
      </trkpt>
      <trkpt lat="48.70051" lon="7.43877">
        <ele>235.3</ele>
        <time>2020-06-28T15:47:38Z</time>
      </trkpt>
      <trkpt lat="48.70057" lon="7.4387">
        <ele>235</ele>
        <time>2020-06-28T15:47:39Z</time>
      </trkpt>
      <trkpt lat="48.70062" lon="7.43864">
        <ele>234.7</ele>
        <time>2020-06-28T15:47:40Z</time>
      </trkpt>
      <trkpt lat="48.70068" lon="7.43857">
        <ele>234.3</ele>
        <time>2020-06-28T15:47:41Z</time>
      </trkpt>
      <trkpt lat="48.70073" lon="7.4385">
        <ele>233.9</ele>
        <time>2020-06-28T15:47:42Z</time>
      </trkpt>
      <trkpt lat="48.70079" lon="7.43843">
        <ele>233.5</ele>
        <time>2020-06-28T15:47:43Z</time>
      </trkpt>
      <trkpt lat="48.70085" lon="7.43837">
        <ele>233.1</ele>
        <time>2020-06-28T15:47:44Z</time>
      </trkpt>
      <trkpt lat="48.70091" lon="7.4383">
        <ele>232.6</ele>
        <time>2020-06-28T15:47:45Z</time>
      </trkpt>
      <trkpt lat="48.70098" lon="7.43823">
        <ele>232.1</ele>
        <time>2020-06-28T15:47:46Z</time>
      </trkpt>
      <trkpt lat="48.70105" lon="7.43816">
        <ele>231.6</ele>
        <time>2020-06-28T15:47:47Z</time>
      </trkpt>
      <trkpt lat="48.70111" lon="7.43808">
        <ele>231</ele>
        <time>2020-06-28T15:47:48Z</time>
      </trkpt>
      <trkpt lat="48.70118" lon="7.438">
        <ele>230.5</ele>
        <time>2020-06-28T15:47:49Z</time>
      </trkpt>
      <trkpt lat="48.70125" lon="7.43793">
        <ele>230</ele>
        <time>2020-06-28T15:47:50Z</time>
      </trkpt>
      <trkpt lat="48.70131" lon="7.43784">
        <ele>229.5</ele>
        <time>2020-06-28T15:47:51Z</time>
      </trkpt>
      <trkpt lat="48.70138" lon="7.43776">
        <ele>229.1</ele>
        <time>2020-06-28T15:47:52Z</time>
      </trkpt>
      <trkpt lat="48.70145" lon="7.43769">
        <ele>228.9</ele>
        <time>2020-06-28T15:47:53Z</time>
      </trkpt>
      <trkpt lat="48.70152" lon="7.43762">
        <ele>228.6</ele>
        <time>2020-06-28T15:47:54Z</time>
      </trkpt>
      <trkpt lat="48.70158" lon="7.43755">
        <ele>228.4</ele>
        <time>2020-06-28T15:47:55Z</time>
      </trkpt>
      <trkpt lat="48.70165" lon="7.43748">
        <ele>228.2</ele>
        <time>2020-06-28T15:47:56Z</time>
      </trkpt>
      <trkpt lat="48.70171" lon="7.43741">
        <ele>228</ele>
        <time>2020-06-28T15:47:57Z</time>
      </trkpt>
      <trkpt lat="48.70176" lon="7.43734">
        <ele>227.9</ele>
        <time>2020-06-28T15:47:58Z</time>
      </trkpt>
      <trkpt lat="48.70182" lon="7.43727">
        <ele>227.7</ele>
        <time>2020-06-28T15:47:59Z</time>
      </trkpt>
      <trkpt lat="48.70188" lon="7.43721">
        <ele>227.6</ele>
        <time>2020-06-28T15:48:00Z</time>
      </trkpt>
      <trkpt lat="48.70193" lon="7.43715">
        <ele>227.5</ele>
        <time>2020-06-28T15:48:01Z</time>
      </trkpt>
      <trkpt lat="48.70199" lon="7.43709">
        <ele>227.4</ele>
        <time>2020-06-28T15:48:02Z</time>
      </trkpt>
      <trkpt lat="48.70205" lon="7.43704">
        <ele>227.3</ele>
        <time>2020-06-28T15:48:03Z</time>
      </trkpt>
      <trkpt lat="48.7021" lon="7.43698">
        <ele>227.3</ele>
        <time>2020-06-28T15:48:04Z</time>
      </trkpt>
      <trkpt lat="48.70215" lon="7.43692">
        <ele>227.3</ele>
        <time>2020-06-28T15:48:05Z</time>
      </trkpt>
      <trkpt lat="48.7022" lon="7.43686">
        <ele>227.4</ele>
        <time>2020-06-28T15:48:06Z</time>
      </trkpt>
      <trkpt lat="48.70226" lon="7.43681">
        <ele>227.5</ele>
        <time>2020-06-28T15:48:07Z</time>
      </trkpt>
      <trkpt lat="48.70231" lon="7.43676">
        <ele>227.6</ele>
        <time>2020-06-28T15:48:08Z</time>
      </trkpt>
      <trkpt lat="48.70236" lon="7.4367">
        <ele>227.7</ele>
        <time>2020-06-28T15:48:09Z</time>
      </trkpt>
      <trkpt lat="48.7024" lon="7.43665">
        <ele>227.8</ele>
        <time>2020-06-28T15:48:10Z</time>
      </trkpt>
      <trkpt lat="48.70245" lon="7.43659">
        <ele>227.9</ele>
        <time>2020-06-28T15:48:11Z</time>
      </trkpt>
      <trkpt lat="48.70249" lon="7.43653">
        <ele>228</ele>
        <time>2020-06-28T15:48:12Z</time>
      </trkpt>
      <trkpt lat="48.70254" lon="7.43649">
        <ele>228.2</ele>
        <time>2020-06-28T15:48:13Z</time>
      </trkpt>
      <trkpt lat="48.70259" lon="7.43643">
        <ele>228.3</ele>
        <time>2020-06-28T15:48:14Z</time>
      </trkpt>
      <trkpt lat="48.70263" lon="7.43638">
        <ele>228.4</ele>
        <time>2020-06-28T15:48:15Z</time>
      </trkpt>
      <trkpt lat="48.70267" lon="7.43632">
        <ele>228.6</ele>
        <time>2020-06-28T15:48:16Z</time>
      </trkpt>
      <trkpt lat="48.70272" lon="7.43626">
        <ele>228.7</ele>
        <time>2020-06-28T15:48:17Z</time>
      </trkpt>
      <trkpt lat="48.70276" lon="7.4362">
        <ele>228.9</ele>
        <time>2020-06-28T15:48:18Z</time>
      </trkpt>
      <trkpt lat="48.70281" lon="7.43615">
        <ele>229</ele>
        <time>2020-06-28T15:48:19Z</time>
      </trkpt>
      <trkpt lat="48.70286" lon="7.4361">
        <ele>229.2</ele>
        <time>2020-06-28T15:48:20Z</time>
      </trkpt>
      <trkpt lat="48.7029" lon="7.43605">
        <ele>229.4</ele>
        <time>2020-06-28T15:48:21Z</time>
      </trkpt>
      <trkpt lat="48.70295" lon="7.436">
        <ele>229.6</ele>
        <time>2020-06-28T15:48:22Z</time>
      </trkpt>
      <trkpt lat="48.70299" lon="7.43596">
        <ele>229.9</ele>
        <time>2020-06-28T15:48:23Z</time>
      </trkpt>
      <trkpt lat="48.70303" lon="7.43593">
        <ele>230.1</ele>
        <time>2020-06-28T15:48:24Z</time>
      </trkpt>
      <trkpt lat="48.70307" lon="7.43589">
        <ele>230.4</ele>
        <time>2020-06-28T15:48:25Z</time>
      </trkpt>
      <trkpt lat="48.70311" lon="7.43586">
        <ele>230.7</ele>
        <time>2020-06-28T15:48:26Z</time>
      </trkpt>
      <trkpt lat="48.70314" lon="7.43582">
        <ele>231</ele>
        <time>2020-06-28T15:48:27Z</time>
      </trkpt>
      <trkpt lat="48.70316" lon="7.43577">
        <ele>231.3</ele>
        <time>2020-06-28T15:48:28Z</time>
      </trkpt>
      <trkpt lat="48.70319" lon="7.43573">
        <ele>231.5</ele>
        <time>2020-06-28T15:48:29Z</time>
      </trkpt>
      <trkpt lat="48.70322" lon="7.4357">
        <ele>231.8</ele>
        <time>2020-06-28T15:48:30Z</time>
      </trkpt>
      <trkpt lat="48.70325" lon="7.43566">
        <ele>232</ele>
        <time>2020-06-28T15:48:31Z</time>
      </trkpt>
      <trkpt lat="48.70328" lon="7.43561">
        <ele>232.3</ele>
        <time>2020-06-28T15:48:32Z</time>
      </trkpt>
      <trkpt lat="48.7033" lon="7.43556">
        <ele>232.6</ele>
        <time>2020-06-28T15:48:33Z</time>
      </trkpt>
      <trkpt lat="48.70333" lon="7.43552">
        <ele>232.8</ele>
        <time>2020-06-28T15:48:34Z</time>
      </trkpt>
      <trkpt lat="48.70335" lon="7.43548">
        <ele>233.1</ele>
        <time>2020-06-28T15:48:35Z</time>
      </trkpt>
      <trkpt lat="48.70338" lon="7.43543">
        <ele>233.3</ele>
        <time>2020-06-28T15:48:36Z</time>
      </trkpt>
      <trkpt lat="48.7034" lon="7.43538">
        <ele>233.6</ele>
        <time>2020-06-28T15:48:37Z</time>
      </trkpt>
      <trkpt lat="48.70343" lon="7.43534">
        <ele>233.9</ele>
        <time>2020-06-28T15:48:38Z</time>
      </trkpt>
      <trkpt lat="48.70346" lon="7.4353">
        <ele>234.1</ele>
        <time>2020-06-28T15:48:39Z</time>
      </trkpt>
      <trkpt lat="48.70349" lon="7.43526">
        <ele>234.4</ele>
        <time>2020-06-28T15:48:40Z</time>
      </trkpt>
      <trkpt lat="48.70351" lon="7.43523">
        <ele>234.6</ele>
        <time>2020-06-28T15:48:41Z</time>
      </trkpt>
      <trkpt lat="48.70354" lon="7.43519">
        <ele>234.8</ele>
        <time>2020-06-28T15:48:42Z</time>
      </trkpt>
      <trkpt lat="48.70356" lon="7.43516">
        <ele>235.1</ele>
        <time>2020-06-28T15:48:43Z</time>
      </trkpt>
      <trkpt lat="48.70359" lon="7.43514">
        <ele>235.3</ele>
        <time>2020-06-28T15:48:44Z</time>
      </trkpt>
      <trkpt lat="48.70362" lon="7.43511">
        <ele>235.5</ele>
        <time>2020-06-28T15:48:45Z</time>
      </trkpt>
      <trkpt lat="48.70365" lon="7.43508">
        <ele>235.8</ele>
        <time>2020-06-28T15:48:46Z</time>
      </trkpt>
      <trkpt lat="48.70369" lon="7.43504">
        <ele>236.1</ele>
        <time>2020-06-28T15:48:47Z</time>
      </trkpt>
      <trkpt lat="48.70373" lon="7.43502">
        <ele>236.4</ele>
        <time>2020-06-28T15:48:48Z</time>
      </trkpt>
      <trkpt lat="48.70376" lon="7.43499">
        <ele>236.6</ele>
        <time>2020-06-28T15:48:49Z</time>
      </trkpt>
      <trkpt lat="48.70379" lon="7.43498">
        <ele>236.8</ele>
        <time>2020-06-28T15:48:50Z</time>
      </trkpt>
      <trkpt lat="48.70382" lon="7.43498">
        <ele>237</ele>
        <time>2020-06-28T15:48:51Z</time>
      </trkpt>
      <trkpt lat="48.70386" lon="7.43495">
        <ele>237.2</ele>
        <time>2020-06-28T15:48:52Z</time>
      </trkpt>
      <trkpt lat="48.70388" lon="7.43493">
        <ele>237.3</ele>
        <time>2020-06-28T15:48:53Z</time>
      </trkpt>
      <trkpt lat="48.7039" lon="7.43492">
        <ele>237.6</ele>
        <time>2020-06-28T15:48:54Z</time>
      </trkpt>
      <trkpt lat="48.70395" lon="7.4349">
        <ele>237.9</ele>
        <time>2020-06-28T15:48:55Z</time>
      </trkpt>
      <trkpt lat="48.70396" lon="7.43489">
        <ele>237.9</ele>
        <time>2020-06-28T15:48:56Z</time>
      </trkpt>
      <trkpt lat="48.70399" lon="7.43486">
        <ele>238.1</ele>
        <time>2020-06-28T15:48:57Z</time>
      </trkpt>
      <trkpt lat="48.70401" lon="7.43485">
        <ele>238.2</ele>
        <time>2020-06-28T15:48:58Z</time>
      </trkpt>
      <trkpt lat="48.70404" lon="7.43483">
        <ele>238.4</ele>
        <time>2020-06-28T15:48:59Z</time>
      </trkpt>
      <trkpt lat="48.70408" lon="7.4348">
        <ele>238.7</ele>
        <time>2020-06-28T15:49:00Z</time>
      </trkpt>
      <trkpt lat="48.70411" lon="7.43478">
        <ele>238.9</ele>
        <time>2020-06-28T15:49:01Z</time>
      </trkpt>
      <trkpt lat="48.70414" lon="7.43476">
        <ele>239.1</ele>
        <time>2020-06-28T15:49:02Z</time>
      </trkpt>
      <trkpt lat="48.70417" lon="7.43474">
        <ele>239.2</ele>
        <time>2020-06-28T15:49:03Z</time>
      </trkpt>
      <trkpt lat="48.70418" lon="7.43473">
        <ele>239.3</ele>
        <time>2020-06-28T15:49:04Z</time>
      </trkpt>
      <trkpt lat="48.70422" lon="7.43471">
        <ele>239.5</ele>
        <time>2020-06-28T15:49:05Z</time>
      </trkpt>
      <trkpt lat="48.70423" lon="7.4347">
        <ele>239.6</ele>
        <time>2020-06-28T15:49:06Z</time>
      </trkpt>
      <trkpt lat="48.70427" lon="7.43469">
        <ele>239.8</ele>
        <time>2020-06-28T15:49:07Z</time>
      </trkpt>
      <trkpt lat="48.7043" lon="7.43468">
        <ele>240</ele>
        <time>2020-06-28T15:49:08Z</time>
      </trkpt>
      <trkpt lat="48.70434" lon="7.43466">
        <ele>240.2</ele>
        <time>2020-06-28T15:49:09Z</time>
      </trkpt>
      <trkpt lat="48.70435" lon="7.43466">
        <ele>240.2</ele>
        <time>2020-06-28T15:49:10Z</time>
      </trkpt>
      <trkpt lat="48.70438" lon="7.43464">
        <ele>240.4</ele>
        <time>2020-06-28T15:49:11Z</time>
      </trkpt>
      <trkpt lat="48.70441" lon="7.43462">
        <ele>240.6</ele>
        <time>2020-06-28T15:49:12Z</time>
      </trkpt>
      <trkpt lat="48.70443" lon="7.43461">
        <ele>240.6</ele>
        <time>2020-06-28T15:49:13Z</time>
      </trkpt>
      <trkpt lat="48.70446" lon="7.4346">
        <ele>240.8</ele>
        <time>2020-06-28T15:49:14Z</time>
      </trkpt>
      <trkpt lat="48.70447" lon="7.43459">
        <ele>240.8</ele>
        <time>2020-06-28T15:49:15Z</time>
      </trkpt>
      <trkpt lat="48.7045" lon="7.43458">
        <ele>240.9</ele>
        <time>2020-06-28T15:49:16Z</time>
      </trkpt>
      <trkpt lat="48.70453" lon="7.43456">
        <ele>241.1</ele>
        <time>2020-06-28T15:49:17Z</time>
      </trkpt>
      <trkpt lat="48.70456" lon="7.43455">
        <ele>241.2</ele>
        <time>2020-06-28T15:49:18Z</time>
      </trkpt>
      <trkpt lat="48.70459" lon="7.43453">
        <ele>241.3</ele>
        <time>2020-06-28T15:49:19Z</time>
      </trkpt>
      <trkpt lat="48.70462" lon="7.43453">
        <ele>241.4</ele>
        <time>2020-06-28T15:49:20Z</time>
      </trkpt>
      <trkpt lat="48.70465" lon="7.43451">
        <ele>241.5</ele>
        <time>2020-06-28T15:49:21Z</time>
      </trkpt>
      <trkpt lat="48.70468" lon="7.43448">
        <ele>241.7</ele>
        <time>2020-06-28T15:49:22Z</time>
      </trkpt>
      <trkpt lat="48.70469" lon="7.43447">
        <ele>241.7</ele>
        <time>2020-06-28T15:49:23Z</time>
      </trkpt>
      <trkpt lat="48.70472" lon="7.43445">
        <ele>241.8</ele>
        <time>2020-06-28T15:49:24Z</time>
      </trkpt>
      <trkpt lat="48.70474" lon="7.43443">
        <ele>241.9</ele>
        <time>2020-06-28T15:49:25Z</time>
      </trkpt>
      <trkpt lat="48.70477" lon="7.43441">
        <ele>242</ele>
        <time>2020-06-28T15:49:26Z</time>
      </trkpt>
      <trkpt lat="48.7048" lon="7.43438">
        <ele>242.1</ele>
        <time>2020-06-28T15:49:27Z</time>
      </trkpt>
      <trkpt lat="48.70483" lon="7.43436">
        <ele>242.2</ele>
        <time>2020-06-28T15:49:28Z</time>
      </trkpt>
      <trkpt lat="48.70486" lon="7.43434">
        <ele>242.4</ele>
        <time>2020-06-28T15:49:29Z</time>
      </trkpt>
      <trkpt lat="48.70487" lon="7.43433">
        <ele>242.4</ele>
        <time>2020-06-28T15:49:30Z</time>
      </trkpt>
      <trkpt lat="48.7049" lon="7.43432">
        <ele>242.5</ele>
        <time>2020-06-28T15:49:31Z</time>
      </trkpt>
      <trkpt lat="48.70494" lon="7.4343">
        <ele>242.6</ele>
        <time>2020-06-28T15:49:32Z</time>
      </trkpt>
      <trkpt lat="48.70496" lon="7.43429">
        <ele>242.7</ele>
        <time>2020-06-28T15:49:33Z</time>
      </trkpt>
      <trkpt lat="48.70498" lon="7.43427">
        <ele>242.8</ele>
        <time>2020-06-28T15:49:34Z</time>
      </trkpt>
      <trkpt lat="48.70501" lon="7.43425">
        <ele>242.9</ele>
        <time>2020-06-28T15:49:35Z</time>
      </trkpt>
      <trkpt lat="48.70505" lon="7.43423">
        <ele>243</ele>
        <time>2020-06-28T15:49:36Z</time>
      </trkpt>
      <trkpt lat="48.70509" lon="7.4342">
        <ele>243.1</ele>
        <time>2020-06-28T15:49:37Z</time>
      </trkpt>
      <trkpt lat="48.7051" lon="7.43419">
        <ele>243.1</ele>
        <time>2020-06-28T15:49:38Z</time>
      </trkpt>
      <trkpt lat="48.70513" lon="7.43417">
        <ele>243.2</ele>
        <time>2020-06-28T15:49:39Z</time>
      </trkpt>
      <trkpt lat="48.70515" lon="7.43414">
        <ele>243.3</ele>
        <time>2020-06-28T15:49:40Z</time>
      </trkpt>
      <trkpt lat="48.70518" lon="7.43411">
        <ele>243.4</ele>
        <time>2020-06-28T15:49:41Z</time>
      </trkpt>
      <trkpt lat="48.7052" lon="7.43409">
        <ele>243.4</ele>
        <time>2020-06-28T15:49:42Z</time>
      </trkpt>
      <trkpt lat="48.70523" lon="7.43406">
        <ele>243.5</ele>
        <time>2020-06-28T15:49:43Z</time>
      </trkpt>
      <trkpt lat="48.70526" lon="7.43403">
        <ele>243.6</ele>
        <time>2020-06-28T15:49:44Z</time>
      </trkpt>
      <trkpt lat="48.70529" lon="7.434">
        <ele>243.7</ele>
        <time>2020-06-28T15:49:45Z</time>
      </trkpt>
      <trkpt lat="48.70533" lon="7.43397">
        <ele>243.9</ele>
        <time>2020-06-28T15:49:46Z</time>
      </trkpt>
      <trkpt lat="48.70536" lon="7.43396">
        <ele>244</ele>
        <time>2020-06-28T15:49:47Z</time>
      </trkpt>
      <trkpt lat="48.7054" lon="7.43393">
        <ele>244.1</ele>
        <time>2020-06-28T15:49:48Z</time>
      </trkpt>
      <trkpt lat="48.70541" lon="7.43392">
        <ele>244.2</ele>
        <time>2020-06-28T15:49:49Z</time>
      </trkpt>
      <trkpt lat="48.70545" lon="7.43391">
        <ele>244.3</ele>
        <time>2020-06-28T15:49:50Z</time>
      </trkpt>
      <trkpt lat="48.70547" lon="7.43391">
        <ele>244.4</ele>
        <time>2020-06-28T15:49:51Z</time>
      </trkpt>
      <trkpt lat="48.70551" lon="7.4339">
        <ele>244.5</ele>
        <time>2020-06-28T15:49:52Z</time>
      </trkpt>
      <trkpt lat="48.70553" lon="7.4339">
        <ele>244.6</ele>
        <time>2020-06-28T15:49:53Z</time>
      </trkpt>
      <trkpt lat="48.70557" lon="7.43387">
        <ele>244.8</ele>
        <time>2020-06-28T15:49:54Z</time>
      </trkpt>
      <trkpt lat="48.7056" lon="7.43385">
        <ele>244.9</ele>
        <time>2020-06-28T15:49:55Z</time>
      </trkpt>
      <trkpt lat="48.70563" lon="7.43383">
        <ele>245.1</ele>
        <time>2020-06-28T15:49:56Z</time>
      </trkpt>
      <trkpt lat="48.70566" lon="7.43381">
        <ele>245.2</ele>
        <time>2020-06-28T15:49:57Z</time>
      </trkpt>
      <trkpt lat="48.70569" lon="7.4338">
        <ele>245.3</ele>
        <time>2020-06-28T15:49:58Z</time>
      </trkpt>
      <trkpt lat="48.70571" lon="7.43378">
        <ele>245.4</ele>
        <time>2020-06-28T15:49:59Z</time>
      </trkpt>
      <trkpt lat="48.70574" lon="7.43376">
        <ele>245.6</ele>
        <time>2020-06-28T15:50:00Z</time>
      </trkpt>
      <trkpt lat="48.70577" lon="7.43376">
        <ele>245.7</ele>
        <time>2020-06-28T15:50:01Z</time>
      </trkpt>
      <trkpt lat="48.7058" lon="7.43374">
        <ele>245.8</ele>
        <time>2020-06-28T15:50:02Z</time>
      </trkpt>
      <trkpt lat="48.70582" lon="7.43374">
        <ele>245.9</ele>
        <time>2020-06-28T15:50:03Z</time>
      </trkpt>
      <trkpt lat="48.70586" lon="7.43373">
        <ele>246.1</ele>
        <time>2020-06-28T15:50:04Z</time>
      </trkpt>
      <trkpt lat="48.70587" lon="7.43373">
        <ele>246.2</ele>
        <time>2020-06-28T15:50:05Z</time>
      </trkpt>
      <trkpt lat="48.7059" lon="7.43371">
        <ele>246.3</ele>
        <time>2020-06-28T15:50:06Z</time>
      </trkpt>
      <trkpt lat="48.70593" lon="7.43369">
        <ele>246.5</ele>
        <time>2020-06-28T15:50:07Z</time>
      </trkpt>
      <trkpt lat="48.70596" lon="7.43367">
        <ele>246.6</ele>
        <time>2020-06-28T15:50:08Z</time>
      </trkpt>
      <trkpt lat="48.70599" lon="7.43366">
        <ele>246.8</ele>
        <time>2020-06-28T15:50:09Z</time>
      </trkpt>
      <trkpt lat="48.70602" lon="7.43366">
        <ele>246.9</ele>
        <time>2020-06-28T15:50:10Z</time>
      </trkpt>
      <trkpt lat="48.70605" lon="7.43364">
        <ele>247.1</ele>
        <time>2020-06-28T15:50:11Z</time>
      </trkpt>
      <trkpt lat="48.70608" lon="7.43363">
        <ele>247.3</ele>
        <time>2020-06-28T15:50:12Z</time>
      </trkpt>
      <trkpt lat="48.70611" lon="7.43362">
        <ele>247.4</ele>
        <time>2020-06-28T15:50:13Z</time>
      </trkpt>
      <trkpt lat="48.70613" lon="7.4336">
        <ele>247.6</ele>
        <time>2020-06-28T15:50:14Z</time>
      </trkpt>
      <trkpt lat="48.70618" lon="7.43358">
        <ele>247.8</ele>
        <time>2020-06-28T15:50:15Z</time>
      </trkpt>
      <trkpt lat="48.70619" lon="7.43357">
        <ele>247.9</ele>
        <time>2020-06-28T15:50:16Z</time>
      </trkpt>
      <trkpt lat="48.70623" lon="7.43356">
        <ele>248</ele>
        <time>2020-06-28T15:50:17Z</time>
      </trkpt>
      <trkpt lat="48.70625" lon="7.43354">
        <ele>248.2</ele>
        <time>2020-06-28T15:50:18Z</time>
      </trkpt>
      <trkpt lat="48.70628" lon="7.43353">
        <ele>248.3</ele>
        <time>2020-06-28T15:50:19Z</time>
      </trkpt>
      <trkpt lat="48.70632" lon="7.43352">
        <ele>248.6</ele>
        <time>2020-06-28T15:50:20Z</time>
      </trkpt>
      <trkpt lat="48.70634" lon="7.43352">
        <ele>248.6</ele>
        <time>2020-06-28T15:50:21Z</time>
      </trkpt>
      <trkpt lat="48.70637" lon="7.4335">
        <ele>248.8</ele>
        <time>2020-06-28T15:50:22Z</time>
      </trkpt>
      <trkpt lat="48.70638" lon="7.43349">
        <ele>248.9</ele>
        <time>2020-06-28T15:50:23Z</time>
      </trkpt>
      <trkpt lat="48.70642" lon="7.43348">
        <ele>249.1</ele>
        <time>2020-06-28T15:50:24Z</time>
      </trkpt>
      <trkpt lat="48.70643" lon="7.43347">
        <ele>249.2</ele>
        <time>2020-06-28T15:50:25Z</time>
      </trkpt>
      <trkpt lat="48.70646" lon="7.43345">
        <ele>249.3</ele>
        <time>2020-06-28T15:50:26Z</time>
      </trkpt>
      <trkpt lat="48.70647" lon="7.43345">
        <ele>249.4</ele>
        <time>2020-06-28T15:50:27Z</time>
      </trkpt>
      <trkpt lat="48.7065" lon="7.43343">
        <ele>249.6</ele>
        <time>2020-06-28T15:50:28Z</time>
      </trkpt>
      <trkpt lat="48.70653" lon="7.43342">
        <ele>249.7</ele>
        <time>2020-06-28T15:50:29Z</time>
      </trkpt>
      <trkpt lat="48.70656" lon="7.43341">
        <ele>249.9</ele>
        <time>2020-06-28T15:50:30Z</time>
      </trkpt>
      <trkpt lat="48.7066" lon="7.43341">
        <ele>250.1</ele>
        <time>2020-06-28T15:50:31Z</time>
      </trkpt>
      <trkpt lat="48.70664" lon="7.4334">
        <ele>250.3</ele>
        <time>2020-06-28T15:50:32Z</time>
      </trkpt>
      <trkpt lat="48.70668" lon="7.43339">
        <ele>250.6</ele>
        <time>2020-06-28T15:50:33Z</time>
      </trkpt>
      <trkpt lat="48.70669" lon="7.43338">
        <ele>250.6</ele>
        <time>2020-06-28T15:50:34Z</time>
      </trkpt>
      <trkpt lat="48.70673" lon="7.43336">
        <ele>250.9</ele>
        <time>2020-06-28T15:50:35Z</time>
      </trkpt>
      <trkpt lat="48.70677" lon="7.43336">
        <ele>251.1</ele>
        <time>2020-06-28T15:50:36Z</time>
      </trkpt>
      <trkpt lat="48.7068" lon="7.43334">
        <ele>251.4</ele>
        <time>2020-06-28T15:50:37Z</time>
      </trkpt>
      <trkpt lat="48.70683" lon="7.43332">
        <ele>251.6</ele>
        <time>2020-06-28T15:50:38Z</time>
      </trkpt>
      <trkpt lat="48.70685" lon="7.43332">
        <ele>251.7</ele>
        <time>2020-06-28T15:50:39Z</time>
      </trkpt>
      <trkpt lat="48.70687" lon="7.43331">
        <ele>251.8</ele>
        <time>2020-06-28T15:50:40Z</time>
      </trkpt>
      <trkpt lat="48.7069" lon="7.4333">
        <ele>251.9</ele>
        <time>2020-06-28T15:50:41Z</time>
      </trkpt>
      <trkpt lat="48.70691" lon="7.4333">
        <ele>252</ele>
        <time>2020-06-28T15:50:42Z</time>
      </trkpt>
      <trkpt lat="48.70694" lon="7.43327">
        <ele>252.1</ele>
        <time>2020-06-28T15:50:43Z</time>
      </trkpt>
      <trkpt lat="48.70695" lon="7.43327">
        <ele>252.2</ele>
        <time>2020-06-28T15:50:44Z</time>
      </trkpt>
      <trkpt lat="48.70698" lon="7.43326">
        <ele>252.3</ele>
        <time>2020-06-28T15:50:45Z</time>
      </trkpt>
      <trkpt lat="48.70701" lon="7.43326">
        <ele>252.5</ele>
        <time>2020-06-28T15:50:46Z</time>
      </trkpt>
      <trkpt lat="48.70704" lon="7.43326">
        <ele>252.6</ele>
        <time>2020-06-28T15:50:47Z</time>
      </trkpt>
      <trkpt lat="48.70708" lon="7.43324">
        <ele>252.8</ele>
        <time>2020-06-28T15:50:48Z</time>
      </trkpt>
      <trkpt lat="48.70711" lon="7.43323">
        <ele>253</ele>
        <time>2020-06-28T15:50:49Z</time>
      </trkpt>
      <trkpt lat="48.70715" lon="7.43321">
        <ele>253.2</ele>
        <time>2020-06-28T15:50:50Z</time>
      </trkpt>
      <trkpt lat="48.70716" lon="7.43321">
        <ele>253.3</ele>
        <time>2020-06-28T15:50:51Z</time>
      </trkpt>
      <trkpt lat="48.70719" lon="7.43319">
        <ele>253.4</ele>
        <time>2020-06-28T15:50:52Z</time>
      </trkpt>
      <trkpt lat="48.70723" lon="7.43318">
        <ele>253.6</ele>
        <time>2020-06-28T15:50:53Z</time>
      </trkpt>
      <trkpt lat="48.70724" lon="7.43317">
        <ele>253.7</ele>
        <time>2020-06-28T15:50:54Z</time>
      </trkpt>
      <trkpt lat="48.70727" lon="7.43316">
        <ele>253.9</ele>
        <time>2020-06-28T15:50:55Z</time>
      </trkpt>
      <trkpt lat="48.70731" lon="7.43315">
        <ele>254.1</ele>
        <time>2020-06-28T15:50:56Z</time>
      </trkpt>
      <trkpt lat="48.70732" lon="7.43314">
        <ele>254.1</ele>
        <time>2020-06-28T15:50:57Z</time>
      </trkpt>
      <trkpt lat="48.70736" lon="7.43313">
        <ele>254.3</ele>
        <time>2020-06-28T15:50:58Z</time>
      </trkpt>
      <trkpt lat="48.70737" lon="7.43312">
        <ele>254.4</ele>
        <time>2020-06-28T15:50:59Z</time>
      </trkpt>
      <trkpt lat="48.7074" lon="7.43311">
        <ele>254.6</ele>
        <time>2020-06-28T15:51:00Z</time>
      </trkpt>
      <trkpt lat="48.70743" lon="7.43309">
        <ele>254.7</ele>
        <time>2020-06-28T15:51:01Z</time>
      </trkpt>
      <trkpt lat="48.70746" lon="7.43308">
        <ele>254.9</ele>
        <time>2020-06-28T15:51:02Z</time>
      </trkpt>
      <trkpt lat="48.7075" lon="7.43307">
        <ele>255.1</ele>
        <time>2020-06-28T15:51:03Z</time>
      </trkpt>
      <trkpt lat="48.70752" lon="7.43307">
        <ele>255.2</ele>
        <time>2020-06-28T15:51:04Z</time>
      </trkpt>
      <trkpt lat="48.70755" lon="7.43306">
        <ele>255.4</ele>
        <time>2020-06-28T15:51:05Z</time>
      </trkpt>
      <trkpt lat="48.70758" lon="7.43305">
        <ele>255.6</ele>
        <time>2020-06-28T15:51:06Z</time>
      </trkpt>
      <trkpt lat="48.70761" lon="7.43304">
        <ele>255.7</ele>
        <time>2020-06-28T15:51:07Z</time>
      </trkpt>
      <trkpt lat="48.70766" lon="7.43305">
        <ele>256</ele>
        <time>2020-06-28T15:51:08Z</time>
      </trkpt>
      <trkpt lat="48.70769" lon="7.43304">
        <ele>256.1</ele>
        <time>2020-06-28T15:51:09Z</time>
      </trkpt>
      <trkpt lat="48.70772" lon="7.43303">
        <ele>256.3</ele>
        <time>2020-06-28T15:51:10Z</time>
      </trkpt>
      <trkpt lat="48.70773" lon="7.43303">
        <ele>256.4</ele>
        <time>2020-06-28T15:51:11Z</time>
      </trkpt>
      <trkpt lat="48.70776" lon="7.43302">
        <ele>256.5</ele>
        <time>2020-06-28T15:51:12Z</time>
      </trkpt>
      <trkpt lat="48.70779" lon="7.43302">
        <ele>256.7</ele>
        <time>2020-06-28T15:51:13Z</time>
      </trkpt>
      <trkpt lat="48.70782" lon="7.43302">
        <ele>256.8</ele>
        <time>2020-06-28T15:51:14Z</time>
      </trkpt>
      <trkpt lat="48.70783" lon="7.43301">
        <ele>256.9</ele>
        <time>2020-06-28T15:51:15Z</time>
      </trkpt>
      <trkpt lat="48.70786" lon="7.43301">
        <ele>257.1</ele>
        <time>2020-06-28T15:51:16Z</time>
      </trkpt>
      <trkpt lat="48.70789" lon="7.43301">
        <ele>257.2</ele>
        <time>2020-06-28T15:51:17Z</time>
      </trkpt>
      <trkpt lat="48.70792" lon="7.433">
        <ele>257.3</ele>
        <time>2020-06-28T15:51:18Z</time>
      </trkpt>
      <trkpt lat="48.70796" lon="7.433">
        <ele>257.5</ele>
        <time>2020-06-28T15:51:19Z</time>
      </trkpt>
      <trkpt lat="48.70798" lon="7.433">
        <ele>257.6</ele>
        <time>2020-06-28T15:51:20Z</time>
      </trkpt>
      <trkpt lat="48.70801" lon="7.43299">
        <ele>257.7</ele>
        <time>2020-06-28T15:51:21Z</time>
      </trkpt>
      <trkpt lat="48.70802" lon="7.43299">
        <ele>257.7</ele>
        <time>2020-06-28T15:51:22Z</time>
      </trkpt>
      <trkpt lat="48.70806" lon="7.43299">
        <ele>257.8</ele>
        <time>2020-06-28T15:51:23Z</time>
      </trkpt>
      <trkpt lat="48.70807" lon="7.43298">
        <ele>257.9</ele>
        <time>2020-06-28T15:51:24Z</time>
      </trkpt>
      <trkpt lat="48.70809" lon="7.43298">
        <ele>257.9</ele>
        <time>2020-06-28T15:51:25Z</time>
      </trkpt>
      <trkpt lat="48.70812" lon="7.43298">
        <ele>258</ele>
        <time>2020-06-28T15:51:26Z</time>
      </trkpt>
      <trkpt lat="48.70813" lon="7.43298">
        <ele>258</ele>
        <time>2020-06-28T15:51:27Z</time>
      </trkpt>
      <trkpt lat="48.70814" lon="7.43298">
        <ele>258</ele>
        <time>2020-06-28T15:51:28Z</time>
      </trkpt>
      <trkpt lat="48.70815" lon="7.43298">
        <ele>258</ele>
        <time>2020-06-28T15:51:29Z</time>
      </trkpt>
      <trkpt lat="48.70816" lon="7.43298">
        <ele>258</ele>
        <time>2020-06-28T15:51:30Z</time>
      </trkpt>
      <trkpt lat="48.7082" lon="7.43297">
        <ele>258</ele>
        <time>2020-06-28T15:51:31Z</time>
      </trkpt>
      <trkpt lat="48.70821" lon="7.43297">
        <ele>258</ele>
        <time>2020-06-28T15:51:32Z</time>
      </trkpt>
      <trkpt lat="48.70823" lon="7.43296">
        <ele>258</ele>
        <time>2020-06-28T15:51:33Z</time>
      </trkpt>
      <trkpt lat="48.70825" lon="7.43296">
        <ele>258</ele>
        <time>2020-06-28T15:51:34Z</time>
      </trkpt>
      <trkpt lat="48.70828" lon="7.43296">
        <ele>258</ele>
        <time>2020-06-28T15:51:35Z</time>
      </trkpt>
      <trkpt lat="48.70832" lon="7.43297">
        <ele>258</ele>
        <time>2020-06-28T15:51:36Z</time>
      </trkpt>
      <trkpt lat="48.70836" lon="7.43297">
        <ele>258</ele>
        <time>2020-06-28T15:51:37Z</time>
      </trkpt>
      <trkpt lat="48.7084" lon="7.43296">
        <ele>257.9</ele>
        <time>2020-06-28T15:51:38Z</time>
      </trkpt>
      <trkpt lat="48.70843" lon="7.43295">
        <ele>257.8</ele>
        <time>2020-06-28T15:51:39Z</time>
      </trkpt>
      <trkpt lat="48.70847" lon="7.43296">
        <ele>257.7</ele>
        <time>2020-06-28T15:51:40Z</time>
      </trkpt>
      <trkpt lat="48.70852" lon="7.43297">
        <ele>257.6</ele>
        <time>2020-06-28T15:51:41Z</time>
      </trkpt>
      <trkpt lat="48.70856" lon="7.43297">
        <ele>257.5</ele>
        <time>2020-06-28T15:51:42Z</time>
      </trkpt>
      <trkpt lat="48.70861" lon="7.43298">
        <ele>257.3</ele>
        <time>2020-06-28T15:51:43Z</time>
      </trkpt>
      <trkpt lat="48.70867" lon="7.43298">
        <ele>257.1</ele>
        <time>2020-06-28T15:51:44Z</time>
      </trkpt>
      <trkpt lat="48.70872" lon="7.43296">
        <ele>256.9</ele>
        <time>2020-06-28T15:51:45Z</time>
      </trkpt>
      <trkpt lat="48.7088" lon="7.43298">
        <ele>256.3</ele>
        <time>2020-06-28T15:51:46Z</time>
      </trkpt>
      <trkpt lat="48.70886" lon="7.43298">
        <ele>256</ele>
        <time>2020-06-28T15:51:47Z</time>
      </trkpt>
      <trkpt lat="48.70892" lon="7.43301">
        <ele>255.6</ele>
        <time>2020-06-28T15:51:48Z</time>
      </trkpt>
      <trkpt lat="48.70898" lon="7.43302">
        <ele>255.2</ele>
        <time>2020-06-28T15:51:49Z</time>
      </trkpt>
      <trkpt lat="48.70905" lon="7.43304">
        <ele>254.8</ele>
        <time>2020-06-28T15:51:50Z</time>
      </trkpt>
      <trkpt lat="48.70912" lon="7.43305">
        <ele>254.4</ele>
        <time>2020-06-28T15:51:51Z</time>
      </trkpt>
      <trkpt lat="48.70919" lon="7.43305">
        <ele>253.9</ele>
        <time>2020-06-28T15:51:52Z</time>
      </trkpt>
      <trkpt lat="48.70925" lon="7.43304">
        <ele>253.6</ele>
        <time>2020-06-28T15:51:53Z</time>
      </trkpt>
      <trkpt lat="48.70932" lon="7.43306">
        <ele>253.2</ele>
        <time>2020-06-28T15:51:54Z</time>
      </trkpt>
      <trkpt lat="48.7094" lon="7.43307">
        <ele>252.7</ele>
        <time>2020-06-28T15:51:55Z</time>
      </trkpt>
      <trkpt lat="48.70947" lon="7.43308">
        <ele>252.3</ele>
        <time>2020-06-28T15:51:56Z</time>
      </trkpt>
      <trkpt lat="48.70955" lon="7.43309">
        <ele>251.9</ele>
        <time>2020-06-28T15:51:57Z</time>
      </trkpt>
      <trkpt lat="48.70962" lon="7.43311">
        <ele>251.5</ele>
        <time>2020-06-28T15:51:58Z</time>
      </trkpt>
      <trkpt lat="48.7097" lon="7.43311">
        <ele>251.1</ele>
        <time>2020-06-28T15:51:59Z</time>
      </trkpt>
      <trkpt lat="48.70977" lon="7.43312">
        <ele>250.7</ele>
        <time>2020-06-28T15:52:00Z</time>
      </trkpt>
      <trkpt lat="48.70986" lon="7.43314">
        <ele>250.3</ele>
        <time>2020-06-28T15:52:01Z</time>
      </trkpt>
      <trkpt lat="48.70993" lon="7.43315">
        <ele>250</ele>
        <time>2020-06-28T15:52:02Z</time>
      </trkpt>
      <trkpt lat="48.71001" lon="7.43315">
        <ele>249.6</ele>
        <time>2020-06-28T15:52:03Z</time>
      </trkpt>
      <trkpt lat="48.71009" lon="7.43315">
        <ele>249.3</ele>
        <time>2020-06-28T15:52:04Z</time>
      </trkpt>
      <trkpt lat="48.71016" lon="7.43315">
        <ele>248.8</ele>
        <time>2020-06-28T15:52:05Z</time>
      </trkpt>
      <trkpt lat="48.71023" lon="7.43312">
        <ele>248.9</ele>
        <time>2020-06-28T15:52:06Z</time>
      </trkpt>
      <trkpt lat="48.7103" lon="7.43308">
        <ele>248.8</ele>
        <time>2020-06-28T15:52:07Z</time>
      </trkpt>
      <trkpt lat="48.71036" lon="7.43304">
        <ele>248.5</ele>
        <time>2020-06-28T15:52:08Z</time>
      </trkpt>
      <trkpt lat="48.71043" lon="7.43299">
        <ele>248.2</ele>
        <time>2020-06-28T15:52:09Z</time>
      </trkpt>
      <trkpt lat="48.71049" lon="7.43295">
        <ele>247.8</ele>
        <time>2020-06-28T15:52:10Z</time>
      </trkpt>
      <trkpt lat="48.71054" lon="7.4329">
        <ele>247.4</ele>
        <time>2020-06-28T15:52:11Z</time>
      </trkpt>
      <trkpt lat="48.7106" lon="7.43286">
        <ele>246.9</ele>
        <time>2020-06-28T15:52:12Z</time>
      </trkpt>
      <trkpt lat="48.71066" lon="7.43282">
        <ele>246.5</ele>
        <time>2020-06-28T15:52:13Z</time>
      </trkpt>
      <trkpt lat="48.71071" lon="7.43277">
        <ele>246</ele>
        <time>2020-06-28T15:52:14Z</time>
      </trkpt>
      <trkpt lat="48.71077" lon="7.43272">
        <ele>245.6</ele>
        <time>2020-06-28T15:52:15Z</time>
      </trkpt>
      <trkpt lat="48.71082" lon="7.43267">
        <ele>245.2</ele>
        <time>2020-06-28T15:52:16Z</time>
      </trkpt>
      <trkpt lat="48.71088" lon="7.43262">
        <ele>244.7</ele>
        <time>2020-06-28T15:52:17Z</time>
      </trkpt>
      <trkpt lat="48.71094" lon="7.43257">
        <ele>244.3</ele>
        <time>2020-06-28T15:52:18Z</time>
      </trkpt>
      <trkpt lat="48.71099" lon="7.43251">
        <ele>243.9</ele>
        <time>2020-06-28T15:52:19Z</time>
      </trkpt>
      <trkpt lat="48.71106" lon="7.43247">
        <ele>243.5</ele>
        <time>2020-06-28T15:52:20Z</time>
      </trkpt>
      <trkpt lat="48.71112" lon="7.43242">
        <ele>243.1</ele>
        <time>2020-06-28T15:52:21Z</time>
      </trkpt>
      <trkpt lat="48.71119" lon="7.43237">
        <ele>242.7</ele>
        <time>2020-06-28T15:52:22Z</time>
      </trkpt>
      <trkpt lat="48.71125" lon="7.43233">
        <ele>242.2</ele>
        <time>2020-06-28T15:52:23Z</time>
      </trkpt>
      <trkpt lat="48.71131" lon="7.43227">
        <ele>241.8</ele>
        <time>2020-06-28T15:52:24Z</time>
      </trkpt>
      <trkpt lat="48.71137" lon="7.43221">
        <ele>241.4</ele>
        <time>2020-06-28T15:52:25Z</time>
      </trkpt>
      <trkpt lat="48.71143" lon="7.43216">
        <ele>241</ele>
        <time>2020-06-28T15:52:26Z</time>
      </trkpt>
      <trkpt lat="48.71149" lon="7.43211">
        <ele>240.6</ele>
        <time>2020-06-28T15:52:27Z</time>
      </trkpt>
      <trkpt lat="48.71155" lon="7.43206">
        <ele>240.3</ele>
        <time>2020-06-28T15:52:28Z</time>
      </trkpt>
      <trkpt lat="48.71162" lon="7.43201">
        <ele>239.9</ele>
        <time>2020-06-28T15:52:29Z</time>
      </trkpt>
      <trkpt lat="48.71169" lon="7.43197">
        <ele>239.4</ele>
        <time>2020-06-28T15:52:30Z</time>
      </trkpt>
      <trkpt lat="48.71175" lon="7.43192">
        <ele>239</ele>
        <time>2020-06-28T15:52:31Z</time>
      </trkpt>
      <trkpt lat="48.71182" lon="7.43187">
        <ele>238.6</ele>
        <time>2020-06-28T15:52:32Z</time>
      </trkpt>
      <trkpt lat="48.71188" lon="7.43182">
        <ele>238.3</ele>
        <time>2020-06-28T15:52:33Z</time>
      </trkpt>
      <trkpt lat="48.71194" lon="7.43176">
        <ele>238</ele>
        <time>2020-06-28T15:52:34Z</time>
      </trkpt>
      <trkpt lat="48.71201" lon="7.43171">
        <ele>237.7</ele>
        <time>2020-06-28T15:52:35Z</time>
      </trkpt>
      <trkpt lat="48.71207" lon="7.43166">
        <ele>237.4</ele>
        <time>2020-06-28T15:52:36Z</time>
      </trkpt>
      <trkpt lat="48.71212" lon="7.43161">
        <ele>237.2</ele>
        <time>2020-06-28T15:52:37Z</time>
      </trkpt>
      <trkpt lat="48.71218" lon="7.43156">
        <ele>237</ele>
        <time>2020-06-28T15:52:38Z</time>
      </trkpt>
      <trkpt lat="48.71224" lon="7.43151">
        <ele>236.8</ele>
        <time>2020-06-28T15:52:39Z</time>
      </trkpt>
      <trkpt lat="48.71229" lon="7.43146">
        <ele>236.6</ele>
        <time>2020-06-28T15:52:40Z</time>
      </trkpt>
      <trkpt lat="48.71234" lon="7.43141">
        <ele>236.5</ele>
        <time>2020-06-28T15:52:41Z</time>
      </trkpt>
      <trkpt lat="48.71239" lon="7.43137">
        <ele>236.5</ele>
        <time>2020-06-28T15:52:42Z</time>
      </trkpt>
      <trkpt lat="48.71244" lon="7.43133">
        <ele>236.5</ele>
        <time>2020-06-28T15:52:43Z</time>
      </trkpt>
      <trkpt lat="48.71249" lon="7.43129">
        <ele>236.5</ele>
        <time>2020-06-28T15:52:44Z</time>
      </trkpt>
      <trkpt lat="48.71254" lon="7.43123">
        <ele>236.5</ele>
        <time>2020-06-28T15:52:45Z</time>
      </trkpt>
      <trkpt lat="48.7126" lon="7.43118">
        <ele>236.5</ele>
        <time>2020-06-28T15:52:46Z</time>
      </trkpt>
      <trkpt lat="48.71266" lon="7.43113">
        <ele>236.5</ele>
        <time>2020-06-28T15:52:47Z</time>
      </trkpt>
      <trkpt lat="48.71271" lon="7.43109">
        <ele>236.5</ele>
        <time>2020-06-28T15:52:48Z</time>
      </trkpt>
      <trkpt lat="48.71277" lon="7.43105">
        <ele>236.6</ele>
        <time>2020-06-28T15:52:49Z</time>
      </trkpt>
      <trkpt lat="48.71282" lon="7.43101">
        <ele>236.6</ele>
        <time>2020-06-28T15:52:50Z</time>
      </trkpt>
      <trkpt lat="48.71288" lon="7.43097">
        <ele>236.7</ele>
        <time>2020-06-28T15:52:51Z</time>
      </trkpt>
      <trkpt lat="48.71293" lon="7.43093">
        <ele>236.8</ele>
        <time>2020-06-28T15:52:52Z</time>
      </trkpt>
      <trkpt lat="48.71299" lon="7.43088">
        <ele>236.9</ele>
        <time>2020-06-28T15:52:53Z</time>
      </trkpt>
      <trkpt lat="48.71304" lon="7.43083">
        <ele>236.9</ele>
        <time>2020-06-28T15:52:54Z</time>
      </trkpt>
      <trkpt lat="48.7131" lon="7.43079">
        <ele>237.1</ele>
        <time>2020-06-28T15:52:55Z</time>
      </trkpt>
      <trkpt lat="48.71315" lon="7.43075">
        <ele>237.2</ele>
        <time>2020-06-28T15:52:56Z</time>
      </trkpt>
      <trkpt lat="48.7132" lon="7.43071">
        <ele>237.4</ele>
        <time>2020-06-28T15:52:57Z</time>
      </trkpt>
      <trkpt lat="48.71325" lon="7.43066">
        <ele>237.6</ele>
        <time>2020-06-28T15:52:58Z</time>
      </trkpt>
      <trkpt lat="48.71329" lon="7.43061">
        <ele>237.8</ele>
        <time>2020-06-28T15:52:59Z</time>
      </trkpt>
      <trkpt lat="48.71334" lon="7.43057">
        <ele>238</ele>
        <time>2020-06-28T15:53:00Z</time>
      </trkpt>
      <trkpt lat="48.71338" lon="7.43054">
        <ele>238.3</ele>
        <time>2020-06-28T15:53:01Z</time>
      </trkpt>
      <trkpt lat="48.71343" lon="7.43049">
        <ele>238.6</ele>
        <time>2020-06-28T15:53:02Z</time>
      </trkpt>
      <trkpt lat="48.71347" lon="7.43046">
        <ele>238.8</ele>
        <time>2020-06-28T15:53:03Z</time>
      </trkpt>
      <trkpt lat="48.71351" lon="7.43043">
        <ele>239</ele>
        <time>2020-06-28T15:53:04Z</time>
      </trkpt>
      <trkpt lat="48.71354" lon="7.43039">
        <ele>239.3</ele>
        <time>2020-06-28T15:53:05Z</time>
      </trkpt>
      <trkpt lat="48.71358" lon="7.43035">
        <ele>239.5</ele>
        <time>2020-06-28T15:53:06Z</time>
      </trkpt>
      <trkpt lat="48.71361" lon="7.43031">
        <ele>239.7</ele>
        <time>2020-06-28T15:53:07Z</time>
      </trkpt>
      <trkpt lat="48.71365" lon="7.43028">
        <ele>239.9</ele>
        <time>2020-06-28T15:53:08Z</time>
      </trkpt>
      <trkpt lat="48.71368" lon="7.43025">
        <ele>240</ele>
        <time>2020-06-28T15:53:09Z</time>
      </trkpt>
      <trkpt lat="48.71371" lon="7.43021">
        <ele>240.1</ele>
        <time>2020-06-28T15:53:10Z</time>
      </trkpt>
      <trkpt lat="48.71375" lon="7.43018">
        <ele>240.2</ele>
        <time>2020-06-28T15:53:11Z</time>
      </trkpt>
      <trkpt lat="48.71378" lon="7.43016">
        <ele>240.3</ele>
        <time>2020-06-28T15:53:12Z</time>
      </trkpt>
      <trkpt lat="48.71381" lon="7.43014">
        <ele>240.3</ele>
        <time>2020-06-28T15:53:13Z</time>
      </trkpt>
      <trkpt lat="48.71384" lon="7.43012">
        <ele>240.4</ele>
        <time>2020-06-28T15:53:14Z</time>
      </trkpt>
      <trkpt lat="48.71386" lon="7.43009">
        <ele>240.4</ele>
        <time>2020-06-28T15:53:15Z</time>
      </trkpt>
      <trkpt lat="48.71391" lon="7.43006">
        <ele>240.4</ele>
        <time>2020-06-28T15:53:16Z</time>
      </trkpt>
      <trkpt lat="48.71394" lon="7.43002">
        <ele>240.4</ele>
        <time>2020-06-28T15:53:17Z</time>
      </trkpt>
      <trkpt lat="48.71397" lon="7.42999">
        <ele>240.3</ele>
        <time>2020-06-28T15:53:18Z</time>
      </trkpt>
      <trkpt lat="48.71401" lon="7.42995">
        <ele>240.2</ele>
        <time>2020-06-28T15:53:19Z</time>
      </trkpt>
      <trkpt lat="48.71403" lon="7.42992">
        <ele>240.2</ele>
        <time>2020-06-28T15:53:20Z</time>
      </trkpt>
      <trkpt lat="48.71407" lon="7.42989">
        <ele>240</ele>
        <time>2020-06-28T15:53:21Z</time>
      </trkpt>
      <trkpt lat="48.71411" lon="7.42984">
        <ele>239.9</ele>
        <time>2020-06-28T15:53:22Z</time>
      </trkpt>
      <trkpt lat="48.71414" lon="7.42979">
        <ele>239.8</ele>
        <time>2020-06-28T15:53:23Z</time>
      </trkpt>
      <trkpt lat="48.71417" lon="7.42976">
        <ele>239.6</ele>
        <time>2020-06-28T15:53:24Z</time>
      </trkpt>
      <trkpt lat="48.71421" lon="7.42969">
        <ele>239.4</ele>
        <time>2020-06-28T15:53:25Z</time>
      </trkpt>
      <trkpt lat="48.71425" lon="7.42963">
        <ele>239.2</ele>
        <time>2020-06-28T15:53:26Z</time>
      </trkpt>
      <trkpt lat="48.71429" lon="7.42958">
        <ele>238.9</ele>
        <time>2020-06-28T15:53:27Z</time>
      </trkpt>
      <trkpt lat="48.71434" lon="7.42953">
        <ele>238.7</ele>
        <time>2020-06-28T15:53:28Z</time>
      </trkpt>
      <trkpt lat="48.7144" lon="7.42947">
        <ele>238.4</ele>
        <time>2020-06-28T15:53:29Z</time>
      </trkpt>
      <trkpt lat="48.71445" lon="7.42941">
        <ele>238.1</ele>
        <time>2020-06-28T15:53:30Z</time>
      </trkpt>
      <trkpt lat="48.71451" lon="7.42933">
        <ele>237.8</ele>
        <time>2020-06-28T15:53:31Z</time>
      </trkpt>
      <trkpt lat="48.71456" lon="7.42927">
        <ele>237.5</ele>
        <time>2020-06-28T15:53:32Z</time>
      </trkpt>
      <trkpt lat="48.71461" lon="7.42922">
        <ele>237.3</ele>
        <time>2020-06-28T15:53:33Z</time>
      </trkpt>
      <trkpt lat="48.71466" lon="7.42916">
        <ele>237.1</ele>
        <time>2020-06-28T15:53:34Z</time>
      </trkpt>
      <trkpt lat="48.71471" lon="7.4291">
        <ele>236.9</ele>
        <time>2020-06-28T15:53:35Z</time>
      </trkpt>
      <trkpt lat="48.71475" lon="7.42904">
        <ele>236.8</ele>
        <time>2020-06-28T15:53:36Z</time>
      </trkpt>
      <trkpt lat="48.71478" lon="7.42899">
        <ele>236.6</ele>
        <time>2020-06-28T15:53:37Z</time>
      </trkpt>
      <trkpt lat="48.71482" lon="7.42893">
        <ele>236.5</ele>
        <time>2020-06-28T15:53:38Z</time>
      </trkpt>
      <trkpt lat="48.71487" lon="7.42886">
        <ele>236.4</ele>
        <time>2020-06-28T15:53:39Z</time>
      </trkpt>
      <trkpt lat="48.71491" lon="7.42881">
        <ele>236.3</ele>
        <time>2020-06-28T15:53:40Z</time>
      </trkpt>
      <trkpt lat="48.71495" lon="7.42875">
        <ele>236.2</ele>
        <time>2020-06-28T15:53:41Z</time>
      </trkpt>
      <trkpt lat="48.715" lon="7.4287">
        <ele>236.1</ele>
        <time>2020-06-28T15:53:42Z</time>
      </trkpt>
      <trkpt lat="48.71504" lon="7.42865">
        <ele>236</ele>
        <time>2020-06-28T15:53:43Z</time>
      </trkpt>
      <trkpt lat="48.71507" lon="7.42861">
        <ele>236</ele>
        <time>2020-06-28T15:53:44Z</time>
      </trkpt>
      <trkpt lat="48.71511" lon="7.42856">
        <ele>235.9</ele>
        <time>2020-06-28T15:53:45Z</time>
      </trkpt>
      <trkpt lat="48.71514" lon="7.42851">
        <ele>235.8</ele>
        <time>2020-06-28T15:53:46Z</time>
      </trkpt>
      <trkpt lat="48.71518" lon="7.42846">
        <ele>235.7</ele>
        <time>2020-06-28T15:53:47Z</time>
      </trkpt>
      <trkpt lat="48.71522" lon="7.42841">
        <ele>235.6</ele>
        <time>2020-06-28T15:53:48Z</time>
      </trkpt>
      <trkpt lat="48.71526" lon="7.42835">
        <ele>235.6</ele>
        <time>2020-06-28T15:53:49Z</time>
      </trkpt>
      <trkpt lat="48.7153" lon="7.4283">
        <ele>235.5</ele>
        <time>2020-06-28T15:53:50Z</time>
      </trkpt>
      <trkpt lat="48.71534" lon="7.42825">
        <ele>235.5</ele>
        <time>2020-06-28T15:53:51Z</time>
      </trkpt>
      <trkpt lat="48.71536" lon="7.42821">
        <ele>235.5</ele>
        <time>2020-06-28T15:53:52Z</time>
      </trkpt>
      <trkpt lat="48.71541" lon="7.42816">
        <ele>235.5</ele>
        <time>2020-06-28T15:53:53Z</time>
      </trkpt>
      <trkpt lat="48.71546" lon="7.42812">
        <ele>235.5</ele>
        <time>2020-06-28T15:53:54Z</time>
      </trkpt>
      <trkpt lat="48.71551" lon="7.42806">
        <ele>235.4</ele>
        <time>2020-06-28T15:53:55Z</time>
      </trkpt>
      <trkpt lat="48.71555" lon="7.42801">
        <ele>235.4</ele>
        <time>2020-06-28T15:53:56Z</time>
      </trkpt>
      <trkpt lat="48.7156" lon="7.42794">
        <ele>234.5</ele>
        <time>2020-06-28T15:53:57Z</time>
      </trkpt>
      <trkpt lat="48.71564" lon="7.42789">
        <ele>234</ele>
        <time>2020-06-28T15:53:58Z</time>
      </trkpt>
      <trkpt lat="48.71568" lon="7.42784">
        <ele>233.4</ele>
        <time>2020-06-28T15:53:59Z</time>
      </trkpt>
      <trkpt lat="48.71572" lon="7.42779">
        <ele>232.9</ele>
        <time>2020-06-28T15:54:00Z</time>
      </trkpt>
      <trkpt lat="48.71577" lon="7.42773">
        <ele>233.4</ele>
        <time>2020-06-28T15:54:01Z</time>
      </trkpt>
      <trkpt lat="48.71581" lon="7.42768">
        <ele>233.5</ele>
        <time>2020-06-28T15:54:02Z</time>
      </trkpt>
      <trkpt lat="48.71585" lon="7.42762">
        <ele>233.5</ele>
        <time>2020-06-28T15:54:03Z</time>
      </trkpt>
      <trkpt lat="48.7159" lon="7.42757">
        <ele>233.4</ele>
        <time>2020-06-28T15:54:04Z</time>
      </trkpt>
      <trkpt lat="48.71594" lon="7.42751">
        <ele>233.3</ele>
        <time>2020-06-28T15:54:05Z</time>
      </trkpt>
      <trkpt lat="48.71599" lon="7.42745">
        <ele>233.2</ele>
        <time>2020-06-28T15:54:06Z</time>
      </trkpt>
      <trkpt lat="48.71603" lon="7.42739">
        <ele>233.1</ele>
        <time>2020-06-28T15:54:07Z</time>
      </trkpt>
      <trkpt lat="48.71608" lon="7.42733">
        <ele>232.9</ele>
        <time>2020-06-28T15:54:08Z</time>
      </trkpt>
      <trkpt lat="48.71613" lon="7.42727">
        <ele>232.7</ele>
        <time>2020-06-28T15:54:09Z</time>
      </trkpt>
      <trkpt lat="48.71619" lon="7.4272">
        <ele>232.5</ele>
        <time>2020-06-28T15:54:10Z</time>
      </trkpt>
      <trkpt lat="48.71624" lon="7.42713">
        <ele>232.4</ele>
        <time>2020-06-28T15:54:11Z</time>
      </trkpt>
      <trkpt lat="48.7163" lon="7.42708">
        <ele>232.2</ele>
        <time>2020-06-28T15:54:12Z</time>
      </trkpt>
      <trkpt lat="48.71634" lon="7.42704">
        <ele>232</ele>
        <time>2020-06-28T15:54:13Z</time>
      </trkpt>
      <trkpt lat="48.71639" lon="7.42699">
        <ele>231.9</ele>
        <time>2020-06-28T15:54:14Z</time>
      </trkpt>
      <trkpt lat="48.71644" lon="7.42694">
        <ele>231.7</ele>
        <time>2020-06-28T15:54:15Z</time>
      </trkpt>
      <trkpt lat="48.71649" lon="7.42688">
        <ele>231.5</ele>
        <time>2020-06-28T15:54:16Z</time>
      </trkpt>
      <trkpt lat="48.71653" lon="7.42681">
        <ele>231.4</ele>
        <time>2020-06-28T15:54:17Z</time>
      </trkpt>
      <trkpt lat="48.71658" lon="7.42676">
        <ele>231.2</ele>
        <time>2020-06-28T15:54:18Z</time>
      </trkpt>
      <trkpt lat="48.71663" lon="7.42669">
        <ele>231.1</ele>
        <time>2020-06-28T15:54:19Z</time>
      </trkpt>
      <trkpt lat="48.71667" lon="7.42664">
        <ele>231</ele>
        <time>2020-06-28T15:54:20Z</time>
      </trkpt>
      <trkpt lat="48.71672" lon="7.42658">
        <ele>230.9</ele>
        <time>2020-06-28T15:54:21Z</time>
      </trkpt>
      <trkpt lat="48.71676" lon="7.42651">
        <ele>230.9</ele>
        <time>2020-06-28T15:54:22Z</time>
      </trkpt>
      <trkpt lat="48.71681" lon="7.42645">
        <ele>230.8</ele>
        <time>2020-06-28T15:54:23Z</time>
      </trkpt>
      <trkpt lat="48.71686" lon="7.42638">
        <ele>230.6</ele>
        <time>2020-06-28T15:54:24Z</time>
      </trkpt>
      <trkpt lat="48.7169" lon="7.42632">
        <ele>230.4</ele>
        <time>2020-06-28T15:54:25Z</time>
      </trkpt>
      <trkpt lat="48.71695" lon="7.42626">
        <ele>230.2</ele>
        <time>2020-06-28T15:54:26Z</time>
      </trkpt>
      <trkpt lat="48.717" lon="7.4262">
        <ele>230.1</ele>
        <time>2020-06-28T15:54:27Z</time>
      </trkpt>
      <trkpt lat="48.71704" lon="7.42614">
        <ele>229.9</ele>
        <time>2020-06-28T15:54:28Z</time>
      </trkpt>
      <trkpt lat="48.71708" lon="7.42608">
        <ele>229.8</ele>
        <time>2020-06-28T15:54:29Z</time>
      </trkpt>
      <trkpt lat="48.71712" lon="7.42602">
        <ele>229.6</ele>
        <time>2020-06-28T15:54:30Z</time>
      </trkpt>
      <trkpt lat="48.71717" lon="7.42597">
        <ele>229.4</ele>
        <time>2020-06-28T15:54:31Z</time>
      </trkpt>
      <trkpt lat="48.71721" lon="7.42591">
        <ele>229.2</ele>
        <time>2020-06-28T15:54:32Z</time>
      </trkpt>
      <trkpt lat="48.71726" lon="7.42585">
        <ele>229.1</ele>
        <time>2020-06-28T15:54:33Z</time>
      </trkpt>
      <trkpt lat="48.71731" lon="7.42579">
        <ele>228.9</ele>
        <time>2020-06-28T15:54:34Z</time>
      </trkpt>
      <trkpt lat="48.71736" lon="7.42572">
        <ele>228.6</ele>
        <time>2020-06-28T15:54:35Z</time>
      </trkpt>
      <trkpt lat="48.7174" lon="7.42565">
        <ele>228.4</ele>
        <time>2020-06-28T15:54:36Z</time>
      </trkpt>
      <trkpt lat="48.71746" lon="7.42558">
        <ele>228.2</ele>
        <time>2020-06-28T15:54:37Z</time>
      </trkpt>
      <trkpt lat="48.71751" lon="7.42552">
        <ele>228</ele>
        <time>2020-06-28T15:54:38Z</time>
      </trkpt>
      <trkpt lat="48.71756" lon="7.42546">
        <ele>227.8</ele>
        <time>2020-06-28T15:54:39Z</time>
      </trkpt>
      <trkpt lat="48.71761" lon="7.4254">
        <ele>227.6</ele>
        <time>2020-06-28T15:54:40Z</time>
      </trkpt>
      <trkpt lat="48.71766" lon="7.42535">
        <ele>227.4</ele>
        <time>2020-06-28T15:54:41Z</time>
      </trkpt>
      <trkpt lat="48.71771" lon="7.42528">
        <ele>227.3</ele>
        <time>2020-06-28T15:54:42Z</time>
      </trkpt>
      <trkpt lat="48.71776" lon="7.42522">
        <ele>227.1</ele>
        <time>2020-06-28T15:54:43Z</time>
      </trkpt>
      <trkpt lat="48.71781" lon="7.42516">
        <ele>226.9</ele>
        <time>2020-06-28T15:54:44Z</time>
      </trkpt>
      <trkpt lat="48.71786" lon="7.4251">
        <ele>226.7</ele>
        <time>2020-06-28T15:54:45Z</time>
      </trkpt>
      <trkpt lat="48.71791" lon="7.42504">
        <ele>226.6</ele>
        <time>2020-06-28T15:54:46Z</time>
      </trkpt>
      <trkpt lat="48.71796" lon="7.42498">
        <ele>226.4</ele>
        <time>2020-06-28T15:54:47Z</time>
      </trkpt>
      <trkpt lat="48.71801" lon="7.42491">
        <ele>226.3</ele>
        <time>2020-06-28T15:54:48Z</time>
      </trkpt>
      <trkpt lat="48.71807" lon="7.42485">
        <ele>226.2</ele>
        <time>2020-06-28T15:54:49Z</time>
      </trkpt>
      <trkpt lat="48.71813" lon="7.42479">
        <ele>226.2</ele>
        <time>2020-06-28T15:54:50Z</time>
      </trkpt>
      <trkpt lat="48.71818" lon="7.42472">
        <ele>226.1</ele>
        <time>2020-06-28T15:54:51Z</time>
      </trkpt>
      <trkpt lat="48.71823" lon="7.42465">
        <ele>225.7</ele>
        <time>2020-06-28T15:54:52Z</time>
      </trkpt>
      <trkpt lat="48.71828" lon="7.42458">
        <ele>225.3</ele>
        <time>2020-06-28T15:54:53Z</time>
      </trkpt>
      <trkpt lat="48.71833" lon="7.42452">
        <ele>225</ele>
        <time>2020-06-28T15:54:54Z</time>
      </trkpt>
      <trkpt lat="48.71838" lon="7.42446">
        <ele>224.7</ele>
        <time>2020-06-28T15:54:55Z</time>
      </trkpt>
      <trkpt lat="48.71843" lon="7.42439">
        <ele>224.4</ele>
        <time>2020-06-28T15:54:56Z</time>
      </trkpt>
      <trkpt lat="48.71848" lon="7.42433">
        <ele>224.1</ele>
        <time>2020-06-28T15:54:57Z</time>
      </trkpt>
      <trkpt lat="48.71854" lon="7.42427">
        <ele>223.9</ele>
        <time>2020-06-28T15:54:58Z</time>
      </trkpt>
      <trkpt lat="48.71858" lon="7.4242">
        <ele>223.6</ele>
        <time>2020-06-28T15:54:59Z</time>
      </trkpt>
      <trkpt lat="48.71864" lon="7.42414">
        <ele>223.4</ele>
        <time>2020-06-28T15:55:00Z</time>
      </trkpt>
      <trkpt lat="48.7187" lon="7.42409">
        <ele>223.1</ele>
        <time>2020-06-28T15:55:01Z</time>
      </trkpt>
      <trkpt lat="48.71875" lon="7.42402">
        <ele>222.9</ele>
        <time>2020-06-28T15:55:02Z</time>
      </trkpt>
      <trkpt lat="48.7188" lon="7.42397">
        <ele>222.6</ele>
        <time>2020-06-28T15:55:03Z</time>
      </trkpt>
      <trkpt lat="48.71886" lon="7.4239">
        <ele>222.3</ele>
        <time>2020-06-28T15:55:04Z</time>
      </trkpt>
      <trkpt lat="48.71891" lon="7.42384">
        <ele>222.2</ele>
        <time>2020-06-28T15:55:05Z</time>
      </trkpt>
      <trkpt lat="48.71897" lon="7.42378">
        <ele>222</ele>
        <time>2020-06-28T15:55:06Z</time>
      </trkpt>
      <trkpt lat="48.71902" lon="7.42372">
        <ele>221.9</ele>
        <time>2020-06-28T15:55:07Z</time>
      </trkpt>
      <trkpt lat="48.71908" lon="7.42366">
        <ele>221.7</ele>
        <time>2020-06-28T15:55:08Z</time>
      </trkpt>
      <trkpt lat="48.71913" lon="7.4236">
        <ele>221.6</ele>
        <time>2020-06-28T15:55:09Z</time>
      </trkpt>
      <trkpt lat="48.71919" lon="7.42354">
        <ele>221.4</ele>
        <time>2020-06-28T15:55:10Z</time>
      </trkpt>
      <trkpt lat="48.71924" lon="7.42348">
        <ele>221.3</ele>
        <time>2020-06-28T15:55:11Z</time>
      </trkpt>
      <trkpt lat="48.7193" lon="7.42343">
        <ele>221.2</ele>
        <time>2020-06-28T15:55:12Z</time>
      </trkpt>
      <trkpt lat="48.71936" lon="7.42338">
        <ele>221.1</ele>
        <time>2020-06-28T15:55:13Z</time>
      </trkpt>
      <trkpt lat="48.71941" lon="7.42332">
        <ele>221.1</ele>
        <time>2020-06-28T15:55:14Z</time>
      </trkpt>
      <trkpt lat="48.71947" lon="7.42327">
        <ele>221</ele>
        <time>2020-06-28T15:55:15Z</time>
      </trkpt>
      <trkpt lat="48.71952" lon="7.42322">
        <ele>221</ele>
        <time>2020-06-28T15:55:16Z</time>
      </trkpt>
      <trkpt lat="48.71958" lon="7.42317">
        <ele>221</ele>
        <time>2020-06-28T15:55:17Z</time>
      </trkpt>
      <trkpt lat="48.71963" lon="7.42312">
        <ele>221</ele>
        <time>2020-06-28T15:55:18Z</time>
      </trkpt>
      <trkpt lat="48.71968" lon="7.42306">
        <ele>221</ele>
        <time>2020-06-28T15:55:19Z</time>
      </trkpt>
      <trkpt lat="48.71973" lon="7.42301">
        <ele>221</ele>
        <time>2020-06-28T15:55:20Z</time>
      </trkpt>
      <trkpt lat="48.71978" lon="7.42295">
        <ele>221</ele>
        <time>2020-06-28T15:55:21Z</time>
      </trkpt>
      <trkpt lat="48.71983" lon="7.4229">
        <ele>221.1</ele>
        <time>2020-06-28T15:55:22Z</time>
      </trkpt>
      <trkpt lat="48.71988" lon="7.42285">
        <ele>221</ele>
        <time>2020-06-28T15:55:23Z</time>
      </trkpt>
      <trkpt lat="48.71993" lon="7.4228">
        <ele>220.9</ele>
        <time>2020-06-28T15:55:24Z</time>
      </trkpt>
      <trkpt lat="48.71998" lon="7.42275">
        <ele>220.8</ele>
        <time>2020-06-28T15:55:25Z</time>
      </trkpt>
      <trkpt lat="48.72002" lon="7.4227">
        <ele>220.8</ele>
        <time>2020-06-28T15:55:26Z</time>
      </trkpt>
      <trkpt lat="48.72007" lon="7.42265">
        <ele>220.7</ele>
        <time>2020-06-28T15:55:27Z</time>
      </trkpt>
      <trkpt lat="48.72012" lon="7.4226">
        <ele>220.5</ele>
        <time>2020-06-28T15:55:28Z</time>
      </trkpt>
      <trkpt lat="48.72017" lon="7.42255">
        <ele>220.4</ele>
        <time>2020-06-28T15:55:29Z</time>
      </trkpt>
      <trkpt lat="48.72021" lon="7.42248">
        <ele>220.3</ele>
        <time>2020-06-28T15:55:30Z</time>
      </trkpt>
      <trkpt lat="48.72026" lon="7.42243">
        <ele>220.2</ele>
        <time>2020-06-28T15:55:31Z</time>
      </trkpt>
      <trkpt lat="48.7203" lon="7.42237">
        <ele>220.2</ele>
        <time>2020-06-28T15:55:32Z</time>
      </trkpt>
      <trkpt lat="48.72035" lon="7.42232">
        <ele>220.1</ele>
        <time>2020-06-28T15:55:33Z</time>
      </trkpt>
      <trkpt lat="48.72039" lon="7.42226">
        <ele>220.1</ele>
        <time>2020-06-28T15:55:34Z</time>
      </trkpt>
      <trkpt lat="48.72043" lon="7.4222">
        <ele>220.1</ele>
        <time>2020-06-28T15:55:35Z</time>
      </trkpt>
      <trkpt lat="48.72047" lon="7.42215">
        <ele>220.1</ele>
        <time>2020-06-28T15:55:36Z</time>
      </trkpt>
      <trkpt lat="48.72052" lon="7.4221">
        <ele>220.2</ele>
        <time>2020-06-28T15:55:37Z</time>
      </trkpt>
      <trkpt lat="48.72056" lon="7.42206">
        <ele>220.2</ele>
        <time>2020-06-28T15:55:38Z</time>
      </trkpt>
      <trkpt lat="48.72061" lon="7.42201">
        <ele>220.2</ele>
        <time>2020-06-28T15:55:39Z</time>
      </trkpt>
      <trkpt lat="48.72065" lon="7.42196">
        <ele>220.2</ele>
        <time>2020-06-28T15:55:40Z</time>
      </trkpt>
      <trkpt lat="48.7207" lon="7.42191">
        <ele>220.1</ele>
        <time>2020-06-28T15:55:41Z</time>
      </trkpt>
      <trkpt lat="48.72074" lon="7.42186">
        <ele>220.1</ele>
        <time>2020-06-28T15:55:42Z</time>
      </trkpt>
      <trkpt lat="48.72079" lon="7.42181">
        <ele>220</ele>
        <time>2020-06-28T15:55:43Z</time>
      </trkpt>
      <trkpt lat="48.72084" lon="7.42175">
        <ele>220</ele>
        <time>2020-06-28T15:55:44Z</time>
      </trkpt>
      <trkpt lat="48.72089" lon="7.4217">
        <ele>220</ele>
        <time>2020-06-28T15:55:45Z</time>
      </trkpt>
      <trkpt lat="48.72093" lon="7.42163">
        <ele>220</ele>
        <time>2020-06-28T15:55:46Z</time>
      </trkpt>
      <trkpt lat="48.72098" lon="7.42158">
        <ele>220.1</ele>
        <time>2020-06-28T15:55:47Z</time>
      </trkpt>
      <trkpt lat="48.72104" lon="7.42152">
        <ele>220.4</ele>
        <time>2020-06-28T15:55:48Z</time>
      </trkpt>
      <trkpt lat="48.72109" lon="7.42147">
        <ele>220.2</ele>
        <time>2020-06-28T15:55:49Z</time>
      </trkpt>
      <trkpt lat="48.72114" lon="7.42141">
        <ele>220</ele>
        <time>2020-06-28T15:55:50Z</time>
      </trkpt>
      <trkpt lat="48.72119" lon="7.42135">
        <ele>219.9</ele>
        <time>2020-06-28T15:55:51Z</time>
      </trkpt>
      <trkpt lat="48.72123" lon="7.42129">
        <ele>219.7</ele>
        <time>2020-06-28T15:55:52Z</time>
      </trkpt>
      <trkpt lat="48.72128" lon="7.42123">
        <ele>219.6</ele>
        <time>2020-06-28T15:55:53Z</time>
      </trkpt>
      <trkpt lat="48.72132" lon="7.42117">
        <ele>219.5</ele>
        <time>2020-06-28T15:55:54Z</time>
      </trkpt>
      <trkpt lat="48.72136" lon="7.42111">
        <ele>219.4</ele>
        <time>2020-06-28T15:55:55Z</time>
      </trkpt>
      <trkpt lat="48.7214" lon="7.42105">
        <ele>219.4</ele>
        <time>2020-06-28T15:55:56Z</time>
      </trkpt>
      <trkpt lat="48.72145" lon="7.42101">
        <ele>219.5</ele>
        <time>2020-06-28T15:55:57Z</time>
      </trkpt>
      <trkpt lat="48.72149" lon="7.42095">
        <ele>219.5</ele>
        <time>2020-06-28T15:55:58Z</time>
      </trkpt>
      <trkpt lat="48.72154" lon="7.42089">
        <ele>219.6</ele>
        <time>2020-06-28T15:55:59Z</time>
      </trkpt>
      <trkpt lat="48.72158" lon="7.42083">
        <ele>219.6</ele>
        <time>2020-06-28T15:56:00Z</time>
      </trkpt>
      <trkpt lat="48.72162" lon="7.42078">
        <ele>219.6</ele>
        <time>2020-06-28T15:56:01Z</time>
      </trkpt>
      <trkpt lat="48.72166" lon="7.42073">
        <ele>219.7</ele>
        <time>2020-06-28T15:56:02Z</time>
      </trkpt>
      <trkpt lat="48.72171" lon="7.42069">
        <ele>219.7</ele>
        <time>2020-06-28T15:56:03Z</time>
      </trkpt>
      <trkpt lat="48.72175" lon="7.42064">
        <ele>219.8</ele>
        <time>2020-06-28T15:56:04Z</time>
      </trkpt>
      <trkpt lat="48.7218" lon="7.42059">
        <ele>219.9</ele>
        <time>2020-06-28T15:56:05Z</time>
      </trkpt>
      <trkpt lat="48.72185" lon="7.42054">
        <ele>219.9</ele>
        <time>2020-06-28T15:56:06Z</time>
      </trkpt>
      <trkpt lat="48.72189" lon="7.42048">
        <ele>220</ele>
        <time>2020-06-28T15:56:07Z</time>
      </trkpt>
      <trkpt lat="48.72193" lon="7.42043">
        <ele>220.1</ele>
        <time>2020-06-28T15:56:08Z</time>
      </trkpt>
      <trkpt lat="48.72197" lon="7.42038">
        <ele>220.1</ele>
        <time>2020-06-28T15:56:09Z</time>
      </trkpt>
      <trkpt lat="48.72201" lon="7.42033">
        <ele>220.1</ele>
        <time>2020-06-28T15:56:10Z</time>
      </trkpt>
      <trkpt lat="48.72205" lon="7.42029">
        <ele>220.3</ele>
        <time>2020-06-28T15:56:11Z</time>
      </trkpt>
      <trkpt lat="48.72209" lon="7.42025">
        <ele>220.5</ele>
        <time>2020-06-28T15:56:12Z</time>
      </trkpt>
      <trkpt lat="48.72214" lon="7.42021">
        <ele>220.8</ele>
        <time>2020-06-28T15:56:13Z</time>
      </trkpt>
      <trkpt lat="48.72218" lon="7.42017">
        <ele>221</ele>
        <time>2020-06-28T15:56:14Z</time>
      </trkpt>
      <trkpt lat="48.72222" lon="7.42013">
        <ele>221.2</ele>
        <time>2020-06-28T15:56:15Z</time>
      </trkpt>
      <trkpt lat="48.72226" lon="7.42009">
        <ele>221.3</ele>
        <time>2020-06-28T15:56:16Z</time>
      </trkpt>
      <trkpt lat="48.72229" lon="7.42005">
        <ele>221.4</ele>
        <time>2020-06-28T15:56:17Z</time>
      </trkpt>
      <trkpt lat="48.72234" lon="7.42001">
        <ele>221.5</ele>
        <time>2020-06-28T15:56:18Z</time>
      </trkpt>
      <trkpt lat="48.72237" lon="7.41997">
        <ele>221.6</ele>
        <time>2020-06-28T15:56:19Z</time>
      </trkpt>
      <trkpt lat="48.72242" lon="7.41992">
        <ele>221.7</ele>
        <time>2020-06-28T15:56:20Z</time>
      </trkpt>
      <trkpt lat="48.72246" lon="7.41987">
        <ele>221.8</ele>
        <time>2020-06-28T15:56:21Z</time>
      </trkpt>
      <trkpt lat="48.7225" lon="7.41983">
        <ele>221.9</ele>
        <time>2020-06-28T15:56:22Z</time>
      </trkpt>
      <trkpt lat="48.72254" lon="7.41979">
        <ele>222</ele>
        <time>2020-06-28T15:56:23Z</time>
      </trkpt>
      <trkpt lat="48.72259" lon="7.41974">
        <ele>222.1</ele>
        <time>2020-06-28T15:56:24Z</time>
      </trkpt>
      <trkpt lat="48.72264" lon="7.41968">
        <ele>222.2</ele>
        <time>2020-06-28T15:56:25Z</time>
      </trkpt>
      <trkpt lat="48.72268" lon="7.41964">
        <ele>222.3</ele>
        <time>2020-06-28T15:56:26Z</time>
      </trkpt>
      <trkpt lat="48.72272" lon="7.4196">
        <ele>222.4</ele>
        <time>2020-06-28T15:56:27Z</time>
      </trkpt>
      <trkpt lat="48.72276" lon="7.41956">
        <ele>222.6</ele>
        <time>2020-06-28T15:56:28Z</time>
      </trkpt>
      <trkpt lat="48.7228" lon="7.41951">
        <ele>222.7</ele>
        <time>2020-06-28T15:56:29Z</time>
      </trkpt>
      <trkpt lat="48.72283" lon="7.41948">
        <ele>222.8</ele>
        <time>2020-06-28T15:56:30Z</time>
      </trkpt>
      <trkpt lat="48.72287" lon="7.41944">
        <ele>222.9</ele>
        <time>2020-06-28T15:56:31Z</time>
      </trkpt>
      <trkpt lat="48.72291" lon="7.41939">
        <ele>223</ele>
        <time>2020-06-28T15:56:32Z</time>
      </trkpt>
      <trkpt lat="48.72295" lon="7.41935">
        <ele>223.1</ele>
        <time>2020-06-28T15:56:33Z</time>
      </trkpt>
      <trkpt lat="48.72298" lon="7.41931">
        <ele>223.2</ele>
        <time>2020-06-28T15:56:34Z</time>
      </trkpt>
      <trkpt lat="48.72301" lon="7.41928">
        <ele>223.3</ele>
        <time>2020-06-28T15:56:35Z</time>
      </trkpt>
      <trkpt lat="48.72305" lon="7.41924">
        <ele>223.4</ele>
        <time>2020-06-28T15:56:36Z</time>
      </trkpt>
      <trkpt lat="48.72309" lon="7.41921">
        <ele>223.4</ele>
        <time>2020-06-28T15:56:37Z</time>
      </trkpt>
      <trkpt lat="48.72313" lon="7.41918">
        <ele>223.5</ele>
        <time>2020-06-28T15:56:38Z</time>
      </trkpt>
      <trkpt lat="48.72317" lon="7.41915">
        <ele>223.6</ele>
        <time>2020-06-28T15:56:39Z</time>
      </trkpt>
      <trkpt lat="48.72321" lon="7.41911">
        <ele>223.7</ele>
        <time>2020-06-28T15:56:40Z</time>
      </trkpt>
      <trkpt lat="48.72324" lon="7.41907">
        <ele>223.8</ele>
        <time>2020-06-28T15:56:41Z</time>
      </trkpt>
      <trkpt lat="48.72328" lon="7.41904">
        <ele>223.9</ele>
        <time>2020-06-28T15:56:42Z</time>
      </trkpt>
      <trkpt lat="48.72333" lon="7.419">
        <ele>224</ele>
        <time>2020-06-28T15:56:43Z</time>
      </trkpt>
      <trkpt lat="48.72337" lon="7.41897">
        <ele>224.2</ele>
        <time>2020-06-28T15:56:44Z</time>
      </trkpt>
      <trkpt lat="48.72341" lon="7.41893">
        <ele>224.3</ele>
        <time>2020-06-28T15:56:45Z</time>
      </trkpt>
      <trkpt lat="48.72346" lon="7.4189">
        <ele>224.4</ele>
        <time>2020-06-28T15:56:46Z</time>
      </trkpt>
      <trkpt lat="48.7235" lon="7.41887">
        <ele>224.6</ele>
        <time>2020-06-28T15:56:47Z</time>
      </trkpt>
      <trkpt lat="48.72355" lon="7.41883">
        <ele>224.7</ele>
        <time>2020-06-28T15:56:48Z</time>
      </trkpt>
      <trkpt lat="48.72359" lon="7.41878">
        <ele>224.8</ele>
        <time>2020-06-28T15:56:49Z</time>
      </trkpt>
      <trkpt lat="48.72363" lon="7.41874">
        <ele>224.8</ele>
        <time>2020-06-28T15:56:50Z</time>
      </trkpt>
      <trkpt lat="48.72367" lon="7.41871">
        <ele>224.9</ele>
        <time>2020-06-28T15:56:51Z</time>
      </trkpt>
      <trkpt lat="48.72372" lon="7.41868">
        <ele>224.9</ele>
        <time>2020-06-28T15:56:52Z</time>
      </trkpt>
      <trkpt lat="48.72377" lon="7.41865">
        <ele>224.9</ele>
        <time>2020-06-28T15:56:53Z</time>
      </trkpt>
      <trkpt lat="48.72381" lon="7.41862">
        <ele>225</ele>
        <time>2020-06-28T15:56:54Z</time>
      </trkpt>
      <trkpt lat="48.72386" lon="7.41859">
        <ele>225</ele>
        <time>2020-06-28T15:56:55Z</time>
      </trkpt>
      <trkpt lat="48.72391" lon="7.41856">
        <ele>225</ele>
        <time>2020-06-28T15:56:56Z</time>
      </trkpt>
      <trkpt lat="48.72395" lon="7.41854">
        <ele>225</ele>
        <time>2020-06-28T15:56:57Z</time>
      </trkpt>
      <trkpt lat="48.724" lon="7.41851">
        <ele>225</ele>
        <time>2020-06-28T15:56:58Z</time>
      </trkpt>
      <trkpt lat="48.72405" lon="7.41847">
        <ele>225</ele>
        <time>2020-06-28T15:56:59Z</time>
      </trkpt>
      <trkpt lat="48.72409" lon="7.41844">
        <ele>225.1</ele>
        <time>2020-06-28T15:57:00Z</time>
      </trkpt>
      <trkpt lat="48.72412" lon="7.41841">
        <ele>225.1</ele>
        <time>2020-06-28T15:57:01Z</time>
      </trkpt>
      <trkpt lat="48.72417" lon="7.41838">
        <ele>225.1</ele>
        <time>2020-06-28T15:57:02Z</time>
      </trkpt>
      <trkpt lat="48.72422" lon="7.41834">
        <ele>225.1</ele>
        <time>2020-06-28T15:57:03Z</time>
      </trkpt>
      <trkpt lat="48.72427" lon="7.41831">
        <ele>225.1</ele>
        <time>2020-06-28T15:57:04Z</time>
      </trkpt>
      <trkpt lat="48.72432" lon="7.41826">
        <ele>225</ele>
        <time>2020-06-28T15:57:05Z</time>
      </trkpt>
      <trkpt lat="48.72436" lon="7.41823">
        <ele>225</ele>
        <time>2020-06-28T15:57:06Z</time>
      </trkpt>
      <trkpt lat="48.72441" lon="7.4182">
        <ele>224.9</ele>
        <time>2020-06-28T15:57:07Z</time>
      </trkpt>
      <trkpt lat="48.72446" lon="7.41815">
        <ele>224.8</ele>
        <time>2020-06-28T15:57:08Z</time>
      </trkpt>
      <trkpt lat="48.72451" lon="7.41811">
        <ele>224.8</ele>
        <time>2020-06-28T15:57:09Z</time>
      </trkpt>
      <trkpt lat="48.72456" lon="7.41807">
        <ele>224.7</ele>
        <time>2020-06-28T15:57:10Z</time>
      </trkpt>
      <trkpt lat="48.7246" lon="7.41803">
        <ele>224.7</ele>
        <time>2020-06-28T15:57:11Z</time>
      </trkpt>
      <trkpt lat="48.72465" lon="7.41798">
        <ele>224.6</ele>
        <time>2020-06-28T15:57:12Z</time>
      </trkpt>
      <trkpt lat="48.7247" lon="7.41793">
        <ele>224.6</ele>
        <time>2020-06-28T15:57:13Z</time>
      </trkpt>
      <trkpt lat="48.72476" lon="7.41787">
        <ele>224.5</ele>
        <time>2020-06-28T15:57:14Z</time>
      </trkpt>
      <trkpt lat="48.72481" lon="7.41782">
        <ele>224.4</ele>
        <time>2020-06-28T15:57:15Z</time>
      </trkpt>
      <trkpt lat="48.72485" lon="7.41778">
        <ele>224.3</ele>
        <time>2020-06-28T15:57:16Z</time>
      </trkpt>
      <trkpt lat="48.7249" lon="7.41774">
        <ele>224.2</ele>
        <time>2020-06-28T15:57:17Z</time>
      </trkpt>
      <trkpt lat="48.72496" lon="7.41769">
        <ele>224.1</ele>
        <time>2020-06-28T15:57:18Z</time>
      </trkpt>
      <trkpt lat="48.725" lon="7.41764">
        <ele>224</ele>
        <time>2020-06-28T15:57:19Z</time>
      </trkpt>
      <trkpt lat="48.72504" lon="7.41759">
        <ele>223.9</ele>
        <time>2020-06-28T15:57:20Z</time>
      </trkpt>
      <trkpt lat="48.72509" lon="7.41755">
        <ele>223.9</ele>
        <time>2020-06-28T15:57:21Z</time>
      </trkpt>
      <trkpt lat="48.72513" lon="7.41749">
        <ele>223.8</ele>
        <time>2020-06-28T15:57:22Z</time>
      </trkpt>
      <trkpt lat="48.72518" lon="7.41743">
        <ele>223.7</ele>
        <time>2020-06-28T15:57:23Z</time>
      </trkpt>
      <trkpt lat="48.72521" lon="7.41738">
        <ele>223.7</ele>
        <time>2020-06-28T15:57:24Z</time>
      </trkpt>
      <trkpt lat="48.72525" lon="7.41734">
        <ele>223.6</ele>
        <time>2020-06-28T15:57:25Z</time>
      </trkpt>
      <trkpt lat="48.7253" lon="7.41727">
        <ele>223.6</ele>
        <time>2020-06-28T15:57:26Z</time>
      </trkpt>
      <trkpt lat="48.72533" lon="7.41721">
        <ele>223.5</ele>
        <time>2020-06-28T15:57:27Z</time>
      </trkpt>
      <trkpt lat="48.72538" lon="7.41714">
        <ele>223.5</ele>
        <time>2020-06-28T15:57:28Z</time>
      </trkpt>
      <trkpt lat="48.72542" lon="7.41708">
        <ele>223.4</ele>
        <time>2020-06-28T15:57:29Z</time>
      </trkpt>
      <trkpt lat="48.72546" lon="7.41701">
        <ele>223.3</ele>
        <time>2020-06-28T15:57:30Z</time>
      </trkpt>
      <trkpt lat="48.72549" lon="7.41694">
        <ele>223.2</ele>
        <time>2020-06-28T15:57:31Z</time>
      </trkpt>
      <trkpt lat="48.72553" lon="7.41688">
        <ele>223.2</ele>
        <time>2020-06-28T15:57:32Z</time>
      </trkpt>
      <trkpt lat="48.72556" lon="7.41681">
        <ele>223.1</ele>
        <time>2020-06-28T15:57:33Z</time>
      </trkpt>
      <trkpt lat="48.7256" lon="7.41674">
        <ele>223</ele>
        <time>2020-06-28T15:57:34Z</time>
      </trkpt>
      <trkpt lat="48.72563" lon="7.41668">
        <ele>222.9</ele>
        <time>2020-06-28T15:57:35Z</time>
      </trkpt>
      <trkpt lat="48.72566" lon="7.4166">
        <ele>222.8</ele>
        <time>2020-06-28T15:57:36Z</time>
      </trkpt>
      <trkpt lat="48.72569" lon="7.41652">
        <ele>222.8</ele>
        <time>2020-06-28T15:57:37Z</time>
      </trkpt>
      <trkpt lat="48.72571" lon="7.41643">
        <ele>222.7</ele>
        <time>2020-06-28T15:57:38Z</time>
      </trkpt>
      <trkpt lat="48.72574" lon="7.41633">
        <ele>222.7</ele>
        <time>2020-06-28T15:57:39Z</time>
      </trkpt>
      <trkpt lat="48.72577" lon="7.41623">
        <ele>222.6</ele>
        <time>2020-06-28T15:57:40Z</time>
      </trkpt>
      <trkpt lat="48.72579" lon="7.41616">
        <ele>222.5</ele>
        <time>2020-06-28T15:57:41Z</time>
      </trkpt>
      <trkpt lat="48.72582" lon="7.41608">
        <ele>222.4</ele>
        <time>2020-06-28T15:57:42Z</time>
      </trkpt>
      <trkpt lat="48.72585" lon="7.41599">
        <ele>222.4</ele>
        <time>2020-06-28T15:57:43Z</time>
      </trkpt>
      <trkpt lat="48.72588" lon="7.4159">
        <ele>222.4</ele>
        <time>2020-06-28T15:57:44Z</time>
      </trkpt>
      <trkpt lat="48.7259" lon="7.41582">
        <ele>222.4</ele>
        <time>2020-06-28T15:57:45Z</time>
      </trkpt>
      <trkpt lat="48.72592" lon="7.41577">
        <ele>222.5</ele>
        <time>2020-06-28T15:57:46Z</time>
      </trkpt>
      <trkpt lat="48.72595" lon="7.41569">
        <ele>222.6</ele>
        <time>2020-06-28T15:57:47Z</time>
      </trkpt>
      <trkpt lat="48.72598" lon="7.41561">
        <ele>222.5</ele>
        <time>2020-06-28T15:57:48Z</time>
      </trkpt>
      <trkpt lat="48.726" lon="7.41554">
        <ele>222.4</ele>
        <time>2020-06-28T15:57:49Z</time>
      </trkpt>
      <trkpt lat="48.72604" lon="7.41545">
        <ele>222.3</ele>
        <time>2020-06-28T15:57:50Z</time>
      </trkpt>
      <trkpt lat="48.72607" lon="7.41537">
        <ele>222.1</ele>
        <time>2020-06-28T15:57:51Z</time>
      </trkpt>
      <trkpt lat="48.7261" lon="7.4153">
        <ele>222</ele>
        <time>2020-06-28T15:57:52Z</time>
      </trkpt>
      <trkpt lat="48.72613" lon="7.41524">
        <ele>221.9</ele>
        <time>2020-06-28T15:57:53Z</time>
      </trkpt>
      <trkpt lat="48.72616" lon="7.41515">
        <ele>221.8</ele>
        <time>2020-06-28T15:57:54Z</time>
      </trkpt>
      <trkpt lat="48.72619" lon="7.41507">
        <ele>221.7</ele>
        <time>2020-06-28T15:57:55Z</time>
      </trkpt>
      <trkpt lat="48.72621" lon="7.41499">
        <ele>221.6</ele>
        <time>2020-06-28T15:57:56Z</time>
      </trkpt>
      <trkpt lat="48.72624" lon="7.41491">
        <ele>221.5</ele>
        <time>2020-06-28T15:57:57Z</time>
      </trkpt>
      <trkpt lat="48.72626" lon="7.41483">
        <ele>221.4</ele>
        <time>2020-06-28T15:57:58Z</time>
      </trkpt>
      <trkpt lat="48.72629" lon="7.41474">
        <ele>221.2</ele>
        <time>2020-06-28T15:57:59Z</time>
      </trkpt>
      <trkpt lat="48.72632" lon="7.41466">
        <ele>221.1</ele>
        <time>2020-06-28T15:58:00Z</time>
      </trkpt>
      <trkpt lat="48.72635" lon="7.41458">
        <ele>220.9</ele>
        <time>2020-06-28T15:58:01Z</time>
      </trkpt>
      <trkpt lat="48.72638" lon="7.4145">
        <ele>220.8</ele>
        <time>2020-06-28T15:58:02Z</time>
      </trkpt>
      <trkpt lat="48.72641" lon="7.41441">
        <ele>220.6</ele>
        <time>2020-06-28T15:58:03Z</time>
      </trkpt>
      <trkpt lat="48.72644" lon="7.41433">
        <ele>220.5</ele>
        <time>2020-06-28T15:58:04Z</time>
      </trkpt>
      <trkpt lat="48.72647" lon="7.41424">
        <ele>220.3</ele>
        <time>2020-06-28T15:58:05Z</time>
      </trkpt>
      <trkpt lat="48.7265" lon="7.41415">
        <ele>220.1</ele>
        <time>2020-06-28T15:58:06Z</time>
      </trkpt>
      <trkpt lat="48.72653" lon="7.41407">
        <ele>220</ele>
        <time>2020-06-28T15:58:07Z</time>
      </trkpt>
      <trkpt lat="48.72656" lon="7.41398">
        <ele>219.9</ele>
        <time>2020-06-28T15:58:08Z</time>
      </trkpt>
      <trkpt lat="48.72659" lon="7.4139">
        <ele>219.7</ele>
        <time>2020-06-28T15:58:09Z</time>
      </trkpt>
      <trkpt lat="48.72662" lon="7.41382">
        <ele>219.6</ele>
        <time>2020-06-28T15:58:10Z</time>
      </trkpt>
      <trkpt lat="48.72664" lon="7.41374">
        <ele>219.6</ele>
        <time>2020-06-28T15:58:11Z</time>
      </trkpt>
      <trkpt lat="48.72668" lon="7.41365">
        <ele>219.5</ele>
        <time>2020-06-28T15:58:12Z</time>
      </trkpt>
      <trkpt lat="48.72671" lon="7.41357">
        <ele>219.5</ele>
        <time>2020-06-28T15:58:13Z</time>
      </trkpt>
      <trkpt lat="48.72673" lon="7.4135">
        <ele>219.4</ele>
        <time>2020-06-28T15:58:14Z</time>
      </trkpt>
      <trkpt lat="48.72676" lon="7.41342">
        <ele>219.4</ele>
        <time>2020-06-28T15:58:15Z</time>
      </trkpt>
      <trkpt lat="48.72679" lon="7.41335">
        <ele>219.4</ele>
        <time>2020-06-28T15:58:16Z</time>
      </trkpt>
      <trkpt lat="48.72682" lon="7.41327">
        <ele>219.4</ele>
        <time>2020-06-28T15:58:17Z</time>
      </trkpt>
      <trkpt lat="48.72685" lon="7.41318">
        <ele>219.2</ele>
        <time>2020-06-28T15:58:18Z</time>
      </trkpt>
      <trkpt lat="48.72687" lon="7.4131">
        <ele>218.9</ele>
        <time>2020-06-28T15:58:19Z</time>
      </trkpt>
      <trkpt lat="48.7269" lon="7.41302">
        <ele>218.7</ele>
        <time>2020-06-28T15:58:20Z</time>
      </trkpt>
      <trkpt lat="48.72693" lon="7.41294">
        <ele>218.5</ele>
        <time>2020-06-28T15:58:21Z</time>
      </trkpt>
      <trkpt lat="48.72695" lon="7.41287">
        <ele>218.3</ele>
        <time>2020-06-28T15:58:22Z</time>
      </trkpt>
      <trkpt lat="48.72698" lon="7.4128">
        <ele>218.2</ele>
        <time>2020-06-28T15:58:23Z</time>
      </trkpt>
      <trkpt lat="48.727" lon="7.41274">
        <ele>218.1</ele>
        <time>2020-06-28T15:58:24Z</time>
      </trkpt>
      <trkpt lat="48.72702" lon="7.41266">
        <ele>218</ele>
        <time>2020-06-28T15:58:25Z</time>
      </trkpt>
      <trkpt lat="48.72705" lon="7.4126">
        <ele>218</ele>
        <time>2020-06-28T15:58:26Z</time>
      </trkpt>
      <trkpt lat="48.72708" lon="7.41252">
        <ele>217.9</ele>
        <time>2020-06-28T15:58:27Z</time>
      </trkpt>
      <trkpt lat="48.72711" lon="7.41242">
        <ele>217.8</ele>
        <time>2020-06-28T15:58:28Z</time>
      </trkpt>
      <trkpt lat="48.72714" lon="7.41233">
        <ele>217.8</ele>
        <time>2020-06-28T15:58:29Z</time>
      </trkpt>
      <trkpt lat="48.72717" lon="7.41224">
        <ele>217.8</ele>
        <time>2020-06-28T15:58:30Z</time>
      </trkpt>
      <trkpt lat="48.72719" lon="7.41217">
        <ele>217.7</ele>
        <time>2020-06-28T15:58:31Z</time>
      </trkpt>
      <trkpt lat="48.72722" lon="7.41208">
        <ele>217.7</ele>
        <time>2020-06-28T15:58:32Z</time>
      </trkpt>
      <trkpt lat="48.72725" lon="7.412">
        <ele>217.7</ele>
        <time>2020-06-28T15:58:33Z</time>
      </trkpt>
      <trkpt lat="48.72728" lon="7.41193">
        <ele>217.7</ele>
        <time>2020-06-28T15:58:34Z</time>
      </trkpt>
      <trkpt lat="48.7273" lon="7.41185">
        <ele>217.6</ele>
        <time>2020-06-28T15:58:35Z</time>
      </trkpt>
      <trkpt lat="48.72733" lon="7.41176">
        <ele>217.6</ele>
        <time>2020-06-28T15:58:36Z</time>
      </trkpt>
      <trkpt lat="48.72736" lon="7.41169">
        <ele>217.6</ele>
        <time>2020-06-28T15:58:37Z</time>
      </trkpt>
      <trkpt lat="48.72738" lon="7.41162">
        <ele>217.6</ele>
        <time>2020-06-28T15:58:38Z</time>
      </trkpt>
      <trkpt lat="48.72741" lon="7.41155">
        <ele>217.6</ele>
        <time>2020-06-28T15:58:39Z</time>
      </trkpt>
      <trkpt lat="48.72744" lon="7.41149">
        <ele>217.6</ele>
        <time>2020-06-28T15:58:40Z</time>
      </trkpt>
      <trkpt lat="48.72746" lon="7.41141">
        <ele>217.7</ele>
        <time>2020-06-28T15:58:41Z</time>
      </trkpt>
      <trkpt lat="48.72748" lon="7.41134">
        <ele>217.7</ele>
        <time>2020-06-28T15:58:42Z</time>
      </trkpt>
      <trkpt lat="48.7275" lon="7.41127">
        <ele>217.7</ele>
        <time>2020-06-28T15:58:43Z</time>
      </trkpt>
      <trkpt lat="48.72753" lon="7.41119">
        <ele>217.7</ele>
        <time>2020-06-28T15:58:44Z</time>
      </trkpt>
      <trkpt lat="48.72756" lon="7.4111">
        <ele>217.7</ele>
        <time>2020-06-28T15:58:45Z</time>
      </trkpt>
      <trkpt lat="48.7276" lon="7.41102">
        <ele>217.7</ele>
        <time>2020-06-28T15:58:46Z</time>
      </trkpt>
      <trkpt lat="48.72762" lon="7.41096">
        <ele>217.7</ele>
        <time>2020-06-28T15:58:47Z</time>
      </trkpt>
      <trkpt lat="48.72765" lon="7.41088">
        <ele>217.8</ele>
        <time>2020-06-28T15:58:48Z</time>
      </trkpt>
      <trkpt lat="48.72768" lon="7.41081">
        <ele>217.8</ele>
        <time>2020-06-28T15:58:49Z</time>
      </trkpt>
      <trkpt lat="48.7277" lon="7.41075">
        <ele>217.9</ele>
        <time>2020-06-28T15:58:50Z</time>
      </trkpt>
      <trkpt lat="48.72774" lon="7.41067">
        <ele>217.9</ele>
        <time>2020-06-28T15:58:51Z</time>
      </trkpt>
      <trkpt lat="48.72776" lon="7.4106">
        <ele>217.9</ele>
        <time>2020-06-28T15:58:52Z</time>
      </trkpt>
      <trkpt lat="48.72778" lon="7.41054">
        <ele>218</ele>
        <time>2020-06-28T15:58:53Z</time>
      </trkpt>
      <trkpt lat="48.7278" lon="7.41046">
        <ele>218</ele>
        <time>2020-06-28T15:58:54Z</time>
      </trkpt>
      <trkpt lat="48.72782" lon="7.41039">
        <ele>218.1</ele>
        <time>2020-06-28T15:58:55Z</time>
      </trkpt>
      <trkpt lat="48.72784" lon="7.41033">
        <ele>218.1</ele>
        <time>2020-06-28T15:58:56Z</time>
      </trkpt>
      <trkpt lat="48.72786" lon="7.41029">
        <ele>218.1</ele>
        <time>2020-06-28T15:58:57Z</time>
      </trkpt>
      <trkpt lat="48.72789" lon="7.41022">
        <ele>218.2</ele>
        <time>2020-06-28T15:58:58Z</time>
      </trkpt>
      <trkpt lat="48.72791" lon="7.41015">
        <ele>218.3</ele>
        <time>2020-06-28T15:58:59Z</time>
      </trkpt>
      <trkpt lat="48.72794" lon="7.41009">
        <ele>218.4</ele>
        <time>2020-06-28T15:59:00Z</time>
      </trkpt>
      <trkpt lat="48.72797" lon="7.41001">
        <ele>218.5</ele>
        <time>2020-06-28T15:59:01Z</time>
      </trkpt>
      <trkpt lat="48.72799" lon="7.40996">
        <ele>218.5</ele>
        <time>2020-06-28T15:59:02Z</time>
      </trkpt>
      <trkpt lat="48.72801" lon="7.40991">
        <ele>218.6</ele>
        <time>2020-06-28T15:59:03Z</time>
      </trkpt>
      <trkpt lat="48.72803" lon="7.40985">
        <ele>218.8</ele>
        <time>2020-06-28T15:59:04Z</time>
      </trkpt>
      <trkpt lat="48.72805" lon="7.40978">
        <ele>218.9</ele>
        <time>2020-06-28T15:59:05Z</time>
      </trkpt>
      <trkpt lat="48.72808" lon="7.40971">
        <ele>219</ele>
        <time>2020-06-28T15:59:06Z</time>
      </trkpt>
      <trkpt lat="48.72811" lon="7.40964">
        <ele>219.1</ele>
        <time>2020-06-28T15:59:07Z</time>
      </trkpt>
      <trkpt lat="48.72813" lon="7.40957">
        <ele>219.2</ele>
        <time>2020-06-28T15:59:08Z</time>
      </trkpt>
      <trkpt lat="48.72816" lon="7.40951">
        <ele>219.2</ele>
        <time>2020-06-28T15:59:09Z</time>
      </trkpt>
      <trkpt lat="48.72818" lon="7.40945">
        <ele>219.2</ele>
        <time>2020-06-28T15:59:10Z</time>
      </trkpt>
      <trkpt lat="48.7282" lon="7.40939">
        <ele>219.3</ele>
        <time>2020-06-28T15:59:11Z</time>
      </trkpt>
      <trkpt lat="48.72822" lon="7.40934">
        <ele>219.3</ele>
        <time>2020-06-28T15:59:12Z</time>
      </trkpt>
      <trkpt lat="48.72825" lon="7.40928">
        <ele>219.3</ele>
        <time>2020-06-28T15:59:13Z</time>
      </trkpt>
      <trkpt lat="48.72827" lon="7.40922">
        <ele>219.3</ele>
        <time>2020-06-28T15:59:14Z</time>
      </trkpt>
      <trkpt lat="48.7283" lon="7.40915">
        <ele>219.4</ele>
        <time>2020-06-28T15:59:15Z</time>
      </trkpt>
      <trkpt lat="48.72832" lon="7.40909">
        <ele>219.5</ele>
        <time>2020-06-28T15:59:16Z</time>
      </trkpt>
      <trkpt lat="48.72834" lon="7.40902">
        <ele>219.5</ele>
        <time>2020-06-28T15:59:17Z</time>
      </trkpt>
      <trkpt lat="48.72836" lon="7.40895">
        <ele>219.6</ele>
        <time>2020-06-28T15:59:18Z</time>
      </trkpt>
      <trkpt lat="48.72838" lon="7.4089">
        <ele>219.7</ele>
        <time>2020-06-28T15:59:19Z</time>
      </trkpt>
      <trkpt lat="48.72841" lon="7.40882">
        <ele>219.9</ele>
        <time>2020-06-28T15:59:20Z</time>
      </trkpt>
      <trkpt lat="48.72842" lon="7.40875">
        <ele>220</ele>
        <time>2020-06-28T15:59:21Z</time>
      </trkpt>
      <trkpt lat="48.72845" lon="7.40867">
        <ele>220.2</ele>
        <time>2020-06-28T15:59:22Z</time>
      </trkpt>
      <trkpt lat="48.72847" lon="7.4086">
        <ele>220.3</ele>
        <time>2020-06-28T15:59:23Z</time>
      </trkpt>
      <trkpt lat="48.7285" lon="7.40853">
        <ele>220.5</ele>
        <time>2020-06-28T15:59:24Z</time>
      </trkpt>
      <trkpt lat="48.72852" lon="7.40847">
        <ele>220.6</ele>
        <time>2020-06-28T15:59:25Z</time>
      </trkpt>
      <trkpt lat="48.72853" lon="7.4084">
        <ele>220.8</ele>
        <time>2020-06-28T15:59:26Z</time>
      </trkpt>
      <trkpt lat="48.72855" lon="7.40833">
        <ele>220.9</ele>
        <time>2020-06-28T15:59:27Z</time>
      </trkpt>
      <trkpt lat="48.72858" lon="7.40825">
        <ele>220.9</ele>
        <time>2020-06-28T15:59:28Z</time>
      </trkpt>
      <trkpt lat="48.7286" lon="7.40819">
        <ele>220.9</ele>
        <time>2020-06-28T15:59:29Z</time>
      </trkpt>
      <trkpt lat="48.72861" lon="7.40812">
        <ele>220.9</ele>
        <time>2020-06-28T15:59:30Z</time>
      </trkpt>
      <trkpt lat="48.72863" lon="7.40805">
        <ele>220.9</ele>
        <time>2020-06-28T15:59:31Z</time>
      </trkpt>
      <trkpt lat="48.72863" lon="7.40798">
        <ele>220.8</ele>
        <time>2020-06-28T15:59:32Z</time>
      </trkpt>
      <trkpt lat="48.72864" lon="7.40791">
        <ele>220.8</ele>
        <time>2020-06-28T15:59:33Z</time>
      </trkpt>
      <trkpt lat="48.72864" lon="7.40784">
        <ele>220.7</ele>
        <time>2020-06-28T15:59:34Z</time>
      </trkpt>
      <trkpt lat="48.72865" lon="7.40776">
        <ele>220.6</ele>
        <time>2020-06-28T15:59:35Z</time>
      </trkpt>
      <trkpt lat="48.72865" lon="7.40768">
        <ele>220.4</ele>
        <time>2020-06-28T15:59:36Z</time>
      </trkpt>
      <trkpt lat="48.72866" lon="7.40759">
        <ele>220.2</ele>
        <time>2020-06-28T15:59:37Z</time>
      </trkpt>
      <trkpt lat="48.72866" lon="7.4075">
        <ele>219.9</ele>
        <time>2020-06-28T15:59:38Z</time>
      </trkpt>
      <trkpt lat="48.72867" lon="7.40742">
        <ele>219.7</ele>
        <time>2020-06-28T15:59:39Z</time>
      </trkpt>
      <trkpt lat="48.72868" lon="7.40733">
        <ele>219.5</ele>
        <time>2020-06-28T15:59:40Z</time>
      </trkpt>
      <trkpt lat="48.7287" lon="7.40725">
        <ele>219.2</ele>
        <time>2020-06-28T15:59:41Z</time>
      </trkpt>
      <trkpt lat="48.72871" lon="7.40716">
        <ele>218.8</ele>
        <time>2020-06-28T15:59:42Z</time>
      </trkpt>
      <trkpt lat="48.72872" lon="7.40706">
        <ele>218.5</ele>
        <time>2020-06-28T15:59:43Z</time>
      </trkpt>
      <trkpt lat="48.72873" lon="7.40696">
        <ele>218.1</ele>
        <time>2020-06-28T15:59:44Z</time>
      </trkpt>
      <trkpt lat="48.72875" lon="7.40686">
        <ele>217.7</ele>
        <time>2020-06-28T15:59:45Z</time>
      </trkpt>
      <trkpt lat="48.72877" lon="7.40676">
        <ele>217.4</ele>
        <time>2020-06-28T15:59:46Z</time>
      </trkpt>
      <trkpt lat="48.7288" lon="7.40664">
        <ele>216.9</ele>
        <time>2020-06-28T15:59:47Z</time>
      </trkpt>
      <trkpt lat="48.72882" lon="7.40653">
        <ele>216.5</ele>
        <time>2020-06-28T15:59:48Z</time>
      </trkpt>
      <trkpt lat="48.72884" lon="7.40641">
        <ele>216</ele>
        <time>2020-06-28T15:59:49Z</time>
      </trkpt>
      <trkpt lat="48.72886" lon="7.40629">
        <ele>215.7</ele>
        <time>2020-06-28T15:59:50Z</time>
      </trkpt>
      <trkpt lat="48.72888" lon="7.40621">
        <ele>215.4</ele>
        <time>2020-06-28T15:59:51Z</time>
      </trkpt>
      <trkpt lat="48.7289" lon="7.40612">
        <ele>215.1</ele>
        <time>2020-06-28T15:59:52Z</time>
      </trkpt>
      <trkpt lat="48.72892" lon="7.40601">
        <ele>214.8</ele>
        <time>2020-06-28T15:59:53Z</time>
      </trkpt>
      <trkpt lat="48.72895" lon="7.40593">
        <ele>214.5</ele>
        <time>2020-06-28T15:59:54Z</time>
      </trkpt>
      <trkpt lat="48.72898" lon="7.40584">
        <ele>214.3</ele>
        <time>2020-06-28T15:59:55Z</time>
      </trkpt>
      <trkpt lat="48.729" lon="7.40575">
        <ele>214</ele>
        <time>2020-06-28T15:59:56Z</time>
      </trkpt>
      <trkpt lat="48.72903" lon="7.40567">
        <ele>213.8</ele>
        <time>2020-06-28T15:59:57Z</time>
      </trkpt>
      <trkpt lat="48.72905" lon="7.40558">
        <ele>213.6</ele>
        <time>2020-06-28T15:59:58Z</time>
      </trkpt>
      <trkpt lat="48.72908" lon="7.40549">
        <ele>213.4</ele>
        <time>2020-06-28T15:59:59Z</time>
      </trkpt>
      <trkpt lat="48.72911" lon="7.40539">
        <ele>213.2</ele>
        <time>2020-06-28T16:00:00Z</time>
      </trkpt>
      <trkpt lat="48.72913" lon="7.4053">
        <ele>212.9</ele>
        <time>2020-06-28T16:00:01Z</time>
      </trkpt>
      <trkpt lat="48.72916" lon="7.40521">
        <ele>212.7</ele>
        <time>2020-06-28T16:00:02Z</time>
      </trkpt>
      <trkpt lat="48.72919" lon="7.40512">
        <ele>212.4</ele>
        <time>2020-06-28T16:00:03Z</time>
      </trkpt>
      <trkpt lat="48.72921" lon="7.40504">
        <ele>212.2</ele>
        <time>2020-06-28T16:00:04Z</time>
      </trkpt>
      <trkpt lat="48.72923" lon="7.40496">
        <ele>212.1</ele>
        <time>2020-06-28T16:00:05Z</time>
      </trkpt>
      <trkpt lat="48.72926" lon="7.40488">
        <ele>211.9</ele>
        <time>2020-06-28T16:00:06Z</time>
      </trkpt>
      <trkpt lat="48.72929" lon="7.40479">
        <ele>211.8</ele>
        <time>2020-06-28T16:00:07Z</time>
      </trkpt>
      <trkpt lat="48.72932" lon="7.40471">
        <ele>211.6</ele>
        <time>2020-06-28T16:00:08Z</time>
      </trkpt>
      <trkpt lat="48.72936" lon="7.40463">
        <ele>211.5</ele>
        <time>2020-06-28T16:00:09Z</time>
      </trkpt>
      <trkpt lat="48.72939" lon="7.40455">
        <ele>211.4</ele>
        <time>2020-06-28T16:00:10Z</time>
      </trkpt>
      <trkpt lat="48.72944" lon="7.40446">
        <ele>211.3</ele>
        <time>2020-06-28T16:00:11Z</time>
      </trkpt>
      <trkpt lat="48.72948" lon="7.40439">
        <ele>211.2</ele>
        <time>2020-06-28T16:00:12Z</time>
      </trkpt>
      <trkpt lat="48.72952" lon="7.40432">
        <ele>211.2</ele>
        <time>2020-06-28T16:00:13Z</time>
      </trkpt>
      <trkpt lat="48.72956" lon="7.40426">
        <ele>211.1</ele>
        <time>2020-06-28T16:00:14Z</time>
      </trkpt>
      <trkpt lat="48.7296" lon="7.40419">
        <ele>211.1</ele>
        <time>2020-06-28T16:00:15Z</time>
      </trkpt>
      <trkpt lat="48.72965" lon="7.40413">
        <ele>211.1</ele>
        <time>2020-06-28T16:00:16Z</time>
      </trkpt>
      <trkpt lat="48.72969" lon="7.40407">
        <ele>211</ele>
        <time>2020-06-28T16:00:17Z</time>
      </trkpt>
      <trkpt lat="48.72973" lon="7.40401">
        <ele>211</ele>
        <time>2020-06-28T16:00:18Z</time>
      </trkpt>
      <trkpt lat="48.72978" lon="7.40396">
        <ele>211</ele>
        <time>2020-06-28T16:00:19Z</time>
      </trkpt>
      <trkpt lat="48.72982" lon="7.40392">
        <ele>211</ele>
        <time>2020-06-28T16:00:20Z</time>
      </trkpt>
      <trkpt lat="48.72986" lon="7.40386">
        <ele>211.1</ele>
        <time>2020-06-28T16:00:21Z</time>
      </trkpt>
      <trkpt lat="48.72991" lon="7.40381">
        <ele>211.1</ele>
        <time>2020-06-28T16:00:22Z</time>
      </trkpt>
      <trkpt lat="48.72995" lon="7.40375">
        <ele>211.2</ele>
        <time>2020-06-28T16:00:23Z</time>
      </trkpt>
      <trkpt lat="48.72998" lon="7.40371">
        <ele>211.3</ele>
        <time>2020-06-28T16:00:24Z</time>
      </trkpt>
      <trkpt lat="48.73004" lon="7.40366">
        <ele>211.5</ele>
        <time>2020-06-28T16:00:25Z</time>
      </trkpt>
      <trkpt lat="48.73008" lon="7.4036">
        <ele>211.7</ele>
        <time>2020-06-28T16:00:26Z</time>
      </trkpt>
      <trkpt lat="48.73013" lon="7.40354">
        <ele>211.9</ele>
        <time>2020-06-28T16:00:27Z</time>
      </trkpt>
      <trkpt lat="48.73016" lon="7.40349">
        <ele>212</ele>
        <time>2020-06-28T16:00:28Z</time>
      </trkpt>
      <trkpt lat="48.7302" lon="7.40343">
        <ele>212.2</ele>
        <time>2020-06-28T16:00:29Z</time>
      </trkpt>
      <trkpt lat="48.73025" lon="7.40338">
        <ele>212.5</ele>
        <time>2020-06-28T16:00:30Z</time>
      </trkpt>
      <trkpt lat="48.73028" lon="7.40334">
        <ele>212.7</ele>
        <time>2020-06-28T16:00:31Z</time>
      </trkpt>
      <trkpt lat="48.73031" lon="7.40331">
        <ele>212.8</ele>
        <time>2020-06-28T16:00:32Z</time>
      </trkpt>
      <trkpt lat="48.73033" lon="7.40328">
        <ele>213</ele>
        <time>2020-06-28T16:00:33Z</time>
      </trkpt>
      <trkpt lat="48.73037" lon="7.40324">
        <ele>213.2</ele>
        <time>2020-06-28T16:00:34Z</time>
      </trkpt>
      <trkpt lat="48.7304" lon="7.40318">
        <ele>213.5</ele>
        <time>2020-06-28T16:00:35Z</time>
      </trkpt>
      <trkpt lat="48.73044" lon="7.40313">
        <ele>213.7</ele>
        <time>2020-06-28T16:00:36Z</time>
      </trkpt>
      <trkpt lat="48.73047" lon="7.4031">
        <ele>213.9</ele>
        <time>2020-06-28T16:00:37Z</time>
      </trkpt>
      <trkpt lat="48.73051" lon="7.40305">
        <ele>214.2</ele>
        <time>2020-06-28T16:00:38Z</time>
      </trkpt>
      <trkpt lat="48.73055" lon="7.40301">
        <ele>214.5</ele>
        <time>2020-06-28T16:00:39Z</time>
      </trkpt>
      <trkpt lat="48.73057" lon="7.40296">
        <ele>214.6</ele>
        <time>2020-06-28T16:00:40Z</time>
      </trkpt>
      <trkpt lat="48.7306" lon="7.40292">
        <ele>214.9</ele>
        <time>2020-06-28T16:00:41Z</time>
      </trkpt>
      <trkpt lat="48.73063" lon="7.40288">
        <ele>215.1</ele>
        <time>2020-06-28T16:00:42Z</time>
      </trkpt>
      <trkpt lat="48.73067" lon="7.40286">
        <ele>215.3</ele>
        <time>2020-06-28T16:00:43Z</time>
      </trkpt>
      <trkpt lat="48.73069" lon="7.40283">
        <ele>215.5</ele>
        <time>2020-06-28T16:00:44Z</time>
      </trkpt>
      <trkpt lat="48.73073" lon="7.40278">
        <ele>215.7</ele>
        <time>2020-06-28T16:00:45Z</time>
      </trkpt>
      <trkpt lat="48.73076" lon="7.40273">
        <ele>216</ele>
        <time>2020-06-28T16:00:46Z</time>
      </trkpt>
      <trkpt lat="48.7308" lon="7.40269">
        <ele>216.3</ele>
        <time>2020-06-28T16:00:47Z</time>
      </trkpt>
      <trkpt lat="48.73083" lon="7.40266">
        <ele>216.5</ele>
        <time>2020-06-28T16:00:48Z</time>
      </trkpt>
      <trkpt lat="48.73087" lon="7.40261">
        <ele>216.8</ele>
        <time>2020-06-28T16:00:49Z</time>
      </trkpt>
      <trkpt lat="48.73092" lon="7.40256">
        <ele>217.1</ele>
        <time>2020-06-28T16:00:50Z</time>
      </trkpt>
      <trkpt lat="48.73096" lon="7.40251">
        <ele>217.4</ele>
        <time>2020-06-28T16:00:51Z</time>
      </trkpt>
      <trkpt lat="48.731" lon="7.40247">
        <ele>217.6</ele>
        <time>2020-06-28T16:00:52Z</time>
      </trkpt>
      <trkpt lat="48.73103" lon="7.40243">
        <ele>217.8</ele>
        <time>2020-06-28T16:00:53Z</time>
      </trkpt>
      <trkpt lat="48.73105" lon="7.40238">
        <ele>217.9</ele>
        <time>2020-06-28T16:00:54Z</time>
      </trkpt>
      <trkpt lat="48.73109" lon="7.40235">
        <ele>218.1</ele>
        <time>2020-06-28T16:00:55Z</time>
      </trkpt>
      <trkpt lat="48.73112" lon="7.4023">
        <ele>218.2</ele>
        <time>2020-06-28T16:00:56Z</time>
      </trkpt>
      <trkpt lat="48.73116" lon="7.40226">
        <ele>218.4</ele>
        <time>2020-06-28T16:00:57Z</time>
      </trkpt>
      <trkpt lat="48.73119" lon="7.40222">
        <ele>218.6</ele>
        <time>2020-06-28T16:00:58Z</time>
      </trkpt>
      <trkpt lat="48.73122" lon="7.40219">
        <ele>218.8</ele>
        <time>2020-06-28T16:00:59Z</time>
      </trkpt>
      <trkpt lat="48.73125" lon="7.40215">
        <ele>218.9</ele>
        <time>2020-06-28T16:01:00Z</time>
      </trkpt>
      <trkpt lat="48.73128" lon="7.40211">
        <ele>219</ele>
        <time>2020-06-28T16:01:01Z</time>
      </trkpt>
      <trkpt lat="48.73132" lon="7.40207">
        <ele>219.2</ele>
        <time>2020-06-28T16:01:02Z</time>
      </trkpt>
      <trkpt lat="48.73135" lon="7.40203">
        <ele>219.3</ele>
        <time>2020-06-28T16:01:03Z</time>
      </trkpt>
      <trkpt lat="48.73139" lon="7.40199">
        <ele>219.4</ele>
        <time>2020-06-28T16:01:04Z</time>
      </trkpt>
      <trkpt lat="48.73143" lon="7.40195">
        <ele>219.5</ele>
        <time>2020-06-28T16:01:05Z</time>
      </trkpt>
      <trkpt lat="48.73146" lon="7.4019">
        <ele>219.5</ele>
        <time>2020-06-28T16:01:06Z</time>
      </trkpt>
      <trkpt lat="48.73149" lon="7.40185">
        <ele>219.6</ele>
        <time>2020-06-28T16:01:07Z</time>
      </trkpt>
      <trkpt lat="48.73153" lon="7.4018">
        <ele>219.6</ele>
        <time>2020-06-28T16:01:08Z</time>
      </trkpt>
      <trkpt lat="48.73156" lon="7.40175">
        <ele>219.6</ele>
        <time>2020-06-28T16:01:09Z</time>
      </trkpt>
      <trkpt lat="48.7316" lon="7.40171">
        <ele>219.6</ele>
        <time>2020-06-28T16:01:10Z</time>
      </trkpt>
      <trkpt lat="48.73164" lon="7.40167">
        <ele>219.5</ele>
        <time>2020-06-28T16:01:11Z</time>
      </trkpt>
      <trkpt lat="48.73168" lon="7.40164">
        <ele>219.4</ele>
        <time>2020-06-28T16:01:12Z</time>
      </trkpt>
      <trkpt lat="48.73173" lon="7.40159">
        <ele>219.3</ele>
        <time>2020-06-28T16:01:13Z</time>
      </trkpt>
      <trkpt lat="48.73176" lon="7.40155">
        <ele>219.2</ele>
        <time>2020-06-28T16:01:14Z</time>
      </trkpt>
      <trkpt lat="48.73181" lon="7.40152">
        <ele>219.1</ele>
        <time>2020-06-28T16:01:15Z</time>
      </trkpt>
      <trkpt lat="48.73185" lon="7.40147">
        <ele>218.9</ele>
        <time>2020-06-28T16:01:16Z</time>
      </trkpt>
      <trkpt lat="48.73188" lon="7.40142">
        <ele>218.7</ele>
        <time>2020-06-28T16:01:17Z</time>
      </trkpt>
      <trkpt lat="48.73191" lon="7.40137">
        <ele>218.6</ele>
        <time>2020-06-28T16:01:18Z</time>
      </trkpt>
      <trkpt lat="48.73196" lon="7.40131">
        <ele>218.4</ele>
        <time>2020-06-28T16:01:19Z</time>
      </trkpt>
      <trkpt lat="48.732" lon="7.40125">
        <ele>218.2</ele>
        <time>2020-06-28T16:01:20Z</time>
      </trkpt>
      <trkpt lat="48.73204" lon="7.40118">
        <ele>218</ele>
        <time>2020-06-28T16:01:21Z</time>
      </trkpt>
      <trkpt lat="48.73207" lon="7.40112">
        <ele>217.8</ele>
        <time>2020-06-28T16:01:22Z</time>
      </trkpt>
      <trkpt lat="48.73211" lon="7.40106">
        <ele>217.6</ele>
        <time>2020-06-28T16:01:23Z</time>
      </trkpt>
      <trkpt lat="48.73217" lon="7.40101">
        <ele>217.3</ele>
        <time>2020-06-28T16:01:24Z</time>
      </trkpt>
      <trkpt lat="48.73222" lon="7.40094">
        <ele>217.1</ele>
        <time>2020-06-28T16:01:25Z</time>
      </trkpt>
      <trkpt lat="48.73226" lon="7.40088">
        <ele>216.9</ele>
        <time>2020-06-28T16:01:26Z</time>
      </trkpt>
      <trkpt lat="48.73231" lon="7.40082">
        <ele>216.6</ele>
        <time>2020-06-28T16:01:27Z</time>
      </trkpt>
      <trkpt lat="48.73237" lon="7.40075">
        <ele>216.4</ele>
        <time>2020-06-28T16:01:28Z</time>
      </trkpt>
      <trkpt lat="48.73241" lon="7.40066">
        <ele>216.1</ele>
        <time>2020-06-28T16:01:29Z</time>
      </trkpt>
      <trkpt lat="48.73246" lon="7.4006">
        <ele>215.9</ele>
        <time>2020-06-28T16:01:30Z</time>
      </trkpt>
      <trkpt lat="48.73251" lon="7.40055">
        <ele>215.7</ele>
        <time>2020-06-28T16:01:31Z</time>
      </trkpt>
      <trkpt lat="48.73256" lon="7.40048">
        <ele>215.4</ele>
        <time>2020-06-28T16:01:32Z</time>
      </trkpt>
      <trkpt lat="48.7326" lon="7.40043">
        <ele>215.2</ele>
        <time>2020-06-28T16:01:33Z</time>
      </trkpt>
      <trkpt lat="48.73265" lon="7.40038">
        <ele>215</ele>
        <time>2020-06-28T16:01:34Z</time>
      </trkpt>
      <trkpt lat="48.7327" lon="7.40031">
        <ele>214.7</ele>
        <time>2020-06-28T16:01:35Z</time>
      </trkpt>
      <trkpt lat="48.73275" lon="7.40024">
        <ele>214.5</ele>
        <time>2020-06-28T16:01:36Z</time>
      </trkpt>
      <trkpt lat="48.7328" lon="7.40018">
        <ele>214.3</ele>
        <time>2020-06-28T16:01:37Z</time>
      </trkpt>
      <trkpt lat="48.73284" lon="7.4001">
        <ele>214</ele>
        <time>2020-06-28T16:01:38Z</time>
      </trkpt>
      <trkpt lat="48.73288" lon="7.40003">
        <ele>213.8</ele>
        <time>2020-06-28T16:01:39Z</time>
      </trkpt>
      <trkpt lat="48.73293" lon="7.39996">
        <ele>213.6</ele>
        <time>2020-06-28T16:01:40Z</time>
      </trkpt>
      <trkpt lat="48.73297" lon="7.3999">
        <ele>213.3</ele>
        <time>2020-06-28T16:01:41Z</time>
      </trkpt>
      <trkpt lat="48.73303" lon="7.39983">
        <ele>213.1</ele>
        <time>2020-06-28T16:01:42Z</time>
      </trkpt>
      <trkpt lat="48.73308" lon="7.39975">
        <ele>212.8</ele>
        <time>2020-06-28T16:01:43Z</time>
      </trkpt>
      <trkpt lat="48.73313" lon="7.39969">
        <ele>212.6</ele>
        <time>2020-06-28T16:01:44Z</time>
      </trkpt>
      <trkpt lat="48.73318" lon="7.39962">
        <ele>212.3</ele>
        <time>2020-06-28T16:01:45Z</time>
      </trkpt>
      <trkpt lat="48.73323" lon="7.39956">
        <ele>212.1</ele>
        <time>2020-06-28T16:01:46Z</time>
      </trkpt>
      <trkpt lat="48.73328" lon="7.39949">
        <ele>211.9</ele>
        <time>2020-06-28T16:01:47Z</time>
      </trkpt>
      <trkpt lat="48.73333" lon="7.39942">
        <ele>211.6</ele>
        <time>2020-06-28T16:01:48Z</time>
      </trkpt>
      <trkpt lat="48.73339" lon="7.39935">
        <ele>211.3</ele>
        <time>2020-06-28T16:01:49Z</time>
      </trkpt>
      <trkpt lat="48.73344" lon="7.39927">
        <ele>210.9</ele>
        <time>2020-06-28T16:01:50Z</time>
      </trkpt>
      <trkpt lat="48.73349" lon="7.3992">
        <ele>210.5</ele>
        <time>2020-06-28T16:01:51Z</time>
      </trkpt>
      <trkpt lat="48.73354" lon="7.39912">
        <ele>210.1</ele>
        <time>2020-06-28T16:01:52Z</time>
      </trkpt>
      <trkpt lat="48.73359" lon="7.39903">
        <ele>209.7</ele>
        <time>2020-06-28T16:01:53Z</time>
      </trkpt>
      <trkpt lat="48.73364" lon="7.39894">
        <ele>209.2</ele>
        <time>2020-06-28T16:01:54Z</time>
      </trkpt>
      <trkpt lat="48.73369" lon="7.39885">
        <ele>208.6</ele>
        <time>2020-06-28T16:01:55Z</time>
      </trkpt>
      <trkpt lat="48.73374" lon="7.39876">
        <ele>208.1</ele>
        <time>2020-06-28T16:01:56Z</time>
      </trkpt>
      <trkpt lat="48.73379" lon="7.39866">
        <ele>207.5</ele>
        <time>2020-06-28T16:01:57Z</time>
      </trkpt>
      <trkpt lat="48.73384" lon="7.39856">
        <ele>207</ele>
        <time>2020-06-28T16:01:58Z</time>
      </trkpt>
      <trkpt lat="48.73389" lon="7.39846">
        <ele>206.4</ele>
        <time>2020-06-28T16:01:59Z</time>
      </trkpt>
      <trkpt lat="48.73394" lon="7.39835">
        <ele>205.8</ele>
        <time>2020-06-28T16:02:00Z</time>
      </trkpt>
      <trkpt lat="48.734" lon="7.39825">
        <ele>205.2</ele>
        <time>2020-06-28T16:02:01Z</time>
      </trkpt>
      <trkpt lat="48.73405" lon="7.39814">
        <ele>204.7</ele>
        <time>2020-06-28T16:02:02Z</time>
      </trkpt>
      <trkpt lat="48.73411" lon="7.39803">
        <ele>204.1</ele>
        <time>2020-06-28T16:02:03Z</time>
      </trkpt>
      <trkpt lat="48.73416" lon="7.39793">
        <ele>203.6</ele>
        <time>2020-06-28T16:02:04Z</time>
      </trkpt>
      <trkpt lat="48.73422" lon="7.39782">
        <ele>203.1</ele>
        <time>2020-06-28T16:02:05Z</time>
      </trkpt>
      <trkpt lat="48.73427" lon="7.39772">
        <ele>202.6</ele>
        <time>2020-06-28T16:02:06Z</time>
      </trkpt>
      <trkpt lat="48.73432" lon="7.39762">
        <ele>202.1</ele>
        <time>2020-06-28T16:02:07Z</time>
      </trkpt>
      <trkpt lat="48.73438" lon="7.39752">
        <ele>201.6</ele>
        <time>2020-06-28T16:02:08Z</time>
      </trkpt>
      <trkpt lat="48.73443" lon="7.39742">
        <ele>201.2</ele>
        <time>2020-06-28T16:02:09Z</time>
      </trkpt>
      <trkpt lat="48.73448" lon="7.39731">
        <ele>200.2</ele>
        <time>2020-06-28T16:02:10Z</time>
      </trkpt>
      <trkpt lat="48.73454" lon="7.39721">
        <ele>200.2</ele>
        <time>2020-06-28T16:02:11Z</time>
      </trkpt>
      <trkpt lat="48.73459" lon="7.3971">
        <ele>199.9</ele>
        <time>2020-06-28T16:02:12Z</time>
      </trkpt>
      <trkpt lat="48.73465" lon="7.39699">
        <ele>199.7</ele>
        <time>2020-06-28T16:02:13Z</time>
      </trkpt>
      <trkpt lat="48.7347" lon="7.39688">
        <ele>199.6</ele>
        <time>2020-06-28T16:02:14Z</time>
      </trkpt>
      <trkpt lat="48.73475" lon="7.39677">
        <ele>199.2</ele>
        <time>2020-06-28T16:02:15Z</time>
      </trkpt>
      <trkpt lat="48.73481" lon="7.39667">
        <ele>198.7</ele>
        <time>2020-06-28T16:02:16Z</time>
      </trkpt>
      <trkpt lat="48.73486" lon="7.39656">
        <ele>198.4</ele>
        <time>2020-06-28T16:02:17Z</time>
      </trkpt>
      <trkpt lat="48.73491" lon="7.39646">
        <ele>198</ele>
        <time>2020-06-28T16:02:18Z</time>
      </trkpt>
      <trkpt lat="48.73495" lon="7.39634">
        <ele>197.7</ele>
        <time>2020-06-28T16:02:19Z</time>
      </trkpt>
      <trkpt lat="48.73499" lon="7.39623">
        <ele>197.3</ele>
        <time>2020-06-28T16:02:20Z</time>
      </trkpt>
      <trkpt lat="48.73503" lon="7.39612">
        <ele>197</ele>
        <time>2020-06-28T16:02:21Z</time>
      </trkpt>
      <trkpt lat="48.73508" lon="7.39601">
        <ele>196.6</ele>
        <time>2020-06-28T16:02:22Z</time>
      </trkpt>
      <trkpt lat="48.73512" lon="7.3959">
        <ele>196.3</ele>
        <time>2020-06-28T16:02:23Z</time>
      </trkpt>
      <trkpt lat="48.73516" lon="7.39578">
        <ele>195.9</ele>
        <time>2020-06-28T16:02:24Z</time>
      </trkpt>
      <trkpt lat="48.7352" lon="7.39566">
        <ele>195.5</ele>
        <time>2020-06-28T16:02:25Z</time>
      </trkpt>
      <trkpt lat="48.73524" lon="7.39555">
        <ele>195.2</ele>
        <time>2020-06-28T16:02:26Z</time>
      </trkpt>
      <trkpt lat="48.73528" lon="7.39544">
        <ele>194.8</ele>
        <time>2020-06-28T16:02:27Z</time>
      </trkpt>
      <trkpt lat="48.73532" lon="7.39534">
        <ele>194.3</ele>
        <time>2020-06-28T16:02:28Z</time>
      </trkpt>
      <trkpt lat="48.73537" lon="7.39523">
        <ele>193.9</ele>
        <time>2020-06-28T16:02:29Z</time>
      </trkpt>
      <trkpt lat="48.73541" lon="7.39512">
        <ele>193.5</ele>
        <time>2020-06-28T16:02:30Z</time>
      </trkpt>
      <trkpt lat="48.73545" lon="7.39501">
        <ele>193</ele>
        <time>2020-06-28T16:02:31Z</time>
      </trkpt>
      <trkpt lat="48.73549" lon="7.39489">
        <ele>192.6</ele>
        <time>2020-06-28T16:02:32Z</time>
      </trkpt>
      <trkpt lat="48.73552" lon="7.39477">
        <ele>192.1</ele>
        <time>2020-06-28T16:02:33Z</time>
      </trkpt>
      <trkpt lat="48.73556" lon="7.39465">
        <ele>191.7</ele>
        <time>2020-06-28T16:02:34Z</time>
      </trkpt>
      <trkpt lat="48.73561" lon="7.39453">
        <ele>191.2</ele>
        <time>2020-06-28T16:02:35Z</time>
      </trkpt>
      <trkpt lat="48.73565" lon="7.39442">
        <ele>190.8</ele>
        <time>2020-06-28T16:02:36Z</time>
      </trkpt>
      <trkpt lat="48.7357" lon="7.3943">
        <ele>190.3</ele>
        <time>2020-06-28T16:02:37Z</time>
      </trkpt>
      <trkpt lat="48.73574" lon="7.39419">
        <ele>189.8</ele>
        <time>2020-06-28T16:02:38Z</time>
      </trkpt>
      <trkpt lat="48.73579" lon="7.39408">
        <ele>189.4</ele>
        <time>2020-06-28T16:02:39Z</time>
      </trkpt>
      <trkpt lat="48.73583" lon="7.39397">
        <ele>189</ele>
        <time>2020-06-28T16:02:40Z</time>
      </trkpt>
      <trkpt lat="48.73587" lon="7.39386">
        <ele>188.6</ele>
        <time>2020-06-28T16:02:41Z</time>
      </trkpt>
      <trkpt lat="48.73592" lon="7.39375">
        <ele>188.2</ele>
        <time>2020-06-28T16:02:42Z</time>
      </trkpt>
      <trkpt lat="48.73596" lon="7.39364">
        <ele>187.9</ele>
        <time>2020-06-28T16:02:43Z</time>
      </trkpt>
      <trkpt lat="48.736" lon="7.39353">
        <ele>187.7</ele>
        <time>2020-06-28T16:02:44Z</time>
      </trkpt>
      <trkpt lat="48.73604" lon="7.39343">
        <ele>187.5</ele>
        <time>2020-06-28T16:02:45Z</time>
      </trkpt>
      <trkpt lat="48.73608" lon="7.39332">
        <ele>187.4</ele>
        <time>2020-06-28T16:02:46Z</time>
      </trkpt>
      <trkpt lat="48.73613" lon="7.39321">
        <ele>187.2</ele>
        <time>2020-06-28T16:02:47Z</time>
      </trkpt>
      <trkpt lat="48.73617" lon="7.3931">
        <ele>186.9</ele>
        <time>2020-06-28T16:02:48Z</time>
      </trkpt>
      <trkpt lat="48.73621" lon="7.39299">
        <ele>186.7</ele>
        <time>2020-06-28T16:02:49Z</time>
      </trkpt>
      <trkpt lat="48.73625" lon="7.39288">
        <ele>186.4</ele>
        <time>2020-06-28T16:02:50Z</time>
      </trkpt>
      <trkpt lat="48.73629" lon="7.39278">
        <ele>186.2</ele>
        <time>2020-06-28T16:02:51Z</time>
      </trkpt>
      <trkpt lat="48.73632" lon="7.39266">
        <ele>186</ele>
        <time>2020-06-28T16:02:52Z</time>
      </trkpt>
      <trkpt lat="48.73637" lon="7.39256">
        <ele>185.9</ele>
        <time>2020-06-28T16:02:53Z</time>
      </trkpt>
      <trkpt lat="48.7364" lon="7.39244">
        <ele>185.7</ele>
        <time>2020-06-28T16:02:54Z</time>
      </trkpt>
      <trkpt lat="48.73645" lon="7.39234">
        <ele>185.6</ele>
        <time>2020-06-28T16:02:55Z</time>
      </trkpt>
      <trkpt lat="48.73649" lon="7.39224">
        <ele>185.5</ele>
        <time>2020-06-28T16:02:56Z</time>
      </trkpt>
      <trkpt lat="48.73653" lon="7.39214">
        <ele>185.5</ele>
        <time>2020-06-28T16:02:57Z</time>
      </trkpt>
      <trkpt lat="48.73657" lon="7.39203">
        <ele>185.5</ele>
        <time>2020-06-28T16:02:58Z</time>
      </trkpt>
      <trkpt lat="48.7366" lon="7.39193">
        <ele>185.4</ele>
        <time>2020-06-28T16:02:59Z</time>
      </trkpt>
      <trkpt lat="48.73664" lon="7.39183">
        <ele>185.4</ele>
        <time>2020-06-28T16:03:00Z</time>
      </trkpt>
      <trkpt lat="48.73667" lon="7.39172">
        <ele>185.3</ele>
        <time>2020-06-28T16:03:01Z</time>
      </trkpt>
      <trkpt lat="48.73671" lon="7.39163">
        <ele>185.2</ele>
        <time>2020-06-28T16:03:02Z</time>
      </trkpt>
      <trkpt lat="48.73674" lon="7.39154">
        <ele>185.2</ele>
        <time>2020-06-28T16:03:03Z</time>
      </trkpt>
      <trkpt lat="48.73678" lon="7.39144">
        <ele>185.1</ele>
        <time>2020-06-28T16:03:04Z</time>
      </trkpt>
      <trkpt lat="48.73681" lon="7.39135">
        <ele>185</ele>
        <time>2020-06-28T16:03:05Z</time>
      </trkpt>
      <trkpt lat="48.73684" lon="7.39127">
        <ele>184.9</ele>
        <time>2020-06-28T16:03:06Z</time>
      </trkpt>
      <trkpt lat="48.73689" lon="7.39119">
        <ele>184.9</ele>
        <time>2020-06-28T16:03:07Z</time>
      </trkpt>
      <trkpt lat="48.73692" lon="7.39109">
        <ele>184.8</ele>
        <time>2020-06-28T16:03:08Z</time>
      </trkpt>
      <trkpt lat="48.73695" lon="7.39099">
        <ele>184.8</ele>
        <time>2020-06-28T16:03:09Z</time>
      </trkpt>
      <trkpt lat="48.73698" lon="7.3909">
        <ele>184.8</ele>
        <time>2020-06-28T16:03:10Z</time>
      </trkpt>
      <trkpt lat="48.737" lon="7.39081">
        <ele>184.9</ele>
        <time>2020-06-28T16:03:11Z</time>
      </trkpt>
      <trkpt lat="48.73703" lon="7.39072">
        <ele>184.9</ele>
        <time>2020-06-28T16:03:12Z</time>
      </trkpt>
      <trkpt lat="48.73707" lon="7.39063">
        <ele>185</ele>
        <time>2020-06-28T16:03:13Z</time>
      </trkpt>
      <trkpt lat="48.73711" lon="7.39054">
        <ele>185.1</ele>
        <time>2020-06-28T16:03:14Z</time>
      </trkpt>
      <trkpt lat="48.73715" lon="7.39047">
        <ele>185.2</ele>
        <time>2020-06-28T16:03:15Z</time>
      </trkpt>
      <trkpt lat="48.73719" lon="7.39039">
        <ele>185.3</ele>
        <time>2020-06-28T16:03:16Z</time>
      </trkpt>
      <trkpt lat="48.73724" lon="7.39032">
        <ele>185.3</ele>
        <time>2020-06-28T16:03:17Z</time>
      </trkpt>
      <trkpt lat="48.73728" lon="7.39026">
        <ele>185.4</ele>
        <time>2020-06-28T16:03:18Z</time>
      </trkpt>
      <trkpt lat="48.73731" lon="7.39019">
        <ele>185.5</ele>
        <time>2020-06-28T16:03:19Z</time>
      </trkpt>
      <trkpt lat="48.73735" lon="7.39012">
        <ele>185.5</ele>
        <time>2020-06-28T16:03:20Z</time>
      </trkpt>
      <trkpt lat="48.73738" lon="7.39006">
        <ele>185.6</ele>
        <time>2020-06-28T16:03:21Z</time>
      </trkpt>
      <trkpt lat="48.73742" lon="7.39001">
        <ele>185.7</ele>
        <time>2020-06-28T16:03:22Z</time>
      </trkpt>
      <trkpt lat="48.73745" lon="7.38996">
        <ele>185.9</ele>
        <time>2020-06-28T16:03:23Z</time>
      </trkpt>
      <trkpt lat="48.73748" lon="7.38991">
        <ele>186</ele>
        <time>2020-06-28T16:03:24Z</time>
      </trkpt>
      <trkpt lat="48.73752" lon="7.38986">
        <ele>186.2</ele>
        <time>2020-06-28T16:03:25Z</time>
      </trkpt>
      <trkpt lat="48.73755" lon="7.38982">
        <ele>186.4</ele>
        <time>2020-06-28T16:03:26Z</time>
      </trkpt>
      <trkpt lat="48.73758" lon="7.38977">
        <ele>186.6</ele>
        <time>2020-06-28T16:03:27Z</time>
      </trkpt>
      <trkpt lat="48.7376" lon="7.38972">
        <ele>186.8</ele>
        <time>2020-06-28T16:03:28Z</time>
      </trkpt>
      <trkpt lat="48.73763" lon="7.38967">
        <ele>187</ele>
        <time>2020-06-28T16:03:29Z</time>
      </trkpt>
      <trkpt lat="48.73766" lon="7.38962">
        <ele>187.2</ele>
        <time>2020-06-28T16:03:30Z</time>
      </trkpt>
      <trkpt lat="48.73768" lon="7.38957">
        <ele>187.5</ele>
        <time>2020-06-28T16:03:31Z</time>
      </trkpt>
      <trkpt lat="48.73771" lon="7.38952">
        <ele>187.7</ele>
        <time>2020-06-28T16:03:32Z</time>
      </trkpt>
      <trkpt lat="48.73774" lon="7.38948">
        <ele>187.9</ele>
        <time>2020-06-28T16:03:33Z</time>
      </trkpt>
      <trkpt lat="48.73777" lon="7.38944">
        <ele>188.2</ele>
        <time>2020-06-28T16:03:34Z</time>
      </trkpt>
      <trkpt lat="48.7378" lon="7.38941">
        <ele>188.4</ele>
        <time>2020-06-28T16:03:35Z</time>
      </trkpt>
      <trkpt lat="48.73784" lon="7.38938">
        <ele>188.6</ele>
        <time>2020-06-28T16:03:36Z</time>
      </trkpt>
      <trkpt lat="48.73786" lon="7.38934">
        <ele>188.9</ele>
        <time>2020-06-28T16:03:37Z</time>
      </trkpt>
      <trkpt lat="48.73789" lon="7.38931">
        <ele>189.1</ele>
        <time>2020-06-28T16:03:38Z</time>
      </trkpt>
      <trkpt lat="48.73792" lon="7.38926">
        <ele>189.3</ele>
        <time>2020-06-28T16:03:39Z</time>
      </trkpt>
      <trkpt lat="48.73794" lon="7.38921">
        <ele>189.6</ele>
        <time>2020-06-28T16:03:40Z</time>
      </trkpt>
      <trkpt lat="48.73797" lon="7.38917">
        <ele>189.8</ele>
        <time>2020-06-28T16:03:41Z</time>
      </trkpt>
      <trkpt lat="48.738" lon="7.38912">
        <ele>190.1</ele>
        <time>2020-06-28T16:03:42Z</time>
      </trkpt>
      <trkpt lat="48.73803" lon="7.38908">
        <ele>190.3</ele>
        <time>2020-06-28T16:03:43Z</time>
      </trkpt>
      <trkpt lat="48.73806" lon="7.38904">
        <ele>190.6</ele>
        <time>2020-06-28T16:03:44Z</time>
      </trkpt>
      <trkpt lat="48.73809" lon="7.389">
        <ele>190.8</ele>
        <time>2020-06-28T16:03:45Z</time>
      </trkpt>
      <trkpt lat="48.73811" lon="7.38897">
        <ele>191</ele>
        <time>2020-06-28T16:03:46Z</time>
      </trkpt>
      <trkpt lat="48.73814" lon="7.38891">
        <ele>191.3</ele>
        <time>2020-06-28T16:03:47Z</time>
      </trkpt>
      <trkpt lat="48.73817" lon="7.38887">
        <ele>191.5</ele>
        <time>2020-06-28T16:03:48Z</time>
      </trkpt>
      <trkpt lat="48.7382" lon="7.38882">
        <ele>191.8</ele>
        <time>2020-06-28T16:03:49Z</time>
      </trkpt>
      <trkpt lat="48.73823" lon="7.38878">
        <ele>192</ele>
        <time>2020-06-28T16:03:50Z</time>
      </trkpt>
      <trkpt lat="48.73826" lon="7.38873">
        <ele>192.3</ele>
        <time>2020-06-28T16:03:51Z</time>
      </trkpt>
      <trkpt lat="48.73829" lon="7.38869">
        <ele>192.5</ele>
        <time>2020-06-28T16:03:52Z</time>
      </trkpt>
      <trkpt lat="48.73831" lon="7.38864">
        <ele>192.7</ele>
        <time>2020-06-28T16:03:53Z</time>
      </trkpt>
      <trkpt lat="48.73834" lon="7.3886">
        <ele>192.9</ele>
        <time>2020-06-28T16:03:54Z</time>
      </trkpt>
      <trkpt lat="48.73837" lon="7.38856">
        <ele>193.1</ele>
        <time>2020-06-28T16:03:55Z</time>
      </trkpt>
      <trkpt lat="48.7384" lon="7.38853">
        <ele>193.3</ele>
        <time>2020-06-28T16:03:56Z</time>
      </trkpt>
      <trkpt lat="48.73842" lon="7.38851">
        <ele>193.4</ele>
        <time>2020-06-28T16:03:57Z</time>
      </trkpt>
      <trkpt lat="48.73845" lon="7.38847">
        <ele>193.7</ele>
        <time>2020-06-28T16:03:58Z</time>
      </trkpt>
      <trkpt lat="48.73848" lon="7.38843">
        <ele>193.9</ele>
        <time>2020-06-28T16:03:59Z</time>
      </trkpt>
      <trkpt lat="48.73851" lon="7.38841">
        <ele>194</ele>
        <time>2020-06-28T16:04:00Z</time>
      </trkpt>
      <trkpt lat="48.73854" lon="7.38835">
        <ele>194.3</ele>
        <time>2020-06-28T16:04:01Z</time>
      </trkpt>
      <trkpt lat="48.73856" lon="7.38832">
        <ele>194.5</ele>
        <time>2020-06-28T16:04:02Z</time>
      </trkpt>
      <trkpt lat="48.73859" lon="7.38827">
        <ele>194.8</ele>
        <time>2020-06-28T16:04:03Z</time>
      </trkpt>
      <trkpt lat="48.73863" lon="7.38821">
        <ele>195</ele>
        <time>2020-06-28T16:04:04Z</time>
      </trkpt>
      <trkpt lat="48.73866" lon="7.38817">
        <ele>195.2</ele>
        <time>2020-06-28T16:04:05Z</time>
      </trkpt>
      <trkpt lat="48.73868" lon="7.38814">
        <ele>195.4</ele>
        <time>2020-06-28T16:04:06Z</time>
      </trkpt>
      <trkpt lat="48.73871" lon="7.3881">
        <ele>195.6</ele>
        <time>2020-06-28T16:04:07Z</time>
      </trkpt>
      <trkpt lat="48.73873" lon="7.38805">
        <ele>195.8</ele>
        <time>2020-06-28T16:04:08Z</time>
      </trkpt>
      <trkpt lat="48.73877" lon="7.388">
        <ele>196</ele>
        <time>2020-06-28T16:04:09Z</time>
      </trkpt>
      <trkpt lat="48.73879" lon="7.38796">
        <ele>196.2</ele>
        <time>2020-06-28T16:04:10Z</time>
      </trkpt>
      <trkpt lat="48.73882" lon="7.3879">
        <ele>196.4</ele>
        <time>2020-06-28T16:04:11Z</time>
      </trkpt>
      <trkpt lat="48.73884" lon="7.38787">
        <ele>196.5</ele>
        <time>2020-06-28T16:04:12Z</time>
      </trkpt>
      <trkpt lat="48.73887" lon="7.38783">
        <ele>196.7</ele>
        <time>2020-06-28T16:04:13Z</time>
      </trkpt>
      <trkpt lat="48.73889" lon="7.38779">
        <ele>196.9</ele>
        <time>2020-06-28T16:04:14Z</time>
      </trkpt>
      <trkpt lat="48.73892" lon="7.38776">
        <ele>197</ele>
        <time>2020-06-28T16:04:15Z</time>
      </trkpt>
      <trkpt lat="48.73895" lon="7.38771">
        <ele>197.2</ele>
        <time>2020-06-28T16:04:16Z</time>
      </trkpt>
      <trkpt lat="48.73898" lon="7.38766">
        <ele>197.4</ele>
        <time>2020-06-28T16:04:17Z</time>
      </trkpt>
      <trkpt lat="48.73901" lon="7.38762">
        <ele>197.6</ele>
        <time>2020-06-28T16:04:18Z</time>
      </trkpt>
      <trkpt lat="48.73905" lon="7.38758">
        <ele>197.8</ele>
        <time>2020-06-28T16:04:19Z</time>
      </trkpt>
      <trkpt lat="48.73908" lon="7.38753">
        <ele>197.9</ele>
        <time>2020-06-28T16:04:20Z</time>
      </trkpt>
      <trkpt lat="48.73911" lon="7.38749">
        <ele>198.1</ele>
        <time>2020-06-28T16:04:21Z</time>
      </trkpt>
      <trkpt lat="48.73915" lon="7.38745">
        <ele>198.2</ele>
        <time>2020-06-28T16:04:22Z</time>
      </trkpt>
      <trkpt lat="48.73917" lon="7.3874">
        <ele>198.3</ele>
        <time>2020-06-28T16:04:23Z</time>
      </trkpt>
      <trkpt lat="48.73919" lon="7.38736">
        <ele>198.5</ele>
        <time>2020-06-28T16:04:24Z</time>
      </trkpt>
      <trkpt lat="48.73923" lon="7.38731">
        <ele>198.6</ele>
        <time>2020-06-28T16:04:25Z</time>
      </trkpt>
      <trkpt lat="48.73926" lon="7.38727">
        <ele>198.7</ele>
        <time>2020-06-28T16:04:26Z</time>
      </trkpt>
      <trkpt lat="48.73929" lon="7.38724">
        <ele>198.8</ele>
        <time>2020-06-28T16:04:27Z</time>
      </trkpt>
      <trkpt lat="48.73932" lon="7.38719">
        <ele>198.9</ele>
        <time>2020-06-28T16:04:28Z</time>
      </trkpt>
      <trkpt lat="48.73935" lon="7.38714">
        <ele>199.1</ele>
        <time>2020-06-28T16:04:29Z</time>
      </trkpt>
      <trkpt lat="48.73938" lon="7.3871">
        <ele>199.2</ele>
        <time>2020-06-28T16:04:30Z</time>
      </trkpt>
      <trkpt lat="48.7394" lon="7.38706">
        <ele>199.3</ele>
        <time>2020-06-28T16:04:31Z</time>
      </trkpt>
      <trkpt lat="48.73943" lon="7.38701">
        <ele>199.4</ele>
        <time>2020-06-28T16:04:32Z</time>
      </trkpt>
      <trkpt lat="48.73945" lon="7.38698">
        <ele>199.5</ele>
        <time>2020-06-28T16:04:33Z</time>
      </trkpt>
      <trkpt lat="48.73949" lon="7.38694">
        <ele>199.5</ele>
        <time>2020-06-28T16:04:34Z</time>
      </trkpt>
      <trkpt lat="48.73951" lon="7.38689">
        <ele>199.7</ele>
        <time>2020-06-28T16:04:35Z</time>
      </trkpt>
      <trkpt lat="48.73954" lon="7.38685">
        <ele>199.8</ele>
        <time>2020-06-28T16:04:36Z</time>
      </trkpt>
      <trkpt lat="48.73957" lon="7.38681">
        <ele>199.9</ele>
        <time>2020-06-28T16:04:37Z</time>
      </trkpt>
      <trkpt lat="48.7396" lon="7.38677">
        <ele>200</ele>
        <time>2020-06-28T16:04:38Z</time>
      </trkpt>
      <trkpt lat="48.73963" lon="7.38674">
        <ele>200.1</ele>
        <time>2020-06-28T16:04:39Z</time>
      </trkpt>
      <trkpt lat="48.73965" lon="7.38669">
        <ele>200.2</ele>
        <time>2020-06-28T16:04:40Z</time>
      </trkpt>
      <trkpt lat="48.73968" lon="7.38665">
        <ele>200.3</ele>
        <time>2020-06-28T16:04:41Z</time>
      </trkpt>
      <trkpt lat="48.7397" lon="7.38662">
        <ele>200.4</ele>
        <time>2020-06-28T16:04:42Z</time>
      </trkpt>
      <trkpt lat="48.73974" lon="7.38658">
        <ele>200.5</ele>
        <time>2020-06-28T16:04:43Z</time>
      </trkpt>
      <trkpt lat="48.73978" lon="7.38654">
        <ele>200.6</ele>
        <time>2020-06-28T16:04:44Z</time>
      </trkpt>
      <trkpt lat="48.73981" lon="7.38651">
        <ele>200.8</ele>
        <time>2020-06-28T16:04:45Z</time>
      </trkpt>
      <trkpt lat="48.73983" lon="7.38647">
        <ele>200.9</ele>
        <time>2020-06-28T16:04:46Z</time>
      </trkpt>
      <trkpt lat="48.73986" lon="7.38643">
        <ele>201</ele>
        <time>2020-06-28T16:04:47Z</time>
      </trkpt>
      <trkpt lat="48.73988" lon="7.3864">
        <ele>201.1</ele>
        <time>2020-06-28T16:04:48Z</time>
      </trkpt>
      <trkpt lat="48.73991" lon="7.38636">
        <ele>201.2</ele>
        <time>2020-06-28T16:04:49Z</time>
      </trkpt>
      <trkpt lat="48.73994" lon="7.38632">
        <ele>201.3</ele>
        <time>2020-06-28T16:04:50Z</time>
      </trkpt>
      <trkpt lat="48.73998" lon="7.38626">
        <ele>201.5</ele>
        <time>2020-06-28T16:04:51Z</time>
      </trkpt>
      <trkpt lat="48.74001" lon="7.38622">
        <ele>201.6</ele>
        <time>2020-06-28T16:04:52Z</time>
      </trkpt>
      <trkpt lat="48.74003" lon="7.38619">
        <ele>201.7</ele>
        <time>2020-06-28T16:04:53Z</time>
      </trkpt>
      <trkpt lat="48.74006" lon="7.38615">
        <ele>201.8</ele>
        <time>2020-06-28T16:04:54Z</time>
      </trkpt>
      <trkpt lat="48.74009" lon="7.38612">
        <ele>202</ele>
        <time>2020-06-28T16:04:55Z</time>
      </trkpt>
      <trkpt lat="48.74011" lon="7.38607">
        <ele>202.1</ele>
        <time>2020-06-28T16:04:56Z</time>
      </trkpt>
      <trkpt lat="48.74014" lon="7.38603">
        <ele>202.2</ele>
        <time>2020-06-28T16:04:57Z</time>
      </trkpt>
      <trkpt lat="48.74016" lon="7.38601">
        <ele>202.3</ele>
        <time>2020-06-28T16:04:58Z</time>
      </trkpt>
      <trkpt lat="48.74018" lon="7.38597">
        <ele>202.4</ele>
        <time>2020-06-28T16:04:59Z</time>
      </trkpt>
      <trkpt lat="48.7402" lon="7.38593">
        <ele>202.5</ele>
        <time>2020-06-28T16:05:00Z</time>
      </trkpt>
      <trkpt lat="48.74022" lon="7.38589">
        <ele>202.6</ele>
        <time>2020-06-28T16:05:01Z</time>
      </trkpt>
      <trkpt lat="48.74023" lon="7.38584">
        <ele>202.7</ele>
        <time>2020-06-28T16:05:02Z</time>
      </trkpt>
      <trkpt lat="48.74026" lon="7.3858">
        <ele>202.8</ele>
        <time>2020-06-28T16:05:03Z</time>
      </trkpt>
      <trkpt lat="48.74028" lon="7.38577">
        <ele>202.9</ele>
        <time>2020-06-28T16:05:04Z</time>
      </trkpt>
      <trkpt lat="48.74031" lon="7.38574">
        <ele>203</ele>
        <time>2020-06-28T16:05:05Z</time>
      </trkpt>
      <trkpt lat="48.74033" lon="7.38571">
        <ele>203.1</ele>
        <time>2020-06-28T16:05:06Z</time>
      </trkpt>
      <trkpt lat="48.74036" lon="7.38567">
        <ele>203.2</ele>
        <time>2020-06-28T16:05:07Z</time>
      </trkpt>
      <trkpt lat="48.74038" lon="7.38563">
        <ele>203.3</ele>
        <time>2020-06-28T16:05:08Z</time>
      </trkpt>
      <trkpt lat="48.74039" lon="7.38557">
        <ele>203.4</ele>
        <time>2020-06-28T16:05:09Z</time>
      </trkpt>
      <trkpt lat="48.74042" lon="7.38552">
        <ele>203.5</ele>
        <time>2020-06-28T16:05:10Z</time>
      </trkpt>
      <trkpt lat="48.74044" lon="7.38546">
        <ele>203.7</ele>
        <time>2020-06-28T16:05:11Z</time>
      </trkpt>
      <trkpt lat="48.74046" lon="7.38541">
        <ele>203.8</ele>
        <time>2020-06-28T16:05:12Z</time>
      </trkpt>
      <trkpt lat="48.74048" lon="7.38537">
        <ele>203.8</ele>
        <time>2020-06-28T16:05:13Z</time>
      </trkpt>
      <trkpt lat="48.74051" lon="7.38533">
        <ele>203.9</ele>
        <time>2020-06-28T16:05:14Z</time>
      </trkpt>
      <trkpt lat="48.74053" lon="7.3853">
        <ele>204</ele>
        <time>2020-06-28T16:05:15Z</time>
      </trkpt>
      <trkpt lat="48.74055" lon="7.38527">
        <ele>204.1</ele>
        <time>2020-06-28T16:05:16Z</time>
      </trkpt>
      <trkpt lat="48.74058" lon="7.38523">
        <ele>204.1</ele>
        <time>2020-06-28T16:05:17Z</time>
      </trkpt>
      <trkpt lat="48.7406" lon="7.38518">
        <ele>204.2</ele>
        <time>2020-06-28T16:05:18Z</time>
      </trkpt>
      <trkpt lat="48.74061" lon="7.38514">
        <ele>204.3</ele>
        <time>2020-06-28T16:05:19Z</time>
      </trkpt>
      <trkpt lat="48.74064" lon="7.38509">
        <ele>204.4</ele>
        <time>2020-06-28T16:05:20Z</time>
      </trkpt>
      <trkpt lat="48.74066" lon="7.38505">
        <ele>204.5</ele>
        <time>2020-06-28T16:05:21Z</time>
      </trkpt>
      <trkpt lat="48.74068" lon="7.38501">
        <ele>204.5</ele>
        <time>2020-06-28T16:05:22Z</time>
      </trkpt>
      <trkpt lat="48.74071" lon="7.38495">
        <ele>204.6</ele>
        <time>2020-06-28T16:05:23Z</time>
      </trkpt>
      <trkpt lat="48.74073" lon="7.38491">
        <ele>204.7</ele>
        <time>2020-06-28T16:05:24Z</time>
      </trkpt>
      <trkpt lat="48.74075" lon="7.38487">
        <ele>204.8</ele>
        <time>2020-06-28T16:05:25Z</time>
      </trkpt>
      <trkpt lat="48.74078" lon="7.38485">
        <ele>205</ele>
        <time>2020-06-28T16:05:26Z</time>
      </trkpt>
      <trkpt lat="48.74082" lon="7.38485">
        <ele>205.1</ele>
        <time>2020-06-28T16:05:27Z</time>
      </trkpt>
      <trkpt lat="48.74086" lon="7.38486">
        <ele>205.2</ele>
        <time>2020-06-28T16:05:28Z</time>
      </trkpt>
      <trkpt lat="48.74091" lon="7.38486">
        <ele>205.2</ele>
        <time>2020-06-28T16:05:29Z</time>
      </trkpt>
      <trkpt lat="48.74094" lon="7.38485">
        <ele>205.2</ele>
        <time>2020-06-28T16:05:30Z</time>
      </trkpt>
      <trkpt lat="48.74099" lon="7.38483">
        <ele>205.2</ele>
        <time>2020-06-28T16:05:31Z</time>
      </trkpt>
      <trkpt lat="48.74103" lon="7.38481">
        <ele>205.1</ele>
        <time>2020-06-28T16:05:32Z</time>
      </trkpt>
      <trkpt lat="48.74106" lon="7.38478">
        <ele>205.1</ele>
        <time>2020-06-28T16:05:33Z</time>
      </trkpt>
      <trkpt lat="48.7411" lon="7.38476">
        <ele>205.1</ele>
        <time>2020-06-28T16:05:34Z</time>
      </trkpt>
      <trkpt lat="48.74113" lon="7.38471">
        <ele>205.1</ele>
        <time>2020-06-28T16:05:35Z</time>
      </trkpt>
      <trkpt lat="48.74117" lon="7.38465">
        <ele>205.1</ele>
        <time>2020-06-28T16:05:36Z</time>
      </trkpt>
      <trkpt lat="48.74119" lon="7.3846">
        <ele>205.2</ele>
        <time>2020-06-28T16:05:37Z</time>
      </trkpt>
      <trkpt lat="48.7412" lon="7.38453">
        <ele>205.2</ele>
        <time>2020-06-28T16:05:38Z</time>
      </trkpt>
      <trkpt lat="48.74121" lon="7.38447">
        <ele>205.2</ele>
        <time>2020-06-28T16:05:39Z</time>
      </trkpt>
      <trkpt lat="48.74121" lon="7.3844">
        <ele>205.2</ele>
        <time>2020-06-28T16:05:40Z</time>
      </trkpt>
      <trkpt lat="48.7412" lon="7.38434">
        <ele>205.3</ele>
        <time>2020-06-28T16:05:41Z</time>
      </trkpt>
      <trkpt lat="48.74119" lon="7.38428">
        <ele>205.2</ele>
        <time>2020-06-28T16:05:42Z</time>
      </trkpt>
      <trkpt lat="48.74117" lon="7.38422">
        <ele>205.1</ele>
        <time>2020-06-28T16:05:43Z</time>
      </trkpt>
      <trkpt lat="48.74114" lon="7.38417">
        <ele>205.1</ele>
        <time>2020-06-28T16:05:44Z</time>
      </trkpt>
      <trkpt lat="48.74111" lon="7.38412">
        <ele>205.1</ele>
        <time>2020-06-28T16:05:45Z</time>
      </trkpt>
      <trkpt lat="48.74108" lon="7.38406">
        <ele>205</ele>
        <time>2020-06-28T16:05:46Z</time>
      </trkpt>
      <trkpt lat="48.74104" lon="7.38399">
        <ele>205</ele>
        <time>2020-06-28T16:05:47Z</time>
      </trkpt>
      <trkpt lat="48.74102" lon="7.38392">
        <ele>205</ele>
        <time>2020-06-28T16:05:48Z</time>
      </trkpt>
      <trkpt lat="48.74102" lon="7.38385">
        <ele>205</ele>
        <time>2020-06-28T16:05:49Z</time>
      </trkpt>
      <trkpt lat="48.74101" lon="7.38378">
        <ele>205</ele>
        <time>2020-06-28T16:05:50Z</time>
      </trkpt>
      <trkpt lat="48.74101" lon="7.38372">
        <ele>205</ele>
        <time>2020-06-28T16:05:51Z</time>
      </trkpt>
      <trkpt lat="48.74101" lon="7.38366">
        <ele>205.1</ele>
        <time>2020-06-28T16:05:52Z</time>
      </trkpt>
      <trkpt lat="48.74102" lon="7.38361">
        <ele>205.2</ele>
        <time>2020-06-28T16:05:53Z</time>
      </trkpt>
      <trkpt lat="48.74102" lon="7.38354">
        <ele>205.4</ele>
        <time>2020-06-28T16:05:54Z</time>
      </trkpt>
      <trkpt lat="48.74102" lon="7.38348">
        <ele>205.5</ele>
        <time>2020-06-28T16:05:55Z</time>
      </trkpt>
      <trkpt lat="48.74101" lon="7.38342">
        <ele>205.7</ele>
        <time>2020-06-28T16:05:56Z</time>
      </trkpt>
      <trkpt lat="48.74101" lon="7.38337">
        <ele>205.8</ele>
        <time>2020-06-28T16:05:57Z</time>
      </trkpt>
      <trkpt lat="48.74102" lon="7.38331">
        <ele>206</ele>
        <time>2020-06-28T16:05:58Z</time>
      </trkpt>
      <trkpt lat="48.74102" lon="7.38326">
        <ele>206.2</ele>
        <time>2020-06-28T16:05:59Z</time>
      </trkpt>
      <trkpt lat="48.74101" lon="7.38318">
        <ele>206.6</ele>
        <time>2020-06-28T16:06:00Z</time>
      </trkpt>
      <trkpt lat="48.74102" lon="7.38312">
        <ele>206.7</ele>
        <time>2020-06-28T16:06:01Z</time>
      </trkpt>
      <trkpt lat="48.74103" lon="7.38307">
        <ele>206.9</ele>
        <time>2020-06-28T16:06:02Z</time>
      </trkpt>
      <trkpt lat="48.74103" lon="7.38302">
        <ele>207.1</ele>
        <time>2020-06-28T16:06:03Z</time>
      </trkpt>
      <trkpt lat="48.74103" lon="7.38297">
        <ele>207.2</ele>
        <time>2020-06-28T16:06:04Z</time>
      </trkpt>
      <trkpt lat="48.74103" lon="7.38292">
        <ele>207.3</ele>
        <time>2020-06-28T16:06:05Z</time>
      </trkpt>
      <trkpt lat="48.74104" lon="7.38288">
        <ele>207.5</ele>
        <time>2020-06-28T16:06:06Z</time>
      </trkpt>
      <trkpt lat="48.74104" lon="7.38282">
        <ele>207.7</ele>
        <time>2020-06-28T16:06:07Z</time>
      </trkpt>
      <trkpt lat="48.74104" lon="7.38278">
        <ele>207.8</ele>
        <time>2020-06-28T16:06:08Z</time>
      </trkpt>
      <trkpt lat="48.74105" lon="7.38273">
        <ele>208</ele>
        <time>2020-06-28T16:06:09Z</time>
      </trkpt>
      <trkpt lat="48.74105" lon="7.38271">
        <ele>208.1</ele>
        <time>2020-06-28T16:06:10Z</time>
      </trkpt>
      <trkpt lat="48.74105" lon="7.38266">
        <ele>208.2</ele>
        <time>2020-06-28T16:06:11Z</time>
      </trkpt>
      <trkpt lat="48.74105" lon="7.3826">
        <ele>208.4</ele>
        <time>2020-06-28T16:06:12Z</time>
      </trkpt>
      <trkpt lat="48.74105" lon="7.38255">
        <ele>208.6</ele>
        <time>2020-06-28T16:06:13Z</time>
      </trkpt>
      <trkpt lat="48.74106" lon="7.38251">
        <ele>208.7</ele>
        <time>2020-06-28T16:06:14Z</time>
      </trkpt>
      <trkpt lat="48.74107" lon="7.38246">
        <ele>208.8</ele>
        <time>2020-06-28T16:06:15Z</time>
      </trkpt>
      <trkpt lat="48.74107" lon="7.3824">
        <ele>209</ele>
        <time>2020-06-28T16:06:16Z</time>
      </trkpt>
      <trkpt lat="48.74107" lon="7.38235">
        <ele>209.1</ele>
        <time>2020-06-28T16:06:17Z</time>
      </trkpt>
      <trkpt lat="48.74107" lon="7.3823">
        <ele>209.2</ele>
        <time>2020-06-28T16:06:18Z</time>
      </trkpt>
      <trkpt lat="48.74107" lon="7.38223">
        <ele>209.3</ele>
        <time>2020-06-28T16:06:19Z</time>
      </trkpt>
      <trkpt lat="48.74108" lon="7.38217">
        <ele>209.4</ele>
        <time>2020-06-28T16:06:20Z</time>
      </trkpt>
      <trkpt lat="48.74107" lon="7.3821">
        <ele>209.5</ele>
        <time>2020-06-28T16:06:21Z</time>
      </trkpt>
      <trkpt lat="48.74107" lon="7.38204">
        <ele>209.5</ele>
        <time>2020-06-28T16:06:22Z</time>
      </trkpt>
      <trkpt lat="48.74107" lon="7.38198">
        <ele>209.6</ele>
        <time>2020-06-28T16:06:23Z</time>
      </trkpt>
      <trkpt lat="48.74106" lon="7.38192">
        <ele>209.6</ele>
        <time>2020-06-28T16:06:24Z</time>
      </trkpt>
      <trkpt lat="48.74106" lon="7.38186">
        <ele>209.6</ele>
        <time>2020-06-28T16:06:25Z</time>
      </trkpt>
      <trkpt lat="48.74106" lon="7.3818">
        <ele>209.6</ele>
        <time>2020-06-28T16:06:26Z</time>
      </trkpt>
      <trkpt lat="48.74106" lon="7.38173">
        <ele>209.7</ele>
        <time>2020-06-28T16:06:27Z</time>
      </trkpt>
      <trkpt lat="48.74107" lon="7.38167">
        <ele>209.7</ele>
        <time>2020-06-28T16:06:28Z</time>
      </trkpt>
      <trkpt lat="48.74107" lon="7.38161">
        <ele>209.7</ele>
        <time>2020-06-28T16:06:29Z</time>
      </trkpt>
      <trkpt lat="48.74107" lon="7.38155">
        <ele>209.7</ele>
        <time>2020-06-28T16:06:30Z</time>
      </trkpt>
      <trkpt lat="48.74108" lon="7.38149">
        <ele>209.7</ele>
        <time>2020-06-28T16:06:31Z</time>
      </trkpt>
      <trkpt lat="48.74108" lon="7.38143">
        <ele>209.7</ele>
        <time>2020-06-28T16:06:32Z</time>
      </trkpt>
      <trkpt lat="48.74107" lon="7.38137">
        <ele>209.7</ele>
        <time>2020-06-28T16:06:33Z</time>
      </trkpt>
      <trkpt lat="48.74108" lon="7.38131">
        <ele>209.6</ele>
        <time>2020-06-28T16:06:34Z</time>
      </trkpt>
      <trkpt lat="48.74108" lon="7.38125">
        <ele>209.6</ele>
        <time>2020-06-28T16:06:35Z</time>
      </trkpt>
      <trkpt lat="48.7411" lon="7.38118">
        <ele>209.6</ele>
        <time>2020-06-28T16:06:36Z</time>
      </trkpt>
      <trkpt lat="48.7411" lon="7.38111">
        <ele>209.5</ele>
        <time>2020-06-28T16:06:37Z</time>
      </trkpt>
      <trkpt lat="48.74111" lon="7.38104">
        <ele>209.4</ele>
        <time>2020-06-28T16:06:38Z</time>
      </trkpt>
      <trkpt lat="48.74111" lon="7.38096">
        <ele>209.3</ele>
        <time>2020-06-28T16:06:39Z</time>
      </trkpt>
      <trkpt lat="48.74112" lon="7.38089">
        <ele>209.2</ele>
        <time>2020-06-28T16:06:40Z</time>
      </trkpt>
      <trkpt lat="48.74113" lon="7.38081">
        <ele>209.1</ele>
        <time>2020-06-28T16:06:41Z</time>
      </trkpt>
      <trkpt lat="48.74115" lon="7.38074">
        <ele>209</ele>
        <time>2020-06-28T16:06:42Z</time>
      </trkpt>
      <trkpt lat="48.74115" lon="7.38067">
        <ele>208.9</ele>
        <time>2020-06-28T16:06:43Z</time>
      </trkpt>
      <trkpt lat="48.74115" lon="7.3806">
        <ele>208.8</ele>
        <time>2020-06-28T16:06:44Z</time>
      </trkpt>
      <trkpt lat="48.74116" lon="7.38055">
        <ele>208.7</ele>
        <time>2020-06-28T16:06:45Z</time>
      </trkpt>
      <trkpt lat="48.74117" lon="7.38049">
        <ele>208.7</ele>
        <time>2020-06-28T16:06:46Z</time>
      </trkpt>
      <trkpt lat="48.74118" lon="7.38043">
        <ele>208.6</ele>
        <time>2020-06-28T16:06:47Z</time>
      </trkpt>
      <trkpt lat="48.74119" lon="7.38037">
        <ele>208.5</ele>
        <time>2020-06-28T16:06:48Z</time>
      </trkpt>
      <trkpt lat="48.74119" lon="7.38031">
        <ele>208.3</ele>
        <time>2020-06-28T16:06:49Z</time>
      </trkpt>
      <trkpt lat="48.7412" lon="7.38023">
        <ele>208.2</ele>
        <time>2020-06-28T16:06:50Z</time>
      </trkpt>
      <trkpt lat="48.74121" lon="7.38015">
        <ele>208</ele>
        <time>2020-06-28T16:06:51Z</time>
      </trkpt>
      <trkpt lat="48.74122" lon="7.38008">
        <ele>207.9</ele>
        <time>2020-06-28T16:06:52Z</time>
      </trkpt>
      <trkpt lat="48.74122" lon="7.38001">
        <ele>207.7</ele>
        <time>2020-06-28T16:06:53Z</time>
      </trkpt>
      <trkpt lat="48.74124" lon="7.37994">
        <ele>207.6</ele>
        <time>2020-06-28T16:06:54Z</time>
      </trkpt>
      <trkpt lat="48.74124" lon="7.37988">
        <ele>207.4</ele>
        <time>2020-06-28T16:06:55Z</time>
      </trkpt>
      <trkpt lat="48.74125" lon="7.37981">
        <ele>207.2</ele>
        <time>2020-06-28T16:06:56Z</time>
      </trkpt>
      <trkpt lat="48.74126" lon="7.37972">
        <ele>207</ele>
        <time>2020-06-28T16:06:57Z</time>
      </trkpt>
      <trkpt lat="48.74126" lon="7.37964">
        <ele>206.8</ele>
        <time>2020-06-28T16:06:58Z</time>
      </trkpt>
      <trkpt lat="48.74127" lon="7.37957">
        <ele>206.6</ele>
        <time>2020-06-28T16:06:59Z</time>
      </trkpt>
      <trkpt lat="48.74127" lon="7.37948">
        <ele>206.4</ele>
        <time>2020-06-28T16:07:00Z</time>
      </trkpt>
      <trkpt lat="48.74128" lon="7.3794">
        <ele>206.2</ele>
        <time>2020-06-28T16:07:01Z</time>
      </trkpt>
      <trkpt lat="48.74127" lon="7.37932">
        <ele>206</ele>
        <time>2020-06-28T16:07:02Z</time>
      </trkpt>
      <trkpt lat="48.74127" lon="7.37923">
        <ele>205.5</ele>
        <time>2020-06-28T16:07:03Z</time>
      </trkpt>
      <trkpt lat="48.74126" lon="7.37915">
        <ele>205.3</ele>
        <time>2020-06-28T16:07:04Z</time>
      </trkpt>
      <trkpt lat="48.74125" lon="7.37906">
        <ele>205</ele>
        <time>2020-06-28T16:07:05Z</time>
      </trkpt>
      <trkpt lat="48.74123" lon="7.37898">
        <ele>204.8</ele>
        <time>2020-06-28T16:07:06Z</time>
      </trkpt>
      <trkpt lat="48.74122" lon="7.37887">
        <ele>204.6</ele>
        <time>2020-06-28T16:07:07Z</time>
      </trkpt>
      <trkpt lat="48.74121" lon="7.37876">
        <ele>204.3</ele>
        <time>2020-06-28T16:07:08Z</time>
      </trkpt>
      <trkpt lat="48.7412" lon="7.37866">
        <ele>204</ele>
        <time>2020-06-28T16:07:09Z</time>
      </trkpt>
      <trkpt lat="48.74118" lon="7.37856">
        <ele>203.7</ele>
        <time>2020-06-28T16:07:10Z</time>
      </trkpt>
      <trkpt lat="48.74117" lon="7.37844">
        <ele>203.3</ele>
        <time>2020-06-28T16:07:11Z</time>
      </trkpt>
      <trkpt lat="48.74116" lon="7.37834">
        <ele>203</ele>
        <time>2020-06-28T16:07:12Z</time>
      </trkpt>
      <trkpt lat="48.74114" lon="7.37825">
        <ele>202.7</ele>
        <time>2020-06-28T16:07:13Z</time>
      </trkpt>
      <trkpt lat="48.74112" lon="7.37816">
        <ele>202.4</ele>
        <time>2020-06-28T16:07:14Z</time>
      </trkpt>
      <trkpt lat="48.7411" lon="7.37803">
        <ele>202</ele>
        <time>2020-06-28T16:07:15Z</time>
      </trkpt>
      <trkpt lat="48.74108" lon="7.37791">
        <ele>201.6</ele>
        <time>2020-06-28T16:07:16Z</time>
      </trkpt>
      <trkpt lat="48.74106" lon="7.37778">
        <ele>201.3</ele>
        <time>2020-06-28T16:07:17Z</time>
      </trkpt>
      <trkpt lat="48.74104" lon="7.37766">
        <ele>200.9</ele>
        <time>2020-06-28T16:07:18Z</time>
      </trkpt>
      <trkpt lat="48.74101" lon="7.37754">
        <ele>200.6</ele>
        <time>2020-06-28T16:07:19Z</time>
      </trkpt>
      <trkpt lat="48.74099" lon="7.37741">
        <ele>200.4</ele>
        <time>2020-06-28T16:07:20Z</time>
      </trkpt>
      <trkpt lat="48.74097" lon="7.3773">
        <ele>200.3</ele>
        <time>2020-06-28T16:07:21Z</time>
      </trkpt>
      <trkpt lat="48.74096" lon="7.37719">
        <ele>200.2</ele>
        <time>2020-06-28T16:07:22Z</time>
      </trkpt>
      <trkpt lat="48.74095" lon="7.37707">
        <ele>200.1</ele>
        <time>2020-06-28T16:07:23Z</time>
      </trkpt>
      <trkpt lat="48.74093" lon="7.37697">
        <ele>199.9</ele>
        <time>2020-06-28T16:07:24Z</time>
      </trkpt>
      <trkpt lat="48.74091" lon="7.37685">
        <ele>199.8</ele>
        <time>2020-06-28T16:07:25Z</time>
      </trkpt>
      <trkpt lat="48.74089" lon="7.37675">
        <ele>199.6</ele>
        <time>2020-06-28T16:07:26Z</time>
      </trkpt>
      <trkpt lat="48.74087" lon="7.37663">
        <ele>199.4</ele>
        <time>2020-06-28T16:07:27Z</time>
      </trkpt>
      <trkpt lat="48.74085" lon="7.37652">
        <ele>199.1</ele>
        <time>2020-06-28T16:07:28Z</time>
      </trkpt>
      <trkpt lat="48.74082" lon="7.37642">
        <ele>198.9</ele>
        <time>2020-06-28T16:07:29Z</time>
      </trkpt>
      <trkpt lat="48.74081" lon="7.37631">
        <ele>198.7</ele>
        <time>2020-06-28T16:07:30Z</time>
      </trkpt>
      <trkpt lat="48.74079" lon="7.3762">
        <ele>198.5</ele>
        <time>2020-06-28T16:07:31Z</time>
      </trkpt>
      <trkpt lat="48.74077" lon="7.3761">
        <ele>198.5</ele>
        <time>2020-06-28T16:07:32Z</time>
      </trkpt>
      <trkpt lat="48.74076" lon="7.376">
        <ele>198.5</ele>
        <time>2020-06-28T16:07:33Z</time>
      </trkpt>
      <trkpt lat="48.74073" lon="7.3759">
        <ele>198.5</ele>
        <time>2020-06-28T16:07:34Z</time>
      </trkpt>
      <trkpt lat="48.74072" lon="7.37581">
        <ele>198.5</ele>
        <time>2020-06-28T16:07:35Z</time>
      </trkpt>
      <trkpt lat="48.7407" lon="7.37572">
        <ele>198.6</ele>
        <time>2020-06-28T16:07:36Z</time>
      </trkpt>
      <trkpt lat="48.74068" lon="7.37563">
        <ele>198.6</ele>
        <time>2020-06-28T16:07:37Z</time>
      </trkpt>
      <trkpt lat="48.74066" lon="7.37554">
        <ele>198.6</ele>
        <time>2020-06-28T16:07:38Z</time>
      </trkpt>
      <trkpt lat="48.74065" lon="7.37546">
        <ele>198.7</ele>
        <time>2020-06-28T16:07:39Z</time>
      </trkpt>
      <trkpt lat="48.74063" lon="7.37538">
        <ele>198.7</ele>
        <time>2020-06-28T16:07:40Z</time>
      </trkpt>
      <trkpt lat="48.74062" lon="7.37531">
        <ele>198.8</ele>
        <time>2020-06-28T16:07:41Z</time>
      </trkpt>
      <trkpt lat="48.74061" lon="7.37525">
        <ele>198.9</ele>
        <time>2020-06-28T16:07:42Z</time>
      </trkpt>
      <trkpt lat="48.74058" lon="7.37518">
        <ele>199</ele>
        <time>2020-06-28T16:07:43Z</time>
      </trkpt>
      <trkpt lat="48.74057" lon="7.3751">
        <ele>199.1</ele>
        <time>2020-06-28T16:07:44Z</time>
      </trkpt>
      <trkpt lat="48.74056" lon="7.37503">
        <ele>199.2</ele>
        <time>2020-06-28T16:07:45Z</time>
      </trkpt>
      <trkpt lat="48.74054" lon="7.37495">
        <ele>199.3</ele>
        <time>2020-06-28T16:07:46Z</time>
      </trkpt>
      <trkpt lat="48.74053" lon="7.37487">
        <ele>199.5</ele>
        <time>2020-06-28T16:07:47Z</time>
      </trkpt>
      <trkpt lat="48.74051" lon="7.3748">
        <ele>199.6</ele>
        <time>2020-06-28T16:07:48Z</time>
      </trkpt>
      <trkpt lat="48.7405" lon="7.37473">
        <ele>199.6</ele>
        <time>2020-06-28T16:07:49Z</time>
      </trkpt>
      <trkpt lat="48.74049" lon="7.37465">
        <ele>199.7</ele>
        <time>2020-06-28T16:07:50Z</time>
      </trkpt>
      <trkpt lat="48.74049" lon="7.37457">
        <ele>199.8</ele>
        <time>2020-06-28T16:07:51Z</time>
      </trkpt>
      <trkpt lat="48.74048" lon="7.3745">
        <ele>199.8</ele>
        <time>2020-06-28T16:07:52Z</time>
      </trkpt>
      <trkpt lat="48.74047" lon="7.37443">
        <ele>199.9</ele>
        <time>2020-06-28T16:07:53Z</time>
      </trkpt>
      <trkpt lat="48.74045" lon="7.37436">
        <ele>200</ele>
        <time>2020-06-28T16:07:54Z</time>
      </trkpt>
      <trkpt lat="48.74044" lon="7.37428">
        <ele>200.1</ele>
        <time>2020-06-28T16:07:55Z</time>
      </trkpt>
      <trkpt lat="48.74043" lon="7.3742">
        <ele>200.1</ele>
        <time>2020-06-28T16:07:56Z</time>
      </trkpt>
      <trkpt lat="48.74041" lon="7.37413">
        <ele>200.2</ele>
        <time>2020-06-28T16:07:57Z</time>
      </trkpt>
      <trkpt lat="48.74041" lon="7.37405">
        <ele>200.3</ele>
        <time>2020-06-28T16:07:58Z</time>
      </trkpt>
      <trkpt lat="48.74041" lon="7.37396">
        <ele>200.3</ele>
        <time>2020-06-28T16:07:59Z</time>
      </trkpt>
      <trkpt lat="48.74039" lon="7.37389">
        <ele>200.4</ele>
        <time>2020-06-28T16:08:00Z</time>
      </trkpt>
      <trkpt lat="48.74038" lon="7.37381">
        <ele>200.4</ele>
        <time>2020-06-28T16:08:01Z</time>
      </trkpt>
      <trkpt lat="48.74036" lon="7.37374">
        <ele>200.4</ele>
        <time>2020-06-28T16:08:02Z</time>
      </trkpt>
      <trkpt lat="48.74035" lon="7.37366">
        <ele>200.4</ele>
        <time>2020-06-28T16:08:03Z</time>
      </trkpt>
      <trkpt lat="48.74032" lon="7.37358">
        <ele>200.5</ele>
        <time>2020-06-28T16:08:04Z</time>
      </trkpt>
      <trkpt lat="48.74031" lon="7.37349">
        <ele>200.5</ele>
        <time>2020-06-28T16:08:05Z</time>
      </trkpt>
      <trkpt lat="48.7403" lon="7.37341">
        <ele>200.5</ele>
        <time>2020-06-28T16:08:06Z</time>
      </trkpt>
      <trkpt lat="48.74027" lon="7.37335">
        <ele>200.5</ele>
        <time>2020-06-28T16:08:07Z</time>
      </trkpt>
      <trkpt lat="48.74027" lon="7.37328">
        <ele>200.5</ele>
        <time>2020-06-28T16:08:08Z</time>
      </trkpt>
      <trkpt lat="48.74026" lon="7.37321">
        <ele>200.5</ele>
        <time>2020-06-28T16:08:09Z</time>
      </trkpt>
      <trkpt lat="48.74025" lon="7.37314">
        <ele>200.4</ele>
        <time>2020-06-28T16:08:10Z</time>
      </trkpt>
      <trkpt lat="48.74023" lon="7.37307">
        <ele>200.4</ele>
        <time>2020-06-28T16:08:11Z</time>
      </trkpt>
      <trkpt lat="48.74022" lon="7.37299">
        <ele>200.3</ele>
        <time>2020-06-28T16:08:12Z</time>
      </trkpt>
      <trkpt lat="48.7402" lon="7.37292">
        <ele>200.3</ele>
        <time>2020-06-28T16:08:13Z</time>
      </trkpt>
      <trkpt lat="48.74018" lon="7.37284">
        <ele>200.3</ele>
        <time>2020-06-28T16:08:14Z</time>
      </trkpt>
      <trkpt lat="48.74016" lon="7.37277">
        <ele>200.2</ele>
        <time>2020-06-28T16:08:15Z</time>
      </trkpt>
      <trkpt lat="48.74014" lon="7.37269">
        <ele>200.1</ele>
        <time>2020-06-28T16:08:16Z</time>
      </trkpt>
      <trkpt lat="48.74013" lon="7.37262">
        <ele>200.1</ele>
        <time>2020-06-28T16:08:17Z</time>
      </trkpt>
      <trkpt lat="48.74012" lon="7.37255">
        <ele>200</ele>
        <time>2020-06-28T16:08:18Z</time>
      </trkpt>
      <trkpt lat="48.7401" lon="7.37248">
        <ele>199.9</ele>
        <time>2020-06-28T16:08:19Z</time>
      </trkpt>
      <trkpt lat="48.74009" lon="7.3724">
        <ele>199.8</ele>
        <time>2020-06-28T16:08:20Z</time>
      </trkpt>
      <trkpt lat="48.74008" lon="7.37231">
        <ele>199.7</ele>
        <time>2020-06-28T16:08:21Z</time>
      </trkpt>
      <trkpt lat="48.74006" lon="7.37223">
        <ele>199.7</ele>
        <time>2020-06-28T16:08:22Z</time>
      </trkpt>
      <trkpt lat="48.74005" lon="7.37216">
        <ele>199.6</ele>
        <time>2020-06-28T16:08:23Z</time>
      </trkpt>
      <trkpt lat="48.74003" lon="7.37207">
        <ele>199.5</ele>
        <time>2020-06-28T16:08:24Z</time>
      </trkpt>
      <trkpt lat="48.74001" lon="7.372">
        <ele>199.4</ele>
        <time>2020-06-28T16:08:25Z</time>
      </trkpt>
      <trkpt lat="48.74" lon="7.37193">
        <ele>199.3</ele>
        <time>2020-06-28T16:08:26Z</time>
      </trkpt>
      <trkpt lat="48.73996" lon="7.37186">
        <ele>199.2</ele>
        <time>2020-06-28T16:08:27Z</time>
      </trkpt>
      <trkpt lat="48.73994" lon="7.37179">
        <ele>199.1</ele>
        <time>2020-06-28T16:08:28Z</time>
      </trkpt>
      <trkpt lat="48.73993" lon="7.3717">
        <ele>199</ele>
        <time>2020-06-28T16:08:29Z</time>
      </trkpt>
      <trkpt lat="48.73992" lon="7.37162">
        <ele>198.9</ele>
        <time>2020-06-28T16:08:30Z</time>
      </trkpt>
      <trkpt lat="48.7399" lon="7.37155">
        <ele>198.8</ele>
        <time>2020-06-28T16:08:31Z</time>
      </trkpt>
      <trkpt lat="48.73989" lon="7.37148">
        <ele>198.7</ele>
        <time>2020-06-28T16:08:32Z</time>
      </trkpt>
      <trkpt lat="48.73988" lon="7.37141">
        <ele>198.6</ele>
        <time>2020-06-28T16:08:33Z</time>
      </trkpt>
      <trkpt lat="48.73987" lon="7.37134">
        <ele>198.4</ele>
        <time>2020-06-28T16:08:34Z</time>
      </trkpt>
      <trkpt lat="48.73987" lon="7.37127">
        <ele>198.2</ele>
        <time>2020-06-28T16:08:35Z</time>
      </trkpt>
      <trkpt lat="48.73986" lon="7.37118">
        <ele>198.1</ele>
        <time>2020-06-28T16:08:36Z</time>
      </trkpt>
      <trkpt lat="48.73988" lon="7.37109">
        <ele>198.1</ele>
        <time>2020-06-28T16:08:37Z</time>
      </trkpt>
      <trkpt lat="48.73992" lon="7.37101">
        <ele>197.1</ele>
        <time>2020-06-28T16:08:38Z</time>
      </trkpt>
      <trkpt lat="48.73997" lon="7.37095">
        <ele>196.8</ele>
        <time>2020-06-28T16:08:39Z</time>
      </trkpt>
      <trkpt lat="48.74001" lon="7.37088">
        <ele>196.4</ele>
        <time>2020-06-28T16:08:40Z</time>
      </trkpt>
      <trkpt lat="48.74007" lon="7.3708">
        <ele>195.9</ele>
        <time>2020-06-28T16:08:41Z</time>
      </trkpt>
      <trkpt lat="48.74012" lon="7.37072">
        <ele>195.5</ele>
        <time>2020-06-28T16:08:42Z</time>
      </trkpt>
      <trkpt lat="48.74017" lon="7.37064">
        <ele>195</ele>
        <time>2020-06-28T16:08:43Z</time>
      </trkpt>
      <trkpt lat="48.74023" lon="7.37057">
        <ele>194.5</ele>
        <time>2020-06-28T16:08:44Z</time>
      </trkpt>
      <trkpt lat="48.74029" lon="7.3705">
        <ele>194.2</ele>
        <time>2020-06-28T16:08:45Z</time>
      </trkpt>
      <trkpt lat="48.74034" lon="7.37041">
        <ele>193.8</ele>
        <time>2020-06-28T16:08:46Z</time>
      </trkpt>
      <trkpt lat="48.74039" lon="7.37033">
        <ele>193.5</ele>
        <time>2020-06-28T16:08:47Z</time>
      </trkpt>
      <trkpt lat="48.74044" lon="7.37026">
        <ele>193.1</ele>
        <time>2020-06-28T16:08:48Z</time>
      </trkpt>
      <trkpt lat="48.74049" lon="7.3702">
        <ele>192.8</ele>
        <time>2020-06-28T16:08:49Z</time>
      </trkpt>
      <trkpt lat="48.74053" lon="7.37014">
        <ele>192.6</ele>
        <time>2020-06-28T16:08:50Z</time>
      </trkpt>
      <trkpt lat="48.74057" lon="7.37009">
        <ele>192.3</ele>
        <time>2020-06-28T16:08:51Z</time>
      </trkpt>
      <trkpt lat="48.7406" lon="7.37004">
        <ele>192.1</ele>
        <time>2020-06-28T16:08:52Z</time>
      </trkpt>
      <trkpt lat="48.74063" lon="7.37001">
        <ele>192</ele>
        <time>2020-06-28T16:08:53Z</time>
      </trkpt>
      <trkpt lat="48.74065" lon="7.36998">
        <ele>191.8</ele>
        <time>2020-06-28T16:08:54Z</time>
      </trkpt>
      <trkpt lat="48.74066" lon="7.36997">
        <ele>191.7</ele>
        <time>2020-06-28T16:08:55Z</time>
      </trkpt>
      <trkpt lat="48.74069" lon="7.36998">
        <ele>191.6</ele>
        <time>2020-06-28T16:08:56Z</time>
      </trkpt>
      <trkpt lat="48.7407" lon="7.36999">
        <ele>191.6</ele>
        <time>2020-06-28T16:08:57Z</time>
      </trkpt>
      <trkpt lat="48.74071" lon="7.37">
        <ele>191.5</ele>
        <time>2020-06-28T16:08:58Z</time>
      </trkpt>
      <trkpt lat="48.74072" lon="7.37">
        <ele>191.4</ele>
        <time>2020-06-28T16:08:59Z</time>
      </trkpt>
      <trkpt lat="48.74075" lon="7.36999">
        <ele>191.3</ele>
        <time>2020-06-28T16:09:00Z</time>
      </trkpt>
      <trkpt lat="48.74076" lon="7.36999">
        <ele>191</ele>
        <time>2020-06-28T16:09:01Z</time>
      </trkpt>
      <trkpt lat="48.74079" lon="7.36995">
        <ele>190.9</ele>
        <time>2020-06-28T16:09:02Z</time>
      </trkpt>
      <trkpt lat="48.7408" lon="7.36993">
        <ele>190.8</ele>
        <time>2020-06-28T16:09:03Z</time>
      </trkpt>
      <trkpt lat="48.74083" lon="7.36989">
        <ele>190.7</ele>
        <time>2020-06-28T16:09:04Z</time>
      </trkpt>
      <trkpt lat="48.74087" lon="7.36985">
        <ele>190.6</ele>
        <time>2020-06-28T16:09:05Z</time>
      </trkpt>
      <trkpt lat="48.74091" lon="7.36981">
        <ele>190.4</ele>
        <time>2020-06-28T16:09:06Z</time>
      </trkpt>
      <trkpt lat="48.74093" lon="7.36976">
        <ele>190.3</ele>
        <time>2020-06-28T16:09:07Z</time>
      </trkpt>
      <trkpt lat="48.74097" lon="7.3697">
        <ele>190.1</ele>
        <time>2020-06-28T16:09:08Z</time>
      </trkpt>
      <trkpt lat="48.741" lon="7.36965">
        <ele>189.9</ele>
        <time>2020-06-28T16:09:09Z</time>
      </trkpt>
      <trkpt lat="48.74103" lon="7.3696">
        <ele>189.8</ele>
        <time>2020-06-28T16:09:10Z</time>
      </trkpt>
      <trkpt lat="48.74106" lon="7.36954">
        <ele>189.6</ele>
        <time>2020-06-28T16:09:11Z</time>
      </trkpt>
      <trkpt lat="48.74109" lon="7.36949">
        <ele>189.5</ele>
        <time>2020-06-28T16:09:12Z</time>
      </trkpt>
      <trkpt lat="48.74113" lon="7.36944">
        <ele>189.4</ele>
        <time>2020-06-28T16:09:13Z</time>
      </trkpt>
      <trkpt lat="48.74117" lon="7.36939">
        <ele>189.3</ele>
        <time>2020-06-28T16:09:14Z</time>
      </trkpt>
      <trkpt lat="48.7412" lon="7.36935">
        <ele>189.2</ele>
        <time>2020-06-28T16:09:15Z</time>
      </trkpt>
      <trkpt lat="48.74124" lon="7.36929">
        <ele>189.1</ele>
        <time>2020-06-28T16:09:16Z</time>
      </trkpt>
      <trkpt lat="48.74128" lon="7.36925">
        <ele>189.1</ele>
        <time>2020-06-28T16:09:17Z</time>
      </trkpt>
      <trkpt lat="48.74132" lon="7.36921">
        <ele>189</ele>
        <time>2020-06-28T16:09:18Z</time>
      </trkpt>
      <trkpt lat="48.74135" lon="7.36917">
        <ele>189</ele>
        <time>2020-06-28T16:09:19Z</time>
      </trkpt>
      <trkpt lat="48.74138" lon="7.36913">
        <ele>189</ele>
        <time>2020-06-28T16:09:20Z</time>
      </trkpt>
      <trkpt lat="48.74141" lon="7.3691">
        <ele>189.1</ele>
        <time>2020-06-28T16:09:21Z</time>
      </trkpt>
      <trkpt lat="48.74145" lon="7.36907">
        <ele>189.1</ele>
        <time>2020-06-28T16:09:22Z</time>
      </trkpt>
      <trkpt lat="48.74147" lon="7.36903">
        <ele>189.1</ele>
        <time>2020-06-28T16:09:23Z</time>
      </trkpt>
      <trkpt lat="48.74151" lon="7.369">
        <ele>189.1</ele>
        <time>2020-06-28T16:09:24Z</time>
      </trkpt>
      <trkpt lat="48.74153" lon="7.36896">
        <ele>189.1</ele>
        <time>2020-06-28T16:09:25Z</time>
      </trkpt>
      <trkpt lat="48.74156" lon="7.36894">
        <ele>189.1</ele>
        <time>2020-06-28T16:09:26Z</time>
      </trkpt>
      <trkpt lat="48.74158" lon="7.36892">
        <ele>189</ele>
        <time>2020-06-28T16:09:27Z</time>
      </trkpt>
      <trkpt lat="48.74161" lon="7.36889">
        <ele>189</ele>
        <time>2020-06-28T16:09:28Z</time>
      </trkpt>
      <trkpt lat="48.74163" lon="7.36885">
        <ele>189</ele>
        <time>2020-06-28T16:09:29Z</time>
      </trkpt>
      <trkpt lat="48.74165" lon="7.36881">
        <ele>189</ele>
        <time>2020-06-28T16:09:30Z</time>
      </trkpt>
      <trkpt lat="48.74167" lon="7.36878">
        <ele>188.9</ele>
        <time>2020-06-28T16:09:31Z</time>
      </trkpt>
      <trkpt lat="48.74169" lon="7.36875">
        <ele>188.9</ele>
        <time>2020-06-28T16:09:32Z</time>
      </trkpt>
      <trkpt lat="48.74171" lon="7.36871">
        <ele>188.9</ele>
        <time>2020-06-28T16:09:33Z</time>
      </trkpt>
      <trkpt lat="48.74174" lon="7.36869">
        <ele>188.7</ele>
        <time>2020-06-28T16:09:34Z</time>
      </trkpt>
      <trkpt lat="48.74177" lon="7.36866">
        <ele>188.5</ele>
        <time>2020-06-28T16:09:35Z</time>
      </trkpt>
      <trkpt lat="48.7418" lon="7.36863">
        <ele>188.4</ele>
        <time>2020-06-28T16:09:36Z</time>
      </trkpt>
      <trkpt lat="48.74183" lon="7.3686">
        <ele>188.2</ele>
        <time>2020-06-28T16:09:37Z</time>
      </trkpt>
      <trkpt lat="48.74186" lon="7.36856">
        <ele>188</ele>
        <time>2020-06-28T16:09:38Z</time>
      </trkpt>
      <trkpt lat="48.74189" lon="7.36849">
        <ele>187.7</ele>
        <time>2020-06-28T16:09:39Z</time>
      </trkpt>
      <trkpt lat="48.74194" lon="7.36845">
        <ele>187.3</ele>
        <time>2020-06-28T16:09:40Z</time>
      </trkpt>
      <trkpt lat="48.74198" lon="7.3684">
        <ele>187</ele>
        <time>2020-06-28T16:09:41Z</time>
      </trkpt>
      <trkpt lat="48.74203" lon="7.36835">
        <ele>186.7</ele>
        <time>2020-06-28T16:09:42Z</time>
      </trkpt>
      <trkpt lat="48.74208" lon="7.36829">
        <ele>186.4</ele>
        <time>2020-06-28T16:09:43Z</time>
      </trkpt>
      <trkpt lat="48.74212" lon="7.36822">
        <ele>186.1</ele>
        <time>2020-06-28T16:09:44Z</time>
      </trkpt>
      <trkpt lat="48.74216" lon="7.36815">
        <ele>185.8</ele>
        <time>2020-06-28T16:09:45Z</time>
      </trkpt>
      <trkpt lat="48.74221" lon="7.36807">
        <ele>185.3</ele>
        <time>2020-06-28T16:09:46Z</time>
      </trkpt>
      <trkpt lat="48.74227" lon="7.368">
        <ele>185</ele>
        <time>2020-06-28T16:09:47Z</time>
      </trkpt>
      <trkpt lat="48.74232" lon="7.36793">
        <ele>184.8</ele>
        <time>2020-06-28T16:09:48Z</time>
      </trkpt>
      <trkpt lat="48.74237" lon="7.36787">
        <ele>184.6</ele>
        <time>2020-06-28T16:09:49Z</time>
      </trkpt>
      <trkpt lat="48.74242" lon="7.36782">
        <ele>184.5</ele>
        <time>2020-06-28T16:09:50Z</time>
      </trkpt>
      <trkpt lat="48.74247" lon="7.36776">
        <ele>184.4</ele>
        <time>2020-06-28T16:09:51Z</time>
      </trkpt>
      <trkpt lat="48.74251" lon="7.36771">
        <ele>184.3</ele>
        <time>2020-06-28T16:09:52Z</time>
      </trkpt>
      <trkpt lat="48.74255" lon="7.36766">
        <ele>184.2</ele>
        <time>2020-06-28T16:09:53Z</time>
      </trkpt>
      <trkpt lat="48.74259" lon="7.36762">
        <ele>184.1</ele>
        <time>2020-06-28T16:09:54Z</time>
      </trkpt>
      <trkpt lat="48.74263" lon="7.36758">
        <ele>184</ele>
        <time>2020-06-28T16:09:55Z</time>
      </trkpt>
      <trkpt lat="48.74267" lon="7.36754">
        <ele>184</ele>
        <time>2020-06-28T16:09:56Z</time>
      </trkpt>
      <trkpt lat="48.74272" lon="7.36749">
        <ele>183.9</ele>
        <time>2020-06-28T16:09:57Z</time>
      </trkpt>
      <trkpt lat="48.74276" lon="7.36745">
        <ele>183.8</ele>
        <time>2020-06-28T16:09:58Z</time>
      </trkpt>
      <trkpt lat="48.7428" lon="7.36741">
        <ele>183.7</ele>
        <time>2020-06-28T16:09:59Z</time>
      </trkpt>
      <trkpt lat="48.74285" lon="7.36737">
        <ele>183.7</ele>
        <time>2020-06-28T16:10:00Z</time>
      </trkpt>
      <trkpt lat="48.74288" lon="7.36731">
        <ele>183.7</ele>
        <time>2020-06-28T16:10:01Z</time>
      </trkpt>
      <trkpt lat="48.74292" lon="7.36727">
        <ele>183.6</ele>
        <time>2020-06-28T16:10:02Z</time>
      </trkpt>
      <trkpt lat="48.74296" lon="7.36722">
        <ele>183.6</ele>
        <time>2020-06-28T16:10:03Z</time>
      </trkpt>
      <trkpt lat="48.74299" lon="7.36718">
        <ele>183.6</ele>
        <time>2020-06-28T16:10:04Z</time>
      </trkpt>
      <trkpt lat="48.74303" lon="7.36714">
        <ele>183.6</ele>
        <time>2020-06-28T16:10:05Z</time>
      </trkpt>
      <trkpt lat="48.74307" lon="7.36709">
        <ele>183.6</ele>
        <time>2020-06-28T16:10:06Z</time>
      </trkpt>
      <trkpt lat="48.74312" lon="7.36705">
        <ele>183.7</ele>
        <time>2020-06-28T16:10:07Z</time>
      </trkpt>
      <trkpt lat="48.74315" lon="7.36699">
        <ele>183.7</ele>
        <time>2020-06-28T16:10:08Z</time>
      </trkpt>
      <trkpt lat="48.74318" lon="7.36693">
        <ele>183.7</ele>
        <time>2020-06-28T16:10:09Z</time>
      </trkpt>
      <trkpt lat="48.74321" lon="7.36689">
        <ele>183.7</ele>
        <time>2020-06-28T16:10:10Z</time>
      </trkpt>
      <trkpt lat="48.74323" lon="7.36683">
        <ele>183.7</ele>
        <time>2020-06-28T16:10:11Z</time>
      </trkpt>
      <trkpt lat="48.74325" lon="7.36678">
        <ele>183.7</ele>
        <time>2020-06-28T16:10:12Z</time>
      </trkpt>
      <trkpt lat="48.74327" lon="7.36673">
        <ele>183.7</ele>
        <time>2020-06-28T16:10:13Z</time>
      </trkpt>
      <trkpt lat="48.7433" lon="7.36668">
        <ele>183.7</ele>
        <time>2020-06-28T16:10:14Z</time>
      </trkpt>
      <trkpt lat="48.74332" lon="7.36663">
        <ele>183.7</ele>
        <time>2020-06-28T16:10:15Z</time>
      </trkpt>
      <trkpt lat="48.74335" lon="7.3666">
        <ele>183.7</ele>
        <time>2020-06-28T16:10:16Z</time>
      </trkpt>
      <trkpt lat="48.74338" lon="7.36656">
        <ele>183.7</ele>
        <time>2020-06-28T16:10:17Z</time>
      </trkpt>
      <trkpt lat="48.74341" lon="7.36651">
        <ele>183.7</ele>
        <time>2020-06-28T16:10:18Z</time>
      </trkpt>
      <trkpt lat="48.74344" lon="7.36647">
        <ele>183.7</ele>
        <time>2020-06-28T16:10:19Z</time>
      </trkpt>
      <trkpt lat="48.74346" lon="7.36642">
        <ele>183.8</ele>
        <time>2020-06-28T16:10:20Z</time>
      </trkpt>
      <trkpt lat="48.7435" lon="7.36639">
        <ele>183.8</ele>
        <time>2020-06-28T16:10:21Z</time>
      </trkpt>
      <trkpt lat="48.74352" lon="7.36636">
        <ele>183.8</ele>
        <time>2020-06-28T16:10:22Z</time>
      </trkpt>
      <trkpt lat="48.74355" lon="7.36632">
        <ele>183.8</ele>
        <time>2020-06-28T16:10:23Z</time>
      </trkpt>
      <trkpt lat="48.74359" lon="7.36629">
        <ele>183.8</ele>
        <time>2020-06-28T16:10:24Z</time>
      </trkpt>
      <trkpt lat="48.74361" lon="7.36626">
        <ele>183.8</ele>
        <time>2020-06-28T16:10:25Z</time>
      </trkpt>
      <trkpt lat="48.74362" lon="7.36622">
        <ele>183.8</ele>
        <time>2020-06-28T16:10:26Z</time>
      </trkpt>
      <trkpt lat="48.74362" lon="7.36621">
        <ele>183.8</ele>
        <time>2020-06-28T16:10:27Z</time>
      </trkpt>
      <trkpt lat="48.74362" lon="7.3662">
        <ele>183.8</ele>
        <time>2020-06-28T16:10:28Z</time>
      </trkpt>
      <trkpt lat="48.74362" lon="7.3662">
        <ele>183.9</ele>
        <time>2020-06-28T16:10:29Z</time>
      </trkpt>
      <trkpt lat="48.74362" lon="7.3662">
        <ele>183.9</ele>
        <time>2020-06-28T16:10:30Z</time>
      </trkpt>
      <trkpt lat="48.74362" lon="7.3662">
        <ele>183.9</ele>
        <time>2020-06-28T16:10:31Z</time>
      </trkpt>
      <trkpt lat="48.74361" lon="7.3662">
        <ele>183.9</ele>
        <time>2020-06-28T16:10:32Z</time>
      </trkpt>
      <trkpt lat="48.74359" lon="7.36621">
        <ele>183.9</ele>
        <time>2020-06-28T16:10:33Z</time>
      </trkpt>
      <trkpt lat="48.74359" lon="7.36621">
        <ele>183.9</ele>
        <time>2020-06-28T16:10:34Z</time>
      </trkpt>
      <trkpt lat="48.74361" lon="7.3662">
        <ele>183.9</ele>
        <time>2020-06-28T16:10:35Z</time>
      </trkpt>
      <trkpt lat="48.74362" lon="7.3662">
        <ele>183.9</ele>
        <time>2020-06-28T16:10:36Z</time>
      </trkpt>
      <trkpt lat="48.74362" lon="7.36619">
        <ele>183.7</ele>
        <time>2020-06-28T16:10:37Z</time>
      </trkpt>
      <trkpt lat="48.74363" lon="7.36618">
        <ele>183.7</ele>
        <time>2020-06-28T16:10:38Z</time>
      </trkpt>
      <trkpt lat="48.74362" lon="7.36617">
        <ele>183.7</ele>
        <time>2020-06-28T16:10:39Z</time>
      </trkpt>
      <trkpt lat="48.74362" lon="7.36615">
        <ele>183.7</ele>
        <time>2020-06-28T16:10:40Z</time>
      </trkpt>
      <trkpt lat="48.74362" lon="7.36613">
        <ele>183.7</ele>
        <time>2020-06-28T16:10:41Z</time>
      </trkpt>
      <trkpt lat="48.74362" lon="7.36612">
        <ele>183.7</ele>
        <time>2020-06-28T16:10:42Z</time>
      </trkpt>
      <trkpt lat="48.74363" lon="7.36611">
        <ele>183.6</ele>
        <time>2020-06-28T16:10:43Z</time>
      </trkpt>
      <trkpt lat="48.74363" lon="7.3661">
        <ele>183.6</ele>
        <time>2020-06-28T16:10:44Z</time>
      </trkpt>
      <trkpt lat="48.74363" lon="7.36608">
        <ele>183.6</ele>
        <time>2020-06-28T16:10:45Z</time>
      </trkpt>
      <trkpt lat="48.7436" lon="7.36609">
        <ele>183.6</ele>
        <time>2020-06-28T16:10:46Z</time>
      </trkpt>
      <trkpt lat="48.74358" lon="7.36608">
        <ele>183.7</ele>
        <time>2020-06-28T16:10:47Z</time>
      </trkpt>
      <trkpt lat="48.74357" lon="7.36608">
        <ele>183.9</ele>
        <time>2020-06-28T16:10:48Z</time>
      </trkpt>
      <trkpt lat="48.74355" lon="7.36607">
        <ele>184.3</ele>
        <time>2020-06-28T16:10:49Z</time>
      </trkpt>
      <trkpt lat="48.74354" lon="7.36606">
        <ele>184.4</ele>
        <time>2020-06-28T16:10:50Z</time>
      </trkpt>
      <trkpt lat="48.74353" lon="7.36606">
        <ele>184.6</ele>
        <time>2020-06-28T16:10:51Z</time>
      </trkpt>
      <trkpt lat="48.74352" lon="7.36606">
        <ele>184.7</ele>
        <time>2020-06-28T16:10:52Z</time>
      </trkpt>
      <trkpt lat="48.74351" lon="7.36606">
        <ele>184.9</ele>
        <time>2020-06-28T16:10:53Z</time>
      </trkpt>
      <trkpt lat="48.7435" lon="7.36606">
        <ele>185.8</ele>
        <time>2020-06-28T16:10:54Z</time>
      </trkpt>
      <trkpt lat="48.74349" lon="7.36606">
        <ele>185.8</ele>
        <time>2020-06-28T16:10:55Z</time>
      </trkpt>
      <trkpt lat="48.74348" lon="7.36607">
        <ele>185.8</ele>
        <time>2020-06-28T16:10:56Z</time>
      </trkpt>
      <trkpt lat="48.74348" lon="7.36607">
        <ele>185.8</ele>
        <time>2020-06-28T16:10:57Z</time>
      </trkpt>
      <trkpt lat="48.74347" lon="7.36608">
        <ele>185.8</ele>
        <time>2020-06-28T16:10:58Z</time>
      </trkpt>
      <trkpt lat="48.74346" lon="7.36608">
        <ele>185.8</ele>
        <time>2020-06-28T16:10:59Z</time>
      </trkpt>
      <trkpt lat="48.74345" lon="7.36609">
        <ele>185.8</ele>
        <time>2020-06-28T16:11:00Z</time>
      </trkpt>
      <trkpt lat="48.74344" lon="7.3661">
        <ele>185.8</ele>
        <time>2020-06-28T16:11:01Z</time>
      </trkpt>
      <trkpt lat="48.74343" lon="7.3661">
        <ele>185.8</ele>
        <time>2020-06-28T16:11:02Z</time>
      </trkpt>
      <trkpt lat="48.74342" lon="7.36611">
        <ele>185.8</ele>
        <time>2020-06-28T16:11:03Z</time>
      </trkpt>
      <trkpt lat="48.74341" lon="7.36613">
        <ele>185.8</ele>
        <time>2020-06-28T16:11:04Z</time>
      </trkpt>
      <trkpt lat="48.7434" lon="7.36614">
        <ele>185.8</ele>
        <time>2020-06-28T16:11:05Z</time>
      </trkpt>
      <trkpt lat="48.7434" lon="7.36616">
        <ele>185.8</ele>
        <time>2020-06-28T16:11:06Z</time>
      </trkpt>
      <trkpt lat="48.74339" lon="7.36617">
        <ele>185.8</ele>
        <time>2020-06-28T16:11:07Z</time>
      </trkpt>
      <trkpt lat="48.74338" lon="7.36618">
        <ele>185.8</ele>
        <time>2020-06-28T16:11:08Z</time>
      </trkpt>
      <trkpt lat="48.74338" lon="7.36619">
        <ele>185.8</ele>
        <time>2020-06-28T16:11:09Z</time>
      </trkpt>
      <trkpt lat="48.74336" lon="7.36619">
        <ele>185.8</ele>
        <time>2020-06-28T16:11:10Z</time>
      </trkpt>
      <trkpt lat="48.74335" lon="7.36619">
        <ele>185.8</ele>
        <time>2020-06-28T16:11:11Z</time>
      </trkpt>
      <trkpt lat="48.74334" lon="7.36619">
        <ele>185.8</ele>
        <time>2020-06-28T16:11:12Z</time>
      </trkpt>
      <trkpt lat="48.74334" lon="7.36621">
        <ele>185.8</ele>
        <time>2020-06-28T16:11:13Z</time>
      </trkpt>
      <trkpt lat="48.74333" lon="7.36621">
        <ele>185.8</ele>
        <time>2020-06-28T16:11:14Z</time>
      </trkpt>
      <trkpt lat="48.74332" lon="7.36622">
        <ele>185.8</ele>
        <time>2020-06-28T16:11:15Z</time>
      </trkpt>
      <trkpt lat="48.74331" lon="7.36623">
        <ele>185.8</ele>
        <time>2020-06-28T16:11:16Z</time>
      </trkpt>
      <trkpt lat="48.74331" lon="7.36624">
        <ele>185.8</ele>
        <time>2020-06-28T16:11:17Z</time>
      </trkpt>
      <trkpt lat="48.7433" lon="7.36625">
        <ele>185.7</ele>
        <time>2020-06-28T16:11:18Z</time>
      </trkpt>
      <trkpt lat="48.74329" lon="7.36627">
        <ele>185.7</ele>
        <time>2020-06-28T16:11:19Z</time>
      </trkpt>
      <trkpt lat="48.74328" lon="7.36627">
        <ele>185.7</ele>
        <time>2020-06-28T16:11:20Z</time>
      </trkpt>
      <trkpt lat="48.74327" lon="7.36629">
        <ele>185.7</ele>
        <time>2020-06-28T16:11:21Z</time>
      </trkpt>
      <trkpt lat="48.74325" lon="7.36629">
        <ele>185.7</ele>
        <time>2020-06-28T16:11:22Z</time>
      </trkpt>
      <trkpt lat="48.74324" lon="7.3663">
        <ele>185.7</ele>
        <time>2020-06-28T16:11:23Z</time>
      </trkpt>
      <trkpt lat="48.74323" lon="7.3663">
        <ele>185.7</ele>
        <time>2020-06-28T16:11:24Z</time>
      </trkpt>
      <trkpt lat="48.74322" lon="7.36631">
        <ele>185.7</ele>
        <time>2020-06-28T16:11:25Z</time>
      </trkpt>
      <trkpt lat="48.74321" lon="7.36632">
        <ele>185.7</ele>
        <time>2020-06-28T16:11:26Z</time>
      </trkpt>
      <trkpt lat="48.74321" lon="7.36633">
        <ele>185.7</ele>
        <time>2020-06-28T16:11:27Z</time>
      </trkpt>
      <trkpt lat="48.74321" lon="7.36635">
        <ele>185.7</ele>
        <time>2020-06-28T16:11:28Z</time>
      </trkpt>
      <trkpt lat="48.7432" lon="7.36636">
        <ele>185.7</ele>
        <time>2020-06-28T16:11:29Z</time>
      </trkpt>
      <trkpt lat="48.74319" lon="7.36637">
        <ele>185.7</ele>
        <time>2020-06-28T16:11:30Z</time>
      </trkpt>
      <trkpt lat="48.74319" lon="7.36638">
        <ele>185.7</ele>
        <time>2020-06-28T16:11:31Z</time>
      </trkpt>
      <trkpt lat="48.74318" lon="7.36638">
        <ele>185.7</ele>
        <time>2020-06-28T16:11:32Z</time>
      </trkpt>
      <trkpt lat="48.74318" lon="7.36638">
        <ele>185.7</ele>
        <time>2020-06-28T16:11:33Z</time>
      </trkpt>
      <trkpt lat="48.74318" lon="7.36638">
        <ele>185.7</ele>
        <time>2020-06-28T16:11:34Z</time>
      </trkpt>
      <trkpt lat="48.74318" lon="7.36639">
        <ele>185.7</ele>
        <time>2020-06-28T16:11:35Z</time>
      </trkpt>
      <trkpt lat="48.74318" lon="7.36639">
        <ele>185.7</ele>
        <time>2020-06-28T16:11:36Z</time>
      </trkpt>
      <trkpt lat="48.74318" lon="7.3664">
        <ele>185.7</ele>
        <time>2020-06-28T16:11:37Z</time>
      </trkpt>
      <trkpt lat="48.74318" lon="7.36641">
        <ele>185.7</ele>
        <time>2020-06-28T16:11:38Z</time>
      </trkpt>
      <trkpt lat="48.74318" lon="7.36641">
        <ele>185.7</ele>
        <time>2020-06-28T16:11:39Z</time>
      </trkpt>
      <trkpt lat="48.74318" lon="7.36641">
        <ele>185.7</ele>
        <time>2020-06-28T16:11:40Z</time>
      </trkpt>
      <trkpt lat="48.74317" lon="7.36642">
        <ele>185.7</ele>
        <time>2020-06-28T16:11:41Z</time>
      </trkpt>
      <trkpt lat="48.74317" lon="7.36642">
        <ele>185.7</ele>
        <time>2020-06-28T16:11:42Z</time>
      </trkpt>
      <trkpt lat="48.74316" lon="7.36643">
        <ele>185.7</ele>
        <time>2020-06-28T16:11:43Z</time>
      </trkpt>
      <trkpt lat="48.74317" lon="7.36645">
        <ele>185.7</ele>
        <time>2020-06-28T16:11:44Z</time>
      </trkpt>
      <trkpt lat="48.74318" lon="7.36646">
        <ele>185.7</ele>
        <time>2020-06-28T16:11:45Z</time>
      </trkpt>
      <trkpt lat="48.74319" lon="7.36648">
        <ele>185.7</ele>
        <time>2020-06-28T16:11:46Z</time>
      </trkpt>
      <trkpt lat="48.74321" lon="7.3665">
        <ele>185.7</ele>
        <time>2020-06-28T16:11:47Z</time>
      </trkpt>
      <trkpt lat="48.74322" lon="7.36652">
        <ele>185.7</ele>
        <time>2020-06-28T16:11:48Z</time>
      </trkpt>
      <trkpt lat="48.74323" lon="7.36653">
        <ele>185.7</ele>
        <time>2020-06-28T16:46:09Z</time>
      </trkpt>
      <trkpt lat="48.74325" lon="7.36655">
        <ele>185.7</ele>
        <time>2020-06-28T16:46:10Z</time>
      </trkpt>
      <trkpt lat="48.74326" lon="7.36657">
        <ele>185.7</ele>
        <time>2020-06-28T16:46:11Z</time>
      </trkpt>
      <trkpt lat="48.74328" lon="7.36652">
        <ele>185.7</ele>
        <time>2020-06-28T16:46:12Z</time>
      </trkpt>
      <trkpt lat="48.74328" lon="7.36651">
        <ele>185.7</ele>
        <time>2020-06-28T16:46:13Z</time>
      </trkpt>
      <trkpt lat="48.74331" lon="7.36647">
        <ele>185.7</ele>
        <time>2020-06-28T16:46:14Z</time>
      </trkpt>
      <trkpt lat="48.74332" lon="7.36646">
        <ele>185.7</ele>
        <time>2020-06-28T16:46:15Z</time>
      </trkpt>
      <trkpt lat="48.74335" lon="7.36644">
        <ele>185.7</ele>
        <time>2020-06-28T16:46:16Z</time>
      </trkpt>
      <trkpt lat="48.74337" lon="7.36641">
        <ele>185.7</ele>
        <time>2020-06-28T16:46:17Z</time>
      </trkpt>
      <trkpt lat="48.74338" lon="7.36637">
        <ele>185.7</ele>
        <time>2020-06-28T16:46:18Z</time>
      </trkpt>
      <trkpt lat="48.7434" lon="7.36632">
        <ele>185.7</ele>
        <time>2020-06-28T16:46:19Z</time>
      </trkpt>
      <trkpt lat="48.74341" lon="7.36631">
        <ele>185.7</ele>
        <time>2020-06-28T16:46:20Z</time>
      </trkpt>
      <trkpt lat="48.74342" lon="7.36627">
        <ele>185.8</ele>
        <time>2020-06-28T16:46:21Z</time>
      </trkpt>
      <trkpt lat="48.74342" lon="7.36625">
        <ele>185.8</ele>
        <time>2020-06-28T16:46:22Z</time>
      </trkpt>
      <trkpt lat="48.74343" lon="7.36622">
        <ele>185.8</ele>
        <time>2020-06-28T16:46:23Z</time>
      </trkpt>
      <trkpt lat="48.74343" lon="7.3662">
        <ele>185.8</ele>
        <time>2020-06-28T16:46:24Z</time>
      </trkpt>
      <trkpt lat="48.74344" lon="7.36617">
        <ele>185.8</ele>
        <time>2020-06-28T16:46:25Z</time>
      </trkpt>
      <trkpt lat="48.74344" lon="7.36618">
        <ele>185.8</ele>
        <time>2020-06-28T16:46:26Z</time>
      </trkpt>
      <trkpt lat="48.74345" lon="7.36616">
        <ele>185.8</ele>
        <time>2020-06-28T16:46:27Z</time>
      </trkpt>
      <trkpt lat="48.74346" lon="7.36616">
        <ele>185.8</ele>
        <time>2020-06-28T16:46:28Z</time>
      </trkpt>
      <trkpt lat="48.74347" lon="7.36617">
        <ele>185.8</ele>
        <time>2020-06-28T16:46:29Z</time>
      </trkpt>
      <trkpt lat="48.74347" lon="7.36616">
        <ele>185.8</ele>
        <time>2020-06-28T16:46:30Z</time>
      </trkpt>
      <trkpt lat="48.74347" lon="7.36614">
        <ele>185.8</ele>
        <time>2020-06-28T16:46:31Z</time>
      </trkpt>
      <trkpt lat="48.74346" lon="7.36612">
        <ele>185.8</ele>
        <time>2020-06-28T16:46:32Z</time>
      </trkpt>
      <trkpt lat="48.74346" lon="7.36612">
        <ele>185.8</ele>
        <time>2020-06-28T16:46:33Z</time>
      </trkpt>
      <trkpt lat="48.74346" lon="7.36613">
        <ele>185.8</ele>
        <time>2020-06-28T16:46:34Z</time>
      </trkpt>
      <trkpt lat="48.74347" lon="7.36613">
        <ele>185.8</ele>
        <time>2020-06-28T16:46:35Z</time>
      </trkpt>
      <trkpt lat="48.74346" lon="7.36613">
        <ele>185.8</ele>
        <time>2020-06-28T16:46:36Z</time>
      </trkpt>
      <trkpt lat="48.74346" lon="7.36613">
        <ele>185.8</ele>
        <time>2020-06-28T16:46:37Z</time>
      </trkpt>
      <trkpt lat="48.74347" lon="7.36613">
        <ele>185.8</ele>
        <time>2020-06-28T16:46:38Z</time>
      </trkpt>
      <trkpt lat="48.74347" lon="7.36614">
        <ele>185.8</ele>
        <time>2020-06-28T16:46:39Z</time>
      </trkpt>
      <trkpt lat="48.74347" lon="7.36614">
        <ele>185.8</ele>
        <time>2020-06-28T16:46:40Z</time>
      </trkpt>
      <trkpt lat="48.74347" lon="7.36614">
        <ele>185.8</ele>
        <time>2020-06-28T16:46:41Z</time>
      </trkpt>
      <trkpt lat="48.74348" lon="7.36614">
        <ele>185.8</ele>
        <time>2020-06-28T16:46:42Z</time>
      </trkpt>
      <trkpt lat="48.74355" lon="7.366">
        <ele>185.8</ele>
        <time>2020-06-28T16:51:03Z</time>
      </trkpt>
      <trkpt lat="48.74357" lon="7.36601">
        <ele>185.8</ele>
        <time>2020-06-28T16:51:04Z</time>
      </trkpt>
      <trkpt lat="48.74356" lon="7.36598">
        <ele>185.8</ele>
        <time>2020-06-28T16:51:05Z</time>
      </trkpt>
      <trkpt lat="48.74357" lon="7.36596">
        <ele>185.8</ele>
        <time>2020-06-28T16:51:06Z</time>
      </trkpt>
      <trkpt lat="48.74358" lon="7.36594">
        <ele>185.8</ele>
        <time>2020-06-28T16:51:07Z</time>
      </trkpt>
      <trkpt lat="48.74359" lon="7.36593">
        <ele>185.8</ele>
        <time>2020-06-28T16:51:08Z</time>
      </trkpt>
      <trkpt lat="48.7436" lon="7.36592">
        <ele>185.8</ele>
        <time>2020-06-28T16:51:09Z</time>
      </trkpt>
      <trkpt lat="48.74362" lon="7.36592">
        <ele>185.8</ele>
        <time>2020-06-28T16:51:10Z</time>
      </trkpt>
      <trkpt lat="48.74363" lon="7.36592">
        <ele>185.8</ele>
        <time>2020-06-28T16:51:11Z</time>
      </trkpt>
      <trkpt lat="48.74363" lon="7.36591">
        <ele>185.8</ele>
        <time>2020-06-28T16:51:12Z</time>
      </trkpt>
      <trkpt lat="48.74363" lon="7.36589">
        <ele>185.8</ele>
        <time>2020-06-28T16:51:13Z</time>
      </trkpt>
      <trkpt lat="48.74363" lon="7.36588">
        <ele>185.8</ele>
        <time>2020-06-28T16:51:14Z</time>
      </trkpt>
      <trkpt lat="48.74364" lon="7.36587">
        <ele>185.8</ele>
        <time>2020-06-28T16:51:15Z</time>
      </trkpt>
      <trkpt lat="48.74365" lon="7.36586">
        <ele>185.8</ele>
        <time>2020-06-28T16:51:16Z</time>
      </trkpt>
      <trkpt lat="48.74366" lon="7.36585">
        <ele>185.8</ele>
        <time>2020-06-28T16:51:17Z</time>
      </trkpt>
      <trkpt lat="48.74367" lon="7.36583">
        <ele>185.8</ele>
        <time>2020-06-28T16:51:18Z</time>
      </trkpt>
      <trkpt lat="48.74368" lon="7.36578">
        <ele>185.8</ele>
        <time>2020-06-28T16:51:19Z</time>
      </trkpt>
      <trkpt lat="48.74369" lon="7.36577">
        <ele>185.8</ele>
        <time>2020-06-28T16:51:20Z</time>
      </trkpt>
      <trkpt lat="48.74372" lon="7.36575">
        <ele>185.8</ele>
        <time>2020-06-28T16:51:21Z</time>
      </trkpt>
      <trkpt lat="48.74372" lon="7.36574">
        <ele>185.8</ele>
        <time>2020-06-28T16:51:22Z</time>
      </trkpt>
      <trkpt lat="48.74374" lon="7.36571">
        <ele>185.8</ele>
        <time>2020-06-28T16:51:23Z</time>
      </trkpt>
      <trkpt lat="48.74374" lon="7.3657">
        <ele>185.8</ele>
        <time>2020-06-28T16:51:24Z</time>
      </trkpt>
      <trkpt lat="48.74375" lon="7.36568">
        <ele>185.8</ele>
        <time>2020-06-28T16:51:25Z</time>
      </trkpt>
      <trkpt lat="48.74377" lon="7.36565">
        <ele>185.8</ele>
        <time>2020-06-28T16:51:26Z</time>
      </trkpt>
      <trkpt lat="48.74378" lon="7.36564">
        <ele>185.8</ele>
        <time>2020-06-28T16:51:27Z</time>
      </trkpt>
      <trkpt lat="48.74381" lon="7.36562">
        <ele>185.8</ele>
        <time>2020-06-28T16:51:28Z</time>
      </trkpt>
      <trkpt lat="48.74382" lon="7.36562">
        <ele>185.8</ele>
        <time>2020-06-28T16:51:29Z</time>
      </trkpt>
      <trkpt lat="48.74385" lon="7.36561">
        <ele>185.8</ele>
        <time>2020-06-28T16:51:30Z</time>
      </trkpt>
      <trkpt lat="48.74386" lon="7.36561">
        <ele>185.8</ele>
        <time>2020-06-28T16:51:31Z</time>
      </trkpt>
      <trkpt lat="48.74387" lon="7.36559">
        <ele>185.8</ele>
        <time>2020-06-28T16:51:32Z</time>
      </trkpt>
      <trkpt lat="48.74387" lon="7.3656">
        <ele>185.8</ele>
        <time>2020-06-28T16:51:33Z</time>
      </trkpt>
      <trkpt lat="48.74386" lon="7.36559">
        <ele>185.8</ele>
        <time>2020-06-28T16:51:34Z</time>
      </trkpt>
      <trkpt lat="48.74384" lon="7.3656">
        <ele>185.8</ele>
        <time>2020-06-28T16:51:35Z</time>
      </trkpt>
      <trkpt lat="48.74383" lon="7.36563">
        <ele>185.8</ele>
        <time>2020-06-28T16:51:36Z</time>
      </trkpt>
      <trkpt lat="48.74384" lon="7.36562">
        <ele>185.9</ele>
        <time>2020-06-28T16:51:37Z</time>
      </trkpt>
      <trkpt lat="48.74385" lon="7.36561">
        <ele>185.9</ele>
        <time>2020-06-28T16:51:38Z</time>
      </trkpt>
      <trkpt lat="48.74385" lon="7.3656">
        <ele>185.9</ele>
        <time>2020-06-28T16:51:39Z</time>
      </trkpt>
      <trkpt lat="48.74386" lon="7.36559">
        <ele>185.9</ele>
        <time>2020-06-28T16:51:40Z</time>
      </trkpt>
      <trkpt lat="48.74388" lon="7.36556">
        <ele>185.9</ele>
        <time>2020-06-28T16:51:41Z</time>
      </trkpt>
      <trkpt lat="48.74389" lon="7.36555">
        <ele>185.9</ele>
        <time>2020-06-28T16:51:42Z</time>
      </trkpt>
      <trkpt lat="48.74392" lon="7.36551">
        <ele>185.9</ele>
        <time>2020-06-28T16:51:43Z</time>
      </trkpt>
      <trkpt lat="48.74393" lon="7.3655">
        <ele>185.9</ele>
        <time>2020-06-28T16:51:44Z</time>
      </trkpt>
      <trkpt lat="48.74396" lon="7.36547">
        <ele>185.9</ele>
        <time>2020-06-28T16:51:45Z</time>
      </trkpt>
      <trkpt lat="48.74397" lon="7.36546">
        <ele>185.9</ele>
        <time>2020-06-28T16:51:46Z</time>
      </trkpt>
      <trkpt lat="48.74398" lon="7.36545">
        <ele>185.9</ele>
        <time>2020-06-28T16:51:47Z</time>
      </trkpt>
      <trkpt lat="48.74399" lon="7.36543">
        <ele>185.9</ele>
        <time>2020-06-28T16:51:48Z</time>
      </trkpt>
      <trkpt lat="48.744" lon="7.3654">
        <ele>185.9</ele>
        <time>2020-06-28T16:51:49Z</time>
      </trkpt>
      <trkpt lat="48.744" lon="7.36538">
        <ele>185.9</ele>
        <time>2020-06-28T16:51:50Z</time>
      </trkpt>
      <trkpt lat="48.74403" lon="7.36534">
        <ele>185.9</ele>
        <time>2020-06-28T16:51:51Z</time>
      </trkpt>
      <trkpt lat="48.74404" lon="7.36533">
        <ele>185.9</ele>
        <time>2020-06-28T16:51:52Z</time>
      </trkpt>
      <trkpt lat="48.74405" lon="7.36529">
        <ele>185.9</ele>
        <time>2020-06-28T16:51:53Z</time>
      </trkpt>
      <trkpt lat="48.74406" lon="7.36527">
        <ele>185.9</ele>
        <time>2020-06-28T16:51:54Z</time>
      </trkpt>
      <trkpt lat="48.74406" lon="7.36523">
        <ele>185.9</ele>
        <time>2020-06-28T16:51:55Z</time>
      </trkpt>
      <trkpt lat="48.74407" lon="7.36518">
        <ele>185.9</ele>
        <time>2020-06-28T16:51:56Z</time>
      </trkpt>
      <trkpt lat="48.74408" lon="7.36513">
        <ele>185.9</ele>
        <time>2020-06-28T16:51:57Z</time>
      </trkpt>
      <trkpt lat="48.74409" lon="7.36508">
        <ele>185.9</ele>
        <time>2020-06-28T16:51:58Z</time>
      </trkpt>
      <trkpt lat="48.74409" lon="7.36504">
        <ele>185.8</ele>
        <time>2020-06-28T16:51:59Z</time>
      </trkpt>
      <trkpt lat="48.74409" lon="7.36499">
        <ele>185.8</ele>
        <time>2020-06-28T16:52:00Z</time>
      </trkpt>
      <trkpt lat="48.74408" lon="7.36496">
        <ele>185.8</ele>
        <time>2020-06-28T16:52:01Z</time>
      </trkpt>
      <trkpt lat="48.74407" lon="7.36491">
        <ele>185.8</ele>
        <time>2020-06-28T16:52:02Z</time>
      </trkpt>
      <trkpt lat="48.74407" lon="7.3649">
        <ele>185.8</ele>
        <time>2020-06-28T16:52:03Z</time>
      </trkpt>
      <trkpt lat="48.74406" lon="7.36486">
        <ele>185.8</ele>
        <time>2020-06-28T16:52:04Z</time>
      </trkpt>
      <trkpt lat="48.74403" lon="7.36481">
        <ele>185.7</ele>
        <time>2020-06-28T16:52:05Z</time>
      </trkpt>
      <trkpt lat="48.744" lon="7.36476">
        <ele>185.7</ele>
        <time>2020-06-28T16:52:06Z</time>
      </trkpt>
      <trkpt lat="48.74397" lon="7.3647">
        <ele>185.7</ele>
        <time>2020-06-28T16:52:07Z</time>
      </trkpt>
      <trkpt lat="48.74394" lon="7.36464">
        <ele>185.6</ele>
        <time>2020-06-28T16:52:08Z</time>
      </trkpt>
      <trkpt lat="48.74392" lon="7.36458">
        <ele>185.6</ele>
        <time>2020-06-28T16:52:09Z</time>
      </trkpt>
      <trkpt lat="48.7439" lon="7.36454">
        <ele>185.6</ele>
        <time>2020-06-28T16:52:10Z</time>
      </trkpt>
      <trkpt lat="48.74387" lon="7.3645">
        <ele>185.6</ele>
        <time>2020-06-28T16:52:11Z</time>
      </trkpt>
      <trkpt lat="48.74386" lon="7.36449">
        <ele>185.6</ele>
        <time>2020-06-28T16:52:12Z</time>
      </trkpt>
      <trkpt lat="48.74384" lon="7.36444">
        <ele>185.6</ele>
        <time>2020-06-28T16:52:13Z</time>
      </trkpt>
      <trkpt lat="48.74381" lon="7.36441">
        <ele>185.6</ele>
        <time>2020-06-28T16:52:14Z</time>
      </trkpt>
      <trkpt lat="48.74379" lon="7.36437">
        <ele>185.7</ele>
        <time>2020-06-28T16:52:15Z</time>
      </trkpt>
      <trkpt lat="48.74377" lon="7.36434">
        <ele>185.7</ele>
        <time>2020-06-28T16:52:16Z</time>
      </trkpt>
      <trkpt lat="48.74374" lon="7.36427">
        <ele>185.7</ele>
        <time>2020-06-28T16:52:17Z</time>
      </trkpt>
      <trkpt lat="48.74372" lon="7.36422">
        <ele>185.7</ele>
        <time>2020-06-28T16:52:18Z</time>
      </trkpt>
      <trkpt lat="48.7437" lon="7.36417">
        <ele>185.8</ele>
        <time>2020-06-28T16:52:19Z</time>
      </trkpt>
      <trkpt lat="48.74367" lon="7.36412">
        <ele>185.8</ele>
        <time>2020-06-28T16:52:20Z</time>
      </trkpt>
      <trkpt lat="48.74364" lon="7.36407">
        <ele>185.8</ele>
        <time>2020-06-28T16:52:21Z</time>
      </trkpt>
      <trkpt lat="48.74361" lon="7.36403">
        <ele>185.8</ele>
        <time>2020-06-28T16:52:22Z</time>
      </trkpt>
      <trkpt lat="48.74359" lon="7.36398">
        <ele>185.8</ele>
        <time>2020-06-28T16:52:23Z</time>
      </trkpt>
      <trkpt lat="48.74356" lon="7.36392">
        <ele>185.9</ele>
        <time>2020-06-28T16:52:24Z</time>
      </trkpt>
      <trkpt lat="48.74356" lon="7.36383">
        <ele>185.9</ele>
        <time>2020-06-28T16:52:25Z</time>
      </trkpt>
      <trkpt lat="48.74353" lon="7.36377">
        <ele>185.9</ele>
        <time>2020-06-28T16:52:26Z</time>
      </trkpt>
      <trkpt lat="48.74349" lon="7.36371">
        <ele>185.9</ele>
        <time>2020-06-28T16:52:27Z</time>
      </trkpt>
      <trkpt lat="48.74346" lon="7.36367">
        <ele>185.9</ele>
        <time>2020-06-28T16:52:28Z</time>
      </trkpt>
      <trkpt lat="48.74343" lon="7.36363">
        <ele>185.9</ele>
        <time>2020-06-28T16:52:29Z</time>
      </trkpt>
      <trkpt lat="48.74341" lon="7.3636">
        <ele>185.9</ele>
        <time>2020-06-28T16:52:30Z</time>
      </trkpt>
      <trkpt lat="48.74339" lon="7.36356">
        <ele>185.9</ele>
        <time>2020-06-28T16:52:31Z</time>
      </trkpt>
      <trkpt lat="48.74337" lon="7.36351">
        <ele>185.9</ele>
        <time>2020-06-28T16:52:32Z</time>
      </trkpt>
      <trkpt lat="48.74334" lon="7.36348">
        <ele>185.9</ele>
        <time>2020-06-28T16:52:33Z</time>
      </trkpt>
      <trkpt lat="48.74333" lon="7.36344">
        <ele>185.9</ele>
        <time>2020-06-28T16:52:34Z</time>
      </trkpt>
      <trkpt lat="48.74331" lon="7.3634">
        <ele>185.9</ele>
        <time>2020-06-28T16:52:35Z</time>
      </trkpt>
      <trkpt lat="48.74329" lon="7.36336">
        <ele>185.9</ele>
        <time>2020-06-28T16:52:36Z</time>
      </trkpt>
      <trkpt lat="48.74327" lon="7.36334">
        <ele>185.9</ele>
        <time>2020-06-28T16:52:37Z</time>
      </trkpt>
      <trkpt lat="48.74326" lon="7.3633">
        <ele>185.9</ele>
        <time>2020-06-28T16:52:38Z</time>
      </trkpt>
      <trkpt lat="48.74323" lon="7.36326">
        <ele>186</ele>
        <time>2020-06-28T16:52:39Z</time>
      </trkpt>
      <trkpt lat="48.74321" lon="7.36324">
        <ele>186</ele>
        <time>2020-06-28T16:52:40Z</time>
      </trkpt>
      <trkpt lat="48.7432" lon="7.3632">
        <ele>186</ele>
        <time>2020-06-28T16:52:41Z</time>
      </trkpt>
      <trkpt lat="48.74318" lon="7.3632">
        <ele>186</ele>
        <time>2020-06-28T16:52:42Z</time>
      </trkpt>
      <trkpt lat="48.74317" lon="7.36319">
        <ele>186</ele>
        <time>2020-06-28T16:52:43Z</time>
      </trkpt>
      <trkpt lat="48.74314" lon="7.36316">
        <ele>186</ele>
        <time>2020-06-28T16:52:44Z</time>
      </trkpt>
      <trkpt lat="48.74312" lon="7.36312">
        <ele>186</ele>
        <time>2020-06-28T16:52:45Z</time>
      </trkpt>
      <trkpt lat="48.74312" lon="7.36311">
        <ele>186</ele>
        <time>2020-06-28T16:52:46Z</time>
      </trkpt>
      <trkpt lat="48.74312" lon="7.36309">
        <ele>186.1</ele>
        <time>2020-06-28T16:52:47Z</time>
      </trkpt>
      <trkpt lat="48.74311" lon="7.36306">
        <ele>186.1</ele>
        <time>2020-06-28T16:52:48Z</time>
      </trkpt>
      <trkpt lat="48.74312" lon="7.363">
        <ele>186.1</ele>
        <time>2020-06-28T16:52:49Z</time>
      </trkpt>
      <trkpt lat="48.74311" lon="7.36296">
        <ele>186.1</ele>
        <time>2020-06-28T16:52:50Z</time>
      </trkpt>
      <trkpt lat="48.74308" lon="7.36293">
        <ele>186.2</ele>
        <time>2020-06-28T16:52:51Z</time>
      </trkpt>
      <trkpt lat="48.74307" lon="7.36291">
        <ele>186.2</ele>
        <time>2020-06-28T16:52:52Z</time>
      </trkpt>
      <trkpt lat="48.74304" lon="7.36287">
        <ele>186.2</ele>
        <time>2020-06-28T16:52:53Z</time>
      </trkpt>
      <trkpt lat="48.74303" lon="7.36285">
        <ele>186.2</ele>
        <time>2020-06-28T16:52:54Z</time>
      </trkpt>
      <trkpt lat="48.74299" lon="7.36281">
        <ele>186.3</ele>
        <time>2020-06-28T16:52:55Z</time>
      </trkpt>
      <trkpt lat="48.74295" lon="7.36277">
        <ele>186.3</ele>
        <time>2020-06-28T16:52:56Z</time>
      </trkpt>
      <trkpt lat="48.74292" lon="7.36274">
        <ele>186.4</ele>
        <time>2020-06-28T16:52:57Z</time>
      </trkpt>
      <trkpt lat="48.74289" lon="7.3627">
        <ele>186.4</ele>
        <time>2020-06-28T16:52:58Z</time>
      </trkpt>
      <trkpt lat="48.74291" lon="7.36262">
        <ele>186.5</ele>
        <time>2020-06-28T16:52:59Z</time>
      </trkpt>
      <trkpt lat="48.7429" lon="7.36258">
        <ele>186.5</ele>
        <time>2020-06-28T16:53:00Z</time>
      </trkpt>
      <trkpt lat="48.74288" lon="7.36255">
        <ele>186.6</ele>
        <time>2020-06-28T16:53:01Z</time>
      </trkpt>
      <trkpt lat="48.74285" lon="7.36252">
        <ele>186.6</ele>
        <time>2020-06-28T16:53:02Z</time>
      </trkpt>
      <trkpt lat="48.74282" lon="7.36249">
        <ele>186.7</ele>
        <time>2020-06-28T16:53:03Z</time>
      </trkpt>
      <trkpt lat="48.7428" lon="7.36245">
        <ele>186.8</ele>
        <time>2020-06-28T16:53:04Z</time>
      </trkpt>
      <trkpt lat="48.74276" lon="7.36242">
        <ele>186.8</ele>
        <time>2020-06-28T16:53:05Z</time>
      </trkpt>
      <trkpt lat="48.74273" lon="7.36239">
        <ele>186.9</ele>
        <time>2020-06-28T16:53:06Z</time>
      </trkpt>
      <trkpt lat="48.7427" lon="7.36235">
        <ele>187</ele>
        <time>2020-06-28T16:53:07Z</time>
      </trkpt>
      <trkpt lat="48.74269" lon="7.36229">
        <ele>187.1</ele>
        <time>2020-06-28T16:53:08Z</time>
      </trkpt>
      <trkpt lat="48.74268" lon="7.36224">
        <ele>187.2</ele>
        <time>2020-06-28T16:53:09Z</time>
      </trkpt>
      <trkpt lat="48.74267" lon="7.36218">
        <ele>187.3</ele>
        <time>2020-06-28T16:53:10Z</time>
      </trkpt>
      <trkpt lat="48.74265" lon="7.36212">
        <ele>187.4</ele>
        <time>2020-06-28T16:53:11Z</time>
      </trkpt>
      <trkpt lat="48.74263" lon="7.36208">
        <ele>187.5</ele>
        <time>2020-06-28T16:53:12Z</time>
      </trkpt>
      <trkpt lat="48.7426" lon="7.36204">
        <ele>187.6</ele>
        <time>2020-06-28T16:53:13Z</time>
      </trkpt>
      <trkpt lat="48.74259" lon="7.36202">
        <ele>187.6</ele>
        <time>2020-06-28T16:53:14Z</time>
      </trkpt>
      <trkpt lat="48.74256" lon="7.36198">
        <ele>187.7</ele>
        <time>2020-06-28T16:53:15Z</time>
      </trkpt>
      <trkpt lat="48.74253" lon="7.36193">
        <ele>187.8</ele>
        <time>2020-06-28T16:53:16Z</time>
      </trkpt>
      <trkpt lat="48.74248" lon="7.3619">
        <ele>188.1</ele>
        <time>2020-06-28T16:53:17Z</time>
      </trkpt>
      <trkpt lat="48.74243" lon="7.36188">
        <ele>188.3</ele>
        <time>2020-06-28T16:53:18Z</time>
      </trkpt>
      <trkpt lat="48.74241" lon="7.36185">
        <ele>188.4</ele>
        <time>2020-06-28T16:53:19Z</time>
      </trkpt>
      <trkpt lat="48.74238" lon="7.36182">
        <ele>188.5</ele>
        <time>2020-06-28T16:53:20Z</time>
      </trkpt>
      <trkpt lat="48.74235" lon="7.36179">
        <ele>188.6</ele>
        <time>2020-06-28T16:53:21Z</time>
      </trkpt>
      <trkpt lat="48.74234" lon="7.36179">
        <ele>188.7</ele>
        <time>2020-06-28T16:53:22Z</time>
      </trkpt>
      <trkpt lat="48.74231" lon="7.36176">
        <ele>188.8</ele>
        <time>2020-06-28T16:53:23Z</time>
      </trkpt>
      <trkpt lat="48.74228" lon="7.36173">
        <ele>188.9</ele>
        <time>2020-06-28T16:53:24Z</time>
      </trkpt>
      <trkpt lat="48.74227" lon="7.36172">
        <ele>189</ele>
        <time>2020-06-28T16:53:25Z</time>
      </trkpt>
      <trkpt lat="48.74228" lon="7.36166">
        <ele>189.1</ele>
        <time>2020-06-28T16:53:26Z</time>
      </trkpt>
      <trkpt lat="48.74227" lon="7.36162">
        <ele>189.2</ele>
        <time>2020-06-28T16:53:27Z</time>
      </trkpt>
      <trkpt lat="48.74226" lon="7.36158">
        <ele>189.3</ele>
        <time>2020-06-28T16:53:28Z</time>
      </trkpt>
      <trkpt lat="48.74225" lon="7.36154">
        <ele>189.5</ele>
        <time>2020-06-28T16:53:29Z</time>
      </trkpt>
      <trkpt lat="48.74223" lon="7.36149">
        <ele>189.6</ele>
        <time>2020-06-28T16:53:30Z</time>
      </trkpt>
      <trkpt lat="48.74222" lon="7.36146">
        <ele>189.7</ele>
        <time>2020-06-28T16:53:31Z</time>
      </trkpt>
      <trkpt lat="48.74219" lon="7.36142">
        <ele>189.9</ele>
        <time>2020-06-28T16:53:32Z</time>
      </trkpt>
      <trkpt lat="48.74218" lon="7.36141">
        <ele>189.9</ele>
        <time>2020-06-28T16:53:33Z</time>
      </trkpt>
      <trkpt lat="48.74216" lon="7.36137">
        <ele>190</ele>
        <time>2020-06-28T16:53:34Z</time>
      </trkpt>
      <trkpt lat="48.74216" lon="7.36136">
        <ele>190.1</ele>
        <time>2020-06-28T16:53:35Z</time>
      </trkpt>
      <trkpt lat="48.74214" lon="7.36132">
        <ele>190.2</ele>
        <time>2020-06-28T16:53:36Z</time>
      </trkpt>
      <trkpt lat="48.74213" lon="7.36132">
        <ele>190.2</ele>
        <time>2020-06-28T16:53:37Z</time>
      </trkpt>
      <trkpt lat="48.74213" lon="7.36129">
        <ele>190.3</ele>
        <time>2020-06-28T16:53:38Z</time>
      </trkpt>
      <trkpt lat="48.74213" lon="7.3613">
        <ele>190.3</ele>
        <time>2020-06-28T16:53:39Z</time>
      </trkpt>
      <trkpt lat="48.74213" lon="7.3613">
        <ele>190.4</ele>
        <time>2020-06-28T16:53:40Z</time>
      </trkpt>
      <trkpt lat="48.74213" lon="7.36127">
        <ele>190.5</ele>
        <time>2020-06-28T16:53:41Z</time>
      </trkpt>
      <trkpt lat="48.74213" lon="7.36123">
        <ele>190.6</ele>
        <time>2020-06-28T16:53:42Z</time>
      </trkpt>
      <trkpt lat="48.74213" lon="7.36122">
        <ele>190.6</ele>
        <time>2020-06-28T16:53:43Z</time>
      </trkpt>
      <trkpt lat="48.74213" lon="7.3612">
        <ele>190.7</ele>
        <time>2020-06-28T16:53:44Z</time>
      </trkpt>
      <trkpt lat="48.74212" lon="7.36118">
        <ele>190.7</ele>
        <time>2020-06-28T16:53:45Z</time>
      </trkpt>
      <trkpt lat="48.74211" lon="7.36117">
        <ele>190.8</ele>
        <time>2020-06-28T16:53:46Z</time>
      </trkpt>
      <trkpt lat="48.74209" lon="7.36115">
        <ele>190.9</ele>
        <time>2020-06-28T16:53:47Z</time>
      </trkpt>
      <trkpt lat="48.74208" lon="7.36114">
        <ele>191</ele>
        <time>2020-06-28T16:53:48Z</time>
      </trkpt>
      <trkpt lat="48.74207" lon="7.36114">
        <ele>191</ele>
        <time>2020-06-28T16:53:49Z</time>
      </trkpt>
      <trkpt lat="48.74206" lon="7.36113">
        <ele>191</ele>
        <time>2020-06-28T16:53:50Z</time>
      </trkpt>
      <trkpt lat="48.74206" lon="7.36114">
        <ele>191.1</ele>
        <time>2020-06-28T16:53:51Z</time>
      </trkpt>
      <trkpt lat="48.74205" lon="7.36113">
        <ele>191.1</ele>
        <time>2020-06-28T16:53:52Z</time>
      </trkpt>
      <trkpt lat="48.74205" lon="7.36113">
        <ele>191.1</ele>
        <time>2020-06-28T16:53:53Z</time>
      </trkpt>
      <trkpt lat="48.74205" lon="7.36113">
        <ele>191.1</ele>
        <time>2020-06-28T16:53:54Z</time>
      </trkpt>
      <trkpt lat="48.74205" lon="7.36114">
        <ele>191.2</ele>
        <time>2020-06-28T16:53:55Z</time>
      </trkpt>
      <trkpt lat="48.74205" lon="7.36115">
        <ele>191.2</ele>
        <time>2020-06-28T16:53:56Z</time>
      </trkpt>
      <trkpt lat="48.74205" lon="7.36115">
        <ele>191.2</ele>
        <time>2020-06-28T16:53:57Z</time>
      </trkpt>
      <trkpt lat="48.74205" lon="7.36115">
        <ele>191.2</ele>
        <time>2020-06-28T16:53:58Z</time>
      </trkpt>
      <trkpt lat="48.74205" lon="7.36115">
        <ele>191.2</ele>
        <time>2020-06-28T16:53:59Z</time>
      </trkpt>
      <trkpt lat="48.74205" lon="7.36115">
        <ele>191.2</ele>
        <time>2020-06-28T16:54:00Z</time>
      </trkpt>
      <trkpt lat="48.74205" lon="7.36115">
        <ele>191.2</ele>
        <time>2020-06-28T16:54:01Z</time>
      </trkpt>
      <trkpt lat="48.7421" lon="7.36119">
        <ele>191.5</ele>
        <time>2020-06-28T16:54:06Z</time>
      </trkpt>
      <trkpt lat="48.74211" lon="7.36122">
        <ele>191.6</ele>
        <time>2020-06-28T16:54:07Z</time>
      </trkpt>
      <trkpt lat="48.7421" lon="7.36124">
        <ele>191.7</ele>
        <time>2020-06-28T16:54:08Z</time>
      </trkpt>
      <trkpt lat="48.74209" lon="7.36126">
        <ele>191.8</ele>
        <time>2020-06-28T16:54:09Z</time>
      </trkpt>
      <trkpt lat="48.74207" lon="7.36128">
        <ele>192.8</ele>
        <time>2020-06-28T16:54:10Z</time>
      </trkpt>
      <trkpt lat="48.74206" lon="7.36128">
        <ele>192.8</ele>
        <time>2020-06-28T16:54:11Z</time>
      </trkpt>
      <trkpt lat="48.74204" lon="7.3613">
        <ele>192.8</ele>
        <time>2020-06-28T16:54:12Z</time>
      </trkpt>
      <trkpt lat="48.74203" lon="7.36132">
        <ele>192.8</ele>
        <time>2020-06-28T16:54:13Z</time>
      </trkpt>
      <trkpt lat="48.74203" lon="7.36135">
        <ele>192.8</ele>
        <time>2020-06-28T16:54:14Z</time>
      </trkpt>
      <trkpt lat="48.74203" lon="7.36137">
        <ele>192.8</ele>
        <time>2020-06-28T16:54:15Z</time>
      </trkpt>
      <trkpt lat="48.74202" lon="7.36137">
        <ele>192.8</ele>
        <time>2020-06-28T16:54:16Z</time>
      </trkpt>
      <trkpt lat="48.74202" lon="7.36136">
        <ele>192.8</ele>
        <time>2020-06-28T16:54:17Z</time>
      </trkpt>
      <trkpt lat="48.74201" lon="7.36135">
        <ele>192.8</ele>
        <time>2020-06-28T16:54:18Z</time>
      </trkpt>
      <trkpt lat="48.742" lon="7.36134">
        <ele>192.8</ele>
        <time>2020-06-28T16:54:19Z</time>
      </trkpt>
      <trkpt lat="48.74198" lon="7.3613">
        <ele>192.9</ele>
        <time>2020-06-28T16:54:20Z</time>
      </trkpt>
      <trkpt lat="48.74197" lon="7.36128">
        <ele>192.9</ele>
        <time>2020-06-28T16:54:21Z</time>
      </trkpt>
      <trkpt lat="48.74196" lon="7.36124">
        <ele>192.9</ele>
        <time>2020-06-28T16:54:22Z</time>
      </trkpt>
      <trkpt lat="48.74194" lon="7.36119">
        <ele>192.9</ele>
        <time>2020-06-28T16:54:23Z</time>
      </trkpt>
      <trkpt lat="48.74191" lon="7.36114">
        <ele>192.9</ele>
        <time>2020-06-28T16:54:24Z</time>
      </trkpt>
      <trkpt lat="48.74188" lon="7.36107">
        <ele>192.9</ele>
        <time>2020-06-28T16:54:25Z</time>
      </trkpt>
      <trkpt lat="48.74185" lon="7.36099">
        <ele>192.8</ele>
        <time>2020-06-28T16:54:26Z</time>
      </trkpt>
      <trkpt lat="48.74182" lon="7.36092">
        <ele>192.8</ele>
        <time>2020-06-28T16:54:27Z</time>
      </trkpt>
      <trkpt lat="48.74179" lon="7.36086">
        <ele>192.8</ele>
        <time>2020-06-28T16:54:28Z</time>
      </trkpt>
      <trkpt lat="48.74176" lon="7.3608">
        <ele>192.7</ele>
        <time>2020-06-28T16:54:29Z</time>
      </trkpt>
      <trkpt lat="48.74173" lon="7.36073">
        <ele>192.7</ele>
        <time>2020-06-28T16:54:30Z</time>
      </trkpt>
      <trkpt lat="48.74169" lon="7.36067">
        <ele>192.7</ele>
        <time>2020-06-28T16:54:31Z</time>
      </trkpt>
      <trkpt lat="48.74166" lon="7.36062">
        <ele>192.7</ele>
        <time>2020-06-28T16:54:32Z</time>
      </trkpt>
      <trkpt lat="48.74163" lon="7.36058">
        <ele>192.7</ele>
        <time>2020-06-28T16:54:33Z</time>
      </trkpt>
      <trkpt lat="48.74159" lon="7.36053">
        <ele>192.6</ele>
        <time>2020-06-28T16:54:34Z</time>
      </trkpt>
      <trkpt lat="48.74156" lon="7.36048">
        <ele>192.6</ele>
        <time>2020-06-28T16:54:35Z</time>
      </trkpt>
      <trkpt lat="48.74154" lon="7.36042">
        <ele>192.6</ele>
        <time>2020-06-28T16:54:36Z</time>
      </trkpt>
      <trkpt lat="48.74152" lon="7.36037">
        <ele>192.6</ele>
        <time>2020-06-28T16:54:37Z</time>
      </trkpt>
      <trkpt lat="48.74148" lon="7.36033">
        <ele>192.6</ele>
        <time>2020-06-28T16:54:38Z</time>
      </trkpt>
      <trkpt lat="48.74144" lon="7.36027">
        <ele>192.6</ele>
        <time>2020-06-28T16:54:39Z</time>
      </trkpt>
      <trkpt lat="48.7414" lon="7.36021">
        <ele>192.6</ele>
        <time>2020-06-28T16:54:40Z</time>
      </trkpt>
      <trkpt lat="48.74137" lon="7.36014">
        <ele>192.6</ele>
        <time>2020-06-28T16:54:41Z</time>
      </trkpt>
      <trkpt lat="48.74133" lon="7.36009">
        <ele>192.6</ele>
        <time>2020-06-28T16:54:42Z</time>
      </trkpt>
      <trkpt lat="48.7413" lon="7.36002">
        <ele>192.6</ele>
        <time>2020-06-28T16:54:43Z</time>
      </trkpt>
      <trkpt lat="48.74127" lon="7.35996">
        <ele>192.6</ele>
        <time>2020-06-28T16:54:44Z</time>
      </trkpt>
      <trkpt lat="48.74125" lon="7.3599">
        <ele>192.6</ele>
        <time>2020-06-28T16:54:45Z</time>
      </trkpt>
      <trkpt lat="48.74123" lon="7.35984">
        <ele>192.6</ele>
        <time>2020-06-28T16:54:46Z</time>
      </trkpt>
      <trkpt lat="48.7412" lon="7.35979">
        <ele>192.7</ele>
        <time>2020-06-28T16:54:47Z</time>
      </trkpt>
      <trkpt lat="48.74118" lon="7.35974">
        <ele>192.7</ele>
        <time>2020-06-28T16:54:48Z</time>
      </trkpt>
      <trkpt lat="48.74115" lon="7.35969">
        <ele>192.7</ele>
        <time>2020-06-28T16:54:49Z</time>
      </trkpt>
      <trkpt lat="48.74112" lon="7.35962">
        <ele>192.7</ele>
        <time>2020-06-28T16:54:50Z</time>
      </trkpt>
      <trkpt lat="48.74109" lon="7.35956">
        <ele>192.7</ele>
        <time>2020-06-28T16:54:51Z</time>
      </trkpt>
      <trkpt lat="48.74106" lon="7.3595">
        <ele>192.7</ele>
        <time>2020-06-28T16:54:52Z</time>
      </trkpt>
      <trkpt lat="48.74103" lon="7.35944">
        <ele>192.7</ele>
        <time>2020-06-28T16:54:53Z</time>
      </trkpt>
      <trkpt lat="48.74099" lon="7.35938">
        <ele>192.7</ele>
        <time>2020-06-28T16:54:54Z</time>
      </trkpt>
      <trkpt lat="48.74097" lon="7.35932">
        <ele>192.7</ele>
        <time>2020-06-28T16:54:55Z</time>
      </trkpt>
      <trkpt lat="48.74095" lon="7.35926">
        <ele>192.7</ele>
        <time>2020-06-28T16:54:56Z</time>
      </trkpt>
      <trkpt lat="48.74092" lon="7.3592">
        <ele>192.7</ele>
        <time>2020-06-28T16:54:57Z</time>
      </trkpt>
      <trkpt lat="48.7409" lon="7.35914">
        <ele>192.7</ele>
        <time>2020-06-28T16:54:58Z</time>
      </trkpt>
      <trkpt lat="48.74089" lon="7.35908">
        <ele>192.7</ele>
        <time>2020-06-28T16:54:59Z</time>
      </trkpt>
      <trkpt lat="48.74089" lon="7.35899">
        <ele>192.7</ele>
        <time>2020-06-28T16:55:00Z</time>
      </trkpt>
      <trkpt lat="48.74089" lon="7.35892">
        <ele>192.7</ele>
        <time>2020-06-28T16:55:01Z</time>
      </trkpt>
      <trkpt lat="48.74089" lon="7.35886">
        <ele>192.7</ele>
        <time>2020-06-28T16:55:02Z</time>
      </trkpt>
      <trkpt lat="48.74088" lon="7.35878">
        <ele>192.7</ele>
        <time>2020-06-28T16:55:03Z</time>
      </trkpt>
      <trkpt lat="48.74088" lon="7.35871">
        <ele>192.7</ele>
        <time>2020-06-28T16:55:04Z</time>
      </trkpt>
      <trkpt lat="48.74088" lon="7.35864">
        <ele>192.7</ele>
        <time>2020-06-28T16:55:05Z</time>
      </trkpt>
      <trkpt lat="48.74089" lon="7.35856">
        <ele>192.7</ele>
        <time>2020-06-28T16:55:06Z</time>
      </trkpt>
      <trkpt lat="48.7409" lon="7.35849">
        <ele>192.8</ele>
        <time>2020-06-28T16:55:07Z</time>
      </trkpt>
      <trkpt lat="48.7409" lon="7.35841">
        <ele>192.8</ele>
        <time>2020-06-28T16:55:08Z</time>
      </trkpt>
      <trkpt lat="48.74089" lon="7.35834">
        <ele>192.8</ele>
        <time>2020-06-28T16:55:09Z</time>
      </trkpt>
      <trkpt lat="48.7409" lon="7.35826">
        <ele>192.8</ele>
        <time>2020-06-28T16:55:10Z</time>
      </trkpt>
      <trkpt lat="48.74092" lon="7.35819">
        <ele>192.8</ele>
        <time>2020-06-28T16:55:11Z</time>
      </trkpt>
      <trkpt lat="48.74093" lon="7.35812">
        <ele>192.8</ele>
        <time>2020-06-28T16:55:12Z</time>
      </trkpt>
      <trkpt lat="48.74093" lon="7.35805">
        <ele>192.8</ele>
        <time>2020-06-28T16:55:13Z</time>
      </trkpt>
      <trkpt lat="48.74093" lon="7.35799">
        <ele>192.8</ele>
        <time>2020-06-28T16:55:14Z</time>
      </trkpt>
      <trkpt lat="48.74093" lon="7.35792">
        <ele>192.8</ele>
        <time>2020-06-28T16:55:15Z</time>
      </trkpt>
      <trkpt lat="48.74093" lon="7.35784">
        <ele>192.8</ele>
        <time>2020-06-28T16:55:16Z</time>
      </trkpt>
      <trkpt lat="48.74093" lon="7.35777">
        <ele>192.8</ele>
        <time>2020-06-28T16:55:17Z</time>
      </trkpt>
      <trkpt lat="48.74094" lon="7.3577">
        <ele>192.8</ele>
        <time>2020-06-28T16:55:18Z</time>
      </trkpt>
      <trkpt lat="48.74094" lon="7.35762">
        <ele>192.8</ele>
        <time>2020-06-28T16:55:19Z</time>
      </trkpt>
      <trkpt lat="48.74094" lon="7.35754">
        <ele>192.8</ele>
        <time>2020-06-28T16:55:20Z</time>
      </trkpt>
      <trkpt lat="48.74094" lon="7.35748">
        <ele>192.8</ele>
        <time>2020-06-28T16:55:21Z</time>
      </trkpt>
      <trkpt lat="48.74094" lon="7.35741">
        <ele>192.8</ele>
        <time>2020-06-28T16:55:22Z</time>
      </trkpt>
      <trkpt lat="48.74095" lon="7.35733">
        <ele>192.8</ele>
        <time>2020-06-28T16:55:23Z</time>
      </trkpt>
      <trkpt lat="48.74094" lon="7.35726">
        <ele>192.8</ele>
        <time>2020-06-28T16:55:24Z</time>
      </trkpt>
      <trkpt lat="48.74094" lon="7.35718">
        <ele>192.8</ele>
        <time>2020-06-28T16:55:25Z</time>
      </trkpt>
      <trkpt lat="48.74095" lon="7.3571">
        <ele>192.8</ele>
        <time>2020-06-28T16:55:26Z</time>
      </trkpt>
      <trkpt lat="48.74096" lon="7.35704">
        <ele>192.8</ele>
        <time>2020-06-28T16:55:27Z</time>
      </trkpt>
      <trkpt lat="48.74096" lon="7.35696">
        <ele>192.8</ele>
        <time>2020-06-28T16:55:28Z</time>
      </trkpt>
      <trkpt lat="48.74096" lon="7.35688">
        <ele>192.8</ele>
        <time>2020-06-28T16:55:29Z</time>
      </trkpt>
      <trkpt lat="48.74096" lon="7.35681">
        <ele>192.8</ele>
        <time>2020-06-28T16:55:30Z</time>
      </trkpt>
      <trkpt lat="48.74095" lon="7.35673">
        <ele>192.8</ele>
        <time>2020-06-28T16:55:31Z</time>
      </trkpt>
      <trkpt lat="48.74095" lon="7.35665">
        <ele>192.7</ele>
        <time>2020-06-28T16:55:32Z</time>
      </trkpt>
      <trkpt lat="48.74095" lon="7.35658">
        <ele>192.7</ele>
        <time>2020-06-28T16:55:33Z</time>
      </trkpt>
      <trkpt lat="48.74095" lon="7.3565">
        <ele>192.7</ele>
        <time>2020-06-28T16:55:34Z</time>
      </trkpt>
      <trkpt lat="48.74095" lon="7.35641">
        <ele>192.7</ele>
        <time>2020-06-28T16:55:35Z</time>
      </trkpt>
      <trkpt lat="48.74094" lon="7.35634">
        <ele>192.8</ele>
        <time>2020-06-28T16:55:36Z</time>
      </trkpt>
      <trkpt lat="48.74093" lon="7.35626">
        <ele>192.8</ele>
        <time>2020-06-28T16:55:37Z</time>
      </trkpt>
      <trkpt lat="48.74093" lon="7.35619">
        <ele>192.8</ele>
        <time>2020-06-28T16:55:38Z</time>
      </trkpt>
      <trkpt lat="48.74093" lon="7.35612">
        <ele>192.8</ele>
        <time>2020-06-28T16:55:39Z</time>
      </trkpt>
      <trkpt lat="48.74093" lon="7.35605">
        <ele>192.8</ele>
        <time>2020-06-28T16:55:40Z</time>
      </trkpt>
      <trkpt lat="48.74093" lon="7.35598">
        <ele>192.8</ele>
        <time>2020-06-28T16:55:41Z</time>
      </trkpt>
      <trkpt lat="48.74094" lon="7.3559">
        <ele>192.8</ele>
        <time>2020-06-28T16:55:42Z</time>
      </trkpt>
      <trkpt lat="48.74094" lon="7.35583">
        <ele>192.8</ele>
        <time>2020-06-28T16:55:43Z</time>
      </trkpt>
      <trkpt lat="48.74095" lon="7.35576">
        <ele>192.8</ele>
        <time>2020-06-28T16:55:44Z</time>
      </trkpt>
      <trkpt lat="48.74095" lon="7.35569">
        <ele>192.8</ele>
        <time>2020-06-28T16:55:45Z</time>
      </trkpt>
      <trkpt lat="48.74095" lon="7.35562">
        <ele>192.8</ele>
        <time>2020-06-28T16:55:46Z</time>
      </trkpt>
      <trkpt lat="48.74095" lon="7.35554">
        <ele>192.8</ele>
        <time>2020-06-28T16:55:47Z</time>
      </trkpt>
      <trkpt lat="48.74095" lon="7.35547">
        <ele>192.8</ele>
        <time>2020-06-28T16:55:48Z</time>
      </trkpt>
      <trkpt lat="48.74096" lon="7.3554">
        <ele>192.8</ele>
        <time>2020-06-28T16:55:49Z</time>
      </trkpt>
      <trkpt lat="48.74097" lon="7.35533">
        <ele>192.8</ele>
        <time>2020-06-28T16:55:50Z</time>
      </trkpt>
      <trkpt lat="48.74098" lon="7.35526">
        <ele>192.8</ele>
        <time>2020-06-28T16:55:51Z</time>
      </trkpt>
      <trkpt lat="48.74097" lon="7.35517">
        <ele>192.8</ele>
        <time>2020-06-28T16:55:52Z</time>
      </trkpt>
      <trkpt lat="48.74096" lon="7.35508">
        <ele>192.8</ele>
        <time>2020-06-28T16:55:53Z</time>
      </trkpt>
      <trkpt lat="48.74097" lon="7.355">
        <ele>192.8</ele>
        <time>2020-06-28T16:55:54Z</time>
      </trkpt>
      <trkpt lat="48.74097" lon="7.35492">
        <ele>192.9</ele>
        <time>2020-06-28T16:55:55Z</time>
      </trkpt>
      <trkpt lat="48.74096" lon="7.35484">
        <ele>192.9</ele>
        <time>2020-06-28T16:55:56Z</time>
      </trkpt>
      <trkpt lat="48.74097" lon="7.35478">
        <ele>192.9</ele>
        <time>2020-06-28T16:55:57Z</time>
      </trkpt>
      <trkpt lat="48.74097" lon="7.3547">
        <ele>192.9</ele>
        <time>2020-06-28T16:55:58Z</time>
      </trkpt>
      <trkpt lat="48.74097" lon="7.35463">
        <ele>192.9</ele>
        <time>2020-06-28T16:55:59Z</time>
      </trkpt>
      <trkpt lat="48.74097" lon="7.35457">
        <ele>192.9</ele>
        <time>2020-06-28T16:56:00Z</time>
      </trkpt>
      <trkpt lat="48.74097" lon="7.35451">
        <ele>192.8</ele>
        <time>2020-06-28T16:56:01Z</time>
      </trkpt>
      <trkpt lat="48.74097" lon="7.35445">
        <ele>192.8</ele>
        <time>2020-06-28T16:56:02Z</time>
      </trkpt>
      <trkpt lat="48.74096" lon="7.35439">
        <ele>192.8</ele>
        <time>2020-06-28T16:56:03Z</time>
      </trkpt>
      <trkpt lat="48.74097" lon="7.35433">
        <ele>192.8</ele>
        <time>2020-06-28T16:56:04Z</time>
      </trkpt>
      <trkpt lat="48.74096" lon="7.35428">
        <ele>192.8</ele>
        <time>2020-06-28T16:56:05Z</time>
      </trkpt>
      <trkpt lat="48.74097" lon="7.35423">
        <ele>192.8</ele>
        <time>2020-06-28T16:56:06Z</time>
      </trkpt>
      <trkpt lat="48.74098" lon="7.35417">
        <ele>192.8</ele>
        <time>2020-06-28T16:56:07Z</time>
      </trkpt>
      <trkpt lat="48.74099" lon="7.35409">
        <ele>192.8</ele>
        <time>2020-06-28T16:56:08Z</time>
      </trkpt>
      <trkpt lat="48.741" lon="7.35402">
        <ele>192.8</ele>
        <time>2020-06-28T16:56:09Z</time>
      </trkpt>
      <trkpt lat="48.741" lon="7.35394">
        <ele>192.8</ele>
        <time>2020-06-28T16:56:10Z</time>
      </trkpt>
      <trkpt lat="48.74101" lon="7.35385">
        <ele>192.8</ele>
        <time>2020-06-28T16:56:11Z</time>
      </trkpt>
      <trkpt lat="48.74101" lon="7.35378">
        <ele>192.8</ele>
        <time>2020-06-28T16:56:12Z</time>
      </trkpt>
      <trkpt lat="48.741" lon="7.3537">
        <ele>192.8</ele>
        <time>2020-06-28T16:56:13Z</time>
      </trkpt>
      <trkpt lat="48.741" lon="7.35361">
        <ele>192.8</ele>
        <time>2020-06-28T16:56:14Z</time>
      </trkpt>
      <trkpt lat="48.741" lon="7.35352">
        <ele>192.8</ele>
        <time>2020-06-28T16:56:15Z</time>
      </trkpt>
      <trkpt lat="48.741" lon="7.35345">
        <ele>192.8</ele>
        <time>2020-06-28T16:56:16Z</time>
      </trkpt>
      <trkpt lat="48.741" lon="7.35336">
        <ele>192.8</ele>
        <time>2020-06-28T16:56:17Z</time>
      </trkpt>
      <trkpt lat="48.741" lon="7.35329">
        <ele>192.8</ele>
        <time>2020-06-28T16:56:18Z</time>
      </trkpt>
      <trkpt lat="48.741" lon="7.35321">
        <ele>192.8</ele>
        <time>2020-06-28T16:56:19Z</time>
      </trkpt>
      <trkpt lat="48.74101" lon="7.35313">
        <ele>192.9</ele>
        <time>2020-06-28T16:56:20Z</time>
      </trkpt>
      <trkpt lat="48.74101" lon="7.35305">
        <ele>192.9</ele>
        <time>2020-06-28T16:56:21Z</time>
      </trkpt>
      <trkpt lat="48.74101" lon="7.35298">
        <ele>192.9</ele>
        <time>2020-06-28T16:56:22Z</time>
      </trkpt>
      <trkpt lat="48.74102" lon="7.35291">
        <ele>192.9</ele>
        <time>2020-06-28T16:56:23Z</time>
      </trkpt>
      <trkpt lat="48.74101" lon="7.35282">
        <ele>192.9</ele>
        <time>2020-06-28T16:56:24Z</time>
      </trkpt>
      <trkpt lat="48.74101" lon="7.35274">
        <ele>192.9</ele>
        <time>2020-06-28T16:56:25Z</time>
      </trkpt>
      <trkpt lat="48.74101" lon="7.35266">
        <ele>192.9</ele>
        <time>2020-06-28T16:56:26Z</time>
      </trkpt>
      <trkpt lat="48.74102" lon="7.35258">
        <ele>192.9</ele>
        <time>2020-06-28T16:56:27Z</time>
      </trkpt>
      <trkpt lat="48.74101" lon="7.35249">
        <ele>192.9</ele>
        <time>2020-06-28T16:56:28Z</time>
      </trkpt>
      <trkpt lat="48.74102" lon="7.35241">
        <ele>192.9</ele>
        <time>2020-06-28T16:56:29Z</time>
      </trkpt>
      <trkpt lat="48.74102" lon="7.35232">
        <ele>192.9</ele>
        <time>2020-06-28T16:56:30Z</time>
      </trkpt>
      <trkpt lat="48.74102" lon="7.35224">
        <ele>192.9</ele>
        <time>2020-06-28T16:56:31Z</time>
      </trkpt>
      <trkpt lat="48.74102" lon="7.35214">
        <ele>192.9</ele>
        <time>2020-06-28T16:56:32Z</time>
      </trkpt>
      <trkpt lat="48.74101" lon="7.35204">
        <ele>192.8</ele>
        <time>2020-06-28T16:56:33Z</time>
      </trkpt>
      <trkpt lat="48.741" lon="7.35196">
        <ele>192.8</ele>
        <time>2020-06-28T16:56:34Z</time>
      </trkpt>
      <trkpt lat="48.74099" lon="7.35188">
        <ele>192.8</ele>
        <time>2020-06-28T16:56:35Z</time>
      </trkpt>
      <trkpt lat="48.74098" lon="7.3518">
        <ele>192.8</ele>
        <time>2020-06-28T16:56:36Z</time>
      </trkpt>
      <trkpt lat="48.74097" lon="7.35171">
        <ele>192.7</ele>
        <time>2020-06-28T16:56:37Z</time>
      </trkpt>
      <trkpt lat="48.74096" lon="7.35164">
        <ele>192.7</ele>
        <time>2020-06-28T16:56:38Z</time>
      </trkpt>
      <trkpt lat="48.74095" lon="7.35155">
        <ele>192.7</ele>
        <time>2020-06-28T16:56:39Z</time>
      </trkpt>
      <trkpt lat="48.74094" lon="7.35146">
        <ele>192.8</ele>
        <time>2020-06-28T16:56:40Z</time>
      </trkpt>
      <trkpt lat="48.74093" lon="7.35138">
        <ele>192.8</ele>
        <time>2020-06-28T16:56:41Z</time>
      </trkpt>
      <trkpt lat="48.74092" lon="7.35131">
        <ele>192.8</ele>
        <time>2020-06-28T16:56:42Z</time>
      </trkpt>
      <trkpt lat="48.7409" lon="7.35123">
        <ele>192.8</ele>
        <time>2020-06-28T16:56:43Z</time>
      </trkpt>
      <trkpt lat="48.74088" lon="7.35115">
        <ele>192.8</ele>
        <time>2020-06-28T16:56:44Z</time>
      </trkpt>
      <trkpt lat="48.74087" lon="7.35107">
        <ele>192.8</ele>
        <time>2020-06-28T16:56:45Z</time>
      </trkpt>
      <trkpt lat="48.74085" lon="7.35098">
        <ele>192.8</ele>
        <time>2020-06-28T16:56:46Z</time>
      </trkpt>
      <trkpt lat="48.74083" lon="7.3509">
        <ele>192.8</ele>
        <time>2020-06-28T16:56:47Z</time>
      </trkpt>
      <trkpt lat="48.74081" lon="7.35082">
        <ele>192.8</ele>
        <time>2020-06-28T16:56:48Z</time>
      </trkpt>
      <trkpt lat="48.74079" lon="7.35074">
        <ele>192.8</ele>
        <time>2020-06-28T16:56:49Z</time>
      </trkpt>
      <trkpt lat="48.74076" lon="7.35066">
        <ele>192.8</ele>
        <time>2020-06-28T16:56:50Z</time>
      </trkpt>
      <trkpt lat="48.74074" lon="7.35059">
        <ele>192.8</ele>
        <time>2020-06-28T16:56:51Z</time>
      </trkpt>
      <trkpt lat="48.74073" lon="7.35051">
        <ele>192.8</ele>
        <time>2020-06-28T16:56:52Z</time>
      </trkpt>
      <trkpt lat="48.7407" lon="7.35043">
        <ele>192.8</ele>
        <time>2020-06-28T16:56:53Z</time>
      </trkpt>
      <trkpt lat="48.74067" lon="7.35035">
        <ele>192.8</ele>
        <time>2020-06-28T16:56:54Z</time>
      </trkpt>
      <trkpt lat="48.74064" lon="7.35028">
        <ele>192.7</ele>
        <time>2020-06-28T16:56:55Z</time>
      </trkpt>
      <trkpt lat="48.74061" lon="7.3502">
        <ele>192.7</ele>
        <time>2020-06-28T16:56:56Z</time>
      </trkpt>
      <trkpt lat="48.74059" lon="7.35012">
        <ele>192.7</ele>
        <time>2020-06-28T16:56:57Z</time>
      </trkpt>
      <trkpt lat="48.74056" lon="7.35006">
        <ele>192.7</ele>
        <time>2020-06-28T16:56:58Z</time>
      </trkpt>
      <trkpt lat="48.74054" lon="7.34998">
        <ele>192.7</ele>
        <time>2020-06-28T16:56:59Z</time>
      </trkpt>
      <trkpt lat="48.74051" lon="7.3499">
        <ele>192.7</ele>
        <time>2020-06-28T16:57:00Z</time>
      </trkpt>
      <trkpt lat="48.74048" lon="7.34984">
        <ele>192.7</ele>
        <time>2020-06-28T16:57:01Z</time>
      </trkpt>
      <trkpt lat="48.74044" lon="7.34978">
        <ele>192.7</ele>
        <time>2020-06-28T16:57:02Z</time>
      </trkpt>
      <trkpt lat="48.7404" lon="7.34972">
        <ele>192.7</ele>
        <time>2020-06-28T16:57:03Z</time>
      </trkpt>
      <trkpt lat="48.74036" lon="7.34967">
        <ele>192.7</ele>
        <time>2020-06-28T16:57:04Z</time>
      </trkpt>
      <trkpt lat="48.74034" lon="7.34963">
        <ele>192.7</ele>
        <time>2020-06-28T16:57:05Z</time>
      </trkpt>
      <trkpt lat="48.74031" lon="7.34957">
        <ele>192.7</ele>
        <time>2020-06-28T16:57:06Z</time>
      </trkpt>
      <trkpt lat="48.74027" lon="7.34951">
        <ele>192.6</ele>
        <time>2020-06-28T16:57:07Z</time>
      </trkpt>
      <trkpt lat="48.74023" lon="7.34945">
        <ele>192.6</ele>
        <time>2020-06-28T16:57:08Z</time>
      </trkpt>
      <trkpt lat="48.74018" lon="7.3494">
        <ele>192.6</ele>
        <time>2020-06-28T16:57:09Z</time>
      </trkpt>
      <trkpt lat="48.74014" lon="7.34936">
        <ele>192.6</ele>
        <time>2020-06-28T16:57:10Z</time>
      </trkpt>
      <trkpt lat="48.7401" lon="7.34932">
        <ele>192.6</ele>
        <time>2020-06-28T16:57:11Z</time>
      </trkpt>
      <trkpt lat="48.74006" lon="7.34929">
        <ele>192.6</ele>
        <time>2020-06-28T16:57:12Z</time>
      </trkpt>
      <trkpt lat="48.74002" lon="7.34925">
        <ele>192.7</ele>
        <time>2020-06-28T16:57:13Z</time>
      </trkpt>
      <trkpt lat="48.73998" lon="7.34922">
        <ele>192.7</ele>
        <time>2020-06-28T16:57:14Z</time>
      </trkpt>
      <trkpt lat="48.73994" lon="7.34917">
        <ele>192.7</ele>
        <time>2020-06-28T16:57:15Z</time>
      </trkpt>
      <trkpt lat="48.7399" lon="7.34913">
        <ele>192.7</ele>
        <time>2020-06-28T16:57:16Z</time>
      </trkpt>
      <trkpt lat="48.73985" lon="7.34909">
        <ele>192.7</ele>
        <time>2020-06-28T16:57:17Z</time>
      </trkpt>
      <trkpt lat="48.73979" lon="7.34906">
        <ele>192.7</ele>
        <time>2020-06-28T16:57:18Z</time>
      </trkpt>
      <trkpt lat="48.73975" lon="7.34901">
        <ele>192.7</ele>
        <time>2020-06-28T16:57:19Z</time>
      </trkpt>
      <trkpt lat="48.7397" lon="7.34896">
        <ele>192.7</ele>
        <time>2020-06-28T16:57:20Z</time>
      </trkpt>
      <trkpt lat="48.73965" lon="7.34891">
        <ele>192.7</ele>
        <time>2020-06-28T16:57:21Z</time>
      </trkpt>
      <trkpt lat="48.7396" lon="7.34886">
        <ele>192.7</ele>
        <time>2020-06-28T16:57:22Z</time>
      </trkpt>
      <trkpt lat="48.73955" lon="7.34881">
        <ele>192.7</ele>
        <time>2020-06-28T16:57:23Z</time>
      </trkpt>
      <trkpt lat="48.73951" lon="7.34876">
        <ele>192.7</ele>
        <time>2020-06-28T16:57:24Z</time>
      </trkpt>
      <trkpt lat="48.73946" lon="7.34871">
        <ele>192.7</ele>
        <time>2020-06-28T16:57:25Z</time>
      </trkpt>
      <trkpt lat="48.73941" lon="7.34865">
        <ele>192.7</ele>
        <time>2020-06-28T16:57:26Z</time>
      </trkpt>
      <trkpt lat="48.73936" lon="7.34861">
        <ele>192.7</ele>
        <time>2020-06-28T16:57:27Z</time>
      </trkpt>
      <trkpt lat="48.73932" lon="7.34855">
        <ele>192.7</ele>
        <time>2020-06-28T16:57:28Z</time>
      </trkpt>
      <trkpt lat="48.73927" lon="7.3485">
        <ele>192.7</ele>
        <time>2020-06-28T16:57:29Z</time>
      </trkpt>
      <trkpt lat="48.73922" lon="7.34845">
        <ele>192.7</ele>
        <time>2020-06-28T16:57:30Z</time>
      </trkpt>
      <trkpt lat="48.73917" lon="7.34841">
        <ele>192.7</ele>
        <time>2020-06-28T16:57:31Z</time>
      </trkpt>
      <trkpt lat="48.73913" lon="7.34836">
        <ele>192.7</ele>
        <time>2020-06-28T16:57:32Z</time>
      </trkpt>
      <trkpt lat="48.73909" lon="7.34831">
        <ele>192.7</ele>
        <time>2020-06-28T16:57:33Z</time>
      </trkpt>
      <trkpt lat="48.73904" lon="7.34826">
        <ele>192.7</ele>
        <time>2020-06-28T16:57:34Z</time>
      </trkpt>
      <trkpt lat="48.73899" lon="7.34822">
        <ele>192.7</ele>
        <time>2020-06-28T16:57:35Z</time>
      </trkpt>
      <trkpt lat="48.73894" lon="7.34818">
        <ele>192.7</ele>
        <time>2020-06-28T16:57:36Z</time>
      </trkpt>
      <trkpt lat="48.7389" lon="7.34813">
        <ele>192.7</ele>
        <time>2020-06-28T16:57:37Z</time>
      </trkpt>
      <trkpt lat="48.73886" lon="7.34809">
        <ele>192.7</ele>
        <time>2020-06-28T16:57:38Z</time>
      </trkpt>
      <trkpt lat="48.73881" lon="7.34806">
        <ele>192.7</ele>
        <time>2020-06-28T16:57:39Z</time>
      </trkpt>
      <trkpt lat="48.73876" lon="7.34802">
        <ele>192.7</ele>
        <time>2020-06-28T16:57:40Z</time>
      </trkpt>
      <trkpt lat="48.73871" lon="7.34798">
        <ele>192.7</ele>
        <time>2020-06-28T16:57:41Z</time>
      </trkpt>
      <trkpt lat="48.73866" lon="7.34795">
        <ele>192.8</ele>
        <time>2020-06-28T16:57:42Z</time>
      </trkpt>
      <trkpt lat="48.73862" lon="7.34792">
        <ele>192.8</ele>
        <time>2020-06-28T16:57:43Z</time>
      </trkpt>
      <trkpt lat="48.73857" lon="7.34788">
        <ele>192.8</ele>
        <time>2020-06-28T16:57:44Z</time>
      </trkpt>
      <trkpt lat="48.73853" lon="7.34785">
        <ele>192.9</ele>
        <time>2020-06-28T16:57:45Z</time>
      </trkpt>
      <trkpt lat="48.73848" lon="7.34781">
        <ele>192.9</ele>
        <time>2020-06-28T16:57:46Z</time>
      </trkpt>
      <trkpt lat="48.73843" lon="7.34777">
        <ele>192.9</ele>
        <time>2020-06-28T16:57:47Z</time>
      </trkpt>
      <trkpt lat="48.73839" lon="7.34774">
        <ele>193</ele>
        <time>2020-06-28T16:57:48Z</time>
      </trkpt>
      <trkpt lat="48.73834" lon="7.3477">
        <ele>193</ele>
        <time>2020-06-28T16:57:49Z</time>
      </trkpt>
      <trkpt lat="48.7383" lon="7.34766">
        <ele>193</ele>
        <time>2020-06-28T16:57:50Z</time>
      </trkpt>
      <trkpt lat="48.73825" lon="7.34762">
        <ele>193</ele>
        <time>2020-06-28T16:57:51Z</time>
      </trkpt>
      <trkpt lat="48.73819" lon="7.3476">
        <ele>193</ele>
        <time>2020-06-28T16:57:52Z</time>
      </trkpt>
      <trkpt lat="48.73814" lon="7.34756">
        <ele>193</ele>
        <time>2020-06-28T16:57:53Z</time>
      </trkpt>
      <trkpt lat="48.73808" lon="7.34752">
        <ele>193</ele>
        <time>2020-06-28T16:57:54Z</time>
      </trkpt>
      <trkpt lat="48.73803" lon="7.34749">
        <ele>193</ele>
        <time>2020-06-28T16:57:55Z</time>
      </trkpt>
      <trkpt lat="48.73797" lon="7.34747">
        <ele>192.9</ele>
        <time>2020-06-28T16:57:56Z</time>
      </trkpt>
      <trkpt lat="48.73793" lon="7.34744">
        <ele>192.9</ele>
        <time>2020-06-28T16:57:57Z</time>
      </trkpt>
      <trkpt lat="48.73787" lon="7.3474">
        <ele>192.9</ele>
        <time>2020-06-28T16:57:58Z</time>
      </trkpt>
      <trkpt lat="48.73781" lon="7.34735">
        <ele>192.9</ele>
        <time>2020-06-28T16:57:59Z</time>
      </trkpt>
      <trkpt lat="48.73775" lon="7.34731">
        <ele>192.9</ele>
        <time>2020-06-28T16:58:00Z</time>
      </trkpt>
      <trkpt lat="48.7377" lon="7.34727">
        <ele>192.9</ele>
        <time>2020-06-28T16:58:01Z</time>
      </trkpt>
      <trkpt lat="48.73765" lon="7.34723">
        <ele>192.9</ele>
        <time>2020-06-28T16:58:02Z</time>
      </trkpt>
      <trkpt lat="48.7376" lon="7.3472">
        <ele>192.9</ele>
        <time>2020-06-28T16:58:03Z</time>
      </trkpt>
      <trkpt lat="48.73755" lon="7.34716">
        <ele>192.9</ele>
        <time>2020-06-28T16:58:04Z</time>
      </trkpt>
      <trkpt lat="48.7375" lon="7.34711">
        <ele>192.9</ele>
        <time>2020-06-28T16:58:05Z</time>
      </trkpt>
      <trkpt lat="48.73746" lon="7.34707">
        <ele>192.9</ele>
        <time>2020-06-28T16:58:06Z</time>
      </trkpt>
      <trkpt lat="48.73741" lon="7.34702">
        <ele>192.9</ele>
        <time>2020-06-28T16:58:07Z</time>
      </trkpt>
      <trkpt lat="48.73736" lon="7.34698">
        <ele>192.9</ele>
        <time>2020-06-28T16:58:08Z</time>
      </trkpt>
      <trkpt lat="48.73732" lon="7.34693">
        <ele>192.9</ele>
        <time>2020-06-28T16:58:09Z</time>
      </trkpt>
      <trkpt lat="48.73726" lon="7.34689">
        <ele>193</ele>
        <time>2020-06-28T16:58:10Z</time>
      </trkpt>
      <trkpt lat="48.73723" lon="7.34684">
        <ele>193</ele>
        <time>2020-06-28T16:58:11Z</time>
      </trkpt>
      <trkpt lat="48.7372" lon="7.34679">
        <ele>193</ele>
        <time>2020-06-28T16:58:12Z</time>
      </trkpt>
      <trkpt lat="48.73716" lon="7.34673">
        <ele>193.1</ele>
        <time>2020-06-28T16:58:13Z</time>
      </trkpt>
      <trkpt lat="48.73712" lon="7.34667">
        <ele>193.1</ele>
        <time>2020-06-28T16:58:14Z</time>
      </trkpt>
      <trkpt lat="48.73707" lon="7.34663">
        <ele>193.1</ele>
        <time>2020-06-28T16:58:15Z</time>
      </trkpt>
      <trkpt lat="48.73703" lon="7.34659">
        <ele>193.1</ele>
        <time>2020-06-28T16:58:16Z</time>
      </trkpt>
      <trkpt lat="48.73699" lon="7.34654">
        <ele>193.1</ele>
        <time>2020-06-28T16:58:17Z</time>
      </trkpt>
      <trkpt lat="48.73696" lon="7.34649">
        <ele>193.1</ele>
        <time>2020-06-28T16:58:18Z</time>
      </trkpt>
      <trkpt lat="48.73693" lon="7.34644">
        <ele>193.1</ele>
        <time>2020-06-28T16:58:19Z</time>
      </trkpt>
      <trkpt lat="48.73688" lon="7.34637">
        <ele>193.1</ele>
        <time>2020-06-28T16:58:20Z</time>
      </trkpt>
      <trkpt lat="48.73684" lon="7.34632">
        <ele>193.1</ele>
        <time>2020-06-28T16:58:21Z</time>
      </trkpt>
      <trkpt lat="48.73681" lon="7.34626">
        <ele>193</ele>
        <time>2020-06-28T16:58:22Z</time>
      </trkpt>
      <trkpt lat="48.73678" lon="7.34621">
        <ele>193</ele>
        <time>2020-06-28T16:58:23Z</time>
      </trkpt>
      <trkpt lat="48.73675" lon="7.34616">
        <ele>193</ele>
        <time>2020-06-28T16:58:24Z</time>
      </trkpt>
      <trkpt lat="48.73671" lon="7.3461">
        <ele>193</ele>
        <time>2020-06-28T16:58:25Z</time>
      </trkpt>
      <trkpt lat="48.73667" lon="7.34605">
        <ele>192.9</ele>
        <time>2020-06-28T16:58:26Z</time>
      </trkpt>
      <trkpt lat="48.73664" lon="7.34599">
        <ele>192.9</ele>
        <time>2020-06-28T16:58:27Z</time>
      </trkpt>
      <trkpt lat="48.73661" lon="7.34593">
        <ele>192.9</ele>
        <time>2020-06-28T16:58:28Z</time>
      </trkpt>
      <trkpt lat="48.73658" lon="7.34586">
        <ele>192.9</ele>
        <time>2020-06-28T16:58:29Z</time>
      </trkpt>
      <trkpt lat="48.73655" lon="7.3458">
        <ele>192.9</ele>
        <time>2020-06-28T16:58:30Z</time>
      </trkpt>
      <trkpt lat="48.73651" lon="7.34575">
        <ele>192.9</ele>
        <time>2020-06-28T16:58:31Z</time>
      </trkpt>
      <trkpt lat="48.73647" lon="7.3457">
        <ele>192.9</ele>
        <time>2020-06-28T16:58:32Z</time>
      </trkpt>
      <trkpt lat="48.73643" lon="7.34566">
        <ele>192.9</ele>
        <time>2020-06-28T16:58:33Z</time>
      </trkpt>
      <trkpt lat="48.73639" lon="7.34561">
        <ele>192.9</ele>
        <time>2020-06-28T16:58:34Z</time>
      </trkpt>
      <trkpt lat="48.73636" lon="7.34555">
        <ele>192.9</ele>
        <time>2020-06-28T16:58:35Z</time>
      </trkpt>
      <trkpt lat="48.73632" lon="7.34549">
        <ele>192.9</ele>
        <time>2020-06-28T16:58:36Z</time>
      </trkpt>
      <trkpt lat="48.73629" lon="7.34543">
        <ele>192.9</ele>
        <time>2020-06-28T16:58:37Z</time>
      </trkpt>
      <trkpt lat="48.73625" lon="7.34536">
        <ele>192.9</ele>
        <time>2020-06-28T16:58:38Z</time>
      </trkpt>
      <trkpt lat="48.73621" lon="7.3453">
        <ele>192.9</ele>
        <time>2020-06-28T16:58:39Z</time>
      </trkpt>
      <trkpt lat="48.73618" lon="7.34523">
        <ele>192.9</ele>
        <time>2020-06-28T16:58:40Z</time>
      </trkpt>
      <trkpt lat="48.73614" lon="7.34516">
        <ele>193</ele>
        <time>2020-06-28T16:58:41Z</time>
      </trkpt>
      <trkpt lat="48.73611" lon="7.34511">
        <ele>193</ele>
        <time>2020-06-28T16:58:42Z</time>
      </trkpt>
      <trkpt lat="48.73608" lon="7.34506">
        <ele>193</ele>
        <time>2020-06-28T16:58:43Z</time>
      </trkpt>
      <trkpt lat="48.73605" lon="7.34501">
        <ele>193</ele>
        <time>2020-06-28T16:58:44Z</time>
      </trkpt>
      <trkpt lat="48.73602" lon="7.34495">
        <ele>193</ele>
        <time>2020-06-28T16:58:45Z</time>
      </trkpt>
      <trkpt lat="48.73599" lon="7.34489">
        <ele>193</ele>
        <time>2020-06-28T16:58:46Z</time>
      </trkpt>
      <trkpt lat="48.73595" lon="7.34483">
        <ele>193</ele>
        <time>2020-06-28T16:58:47Z</time>
      </trkpt>
      <trkpt lat="48.73588" lon="7.3447">
        <ele>193</ele>
        <time>2020-06-28T16:58:48Z</time>
      </trkpt>
      <trkpt lat="48.73584" lon="7.3446">
        <ele>193.1</ele>
        <time>2020-06-28T16:58:49Z</time>
      </trkpt>
      <trkpt lat="48.7358" lon="7.34451">
        <ele>193.1</ele>
        <time>2020-06-28T16:58:50Z</time>
      </trkpt>
      <trkpt lat="48.73576" lon="7.34444">
        <ele>193.1</ele>
        <time>2020-06-28T16:58:51Z</time>
      </trkpt>
      <trkpt lat="48.73571" lon="7.34436">
        <ele>193.1</ele>
        <time>2020-06-28T16:58:52Z</time>
      </trkpt>
      <trkpt lat="48.73566" lon="7.34427">
        <ele>193.1</ele>
        <time>2020-06-28T16:58:53Z</time>
      </trkpt>
      <trkpt lat="48.73561" lon="7.34418">
        <ele>193.1</ele>
        <time>2020-06-28T16:58:54Z</time>
      </trkpt>
      <trkpt lat="48.73557" lon="7.34411">
        <ele>193.1</ele>
        <time>2020-06-28T16:58:55Z</time>
      </trkpt>
      <trkpt lat="48.73553" lon="7.34405">
        <ele>193.1</ele>
        <time>2020-06-28T16:58:56Z</time>
      </trkpt>
      <trkpt lat="48.7355" lon="7.34399">
        <ele>193.1</ele>
        <time>2020-06-28T16:58:57Z</time>
      </trkpt>
      <trkpt lat="48.73546" lon="7.34393">
        <ele>193.1</ele>
        <time>2020-06-28T16:58:58Z</time>
      </trkpt>
      <trkpt lat="48.73541" lon="7.34388">
        <ele>193</ele>
        <time>2020-06-28T16:58:59Z</time>
      </trkpt>
      <trkpt lat="48.73537" lon="7.34382">
        <ele>193</ele>
        <time>2020-06-28T16:59:00Z</time>
      </trkpt>
      <trkpt lat="48.73533" lon="7.34376">
        <ele>193</ele>
        <time>2020-06-28T16:59:01Z</time>
      </trkpt>
      <trkpt lat="48.73528" lon="7.3437">
        <ele>193</ele>
        <time>2020-06-28T16:59:02Z</time>
      </trkpt>
      <trkpt lat="48.73524" lon="7.34364">
        <ele>193</ele>
        <time>2020-06-28T16:59:03Z</time>
      </trkpt>
      <trkpt lat="48.7352" lon="7.34358">
        <ele>193.1</ele>
        <time>2020-06-28T16:59:04Z</time>
      </trkpt>
      <trkpt lat="48.73515" lon="7.34353">
        <ele>193</ele>
        <time>2020-06-28T16:59:05Z</time>
      </trkpt>
      <trkpt lat="48.7351" lon="7.34347">
        <ele>193</ele>
        <time>2020-06-28T16:59:06Z</time>
      </trkpt>
      <trkpt lat="48.73506" lon="7.34343">
        <ele>193</ele>
        <time>2020-06-28T16:59:07Z</time>
      </trkpt>
      <trkpt lat="48.73502" lon="7.34337">
        <ele>192.9</ele>
        <time>2020-06-28T16:59:08Z</time>
      </trkpt>
      <trkpt lat="48.73498" lon="7.34332">
        <ele>192.9</ele>
        <time>2020-06-28T16:59:09Z</time>
      </trkpt>
      <trkpt lat="48.73495" lon="7.34327">
        <ele>192.9</ele>
        <time>2020-06-28T16:59:10Z</time>
      </trkpt>
      <trkpt lat="48.73491" lon="7.34322">
        <ele>193</ele>
        <time>2020-06-28T16:59:11Z</time>
      </trkpt>
      <trkpt lat="48.73488" lon="7.34318">
        <ele>193</ele>
        <time>2020-06-28T16:59:12Z</time>
      </trkpt>
      <trkpt lat="48.73483" lon="7.34313">
        <ele>193</ele>
        <time>2020-06-28T16:59:13Z</time>
      </trkpt>
      <trkpt lat="48.73479" lon="7.34308">
        <ele>193</ele>
        <time>2020-06-28T16:59:14Z</time>
      </trkpt>
      <trkpt lat="48.73476" lon="7.34304">
        <ele>193</ele>
        <time>2020-06-28T16:59:15Z</time>
      </trkpt>
      <trkpt lat="48.73471" lon="7.343">
        <ele>193</ele>
        <time>2020-06-28T16:59:16Z</time>
      </trkpt>
      <trkpt lat="48.73467" lon="7.34295">
        <ele>193</ele>
        <time>2020-06-28T16:59:17Z</time>
      </trkpt>
      <trkpt lat="48.73462" lon="7.3429">
        <ele>193</ele>
        <time>2020-06-28T16:59:18Z</time>
      </trkpt>
      <trkpt lat="48.73458" lon="7.34284">
        <ele>193</ele>
        <time>2020-06-28T16:59:19Z</time>
      </trkpt>
      <trkpt lat="48.73452" lon="7.34278">
        <ele>193</ele>
        <time>2020-06-28T16:59:20Z</time>
      </trkpt>
      <trkpt lat="48.73449" lon="7.34273">
        <ele>193</ele>
        <time>2020-06-28T16:59:21Z</time>
      </trkpt>
      <trkpt lat="48.73445" lon="7.34268">
        <ele>193</ele>
        <time>2020-06-28T16:59:22Z</time>
      </trkpt>
      <trkpt lat="48.73442" lon="7.34265">
        <ele>193</ele>
        <time>2020-06-28T16:59:23Z</time>
      </trkpt>
      <trkpt lat="48.73437" lon="7.34264">
        <ele>193</ele>
        <time>2020-06-28T16:59:24Z</time>
      </trkpt>
      <trkpt lat="48.73433" lon="7.34261">
        <ele>193</ele>
        <time>2020-06-28T16:59:25Z</time>
      </trkpt>
      <trkpt lat="48.73428" lon="7.34256">
        <ele>193</ele>
        <time>2020-06-28T16:59:26Z</time>
      </trkpt>
      <trkpt lat="48.73425" lon="7.34252">
        <ele>193</ele>
        <time>2020-06-28T16:59:27Z</time>
      </trkpt>
      <trkpt lat="48.73422" lon="7.3425">
        <ele>193</ele>
        <time>2020-06-28T16:59:28Z</time>
      </trkpt>
      <trkpt lat="48.7342" lon="7.34247">
        <ele>193</ele>
        <time>2020-06-28T16:59:29Z</time>
      </trkpt>
      <trkpt lat="48.73416" lon="7.34244">
        <ele>193</ele>
        <time>2020-06-28T16:59:30Z</time>
      </trkpt>
      <trkpt lat="48.73413" lon="7.3424">
        <ele>193</ele>
        <time>2020-06-28T16:59:31Z</time>
      </trkpt>
      <trkpt lat="48.73409" lon="7.34235">
        <ele>193</ele>
        <time>2020-06-28T16:59:32Z</time>
      </trkpt>
      <trkpt lat="48.73404" lon="7.34233">
        <ele>193</ele>
        <time>2020-06-28T16:59:33Z</time>
      </trkpt>
      <trkpt lat="48.73399" lon="7.34228">
        <ele>193</ele>
        <time>2020-06-28T16:59:34Z</time>
      </trkpt>
      <trkpt lat="48.73395" lon="7.34224">
        <ele>192.9</ele>
        <time>2020-06-28T16:59:35Z</time>
      </trkpt>
      <trkpt lat="48.73391" lon="7.3422">
        <ele>192.9</ele>
        <time>2020-06-28T16:59:36Z</time>
      </trkpt>
      <trkpt lat="48.73386" lon="7.34216">
        <ele>192.9</ele>
        <time>2020-06-28T16:59:37Z</time>
      </trkpt>
      <trkpt lat="48.73381" lon="7.34212">
        <ele>192.9</ele>
        <time>2020-06-28T16:59:38Z</time>
      </trkpt>
      <trkpt lat="48.73376" lon="7.34208">
        <ele>192.9</ele>
        <time>2020-06-28T16:59:39Z</time>
      </trkpt>
      <trkpt lat="48.7337" lon="7.34203">
        <ele>192.9</ele>
        <time>2020-06-28T16:59:40Z</time>
      </trkpt>
      <trkpt lat="48.73364" lon="7.342">
        <ele>192.9</ele>
        <time>2020-06-28T16:59:41Z</time>
      </trkpt>
      <trkpt lat="48.73358" lon="7.34197">
        <ele>192.9</ele>
        <time>2020-06-28T16:59:42Z</time>
      </trkpt>
      <trkpt lat="48.73354" lon="7.34194">
        <ele>193</ele>
        <time>2020-06-28T16:59:43Z</time>
      </trkpt>
      <trkpt lat="48.73349" lon="7.34191">
        <ele>193</ele>
        <time>2020-06-28T16:59:44Z</time>
      </trkpt>
      <trkpt lat="48.73344" lon="7.34188">
        <ele>193</ele>
        <time>2020-06-28T16:59:45Z</time>
      </trkpt>
      <trkpt lat="48.73338" lon="7.34185">
        <ele>193</ele>
        <time>2020-06-28T16:59:46Z</time>
      </trkpt>
      <trkpt lat="48.73333" lon="7.34182">
        <ele>193</ele>
        <time>2020-06-28T16:59:47Z</time>
      </trkpt>
      <trkpt lat="48.73329" lon="7.34181">
        <ele>193</ele>
        <time>2020-06-28T16:59:48Z</time>
      </trkpt>
      <trkpt lat="48.73324" lon="7.34179">
        <ele>193</ele>
        <time>2020-06-28T16:59:49Z</time>
      </trkpt>
      <trkpt lat="48.73319" lon="7.34176">
        <ele>193</ele>
        <time>2020-06-28T16:59:50Z</time>
      </trkpt>
      <trkpt lat="48.73315" lon="7.34174">
        <ele>193</ele>
        <time>2020-06-28T16:59:51Z</time>
      </trkpt>
      <trkpt lat="48.7331" lon="7.34171">
        <ele>193</ele>
        <time>2020-06-28T16:59:52Z</time>
      </trkpt>
      <trkpt lat="48.73306" lon="7.34168">
        <ele>193</ele>
        <time>2020-06-28T16:59:53Z</time>
      </trkpt>
      <trkpt lat="48.73302" lon="7.34166">
        <ele>193</ele>
        <time>2020-06-28T16:59:54Z</time>
      </trkpt>
      <trkpt lat="48.73298" lon="7.34162">
        <ele>193</ele>
        <time>2020-06-28T16:59:55Z</time>
      </trkpt>
      <trkpt lat="48.73295" lon="7.34158">
        <ele>193</ele>
        <time>2020-06-28T16:59:56Z</time>
      </trkpt>
      <trkpt lat="48.73291" lon="7.34153">
        <ele>193</ele>
        <time>2020-06-28T16:59:57Z</time>
      </trkpt>
      <trkpt lat="48.73287" lon="7.3415">
        <ele>193</ele>
        <time>2020-06-28T16:59:58Z</time>
      </trkpt>
      <trkpt lat="48.73283" lon="7.34146">
        <ele>193</ele>
        <time>2020-06-28T16:59:59Z</time>
      </trkpt>
      <trkpt lat="48.73279" lon="7.34142">
        <ele>193</ele>
        <time>2020-06-28T17:00:00Z</time>
      </trkpt>
      <trkpt lat="48.73276" lon="7.34139">
        <ele>193</ele>
        <time>2020-06-28T17:00:01Z</time>
      </trkpt>
      <trkpt lat="48.73272" lon="7.34136">
        <ele>193</ele>
        <time>2020-06-28T17:00:02Z</time>
      </trkpt>
      <trkpt lat="48.73269" lon="7.34133">
        <ele>193</ele>
        <time>2020-06-28T17:00:03Z</time>
      </trkpt>
      <trkpt lat="48.73265" lon="7.34129">
        <ele>193</ele>
        <time>2020-06-28T17:00:04Z</time>
      </trkpt>
      <trkpt lat="48.7326" lon="7.34125">
        <ele>193</ele>
        <time>2020-06-28T17:00:05Z</time>
      </trkpt>
      <trkpt lat="48.73257" lon="7.34122">
        <ele>193</ele>
        <time>2020-06-28T17:00:06Z</time>
      </trkpt>
      <trkpt lat="48.73253" lon="7.34118">
        <ele>193</ele>
        <time>2020-06-28T17:00:07Z</time>
      </trkpt>
      <trkpt lat="48.7325" lon="7.34115">
        <ele>193</ele>
        <time>2020-06-28T17:00:08Z</time>
      </trkpt>
      <trkpt lat="48.73246" lon="7.34113">
        <ele>193</ele>
        <time>2020-06-28T17:00:09Z</time>
      </trkpt>
      <trkpt lat="48.73242" lon="7.3411">
        <ele>193.1</ele>
        <time>2020-06-28T17:00:10Z</time>
      </trkpt>
      <trkpt lat="48.73239" lon="7.34103">
        <ele>193.1</ele>
        <time>2020-06-28T17:00:11Z</time>
      </trkpt>
      <trkpt lat="48.73235" lon="7.34098">
        <ele>193.1</ele>
        <time>2020-06-28T17:00:12Z</time>
      </trkpt>
      <trkpt lat="48.73229" lon="7.34093">
        <ele>193.1</ele>
        <time>2020-06-28T17:00:13Z</time>
      </trkpt>
      <trkpt lat="48.73224" lon="7.34087">
        <ele>193.1</ele>
        <time>2020-06-28T17:00:14Z</time>
      </trkpt>
      <trkpt lat="48.73219" lon="7.34083">
        <ele>193.2</ele>
        <time>2020-06-28T17:00:15Z</time>
      </trkpt>
      <trkpt lat="48.73215" lon="7.34079">
        <ele>193.2</ele>
        <time>2020-06-28T17:00:16Z</time>
      </trkpt>
      <trkpt lat="48.73211" lon="7.34075">
        <ele>193.2</ele>
        <time>2020-06-28T17:00:17Z</time>
      </trkpt>
      <trkpt lat="48.73206" lon="7.34071">
        <ele>193.2</ele>
        <time>2020-06-28T17:00:18Z</time>
      </trkpt>
      <trkpt lat="48.73202" lon="7.34063">
        <ele>193.3</ele>
        <time>2020-06-28T17:00:19Z</time>
      </trkpt>
      <trkpt lat="48.73199" lon="7.34054">
        <ele>193.3</ele>
        <time>2020-06-28T17:00:20Z</time>
      </trkpt>
      <trkpt lat="48.73196" lon="7.34045">
        <ele>193.4</ele>
        <time>2020-06-28T17:00:21Z</time>
      </trkpt>
      <trkpt lat="48.73191" lon="7.34039">
        <ele>193.4</ele>
        <time>2020-06-28T17:00:22Z</time>
      </trkpt>
      <trkpt lat="48.73186" lon="7.34032">
        <ele>193.4</ele>
        <time>2020-06-28T17:00:23Z</time>
      </trkpt>
      <trkpt lat="48.73183" lon="7.34023">
        <ele>193.5</ele>
        <time>2020-06-28T17:00:24Z</time>
      </trkpt>
      <trkpt lat="48.7318" lon="7.34014">
        <ele>193.5</ele>
        <time>2020-06-28T17:00:25Z</time>
      </trkpt>
      <trkpt lat="48.73177" lon="7.34004">
        <ele>193.5</ele>
        <time>2020-06-28T17:00:26Z</time>
      </trkpt>
      <trkpt lat="48.73174" lon="7.33993">
        <ele>193.5</ele>
        <time>2020-06-28T17:00:27Z</time>
      </trkpt>
      <trkpt lat="48.73171" lon="7.33982">
        <ele>193.5</ele>
        <time>2020-06-28T17:00:28Z</time>
      </trkpt>
      <trkpt lat="48.73167" lon="7.33971">
        <ele>193.6</ele>
        <time>2020-06-28T17:00:29Z</time>
      </trkpt>
      <trkpt lat="48.73164" lon="7.33961">
        <ele>193.6</ele>
        <time>2020-06-28T17:00:30Z</time>
      </trkpt>
      <trkpt lat="48.73162" lon="7.33951">
        <ele>193.7</ele>
        <time>2020-06-28T17:00:31Z</time>
      </trkpt>
      <trkpt lat="48.7316" lon="7.33942">
        <ele>193.7</ele>
        <time>2020-06-28T17:00:32Z</time>
      </trkpt>
      <trkpt lat="48.73157" lon="7.33934">
        <ele>193.8</ele>
        <time>2020-06-28T17:00:33Z</time>
      </trkpt>
      <trkpt lat="48.73154" lon="7.33924">
        <ele>193.8</ele>
        <time>2020-06-28T17:00:34Z</time>
      </trkpt>
      <trkpt lat="48.73153" lon="7.33915">
        <ele>193.8</ele>
        <time>2020-06-28T17:00:35Z</time>
      </trkpt>
      <trkpt lat="48.73151" lon="7.33907">
        <ele>193.8</ele>
        <time>2020-06-28T17:00:36Z</time>
      </trkpt>
      <trkpt lat="48.73149" lon="7.339">
        <ele>193.8</ele>
        <time>2020-06-28T17:00:37Z</time>
      </trkpt>
      <trkpt lat="48.73147" lon="7.33892">
        <ele>193.8</ele>
        <time>2020-06-28T17:00:38Z</time>
      </trkpt>
      <trkpt lat="48.73146" lon="7.33883">
        <ele>193.8</ele>
        <time>2020-06-28T17:00:39Z</time>
      </trkpt>
      <trkpt lat="48.73145" lon="7.33873">
        <ele>193.8</ele>
        <time>2020-06-28T17:00:40Z</time>
      </trkpt>
      <trkpt lat="48.73143" lon="7.33863">
        <ele>193.8</ele>
        <time>2020-06-28T17:00:41Z</time>
      </trkpt>
      <trkpt lat="48.73143" lon="7.33854">
        <ele>193.8</ele>
        <time>2020-06-28T17:00:42Z</time>
      </trkpt>
      <trkpt lat="48.73142" lon="7.33843">
        <ele>193.8</ele>
        <time>2020-06-28T17:00:43Z</time>
      </trkpt>
      <trkpt lat="48.73142" lon="7.33834">
        <ele>193.8</ele>
        <time>2020-06-28T17:00:44Z</time>
      </trkpt>
      <trkpt lat="48.73141" lon="7.33824">
        <ele>193.8</ele>
        <time>2020-06-28T17:00:45Z</time>
      </trkpt>
      <trkpt lat="48.7314" lon="7.33815">
        <ele>193.8</ele>
        <time>2020-06-28T17:00:46Z</time>
      </trkpt>
      <trkpt lat="48.73138" lon="7.33805">
        <ele>193.7</ele>
        <time>2020-06-28T17:00:47Z</time>
      </trkpt>
      <trkpt lat="48.73137" lon="7.33797">
        <ele>193.7</ele>
        <time>2020-06-28T17:00:48Z</time>
      </trkpt>
      <trkpt lat="48.73137" lon="7.33788">
        <ele>193.7</ele>
        <time>2020-06-28T17:00:49Z</time>
      </trkpt>
      <trkpt lat="48.73136" lon="7.33778">
        <ele>193.7</ele>
        <time>2020-06-28T17:00:50Z</time>
      </trkpt>
      <trkpt lat="48.73135" lon="7.33768">
        <ele>193.7</ele>
        <time>2020-06-28T17:00:51Z</time>
      </trkpt>
      <trkpt lat="48.73135" lon="7.3376">
        <ele>193.7</ele>
        <time>2020-06-28T17:00:52Z</time>
      </trkpt>
      <trkpt lat="48.73134" lon="7.33751">
        <ele>193.8</ele>
        <time>2020-06-28T17:00:53Z</time>
      </trkpt>
      <trkpt lat="48.73133" lon="7.33742">
        <ele>193.8</ele>
        <time>2020-06-28T17:00:54Z</time>
      </trkpt>
      <trkpt lat="48.73133" lon="7.33735">
        <ele>193.8</ele>
        <time>2020-06-28T17:00:55Z</time>
      </trkpt>
      <trkpt lat="48.73133" lon="7.33729">
        <ele>193.9</ele>
        <time>2020-06-28T17:00:56Z</time>
      </trkpt>
      <trkpt lat="48.73132" lon="7.33723">
        <ele>193.9</ele>
        <time>2020-06-28T17:00:57Z</time>
      </trkpt>
      <trkpt lat="48.73132" lon="7.33715">
        <ele>193.9</ele>
        <time>2020-06-28T17:00:58Z</time>
      </trkpt>
      <trkpt lat="48.73131" lon="7.33709">
        <ele>193.9</ele>
        <time>2020-06-28T17:00:59Z</time>
      </trkpt>
      <trkpt lat="48.73129" lon="7.337">
        <ele>193.9</ele>
        <time>2020-06-28T17:01:00Z</time>
      </trkpt>
      <trkpt lat="48.73128" lon="7.33691">
        <ele>193.8</ele>
        <time>2020-06-28T17:01:01Z</time>
      </trkpt>
      <trkpt lat="48.73126" lon="7.33681">
        <ele>193.8</ele>
        <time>2020-06-28T17:01:02Z</time>
      </trkpt>
      <trkpt lat="48.73125" lon="7.33671">
        <ele>193.8</ele>
        <time>2020-06-28T17:01:03Z</time>
      </trkpt>
      <trkpt lat="48.73124" lon="7.33663">
        <ele>193.8</ele>
        <time>2020-06-28T17:01:04Z</time>
      </trkpt>
      <trkpt lat="48.73123" lon="7.33655">
        <ele>193.8</ele>
        <time>2020-06-28T17:01:05Z</time>
      </trkpt>
      <trkpt lat="48.73121" lon="7.33648">
        <ele>193.8</ele>
        <time>2020-06-28T17:01:06Z</time>
      </trkpt>
      <trkpt lat="48.7312" lon="7.33641">
        <ele>193.8</ele>
        <time>2020-06-28T17:01:07Z</time>
      </trkpt>
      <trkpt lat="48.73119" lon="7.33634">
        <ele>193.8</ele>
        <time>2020-06-28T17:01:08Z</time>
      </trkpt>
      <trkpt lat="48.73118" lon="7.33628">
        <ele>193.9</ele>
        <time>2020-06-28T17:01:09Z</time>
      </trkpt>
      <trkpt lat="48.73117" lon="7.33621">
        <ele>193.9</ele>
        <time>2020-06-28T17:01:10Z</time>
      </trkpt>
      <trkpt lat="48.73116" lon="7.33614">
        <ele>193.9</ele>
        <time>2020-06-28T17:01:11Z</time>
      </trkpt>
      <trkpt lat="48.73115" lon="7.33607">
        <ele>194</ele>
        <time>2020-06-28T17:01:12Z</time>
      </trkpt>
      <trkpt lat="48.73114" lon="7.336">
        <ele>194</ele>
        <time>2020-06-28T17:01:13Z</time>
      </trkpt>
      <trkpt lat="48.73113" lon="7.33593">
        <ele>194</ele>
        <time>2020-06-28T17:01:14Z</time>
      </trkpt>
      <trkpt lat="48.73113" lon="7.33585">
        <ele>194.1</ele>
        <time>2020-06-28T17:01:15Z</time>
      </trkpt>
      <trkpt lat="48.73112" lon="7.33579">
        <ele>194.2</ele>
        <time>2020-06-28T17:01:16Z</time>
      </trkpt>
      <trkpt lat="48.73111" lon="7.33571">
        <ele>194.3</ele>
        <time>2020-06-28T17:01:17Z</time>
      </trkpt>
      <trkpt lat="48.7311" lon="7.33565">
        <ele>194.4</ele>
        <time>2020-06-28T17:01:18Z</time>
      </trkpt>
      <trkpt lat="48.73109" lon="7.33561">
        <ele>194.4</ele>
        <time>2020-06-28T17:01:19Z</time>
      </trkpt>
      <trkpt lat="48.73108" lon="7.33555">
        <ele>194.5</ele>
        <time>2020-06-28T17:01:20Z</time>
      </trkpt>
      <trkpt lat="48.73106" lon="7.33549">
        <ele>194.6</ele>
        <time>2020-06-28T17:01:21Z</time>
      </trkpt>
      <trkpt lat="48.73106" lon="7.33547">
        <ele>194.7</ele>
        <time>2020-06-28T17:01:22Z</time>
      </trkpt>
      <trkpt lat="48.73104" lon="7.33542">
        <ele>194.8</ele>
        <time>2020-06-28T17:01:23Z</time>
      </trkpt>
      <trkpt lat="48.73102" lon="7.33538">
        <ele>194.9</ele>
        <time>2020-06-28T17:01:24Z</time>
      </trkpt>
      <trkpt lat="48.731" lon="7.33533">
        <ele>195.1</ele>
        <time>2020-06-28T17:01:25Z</time>
      </trkpt>
      <trkpt lat="48.731" lon="7.33527">
        <ele>195.2</ele>
        <time>2020-06-28T17:01:26Z</time>
      </trkpt>
      <trkpt lat="48.73099" lon="7.33525">
        <ele>195.2</ele>
        <time>2020-06-28T17:01:27Z</time>
      </trkpt>
      <trkpt lat="48.73099" lon="7.3352">
        <ele>195.3</ele>
        <time>2020-06-28T17:01:28Z</time>
      </trkpt>
      <trkpt lat="48.73099" lon="7.33518">
        <ele>195.4</ele>
        <time>2020-06-28T17:01:29Z</time>
      </trkpt>
      <trkpt lat="48.73099" lon="7.33514">
        <ele>195.4</ele>
        <time>2020-06-28T17:01:30Z</time>
      </trkpt>
      <trkpt lat="48.731" lon="7.33513">
        <ele>195.5</ele>
        <time>2020-06-28T17:01:31Z</time>
      </trkpt>
      <trkpt lat="48.73099" lon="7.33511">
        <ele>195.5</ele>
        <time>2020-06-28T17:01:32Z</time>
      </trkpt>
      <trkpt lat="48.731" lon="7.33509">
        <ele>195.5</ele>
        <time>2020-06-28T17:01:33Z</time>
      </trkpt>
      <trkpt lat="48.73099" lon="7.3351">
        <ele>195.5</ele>
        <time>2020-06-28T17:01:34Z</time>
      </trkpt>
      <trkpt lat="48.731" lon="7.3351">
        <ele>195.5</ele>
        <time>2020-06-28T17:01:35Z</time>
      </trkpt>
      <trkpt lat="48.73099" lon="7.33511">
        <ele>195.5</ele>
        <time>2020-06-28T17:01:36Z</time>
      </trkpt>
      <trkpt lat="48.73099" lon="7.33511">
        <ele>195.5</ele>
        <time>2020-06-28T17:01:37Z</time>
      </trkpt>
      <trkpt lat="48.73099" lon="7.33512">
        <ele>195.5</ele>
        <time>2020-06-28T17:01:38Z</time>
      </trkpt>
      <trkpt lat="48.73099" lon="7.33511">
        <ele>195.5</ele>
        <time>2020-06-28T17:01:39Z</time>
      </trkpt>
      <trkpt lat="48.73099" lon="7.33511">
        <ele>195.5</ele>
        <time>2020-06-28T17:01:40Z</time>
      </trkpt>
      <trkpt lat="48.73097" lon="7.33514">
        <ele>195.5</ele>
        <time>2020-06-28T17:01:41Z</time>
      </trkpt>
      <trkpt lat="48.73097" lon="7.33514">
        <ele>195.5</ele>
        <time>2020-06-28T17:01:42Z</time>
      </trkpt>
      <trkpt lat="48.73098" lon="7.33509">
        <ele>195.5</ele>
        <time>2020-06-28T17:01:43Z</time>
      </trkpt>
      <trkpt lat="48.73099" lon="7.33505">
        <ele>195.5</ele>
        <time>2020-06-28T17:02:12Z</time>
      </trkpt>
      <trkpt lat="48.73099" lon="7.33501">
        <ele>195.5</ele>
        <time>2020-06-28T17:02:13Z</time>
      </trkpt>
      <trkpt lat="48.731" lon="7.33497">
        <ele>195.6</ele>
        <time>2020-06-28T17:02:14Z</time>
      </trkpt>
      <trkpt lat="48.73097" lon="7.3349">
        <ele>195.5</ele>
        <time>2020-06-28T17:02:15Z</time>
      </trkpt>
      <trkpt lat="48.73095" lon="7.33482">
        <ele>195.5</ele>
        <time>2020-06-28T17:02:16Z</time>
      </trkpt>
      <trkpt lat="48.73094" lon="7.33475">
        <ele>195.5</ele>
        <time>2020-06-28T17:02:17Z</time>
      </trkpt>
      <trkpt lat="48.73092" lon="7.33471">
        <ele>195.5</ele>
        <time>2020-06-28T17:02:18Z</time>
      </trkpt>
      <trkpt lat="48.7309" lon="7.33467">
        <ele>195.5</ele>
        <time>2020-06-28T17:02:19Z</time>
      </trkpt>
      <trkpt lat="48.73087" lon="7.33461">
        <ele>195.6</ele>
        <time>2020-06-28T17:02:20Z</time>
      </trkpt>
      <trkpt lat="48.73084" lon="7.33454">
        <ele>195.6</ele>
        <time>2020-06-28T17:02:21Z</time>
      </trkpt>
      <trkpt lat="48.73083" lon="7.33447">
        <ele>195.6</ele>
        <time>2020-06-28T17:02:22Z</time>
      </trkpt>
      <trkpt lat="48.73081" lon="7.33441">
        <ele>195.6</ele>
        <time>2020-06-28T17:02:23Z</time>
      </trkpt>
      <trkpt lat="48.73081" lon="7.33434">
        <ele>195.6</ele>
        <time>2020-06-28T17:02:24Z</time>
      </trkpt>
      <trkpt lat="48.7308" lon="7.33427">
        <ele>195.6</ele>
        <time>2020-06-28T17:02:25Z</time>
      </trkpt>
      <trkpt lat="48.73078" lon="7.3342">
        <ele>195.6</ele>
        <time>2020-06-28T17:02:26Z</time>
      </trkpt>
      <trkpt lat="48.73077" lon="7.33413">
        <ele>195.6</ele>
        <time>2020-06-28T17:02:27Z</time>
      </trkpt>
      <trkpt lat="48.73075" lon="7.33406">
        <ele>195.5</ele>
        <time>2020-06-28T17:02:28Z</time>
      </trkpt>
      <trkpt lat="48.73073" lon="7.33398">
        <ele>195.5</ele>
        <time>2020-06-28T17:02:29Z</time>
      </trkpt>
      <trkpt lat="48.7307" lon="7.3339">
        <ele>195.5</ele>
        <time>2020-06-28T17:02:30Z</time>
      </trkpt>
      <trkpt lat="48.73069" lon="7.33382">
        <ele>195.5</ele>
        <time>2020-06-28T17:02:31Z</time>
      </trkpt>
      <trkpt lat="48.73066" lon="7.33375">
        <ele>195.5</ele>
        <time>2020-06-28T17:02:32Z</time>
      </trkpt>
      <trkpt lat="48.73064" lon="7.33368">
        <ele>195.5</ele>
        <time>2020-06-28T17:02:33Z</time>
      </trkpt>
      <trkpt lat="48.73062" lon="7.33362">
        <ele>195.5</ele>
        <time>2020-06-28T17:02:34Z</time>
      </trkpt>
      <trkpt lat="48.7306" lon="7.33356">
        <ele>195.5</ele>
        <time>2020-06-28T17:02:35Z</time>
      </trkpt>
      <trkpt lat="48.73055" lon="7.33349">
        <ele>195.6</ele>
        <time>2020-06-28T17:02:36Z</time>
      </trkpt>
      <trkpt lat="48.73052" lon="7.33343">
        <ele>195.6</ele>
        <time>2020-06-28T17:02:37Z</time>
      </trkpt>
      <trkpt lat="48.73051" lon="7.33338">
        <ele>195.6</ele>
        <time>2020-06-28T17:02:38Z</time>
      </trkpt>
      <trkpt lat="48.73048" lon="7.33331">
        <ele>195.6</ele>
        <time>2020-06-28T17:02:39Z</time>
      </trkpt>
      <trkpt lat="48.73045" lon="7.33325">
        <ele>195.6</ele>
        <time>2020-06-28T17:02:40Z</time>
      </trkpt>
      <trkpt lat="48.73042" lon="7.33318">
        <ele>195.6</ele>
        <time>2020-06-28T17:02:41Z</time>
      </trkpt>
      <trkpt lat="48.73037" lon="7.33313">
        <ele>195.7</ele>
        <time>2020-06-28T17:02:42Z</time>
      </trkpt>
      <trkpt lat="48.73033" lon="7.33308">
        <ele>195.7</ele>
        <time>2020-06-28T17:02:43Z</time>
      </trkpt>
      <trkpt lat="48.7303" lon="7.33303">
        <ele>195.7</ele>
        <time>2020-06-28T17:02:44Z</time>
      </trkpt>
      <trkpt lat="48.73027" lon="7.33299">
        <ele>195.8</ele>
        <time>2020-06-28T17:02:45Z</time>
      </trkpt>
      <trkpt lat="48.73024" lon="7.33297">
        <ele>195.8</ele>
        <time>2020-06-28T17:02:46Z</time>
      </trkpt>
      <trkpt lat="48.73021" lon="7.33293">
        <ele>195.8</ele>
        <time>2020-06-28T17:02:47Z</time>
      </trkpt>
      <trkpt lat="48.7302" lon="7.33292">
        <ele>195.8</ele>
        <time>2020-06-28T17:02:48Z</time>
      </trkpt>
      <trkpt lat="48.73017" lon="7.33289">
        <ele>195.9</ele>
        <time>2020-06-28T17:02:49Z</time>
      </trkpt>
      <trkpt lat="48.73013" lon="7.33286">
        <ele>195.9</ele>
        <time>2020-06-28T17:02:50Z</time>
      </trkpt>
      <trkpt lat="48.73005" lon="7.33282">
        <ele>195.9</ele>
        <time>2020-06-28T17:02:51Z</time>
      </trkpt>
      <trkpt lat="48.72997" lon="7.33279">
        <ele>195.8</ele>
        <time>2020-06-28T17:02:52Z</time>
      </trkpt>
      <trkpt lat="48.7299" lon="7.33276">
        <ele>195.8</ele>
        <time>2020-06-28T17:02:53Z</time>
      </trkpt>
      <trkpt lat="48.72983" lon="7.33273">
        <ele>195.7</ele>
        <time>2020-06-28T17:02:54Z</time>
      </trkpt>
      <trkpt lat="48.72978" lon="7.33266">
        <ele>195.7</ele>
        <time>2020-06-28T17:02:55Z</time>
      </trkpt>
      <trkpt lat="48.72972" lon="7.33262">
        <ele>195.7</ele>
        <time>2020-06-28T17:02:56Z</time>
      </trkpt>
      <trkpt lat="48.72966" lon="7.33259">
        <ele>195.7</ele>
        <time>2020-06-28T17:02:57Z</time>
      </trkpt>
      <trkpt lat="48.7296" lon="7.33255">
        <ele>195.7</ele>
        <time>2020-06-28T17:02:58Z</time>
      </trkpt>
      <trkpt lat="48.72953" lon="7.33253">
        <ele>195.7</ele>
        <time>2020-06-28T17:02:59Z</time>
      </trkpt>
      <trkpt lat="48.72948" lon="7.33252">
        <ele>195.7</ele>
        <time>2020-06-28T17:03:00Z</time>
      </trkpt>
      <trkpt lat="48.72943" lon="7.3325">
        <ele>195.7</ele>
        <time>2020-06-28T17:03:01Z</time>
      </trkpt>
      <trkpt lat="48.72937" lon="7.33249">
        <ele>195.8</ele>
        <time>2020-06-28T17:03:02Z</time>
      </trkpt>
      <trkpt lat="48.72933" lon="7.33247">
        <ele>195.8</ele>
        <time>2020-06-28T17:03:03Z</time>
      </trkpt>
      <trkpt lat="48.72927" lon="7.33244">
        <ele>195.8</ele>
        <time>2020-06-28T17:03:04Z</time>
      </trkpt>
      <trkpt lat="48.72921" lon="7.33243">
        <ele>195.8</ele>
        <time>2020-06-28T17:03:05Z</time>
      </trkpt>
      <trkpt lat="48.72916" lon="7.33241">
        <ele>195.8</ele>
        <time>2020-06-28T17:03:06Z</time>
      </trkpt>
      <trkpt lat="48.72911" lon="7.33239">
        <ele>195.9</ele>
        <time>2020-06-28T17:03:07Z</time>
      </trkpt>
      <trkpt lat="48.72906" lon="7.33237">
        <ele>195.9</ele>
        <time>2020-06-28T17:03:08Z</time>
      </trkpt>
      <trkpt lat="48.729" lon="7.33234">
        <ele>195.9</ele>
        <time>2020-06-28T17:03:09Z</time>
      </trkpt>
      <trkpt lat="48.72895" lon="7.33232">
        <ele>195.9</ele>
        <time>2020-06-28T17:03:10Z</time>
      </trkpt>
      <trkpt lat="48.7289" lon="7.3323">
        <ele>195.9</ele>
        <time>2020-06-28T17:03:11Z</time>
      </trkpt>
      <trkpt lat="48.72884" lon="7.33228">
        <ele>196</ele>
        <time>2020-06-28T17:03:12Z</time>
      </trkpt>
      <trkpt lat="48.72878" lon="7.33226">
        <ele>196</ele>
        <time>2020-06-28T17:03:13Z</time>
      </trkpt>
      <trkpt lat="48.72872" lon="7.33225">
        <ele>196</ele>
        <time>2020-06-28T17:03:14Z</time>
      </trkpt>
      <trkpt lat="48.72866" lon="7.33223">
        <ele>196.1</ele>
        <time>2020-06-28T17:03:15Z</time>
      </trkpt>
      <trkpt lat="48.7286" lon="7.33221">
        <ele>196.2</ele>
        <time>2020-06-28T17:03:16Z</time>
      </trkpt>
      <trkpt lat="48.72855" lon="7.33218">
        <ele>196.2</ele>
        <time>2020-06-28T17:03:17Z</time>
      </trkpt>
      <trkpt lat="48.72849" lon="7.33215">
        <ele>196.2</ele>
        <time>2020-06-28T17:03:18Z</time>
      </trkpt>
      <trkpt lat="48.72843" lon="7.33212">
        <ele>196.2</ele>
        <time>2020-06-28T17:03:19Z</time>
      </trkpt>
      <trkpt lat="48.72838" lon="7.33209">
        <ele>196.2</ele>
        <time>2020-06-28T17:03:20Z</time>
      </trkpt>
      <trkpt lat="48.72832" lon="7.33206">
        <ele>196.2</ele>
        <time>2020-06-28T17:03:21Z</time>
      </trkpt>
      <trkpt lat="48.72827" lon="7.33202">
        <ele>196.2</ele>
        <time>2020-06-28T17:03:22Z</time>
      </trkpt>
      <trkpt lat="48.72823" lon="7.33198">
        <ele>196.2</ele>
        <time>2020-06-28T17:03:23Z</time>
      </trkpt>
      <trkpt lat="48.72818" lon="7.33194">
        <ele>196.2</ele>
        <time>2020-06-28T17:03:24Z</time>
      </trkpt>
      <trkpt lat="48.72812" lon="7.3319">
        <ele>196.2</ele>
        <time>2020-06-28T17:03:25Z</time>
      </trkpt>
      <trkpt lat="48.72807" lon="7.33185">
        <ele>196.2</ele>
        <time>2020-06-28T17:03:26Z</time>
      </trkpt>
      <trkpt lat="48.72803" lon="7.33181">
        <ele>196.2</ele>
        <time>2020-06-28T17:03:27Z</time>
      </trkpt>
      <trkpt lat="48.72798" lon="7.33177">
        <ele>196.2</ele>
        <time>2020-06-28T17:03:28Z</time>
      </trkpt>
      <trkpt lat="48.72794" lon="7.33173">
        <ele>196.2</ele>
        <time>2020-06-28T17:03:29Z</time>
      </trkpt>
      <trkpt lat="48.72789" lon="7.33169">
        <ele>196.2</ele>
        <time>2020-06-28T17:03:30Z</time>
      </trkpt>
      <trkpt lat="48.72784" lon="7.33164">
        <ele>196.2</ele>
        <time>2020-06-28T17:03:31Z</time>
      </trkpt>
      <trkpt lat="48.7278" lon="7.3316">
        <ele>196.2</ele>
        <time>2020-06-28T17:03:32Z</time>
      </trkpt>
      <trkpt lat="48.72776" lon="7.33156">
        <ele>196.2</ele>
        <time>2020-06-28T17:03:33Z</time>
      </trkpt>
      <trkpt lat="48.72772" lon="7.33151">
        <ele>196.2</ele>
        <time>2020-06-28T17:03:34Z</time>
      </trkpt>
      <trkpt lat="48.72767" lon="7.33148">
        <ele>196.2</ele>
        <time>2020-06-28T17:03:35Z</time>
      </trkpt>
      <trkpt lat="48.72761" lon="7.33144">
        <ele>196.2</ele>
        <time>2020-06-28T17:03:36Z</time>
      </trkpt>
      <trkpt lat="48.72756" lon="7.33138">
        <ele>196.2</ele>
        <time>2020-06-28T17:03:37Z</time>
      </trkpt>
      <trkpt lat="48.72752" lon="7.33133">
        <ele>196.2</ele>
        <time>2020-06-28T17:03:38Z</time>
      </trkpt>
      <trkpt lat="48.72748" lon="7.33127">
        <ele>196.2</ele>
        <time>2020-06-28T17:03:39Z</time>
      </trkpt>
      <trkpt lat="48.72745" lon="7.33121">
        <ele>196.2</ele>
        <time>2020-06-28T17:03:40Z</time>
      </trkpt>
      <trkpt lat="48.7274" lon="7.33114">
        <ele>196.1</ele>
        <time>2020-06-28T17:03:41Z</time>
      </trkpt>
      <trkpt lat="48.72736" lon="7.33108">
        <ele>196.1</ele>
        <time>2020-06-28T17:03:42Z</time>
      </trkpt>
      <trkpt lat="48.72732" lon="7.33103">
        <ele>196.1</ele>
        <time>2020-06-28T17:03:43Z</time>
      </trkpt>
      <trkpt lat="48.72728" lon="7.33098">
        <ele>196.1</ele>
        <time>2020-06-28T17:03:44Z</time>
      </trkpt>
      <trkpt lat="48.72724" lon="7.33093">
        <ele>196.1</ele>
        <time>2020-06-28T17:03:45Z</time>
      </trkpt>
      <trkpt lat="48.7272" lon="7.33086">
        <ele>196.1</ele>
        <time>2020-06-28T17:03:46Z</time>
      </trkpt>
      <trkpt lat="48.72716" lon="7.33079">
        <ele>196.1</ele>
        <time>2020-06-28T17:03:47Z</time>
      </trkpt>
      <trkpt lat="48.72713" lon="7.33072">
        <ele>196.1</ele>
        <time>2020-06-28T17:03:48Z</time>
      </trkpt>
      <trkpt lat="48.72709" lon="7.33065">
        <ele>196.2</ele>
        <time>2020-06-28T17:03:49Z</time>
      </trkpt>
      <trkpt lat="48.72706" lon="7.33058">
        <ele>196.2</ele>
        <time>2020-06-28T17:03:50Z</time>
      </trkpt>
      <trkpt lat="48.72704" lon="7.33052">
        <ele>196.2</ele>
        <time>2020-06-28T17:03:51Z</time>
      </trkpt>
      <trkpt lat="48.72701" lon="7.33044">
        <ele>196.2</ele>
        <time>2020-06-28T17:03:52Z</time>
      </trkpt>
      <trkpt lat="48.72697" lon="7.33038">
        <ele>196.2</ele>
        <time>2020-06-28T17:03:53Z</time>
      </trkpt>
      <trkpt lat="48.72694" lon="7.33031">
        <ele>196.2</ele>
        <time>2020-06-28T17:03:54Z</time>
      </trkpt>
      <trkpt lat="48.72691" lon="7.33022">
        <ele>196.2</ele>
        <time>2020-06-28T17:03:55Z</time>
      </trkpt>
      <trkpt lat="48.72689" lon="7.33014">
        <ele>196.2</ele>
        <time>2020-06-28T17:03:56Z</time>
      </trkpt>
      <trkpt lat="48.72686" lon="7.33007">
        <ele>196.2</ele>
        <time>2020-06-28T17:03:57Z</time>
      </trkpt>
      <trkpt lat="48.72683" lon="7.33">
        <ele>196.2</ele>
        <time>2020-06-28T17:03:58Z</time>
      </trkpt>
      <trkpt lat="48.72681" lon="7.32992">
        <ele>196.1</ele>
        <time>2020-06-28T17:03:59Z</time>
      </trkpt>
      <trkpt lat="48.72678" lon="7.32985">
        <ele>196.1</ele>
        <time>2020-06-28T17:04:00Z</time>
      </trkpt>
      <trkpt lat="48.72676" lon="7.32978">
        <ele>196.1</ele>
        <time>2020-06-28T17:04:01Z</time>
      </trkpt>
      <trkpt lat="48.72674" lon="7.32971">
        <ele>196.1</ele>
        <time>2020-06-28T17:04:02Z</time>
      </trkpt>
      <trkpt lat="48.72672" lon="7.32963">
        <ele>196.1</ele>
        <time>2020-06-28T17:04:03Z</time>
      </trkpt>
      <trkpt lat="48.72671" lon="7.32956">
        <ele>196.1</ele>
        <time>2020-06-28T17:04:04Z</time>
      </trkpt>
      <trkpt lat="48.72669" lon="7.32949">
        <ele>196.1</ele>
        <time>2020-06-28T17:04:05Z</time>
      </trkpt>
      <trkpt lat="48.72667" lon="7.32941">
        <ele>196.1</ele>
        <time>2020-06-28T17:04:06Z</time>
      </trkpt>
      <trkpt lat="48.72665" lon="7.32932">
        <ele>196.1</ele>
        <time>2020-06-28T17:04:07Z</time>
      </trkpt>
      <trkpt lat="48.72663" lon="7.32924">
        <ele>196.1</ele>
        <time>2020-06-28T17:04:08Z</time>
      </trkpt>
      <trkpt lat="48.72661" lon="7.32915">
        <ele>196.1</ele>
        <time>2020-06-28T17:04:09Z</time>
      </trkpt>
      <trkpt lat="48.72659" lon="7.32906">
        <ele>196.2</ele>
        <time>2020-06-28T17:04:10Z</time>
      </trkpt>
      <trkpt lat="48.72658" lon="7.32897">
        <ele>196.2</ele>
        <time>2020-06-28T17:04:11Z</time>
      </trkpt>
      <trkpt lat="48.72657" lon="7.32887">
        <ele>196.2</ele>
        <time>2020-06-28T17:04:12Z</time>
      </trkpt>
      <trkpt lat="48.72656" lon="7.3288">
        <ele>196.2</ele>
        <time>2020-06-28T17:04:13Z</time>
      </trkpt>
      <trkpt lat="48.72655" lon="7.32872">
        <ele>196.2</ele>
        <time>2020-06-28T17:04:14Z</time>
      </trkpt>
      <trkpt lat="48.72654" lon="7.32865">
        <ele>196.2</ele>
        <time>2020-06-28T17:04:15Z</time>
      </trkpt>
      <trkpt lat="48.72653" lon="7.32858">
        <ele>196.2</ele>
        <time>2020-06-28T17:04:16Z</time>
      </trkpt>
      <trkpt lat="48.72653" lon="7.32849">
        <ele>196.2</ele>
        <time>2020-06-28T17:04:17Z</time>
      </trkpt>
      <trkpt lat="48.72652" lon="7.32839">
        <ele>196.1</ele>
        <time>2020-06-28T17:04:18Z</time>
      </trkpt>
      <trkpt lat="48.7265" lon="7.3283">
        <ele>196.1</ele>
        <time>2020-06-28T17:04:19Z</time>
      </trkpt>
      <trkpt lat="48.7265" lon="7.3282">
        <ele>196.2</ele>
        <time>2020-06-28T17:04:20Z</time>
      </trkpt>
      <trkpt lat="48.72649" lon="7.32811">
        <ele>196.2</ele>
        <time>2020-06-28T17:04:21Z</time>
      </trkpt>
      <trkpt lat="48.72648" lon="7.32802">
        <ele>196.2</ele>
        <time>2020-06-28T17:04:22Z</time>
      </trkpt>
      <trkpt lat="48.72648" lon="7.32794">
        <ele>196.2</ele>
        <time>2020-06-28T17:04:23Z</time>
      </trkpt>
      <trkpt lat="48.72647" lon="7.32786">
        <ele>196.2</ele>
        <time>2020-06-28T17:04:24Z</time>
      </trkpt>
      <trkpt lat="48.72646" lon="7.32778">
        <ele>196.2</ele>
        <time>2020-06-28T17:04:25Z</time>
      </trkpt>
      <trkpt lat="48.72645" lon="7.3277">
        <ele>196.2</ele>
        <time>2020-06-28T17:04:26Z</time>
      </trkpt>
      <trkpt lat="48.72644" lon="7.32761">
        <ele>196.2</ele>
        <time>2020-06-28T17:04:27Z</time>
      </trkpt>
      <trkpt lat="48.72642" lon="7.32752">
        <ele>196.1</ele>
        <time>2020-06-28T17:04:28Z</time>
      </trkpt>
      <trkpt lat="48.72641" lon="7.32744">
        <ele>196.1</ele>
        <time>2020-06-28T17:04:29Z</time>
      </trkpt>
      <trkpt lat="48.7264" lon="7.32734">
        <ele>196.1</ele>
        <time>2020-06-28T17:04:30Z</time>
      </trkpt>
      <trkpt lat="48.72639" lon="7.32726">
        <ele>196</ele>
        <time>2020-06-28T17:04:31Z</time>
      </trkpt>
      <trkpt lat="48.72637" lon="7.32717">
        <ele>196</ele>
        <time>2020-06-28T17:04:32Z</time>
      </trkpt>
      <trkpt lat="48.72636" lon="7.32709">
        <ele>196</ele>
        <time>2020-06-28T17:04:33Z</time>
      </trkpt>
      <trkpt lat="48.72635" lon="7.327">
        <ele>196</ele>
        <time>2020-06-28T17:04:34Z</time>
      </trkpt>
      <trkpt lat="48.72632" lon="7.32692">
        <ele>196</ele>
        <time>2020-06-28T17:04:35Z</time>
      </trkpt>
      <trkpt lat="48.72631" lon="7.32682">
        <ele>196.1</ele>
        <time>2020-06-28T17:04:36Z</time>
      </trkpt>
      <trkpt lat="48.72627" lon="7.32672">
        <ele>196.1</ele>
        <time>2020-06-28T17:04:37Z</time>
      </trkpt>
      <trkpt lat="48.72625" lon="7.32664">
        <ele>196.1</ele>
        <time>2020-06-28T17:04:38Z</time>
      </trkpt>
      <trkpt lat="48.72623" lon="7.32656">
        <ele>196.1</ele>
        <time>2020-06-28T17:04:39Z</time>
      </trkpt>
      <trkpt lat="48.7262" lon="7.32649">
        <ele>196.1</ele>
        <time>2020-06-28T17:04:40Z</time>
      </trkpt>
      <trkpt lat="48.72617" lon="7.32641">
        <ele>196.1</ele>
        <time>2020-06-28T17:04:41Z</time>
      </trkpt>
      <trkpt lat="48.72615" lon="7.32633">
        <ele>196.1</ele>
        <time>2020-06-28T17:04:42Z</time>
      </trkpt>
      <trkpt lat="48.72613" lon="7.32624">
        <ele>196.1</ele>
        <time>2020-06-28T17:04:43Z</time>
      </trkpt>
      <trkpt lat="48.7261" lon="7.32617">
        <ele>196.1</ele>
        <time>2020-06-28T17:04:44Z</time>
      </trkpt>
      <trkpt lat="48.72606" lon="7.32608">
        <ele>196.1</ele>
        <time>2020-06-28T17:04:45Z</time>
      </trkpt>
      <trkpt lat="48.72604" lon="7.32601">
        <ele>196.1</ele>
        <time>2020-06-28T17:04:46Z</time>
      </trkpt>
      <trkpt lat="48.72601" lon="7.32595">
        <ele>196.1</ele>
        <time>2020-06-28T17:04:47Z</time>
      </trkpt>
      <trkpt lat="48.72598" lon="7.32588">
        <ele>196.1</ele>
        <time>2020-06-28T17:04:48Z</time>
      </trkpt>
      <trkpt lat="48.72595" lon="7.32582">
        <ele>196.1</ele>
        <time>2020-06-28T17:04:49Z</time>
      </trkpt>
      <trkpt lat="48.72591" lon="7.32574">
        <ele>196.2</ele>
        <time>2020-06-28T17:04:50Z</time>
      </trkpt>
      <trkpt lat="48.72586" lon="7.32567">
        <ele>196.2</ele>
        <time>2020-06-28T17:04:51Z</time>
      </trkpt>
      <trkpt lat="48.72581" lon="7.32559">
        <ele>196.2</ele>
        <time>2020-06-28T17:04:52Z</time>
      </trkpt>
      <trkpt lat="48.72577" lon="7.32552">
        <ele>196.2</ele>
        <time>2020-06-28T17:04:53Z</time>
      </trkpt>
      <trkpt lat="48.72574" lon="7.32546">
        <ele>196.1</ele>
        <time>2020-06-28T17:04:54Z</time>
      </trkpt>
      <trkpt lat="48.7257" lon="7.3254">
        <ele>196.1</ele>
        <time>2020-06-28T17:04:55Z</time>
      </trkpt>
      <trkpt lat="48.72567" lon="7.32535">
        <ele>196.1</ele>
        <time>2020-06-28T17:04:56Z</time>
      </trkpt>
      <trkpt lat="48.72562" lon="7.32528">
        <ele>196.2</ele>
        <time>2020-06-28T17:04:57Z</time>
      </trkpt>
      <trkpt lat="48.72558" lon="7.32522">
        <ele>196.2</ele>
        <time>2020-06-28T17:04:58Z</time>
      </trkpt>
      <trkpt lat="48.72554" lon="7.32516">
        <ele>196.2</ele>
        <time>2020-06-28T17:04:59Z</time>
      </trkpt>
      <trkpt lat="48.7255" lon="7.3251">
        <ele>196.2</ele>
        <time>2020-06-28T17:05:00Z</time>
      </trkpt>
      <trkpt lat="48.72547" lon="7.32505">
        <ele>196.2</ele>
        <time>2020-06-28T17:05:01Z</time>
      </trkpt>
      <trkpt lat="48.72543" lon="7.32498">
        <ele>196.2</ele>
        <time>2020-06-28T17:05:02Z</time>
      </trkpt>
      <trkpt lat="48.72539" lon="7.32492">
        <ele>196.2</ele>
        <time>2020-06-28T17:05:03Z</time>
      </trkpt>
      <trkpt lat="48.72534" lon="7.32486">
        <ele>196.2</ele>
        <time>2020-06-28T17:05:04Z</time>
      </trkpt>
      <trkpt lat="48.7253" lon="7.3248">
        <ele>196.2</ele>
        <time>2020-06-28T17:05:05Z</time>
      </trkpt>
      <trkpt lat="48.72526" lon="7.32474">
        <ele>196.2</ele>
        <time>2020-06-28T17:05:06Z</time>
      </trkpt>
      <trkpt lat="48.72521" lon="7.32468">
        <ele>196.3</ele>
        <time>2020-06-28T17:05:07Z</time>
      </trkpt>
      <trkpt lat="48.72517" lon="7.3246">
        <ele>196.3</ele>
        <time>2020-06-28T17:05:08Z</time>
      </trkpt>
      <trkpt lat="48.7251" lon="7.32453">
        <ele>196.3</ele>
        <time>2020-06-28T17:05:09Z</time>
      </trkpt>
      <trkpt lat="48.72506" lon="7.32447">
        <ele>196.4</ele>
        <time>2020-06-28T17:05:10Z</time>
      </trkpt>
      <trkpt lat="48.72501" lon="7.32442">
        <ele>196.4</ele>
        <time>2020-06-28T17:05:11Z</time>
      </trkpt>
      <trkpt lat="48.72497" lon="7.32434">
        <ele>196.4</ele>
        <time>2020-06-28T17:05:12Z</time>
      </trkpt>
      <trkpt lat="48.72492" lon="7.32428">
        <ele>196.4</ele>
        <time>2020-06-28T17:05:13Z</time>
      </trkpt>
      <trkpt lat="48.72487" lon="7.32421">
        <ele>196.5</ele>
        <time>2020-06-28T17:05:14Z</time>
      </trkpt>
      <trkpt lat="48.72482" lon="7.32414">
        <ele>196.5</ele>
        <time>2020-06-28T17:05:15Z</time>
      </trkpt>
      <trkpt lat="48.72478" lon="7.32408">
        <ele>196.5</ele>
        <time>2020-06-28T17:05:16Z</time>
      </trkpt>
      <trkpt lat="48.72474" lon="7.32403">
        <ele>196.5</ele>
        <time>2020-06-28T17:05:17Z</time>
      </trkpt>
      <trkpt lat="48.7247" lon="7.32396">
        <ele>196.5</ele>
        <time>2020-06-28T17:05:18Z</time>
      </trkpt>
      <trkpt lat="48.72466" lon="7.32389">
        <ele>196.6</ele>
        <time>2020-06-28T17:05:19Z</time>
      </trkpt>
      <trkpt lat="48.72461" lon="7.32382">
        <ele>196.7</ele>
        <time>2020-06-28T17:05:20Z</time>
      </trkpt>
      <trkpt lat="48.72456" lon="7.32376">
        <ele>196.9</ele>
        <time>2020-06-28T17:05:21Z</time>
      </trkpt>
      <trkpt lat="48.72453" lon="7.32369">
        <ele>197.1</ele>
        <time>2020-06-28T17:05:22Z</time>
      </trkpt>
      <trkpt lat="48.72448" lon="7.32363">
        <ele>197.3</ele>
        <time>2020-06-28T17:05:23Z</time>
      </trkpt>
      <trkpt lat="48.72444" lon="7.32358">
        <ele>197.5</ele>
        <time>2020-06-28T17:05:24Z</time>
      </trkpt>
      <trkpt lat="48.72439" lon="7.32353">
        <ele>197.7</ele>
        <time>2020-06-28T17:05:25Z</time>
      </trkpt>
      <trkpt lat="48.72436" lon="7.32348">
        <ele>197.9</ele>
        <time>2020-06-28T17:05:26Z</time>
      </trkpt>
      <trkpt lat="48.72434" lon="7.32342">
        <ele>198</ele>
        <time>2020-06-28T17:05:27Z</time>
      </trkpt>
      <trkpt lat="48.72433" lon="7.32335">
        <ele>198.2</ele>
        <time>2020-06-28T17:05:28Z</time>
      </trkpt>
      <trkpt lat="48.7243" lon="7.3233">
        <ele>198.2</ele>
        <time>2020-06-28T17:05:29Z</time>
      </trkpt>
      <trkpt lat="48.72427" lon="7.32327">
        <ele>198.3</ele>
        <time>2020-06-28T17:05:30Z</time>
      </trkpt>
      <trkpt lat="48.72424" lon="7.32324">
        <ele>198.4</ele>
        <time>2020-06-28T17:05:31Z</time>
      </trkpt>
      <trkpt lat="48.7242" lon="7.32319">
        <ele>198.4</ele>
        <time>2020-06-28T17:05:32Z</time>
      </trkpt>
      <trkpt lat="48.72416" lon="7.32315">
        <ele>198.5</ele>
        <time>2020-06-28T17:05:33Z</time>
      </trkpt>
      <trkpt lat="48.72412" lon="7.32311">
        <ele>198.5</ele>
        <time>2020-06-28T17:05:34Z</time>
      </trkpt>
      <trkpt lat="48.72407" lon="7.32309">
        <ele>198.6</ele>
        <time>2020-06-28T17:05:35Z</time>
      </trkpt>
      <trkpt lat="48.72403" lon="7.32306">
        <ele>198.6</ele>
        <time>2020-06-28T17:05:36Z</time>
      </trkpt>
      <trkpt lat="48.724" lon="7.32303">
        <ele>198.7</ele>
        <time>2020-06-28T17:05:37Z</time>
      </trkpt>
      <trkpt lat="48.72397" lon="7.323">
        <ele>198.7</ele>
        <time>2020-06-28T17:05:38Z</time>
      </trkpt>
      <trkpt lat="48.72396" lon="7.32295">
        <ele>198.7</ele>
        <time>2020-06-28T17:05:39Z</time>
      </trkpt>
      <trkpt lat="48.72392" lon="7.32289">
        <ele>198.7</ele>
        <time>2020-06-28T17:05:40Z</time>
      </trkpt>
      <trkpt lat="48.72389" lon="7.32284">
        <ele>198.7</ele>
        <time>2020-06-28T17:05:41Z</time>
      </trkpt>
      <trkpt lat="48.72386" lon="7.32279">
        <ele>198.8</ele>
        <time>2020-06-28T17:05:42Z</time>
      </trkpt>
      <trkpt lat="48.72382" lon="7.32276">
        <ele>198.8</ele>
        <time>2020-06-28T17:05:43Z</time>
      </trkpt>
      <trkpt lat="48.72379" lon="7.3227">
        <ele>198.8</ele>
        <time>2020-06-28T17:05:44Z</time>
      </trkpt>
      <trkpt lat="48.72376" lon="7.32263">
        <ele>198.8</ele>
        <time>2020-06-28T17:05:45Z</time>
      </trkpt>
      <trkpt lat="48.72372" lon="7.32258">
        <ele>198.8</ele>
        <time>2020-06-28T17:05:46Z</time>
      </trkpt>
      <trkpt lat="48.72369" lon="7.32252">
        <ele>198.8</ele>
        <time>2020-06-28T17:05:47Z</time>
      </trkpt>
      <trkpt lat="48.72364" lon="7.32245">
        <ele>198.8</ele>
        <time>2020-06-28T17:05:48Z</time>
      </trkpt>
      <trkpt lat="48.7236" lon="7.3224">
        <ele>198.8</ele>
        <time>2020-06-28T17:05:49Z</time>
      </trkpt>
      <trkpt lat="48.72356" lon="7.32234">
        <ele>198.8</ele>
        <time>2020-06-28T17:05:50Z</time>
      </trkpt>
      <trkpt lat="48.72352" lon="7.32229">
        <ele>198.9</ele>
        <time>2020-06-28T17:05:51Z</time>
      </trkpt>
      <trkpt lat="48.72348" lon="7.32225">
        <ele>198.9</ele>
        <time>2020-06-28T17:05:52Z</time>
      </trkpt>
      <trkpt lat="48.72345" lon="7.32219">
        <ele>198.9</ele>
        <time>2020-06-28T17:05:53Z</time>
      </trkpt>
      <trkpt lat="48.72341" lon="7.32215">
        <ele>198.9</ele>
        <time>2020-06-28T17:05:54Z</time>
      </trkpt>
      <trkpt lat="48.72335" lon="7.32212">
        <ele>198.9</ele>
        <time>2020-06-28T17:05:55Z</time>
      </trkpt>
      <trkpt lat="48.72333" lon="7.32206">
        <ele>198.9</ele>
        <time>2020-06-28T17:05:56Z</time>
      </trkpt>
      <trkpt lat="48.72328" lon="7.32203">
        <ele>198.9</ele>
        <time>2020-06-28T17:05:57Z</time>
      </trkpt>
      <trkpt lat="48.72325" lon="7.32198">
        <ele>198.9</ele>
        <time>2020-06-28T17:05:58Z</time>
      </trkpt>
      <trkpt lat="48.72322" lon="7.32193">
        <ele>198.9</ele>
        <time>2020-06-28T17:05:59Z</time>
      </trkpt>
      <trkpt lat="48.72318" lon="7.32188">
        <ele>198.9</ele>
        <time>2020-06-28T17:06:00Z</time>
      </trkpt>
      <trkpt lat="48.72312" lon="7.32185">
        <ele>199</ele>
        <time>2020-06-28T17:06:01Z</time>
      </trkpt>
      <trkpt lat="48.72309" lon="7.3218">
        <ele>199</ele>
        <time>2020-06-28T17:06:02Z</time>
      </trkpt>
      <trkpt lat="48.72305" lon="7.32175">
        <ele>199</ele>
        <time>2020-06-28T17:06:03Z</time>
      </trkpt>
      <trkpt lat="48.723" lon="7.32171">
        <ele>199</ele>
        <time>2020-06-28T17:06:04Z</time>
      </trkpt>
      <trkpt lat="48.72297" lon="7.32164">
        <ele>199</ele>
        <time>2020-06-28T17:06:05Z</time>
      </trkpt>
      <trkpt lat="48.72291" lon="7.32158">
        <ele>199</ele>
        <time>2020-06-28T17:06:06Z</time>
      </trkpt>
      <trkpt lat="48.72288" lon="7.32151">
        <ele>199</ele>
        <time>2020-06-28T17:06:07Z</time>
      </trkpt>
      <trkpt lat="48.72285" lon="7.32146">
        <ele>199</ele>
        <time>2020-06-28T17:06:08Z</time>
      </trkpt>
      <trkpt lat="48.72282" lon="7.32142">
        <ele>199</ele>
        <time>2020-06-28T17:06:09Z</time>
      </trkpt>
      <trkpt lat="48.72277" lon="7.32136">
        <ele>199</ele>
        <time>2020-06-28T17:06:10Z</time>
      </trkpt>
      <trkpt lat="48.72273" lon="7.32129">
        <ele>199</ele>
        <time>2020-06-28T17:06:11Z</time>
      </trkpt>
      <trkpt lat="48.7227" lon="7.32123">
        <ele>199</ele>
        <time>2020-06-28T17:06:12Z</time>
      </trkpt>
      <trkpt lat="48.72267" lon="7.32117">
        <ele>199</ele>
        <time>2020-06-28T17:06:13Z</time>
      </trkpt>
      <trkpt lat="48.72263" lon="7.32111">
        <ele>199</ele>
        <time>2020-06-28T17:06:14Z</time>
      </trkpt>
      <trkpt lat="48.72261" lon="7.32104">
        <ele>199</ele>
        <time>2020-06-28T17:06:15Z</time>
      </trkpt>
      <trkpt lat="48.72259" lon="7.32096">
        <ele>198.9</ele>
        <time>2020-06-28T17:06:16Z</time>
      </trkpt>
      <trkpt lat="48.72256" lon="7.32089">
        <ele>198.9</ele>
        <time>2020-06-28T17:06:17Z</time>
      </trkpt>
      <trkpt lat="48.72253" lon="7.32083">
        <ele>199</ele>
        <time>2020-06-28T17:06:18Z</time>
      </trkpt>
      <trkpt lat="48.72249" lon="7.32077">
        <ele>199</ele>
        <time>2020-06-28T17:06:19Z</time>
      </trkpt>
      <trkpt lat="48.72245" lon="7.32069">
        <ele>199</ele>
        <time>2020-06-28T17:06:20Z</time>
      </trkpt>
      <trkpt lat="48.72242" lon="7.32063">
        <ele>199</ele>
        <time>2020-06-28T17:06:21Z</time>
      </trkpt>
      <trkpt lat="48.7224" lon="7.32055">
        <ele>199</ele>
        <time>2020-06-28T17:06:22Z</time>
      </trkpt>
      <trkpt lat="48.72237" lon="7.32048">
        <ele>199</ele>
        <time>2020-06-28T17:06:23Z</time>
      </trkpt>
      <trkpt lat="48.72232" lon="7.32041">
        <ele>199</ele>
        <time>2020-06-28T17:06:24Z</time>
      </trkpt>
      <trkpt lat="48.72229" lon="7.32034">
        <ele>199</ele>
        <time>2020-06-28T17:06:25Z</time>
      </trkpt>
      <trkpt lat="48.72225" lon="7.32027">
        <ele>199.1</ele>
        <time>2020-06-28T17:06:26Z</time>
      </trkpt>
      <trkpt lat="48.72222" lon="7.32019">
        <ele>199.1</ele>
        <time>2020-06-28T17:06:27Z</time>
      </trkpt>
      <trkpt lat="48.72218" lon="7.32012">
        <ele>199.1</ele>
        <time>2020-06-28T17:06:28Z</time>
      </trkpt>
      <trkpt lat="48.72216" lon="7.32003">
        <ele>199.1</ele>
        <time>2020-06-28T17:06:29Z</time>
      </trkpt>
      <trkpt lat="48.72214" lon="7.31995">
        <ele>199.1</ele>
        <time>2020-06-28T17:06:30Z</time>
      </trkpt>
      <trkpt lat="48.72212" lon="7.31989">
        <ele>199.1</ele>
        <time>2020-06-28T17:06:31Z</time>
      </trkpt>
      <trkpt lat="48.72211" lon="7.31981">
        <ele>199.2</ele>
        <time>2020-06-28T17:06:32Z</time>
      </trkpt>
      <trkpt lat="48.72208" lon="7.31975">
        <ele>199.2</ele>
        <time>2020-06-28T17:06:33Z</time>
      </trkpt>
      <trkpt lat="48.72206" lon="7.31968">
        <ele>199.2</ele>
        <time>2020-06-28T17:06:34Z</time>
      </trkpt>
      <trkpt lat="48.72203" lon="7.3196">
        <ele>199.2</ele>
        <time>2020-06-28T17:06:35Z</time>
      </trkpt>
      <trkpt lat="48.72201" lon="7.31952">
        <ele>199.2</ele>
        <time>2020-06-28T17:06:36Z</time>
      </trkpt>
      <trkpt lat="48.72199" lon="7.31945">
        <ele>199.2</ele>
        <time>2020-06-28T17:06:37Z</time>
      </trkpt>
      <trkpt lat="48.72198" lon="7.31937">
        <ele>199.2</ele>
        <time>2020-06-28T17:06:38Z</time>
      </trkpt>
      <trkpt lat="48.72197" lon="7.31929">
        <ele>199.2</ele>
        <time>2020-06-28T17:06:39Z</time>
      </trkpt>
      <trkpt lat="48.72196" lon="7.31922">
        <ele>199.2</ele>
        <time>2020-06-28T17:06:40Z</time>
      </trkpt>
      <trkpt lat="48.72194" lon="7.31914">
        <ele>199.2</ele>
        <time>2020-06-28T17:06:41Z</time>
      </trkpt>
      <trkpt lat="48.72194" lon="7.31906">
        <ele>199.2</ele>
        <time>2020-06-28T17:06:42Z</time>
      </trkpt>
      <trkpt lat="48.72193" lon="7.31898">
        <ele>199.3</ele>
        <time>2020-06-28T17:06:43Z</time>
      </trkpt>
      <trkpt lat="48.72193" lon="7.31889">
        <ele>199.3</ele>
        <time>2020-06-28T17:06:44Z</time>
      </trkpt>
      <trkpt lat="48.72193" lon="7.3188">
        <ele>199.3</ele>
        <time>2020-06-28T17:06:45Z</time>
      </trkpt>
      <trkpt lat="48.72192" lon="7.31869">
        <ele>199.3</ele>
        <time>2020-06-28T17:06:46Z</time>
      </trkpt>
      <trkpt lat="48.72192" lon="7.31862">
        <ele>199.3</ele>
        <time>2020-06-28T17:06:47Z</time>
      </trkpt>
      <trkpt lat="48.72193" lon="7.31852">
        <ele>199.3</ele>
        <time>2020-06-28T17:06:48Z</time>
      </trkpt>
      <trkpt lat="48.72194" lon="7.31844">
        <ele>199.3</ele>
        <time>2020-06-28T17:06:49Z</time>
      </trkpt>
      <trkpt lat="48.72193" lon="7.31835">
        <ele>199.3</ele>
        <time>2020-06-28T17:06:50Z</time>
      </trkpt>
      <trkpt lat="48.72192" lon="7.31825">
        <ele>199.3</ele>
        <time>2020-06-28T17:06:51Z</time>
      </trkpt>
      <trkpt lat="48.7219" lon="7.31818">
        <ele>199.3</ele>
        <time>2020-06-28T17:06:52Z</time>
      </trkpt>
      <trkpt lat="48.72188" lon="7.31811">
        <ele>199.3</ele>
        <time>2020-06-28T17:06:53Z</time>
      </trkpt>
      <trkpt lat="48.72187" lon="7.31801">
        <ele>199.3</ele>
        <time>2020-06-28T17:06:54Z</time>
      </trkpt>
      <trkpt lat="48.72186" lon="7.31793">
        <ele>199.3</ele>
        <time>2020-06-28T17:06:55Z</time>
      </trkpt>
      <trkpt lat="48.72184" lon="7.31785">
        <ele>199.3</ele>
        <time>2020-06-28T17:06:56Z</time>
      </trkpt>
      <trkpt lat="48.72183" lon="7.31776">
        <ele>199.3</ele>
        <time>2020-06-28T17:06:57Z</time>
      </trkpt>
      <trkpt lat="48.72182" lon="7.31768">
        <ele>199.3</ele>
        <time>2020-06-28T17:06:58Z</time>
      </trkpt>
      <trkpt lat="48.72182" lon="7.31761">
        <ele>199.3</ele>
        <time>2020-06-28T17:06:59Z</time>
      </trkpt>
      <trkpt lat="48.72181" lon="7.31753">
        <ele>199.3</ele>
        <time>2020-06-28T17:07:00Z</time>
      </trkpt>
      <trkpt lat="48.72181" lon="7.31745">
        <ele>199.3</ele>
        <time>2020-06-28T17:07:01Z</time>
      </trkpt>
      <trkpt lat="48.7218" lon="7.31737">
        <ele>199.4</ele>
        <time>2020-06-28T17:07:02Z</time>
      </trkpt>
      <trkpt lat="48.72179" lon="7.31728">
        <ele>199.4</ele>
        <time>2020-06-28T17:07:03Z</time>
      </trkpt>
      <trkpt lat="48.72178" lon="7.3172">
        <ele>199.4</ele>
        <time>2020-06-28T17:07:04Z</time>
      </trkpt>
      <trkpt lat="48.72177" lon="7.31711">
        <ele>199.5</ele>
        <time>2020-06-28T17:07:05Z</time>
      </trkpt>
      <trkpt lat="48.72176" lon="7.31703">
        <ele>199.5</ele>
        <time>2020-06-28T17:07:06Z</time>
      </trkpt>
      <trkpt lat="48.72175" lon="7.31694">
        <ele>199.5</ele>
        <time>2020-06-28T17:07:07Z</time>
      </trkpt>
      <trkpt lat="48.72175" lon="7.31688">
        <ele>199.5</ele>
        <time>2020-06-28T17:07:08Z</time>
      </trkpt>
      <trkpt lat="48.72174" lon="7.31681">
        <ele>199.6</ele>
        <time>2020-06-28T17:07:09Z</time>
      </trkpt>
      <trkpt lat="48.72173" lon="7.31673">
        <ele>199.6</ele>
        <time>2020-06-28T17:07:10Z</time>
      </trkpt>
      <trkpt lat="48.72171" lon="7.31665">
        <ele>199.7</ele>
        <time>2020-06-28T17:07:11Z</time>
      </trkpt>
      <trkpt lat="48.7217" lon="7.31657">
        <ele>199.8</ele>
        <time>2020-06-28T17:07:12Z</time>
      </trkpt>
      <trkpt lat="48.72168" lon="7.3165">
        <ele>199.9</ele>
        <time>2020-06-28T17:07:13Z</time>
      </trkpt>
      <trkpt lat="48.72166" lon="7.31643">
        <ele>200</ele>
        <time>2020-06-28T17:07:14Z</time>
      </trkpt>
      <trkpt lat="48.72165" lon="7.31636">
        <ele>200.2</ele>
        <time>2020-06-28T17:07:15Z</time>
      </trkpt>
      <trkpt lat="48.72164" lon="7.31629">
        <ele>200.4</ele>
        <time>2020-06-28T17:07:16Z</time>
      </trkpt>
      <trkpt lat="48.72163" lon="7.31623">
        <ele>200.5</ele>
        <time>2020-06-28T17:07:17Z</time>
      </trkpt>
      <trkpt lat="48.72163" lon="7.31616">
        <ele>200.7</ele>
        <time>2020-06-28T17:07:18Z</time>
      </trkpt>
      <trkpt lat="48.72161" lon="7.31611">
        <ele>200.7</ele>
        <time>2020-06-28T17:07:19Z</time>
      </trkpt>
      <trkpt lat="48.7216" lon="7.31605">
        <ele>200.8</ele>
        <time>2020-06-28T17:07:20Z</time>
      </trkpt>
      <trkpt lat="48.72158" lon="7.31598">
        <ele>200.8</ele>
        <time>2020-06-28T17:07:21Z</time>
      </trkpt>
      <trkpt lat="48.72158" lon="7.31592">
        <ele>200.9</ele>
        <time>2020-06-28T17:07:22Z</time>
      </trkpt>
      <trkpt lat="48.72158" lon="7.31586">
        <ele>200.9</ele>
        <time>2020-06-28T17:07:23Z</time>
      </trkpt>
      <trkpt lat="48.72154" lon="7.31578">
        <ele>200.9</ele>
        <time>2020-06-28T17:07:24Z</time>
      </trkpt>
      <trkpt lat="48.72152" lon="7.31572">
        <ele>200.9</ele>
        <time>2020-06-28T17:07:25Z</time>
      </trkpt>
      <trkpt lat="48.7215" lon="7.31566">
        <ele>200.9</ele>
        <time>2020-06-28T17:07:26Z</time>
      </trkpt>
      <trkpt lat="48.72148" lon="7.31559">
        <ele>201</ele>
        <time>2020-06-28T17:07:27Z</time>
      </trkpt>
      <trkpt lat="48.72145" lon="7.31553">
        <ele>201</ele>
        <time>2020-06-28T17:07:28Z</time>
      </trkpt>
      <trkpt lat="48.72145" lon="7.31546">
        <ele>201</ele>
        <time>2020-06-28T17:07:29Z</time>
      </trkpt>
      <trkpt lat="48.72143" lon="7.31538">
        <ele>201</ele>
        <time>2020-06-28T17:07:30Z</time>
      </trkpt>
      <trkpt lat="48.72142" lon="7.31531">
        <ele>201</ele>
        <time>2020-06-28T17:07:31Z</time>
      </trkpt>
      <trkpt lat="48.7214" lon="7.31524">
        <ele>201</ele>
        <time>2020-06-28T17:07:32Z</time>
      </trkpt>
      <trkpt lat="48.72138" lon="7.31516">
        <ele>201</ele>
        <time>2020-06-28T17:07:33Z</time>
      </trkpt>
      <trkpt lat="48.72136" lon="7.3151">
        <ele>201</ele>
        <time>2020-06-28T17:07:34Z</time>
      </trkpt>
      <trkpt lat="48.72135" lon="7.31504">
        <ele>201</ele>
        <time>2020-06-28T17:07:35Z</time>
      </trkpt>
      <trkpt lat="48.72133" lon="7.31499">
        <ele>201</ele>
        <time>2020-06-28T17:07:36Z</time>
      </trkpt>
      <trkpt lat="48.72132" lon="7.31495">
        <ele>201</ele>
        <time>2020-06-28T17:07:37Z</time>
      </trkpt>
      <trkpt lat="48.7213" lon="7.3149">
        <ele>201</ele>
        <time>2020-06-28T17:07:38Z</time>
      </trkpt>
      <trkpt lat="48.7213" lon="7.31489">
        <ele>201</ele>
        <time>2020-06-28T17:07:39Z</time>
      </trkpt>
      <trkpt lat="48.7213" lon="7.31488">
        <ele>201</ele>
        <time>2020-06-28T17:07:40Z</time>
      </trkpt>
      <trkpt lat="48.72131" lon="7.31487">
        <ele>201</ele>
        <time>2020-06-28T17:07:41Z</time>
      </trkpt>
      <trkpt lat="48.72131" lon="7.31487">
        <ele>201</ele>
        <time>2020-06-28T17:07:42Z</time>
      </trkpt>
      <trkpt lat="48.72132" lon="7.31488">
        <ele>201</ele>
        <time>2020-06-28T17:07:43Z</time>
      </trkpt>
      <trkpt lat="48.72132" lon="7.31489">
        <ele>201</ele>
        <time>2020-06-28T17:07:44Z</time>
      </trkpt>
      <trkpt lat="48.72132" lon="7.31488">
        <ele>201</ele>
        <time>2020-06-28T17:07:45Z</time>
      </trkpt>
      <trkpt lat="48.72132" lon="7.31488">
        <ele>201</ele>
        <time>2020-06-28T17:07:46Z</time>
      </trkpt>
      <trkpt lat="48.72132" lon="7.31488">
        <ele>201</ele>
        <time>2020-06-28T17:07:47Z</time>
      </trkpt>
      <trkpt lat="48.72131" lon="7.31488">
        <ele>201</ele>
        <time>2020-06-28T17:07:48Z</time>
      </trkpt>
      <trkpt lat="48.72131" lon="7.31488">
        <ele>201</ele>
        <time>2020-06-28T17:07:49Z</time>
      </trkpt>
      <trkpt lat="48.72128" lon="7.31487">
        <ele>201</ele>
        <time>2020-06-28T17:07:50Z</time>
      </trkpt>
      <trkpt lat="48.72123" lon="7.31453">
        <ele>201.1</ele>
        <time>2020-06-28T17:08:33Z</time>
      </trkpt>
      <trkpt lat="48.72123" lon="7.31452">
        <ele>201.1</ele>
        <time>2020-06-28T17:08:34Z</time>
      </trkpt>
      <trkpt lat="48.72123" lon="7.31453">
        <ele>201.1</ele>
        <time>2020-06-28T17:08:35Z</time>
      </trkpt>
      <trkpt lat="48.7212" lon="7.31454">
        <ele>201.1</ele>
        <time>2020-06-28T17:08:36Z</time>
      </trkpt>
      <trkpt lat="48.72119" lon="7.31455">
        <ele>201.1</ele>
        <time>2020-06-28T17:08:37Z</time>
      </trkpt>
      <trkpt lat="48.72118" lon="7.31455">
        <ele>201.1</ele>
        <time>2020-06-28T17:08:38Z</time>
      </trkpt>
      <trkpt lat="48.72117" lon="7.31453">
        <ele>201.1</ele>
        <time>2020-06-28T17:08:39Z</time>
      </trkpt>
      <trkpt lat="48.72117" lon="7.31452">
        <ele>201.1</ele>
        <time>2020-06-28T17:08:40Z</time>
      </trkpt>
      <trkpt lat="48.72117" lon="7.3145">
        <ele>201.1</ele>
        <time>2020-06-28T17:08:41Z</time>
      </trkpt>
      <trkpt lat="48.72116" lon="7.31449">
        <ele>201.1</ele>
        <time>2020-06-28T17:08:42Z</time>
      </trkpt>
      <trkpt lat="48.72116" lon="7.31447">
        <ele>201.1</ele>
        <time>2020-06-28T17:08:43Z</time>
      </trkpt>
      <trkpt lat="48.72116" lon="7.31446">
        <ele>201.1</ele>
        <time>2020-06-28T17:08:44Z</time>
      </trkpt>
      <trkpt lat="48.72115" lon="7.31444">
        <ele>201.1</ele>
        <time>2020-06-28T17:08:45Z</time>
      </trkpt>
      <trkpt lat="48.72115" lon="7.31443">
        <ele>201.1</ele>
        <time>2020-06-28T17:09:28Z</time>
      </trkpt>
      <trkpt lat="48.72115" lon="7.31441">
        <ele>201.1</ele>
        <time>2020-06-28T17:09:29Z</time>
      </trkpt>
      <trkpt lat="48.72113" lon="7.31436">
        <ele>201</ele>
        <time>2020-06-28T17:09:30Z</time>
      </trkpt>
      <trkpt lat="48.72112" lon="7.31434">
        <ele>201</ele>
        <time>2020-06-28T17:09:31Z</time>
      </trkpt>
      <trkpt lat="48.72111" lon="7.31427">
        <ele>201</ele>
        <time>2020-06-28T17:09:32Z</time>
      </trkpt>
      <trkpt lat="48.72109" lon="7.3142">
        <ele>201</ele>
        <time>2020-06-28T17:09:33Z</time>
      </trkpt>
      <trkpt lat="48.72107" lon="7.31415">
        <ele>201</ele>
        <time>2020-06-28T17:09:34Z</time>
      </trkpt>
      <trkpt lat="48.72105" lon="7.31411">
        <ele>201</ele>
        <time>2020-06-28T17:09:35Z</time>
      </trkpt>
      <trkpt lat="48.72102" lon="7.31407">
        <ele>201</ele>
        <time>2020-06-28T17:09:36Z</time>
      </trkpt>
      <trkpt lat="48.72097" lon="7.31402">
        <ele>201</ele>
        <time>2020-06-28T17:09:37Z</time>
      </trkpt>
      <trkpt lat="48.72094" lon="7.31396">
        <ele>201</ele>
        <time>2020-06-28T17:09:38Z</time>
      </trkpt>
      <trkpt lat="48.72093" lon="7.3139">
        <ele>201</ele>
        <time>2020-06-28T17:09:39Z</time>
      </trkpt>
      <trkpt lat="48.72091" lon="7.31382">
        <ele>201</ele>
        <time>2020-06-28T17:09:40Z</time>
      </trkpt>
      <trkpt lat="48.72087" lon="7.31375">
        <ele>201</ele>
        <time>2020-06-28T17:09:41Z</time>
      </trkpt>
      <trkpt lat="48.72085" lon="7.31369">
        <ele>201</ele>
        <time>2020-06-28T17:09:42Z</time>
      </trkpt>
      <trkpt lat="48.72082" lon="7.31362">
        <ele>201</ele>
        <time>2020-06-28T17:09:43Z</time>
      </trkpt>
      <trkpt lat="48.7208" lon="7.31356">
        <ele>201</ele>
        <time>2020-06-28T17:09:44Z</time>
      </trkpt>
      <trkpt lat="48.7208" lon="7.31348">
        <ele>201</ele>
        <time>2020-06-28T17:09:45Z</time>
      </trkpt>
      <trkpt lat="48.72079" lon="7.31342">
        <ele>201</ele>
        <time>2020-06-28T17:09:46Z</time>
      </trkpt>
      <trkpt lat="48.72078" lon="7.31335">
        <ele>201</ele>
        <time>2020-06-28T17:09:47Z</time>
      </trkpt>
      <trkpt lat="48.72077" lon="7.31328">
        <ele>201</ele>
        <time>2020-06-28T17:09:48Z</time>
      </trkpt>
      <trkpt lat="48.72075" lon="7.31322">
        <ele>201</ele>
        <time>2020-06-28T17:09:49Z</time>
      </trkpt>
      <trkpt lat="48.72075" lon="7.31317">
        <ele>201</ele>
        <time>2020-06-28T17:09:50Z</time>
      </trkpt>
      <trkpt lat="48.72074" lon="7.31311">
        <ele>201</ele>
        <time>2020-06-28T17:09:51Z</time>
      </trkpt>
      <trkpt lat="48.72072" lon="7.31305">
        <ele>201</ele>
        <time>2020-06-28T17:09:52Z</time>
      </trkpt>
      <trkpt lat="48.72071" lon="7.31299">
        <ele>201</ele>
        <time>2020-06-28T17:09:53Z</time>
      </trkpt>
      <trkpt lat="48.72069" lon="7.31293">
        <ele>201</ele>
        <time>2020-06-28T17:09:54Z</time>
      </trkpt>
      <trkpt lat="48.72068" lon="7.31286">
        <ele>201</ele>
        <time>2020-06-28T17:09:55Z</time>
      </trkpt>
      <trkpt lat="48.72065" lon="7.31279">
        <ele>201</ele>
        <time>2020-06-28T17:09:56Z</time>
      </trkpt>
      <trkpt lat="48.72064" lon="7.3127">
        <ele>201</ele>
        <time>2020-06-28T17:09:57Z</time>
      </trkpt>
      <trkpt lat="48.72063" lon="7.31263">
        <ele>201</ele>
        <time>2020-06-28T17:09:58Z</time>
      </trkpt>
      <trkpt lat="48.72061" lon="7.31255">
        <ele>201</ele>
        <time>2020-06-28T17:09:59Z</time>
      </trkpt>
      <trkpt lat="48.7206" lon="7.31248">
        <ele>200.9</ele>
        <time>2020-06-28T17:10:00Z</time>
      </trkpt>
      <trkpt lat="48.7206" lon="7.31239">
        <ele>200.8</ele>
        <time>2020-06-28T17:10:01Z</time>
      </trkpt>
      <trkpt lat="48.7206" lon="7.31232">
        <ele>200.7</ele>
        <time>2020-06-28T17:10:02Z</time>
      </trkpt>
      <trkpt lat="48.7206" lon="7.31225">
        <ele>200.7</ele>
        <time>2020-06-28T17:10:03Z</time>
      </trkpt>
      <trkpt lat="48.7206" lon="7.31218">
        <ele>200.6</ele>
        <time>2020-06-28T17:10:04Z</time>
      </trkpt>
      <trkpt lat="48.7206" lon="7.31211">
        <ele>200.6</ele>
        <time>2020-06-28T17:10:05Z</time>
      </trkpt>
      <trkpt lat="48.72062" lon="7.31203">
        <ele>200.6</ele>
        <time>2020-06-28T17:10:06Z</time>
      </trkpt>
      <trkpt lat="48.72062" lon="7.31194">
        <ele>200.6</ele>
        <time>2020-06-28T17:10:07Z</time>
      </trkpt>
      <trkpt lat="48.72063" lon="7.31186">
        <ele>200.6</ele>
        <time>2020-06-28T17:10:08Z</time>
      </trkpt>
      <trkpt lat="48.72064" lon="7.3118">
        <ele>200.7</ele>
        <time>2020-06-28T17:10:09Z</time>
      </trkpt>
      <trkpt lat="48.72064" lon="7.31171">
        <ele>200.7</ele>
        <time>2020-06-28T17:10:10Z</time>
      </trkpt>
      <trkpt lat="48.72064" lon="7.31163">
        <ele>200.7</ele>
        <time>2020-06-28T17:10:11Z</time>
      </trkpt>
      <trkpt lat="48.72067" lon="7.31156">
        <ele>200.7</ele>
        <time>2020-06-28T17:10:12Z</time>
      </trkpt>
      <trkpt lat="48.72069" lon="7.31149">
        <ele>200.7</ele>
        <time>2020-06-28T17:10:13Z</time>
      </trkpt>
      <trkpt lat="48.72071" lon="7.3114">
        <ele>200.7</ele>
        <time>2020-06-28T17:10:14Z</time>
      </trkpt>
      <trkpt lat="48.72072" lon="7.31133">
        <ele>200.7</ele>
        <time>2020-06-28T17:10:15Z</time>
      </trkpt>
      <trkpt lat="48.72073" lon="7.31126">
        <ele>200.7</ele>
        <time>2020-06-28T17:10:16Z</time>
      </trkpt>
      <trkpt lat="48.72075" lon="7.31119">
        <ele>200.7</ele>
        <time>2020-06-28T17:10:17Z</time>
      </trkpt>
      <trkpt lat="48.72077" lon="7.31111">
        <ele>200.7</ele>
        <time>2020-06-28T17:10:18Z</time>
      </trkpt>
      <trkpt lat="48.72078" lon="7.31101">
        <ele>200.7</ele>
        <time>2020-06-28T17:10:19Z</time>
      </trkpt>
      <trkpt lat="48.72079" lon="7.31094">
        <ele>200.7</ele>
        <time>2020-06-28T17:10:20Z</time>
      </trkpt>
      <trkpt lat="48.7208" lon="7.31086">
        <ele>200.7</ele>
        <time>2020-06-28T17:10:21Z</time>
      </trkpt>
      <trkpt lat="48.72081" lon="7.31078">
        <ele>200.7</ele>
        <time>2020-06-28T17:10:22Z</time>
      </trkpt>
      <trkpt lat="48.72083" lon="7.31069">
        <ele>200.7</ele>
        <time>2020-06-28T17:10:23Z</time>
      </trkpt>
      <trkpt lat="48.72084" lon="7.31062">
        <ele>200.7</ele>
        <time>2020-06-28T17:10:24Z</time>
      </trkpt>
      <trkpt lat="48.72085" lon="7.31053">
        <ele>200.7</ele>
        <time>2020-06-28T17:10:25Z</time>
      </trkpt>
      <trkpt lat="48.72086" lon="7.31046">
        <ele>200.7</ele>
        <time>2020-06-28T17:10:26Z</time>
      </trkpt>
      <trkpt lat="48.72084" lon="7.31037">
        <ele>200.8</ele>
        <time>2020-06-28T17:10:27Z</time>
      </trkpt>
      <trkpt lat="48.72084" lon="7.31028">
        <ele>200.8</ele>
        <time>2020-06-28T17:10:28Z</time>
      </trkpt>
      <trkpt lat="48.72085" lon="7.31019">
        <ele>200.8</ele>
        <time>2020-06-28T17:10:29Z</time>
      </trkpt>
      <trkpt lat="48.72085" lon="7.3101">
        <ele>200.8</ele>
        <time>2020-06-28T17:10:30Z</time>
      </trkpt>
      <trkpt lat="48.72085" lon="7.31002">
        <ele>200.8</ele>
        <time>2020-06-28T17:10:31Z</time>
      </trkpt>
      <trkpt lat="48.72085" lon="7.30994">
        <ele>200.8</ele>
        <time>2020-06-28T17:10:32Z</time>
      </trkpt>
      <trkpt lat="48.72086" lon="7.30985">
        <ele>200.8</ele>
        <time>2020-06-28T17:10:33Z</time>
      </trkpt>
      <trkpt lat="48.72085" lon="7.30977">
        <ele>200.8</ele>
        <time>2020-06-28T17:10:34Z</time>
      </trkpt>
      <trkpt lat="48.72085" lon="7.30969">
        <ele>200.8</ele>
        <time>2020-06-28T17:10:35Z</time>
      </trkpt>
      <trkpt lat="48.72084" lon="7.30962">
        <ele>200.8</ele>
        <time>2020-06-28T17:10:36Z</time>
      </trkpt>
      <trkpt lat="48.72083" lon="7.30955">
        <ele>200.8</ele>
        <time>2020-06-28T17:10:37Z</time>
      </trkpt>
      <trkpt lat="48.72083" lon="7.30948">
        <ele>200.8</ele>
        <time>2020-06-28T17:10:38Z</time>
      </trkpt>
      <trkpt lat="48.72082" lon="7.3094">
        <ele>200.8</ele>
        <time>2020-06-28T17:10:39Z</time>
      </trkpt>
      <trkpt lat="48.72082" lon="7.30932">
        <ele>200.8</ele>
        <time>2020-06-28T17:10:40Z</time>
      </trkpt>
      <trkpt lat="48.72081" lon="7.30924">
        <ele>200.8</ele>
        <time>2020-06-28T17:10:41Z</time>
      </trkpt>
      <trkpt lat="48.72079" lon="7.30916">
        <ele>200.8</ele>
        <time>2020-06-28T17:10:42Z</time>
      </trkpt>
      <trkpt lat="48.72078" lon="7.30908">
        <ele>200.8</ele>
        <time>2020-06-28T17:10:43Z</time>
      </trkpt>
      <trkpt lat="48.72078" lon="7.30901">
        <ele>200.8</ele>
        <time>2020-06-28T17:10:44Z</time>
      </trkpt>
      <trkpt lat="48.72078" lon="7.30893">
        <ele>200.8</ele>
        <time>2020-06-28T17:10:45Z</time>
      </trkpt>
      <trkpt lat="48.72076" lon="7.30885">
        <ele>200.8</ele>
        <time>2020-06-28T17:10:46Z</time>
      </trkpt>
      <trkpt lat="48.72076" lon="7.30877">
        <ele>200.8</ele>
        <time>2020-06-28T17:10:47Z</time>
      </trkpt>
      <trkpt lat="48.72075" lon="7.30869">
        <ele>200.8</ele>
        <time>2020-06-28T17:10:48Z</time>
      </trkpt>
      <trkpt lat="48.72074" lon="7.30861">
        <ele>200.8</ele>
        <time>2020-06-28T17:10:49Z</time>
      </trkpt>
      <trkpt lat="48.72073" lon="7.30853">
        <ele>200.8</ele>
        <time>2020-06-28T17:10:50Z</time>
      </trkpt>
      <trkpt lat="48.72073" lon="7.30845">
        <ele>200.8</ele>
        <time>2020-06-28T17:10:51Z</time>
      </trkpt>
      <trkpt lat="48.72072" lon="7.30837">
        <ele>200.8</ele>
        <time>2020-06-28T17:10:52Z</time>
      </trkpt>
      <trkpt lat="48.72072" lon="7.30831">
        <ele>200.7</ele>
        <time>2020-06-28T17:10:53Z</time>
      </trkpt>
      <trkpt lat="48.72072" lon="7.30825">
        <ele>200.7</ele>
        <time>2020-06-28T17:10:54Z</time>
      </trkpt>
      <trkpt lat="48.72073" lon="7.30817">
        <ele>200.7</ele>
        <time>2020-06-28T17:10:55Z</time>
      </trkpt>
      <trkpt lat="48.72074" lon="7.3081">
        <ele>200.7</ele>
        <time>2020-06-28T17:10:56Z</time>
      </trkpt>
      <trkpt lat="48.72074" lon="7.308">
        <ele>200.7</ele>
        <time>2020-06-28T17:10:57Z</time>
      </trkpt>
      <trkpt lat="48.72075" lon="7.30791">
        <ele>200.7</ele>
        <time>2020-06-28T17:10:58Z</time>
      </trkpt>
      <trkpt lat="48.72079" lon="7.30783">
        <ele>200.7</ele>
        <time>2020-06-28T17:10:59Z</time>
      </trkpt>
      <trkpt lat="48.72081" lon="7.30773">
        <ele>200.7</ele>
        <time>2020-06-28T17:11:00Z</time>
      </trkpt>
      <trkpt lat="48.72084" lon="7.30765">
        <ele>200.8</ele>
        <time>2020-06-28T17:11:01Z</time>
      </trkpt>
      <trkpt lat="48.72087" lon="7.30756">
        <ele>200.8</ele>
        <time>2020-06-28T17:11:02Z</time>
      </trkpt>
      <trkpt lat="48.72089" lon="7.30747">
        <ele>200.8</ele>
        <time>2020-06-28T17:11:03Z</time>
      </trkpt>
      <trkpt lat="48.72092" lon="7.30737">
        <ele>200.9</ele>
        <time>2020-06-28T17:11:04Z</time>
      </trkpt>
      <trkpt lat="48.72094" lon="7.30729">
        <ele>200.9</ele>
        <time>2020-06-28T17:11:05Z</time>
      </trkpt>
      <trkpt lat="48.72096" lon="7.3072">
        <ele>200.9</ele>
        <time>2020-06-28T17:11:06Z</time>
      </trkpt>
      <trkpt lat="48.72099" lon="7.30712">
        <ele>200.9</ele>
        <time>2020-06-28T17:11:07Z</time>
      </trkpt>
      <trkpt lat="48.72101" lon="7.30703">
        <ele>200.9</ele>
        <time>2020-06-28T17:11:08Z</time>
      </trkpt>
      <trkpt lat="48.72103" lon="7.30695">
        <ele>200.9</ele>
        <time>2020-06-28T17:11:09Z</time>
      </trkpt>
      <trkpt lat="48.72107" lon="7.30688">
        <ele>200.9</ele>
        <time>2020-06-28T17:11:10Z</time>
      </trkpt>
      <trkpt lat="48.7211" lon="7.30681">
        <ele>200.9</ele>
        <time>2020-06-28T17:11:11Z</time>
      </trkpt>
      <trkpt lat="48.72114" lon="7.30674">
        <ele>200.9</ele>
        <time>2020-06-28T17:11:12Z</time>
      </trkpt>
      <trkpt lat="48.72117" lon="7.30667">
        <ele>200.9</ele>
        <time>2020-06-28T17:11:13Z</time>
      </trkpt>
      <trkpt lat="48.7212" lon="7.30661">
        <ele>201</ele>
        <time>2020-06-28T17:11:14Z</time>
      </trkpt>
      <trkpt lat="48.72123" lon="7.30655">
        <ele>201</ele>
        <time>2020-06-28T17:11:15Z</time>
      </trkpt>
      <trkpt lat="48.72127" lon="7.3065">
        <ele>201</ele>
        <time>2020-06-28T17:11:16Z</time>
      </trkpt>
      <trkpt lat="48.72131" lon="7.30645">
        <ele>201</ele>
        <time>2020-06-28T17:11:17Z</time>
      </trkpt>
      <trkpt lat="48.72134" lon="7.30641">
        <ele>201</ele>
        <time>2020-06-28T17:11:18Z</time>
      </trkpt>
      <trkpt lat="48.72139" lon="7.30636">
        <ele>201.1</ele>
        <time>2020-06-28T17:11:19Z</time>
      </trkpt>
      <trkpt lat="48.72143" lon="7.30633">
        <ele>201.1</ele>
        <time>2020-06-28T17:11:20Z</time>
      </trkpt>
      <trkpt lat="48.72147" lon="7.3063">
        <ele>201.1</ele>
        <time>2020-06-28T17:11:21Z</time>
      </trkpt>
      <trkpt lat="48.72152" lon="7.30627">
        <ele>201.1</ele>
        <time>2020-06-28T17:11:22Z</time>
      </trkpt>
      <trkpt lat="48.72157" lon="7.30625">
        <ele>201.1</ele>
        <time>2020-06-28T17:11:23Z</time>
      </trkpt>
      <trkpt lat="48.72162" lon="7.30622">
        <ele>201.1</ele>
        <time>2020-06-28T17:11:24Z</time>
      </trkpt>
      <trkpt lat="48.72166" lon="7.3062">
        <ele>201.1</ele>
        <time>2020-06-28T17:11:25Z</time>
      </trkpt>
      <trkpt lat="48.7217" lon="7.30621">
        <ele>201.1</ele>
        <time>2020-06-28T17:11:26Z</time>
      </trkpt>
      <trkpt lat="48.72175" lon="7.30617">
        <ele>201.1</ele>
        <time>2020-06-28T17:11:27Z</time>
      </trkpt>
      <trkpt lat="48.72179" lon="7.30614">
        <ele>201.1</ele>
        <time>2020-06-28T17:11:28Z</time>
      </trkpt>
      <trkpt lat="48.72182" lon="7.30612">
        <ele>201.1</ele>
        <time>2020-06-28T17:11:29Z</time>
      </trkpt>
      <trkpt lat="48.72185" lon="7.3061">
        <ele>201.1</ele>
        <time>2020-06-28T17:11:30Z</time>
      </trkpt>
      <trkpt lat="48.72189" lon="7.30608">
        <ele>201.2</ele>
        <time>2020-06-28T17:11:31Z</time>
      </trkpt>
      <trkpt lat="48.72192" lon="7.30606">
        <ele>201.2</ele>
        <time>2020-06-28T17:11:32Z</time>
      </trkpt>
      <trkpt lat="48.72196" lon="7.30605">
        <ele>201.2</ele>
        <time>2020-06-28T17:11:33Z</time>
      </trkpt>
      <trkpt lat="48.722" lon="7.30604">
        <ele>201.2</ele>
        <time>2020-06-28T17:11:34Z</time>
      </trkpt>
      <trkpt lat="48.72203" lon="7.30604">
        <ele>201.2</ele>
        <time>2020-06-28T17:11:35Z</time>
      </trkpt>
      <trkpt lat="48.72207" lon="7.30603">
        <ele>201.2</ele>
        <time>2020-06-28T17:11:36Z</time>
      </trkpt>
      <trkpt lat="48.72209" lon="7.30602">
        <ele>201.2</ele>
        <time>2020-06-28T17:11:37Z</time>
      </trkpt>
      <trkpt lat="48.72212" lon="7.30602">
        <ele>201.2</ele>
        <time>2020-06-28T17:11:38Z</time>
      </trkpt>
      <trkpt lat="48.72215" lon="7.306">
        <ele>201.3</ele>
        <time>2020-06-28T17:11:39Z</time>
      </trkpt>
      <trkpt lat="48.72218" lon="7.30599">
        <ele>201.3</ele>
        <time>2020-06-28T17:11:40Z</time>
      </trkpt>
      <trkpt lat="48.72221" lon="7.30596">
        <ele>201.3</ele>
        <time>2020-06-28T17:11:41Z</time>
      </trkpt>
      <trkpt lat="48.72225" lon="7.30594">
        <ele>201.3</ele>
        <time>2020-06-28T17:11:42Z</time>
      </trkpt>
      <trkpt lat="48.72229" lon="7.30593">
        <ele>201.3</ele>
        <time>2020-06-28T17:11:43Z</time>
      </trkpt>
      <trkpt lat="48.72231" lon="7.30591">
        <ele>201.3</ele>
        <time>2020-06-28T17:11:44Z</time>
      </trkpt>
      <trkpt lat="48.72234" lon="7.30589">
        <ele>201.3</ele>
        <time>2020-06-28T17:11:45Z</time>
      </trkpt>
      <trkpt lat="48.72236" lon="7.30589">
        <ele>201.3</ele>
        <time>2020-06-28T17:11:46Z</time>
      </trkpt>
      <trkpt lat="48.72239" lon="7.30587">
        <ele>201.3</ele>
        <time>2020-06-28T17:11:47Z</time>
      </trkpt>
      <trkpt lat="48.7224" lon="7.30586">
        <ele>201.3</ele>
        <time>2020-06-28T17:11:48Z</time>
      </trkpt>
      <trkpt lat="48.72242" lon="7.30587">
        <ele>201.3</ele>
        <time>2020-06-28T17:11:49Z</time>
      </trkpt>
      <trkpt lat="48.72243" lon="7.30588">
        <ele>201.3</ele>
        <time>2020-06-28T17:11:50Z</time>
      </trkpt>
      <trkpt lat="48.72244" lon="7.3059">
        <ele>201.3</ele>
        <time>2020-06-28T17:11:51Z</time>
      </trkpt>
      <trkpt lat="48.72245" lon="7.3059">
        <ele>201.3</ele>
        <time>2020-06-28T17:11:52Z</time>
      </trkpt>
      <trkpt lat="48.72247" lon="7.3059">
        <ele>201.3</ele>
        <time>2020-06-28T17:11:53Z</time>
      </trkpt>
      <trkpt lat="48.72249" lon="7.30588">
        <ele>201.3</ele>
        <time>2020-06-28T17:11:54Z</time>
      </trkpt>
      <trkpt lat="48.7225" lon="7.30587">
        <ele>201.3</ele>
        <time>2020-06-28T17:11:55Z</time>
      </trkpt>
      <trkpt lat="48.72252" lon="7.30586">
        <ele>201.3</ele>
        <time>2020-06-28T17:11:56Z</time>
      </trkpt>
      <trkpt lat="48.72253" lon="7.30586">
        <ele>201.3</ele>
        <time>2020-06-28T17:11:57Z</time>
      </trkpt>
      <trkpt lat="48.72253" lon="7.30583">
        <ele>201.3</ele>
        <time>2020-06-28T17:11:58Z</time>
      </trkpt>
      <trkpt lat="48.72253" lon="7.30582">
        <ele>201.3</ele>
        <time>2020-06-28T17:11:59Z</time>
      </trkpt>
      <trkpt lat="48.72254" lon="7.30582">
        <ele>201.3</ele>
        <time>2020-06-28T17:12:00Z</time>
      </trkpt>
      <trkpt lat="48.72255" lon="7.30582">
        <ele>201.3</ele>
        <time>2020-06-28T17:12:01Z</time>
      </trkpt>
      <trkpt lat="48.72256" lon="7.30582">
        <ele>201.3</ele>
        <time>2020-06-28T17:12:02Z</time>
      </trkpt>
      <trkpt lat="48.72257" lon="7.30581">
        <ele>201.3</ele>
        <time>2020-06-28T17:12:03Z</time>
      </trkpt>
      <trkpt lat="48.72257" lon="7.30583">
        <ele>201.3</ele>
        <time>2020-06-28T17:12:04Z</time>
      </trkpt>
      <trkpt lat="48.72257" lon="7.30584">
        <ele>201.3</ele>
        <time>2020-06-28T17:12:05Z</time>
      </trkpt>
      <trkpt lat="48.72257" lon="7.30584">
        <ele>201.3</ele>
        <time>2020-06-28T17:12:06Z</time>
      </trkpt>
      <trkpt lat="48.72257" lon="7.30583">
        <ele>201.3</ele>
        <time>2020-06-28T17:12:07Z</time>
      </trkpt>
      <trkpt lat="48.72259" lon="7.30582">
        <ele>201.3</ele>
        <time>2020-06-28T17:12:08Z</time>
      </trkpt>
      <trkpt lat="48.7226" lon="7.30583">
        <ele>201.3</ele>
        <time>2020-06-28T17:12:09Z</time>
      </trkpt>
      <trkpt lat="48.7226" lon="7.30583">
        <ele>201.3</ele>
        <time>2020-06-28T17:12:10Z</time>
      </trkpt>
      <trkpt lat="48.72262" lon="7.30581">
        <ele>201.3</ele>
        <time>2020-06-28T17:12:11Z</time>
      </trkpt>
      <trkpt lat="48.72262" lon="7.30581">
        <ele>201.3</ele>
        <time>2020-06-28T17:12:12Z</time>
      </trkpt>
      <trkpt lat="48.72263" lon="7.3058">
        <ele>201.3</ele>
        <time>2020-06-28T17:12:13Z</time>
      </trkpt>
      <trkpt lat="48.72262" lon="7.30581">
        <ele>201.3</ele>
        <time>2020-06-28T17:12:14Z</time>
      </trkpt>
      <trkpt lat="48.72261" lon="7.30583">
        <ele>201.3</ele>
        <time>2020-06-28T17:12:15Z</time>
      </trkpt>
      <trkpt lat="48.72261" lon="7.30583">
        <ele>201.3</ele>
        <time>2020-06-28T17:12:16Z</time>
      </trkpt>
      <trkpt lat="48.72261" lon="7.30583">
        <ele>201.3</ele>
        <time>2020-06-28T17:12:17Z</time>
      </trkpt>
      <trkpt lat="48.72261" lon="7.30583">
        <ele>201.3</ele>
        <time>2020-06-28T17:12:18Z</time>
      </trkpt>
      <trkpt lat="48.72262" lon="7.3058">
        <ele>201.3</ele>
        <time>2020-06-28T17:12:19Z</time>
      </trkpt>
      <trkpt lat="48.72263" lon="7.30579">
        <ele>201.3</ele>
        <time>2020-06-28T17:12:20Z</time>
      </trkpt>
      <trkpt lat="48.72263" lon="7.30579">
        <ele>201.3</ele>
        <time>2020-06-28T17:12:21Z</time>
      </trkpt>
      <trkpt lat="48.72262" lon="7.3058">
        <ele>201.3</ele>
        <time>2020-06-28T17:12:22Z</time>
      </trkpt>
      <trkpt lat="48.72262" lon="7.30581">
        <ele>201.3</ele>
        <time>2020-06-28T17:12:23Z</time>
      </trkpt>
      <trkpt lat="48.72262" lon="7.30583">
        <ele>201.3</ele>
        <time>2020-06-28T17:12:24Z</time>
      </trkpt>
      <trkpt lat="48.72263" lon="7.30581">
        <ele>201.3</ele>
        <time>2020-06-28T17:12:25Z</time>
      </trkpt>
      <trkpt lat="48.72264" lon="7.3058">
        <ele>201.3</ele>
        <time>2020-06-28T17:12:26Z</time>
      </trkpt>
      <trkpt lat="48.72263" lon="7.30583">
        <ele>201.3</ele>
        <time>2020-06-28T17:12:27Z</time>
      </trkpt>
      <trkpt lat="48.72263" lon="7.30585">
        <ele>201.2</ele>
        <time>2020-06-28T17:12:28Z</time>
      </trkpt>
      <trkpt lat="48.72264" lon="7.30583">
        <ele>201.2</ele>
        <time>2020-06-28T17:12:29Z</time>
      </trkpt>
      <trkpt lat="48.72264" lon="7.30585">
        <ele>201.2</ele>
        <time>2020-06-28T17:12:30Z</time>
      </trkpt>
      <trkpt lat="48.72264" lon="7.30585">
        <ele>201.2</ele>
        <time>2020-06-28T17:12:31Z</time>
      </trkpt>
      <trkpt lat="48.7227" lon="7.30581">
        <ele>201.2</ele>
        <time>2020-06-28T17:12:45Z</time>
      </trkpt>
      <trkpt lat="48.72271" lon="7.30583">
        <ele>201.2</ele>
        <time>2020-06-28T17:12:46Z</time>
      </trkpt>
      <trkpt lat="48.72271" lon="7.30582">
        <ele>201.2</ele>
        <time>2020-06-28T17:12:47Z</time>
      </trkpt>
      <trkpt lat="48.72272" lon="7.30581">
        <ele>201.2</ele>
        <time>2020-06-28T17:12:48Z</time>
      </trkpt>
      <trkpt lat="48.72272" lon="7.3058">
        <ele>201.2</ele>
        <time>2020-06-28T17:12:49Z</time>
      </trkpt>
      <trkpt lat="48.72272" lon="7.3058">
        <ele>201.2</ele>
        <time>2020-06-28T17:12:50Z</time>
      </trkpt>
      <trkpt lat="48.72273" lon="7.30579">
        <ele>201.2</ele>
        <time>2020-06-28T17:12:51Z</time>
      </trkpt>
      <trkpt lat="48.72273" lon="7.30579">
        <ele>201.2</ele>
        <time>2020-06-28T17:12:52Z</time>
      </trkpt>
      <trkpt lat="48.72273" lon="7.30579">
        <ele>201.2</ele>
        <time>2020-06-28T17:12:53Z</time>
      </trkpt>
      <trkpt lat="48.72274" lon="7.30576">
        <ele>201.2</ele>
        <time>2020-06-28T17:12:54Z</time>
      </trkpt>
      <trkpt lat="48.72275" lon="7.30574">
        <ele>201.2</ele>
        <time>2020-06-28T17:12:55Z</time>
      </trkpt>
      <trkpt lat="48.72275" lon="7.30573">
        <ele>201.2</ele>
        <time>2020-06-28T17:12:56Z</time>
      </trkpt>
      <trkpt lat="48.72276" lon="7.30572">
        <ele>201.2</ele>
        <time>2020-06-28T17:12:57Z</time>
      </trkpt>
      <trkpt lat="48.72276" lon="7.30572">
        <ele>201.2</ele>
        <time>2020-06-28T17:12:58Z</time>
      </trkpt>
      <trkpt lat="48.72276" lon="7.30571">
        <ele>201.2</ele>
        <time>2020-06-28T17:12:59Z</time>
      </trkpt>
      <trkpt lat="48.72276" lon="7.30571">
        <ele>201.2</ele>
        <time>2020-06-28T17:13:00Z</time>
      </trkpt>
      <trkpt lat="48.72276" lon="7.30571">
        <ele>201.2</ele>
        <time>2020-06-28T17:13:01Z</time>
      </trkpt>
      <trkpt lat="48.72277" lon="7.30571">
        <ele>201.2</ele>
        <time>2020-06-28T17:13:02Z</time>
      </trkpt>
      <trkpt lat="48.72279" lon="7.30571">
        <ele>201.2</ele>
        <time>2020-06-28T17:13:03Z</time>
      </trkpt>
      <trkpt lat="48.7228" lon="7.30572">
        <ele>201.2</ele>
        <time>2020-06-28T17:13:04Z</time>
      </trkpt>
      <trkpt lat="48.72282" lon="7.30573">
        <ele>201.2</ele>
        <time>2020-06-28T17:13:05Z</time>
      </trkpt>
      <trkpt lat="48.72283" lon="7.30572">
        <ele>201.2</ele>
        <time>2020-06-28T17:13:06Z</time>
      </trkpt>
      <trkpt lat="48.72284" lon="7.30571">
        <ele>201.2</ele>
        <time>2020-06-28T17:13:07Z</time>
      </trkpt>
      <trkpt lat="48.72285" lon="7.3057">
        <ele>201.2</ele>
        <time>2020-06-28T17:13:08Z</time>
      </trkpt>
      <trkpt lat="48.72285" lon="7.3057">
        <ele>201.2</ele>
        <time>2020-06-28T17:13:09Z</time>
      </trkpt>
      <trkpt lat="48.72285" lon="7.30571">
        <ele>201.2</ele>
        <time>2020-06-28T17:13:10Z</time>
      </trkpt>
      <trkpt lat="48.72286" lon="7.30571">
        <ele>201.2</ele>
        <time>2020-06-28T17:13:11Z</time>
      </trkpt>
      <trkpt lat="48.72286" lon="7.30571">
        <ele>201.2</ele>
        <time>2020-06-28T17:13:12Z</time>
      </trkpt>
      <trkpt lat="48.72286" lon="7.30572">
        <ele>201.2</ele>
        <time>2020-06-28T17:13:13Z</time>
      </trkpt>
      <trkpt lat="48.72286" lon="7.30572">
        <ele>201.2</ele>
        <time>2020-06-28T17:13:14Z</time>
      </trkpt>
      <trkpt lat="48.72286" lon="7.30572">
        <ele>201.2</ele>
        <time>2020-06-28T17:13:15Z</time>
      </trkpt>
      <trkpt lat="48.72286" lon="7.30572">
        <ele>201.2</ele>
        <time>2020-06-28T17:13:16Z</time>
      </trkpt>
      <trkpt lat="48.72286" lon="7.30571">
        <ele>201.2</ele>
        <time>2020-06-28T17:13:17Z</time>
      </trkpt>
      <trkpt lat="48.72288" lon="7.3057">
        <ele>201.2</ele>
        <time>2020-06-28T17:13:18Z</time>
      </trkpt>
      <trkpt lat="48.72289" lon="7.3057">
        <ele>201.2</ele>
        <time>2020-06-28T17:13:19Z</time>
      </trkpt>
      <trkpt lat="48.72291" lon="7.30569">
        <ele>201.2</ele>
        <time>2020-06-28T17:13:20Z</time>
      </trkpt>
      <trkpt lat="48.72294" lon="7.30566">
        <ele>201.2</ele>
        <time>2020-06-28T17:13:21Z</time>
      </trkpt>
      <trkpt lat="48.72295" lon="7.30565">
        <ele>201.2</ele>
        <time>2020-06-28T17:13:22Z</time>
      </trkpt>
      <trkpt lat="48.72298" lon="7.30563">
        <ele>201.2</ele>
        <time>2020-06-28T17:13:23Z</time>
      </trkpt>
      <trkpt lat="48.72302" lon="7.30561">
        <ele>201.2</ele>
        <time>2020-06-28T17:13:24Z</time>
      </trkpt>
      <trkpt lat="48.72306" lon="7.30559">
        <ele>201.2</ele>
        <time>2020-06-28T17:13:25Z</time>
      </trkpt>
      <trkpt lat="48.7231" lon="7.30558">
        <ele>201.2</ele>
        <time>2020-06-28T17:13:26Z</time>
      </trkpt>
      <trkpt lat="48.72314" lon="7.30555">
        <ele>201.2</ele>
        <time>2020-06-28T17:13:27Z</time>
      </trkpt>
      <trkpt lat="48.72317" lon="7.30552">
        <ele>201.3</ele>
        <time>2020-06-28T17:13:28Z</time>
      </trkpt>
      <trkpt lat="48.72321" lon="7.30549">
        <ele>201.3</ele>
        <time>2020-06-28T17:13:29Z</time>
      </trkpt>
      <trkpt lat="48.72323" lon="7.30547">
        <ele>201.3</ele>
        <time>2020-06-28T17:13:30Z</time>
      </trkpt>
      <trkpt lat="48.72327" lon="7.30544">
        <ele>201.3</ele>
        <time>2020-06-28T17:13:31Z</time>
      </trkpt>
      <trkpt lat="48.72331" lon="7.30541">
        <ele>201.3</ele>
        <time>2020-06-28T17:13:32Z</time>
      </trkpt>
      <trkpt lat="48.72335" lon="7.30539">
        <ele>201.3</ele>
        <time>2020-06-28T17:13:33Z</time>
      </trkpt>
      <trkpt lat="48.72338" lon="7.30536">
        <ele>201.3</ele>
        <time>2020-06-28T17:13:34Z</time>
      </trkpt>
      <trkpt lat="48.72341" lon="7.30533">
        <ele>201.3</ele>
        <time>2020-06-28T17:13:35Z</time>
      </trkpt>
      <trkpt lat="48.72345" lon="7.30531">
        <ele>201.4</ele>
        <time>2020-06-28T17:13:36Z</time>
      </trkpt>
      <trkpt lat="48.72349" lon="7.30528">
        <ele>201.4</ele>
        <time>2020-06-28T17:13:37Z</time>
      </trkpt>
      <trkpt lat="48.72352" lon="7.30524">
        <ele>201.4</ele>
        <time>2020-06-28T17:13:38Z</time>
      </trkpt>
      <trkpt lat="48.72355" lon="7.30521">
        <ele>201.4</ele>
        <time>2020-06-28T17:13:39Z</time>
      </trkpt>
      <trkpt lat="48.72358" lon="7.30517">
        <ele>201.4</ele>
        <time>2020-06-28T17:13:40Z</time>
      </trkpt>
      <trkpt lat="48.72362" lon="7.30513">
        <ele>201.4</ele>
        <time>2020-06-28T17:13:41Z</time>
      </trkpt>
      <trkpt lat="48.72365" lon="7.30508">
        <ele>201.3</ele>
        <time>2020-06-28T17:13:42Z</time>
      </trkpt>
      <trkpt lat="48.72369" lon="7.30504">
        <ele>201.3</ele>
        <time>2020-06-28T17:13:43Z</time>
      </trkpt>
      <trkpt lat="48.72373" lon="7.30499">
        <ele>201.4</ele>
        <time>2020-06-28T17:13:44Z</time>
      </trkpt>
      <trkpt lat="48.72377" lon="7.30495">
        <ele>201.4</ele>
        <time>2020-06-28T17:13:45Z</time>
      </trkpt>
      <trkpt lat="48.7238" lon="7.30491">
        <ele>201.4</ele>
        <time>2020-06-28T17:13:46Z</time>
      </trkpt>
      <trkpt lat="48.72384" lon="7.30486">
        <ele>201.4</ele>
        <time>2020-06-28T17:13:47Z</time>
      </trkpt>
      <trkpt lat="48.72389" lon="7.3048">
        <ele>201.4</ele>
        <time>2020-06-28T17:13:48Z</time>
      </trkpt>
      <trkpt lat="48.72393" lon="7.30474">
        <ele>201.4</ele>
        <time>2020-06-28T17:13:49Z</time>
      </trkpt>
      <trkpt lat="48.72398" lon="7.30469">
        <ele>201.4</ele>
        <time>2020-06-28T17:13:50Z</time>
      </trkpt>
      <trkpt lat="48.72402" lon="7.30464">
        <ele>201.4</ele>
        <time>2020-06-28T17:13:51Z</time>
      </trkpt>
      <trkpt lat="48.72406" lon="7.30459">
        <ele>201.4</ele>
        <time>2020-06-28T17:13:52Z</time>
      </trkpt>
      <trkpt lat="48.7241" lon="7.30454">
        <ele>201.4</ele>
        <time>2020-06-28T17:13:53Z</time>
      </trkpt>
      <trkpt lat="48.72413" lon="7.30449">
        <ele>201.5</ele>
        <time>2020-06-28T17:13:54Z</time>
      </trkpt>
      <trkpt lat="48.72416" lon="7.30443">
        <ele>201.5</ele>
        <time>2020-06-28T17:13:55Z</time>
      </trkpt>
      <trkpt lat="48.7242" lon="7.30437">
        <ele>201.5</ele>
        <time>2020-06-28T17:13:56Z</time>
      </trkpt>
      <trkpt lat="48.72422" lon="7.30431">
        <ele>201.5</ele>
        <time>2020-06-28T17:13:57Z</time>
      </trkpt>
      <trkpt lat="48.72425" lon="7.30424">
        <ele>201.5</ele>
        <time>2020-06-28T17:13:58Z</time>
      </trkpt>
      <trkpt lat="48.72428" lon="7.30418">
        <ele>201.5</ele>
        <time>2020-06-28T17:13:59Z</time>
      </trkpt>
      <trkpt lat="48.72431" lon="7.30411">
        <ele>201.5</ele>
        <time>2020-06-28T17:14:00Z</time>
      </trkpt>
      <trkpt lat="48.72435" lon="7.30405">
        <ele>201.5</ele>
        <time>2020-06-28T17:14:01Z</time>
      </trkpt>
      <trkpt lat="48.72438" lon="7.30398">
        <ele>201.6</ele>
        <time>2020-06-28T17:14:02Z</time>
      </trkpt>
      <trkpt lat="48.72441" lon="7.30391">
        <ele>201.6</ele>
        <time>2020-06-28T17:14:03Z</time>
      </trkpt>
      <trkpt lat="48.72443" lon="7.30386">
        <ele>201.6</ele>
        <time>2020-06-28T17:14:04Z</time>
      </trkpt>
      <trkpt lat="48.72447" lon="7.30379">
        <ele>201.7</ele>
        <time>2020-06-28T17:14:05Z</time>
      </trkpt>
      <trkpt lat="48.72451" lon="7.30374">
        <ele>201.7</ele>
        <time>2020-06-28T17:14:06Z</time>
      </trkpt>
      <trkpt lat="48.72455" lon="7.30367">
        <ele>201.7</ele>
        <time>2020-06-28T17:14:07Z</time>
      </trkpt>
      <trkpt lat="48.72459" lon="7.30361">
        <ele>201.7</ele>
        <time>2020-06-28T17:14:08Z</time>
      </trkpt>
      <trkpt lat="48.72462" lon="7.30355">
        <ele>201.7</ele>
        <time>2020-06-28T17:14:09Z</time>
      </trkpt>
      <trkpt lat="48.72465" lon="7.30348">
        <ele>201.8</ele>
        <time>2020-06-28T17:14:10Z</time>
      </trkpt>
      <trkpt lat="48.72468" lon="7.30342">
        <ele>201.8</ele>
        <time>2020-06-28T17:14:11Z</time>
      </trkpt>
      <trkpt lat="48.72471" lon="7.30337">
        <ele>201.8</ele>
        <time>2020-06-28T17:14:12Z</time>
      </trkpt>
      <trkpt lat="48.72474" lon="7.30329">
        <ele>201.9</ele>
        <time>2020-06-28T17:14:13Z</time>
      </trkpt>
      <trkpt lat="48.72477" lon="7.30324">
        <ele>201.9</ele>
        <time>2020-06-28T17:14:14Z</time>
      </trkpt>
      <trkpt lat="48.7248" lon="7.30318">
        <ele>202</ele>
        <time>2020-06-28T17:14:15Z</time>
      </trkpt>
      <trkpt lat="48.72482" lon="7.30312">
        <ele>202.1</ele>
        <time>2020-06-28T17:14:16Z</time>
      </trkpt>
      <trkpt lat="48.72485" lon="7.30306">
        <ele>202.2</ele>
        <time>2020-06-28T17:14:17Z</time>
      </trkpt>
      <trkpt lat="48.72487" lon="7.30299">
        <ele>202.3</ele>
        <time>2020-06-28T17:14:18Z</time>
      </trkpt>
      <trkpt lat="48.72489" lon="7.30294">
        <ele>202.4</ele>
        <time>2020-06-28T17:14:19Z</time>
      </trkpt>
      <trkpt lat="48.7249" lon="7.30289">
        <ele>202.4</ele>
        <time>2020-06-28T17:14:20Z</time>
      </trkpt>
      <trkpt lat="48.72493" lon="7.30283">
        <ele>202.6</ele>
        <time>2020-06-28T17:14:21Z</time>
      </trkpt>
      <trkpt lat="48.72495" lon="7.3028">
        <ele>202.6</ele>
        <time>2020-06-28T17:14:22Z</time>
      </trkpt>
      <trkpt lat="48.72497" lon="7.30276">
        <ele>202.7</ele>
        <time>2020-06-28T17:14:23Z</time>
      </trkpt>
      <trkpt lat="48.72498" lon="7.30271">
        <ele>202.9</ele>
        <time>2020-06-28T17:14:24Z</time>
      </trkpt>
      <trkpt lat="48.72498" lon="7.3027">
        <ele>202.9</ele>
        <time>2020-06-28T17:14:25Z</time>
      </trkpt>
      <trkpt lat="48.72499" lon="7.30268">
        <ele>203</ele>
        <time>2020-06-28T17:14:26Z</time>
      </trkpt>
      <trkpt lat="48.725" lon="7.30266">
        <ele>203</ele>
        <time>2020-06-28T17:14:27Z</time>
      </trkpt>
      <trkpt lat="48.72501" lon="7.30267">
        <ele>203</ele>
        <time>2020-06-28T17:14:28Z</time>
      </trkpt>
      <trkpt lat="48.72501" lon="7.30267">
        <ele>203</ele>
        <time>2020-06-28T17:14:29Z</time>
      </trkpt>
      <trkpt lat="48.725" lon="7.30267">
        <ele>203.1</ele>
        <time>2020-06-28T17:14:30Z</time>
      </trkpt>
      <trkpt lat="48.72499" lon="7.30267">
        <ele>203.1</ele>
        <time>2020-06-28T17:14:31Z</time>
      </trkpt>
      <trkpt lat="48.72497" lon="7.30267">
        <ele>203.2</ele>
        <time>2020-06-28T17:14:32Z</time>
      </trkpt>
      <trkpt lat="48.72499" lon="7.30267">
        <ele>203.2</ele>
        <time>2020-06-28T17:14:33Z</time>
      </trkpt>
      <trkpt lat="48.725" lon="7.30266">
        <ele>203.3</ele>
        <time>2020-06-28T17:14:34Z</time>
      </trkpt>
      <trkpt lat="48.72501" lon="7.30266">
        <ele>203.3</ele>
        <time>2020-06-28T17:14:35Z</time>
      </trkpt>
      <trkpt lat="48.72501" lon="7.30267">
        <ele>203.3</ele>
        <time>2020-06-28T17:14:36Z</time>
      </trkpt>
      <trkpt lat="48.72502" lon="7.30268">
        <ele>203.3</ele>
        <time>2020-06-28T17:14:37Z</time>
      </trkpt>
      <trkpt lat="48.72503" lon="7.30269">
        <ele>203.3</ele>
        <time>2020-06-28T17:14:38Z</time>
      </trkpt>
      <trkpt lat="48.72503" lon="7.3027">
        <ele>203.3</ele>
        <time>2020-06-28T17:14:39Z</time>
      </trkpt>
      <trkpt lat="48.72504" lon="7.30271">
        <ele>203.3</ele>
        <time>2020-06-28T17:14:40Z</time>
      </trkpt>
      <trkpt lat="48.72497" lon="7.30272">
        <ele>203.3</ele>
        <time>2020-06-28T17:16:17Z</time>
      </trkpt>
      <trkpt lat="48.72497" lon="7.30271">
        <ele>203.3</ele>
        <time>2020-06-28T17:16:18Z</time>
      </trkpt>
      <trkpt lat="48.72496" lon="7.30271">
        <ele>203.3</ele>
        <time>2020-06-28T17:16:19Z</time>
      </trkpt>
      <trkpt lat="48.72496" lon="7.3027">
        <ele>203.3</ele>
        <time>2020-06-28T17:16:20Z</time>
      </trkpt>
      <trkpt lat="48.72497" lon="7.30268">
        <ele>203.3</ele>
        <time>2020-06-28T17:16:21Z</time>
      </trkpt>
      <trkpt lat="48.72499" lon="7.30265">
        <ele>203.3</ele>
        <time>2020-06-28T17:16:22Z</time>
      </trkpt>
      <trkpt lat="48.72499" lon="7.30265">
        <ele>203.3</ele>
        <time>2020-06-28T17:16:23Z</time>
      </trkpt>
      <trkpt lat="48.72499" lon="7.30265">
        <ele>203.3</ele>
        <time>2020-06-28T17:16:24Z</time>
      </trkpt>
      <trkpt lat="48.72499" lon="7.30265">
        <ele>203.3</ele>
        <time>2020-06-28T17:16:25Z</time>
      </trkpt>
      <trkpt lat="48.72498" lon="7.30268">
        <ele>203.3</ele>
        <time>2020-06-28T17:16:26Z</time>
      </trkpt>
      <trkpt lat="48.72498" lon="7.30268">
        <ele>203.3</ele>
        <time>2020-06-28T17:16:27Z</time>
      </trkpt>
      <trkpt lat="48.72499" lon="7.30268">
        <ele>203.3</ele>
        <time>2020-06-28T17:16:28Z</time>
      </trkpt>
      <trkpt lat="48.72499" lon="7.30268">
        <ele>203.3</ele>
        <time>2020-06-28T17:16:29Z</time>
      </trkpt>
      <trkpt lat="48.725" lon="7.30267">
        <ele>203.3</ele>
        <time>2020-06-28T17:16:30Z</time>
      </trkpt>
      <trkpt lat="48.725" lon="7.30267">
        <ele>203.3</ele>
        <time>2020-06-28T17:16:31Z</time>
      </trkpt>
      <trkpt lat="48.725" lon="7.30267">
        <ele>203.3</ele>
        <time>2020-06-28T17:16:32Z</time>
      </trkpt>
      <trkpt lat="48.72501" lon="7.30267">
        <ele>203.3</ele>
        <time>2020-06-28T17:16:33Z</time>
      </trkpt>
      <trkpt lat="48.72502" lon="7.30265">
        <ele>203.3</ele>
        <time>2020-06-28T17:16:34Z</time>
      </trkpt>
      <trkpt lat="48.72504" lon="7.30261">
        <ele>203.4</ele>
        <time>2020-06-28T17:16:35Z</time>
      </trkpt>
      <trkpt lat="48.72505" lon="7.30259">
        <ele>203.4</ele>
        <time>2020-06-28T17:16:36Z</time>
      </trkpt>
      <trkpt lat="48.72506" lon="7.30257">
        <ele>203.4</ele>
        <time>2020-06-28T17:16:37Z</time>
      </trkpt>
      <trkpt lat="48.72507" lon="7.30252">
        <ele>203.5</ele>
        <time>2020-06-28T17:16:38Z</time>
      </trkpt>
      <trkpt lat="48.72508" lon="7.30249">
        <ele>203.5</ele>
        <time>2020-06-28T17:16:39Z</time>
      </trkpt>
      <trkpt lat="48.72509" lon="7.30243">
        <ele>203.5</ele>
        <time>2020-06-28T17:16:40Z</time>
      </trkpt>
      <trkpt lat="48.7251" lon="7.30241">
        <ele>203.5</ele>
        <time>2020-06-28T17:16:41Z</time>
      </trkpt>
      <trkpt lat="48.72512" lon="7.30237">
        <ele>203.6</ele>
        <time>2020-06-28T17:16:42Z</time>
      </trkpt>
      <trkpt lat="48.72513" lon="7.30232">
        <ele>203.6</ele>
        <time>2020-06-28T17:16:43Z</time>
      </trkpt>
      <trkpt lat="48.72514" lon="7.30226">
        <ele>203.6</ele>
        <time>2020-06-28T17:16:44Z</time>
      </trkpt>
      <trkpt lat="48.72515" lon="7.30221">
        <ele>203.6</ele>
        <time>2020-06-28T17:16:45Z</time>
      </trkpt>
      <trkpt lat="48.72517" lon="7.30216">
        <ele>203.6</ele>
        <time>2020-06-28T17:16:46Z</time>
      </trkpt>
      <trkpt lat="48.72519" lon="7.3021">
        <ele>203.7</ele>
        <time>2020-06-28T17:16:47Z</time>
      </trkpt>
      <trkpt lat="48.72521" lon="7.30203">
        <ele>203.8</ele>
        <time>2020-06-28T17:16:48Z</time>
      </trkpt>
      <trkpt lat="48.72522" lon="7.30197">
        <ele>203.8</ele>
        <time>2020-06-28T17:16:49Z</time>
      </trkpt>
      <trkpt lat="48.72524" lon="7.30191">
        <ele>203.9</ele>
        <time>2020-06-28T17:16:50Z</time>
      </trkpt>
      <trkpt lat="48.72525" lon="7.30185">
        <ele>203.9</ele>
        <time>2020-06-28T17:16:51Z</time>
      </trkpt>
      <trkpt lat="48.72527" lon="7.30179">
        <ele>203.9</ele>
        <time>2020-06-28T17:16:52Z</time>
      </trkpt>
      <trkpt lat="48.72528" lon="7.30173">
        <ele>203.9</ele>
        <time>2020-06-28T17:16:53Z</time>
      </trkpt>
      <trkpt lat="48.7253" lon="7.30167">
        <ele>204</ele>
        <time>2020-06-28T17:16:54Z</time>
      </trkpt>
      <trkpt lat="48.72531" lon="7.30162">
        <ele>204</ele>
        <time>2020-06-28T17:16:55Z</time>
      </trkpt>
      <trkpt lat="48.72532" lon="7.30156">
        <ele>204</ele>
        <time>2020-06-28T17:16:56Z</time>
      </trkpt>
      <trkpt lat="48.72533" lon="7.30147">
        <ele>204</ele>
        <time>2020-06-28T17:16:57Z</time>
      </trkpt>
      <trkpt lat="48.72534" lon="7.30139">
        <ele>204</ele>
        <time>2020-06-28T17:16:58Z</time>
      </trkpt>
      <trkpt lat="48.72535" lon="7.30131">
        <ele>204</ele>
        <time>2020-06-28T17:16:59Z</time>
      </trkpt>
      <trkpt lat="48.72535" lon="7.30123">
        <ele>204</ele>
        <time>2020-06-28T17:17:00Z</time>
      </trkpt>
      <trkpt lat="48.72538" lon="7.30115">
        <ele>204</ele>
        <time>2020-06-28T17:17:01Z</time>
      </trkpt>
      <trkpt lat="48.7254" lon="7.30107">
        <ele>204</ele>
        <time>2020-06-28T17:17:02Z</time>
      </trkpt>
      <trkpt lat="48.72542" lon="7.30099">
        <ele>204</ele>
        <time>2020-06-28T17:17:03Z</time>
      </trkpt>
      <trkpt lat="48.72544" lon="7.30093">
        <ele>204</ele>
        <time>2020-06-28T17:17:04Z</time>
      </trkpt>
      <trkpt lat="48.72545" lon="7.30086">
        <ele>204</ele>
        <time>2020-06-28T17:17:05Z</time>
      </trkpt>
      <trkpt lat="48.72547" lon="7.3008">
        <ele>204</ele>
        <time>2020-06-28T17:17:06Z</time>
      </trkpt>
      <trkpt lat="48.72549" lon="7.30073">
        <ele>204</ele>
        <time>2020-06-28T17:17:07Z</time>
      </trkpt>
      <trkpt lat="48.7255" lon="7.30066">
        <ele>204</ele>
        <time>2020-06-28T17:17:08Z</time>
      </trkpt>
      <trkpt lat="48.72552" lon="7.30058">
        <ele>203.9</ele>
        <time>2020-06-28T17:17:09Z</time>
      </trkpt>
      <trkpt lat="48.72553" lon="7.30051">
        <ele>203.9</ele>
        <time>2020-06-28T17:17:10Z</time>
      </trkpt>
      <trkpt lat="48.72554" lon="7.30043">
        <ele>203.9</ele>
        <time>2020-06-28T17:17:11Z</time>
      </trkpt>
      <trkpt lat="48.72557" lon="7.30035">
        <ele>203.9</ele>
        <time>2020-06-28T17:17:12Z</time>
      </trkpt>
      <trkpt lat="48.7256" lon="7.30028">
        <ele>203.9</ele>
        <time>2020-06-28T17:17:13Z</time>
      </trkpt>
      <trkpt lat="48.72561" lon="7.30022">
        <ele>204</ele>
        <time>2020-06-28T17:17:14Z</time>
      </trkpt>
      <trkpt lat="48.72563" lon="7.30014">
        <ele>204</ele>
        <time>2020-06-28T17:17:15Z</time>
      </trkpt>
      <trkpt lat="48.72565" lon="7.30007">
        <ele>204</ele>
        <time>2020-06-28T17:17:16Z</time>
      </trkpt>
      <trkpt lat="48.72567" lon="7.29999">
        <ele>204</ele>
        <time>2020-06-28T17:17:17Z</time>
      </trkpt>
      <trkpt lat="48.7257" lon="7.29991">
        <ele>204</ele>
        <time>2020-06-28T17:17:18Z</time>
      </trkpt>
      <trkpt lat="48.72573" lon="7.29984">
        <ele>204</ele>
        <time>2020-06-28T17:17:19Z</time>
      </trkpt>
      <trkpt lat="48.72576" lon="7.29976">
        <ele>204</ele>
        <time>2020-06-28T17:17:20Z</time>
      </trkpt>
      <trkpt lat="48.72579" lon="7.29969">
        <ele>204</ele>
        <time>2020-06-28T17:17:21Z</time>
      </trkpt>
      <trkpt lat="48.72581" lon="7.29962">
        <ele>204</ele>
        <time>2020-06-28T17:17:22Z</time>
      </trkpt>
      <trkpt lat="48.72584" lon="7.29955">
        <ele>204</ele>
        <time>2020-06-28T17:17:23Z</time>
      </trkpt>
      <trkpt lat="48.72587" lon="7.29948">
        <ele>204</ele>
        <time>2020-06-28T17:17:24Z</time>
      </trkpt>
      <trkpt lat="48.7259" lon="7.29942">
        <ele>204</ele>
        <time>2020-06-28T17:17:25Z</time>
      </trkpt>
      <trkpt lat="48.72593" lon="7.29936">
        <ele>204</ele>
        <time>2020-06-28T17:17:26Z</time>
      </trkpt>
      <trkpt lat="48.72597" lon="7.2993">
        <ele>204</ele>
        <time>2020-06-28T17:17:27Z</time>
      </trkpt>
      <trkpt lat="48.72601" lon="7.29924">
        <ele>204</ele>
        <time>2020-06-28T17:17:28Z</time>
      </trkpt>
      <trkpt lat="48.72605" lon="7.29919">
        <ele>204</ele>
        <time>2020-06-28T17:17:29Z</time>
      </trkpt>
      <trkpt lat="48.7261" lon="7.29914">
        <ele>204</ele>
        <time>2020-06-28T17:17:30Z</time>
      </trkpt>
      <trkpt lat="48.72615" lon="7.29909">
        <ele>204</ele>
        <time>2020-06-28T17:17:31Z</time>
      </trkpt>
      <trkpt lat="48.7262" lon="7.29904">
        <ele>204</ele>
        <time>2020-06-28T17:17:32Z</time>
      </trkpt>
      <trkpt lat="48.72625" lon="7.29899">
        <ele>204</ele>
        <time>2020-06-28T17:17:33Z</time>
      </trkpt>
      <trkpt lat="48.72631" lon="7.29895">
        <ele>204</ele>
        <time>2020-06-28T17:17:34Z</time>
      </trkpt>
      <trkpt lat="48.72636" lon="7.2989">
        <ele>203.9</ele>
        <time>2020-06-28T17:17:35Z</time>
      </trkpt>
      <trkpt lat="48.72642" lon="7.29887">
        <ele>203.9</ele>
        <time>2020-06-28T17:17:36Z</time>
      </trkpt>
      <trkpt lat="48.72648" lon="7.29883">
        <ele>203.9</ele>
        <time>2020-06-28T17:17:37Z</time>
      </trkpt>
      <trkpt lat="48.72654" lon="7.2988">
        <ele>203.9</ele>
        <time>2020-06-28T17:17:38Z</time>
      </trkpt>
      <trkpt lat="48.72659" lon="7.29878">
        <ele>203.9</ele>
        <time>2020-06-28T17:17:39Z</time>
      </trkpt>
      <trkpt lat="48.72664" lon="7.29876">
        <ele>203.9</ele>
        <time>2020-06-28T17:17:40Z</time>
      </trkpt>
      <trkpt lat="48.7267" lon="7.29873">
        <ele>203.9</ele>
        <time>2020-06-28T17:17:41Z</time>
      </trkpt>
      <trkpt lat="48.72675" lon="7.29874">
        <ele>203.9</ele>
        <time>2020-06-28T17:17:42Z</time>
      </trkpt>
      <trkpt lat="48.72681" lon="7.29874">
        <ele>203.9</ele>
        <time>2020-06-28T17:17:43Z</time>
      </trkpt>
      <trkpt lat="48.72688" lon="7.29873">
        <ele>203.9</ele>
        <time>2020-06-28T17:17:44Z</time>
      </trkpt>
      <trkpt lat="48.72696" lon="7.29871">
        <ele>203.9</ele>
        <time>2020-06-28T17:17:45Z</time>
      </trkpt>
      <trkpt lat="48.72702" lon="7.29871">
        <ele>203.9</ele>
        <time>2020-06-28T17:17:46Z</time>
      </trkpt>
      <trkpt lat="48.72708" lon="7.29872">
        <ele>203.9</ele>
        <time>2020-06-28T17:17:47Z</time>
      </trkpt>
      <trkpt lat="48.72714" lon="7.29875">
        <ele>203.9</ele>
        <time>2020-06-28T17:17:48Z</time>
      </trkpt>
      <trkpt lat="48.7272" lon="7.29875">
        <ele>203.9</ele>
        <time>2020-06-28T17:17:49Z</time>
      </trkpt>
      <trkpt lat="48.72726" lon="7.29877">
        <ele>203.9</ele>
        <time>2020-06-28T17:17:50Z</time>
      </trkpt>
      <trkpt lat="48.72731" lon="7.2988">
        <ele>203.8</ele>
        <time>2020-06-28T17:17:51Z</time>
      </trkpt>
      <trkpt lat="48.72737" lon="7.29884">
        <ele>203.8</ele>
        <time>2020-06-28T17:17:52Z</time>
      </trkpt>
      <trkpt lat="48.72743" lon="7.29888">
        <ele>203.8</ele>
        <time>2020-06-28T17:17:53Z</time>
      </trkpt>
      <trkpt lat="48.72749" lon="7.29891">
        <ele>203.8</ele>
        <time>2020-06-28T17:17:54Z</time>
      </trkpt>
      <trkpt lat="48.72755" lon="7.29893">
        <ele>203.8</ele>
        <time>2020-06-28T17:17:55Z</time>
      </trkpt>
      <trkpt lat="48.72761" lon="7.29895">
        <ele>203.8</ele>
        <time>2020-06-28T17:17:56Z</time>
      </trkpt>
      <trkpt lat="48.72767" lon="7.29898">
        <ele>203.8</ele>
        <time>2020-06-28T17:17:57Z</time>
      </trkpt>
      <trkpt lat="48.72773" lon="7.29903">
        <ele>203.8</ele>
        <time>2020-06-28T17:17:58Z</time>
      </trkpt>
      <trkpt lat="48.72779" lon="7.29905">
        <ele>203.8</ele>
        <time>2020-06-28T17:17:59Z</time>
      </trkpt>
      <trkpt lat="48.72785" lon="7.29907">
        <ele>203.8</ele>
        <time>2020-06-28T17:18:00Z</time>
      </trkpt>
      <trkpt lat="48.72792" lon="7.29908">
        <ele>203.8</ele>
        <time>2020-06-28T17:18:01Z</time>
      </trkpt>
      <trkpt lat="48.72798" lon="7.29909">
        <ele>203.7</ele>
        <time>2020-06-28T17:18:02Z</time>
      </trkpt>
      <trkpt lat="48.72803" lon="7.2991">
        <ele>203.8</ele>
        <time>2020-06-28T17:18:03Z</time>
      </trkpt>
      <trkpt lat="48.72808" lon="7.29909">
        <ele>203.8</ele>
        <time>2020-06-28T17:18:04Z</time>
      </trkpt>
      <trkpt lat="48.72814" lon="7.29909">
        <ele>203.8</ele>
        <time>2020-06-28T17:18:05Z</time>
      </trkpt>
      <trkpt lat="48.7282" lon="7.29906">
        <ele>203.8</ele>
        <time>2020-06-28T17:18:06Z</time>
      </trkpt>
      <trkpt lat="48.72825" lon="7.29904">
        <ele>203.8</ele>
        <time>2020-06-28T17:18:07Z</time>
      </trkpt>
      <trkpt lat="48.72831" lon="7.29902">
        <ele>203.8</ele>
        <time>2020-06-28T17:18:08Z</time>
      </trkpt>
      <trkpt lat="48.72837" lon="7.29899">
        <ele>203.8</ele>
        <time>2020-06-28T17:18:09Z</time>
      </trkpt>
      <trkpt lat="48.72842" lon="7.29896">
        <ele>203.9</ele>
        <time>2020-06-28T17:18:10Z</time>
      </trkpt>
      <trkpt lat="48.72847" lon="7.29893">
        <ele>203.9</ele>
        <time>2020-06-28T17:18:11Z</time>
      </trkpt>
      <trkpt lat="48.72852" lon="7.29889">
        <ele>203.9</ele>
        <time>2020-06-28T17:18:12Z</time>
      </trkpt>
      <trkpt lat="48.72858" lon="7.29885">
        <ele>203.9</ele>
        <time>2020-06-28T17:18:13Z</time>
      </trkpt>
      <trkpt lat="48.72864" lon="7.29878">
        <ele>203.9</ele>
        <time>2020-06-28T17:18:14Z</time>
      </trkpt>
      <trkpt lat="48.72868" lon="7.29871">
        <ele>203.9</ele>
        <time>2020-06-28T17:18:15Z</time>
      </trkpt>
      <trkpt lat="48.72872" lon="7.29864">
        <ele>203.9</ele>
        <time>2020-06-28T17:18:16Z</time>
      </trkpt>
      <trkpt lat="48.72876" lon="7.29855">
        <ele>203.9</ele>
        <time>2020-06-28T17:18:17Z</time>
      </trkpt>
      <trkpt lat="48.72881" lon="7.29848">
        <ele>203.9</ele>
        <time>2020-06-28T17:18:18Z</time>
      </trkpt>
      <trkpt lat="48.72885" lon="7.29839">
        <ele>203.9</ele>
        <time>2020-06-28T17:18:19Z</time>
      </trkpt>
      <trkpt lat="48.72889" lon="7.29831">
        <ele>203.9</ele>
        <time>2020-06-28T17:18:20Z</time>
      </trkpt>
      <trkpt lat="48.72893" lon="7.29824">
        <ele>203.9</ele>
        <time>2020-06-28T17:18:21Z</time>
      </trkpt>
      <trkpt lat="48.72895" lon="7.29818">
        <ele>203.8</ele>
        <time>2020-06-28T17:18:22Z</time>
      </trkpt>
      <trkpt lat="48.72899" lon="7.2981">
        <ele>203.8</ele>
        <time>2020-06-28T17:18:23Z</time>
      </trkpt>
      <trkpt lat="48.72901" lon="7.29802">
        <ele>203.9</ele>
        <time>2020-06-28T17:18:24Z</time>
      </trkpt>
      <trkpt lat="48.72903" lon="7.29794">
        <ele>203.9</ele>
        <time>2020-06-28T17:18:25Z</time>
      </trkpt>
      <trkpt lat="48.72905" lon="7.29786">
        <ele>203.9</ele>
        <time>2020-06-28T17:18:26Z</time>
      </trkpt>
      <trkpt lat="48.72907" lon="7.29778">
        <ele>204</ele>
        <time>2020-06-28T17:18:27Z</time>
      </trkpt>
      <trkpt lat="48.72909" lon="7.29771">
        <ele>204</ele>
        <time>2020-06-28T17:18:28Z</time>
      </trkpt>
      <trkpt lat="48.72911" lon="7.29764">
        <ele>204</ele>
        <time>2020-06-28T17:18:29Z</time>
      </trkpt>
      <trkpt lat="48.72914" lon="7.29757">
        <ele>204</ele>
        <time>2020-06-28T17:18:30Z</time>
      </trkpt>
      <trkpt lat="48.72916" lon="7.2975">
        <ele>204.1</ele>
        <time>2020-06-28T17:18:31Z</time>
      </trkpt>
      <trkpt lat="48.72918" lon="7.29742">
        <ele>204.1</ele>
        <time>2020-06-28T17:18:32Z</time>
      </trkpt>
      <trkpt lat="48.72919" lon="7.29734">
        <ele>204.1</ele>
        <time>2020-06-28T17:18:33Z</time>
      </trkpt>
      <trkpt lat="48.72921" lon="7.29727">
        <ele>204.2</ele>
        <time>2020-06-28T17:18:34Z</time>
      </trkpt>
      <trkpt lat="48.72922" lon="7.29719">
        <ele>204.2</ele>
        <time>2020-06-28T17:18:35Z</time>
      </trkpt>
      <trkpt lat="48.72923" lon="7.29711">
        <ele>204.2</ele>
        <time>2020-06-28T17:18:36Z</time>
      </trkpt>
      <trkpt lat="48.72925" lon="7.29703">
        <ele>204.3</ele>
        <time>2020-06-28T17:18:37Z</time>
      </trkpt>
      <trkpt lat="48.72927" lon="7.29695">
        <ele>204.3</ele>
        <time>2020-06-28T17:18:38Z</time>
      </trkpt>
      <trkpt lat="48.72929" lon="7.29687">
        <ele>204.4</ele>
        <time>2020-06-28T17:18:39Z</time>
      </trkpt>
      <trkpt lat="48.72931" lon="7.29679">
        <ele>204.4</ele>
        <time>2020-06-28T17:18:40Z</time>
      </trkpt>
      <trkpt lat="48.72934" lon="7.29671">
        <ele>204.6</ele>
        <time>2020-06-28T17:18:41Z</time>
      </trkpt>
      <trkpt lat="48.72936" lon="7.29666">
        <ele>204.7</ele>
        <time>2020-06-28T17:18:42Z</time>
      </trkpt>
      <trkpt lat="48.72937" lon="7.2966">
        <ele>204.9</ele>
        <time>2020-06-28T17:18:43Z</time>
      </trkpt>
      <trkpt lat="48.72938" lon="7.29653">
        <ele>205.1</ele>
        <time>2020-06-28T17:18:44Z</time>
      </trkpt>
      <trkpt lat="48.7294" lon="7.29645">
        <ele>205.3</ele>
        <time>2020-06-28T17:18:45Z</time>
      </trkpt>
      <trkpt lat="48.72942" lon="7.29638">
        <ele>205.5</ele>
        <time>2020-06-28T17:18:46Z</time>
      </trkpt>
      <trkpt lat="48.72943" lon="7.2963">
        <ele>205.7</ele>
        <time>2020-06-28T17:18:47Z</time>
      </trkpt>
      <trkpt lat="48.72945" lon="7.29621">
        <ele>205.8</ele>
        <time>2020-06-28T17:18:48Z</time>
      </trkpt>
      <trkpt lat="48.72947" lon="7.29613">
        <ele>205.9</ele>
        <time>2020-06-28T17:18:49Z</time>
      </trkpt>
      <trkpt lat="48.72949" lon="7.29606">
        <ele>205.9</ele>
        <time>2020-06-28T17:18:50Z</time>
      </trkpt>
      <trkpt lat="48.72951" lon="7.29598">
        <ele>206</ele>
        <time>2020-06-28T17:18:51Z</time>
      </trkpt>
      <trkpt lat="48.72953" lon="7.2959">
        <ele>206.1</ele>
        <time>2020-06-28T17:18:52Z</time>
      </trkpt>
      <trkpt lat="48.72953" lon="7.29583">
        <ele>206.3</ele>
        <time>2020-06-28T17:18:53Z</time>
      </trkpt>
      <trkpt lat="48.72955" lon="7.29576">
        <ele>206.3</ele>
        <time>2020-06-28T17:18:54Z</time>
      </trkpt>
      <trkpt lat="48.72956" lon="7.29568">
        <ele>206.3</ele>
        <time>2020-06-28T17:18:55Z</time>
      </trkpt>
      <trkpt lat="48.72958" lon="7.2956">
        <ele>206.3</ele>
        <time>2020-06-28T17:18:56Z</time>
      </trkpt>
      <trkpt lat="48.7296" lon="7.29554">
        <ele>206.3</ele>
        <time>2020-06-28T17:18:57Z</time>
      </trkpt>
      <trkpt lat="48.72962" lon="7.29547">
        <ele>206.3</ele>
        <time>2020-06-28T17:18:58Z</time>
      </trkpt>
      <trkpt lat="48.72964" lon="7.2954">
        <ele>206.3</ele>
        <time>2020-06-28T17:18:59Z</time>
      </trkpt>
      <trkpt lat="48.72965" lon="7.29533">
        <ele>206.3</ele>
        <time>2020-06-28T17:19:00Z</time>
      </trkpt>
      <trkpt lat="48.72968" lon="7.29527">
        <ele>206.3</ele>
        <time>2020-06-28T17:19:01Z</time>
      </trkpt>
      <trkpt lat="48.72969" lon="7.29521">
        <ele>206.3</ele>
        <time>2020-06-28T17:19:02Z</time>
      </trkpt>
      <trkpt lat="48.72971" lon="7.29514">
        <ele>206.3</ele>
        <time>2020-06-28T17:19:03Z</time>
      </trkpt>
      <trkpt lat="48.72971" lon="7.29506">
        <ele>206.3</ele>
        <time>2020-06-28T17:19:04Z</time>
      </trkpt>
      <trkpt lat="48.72973" lon="7.29498">
        <ele>206.3</ele>
        <time>2020-06-28T17:19:05Z</time>
      </trkpt>
      <trkpt lat="48.72974" lon="7.2949">
        <ele>206.3</ele>
        <time>2020-06-28T17:19:06Z</time>
      </trkpt>
      <trkpt lat="48.72976" lon="7.29481">
        <ele>206.4</ele>
        <time>2020-06-28T17:19:07Z</time>
      </trkpt>
      <trkpt lat="48.72977" lon="7.29473">
        <ele>206.4</ele>
        <time>2020-06-28T17:19:08Z</time>
      </trkpt>
      <trkpt lat="48.72978" lon="7.29464">
        <ele>206.4</ele>
        <time>2020-06-28T17:19:09Z</time>
      </trkpt>
      <trkpt lat="48.7298" lon="7.29456">
        <ele>206.4</ele>
        <time>2020-06-28T17:19:10Z</time>
      </trkpt>
      <trkpt lat="48.72982" lon="7.29449">
        <ele>206.4</ele>
        <time>2020-06-28T17:19:11Z</time>
      </trkpt>
      <trkpt lat="48.72984" lon="7.29441">
        <ele>206.4</ele>
        <time>2020-06-28T17:19:12Z</time>
      </trkpt>
      <trkpt lat="48.72986" lon="7.29433">
        <ele>206.4</ele>
        <time>2020-06-28T17:19:13Z</time>
      </trkpt>
      <trkpt lat="48.72989" lon="7.29425">
        <ele>206.4</ele>
        <time>2020-06-28T17:19:14Z</time>
      </trkpt>
      <trkpt lat="48.72991" lon="7.29418">
        <ele>206.4</ele>
        <time>2020-06-28T17:19:15Z</time>
      </trkpt>
      <trkpt lat="48.72993" lon="7.2941">
        <ele>206.4</ele>
        <time>2020-06-28T17:19:16Z</time>
      </trkpt>
      <trkpt lat="48.72996" lon="7.29402">
        <ele>206.4</ele>
        <time>2020-06-28T17:19:17Z</time>
      </trkpt>
      <trkpt lat="48.72997" lon="7.29395">
        <ele>206.5</ele>
        <time>2020-06-28T17:19:18Z</time>
      </trkpt>
      <trkpt lat="48.72999" lon="7.29386">
        <ele>206.5</ele>
        <time>2020-06-28T17:19:19Z</time>
      </trkpt>
      <trkpt lat="48.73001" lon="7.29379">
        <ele>206.5</ele>
        <time>2020-06-28T17:19:20Z</time>
      </trkpt>
      <trkpt lat="48.73003" lon="7.2937">
        <ele>206.5</ele>
        <time>2020-06-28T17:19:21Z</time>
      </trkpt>
      <trkpt lat="48.73005" lon="7.29362">
        <ele>206.5</ele>
        <time>2020-06-28T17:19:22Z</time>
      </trkpt>
      <trkpt lat="48.73007" lon="7.29353">
        <ele>206.5</ele>
        <time>2020-06-28T17:19:23Z</time>
      </trkpt>
      <trkpt lat="48.73008" lon="7.29345">
        <ele>206.5</ele>
        <time>2020-06-28T17:19:24Z</time>
      </trkpt>
      <trkpt lat="48.7301" lon="7.29337">
        <ele>206.5</ele>
        <time>2020-06-28T17:19:25Z</time>
      </trkpt>
      <trkpt lat="48.73012" lon="7.2933">
        <ele>206.5</ele>
        <time>2020-06-28T17:19:26Z</time>
      </trkpt>
      <trkpt lat="48.73014" lon="7.29321">
        <ele>206.5</ele>
        <time>2020-06-28T17:19:27Z</time>
      </trkpt>
      <trkpt lat="48.73017" lon="7.29313">
        <ele>206.5</ele>
        <time>2020-06-28T17:19:28Z</time>
      </trkpt>
      <trkpt lat="48.7302" lon="7.29304">
        <ele>206.5</ele>
        <time>2020-06-28T17:19:29Z</time>
      </trkpt>
      <trkpt lat="48.73023" lon="7.29296">
        <ele>206.5</ele>
        <time>2020-06-28T17:19:30Z</time>
      </trkpt>
      <trkpt lat="48.73025" lon="7.29288">
        <ele>206.5</ele>
        <time>2020-06-28T17:19:31Z</time>
      </trkpt>
      <trkpt lat="48.73027" lon="7.29279">
        <ele>206.5</ele>
        <time>2020-06-28T17:19:32Z</time>
      </trkpt>
      <trkpt lat="48.73029" lon="7.29271">
        <ele>206.5</ele>
        <time>2020-06-28T17:19:33Z</time>
      </trkpt>
      <trkpt lat="48.73032" lon="7.29262">
        <ele>206.5</ele>
        <time>2020-06-28T17:19:34Z</time>
      </trkpt>
      <trkpt lat="48.73034" lon="7.29253">
        <ele>206.5</ele>
        <time>2020-06-28T17:19:35Z</time>
      </trkpt>
      <trkpt lat="48.73037" lon="7.29245">
        <ele>206.5</ele>
        <time>2020-06-28T17:19:36Z</time>
      </trkpt>
      <trkpt lat="48.73039" lon="7.29237">
        <ele>206.5</ele>
        <time>2020-06-28T17:19:37Z</time>
      </trkpt>
      <trkpt lat="48.73042" lon="7.29227">
        <ele>206.5</ele>
        <time>2020-06-28T17:19:38Z</time>
      </trkpt>
      <trkpt lat="48.73043" lon="7.29219">
        <ele>206.6</ele>
        <time>2020-06-28T17:19:39Z</time>
      </trkpt>
      <trkpt lat="48.73045" lon="7.29212">
        <ele>206.6</ele>
        <time>2020-06-28T17:19:40Z</time>
      </trkpt>
      <trkpt lat="48.73047" lon="7.29202">
        <ele>206.6</ele>
        <time>2020-06-28T17:19:41Z</time>
      </trkpt>
      <trkpt lat="48.73048" lon="7.29193">
        <ele>206.6</ele>
        <time>2020-06-28T17:19:42Z</time>
      </trkpt>
      <trkpt lat="48.7305" lon="7.29184">
        <ele>206.6</ele>
        <time>2020-06-28T17:19:43Z</time>
      </trkpt>
      <trkpt lat="48.73052" lon="7.29176">
        <ele>206.6</ele>
        <time>2020-06-28T17:19:44Z</time>
      </trkpt>
      <trkpt lat="48.73053" lon="7.29167">
        <ele>206.6</ele>
        <time>2020-06-28T17:19:45Z</time>
      </trkpt>
      <trkpt lat="48.73054" lon="7.29158">
        <ele>206.6</ele>
        <time>2020-06-28T17:19:46Z</time>
      </trkpt>
      <trkpt lat="48.73055" lon="7.2915">
        <ele>206.6</ele>
        <time>2020-06-28T17:19:47Z</time>
      </trkpt>
      <trkpt lat="48.73057" lon="7.29143">
        <ele>206.6</ele>
        <time>2020-06-28T17:19:48Z</time>
      </trkpt>
      <trkpt lat="48.73058" lon="7.29137">
        <ele>206.6</ele>
        <time>2020-06-28T17:19:49Z</time>
      </trkpt>
      <trkpt lat="48.7306" lon="7.29129">
        <ele>206.6</ele>
        <time>2020-06-28T17:19:50Z</time>
      </trkpt>
      <trkpt lat="48.73062" lon="7.29119">
        <ele>206.6</ele>
        <time>2020-06-28T17:19:51Z</time>
      </trkpt>
      <trkpt lat="48.73065" lon="7.2911">
        <ele>206.6</ele>
        <time>2020-06-28T17:19:52Z</time>
      </trkpt>
      <trkpt lat="48.73068" lon="7.29101">
        <ele>206.6</ele>
        <time>2020-06-28T17:19:53Z</time>
      </trkpt>
      <trkpt lat="48.73069" lon="7.29094">
        <ele>206.6</ele>
        <time>2020-06-28T17:19:54Z</time>
      </trkpt>
      <trkpt lat="48.73071" lon="7.29086">
        <ele>206.6</ele>
        <time>2020-06-28T17:19:55Z</time>
      </trkpt>
      <trkpt lat="48.73073" lon="7.29078">
        <ele>206.6</ele>
        <time>2020-06-28T17:19:56Z</time>
      </trkpt>
      <trkpt lat="48.73074" lon="7.2907">
        <ele>206.6</ele>
        <time>2020-06-28T17:19:57Z</time>
      </trkpt>
      <trkpt lat="48.73075" lon="7.29062">
        <ele>206.6</ele>
        <time>2020-06-28T17:19:58Z</time>
      </trkpt>
      <trkpt lat="48.73077" lon="7.29053">
        <ele>206.7</ele>
        <time>2020-06-28T17:19:59Z</time>
      </trkpt>
      <trkpt lat="48.73078" lon="7.29044">
        <ele>206.7</ele>
        <time>2020-06-28T17:20:00Z</time>
      </trkpt>
      <trkpt lat="48.73079" lon="7.29034">
        <ele>206.7</ele>
        <time>2020-06-28T17:20:01Z</time>
      </trkpt>
      <trkpt lat="48.7308" lon="7.29025">
        <ele>206.7</ele>
        <time>2020-06-28T17:20:02Z</time>
      </trkpt>
      <trkpt lat="48.73081" lon="7.29016">
        <ele>206.7</ele>
        <time>2020-06-28T17:20:03Z</time>
      </trkpt>
      <trkpt lat="48.73082" lon="7.29007">
        <ele>206.7</ele>
        <time>2020-06-28T17:20:04Z</time>
      </trkpt>
      <trkpt lat="48.73084" lon="7.28998">
        <ele>206.7</ele>
        <time>2020-06-28T17:20:05Z</time>
      </trkpt>
      <trkpt lat="48.73086" lon="7.28989">
        <ele>206.7</ele>
        <time>2020-06-28T17:20:06Z</time>
      </trkpt>
      <trkpt lat="48.73087" lon="7.28981">
        <ele>206.7</ele>
        <time>2020-06-28T17:20:07Z</time>
      </trkpt>
      <trkpt lat="48.73089" lon="7.28971">
        <ele>206.7</ele>
        <time>2020-06-28T17:20:08Z</time>
      </trkpt>
      <trkpt lat="48.7309" lon="7.28962">
        <ele>206.7</ele>
        <time>2020-06-28T17:20:09Z</time>
      </trkpt>
      <trkpt lat="48.73093" lon="7.28954">
        <ele>206.6</ele>
        <time>2020-06-28T17:20:10Z</time>
      </trkpt>
      <trkpt lat="48.73094" lon="7.28944">
        <ele>206.6</ele>
        <time>2020-06-28T17:20:11Z</time>
      </trkpt>
      <trkpt lat="48.73096" lon="7.28936">
        <ele>206.6</ele>
        <time>2020-06-28T17:20:12Z</time>
      </trkpt>
      <trkpt lat="48.73098" lon="7.28927">
        <ele>206.6</ele>
        <time>2020-06-28T17:20:13Z</time>
      </trkpt>
      <trkpt lat="48.731" lon="7.28919">
        <ele>206.6</ele>
        <time>2020-06-28T17:20:14Z</time>
      </trkpt>
      <trkpt lat="48.73102" lon="7.2891">
        <ele>206.7</ele>
        <time>2020-06-28T17:20:15Z</time>
      </trkpt>
      <trkpt lat="48.73104" lon="7.28902">
        <ele>206.7</ele>
        <time>2020-06-28T17:20:16Z</time>
      </trkpt>
      <trkpt lat="48.73106" lon="7.28894">
        <ele>206.7</ele>
        <time>2020-06-28T17:20:17Z</time>
      </trkpt>
      <trkpt lat="48.73108" lon="7.28886">
        <ele>206.7</ele>
        <time>2020-06-28T17:20:18Z</time>
      </trkpt>
      <trkpt lat="48.7311" lon="7.28877">
        <ele>206.7</ele>
        <time>2020-06-28T17:20:19Z</time>
      </trkpt>
      <trkpt lat="48.73112" lon="7.28868">
        <ele>206.7</ele>
        <time>2020-06-28T17:20:20Z</time>
      </trkpt>
      <trkpt lat="48.73115" lon="7.28859">
        <ele>206.7</ele>
        <time>2020-06-28T17:20:21Z</time>
      </trkpt>
      <trkpt lat="48.73117" lon="7.2885">
        <ele>206.7</ele>
        <time>2020-06-28T17:20:22Z</time>
      </trkpt>
      <trkpt lat="48.7312" lon="7.28841">
        <ele>206.7</ele>
        <time>2020-06-28T17:20:23Z</time>
      </trkpt>
      <trkpt lat="48.73123" lon="7.28832">
        <ele>206.7</ele>
        <time>2020-06-28T17:20:24Z</time>
      </trkpt>
      <trkpt lat="48.73125" lon="7.28824">
        <ele>206.7</ele>
        <time>2020-06-28T17:20:25Z</time>
      </trkpt>
      <trkpt lat="48.73126" lon="7.28816">
        <ele>206.7</ele>
        <time>2020-06-28T17:20:26Z</time>
      </trkpt>
      <trkpt lat="48.73127" lon="7.28809">
        <ele>206.7</ele>
        <time>2020-06-28T17:20:27Z</time>
      </trkpt>
      <trkpt lat="48.73129" lon="7.28802">
        <ele>206.8</ele>
        <time>2020-06-28T17:20:28Z</time>
      </trkpt>
      <trkpt lat="48.73131" lon="7.28794">
        <ele>206.8</ele>
        <time>2020-06-28T17:20:29Z</time>
      </trkpt>
      <trkpt lat="48.73133" lon="7.28785">
        <ele>206.8</ele>
        <time>2020-06-28T17:20:30Z</time>
      </trkpt>
      <trkpt lat="48.73135" lon="7.28777">
        <ele>206.8</ele>
        <time>2020-06-28T17:20:31Z</time>
      </trkpt>
      <trkpt lat="48.73138" lon="7.28769">
        <ele>206.8</ele>
        <time>2020-06-28T17:20:32Z</time>
      </trkpt>
      <trkpt lat="48.7314" lon="7.28761">
        <ele>206.8</ele>
        <time>2020-06-28T17:20:33Z</time>
      </trkpt>
      <trkpt lat="48.73142" lon="7.28753">
        <ele>206.8</ele>
        <time>2020-06-28T17:20:34Z</time>
      </trkpt>
      <trkpt lat="48.73144" lon="7.28745">
        <ele>206.8</ele>
        <time>2020-06-28T17:20:35Z</time>
      </trkpt>
      <trkpt lat="48.73146" lon="7.28736">
        <ele>206.8</ele>
        <time>2020-06-28T17:20:36Z</time>
      </trkpt>
      <trkpt lat="48.73148" lon="7.28727">
        <ele>206.8</ele>
        <time>2020-06-28T17:20:37Z</time>
      </trkpt>
      <trkpt lat="48.7315" lon="7.28718">
        <ele>206.8</ele>
        <time>2020-06-28T17:20:38Z</time>
      </trkpt>
      <trkpt lat="48.73151" lon="7.2871">
        <ele>206.8</ele>
        <time>2020-06-28T17:20:39Z</time>
      </trkpt>
      <trkpt lat="48.73152" lon="7.28702">
        <ele>206.8</ele>
        <time>2020-06-28T17:20:40Z</time>
      </trkpt>
      <trkpt lat="48.73154" lon="7.28694">
        <ele>206.8</ele>
        <time>2020-06-28T17:20:41Z</time>
      </trkpt>
      <trkpt lat="48.73157" lon="7.28686">
        <ele>206.9</ele>
        <time>2020-06-28T17:20:42Z</time>
      </trkpt>
      <trkpt lat="48.73158" lon="7.28679">
        <ele>206.9</ele>
        <time>2020-06-28T17:20:43Z</time>
      </trkpt>
      <trkpt lat="48.7316" lon="7.2867">
        <ele>207</ele>
        <time>2020-06-28T17:20:44Z</time>
      </trkpt>
      <trkpt lat="48.73162" lon="7.28662">
        <ele>206.8</ele>
        <time>2020-06-28T17:20:45Z</time>
      </trkpt>
      <trkpt lat="48.73164" lon="7.28654">
        <ele>206.7</ele>
        <time>2020-06-28T17:20:46Z</time>
      </trkpt>
      <trkpt lat="48.73166" lon="7.28644">
        <ele>206.7</ele>
        <time>2020-06-28T17:20:47Z</time>
      </trkpt>
      <trkpt lat="48.73168" lon="7.28636">
        <ele>206.6</ele>
        <time>2020-06-28T17:20:48Z</time>
      </trkpt>
      <trkpt lat="48.7317" lon="7.28629">
        <ele>206.6</ele>
        <time>2020-06-28T17:20:49Z</time>
      </trkpt>
      <trkpt lat="48.73172" lon="7.28622">
        <ele>206.6</ele>
        <time>2020-06-28T17:20:50Z</time>
      </trkpt>
      <trkpt lat="48.73174" lon="7.28613">
        <ele>206.6</ele>
        <time>2020-06-28T17:20:51Z</time>
      </trkpt>
      <trkpt lat="48.73177" lon="7.28605">
        <ele>206.6</ele>
        <time>2020-06-28T17:20:52Z</time>
      </trkpt>
      <trkpt lat="48.7318" lon="7.28598">
        <ele>206.5</ele>
        <time>2020-06-28T17:20:53Z</time>
      </trkpt>
      <trkpt lat="48.73183" lon="7.28589">
        <ele>206.5</ele>
        <time>2020-06-28T17:20:54Z</time>
      </trkpt>
      <trkpt lat="48.73186" lon="7.28581">
        <ele>206.5</ele>
        <time>2020-06-28T17:20:55Z</time>
      </trkpt>
      <trkpt lat="48.73189" lon="7.28572">
        <ele>206.5</ele>
        <time>2020-06-28T17:20:56Z</time>
      </trkpt>
      <trkpt lat="48.73192" lon="7.28563">
        <ele>206.4</ele>
        <time>2020-06-28T17:20:57Z</time>
      </trkpt>
      <trkpt lat="48.73194" lon="7.28555">
        <ele>206.4</ele>
        <time>2020-06-28T17:20:58Z</time>
      </trkpt>
      <trkpt lat="48.73196" lon="7.28547">
        <ele>206.5</ele>
        <time>2020-06-28T17:20:59Z</time>
      </trkpt>
      <trkpt lat="48.73198" lon="7.28539">
        <ele>206.5</ele>
        <time>2020-06-28T17:21:00Z</time>
      </trkpt>
      <trkpt lat="48.73201" lon="7.28531">
        <ele>206.5</ele>
        <time>2020-06-28T17:21:01Z</time>
      </trkpt>
      <trkpt lat="48.73205" lon="7.28525">
        <ele>206.5</ele>
        <time>2020-06-28T17:21:02Z</time>
      </trkpt>
      <trkpt lat="48.73207" lon="7.28517">
        <ele>206.6</ele>
        <time>2020-06-28T17:21:03Z</time>
      </trkpt>
      <trkpt lat="48.7321" lon="7.28508">
        <ele>206.6</ele>
        <time>2020-06-28T17:21:04Z</time>
      </trkpt>
      <trkpt lat="48.73212" lon="7.28502">
        <ele>206.6</ele>
        <time>2020-06-28T17:21:05Z</time>
      </trkpt>
      <trkpt lat="48.73215" lon="7.28494">
        <ele>206.6</ele>
        <time>2020-06-28T17:21:06Z</time>
      </trkpt>
      <trkpt lat="48.73218" lon="7.28486">
        <ele>206.6</ele>
        <time>2020-06-28T17:21:07Z</time>
      </trkpt>
      <trkpt lat="48.73221" lon="7.28479">
        <ele>206.6</ele>
        <time>2020-06-28T17:21:08Z</time>
      </trkpt>
      <trkpt lat="48.73223" lon="7.28471">
        <ele>206.6</ele>
        <time>2020-06-28T17:21:09Z</time>
      </trkpt>
      <trkpt lat="48.73225" lon="7.28462">
        <ele>206.6</ele>
        <time>2020-06-28T17:21:10Z</time>
      </trkpt>
      <trkpt lat="48.73226" lon="7.28453">
        <ele>206.6</ele>
        <time>2020-06-28T17:21:11Z</time>
      </trkpt>
      <trkpt lat="48.7323" lon="7.28446">
        <ele>206.6</ele>
        <time>2020-06-28T17:21:12Z</time>
      </trkpt>
      <trkpt lat="48.73234" lon="7.28438">
        <ele>206.6</ele>
        <time>2020-06-28T17:21:13Z</time>
      </trkpt>
      <trkpt lat="48.73237" lon="7.28431">
        <ele>206.6</ele>
        <time>2020-06-28T17:21:14Z</time>
      </trkpt>
      <trkpt lat="48.7324" lon="7.28423">
        <ele>206.7</ele>
        <time>2020-06-28T17:21:15Z</time>
      </trkpt>
      <trkpt lat="48.73242" lon="7.28416">
        <ele>206.7</ele>
        <time>2020-06-28T17:21:16Z</time>
      </trkpt>
      <trkpt lat="48.73245" lon="7.28408">
        <ele>206.7</ele>
        <time>2020-06-28T17:21:17Z</time>
      </trkpt>
      <trkpt lat="48.73247" lon="7.28399">
        <ele>206.7</ele>
        <time>2020-06-28T17:21:18Z</time>
      </trkpt>
      <trkpt lat="48.73249" lon="7.28391">
        <ele>206.7</ele>
        <time>2020-06-28T17:21:19Z</time>
      </trkpt>
      <trkpt lat="48.73251" lon="7.28382">
        <ele>206.8</ele>
        <time>2020-06-28T17:21:20Z</time>
      </trkpt>
      <trkpt lat="48.73254" lon="7.28374">
        <ele>206.8</ele>
        <time>2020-06-28T17:21:21Z</time>
      </trkpt>
      <trkpt lat="48.73257" lon="7.28366">
        <ele>206.9</ele>
        <time>2020-06-28T17:21:22Z</time>
      </trkpt>
      <trkpt lat="48.73259" lon="7.2836">
        <ele>206.9</ele>
        <time>2020-06-28T17:21:23Z</time>
      </trkpt>
      <trkpt lat="48.73262" lon="7.28351">
        <ele>206.9</ele>
        <time>2020-06-28T17:21:24Z</time>
      </trkpt>
      <trkpt lat="48.73266" lon="7.28343">
        <ele>207</ele>
        <time>2020-06-28T17:21:25Z</time>
      </trkpt>
      <trkpt lat="48.73267" lon="7.28336">
        <ele>207.1</ele>
        <time>2020-06-28T17:21:26Z</time>
      </trkpt>
      <trkpt lat="48.7327" lon="7.28327">
        <ele>207.1</ele>
        <time>2020-06-28T17:21:27Z</time>
      </trkpt>
      <trkpt lat="48.73272" lon="7.2832">
        <ele>207.2</ele>
        <time>2020-06-28T17:21:28Z</time>
      </trkpt>
      <trkpt lat="48.73275" lon="7.28312">
        <ele>207.2</ele>
        <time>2020-06-28T17:21:29Z</time>
      </trkpt>
      <trkpt lat="48.73279" lon="7.28304">
        <ele>207.2</ele>
        <time>2020-06-28T17:21:30Z</time>
      </trkpt>
      <trkpt lat="48.73281" lon="7.28296">
        <ele>207.3</ele>
        <time>2020-06-28T17:21:31Z</time>
      </trkpt>
      <trkpt lat="48.73284" lon="7.28289">
        <ele>207.3</ele>
        <time>2020-06-28T17:21:32Z</time>
      </trkpt>
      <trkpt lat="48.73287" lon="7.2828">
        <ele>207.4</ele>
        <time>2020-06-28T17:21:33Z</time>
      </trkpt>
      <trkpt lat="48.7329" lon="7.28272">
        <ele>207.5</ele>
        <time>2020-06-28T17:21:34Z</time>
      </trkpt>
      <trkpt lat="48.73293" lon="7.28264">
        <ele>207.6</ele>
        <time>2020-06-28T17:21:35Z</time>
      </trkpt>
      <trkpt lat="48.73295" lon="7.28256">
        <ele>207.7</ele>
        <time>2020-06-28T17:21:36Z</time>
      </trkpt>
      <trkpt lat="48.73298" lon="7.28248">
        <ele>207.8</ele>
        <time>2020-06-28T17:21:37Z</time>
      </trkpt>
      <trkpt lat="48.733" lon="7.28241">
        <ele>208</ele>
        <time>2020-06-28T17:21:38Z</time>
      </trkpt>
      <trkpt lat="48.73303" lon="7.28233">
        <ele>208.2</ele>
        <time>2020-06-28T17:21:39Z</time>
      </trkpt>
      <trkpt lat="48.73304" lon="7.28226">
        <ele>208.3</ele>
        <time>2020-06-28T17:21:40Z</time>
      </trkpt>
      <trkpt lat="48.73307" lon="7.28219">
        <ele>208.5</ele>
        <time>2020-06-28T17:21:41Z</time>
      </trkpt>
      <trkpt lat="48.73309" lon="7.28212">
        <ele>208.6</ele>
        <time>2020-06-28T17:21:42Z</time>
      </trkpt>
      <trkpt lat="48.73312" lon="7.28205">
        <ele>208.8</ele>
        <time>2020-06-28T17:21:43Z</time>
      </trkpt>
      <trkpt lat="48.73315" lon="7.28199">
        <ele>208.8</ele>
        <time>2020-06-28T17:21:44Z</time>
      </trkpt>
      <trkpt lat="48.73317" lon="7.28192">
        <ele>208.9</ele>
        <time>2020-06-28T17:21:45Z</time>
      </trkpt>
      <trkpt lat="48.73321" lon="7.28185">
        <ele>209</ele>
        <time>2020-06-28T17:21:46Z</time>
      </trkpt>
      <trkpt lat="48.73324" lon="7.28179">
        <ele>209</ele>
        <time>2020-06-28T17:21:47Z</time>
      </trkpt>
      <trkpt lat="48.73327" lon="7.28172">
        <ele>209.1</ele>
        <time>2020-06-28T17:21:48Z</time>
      </trkpt>
      <trkpt lat="48.73329" lon="7.28164">
        <ele>209.2</ele>
        <time>2020-06-28T17:21:49Z</time>
      </trkpt>
      <trkpt lat="48.73331" lon="7.28158">
        <ele>209.2</ele>
        <time>2020-06-28T17:21:50Z</time>
      </trkpt>
      <trkpt lat="48.73333" lon="7.28151">
        <ele>209.3</ele>
        <time>2020-06-28T17:21:51Z</time>
      </trkpt>
      <trkpt lat="48.73335" lon="7.28143">
        <ele>209.3</ele>
        <time>2020-06-28T17:21:52Z</time>
      </trkpt>
      <trkpt lat="48.73337" lon="7.28136">
        <ele>209.3</ele>
        <time>2020-06-28T17:21:53Z</time>
      </trkpt>
      <trkpt lat="48.73341" lon="7.28128">
        <ele>209.3</ele>
        <time>2020-06-28T17:21:54Z</time>
      </trkpt>
      <trkpt lat="48.73344" lon="7.2812">
        <ele>209.3</ele>
        <time>2020-06-28T17:21:55Z</time>
      </trkpt>
      <trkpt lat="48.73346" lon="7.28113">
        <ele>209.3</ele>
        <time>2020-06-28T17:21:56Z</time>
      </trkpt>
      <trkpt lat="48.73349" lon="7.28105">
        <ele>209.3</ele>
        <time>2020-06-28T17:21:57Z</time>
      </trkpt>
      <trkpt lat="48.73351" lon="7.28097">
        <ele>209.3</ele>
        <time>2020-06-28T17:21:58Z</time>
      </trkpt>
      <trkpt lat="48.73353" lon="7.28088">
        <ele>209.3</ele>
        <time>2020-06-28T17:21:59Z</time>
      </trkpt>
      <trkpt lat="48.73356" lon="7.28081">
        <ele>209.3</ele>
        <time>2020-06-28T17:22:00Z</time>
      </trkpt>
      <trkpt lat="48.73358" lon="7.28072">
        <ele>209.3</ele>
        <time>2020-06-28T17:22:01Z</time>
      </trkpt>
      <trkpt lat="48.73362" lon="7.28063">
        <ele>209.3</ele>
        <time>2020-06-28T17:22:02Z</time>
      </trkpt>
      <trkpt lat="48.73365" lon="7.28056">
        <ele>209.3</ele>
        <time>2020-06-28T17:22:03Z</time>
      </trkpt>
      <trkpt lat="48.73367" lon="7.2805">
        <ele>209.3</ele>
        <time>2020-06-28T17:22:04Z</time>
      </trkpt>
      <trkpt lat="48.7337" lon="7.28042">
        <ele>209.3</ele>
        <time>2020-06-28T17:22:05Z</time>
      </trkpt>
      <trkpt lat="48.73372" lon="7.28034">
        <ele>209.3</ele>
        <time>2020-06-28T17:22:06Z</time>
      </trkpt>
      <trkpt lat="48.73375" lon="7.28027">
        <ele>209.3</ele>
        <time>2020-06-28T17:22:07Z</time>
      </trkpt>
      <trkpt lat="48.73376" lon="7.28019">
        <ele>209.3</ele>
        <time>2020-06-28T17:22:08Z</time>
      </trkpt>
      <trkpt lat="48.73379" lon="7.28011">
        <ele>209.3</ele>
        <time>2020-06-28T17:22:09Z</time>
      </trkpt>
      <trkpt lat="48.73382" lon="7.28003">
        <ele>209.3</ele>
        <time>2020-06-28T17:22:10Z</time>
      </trkpt>
      <trkpt lat="48.73384" lon="7.27995">
        <ele>209.3</ele>
        <time>2020-06-28T17:22:11Z</time>
      </trkpt>
      <trkpt lat="48.73387" lon="7.27987">
        <ele>209.3</ele>
        <time>2020-06-28T17:22:12Z</time>
      </trkpt>
      <trkpt lat="48.73389" lon="7.27979">
        <ele>209.3</ele>
        <time>2020-06-28T17:22:13Z</time>
      </trkpt>
      <trkpt lat="48.73391" lon="7.27971">
        <ele>209.3</ele>
        <time>2020-06-28T17:22:14Z</time>
      </trkpt>
      <trkpt lat="48.73394" lon="7.27963">
        <ele>209.3</ele>
        <time>2020-06-28T17:22:15Z</time>
      </trkpt>
      <trkpt lat="48.73397" lon="7.27954">
        <ele>209.3</ele>
        <time>2020-06-28T17:22:16Z</time>
      </trkpt>
      <trkpt lat="48.73399" lon="7.27946">
        <ele>209.3</ele>
        <time>2020-06-28T17:22:17Z</time>
      </trkpt>
      <trkpt lat="48.73402" lon="7.27939">
        <ele>209.3</ele>
        <time>2020-06-28T17:22:18Z</time>
      </trkpt>
      <trkpt lat="48.73404" lon="7.27932">
        <ele>209.3</ele>
        <time>2020-06-28T17:22:19Z</time>
      </trkpt>
      <trkpt lat="48.73407" lon="7.27924">
        <ele>209.3</ele>
        <time>2020-06-28T17:22:20Z</time>
      </trkpt>
      <trkpt lat="48.7341" lon="7.27917">
        <ele>209.2</ele>
        <time>2020-06-28T17:22:21Z</time>
      </trkpt>
      <trkpt lat="48.73413" lon="7.27909">
        <ele>209.2</ele>
        <time>2020-06-28T17:22:22Z</time>
      </trkpt>
      <trkpt lat="48.73415" lon="7.27901">
        <ele>209.2</ele>
        <time>2020-06-28T17:22:23Z</time>
      </trkpt>
      <trkpt lat="48.73418" lon="7.27894">
        <ele>209.2</ele>
        <time>2020-06-28T17:22:24Z</time>
      </trkpt>
      <trkpt lat="48.73421" lon="7.27887">
        <ele>209.2</ele>
        <time>2020-06-28T17:22:25Z</time>
      </trkpt>
      <trkpt lat="48.73423" lon="7.2788">
        <ele>209.3</ele>
        <time>2020-06-28T17:22:26Z</time>
      </trkpt>
      <trkpt lat="48.73427" lon="7.27872">
        <ele>209.3</ele>
        <time>2020-06-28T17:22:27Z</time>
      </trkpt>
      <trkpt lat="48.73429" lon="7.27864">
        <ele>209.3</ele>
        <time>2020-06-28T17:22:28Z</time>
      </trkpt>
      <trkpt lat="48.73433" lon="7.27857">
        <ele>209.3</ele>
        <time>2020-06-28T17:22:29Z</time>
      </trkpt>
      <trkpt lat="48.73436" lon="7.27849">
        <ele>209.3</ele>
        <time>2020-06-28T17:22:30Z</time>
      </trkpt>
      <trkpt lat="48.73438" lon="7.27841">
        <ele>209.3</ele>
        <time>2020-06-28T17:22:31Z</time>
      </trkpt>
      <trkpt lat="48.73441" lon="7.27834">
        <ele>209.4</ele>
        <time>2020-06-28T17:22:32Z</time>
      </trkpt>
      <trkpt lat="48.73444" lon="7.27827">
        <ele>209.4</ele>
        <time>2020-06-28T17:22:33Z</time>
      </trkpt>
      <trkpt lat="48.73447" lon="7.2782">
        <ele>209.4</ele>
        <time>2020-06-28T17:22:34Z</time>
      </trkpt>
      <trkpt lat="48.7345" lon="7.27813">
        <ele>209.5</ele>
        <time>2020-06-28T17:22:35Z</time>
      </trkpt>
      <trkpt lat="48.73453" lon="7.27805">
        <ele>209.5</ele>
        <time>2020-06-28T17:22:36Z</time>
      </trkpt>
      <trkpt lat="48.73455" lon="7.27798">
        <ele>209.5</ele>
        <time>2020-06-28T17:22:37Z</time>
      </trkpt>
      <trkpt lat="48.73458" lon="7.2779">
        <ele>209.5</ele>
        <time>2020-06-28T17:22:38Z</time>
      </trkpt>
      <trkpt lat="48.73461" lon="7.27782">
        <ele>209.6</ele>
        <time>2020-06-28T17:22:39Z</time>
      </trkpt>
      <trkpt lat="48.73464" lon="7.27775">
        <ele>209.6</ele>
        <time>2020-06-28T17:22:40Z</time>
      </trkpt>
      <trkpt lat="48.73467" lon="7.27768">
        <ele>209.6</ele>
        <time>2020-06-28T17:22:41Z</time>
      </trkpt>
      <trkpt lat="48.73469" lon="7.2776">
        <ele>209.6</ele>
        <time>2020-06-28T17:22:42Z</time>
      </trkpt>
      <trkpt lat="48.73471" lon="7.27751">
        <ele>209.7</ele>
        <time>2020-06-28T17:22:43Z</time>
      </trkpt>
      <trkpt lat="48.73474" lon="7.27743">
        <ele>209.7</ele>
        <time>2020-06-28T17:22:44Z</time>
      </trkpt>
      <trkpt lat="48.73477" lon="7.27734">
        <ele>209.7</ele>
        <time>2020-06-28T17:22:45Z</time>
      </trkpt>
      <trkpt lat="48.73479" lon="7.27727">
        <ele>209.7</ele>
        <time>2020-06-28T17:22:46Z</time>
      </trkpt>
      <trkpt lat="48.73482" lon="7.27719">
        <ele>209.7</ele>
        <time>2020-06-28T17:22:47Z</time>
      </trkpt>
      <trkpt lat="48.73484" lon="7.2771">
        <ele>209.7</ele>
        <time>2020-06-28T17:22:48Z</time>
      </trkpt>
      <trkpt lat="48.73488" lon="7.27702">
        <ele>209.7</ele>
        <time>2020-06-28T17:22:49Z</time>
      </trkpt>
      <trkpt lat="48.7349" lon="7.27694">
        <ele>209.7</ele>
        <time>2020-06-28T17:22:50Z</time>
      </trkpt>
      <trkpt lat="48.73493" lon="7.27686">
        <ele>209.7</ele>
        <time>2020-06-28T17:22:51Z</time>
      </trkpt>
      <trkpt lat="48.73496" lon="7.27678">
        <ele>209.7</ele>
        <time>2020-06-28T17:22:52Z</time>
      </trkpt>
      <trkpt lat="48.73498" lon="7.27671">
        <ele>209.8</ele>
        <time>2020-06-28T17:22:53Z</time>
      </trkpt>
      <trkpt lat="48.73501" lon="7.27664">
        <ele>209.8</ele>
        <time>2020-06-28T17:22:54Z</time>
      </trkpt>
      <trkpt lat="48.73503" lon="7.27658">
        <ele>209.8</ele>
        <time>2020-06-28T17:22:55Z</time>
      </trkpt>
      <trkpt lat="48.73506" lon="7.27651">
        <ele>209.8</ele>
        <time>2020-06-28T17:22:56Z</time>
      </trkpt>
      <trkpt lat="48.73509" lon="7.27645">
        <ele>209.8</ele>
        <time>2020-06-28T17:22:57Z</time>
      </trkpt>
      <trkpt lat="48.73513" lon="7.27638">
        <ele>209.7</ele>
        <time>2020-06-28T17:22:58Z</time>
      </trkpt>
      <trkpt lat="48.73517" lon="7.2763">
        <ele>209.7</ele>
        <time>2020-06-28T17:22:59Z</time>
      </trkpt>
      <trkpt lat="48.7352" lon="7.27622">
        <ele>209.7</ele>
        <time>2020-06-28T17:23:00Z</time>
      </trkpt>
      <trkpt lat="48.73523" lon="7.27615">
        <ele>209.7</ele>
        <time>2020-06-28T17:23:01Z</time>
      </trkpt>
      <trkpt lat="48.73526" lon="7.27607">
        <ele>209.8</ele>
        <time>2020-06-28T17:23:02Z</time>
      </trkpt>
      <trkpt lat="48.7353" lon="7.276">
        <ele>209.8</ele>
        <time>2020-06-28T17:23:03Z</time>
      </trkpt>
      <trkpt lat="48.73533" lon="7.27592">
        <ele>209.8</ele>
        <time>2020-06-28T17:23:04Z</time>
      </trkpt>
      <trkpt lat="48.73537" lon="7.27585">
        <ele>209.7</ele>
        <time>2020-06-28T17:23:05Z</time>
      </trkpt>
      <trkpt lat="48.73541" lon="7.27578">
        <ele>209.7</ele>
        <time>2020-06-28T17:23:06Z</time>
      </trkpt>
      <trkpt lat="48.73544" lon="7.27572">
        <ele>209.6</ele>
        <time>2020-06-28T17:23:07Z</time>
      </trkpt>
      <trkpt lat="48.73547" lon="7.27565">
        <ele>209.6</ele>
        <time>2020-06-28T17:23:08Z</time>
      </trkpt>
      <trkpt lat="48.73551" lon="7.27559">
        <ele>209.6</ele>
        <time>2020-06-28T17:23:09Z</time>
      </trkpt>
      <trkpt lat="48.73553" lon="7.27553">
        <ele>209.6</ele>
        <time>2020-06-28T17:23:10Z</time>
      </trkpt>
      <trkpt lat="48.73556" lon="7.27546">
        <ele>209.6</ele>
        <time>2020-06-28T17:23:11Z</time>
      </trkpt>
      <trkpt lat="48.7356" lon="7.27539">
        <ele>209.6</ele>
        <time>2020-06-28T17:23:12Z</time>
      </trkpt>
      <trkpt lat="48.73563" lon="7.27532">
        <ele>209.6</ele>
        <time>2020-06-28T17:23:13Z</time>
      </trkpt>
      <trkpt lat="48.73567" lon="7.27525">
        <ele>209.6</ele>
        <time>2020-06-28T17:23:14Z</time>
      </trkpt>
      <trkpt lat="48.73572" lon="7.27519">
        <ele>209.6</ele>
        <time>2020-06-28T17:23:15Z</time>
      </trkpt>
      <trkpt lat="48.73575" lon="7.27513">
        <ele>209.5</ele>
        <time>2020-06-28T17:23:16Z</time>
      </trkpt>
      <trkpt lat="48.73579" lon="7.27507">
        <ele>209.5</ele>
        <time>2020-06-28T17:23:17Z</time>
      </trkpt>
      <trkpt lat="48.73582" lon="7.275">
        <ele>209.5</ele>
        <time>2020-06-28T17:23:18Z</time>
      </trkpt>
      <trkpt lat="48.73585" lon="7.27493">
        <ele>209.5</ele>
        <time>2020-06-28T17:23:19Z</time>
      </trkpt>
      <trkpt lat="48.73589" lon="7.27486">
        <ele>209.5</ele>
        <time>2020-06-28T17:23:20Z</time>
      </trkpt>
      <trkpt lat="48.73592" lon="7.27479">
        <ele>209.4</ele>
        <time>2020-06-28T17:23:21Z</time>
      </trkpt>
      <trkpt lat="48.73596" lon="7.27473">
        <ele>209.4</ele>
        <time>2020-06-28T17:23:22Z</time>
      </trkpt>
      <trkpt lat="48.736" lon="7.27466">
        <ele>209.4</ele>
        <time>2020-06-28T17:23:23Z</time>
      </trkpt>
      <trkpt lat="48.73604" lon="7.2746">
        <ele>209.4</ele>
        <time>2020-06-28T17:23:24Z</time>
      </trkpt>
      <trkpt lat="48.73608" lon="7.27454">
        <ele>209.4</ele>
        <time>2020-06-28T17:23:25Z</time>
      </trkpt>
      <trkpt lat="48.73612" lon="7.27446">
        <ele>209.4</ele>
        <time>2020-06-28T17:23:26Z</time>
      </trkpt>
      <trkpt lat="48.73616" lon="7.27439">
        <ele>209.4</ele>
        <time>2020-06-28T17:23:27Z</time>
      </trkpt>
      <trkpt lat="48.73619" lon="7.27433">
        <ele>209.4</ele>
        <time>2020-06-28T17:23:28Z</time>
      </trkpt>
      <trkpt lat="48.73623" lon="7.27426">
        <ele>209.4</ele>
        <time>2020-06-28T17:23:29Z</time>
      </trkpt>
      <trkpt lat="48.73626" lon="7.27419">
        <ele>209.4</ele>
        <time>2020-06-28T17:23:30Z</time>
      </trkpt>
      <trkpt lat="48.73629" lon="7.27412">
        <ele>209.4</ele>
        <time>2020-06-28T17:23:31Z</time>
      </trkpt>
      <trkpt lat="48.73633" lon="7.27405">
        <ele>209.4</ele>
        <time>2020-06-28T17:23:32Z</time>
      </trkpt>
      <trkpt lat="48.73636" lon="7.27399">
        <ele>209.4</ele>
        <time>2020-06-28T17:23:33Z</time>
      </trkpt>
      <trkpt lat="48.73639" lon="7.27393">
        <ele>209.3</ele>
        <time>2020-06-28T17:23:34Z</time>
      </trkpt>
      <trkpt lat="48.73641" lon="7.27387">
        <ele>209.3</ele>
        <time>2020-06-28T17:23:35Z</time>
      </trkpt>
      <trkpt lat="48.73645" lon="7.2738">
        <ele>209.3</ele>
        <time>2020-06-28T17:23:36Z</time>
      </trkpt>
      <trkpt lat="48.73648" lon="7.27372">
        <ele>209.3</ele>
        <time>2020-06-28T17:23:37Z</time>
      </trkpt>
      <trkpt lat="48.73651" lon="7.27364">
        <ele>209.3</ele>
        <time>2020-06-28T17:23:38Z</time>
      </trkpt>
      <trkpt lat="48.73656" lon="7.27357">
        <ele>209.3</ele>
        <time>2020-06-28T17:23:39Z</time>
      </trkpt>
      <trkpt lat="48.73661" lon="7.2735">
        <ele>209.3</ele>
        <time>2020-06-28T17:23:40Z</time>
      </trkpt>
      <trkpt lat="48.73666" lon="7.27343">
        <ele>209.3</ele>
        <time>2020-06-28T17:23:41Z</time>
      </trkpt>
      <trkpt lat="48.73672" lon="7.27336">
        <ele>209.4</ele>
        <time>2020-06-28T17:23:42Z</time>
      </trkpt>
      <trkpt lat="48.73677" lon="7.27329">
        <ele>209.5</ele>
        <time>2020-06-28T17:23:43Z</time>
      </trkpt>
      <trkpt lat="48.73681" lon="7.27323">
        <ele>209.6</ele>
        <time>2020-06-28T17:23:44Z</time>
      </trkpt>
      <trkpt lat="48.73685" lon="7.27317">
        <ele>209.8</ele>
        <time>2020-06-28T17:23:45Z</time>
      </trkpt>
      <trkpt lat="48.73689" lon="7.27312">
        <ele>210</ele>
        <time>2020-06-28T17:23:46Z</time>
      </trkpt>
      <trkpt lat="48.73693" lon="7.27308">
        <ele>210.2</ele>
        <time>2020-06-28T17:23:47Z</time>
      </trkpt>
      <trkpt lat="48.73697" lon="7.27305">
        <ele>210.4</ele>
        <time>2020-06-28T17:23:48Z</time>
      </trkpt>
      <trkpt lat="48.737" lon="7.27301">
        <ele>210.7</ele>
        <time>2020-06-28T17:23:49Z</time>
      </trkpt>
      <trkpt lat="48.73704" lon="7.27296">
        <ele>210.8</ele>
        <time>2020-06-28T17:23:50Z</time>
      </trkpt>
      <trkpt lat="48.73708" lon="7.2729">
        <ele>210.9</ele>
        <time>2020-06-28T17:23:51Z</time>
      </trkpt>
      <trkpt lat="48.73711" lon="7.27284">
        <ele>211</ele>
        <time>2020-06-28T17:23:52Z</time>
      </trkpt>
      <trkpt lat="48.73714" lon="7.27278">
        <ele>211</ele>
        <time>2020-06-28T17:23:53Z</time>
      </trkpt>
      <trkpt lat="48.73718" lon="7.27271">
        <ele>211</ele>
        <time>2020-06-28T17:23:54Z</time>
      </trkpt>
      <trkpt lat="48.73722" lon="7.27264">
        <ele>211</ele>
        <time>2020-06-28T17:23:55Z</time>
      </trkpt>
      <trkpt lat="48.73727" lon="7.27258">
        <ele>211.1</ele>
        <time>2020-06-28T17:23:56Z</time>
      </trkpt>
      <trkpt lat="48.73731" lon="7.27251">
        <ele>211.1</ele>
        <time>2020-06-28T17:23:57Z</time>
      </trkpt>
      <trkpt lat="48.73735" lon="7.27245">
        <ele>211.2</ele>
        <time>2020-06-28T17:23:58Z</time>
      </trkpt>
      <trkpt lat="48.73739" lon="7.27237">
        <ele>211.2</ele>
        <time>2020-06-28T17:23:59Z</time>
      </trkpt>
      <trkpt lat="48.73743" lon="7.2723">
        <ele>211.3</ele>
        <time>2020-06-28T17:24:00Z</time>
      </trkpt>
      <trkpt lat="48.73747" lon="7.27224">
        <ele>211.3</ele>
        <time>2020-06-28T17:24:01Z</time>
      </trkpt>
      <trkpt lat="48.73751" lon="7.27216">
        <ele>211.3</ele>
        <time>2020-06-28T17:24:02Z</time>
      </trkpt>
      <trkpt lat="48.73755" lon="7.27209">
        <ele>211.4</ele>
        <time>2020-06-28T17:24:03Z</time>
      </trkpt>
      <trkpt lat="48.73759" lon="7.27202">
        <ele>211.4</ele>
        <time>2020-06-28T17:24:04Z</time>
      </trkpt>
      <trkpt lat="48.73762" lon="7.27195">
        <ele>211.4</ele>
        <time>2020-06-28T17:24:05Z</time>
      </trkpt>
      <trkpt lat="48.73765" lon="7.27186">
        <ele>211.4</ele>
        <time>2020-06-28T17:24:06Z</time>
      </trkpt>
      <trkpt lat="48.73768" lon="7.27179">
        <ele>211.5</ele>
        <time>2020-06-28T17:24:07Z</time>
      </trkpt>
      <trkpt lat="48.7377" lon="7.27171">
        <ele>211.5</ele>
        <time>2020-06-28T17:24:08Z</time>
      </trkpt>
      <trkpt lat="48.73773" lon="7.27163">
        <ele>211.5</ele>
        <time>2020-06-28T17:24:09Z</time>
      </trkpt>
      <trkpt lat="48.73775" lon="7.27156">
        <ele>211.5</ele>
        <time>2020-06-28T17:24:10Z</time>
      </trkpt>
      <trkpt lat="48.73778" lon="7.27148">
        <ele>211.5</ele>
        <time>2020-06-28T17:24:11Z</time>
      </trkpt>
      <trkpt lat="48.73781" lon="7.27141">
        <ele>211.6</ele>
        <time>2020-06-28T17:24:12Z</time>
      </trkpt>
      <trkpt lat="48.73783" lon="7.27133">
        <ele>211.7</ele>
        <time>2020-06-28T17:24:13Z</time>
      </trkpt>
      <trkpt lat="48.73784" lon="7.27126">
        <ele>211.7</ele>
        <time>2020-06-28T17:24:14Z</time>
      </trkpt>
      <trkpt lat="48.73786" lon="7.27117">
        <ele>211.6</ele>
        <time>2020-06-28T17:24:15Z</time>
      </trkpt>
      <trkpt lat="48.73787" lon="7.27108">
        <ele>211.6</ele>
        <time>2020-06-28T17:24:16Z</time>
      </trkpt>
      <trkpt lat="48.73789" lon="7.27099">
        <ele>211.6</ele>
        <time>2020-06-28T17:24:17Z</time>
      </trkpt>
      <trkpt lat="48.7379" lon="7.2709">
        <ele>211.6</ele>
        <time>2020-06-28T17:24:18Z</time>
      </trkpt>
      <trkpt lat="48.73792" lon="7.27081">
        <ele>211.6</ele>
        <time>2020-06-28T17:24:19Z</time>
      </trkpt>
      <trkpt lat="48.73793" lon="7.27072">
        <ele>211.6</ele>
        <time>2020-06-28T17:24:20Z</time>
      </trkpt>
      <trkpt lat="48.73794" lon="7.27063">
        <ele>211.5</ele>
        <time>2020-06-28T17:24:21Z</time>
      </trkpt>
      <trkpt lat="48.73795" lon="7.27056">
        <ele>211.5</ele>
        <time>2020-06-28T17:24:22Z</time>
      </trkpt>
      <trkpt lat="48.73797" lon="7.27048">
        <ele>211.5</ele>
        <time>2020-06-28T17:24:23Z</time>
      </trkpt>
      <trkpt lat="48.73798" lon="7.27038">
        <ele>211.4</ele>
        <time>2020-06-28T17:24:24Z</time>
      </trkpt>
      <trkpt lat="48.738" lon="7.27029">
        <ele>211.4</ele>
        <time>2020-06-28T17:24:25Z</time>
      </trkpt>
      <trkpt lat="48.73801" lon="7.2702">
        <ele>211.4</ele>
        <time>2020-06-28T17:24:26Z</time>
      </trkpt>
      <trkpt lat="48.73803" lon="7.27012">
        <ele>211.4</ele>
        <time>2020-06-28T17:24:27Z</time>
      </trkpt>
      <trkpt lat="48.73803" lon="7.27003">
        <ele>211.3</ele>
        <time>2020-06-28T17:24:28Z</time>
      </trkpt>
      <trkpt lat="48.73803" lon="7.26995">
        <ele>211.3</ele>
        <time>2020-06-28T17:24:29Z</time>
      </trkpt>
      <trkpt lat="48.73803" lon="7.26987">
        <ele>211.3</ele>
        <time>2020-06-28T17:24:30Z</time>
      </trkpt>
      <trkpt lat="48.73803" lon="7.26977">
        <ele>211.4</ele>
        <time>2020-06-28T17:24:31Z</time>
      </trkpt>
      <trkpt lat="48.73802" lon="7.26968">
        <ele>211.4</ele>
        <time>2020-06-28T17:24:32Z</time>
      </trkpt>
      <trkpt lat="48.73802" lon="7.26958">
        <ele>211.4</ele>
        <time>2020-06-28T17:24:33Z</time>
      </trkpt>
      <trkpt lat="48.73802" lon="7.26948">
        <ele>211.4</ele>
        <time>2020-06-28T17:24:34Z</time>
      </trkpt>
      <trkpt lat="48.73803" lon="7.26937">
        <ele>211.4</ele>
        <time>2020-06-28T17:24:35Z</time>
      </trkpt>
      <trkpt lat="48.73803" lon="7.26929">
        <ele>211.4</ele>
        <time>2020-06-28T17:24:36Z</time>
      </trkpt>
      <trkpt lat="48.73804" lon="7.26919">
        <ele>211.4</ele>
        <time>2020-06-28T17:24:37Z</time>
      </trkpt>
      <trkpt lat="48.73804" lon="7.2691">
        <ele>211.3</ele>
        <time>2020-06-28T17:24:38Z</time>
      </trkpt>
      <trkpt lat="48.73805" lon="7.26901">
        <ele>211.4</ele>
        <time>2020-06-28T17:24:39Z</time>
      </trkpt>
      <trkpt lat="48.73805" lon="7.26892">
        <ele>211.4</ele>
        <time>2020-06-28T17:24:40Z</time>
      </trkpt>
      <trkpt lat="48.73805" lon="7.26882">
        <ele>211.4</ele>
        <time>2020-06-28T17:24:41Z</time>
      </trkpt>
      <trkpt lat="48.73806" lon="7.26873">
        <ele>211.4</ele>
        <time>2020-06-28T17:24:42Z</time>
      </trkpt>
      <trkpt lat="48.73806" lon="7.26863">
        <ele>211.4</ele>
        <time>2020-06-28T17:24:43Z</time>
      </trkpt>
      <trkpt lat="48.73806" lon="7.26853">
        <ele>211.4</ele>
        <time>2020-06-28T17:24:44Z</time>
      </trkpt>
      <trkpt lat="48.73806" lon="7.26844">
        <ele>211.4</ele>
        <time>2020-06-28T17:24:45Z</time>
      </trkpt>
      <trkpt lat="48.73806" lon="7.26836">
        <ele>211.4</ele>
        <time>2020-06-28T17:24:46Z</time>
      </trkpt>
      <trkpt lat="48.73807" lon="7.26827">
        <ele>211.3</ele>
        <time>2020-06-28T17:24:47Z</time>
      </trkpt>
      <trkpt lat="48.73808" lon="7.26817">
        <ele>211.3</ele>
        <time>2020-06-28T17:24:48Z</time>
      </trkpt>
      <trkpt lat="48.73808" lon="7.26807">
        <ele>211.4</ele>
        <time>2020-06-28T17:24:49Z</time>
      </trkpt>
      <trkpt lat="48.73809" lon="7.26796">
        <ele>211.4</ele>
        <time>2020-06-28T17:24:50Z</time>
      </trkpt>
      <trkpt lat="48.7381" lon="7.26787">
        <ele>211.4</ele>
        <time>2020-06-28T17:24:51Z</time>
      </trkpt>
      <trkpt lat="48.73809" lon="7.26776">
        <ele>211.4</ele>
        <time>2020-06-28T17:24:52Z</time>
      </trkpt>
      <trkpt lat="48.7381" lon="7.26767">
        <ele>211.4</ele>
        <time>2020-06-28T17:24:53Z</time>
      </trkpt>
      <trkpt lat="48.7381" lon="7.26758">
        <ele>211.4</ele>
        <time>2020-06-28T17:24:54Z</time>
      </trkpt>
      <trkpt lat="48.73811" lon="7.26748">
        <ele>211.4</ele>
        <time>2020-06-28T17:24:55Z</time>
      </trkpt>
      <trkpt lat="48.73812" lon="7.26739">
        <ele>211.5</ele>
        <time>2020-06-28T17:24:56Z</time>
      </trkpt>
      <trkpt lat="48.73813" lon="7.2673">
        <ele>211.5</ele>
        <time>2020-06-28T17:24:57Z</time>
      </trkpt>
      <trkpt lat="48.73813" lon="7.26719">
        <ele>211.5</ele>
        <time>2020-06-28T17:24:58Z</time>
      </trkpt>
      <trkpt lat="48.73813" lon="7.2671">
        <ele>211.5</ele>
        <time>2020-06-28T17:24:59Z</time>
      </trkpt>
      <trkpt lat="48.73813" lon="7.267">
        <ele>211.5</ele>
        <time>2020-06-28T17:25:00Z</time>
      </trkpt>
      <trkpt lat="48.73814" lon="7.26691">
        <ele>211.5</ele>
        <time>2020-06-28T17:25:01Z</time>
      </trkpt>
      <trkpt lat="48.73814" lon="7.26682">
        <ele>211.5</ele>
        <time>2020-06-28T17:25:02Z</time>
      </trkpt>
      <trkpt lat="48.73815" lon="7.26672">
        <ele>211.6</ele>
        <time>2020-06-28T17:25:03Z</time>
      </trkpt>
      <trkpt lat="48.73815" lon="7.26663">
        <ele>211.6</ele>
        <time>2020-06-28T17:25:04Z</time>
      </trkpt>
      <trkpt lat="48.73815" lon="7.26654">
        <ele>211.6</ele>
        <time>2020-06-28T17:25:05Z</time>
      </trkpt>
      <trkpt lat="48.73814" lon="7.26643">
        <ele>211.5</ele>
        <time>2020-06-28T17:25:06Z</time>
      </trkpt>
      <trkpt lat="48.73815" lon="7.26636">
        <ele>211.5</ele>
        <time>2020-06-28T17:25:07Z</time>
      </trkpt>
      <trkpt lat="48.73815" lon="7.26628">
        <ele>211.5</ele>
        <time>2020-06-28T17:25:08Z</time>
      </trkpt>
      <trkpt lat="48.73816" lon="7.2662">
        <ele>211.5</ele>
        <time>2020-06-28T17:25:09Z</time>
      </trkpt>
      <trkpt lat="48.73816" lon="7.26611">
        <ele>211.5</ele>
        <time>2020-06-28T17:25:10Z</time>
      </trkpt>
      <trkpt lat="48.73816" lon="7.26602">
        <ele>211.5</ele>
        <time>2020-06-28T17:25:11Z</time>
      </trkpt>
      <trkpt lat="48.73816" lon="7.26593">
        <ele>211.5</ele>
        <time>2020-06-28T17:25:12Z</time>
      </trkpt>
      <trkpt lat="48.73816" lon="7.26583">
        <ele>211.5</ele>
        <time>2020-06-28T17:25:13Z</time>
      </trkpt>
      <trkpt lat="48.73817" lon="7.26573">
        <ele>211.5</ele>
        <time>2020-06-28T17:25:14Z</time>
      </trkpt>
      <trkpt lat="48.73817" lon="7.26564">
        <ele>211.5</ele>
        <time>2020-06-28T17:25:15Z</time>
      </trkpt>
      <trkpt lat="48.73817" lon="7.26554">
        <ele>211.5</ele>
        <time>2020-06-28T17:25:16Z</time>
      </trkpt>
      <trkpt lat="48.73817" lon="7.26546">
        <ele>211.5</ele>
        <time>2020-06-28T17:25:17Z</time>
      </trkpt>
      <trkpt lat="48.73817" lon="7.26535">
        <ele>211.5</ele>
        <time>2020-06-28T17:25:18Z</time>
      </trkpt>
      <trkpt lat="48.73817" lon="7.26528">
        <ele>211.5</ele>
        <time>2020-06-28T17:25:19Z</time>
      </trkpt>
      <trkpt lat="48.73816" lon="7.2652">
        <ele>211.5</ele>
        <time>2020-06-28T17:25:20Z</time>
      </trkpt>
      <trkpt lat="48.73815" lon="7.26513">
        <ele>211.5</ele>
        <time>2020-06-28T17:25:21Z</time>
      </trkpt>
      <trkpt lat="48.73815" lon="7.26506">
        <ele>211.5</ele>
        <time>2020-06-28T17:25:22Z</time>
      </trkpt>
      <trkpt lat="48.73814" lon="7.26497">
        <ele>211.5</ele>
        <time>2020-06-28T17:25:23Z</time>
      </trkpt>
      <trkpt lat="48.73812" lon="7.26488">
        <ele>211.4</ele>
        <time>2020-06-28T17:25:24Z</time>
      </trkpt>
      <trkpt lat="48.73811" lon="7.26478">
        <ele>211.4</ele>
        <time>2020-06-28T17:25:25Z</time>
      </trkpt>
      <trkpt lat="48.7381" lon="7.26469">
        <ele>211.5</ele>
        <time>2020-06-28T17:25:26Z</time>
      </trkpt>
      <trkpt lat="48.73809" lon="7.2646">
        <ele>211.5</ele>
        <time>2020-06-28T17:25:27Z</time>
      </trkpt>
      <trkpt lat="48.73807" lon="7.26451">
        <ele>211.5</ele>
        <time>2020-06-28T17:25:28Z</time>
      </trkpt>
      <trkpt lat="48.73804" lon="7.26442">
        <ele>211.5</ele>
        <time>2020-06-28T17:25:29Z</time>
      </trkpt>
      <trkpt lat="48.73803" lon="7.26434">
        <ele>211.5</ele>
        <time>2020-06-28T17:25:30Z</time>
      </trkpt>
      <trkpt lat="48.738" lon="7.26427">
        <ele>211.5</ele>
        <time>2020-06-28T17:25:31Z</time>
      </trkpt>
      <trkpt lat="48.73798" lon="7.26419">
        <ele>211.5</ele>
        <time>2020-06-28T17:25:32Z</time>
      </trkpt>
      <trkpt lat="48.73797" lon="7.26412">
        <ele>211.5</ele>
        <time>2020-06-28T17:25:33Z</time>
      </trkpt>
      <trkpt lat="48.73795" lon="7.26406">
        <ele>211.5</ele>
        <time>2020-06-28T17:25:34Z</time>
      </trkpt>
      <trkpt lat="48.73793" lon="7.26401">
        <ele>211.5</ele>
        <time>2020-06-28T17:25:35Z</time>
      </trkpt>
      <trkpt lat="48.73791" lon="7.26393">
        <ele>211.5</ele>
        <time>2020-06-28T17:25:36Z</time>
      </trkpt>
      <trkpt lat="48.73789" lon="7.26385">
        <ele>211.5</ele>
        <time>2020-06-28T17:25:37Z</time>
      </trkpt>
      <trkpt lat="48.73786" lon="7.26376">
        <ele>211.5</ele>
        <time>2020-06-28T17:25:38Z</time>
      </trkpt>
      <trkpt lat="48.73782" lon="7.26367">
        <ele>211.5</ele>
        <time>2020-06-28T17:25:39Z</time>
      </trkpt>
      <trkpt lat="48.73779" lon="7.26359">
        <ele>211.6</ele>
        <time>2020-06-28T17:25:40Z</time>
      </trkpt>
      <trkpt lat="48.73776" lon="7.26352">
        <ele>211.6</ele>
        <time>2020-06-28T17:25:41Z</time>
      </trkpt>
      <trkpt lat="48.73772" lon="7.26345">
        <ele>211.6</ele>
        <time>2020-06-28T17:25:42Z</time>
      </trkpt>
      <trkpt lat="48.73769" lon="7.26338">
        <ele>211.6</ele>
        <time>2020-06-28T17:25:43Z</time>
      </trkpt>
      <trkpt lat="48.73767" lon="7.26334">
        <ele>211.6</ele>
        <time>2020-06-28T17:25:44Z</time>
      </trkpt>
      <trkpt lat="48.73764" lon="7.26328">
        <ele>211.7</ele>
        <time>2020-06-28T17:25:45Z</time>
      </trkpt>
      <trkpt lat="48.73761" lon="7.26321">
        <ele>211.7</ele>
        <time>2020-06-28T17:25:46Z</time>
      </trkpt>
      <trkpt lat="48.73757" lon="7.26312">
        <ele>211.7</ele>
        <time>2020-06-28T17:25:47Z</time>
      </trkpt>
      <trkpt lat="48.73754" lon="7.26305">
        <ele>211.7</ele>
        <time>2020-06-28T17:25:48Z</time>
      </trkpt>
      <trkpt lat="48.73749" lon="7.26295">
        <ele>211.6</ele>
        <time>2020-06-28T17:25:49Z</time>
      </trkpt>
      <trkpt lat="48.73746" lon="7.26287">
        <ele>211.6</ele>
        <time>2020-06-28T17:25:50Z</time>
      </trkpt>
      <trkpt lat="48.73742" lon="7.26277">
        <ele>211.6</ele>
        <time>2020-06-28T17:25:51Z</time>
      </trkpt>
      <trkpt lat="48.73739" lon="7.2627">
        <ele>211.6</ele>
        <time>2020-06-28T17:25:52Z</time>
      </trkpt>
      <trkpt lat="48.73735" lon="7.26262">
        <ele>211.6</ele>
        <time>2020-06-28T17:25:53Z</time>
      </trkpt>
      <trkpt lat="48.73731" lon="7.26254">
        <ele>211.6</ele>
        <time>2020-06-28T17:25:54Z</time>
      </trkpt>
      <trkpt lat="48.73727" lon="7.26246">
        <ele>211.6</ele>
        <time>2020-06-28T17:25:55Z</time>
      </trkpt>
      <trkpt lat="48.73724" lon="7.26237">
        <ele>211.6</ele>
        <time>2020-06-28T17:25:56Z</time>
      </trkpt>
      <trkpt lat="48.73721" lon="7.2623">
        <ele>211.7</ele>
        <time>2020-06-28T17:25:57Z</time>
      </trkpt>
      <trkpt lat="48.73717" lon="7.26222">
        <ele>211.7</ele>
        <time>2020-06-28T17:25:58Z</time>
      </trkpt>
      <trkpt lat="48.73714" lon="7.26216">
        <ele>211.7</ele>
        <time>2020-06-28T17:25:59Z</time>
      </trkpt>
      <trkpt lat="48.73711" lon="7.26208">
        <ele>211.7</ele>
        <time>2020-06-28T17:26:00Z</time>
      </trkpt>
      <trkpt lat="48.73708" lon="7.262">
        <ele>211.7</ele>
        <time>2020-06-28T17:26:01Z</time>
      </trkpt>
      <trkpt lat="48.73705" lon="7.26193">
        <ele>211.7</ele>
        <time>2020-06-28T17:26:02Z</time>
      </trkpt>
      <trkpt lat="48.73701" lon="7.26187">
        <ele>211.7</ele>
        <time>2020-06-28T17:26:03Z</time>
      </trkpt>
      <trkpt lat="48.73698" lon="7.26181">
        <ele>211.7</ele>
        <time>2020-06-28T17:26:04Z</time>
      </trkpt>
      <trkpt lat="48.73695" lon="7.26173">
        <ele>211.7</ele>
        <time>2020-06-28T17:26:05Z</time>
      </trkpt>
      <trkpt lat="48.73692" lon="7.26167">
        <ele>211.7</ele>
        <time>2020-06-28T17:26:06Z</time>
      </trkpt>
      <trkpt lat="48.73689" lon="7.2616">
        <ele>211.8</ele>
        <time>2020-06-28T17:26:07Z</time>
      </trkpt>
      <trkpt lat="48.73685" lon="7.26152">
        <ele>211.8</ele>
        <time>2020-06-28T17:26:08Z</time>
      </trkpt>
      <trkpt lat="48.73682" lon="7.26146">
        <ele>211.8</ele>
        <time>2020-06-28T17:26:09Z</time>
      </trkpt>
      <trkpt lat="48.73679" lon="7.26138">
        <ele>211.8</ele>
        <time>2020-06-28T17:26:10Z</time>
      </trkpt>
      <trkpt lat="48.73675" lon="7.26131">
        <ele>211.9</ele>
        <time>2020-06-28T17:26:11Z</time>
      </trkpt>
      <trkpt lat="48.73672" lon="7.26124">
        <ele>211.9</ele>
        <time>2020-06-28T17:26:12Z</time>
      </trkpt>
      <trkpt lat="48.73669" lon="7.26118">
        <ele>211.9</ele>
        <time>2020-06-28T17:26:13Z</time>
      </trkpt>
      <trkpt lat="48.73665" lon="7.26111">
        <ele>211.9</ele>
        <time>2020-06-28T17:26:14Z</time>
      </trkpt>
      <trkpt lat="48.73662" lon="7.26105">
        <ele>211.9</ele>
        <time>2020-06-28T17:26:15Z</time>
      </trkpt>
      <trkpt lat="48.73659" lon="7.26098">
        <ele>211.9</ele>
        <time>2020-06-28T17:26:16Z</time>
      </trkpt>
      <trkpt lat="48.73656" lon="7.26091">
        <ele>211.9</ele>
        <time>2020-06-28T17:26:17Z</time>
      </trkpt>
      <trkpt lat="48.73652" lon="7.26083">
        <ele>211.9</ele>
        <time>2020-06-28T17:26:18Z</time>
      </trkpt>
      <trkpt lat="48.73649" lon="7.26075">
        <ele>211.9</ele>
        <time>2020-06-28T17:26:19Z</time>
      </trkpt>
      <trkpt lat="48.73646" lon="7.26068">
        <ele>211.9</ele>
        <time>2020-06-28T17:26:20Z</time>
      </trkpt>
      <trkpt lat="48.73643" lon="7.2606">
        <ele>211.9</ele>
        <time>2020-06-28T17:26:21Z</time>
      </trkpt>
      <trkpt lat="48.7364" lon="7.26052">
        <ele>211.9</ele>
        <time>2020-06-28T17:26:22Z</time>
      </trkpt>
      <trkpt lat="48.73637" lon="7.26046">
        <ele>211.9</ele>
        <time>2020-06-28T17:26:23Z</time>
      </trkpt>
      <trkpt lat="48.73635" lon="7.26038">
        <ele>211.9</ele>
        <time>2020-06-28T17:26:24Z</time>
      </trkpt>
      <trkpt lat="48.73631" lon="7.26032">
        <ele>211.9</ele>
        <time>2020-06-28T17:26:25Z</time>
      </trkpt>
      <trkpt lat="48.73627" lon="7.26025">
        <ele>211.9</ele>
        <time>2020-06-28T17:26:26Z</time>
      </trkpt>
      <trkpt lat="48.73623" lon="7.26019">
        <ele>212</ele>
        <time>2020-06-28T17:26:27Z</time>
      </trkpt>
      <trkpt lat="48.73619" lon="7.26013">
        <ele>212</ele>
        <time>2020-06-28T17:26:28Z</time>
      </trkpt>
      <trkpt lat="48.73616" lon="7.26004">
        <ele>212.1</ele>
        <time>2020-06-28T17:26:29Z</time>
      </trkpt>
      <trkpt lat="48.73613" lon="7.25996">
        <ele>212.2</ele>
        <time>2020-06-28T17:26:30Z</time>
      </trkpt>
      <trkpt lat="48.73609" lon="7.25987">
        <ele>212.3</ele>
        <time>2020-06-28T17:26:31Z</time>
      </trkpt>
      <trkpt lat="48.73605" lon="7.25979">
        <ele>212.3</ele>
        <time>2020-06-28T17:26:32Z</time>
      </trkpt>
      <trkpt lat="48.73602" lon="7.25971">
        <ele>212.4</ele>
        <time>2020-06-28T17:26:33Z</time>
      </trkpt>
      <trkpt lat="48.73599" lon="7.25964">
        <ele>212.5</ele>
        <time>2020-06-28T17:26:34Z</time>
      </trkpt>
      <trkpt lat="48.73596" lon="7.25956">
        <ele>212.6</ele>
        <time>2020-06-28T17:26:35Z</time>
      </trkpt>
      <trkpt lat="48.73594" lon="7.25948">
        <ele>212.8</ele>
        <time>2020-06-28T17:26:36Z</time>
      </trkpt>
      <trkpt lat="48.73592" lon="7.25939">
        <ele>212.9</ele>
        <time>2020-06-28T17:26:37Z</time>
      </trkpt>
      <trkpt lat="48.7359" lon="7.25932">
        <ele>213.1</ele>
        <time>2020-06-28T17:26:38Z</time>
      </trkpt>
      <trkpt lat="48.73588" lon="7.25924">
        <ele>213.4</ele>
        <time>2020-06-28T17:26:39Z</time>
      </trkpt>
      <trkpt lat="48.73587" lon="7.25916">
        <ele>213.7</ele>
        <time>2020-06-28T17:26:40Z</time>
      </trkpt>
      <trkpt lat="48.73587" lon="7.25909">
        <ele>214</ele>
        <time>2020-06-28T17:26:41Z</time>
      </trkpt>
      <trkpt lat="48.73586" lon="7.25903">
        <ele>214.4</ele>
        <time>2020-06-28T17:26:42Z</time>
      </trkpt>
      <trkpt lat="48.73585" lon="7.25897">
        <ele>214.6</ele>
        <time>2020-06-28T17:26:43Z</time>
      </trkpt>
      <trkpt lat="48.73584" lon="7.25892">
        <ele>214.9</ele>
        <time>2020-06-28T17:26:44Z</time>
      </trkpt>
      <trkpt lat="48.73584" lon="7.25886">
        <ele>215.2</ele>
        <time>2020-06-28T17:26:45Z</time>
      </trkpt>
      <trkpt lat="48.73585" lon="7.2588">
        <ele>215.2</ele>
        <time>2020-06-28T17:26:46Z</time>
      </trkpt>
      <trkpt lat="48.73586" lon="7.25878">
        <ele>215.2</ele>
        <time>2020-06-28T17:26:47Z</time>
      </trkpt>
      <trkpt lat="48.73587" lon="7.25875">
        <ele>215.2</ele>
        <time>2020-06-28T17:26:48Z</time>
      </trkpt>
      <trkpt lat="48.73587" lon="7.25874">
        <ele>215.2</ele>
        <time>2020-06-28T17:26:49Z</time>
      </trkpt>
      <trkpt lat="48.73587" lon="7.25874">
        <ele>215.2</ele>
        <time>2020-06-28T17:26:50Z</time>
      </trkpt>
      <trkpt lat="48.73587" lon="7.25875">
        <ele>215.1</ele>
        <time>2020-06-28T17:26:51Z</time>
      </trkpt>
      <trkpt lat="48.73587" lon="7.25875">
        <ele>215.1</ele>
        <time>2020-06-28T17:26:52Z</time>
      </trkpt>
      <trkpt lat="48.73588" lon="7.25876">
        <ele>215.1</ele>
        <time>2020-06-28T17:26:53Z</time>
      </trkpt>
      <trkpt lat="48.73589" lon="7.25877">
        <ele>215.1</ele>
        <time>2020-06-28T17:26:54Z</time>
      </trkpt>
      <trkpt lat="48.73589" lon="7.25878">
        <ele>215.1</ele>
        <time>2020-06-28T17:26:55Z</time>
      </trkpt>
      <trkpt lat="48.73591" lon="7.25879">
        <ele>215.1</ele>
        <time>2020-06-28T17:26:56Z</time>
      </trkpt>
      <trkpt lat="48.73592" lon="7.25879">
        <ele>215.1</ele>
        <time>2020-06-28T17:26:57Z</time>
      </trkpt>
      <trkpt lat="48.73593" lon="7.25876">
        <ele>215.1</ele>
        <time>2020-06-28T17:26:58Z</time>
      </trkpt>
      <trkpt lat="48.73593" lon="7.25874">
        <ele>215.1</ele>
        <time>2020-06-28T17:26:59Z</time>
      </trkpt>
      <trkpt lat="48.73593" lon="7.25871">
        <ele>215</ele>
        <time>2020-06-28T17:27:00Z</time>
      </trkpt>
      <trkpt lat="48.73594" lon="7.25868">
        <ele>215</ele>
        <time>2020-06-28T17:27:25Z</time>
      </trkpt>
      <trkpt lat="48.73594" lon="7.25866">
        <ele>215</ele>
        <time>2020-06-28T17:27:26Z</time>
      </trkpt>
      <trkpt lat="48.7359" lon="7.25861">
        <ele>214.9</ele>
        <time>2020-06-28T17:27:27Z</time>
      </trkpt>
      <trkpt lat="48.73587" lon="7.25855">
        <ele>214.9</ele>
        <time>2020-06-28T17:27:28Z</time>
      </trkpt>
      <trkpt lat="48.73587" lon="7.25847">
        <ele>214.8</ele>
        <time>2020-06-28T17:27:29Z</time>
      </trkpt>
      <trkpt lat="48.73586" lon="7.25839">
        <ele>214.8</ele>
        <time>2020-06-28T17:27:30Z</time>
      </trkpt>
      <trkpt lat="48.73585" lon="7.25833">
        <ele>214.7</ele>
        <time>2020-06-28T17:27:31Z</time>
      </trkpt>
      <trkpt lat="48.73584" lon="7.25827">
        <ele>214.7</ele>
        <time>2020-06-28T17:27:32Z</time>
      </trkpt>
      <trkpt lat="48.73583" lon="7.25821">
        <ele>214.7</ele>
        <time>2020-06-28T17:27:33Z</time>
      </trkpt>
      <trkpt lat="48.73582" lon="7.25815">
        <ele>214.7</ele>
        <time>2020-06-28T17:27:34Z</time>
      </trkpt>
      <trkpt lat="48.73581" lon="7.25808">
        <ele>214.7</ele>
        <time>2020-06-28T17:27:35Z</time>
      </trkpt>
      <trkpt lat="48.7358" lon="7.25801">
        <ele>214.7</ele>
        <time>2020-06-28T17:27:36Z</time>
      </trkpt>
      <trkpt lat="48.73579" lon="7.25795">
        <ele>214.7</ele>
        <time>2020-06-28T17:27:37Z</time>
      </trkpt>
      <trkpt lat="48.73578" lon="7.25787">
        <ele>214.7</ele>
        <time>2020-06-28T17:27:38Z</time>
      </trkpt>
      <trkpt lat="48.73577" lon="7.25781">
        <ele>214.6</ele>
        <time>2020-06-28T17:27:39Z</time>
      </trkpt>
      <trkpt lat="48.73576" lon="7.25774">
        <ele>214.6</ele>
        <time>2020-06-28T17:27:40Z</time>
      </trkpt>
      <trkpt lat="48.73575" lon="7.25767">
        <ele>214.6</ele>
        <time>2020-06-28T17:27:41Z</time>
      </trkpt>
      <trkpt lat="48.73575" lon="7.2576">
        <ele>214.6</ele>
        <time>2020-06-28T17:27:42Z</time>
      </trkpt>
      <trkpt lat="48.73574" lon="7.25753">
        <ele>214.6</ele>
        <time>2020-06-28T17:27:43Z</time>
      </trkpt>
      <trkpt lat="48.73572" lon="7.25746">
        <ele>214.6</ele>
        <time>2020-06-28T17:27:44Z</time>
      </trkpt>
      <trkpt lat="48.73571" lon="7.25739">
        <ele>214.6</ele>
        <time>2020-06-28T17:27:45Z</time>
      </trkpt>
      <trkpt lat="48.7357" lon="7.25732">
        <ele>214.6</ele>
        <time>2020-06-28T17:27:46Z</time>
      </trkpt>
      <trkpt lat="48.7357" lon="7.25725">
        <ele>214.6</ele>
        <time>2020-06-28T17:27:47Z</time>
      </trkpt>
      <trkpt lat="48.73569" lon="7.25718">
        <ele>214.6</ele>
        <time>2020-06-28T17:27:48Z</time>
      </trkpt>
      <trkpt lat="48.73568" lon="7.25711">
        <ele>214.6</ele>
        <time>2020-06-28T17:27:49Z</time>
      </trkpt>
      <trkpt lat="48.73567" lon="7.25703">
        <ele>214.5</ele>
        <time>2020-06-28T17:27:50Z</time>
      </trkpt>
      <trkpt lat="48.73567" lon="7.25694">
        <ele>214.5</ele>
        <time>2020-06-28T17:27:51Z</time>
      </trkpt>
      <trkpt lat="48.73566" lon="7.25685">
        <ele>214.5</ele>
        <time>2020-06-28T17:27:52Z</time>
      </trkpt>
      <trkpt lat="48.73566" lon="7.25677">
        <ele>214.5</ele>
        <time>2020-06-28T17:27:53Z</time>
      </trkpt>
      <trkpt lat="48.73565" lon="7.25669">
        <ele>214.5</ele>
        <time>2020-06-28T17:27:54Z</time>
      </trkpt>
      <trkpt lat="48.73565" lon="7.25661">
        <ele>214.5</ele>
        <time>2020-06-28T17:27:55Z</time>
      </trkpt>
      <trkpt lat="48.73564" lon="7.25652">
        <ele>214.5</ele>
        <time>2020-06-28T17:27:56Z</time>
      </trkpt>
      <trkpt lat="48.73563" lon="7.25644">
        <ele>214.5</ele>
        <time>2020-06-28T17:27:57Z</time>
      </trkpt>
      <trkpt lat="48.73562" lon="7.25637">
        <ele>214.5</ele>
        <time>2020-06-28T17:27:58Z</time>
      </trkpt>
      <trkpt lat="48.73561" lon="7.25629">
        <ele>214.5</ele>
        <time>2020-06-28T17:27:59Z</time>
      </trkpt>
      <trkpt lat="48.73562" lon="7.2562">
        <ele>214.5</ele>
        <time>2020-06-28T17:28:00Z</time>
      </trkpt>
      <trkpt lat="48.73561" lon="7.25611">
        <ele>214.5</ele>
        <time>2020-06-28T17:28:01Z</time>
      </trkpt>
      <trkpt lat="48.7356" lon="7.25603">
        <ele>214.5</ele>
        <time>2020-06-28T17:28:02Z</time>
      </trkpt>
      <trkpt lat="48.73559" lon="7.25594">
        <ele>214.5</ele>
        <time>2020-06-28T17:28:03Z</time>
      </trkpt>
      <trkpt lat="48.73558" lon="7.25585">
        <ele>214.6</ele>
        <time>2020-06-28T17:28:04Z</time>
      </trkpt>
      <trkpt lat="48.73557" lon="7.25576">
        <ele>214.6</ele>
        <time>2020-06-28T17:28:05Z</time>
      </trkpt>
      <trkpt lat="48.73557" lon="7.25569">
        <ele>214.6</ele>
        <time>2020-06-28T17:28:06Z</time>
      </trkpt>
      <trkpt lat="48.73555" lon="7.2556">
        <ele>214.6</ele>
        <time>2020-06-28T17:28:07Z</time>
      </trkpt>
      <trkpt lat="48.73555" lon="7.25551">
        <ele>214.6</ele>
        <time>2020-06-28T17:28:08Z</time>
      </trkpt>
      <trkpt lat="48.73554" lon="7.25543">
        <ele>214.6</ele>
        <time>2020-06-28T17:28:09Z</time>
      </trkpt>
      <trkpt lat="48.73553" lon="7.25537">
        <ele>214.7</ele>
        <time>2020-06-28T17:28:10Z</time>
      </trkpt>
      <trkpt lat="48.73553" lon="7.2553">
        <ele>214.7</ele>
        <time>2020-06-28T17:28:11Z</time>
      </trkpt>
      <trkpt lat="48.73553" lon="7.25523">
        <ele>214.7</ele>
        <time>2020-06-28T17:28:12Z</time>
      </trkpt>
      <trkpt lat="48.73553" lon="7.25514">
        <ele>214.7</ele>
        <time>2020-06-28T17:28:13Z</time>
      </trkpt>
      <trkpt lat="48.73552" lon="7.25505">
        <ele>214.7</ele>
        <time>2020-06-28T17:28:14Z</time>
      </trkpt>
      <trkpt lat="48.7355" lon="7.25496">
        <ele>214.7</ele>
        <time>2020-06-28T17:28:15Z</time>
      </trkpt>
      <trkpt lat="48.73549" lon="7.25487">
        <ele>214.7</ele>
        <time>2020-06-28T17:28:16Z</time>
      </trkpt>
      <trkpt lat="48.73548" lon="7.25478">
        <ele>214.7</ele>
        <time>2020-06-28T17:28:17Z</time>
      </trkpt>
      <trkpt lat="48.73547" lon="7.2547">
        <ele>214.7</ele>
        <time>2020-06-28T17:28:18Z</time>
      </trkpt>
      <trkpt lat="48.73547" lon="7.25461">
        <ele>214.7</ele>
        <time>2020-06-28T17:28:19Z</time>
      </trkpt>
      <trkpt lat="48.73547" lon="7.25453">
        <ele>214.7</ele>
        <time>2020-06-28T17:28:20Z</time>
      </trkpt>
      <trkpt lat="48.73546" lon="7.25443">
        <ele>214.7</ele>
        <time>2020-06-28T17:28:21Z</time>
      </trkpt>
      <trkpt lat="48.73544" lon="7.25434">
        <ele>214.7</ele>
        <time>2020-06-28T17:28:22Z</time>
      </trkpt>
      <trkpt lat="48.73542" lon="7.25425">
        <ele>214.7</ele>
        <time>2020-06-28T17:28:23Z</time>
      </trkpt>
      <trkpt lat="48.73542" lon="7.25414">
        <ele>214.7</ele>
        <time>2020-06-28T17:28:24Z</time>
      </trkpt>
      <trkpt lat="48.73541" lon="7.25405">
        <ele>214.7</ele>
        <time>2020-06-28T17:28:25Z</time>
      </trkpt>
      <trkpt lat="48.7354" lon="7.25395">
        <ele>214.7</ele>
        <time>2020-06-28T17:28:26Z</time>
      </trkpt>
      <trkpt lat="48.73539" lon="7.25386">
        <ele>214.7</ele>
        <time>2020-06-28T17:28:27Z</time>
      </trkpt>
      <trkpt lat="48.73537" lon="7.25378">
        <ele>214.7</ele>
        <time>2020-06-28T17:28:28Z</time>
      </trkpt>
      <trkpt lat="48.73536" lon="7.25369">
        <ele>214.7</ele>
        <time>2020-06-28T17:28:29Z</time>
      </trkpt>
      <trkpt lat="48.73535" lon="7.25362">
        <ele>214.7</ele>
        <time>2020-06-28T17:28:30Z</time>
      </trkpt>
      <trkpt lat="48.73533" lon="7.25355">
        <ele>214.8</ele>
        <time>2020-06-28T17:28:31Z</time>
      </trkpt>
      <trkpt lat="48.73533" lon="7.25347">
        <ele>214.8</ele>
        <time>2020-06-28T17:28:32Z</time>
      </trkpt>
      <trkpt lat="48.73532" lon="7.25339">
        <ele>214.8</ele>
        <time>2020-06-28T17:28:33Z</time>
      </trkpt>
      <trkpt lat="48.7353" lon="7.25333">
        <ele>214.8</ele>
        <time>2020-06-28T17:28:34Z</time>
      </trkpt>
      <trkpt lat="48.7353" lon="7.25325">
        <ele>214.8</ele>
        <time>2020-06-28T17:28:35Z</time>
      </trkpt>
      <trkpt lat="48.73529" lon="7.25317">
        <ele>214.9</ele>
        <time>2020-06-28T17:28:36Z</time>
      </trkpt>
      <trkpt lat="48.73528" lon="7.25309">
        <ele>214.9</ele>
        <time>2020-06-28T17:28:37Z</time>
      </trkpt>
      <trkpt lat="48.73529" lon="7.25301">
        <ele>214.9</ele>
        <time>2020-06-28T17:28:38Z</time>
      </trkpt>
      <trkpt lat="48.73528" lon="7.25294">
        <ele>214.9</ele>
        <time>2020-06-28T17:28:39Z</time>
      </trkpt>
      <trkpt lat="48.73528" lon="7.25285">
        <ele>214.9</ele>
        <time>2020-06-28T17:28:40Z</time>
      </trkpt>
      <trkpt lat="48.73526" lon="7.25277">
        <ele>214.9</ele>
        <time>2020-06-28T17:28:41Z</time>
      </trkpt>
      <trkpt lat="48.73526" lon="7.25268">
        <ele>214.9</ele>
        <time>2020-06-28T17:28:42Z</time>
      </trkpt>
      <trkpt lat="48.73526" lon="7.25261">
        <ele>214.9</ele>
        <time>2020-06-28T17:28:43Z</time>
      </trkpt>
      <trkpt lat="48.73525" lon="7.25252">
        <ele>215</ele>
        <time>2020-06-28T17:28:44Z</time>
      </trkpt>
      <trkpt lat="48.73526" lon="7.25244">
        <ele>215</ele>
        <time>2020-06-28T17:28:45Z</time>
      </trkpt>
      <trkpt lat="48.73524" lon="7.25236">
        <ele>215</ele>
        <time>2020-06-28T17:28:46Z</time>
      </trkpt>
      <trkpt lat="48.73524" lon="7.25227">
        <ele>215</ele>
        <time>2020-06-28T17:28:47Z</time>
      </trkpt>
      <trkpt lat="48.73523" lon="7.25219">
        <ele>215</ele>
        <time>2020-06-28T17:28:48Z</time>
      </trkpt>
      <trkpt lat="48.7352" lon="7.25211">
        <ele>215.1</ele>
        <time>2020-06-28T17:28:49Z</time>
      </trkpt>
      <trkpt lat="48.73519" lon="7.25203">
        <ele>215.1</ele>
        <time>2020-06-28T17:28:50Z</time>
      </trkpt>
      <trkpt lat="48.73518" lon="7.25195">
        <ele>215.1</ele>
        <time>2020-06-28T17:28:51Z</time>
      </trkpt>
      <trkpt lat="48.73517" lon="7.25188">
        <ele>215.2</ele>
        <time>2020-06-28T17:28:52Z</time>
      </trkpt>
      <trkpt lat="48.73515" lon="7.25181">
        <ele>215.2</ele>
        <time>2020-06-28T17:28:53Z</time>
      </trkpt>
      <trkpt lat="48.73513" lon="7.25174">
        <ele>215.3</ele>
        <time>2020-06-28T17:28:54Z</time>
      </trkpt>
      <trkpt lat="48.73511" lon="7.25168">
        <ele>215.5</ele>
        <time>2020-06-28T17:28:55Z</time>
      </trkpt>
      <trkpt lat="48.73507" lon="7.25159">
        <ele>215.8</ele>
        <time>2020-06-28T17:28:56Z</time>
      </trkpt>
      <trkpt lat="48.73505" lon="7.25151">
        <ele>216.1</ele>
        <time>2020-06-28T17:28:57Z</time>
      </trkpt>
      <trkpt lat="48.73503" lon="7.25143">
        <ele>216.5</ele>
        <time>2020-06-28T17:28:58Z</time>
      </trkpt>
      <trkpt lat="48.73501" lon="7.25137">
        <ele>216.8</ele>
        <time>2020-06-28T17:28:59Z</time>
      </trkpt>
      <trkpt lat="48.735" lon="7.25131">
        <ele>217.1</ele>
        <time>2020-06-28T17:29:00Z</time>
      </trkpt>
      <trkpt lat="48.73497" lon="7.25126">
        <ele>217.3</ele>
        <time>2020-06-28T17:29:01Z</time>
      </trkpt>
      <trkpt lat="48.73495" lon="7.25121">
        <ele>217.6</ele>
        <time>2020-06-28T17:29:02Z</time>
      </trkpt>
      <trkpt lat="48.73495" lon="7.25119">
        <ele>217.9</ele>
        <time>2020-06-28T17:29:03Z</time>
      </trkpt>
      <trkpt lat="48.73494" lon="7.25116">
        <ele>217.9</ele>
        <time>2020-06-28T17:29:04Z</time>
      </trkpt>
      <trkpt lat="48.73493" lon="7.25115">
        <ele>217.9</ele>
        <time>2020-06-28T17:29:05Z</time>
      </trkpt>
      <trkpt lat="48.73493" lon="7.25116">
        <ele>217.9</ele>
        <time>2020-06-28T17:29:06Z</time>
      </trkpt>
      <trkpt lat="48.73493" lon="7.25115">
        <ele>217.9</ele>
        <time>2020-06-28T17:29:07Z</time>
      </trkpt>
      <trkpt lat="48.73493" lon="7.25117">
        <ele>217.9</ele>
        <time>2020-06-28T17:29:08Z</time>
      </trkpt>
      <trkpt lat="48.73492" lon="7.25116">
        <ele>217.9</ele>
        <time>2020-06-28T17:29:09Z</time>
      </trkpt>
      <trkpt lat="48.73491" lon="7.25115">
        <ele>217.9</ele>
        <time>2020-06-28T17:29:10Z</time>
      </trkpt>
      <trkpt lat="48.73491" lon="7.25112">
        <ele>218</ele>
        <time>2020-06-28T17:29:11Z</time>
      </trkpt>
      <trkpt lat="48.7349" lon="7.2511">
        <ele>218</ele>
        <time>2020-06-28T17:29:12Z</time>
      </trkpt>
      <trkpt lat="48.73489" lon="7.25108">
        <ele>218</ele>
        <time>2020-06-28T17:29:13Z</time>
      </trkpt>
      <trkpt lat="48.73488" lon="7.25103">
        <ele>218</ele>
        <time>2020-06-28T17:29:14Z</time>
      </trkpt>
      <trkpt lat="48.73487" lon="7.25102">
        <ele>218</ele>
        <time>2020-06-28T17:29:15Z</time>
      </trkpt>
      <trkpt lat="48.73487" lon="7.25096">
        <ele>218</ele>
        <time>2020-06-28T17:29:16Z</time>
      </trkpt>
      <trkpt lat="48.73486" lon="7.25095">
        <ele>218</ele>
        <time>2020-06-28T17:29:17Z</time>
      </trkpt>
      <trkpt lat="48.73486" lon="7.25092">
        <ele>218</ele>
        <time>2020-06-28T17:29:18Z</time>
      </trkpt>
      <trkpt lat="48.73485" lon="7.2509">
        <ele>218</ele>
        <time>2020-06-28T17:29:19Z</time>
      </trkpt>
      <trkpt lat="48.73485" lon="7.25089">
        <ele>218</ele>
        <time>2020-06-28T17:29:20Z</time>
      </trkpt>
      <trkpt lat="48.73485" lon="7.2509">
        <ele>218</ele>
        <time>2020-06-28T17:29:21Z</time>
      </trkpt>
      <trkpt lat="48.73485" lon="7.25091">
        <ele>218</ele>
        <time>2020-06-28T17:29:22Z</time>
      </trkpt>
      <trkpt lat="48.73485" lon="7.25092">
        <ele>218</ele>
        <time>2020-06-28T17:29:23Z</time>
      </trkpt>
      <trkpt lat="48.73485" lon="7.25095">
        <ele>218</ele>
        <time>2020-06-28T17:29:24Z</time>
      </trkpt>
      <trkpt lat="48.73487" lon="7.25094">
        <ele>218</ele>
        <time>2020-06-28T17:29:25Z</time>
      </trkpt>
      <trkpt lat="48.73488" lon="7.25094">
        <ele>218</ele>
        <time>2020-06-28T17:29:26Z</time>
      </trkpt>
      <trkpt lat="48.7349" lon="7.25095">
        <ele>218</ele>
        <time>2020-06-28T17:29:27Z</time>
      </trkpt>
      <trkpt lat="48.7349" lon="7.25097">
        <ele>218</ele>
        <time>2020-06-28T17:29:28Z</time>
      </trkpt>
      <trkpt lat="48.73491" lon="7.25099">
        <ele>218</ele>
        <time>2020-06-28T17:29:29Z</time>
      </trkpt>
      <trkpt lat="48.73492" lon="7.25101">
        <ele>218</ele>
        <time>2020-06-28T17:29:30Z</time>
      </trkpt>
      <trkpt lat="48.73492" lon="7.25103">
        <ele>218</ele>
        <time>2020-06-28T17:33:27Z</time>
      </trkpt>
      <trkpt lat="48.73493" lon="7.25105">
        <ele>218</ele>
        <time>2020-06-28T17:33:28Z</time>
      </trkpt>
      <trkpt lat="48.73493" lon="7.25107">
        <ele>217.9</ele>
        <time>2020-06-28T17:33:29Z</time>
      </trkpt>
      <trkpt lat="48.73494" lon="7.25112">
        <ele>217.8</ele>
        <time>2020-06-28T17:33:30Z</time>
      </trkpt>
      <trkpt lat="48.73494" lon="7.25114">
        <ele>217.7</ele>
        <time>2020-06-28T17:33:31Z</time>
      </trkpt>
      <trkpt lat="48.73492" lon="7.25117">
        <ele>217.6</ele>
        <time>2020-06-28T17:33:32Z</time>
      </trkpt>
      <trkpt lat="48.73491" lon="7.25119">
        <ele>217.6</ele>
        <time>2020-06-28T17:33:33Z</time>
      </trkpt>
      <trkpt lat="48.73489" lon="7.25122">
        <ele>217.4</ele>
        <time>2020-06-28T17:33:34Z</time>
      </trkpt>
      <trkpt lat="48.73488" lon="7.25126">
        <ele>217.3</ele>
        <time>2020-06-28T17:33:35Z</time>
      </trkpt>
      <trkpt lat="48.73486" lon="7.2513">
        <ele>217.2</ele>
        <time>2020-06-28T17:33:36Z</time>
      </trkpt>
      <trkpt lat="48.73483" lon="7.25133">
        <ele>217.1</ele>
        <time>2020-06-28T17:33:37Z</time>
      </trkpt>
      <trkpt lat="48.73481" lon="7.25136">
        <ele>217</ele>
        <time>2020-06-28T17:33:38Z</time>
      </trkpt>
      <trkpt lat="48.73477" lon="7.25139">
        <ele>216.9</ele>
        <time>2020-06-28T17:33:39Z</time>
      </trkpt>
      <trkpt lat="48.73476" lon="7.2514">
        <ele>216.8</ele>
        <time>2020-06-28T17:33:40Z</time>
      </trkpt>
      <trkpt lat="48.73473" lon="7.25143">
        <ele>216.8</ele>
        <time>2020-06-28T17:33:41Z</time>
      </trkpt>
      <trkpt lat="48.73469" lon="7.25146">
        <ele>216.7</ele>
        <time>2020-06-28T17:33:42Z</time>
      </trkpt>
      <trkpt lat="48.73466" lon="7.25149">
        <ele>216.6</ele>
        <time>2020-06-28T17:33:43Z</time>
      </trkpt>
      <trkpt lat="48.73463" lon="7.25152">
        <ele>216.6</ele>
        <time>2020-06-28T17:33:44Z</time>
      </trkpt>
      <trkpt lat="48.73459" lon="7.25155">
        <ele>216.5</ele>
        <time>2020-06-28T17:33:45Z</time>
      </trkpt>
      <trkpt lat="48.73456" lon="7.25156">
        <ele>216.5</ele>
        <time>2020-06-28T17:33:46Z</time>
      </trkpt>
      <trkpt lat="48.73453" lon="7.25158">
        <ele>216.5</ele>
        <time>2020-06-28T17:33:47Z</time>
      </trkpt>
      <trkpt lat="48.73451" lon="7.25159">
        <ele>216.5</ele>
        <time>2020-06-28T17:33:48Z</time>
      </trkpt>
      <trkpt lat="48.7345" lon="7.25158">
        <ele>216.5</ele>
        <time>2020-06-28T17:33:49Z</time>
      </trkpt>
      <trkpt lat="48.73448" lon="7.25157">
        <ele>216.5</ele>
        <time>2020-06-28T17:33:50Z</time>
      </trkpt>
      <trkpt lat="48.73447" lon="7.25156">
        <ele>216.5</ele>
        <time>2020-06-28T17:33:51Z</time>
      </trkpt>
      <trkpt lat="48.73447" lon="7.25156">
        <ele>216.5</ele>
        <time>2020-06-28T17:33:52Z</time>
      </trkpt>
      <trkpt lat="48.73446" lon="7.25156">
        <ele>216.5</ele>
        <time>2020-06-28T17:33:53Z</time>
      </trkpt>
      <trkpt lat="48.73446" lon="7.25156">
        <ele>216.5</ele>
        <time>2020-06-28T17:33:54Z</time>
      </trkpt>
      <trkpt lat="48.73446" lon="7.25156">
        <ele>216.5</ele>
        <time>2020-06-28T17:33:55Z</time>
      </trkpt>
      <trkpt lat="48.73446" lon="7.25156">
        <ele>216.5</ele>
        <time>2020-06-28T17:33:56Z</time>
      </trkpt>
      <trkpt lat="48.73446" lon="7.25156">
        <ele>216.5</ele>
        <time>2020-06-28T17:33:57Z</time>
      </trkpt>
      <trkpt lat="48.73447" lon="7.25156">
        <ele>216.5</ele>
        <time>2020-06-28T17:33:58Z</time>
      </trkpt>
      <trkpt lat="48.73447" lon="7.25156">
        <ele>216.5</ele>
        <time>2020-06-28T17:33:59Z</time>
      </trkpt>
      <trkpt lat="48.73447" lon="7.25156">
        <ele>216.5</ele>
        <time>2020-06-28T17:34:00Z</time>
      </trkpt>
      <trkpt lat="48.73447" lon="7.25156">
        <ele>216.5</ele>
        <time>2020-06-28T17:34:01Z</time>
      </trkpt>
      <trkpt lat="48.73447" lon="7.25156">
        <ele>216.5</ele>
        <time>2020-06-28T17:34:02Z</time>
      </trkpt>
      <trkpt lat="48.73447" lon="7.25156">
        <ele>216.5</ele>
        <time>2020-06-28T17:34:03Z</time>
      </trkpt>
      <trkpt lat="48.73447" lon="7.25156">
        <ele>216.5</ele>
        <time>2020-06-28T17:34:04Z</time>
      </trkpt>
      <trkpt lat="48.73441" lon="7.25159">
        <ele>216.3</ele>
        <time>2020-06-28T17:34:20Z</time>
      </trkpt>
      <trkpt lat="48.73439" lon="7.2516">
        <ele>216.3</ele>
        <time>2020-06-28T17:34:21Z</time>
      </trkpt>
      <trkpt lat="48.73436" lon="7.25156">
        <ele>216.1</ele>
        <time>2020-06-28T17:34:22Z</time>
      </trkpt>
      <trkpt lat="48.73434" lon="7.25154">
        <ele>216</ele>
        <time>2020-06-28T17:34:23Z</time>
      </trkpt>
      <trkpt lat="48.73432" lon="7.25149">
        <ele>215.9</ele>
        <time>2020-06-28T17:34:24Z</time>
      </trkpt>
      <trkpt lat="48.7343" lon="7.25145">
        <ele>215.8</ele>
        <time>2020-06-28T17:34:25Z</time>
      </trkpt>
      <trkpt lat="48.73428" lon="7.25139">
        <ele>215.6</ele>
        <time>2020-06-28T17:34:26Z</time>
      </trkpt>
      <trkpt lat="48.73425" lon="7.25136">
        <ele>215.5</ele>
        <time>2020-06-28T17:34:27Z</time>
      </trkpt>
      <trkpt lat="48.73422" lon="7.25132">
        <ele>215.3</ele>
        <time>2020-06-28T17:34:28Z</time>
      </trkpt>
      <trkpt lat="48.7342" lon="7.25127">
        <ele>215.2</ele>
        <time>2020-06-28T17:34:29Z</time>
      </trkpt>
      <trkpt lat="48.73419" lon="7.25123">
        <ele>215.1</ele>
        <time>2020-06-28T17:34:30Z</time>
      </trkpt>
      <trkpt lat="48.73417" lon="7.25118">
        <ele>215</ele>
        <time>2020-06-28T17:34:31Z</time>
      </trkpt>
      <trkpt lat="48.73414" lon="7.25114">
        <ele>214.9</ele>
        <time>2020-06-28T17:34:32Z</time>
      </trkpt>
      <trkpt lat="48.73412" lon="7.2511">
        <ele>214.8</ele>
        <time>2020-06-28T17:34:33Z</time>
      </trkpt>
      <trkpt lat="48.73408" lon="7.25106">
        <ele>214.7</ele>
        <time>2020-06-28T17:34:34Z</time>
      </trkpt>
      <trkpt lat="48.73404" lon="7.25101">
        <ele>214.6</ele>
        <time>2020-06-28T17:34:35Z</time>
      </trkpt>
      <trkpt lat="48.73402" lon="7.25096">
        <ele>214.6</ele>
        <time>2020-06-28T17:34:36Z</time>
      </trkpt>
      <trkpt lat="48.73398" lon="7.25093">
        <ele>214.5</ele>
        <time>2020-06-28T17:34:37Z</time>
      </trkpt>
      <trkpt lat="48.73394" lon="7.25089">
        <ele>214.5</ele>
        <time>2020-06-28T17:34:38Z</time>
      </trkpt>
      <trkpt lat="48.73389" lon="7.25087">
        <ele>214.5</ele>
        <time>2020-06-28T17:34:39Z</time>
      </trkpt>
      <trkpt lat="48.73384" lon="7.25084">
        <ele>214.6</ele>
        <time>2020-06-28T17:34:40Z</time>
      </trkpt>
      <trkpt lat="48.73378" lon="7.25083">
        <ele>214.6</ele>
        <time>2020-06-28T17:34:41Z</time>
      </trkpt>
      <trkpt lat="48.73372" lon="7.25083">
        <ele>214.7</ele>
        <time>2020-06-28T17:34:42Z</time>
      </trkpt>
      <trkpt lat="48.73367" lon="7.25082">
        <ele>214.8</ele>
        <time>2020-06-28T17:34:43Z</time>
      </trkpt>
      <trkpt lat="48.73361" lon="7.25083">
        <ele>214.9</ele>
        <time>2020-06-28T17:34:44Z</time>
      </trkpt>
      <trkpt lat="48.73356" lon="7.25084">
        <ele>215</ele>
        <time>2020-06-28T17:34:45Z</time>
      </trkpt>
      <trkpt lat="48.73351" lon="7.25086">
        <ele>215.1</ele>
        <time>2020-06-28T17:34:46Z</time>
      </trkpt>
      <trkpt lat="48.73347" lon="7.25089">
        <ele>215.2</ele>
        <time>2020-06-28T17:34:47Z</time>
      </trkpt>
      <trkpt lat="48.73343" lon="7.25091">
        <ele>215.4</ele>
        <time>2020-06-28T17:34:48Z</time>
      </trkpt>
      <trkpt lat="48.73339" lon="7.25092">
        <ele>215.5</ele>
        <time>2020-06-28T17:34:49Z</time>
      </trkpt>
      <trkpt lat="48.73335" lon="7.25094">
        <ele>215.7</ele>
        <time>2020-06-28T17:34:50Z</time>
      </trkpt>
      <trkpt lat="48.73332" lon="7.25095">
        <ele>215.8</ele>
        <time>2020-06-28T17:34:51Z</time>
      </trkpt>
      <trkpt lat="48.73329" lon="7.25096">
        <ele>215.8</ele>
        <time>2020-06-28T17:34:52Z</time>
      </trkpt>
      <trkpt lat="48.73325" lon="7.25099">
        <ele>215.9</ele>
        <time>2020-06-28T17:34:53Z</time>
      </trkpt>
      <trkpt lat="48.73321" lon="7.251">
        <ele>216</ele>
        <time>2020-06-28T17:34:54Z</time>
      </trkpt>
      <trkpt lat="48.73317" lon="7.25102">
        <ele>216.1</ele>
        <time>2020-06-28T17:34:55Z</time>
      </trkpt>
      <trkpt lat="48.73314" lon="7.25104">
        <ele>216.2</ele>
        <time>2020-06-28T17:34:56Z</time>
      </trkpt>
      <trkpt lat="48.7331" lon="7.25106">
        <ele>216.3</ele>
        <time>2020-06-28T17:34:57Z</time>
      </trkpt>
      <trkpt lat="48.73305" lon="7.25108">
        <ele>216.5</ele>
        <time>2020-06-28T17:34:58Z</time>
      </trkpt>
      <trkpt lat="48.73301" lon="7.25112">
        <ele>216.6</ele>
        <time>2020-06-28T17:34:59Z</time>
      </trkpt>
      <trkpt lat="48.73296" lon="7.25115">
        <ele>216.7</ele>
        <time>2020-06-28T17:35:00Z</time>
      </trkpt>
      <trkpt lat="48.73292" lon="7.25118">
        <ele>216.9</ele>
        <time>2020-06-28T17:35:01Z</time>
      </trkpt>
      <trkpt lat="48.73288" lon="7.2512">
        <ele>216.9</ele>
        <time>2020-06-28T17:35:02Z</time>
      </trkpt>
      <trkpt lat="48.73284" lon="7.2512">
        <ele>217</ele>
        <time>2020-06-28T17:35:03Z</time>
      </trkpt>
      <trkpt lat="48.7328" lon="7.25121">
        <ele>217.1</ele>
        <time>2020-06-28T17:35:04Z</time>
      </trkpt>
      <trkpt lat="48.73277" lon="7.25121">
        <ele>217.2</ele>
        <time>2020-06-28T17:35:05Z</time>
      </trkpt>
      <trkpt lat="48.73273" lon="7.25122">
        <ele>217.3</ele>
        <time>2020-06-28T17:35:06Z</time>
      </trkpt>
      <trkpt lat="48.73268" lon="7.25123">
        <ele>217.3</ele>
        <time>2020-06-28T17:35:07Z</time>
      </trkpt>
      <trkpt lat="48.73263" lon="7.25123">
        <ele>217.4</ele>
        <time>2020-06-28T17:35:08Z</time>
      </trkpt>
      <trkpt lat="48.73258" lon="7.25122">
        <ele>217.4</ele>
        <time>2020-06-28T17:35:09Z</time>
      </trkpt>
      <trkpt lat="48.73253" lon="7.25124">
        <ele>217.5</ele>
        <time>2020-06-28T17:35:10Z</time>
      </trkpt>
      <trkpt lat="48.73248" lon="7.25127">
        <ele>217.5</ele>
        <time>2020-06-28T17:35:11Z</time>
      </trkpt>
      <trkpt lat="48.73241" lon="7.25131">
        <ele>217.5</ele>
        <time>2020-06-28T17:35:12Z</time>
      </trkpt>
      <trkpt lat="48.73234" lon="7.25137">
        <ele>217.5</ele>
        <time>2020-06-28T17:35:13Z</time>
      </trkpt>
      <trkpt lat="48.73229" lon="7.25141">
        <ele>217.5</ele>
        <time>2020-06-28T17:35:14Z</time>
      </trkpt>
      <trkpt lat="48.73224" lon="7.25143">
        <ele>217.4</ele>
        <time>2020-06-28T17:35:15Z</time>
      </trkpt>
      <trkpt lat="48.73219" lon="7.25147">
        <ele>217.4</ele>
        <time>2020-06-28T17:35:16Z</time>
      </trkpt>
      <trkpt lat="48.73214" lon="7.25149">
        <ele>217.4</ele>
        <time>2020-06-28T17:35:17Z</time>
      </trkpt>
      <trkpt lat="48.73208" lon="7.2515">
        <ele>217.3</ele>
        <time>2020-06-28T17:35:18Z</time>
      </trkpt>
      <trkpt lat="48.73203" lon="7.25152">
        <ele>217.3</ele>
        <time>2020-06-28T17:35:19Z</time>
      </trkpt>
      <trkpt lat="48.73199" lon="7.25154">
        <ele>217.3</ele>
        <time>2020-06-28T17:35:20Z</time>
      </trkpt>
      <trkpt lat="48.73195" lon="7.25155">
        <ele>217.2</ele>
        <time>2020-06-28T17:35:21Z</time>
      </trkpt>
      <trkpt lat="48.73189" lon="7.25155">
        <ele>217.2</ele>
        <time>2020-06-28T17:35:22Z</time>
      </trkpt>
      <trkpt lat="48.73182" lon="7.25157">
        <ele>216.9</ele>
        <time>2020-06-28T17:35:23Z</time>
      </trkpt>
      <trkpt lat="48.73176" lon="7.25158">
        <ele>216.7</ele>
        <time>2020-06-28T17:35:24Z</time>
      </trkpt>
      <trkpt lat="48.7317" lon="7.25158">
        <ele>216.5</ele>
        <time>2020-06-28T17:35:25Z</time>
      </trkpt>
      <trkpt lat="48.73165" lon="7.25157">
        <ele>216.4</ele>
        <time>2020-06-28T17:35:26Z</time>
      </trkpt>
      <trkpt lat="48.73159" lon="7.25157">
        <ele>216.3</ele>
        <time>2020-06-28T17:35:27Z</time>
      </trkpt>
      <trkpt lat="48.73154" lon="7.25156">
        <ele>216.2</ele>
        <time>2020-06-28T17:35:28Z</time>
      </trkpt>
      <trkpt lat="48.73148" lon="7.25157">
        <ele>216</ele>
        <time>2020-06-28T17:35:29Z</time>
      </trkpt>
      <trkpt lat="48.73141" lon="7.25158">
        <ele>216</ele>
        <time>2020-06-28T17:35:30Z</time>
      </trkpt>
      <trkpt lat="48.73135" lon="7.25157">
        <ele>215.9</ele>
        <time>2020-06-28T17:35:31Z</time>
      </trkpt>
      <trkpt lat="48.73128" lon="7.25157">
        <ele>215.9</ele>
        <time>2020-06-28T17:35:32Z</time>
      </trkpt>
      <trkpt lat="48.73122" lon="7.25157">
        <ele>216</ele>
        <time>2020-06-28T17:35:33Z</time>
      </trkpt>
      <trkpt lat="48.73115" lon="7.25158">
        <ele>216</ele>
        <time>2020-06-28T17:35:34Z</time>
      </trkpt>
      <trkpt lat="48.73109" lon="7.25158">
        <ele>216</ele>
        <time>2020-06-28T17:35:35Z</time>
      </trkpt>
      <trkpt lat="48.73103" lon="7.25157">
        <ele>216</ele>
        <time>2020-06-28T17:35:36Z</time>
      </trkpt>
      <trkpt lat="48.73097" lon="7.25157">
        <ele>216</ele>
        <time>2020-06-28T17:35:37Z</time>
      </trkpt>
      <trkpt lat="48.73091" lon="7.25156">
        <ele>216</ele>
        <time>2020-06-28T17:35:38Z</time>
      </trkpt>
      <trkpt lat="48.73085" lon="7.25156">
        <ele>216</ele>
        <time>2020-06-28T17:35:39Z</time>
      </trkpt>
      <trkpt lat="48.7308" lon="7.25155">
        <ele>216</ele>
        <time>2020-06-28T17:35:40Z</time>
      </trkpt>
      <trkpt lat="48.73074" lon="7.25156">
        <ele>216</ele>
        <time>2020-06-28T17:35:41Z</time>
      </trkpt>
      <trkpt lat="48.73068" lon="7.25155">
        <ele>216</ele>
        <time>2020-06-28T17:35:42Z</time>
      </trkpt>
      <trkpt lat="48.73062" lon="7.25154">
        <ele>216</ele>
        <time>2020-06-28T17:35:43Z</time>
      </trkpt>
      <trkpt lat="48.73057" lon="7.25151">
        <ele>216</ele>
        <time>2020-06-28T17:35:44Z</time>
      </trkpt>
      <trkpt lat="48.73051" lon="7.25148">
        <ele>216</ele>
        <time>2020-06-28T17:35:45Z</time>
      </trkpt>
      <trkpt lat="48.73045" lon="7.25144">
        <ele>216.1</ele>
        <time>2020-06-28T17:35:46Z</time>
      </trkpt>
      <trkpt lat="48.73041" lon="7.25139">
        <ele>216.1</ele>
        <time>2020-06-28T17:35:47Z</time>
      </trkpt>
      <trkpt lat="48.73036" lon="7.25134">
        <ele>216.1</ele>
        <time>2020-06-28T17:35:48Z</time>
      </trkpt>
      <trkpt lat="48.7303" lon="7.2513">
        <ele>216.1</ele>
        <time>2020-06-28T17:35:49Z</time>
      </trkpt>
      <trkpt lat="48.73026" lon="7.25126">
        <ele>216.2</ele>
        <time>2020-06-28T17:35:50Z</time>
      </trkpt>
      <trkpt lat="48.73022" lon="7.25121">
        <ele>216.2</ele>
        <time>2020-06-28T17:35:51Z</time>
      </trkpt>
      <trkpt lat="48.73016" lon="7.25114">
        <ele>216.3</ele>
        <time>2020-06-28T17:35:52Z</time>
      </trkpt>
      <trkpt lat="48.73012" lon="7.25107">
        <ele>216.4</ele>
        <time>2020-06-28T17:35:53Z</time>
      </trkpt>
      <trkpt lat="48.73008" lon="7.25099">
        <ele>216.5</ele>
        <time>2020-06-28T17:35:54Z</time>
      </trkpt>
      <trkpt lat="48.73005" lon="7.25092">
        <ele>216.7</ele>
        <time>2020-06-28T17:35:55Z</time>
      </trkpt>
      <trkpt lat="48.73001" lon="7.25086">
        <ele>216.8</ele>
        <time>2020-06-28T17:35:56Z</time>
      </trkpt>
      <trkpt lat="48.72998" lon="7.25081">
        <ele>216.9</ele>
        <time>2020-06-28T17:35:57Z</time>
      </trkpt>
      <trkpt lat="48.72995" lon="7.25075">
        <ele>217</ele>
        <time>2020-06-28T17:35:58Z</time>
      </trkpt>
      <trkpt lat="48.72992" lon="7.2507">
        <ele>217</ele>
        <time>2020-06-28T17:35:59Z</time>
      </trkpt>
      <trkpt lat="48.72988" lon="7.25064">
        <ele>217.1</ele>
        <time>2020-06-28T17:36:00Z</time>
      </trkpt>
      <trkpt lat="48.72984" lon="7.2506">
        <ele>217.1</ele>
        <time>2020-06-28T17:36:01Z</time>
      </trkpt>
      <trkpt lat="48.7298" lon="7.25054">
        <ele>217.2</ele>
        <time>2020-06-28T17:36:02Z</time>
      </trkpt>
      <trkpt lat="48.72977" lon="7.25048">
        <ele>217.2</ele>
        <time>2020-06-28T17:36:03Z</time>
      </trkpt>
      <trkpt lat="48.72974" lon="7.25042">
        <ele>217.3</ele>
        <time>2020-06-28T17:36:04Z</time>
      </trkpt>
      <trkpt lat="48.7297" lon="7.25036">
        <ele>217.4</ele>
        <time>2020-06-28T17:36:05Z</time>
      </trkpt>
      <trkpt lat="48.72966" lon="7.2503">
        <ele>217.5</ele>
        <time>2020-06-28T17:36:06Z</time>
      </trkpt>
      <trkpt lat="48.72962" lon="7.25024">
        <ele>217.5</ele>
        <time>2020-06-28T17:36:07Z</time>
      </trkpt>
      <trkpt lat="48.72958" lon="7.25017">
        <ele>217.7</ele>
        <time>2020-06-28T17:36:08Z</time>
      </trkpt>
      <trkpt lat="48.72955" lon="7.2501">
        <ele>217.8</ele>
        <time>2020-06-28T17:36:09Z</time>
      </trkpt>
      <trkpt lat="48.72952" lon="7.25003">
        <ele>217.9</ele>
        <time>2020-06-28T17:36:10Z</time>
      </trkpt>
      <trkpt lat="48.72949" lon="7.24998">
        <ele>218</ele>
        <time>2020-06-28T17:36:11Z</time>
      </trkpt>
      <trkpt lat="48.72946" lon="7.24993">
        <ele>218.1</ele>
        <time>2020-06-28T17:36:12Z</time>
      </trkpt>
      <trkpt lat="48.72943" lon="7.24989">
        <ele>218.2</ele>
        <time>2020-06-28T17:36:13Z</time>
      </trkpt>
      <trkpt lat="48.72938" lon="7.24984">
        <ele>218.3</ele>
        <time>2020-06-28T17:36:14Z</time>
      </trkpt>
      <trkpt lat="48.72934" lon="7.24978">
        <ele>218.4</ele>
        <time>2020-06-28T17:36:15Z</time>
      </trkpt>
      <trkpt lat="48.72929" lon="7.2497">
        <ele>218.6</ele>
        <time>2020-06-28T17:36:16Z</time>
      </trkpt>
      <trkpt lat="48.72925" lon="7.24965">
        <ele>218.7</ele>
        <time>2020-06-28T17:36:17Z</time>
      </trkpt>
      <trkpt lat="48.72921" lon="7.24959">
        <ele>218.8</ele>
        <time>2020-06-28T17:36:18Z</time>
      </trkpt>
      <trkpt lat="48.72918" lon="7.24954">
        <ele>219</ele>
        <time>2020-06-28T17:36:19Z</time>
      </trkpt>
      <trkpt lat="48.72914" lon="7.24949">
        <ele>219.1</ele>
        <time>2020-06-28T17:36:20Z</time>
      </trkpt>
      <trkpt lat="48.72911" lon="7.24945">
        <ele>219.2</ele>
        <time>2020-06-28T17:36:21Z</time>
      </trkpt>
      <trkpt lat="48.72907" lon="7.24938">
        <ele>219.4</ele>
        <time>2020-06-28T17:36:22Z</time>
      </trkpt>
      <trkpt lat="48.72903" lon="7.24931">
        <ele>219.5</ele>
        <time>2020-06-28T17:36:23Z</time>
      </trkpt>
      <trkpt lat="48.729" lon="7.24925">
        <ele>219.6</ele>
        <time>2020-06-28T17:36:24Z</time>
      </trkpt>
      <trkpt lat="48.72897" lon="7.24918">
        <ele>219.7</ele>
        <time>2020-06-28T17:36:25Z</time>
      </trkpt>
      <trkpt lat="48.72894" lon="7.24911">
        <ele>219.7</ele>
        <time>2020-06-28T17:36:26Z</time>
      </trkpt>
      <trkpt lat="48.72891" lon="7.24906">
        <ele>219.8</ele>
        <time>2020-06-28T17:36:27Z</time>
      </trkpt>
      <trkpt lat="48.72888" lon="7.249">
        <ele>219.9</ele>
        <time>2020-06-28T17:36:28Z</time>
      </trkpt>
      <trkpt lat="48.72886" lon="7.24895">
        <ele>219.9</ele>
        <time>2020-06-28T17:36:29Z</time>
      </trkpt>
      <trkpt lat="48.72883" lon="7.24889">
        <ele>220</ele>
        <time>2020-06-28T17:36:30Z</time>
      </trkpt>
      <trkpt lat="48.7288" lon="7.24882">
        <ele>220</ele>
        <time>2020-06-28T17:36:31Z</time>
      </trkpt>
      <trkpt lat="48.72878" lon="7.24876">
        <ele>220</ele>
        <time>2020-06-28T17:36:32Z</time>
      </trkpt>
      <trkpt lat="48.72875" lon="7.24869">
        <ele>220.1</ele>
        <time>2020-06-28T17:36:33Z</time>
      </trkpt>
      <trkpt lat="48.72872" lon="7.24862">
        <ele>220.1</ele>
        <time>2020-06-28T17:36:34Z</time>
      </trkpt>
      <trkpt lat="48.72869" lon="7.24855">
        <ele>220.2</ele>
        <time>2020-06-28T17:36:35Z</time>
      </trkpt>
      <trkpt lat="48.72867" lon="7.24849">
        <ele>220.2</ele>
        <time>2020-06-28T17:36:36Z</time>
      </trkpt>
      <trkpt lat="48.72864" lon="7.24842">
        <ele>220.2</ele>
        <time>2020-06-28T17:36:37Z</time>
      </trkpt>
      <trkpt lat="48.72861" lon="7.24836">
        <ele>220.2</ele>
        <time>2020-06-28T17:36:38Z</time>
      </trkpt>
      <trkpt lat="48.72858" lon="7.24828">
        <ele>220.2</ele>
        <time>2020-06-28T17:36:39Z</time>
      </trkpt>
      <trkpt lat="48.72855" lon="7.2482">
        <ele>220.2</ele>
        <time>2020-06-28T17:36:40Z</time>
      </trkpt>
      <trkpt lat="48.72853" lon="7.24812">
        <ele>220.1</ele>
        <time>2020-06-28T17:36:41Z</time>
      </trkpt>
      <trkpt lat="48.7285" lon="7.24804">
        <ele>220</ele>
        <time>2020-06-28T17:36:42Z</time>
      </trkpt>
      <trkpt lat="48.72847" lon="7.24796">
        <ele>219.9</ele>
        <time>2020-06-28T17:36:43Z</time>
      </trkpt>
      <trkpt lat="48.72844" lon="7.24789">
        <ele>219.8</ele>
        <time>2020-06-28T17:36:44Z</time>
      </trkpt>
      <trkpt lat="48.72842" lon="7.24782">
        <ele>219.7</ele>
        <time>2020-06-28T17:36:45Z</time>
      </trkpt>
      <trkpt lat="48.72839" lon="7.24772">
        <ele>219.6</ele>
        <time>2020-06-28T17:36:46Z</time>
      </trkpt>
      <trkpt lat="48.72837" lon="7.24764">
        <ele>219.4</ele>
        <time>2020-06-28T17:36:47Z</time>
      </trkpt>
      <trkpt lat="48.72833" lon="7.24754">
        <ele>219.3</ele>
        <time>2020-06-28T17:36:48Z</time>
      </trkpt>
      <trkpt lat="48.72833" lon="7.24746">
        <ele>219.2</ele>
        <time>2020-06-28T17:36:49Z</time>
      </trkpt>
      <trkpt lat="48.7283" lon="7.24737">
        <ele>219</ele>
        <time>2020-06-28T17:36:50Z</time>
      </trkpt>
      <trkpt lat="48.72827" lon="7.24726">
        <ele>218.8</ele>
        <time>2020-06-28T17:36:51Z</time>
      </trkpt>
      <trkpt lat="48.72825" lon="7.24717">
        <ele>218.7</ele>
        <time>2020-06-28T17:36:52Z</time>
      </trkpt>
      <trkpt lat="48.72822" lon="7.24708">
        <ele>218.5</ele>
        <time>2020-06-28T17:36:53Z</time>
      </trkpt>
      <trkpt lat="48.72818" lon="7.24696">
        <ele>218.3</ele>
        <time>2020-06-28T17:36:54Z</time>
      </trkpt>
      <trkpt lat="48.72815" lon="7.24686">
        <ele>218.2</ele>
        <time>2020-06-28T17:36:55Z</time>
      </trkpt>
      <trkpt lat="48.72812" lon="7.24676">
        <ele>218.2</ele>
        <time>2020-06-28T17:36:56Z</time>
      </trkpt>
      <trkpt lat="48.72808" lon="7.24666">
        <ele>218.1</ele>
        <time>2020-06-28T17:36:57Z</time>
      </trkpt>
      <trkpt lat="48.72805" lon="7.24657">
        <ele>218.1</ele>
        <time>2020-06-28T17:36:58Z</time>
      </trkpt>
      <trkpt lat="48.72803" lon="7.24648">
        <ele>218.1</ele>
        <time>2020-06-28T17:36:59Z</time>
      </trkpt>
      <trkpt lat="48.72801" lon="7.24639">
        <ele>218</ele>
        <time>2020-06-28T17:37:00Z</time>
      </trkpt>
      <trkpt lat="48.72798" lon="7.2463">
        <ele>218</ele>
        <time>2020-06-28T17:37:01Z</time>
      </trkpt>
      <trkpt lat="48.72795" lon="7.24621">
        <ele>218.1</ele>
        <time>2020-06-28T17:37:02Z</time>
      </trkpt>
      <trkpt lat="48.72792" lon="7.24611">
        <ele>218.1</ele>
        <time>2020-06-28T17:37:03Z</time>
      </trkpt>
      <trkpt lat="48.7279" lon="7.24602">
        <ele>218.1</ele>
        <time>2020-06-28T17:37:04Z</time>
      </trkpt>
      <trkpt lat="48.72788" lon="7.24593">
        <ele>218.2</ele>
        <time>2020-06-28T17:37:05Z</time>
      </trkpt>
      <trkpt lat="48.72785" lon="7.24585">
        <ele>218.3</ele>
        <time>2020-06-28T17:37:06Z</time>
      </trkpt>
      <trkpt lat="48.72783" lon="7.24577">
        <ele>218.4</ele>
        <time>2020-06-28T17:37:07Z</time>
      </trkpt>
      <trkpt lat="48.72781" lon="7.24569">
        <ele>218.5</ele>
        <time>2020-06-28T17:37:08Z</time>
      </trkpt>
      <trkpt lat="48.72778" lon="7.24561">
        <ele>218.6</ele>
        <time>2020-06-28T17:37:09Z</time>
      </trkpt>
      <trkpt lat="48.72776" lon="7.24552">
        <ele>218.8</ele>
        <time>2020-06-28T17:37:10Z</time>
      </trkpt>
      <trkpt lat="48.72775" lon="7.24542">
        <ele>219</ele>
        <time>2020-06-28T17:37:11Z</time>
      </trkpt>
      <trkpt lat="48.72773" lon="7.24532">
        <ele>219.2</ele>
        <time>2020-06-28T17:37:12Z</time>
      </trkpt>
      <trkpt lat="48.72771" lon="7.24523">
        <ele>219.5</ele>
        <time>2020-06-28T17:37:13Z</time>
      </trkpt>
      <trkpt lat="48.7277" lon="7.24513">
        <ele>219.8</ele>
        <time>2020-06-28T17:37:14Z</time>
      </trkpt>
      <trkpt lat="48.72768" lon="7.24506">
        <ele>220.1</ele>
        <time>2020-06-28T17:37:15Z</time>
      </trkpt>
      <trkpt lat="48.72767" lon="7.245">
        <ele>220.3</ele>
        <time>2020-06-28T17:37:16Z</time>
      </trkpt>
      <trkpt lat="48.72765" lon="7.24493">
        <ele>220.6</ele>
        <time>2020-06-28T17:37:17Z</time>
      </trkpt>
      <trkpt lat="48.72765" lon="7.24488">
        <ele>220.7</ele>
        <time>2020-06-28T17:37:18Z</time>
      </trkpt>
      <trkpt lat="48.72764" lon="7.2448">
        <ele>221</ele>
        <time>2020-06-28T17:37:19Z</time>
      </trkpt>
      <trkpt lat="48.72762" lon="7.24473">
        <ele>221.2</ele>
        <time>2020-06-28T17:37:20Z</time>
      </trkpt>
      <trkpt lat="48.72762" lon="7.24466">
        <ele>221.4</ele>
        <time>2020-06-28T17:37:21Z</time>
      </trkpt>
      <trkpt lat="48.72761" lon="7.2446">
        <ele>221.6</ele>
        <time>2020-06-28T17:37:22Z</time>
      </trkpt>
      <trkpt lat="48.72759" lon="7.24454">
        <ele>221.8</ele>
        <time>2020-06-28T17:37:23Z</time>
      </trkpt>
      <trkpt lat="48.72758" lon="7.24448">
        <ele>221.9</ele>
        <time>2020-06-28T17:37:24Z</time>
      </trkpt>
      <trkpt lat="48.72755" lon="7.24442">
        <ele>222.1</ele>
        <time>2020-06-28T17:37:25Z</time>
      </trkpt>
      <trkpt lat="48.72754" lon="7.24435">
        <ele>222.3</ele>
        <time>2020-06-28T17:37:26Z</time>
      </trkpt>
      <trkpt lat="48.72752" lon="7.24427">
        <ele>222.5</ele>
        <time>2020-06-28T17:37:27Z</time>
      </trkpt>
      <trkpt lat="48.72751" lon="7.24421">
        <ele>222.6</ele>
        <time>2020-06-28T17:37:28Z</time>
      </trkpt>
      <trkpt lat="48.72749" lon="7.24417">
        <ele>222.7</ele>
        <time>2020-06-28T17:37:29Z</time>
      </trkpt>
      <trkpt lat="48.72748" lon="7.24412">
        <ele>222.9</ele>
        <time>2020-06-28T17:37:30Z</time>
      </trkpt>
      <trkpt lat="48.72747" lon="7.24405">
        <ele>223</ele>
        <time>2020-06-28T17:37:31Z</time>
      </trkpt>
      <trkpt lat="48.72746" lon="7.24399">
        <ele>223.1</ele>
        <time>2020-06-28T17:37:32Z</time>
      </trkpt>
      <trkpt lat="48.72744" lon="7.24392">
        <ele>223.2</ele>
        <time>2020-06-28T17:37:33Z</time>
      </trkpt>
      <trkpt lat="48.72743" lon="7.24385">
        <ele>223.3</ele>
        <time>2020-06-28T17:37:34Z</time>
      </trkpt>
      <trkpt lat="48.72742" lon="7.24378">
        <ele>223.4</ele>
        <time>2020-06-28T17:37:35Z</time>
      </trkpt>
      <trkpt lat="48.72741" lon="7.24372">
        <ele>223.6</ele>
        <time>2020-06-28T17:37:36Z</time>
      </trkpt>
      <trkpt lat="48.7274" lon="7.24366">
        <ele>223.7</ele>
        <time>2020-06-28T17:37:37Z</time>
      </trkpt>
      <trkpt lat="48.72739" lon="7.24358">
        <ele>223.9</ele>
        <time>2020-06-28T17:37:38Z</time>
      </trkpt>
      <trkpt lat="48.72738" lon="7.24352">
        <ele>224</ele>
        <time>2020-06-28T17:37:39Z</time>
      </trkpt>
      <trkpt lat="48.72736" lon="7.24344">
        <ele>224.1</ele>
        <time>2020-06-28T17:37:40Z</time>
      </trkpt>
      <trkpt lat="48.72734" lon="7.24336">
        <ele>224.2</ele>
        <time>2020-06-28T17:37:41Z</time>
      </trkpt>
      <trkpt lat="48.72733" lon="7.24327">
        <ele>224.3</ele>
        <time>2020-06-28T17:37:42Z</time>
      </trkpt>
      <trkpt lat="48.72731" lon="7.2432">
        <ele>224.4</ele>
        <time>2020-06-28T17:37:43Z</time>
      </trkpt>
      <trkpt lat="48.7273" lon="7.2431">
        <ele>224.5</ele>
        <time>2020-06-28T17:37:44Z</time>
      </trkpt>
      <trkpt lat="48.72728" lon="7.24301">
        <ele>224.6</ele>
        <time>2020-06-28T17:37:45Z</time>
      </trkpt>
      <trkpt lat="48.72727" lon="7.24294">
        <ele>224.6</ele>
        <time>2020-06-28T17:37:46Z</time>
      </trkpt>
      <trkpt lat="48.72725" lon="7.24285">
        <ele>224.5</ele>
        <time>2020-06-28T17:37:47Z</time>
      </trkpt>
      <trkpt lat="48.72724" lon="7.24276">
        <ele>224.4</ele>
        <time>2020-06-28T17:37:48Z</time>
      </trkpt>
      <trkpt lat="48.72722" lon="7.24267">
        <ele>224.3</ele>
        <time>2020-06-28T17:37:49Z</time>
      </trkpt>
      <trkpt lat="48.72721" lon="7.24258">
        <ele>224.2</ele>
        <time>2020-06-28T17:37:50Z</time>
      </trkpt>
      <trkpt lat="48.72719" lon="7.24248">
        <ele>224</ele>
        <time>2020-06-28T17:37:51Z</time>
      </trkpt>
      <trkpt lat="48.72718" lon="7.24238">
        <ele>223.8</ele>
        <time>2020-06-28T17:37:52Z</time>
      </trkpt>
      <trkpt lat="48.72718" lon="7.24229">
        <ele>223.7</ele>
        <time>2020-06-28T17:37:53Z</time>
      </trkpt>
      <trkpt lat="48.72718" lon="7.24219">
        <ele>223.5</ele>
        <time>2020-06-28T17:37:54Z</time>
      </trkpt>
      <trkpt lat="48.72718" lon="7.2421">
        <ele>223.3</ele>
        <time>2020-06-28T17:37:55Z</time>
      </trkpt>
      <trkpt lat="48.72719" lon="7.24202">
        <ele>223.1</ele>
        <time>2020-06-28T17:37:56Z</time>
      </trkpt>
      <trkpt lat="48.7272" lon="7.24193">
        <ele>222.8</ele>
        <time>2020-06-28T17:37:57Z</time>
      </trkpt>
      <trkpt lat="48.7272" lon="7.24184">
        <ele>222.6</ele>
        <time>2020-06-28T17:37:58Z</time>
      </trkpt>
      <trkpt lat="48.72719" lon="7.24175">
        <ele>222.4</ele>
        <time>2020-06-28T17:37:59Z</time>
      </trkpt>
      <trkpt lat="48.72719" lon="7.24164">
        <ele>222.1</ele>
        <time>2020-06-28T17:38:00Z</time>
      </trkpt>
      <trkpt lat="48.72719" lon="7.24155">
        <ele>221.8</ele>
        <time>2020-06-28T17:38:01Z</time>
      </trkpt>
      <trkpt lat="48.72719" lon="7.24145">
        <ele>221.6</ele>
        <time>2020-06-28T17:38:02Z</time>
      </trkpt>
      <trkpt lat="48.7272" lon="7.24134">
        <ele>221.3</ele>
        <time>2020-06-28T17:38:03Z</time>
      </trkpt>
      <trkpt lat="48.7272" lon="7.24122">
        <ele>221.1</ele>
        <time>2020-06-28T17:38:04Z</time>
      </trkpt>
      <trkpt lat="48.7272" lon="7.24112">
        <ele>220.9</ele>
        <time>2020-06-28T17:38:05Z</time>
      </trkpt>
      <trkpt lat="48.7272" lon="7.24101">
        <ele>220.7</ele>
        <time>2020-06-28T17:38:06Z</time>
      </trkpt>
      <trkpt lat="48.7272" lon="7.24092">
        <ele>220.5</ele>
        <time>2020-06-28T17:38:07Z</time>
      </trkpt>
      <trkpt lat="48.72721" lon="7.24081">
        <ele>220.4</ele>
        <time>2020-06-28T17:38:08Z</time>
      </trkpt>
      <trkpt lat="48.72721" lon="7.24072">
        <ele>220.3</ele>
        <time>2020-06-28T17:38:09Z</time>
      </trkpt>
      <trkpt lat="48.72722" lon="7.24063">
        <ele>220.2</ele>
        <time>2020-06-28T17:38:10Z</time>
      </trkpt>
      <trkpt lat="48.72722" lon="7.24053">
        <ele>220.1</ele>
        <time>2020-06-28T17:38:11Z</time>
      </trkpt>
      <trkpt lat="48.72722" lon="7.24044">
        <ele>220</ele>
        <time>2020-06-28T17:38:12Z</time>
      </trkpt>
      <trkpt lat="48.72723" lon="7.24034">
        <ele>219.9</ele>
        <time>2020-06-28T17:38:13Z</time>
      </trkpt>
      <trkpt lat="48.72723" lon="7.24025">
        <ele>219.8</ele>
        <time>2020-06-28T17:38:14Z</time>
      </trkpt>
      <trkpt lat="48.72724" lon="7.24015">
        <ele>219.8</ele>
        <time>2020-06-28T17:38:15Z</time>
      </trkpt>
      <trkpt lat="48.72725" lon="7.24006">
        <ele>219.7</ele>
        <time>2020-06-28T17:38:16Z</time>
      </trkpt>
      <trkpt lat="48.72725" lon="7.23996">
        <ele>219.7</ele>
        <time>2020-06-28T17:38:17Z</time>
      </trkpt>
      <trkpt lat="48.72725" lon="7.23987">
        <ele>219.6</ele>
        <time>2020-06-28T17:38:18Z</time>
      </trkpt>
      <trkpt lat="48.72726" lon="7.23976">
        <ele>219.6</ele>
        <time>2020-06-28T17:38:19Z</time>
      </trkpt>
      <trkpt lat="48.72726" lon="7.23966">
        <ele>219.6</ele>
        <time>2020-06-28T17:38:20Z</time>
      </trkpt>
      <trkpt lat="48.72726" lon="7.23956">
        <ele>219.6</ele>
        <time>2020-06-28T17:38:21Z</time>
      </trkpt>
      <trkpt lat="48.72726" lon="7.23947">
        <ele>219.6</ele>
        <time>2020-06-28T17:38:22Z</time>
      </trkpt>
      <trkpt lat="48.72725" lon="7.23939">
        <ele>219.6</ele>
        <time>2020-06-28T17:38:23Z</time>
      </trkpt>
      <trkpt lat="48.72724" lon="7.23929">
        <ele>219.6</ele>
        <time>2020-06-28T17:38:24Z</time>
      </trkpt>
      <trkpt lat="48.72724" lon="7.2392">
        <ele>219.6</ele>
        <time>2020-06-28T17:38:25Z</time>
      </trkpt>
      <trkpt lat="48.72723" lon="7.23911">
        <ele>219.7</ele>
        <time>2020-06-28T17:38:26Z</time>
      </trkpt>
      <trkpt lat="48.72723" lon="7.239">
        <ele>219.8</ele>
        <time>2020-06-28T17:38:27Z</time>
      </trkpt>
      <trkpt lat="48.72722" lon="7.2389">
        <ele>219.9</ele>
        <time>2020-06-28T17:38:28Z</time>
      </trkpt>
      <trkpt lat="48.72721" lon="7.23882">
        <ele>220</ele>
        <time>2020-06-28T17:38:29Z</time>
      </trkpt>
      <trkpt lat="48.7272" lon="7.23874">
        <ele>220.1</ele>
        <time>2020-06-28T17:38:30Z</time>
      </trkpt>
      <trkpt lat="48.72719" lon="7.23864">
        <ele>220.2</ele>
        <time>2020-06-28T17:38:31Z</time>
      </trkpt>
      <trkpt lat="48.72719" lon="7.23853">
        <ele>220.3</ele>
        <time>2020-06-28T17:38:32Z</time>
      </trkpt>
      <trkpt lat="48.72718" lon="7.23845">
        <ele>220.4</ele>
        <time>2020-06-28T17:38:33Z</time>
      </trkpt>
      <trkpt lat="48.72717" lon="7.23837">
        <ele>220.6</ele>
        <time>2020-06-28T17:38:34Z</time>
      </trkpt>
      <trkpt lat="48.72715" lon="7.23828">
        <ele>220.7</ele>
        <time>2020-06-28T17:38:35Z</time>
      </trkpt>
      <trkpt lat="48.72714" lon="7.23821">
        <ele>220.9</ele>
        <time>2020-06-28T17:38:36Z</time>
      </trkpt>
      <trkpt lat="48.72712" lon="7.23813">
        <ele>221</ele>
        <time>2020-06-28T17:38:37Z</time>
      </trkpt>
      <trkpt lat="48.72711" lon="7.23805">
        <ele>221.2</ele>
        <time>2020-06-28T17:38:38Z</time>
      </trkpt>
      <trkpt lat="48.7271" lon="7.23797">
        <ele>221.4</ele>
        <time>2020-06-28T17:38:39Z</time>
      </trkpt>
      <trkpt lat="48.72708" lon="7.2379">
        <ele>221.6</ele>
        <time>2020-06-28T17:38:40Z</time>
      </trkpt>
      <trkpt lat="48.72708" lon="7.23781">
        <ele>221.8</ele>
        <time>2020-06-28T17:38:41Z</time>
      </trkpt>
      <trkpt lat="48.72707" lon="7.23774">
        <ele>222</ele>
        <time>2020-06-28T17:38:42Z</time>
      </trkpt>
      <trkpt lat="48.72706" lon="7.23768">
        <ele>222.1</ele>
        <time>2020-06-28T17:38:43Z</time>
      </trkpt>
      <trkpt lat="48.72705" lon="7.2376">
        <ele>222.4</ele>
        <time>2020-06-28T17:38:44Z</time>
      </trkpt>
      <trkpt lat="48.72704" lon="7.23753">
        <ele>222.6</ele>
        <time>2020-06-28T17:38:45Z</time>
      </trkpt>
      <trkpt lat="48.72703" lon="7.23745">
        <ele>222.8</ele>
        <time>2020-06-28T17:38:46Z</time>
      </trkpt>
      <trkpt lat="48.72701" lon="7.23738">
        <ele>223</ele>
        <time>2020-06-28T17:38:47Z</time>
      </trkpt>
      <trkpt lat="48.727" lon="7.23731">
        <ele>223.2</ele>
        <time>2020-06-28T17:38:48Z</time>
      </trkpt>
      <trkpt lat="48.72699" lon="7.23723">
        <ele>223.4</ele>
        <time>2020-06-28T17:38:49Z</time>
      </trkpt>
      <trkpt lat="48.72698" lon="7.23715">
        <ele>223.6</ele>
        <time>2020-06-28T17:38:50Z</time>
      </trkpt>
      <trkpt lat="48.72698" lon="7.23708">
        <ele>223.8</ele>
        <time>2020-06-28T17:38:51Z</time>
      </trkpt>
      <trkpt lat="48.72697" lon="7.237">
        <ele>224</ele>
        <time>2020-06-28T17:38:52Z</time>
      </trkpt>
      <trkpt lat="48.72696" lon="7.23692">
        <ele>224.2</ele>
        <time>2020-06-28T17:38:53Z</time>
      </trkpt>
      <trkpt lat="48.72695" lon="7.23684">
        <ele>224.4</ele>
        <time>2020-06-28T17:38:54Z</time>
      </trkpt>
      <trkpt lat="48.72694" lon="7.23677">
        <ele>224.5</ele>
        <time>2020-06-28T17:38:55Z</time>
      </trkpt>
      <trkpt lat="48.72693" lon="7.23669">
        <ele>224.7</ele>
        <time>2020-06-28T17:38:56Z</time>
      </trkpt>
      <trkpt lat="48.72692" lon="7.2366">
        <ele>224.9</ele>
        <time>2020-06-28T17:38:57Z</time>
      </trkpt>
      <trkpt lat="48.72691" lon="7.23654">
        <ele>225.1</ele>
        <time>2020-06-28T17:38:58Z</time>
      </trkpt>
      <trkpt lat="48.72691" lon="7.23645">
        <ele>225.3</ele>
        <time>2020-06-28T17:38:59Z</time>
      </trkpt>
      <trkpt lat="48.72689" lon="7.23639">
        <ele>225.4</ele>
        <time>2020-06-28T17:39:00Z</time>
      </trkpt>
      <trkpt lat="48.72688" lon="7.23631">
        <ele>225.6</ele>
        <time>2020-06-28T17:39:01Z</time>
      </trkpt>
      <trkpt lat="48.72687" lon="7.23624">
        <ele>225.7</ele>
        <time>2020-06-28T17:39:02Z</time>
      </trkpt>
      <trkpt lat="48.72686" lon="7.23617">
        <ele>225.8</ele>
        <time>2020-06-28T17:39:03Z</time>
      </trkpt>
      <trkpt lat="48.72685" lon="7.23612">
        <ele>225.9</ele>
        <time>2020-06-28T17:39:04Z</time>
      </trkpt>
      <trkpt lat="48.72684" lon="7.23606">
        <ele>226</ele>
        <time>2020-06-28T17:39:05Z</time>
      </trkpt>
      <trkpt lat="48.72684" lon="7.23598">
        <ele>226.1</ele>
        <time>2020-06-28T17:39:06Z</time>
      </trkpt>
      <trkpt lat="48.72684" lon="7.23592">
        <ele>226.2</ele>
        <time>2020-06-28T17:39:07Z</time>
      </trkpt>
      <trkpt lat="48.72683" lon="7.23587">
        <ele>226.3</ele>
        <time>2020-06-28T17:39:08Z</time>
      </trkpt>
      <trkpt lat="48.72682" lon="7.23582">
        <ele>226.4</ele>
        <time>2020-06-28T17:39:09Z</time>
      </trkpt>
      <trkpt lat="48.72682" lon="7.23574">
        <ele>226.6</ele>
        <time>2020-06-28T17:39:10Z</time>
      </trkpt>
      <trkpt lat="48.72682" lon="7.23567">
        <ele>226.7</ele>
        <time>2020-06-28T17:39:11Z</time>
      </trkpt>
      <trkpt lat="48.7268" lon="7.2356">
        <ele>226.8</ele>
        <time>2020-06-28T17:39:12Z</time>
      </trkpt>
      <trkpt lat="48.72679" lon="7.23553">
        <ele>226.9</ele>
        <time>2020-06-28T17:39:13Z</time>
      </trkpt>
      <trkpt lat="48.72678" lon="7.23546">
        <ele>227</ele>
        <time>2020-06-28T17:39:14Z</time>
      </trkpt>
      <trkpt lat="48.72676" lon="7.23539">
        <ele>227</ele>
        <time>2020-06-28T17:39:15Z</time>
      </trkpt>
      <trkpt lat="48.72674" lon="7.2353">
        <ele>227.2</ele>
        <time>2020-06-28T17:39:16Z</time>
      </trkpt>
      <trkpt lat="48.72673" lon="7.23521">
        <ele>227.3</ele>
        <time>2020-06-28T17:39:17Z</time>
      </trkpt>
      <trkpt lat="48.72671" lon="7.23515">
        <ele>227.4</ele>
        <time>2020-06-28T17:39:18Z</time>
      </trkpt>
      <trkpt lat="48.72669" lon="7.23507">
        <ele>227.6</ele>
        <time>2020-06-28T17:39:19Z</time>
      </trkpt>
      <trkpt lat="48.72667" lon="7.23499">
        <ele>227.7</ele>
        <time>2020-06-28T17:39:20Z</time>
      </trkpt>
      <trkpt lat="48.72666" lon="7.2349">
        <ele>227.9</ele>
        <time>2020-06-28T17:39:21Z</time>
      </trkpt>
      <trkpt lat="48.72663" lon="7.23482">
        <ele>228</ele>
        <time>2020-06-28T17:39:22Z</time>
      </trkpt>
      <trkpt lat="48.72661" lon="7.23476">
        <ele>228.2</ele>
        <time>2020-06-28T17:39:23Z</time>
      </trkpt>
      <trkpt lat="48.7266" lon="7.23471">
        <ele>228.3</ele>
        <time>2020-06-28T17:39:24Z</time>
      </trkpt>
      <trkpt lat="48.72658" lon="7.23465">
        <ele>228.4</ele>
        <time>2020-06-28T17:39:25Z</time>
      </trkpt>
      <trkpt lat="48.72656" lon="7.23459">
        <ele>228.4</ele>
        <time>2020-06-28T17:39:26Z</time>
      </trkpt>
      <trkpt lat="48.72655" lon="7.23453">
        <ele>228.5</ele>
        <time>2020-06-28T17:39:27Z</time>
      </trkpt>
      <trkpt lat="48.72654" lon="7.23447">
        <ele>228.6</ele>
        <time>2020-06-28T17:39:28Z</time>
      </trkpt>
      <trkpt lat="48.72653" lon="7.23441">
        <ele>228.7</ele>
        <time>2020-06-28T17:39:29Z</time>
      </trkpt>
      <trkpt lat="48.72651" lon="7.23433">
        <ele>228.8</ele>
        <time>2020-06-28T17:39:30Z</time>
      </trkpt>
      <trkpt lat="48.7265" lon="7.23422">
        <ele>228.8</ele>
        <time>2020-06-28T17:39:31Z</time>
      </trkpt>
      <trkpt lat="48.72648" lon="7.23415">
        <ele>228.8</ele>
        <time>2020-06-28T17:39:32Z</time>
      </trkpt>
      <trkpt lat="48.72648" lon="7.23411">
        <ele>228.9</ele>
        <time>2020-06-28T17:39:33Z</time>
      </trkpt>
      <trkpt lat="48.72647" lon="7.23406">
        <ele>228.8</ele>
        <time>2020-06-28T17:39:34Z</time>
      </trkpt>
      <trkpt lat="48.72646" lon="7.234">
        <ele>228.8</ele>
        <time>2020-06-28T17:39:35Z</time>
      </trkpt>
      <trkpt lat="48.72643" lon="7.23386">
        <ele>228.6</ele>
        <time>2020-06-28T17:39:36Z</time>
      </trkpt>
      <trkpt lat="48.72641" lon="7.23375">
        <ele>228.5</ele>
        <time>2020-06-28T17:39:37Z</time>
      </trkpt>
      <trkpt lat="48.72639" lon="7.23366">
        <ele>228.4</ele>
        <time>2020-06-28T17:39:38Z</time>
      </trkpt>
      <trkpt lat="48.72638" lon="7.23356">
        <ele>228.2</ele>
        <time>2020-06-28T17:39:39Z</time>
      </trkpt>
      <trkpt lat="48.72636" lon="7.23346">
        <ele>228.1</ele>
        <time>2020-06-28T17:39:40Z</time>
      </trkpt>
      <trkpt lat="48.72635" lon="7.23336">
        <ele>228</ele>
        <time>2020-06-28T17:39:41Z</time>
      </trkpt>
      <trkpt lat="48.72632" lon="7.23324">
        <ele>227.8</ele>
        <time>2020-06-28T17:39:42Z</time>
      </trkpt>
      <trkpt lat="48.72629" lon="7.23315">
        <ele>227.7</ele>
        <time>2020-06-28T17:39:43Z</time>
      </trkpt>
      <trkpt lat="48.72627" lon="7.23306">
        <ele>227.6</ele>
        <time>2020-06-28T17:39:44Z</time>
      </trkpt>
      <trkpt lat="48.72624" lon="7.23298">
        <ele>227.5</ele>
        <time>2020-06-28T17:39:45Z</time>
      </trkpt>
      <trkpt lat="48.72622" lon="7.2329">
        <ele>227.3</ele>
        <time>2020-06-28T17:39:46Z</time>
      </trkpt>
      <trkpt lat="48.72618" lon="7.23281">
        <ele>227.2</ele>
        <time>2020-06-28T17:39:47Z</time>
      </trkpt>
      <trkpt lat="48.72614" lon="7.23273">
        <ele>227</ele>
        <time>2020-06-28T17:39:48Z</time>
      </trkpt>
      <trkpt lat="48.72611" lon="7.23264">
        <ele>226.9</ele>
        <time>2020-06-28T17:39:49Z</time>
      </trkpt>
      <trkpt lat="48.72608" lon="7.23256">
        <ele>226.7</ele>
        <time>2020-06-28T17:39:50Z</time>
      </trkpt>
      <trkpt lat="48.72606" lon="7.23248">
        <ele>226.5</ele>
        <time>2020-06-28T17:39:51Z</time>
      </trkpt>
      <trkpt lat="48.72603" lon="7.23241">
        <ele>226.3</ele>
        <time>2020-06-28T17:39:52Z</time>
      </trkpt>
      <trkpt lat="48.72598" lon="7.23232">
        <ele>226</ele>
        <time>2020-06-28T17:39:53Z</time>
      </trkpt>
      <trkpt lat="48.72595" lon="7.23224">
        <ele>225.7</ele>
        <time>2020-06-28T17:39:54Z</time>
      </trkpt>
      <trkpt lat="48.72591" lon="7.23218">
        <ele>225.5</ele>
        <time>2020-06-28T17:39:55Z</time>
      </trkpt>
      <trkpt lat="48.72587" lon="7.23211">
        <ele>225.1</ele>
        <time>2020-06-28T17:39:56Z</time>
      </trkpt>
      <trkpt lat="48.72581" lon="7.23204">
        <ele>224.6</ele>
        <time>2020-06-28T17:39:57Z</time>
      </trkpt>
      <trkpt lat="48.72577" lon="7.23198">
        <ele>224.2</ele>
        <time>2020-06-28T17:39:58Z</time>
      </trkpt>
      <trkpt lat="48.72571" lon="7.2319">
        <ele>223.7</ele>
        <time>2020-06-28T17:39:59Z</time>
      </trkpt>
      <trkpt lat="48.72564" lon="7.23182">
        <ele>223</ele>
        <time>2020-06-28T17:40:00Z</time>
      </trkpt>
      <trkpt lat="48.72556" lon="7.23175">
        <ele>222.4</ele>
        <time>2020-06-28T17:40:01Z</time>
      </trkpt>
      <trkpt lat="48.72549" lon="7.23169">
        <ele>221.9</ele>
        <time>2020-06-28T17:40:02Z</time>
      </trkpt>
      <trkpt lat="48.72541" lon="7.23163">
        <ele>221.4</ele>
        <time>2020-06-28T17:40:03Z</time>
      </trkpt>
      <trkpt lat="48.72533" lon="7.23157">
        <ele>220.9</ele>
        <time>2020-06-28T17:40:04Z</time>
      </trkpt>
      <trkpt lat="48.72525" lon="7.23151">
        <ele>220.5</ele>
        <time>2020-06-28T17:40:05Z</time>
      </trkpt>
      <trkpt lat="48.72517" lon="7.23148">
        <ele>220.1</ele>
        <time>2020-06-28T17:40:06Z</time>
      </trkpt>
      <trkpt lat="48.7251" lon="7.23144">
        <ele>219.8</ele>
        <time>2020-06-28T17:40:07Z</time>
      </trkpt>
      <trkpt lat="48.72503" lon="7.2314">
        <ele>219.5</ele>
        <time>2020-06-28T17:40:08Z</time>
      </trkpt>
      <trkpt lat="48.72494" lon="7.23136">
        <ele>219.3</ele>
        <time>2020-06-28T17:40:09Z</time>
      </trkpt>
      <trkpt lat="48.72487" lon="7.2313">
        <ele>219.1</ele>
        <time>2020-06-28T17:40:10Z</time>
      </trkpt>
      <trkpt lat="48.7248" lon="7.23127">
        <ele>219</ele>
        <time>2020-06-28T17:40:11Z</time>
      </trkpt>
      <trkpt lat="48.72474" lon="7.23124">
        <ele>219</ele>
        <time>2020-06-28T17:40:12Z</time>
      </trkpt>
      <trkpt lat="48.72467" lon="7.2312">
        <ele>219</ele>
        <time>2020-06-28T17:40:13Z</time>
      </trkpt>
      <trkpt lat="48.72461" lon="7.23115">
        <ele>219.1</ele>
        <time>2020-06-28T17:40:14Z</time>
      </trkpt>
      <trkpt lat="48.72455" lon="7.2311">
        <ele>219.1</ele>
        <time>2020-06-28T17:40:15Z</time>
      </trkpt>
      <trkpt lat="48.7245" lon="7.23104">
        <ele>219</ele>
        <time>2020-06-28T17:40:16Z</time>
      </trkpt>
      <trkpt lat="48.72445" lon="7.23098">
        <ele>219</ele>
        <time>2020-06-28T17:40:17Z</time>
      </trkpt>
      <trkpt lat="48.7244" lon="7.23092">
        <ele>219.1</ele>
        <time>2020-06-28T17:40:18Z</time>
      </trkpt>
      <trkpt lat="48.72436" lon="7.23087">
        <ele>219.1</ele>
        <time>2020-06-28T17:40:19Z</time>
      </trkpt>
      <trkpt lat="48.72431" lon="7.23082">
        <ele>219.1</ele>
        <time>2020-06-28T17:40:20Z</time>
      </trkpt>
      <trkpt lat="48.72426" lon="7.23076">
        <ele>219.2</ele>
        <time>2020-06-28T17:40:21Z</time>
      </trkpt>
      <trkpt lat="48.7242" lon="7.23071">
        <ele>219.2</ele>
        <time>2020-06-28T17:40:22Z</time>
      </trkpt>
      <trkpt lat="48.72416" lon="7.23064">
        <ele>219.3</ele>
        <time>2020-06-28T17:40:23Z</time>
      </trkpt>
      <trkpt lat="48.72411" lon="7.23059">
        <ele>219.4</ele>
        <time>2020-06-28T17:40:24Z</time>
      </trkpt>
      <trkpt lat="48.72406" lon="7.23054">
        <ele>219.4</ele>
        <time>2020-06-28T17:40:25Z</time>
      </trkpt>
      <trkpt lat="48.724" lon="7.23049">
        <ele>219.4</ele>
        <time>2020-06-28T17:40:26Z</time>
      </trkpt>
      <trkpt lat="48.72395" lon="7.23043">
        <ele>219.5</ele>
        <time>2020-06-28T17:40:27Z</time>
      </trkpt>
      <trkpt lat="48.7239" lon="7.23037">
        <ele>219.6</ele>
        <time>2020-06-28T17:40:28Z</time>
      </trkpt>
      <trkpt lat="48.72384" lon="7.23033">
        <ele>219.7</ele>
        <time>2020-06-28T17:40:29Z</time>
      </trkpt>
      <trkpt lat="48.72378" lon="7.23029">
        <ele>219.8</ele>
        <time>2020-06-28T17:40:30Z</time>
      </trkpt>
      <trkpt lat="48.72372" lon="7.23027">
        <ele>219.9</ele>
        <time>2020-06-28T17:40:31Z</time>
      </trkpt>
      <trkpt lat="48.72365" lon="7.23025">
        <ele>220</ele>
        <time>2020-06-28T17:40:32Z</time>
      </trkpt>
      <trkpt lat="48.7236" lon="7.23023">
        <ele>220.1</ele>
        <time>2020-06-28T17:40:33Z</time>
      </trkpt>
      <trkpt lat="48.72355" lon="7.23022">
        <ele>220.2</ele>
        <time>2020-06-28T17:40:34Z</time>
      </trkpt>
      <trkpt lat="48.72351" lon="7.23021">
        <ele>220.2</ele>
        <time>2020-06-28T17:40:35Z</time>
      </trkpt>
      <trkpt lat="48.72348" lon="7.23025">
        <ele>220.3</ele>
        <time>2020-06-28T17:40:36Z</time>
      </trkpt>
      <trkpt lat="48.72344" lon="7.23029">
        <ele>220.4</ele>
        <time>2020-06-28T17:40:37Z</time>
      </trkpt>
      <trkpt lat="48.72341" lon="7.23033">
        <ele>220.4</ele>
        <time>2020-06-28T17:40:38Z</time>
      </trkpt>
      <trkpt lat="48.72337" lon="7.23039">
        <ele>220.4</ele>
        <time>2020-06-28T17:40:39Z</time>
      </trkpt>
      <trkpt lat="48.72333" lon="7.23044">
        <ele>220.4</ele>
        <time>2020-06-28T17:40:40Z</time>
      </trkpt>
      <trkpt lat="48.72328" lon="7.23049">
        <ele>220.4</ele>
        <time>2020-06-28T17:40:41Z</time>
      </trkpt>
      <trkpt lat="48.72324" lon="7.23053">
        <ele>220.4</ele>
        <time>2020-06-28T17:40:42Z</time>
      </trkpt>
      <trkpt lat="48.72318" lon="7.23058">
        <ele>220.5</ele>
        <time>2020-06-28T17:40:43Z</time>
      </trkpt>
      <trkpt lat="48.72312" lon="7.23062">
        <ele>220.5</ele>
        <time>2020-06-28T17:40:44Z</time>
      </trkpt>
      <trkpt lat="48.72307" lon="7.23064">
        <ele>220.5</ele>
        <time>2020-06-28T17:40:45Z</time>
      </trkpt>
      <trkpt lat="48.72302" lon="7.23066">
        <ele>220.5</ele>
        <time>2020-06-28T17:40:46Z</time>
      </trkpt>
      <trkpt lat="48.72296" lon="7.23068">
        <ele>220.5</ele>
        <time>2020-06-28T17:40:47Z</time>
      </trkpt>
      <trkpt lat="48.72289" lon="7.23069">
        <ele>220.5</ele>
        <time>2020-06-28T17:40:48Z</time>
      </trkpt>
      <trkpt lat="48.72282" lon="7.2307">
        <ele>220.5</ele>
        <time>2020-06-28T17:40:49Z</time>
      </trkpt>
      <trkpt lat="48.72272" lon="7.2307">
        <ele>220.5</ele>
        <time>2020-06-28T17:40:50Z</time>
      </trkpt>
      <trkpt lat="48.72264" lon="7.2307">
        <ele>220.5</ele>
        <time>2020-06-28T17:40:51Z</time>
      </trkpt>
      <trkpt lat="48.72258" lon="7.23068">
        <ele>220.6</ele>
        <time>2020-06-28T17:40:52Z</time>
      </trkpt>
      <trkpt lat="48.72252" lon="7.23065">
        <ele>220.6</ele>
        <time>2020-06-28T17:40:53Z</time>
      </trkpt>
      <trkpt lat="48.72245" lon="7.23062">
        <ele>220.6</ele>
        <time>2020-06-28T17:40:54Z</time>
      </trkpt>
      <trkpt lat="48.72238" lon="7.23059">
        <ele>220.7</ele>
        <time>2020-06-28T17:40:55Z</time>
      </trkpt>
      <trkpt lat="48.72232" lon="7.23055">
        <ele>220.8</ele>
        <time>2020-06-28T17:40:56Z</time>
      </trkpt>
      <trkpt lat="48.72225" lon="7.23052">
        <ele>220.9</ele>
        <time>2020-06-28T17:40:57Z</time>
      </trkpt>
      <trkpt lat="48.7222" lon="7.23048">
        <ele>220.9</ele>
        <time>2020-06-28T17:40:58Z</time>
      </trkpt>
      <trkpt lat="48.72214" lon="7.23044">
        <ele>221</ele>
        <time>2020-06-28T17:40:59Z</time>
      </trkpt>
      <trkpt lat="48.72208" lon="7.2304">
        <ele>221</ele>
        <time>2020-06-28T17:41:00Z</time>
      </trkpt>
      <trkpt lat="48.72202" lon="7.23036">
        <ele>221.1</ele>
        <time>2020-06-28T17:41:01Z</time>
      </trkpt>
      <trkpt lat="48.72197" lon="7.23033">
        <ele>221.1</ele>
        <time>2020-06-28T17:41:02Z</time>
      </trkpt>
      <trkpt lat="48.72191" lon="7.23028">
        <ele>221.2</ele>
        <time>2020-06-28T17:41:03Z</time>
      </trkpt>
      <trkpt lat="48.72184" lon="7.23025">
        <ele>221.3</ele>
        <time>2020-06-28T17:41:04Z</time>
      </trkpt>
      <trkpt lat="48.72178" lon="7.23022">
        <ele>221.5</ele>
        <time>2020-06-28T17:41:05Z</time>
      </trkpt>
      <trkpt lat="48.72172" lon="7.23017">
        <ele>221.6</ele>
        <time>2020-06-28T17:41:06Z</time>
      </trkpt>
      <trkpt lat="48.72166" lon="7.23012">
        <ele>221.8</ele>
        <time>2020-06-28T17:41:07Z</time>
      </trkpt>
      <trkpt lat="48.7216" lon="7.23006">
        <ele>221.9</ele>
        <time>2020-06-28T17:41:08Z</time>
      </trkpt>
      <trkpt lat="48.72153" lon="7.23001">
        <ele>222.2</ele>
        <time>2020-06-28T17:41:09Z</time>
      </trkpt>
      <trkpt lat="48.72147" lon="7.22994">
        <ele>222.4</ele>
        <time>2020-06-28T17:41:10Z</time>
      </trkpt>
      <trkpt lat="48.72142" lon="7.22988">
        <ele>222.7</ele>
        <time>2020-06-28T17:41:11Z</time>
      </trkpt>
      <trkpt lat="48.72137" lon="7.22979">
        <ele>222.7</ele>
        <time>2020-06-28T17:41:12Z</time>
      </trkpt>
      <trkpt lat="48.72132" lon="7.22972">
        <ele>222.8</ele>
        <time>2020-06-28T17:41:13Z</time>
      </trkpt>
      <trkpt lat="48.72126" lon="7.22965">
        <ele>222.9</ele>
        <time>2020-06-28T17:41:14Z</time>
      </trkpt>
      <trkpt lat="48.72121" lon="7.2296">
        <ele>223</ele>
        <time>2020-06-28T17:41:15Z</time>
      </trkpt>
      <trkpt lat="48.72116" lon="7.22952">
        <ele>223.2</ele>
        <time>2020-06-28T17:41:16Z</time>
      </trkpt>
      <trkpt lat="48.72112" lon="7.22947">
        <ele>223.2</ele>
        <time>2020-06-28T17:41:17Z</time>
      </trkpt>
      <trkpt lat="48.72105" lon="7.2294">
        <ele>223.3</ele>
        <time>2020-06-28T17:41:18Z</time>
      </trkpt>
      <trkpt lat="48.721" lon="7.22937">
        <ele>223.4</ele>
        <time>2020-06-28T17:41:19Z</time>
      </trkpt>
      <trkpt lat="48.72096" lon="7.22932">
        <ele>223.5</ele>
        <time>2020-06-28T17:41:20Z</time>
      </trkpt>
      <trkpt lat="48.7209" lon="7.22927">
        <ele>223.5</ele>
        <time>2020-06-28T17:41:21Z</time>
      </trkpt>
      <trkpt lat="48.72085" lon="7.22923">
        <ele>223.6</ele>
        <time>2020-06-28T17:41:22Z</time>
      </trkpt>
      <trkpt lat="48.7208" lon="7.22919">
        <ele>223.7</ele>
        <time>2020-06-28T17:41:23Z</time>
      </trkpt>
      <trkpt lat="48.72076" lon="7.22912">
        <ele>223.8</ele>
        <time>2020-06-28T17:41:24Z</time>
      </trkpt>
      <trkpt lat="48.7207" lon="7.22906">
        <ele>223.8</ele>
        <time>2020-06-28T17:41:25Z</time>
      </trkpt>
      <trkpt lat="48.72067" lon="7.22903">
        <ele>223.9</ele>
        <time>2020-06-28T17:41:26Z</time>
      </trkpt>
      <trkpt lat="48.72062" lon="7.22897">
        <ele>224</ele>
        <time>2020-06-28T17:41:27Z</time>
      </trkpt>
      <trkpt lat="48.72057" lon="7.22892">
        <ele>224</ele>
        <time>2020-06-28T17:41:28Z</time>
      </trkpt>
      <trkpt lat="48.72052" lon="7.22887">
        <ele>224.1</ele>
        <time>2020-06-28T17:41:29Z</time>
      </trkpt>
      <trkpt lat="48.72046" lon="7.22882">
        <ele>224.2</ele>
        <time>2020-06-28T17:41:30Z</time>
      </trkpt>
      <trkpt lat="48.72041" lon="7.22879">
        <ele>224.3</ele>
        <time>2020-06-28T17:41:31Z</time>
      </trkpt>
      <trkpt lat="48.72036" lon="7.22872">
        <ele>224.3</ele>
        <time>2020-06-28T17:41:32Z</time>
      </trkpt>
      <trkpt lat="48.72032" lon="7.22868">
        <ele>224.3</ele>
        <time>2020-06-28T17:41:33Z</time>
      </trkpt>
      <trkpt lat="48.72025" lon="7.22861">
        <ele>224.3</ele>
        <time>2020-06-28T17:41:34Z</time>
      </trkpt>
      <trkpt lat="48.72022" lon="7.22856">
        <ele>224.3</ele>
        <time>2020-06-28T17:41:35Z</time>
      </trkpt>
      <trkpt lat="48.72015" lon="7.22848">
        <ele>224.2</ele>
        <time>2020-06-28T17:41:36Z</time>
      </trkpt>
      <trkpt lat="48.72011" lon="7.22842">
        <ele>224.2</ele>
        <time>2020-06-28T17:41:37Z</time>
      </trkpt>
      <trkpt lat="48.72006" lon="7.22835">
        <ele>224.2</ele>
        <time>2020-06-28T17:41:38Z</time>
      </trkpt>
      <trkpt lat="48.72002" lon="7.22827">
        <ele>224.1</ele>
        <time>2020-06-28T17:41:39Z</time>
      </trkpt>
      <trkpt lat="48.71997" lon="7.22819">
        <ele>224.1</ele>
        <time>2020-06-28T17:41:40Z</time>
      </trkpt>
      <trkpt lat="48.71993" lon="7.22811">
        <ele>224.1</ele>
        <time>2020-06-28T17:41:41Z</time>
      </trkpt>
      <trkpt lat="48.71989" lon="7.22803">
        <ele>224</ele>
        <time>2020-06-28T17:41:42Z</time>
      </trkpt>
      <trkpt lat="48.71984" lon="7.22794">
        <ele>223.9</ele>
        <time>2020-06-28T17:41:43Z</time>
      </trkpt>
      <trkpt lat="48.71979" lon="7.22787">
        <ele>223.9</ele>
        <time>2020-06-28T17:41:44Z</time>
      </trkpt>
      <trkpt lat="48.71976" lon="7.22777">
        <ele>223.8</ele>
        <time>2020-06-28T17:41:45Z</time>
      </trkpt>
      <trkpt lat="48.71971" lon="7.22769">
        <ele>223.7</ele>
        <time>2020-06-28T17:41:46Z</time>
      </trkpt>
      <trkpt lat="48.71969" lon="7.22763">
        <ele>223.7</ele>
        <time>2020-06-28T17:41:47Z</time>
      </trkpt>
      <trkpt lat="48.71966" lon="7.22756">
        <ele>223.6</ele>
        <time>2020-06-28T17:41:48Z</time>
      </trkpt>
      <trkpt lat="48.71962" lon="7.22747">
        <ele>223.5</ele>
        <time>2020-06-28T17:41:49Z</time>
      </trkpt>
      <trkpt lat="48.71958" lon="7.2274">
        <ele>223.5</ele>
        <time>2020-06-28T17:41:50Z</time>
      </trkpt>
      <trkpt lat="48.71955" lon="7.22732">
        <ele>223.4</ele>
        <time>2020-06-28T17:41:51Z</time>
      </trkpt>
      <trkpt lat="48.71951" lon="7.22723">
        <ele>223.3</ele>
        <time>2020-06-28T17:41:52Z</time>
      </trkpt>
      <trkpt lat="48.71947" lon="7.22716">
        <ele>223.2</ele>
        <time>2020-06-28T17:41:53Z</time>
      </trkpt>
      <trkpt lat="48.71943" lon="7.22707">
        <ele>223.1</ele>
        <time>2020-06-28T17:41:54Z</time>
      </trkpt>
      <trkpt lat="48.71939" lon="7.22698">
        <ele>223.1</ele>
        <time>2020-06-28T17:41:55Z</time>
      </trkpt>
      <trkpt lat="48.71935" lon="7.2269">
        <ele>223.1</ele>
        <time>2020-06-28T17:41:56Z</time>
      </trkpt>
      <trkpt lat="48.71931" lon="7.2268">
        <ele>223.1</ele>
        <time>2020-06-28T17:41:57Z</time>
      </trkpt>
      <trkpt lat="48.71927" lon="7.2267">
        <ele>223.2</ele>
        <time>2020-06-28T17:41:58Z</time>
      </trkpt>
      <trkpt lat="48.71923" lon="7.2266">
        <ele>223.6</ele>
        <time>2020-06-28T17:41:59Z</time>
      </trkpt>
      <trkpt lat="48.71919" lon="7.22649">
        <ele>223.6</ele>
        <time>2020-06-28T17:42:00Z</time>
      </trkpt>
      <trkpt lat="48.71916" lon="7.2264">
        <ele>223.6</ele>
        <time>2020-06-28T17:42:01Z</time>
      </trkpt>
      <trkpt lat="48.71912" lon="7.22631">
        <ele>223.7</ele>
        <time>2020-06-28T17:42:02Z</time>
      </trkpt>
      <trkpt lat="48.71908" lon="7.22621">
        <ele>223.8</ele>
        <time>2020-06-28T17:42:03Z</time>
      </trkpt>
      <trkpt lat="48.71903" lon="7.22611">
        <ele>224.1</ele>
        <time>2020-06-28T17:42:04Z</time>
      </trkpt>
      <trkpt lat="48.71899" lon="7.22602">
        <ele>224.5</ele>
        <time>2020-06-28T17:42:05Z</time>
      </trkpt>
      <trkpt lat="48.71894" lon="7.22592">
        <ele>224.8</ele>
        <time>2020-06-28T17:42:06Z</time>
      </trkpt>
      <trkpt lat="48.7189" lon="7.22584">
        <ele>225.2</ele>
        <time>2020-06-28T17:42:07Z</time>
      </trkpt>
      <trkpt lat="48.71885" lon="7.22576">
        <ele>225.5</ele>
        <time>2020-06-28T17:42:08Z</time>
      </trkpt>
      <trkpt lat="48.71882" lon="7.22568">
        <ele>225.9</ele>
        <time>2020-06-28T17:42:09Z</time>
      </trkpt>
      <trkpt lat="48.71878" lon="7.2256">
        <ele>226.3</ele>
        <time>2020-06-28T17:42:10Z</time>
      </trkpt>
      <trkpt lat="48.71874" lon="7.22554">
        <ele>226.6</ele>
        <time>2020-06-28T17:42:11Z</time>
      </trkpt>
      <trkpt lat="48.71871" lon="7.22546">
        <ele>226.9</ele>
        <time>2020-06-28T17:42:12Z</time>
      </trkpt>
      <trkpt lat="48.71869" lon="7.22539">
        <ele>227.2</ele>
        <time>2020-06-28T17:42:13Z</time>
      </trkpt>
      <trkpt lat="48.71867" lon="7.22533">
        <ele>227.4</ele>
        <time>2020-06-28T17:42:14Z</time>
      </trkpt>
      <trkpt lat="48.71865" lon="7.22527">
        <ele>227.6</ele>
        <time>2020-06-28T17:42:15Z</time>
      </trkpt>
      <trkpt lat="48.71862" lon="7.22521">
        <ele>227.7</ele>
        <time>2020-06-28T17:42:16Z</time>
      </trkpt>
      <trkpt lat="48.71859" lon="7.22515">
        <ele>227.9</ele>
        <time>2020-06-28T17:42:17Z</time>
      </trkpt>
      <trkpt lat="48.71856" lon="7.22507">
        <ele>228.1</ele>
        <time>2020-06-28T17:42:18Z</time>
      </trkpt>
      <trkpt lat="48.71854" lon="7.225">
        <ele>228.2</ele>
        <time>2020-06-28T17:42:19Z</time>
      </trkpt>
      <trkpt lat="48.71852" lon="7.22492">
        <ele>228.4</ele>
        <time>2020-06-28T17:42:20Z</time>
      </trkpt>
      <trkpt lat="48.7185" lon="7.22484">
        <ele>228.6</ele>
        <time>2020-06-28T17:42:21Z</time>
      </trkpt>
      <trkpt lat="48.71849" lon="7.22477">
        <ele>228.8</ele>
        <time>2020-06-28T17:42:22Z</time>
      </trkpt>
      <trkpt lat="48.71849" lon="7.22474">
        <ele>228.8</ele>
        <time>2020-06-28T17:42:23Z</time>
      </trkpt>
      <trkpt lat="48.7185" lon="7.22468">
        <ele>228.8</ele>
        <time>2020-06-28T17:42:24Z</time>
      </trkpt>
      <trkpt lat="48.71851" lon="7.22462">
        <ele>228.8</ele>
        <time>2020-06-28T17:42:25Z</time>
      </trkpt>
      <trkpt lat="48.71854" lon="7.22458">
        <ele>228.8</ele>
        <time>2020-06-28T17:42:26Z</time>
      </trkpt>
      <trkpt lat="48.71858" lon="7.22455">
        <ele>228.8</ele>
        <time>2020-06-28T17:42:27Z</time>
      </trkpt>
      <trkpt lat="48.7186" lon="7.22451">
        <ele>228.7</ele>
        <time>2020-06-28T17:42:28Z</time>
      </trkpt>
      <trkpt lat="48.71864" lon="7.22447">
        <ele>228.7</ele>
        <time>2020-06-28T17:42:29Z</time>
      </trkpt>
      <trkpt lat="48.71868" lon="7.22442">
        <ele>228.6</ele>
        <time>2020-06-28T17:42:30Z</time>
      </trkpt>
      <trkpt lat="48.71872" lon="7.22436">
        <ele>228.6</ele>
        <time>2020-06-28T17:42:31Z</time>
      </trkpt>
      <trkpt lat="48.71875" lon="7.2243">
        <ele>228.5</ele>
        <time>2020-06-28T17:42:32Z</time>
      </trkpt>
      <trkpt lat="48.71878" lon="7.22425">
        <ele>228.5</ele>
        <time>2020-06-28T17:42:33Z</time>
      </trkpt>
      <trkpt lat="48.71881" lon="7.2242">
        <ele>228.4</ele>
        <time>2020-06-28T17:42:34Z</time>
      </trkpt>
      <trkpt lat="48.71884" lon="7.22415">
        <ele>228.4</ele>
        <time>2020-06-28T17:42:35Z</time>
      </trkpt>
      <trkpt lat="48.71887" lon="7.2241">
        <ele>228.3</ele>
        <time>2020-06-28T17:42:36Z</time>
      </trkpt>
      <trkpt lat="48.71893" lon="7.22402">
        <ele>228.2</ele>
        <time>2020-06-28T17:42:37Z</time>
      </trkpt>
      <trkpt lat="48.71897" lon="7.22396">
        <ele>228.1</ele>
        <time>2020-06-28T17:42:38Z</time>
      </trkpt>
      <trkpt lat="48.71902" lon="7.2239">
        <ele>228</ele>
        <time>2020-06-28T17:42:39Z</time>
      </trkpt>
      <trkpt lat="48.71906" lon="7.22383">
        <ele>227.9</ele>
        <time>2020-06-28T17:42:40Z</time>
      </trkpt>
      <trkpt lat="48.7191" lon="7.22377">
        <ele>227.8</ele>
        <time>2020-06-28T17:42:41Z</time>
      </trkpt>
      <trkpt lat="48.71913" lon="7.22371">
        <ele>227.6</ele>
        <time>2020-06-28T17:42:42Z</time>
      </trkpt>
      <trkpt lat="48.71917" lon="7.22364">
        <ele>227.5</ele>
        <time>2020-06-28T17:42:43Z</time>
      </trkpt>
      <trkpt lat="48.7192" lon="7.22357">
        <ele>227.3</ele>
        <time>2020-06-28T17:42:44Z</time>
      </trkpt>
      <trkpt lat="48.71924" lon="7.2235">
        <ele>227.1</ele>
        <time>2020-06-28T17:42:45Z</time>
      </trkpt>
      <trkpt lat="48.71925" lon="7.22342">
        <ele>226.9</ele>
        <time>2020-06-28T17:42:46Z</time>
      </trkpt>
      <trkpt lat="48.71925" lon="7.22333">
        <ele>226.7</ele>
        <time>2020-06-28T17:42:47Z</time>
      </trkpt>
      <trkpt lat="48.71926" lon="7.22323">
        <ele>226.5</ele>
        <time>2020-06-28T17:42:48Z</time>
      </trkpt>
      <trkpt lat="48.71927" lon="7.22313">
        <ele>226.2</ele>
        <time>2020-06-28T17:42:49Z</time>
      </trkpt>
      <trkpt lat="48.71928" lon="7.22303">
        <ele>226</ele>
        <time>2020-06-28T17:42:50Z</time>
      </trkpt>
      <trkpt lat="48.71929" lon="7.22293">
        <ele>225.7</ele>
        <time>2020-06-28T17:42:51Z</time>
      </trkpt>
      <trkpt lat="48.71929" lon="7.22283">
        <ele>225.5</ele>
        <time>2020-06-28T17:42:52Z</time>
      </trkpt>
      <trkpt lat="48.71931" lon="7.22272">
        <ele>225.2</ele>
        <time>2020-06-28T17:42:53Z</time>
      </trkpt>
      <trkpt lat="48.71932" lon="7.22262">
        <ele>225</ele>
        <time>2020-06-28T17:42:54Z</time>
      </trkpt>
      <trkpt lat="48.71934" lon="7.22251">
        <ele>224.7</ele>
        <time>2020-06-28T17:42:55Z</time>
      </trkpt>
      <trkpt lat="48.71936" lon="7.2224">
        <ele>224.6</ele>
        <time>2020-06-28T17:42:56Z</time>
      </trkpt>
      <trkpt lat="48.7194" lon="7.2223">
        <ele>224.6</ele>
        <time>2020-06-28T17:42:57Z</time>
      </trkpt>
      <trkpt lat="48.71943" lon="7.22219">
        <ele>224.7</ele>
        <time>2020-06-28T17:42:58Z</time>
      </trkpt>
      <trkpt lat="48.71946" lon="7.22208">
        <ele>224.8</ele>
        <time>2020-06-28T17:42:59Z</time>
      </trkpt>
      <trkpt lat="48.71948" lon="7.22198">
        <ele>224.8</ele>
        <time>2020-06-28T17:43:00Z</time>
      </trkpt>
      <trkpt lat="48.7195" lon="7.22188">
        <ele>224.9</ele>
        <time>2020-06-28T17:43:01Z</time>
      </trkpt>
      <trkpt lat="48.71953" lon="7.22177">
        <ele>225.1</ele>
        <time>2020-06-28T17:43:02Z</time>
      </trkpt>
      <trkpt lat="48.71955" lon="7.22169">
        <ele>225.2</ele>
        <time>2020-06-28T17:43:03Z</time>
      </trkpt>
      <trkpt lat="48.71957" lon="7.2216">
        <ele>225.3</ele>
        <time>2020-06-28T17:43:04Z</time>
      </trkpt>
      <trkpt lat="48.7196" lon="7.2215">
        <ele>225.4</ele>
        <time>2020-06-28T17:43:05Z</time>
      </trkpt>
      <trkpt lat="48.71962" lon="7.22141">
        <ele>225.6</ele>
        <time>2020-06-28T17:43:06Z</time>
      </trkpt>
      <trkpt lat="48.71964" lon="7.22132">
        <ele>225.8</ele>
        <time>2020-06-28T17:43:07Z</time>
      </trkpt>
      <trkpt lat="48.71965" lon="7.22122">
        <ele>226</ele>
        <time>2020-06-28T17:43:08Z</time>
      </trkpt>
      <trkpt lat="48.71965" lon="7.22111">
        <ele>226.2</ele>
        <time>2020-06-28T17:43:09Z</time>
      </trkpt>
      <trkpt lat="48.71965" lon="7.22102">
        <ele>226.4</ele>
        <time>2020-06-28T17:43:10Z</time>
      </trkpt>
      <trkpt lat="48.71965" lon="7.22095">
        <ele>226.6</ele>
        <time>2020-06-28T17:43:11Z</time>
      </trkpt>
      <trkpt lat="48.71965" lon="7.22087">
        <ele>226.7</ele>
        <time>2020-06-28T17:43:12Z</time>
      </trkpt>
      <trkpt lat="48.71964" lon="7.22079">
        <ele>226.9</ele>
        <time>2020-06-28T17:43:13Z</time>
      </trkpt>
      <trkpt lat="48.71963" lon="7.2207">
        <ele>226.9</ele>
        <time>2020-06-28T17:43:14Z</time>
      </trkpt>
      <trkpt lat="48.71962" lon="7.22064">
        <ele>226.9</ele>
        <time>2020-06-28T17:43:15Z</time>
      </trkpt>
      <trkpt lat="48.71962" lon="7.22056">
        <ele>226.8</ele>
        <time>2020-06-28T17:43:16Z</time>
      </trkpt>
      <trkpt lat="48.7196" lon="7.22049">
        <ele>226.8</ele>
        <time>2020-06-28T17:43:17Z</time>
      </trkpt>
      <trkpt lat="48.71959" lon="7.2204">
        <ele>226.8</ele>
        <time>2020-06-28T17:43:18Z</time>
      </trkpt>
      <trkpt lat="48.71959" lon="7.22033">
        <ele>226.8</ele>
        <time>2020-06-28T17:43:19Z</time>
      </trkpt>
      <trkpt lat="48.71957" lon="7.22026">
        <ele>226.8</ele>
        <time>2020-06-28T17:43:20Z</time>
      </trkpt>
      <trkpt lat="48.71957" lon="7.22017">
        <ele>226.9</ele>
        <time>2020-06-28T17:43:21Z</time>
      </trkpt>
      <trkpt lat="48.71956" lon="7.22008">
        <ele>227.1</ele>
        <time>2020-06-28T17:43:22Z</time>
      </trkpt>
      <trkpt lat="48.71955" lon="7.22">
        <ele>227.2</ele>
        <time>2020-06-28T17:43:23Z</time>
      </trkpt>
      <trkpt lat="48.71954" lon="7.21991">
        <ele>227.4</ele>
        <time>2020-06-28T17:43:24Z</time>
      </trkpt>
      <trkpt lat="48.71953" lon="7.21983">
        <ele>227.5</ele>
        <time>2020-06-28T17:43:25Z</time>
      </trkpt>
      <trkpt lat="48.71952" lon="7.21975">
        <ele>227.6</ele>
        <time>2020-06-28T17:43:26Z</time>
      </trkpt>
      <trkpt lat="48.71951" lon="7.21965">
        <ele>227.8</ele>
        <time>2020-06-28T17:43:27Z</time>
      </trkpt>
      <trkpt lat="48.7195" lon="7.21957">
        <ele>227.9</ele>
        <time>2020-06-28T17:43:28Z</time>
      </trkpt>
      <trkpt lat="48.71949" lon="7.21949">
        <ele>228.1</ele>
        <time>2020-06-28T17:43:29Z</time>
      </trkpt>
      <trkpt lat="48.71948" lon="7.2194">
        <ele>228.3</ele>
        <time>2020-06-28T17:43:30Z</time>
      </trkpt>
      <trkpt lat="48.71946" lon="7.21932">
        <ele>228.4</ele>
        <time>2020-06-28T17:43:31Z</time>
      </trkpt>
      <trkpt lat="48.71945" lon="7.21924">
        <ele>228.6</ele>
        <time>2020-06-28T17:43:32Z</time>
      </trkpt>
      <trkpt lat="48.71943" lon="7.21916">
        <ele>228.8</ele>
        <time>2020-06-28T17:43:33Z</time>
      </trkpt>
      <trkpt lat="48.71942" lon="7.21909">
        <ele>229</ele>
        <time>2020-06-28T17:43:34Z</time>
      </trkpt>
      <trkpt lat="48.71941" lon="7.21902">
        <ele>229.1</ele>
        <time>2020-06-28T17:43:35Z</time>
      </trkpt>
      <trkpt lat="48.71941" lon="7.21896">
        <ele>229.3</ele>
        <time>2020-06-28T17:43:36Z</time>
      </trkpt>
      <trkpt lat="48.71941" lon="7.2189">
        <ele>229.4</ele>
        <time>2020-06-28T17:43:37Z</time>
      </trkpt>
      <trkpt lat="48.71941" lon="7.21885">
        <ele>229.6</ele>
        <time>2020-06-28T17:43:38Z</time>
      </trkpt>
      <trkpt lat="48.7194" lon="7.2188">
        <ele>229.7</ele>
        <time>2020-06-28T17:43:39Z</time>
      </trkpt>
      <trkpt lat="48.7194" lon="7.21874">
        <ele>229.8</ele>
        <time>2020-06-28T17:43:40Z</time>
      </trkpt>
      <trkpt lat="48.7194" lon="7.21867">
        <ele>230</ele>
        <time>2020-06-28T17:43:41Z</time>
      </trkpt>
      <trkpt lat="48.71939" lon="7.2186">
        <ele>230.2</ele>
        <time>2020-06-28T17:43:42Z</time>
      </trkpt>
      <trkpt lat="48.71938" lon="7.21852">
        <ele>230.4</ele>
        <time>2020-06-28T17:43:43Z</time>
      </trkpt>
      <trkpt lat="48.71935" lon="7.21844">
        <ele>230.6</ele>
        <time>2020-06-28T17:43:44Z</time>
      </trkpt>
      <trkpt lat="48.71933" lon="7.21837">
        <ele>230.8</ele>
        <time>2020-06-28T17:43:45Z</time>
      </trkpt>
      <trkpt lat="48.71931" lon="7.21829">
        <ele>230.9</ele>
        <time>2020-06-28T17:43:46Z</time>
      </trkpt>
      <trkpt lat="48.71929" lon="7.21821">
        <ele>231.1</ele>
        <time>2020-06-28T17:43:47Z</time>
      </trkpt>
      <trkpt lat="48.71928" lon="7.21813">
        <ele>231.2</ele>
        <time>2020-06-28T17:43:48Z</time>
      </trkpt>
      <trkpt lat="48.71928" lon="7.21805">
        <ele>231.4</ele>
        <time>2020-06-28T17:43:49Z</time>
      </trkpt>
      <trkpt lat="48.71927" lon="7.21796">
        <ele>231.5</ele>
        <time>2020-06-28T17:43:50Z</time>
      </trkpt>
      <trkpt lat="48.71926" lon="7.21789">
        <ele>231.6</ele>
        <time>2020-06-28T17:43:51Z</time>
      </trkpt>
      <trkpt lat="48.71925" lon="7.21781">
        <ele>231.7</ele>
        <time>2020-06-28T17:43:52Z</time>
      </trkpt>
      <trkpt lat="48.71925" lon="7.21772">
        <ele>231.9</ele>
        <time>2020-06-28T17:43:53Z</time>
      </trkpt>
      <trkpt lat="48.71924" lon="7.21763">
        <ele>232</ele>
        <time>2020-06-28T17:43:54Z</time>
      </trkpt>
      <trkpt lat="48.71924" lon="7.21755">
        <ele>232.2</ele>
        <time>2020-06-28T17:43:55Z</time>
      </trkpt>
      <trkpt lat="48.71925" lon="7.21747">
        <ele>232.3</ele>
        <time>2020-06-28T17:43:56Z</time>
      </trkpt>
      <trkpt lat="48.71926" lon="7.2174">
        <ele>232.5</ele>
        <time>2020-06-28T17:43:57Z</time>
      </trkpt>
      <trkpt lat="48.71927" lon="7.21734">
        <ele>232.5</ele>
        <time>2020-06-28T17:43:58Z</time>
      </trkpt>
      <trkpt lat="48.71928" lon="7.21727">
        <ele>232.8</ele>
        <time>2020-06-28T17:43:59Z</time>
      </trkpt>
      <trkpt lat="48.71929" lon="7.21721">
        <ele>233.1</ele>
        <time>2020-06-28T17:44:00Z</time>
      </trkpt>
      <trkpt lat="48.7193" lon="7.21715">
        <ele>233.3</ele>
        <time>2020-06-28T17:44:01Z</time>
      </trkpt>
      <trkpt lat="48.7193" lon="7.21709">
        <ele>233.6</ele>
        <time>2020-06-28T17:44:02Z</time>
      </trkpt>
      <trkpt lat="48.71931" lon="7.21703">
        <ele>233.8</ele>
        <time>2020-06-28T17:44:03Z</time>
      </trkpt>
      <trkpt lat="48.71932" lon="7.21697">
        <ele>234.1</ele>
        <time>2020-06-28T17:44:04Z</time>
      </trkpt>
      <trkpt lat="48.71933" lon="7.21691">
        <ele>234.4</ele>
        <time>2020-06-28T17:44:05Z</time>
      </trkpt>
      <trkpt lat="48.71935" lon="7.21685">
        <ele>234.6</ele>
        <time>2020-06-28T17:44:06Z</time>
      </trkpt>
      <trkpt lat="48.71936" lon="7.2168">
        <ele>234.9</ele>
        <time>2020-06-28T17:44:07Z</time>
      </trkpt>
      <trkpt lat="48.71938" lon="7.21676">
        <ele>235.1</ele>
        <time>2020-06-28T17:44:08Z</time>
      </trkpt>
      <trkpt lat="48.71939" lon="7.21672">
        <ele>235.3</ele>
        <time>2020-06-28T17:44:09Z</time>
      </trkpt>
      <trkpt lat="48.7194" lon="7.21666">
        <ele>235.5</ele>
        <time>2020-06-28T17:44:10Z</time>
      </trkpt>
      <trkpt lat="48.71942" lon="7.21663">
        <ele>235.7</ele>
        <time>2020-06-28T17:44:11Z</time>
      </trkpt>
      <trkpt lat="48.71943" lon="7.21657">
        <ele>235.9</ele>
        <time>2020-06-28T17:44:12Z</time>
      </trkpt>
      <trkpt lat="48.71943" lon="7.21656">
        <ele>236</ele>
        <time>2020-06-28T17:44:13Z</time>
      </trkpt>
      <trkpt lat="48.71944" lon="7.2165">
        <ele>236.2</ele>
        <time>2020-06-28T17:44:14Z</time>
      </trkpt>
      <trkpt lat="48.71945" lon="7.21645">
        <ele>236.4</ele>
        <time>2020-06-28T17:44:15Z</time>
      </trkpt>
      <trkpt lat="48.71947" lon="7.21641">
        <ele>236.6</ele>
        <time>2020-06-28T17:44:16Z</time>
      </trkpt>
      <trkpt lat="48.71949" lon="7.21636">
        <ele>236.8</ele>
        <time>2020-06-28T17:44:17Z</time>
      </trkpt>
      <trkpt lat="48.7195" lon="7.21632">
        <ele>237</ele>
        <time>2020-06-28T17:44:18Z</time>
      </trkpt>
      <trkpt lat="48.71952" lon="7.21628">
        <ele>237.2</ele>
        <time>2020-06-28T17:44:19Z</time>
      </trkpt>
      <trkpt lat="48.71953" lon="7.21624">
        <ele>237.4</ele>
        <time>2020-06-28T17:44:20Z</time>
      </trkpt>
      <trkpt lat="48.71955" lon="7.21619">
        <ele>237.6</ele>
        <time>2020-06-28T17:44:21Z</time>
      </trkpt>
      <trkpt lat="48.71956" lon="7.21614">
        <ele>237.8</ele>
        <time>2020-06-28T17:44:22Z</time>
      </trkpt>
      <trkpt lat="48.71957" lon="7.21609">
        <ele>238.1</ele>
        <time>2020-06-28T17:44:23Z</time>
      </trkpt>
      <trkpt lat="48.71958" lon="7.21607">
        <ele>238.2</ele>
        <time>2020-06-28T17:44:24Z</time>
      </trkpt>
      <trkpt lat="48.71958" lon="7.216">
        <ele>238.4</ele>
        <time>2020-06-28T17:44:25Z</time>
      </trkpt>
      <trkpt lat="48.71959" lon="7.21598">
        <ele>239.8</ele>
        <time>2020-06-28T17:44:26Z</time>
      </trkpt>
      <trkpt lat="48.71959" lon="7.21592">
        <ele>241.2</ele>
        <time>2020-06-28T17:44:27Z</time>
      </trkpt>
      <trkpt lat="48.7196" lon="7.21587">
        <ele>242.7</ele>
        <time>2020-06-28T17:44:28Z</time>
      </trkpt>
      <trkpt lat="48.71961" lon="7.21582">
        <ele>244.2</ele>
        <time>2020-06-28T17:44:29Z</time>
      </trkpt>
      <trkpt lat="48.71963" lon="7.21576">
        <ele>245</ele>
        <time>2020-06-28T17:44:30Z</time>
      </trkpt>
      <trkpt lat="48.71964" lon="7.2157">
        <ele>246.5</ele>
        <time>2020-06-28T17:44:31Z</time>
      </trkpt>
      <trkpt lat="48.71965" lon="7.21566">
        <ele>247.9</ele>
        <time>2020-06-28T17:44:32Z</time>
      </trkpt>
      <trkpt lat="48.71966" lon="7.21561">
        <ele>249.3</ele>
        <time>2020-06-28T17:44:33Z</time>
      </trkpt>
      <trkpt lat="48.71967" lon="7.21557">
        <ele>249.9</ele>
        <time>2020-06-28T17:44:34Z</time>
      </trkpt>
      <trkpt lat="48.71969" lon="7.21552">
        <ele>251.2</ele>
        <time>2020-06-28T17:44:35Z</time>
      </trkpt>
      <trkpt lat="48.71969" lon="7.21547">
        <ele>252.5</ele>
        <time>2020-06-28T17:44:36Z</time>
      </trkpt>
      <trkpt lat="48.71971" lon="7.21542">
        <ele>252.9</ele>
        <time>2020-06-28T17:44:37Z</time>
      </trkpt>
      <trkpt lat="48.71972" lon="7.21537">
        <ele>254.3</ele>
        <time>2020-06-28T17:44:38Z</time>
      </trkpt>
      <trkpt lat="48.71973" lon="7.21533">
        <ele>255.7</ele>
        <time>2020-06-28T17:44:39Z</time>
      </trkpt>
      <trkpt lat="48.71974" lon="7.21528">
        <ele>256.2</ele>
        <time>2020-06-28T17:44:40Z</time>
      </trkpt>
      <trkpt lat="48.71975" lon="7.21524">
        <ele>257.7</ele>
        <time>2020-06-28T17:44:41Z</time>
      </trkpt>
      <trkpt lat="48.71976" lon="7.21519">
        <ele>259.1</ele>
        <time>2020-06-28T17:44:42Z</time>
      </trkpt>
      <trkpt lat="48.71977" lon="7.21515">
        <ele>259.6</ele>
        <time>2020-06-28T17:44:43Z</time>
      </trkpt>
      <trkpt lat="48.71978" lon="7.21513">
        <ele>261</ele>
        <time>2020-06-28T17:44:44Z</time>
      </trkpt>
      <trkpt lat="48.7198" lon="7.21508">
        <ele>261.6</ele>
        <time>2020-06-28T17:44:45Z</time>
      </trkpt>
      <trkpt lat="48.71981" lon="7.21506">
        <ele>262.9</ele>
        <time>2020-06-28T17:44:46Z</time>
      </trkpt>
      <trkpt lat="48.71982" lon="7.21501">
        <ele>263.6</ele>
        <time>2020-06-28T17:44:47Z</time>
      </trkpt>
      <trkpt lat="48.71983" lon="7.21496">
        <ele>265</ele>
        <time>2020-06-28T17:44:48Z</time>
      </trkpt>
      <trkpt lat="48.71985" lon="7.21491">
        <ele>265.7</ele>
        <time>2020-06-28T17:44:49Z</time>
      </trkpt>
      <trkpt lat="48.71986" lon="7.21489">
        <ele>266.4</ele>
        <time>2020-06-28T17:44:50Z</time>
      </trkpt>
      <trkpt lat="48.71987" lon="7.21485">
        <ele>267.8</ele>
        <time>2020-06-28T17:44:51Z</time>
      </trkpt>
      <trkpt lat="48.71988" lon="7.2148">
        <ele>268.5</ele>
        <time>2020-06-28T17:44:52Z</time>
      </trkpt>
      <trkpt lat="48.7199" lon="7.21476">
        <ele>269.9</ele>
        <time>2020-06-28T17:44:53Z</time>
      </trkpt>
      <trkpt lat="48.71992" lon="7.21471">
        <ele>271.1</ele>
        <time>2020-06-28T17:44:54Z</time>
      </trkpt>
      <trkpt lat="48.71993" lon="7.21467">
        <ele>271.8</ele>
        <time>2020-06-28T17:44:55Z</time>
      </trkpt>
      <trkpt lat="48.71995" lon="7.21462">
        <ele>272.8</ele>
        <time>2020-06-28T17:44:56Z</time>
      </trkpt>
      <trkpt lat="48.71996" lon="7.2146">
        <ele>273.4</ele>
        <time>2020-06-28T17:44:57Z</time>
      </trkpt>
      <trkpt lat="48.71997" lon="7.21454">
        <ele>273.2</ele>
        <time>2020-06-28T17:44:58Z</time>
      </trkpt>
      <trkpt lat="48.71997" lon="7.21452">
        <ele>273.2</ele>
        <time>2020-06-28T17:44:59Z</time>
      </trkpt>
      <trkpt lat="48.71999" lon="7.21448">
        <ele>273.3</ele>
        <time>2020-06-28T17:45:00Z</time>
      </trkpt>
      <trkpt lat="48.72" lon="7.21443">
        <ele>273.3</ele>
        <time>2020-06-28T17:45:01Z</time>
      </trkpt>
      <trkpt lat="48.72002" lon="7.21438">
        <ele>273.3</ele>
        <time>2020-06-28T17:45:02Z</time>
      </trkpt>
      <trkpt lat="48.72004" lon="7.21434">
        <ele>273.3</ele>
        <time>2020-06-28T17:45:03Z</time>
      </trkpt>
      <trkpt lat="48.72005" lon="7.21429">
        <ele>273.3</ele>
        <time>2020-06-28T17:45:04Z</time>
      </trkpt>
      <trkpt lat="48.72006" lon="7.21425">
        <ele>273.4</ele>
        <time>2020-06-28T17:45:05Z</time>
      </trkpt>
      <trkpt lat="48.72008" lon="7.21422">
        <ele>273.4</ele>
        <time>2020-06-28T17:45:06Z</time>
      </trkpt>
      <trkpt lat="48.72009" lon="7.21418">
        <ele>273.4</ele>
        <time>2020-06-28T17:45:07Z</time>
      </trkpt>
      <trkpt lat="48.72011" lon="7.21413">
        <ele>273.4</ele>
        <time>2020-06-28T17:45:08Z</time>
      </trkpt>
      <trkpt lat="48.72012" lon="7.21409">
        <ele>273.4</ele>
        <time>2020-06-28T17:45:09Z</time>
      </trkpt>
      <trkpt lat="48.72013" lon="7.21403">
        <ele>273.4</ele>
        <time>2020-06-28T17:45:10Z</time>
      </trkpt>
      <trkpt lat="48.72013" lon="7.21401">
        <ele>273.4</ele>
        <time>2020-06-28T17:45:11Z</time>
      </trkpt>
      <trkpt lat="48.72014" lon="7.21396">
        <ele>273.4</ele>
        <time>2020-06-28T17:45:12Z</time>
      </trkpt>
      <trkpt lat="48.72015" lon="7.21391">
        <ele>273.4</ele>
        <time>2020-06-28T17:45:13Z</time>
      </trkpt>
      <trkpt lat="48.72016" lon="7.21389">
        <ele>273.4</ele>
        <time>2020-06-28T17:45:14Z</time>
      </trkpt>
      <trkpt lat="48.72017" lon="7.21383">
        <ele>273.4</ele>
        <time>2020-06-28T17:45:15Z</time>
      </trkpt>
      <trkpt lat="48.72018" lon="7.21381">
        <ele>273.5</ele>
        <time>2020-06-28T17:45:16Z</time>
      </trkpt>
      <trkpt lat="48.72019" lon="7.21376">
        <ele>273.6</ele>
        <time>2020-06-28T17:45:17Z</time>
      </trkpt>
      <trkpt lat="48.72019" lon="7.21372">
        <ele>273.6</ele>
        <time>2020-06-28T17:45:18Z</time>
      </trkpt>
      <trkpt lat="48.72021" lon="7.21367">
        <ele>273.8</ele>
        <time>2020-06-28T17:45:19Z</time>
      </trkpt>
      <trkpt lat="48.72021" lon="7.21366">
        <ele>273.8</ele>
        <time>2020-06-28T17:45:20Z</time>
      </trkpt>
      <trkpt lat="48.72022" lon="7.21361">
        <ele>273.9</ele>
        <time>2020-06-28T17:45:21Z</time>
      </trkpt>
      <trkpt lat="48.72023" lon="7.21359">
        <ele>274</ele>
        <time>2020-06-28T17:45:22Z</time>
      </trkpt>
      <trkpt lat="48.72023" lon="7.21354">
        <ele>274.1</ele>
        <time>2020-06-28T17:45:23Z</time>
      </trkpt>
      <trkpt lat="48.72023" lon="7.21352">
        <ele>274.1</ele>
        <time>2020-06-28T17:45:24Z</time>
      </trkpt>
      <trkpt lat="48.72024" lon="7.21347">
        <ele>274.2</ele>
        <time>2020-06-28T17:45:25Z</time>
      </trkpt>
      <trkpt lat="48.72025" lon="7.21344">
        <ele>274.3</ele>
        <time>2020-06-28T17:45:26Z</time>
      </trkpt>
      <trkpt lat="48.72025" lon="7.2134">
        <ele>274.4</ele>
        <time>2020-06-28T17:45:27Z</time>
      </trkpt>
      <trkpt lat="48.72027" lon="7.21334">
        <ele>274.5</ele>
        <time>2020-06-28T17:45:28Z</time>
      </trkpt>
      <trkpt lat="48.72028" lon="7.21332">
        <ele>274.5</ele>
        <time>2020-06-28T17:45:29Z</time>
      </trkpt>
      <trkpt lat="48.7203" lon="7.21328">
        <ele>274.6</ele>
        <time>2020-06-28T17:45:30Z</time>
      </trkpt>
      <trkpt lat="48.72031" lon="7.21323">
        <ele>274.6</ele>
        <time>2020-06-28T17:45:31Z</time>
      </trkpt>
      <trkpt lat="48.72032" lon="7.21317">
        <ele>274.6</ele>
        <time>2020-06-28T17:45:32Z</time>
      </trkpt>
      <trkpt lat="48.72033" lon="7.21312">
        <ele>274.7</ele>
        <time>2020-06-28T17:45:33Z</time>
      </trkpt>
      <trkpt lat="48.72035" lon="7.21307">
        <ele>274.7</ele>
        <time>2020-06-28T17:45:34Z</time>
      </trkpt>
      <trkpt lat="48.72036" lon="7.21301">
        <ele>274.7</ele>
        <time>2020-06-28T17:45:35Z</time>
      </trkpt>
      <trkpt lat="48.72037" lon="7.21294">
        <ele>274.7</ele>
        <time>2020-06-28T17:45:36Z</time>
      </trkpt>
      <trkpt lat="48.72039" lon="7.21288">
        <ele>274.7</ele>
        <time>2020-06-28T17:45:37Z</time>
      </trkpt>
      <trkpt lat="48.72041" lon="7.21282">
        <ele>274.7</ele>
        <time>2020-06-28T17:45:38Z</time>
      </trkpt>
      <trkpt lat="48.72042" lon="7.21277">
        <ele>274.7</ele>
        <time>2020-06-28T17:45:39Z</time>
      </trkpt>
      <trkpt lat="48.72044" lon="7.21272">
        <ele>274.7</ele>
        <time>2020-06-28T17:45:40Z</time>
      </trkpt>
      <trkpt lat="48.72048" lon="7.21266">
        <ele>274.7</ele>
        <time>2020-06-28T17:45:41Z</time>
      </trkpt>
      <trkpt lat="48.72049" lon="7.21261">
        <ele>274.8</ele>
        <time>2020-06-28T17:45:42Z</time>
      </trkpt>
      <trkpt lat="48.7205" lon="7.21255">
        <ele>274.8</ele>
        <time>2020-06-28T17:45:43Z</time>
      </trkpt>
      <trkpt lat="48.72052" lon="7.2125">
        <ele>274.8</ele>
        <time>2020-06-28T17:45:44Z</time>
      </trkpt>
      <trkpt lat="48.72053" lon="7.21248">
        <ele>274.9</ele>
        <time>2020-06-28T17:45:45Z</time>
      </trkpt>
      <trkpt lat="48.72055" lon="7.21244">
        <ele>274.9</ele>
        <time>2020-06-28T17:45:46Z</time>
      </trkpt>
      <trkpt lat="48.72058" lon="7.21239">
        <ele>274.9</ele>
        <time>2020-06-28T17:45:47Z</time>
      </trkpt>
      <trkpt lat="48.7206" lon="7.21233">
        <ele>274.9</ele>
        <time>2020-06-28T17:45:48Z</time>
      </trkpt>
      <trkpt lat="48.72063" lon="7.21227">
        <ele>275</ele>
        <time>2020-06-28T17:45:49Z</time>
      </trkpt>
      <trkpt lat="48.72064" lon="7.21223">
        <ele>275</ele>
        <time>2020-06-28T17:45:50Z</time>
      </trkpt>
      <trkpt lat="48.72067" lon="7.2122">
        <ele>275</ele>
        <time>2020-06-28T17:45:51Z</time>
      </trkpt>
      <trkpt lat="48.72069" lon="7.21216">
        <ele>275</ele>
        <time>2020-06-28T17:45:52Z</time>
      </trkpt>
      <trkpt lat="48.72071" lon="7.21212">
        <ele>275</ele>
        <time>2020-06-28T17:45:53Z</time>
      </trkpt>
      <trkpt lat="48.72072" lon="7.21208">
        <ele>275</ele>
        <time>2020-06-28T17:45:54Z</time>
      </trkpt>
      <trkpt lat="48.72074" lon="7.21204">
        <ele>275</ele>
        <time>2020-06-28T17:45:55Z</time>
      </trkpt>
      <trkpt lat="48.72076" lon="7.21201">
        <ele>275</ele>
        <time>2020-06-28T17:45:56Z</time>
      </trkpt>
      <trkpt lat="48.72078" lon="7.21197">
        <ele>275</ele>
        <time>2020-06-28T17:45:57Z</time>
      </trkpt>
      <trkpt lat="48.7208" lon="7.21193">
        <ele>275.1</ele>
        <time>2020-06-28T17:45:58Z</time>
      </trkpt>
      <trkpt lat="48.72081" lon="7.21189">
        <ele>275.1</ele>
        <time>2020-06-28T17:45:59Z</time>
      </trkpt>
      <trkpt lat="48.72083" lon="7.21185">
        <ele>275.1</ele>
        <time>2020-06-28T17:46:00Z</time>
      </trkpt>
      <trkpt lat="48.72084" lon="7.21181">
        <ele>275.4</ele>
        <time>2020-06-28T17:46:01Z</time>
      </trkpt>
      <trkpt lat="48.72086" lon="7.21176">
        <ele>276.5</ele>
        <time>2020-06-28T17:46:02Z</time>
      </trkpt>
      <trkpt lat="48.72087" lon="7.21174">
        <ele>276.9</ele>
        <time>2020-06-28T17:46:03Z</time>
      </trkpt>
      <trkpt lat="48.72089" lon="7.21172">
        <ele>277.5</ele>
        <time>2020-06-28T17:46:04Z</time>
      </trkpt>
      <trkpt lat="48.72093" lon="7.21168">
        <ele>278.1</ele>
        <time>2020-06-28T17:46:05Z</time>
      </trkpt>
      <trkpt lat="48.72094" lon="7.21166">
        <ele>278.2</ele>
        <time>2020-06-28T17:46:06Z</time>
      </trkpt>
      <trkpt lat="48.72096" lon="7.21162">
        <ele>278.4</ele>
        <time>2020-06-28T17:46:07Z</time>
      </trkpt>
      <trkpt lat="48.72097" lon="7.21157">
        <ele>278.5</ele>
        <time>2020-06-28T17:46:08Z</time>
      </trkpt>
      <trkpt lat="48.72098" lon="7.21156">
        <ele>278.5</ele>
        <time>2020-06-28T17:46:09Z</time>
      </trkpt>
      <trkpt lat="48.721" lon="7.21152">
        <ele>278.5</ele>
        <time>2020-06-28T17:46:10Z</time>
      </trkpt>
      <trkpt lat="48.72102" lon="7.21148">
        <ele>278.5</ele>
        <time>2020-06-28T17:46:11Z</time>
      </trkpt>
      <trkpt lat="48.72103" lon="7.21146">
        <ele>278.5</ele>
        <time>2020-06-28T17:46:12Z</time>
      </trkpt>
      <trkpt lat="48.72105" lon="7.21141">
        <ele>278.4</ele>
        <time>2020-06-28T17:46:13Z</time>
      </trkpt>
      <trkpt lat="48.72107" lon="7.21137">
        <ele>278.4</ele>
        <time>2020-06-28T17:46:14Z</time>
      </trkpt>
      <trkpt lat="48.7211" lon="7.21133">
        <ele>278.3</ele>
        <time>2020-06-28T17:46:15Z</time>
      </trkpt>
      <trkpt lat="48.72112" lon="7.21126">
        <ele>278.3</ele>
        <time>2020-06-28T17:46:16Z</time>
      </trkpt>
      <trkpt lat="48.72114" lon="7.21121">
        <ele>278.2</ele>
        <time>2020-06-28T17:46:17Z</time>
      </trkpt>
      <trkpt lat="48.72116" lon="7.21115">
        <ele>278.1</ele>
        <time>2020-06-28T17:46:18Z</time>
      </trkpt>
      <trkpt lat="48.72118" lon="7.2111">
        <ele>278</ele>
        <time>2020-06-28T17:46:19Z</time>
      </trkpt>
      <trkpt lat="48.72121" lon="7.21106">
        <ele>278</ele>
        <time>2020-06-28T17:46:20Z</time>
      </trkpt>
      <trkpt lat="48.72123" lon="7.21101">
        <ele>277.9</ele>
        <time>2020-06-28T17:46:21Z</time>
      </trkpt>
      <trkpt lat="48.72125" lon="7.21097">
        <ele>277.9</ele>
        <time>2020-06-28T17:46:22Z</time>
      </trkpt>
      <trkpt lat="48.72128" lon="7.21092">
        <ele>277.9</ele>
        <time>2020-06-28T17:46:23Z</time>
      </trkpt>
      <trkpt lat="48.72129" lon="7.21086">
        <ele>277.9</ele>
        <time>2020-06-28T17:46:24Z</time>
      </trkpt>
      <trkpt lat="48.72132" lon="7.21079">
        <ele>277.9</ele>
        <time>2020-06-28T17:46:25Z</time>
      </trkpt>
      <trkpt lat="48.72134" lon="7.21073">
        <ele>277.9</ele>
        <time>2020-06-28T17:46:26Z</time>
      </trkpt>
      <trkpt lat="48.72137" lon="7.21066">
        <ele>277.9</ele>
        <time>2020-06-28T17:46:27Z</time>
      </trkpt>
      <trkpt lat="48.7214" lon="7.21059">
        <ele>277.9</ele>
        <time>2020-06-28T17:46:28Z</time>
      </trkpt>
      <trkpt lat="48.72142" lon="7.21052">
        <ele>277.8</ele>
        <time>2020-06-28T17:46:29Z</time>
      </trkpt>
      <trkpt lat="48.72145" lon="7.21044">
        <ele>277.8</ele>
        <time>2020-06-28T17:46:30Z</time>
      </trkpt>
      <trkpt lat="48.72147" lon="7.21037">
        <ele>277.8</ele>
        <time>2020-06-28T17:46:31Z</time>
      </trkpt>
      <trkpt lat="48.7215" lon="7.21029">
        <ele>277.7</ele>
        <time>2020-06-28T17:46:32Z</time>
      </trkpt>
      <trkpt lat="48.72152" lon="7.21022">
        <ele>277.7</ele>
        <time>2020-06-28T17:46:33Z</time>
      </trkpt>
      <trkpt lat="48.72159" lon="7.21013">
        <ele>277.6</ele>
        <time>2020-06-28T17:46:34Z</time>
      </trkpt>
      <trkpt lat="48.72165" lon="7.21003">
        <ele>277.5</ele>
        <time>2020-06-28T17:46:35Z</time>
      </trkpt>
      <trkpt lat="48.72174" lon="7.20993">
        <ele>277.4</ele>
        <time>2020-06-28T17:46:36Z</time>
      </trkpt>
      <trkpt lat="48.72184" lon="7.20982">
        <ele>277.5</ele>
        <time>2020-06-28T17:46:37Z</time>
      </trkpt>
      <trkpt lat="48.72193" lon="7.20971">
        <ele>277.6</ele>
        <time>2020-06-28T17:46:38Z</time>
      </trkpt>
      <trkpt lat="48.72198" lon="7.20961">
        <ele>277.5</ele>
        <time>2020-06-28T17:46:39Z</time>
      </trkpt>
      <trkpt lat="48.72204" lon="7.20948">
        <ele>277.3</ele>
        <time>2020-06-28T17:46:40Z</time>
      </trkpt>
      <trkpt lat="48.7221" lon="7.20937">
        <ele>277.2</ele>
        <time>2020-06-28T17:46:41Z</time>
      </trkpt>
      <trkpt lat="48.72215" lon="7.20925">
        <ele>267.3</ele>
        <time>2020-06-28T17:46:42Z</time>
      </trkpt>
      <trkpt lat="48.72222" lon="7.20913">
        <ele>257</ele>
        <time>2020-06-28T17:46:43Z</time>
      </trkpt>
      <trkpt lat="48.72226" lon="7.20902">
        <ele>256.4</ele>
        <time>2020-06-28T17:46:44Z</time>
      </trkpt>
      <trkpt lat="48.72229" lon="7.2089">
        <ele>255.8</ele>
        <time>2020-06-28T17:46:45Z</time>
      </trkpt>
      <trkpt lat="48.72232" lon="7.20877">
        <ele>255.1</ele>
        <time>2020-06-28T17:46:46Z</time>
      </trkpt>
      <trkpt lat="48.72235" lon="7.20863">
        <ele>254.4</ele>
        <time>2020-06-28T17:46:47Z</time>
      </trkpt>
      <trkpt lat="48.72238" lon="7.20849">
        <ele>253.7</ele>
        <time>2020-06-28T17:46:48Z</time>
      </trkpt>
      <trkpt lat="48.72242" lon="7.20835">
        <ele>253</ele>
        <time>2020-06-28T17:46:49Z</time>
      </trkpt>
      <trkpt lat="48.72246" lon="7.20821">
        <ele>252.3</ele>
        <time>2020-06-28T17:46:50Z</time>
      </trkpt>
      <trkpt lat="48.7225" lon="7.20807">
        <ele>251.6</ele>
        <time>2020-06-28T17:46:51Z</time>
      </trkpt>
      <trkpt lat="48.72254" lon="7.20794">
        <ele>250.9</ele>
        <time>2020-06-28T17:46:52Z</time>
      </trkpt>
      <trkpt lat="48.72257" lon="7.20779">
        <ele>250.1</ele>
        <time>2020-06-28T17:46:53Z</time>
      </trkpt>
      <trkpt lat="48.7226" lon="7.20764">
        <ele>249.5</ele>
        <time>2020-06-28T17:46:54Z</time>
      </trkpt>
      <trkpt lat="48.72263" lon="7.20751">
        <ele>248.9</ele>
        <time>2020-06-28T17:46:55Z</time>
      </trkpt>
      <trkpt lat="48.72267" lon="7.20738">
        <ele>248.4</ele>
        <time>2020-06-28T17:46:56Z</time>
      </trkpt>
      <trkpt lat="48.72271" lon="7.20726">
        <ele>248</ele>
        <time>2020-06-28T17:46:57Z</time>
      </trkpt>
      <trkpt lat="48.72274" lon="7.20714">
        <ele>247.7</ele>
        <time>2020-06-28T17:46:58Z</time>
      </trkpt>
      <trkpt lat="48.72278" lon="7.20702">
        <ele>247.5</ele>
        <time>2020-06-28T17:46:59Z</time>
      </trkpt>
      <trkpt lat="48.72282" lon="7.2069">
        <ele>247.4</ele>
        <time>2020-06-28T17:47:00Z</time>
      </trkpt>
      <trkpt lat="48.72286" lon="7.2068">
        <ele>247.4</ele>
        <time>2020-06-28T17:47:01Z</time>
      </trkpt>
      <trkpt lat="48.72289" lon="7.20669">
        <ele>247.4</ele>
        <time>2020-06-28T17:47:02Z</time>
      </trkpt>
      <trkpt lat="48.72292" lon="7.20659">
        <ele>247.4</ele>
        <time>2020-06-28T17:47:03Z</time>
      </trkpt>
      <trkpt lat="48.72294" lon="7.20647">
        <ele>247.5</ele>
        <time>2020-06-28T17:47:04Z</time>
      </trkpt>
      <trkpt lat="48.72297" lon="7.20636">
        <ele>247.6</ele>
        <time>2020-06-28T17:47:05Z</time>
      </trkpt>
      <trkpt lat="48.72302" lon="7.20625">
        <ele>247.9</ele>
        <time>2020-06-28T17:47:06Z</time>
      </trkpt>
      <trkpt lat="48.72306" lon="7.20615">
        <ele>248.2</ele>
        <time>2020-06-28T17:47:07Z</time>
      </trkpt>
      <trkpt lat="48.72309" lon="7.20604">
        <ele>248.4</ele>
        <time>2020-06-28T17:47:08Z</time>
      </trkpt>
      <trkpt lat="48.72312" lon="7.20594">
        <ele>248.8</ele>
        <time>2020-06-28T17:47:09Z</time>
      </trkpt>
      <trkpt lat="48.72315" lon="7.20584">
        <ele>249.1</ele>
        <time>2020-06-28T17:47:10Z</time>
      </trkpt>
      <trkpt lat="48.72318" lon="7.20574">
        <ele>249.5</ele>
        <time>2020-06-28T17:47:11Z</time>
      </trkpt>
      <trkpt lat="48.72322" lon="7.20565">
        <ele>249.9</ele>
        <time>2020-06-28T17:47:12Z</time>
      </trkpt>
      <trkpt lat="48.72326" lon="7.20554">
        <ele>250.3</ele>
        <time>2020-06-28T17:47:13Z</time>
      </trkpt>
      <trkpt lat="48.72329" lon="7.20545">
        <ele>250.7</ele>
        <time>2020-06-28T17:47:14Z</time>
      </trkpt>
      <trkpt lat="48.72331" lon="7.20536">
        <ele>251</ele>
        <time>2020-06-28T17:47:15Z</time>
      </trkpt>
      <trkpt lat="48.72333" lon="7.20528">
        <ele>251.2</ele>
        <time>2020-06-28T17:47:16Z</time>
      </trkpt>
      <trkpt lat="48.72336" lon="7.2052">
        <ele>251.5</ele>
        <time>2020-06-28T17:47:17Z</time>
      </trkpt>
      <trkpt lat="48.72337" lon="7.20512">
        <ele>251.9</ele>
        <time>2020-06-28T17:47:18Z</time>
      </trkpt>
      <trkpt lat="48.72339" lon="7.20502">
        <ele>252.3</ele>
        <time>2020-06-28T17:47:19Z</time>
      </trkpt>
      <trkpt lat="48.72342" lon="7.20492">
        <ele>252.8</ele>
        <time>2020-06-28T17:47:20Z</time>
      </trkpt>
      <trkpt lat="48.72343" lon="7.20482">
        <ele>253.3</ele>
        <time>2020-06-28T17:47:21Z</time>
      </trkpt>
      <trkpt lat="48.72345" lon="7.20474">
        <ele>253.6</ele>
        <time>2020-06-28T17:47:22Z</time>
      </trkpt>
      <trkpt lat="48.72346" lon="7.20463">
        <ele>254.1</ele>
        <time>2020-06-28T17:47:23Z</time>
      </trkpt>
      <trkpt lat="48.72347" lon="7.20452">
        <ele>254.6</ele>
        <time>2020-06-28T17:47:24Z</time>
      </trkpt>
      <trkpt lat="48.72348" lon="7.20443">
        <ele>255</ele>
        <time>2020-06-28T17:47:25Z</time>
      </trkpt>
      <trkpt lat="48.72349" lon="7.20435">
        <ele>255.3</ele>
        <time>2020-06-28T17:47:26Z</time>
      </trkpt>
      <trkpt lat="48.7235" lon="7.20427">
        <ele>255.6</ele>
        <time>2020-06-28T17:47:27Z</time>
      </trkpt>
      <trkpt lat="48.72352" lon="7.20418">
        <ele>256</ele>
        <time>2020-06-28T17:47:28Z</time>
      </trkpt>
      <trkpt lat="48.72354" lon="7.20409">
        <ele>256.3</ele>
        <time>2020-06-28T17:47:29Z</time>
      </trkpt>
      <trkpt lat="48.72355" lon="7.20401">
        <ele>256.6</ele>
        <time>2020-06-28T17:47:30Z</time>
      </trkpt>
      <trkpt lat="48.72356" lon="7.20393">
        <ele>256.9</ele>
        <time>2020-06-28T17:47:31Z</time>
      </trkpt>
      <trkpt lat="48.72357" lon="7.20387">
        <ele>257.1</ele>
        <time>2020-06-28T17:47:32Z</time>
      </trkpt>
      <trkpt lat="48.72358" lon="7.20381">
        <ele>257.3</ele>
        <time>2020-06-28T17:47:33Z</time>
      </trkpt>
      <trkpt lat="48.72359" lon="7.20376">
        <ele>257.4</ele>
        <time>2020-06-28T17:47:34Z</time>
      </trkpt>
      <trkpt lat="48.72359" lon="7.20372">
        <ele>257.4</ele>
        <time>2020-06-28T17:47:35Z</time>
      </trkpt>
      <trkpt lat="48.72362" lon="7.20369">
        <ele>257.5</ele>
        <time>2020-06-28T17:47:36Z</time>
      </trkpt>
      <trkpt lat="48.72364" lon="7.20364">
        <ele>257.5</ele>
        <time>2020-06-28T17:47:37Z</time>
      </trkpt>
      <trkpt lat="48.72365" lon="7.2036">
        <ele>257.6</ele>
        <time>2020-06-28T17:47:38Z</time>
      </trkpt>
      <trkpt lat="48.72365" lon="7.20356">
        <ele>257.6</ele>
        <time>2020-06-28T17:47:39Z</time>
      </trkpt>
      <trkpt lat="48.72365" lon="7.20355">
        <ele>257.6</ele>
        <time>2020-06-28T17:47:40Z</time>
      </trkpt>
      <trkpt lat="48.72366" lon="7.20349">
        <ele>257.5</ele>
        <time>2020-06-28T17:47:41Z</time>
      </trkpt>
      <trkpt lat="48.72366" lon="7.20347">
        <ele>257.5</ele>
        <time>2020-06-28T17:47:42Z</time>
      </trkpt>
      <trkpt lat="48.72367" lon="7.20343">
        <ele>257.5</ele>
        <time>2020-06-28T17:47:43Z</time>
      </trkpt>
      <trkpt lat="48.72368" lon="7.20338">
        <ele>257.4</ele>
        <time>2020-06-28T17:47:44Z</time>
      </trkpt>
      <trkpt lat="48.72369" lon="7.20333">
        <ele>257.4</ele>
        <time>2020-06-28T17:47:45Z</time>
      </trkpt>
      <trkpt lat="48.72369" lon="7.20331">
        <ele>257.3</ele>
        <time>2020-06-28T17:47:46Z</time>
      </trkpt>
      <trkpt lat="48.72369" lon="7.20326">
        <ele>257.2</ele>
        <time>2020-06-28T17:47:47Z</time>
      </trkpt>
      <trkpt lat="48.72369" lon="7.20325">
        <ele>257.2</ele>
        <time>2020-06-28T17:47:48Z</time>
      </trkpt>
      <trkpt lat="48.7237" lon="7.20321">
        <ele>257.1</ele>
        <time>2020-06-28T17:47:49Z</time>
      </trkpt>
      <trkpt lat="48.7237" lon="7.20316">
        <ele>257</ele>
        <time>2020-06-28T17:47:50Z</time>
      </trkpt>
      <trkpt lat="48.72371" lon="7.2031">
        <ele>256.8</ele>
        <time>2020-06-28T17:47:51Z</time>
      </trkpt>
      <trkpt lat="48.72372" lon="7.20303">
        <ele>256.6</ele>
        <time>2020-06-28T17:47:52Z</time>
      </trkpt>
      <trkpt lat="48.72373" lon="7.20297">
        <ele>256.5</ele>
        <time>2020-06-28T17:47:53Z</time>
      </trkpt>
      <trkpt lat="48.72374" lon="7.20291">
        <ele>256.3</ele>
        <time>2020-06-28T17:47:54Z</time>
      </trkpt>
      <trkpt lat="48.72374" lon="7.20283">
        <ele>256</ele>
        <time>2020-06-28T17:47:55Z</time>
      </trkpt>
      <trkpt lat="48.72375" lon="7.20274">
        <ele>255.8</ele>
        <time>2020-06-28T17:47:56Z</time>
      </trkpt>
      <trkpt lat="48.72376" lon="7.20266">
        <ele>255.5</ele>
        <time>2020-06-28T17:47:57Z</time>
      </trkpt>
      <trkpt lat="48.72376" lon="7.20256">
        <ele>255.2</ele>
        <time>2020-06-28T17:47:58Z</time>
      </trkpt>
      <trkpt lat="48.72377" lon="7.20246">
        <ele>254.8</ele>
        <time>2020-06-28T17:47:59Z</time>
      </trkpt>
      <trkpt lat="48.72379" lon="7.20236">
        <ele>254.5</ele>
        <time>2020-06-28T17:48:00Z</time>
      </trkpt>
      <trkpt lat="48.72379" lon="7.20227">
        <ele>254.2</ele>
        <time>2020-06-28T17:48:01Z</time>
      </trkpt>
      <trkpt lat="48.7238" lon="7.20214">
        <ele>254</ele>
        <time>2020-06-28T17:48:02Z</time>
      </trkpt>
      <trkpt lat="48.72381" lon="7.20202">
        <ele>253.7</ele>
        <time>2020-06-28T17:48:03Z</time>
      </trkpt>
      <trkpt lat="48.72382" lon="7.2019">
        <ele>253.4</ele>
        <time>2020-06-28T17:48:04Z</time>
      </trkpt>
      <trkpt lat="48.72383" lon="7.20177">
        <ele>253.2</ele>
        <time>2020-06-28T17:48:05Z</time>
      </trkpt>
      <trkpt lat="48.72383" lon="7.20165">
        <ele>253</ele>
        <time>2020-06-28T17:48:06Z</time>
      </trkpt>
      <trkpt lat="48.72384" lon="7.20152">
        <ele>252.9</ele>
        <time>2020-06-28T17:48:07Z</time>
      </trkpt>
      <trkpt lat="48.72384" lon="7.2014">
        <ele>252.8</ele>
        <time>2020-06-28T17:48:08Z</time>
      </trkpt>
      <trkpt lat="48.72385" lon="7.20129">
        <ele>252.8</ele>
        <time>2020-06-28T17:48:09Z</time>
      </trkpt>
      <trkpt lat="48.72384" lon="7.20117">
        <ele>252.7</ele>
        <time>2020-06-28T17:48:10Z</time>
      </trkpt>
      <trkpt lat="48.72382" lon="7.20105">
        <ele>252.7</ele>
        <time>2020-06-28T17:48:11Z</time>
      </trkpt>
      <trkpt lat="48.72382" lon="7.20093">
        <ele>252.8</ele>
        <time>2020-06-28T17:48:12Z</time>
      </trkpt>
      <trkpt lat="48.72381" lon="7.20083">
        <ele>252.9</ele>
        <time>2020-06-28T17:48:13Z</time>
      </trkpt>
      <trkpt lat="48.72382" lon="7.20072">
        <ele>253.1</ele>
        <time>2020-06-28T17:48:14Z</time>
      </trkpt>
      <trkpt lat="48.72382" lon="7.20062">
        <ele>253.3</ele>
        <time>2020-06-28T17:48:15Z</time>
      </trkpt>
      <trkpt lat="48.72383" lon="7.20052">
        <ele>253.5</ele>
        <time>2020-06-28T17:48:16Z</time>
      </trkpt>
      <trkpt lat="48.72383" lon="7.20043">
        <ele>253.7</ele>
        <time>2020-06-28T17:48:17Z</time>
      </trkpt>
      <trkpt lat="48.72383" lon="7.20033">
        <ele>253.9</ele>
        <time>2020-06-28T17:48:18Z</time>
      </trkpt>
      <trkpt lat="48.72384" lon="7.20024">
        <ele>254.1</ele>
        <time>2020-06-28T17:48:19Z</time>
      </trkpt>
      <trkpt lat="48.72383" lon="7.20016">
        <ele>254.2</ele>
        <time>2020-06-28T17:48:20Z</time>
      </trkpt>
      <trkpt lat="48.72384" lon="7.20009">
        <ele>254.4</ele>
        <time>2020-06-28T17:48:21Z</time>
      </trkpt>
      <trkpt lat="48.72384" lon="7.20002">
        <ele>254.6</ele>
        <time>2020-06-28T17:48:22Z</time>
      </trkpt>
      <trkpt lat="48.72383" lon="7.19995">
        <ele>254.7</ele>
        <time>2020-06-28T17:48:23Z</time>
      </trkpt>
      <trkpt lat="48.72382" lon="7.19988">
        <ele>254.9</ele>
        <time>2020-06-28T17:48:24Z</time>
      </trkpt>
      <trkpt lat="48.72382" lon="7.19981">
        <ele>255</ele>
        <time>2020-06-28T17:48:25Z</time>
      </trkpt>
      <trkpt lat="48.72381" lon="7.19973">
        <ele>255.2</ele>
        <time>2020-06-28T17:48:26Z</time>
      </trkpt>
      <trkpt lat="48.7238" lon="7.19965">
        <ele>255.3</ele>
        <time>2020-06-28T17:48:27Z</time>
      </trkpt>
      <trkpt lat="48.7238" lon="7.19955">
        <ele>255.4</ele>
        <time>2020-06-28T17:48:28Z</time>
      </trkpt>
      <trkpt lat="48.7238" lon="7.19947">
        <ele>255.5</ele>
        <time>2020-06-28T17:48:29Z</time>
      </trkpt>
      <trkpt lat="48.72379" lon="7.19939">
        <ele>255.6</ele>
        <time>2020-06-28T17:48:30Z</time>
      </trkpt>
      <trkpt lat="48.72378" lon="7.19931">
        <ele>255.7</ele>
        <time>2020-06-28T17:48:31Z</time>
      </trkpt>
      <trkpt lat="48.72377" lon="7.19922">
        <ele>255.7</ele>
        <time>2020-06-28T17:48:32Z</time>
      </trkpt>
      <trkpt lat="48.72376" lon="7.19914">
        <ele>255.8</ele>
        <time>2020-06-28T17:48:33Z</time>
      </trkpt>
      <trkpt lat="48.72376" lon="7.19905">
        <ele>255.9</ele>
        <time>2020-06-28T17:48:34Z</time>
      </trkpt>
      <trkpt lat="48.72375" lon="7.19898">
        <ele>256</ele>
        <time>2020-06-28T17:48:35Z</time>
      </trkpt>
      <trkpt lat="48.72374" lon="7.19891">
        <ele>256</ele>
        <time>2020-06-28T17:48:36Z</time>
      </trkpt>
      <trkpt lat="48.72373" lon="7.19884">
        <ele>256.1</ele>
        <time>2020-06-28T17:48:37Z</time>
      </trkpt>
      <trkpt lat="48.72373" lon="7.19876">
        <ele>256.1</ele>
        <time>2020-06-28T17:48:38Z</time>
      </trkpt>
      <trkpt lat="48.72372" lon="7.19868">
        <ele>256.1</ele>
        <time>2020-06-28T17:48:39Z</time>
      </trkpt>
      <trkpt lat="48.7237" lon="7.19861">
        <ele>256.1</ele>
        <time>2020-06-28T17:48:40Z</time>
      </trkpt>
      <trkpt lat="48.7237" lon="7.19853">
        <ele>256.1</ele>
        <time>2020-06-28T17:48:41Z</time>
      </trkpt>
      <trkpt lat="48.72368" lon="7.19845">
        <ele>256</ele>
        <time>2020-06-28T17:48:42Z</time>
      </trkpt>
      <trkpt lat="48.72367" lon="7.19837">
        <ele>256</ele>
        <time>2020-06-28T17:48:43Z</time>
      </trkpt>
      <trkpt lat="48.72366" lon="7.19829">
        <ele>255.9</ele>
        <time>2020-06-28T17:48:44Z</time>
      </trkpt>
      <trkpt lat="48.72365" lon="7.19822">
        <ele>255.8</ele>
        <time>2020-06-28T17:48:45Z</time>
      </trkpt>
      <trkpt lat="48.72363" lon="7.19814">
        <ele>255.7</ele>
        <time>2020-06-28T17:48:46Z</time>
      </trkpt>
      <trkpt lat="48.72361" lon="7.19805">
        <ele>255.7</ele>
        <time>2020-06-28T17:48:47Z</time>
      </trkpt>
      <trkpt lat="48.7236" lon="7.19795">
        <ele>255.5</ele>
        <time>2020-06-28T17:48:48Z</time>
      </trkpt>
      <trkpt lat="48.72358" lon="7.19785">
        <ele>255.4</ele>
        <time>2020-06-28T17:48:49Z</time>
      </trkpt>
      <trkpt lat="48.72357" lon="7.19775">
        <ele>255.3</ele>
        <time>2020-06-28T17:48:50Z</time>
      </trkpt>
      <trkpt lat="48.72355" lon="7.19766">
        <ele>255.2</ele>
        <time>2020-06-28T17:48:51Z</time>
      </trkpt>
      <trkpt lat="48.72353" lon="7.19757">
        <ele>255</ele>
        <time>2020-06-28T17:48:52Z</time>
      </trkpt>
      <trkpt lat="48.72351" lon="7.19747">
        <ele>254.9</ele>
        <time>2020-06-28T17:48:53Z</time>
      </trkpt>
      <trkpt lat="48.72349" lon="7.19737">
        <ele>254.8</ele>
        <time>2020-06-28T17:48:54Z</time>
      </trkpt>
      <trkpt lat="48.72347" lon="7.19727">
        <ele>254.6</ele>
        <time>2020-06-28T17:48:55Z</time>
      </trkpt>
      <trkpt lat="48.72345" lon="7.19717">
        <ele>254.5</ele>
        <time>2020-06-28T17:48:56Z</time>
      </trkpt>
      <trkpt lat="48.72344" lon="7.19709">
        <ele>254.5</ele>
        <time>2020-06-28T17:48:57Z</time>
      </trkpt>
      <trkpt lat="48.72342" lon="7.19703">
        <ele>254.4</ele>
        <time>2020-06-28T17:48:58Z</time>
      </trkpt>
      <trkpt lat="48.72341" lon="7.19695">
        <ele>254.4</ele>
        <time>2020-06-28T17:48:59Z</time>
      </trkpt>
      <trkpt lat="48.7234" lon="7.19686">
        <ele>254.3</ele>
        <time>2020-06-28T17:49:00Z</time>
      </trkpt>
      <trkpt lat="48.72338" lon="7.19676">
        <ele>254.2</ele>
        <time>2020-06-28T17:49:01Z</time>
      </trkpt>
      <trkpt lat="48.72336" lon="7.19666">
        <ele>254.2</ele>
        <time>2020-06-28T17:49:02Z</time>
      </trkpt>
      <trkpt lat="48.72334" lon="7.19656">
        <ele>254</ele>
        <time>2020-06-28T17:49:03Z</time>
      </trkpt>
      <trkpt lat="48.72333" lon="7.19646">
        <ele>253.9</ele>
        <time>2020-06-28T17:49:04Z</time>
      </trkpt>
      <trkpt lat="48.72331" lon="7.19636">
        <ele>253.7</ele>
        <time>2020-06-28T17:49:05Z</time>
      </trkpt>
      <trkpt lat="48.72331" lon="7.19626">
        <ele>253.6</ele>
        <time>2020-06-28T17:49:06Z</time>
      </trkpt>
      <trkpt lat="48.72329" lon="7.19615">
        <ele>253.2</ele>
        <time>2020-06-28T17:49:07Z</time>
      </trkpt>
      <trkpt lat="48.72328" lon="7.19604">
        <ele>252.5</ele>
        <time>2020-06-28T17:49:08Z</time>
      </trkpt>
      <trkpt lat="48.72327" lon="7.19593">
        <ele>251.7</ele>
        <time>2020-06-28T17:49:09Z</time>
      </trkpt>
      <trkpt lat="48.72326" lon="7.19582">
        <ele>251.6</ele>
        <time>2020-06-28T17:49:10Z</time>
      </trkpt>
      <trkpt lat="48.72324" lon="7.19572">
        <ele>251.6</ele>
        <time>2020-06-28T17:49:11Z</time>
      </trkpt>
      <trkpt lat="48.72323" lon="7.19561">
        <ele>251.6</ele>
        <time>2020-06-28T17:49:12Z</time>
      </trkpt>
      <trkpt lat="48.72322" lon="7.1955">
        <ele>251.6</ele>
        <time>2020-06-28T17:49:13Z</time>
      </trkpt>
      <trkpt lat="48.72323" lon="7.1954">
        <ele>251.6</ele>
        <time>2020-06-28T17:49:14Z</time>
      </trkpt>
      <trkpt lat="48.72322" lon="7.19529">
        <ele>251.6</ele>
        <time>2020-06-28T17:49:15Z</time>
      </trkpt>
      <trkpt lat="48.72322" lon="7.19519">
        <ele>251.6</ele>
        <time>2020-06-28T17:49:16Z</time>
      </trkpt>
      <trkpt lat="48.72321" lon="7.19508">
        <ele>251.7</ele>
        <time>2020-06-28T17:49:17Z</time>
      </trkpt>
      <trkpt lat="48.7232" lon="7.19498">
        <ele>251.7</ele>
        <time>2020-06-28T17:49:18Z</time>
      </trkpt>
      <trkpt lat="48.7232" lon="7.19487">
        <ele>251.8</ele>
        <time>2020-06-28T17:49:19Z</time>
      </trkpt>
      <trkpt lat="48.72319" lon="7.19477">
        <ele>251.9</ele>
        <time>2020-06-28T17:49:20Z</time>
      </trkpt>
      <trkpt lat="48.72317" lon="7.19466">
        <ele>252.1</ele>
        <time>2020-06-28T17:49:21Z</time>
      </trkpt>
      <trkpt lat="48.72316" lon="7.19456">
        <ele>252.2</ele>
        <time>2020-06-28T17:49:22Z</time>
      </trkpt>
      <trkpt lat="48.72315" lon="7.19446">
        <ele>252.3</ele>
        <time>2020-06-28T17:49:23Z</time>
      </trkpt>
      <trkpt lat="48.72315" lon="7.19435">
        <ele>252.4</ele>
        <time>2020-06-28T17:49:24Z</time>
      </trkpt>
      <trkpt lat="48.72314" lon="7.19424">
        <ele>252.4</ele>
        <time>2020-06-28T17:49:25Z</time>
      </trkpt>
      <trkpt lat="48.72314" lon="7.19414">
        <ele>252.4</ele>
        <time>2020-06-28T17:49:26Z</time>
      </trkpt>
      <trkpt lat="48.72314" lon="7.19404">
        <ele>252.5</ele>
        <time>2020-06-28T17:49:27Z</time>
      </trkpt>
      <trkpt lat="48.72314" lon="7.19395">
        <ele>252.5</ele>
        <time>2020-06-28T17:49:28Z</time>
      </trkpt>
      <trkpt lat="48.72314" lon="7.19385">
        <ele>252.6</ele>
        <time>2020-06-28T17:49:29Z</time>
      </trkpt>
      <trkpt lat="48.72314" lon="7.19376">
        <ele>252.6</ele>
        <time>2020-06-28T17:49:30Z</time>
      </trkpt>
      <trkpt lat="48.72314" lon="7.19368">
        <ele>252.6</ele>
        <time>2020-06-28T17:49:31Z</time>
      </trkpt>
      <trkpt lat="48.72314" lon="7.19359">
        <ele>252.7</ele>
        <time>2020-06-28T17:49:32Z</time>
      </trkpt>
      <trkpt lat="48.72313" lon="7.19351">
        <ele>252.7</ele>
        <time>2020-06-28T17:49:33Z</time>
      </trkpt>
      <trkpt lat="48.72313" lon="7.19343">
        <ele>252.8</ele>
        <time>2020-06-28T17:49:34Z</time>
      </trkpt>
      <trkpt lat="48.72313" lon="7.19335">
        <ele>252.8</ele>
        <time>2020-06-28T17:49:35Z</time>
      </trkpt>
      <trkpt lat="48.72313" lon="7.19328">
        <ele>252.9</ele>
        <time>2020-06-28T17:49:36Z</time>
      </trkpt>
      <trkpt lat="48.72312" lon="7.1932">
        <ele>252.9</ele>
        <time>2020-06-28T17:49:37Z</time>
      </trkpt>
      <trkpt lat="48.72312" lon="7.19311">
        <ele>253</ele>
        <time>2020-06-28T17:49:38Z</time>
      </trkpt>
      <trkpt lat="48.72312" lon="7.19303">
        <ele>253</ele>
        <time>2020-06-28T17:49:39Z</time>
      </trkpt>
      <trkpt lat="48.72312" lon="7.19295">
        <ele>253.1</ele>
        <time>2020-06-28T17:49:40Z</time>
      </trkpt>
      <trkpt lat="48.72312" lon="7.19286">
        <ele>253.2</ele>
        <time>2020-06-28T17:49:41Z</time>
      </trkpt>
      <trkpt lat="48.72312" lon="7.19278">
        <ele>253.2</ele>
        <time>2020-06-28T17:49:42Z</time>
      </trkpt>
      <trkpt lat="48.72312" lon="7.19269">
        <ele>253.3</ele>
        <time>2020-06-28T17:49:43Z</time>
      </trkpt>
      <trkpt lat="48.72312" lon="7.19261">
        <ele>253.4</ele>
        <time>2020-06-28T17:49:44Z</time>
      </trkpt>
      <trkpt lat="48.72312" lon="7.19252">
        <ele>253.4</ele>
        <time>2020-06-28T17:49:45Z</time>
      </trkpt>
      <trkpt lat="48.72313" lon="7.19244">
        <ele>253.5</ele>
        <time>2020-06-28T17:49:46Z</time>
      </trkpt>
      <trkpt lat="48.72313" lon="7.19233">
        <ele>253.6</ele>
        <time>2020-06-28T17:49:47Z</time>
      </trkpt>
      <trkpt lat="48.72314" lon="7.19223">
        <ele>253.6</ele>
        <time>2020-06-28T17:49:48Z</time>
      </trkpt>
      <trkpt lat="48.72315" lon="7.19212">
        <ele>253.6</ele>
        <time>2020-06-28T17:49:49Z</time>
      </trkpt>
      <trkpt lat="48.72315" lon="7.19203">
        <ele>253.6</ele>
        <time>2020-06-28T17:49:50Z</time>
      </trkpt>
      <trkpt lat="48.72316" lon="7.19193">
        <ele>253.6</ele>
        <time>2020-06-28T17:49:51Z</time>
      </trkpt>
      <trkpt lat="48.72315" lon="7.19183">
        <ele>253.6</ele>
        <time>2020-06-28T17:49:52Z</time>
      </trkpt>
      <trkpt lat="48.72315" lon="7.19173">
        <ele>253.5</ele>
        <time>2020-06-28T17:49:53Z</time>
      </trkpt>
      <trkpt lat="48.72315" lon="7.19162">
        <ele>253.5</ele>
        <time>2020-06-28T17:49:54Z</time>
      </trkpt>
      <trkpt lat="48.72315" lon="7.19153">
        <ele>253.5</ele>
        <time>2020-06-28T17:49:55Z</time>
      </trkpt>
      <trkpt lat="48.72315" lon="7.19144">
        <ele>253.5</ele>
        <time>2020-06-28T17:49:56Z</time>
      </trkpt>
      <trkpt lat="48.72316" lon="7.19135">
        <ele>253.4</ele>
        <time>2020-06-28T17:49:57Z</time>
      </trkpt>
      <trkpt lat="48.72318" lon="7.19126">
        <ele>253.4</ele>
        <time>2020-06-28T17:49:58Z</time>
      </trkpt>
      <trkpt lat="48.72319" lon="7.19115">
        <ele>253.4</ele>
        <time>2020-06-28T17:49:59Z</time>
      </trkpt>
      <trkpt lat="48.72321" lon="7.19103">
        <ele>253.4</ele>
        <time>2020-06-28T17:50:00Z</time>
      </trkpt>
      <trkpt lat="48.72321" lon="7.19091">
        <ele>253.4</ele>
        <time>2020-06-28T17:50:01Z</time>
      </trkpt>
      <trkpt lat="48.72322" lon="7.1908">
        <ele>253.4</ele>
        <time>2020-06-28T17:50:02Z</time>
      </trkpt>
      <trkpt lat="48.72323" lon="7.19068">
        <ele>253.3</ele>
        <time>2020-06-28T17:50:03Z</time>
      </trkpt>
      <trkpt lat="48.72323" lon="7.19057">
        <ele>253.3</ele>
        <time>2020-06-28T17:50:04Z</time>
      </trkpt>
      <trkpt lat="48.72324" lon="7.19046">
        <ele>253.3</ele>
        <time>2020-06-28T17:50:05Z</time>
      </trkpt>
      <trkpt lat="48.72325" lon="7.19035">
        <ele>253.3</ele>
        <time>2020-06-28T17:50:06Z</time>
      </trkpt>
      <trkpt lat="48.72326" lon="7.19025">
        <ele>253.3</ele>
        <time>2020-06-28T17:50:07Z</time>
      </trkpt>
      <trkpt lat="48.72327" lon="7.19015">
        <ele>253.3</ele>
        <time>2020-06-28T17:50:08Z</time>
      </trkpt>
      <trkpt lat="48.72327" lon="7.19005">
        <ele>253.3</ele>
        <time>2020-06-28T17:50:09Z</time>
      </trkpt>
      <trkpt lat="48.72328" lon="7.18996">
        <ele>253.3</ele>
        <time>2020-06-28T17:50:10Z</time>
      </trkpt>
      <trkpt lat="48.72329" lon="7.18986">
        <ele>253.3</ele>
        <time>2020-06-28T17:50:11Z</time>
      </trkpt>
      <trkpt lat="48.7233" lon="7.18977">
        <ele>253.3</ele>
        <time>2020-06-28T17:50:12Z</time>
      </trkpt>
      <trkpt lat="48.72332" lon="7.18969">
        <ele>253.3</ele>
        <time>2020-06-28T17:50:13Z</time>
      </trkpt>
      <trkpt lat="48.72333" lon="7.18959">
        <ele>253.3</ele>
        <time>2020-06-28T17:50:14Z</time>
      </trkpt>
      <trkpt lat="48.72335" lon="7.18949">
        <ele>253.3</ele>
        <time>2020-06-28T17:50:15Z</time>
      </trkpt>
      <trkpt lat="48.72336" lon="7.18939">
        <ele>253.2</ele>
        <time>2020-06-28T17:50:16Z</time>
      </trkpt>
      <trkpt lat="48.72338" lon="7.18929">
        <ele>253.2</ele>
        <time>2020-06-28T17:50:17Z</time>
      </trkpt>
      <trkpt lat="48.72339" lon="7.1892">
        <ele>253.2</ele>
        <time>2020-06-28T17:50:18Z</time>
      </trkpt>
      <trkpt lat="48.7234" lon="7.1891">
        <ele>253.2</ele>
        <time>2020-06-28T17:50:19Z</time>
      </trkpt>
      <trkpt lat="48.72342" lon="7.189">
        <ele>253.2</ele>
        <time>2020-06-28T17:50:20Z</time>
      </trkpt>
      <trkpt lat="48.72343" lon="7.1889">
        <ele>253.1</ele>
        <time>2020-06-28T17:50:21Z</time>
      </trkpt>
      <trkpt lat="48.72345" lon="7.18882">
        <ele>253.1</ele>
        <time>2020-06-28T17:50:22Z</time>
      </trkpt>
      <trkpt lat="48.72346" lon="7.18872">
        <ele>253.2</ele>
        <time>2020-06-28T17:50:23Z</time>
      </trkpt>
      <trkpt lat="48.72348" lon="7.18863">
        <ele>253.2</ele>
        <time>2020-06-28T17:50:24Z</time>
      </trkpt>
      <trkpt lat="48.72349" lon="7.18854">
        <ele>253.4</ele>
        <time>2020-06-28T17:50:25Z</time>
      </trkpt>
      <trkpt lat="48.72351" lon="7.18845">
        <ele>253.5</ele>
        <time>2020-06-28T17:50:26Z</time>
      </trkpt>
      <trkpt lat="48.72351" lon="7.18835">
        <ele>253.6</ele>
        <time>2020-06-28T17:50:27Z</time>
      </trkpt>
      <trkpt lat="48.72353" lon="7.18826">
        <ele>253.7</ele>
        <time>2020-06-28T17:50:28Z</time>
      </trkpt>
      <trkpt lat="48.72354" lon="7.18817">
        <ele>253.7</ele>
        <time>2020-06-28T17:50:29Z</time>
      </trkpt>
      <trkpt lat="48.72354" lon="7.18809">
        <ele>253.7</ele>
        <time>2020-06-28T17:50:30Z</time>
      </trkpt>
      <trkpt lat="48.72355" lon="7.18799">
        <ele>253.8</ele>
        <time>2020-06-28T17:50:31Z</time>
      </trkpt>
      <trkpt lat="48.72356" lon="7.18791">
        <ele>253.9</ele>
        <time>2020-06-28T17:50:32Z</time>
      </trkpt>
      <trkpt lat="48.72357" lon="7.18784">
        <ele>254</ele>
        <time>2020-06-28T17:50:33Z</time>
      </trkpt>
      <trkpt lat="48.72357" lon="7.18777">
        <ele>254.1</ele>
        <time>2020-06-28T17:50:34Z</time>
      </trkpt>
      <trkpt lat="48.72358" lon="7.18769">
        <ele>254.2</ele>
        <time>2020-06-28T17:50:35Z</time>
      </trkpt>
      <trkpt lat="48.72358" lon="7.18761">
        <ele>254.4</ele>
        <time>2020-06-28T17:50:36Z</time>
      </trkpt>
      <trkpt lat="48.72359" lon="7.18755">
        <ele>254.5</ele>
        <time>2020-06-28T17:50:37Z</time>
      </trkpt>
      <trkpt lat="48.7236" lon="7.1875">
        <ele>254.6</ele>
        <time>2020-06-28T17:50:38Z</time>
      </trkpt>
      <trkpt lat="48.72361" lon="7.18744">
        <ele>254.8</ele>
        <time>2020-06-28T17:50:39Z</time>
      </trkpt>
      <trkpt lat="48.72362" lon="7.18738">
        <ele>254.9</ele>
        <time>2020-06-28T17:50:40Z</time>
      </trkpt>
      <trkpt lat="48.72363" lon="7.18731">
        <ele>255.1</ele>
        <time>2020-06-28T17:50:41Z</time>
      </trkpt>
      <trkpt lat="48.72364" lon="7.18727">
        <ele>255.2</ele>
        <time>2020-06-28T17:50:42Z</time>
      </trkpt>
      <trkpt lat="48.72365" lon="7.18721">
        <ele>255.3</ele>
        <time>2020-06-28T17:50:43Z</time>
      </trkpt>
      <trkpt lat="48.72366" lon="7.18715">
        <ele>255.5</ele>
        <time>2020-06-28T17:50:44Z</time>
      </trkpt>
      <trkpt lat="48.72367" lon="7.18708">
        <ele>255.6</ele>
        <time>2020-06-28T17:50:45Z</time>
      </trkpt>
      <trkpt lat="48.72368" lon="7.18702">
        <ele>255.7</ele>
        <time>2020-06-28T17:50:46Z</time>
      </trkpt>
      <trkpt lat="48.7237" lon="7.18695">
        <ele>255.9</ele>
        <time>2020-06-28T17:50:47Z</time>
      </trkpt>
      <trkpt lat="48.72374" lon="7.1869">
        <ele>256.1</ele>
        <time>2020-06-28T17:50:48Z</time>
      </trkpt>
      <trkpt lat="48.72376" lon="7.18684">
        <ele>256.2</ele>
        <time>2020-06-28T17:50:49Z</time>
      </trkpt>
      <trkpt lat="48.72379" lon="7.18679">
        <ele>256.4</ele>
        <time>2020-06-28T17:50:50Z</time>
      </trkpt>
      <trkpt lat="48.72381" lon="7.18674">
        <ele>256.6</ele>
        <time>2020-06-28T17:50:51Z</time>
      </trkpt>
      <trkpt lat="48.72384" lon="7.18668">
        <ele>256.7</ele>
        <time>2020-06-28T17:50:52Z</time>
      </trkpt>
      <trkpt lat="48.72387" lon="7.18663">
        <ele>256.9</ele>
        <time>2020-06-28T17:50:53Z</time>
      </trkpt>
      <trkpt lat="48.7239" lon="7.18657">
        <ele>257.1</ele>
        <time>2020-06-28T17:50:54Z</time>
      </trkpt>
      <trkpt lat="48.72392" lon="7.18651">
        <ele>257.2</ele>
        <time>2020-06-28T17:50:55Z</time>
      </trkpt>
      <trkpt lat="48.72395" lon="7.18645">
        <ele>257.4</ele>
        <time>2020-06-28T17:50:56Z</time>
      </trkpt>
      <trkpt lat="48.72397" lon="7.1864">
        <ele>257.6</ele>
        <time>2020-06-28T17:50:57Z</time>
      </trkpt>
      <trkpt lat="48.72399" lon="7.18635">
        <ele>257.7</ele>
        <time>2020-06-28T17:50:58Z</time>
      </trkpt>
      <trkpt lat="48.724" lon="7.1863">
        <ele>257.8</ele>
        <time>2020-06-28T17:50:59Z</time>
      </trkpt>
      <trkpt lat="48.72402" lon="7.18624">
        <ele>257.9</ele>
        <time>2020-06-28T17:51:00Z</time>
      </trkpt>
      <trkpt lat="48.72403" lon="7.18618">
        <ele>258</ele>
        <time>2020-06-28T17:51:01Z</time>
      </trkpt>
      <trkpt lat="48.72405" lon="7.18614">
        <ele>258.1</ele>
        <time>2020-06-28T17:51:02Z</time>
      </trkpt>
      <trkpt lat="48.72408" lon="7.18608">
        <ele>258.2</ele>
        <time>2020-06-28T17:51:03Z</time>
      </trkpt>
      <trkpt lat="48.72411" lon="7.18608">
        <ele>258.2</ele>
        <time>2020-06-28T17:51:04Z</time>
      </trkpt>
      <trkpt lat="48.72413" lon="7.18605">
        <ele>258.1</ele>
        <time>2020-06-28T17:51:05Z</time>
      </trkpt>
      <trkpt lat="48.72416" lon="7.18602">
        <ele>258.1</ele>
        <time>2020-06-28T17:51:06Z</time>
      </trkpt>
      <trkpt lat="48.72418" lon="7.18598">
        <ele>258.1</ele>
        <time>2020-06-28T17:51:07Z</time>
      </trkpt>
      <trkpt lat="48.72421" lon="7.18596">
        <ele>258.1</ele>
        <time>2020-06-28T17:51:08Z</time>
      </trkpt>
      <trkpt lat="48.72422" lon="7.18595">
        <ele>258.1</ele>
        <time>2020-06-28T17:51:09Z</time>
      </trkpt>
      <trkpt lat="48.72425" lon="7.18592">
        <ele>258.1</ele>
        <time>2020-06-28T17:51:10Z</time>
      </trkpt>
      <trkpt lat="48.72429" lon="7.18588">
        <ele>258.2</ele>
        <time>2020-06-28T17:51:11Z</time>
      </trkpt>
      <trkpt lat="48.72431" lon="7.18587">
        <ele>258.2</ele>
        <time>2020-06-28T17:51:12Z</time>
      </trkpt>
      <trkpt lat="48.72434" lon="7.18583">
        <ele>258.2</ele>
        <time>2020-06-28T17:51:13Z</time>
      </trkpt>
      <trkpt lat="48.72437" lon="7.18578">
        <ele>258.3</ele>
        <time>2020-06-28T17:51:14Z</time>
      </trkpt>
      <trkpt lat="48.72439" lon="7.18574">
        <ele>258.3</ele>
        <time>2020-06-28T17:51:15Z</time>
      </trkpt>
      <trkpt lat="48.72442" lon="7.1857">
        <ele>258.2</ele>
        <time>2020-06-28T17:51:16Z</time>
      </trkpt>
      <trkpt lat="48.72445" lon="7.18566">
        <ele>258.2</ele>
        <time>2020-06-28T17:51:17Z</time>
      </trkpt>
      <trkpt lat="48.72448" lon="7.18561">
        <ele>258.2</ele>
        <time>2020-06-28T17:51:18Z</time>
      </trkpt>
      <trkpt lat="48.72451" lon="7.18555">
        <ele>258.1</ele>
        <time>2020-06-28T17:51:19Z</time>
      </trkpt>
      <trkpt lat="48.72453" lon="7.18551">
        <ele>258.1</ele>
        <time>2020-06-28T17:51:20Z</time>
      </trkpt>
      <trkpt lat="48.72455" lon="7.18546">
        <ele>258</ele>
        <time>2020-06-28T17:51:21Z</time>
      </trkpt>
      <trkpt lat="48.72457" lon="7.18541">
        <ele>258</ele>
        <time>2020-06-28T17:51:22Z</time>
      </trkpt>
      <trkpt lat="48.72458" lon="7.18535">
        <ele>258</ele>
        <time>2020-06-28T17:51:23Z</time>
      </trkpt>
      <trkpt lat="48.72459" lon="7.18528">
        <ele>257.9</ele>
        <time>2020-06-28T17:51:24Z</time>
      </trkpt>
      <trkpt lat="48.7246" lon="7.18521">
        <ele>257.8</ele>
        <time>2020-06-28T17:51:25Z</time>
      </trkpt>
      <trkpt lat="48.7246" lon="7.18514">
        <ele>257.8</ele>
        <time>2020-06-28T17:51:26Z</time>
      </trkpt>
      <trkpt lat="48.72461" lon="7.18508">
        <ele>257.7</ele>
        <time>2020-06-28T17:51:27Z</time>
      </trkpt>
      <trkpt lat="48.72462" lon="7.18498">
        <ele>257.6</ele>
        <time>2020-06-28T17:51:28Z</time>
      </trkpt>
      <trkpt lat="48.72462" lon="7.1849">
        <ele>257.5</ele>
        <time>2020-06-28T17:51:29Z</time>
      </trkpt>
      <trkpt lat="48.72462" lon="7.18483">
        <ele>257.4</ele>
        <time>2020-06-28T17:51:30Z</time>
      </trkpt>
      <trkpt lat="48.72462" lon="7.18474">
        <ele>257.4</ele>
        <time>2020-06-28T17:51:31Z</time>
      </trkpt>
      <trkpt lat="48.72461" lon="7.18467">
        <ele>257.3</ele>
        <time>2020-06-28T17:51:32Z</time>
      </trkpt>
      <trkpt lat="48.72461" lon="7.18459">
        <ele>257.2</ele>
        <time>2020-06-28T17:51:33Z</time>
      </trkpt>
      <trkpt lat="48.72461" lon="7.1845">
        <ele>257.2</ele>
        <time>2020-06-28T17:51:34Z</time>
      </trkpt>
      <trkpt lat="48.7246" lon="7.1844">
        <ele>257.1</ele>
        <time>2020-06-28T17:51:35Z</time>
      </trkpt>
      <trkpt lat="48.7246" lon="7.18432">
        <ele>257.1</ele>
        <time>2020-06-28T17:51:36Z</time>
      </trkpt>
      <trkpt lat="48.72458" lon="7.18425">
        <ele>257.2</ele>
        <time>2020-06-28T17:51:37Z</time>
      </trkpt>
      <trkpt lat="48.72457" lon="7.18415">
        <ele>257.3</ele>
        <time>2020-06-28T17:51:38Z</time>
      </trkpt>
      <trkpt lat="48.72456" lon="7.18407">
        <ele>257.5</ele>
        <time>2020-06-28T17:51:39Z</time>
      </trkpt>
      <trkpt lat="48.72455" lon="7.18397">
        <ele>257.8</ele>
        <time>2020-06-28T17:51:40Z</time>
      </trkpt>
      <trkpt lat="48.72453" lon="7.18388">
        <ele>258.1</ele>
        <time>2020-06-28T17:51:41Z</time>
      </trkpt>
      <trkpt lat="48.72452" lon="7.18379">
        <ele>258.3</ele>
        <time>2020-06-28T17:51:42Z</time>
      </trkpt>
      <trkpt lat="48.7245" lon="7.1837">
        <ele>258.7</ele>
        <time>2020-06-28T17:51:43Z</time>
      </trkpt>
      <trkpt lat="48.72449" lon="7.18362">
        <ele>259</ele>
        <time>2020-06-28T17:51:44Z</time>
      </trkpt>
      <trkpt lat="48.72448" lon="7.18355">
        <ele>259.3</ele>
        <time>2020-06-28T17:51:45Z</time>
      </trkpt>
      <trkpt lat="48.72447" lon="7.18348">
        <ele>259.6</ele>
        <time>2020-06-28T17:51:46Z</time>
      </trkpt>
      <trkpt lat="48.72447" lon="7.1834">
        <ele>260</ele>
        <time>2020-06-28T17:51:47Z</time>
      </trkpt>
      <trkpt lat="48.72446" lon="7.18334">
        <ele>260.3</ele>
        <time>2020-06-28T17:51:48Z</time>
      </trkpt>
      <trkpt lat="48.72446" lon="7.18327">
        <ele>260.7</ele>
        <time>2020-06-28T17:51:49Z</time>
      </trkpt>
      <trkpt lat="48.72445" lon="7.18319">
        <ele>261.1</ele>
        <time>2020-06-28T17:51:50Z</time>
      </trkpt>
      <trkpt lat="48.72444" lon="7.18313">
        <ele>261.4</ele>
        <time>2020-06-28T17:51:51Z</time>
      </trkpt>
      <trkpt lat="48.72443" lon="7.18306">
        <ele>261.8</ele>
        <time>2020-06-28T17:51:52Z</time>
      </trkpt>
      <trkpt lat="48.72443" lon="7.183">
        <ele>262.2</ele>
        <time>2020-06-28T17:51:53Z</time>
      </trkpt>
      <trkpt lat="48.72442" lon="7.18292">
        <ele>262.6</ele>
        <time>2020-06-28T17:51:54Z</time>
      </trkpt>
      <trkpt lat="48.72441" lon="7.18284">
        <ele>263.1</ele>
        <time>2020-06-28T17:51:55Z</time>
      </trkpt>
      <trkpt lat="48.72439" lon="7.18279">
        <ele>263.5</ele>
        <time>2020-06-28T17:51:56Z</time>
      </trkpt>
      <trkpt lat="48.72439" lon="7.18273">
        <ele>263.8</ele>
        <time>2020-06-28T17:51:57Z</time>
      </trkpt>
      <trkpt lat="48.72437" lon="7.18264">
        <ele>264.4</ele>
        <time>2020-06-28T17:51:58Z</time>
      </trkpt>
      <trkpt lat="48.72437" lon="7.18257">
        <ele>264.8</ele>
        <time>2020-06-28T17:51:59Z</time>
      </trkpt>
      <trkpt lat="48.72436" lon="7.18252">
        <ele>265.5</ele>
        <time>2020-06-28T17:52:00Z</time>
      </trkpt>
      <trkpt lat="48.72435" lon="7.18244">
        <ele>265.8</ele>
        <time>2020-06-28T17:52:01Z</time>
      </trkpt>
      <trkpt lat="48.72434" lon="7.18238">
        <ele>266</ele>
        <time>2020-06-28T17:52:02Z</time>
      </trkpt>
      <trkpt lat="48.72433" lon="7.18232">
        <ele>266.2</ele>
        <time>2020-06-28T17:52:03Z</time>
      </trkpt>
      <trkpt lat="48.72433" lon="7.18228">
        <ele>266.4</ele>
        <time>2020-06-28T17:52:04Z</time>
      </trkpt>
      <trkpt lat="48.72433" lon="7.18222">
        <ele>266.6</ele>
        <time>2020-06-28T17:52:05Z</time>
      </trkpt>
      <trkpt lat="48.72432" lon="7.18218">
        <ele>266.7</ele>
        <time>2020-06-28T17:52:06Z</time>
      </trkpt>
      <trkpt lat="48.72432" lon="7.18212">
        <ele>266.9</ele>
        <time>2020-06-28T17:52:07Z</time>
      </trkpt>
      <trkpt lat="48.72432" lon="7.18207">
        <ele>267.1</ele>
        <time>2020-06-28T17:52:08Z</time>
      </trkpt>
      <trkpt lat="48.72432" lon="7.18202">
        <ele>267.2</ele>
        <time>2020-06-28T17:52:09Z</time>
      </trkpt>
      <trkpt lat="48.72432" lon="7.18198">
        <ele>267.4</ele>
        <time>2020-06-28T17:52:10Z</time>
      </trkpt>
      <trkpt lat="48.72431" lon="7.18193">
        <ele>267.5</ele>
        <time>2020-06-28T17:52:11Z</time>
      </trkpt>
      <trkpt lat="48.72431" lon="7.18189">
        <ele>267.7</ele>
        <time>2020-06-28T17:52:12Z</time>
      </trkpt>
      <trkpt lat="48.72431" lon="7.18183">
        <ele>267.9</ele>
        <time>2020-06-28T17:52:13Z</time>
      </trkpt>
      <trkpt lat="48.7243" lon="7.18178">
        <ele>268</ele>
        <time>2020-06-28T17:52:14Z</time>
      </trkpt>
      <trkpt lat="48.72429" lon="7.18173">
        <ele>268.2</ele>
        <time>2020-06-28T17:52:15Z</time>
      </trkpt>
      <trkpt lat="48.72429" lon="7.18168">
        <ele>268.4</ele>
        <time>2020-06-28T17:52:16Z</time>
      </trkpt>
      <trkpt lat="48.72428" lon="7.18162">
        <ele>268.6</ele>
        <time>2020-06-28T17:52:17Z</time>
      </trkpt>
      <trkpt lat="48.72428" lon="7.1816">
        <ele>268.7</ele>
        <time>2020-06-28T17:52:18Z</time>
      </trkpt>
      <trkpt lat="48.72429" lon="7.18154">
        <ele>268.9</ele>
        <time>2020-06-28T17:52:19Z</time>
      </trkpt>
      <trkpt lat="48.72428" lon="7.18149">
        <ele>269.1</ele>
        <time>2020-06-28T17:52:20Z</time>
      </trkpt>
      <trkpt lat="48.72427" lon="7.18143">
        <ele>269.3</ele>
        <time>2020-06-28T17:52:21Z</time>
      </trkpt>
      <trkpt lat="48.72427" lon="7.18136">
        <ele>269.5</ele>
        <time>2020-06-28T17:52:22Z</time>
      </trkpt>
      <trkpt lat="48.72426" lon="7.18131">
        <ele>269.7</ele>
        <time>2020-06-28T17:52:23Z</time>
      </trkpt>
      <trkpt lat="48.72425" lon="7.18126">
        <ele>269.9</ele>
        <time>2020-06-28T17:52:24Z</time>
      </trkpt>
      <trkpt lat="48.72425" lon="7.1812">
        <ele>270.1</ele>
        <time>2020-06-28T17:52:25Z</time>
      </trkpt>
      <trkpt lat="48.72424" lon="7.18114">
        <ele>270.3</ele>
        <time>2020-06-28T17:52:26Z</time>
      </trkpt>
      <trkpt lat="48.72423" lon="7.18108">
        <ele>270.5</ele>
        <time>2020-06-28T17:52:27Z</time>
      </trkpt>
      <trkpt lat="48.72423" lon="7.18102">
        <ele>270.6</ele>
        <time>2020-06-28T17:52:28Z</time>
      </trkpt>
      <trkpt lat="48.72422" lon="7.18097">
        <ele>270.8</ele>
        <time>2020-06-28T17:52:29Z</time>
      </trkpt>
      <trkpt lat="48.7242" lon="7.18093">
        <ele>271</ele>
        <time>2020-06-28T17:52:30Z</time>
      </trkpt>
      <trkpt lat="48.72419" lon="7.18087">
        <ele>271.1</ele>
        <time>2020-06-28T17:52:31Z</time>
      </trkpt>
      <trkpt lat="48.72416" lon="7.18081">
        <ele>271.3</ele>
        <time>2020-06-28T17:52:32Z</time>
      </trkpt>
      <trkpt lat="48.72415" lon="7.18075">
        <ele>271.5</ele>
        <time>2020-06-28T17:52:33Z</time>
      </trkpt>
      <trkpt lat="48.72414" lon="7.18071">
        <ele>271.7</ele>
        <time>2020-06-28T17:52:34Z</time>
      </trkpt>
      <trkpt lat="48.72412" lon="7.18065">
        <ele>271.8</ele>
        <time>2020-06-28T17:52:35Z</time>
      </trkpt>
      <trkpt lat="48.72411" lon="7.18061">
        <ele>272</ele>
        <time>2020-06-28T17:52:36Z</time>
      </trkpt>
      <trkpt lat="48.72409" lon="7.18057">
        <ele>272.1</ele>
        <time>2020-06-28T17:52:37Z</time>
      </trkpt>
      <trkpt lat="48.72407" lon="7.18051">
        <ele>272.2</ele>
        <time>2020-06-28T17:52:38Z</time>
      </trkpt>
      <trkpt lat="48.72404" lon="7.18048">
        <ele>272.4</ele>
        <time>2020-06-28T17:52:39Z</time>
      </trkpt>
      <trkpt lat="48.72402" lon="7.18043">
        <ele>272.5</ele>
        <time>2020-06-28T17:52:40Z</time>
      </trkpt>
      <trkpt lat="48.724" lon="7.1804">
        <ele>272.5</ele>
        <time>2020-06-28T17:52:41Z</time>
      </trkpt>
      <trkpt lat="48.72397" lon="7.18034">
        <ele>272.6</ele>
        <time>2020-06-28T17:52:42Z</time>
      </trkpt>
      <trkpt lat="48.72396" lon="7.18028">
        <ele>272.6</ele>
        <time>2020-06-28T17:52:43Z</time>
      </trkpt>
      <trkpt lat="48.72393" lon="7.18024">
        <ele>272.7</ele>
        <time>2020-06-28T17:52:44Z</time>
      </trkpt>
      <trkpt lat="48.7239" lon="7.1802">
        <ele>272.7</ele>
        <time>2020-06-28T17:52:45Z</time>
      </trkpt>
      <trkpt lat="48.72387" lon="7.18016">
        <ele>272.8</ele>
        <time>2020-06-28T17:52:46Z</time>
      </trkpt>
      <trkpt lat="48.72384" lon="7.18012">
        <ele>272.8</ele>
        <time>2020-06-28T17:52:47Z</time>
      </trkpt>
      <trkpt lat="48.72382" lon="7.18007">
        <ele>272.8</ele>
        <time>2020-06-28T17:52:48Z</time>
      </trkpt>
      <trkpt lat="48.7238" lon="7.18002">
        <ele>272.9</ele>
        <time>2020-06-28T17:52:49Z</time>
      </trkpt>
      <trkpt lat="48.72378" lon="7.17996">
        <ele>272.9</ele>
        <time>2020-06-28T17:52:50Z</time>
      </trkpt>
      <trkpt lat="48.72376" lon="7.17991">
        <ele>272.9</ele>
        <time>2020-06-28T17:52:51Z</time>
      </trkpt>
      <trkpt lat="48.72373" lon="7.17987">
        <ele>272.9</ele>
        <time>2020-06-28T17:52:52Z</time>
      </trkpt>
      <trkpt lat="48.7237" lon="7.17982">
        <ele>272.9</ele>
        <time>2020-06-28T17:52:53Z</time>
      </trkpt>
      <trkpt lat="48.72368" lon="7.17977">
        <ele>272.8</ele>
        <time>2020-06-28T17:52:54Z</time>
      </trkpt>
      <trkpt lat="48.72365" lon="7.17973">
        <ele>272.8</ele>
        <time>2020-06-28T17:52:55Z</time>
      </trkpt>
      <trkpt lat="48.72362" lon="7.17968">
        <ele>272.8</ele>
        <time>2020-06-28T17:52:56Z</time>
      </trkpt>
      <trkpt lat="48.7236" lon="7.17963">
        <ele>272.8</ele>
        <time>2020-06-28T17:52:57Z</time>
      </trkpt>
      <trkpt lat="48.72357" lon="7.17958">
        <ele>272.8</ele>
        <time>2020-06-28T17:52:58Z</time>
      </trkpt>
      <trkpt lat="48.72354" lon="7.17953">
        <ele>272.8</ele>
        <time>2020-06-28T17:52:59Z</time>
      </trkpt>
      <trkpt lat="48.72351" lon="7.17947">
        <ele>272.7</ele>
        <time>2020-06-28T17:53:00Z</time>
      </trkpt>
      <trkpt lat="48.72348" lon="7.17941">
        <ele>272.7</ele>
        <time>2020-06-28T17:53:01Z</time>
      </trkpt>
      <trkpt lat="48.72345" lon="7.17937">
        <ele>272.7</ele>
        <time>2020-06-28T17:53:02Z</time>
      </trkpt>
      <trkpt lat="48.72342" lon="7.17932">
        <ele>272.6</ele>
        <time>2020-06-28T17:53:03Z</time>
      </trkpt>
      <trkpt lat="48.72339" lon="7.17927">
        <ele>272.6</ele>
        <time>2020-06-28T17:53:04Z</time>
      </trkpt>
      <trkpt lat="48.72337" lon="7.17921">
        <ele>272.5</ele>
        <time>2020-06-28T17:53:05Z</time>
      </trkpt>
      <trkpt lat="48.72335" lon="7.17916">
        <ele>272.4</ele>
        <time>2020-06-28T17:53:06Z</time>
      </trkpt>
      <trkpt lat="48.72334" lon="7.1791">
        <ele>272.4</ele>
        <time>2020-06-28T17:53:07Z</time>
      </trkpt>
      <trkpt lat="48.72332" lon="7.17903">
        <ele>272.3</ele>
        <time>2020-06-28T17:53:08Z</time>
      </trkpt>
      <trkpt lat="48.7233" lon="7.17896">
        <ele>272.2</ele>
        <time>2020-06-28T17:53:09Z</time>
      </trkpt>
      <trkpt lat="48.72328" lon="7.1789">
        <ele>272.1</ele>
        <time>2020-06-28T17:53:10Z</time>
      </trkpt>
      <trkpt lat="48.72326" lon="7.17883">
        <ele>272</ele>
        <time>2020-06-28T17:53:11Z</time>
      </trkpt>
      <trkpt lat="48.72325" lon="7.17874">
        <ele>271.9</ele>
        <time>2020-06-28T17:53:12Z</time>
      </trkpt>
      <trkpt lat="48.72323" lon="7.17866">
        <ele>271.7</ele>
        <time>2020-06-28T17:53:13Z</time>
      </trkpt>
      <trkpt lat="48.72322" lon="7.17857">
        <ele>271.6</ele>
        <time>2020-06-28T17:53:14Z</time>
      </trkpt>
      <trkpt lat="48.7232" lon="7.17849">
        <ele>271.5</ele>
        <time>2020-06-28T17:53:15Z</time>
      </trkpt>
      <trkpt lat="48.72319" lon="7.17841">
        <ele>271.3</ele>
        <time>2020-06-28T17:53:16Z</time>
      </trkpt>
      <trkpt lat="48.72318" lon="7.17834">
        <ele>271.2</ele>
        <time>2020-06-28T17:53:17Z</time>
      </trkpt>
      <trkpt lat="48.72318" lon="7.17825">
        <ele>271.1</ele>
        <time>2020-06-28T17:53:18Z</time>
      </trkpt>
      <trkpt lat="48.72318" lon="7.17817">
        <ele>271.1</ele>
        <time>2020-06-28T17:53:19Z</time>
      </trkpt>
      <trkpt lat="48.72318" lon="7.17809">
        <ele>271</ele>
        <time>2020-06-28T17:53:20Z</time>
      </trkpt>
      <trkpt lat="48.72318" lon="7.17801">
        <ele>271</ele>
        <time>2020-06-28T17:53:21Z</time>
      </trkpt>
      <trkpt lat="48.72318" lon="7.17795">
        <ele>270.9</ele>
        <time>2020-06-28T17:53:22Z</time>
      </trkpt>
      <trkpt lat="48.72317" lon="7.17787">
        <ele>270.9</ele>
        <time>2020-06-28T17:53:23Z</time>
      </trkpt>
      <trkpt lat="48.72317" lon="7.17779">
        <ele>270.8</ele>
        <time>2020-06-28T17:53:24Z</time>
      </trkpt>
      <trkpt lat="48.72318" lon="7.17772">
        <ele>270.8</ele>
        <time>2020-06-28T17:53:25Z</time>
      </trkpt>
      <trkpt lat="48.72317" lon="7.17763">
        <ele>270.8</ele>
        <time>2020-06-28T17:53:26Z</time>
      </trkpt>
      <trkpt lat="48.72318" lon="7.17755">
        <ele>270.9</ele>
        <time>2020-06-28T17:53:27Z</time>
      </trkpt>
      <trkpt lat="48.72317" lon="7.17747">
        <ele>270.9</ele>
        <time>2020-06-28T17:53:28Z</time>
      </trkpt>
      <trkpt lat="48.72317" lon="7.17739">
        <ele>271</ele>
        <time>2020-06-28T17:53:29Z</time>
      </trkpt>
      <trkpt lat="48.72317" lon="7.17731">
        <ele>271.1</ele>
        <time>2020-06-28T17:53:30Z</time>
      </trkpt>
      <trkpt lat="48.72317" lon="7.17722">
        <ele>271.2</ele>
        <time>2020-06-28T17:53:31Z</time>
      </trkpt>
      <trkpt lat="48.72318" lon="7.17712">
        <ele>271.3</ele>
        <time>2020-06-28T17:53:32Z</time>
      </trkpt>
      <trkpt lat="48.72318" lon="7.17701">
        <ele>271.5</ele>
        <time>2020-06-28T17:53:33Z</time>
      </trkpt>
      <trkpt lat="48.7232" lon="7.17691">
        <ele>271.5</ele>
        <time>2020-06-28T17:53:34Z</time>
      </trkpt>
      <trkpt lat="48.7232" lon="7.17683">
        <ele>271.5</ele>
        <time>2020-06-28T17:53:35Z</time>
      </trkpt>
      <trkpt lat="48.72321" lon="7.17675">
        <ele>271.5</ele>
        <time>2020-06-28T17:53:36Z</time>
      </trkpt>
      <trkpt lat="48.72322" lon="7.17666">
        <ele>271.7</ele>
        <time>2020-06-28T17:53:37Z</time>
      </trkpt>
      <trkpt lat="48.72323" lon="7.17659">
        <ele>271.9</ele>
        <time>2020-06-28T17:53:38Z</time>
      </trkpt>
      <trkpt lat="48.72322" lon="7.17653">
        <ele>272</ele>
        <time>2020-06-28T17:53:39Z</time>
      </trkpt>
      <trkpt lat="48.72322" lon="7.17646">
        <ele>272.2</ele>
        <time>2020-06-28T17:53:40Z</time>
      </trkpt>
      <trkpt lat="48.72322" lon="7.1764">
        <ele>272.3</ele>
        <time>2020-06-28T17:53:41Z</time>
      </trkpt>
      <trkpt lat="48.72322" lon="7.17635">
        <ele>272.5</ele>
        <time>2020-06-28T17:53:42Z</time>
      </trkpt>
      <trkpt lat="48.72321" lon="7.17628">
        <ele>272.7</ele>
        <time>2020-06-28T17:53:43Z</time>
      </trkpt>
      <trkpt lat="48.72321" lon="7.17621">
        <ele>272.9</ele>
        <time>2020-06-28T17:53:44Z</time>
      </trkpt>
      <trkpt lat="48.7232" lon="7.17614">
        <ele>273.1</ele>
        <time>2020-06-28T17:53:45Z</time>
      </trkpt>
      <trkpt lat="48.72319" lon="7.17608">
        <ele>273.4</ele>
        <time>2020-06-28T17:53:46Z</time>
      </trkpt>
      <trkpt lat="48.72319" lon="7.17601">
        <ele>273.6</ele>
        <time>2020-06-28T17:53:47Z</time>
      </trkpt>
      <trkpt lat="48.72318" lon="7.17594">
        <ele>273.9</ele>
        <time>2020-06-28T17:53:48Z</time>
      </trkpt>
      <trkpt lat="48.72318" lon="7.17588">
        <ele>274.2</ele>
        <time>2020-06-28T17:53:49Z</time>
      </trkpt>
      <trkpt lat="48.72317" lon="7.17581">
        <ele>274.5</ele>
        <time>2020-06-28T17:53:50Z</time>
      </trkpt>
      <trkpt lat="48.72317" lon="7.17575">
        <ele>274.9</ele>
        <time>2020-06-28T17:53:51Z</time>
      </trkpt>
      <trkpt lat="48.72316" lon="7.1757">
        <ele>275.2</ele>
        <time>2020-06-28T17:53:52Z</time>
      </trkpt>
      <trkpt lat="48.72316" lon="7.17565">
        <ele>275.5</ele>
        <time>2020-06-28T17:53:53Z</time>
      </trkpt>
      <trkpt lat="48.72316" lon="7.1756">
        <ele>275.7</ele>
        <time>2020-06-28T17:53:54Z</time>
      </trkpt>
      <trkpt lat="48.72315" lon="7.17555">
        <ele>276</ele>
        <time>2020-06-28T17:53:55Z</time>
      </trkpt>
      <trkpt lat="48.72314" lon="7.1755">
        <ele>276.4</ele>
        <time>2020-06-28T17:53:56Z</time>
      </trkpt>
      <trkpt lat="48.72313" lon="7.17545">
        <ele>276.7</ele>
        <time>2020-06-28T17:53:57Z</time>
      </trkpt>
      <trkpt lat="48.72313" lon="7.1754">
        <ele>277</ele>
        <time>2020-06-28T17:53:58Z</time>
      </trkpt>
      <trkpt lat="48.72312" lon="7.17534">
        <ele>277.3</ele>
        <time>2020-06-28T17:53:59Z</time>
      </trkpt>
      <trkpt lat="48.72312" lon="7.17528">
        <ele>277.6</ele>
        <time>2020-06-28T17:54:00Z</time>
      </trkpt>
      <trkpt lat="48.72311" lon="7.17523">
        <ele>278</ele>
        <time>2020-06-28T17:54:01Z</time>
      </trkpt>
      <trkpt lat="48.72311" lon="7.17517">
        <ele>278.3</ele>
        <time>2020-06-28T17:54:02Z</time>
      </trkpt>
      <trkpt lat="48.72311" lon="7.17512">
        <ele>278.5</ele>
        <time>2020-06-28T17:54:03Z</time>
      </trkpt>
      <trkpt lat="48.7231" lon="7.17506">
        <ele>278.9</ele>
        <time>2020-06-28T17:54:04Z</time>
      </trkpt>
      <trkpt lat="48.7231" lon="7.17502">
        <ele>279.1</ele>
        <time>2020-06-28T17:54:05Z</time>
      </trkpt>
      <trkpt lat="48.72309" lon="7.17497">
        <ele>279.4</ele>
        <time>2020-06-28T17:54:06Z</time>
      </trkpt>
      <trkpt lat="48.7231" lon="7.17491">
        <ele>279.6</ele>
        <time>2020-06-28T17:54:07Z</time>
      </trkpt>
      <trkpt lat="48.7231" lon="7.17486">
        <ele>279.9</ele>
        <time>2020-06-28T17:54:08Z</time>
      </trkpt>
      <trkpt lat="48.7231" lon="7.17479">
        <ele>280.2</ele>
        <time>2020-06-28T17:54:09Z</time>
      </trkpt>
      <trkpt lat="48.7231" lon="7.17474">
        <ele>280.5</ele>
        <time>2020-06-28T17:54:10Z</time>
      </trkpt>
      <trkpt lat="48.7231" lon="7.17468">
        <ele>280.8</ele>
        <time>2020-06-28T17:54:11Z</time>
      </trkpt>
      <trkpt lat="48.7231" lon="7.17465">
        <ele>280.9</ele>
        <time>2020-06-28T17:54:12Z</time>
      </trkpt>
      <trkpt lat="48.7231" lon="7.17459">
        <ele>281.2</ele>
        <time>2020-06-28T17:54:13Z</time>
      </trkpt>
      <trkpt lat="48.7231" lon="7.17452">
        <ele>281.5</ele>
        <time>2020-06-28T17:54:14Z</time>
      </trkpt>
      <trkpt lat="48.72309" lon="7.17443">
        <ele>281.9</ele>
        <time>2020-06-28T17:54:15Z</time>
      </trkpt>
      <trkpt lat="48.72308" lon="7.17434">
        <ele>282.2</ele>
        <time>2020-06-28T17:54:16Z</time>
      </trkpt>
      <trkpt lat="48.72307" lon="7.17425">
        <ele>282.6</ele>
        <time>2020-06-28T17:54:17Z</time>
      </trkpt>
      <trkpt lat="48.72305" lon="7.17417">
        <ele>282.9</ele>
        <time>2020-06-28T17:54:18Z</time>
      </trkpt>
      <trkpt lat="48.72304" lon="7.17409">
        <ele>283.3</ele>
        <time>2020-06-28T17:54:19Z</time>
      </trkpt>
      <trkpt lat="48.72303" lon="7.17402">
        <ele>283.4</ele>
        <time>2020-06-28T17:54:20Z</time>
      </trkpt>
      <trkpt lat="48.72302" lon="7.17395">
        <ele>283.5</ele>
        <time>2020-06-28T17:54:21Z</time>
      </trkpt>
      <trkpt lat="48.72303" lon="7.17389">
        <ele>283.7</ele>
        <time>2020-06-28T17:54:22Z</time>
      </trkpt>
      <trkpt lat="48.72303" lon="7.17382">
        <ele>283.8</ele>
        <time>2020-06-28T17:54:23Z</time>
      </trkpt>
      <trkpt lat="48.72303" lon="7.17376">
        <ele>283.9</ele>
        <time>2020-06-28T17:54:24Z</time>
      </trkpt>
      <trkpt lat="48.72303" lon="7.17369">
        <ele>284</ele>
        <time>2020-06-28T17:54:25Z</time>
      </trkpt>
      <trkpt lat="48.72302" lon="7.17363">
        <ele>284.1</ele>
        <time>2020-06-28T17:54:26Z</time>
      </trkpt>
      <trkpt lat="48.72302" lon="7.17358">
        <ele>284.2</ele>
        <time>2020-06-28T17:54:27Z</time>
      </trkpt>
      <trkpt lat="48.72301" lon="7.17353">
        <ele>284.2</ele>
        <time>2020-06-28T17:54:28Z</time>
      </trkpt>
      <trkpt lat="48.72301" lon="7.17347">
        <ele>284.3</ele>
        <time>2020-06-28T17:54:29Z</time>
      </trkpt>
      <trkpt lat="48.723" lon="7.17341">
        <ele>284.3</ele>
        <time>2020-06-28T17:54:30Z</time>
      </trkpt>
      <trkpt lat="48.72299" lon="7.17335">
        <ele>284.3</ele>
        <time>2020-06-28T17:54:31Z</time>
      </trkpt>
      <trkpt lat="48.72298" lon="7.17329">
        <ele>284.3</ele>
        <time>2020-06-28T17:54:32Z</time>
      </trkpt>
      <trkpt lat="48.72297" lon="7.17322">
        <ele>284.3</ele>
        <time>2020-06-28T17:54:33Z</time>
      </trkpt>
      <trkpt lat="48.72297" lon="7.17315">
        <ele>284.4</ele>
        <time>2020-06-28T17:54:34Z</time>
      </trkpt>
      <trkpt lat="48.72296" lon="7.17308">
        <ele>284.4</ele>
        <time>2020-06-28T17:54:35Z</time>
      </trkpt>
      <trkpt lat="48.72295" lon="7.17301">
        <ele>284.4</ele>
        <time>2020-06-28T17:54:36Z</time>
      </trkpt>
      <trkpt lat="48.72294" lon="7.17295">
        <ele>284.4</ele>
        <time>2020-06-28T17:54:37Z</time>
      </trkpt>
      <trkpt lat="48.72293" lon="7.1729">
        <ele>284.4</ele>
        <time>2020-06-28T17:54:38Z</time>
      </trkpt>
      <trkpt lat="48.72292" lon="7.17283">
        <ele>284.4</ele>
        <time>2020-06-28T17:54:39Z</time>
      </trkpt>
      <trkpt lat="48.72292" lon="7.17277">
        <ele>284.4</ele>
        <time>2020-06-28T17:54:40Z</time>
      </trkpt>
      <trkpt lat="48.72291" lon="7.1727">
        <ele>284.4</ele>
        <time>2020-06-28T17:54:41Z</time>
      </trkpt>
      <trkpt lat="48.72291" lon="7.17263">
        <ele>284.3</ele>
        <time>2020-06-28T17:54:42Z</time>
      </trkpt>
      <trkpt lat="48.7229" lon="7.17256">
        <ele>284.3</ele>
        <time>2020-06-28T17:54:43Z</time>
      </trkpt>
      <trkpt lat="48.72289" lon="7.1725">
        <ele>284.3</ele>
        <time>2020-06-28T17:54:44Z</time>
      </trkpt>
      <trkpt lat="48.72289" lon="7.17244">
        <ele>284.3</ele>
        <time>2020-06-28T17:54:45Z</time>
      </trkpt>
      <trkpt lat="48.72288" lon="7.17238">
        <ele>284.2</ele>
        <time>2020-06-28T17:54:46Z</time>
      </trkpt>
      <trkpt lat="48.72288" lon="7.17231">
        <ele>284.2</ele>
        <time>2020-06-28T17:54:47Z</time>
      </trkpt>
      <trkpt lat="48.72286" lon="7.17225">
        <ele>284.2</ele>
        <time>2020-06-28T17:54:48Z</time>
      </trkpt>
      <trkpt lat="48.72285" lon="7.17219">
        <ele>284.2</ele>
        <time>2020-06-28T17:54:49Z</time>
      </trkpt>
      <trkpt lat="48.72283" lon="7.17213">
        <ele>284.2</ele>
        <time>2020-06-28T17:54:50Z</time>
      </trkpt>
      <trkpt lat="48.72282" lon="7.17206">
        <ele>284.2</ele>
        <time>2020-06-28T17:54:51Z</time>
      </trkpt>
      <trkpt lat="48.72281" lon="7.17199">
        <ele>284.2</ele>
        <time>2020-06-28T17:54:52Z</time>
      </trkpt>
      <trkpt lat="48.7228" lon="7.17192">
        <ele>284.2</ele>
        <time>2020-06-28T17:54:53Z</time>
      </trkpt>
      <trkpt lat="48.72278" lon="7.17186">
        <ele>284.2</ele>
        <time>2020-06-28T17:54:54Z</time>
      </trkpt>
      <trkpt lat="48.72277" lon="7.17178">
        <ele>284.1</ele>
        <time>2020-06-28T17:54:55Z</time>
      </trkpt>
      <trkpt lat="48.72275" lon="7.17171">
        <ele>284.1</ele>
        <time>2020-06-28T17:54:56Z</time>
      </trkpt>
      <trkpt lat="48.72274" lon="7.17164">
        <ele>284.1</ele>
        <time>2020-06-28T17:54:57Z</time>
      </trkpt>
      <trkpt lat="48.7227" lon="7.17156">
        <ele>284.1</ele>
        <time>2020-06-28T17:54:58Z</time>
      </trkpt>
      <trkpt lat="48.72268" lon="7.1715">
        <ele>284.1</ele>
        <time>2020-06-28T17:54:59Z</time>
      </trkpt>
      <trkpt lat="48.72267" lon="7.17143">
        <ele>284.1</ele>
        <time>2020-06-28T17:55:00Z</time>
      </trkpt>
      <trkpt lat="48.72266" lon="7.17137">
        <ele>284.1</ele>
        <time>2020-06-28T17:55:01Z</time>
      </trkpt>
      <trkpt lat="48.72265" lon="7.1713">
        <ele>284</ele>
        <time>2020-06-28T17:55:02Z</time>
      </trkpt>
      <trkpt lat="48.72264" lon="7.17124">
        <ele>284</ele>
        <time>2020-06-28T17:55:03Z</time>
      </trkpt>
      <trkpt lat="48.72263" lon="7.17117">
        <ele>284</ele>
        <time>2020-06-28T17:55:04Z</time>
      </trkpt>
      <trkpt lat="48.72262" lon="7.1711">
        <ele>284</ele>
        <time>2020-06-28T17:55:05Z</time>
      </trkpt>
      <trkpt lat="48.7226" lon="7.17103">
        <ele>284</ele>
        <time>2020-06-28T17:55:06Z</time>
      </trkpt>
      <trkpt lat="48.72258" lon="7.17096">
        <ele>284</ele>
        <time>2020-06-28T17:55:07Z</time>
      </trkpt>
      <trkpt lat="48.72257" lon="7.17089">
        <ele>284.1</ele>
        <time>2020-06-28T17:55:08Z</time>
      </trkpt>
      <trkpt lat="48.72255" lon="7.17082">
        <ele>284.1</ele>
        <time>2020-06-28T17:55:09Z</time>
      </trkpt>
      <trkpt lat="48.72253" lon="7.17075">
        <ele>284.1</ele>
        <time>2020-06-28T17:55:10Z</time>
      </trkpt>
      <trkpt lat="48.7225" lon="7.17068">
        <ele>284</ele>
        <time>2020-06-28T17:55:11Z</time>
      </trkpt>
      <trkpt lat="48.72249" lon="7.1706">
        <ele>283.9</ele>
        <time>2020-06-28T17:55:12Z</time>
      </trkpt>
      <trkpt lat="48.72248" lon="7.17053">
        <ele>283.9</ele>
        <time>2020-06-28T17:55:13Z</time>
      </trkpt>
      <trkpt lat="48.72246" lon="7.17046">
        <ele>283.8</ele>
        <time>2020-06-28T17:55:14Z</time>
      </trkpt>
      <trkpt lat="48.72244" lon="7.17038">
        <ele>283.8</ele>
        <time>2020-06-28T17:55:15Z</time>
      </trkpt>
      <trkpt lat="48.72242" lon="7.17032">
        <ele>283.8</ele>
        <time>2020-06-28T17:55:16Z</time>
      </trkpt>
      <trkpt lat="48.72241" lon="7.17025">
        <ele>283.9</ele>
        <time>2020-06-28T17:55:17Z</time>
      </trkpt>
      <trkpt lat="48.72239" lon="7.17018">
        <ele>284</ele>
        <time>2020-06-28T17:55:18Z</time>
      </trkpt>
      <trkpt lat="48.72238" lon="7.17012">
        <ele>284</ele>
        <time>2020-06-28T17:55:19Z</time>
      </trkpt>
      <trkpt lat="48.72236" lon="7.17005">
        <ele>284.1</ele>
        <time>2020-06-28T17:55:20Z</time>
      </trkpt>
      <trkpt lat="48.72235" lon="7.16999">
        <ele>284.1</ele>
        <time>2020-06-28T17:55:21Z</time>
      </trkpt>
      <trkpt lat="48.72233" lon="7.16991">
        <ele>284.2</ele>
        <time>2020-06-28T17:55:22Z</time>
      </trkpt>
      <trkpt lat="48.72232" lon="7.16985">
        <ele>284.3</ele>
        <time>2020-06-28T17:55:23Z</time>
      </trkpt>
      <trkpt lat="48.72231" lon="7.16978">
        <ele>284.3</ele>
        <time>2020-06-28T17:55:24Z</time>
      </trkpt>
      <trkpt lat="48.7223" lon="7.16971">
        <ele>284.4</ele>
        <time>2020-06-28T17:55:25Z</time>
      </trkpt>
      <trkpt lat="48.72228" lon="7.16965">
        <ele>284.4</ele>
        <time>2020-06-28T17:55:26Z</time>
      </trkpt>
      <trkpt lat="48.72227" lon="7.16958">
        <ele>284.5</ele>
        <time>2020-06-28T17:55:27Z</time>
      </trkpt>
      <trkpt lat="48.72226" lon="7.16952">
        <ele>284.6</ele>
        <time>2020-06-28T17:55:28Z</time>
      </trkpt>
      <trkpt lat="48.72224" lon="7.16945">
        <ele>284.6</ele>
        <time>2020-06-28T17:55:29Z</time>
      </trkpt>
      <trkpt lat="48.72223" lon="7.16938">
        <ele>284.6</ele>
        <time>2020-06-28T17:55:30Z</time>
      </trkpt>
      <trkpt lat="48.72221" lon="7.16932">
        <ele>284.6</ele>
        <time>2020-06-28T17:55:31Z</time>
      </trkpt>
      <trkpt lat="48.7222" lon="7.16926">
        <ele>284.6</ele>
        <time>2020-06-28T17:55:32Z</time>
      </trkpt>
      <trkpt lat="48.72218" lon="7.16919">
        <ele>284.6</ele>
        <time>2020-06-28T17:55:33Z</time>
      </trkpt>
      <trkpt lat="48.72216" lon="7.16912">
        <ele>284.6</ele>
        <time>2020-06-28T17:55:34Z</time>
      </trkpt>
      <trkpt lat="48.72215" lon="7.16904">
        <ele>284.5</ele>
        <time>2020-06-28T17:55:35Z</time>
      </trkpt>
      <trkpt lat="48.72214" lon="7.16897">
        <ele>284.5</ele>
        <time>2020-06-28T17:55:36Z</time>
      </trkpt>
      <trkpt lat="48.72213" lon="7.16889">
        <ele>284.4</ele>
        <time>2020-06-28T17:55:37Z</time>
      </trkpt>
      <trkpt lat="48.72211" lon="7.16882">
        <ele>284.3</ele>
        <time>2020-06-28T17:55:38Z</time>
      </trkpt>
      <trkpt lat="48.7221" lon="7.16874">
        <ele>284.2</ele>
        <time>2020-06-28T17:55:39Z</time>
      </trkpt>
      <trkpt lat="48.72208" lon="7.16867">
        <ele>284.2</ele>
        <time>2020-06-28T17:55:40Z</time>
      </trkpt>
      <trkpt lat="48.72207" lon="7.16859">
        <ele>284.1</ele>
        <time>2020-06-28T17:55:41Z</time>
      </trkpt>
      <trkpt lat="48.72205" lon="7.16851">
        <ele>284</ele>
        <time>2020-06-28T17:55:42Z</time>
      </trkpt>
      <trkpt lat="48.72204" lon="7.16842">
        <ele>283.9</ele>
        <time>2020-06-28T17:55:43Z</time>
      </trkpt>
      <trkpt lat="48.72203" lon="7.16834">
        <ele>283.9</ele>
        <time>2020-06-28T17:55:44Z</time>
      </trkpt>
      <trkpt lat="48.722" lon="7.16825">
        <ele>283.8</ele>
        <time>2020-06-28T17:55:45Z</time>
      </trkpt>
      <trkpt lat="48.72199" lon="7.16818">
        <ele>283.7</ele>
        <time>2020-06-28T17:55:46Z</time>
      </trkpt>
      <trkpt lat="48.72196" lon="7.16811">
        <ele>283.6</ele>
        <time>2020-06-28T17:55:47Z</time>
      </trkpt>
      <trkpt lat="48.72193" lon="7.16806">
        <ele>283.7</ele>
        <time>2020-06-28T17:55:48Z</time>
      </trkpt>
      <trkpt lat="48.72189" lon="7.16802">
        <ele>283.7</ele>
        <time>2020-06-28T17:55:49Z</time>
      </trkpt>
      <trkpt lat="48.72185" lon="7.16797">
        <ele>283.8</ele>
        <time>2020-06-28T17:55:50Z</time>
      </trkpt>
      <trkpt lat="48.72181" lon="7.16792">
        <ele>283.8</ele>
        <time>2020-06-28T17:55:51Z</time>
      </trkpt>
      <trkpt lat="48.72176" lon="7.16788">
        <ele>283.8</ele>
        <time>2020-06-28T17:55:52Z</time>
      </trkpt>
      <trkpt lat="48.72171" lon="7.16785">
        <ele>283.9</ele>
        <time>2020-06-28T17:55:53Z</time>
      </trkpt>
      <trkpt lat="48.72166" lon="7.16783">
        <ele>284</ele>
        <time>2020-06-28T17:55:54Z</time>
      </trkpt>
      <trkpt lat="48.72161" lon="7.16779">
        <ele>284.1</ele>
        <time>2020-06-28T17:55:55Z</time>
      </trkpt>
      <trkpt lat="48.72156" lon="7.16776">
        <ele>284.2</ele>
        <time>2020-06-28T17:55:56Z</time>
      </trkpt>
      <trkpt lat="48.7215" lon="7.16772">
        <ele>284.2</ele>
        <time>2020-06-28T17:55:57Z</time>
      </trkpt>
      <trkpt lat="48.72145" lon="7.1677">
        <ele>284.3</ele>
        <time>2020-06-28T17:55:58Z</time>
      </trkpt>
      <trkpt lat="48.72139" lon="7.16767">
        <ele>284.5</ele>
        <time>2020-06-28T17:55:59Z</time>
      </trkpt>
      <trkpt lat="48.72134" lon="7.16764">
        <ele>284.6</ele>
        <time>2020-06-28T17:56:00Z</time>
      </trkpt>
      <trkpt lat="48.7213" lon="7.1676">
        <ele>284.7</ele>
        <time>2020-06-28T17:56:01Z</time>
      </trkpt>
      <trkpt lat="48.72126" lon="7.16756">
        <ele>284.8</ele>
        <time>2020-06-28T17:56:02Z</time>
      </trkpt>
      <trkpt lat="48.72122" lon="7.1675">
        <ele>285</ele>
        <time>2020-06-28T17:56:03Z</time>
      </trkpt>
      <trkpt lat="48.72118" lon="7.16745">
        <ele>285.2</ele>
        <time>2020-06-28T17:56:04Z</time>
      </trkpt>
      <trkpt lat="48.72115" lon="7.1674">
        <ele>285.4</ele>
        <time>2020-06-28T17:56:05Z</time>
      </trkpt>
      <trkpt lat="48.72112" lon="7.16735">
        <ele>285.6</ele>
        <time>2020-06-28T17:56:06Z</time>
      </trkpt>
      <trkpt lat="48.72109" lon="7.1673">
        <ele>285.9</ele>
        <time>2020-06-28T17:56:07Z</time>
      </trkpt>
      <trkpt lat="48.72106" lon="7.16725">
        <ele>286.1</ele>
        <time>2020-06-28T17:56:08Z</time>
      </trkpt>
      <trkpt lat="48.72103" lon="7.1672">
        <ele>286.3</ele>
        <time>2020-06-28T17:56:09Z</time>
      </trkpt>
      <trkpt lat="48.721" lon="7.16715">
        <ele>286.5</ele>
        <time>2020-06-28T17:56:10Z</time>
      </trkpt>
      <trkpt lat="48.72098" lon="7.16711">
        <ele>286.7</ele>
        <time>2020-06-28T17:56:11Z</time>
      </trkpt>
      <trkpt lat="48.72096" lon="7.16707">
        <ele>286.9</ele>
        <time>2020-06-28T17:56:12Z</time>
      </trkpt>
      <trkpt lat="48.72094" lon="7.16703">
        <ele>287.1</ele>
        <time>2020-06-28T17:56:13Z</time>
      </trkpt>
      <trkpt lat="48.72092" lon="7.16698">
        <ele>287.4</ele>
        <time>2020-06-28T17:56:14Z</time>
      </trkpt>
      <trkpt lat="48.72089" lon="7.16694">
        <ele>287.6</ele>
        <time>2020-06-28T17:56:15Z</time>
      </trkpt>
      <trkpt lat="48.72086" lon="7.16689">
        <ele>287.8</ele>
        <time>2020-06-28T17:56:16Z</time>
      </trkpt>
      <trkpt lat="48.72084" lon="7.16685">
        <ele>288</ele>
        <time>2020-06-28T17:56:17Z</time>
      </trkpt>
      <trkpt lat="48.72082" lon="7.16682">
        <ele>288.2</ele>
        <time>2020-06-28T17:56:18Z</time>
      </trkpt>
      <trkpt lat="48.7208" lon="7.16678">
        <ele>288.4</ele>
        <time>2020-06-28T17:56:19Z</time>
      </trkpt>
      <trkpt lat="48.72076" lon="7.16675">
        <ele>288.6</ele>
        <time>2020-06-28T17:56:20Z</time>
      </trkpt>
      <trkpt lat="48.72073" lon="7.16671">
        <ele>288.8</ele>
        <time>2020-06-28T17:56:21Z</time>
      </trkpt>
      <trkpt lat="48.7207" lon="7.16665">
        <ele>289</ele>
        <time>2020-06-28T17:56:22Z</time>
      </trkpt>
      <trkpt lat="48.72067" lon="7.16661">
        <ele>289.1</ele>
        <time>2020-06-28T17:56:23Z</time>
      </trkpt>
      <trkpt lat="48.72064" lon="7.16657">
        <ele>289.3</ele>
        <time>2020-06-28T17:56:24Z</time>
      </trkpt>
      <trkpt lat="48.72062" lon="7.16652">
        <ele>289.5</ele>
        <time>2020-06-28T17:56:25Z</time>
      </trkpt>
      <trkpt lat="48.72059" lon="7.16649">
        <ele>289.7</ele>
        <time>2020-06-28T17:56:26Z</time>
      </trkpt>
      <trkpt lat="48.72057" lon="7.16644">
        <ele>289.9</ele>
        <time>2020-06-28T17:56:27Z</time>
      </trkpt>
      <trkpt lat="48.72055" lon="7.16638">
        <ele>290.1</ele>
        <time>2020-06-28T17:56:28Z</time>
      </trkpt>
      <trkpt lat="48.72052" lon="7.16631">
        <ele>290.3</ele>
        <time>2020-06-28T17:56:29Z</time>
      </trkpt>
      <trkpt lat="48.72049" lon="7.16625">
        <ele>290.6</ele>
        <time>2020-06-28T17:56:30Z</time>
      </trkpt>
      <trkpt lat="48.72046" lon="7.16622">
        <ele>290.8</ele>
        <time>2020-06-28T17:56:31Z</time>
      </trkpt>
      <trkpt lat="48.72043" lon="7.16618">
        <ele>291</ele>
        <time>2020-06-28T17:56:32Z</time>
      </trkpt>
      <trkpt lat="48.72041" lon="7.16614">
        <ele>291.1</ele>
        <time>2020-06-28T17:56:33Z</time>
      </trkpt>
      <trkpt lat="48.72038" lon="7.16611">
        <ele>291.3</ele>
        <time>2020-06-28T17:56:34Z</time>
      </trkpt>
      <trkpt lat="48.72035" lon="7.1661">
        <ele>291.4</ele>
        <time>2020-06-28T17:56:35Z</time>
      </trkpt>
      <trkpt lat="48.72031" lon="7.16607">
        <ele>291.9</ele>
        <time>2020-06-28T17:56:36Z</time>
      </trkpt>
      <trkpt lat="48.72026" lon="7.16607">
        <ele>291.9</ele>
        <time>2020-06-28T17:56:37Z</time>
      </trkpt>
      <trkpt lat="48.72023" lon="7.16607">
        <ele>292</ele>
        <time>2020-06-28T17:56:38Z</time>
      </trkpt>
      <trkpt lat="48.72019" lon="7.16607">
        <ele>292</ele>
        <time>2020-06-28T17:56:39Z</time>
      </trkpt>
      <trkpt lat="48.72015" lon="7.16608">
        <ele>292.1</ele>
        <time>2020-06-28T17:56:40Z</time>
      </trkpt>
      <trkpt lat="48.72012" lon="7.1661">
        <ele>292.2</ele>
        <time>2020-06-28T17:56:41Z</time>
      </trkpt>
      <trkpt lat="48.72009" lon="7.16612">
        <ele>292.2</ele>
        <time>2020-06-28T17:56:42Z</time>
      </trkpt>
      <trkpt lat="48.72005" lon="7.16613">
        <ele>292.3</ele>
        <time>2020-06-28T17:56:43Z</time>
      </trkpt>
      <trkpt lat="48.72001" lon="7.16614">
        <ele>292.4</ele>
        <time>2020-06-28T17:56:44Z</time>
      </trkpt>
      <trkpt lat="48.71997" lon="7.16614">
        <ele>292.5</ele>
        <time>2020-06-28T17:56:45Z</time>
      </trkpt>
      <trkpt lat="48.71993" lon="7.16612">
        <ele>292.6</ele>
        <time>2020-06-28T17:56:46Z</time>
      </trkpt>
      <trkpt lat="48.7199" lon="7.16609">
        <ele>292.7</ele>
        <time>2020-06-28T17:56:47Z</time>
      </trkpt>
      <trkpt lat="48.71986" lon="7.16606">
        <ele>292.8</ele>
        <time>2020-06-28T17:56:48Z</time>
      </trkpt>
      <trkpt lat="48.71982" lon="7.16602">
        <ele>293</ele>
        <time>2020-06-28T17:56:49Z</time>
      </trkpt>
      <trkpt lat="48.7198" lon="7.16597">
        <ele>293.1</ele>
        <time>2020-06-28T17:56:50Z</time>
      </trkpt>
      <trkpt lat="48.71976" lon="7.16594">
        <ele>293.2</ele>
        <time>2020-06-28T17:56:51Z</time>
      </trkpt>
      <trkpt lat="48.71973" lon="7.1659">
        <ele>293.3</ele>
        <time>2020-06-28T17:56:52Z</time>
      </trkpt>
      <trkpt lat="48.7197" lon="7.16587">
        <ele>293.4</ele>
        <time>2020-06-28T17:56:53Z</time>
      </trkpt>
      <trkpt lat="48.71967" lon="7.16581">
        <ele>293.6</ele>
        <time>2020-06-28T17:56:54Z</time>
      </trkpt>
      <trkpt lat="48.71963" lon="7.16578">
        <ele>293.7</ele>
        <time>2020-06-28T17:56:55Z</time>
      </trkpt>
      <trkpt lat="48.7196" lon="7.16574">
        <ele>293.8</ele>
        <time>2020-06-28T17:56:56Z</time>
      </trkpt>
      <trkpt lat="48.71957" lon="7.1657">
        <ele>293.9</ele>
        <time>2020-06-28T17:56:57Z</time>
      </trkpt>
      <trkpt lat="48.71953" lon="7.16566">
        <ele>294</ele>
        <time>2020-06-28T17:56:58Z</time>
      </trkpt>
      <trkpt lat="48.7195" lon="7.16562">
        <ele>294.2</ele>
        <time>2020-06-28T17:56:59Z</time>
      </trkpt>
      <trkpt lat="48.71947" lon="7.16559">
        <ele>294.3</ele>
        <time>2020-06-28T17:57:00Z</time>
      </trkpt>
      <trkpt lat="48.71944" lon="7.16556">
        <ele>294.4</ele>
        <time>2020-06-28T17:57:01Z</time>
      </trkpt>
      <trkpt lat="48.7194" lon="7.16552">
        <ele>294.5</ele>
        <time>2020-06-28T17:57:02Z</time>
      </trkpt>
      <trkpt lat="48.71936" lon="7.16548">
        <ele>294.6</ele>
        <time>2020-06-28T17:57:03Z</time>
      </trkpt>
      <trkpt lat="48.71932" lon="7.16544">
        <ele>294.7</ele>
        <time>2020-06-28T17:57:04Z</time>
      </trkpt>
      <trkpt lat="48.71929" lon="7.16541">
        <ele>294.8</ele>
        <time>2020-06-28T17:57:05Z</time>
      </trkpt>
      <trkpt lat="48.71926" lon="7.16537">
        <ele>295</ele>
        <time>2020-06-28T17:57:06Z</time>
      </trkpt>
      <trkpt lat="48.71922" lon="7.16533">
        <ele>295.1</ele>
        <time>2020-06-28T17:57:07Z</time>
      </trkpt>
      <trkpt lat="48.71917" lon="7.16532">
        <ele>295.2</ele>
        <time>2020-06-28T17:57:08Z</time>
      </trkpt>
      <trkpt lat="48.71913" lon="7.16528">
        <ele>295.3</ele>
        <time>2020-06-28T17:57:09Z</time>
      </trkpt>
      <trkpt lat="48.7191" lon="7.16525">
        <ele>295.3</ele>
        <time>2020-06-28T17:57:10Z</time>
      </trkpt>
      <trkpt lat="48.71905" lon="7.16522">
        <ele>295.4</ele>
        <time>2020-06-28T17:57:11Z</time>
      </trkpt>
      <trkpt lat="48.71901" lon="7.16519">
        <ele>295.5</ele>
        <time>2020-06-28T17:57:12Z</time>
      </trkpt>
      <trkpt lat="48.71898" lon="7.16516">
        <ele>295.6</ele>
        <time>2020-06-28T17:57:13Z</time>
      </trkpt>
      <trkpt lat="48.71893" lon="7.16513">
        <ele>295.7</ele>
        <time>2020-06-28T17:57:14Z</time>
      </trkpt>
      <trkpt lat="48.7189" lon="7.16508">
        <ele>295.8</ele>
        <time>2020-06-28T17:57:15Z</time>
      </trkpt>
      <trkpt lat="48.71885" lon="7.16505">
        <ele>295.9</ele>
        <time>2020-06-28T17:57:16Z</time>
      </trkpt>
      <trkpt lat="48.71881" lon="7.16502">
        <ele>296</ele>
        <time>2020-06-28T17:57:17Z</time>
      </trkpt>
      <trkpt lat="48.71876" lon="7.16499">
        <ele>296.1</ele>
        <time>2020-06-28T17:57:18Z</time>
      </trkpt>
      <trkpt lat="48.71872" lon="7.16495">
        <ele>296.2</ele>
        <time>2020-06-28T17:57:19Z</time>
      </trkpt>
      <trkpt lat="48.71868" lon="7.16494">
        <ele>296.3</ele>
        <time>2020-06-28T17:57:20Z</time>
      </trkpt>
      <trkpt lat="48.71864" lon="7.1649">
        <ele>296.4</ele>
        <time>2020-06-28T17:57:21Z</time>
      </trkpt>
      <trkpt lat="48.71861" lon="7.16486">
        <ele>296.5</ele>
        <time>2020-06-28T17:57:22Z</time>
      </trkpt>
      <trkpt lat="48.71857" lon="7.16482">
        <ele>296.6</ele>
        <time>2020-06-28T17:57:23Z</time>
      </trkpt>
      <trkpt lat="48.71853" lon="7.16479">
        <ele>296.6</ele>
        <time>2020-06-28T17:57:24Z</time>
      </trkpt>
      <trkpt lat="48.71851" lon="7.16476">
        <ele>296.7</ele>
        <time>2020-06-28T17:57:25Z</time>
      </trkpt>
      <trkpt lat="48.71848" lon="7.16474">
        <ele>296.8</ele>
        <time>2020-06-28T17:57:26Z</time>
      </trkpt>
      <trkpt lat="48.71844" lon="7.16471">
        <ele>296.8</ele>
        <time>2020-06-28T17:57:27Z</time>
      </trkpt>
      <trkpt lat="48.71841" lon="7.16469">
        <ele>296.9</ele>
        <time>2020-06-28T17:57:28Z</time>
      </trkpt>
      <trkpt lat="48.71837" lon="7.16466">
        <ele>297</ele>
        <time>2020-06-28T17:57:29Z</time>
      </trkpt>
      <trkpt lat="48.71833" lon="7.16461">
        <ele>297.1</ele>
        <time>2020-06-28T17:57:30Z</time>
      </trkpt>
      <trkpt lat="48.71828" lon="7.16459">
        <ele>297.1</ele>
        <time>2020-06-28T17:57:31Z</time>
      </trkpt>
      <trkpt lat="48.71825" lon="7.16455">
        <ele>297.2</ele>
        <time>2020-06-28T17:57:32Z</time>
      </trkpt>
      <trkpt lat="48.71821" lon="7.16452">
        <ele>297.3</ele>
        <time>2020-06-28T17:57:33Z</time>
      </trkpt>
      <trkpt lat="48.71817" lon="7.16449">
        <ele>297.3</ele>
        <time>2020-06-28T17:57:34Z</time>
      </trkpt>
      <trkpt lat="48.71814" lon="7.16446">
        <ele>297.4</ele>
        <time>2020-06-28T17:57:35Z</time>
      </trkpt>
      <trkpt lat="48.71809" lon="7.16442">
        <ele>297.5</ele>
        <time>2020-06-28T17:57:36Z</time>
      </trkpt>
      <trkpt lat="48.71805" lon="7.16438">
        <ele>297.5</ele>
        <time>2020-06-28T17:57:37Z</time>
      </trkpt>
      <trkpt lat="48.71802" lon="7.16435">
        <ele>297.6</ele>
        <time>2020-06-28T17:57:38Z</time>
      </trkpt>
      <trkpt lat="48.71798" lon="7.16432">
        <ele>297.6</ele>
        <time>2020-06-28T17:57:39Z</time>
      </trkpt>
      <trkpt lat="48.71795" lon="7.1643">
        <ele>297.5</ele>
        <time>2020-06-28T17:57:40Z</time>
      </trkpt>
      <trkpt lat="48.7179" lon="7.16428">
        <ele>297.5</ele>
        <time>2020-06-28T17:57:41Z</time>
      </trkpt>
      <trkpt lat="48.71787" lon="7.16424">
        <ele>297.5</ele>
        <time>2020-06-28T17:57:42Z</time>
      </trkpt>
      <trkpt lat="48.71784" lon="7.1642">
        <ele>297.4</ele>
        <time>2020-06-28T17:57:43Z</time>
      </trkpt>
      <trkpt lat="48.71782" lon="7.16414">
        <ele>297.4</ele>
        <time>2020-06-28T17:57:44Z</time>
      </trkpt>
      <trkpt lat="48.71781" lon="7.16408">
        <ele>297.4</ele>
        <time>2020-06-28T17:57:45Z</time>
      </trkpt>
      <trkpt lat="48.71782" lon="7.16401">
        <ele>297.1</ele>
        <time>2020-06-28T17:57:46Z</time>
      </trkpt>
      <trkpt lat="48.71784" lon="7.16394">
        <ele>297.1</ele>
        <time>2020-06-28T17:57:47Z</time>
      </trkpt>
      <trkpt lat="48.71787" lon="7.16386">
        <ele>297</ele>
        <time>2020-06-28T17:57:48Z</time>
      </trkpt>
      <trkpt lat="48.7179" lon="7.16378">
        <ele>297</ele>
        <time>2020-06-28T17:57:49Z</time>
      </trkpt>
      <trkpt lat="48.71793" lon="7.1637">
        <ele>297</ele>
        <time>2020-06-28T17:57:50Z</time>
      </trkpt>
      <trkpt lat="48.71797" lon="7.16364">
        <ele>297</ele>
        <time>2020-06-28T17:57:51Z</time>
      </trkpt>
      <trkpt lat="48.71801" lon="7.1636">
        <ele>297</ele>
        <time>2020-06-28T17:57:52Z</time>
      </trkpt>
      <trkpt lat="48.71805" lon="7.16356">
        <ele>297</ele>
        <time>2020-06-28T17:57:53Z</time>
      </trkpt>
      <trkpt lat="48.71809" lon="7.16353">
        <ele>297</ele>
        <time>2020-06-28T17:57:54Z</time>
      </trkpt>
      <trkpt lat="48.71814" lon="7.16351">
        <ele>297</ele>
        <time>2020-06-28T17:57:55Z</time>
      </trkpt>
      <trkpt lat="48.71818" lon="7.16349">
        <ele>297</ele>
        <time>2020-06-28T17:57:56Z</time>
      </trkpt>
      <trkpt lat="48.71823" lon="7.16347">
        <ele>297</ele>
        <time>2020-06-28T17:57:57Z</time>
      </trkpt>
      <trkpt lat="48.71828" lon="7.16345">
        <ele>297.1</ele>
        <time>2020-06-28T17:57:58Z</time>
      </trkpt>
      <trkpt lat="48.71832" lon="7.16344">
        <ele>297.1</ele>
        <time>2020-06-28T17:57:59Z</time>
      </trkpt>
      <trkpt lat="48.71837" lon="7.16344">
        <ele>297.1</ele>
        <time>2020-06-28T17:58:00Z</time>
      </trkpt>
      <trkpt lat="48.71842" lon="7.16345">
        <ele>297.2</ele>
        <time>2020-06-28T17:58:01Z</time>
      </trkpt>
      <trkpt lat="48.71846" lon="7.16345">
        <ele>297.3</ele>
        <time>2020-06-28T17:58:02Z</time>
      </trkpt>
      <trkpt lat="48.7185" lon="7.16347">
        <ele>297.3</ele>
        <time>2020-06-28T17:58:03Z</time>
      </trkpt>
      <trkpt lat="48.71852" lon="7.16349">
        <ele>297.3</ele>
        <time>2020-06-28T17:58:04Z</time>
      </trkpt>
      <trkpt lat="48.71855" lon="7.16352">
        <ele>297.4</ele>
        <time>2020-06-28T17:58:05Z</time>
      </trkpt>
      <trkpt lat="48.71856" lon="7.16353">
        <ele>297.4</ele>
        <time>2020-06-28T17:58:06Z</time>
      </trkpt>
      <trkpt lat="48.71857" lon="7.16353">
        <ele>297.4</ele>
        <time>2020-06-28T17:58:07Z</time>
      </trkpt>
      <trkpt lat="48.71859" lon="7.16353">
        <ele>297.4</ele>
        <time>2020-06-28T17:58:08Z</time>
      </trkpt>
      <trkpt lat="48.7186" lon="7.16355">
        <ele>297.4</ele>
        <time>2020-06-28T17:58:09Z</time>
      </trkpt>
      <trkpt lat="48.71862" lon="7.16357">
        <ele>297.4</ele>
        <time>2020-06-28T17:58:10Z</time>
      </trkpt>
      <trkpt lat="48.71863" lon="7.16359">
        <ele>297.5</ele>
        <time>2020-06-28T17:58:11Z</time>
      </trkpt>
      <trkpt lat="48.71864" lon="7.16359">
        <ele>297.5</ele>
        <time>2020-06-28T17:58:12Z</time>
      </trkpt>
      <trkpt lat="48.71865" lon="7.1636">
        <ele>297.5</ele>
        <time>2020-06-28T17:58:13Z</time>
      </trkpt>
      <trkpt lat="48.71869" lon="7.16362">
        <ele>297.5</ele>
        <time>2020-06-28T17:58:14Z</time>
      </trkpt>
      <trkpt lat="48.7187" lon="7.16363">
        <ele>297.5</ele>
        <time>2020-06-28T17:58:15Z</time>
      </trkpt>
      <trkpt lat="48.71873" lon="7.16367">
        <ele>297.5</ele>
        <time>2020-06-28T17:58:16Z</time>
      </trkpt>
      <trkpt lat="48.71874" lon="7.16368">
        <ele>297.6</ele>
        <time>2020-06-28T17:58:17Z</time>
      </trkpt>
      <trkpt lat="48.71876" lon="7.16371">
        <ele>297.6</ele>
        <time>2020-06-28T17:58:18Z</time>
      </trkpt>
      <trkpt lat="48.71877" lon="7.16372">
        <ele>297.6</ele>
        <time>2020-06-28T17:58:19Z</time>
      </trkpt>
      <trkpt lat="48.71878" lon="7.16373">
        <ele>297.6</ele>
        <time>2020-06-28T17:58:20Z</time>
      </trkpt>
      <trkpt lat="48.7188" lon="7.16375">
        <ele>297.6</ele>
        <time>2020-06-28T17:58:21Z</time>
      </trkpt>
      <trkpt lat="48.71882" lon="7.16376">
        <ele>297.6</ele>
        <time>2020-06-28T17:58:22Z</time>
      </trkpt>
      <trkpt lat="48.71883" lon="7.16377">
        <ele>297.6</ele>
        <time>2020-06-28T17:58:23Z</time>
      </trkpt>
      <trkpt lat="48.71884" lon="7.16379">
        <ele>297.6</ele>
        <time>2020-06-28T17:58:24Z</time>
      </trkpt>
      <trkpt lat="48.71885" lon="7.16381">
        <ele>297.6</ele>
        <time>2020-06-28T17:58:25Z</time>
      </trkpt>
      <trkpt lat="48.71888" lon="7.16383">
        <ele>297.6</ele>
        <time>2020-06-28T17:58:26Z</time>
      </trkpt>
      <trkpt lat="48.7189" lon="7.16385">
        <ele>297.7</ele>
        <time>2020-06-28T17:58:27Z</time>
      </trkpt>
      <trkpt lat="48.71893" lon="7.16388">
        <ele>297.7</ele>
        <time>2020-06-28T17:58:28Z</time>
      </trkpt>
      <trkpt lat="48.71895" lon="7.16392">
        <ele>297.7</ele>
        <time>2020-06-28T17:58:29Z</time>
      </trkpt>
      <trkpt lat="48.71898" lon="7.16395">
        <ele>297.7</ele>
        <time>2020-06-28T17:58:30Z</time>
      </trkpt>
      <trkpt lat="48.719" lon="7.16399">
        <ele>297.7</ele>
        <time>2020-06-28T17:58:31Z</time>
      </trkpt>
      <trkpt lat="48.71902" lon="7.16403">
        <ele>297.8</ele>
        <time>2020-06-28T17:58:32Z</time>
      </trkpt>
      <trkpt lat="48.71904" lon="7.16407">
        <ele>297.8</ele>
        <time>2020-06-28T17:58:33Z</time>
      </trkpt>
      <trkpt lat="48.71908" lon="7.16411">
        <ele>297.8</ele>
        <time>2020-06-28T17:58:34Z</time>
      </trkpt>
      <trkpt lat="48.71911" lon="7.16415">
        <ele>297.9</ele>
        <time>2020-06-28T17:58:35Z</time>
      </trkpt>
      <trkpt lat="48.71915" lon="7.16419">
        <ele>297.9</ele>
        <time>2020-06-28T17:58:36Z</time>
      </trkpt>
      <trkpt lat="48.71918" lon="7.16422">
        <ele>297.9</ele>
        <time>2020-06-28T17:58:37Z</time>
      </trkpt>
      <trkpt lat="48.71921" lon="7.16426">
        <ele>298</ele>
        <time>2020-06-28T17:58:38Z</time>
      </trkpt>
      <trkpt lat="48.71925" lon="7.1643">
        <ele>298.1</ele>
        <time>2020-06-28T17:58:39Z</time>
      </trkpt>
      <trkpt lat="48.71929" lon="7.16433">
        <ele>298.1</ele>
        <time>2020-06-28T17:58:40Z</time>
      </trkpt>
      <trkpt lat="48.71934" lon="7.16434">
        <ele>298.2</ele>
        <time>2020-06-28T17:58:41Z</time>
      </trkpt>
      <trkpt lat="48.71938" lon="7.16435">
        <ele>298.3</ele>
        <time>2020-06-28T17:58:42Z</time>
      </trkpt>
      <trkpt lat="48.71942" lon="7.16435">
        <ele>298.4</ele>
        <time>2020-06-28T17:58:43Z</time>
      </trkpt>
      <trkpt lat="48.71947" lon="7.16436">
        <ele>298.5</ele>
        <time>2020-06-28T17:58:44Z</time>
      </trkpt>
      <trkpt lat="48.71953" lon="7.16434">
        <ele>298.6</ele>
        <time>2020-06-28T17:58:45Z</time>
      </trkpt>
      <trkpt lat="48.71958" lon="7.16434">
        <ele>298.6</ele>
        <time>2020-06-28T17:58:46Z</time>
      </trkpt>
      <trkpt lat="48.71963" lon="7.16433">
        <ele>298.7</ele>
        <time>2020-06-28T17:58:47Z</time>
      </trkpt>
      <trkpt lat="48.71968" lon="7.16431">
        <ele>298.8</ele>
        <time>2020-06-28T17:58:48Z</time>
      </trkpt>
      <trkpt lat="48.71972" lon="7.16428">
        <ele>298.9</ele>
        <time>2020-06-28T17:58:49Z</time>
      </trkpt>
      <trkpt lat="48.71976" lon="7.16427">
        <ele>299</ele>
        <time>2020-06-28T17:58:50Z</time>
      </trkpt>
      <trkpt lat="48.7198" lon="7.16427">
        <ele>299.2</ele>
        <time>2020-06-28T17:58:51Z</time>
      </trkpt>
      <trkpt lat="48.71984" lon="7.16429">
        <ele>299.3</ele>
        <time>2020-06-28T17:58:52Z</time>
      </trkpt>
      <trkpt lat="48.7199" lon="7.16428">
        <ele>299.5</ele>
        <time>2020-06-28T17:58:53Z</time>
      </trkpt>
      <trkpt lat="48.71995" lon="7.16429">
        <ele>299.7</ele>
        <time>2020-06-28T17:58:54Z</time>
      </trkpt>
      <trkpt lat="48.71999" lon="7.16432">
        <ele>299.8</ele>
        <time>2020-06-28T17:58:55Z</time>
      </trkpt>
      <trkpt lat="48.72004" lon="7.16435">
        <ele>300</ele>
        <time>2020-06-28T17:58:56Z</time>
      </trkpt>
      <trkpt lat="48.72008" lon="7.16438">
        <ele>300.1</ele>
        <time>2020-06-28T17:58:57Z</time>
      </trkpt>
      <trkpt lat="48.72011" lon="7.16441">
        <ele>300.5</ele>
        <time>2020-06-28T17:58:58Z</time>
      </trkpt>
      <trkpt lat="48.72016" lon="7.16441">
        <ele>300.8</ele>
        <time>2020-06-28T17:58:59Z</time>
      </trkpt>
      <trkpt lat="48.7202" lon="7.16444">
        <ele>301.1</ele>
        <time>2020-06-28T17:59:00Z</time>
      </trkpt>
      <trkpt lat="48.72024" lon="7.16447">
        <ele>301.4</ele>
        <time>2020-06-28T17:59:01Z</time>
      </trkpt>
      <trkpt lat="48.72027" lon="7.16449">
        <ele>301.6</ele>
        <time>2020-06-28T17:59:02Z</time>
      </trkpt>
      <trkpt lat="48.7203" lon="7.16451">
        <ele>301.8</ele>
        <time>2020-06-28T17:59:03Z</time>
      </trkpt>
      <trkpt lat="48.72033" lon="7.16453">
        <ele>302</ele>
        <time>2020-06-28T17:59:04Z</time>
      </trkpt>
      <trkpt lat="48.72036" lon="7.16454">
        <ele>302.2</ele>
        <time>2020-06-28T17:59:05Z</time>
      </trkpt>
      <trkpt lat="48.7204" lon="7.16456">
        <ele>302.4</ele>
        <time>2020-06-28T17:59:06Z</time>
      </trkpt>
      <trkpt lat="48.72044" lon="7.16459">
        <ele>302.7</ele>
        <time>2020-06-28T17:59:07Z</time>
      </trkpt>
      <trkpt lat="48.72048" lon="7.16461">
        <ele>302.9</ele>
        <time>2020-06-28T17:59:08Z</time>
      </trkpt>
      <trkpt lat="48.72052" lon="7.16463">
        <ele>303.1</ele>
        <time>2020-06-28T17:59:09Z</time>
      </trkpt>
      <trkpt lat="48.72056" lon="7.16464">
        <ele>303.3</ele>
        <time>2020-06-28T17:59:10Z</time>
      </trkpt>
      <trkpt lat="48.72059" lon="7.16466">
        <ele>303.5</ele>
        <time>2020-06-28T17:59:11Z</time>
      </trkpt>
      <trkpt lat="48.72063" lon="7.16468">
        <ele>303.7</ele>
        <time>2020-06-28T17:59:12Z</time>
      </trkpt>
      <trkpt lat="48.72067" lon="7.16471">
        <ele>304</ele>
        <time>2020-06-28T17:59:13Z</time>
      </trkpt>
      <trkpt lat="48.72072" lon="7.16473">
        <ele>304.2</ele>
        <time>2020-06-28T17:59:14Z</time>
      </trkpt>
      <trkpt lat="48.72076" lon="7.16475">
        <ele>304.4</ele>
        <time>2020-06-28T17:59:15Z</time>
      </trkpt>
      <trkpt lat="48.7208" lon="7.16478">
        <ele>304.6</ele>
        <time>2020-06-28T17:59:16Z</time>
      </trkpt>
      <trkpt lat="48.72084" lon="7.1648">
        <ele>304.8</ele>
        <time>2020-06-28T17:59:17Z</time>
      </trkpt>
      <trkpt lat="48.72088" lon="7.16482">
        <ele>305.1</ele>
        <time>2020-06-28T17:59:18Z</time>
      </trkpt>
      <trkpt lat="48.72091" lon="7.16485">
        <ele>305.3</ele>
        <time>2020-06-28T17:59:19Z</time>
      </trkpt>
      <trkpt lat="48.72096" lon="7.16488">
        <ele>305.6</ele>
        <time>2020-06-28T17:59:20Z</time>
      </trkpt>
      <trkpt lat="48.72101" lon="7.1649">
        <ele>305.9</ele>
        <time>2020-06-28T17:59:21Z</time>
      </trkpt>
      <trkpt lat="48.72106" lon="7.16492">
        <ele>306.2</ele>
        <time>2020-06-28T17:59:22Z</time>
      </trkpt>
      <trkpt lat="48.7211" lon="7.16493">
        <ele>306.5</ele>
        <time>2020-06-28T17:59:23Z</time>
      </trkpt>
      <trkpt lat="48.72115" lon="7.16495">
        <ele>306.8</ele>
        <time>2020-06-28T17:59:24Z</time>
      </trkpt>
      <trkpt lat="48.7212" lon="7.16497">
        <ele>307.1</ele>
        <time>2020-06-28T17:59:25Z</time>
      </trkpt>
      <trkpt lat="48.72124" lon="7.16499">
        <ele>307.3</ele>
        <time>2020-06-28T17:59:26Z</time>
      </trkpt>
      <trkpt lat="48.72128" lon="7.16502">
        <ele>307.6</ele>
        <time>2020-06-28T17:59:27Z</time>
      </trkpt>
      <trkpt lat="48.72131" lon="7.16504">
        <ele>307.8</ele>
        <time>2020-06-28T17:59:28Z</time>
      </trkpt>
      <trkpt lat="48.72136" lon="7.16506">
        <ele>308.1</ele>
        <time>2020-06-28T17:59:29Z</time>
      </trkpt>
      <trkpt lat="48.7214" lon="7.16506">
        <ele>308.3</ele>
        <time>2020-06-28T17:59:30Z</time>
      </trkpt>
      <trkpt lat="48.72144" lon="7.16507">
        <ele>308.6</ele>
        <time>2020-06-28T17:59:31Z</time>
      </trkpt>
      <trkpt lat="48.72149" lon="7.16507">
        <ele>308.9</ele>
        <time>2020-06-28T17:59:32Z</time>
      </trkpt>
      <trkpt lat="48.72154" lon="7.16507">
        <ele>309.2</ele>
        <time>2020-06-28T17:59:33Z</time>
      </trkpt>
      <trkpt lat="48.72159" lon="7.16507">
        <ele>309.5</ele>
        <time>2020-06-28T17:59:34Z</time>
      </trkpt>
      <trkpt lat="48.72164" lon="7.16508">
        <ele>309.7</ele>
        <time>2020-06-28T17:59:35Z</time>
      </trkpt>
      <trkpt lat="48.72168" lon="7.16508">
        <ele>310</ele>
        <time>2020-06-28T17:59:36Z</time>
      </trkpt>
      <trkpt lat="48.72173" lon="7.16508">
        <ele>310.2</ele>
        <time>2020-06-28T17:59:37Z</time>
      </trkpt>
      <trkpt lat="48.72177" lon="7.16507">
        <ele>310.5</ele>
        <time>2020-06-28T17:59:38Z</time>
      </trkpt>
      <trkpt lat="48.72181" lon="7.16506">
        <ele>310.8</ele>
        <time>2020-06-28T17:59:39Z</time>
      </trkpt>
      <trkpt lat="48.72184" lon="7.16503">
        <ele>311</ele>
        <time>2020-06-28T17:59:40Z</time>
      </trkpt>
      <trkpt lat="48.72188" lon="7.16501">
        <ele>311.2</ele>
        <time>2020-06-28T17:59:41Z</time>
      </trkpt>
      <trkpt lat="48.72191" lon="7.16499">
        <ele>311.5</ele>
        <time>2020-06-28T17:59:42Z</time>
      </trkpt>
      <trkpt lat="48.72195" lon="7.16497">
        <ele>311.7</ele>
        <time>2020-06-28T17:59:43Z</time>
      </trkpt>
      <trkpt lat="48.72198" lon="7.16494">
        <ele>311.9</ele>
        <time>2020-06-28T17:59:44Z</time>
      </trkpt>
      <trkpt lat="48.72201" lon="7.16491">
        <ele>312.2</ele>
        <time>2020-06-28T17:59:45Z</time>
      </trkpt>
      <trkpt lat="48.72204" lon="7.16487">
        <ele>312.4</ele>
        <time>2020-06-28T17:59:46Z</time>
      </trkpt>
      <trkpt lat="48.72207" lon="7.16484">
        <ele>312.6</ele>
        <time>2020-06-28T17:59:47Z</time>
      </trkpt>
      <trkpt lat="48.7221" lon="7.16481">
        <ele>312.8</ele>
        <time>2020-06-28T17:59:48Z</time>
      </trkpt>
      <trkpt lat="48.72213" lon="7.16478">
        <ele>313.1</ele>
        <time>2020-06-28T17:59:49Z</time>
      </trkpt>
      <trkpt lat="48.72216" lon="7.16475">
        <ele>313.3</ele>
        <time>2020-06-28T17:59:50Z</time>
      </trkpt>
      <trkpt lat="48.72219" lon="7.16472">
        <ele>313.5</ele>
        <time>2020-06-28T17:59:51Z</time>
      </trkpt>
      <trkpt lat="48.72222" lon="7.16471">
        <ele>313.7</ele>
        <time>2020-06-28T17:59:52Z</time>
      </trkpt>
      <trkpt lat="48.72226" lon="7.16468">
        <ele>313.9</ele>
        <time>2020-06-28T17:59:53Z</time>
      </trkpt>
      <trkpt lat="48.72228" lon="7.16465">
        <ele>314.1</ele>
        <time>2020-06-28T17:59:54Z</time>
      </trkpt>
      <trkpt lat="48.72231" lon="7.16463">
        <ele>314.3</ele>
        <time>2020-06-28T17:59:55Z</time>
      </trkpt>
      <trkpt lat="48.72235" lon="7.16458">
        <ele>314.5</ele>
        <time>2020-06-28T17:59:56Z</time>
      </trkpt>
      <trkpt lat="48.72237" lon="7.16456">
        <ele>314.7</ele>
        <time>2020-06-28T17:59:57Z</time>
      </trkpt>
      <trkpt lat="48.72242" lon="7.16452">
        <ele>315</ele>
        <time>2020-06-28T17:59:58Z</time>
      </trkpt>
      <trkpt lat="48.72247" lon="7.16447">
        <ele>315.3</ele>
        <time>2020-06-28T17:59:59Z</time>
      </trkpt>
      <trkpt lat="48.7225" lon="7.16443">
        <ele>315.6</ele>
        <time>2020-06-28T18:00:00Z</time>
      </trkpt>
      <trkpt lat="48.72254" lon="7.16439">
        <ele>315.8</ele>
        <time>2020-06-28T18:00:01Z</time>
      </trkpt>
      <trkpt lat="48.72257" lon="7.16436">
        <ele>316</ele>
        <time>2020-06-28T18:00:02Z</time>
      </trkpt>
      <trkpt lat="48.7226" lon="7.16432">
        <ele>316.2</ele>
        <time>2020-06-28T18:00:03Z</time>
      </trkpt>
      <trkpt lat="48.72263" lon="7.16427">
        <ele>316.5</ele>
        <time>2020-06-28T18:00:04Z</time>
      </trkpt>
      <trkpt lat="48.72265" lon="7.16423">
        <ele>316.7</ele>
        <time>2020-06-28T18:00:05Z</time>
      </trkpt>
      <trkpt lat="48.72268" lon="7.16419">
        <ele>316.9</ele>
        <time>2020-06-28T18:00:06Z</time>
      </trkpt>
      <trkpt lat="48.7227" lon="7.16416">
        <ele>317</ele>
        <time>2020-06-28T18:00:07Z</time>
      </trkpt>
      <trkpt lat="48.72273" lon="7.16411">
        <ele>317.2</ele>
        <time>2020-06-28T18:00:08Z</time>
      </trkpt>
      <trkpt lat="48.72275" lon="7.16408">
        <ele>317.4</ele>
        <time>2020-06-28T18:00:09Z</time>
      </trkpt>
      <trkpt lat="48.72278" lon="7.16405">
        <ele>317.6</ele>
        <time>2020-06-28T18:00:10Z</time>
      </trkpt>
      <trkpt lat="48.7228" lon="7.16401">
        <ele>317.8</ele>
        <time>2020-06-28T18:00:11Z</time>
      </trkpt>
      <trkpt lat="48.72283" lon="7.16397">
        <ele>318</ele>
        <time>2020-06-28T18:00:12Z</time>
      </trkpt>
      <trkpt lat="48.72286" lon="7.16394">
        <ele>318.2</ele>
        <time>2020-06-28T18:00:13Z</time>
      </trkpt>
      <trkpt lat="48.72289" lon="7.16391">
        <ele>318.4</ele>
        <time>2020-06-28T18:00:14Z</time>
      </trkpt>
      <trkpt lat="48.72291" lon="7.16388">
        <ele>318.6</ele>
        <time>2020-06-28T18:00:15Z</time>
      </trkpt>
      <trkpt lat="48.72294" lon="7.16384">
        <ele>318.8</ele>
        <time>2020-06-28T18:00:16Z</time>
      </trkpt>
      <trkpt lat="48.72296" lon="7.1638">
        <ele>319.1</ele>
        <time>2020-06-28T18:00:17Z</time>
      </trkpt>
      <trkpt lat="48.723" lon="7.16375">
        <ele>319.4</ele>
        <time>2020-06-28T18:00:18Z</time>
      </trkpt>
      <trkpt lat="48.72303" lon="7.16372">
        <ele>319.6</ele>
        <time>2020-06-28T18:00:19Z</time>
      </trkpt>
      <trkpt lat="48.72305" lon="7.16368">
        <ele>319.8</ele>
        <time>2020-06-28T18:00:20Z</time>
      </trkpt>
      <trkpt lat="48.72307" lon="7.16364">
        <ele>320</ele>
        <time>2020-06-28T18:00:21Z</time>
      </trkpt>
      <trkpt lat="48.7231" lon="7.16361">
        <ele>320.2</ele>
        <time>2020-06-28T18:00:22Z</time>
      </trkpt>
      <trkpt lat="48.72312" lon="7.16358">
        <ele>320.4</ele>
        <time>2020-06-28T18:00:23Z</time>
      </trkpt>
      <trkpt lat="48.72314" lon="7.16354">
        <ele>320.6</ele>
        <time>2020-06-28T18:00:24Z</time>
      </trkpt>
      <trkpt lat="48.72316" lon="7.16351">
        <ele>320.7</ele>
        <time>2020-06-28T18:00:25Z</time>
      </trkpt>
      <trkpt lat="48.72318" lon="7.16347">
        <ele>320.9</ele>
        <time>2020-06-28T18:00:26Z</time>
      </trkpt>
      <trkpt lat="48.72319" lon="7.16343">
        <ele>321.1</ele>
        <time>2020-06-28T18:00:27Z</time>
      </trkpt>
      <trkpt lat="48.72321" lon="7.16339">
        <ele>321.2</ele>
        <time>2020-06-28T18:00:28Z</time>
      </trkpt>
      <trkpt lat="48.72321" lon="7.16335">
        <ele>321.4</ele>
        <time>2020-06-28T18:00:29Z</time>
      </trkpt>
      <trkpt lat="48.72322" lon="7.16331">
        <ele>321.5</ele>
        <time>2020-06-28T18:00:30Z</time>
      </trkpt>
      <trkpt lat="48.72323" lon="7.16327">
        <ele>321.6</ele>
        <time>2020-06-28T18:00:31Z</time>
      </trkpt>
      <trkpt lat="48.72325" lon="7.16323">
        <ele>321.8</ele>
        <time>2020-06-28T18:00:32Z</time>
      </trkpt>
      <trkpt lat="48.72326" lon="7.16318">
        <ele>322</ele>
        <time>2020-06-28T18:00:33Z</time>
      </trkpt>
      <trkpt lat="48.72327" lon="7.16314">
        <ele>322.1</ele>
        <time>2020-06-28T18:00:34Z</time>
      </trkpt>
      <trkpt lat="48.72328" lon="7.16309">
        <ele>322.2</ele>
        <time>2020-06-28T18:00:35Z</time>
      </trkpt>
      <trkpt lat="48.72328" lon="7.16304">
        <ele>322.4</ele>
        <time>2020-06-28T18:00:36Z</time>
      </trkpt>
      <trkpt lat="48.72329" lon="7.163">
        <ele>322.5</ele>
        <time>2020-06-28T18:00:37Z</time>
      </trkpt>
      <trkpt lat="48.7233" lon="7.16296">
        <ele>322.7</ele>
        <time>2020-06-28T18:00:38Z</time>
      </trkpt>
      <trkpt lat="48.7233" lon="7.16291">
        <ele>322.8</ele>
        <time>2020-06-28T18:00:39Z</time>
      </trkpt>
      <trkpt lat="48.7233" lon="7.16285">
        <ele>322.9</ele>
        <time>2020-06-28T18:00:40Z</time>
      </trkpt>
      <trkpt lat="48.72331" lon="7.1628">
        <ele>323</ele>
        <time>2020-06-28T18:00:41Z</time>
      </trkpt>
      <trkpt lat="48.72332" lon="7.16275">
        <ele>323.1</ele>
        <time>2020-06-28T18:00:42Z</time>
      </trkpt>
      <trkpt lat="48.72333" lon="7.1627">
        <ele>323.2</ele>
        <time>2020-06-28T18:00:43Z</time>
      </trkpt>
      <trkpt lat="48.72334" lon="7.16265">
        <ele>323.3</ele>
        <time>2020-06-28T18:00:44Z</time>
      </trkpt>
      <trkpt lat="48.72334" lon="7.1626">
        <ele>323.4</ele>
        <time>2020-06-28T18:00:45Z</time>
      </trkpt>
      <trkpt lat="48.72335" lon="7.16254">
        <ele>323.5</ele>
        <time>2020-06-28T18:00:46Z</time>
      </trkpt>
      <trkpt lat="48.72335" lon="7.16249">
        <ele>323.5</ele>
        <time>2020-06-28T18:00:47Z</time>
      </trkpt>
      <trkpt lat="48.72336" lon="7.16243">
        <ele>323.6</ele>
        <time>2020-06-28T18:00:48Z</time>
      </trkpt>
      <trkpt lat="48.72337" lon="7.16237">
        <ele>323.7</ele>
        <time>2020-06-28T18:00:49Z</time>
      </trkpt>
      <trkpt lat="48.72338" lon="7.16231">
        <ele>323.8</ele>
        <time>2020-06-28T18:00:50Z</time>
      </trkpt>
      <trkpt lat="48.72339" lon="7.16226">
        <ele>323.8</ele>
        <time>2020-06-28T18:00:51Z</time>
      </trkpt>
      <trkpt lat="48.7234" lon="7.1622">
        <ele>323.9</ele>
        <time>2020-06-28T18:00:52Z</time>
      </trkpt>
      <trkpt lat="48.7234" lon="7.16215">
        <ele>324</ele>
        <time>2020-06-28T18:00:53Z</time>
      </trkpt>
      <trkpt lat="48.72341" lon="7.16209">
        <ele>324</ele>
        <time>2020-06-28T18:00:54Z</time>
      </trkpt>
      <trkpt lat="48.72342" lon="7.16204">
        <ele>324.1</ele>
        <time>2020-06-28T18:00:55Z</time>
      </trkpt>
      <trkpt lat="48.72343" lon="7.162">
        <ele>324.1</ele>
        <time>2020-06-28T18:00:56Z</time>
      </trkpt>
      <trkpt lat="48.72345" lon="7.16193">
        <ele>324.1</ele>
        <time>2020-06-28T18:00:57Z</time>
      </trkpt>
      <trkpt lat="48.72345" lon="7.16188">
        <ele>324.2</ele>
        <time>2020-06-28T18:00:58Z</time>
      </trkpt>
      <trkpt lat="48.72346" lon="7.16183">
        <ele>324.2</ele>
        <time>2020-06-28T18:00:59Z</time>
      </trkpt>
      <trkpt lat="48.72347" lon="7.16178">
        <ele>324.2</ele>
        <time>2020-06-28T18:01:00Z</time>
      </trkpt>
      <trkpt lat="48.72348" lon="7.16173">
        <ele>324.3</ele>
        <time>2020-06-28T18:01:01Z</time>
      </trkpt>
      <trkpt lat="48.72348" lon="7.16168">
        <ele>324.3</ele>
        <time>2020-06-28T18:01:02Z</time>
      </trkpt>
      <trkpt lat="48.72349" lon="7.16163">
        <ele>324.3</ele>
        <time>2020-06-28T18:01:03Z</time>
      </trkpt>
      <trkpt lat="48.7235" lon="7.16157">
        <ele>324.4</ele>
        <time>2020-06-28T18:01:04Z</time>
      </trkpt>
      <trkpt lat="48.72352" lon="7.1615">
        <ele>324.4</ele>
        <time>2020-06-28T18:01:05Z</time>
      </trkpt>
      <trkpt lat="48.72353" lon="7.16145">
        <ele>324.4</ele>
        <time>2020-06-28T18:01:06Z</time>
      </trkpt>
      <trkpt lat="48.72354" lon="7.1614">
        <ele>324.4</ele>
        <time>2020-06-28T18:01:07Z</time>
      </trkpt>
      <trkpt lat="48.72355" lon="7.16134">
        <ele>324.4</ele>
        <time>2020-06-28T18:01:08Z</time>
      </trkpt>
      <trkpt lat="48.72357" lon="7.16127">
        <ele>324.5</ele>
        <time>2020-06-28T18:01:09Z</time>
      </trkpt>
      <trkpt lat="48.72358" lon="7.16121">
        <ele>324.5</ele>
        <time>2020-06-28T18:01:10Z</time>
      </trkpt>
      <trkpt lat="48.72359" lon="7.16115">
        <ele>324.5</ele>
        <time>2020-06-28T18:01:11Z</time>
      </trkpt>
      <trkpt lat="48.7236" lon="7.16109">
        <ele>324.5</ele>
        <time>2020-06-28T18:01:12Z</time>
      </trkpt>
      <trkpt lat="48.72361" lon="7.16103">
        <ele>324.6</ele>
        <time>2020-06-28T18:01:13Z</time>
      </trkpt>
      <trkpt lat="48.72362" lon="7.16097">
        <ele>324.6</ele>
        <time>2020-06-28T18:01:14Z</time>
      </trkpt>
      <trkpt lat="48.72363" lon="7.16093">
        <ele>324.6</ele>
        <time>2020-06-28T18:01:15Z</time>
      </trkpt>
      <trkpt lat="48.72363" lon="7.16088">
        <ele>324.6</ele>
        <time>2020-06-28T18:01:16Z</time>
      </trkpt>
      <trkpt lat="48.72364" lon="7.16084">
        <ele>324.6</ele>
        <time>2020-06-28T18:01:17Z</time>
      </trkpt>
      <trkpt lat="48.72365" lon="7.16079">
        <ele>324.6</ele>
        <time>2020-06-28T18:01:18Z</time>
      </trkpt>
      <trkpt lat="48.72366" lon="7.16074">
        <ele>324.6</ele>
        <time>2020-06-28T18:01:19Z</time>
      </trkpt>
      <trkpt lat="48.72367" lon="7.16069">
        <ele>324.6</ele>
        <time>2020-06-28T18:01:20Z</time>
      </trkpt>
      <trkpt lat="48.72369" lon="7.16064">
        <ele>324.6</ele>
        <time>2020-06-28T18:01:21Z</time>
      </trkpt>
      <trkpt lat="48.72371" lon="7.16059">
        <ele>324.6</ele>
        <time>2020-06-28T18:01:22Z</time>
      </trkpt>
      <trkpt lat="48.72373" lon="7.16055">
        <ele>324.6</ele>
        <time>2020-06-28T18:01:23Z</time>
      </trkpt>
      <trkpt lat="48.72374" lon="7.16049">
        <ele>324.6</ele>
        <time>2020-06-28T18:01:24Z</time>
      </trkpt>
      <trkpt lat="48.72375" lon="7.16044">
        <ele>324.5</ele>
        <time>2020-06-28T18:01:25Z</time>
      </trkpt>
      <trkpt lat="48.72377" lon="7.16039">
        <ele>324.4</ele>
        <time>2020-06-28T18:01:26Z</time>
      </trkpt>
      <trkpt lat="48.7238" lon="7.16034">
        <ele>324.3</ele>
        <time>2020-06-28T18:01:27Z</time>
      </trkpt>
      <trkpt lat="48.72383" lon="7.16029">
        <ele>324.2</ele>
        <time>2020-06-28T18:01:28Z</time>
      </trkpt>
      <trkpt lat="48.72387" lon="7.16024">
        <ele>324.1</ele>
        <time>2020-06-28T18:01:29Z</time>
      </trkpt>
      <trkpt lat="48.72391" lon="7.16019">
        <ele>324</ele>
        <time>2020-06-28T18:01:30Z</time>
      </trkpt>
      <trkpt lat="48.72394" lon="7.16015">
        <ele>323.9</ele>
        <time>2020-06-28T18:01:31Z</time>
      </trkpt>
      <trkpt lat="48.72398" lon="7.16012">
        <ele>323.9</ele>
        <time>2020-06-28T18:01:32Z</time>
      </trkpt>
      <trkpt lat="48.72402" lon="7.16008">
        <ele>323.8</ele>
        <time>2020-06-28T18:01:33Z</time>
      </trkpt>
      <trkpt lat="48.72407" lon="7.16005">
        <ele>323.7</ele>
        <time>2020-06-28T18:01:34Z</time>
      </trkpt>
      <trkpt lat="48.72412" lon="7.16003">
        <ele>323.7</ele>
        <time>2020-06-28T18:01:35Z</time>
      </trkpt>
      <trkpt lat="48.72415" lon="7.15999">
        <ele>323.6</ele>
        <time>2020-06-28T18:01:36Z</time>
      </trkpt>
      <trkpt lat="48.72419" lon="7.15997">
        <ele>323.6</ele>
        <time>2020-06-28T18:01:37Z</time>
      </trkpt>
      <trkpt lat="48.72423" lon="7.15993">
        <ele>323.6</ele>
        <time>2020-06-28T18:01:38Z</time>
      </trkpt>
      <trkpt lat="48.72427" lon="7.15988">
        <ele>323.7</ele>
        <time>2020-06-28T18:01:39Z</time>
      </trkpt>
      <trkpt lat="48.7243" lon="7.15983">
        <ele>323.8</ele>
        <time>2020-06-28T18:01:40Z</time>
      </trkpt>
      <trkpt lat="48.72433" lon="7.15977">
        <ele>323.9</ele>
        <time>2020-06-28T18:01:41Z</time>
      </trkpt>
      <trkpt lat="48.72433" lon="7.1597">
        <ele>324</ele>
        <time>2020-06-28T18:01:42Z</time>
      </trkpt>
      <trkpt lat="48.72433" lon="7.15963">
        <ele>324.1</ele>
        <time>2020-06-28T18:01:43Z</time>
      </trkpt>
      <trkpt lat="48.72433" lon="7.15957">
        <ele>324.2</ele>
        <time>2020-06-28T18:01:44Z</time>
      </trkpt>
      <trkpt lat="48.72433" lon="7.1595">
        <ele>324.3</ele>
        <time>2020-06-28T18:01:45Z</time>
      </trkpt>
      <trkpt lat="48.72433" lon="7.15944">
        <ele>324.4</ele>
        <time>2020-06-28T18:01:46Z</time>
      </trkpt>
      <trkpt lat="48.72433" lon="7.15938">
        <ele>324.5</ele>
        <time>2020-06-28T18:01:47Z</time>
      </trkpt>
      <trkpt lat="48.72433" lon="7.15932">
        <ele>324.6</ele>
        <time>2020-06-28T18:01:48Z</time>
      </trkpt>
      <trkpt lat="48.72434" lon="7.15927">
        <ele>324.6</ele>
        <time>2020-06-28T18:01:49Z</time>
      </trkpt>
      <trkpt lat="48.72434" lon="7.15921">
        <ele>324.7</ele>
        <time>2020-06-28T18:01:50Z</time>
      </trkpt>
      <trkpt lat="48.72433" lon="7.15916">
        <ele>324.8</ele>
        <time>2020-06-28T18:01:51Z</time>
      </trkpt>
      <trkpt lat="48.72434" lon="7.15911">
        <ele>324.9</ele>
        <time>2020-06-28T18:01:52Z</time>
      </trkpt>
      <trkpt lat="48.72434" lon="7.15906">
        <ele>324.9</ele>
        <time>2020-06-28T18:01:53Z</time>
      </trkpt>
      <trkpt lat="48.72435" lon="7.15899">
        <ele>325</ele>
        <time>2020-06-28T18:01:54Z</time>
      </trkpt>
      <trkpt lat="48.72436" lon="7.15893">
        <ele>325.1</ele>
        <time>2020-06-28T18:01:55Z</time>
      </trkpt>
      <trkpt lat="48.72436" lon="7.15887">
        <ele>325.1</ele>
        <time>2020-06-28T18:01:56Z</time>
      </trkpt>
      <trkpt lat="48.72436" lon="7.15882">
        <ele>325.1</ele>
        <time>2020-06-28T18:01:57Z</time>
      </trkpt>
      <trkpt lat="48.72437" lon="7.15876">
        <ele>325.2</ele>
        <time>2020-06-28T18:01:58Z</time>
      </trkpt>
      <trkpt lat="48.72438" lon="7.15872">
        <ele>325.2</ele>
        <time>2020-06-28T18:01:59Z</time>
      </trkpt>
      <trkpt lat="48.72437" lon="7.15866">
        <ele>325.2</ele>
        <time>2020-06-28T18:02:00Z</time>
      </trkpt>
      <trkpt lat="48.72437" lon="7.15864">
        <ele>325.2</ele>
        <time>2020-06-28T18:02:01Z</time>
      </trkpt>
      <trkpt lat="48.72437" lon="7.15858">
        <ele>325.2</ele>
        <time>2020-06-28T18:02:02Z</time>
      </trkpt>
      <trkpt lat="48.72437" lon="7.15854">
        <ele>325.2</ele>
        <time>2020-06-28T18:02:03Z</time>
      </trkpt>
      <trkpt lat="48.72437" lon="7.15849">
        <ele>325.2</ele>
        <time>2020-06-28T18:02:04Z</time>
      </trkpt>
      <trkpt lat="48.72437" lon="7.15845">
        <ele>325.1</ele>
        <time>2020-06-28T18:02:05Z</time>
      </trkpt>
      <trkpt lat="48.72437" lon="7.1584">
        <ele>325.1</ele>
        <time>2020-06-28T18:02:06Z</time>
      </trkpt>
      <trkpt lat="48.72437" lon="7.15834">
        <ele>325.1</ele>
        <time>2020-06-28T18:02:07Z</time>
      </trkpt>
      <trkpt lat="48.72438" lon="7.15828">
        <ele>325</ele>
        <time>2020-06-28T18:02:08Z</time>
      </trkpt>
      <trkpt lat="48.72439" lon="7.15821">
        <ele>324.9</ele>
        <time>2020-06-28T18:02:09Z</time>
      </trkpt>
      <trkpt lat="48.7244" lon="7.15814">
        <ele>324.9</ele>
        <time>2020-06-28T18:02:10Z</time>
      </trkpt>
      <trkpt lat="48.7244" lon="7.15806">
        <ele>324.8</ele>
        <time>2020-06-28T18:02:11Z</time>
      </trkpt>
      <trkpt lat="48.7244" lon="7.15799">
        <ele>324.7</ele>
        <time>2020-06-28T18:02:12Z</time>
      </trkpt>
      <trkpt lat="48.7244" lon="7.15793">
        <ele>324.6</ele>
        <time>2020-06-28T18:02:13Z</time>
      </trkpt>
      <trkpt lat="48.72441" lon="7.15786">
        <ele>324.5</ele>
        <time>2020-06-28T18:02:14Z</time>
      </trkpt>
      <trkpt lat="48.72441" lon="7.15779">
        <ele>324.3</ele>
        <time>2020-06-28T18:02:15Z</time>
      </trkpt>
      <trkpt lat="48.72441" lon="7.15772">
        <ele>324.2</ele>
        <time>2020-06-28T18:02:16Z</time>
      </trkpt>
      <trkpt lat="48.72441" lon="7.15766">
        <ele>324.1</ele>
        <time>2020-06-28T18:02:17Z</time>
      </trkpt>
      <trkpt lat="48.72441" lon="7.15759">
        <ele>324</ele>
        <time>2020-06-28T18:02:18Z</time>
      </trkpt>
      <trkpt lat="48.72442" lon="7.15752">
        <ele>323.9</ele>
        <time>2020-06-28T18:02:19Z</time>
      </trkpt>
      <trkpt lat="48.72443" lon="7.15744">
        <ele>323.8</ele>
        <time>2020-06-28T18:02:20Z</time>
      </trkpt>
      <trkpt lat="48.72443" lon="7.15737">
        <ele>323.6</ele>
        <time>2020-06-28T18:02:21Z</time>
      </trkpt>
      <trkpt lat="48.72443" lon="7.1573">
        <ele>323.5</ele>
        <time>2020-06-28T18:02:22Z</time>
      </trkpt>
      <trkpt lat="48.72443" lon="7.15721">
        <ele>323.3</ele>
        <time>2020-06-28T18:02:23Z</time>
      </trkpt>
      <trkpt lat="48.72443" lon="7.15711">
        <ele>323.2</ele>
        <time>2020-06-28T18:02:24Z</time>
      </trkpt>
      <trkpt lat="48.72444" lon="7.15702">
        <ele>323</ele>
        <time>2020-06-28T18:02:25Z</time>
      </trkpt>
      <trkpt lat="48.72445" lon="7.15694">
        <ele>322.8</ele>
        <time>2020-06-28T18:02:26Z</time>
      </trkpt>
      <trkpt lat="48.72445" lon="7.15686">
        <ele>322.7</ele>
        <time>2020-06-28T18:02:27Z</time>
      </trkpt>
      <trkpt lat="48.72447" lon="7.15678">
        <ele>322.5</ele>
        <time>2020-06-28T18:02:28Z</time>
      </trkpt>
      <trkpt lat="48.72447" lon="7.1567">
        <ele>322.3</ele>
        <time>2020-06-28T18:02:29Z</time>
      </trkpt>
      <trkpt lat="48.72447" lon="7.15661">
        <ele>322.2</ele>
        <time>2020-06-28T18:02:30Z</time>
      </trkpt>
      <trkpt lat="48.72447" lon="7.15651">
        <ele>322</ele>
        <time>2020-06-28T18:02:31Z</time>
      </trkpt>
      <trkpt lat="48.72448" lon="7.15642">
        <ele>321.8</ele>
        <time>2020-06-28T18:02:32Z</time>
      </trkpt>
      <trkpt lat="48.72449" lon="7.15634">
        <ele>321.6</ele>
        <time>2020-06-28T18:02:33Z</time>
      </trkpt>
      <trkpt lat="48.7245" lon="7.15623">
        <ele>321.4</ele>
        <time>2020-06-28T18:02:34Z</time>
      </trkpt>
      <trkpt lat="48.72451" lon="7.15615">
        <ele>321.2</ele>
        <time>2020-06-28T18:02:35Z</time>
      </trkpt>
      <trkpt lat="48.72452" lon="7.15607">
        <ele>321</ele>
        <time>2020-06-28T18:02:36Z</time>
      </trkpt>
      <trkpt lat="48.72452" lon="7.15599">
        <ele>320.9</ele>
        <time>2020-06-28T18:02:37Z</time>
      </trkpt>
      <trkpt lat="48.72452" lon="7.1559">
        <ele>320.7</ele>
        <time>2020-06-28T18:02:38Z</time>
      </trkpt>
      <trkpt lat="48.72452" lon="7.1558">
        <ele>320.5</ele>
        <time>2020-06-28T18:02:39Z</time>
      </trkpt>
      <trkpt lat="48.72452" lon="7.1557">
        <ele>320.2</ele>
        <time>2020-06-28T18:02:40Z</time>
      </trkpt>
      <trkpt lat="48.72452" lon="7.1556">
        <ele>320</ele>
        <time>2020-06-28T18:02:41Z</time>
      </trkpt>
      <trkpt lat="48.72452" lon="7.15551">
        <ele>319.7</ele>
        <time>2020-06-28T18:02:42Z</time>
      </trkpt>
      <trkpt lat="48.72452" lon="7.15541">
        <ele>319.5</ele>
        <time>2020-06-28T18:02:43Z</time>
      </trkpt>
      <trkpt lat="48.72453" lon="7.15532">
        <ele>319.3</ele>
        <time>2020-06-28T18:02:44Z</time>
      </trkpt>
      <trkpt lat="48.72454" lon="7.15523">
        <ele>319</ele>
        <time>2020-06-28T18:02:45Z</time>
      </trkpt>
      <trkpt lat="48.72455" lon="7.15514">
        <ele>318.8</ele>
        <time>2020-06-28T18:02:46Z</time>
      </trkpt>
      <trkpt lat="48.72456" lon="7.15505">
        <ele>318.5</ele>
        <time>2020-06-28T18:02:47Z</time>
      </trkpt>
      <trkpt lat="48.72456" lon="7.15495">
        <ele>318.2</ele>
        <time>2020-06-28T18:02:48Z</time>
      </trkpt>
      <trkpt lat="48.72457" lon="7.15485">
        <ele>318</ele>
        <time>2020-06-28T18:02:49Z</time>
      </trkpt>
      <trkpt lat="48.72458" lon="7.15473">
        <ele>317.6</ele>
        <time>2020-06-28T18:02:50Z</time>
      </trkpt>
      <trkpt lat="48.72458" lon="7.15461">
        <ele>317.3</ele>
        <time>2020-06-28T18:02:51Z</time>
      </trkpt>
      <trkpt lat="48.72458" lon="7.1545">
        <ele>317</ele>
        <time>2020-06-28T18:02:52Z</time>
      </trkpt>
      <trkpt lat="48.72458" lon="7.15439">
        <ele>316.7</ele>
        <time>2020-06-28T18:02:53Z</time>
      </trkpt>
      <trkpt lat="48.72458" lon="7.15427">
        <ele>316.4</ele>
        <time>2020-06-28T18:02:54Z</time>
      </trkpt>
      <trkpt lat="48.72458" lon="7.15417">
        <ele>316.1</ele>
        <time>2020-06-28T18:02:55Z</time>
      </trkpt>
      <trkpt lat="48.72459" lon="7.15406">
        <ele>315.8</ele>
        <time>2020-06-28T18:02:56Z</time>
      </trkpt>
      <trkpt lat="48.72459" lon="7.15396">
        <ele>315.5</ele>
        <time>2020-06-28T18:02:57Z</time>
      </trkpt>
      <trkpt lat="48.7246" lon="7.15385">
        <ele>315.1</ele>
        <time>2020-06-28T18:02:58Z</time>
      </trkpt>
      <trkpt lat="48.72461" lon="7.15374">
        <ele>314.8</ele>
        <time>2020-06-28T18:02:59Z</time>
      </trkpt>
      <trkpt lat="48.72462" lon="7.15363">
        <ele>314.5</ele>
        <time>2020-06-28T18:03:00Z</time>
      </trkpt>
      <trkpt lat="48.72462" lon="7.15352">
        <ele>314.2</ele>
        <time>2020-06-28T18:03:01Z</time>
      </trkpt>
      <trkpt lat="48.72463" lon="7.15341">
        <ele>313.8</ele>
        <time>2020-06-28T18:03:02Z</time>
      </trkpt>
      <trkpt lat="48.72463" lon="7.1533">
        <ele>313.5</ele>
        <time>2020-06-28T18:03:03Z</time>
      </trkpt>
      <trkpt lat="48.72464" lon="7.15319">
        <ele>313.2</ele>
        <time>2020-06-28T18:03:04Z</time>
      </trkpt>
      <trkpt lat="48.72464" lon="7.15307">
        <ele>312.9</ele>
        <time>2020-06-28T18:03:05Z</time>
      </trkpt>
      <trkpt lat="48.72465" lon="7.15296">
        <ele>312.6</ele>
        <time>2020-06-28T18:03:06Z</time>
      </trkpt>
      <trkpt lat="48.72465" lon="7.15284">
        <ele>312.3</ele>
        <time>2020-06-28T18:03:07Z</time>
      </trkpt>
      <trkpt lat="48.72466" lon="7.15273">
        <ele>312</ele>
        <time>2020-06-28T18:03:08Z</time>
      </trkpt>
      <trkpt lat="48.72466" lon="7.15261">
        <ele>311.8</ele>
        <time>2020-06-28T18:03:09Z</time>
      </trkpt>
      <trkpt lat="48.72467" lon="7.1525">
        <ele>311.5</ele>
        <time>2020-06-28T18:03:10Z</time>
      </trkpt>
      <trkpt lat="48.72467" lon="7.15238">
        <ele>311.2</ele>
        <time>2020-06-28T18:03:11Z</time>
      </trkpt>
      <trkpt lat="48.72468" lon="7.15226">
        <ele>310.9</ele>
        <time>2020-06-28T18:03:12Z</time>
      </trkpt>
      <trkpt lat="48.72468" lon="7.15215">
        <ele>310.6</ele>
        <time>2020-06-28T18:03:13Z</time>
      </trkpt>
      <trkpt lat="48.7247" lon="7.15203">
        <ele>310.4</ele>
        <time>2020-06-28T18:03:14Z</time>
      </trkpt>
      <trkpt lat="48.7247" lon="7.15192">
        <ele>310.1</ele>
        <time>2020-06-28T18:03:15Z</time>
      </trkpt>
      <trkpt lat="48.72472" lon="7.15181">
        <ele>309.8</ele>
        <time>2020-06-28T18:03:16Z</time>
      </trkpt>
      <trkpt lat="48.72473" lon="7.15169">
        <ele>309.6</ele>
        <time>2020-06-28T18:03:17Z</time>
      </trkpt>
      <trkpt lat="48.72473" lon="7.15158">
        <ele>309.3</ele>
        <time>2020-06-28T18:03:18Z</time>
      </trkpt>
      <trkpt lat="48.72473" lon="7.15147">
        <ele>309</ele>
        <time>2020-06-28T18:03:19Z</time>
      </trkpt>
      <trkpt lat="48.72474" lon="7.15136">
        <ele>308.7</ele>
        <time>2020-06-28T18:03:20Z</time>
      </trkpt>
      <trkpt lat="48.72474" lon="7.15125">
        <ele>308.4</ele>
        <time>2020-06-28T18:03:21Z</time>
      </trkpt>
      <trkpt lat="48.72475" lon="7.15114">
        <ele>308.1</ele>
        <time>2020-06-28T18:03:22Z</time>
      </trkpt>
      <trkpt lat="48.72475" lon="7.15103">
        <ele>307.7</ele>
        <time>2020-06-28T18:03:23Z</time>
      </trkpt>
      <trkpt lat="48.72476" lon="7.15092">
        <ele>307.4</ele>
        <time>2020-06-28T18:03:24Z</time>
      </trkpt>
      <trkpt lat="48.72476" lon="7.1508">
        <ele>307</ele>
        <time>2020-06-28T18:03:25Z</time>
      </trkpt>
      <trkpt lat="48.72477" lon="7.15068">
        <ele>306.7</ele>
        <time>2020-06-28T18:03:26Z</time>
      </trkpt>
      <trkpt lat="48.72477" lon="7.15056">
        <ele>306.4</ele>
        <time>2020-06-28T18:03:27Z</time>
      </trkpt>
      <trkpt lat="48.72478" lon="7.15044">
        <ele>306</ele>
        <time>2020-06-28T18:03:28Z</time>
      </trkpt>
      <trkpt lat="48.72478" lon="7.15032">
        <ele>305.7</ele>
        <time>2020-06-28T18:03:29Z</time>
      </trkpt>
      <trkpt lat="48.72479" lon="7.1502">
        <ele>305.4</ele>
        <time>2020-06-28T18:03:30Z</time>
      </trkpt>
      <trkpt lat="48.72479" lon="7.15008">
        <ele>305</ele>
        <time>2020-06-28T18:03:31Z</time>
      </trkpt>
      <trkpt lat="48.7248" lon="7.14996">
        <ele>304.5</ele>
        <time>2020-06-28T18:03:32Z</time>
      </trkpt>
      <trkpt lat="48.72481" lon="7.14984">
        <ele>304.1</ele>
        <time>2020-06-28T18:03:33Z</time>
      </trkpt>
      <trkpt lat="48.72482" lon="7.14971">
        <ele>303.7</ele>
        <time>2020-06-28T18:03:34Z</time>
      </trkpt>
      <trkpt lat="48.72484" lon="7.14959">
        <ele>303.3</ele>
        <time>2020-06-28T18:03:35Z</time>
      </trkpt>
      <trkpt lat="48.72485" lon="7.14946">
        <ele>302.9</ele>
        <time>2020-06-28T18:03:36Z</time>
      </trkpt>
      <trkpt lat="48.72486" lon="7.14932">
        <ele>302.4</ele>
        <time>2020-06-28T18:03:37Z</time>
      </trkpt>
      <trkpt lat="48.72487" lon="7.14919">
        <ele>302</ele>
        <time>2020-06-28T18:03:38Z</time>
      </trkpt>
      <trkpt lat="48.72488" lon="7.14907">
        <ele>301.7</ele>
        <time>2020-06-28T18:03:39Z</time>
      </trkpt>
      <trkpt lat="48.72489" lon="7.14894">
        <ele>301.3</ele>
        <time>2020-06-28T18:03:40Z</time>
      </trkpt>
      <trkpt lat="48.72489" lon="7.14881">
        <ele>300.9</ele>
        <time>2020-06-28T18:03:41Z</time>
      </trkpt>
      <trkpt lat="48.7249" lon="7.14867">
        <ele>300.5</ele>
        <time>2020-06-28T18:03:42Z</time>
      </trkpt>
      <trkpt lat="48.72491" lon="7.14854">
        <ele>300.1</ele>
        <time>2020-06-28T18:03:43Z</time>
      </trkpt>
      <trkpt lat="48.72491" lon="7.14841">
        <ele>299.8</ele>
        <time>2020-06-28T18:03:44Z</time>
      </trkpt>
      <trkpt lat="48.72491" lon="7.14828">
        <ele>299.4</ele>
        <time>2020-06-28T18:03:45Z</time>
      </trkpt>
      <trkpt lat="48.72491" lon="7.14815">
        <ele>299.1</ele>
        <time>2020-06-28T18:03:46Z</time>
      </trkpt>
      <trkpt lat="48.72492" lon="7.14802">
        <ele>298.8</ele>
        <time>2020-06-28T18:03:47Z</time>
      </trkpt>
      <trkpt lat="48.72492" lon="7.14789">
        <ele>298.5</ele>
        <time>2020-06-28T18:03:48Z</time>
      </trkpt>
      <trkpt lat="48.72493" lon="7.14776">
        <ele>298.1</ele>
        <time>2020-06-28T18:03:49Z</time>
      </trkpt>
      <trkpt lat="48.72494" lon="7.14763">
        <ele>297.7</ele>
        <time>2020-06-28T18:03:50Z</time>
      </trkpt>
      <trkpt lat="48.72495" lon="7.14751">
        <ele>297.3</ele>
        <time>2020-06-28T18:03:51Z</time>
      </trkpt>
      <trkpt lat="48.72496" lon="7.14738">
        <ele>297</ele>
        <time>2020-06-28T18:03:52Z</time>
      </trkpt>
      <trkpt lat="48.72496" lon="7.14726">
        <ele>296.6</ele>
        <time>2020-06-28T18:03:53Z</time>
      </trkpt>
      <trkpt lat="48.72496" lon="7.14713">
        <ele>296.4</ele>
        <time>2020-06-28T18:03:54Z</time>
      </trkpt>
      <trkpt lat="48.72496" lon="7.147">
        <ele>296.1</ele>
        <time>2020-06-28T18:03:55Z</time>
      </trkpt>
      <trkpt lat="48.72496" lon="7.14688">
        <ele>295.8</ele>
        <time>2020-06-28T18:03:56Z</time>
      </trkpt>
      <trkpt lat="48.72497" lon="7.14676">
        <ele>295.4</ele>
        <time>2020-06-28T18:03:57Z</time>
      </trkpt>
      <trkpt lat="48.72498" lon="7.14663">
        <ele>295.1</ele>
        <time>2020-06-28T18:03:58Z</time>
      </trkpt>
      <trkpt lat="48.72499" lon="7.14651">
        <ele>294.8</ele>
        <time>2020-06-28T18:03:59Z</time>
      </trkpt>
      <trkpt lat="48.725" lon="7.1464">
        <ele>294.4</ele>
        <time>2020-06-28T18:04:00Z</time>
      </trkpt>
      <trkpt lat="48.72502" lon="7.14629">
        <ele>294.1</ele>
        <time>2020-06-28T18:04:01Z</time>
      </trkpt>
      <trkpt lat="48.72503" lon="7.14618">
        <ele>293.7</ele>
        <time>2020-06-28T18:04:02Z</time>
      </trkpt>
      <trkpt lat="48.72503" lon="7.14607">
        <ele>293.2</ele>
        <time>2020-06-28T18:04:03Z</time>
      </trkpt>
      <trkpt lat="48.72504" lon="7.14595">
        <ele>292.8</ele>
        <time>2020-06-28T18:04:04Z</time>
      </trkpt>
      <trkpt lat="48.72504" lon="7.14583">
        <ele>292.4</ele>
        <time>2020-06-28T18:04:05Z</time>
      </trkpt>
      <trkpt lat="48.72505" lon="7.14571">
        <ele>292</ele>
        <time>2020-06-28T18:04:06Z</time>
      </trkpt>
      <trkpt lat="48.72504" lon="7.14559">
        <ele>291.7</ele>
        <time>2020-06-28T18:04:07Z</time>
      </trkpt>
      <trkpt lat="48.72503" lon="7.14547">
        <ele>291.5</ele>
        <time>2020-06-28T18:04:08Z</time>
      </trkpt>
      <trkpt lat="48.725" lon="7.14535">
        <ele>291.3</ele>
        <time>2020-06-28T18:04:09Z</time>
      </trkpt>
      <trkpt lat="48.72497" lon="7.14525">
        <ele>291.2</ele>
        <time>2020-06-28T18:04:10Z</time>
      </trkpt>
      <trkpt lat="48.72493" lon="7.14516">
        <ele>291.1</ele>
        <time>2020-06-28T18:04:11Z</time>
      </trkpt>
      <trkpt lat="48.7249" lon="7.14506">
        <ele>291.1</ele>
        <time>2020-06-28T18:04:12Z</time>
      </trkpt>
      <trkpt lat="48.72486" lon="7.14497">
        <ele>291</ele>
        <time>2020-06-28T18:04:13Z</time>
      </trkpt>
      <trkpt lat="48.72481" lon="7.14489">
        <ele>291</ele>
        <time>2020-06-28T18:04:14Z</time>
      </trkpt>
      <trkpt lat="48.72478" lon="7.1448">
        <ele>291</ele>
        <time>2020-06-28T18:04:15Z</time>
      </trkpt>
      <trkpt lat="48.72474" lon="7.14473">
        <ele>290.9</ele>
        <time>2020-06-28T18:04:16Z</time>
      </trkpt>
      <trkpt lat="48.72471" lon="7.14464">
        <ele>290.9</ele>
        <time>2020-06-28T18:04:17Z</time>
      </trkpt>
      <trkpt lat="48.72467" lon="7.14456">
        <ele>290.8</ele>
        <time>2020-06-28T18:04:18Z</time>
      </trkpt>
      <trkpt lat="48.72463" lon="7.14448">
        <ele>290.8</ele>
        <time>2020-06-28T18:04:19Z</time>
      </trkpt>
      <trkpt lat="48.72459" lon="7.1444">
        <ele>290.7</ele>
        <time>2020-06-28T18:04:20Z</time>
      </trkpt>
      <trkpt lat="48.72455" lon="7.14432">
        <ele>290.6</ele>
        <time>2020-06-28T18:04:21Z</time>
      </trkpt>
      <trkpt lat="48.7245" lon="7.14425">
        <ele>290.5</ele>
        <time>2020-06-28T18:04:22Z</time>
      </trkpt>
      <trkpt lat="48.72446" lon="7.14417">
        <ele>290.4</ele>
        <time>2020-06-28T18:04:23Z</time>
      </trkpt>
      <trkpt lat="48.72441" lon="7.1441">
        <ele>290.3</ele>
        <time>2020-06-28T18:04:24Z</time>
      </trkpt>
      <trkpt lat="48.72437" lon="7.14402">
        <ele>290.2</ele>
        <time>2020-06-28T18:04:25Z</time>
      </trkpt>
      <trkpt lat="48.72433" lon="7.14395">
        <ele>290</ele>
        <time>2020-06-28T18:04:26Z</time>
      </trkpt>
      <trkpt lat="48.72429" lon="7.14387">
        <ele>289.9</ele>
        <time>2020-06-28T18:04:27Z</time>
      </trkpt>
      <trkpt lat="48.72425" lon="7.1438">
        <ele>289.8</ele>
        <time>2020-06-28T18:04:28Z</time>
      </trkpt>
      <trkpt lat="48.72421" lon="7.14373">
        <ele>289.7</ele>
        <time>2020-06-28T18:04:29Z</time>
      </trkpt>
      <trkpt lat="48.72417" lon="7.14367">
        <ele>289.5</ele>
        <time>2020-06-28T18:04:30Z</time>
      </trkpt>
      <trkpt lat="48.72413" lon="7.1436">
        <ele>289.4</ele>
        <time>2020-06-28T18:04:31Z</time>
      </trkpt>
      <trkpt lat="48.7241" lon="7.14352">
        <ele>289.3</ele>
        <time>2020-06-28T18:04:32Z</time>
      </trkpt>
      <trkpt lat="48.72406" lon="7.14346">
        <ele>289.1</ele>
        <time>2020-06-28T18:04:33Z</time>
      </trkpt>
      <trkpt lat="48.72403" lon="7.14339">
        <ele>289</ele>
        <time>2020-06-28T18:04:34Z</time>
      </trkpt>
      <trkpt lat="48.72401" lon="7.14331">
        <ele>288.9</ele>
        <time>2020-06-28T18:04:35Z</time>
      </trkpt>
      <trkpt lat="48.72402" lon="7.14322">
        <ele>288.8</ele>
        <time>2020-06-28T18:04:36Z</time>
      </trkpt>
      <trkpt lat="48.72404" lon="7.14314">
        <ele>288.7</ele>
        <time>2020-06-28T18:04:37Z</time>
      </trkpt>
      <trkpt lat="48.72408" lon="7.14307">
        <ele>288.6</ele>
        <time>2020-06-28T18:04:38Z</time>
      </trkpt>
      <trkpt lat="48.72411" lon="7.14299">
        <ele>288.5</ele>
        <time>2020-06-28T18:04:39Z</time>
      </trkpt>
      <trkpt lat="48.72415" lon="7.14292">
        <ele>288.5</ele>
        <time>2020-06-28T18:04:40Z</time>
      </trkpt>
      <trkpt lat="48.72419" lon="7.14285">
        <ele>288.4</ele>
        <time>2020-06-28T18:04:41Z</time>
      </trkpt>
      <trkpt lat="48.72423" lon="7.14278">
        <ele>288.3</ele>
        <time>2020-06-28T18:04:42Z</time>
      </trkpt>
      <trkpt lat="48.72427" lon="7.14269">
        <ele>288.1</ele>
        <time>2020-06-28T18:04:43Z</time>
      </trkpt>
      <trkpt lat="48.72431" lon="7.14261">
        <ele>287.9</ele>
        <time>2020-06-28T18:04:44Z</time>
      </trkpt>
      <trkpt lat="48.72435" lon="7.14254">
        <ele>287.7</ele>
        <time>2020-06-28T18:04:45Z</time>
      </trkpt>
      <trkpt lat="48.72439" lon="7.14247">
        <ele>287.6</ele>
        <time>2020-06-28T18:04:46Z</time>
      </trkpt>
      <trkpt lat="48.72442" lon="7.14238">
        <ele>287.4</ele>
        <time>2020-06-28T18:04:47Z</time>
      </trkpt>
      <trkpt lat="48.72447" lon="7.1423">
        <ele>287.3</ele>
        <time>2020-06-28T18:04:48Z</time>
      </trkpt>
      <trkpt lat="48.72451" lon="7.14223">
        <ele>287.1</ele>
        <time>2020-06-28T18:04:49Z</time>
      </trkpt>
      <trkpt lat="48.72455" lon="7.14214">
        <ele>287</ele>
        <time>2020-06-28T18:04:50Z</time>
      </trkpt>
      <trkpt lat="48.72459" lon="7.14204">
        <ele>286.9</ele>
        <time>2020-06-28T18:04:51Z</time>
      </trkpt>
      <trkpt lat="48.72463" lon="7.14195">
        <ele>286.8</ele>
        <time>2020-06-28T18:04:52Z</time>
      </trkpt>
      <trkpt lat="48.72466" lon="7.14186">
        <ele>286.7</ele>
        <time>2020-06-28T18:04:53Z</time>
      </trkpt>
      <trkpt lat="48.72469" lon="7.14177">
        <ele>286.7</ele>
        <time>2020-06-28T18:04:54Z</time>
      </trkpt>
      <trkpt lat="48.72472" lon="7.14168">
        <ele>286.6</ele>
        <time>2020-06-28T18:04:55Z</time>
      </trkpt>
      <trkpt lat="48.72474" lon="7.1416">
        <ele>286.5</ele>
        <time>2020-06-28T18:04:56Z</time>
      </trkpt>
      <trkpt lat="48.72477" lon="7.14152">
        <ele>286.4</ele>
        <time>2020-06-28T18:04:57Z</time>
      </trkpt>
      <trkpt lat="48.72479" lon="7.14143">
        <ele>286.3</ele>
        <time>2020-06-28T18:04:58Z</time>
      </trkpt>
      <trkpt lat="48.72481" lon="7.14135">
        <ele>286.1</ele>
        <time>2020-06-28T18:04:59Z</time>
      </trkpt>
      <trkpt lat="48.72482" lon="7.14126">
        <ele>286</ele>
        <time>2020-06-28T18:05:00Z</time>
      </trkpt>
      <trkpt lat="48.72484" lon="7.14116">
        <ele>285.8</ele>
        <time>2020-06-28T18:05:01Z</time>
      </trkpt>
      <trkpt lat="48.72484" lon="7.14107">
        <ele>285.6</ele>
        <time>2020-06-28T18:05:02Z</time>
      </trkpt>
      <trkpt lat="48.72484" lon="7.14098">
        <ele>285.4</ele>
        <time>2020-06-28T18:05:03Z</time>
      </trkpt>
      <trkpt lat="48.72483" lon="7.14087">
        <ele>285.3</ele>
        <time>2020-06-28T18:05:04Z</time>
      </trkpt>
      <trkpt lat="48.72481" lon="7.14076">
        <ele>285.1</ele>
        <time>2020-06-28T18:05:05Z</time>
      </trkpt>
      <trkpt lat="48.7248" lon="7.14065">
        <ele>285</ele>
        <time>2020-06-28T18:05:06Z</time>
      </trkpt>
      <trkpt lat="48.72478" lon="7.14056">
        <ele>284.9</ele>
        <time>2020-06-28T18:05:07Z</time>
      </trkpt>
      <trkpt lat="48.72476" lon="7.14047">
        <ele>284.8</ele>
        <time>2020-06-28T18:05:08Z</time>
      </trkpt>
      <trkpt lat="48.72473" lon="7.14039">
        <ele>284.8</ele>
        <time>2020-06-28T18:05:09Z</time>
      </trkpt>
      <trkpt lat="48.72471" lon="7.1403">
        <ele>284.7</ele>
        <time>2020-06-28T18:05:10Z</time>
      </trkpt>
      <trkpt lat="48.72468" lon="7.14021">
        <ele>284.7</ele>
        <time>2020-06-28T18:05:11Z</time>
      </trkpt>
      <trkpt lat="48.72466" lon="7.14012">
        <ele>284.6</ele>
        <time>2020-06-28T18:05:12Z</time>
      </trkpt>
      <trkpt lat="48.72464" lon="7.14003">
        <ele>284.5</ele>
        <time>2020-06-28T18:05:13Z</time>
      </trkpt>
      <trkpt lat="48.7246" lon="7.13994">
        <ele>284.4</ele>
        <time>2020-06-28T18:05:14Z</time>
      </trkpt>
      <trkpt lat="48.72457" lon="7.13984">
        <ele>284.3</ele>
        <time>2020-06-28T18:05:15Z</time>
      </trkpt>
      <trkpt lat="48.72453" lon="7.13975">
        <ele>284.3</ele>
        <time>2020-06-28T18:05:16Z</time>
      </trkpt>
      <trkpt lat="48.72449" lon="7.13966">
        <ele>284.2</ele>
        <time>2020-06-28T18:05:17Z</time>
      </trkpt>
      <trkpt lat="48.72447" lon="7.13955">
        <ele>284.1</ele>
        <time>2020-06-28T18:05:18Z</time>
      </trkpt>
      <trkpt lat="48.72444" lon="7.13944">
        <ele>284</ele>
        <time>2020-06-28T18:05:19Z</time>
      </trkpt>
      <trkpt lat="48.72439" lon="7.13936">
        <ele>283.9</ele>
        <time>2020-06-28T18:05:20Z</time>
      </trkpt>
      <trkpt lat="48.72436" lon="7.13926">
        <ele>283.8</ele>
        <time>2020-06-28T18:05:21Z</time>
      </trkpt>
      <trkpt lat="48.72432" lon="7.13917">
        <ele>283.8</ele>
        <time>2020-06-28T18:05:22Z</time>
      </trkpt>
      <trkpt lat="48.72429" lon="7.13908">
        <ele>283.7</ele>
        <time>2020-06-28T18:05:23Z</time>
      </trkpt>
      <trkpt lat="48.72426" lon="7.13898">
        <ele>283.7</ele>
        <time>2020-06-28T18:05:24Z</time>
      </trkpt>
      <trkpt lat="48.72424" lon="7.13889">
        <ele>283.7</ele>
        <time>2020-06-28T18:05:25Z</time>
      </trkpt>
      <trkpt lat="48.72421" lon="7.1388">
        <ele>283.7</ele>
        <time>2020-06-28T18:05:26Z</time>
      </trkpt>
      <trkpt lat="48.72418" lon="7.13871">
        <ele>283.7</ele>
        <time>2020-06-28T18:05:27Z</time>
      </trkpt>
      <trkpt lat="48.72416" lon="7.13862">
        <ele>283.7</ele>
        <time>2020-06-28T18:05:28Z</time>
      </trkpt>
      <trkpt lat="48.72414" lon="7.13852">
        <ele>283.7</ele>
        <time>2020-06-28T18:05:29Z</time>
      </trkpt>
      <trkpt lat="48.72411" lon="7.13844">
        <ele>283.7</ele>
        <time>2020-06-28T18:05:30Z</time>
      </trkpt>
      <trkpt lat="48.72409" lon="7.13835">
        <ele>283.7</ele>
        <time>2020-06-28T18:05:31Z</time>
      </trkpt>
      <trkpt lat="48.72407" lon="7.13826">
        <ele>283.7</ele>
        <time>2020-06-28T18:05:32Z</time>
      </trkpt>
      <trkpt lat="48.72405" lon="7.13817">
        <ele>283.7</ele>
        <time>2020-06-28T18:05:33Z</time>
      </trkpt>
      <trkpt lat="48.72402" lon="7.13809">
        <ele>283.7</ele>
        <time>2020-06-28T18:05:34Z</time>
      </trkpt>
      <trkpt lat="48.72399" lon="7.138">
        <ele>283.6</ele>
        <time>2020-06-28T18:05:35Z</time>
      </trkpt>
      <trkpt lat="48.72397" lon="7.13791">
        <ele>283.6</ele>
        <time>2020-06-28T18:05:36Z</time>
      </trkpt>
      <trkpt lat="48.72394" lon="7.13783">
        <ele>283.5</ele>
        <time>2020-06-28T18:05:37Z</time>
      </trkpt>
      <trkpt lat="48.72392" lon="7.13773">
        <ele>283.5</ele>
        <time>2020-06-28T18:05:38Z</time>
      </trkpt>
      <trkpt lat="48.7239" lon="7.13764">
        <ele>283.5</ele>
        <time>2020-06-28T18:05:39Z</time>
      </trkpt>
      <trkpt lat="48.72387" lon="7.13755">
        <ele>283.5</ele>
        <time>2020-06-28T18:05:40Z</time>
      </trkpt>
      <trkpt lat="48.72385" lon="7.13747">
        <ele>283.4</ele>
        <time>2020-06-28T18:05:41Z</time>
      </trkpt>
      <trkpt lat="48.72383" lon="7.13738">
        <ele>283.4</ele>
        <time>2020-06-28T18:05:42Z</time>
      </trkpt>
      <trkpt lat="48.7238" lon="7.13729">
        <ele>283.4</ele>
        <time>2020-06-28T18:05:43Z</time>
      </trkpt>
      <trkpt lat="48.72378" lon="7.1372">
        <ele>283.4</ele>
        <time>2020-06-28T18:05:44Z</time>
      </trkpt>
      <trkpt lat="48.72376" lon="7.1371">
        <ele>283.4</ele>
        <time>2020-06-28T18:05:45Z</time>
      </trkpt>
      <trkpt lat="48.72374" lon="7.13701">
        <ele>283.4</ele>
        <time>2020-06-28T18:05:46Z</time>
      </trkpt>
      <trkpt lat="48.72373" lon="7.13692">
        <ele>283.4</ele>
        <time>2020-06-28T18:05:47Z</time>
      </trkpt>
      <trkpt lat="48.72371" lon="7.13683">
        <ele>283.4</ele>
        <time>2020-06-28T18:05:48Z</time>
      </trkpt>
      <trkpt lat="48.7237" lon="7.13674">
        <ele>283.4</ele>
        <time>2020-06-28T18:05:49Z</time>
      </trkpt>
      <trkpt lat="48.72367" lon="7.13665">
        <ele>283.4</ele>
        <time>2020-06-28T18:05:50Z</time>
      </trkpt>
      <trkpt lat="48.72366" lon="7.13656">
        <ele>283.4</ele>
        <time>2020-06-28T18:05:51Z</time>
      </trkpt>
      <trkpt lat="48.72364" lon="7.13647">
        <ele>283.4</ele>
        <time>2020-06-28T18:05:52Z</time>
      </trkpt>
      <trkpt lat="48.72363" lon="7.13637">
        <ele>283.4</ele>
        <time>2020-06-28T18:05:53Z</time>
      </trkpt>
      <trkpt lat="48.72361" lon="7.13629">
        <ele>283.4</ele>
        <time>2020-06-28T18:05:54Z</time>
      </trkpt>
      <trkpt lat="48.7236" lon="7.13622">
        <ele>283.5</ele>
        <time>2020-06-28T18:05:55Z</time>
      </trkpt>
      <trkpt lat="48.72359" lon="7.13614">
        <ele>283.5</ele>
        <time>2020-06-28T18:05:56Z</time>
      </trkpt>
      <trkpt lat="48.72357" lon="7.13607">
        <ele>283.5</ele>
        <time>2020-06-28T18:05:57Z</time>
      </trkpt>
      <trkpt lat="48.72356" lon="7.136">
        <ele>283.5</ele>
        <time>2020-06-28T18:05:58Z</time>
      </trkpt>
      <trkpt lat="48.72356" lon="7.13593">
        <ele>283.5</ele>
        <time>2020-06-28T18:05:59Z</time>
      </trkpt>
      <trkpt lat="48.72356" lon="7.13586">
        <ele>283.6</ele>
        <time>2020-06-28T18:06:00Z</time>
      </trkpt>
      <trkpt lat="48.72356" lon="7.1358">
        <ele>283.6</ele>
        <time>2020-06-28T18:06:01Z</time>
      </trkpt>
      <trkpt lat="48.72357" lon="7.13574">
        <ele>283.6</ele>
        <time>2020-06-28T18:06:02Z</time>
      </trkpt>
      <trkpt lat="48.72357" lon="7.13568">
        <ele>283.7</ele>
        <time>2020-06-28T18:06:03Z</time>
      </trkpt>
      <trkpt lat="48.72359" lon="7.13562">
        <ele>283.7</ele>
        <time>2020-06-28T18:06:04Z</time>
      </trkpt>
      <trkpt lat="48.72359" lon="7.13556">
        <ele>283.7</ele>
        <time>2020-06-28T18:06:05Z</time>
      </trkpt>
      <trkpt lat="48.7236" lon="7.1355">
        <ele>283.7</ele>
        <time>2020-06-28T18:06:06Z</time>
      </trkpt>
      <trkpt lat="48.7236" lon="7.13543">
        <ele>283.8</ele>
        <time>2020-06-28T18:06:07Z</time>
      </trkpt>
      <trkpt lat="48.72361" lon="7.13537">
        <ele>283.8</ele>
        <time>2020-06-28T18:06:08Z</time>
      </trkpt>
      <trkpt lat="48.72361" lon="7.13531">
        <ele>283.8</ele>
        <time>2020-06-28T18:06:09Z</time>
      </trkpt>
      <trkpt lat="48.72362" lon="7.13525">
        <ele>283.8</ele>
        <time>2020-06-28T18:06:10Z</time>
      </trkpt>
      <trkpt lat="48.72363" lon="7.13519">
        <ele>283.9</ele>
        <time>2020-06-28T18:06:11Z</time>
      </trkpt>
      <trkpt lat="48.72363" lon="7.13513">
        <ele>284</ele>
        <time>2020-06-28T18:06:12Z</time>
      </trkpt>
      <trkpt lat="48.72364" lon="7.13506">
        <ele>284.1</ele>
        <time>2020-06-28T18:06:13Z</time>
      </trkpt>
      <trkpt lat="48.72366" lon="7.135">
        <ele>284.2</ele>
        <time>2020-06-28T18:06:14Z</time>
      </trkpt>
      <trkpt lat="48.72367" lon="7.13494">
        <ele>284.2</ele>
        <time>2020-06-28T18:06:15Z</time>
      </trkpt>
      <trkpt lat="48.72368" lon="7.13487">
        <ele>284.3</ele>
        <time>2020-06-28T18:06:16Z</time>
      </trkpt>
      <trkpt lat="48.72368" lon="7.13481">
        <ele>284.4</ele>
        <time>2020-06-28T18:06:17Z</time>
      </trkpt>
      <trkpt lat="48.7237" lon="7.13474">
        <ele>284.4</ele>
        <time>2020-06-28T18:06:18Z</time>
      </trkpt>
      <trkpt lat="48.7237" lon="7.13467">
        <ele>284.5</ele>
        <time>2020-06-28T18:06:19Z</time>
      </trkpt>
      <trkpt lat="48.72369" lon="7.13461">
        <ele>284.6</ele>
        <time>2020-06-28T18:06:20Z</time>
      </trkpt>
      <trkpt lat="48.72367" lon="7.13456">
        <ele>284.6</ele>
        <time>2020-06-28T18:06:21Z</time>
      </trkpt>
      <trkpt lat="48.72365" lon="7.13449">
        <ele>284.7</ele>
        <time>2020-06-28T18:06:22Z</time>
      </trkpt>
      <trkpt lat="48.72364" lon="7.13442">
        <ele>284.8</ele>
        <time>2020-06-28T18:06:23Z</time>
      </trkpt>
      <trkpt lat="48.72362" lon="7.13434">
        <ele>284.9</ele>
        <time>2020-06-28T18:06:24Z</time>
      </trkpt>
      <trkpt lat="48.72362" lon="7.13427">
        <ele>285.1</ele>
        <time>2020-06-28T18:06:25Z</time>
      </trkpt>
      <trkpt lat="48.72363" lon="7.1342">
        <ele>285.2</ele>
        <time>2020-06-28T18:06:26Z</time>
      </trkpt>
      <trkpt lat="48.72364" lon="7.13413">
        <ele>285.4</ele>
        <time>2020-06-28T18:06:27Z</time>
      </trkpt>
      <trkpt lat="48.72366" lon="7.13405">
        <ele>285.5</ele>
        <time>2020-06-28T18:06:28Z</time>
      </trkpt>
      <trkpt lat="48.72366" lon="7.13398">
        <ele>285.7</ele>
        <time>2020-06-28T18:06:29Z</time>
      </trkpt>
      <trkpt lat="48.72366" lon="7.1339">
        <ele>285.8</ele>
        <time>2020-06-28T18:06:30Z</time>
      </trkpt>
      <trkpt lat="48.72367" lon="7.13383">
        <ele>286</ele>
        <time>2020-06-28T18:06:31Z</time>
      </trkpt>
      <trkpt lat="48.72367" lon="7.13377">
        <ele>286.2</ele>
        <time>2020-06-28T18:06:32Z</time>
      </trkpt>
      <trkpt lat="48.72367" lon="7.1337">
        <ele>286.4</ele>
        <time>2020-06-28T18:06:33Z</time>
      </trkpt>
      <trkpt lat="48.72368" lon="7.13364">
        <ele>286.6</ele>
        <time>2020-06-28T18:06:34Z</time>
      </trkpt>
      <trkpt lat="48.72368" lon="7.13359">
        <ele>286.9</ele>
        <time>2020-06-28T18:06:35Z</time>
      </trkpt>
      <trkpt lat="48.72369" lon="7.13353">
        <ele>287.1</ele>
        <time>2020-06-28T18:06:36Z</time>
      </trkpt>
      <trkpt lat="48.72369" lon="7.13347">
        <ele>287.3</ele>
        <time>2020-06-28T18:06:37Z</time>
      </trkpt>
      <trkpt lat="48.7237" lon="7.13341">
        <ele>287.5</ele>
        <time>2020-06-28T18:06:38Z</time>
      </trkpt>
      <trkpt lat="48.72371" lon="7.13335">
        <ele>287.7</ele>
        <time>2020-06-28T18:06:39Z</time>
      </trkpt>
      <trkpt lat="48.72372" lon="7.13328">
        <ele>288</ele>
        <time>2020-06-28T18:06:40Z</time>
      </trkpt>
      <trkpt lat="48.72372" lon="7.13323">
        <ele>288.1</ele>
        <time>2020-06-28T18:06:41Z</time>
      </trkpt>
      <trkpt lat="48.72373" lon="7.13317">
        <ele>288.4</ele>
        <time>2020-06-28T18:06:42Z</time>
      </trkpt>
      <trkpt lat="48.72373" lon="7.1331">
        <ele>288.6</ele>
        <time>2020-06-28T18:06:43Z</time>
      </trkpt>
      <trkpt lat="48.72373" lon="7.13305">
        <ele>288.8</ele>
        <time>2020-06-28T18:06:44Z</time>
      </trkpt>
      <trkpt lat="48.72372" lon="7.133">
        <ele>288.9</ele>
        <time>2020-06-28T18:06:45Z</time>
      </trkpt>
      <trkpt lat="48.72371" lon="7.13295">
        <ele>289.1</ele>
        <time>2020-06-28T18:06:46Z</time>
      </trkpt>
      <trkpt lat="48.7237" lon="7.1329">
        <ele>289.3</ele>
        <time>2020-06-28T18:06:47Z</time>
      </trkpt>
      <trkpt lat="48.7237" lon="7.13284">
        <ele>289.5</ele>
        <time>2020-06-28T18:06:48Z</time>
      </trkpt>
      <trkpt lat="48.72368" lon="7.13279">
        <ele>289.7</ele>
        <time>2020-06-28T18:06:49Z</time>
      </trkpt>
      <trkpt lat="48.72366" lon="7.13274">
        <ele>289.8</ele>
        <time>2020-06-28T18:06:50Z</time>
      </trkpt>
      <trkpt lat="48.72364" lon="7.13269">
        <ele>290</ele>
        <time>2020-06-28T18:06:51Z</time>
      </trkpt>
      <trkpt lat="48.72363" lon="7.13263">
        <ele>290.1</ele>
        <time>2020-06-28T18:06:52Z</time>
      </trkpt>
      <trkpt lat="48.72361" lon="7.13258">
        <ele>290.3</ele>
        <time>2020-06-28T18:06:53Z</time>
      </trkpt>
      <trkpt lat="48.72359" lon="7.13253">
        <ele>290.4</ele>
        <time>2020-06-28T18:06:54Z</time>
      </trkpt>
      <trkpt lat="48.72356" lon="7.13249">
        <ele>290.5</ele>
        <time>2020-06-28T18:06:55Z</time>
      </trkpt>
      <trkpt lat="48.72354" lon="7.13244">
        <ele>290.6</ele>
        <time>2020-06-28T18:06:56Z</time>
      </trkpt>
      <trkpt lat="48.72352" lon="7.1324">
        <ele>290.7</ele>
        <time>2020-06-28T18:06:57Z</time>
      </trkpt>
      <trkpt lat="48.72349" lon="7.13235">
        <ele>290.9</ele>
        <time>2020-06-28T18:06:58Z</time>
      </trkpt>
      <trkpt lat="48.72346" lon="7.1323">
        <ele>290.9</ele>
        <time>2020-06-28T18:06:59Z</time>
      </trkpt>
      <trkpt lat="48.72343" lon="7.13226">
        <ele>291</ele>
        <time>2020-06-28T18:07:00Z</time>
      </trkpt>
      <trkpt lat="48.72341" lon="7.13221">
        <ele>291.1</ele>
        <time>2020-06-28T18:07:01Z</time>
      </trkpt>
      <trkpt lat="48.72339" lon="7.13214">
        <ele>291.1</ele>
        <time>2020-06-28T18:07:02Z</time>
      </trkpt>
      <trkpt lat="48.72338" lon="7.13208">
        <ele>291.2</ele>
        <time>2020-06-28T18:07:03Z</time>
      </trkpt>
      <trkpt lat="48.72337" lon="7.13202">
        <ele>291.2</ele>
        <time>2020-06-28T18:07:04Z</time>
      </trkpt>
      <trkpt lat="48.72333" lon="7.13197">
        <ele>291.2</ele>
        <time>2020-06-28T18:07:05Z</time>
      </trkpt>
      <trkpt lat="48.72331" lon="7.13192">
        <ele>291.3</ele>
        <time>2020-06-28T18:07:06Z</time>
      </trkpt>
      <trkpt lat="48.72328" lon="7.13187">
        <ele>291.3</ele>
        <time>2020-06-28T18:07:07Z</time>
      </trkpt>
      <trkpt lat="48.72326" lon="7.1318">
        <ele>291.3</ele>
        <time>2020-06-28T18:07:08Z</time>
      </trkpt>
      <trkpt lat="48.72323" lon="7.13174">
        <ele>291.2</ele>
        <time>2020-06-28T18:07:09Z</time>
      </trkpt>
      <trkpt lat="48.7232" lon="7.13168">
        <ele>291.2</ele>
        <time>2020-06-28T18:07:10Z</time>
      </trkpt>
      <trkpt lat="48.72317" lon="7.13161">
        <ele>291.1</ele>
        <time>2020-06-28T18:07:11Z</time>
      </trkpt>
      <trkpt lat="48.72315" lon="7.13154">
        <ele>291</ele>
        <time>2020-06-28T18:07:12Z</time>
      </trkpt>
      <trkpt lat="48.72311" lon="7.13147">
        <ele>290.9</ele>
        <time>2020-06-28T18:07:13Z</time>
      </trkpt>
      <trkpt lat="48.72307" lon="7.13142">
        <ele>290.9</ele>
        <time>2020-06-28T18:07:14Z</time>
      </trkpt>
      <trkpt lat="48.72303" lon="7.13136">
        <ele>290.7</ele>
        <time>2020-06-28T18:07:15Z</time>
      </trkpt>
      <trkpt lat="48.72301" lon="7.13128">
        <ele>290.6</ele>
        <time>2020-06-28T18:07:16Z</time>
      </trkpt>
      <trkpt lat="48.72298" lon="7.13121">
        <ele>290.4</ele>
        <time>2020-06-28T18:07:17Z</time>
      </trkpt>
      <trkpt lat="48.72294" lon="7.13114">
        <ele>290.3</ele>
        <time>2020-06-28T18:07:18Z</time>
      </trkpt>
      <trkpt lat="48.72291" lon="7.13108">
        <ele>290.1</ele>
        <time>2020-06-28T18:07:19Z</time>
      </trkpt>
      <trkpt lat="48.72288" lon="7.131">
        <ele>290</ele>
        <time>2020-06-28T18:07:20Z</time>
      </trkpt>
      <trkpt lat="48.72285" lon="7.13093">
        <ele>289.8</ele>
        <time>2020-06-28T18:07:21Z</time>
      </trkpt>
      <trkpt lat="48.72281" lon="7.13087">
        <ele>289.6</ele>
        <time>2020-06-28T18:07:22Z</time>
      </trkpt>
      <trkpt lat="48.72278" lon="7.1308">
        <ele>289.5</ele>
        <time>2020-06-28T18:07:23Z</time>
      </trkpt>
      <trkpt lat="48.72275" lon="7.13073">
        <ele>289.3</ele>
        <time>2020-06-28T18:07:24Z</time>
      </trkpt>
      <trkpt lat="48.72272" lon="7.13066">
        <ele>289.1</ele>
        <time>2020-06-28T18:07:25Z</time>
      </trkpt>
      <trkpt lat="48.72268" lon="7.1306">
        <ele>288.9</ele>
        <time>2020-06-28T18:07:26Z</time>
      </trkpt>
      <trkpt lat="48.72265" lon="7.13053">
        <ele>288.7</ele>
        <time>2020-06-28T18:07:27Z</time>
      </trkpt>
      <trkpt lat="48.72263" lon="7.13046">
        <ele>288.5</ele>
        <time>2020-06-28T18:07:28Z</time>
      </trkpt>
      <trkpt lat="48.7226" lon="7.13039">
        <ele>288.3</ele>
        <time>2020-06-28T18:07:29Z</time>
      </trkpt>
      <trkpt lat="48.72257" lon="7.13032">
        <ele>288</ele>
        <time>2020-06-28T18:07:30Z</time>
      </trkpt>
      <trkpt lat="48.72255" lon="7.13024">
        <ele>287.8</ele>
        <time>2020-06-28T18:07:31Z</time>
      </trkpt>
      <trkpt lat="48.72253" lon="7.13017">
        <ele>287.6</ele>
        <time>2020-06-28T18:07:32Z</time>
      </trkpt>
      <trkpt lat="48.7225" lon="7.1301">
        <ele>287.4</ele>
        <time>2020-06-28T18:07:33Z</time>
      </trkpt>
      <trkpt lat="48.72246" lon="7.13002">
        <ele>287.2</ele>
        <time>2020-06-28T18:07:34Z</time>
      </trkpt>
      <trkpt lat="48.72242" lon="7.12993">
        <ele>286.9</ele>
        <time>2020-06-28T18:07:35Z</time>
      </trkpt>
      <trkpt lat="48.72238" lon="7.12984">
        <ele>286.6</ele>
        <time>2020-06-28T18:07:36Z</time>
      </trkpt>
      <trkpt lat="48.72234" lon="7.12976">
        <ele>286.3</ele>
        <time>2020-06-28T18:07:37Z</time>
      </trkpt>
      <trkpt lat="48.7223" lon="7.12968">
        <ele>286</ele>
        <time>2020-06-28T18:07:38Z</time>
      </trkpt>
      <trkpt lat="48.72226" lon="7.12959">
        <ele>285.7</ele>
        <time>2020-06-28T18:07:39Z</time>
      </trkpt>
      <trkpt lat="48.72221" lon="7.12951">
        <ele>285.4</ele>
        <time>2020-06-28T18:07:40Z</time>
      </trkpt>
      <trkpt lat="48.72215" lon="7.12945">
        <ele>285.1</ele>
        <time>2020-06-28T18:07:41Z</time>
      </trkpt>
      <trkpt lat="48.7221" lon="7.12937">
        <ele>284.8</ele>
        <time>2020-06-28T18:07:42Z</time>
      </trkpt>
      <trkpt lat="48.72205" lon="7.1293">
        <ele>284.4</ele>
        <time>2020-06-28T18:07:43Z</time>
      </trkpt>
      <trkpt lat="48.72198" lon="7.12925">
        <ele>284</ele>
        <time>2020-06-28T18:07:44Z</time>
      </trkpt>
      <trkpt lat="48.72191" lon="7.12922">
        <ele>283.6</ele>
        <time>2020-06-28T18:07:45Z</time>
      </trkpt>
      <trkpt lat="48.72184" lon="7.12916">
        <ele>283.3</ele>
        <time>2020-06-28T18:07:46Z</time>
      </trkpt>
      <trkpt lat="48.72177" lon="7.12913">
        <ele>283</ele>
        <time>2020-06-28T18:07:47Z</time>
      </trkpt>
      <trkpt lat="48.7217" lon="7.12911">
        <ele>282.7</ele>
        <time>2020-06-28T18:07:48Z</time>
      </trkpt>
      <trkpt lat="48.72163" lon="7.12912">
        <ele>282.5</ele>
        <time>2020-06-28T18:07:49Z</time>
      </trkpt>
      <trkpt lat="48.72157" lon="7.12913">
        <ele>282.5</ele>
        <time>2020-06-28T18:07:50Z</time>
      </trkpt>
      <trkpt lat="48.72151" lon="7.12913">
        <ele>282.4</ele>
        <time>2020-06-28T18:07:51Z</time>
      </trkpt>
      <trkpt lat="48.72145" lon="7.12914">
        <ele>282.3</ele>
        <time>2020-06-28T18:07:52Z</time>
      </trkpt>
      <trkpt lat="48.7214" lon="7.12915">
        <ele>282.3</ele>
        <time>2020-06-28T18:07:53Z</time>
      </trkpt>
      <trkpt lat="48.72134" lon="7.12916">
        <ele>282.2</ele>
        <time>2020-06-28T18:07:54Z</time>
      </trkpt>
      <trkpt lat="48.72128" lon="7.12912">
        <ele>282.2</ele>
        <time>2020-06-28T18:07:55Z</time>
      </trkpt>
      <trkpt lat="48.72122" lon="7.1291">
        <ele>282.2</ele>
        <time>2020-06-28T18:07:56Z</time>
      </trkpt>
      <trkpt lat="48.72117" lon="7.12907">
        <ele>282.1</ele>
        <time>2020-06-28T18:07:57Z</time>
      </trkpt>
      <trkpt lat="48.72112" lon="7.12905">
        <ele>282.1</ele>
        <time>2020-06-28T18:07:58Z</time>
      </trkpt>
      <trkpt lat="48.72108" lon="7.129">
        <ele>282.1</ele>
        <time>2020-06-28T18:07:59Z</time>
      </trkpt>
      <trkpt lat="48.72103" lon="7.12895">
        <ele>282.1</ele>
        <time>2020-06-28T18:08:00Z</time>
      </trkpt>
      <trkpt lat="48.72099" lon="7.1289">
        <ele>282</ele>
        <time>2020-06-28T18:08:01Z</time>
      </trkpt>
      <trkpt lat="48.72096" lon="7.12885">
        <ele>282</ele>
        <time>2020-06-28T18:08:02Z</time>
      </trkpt>
      <trkpt lat="48.72092" lon="7.1288">
        <ele>282</ele>
        <time>2020-06-28T18:08:03Z</time>
      </trkpt>
      <trkpt lat="48.72088" lon="7.12876">
        <ele>281.9</ele>
        <time>2020-06-28T18:08:04Z</time>
      </trkpt>
      <trkpt lat="48.72085" lon="7.1287">
        <ele>281.9</ele>
        <time>2020-06-28T18:08:05Z</time>
      </trkpt>
      <trkpt lat="48.72081" lon="7.12864">
        <ele>281.8</ele>
        <time>2020-06-28T18:08:06Z</time>
      </trkpt>
      <trkpt lat="48.72078" lon="7.12858">
        <ele>281.8</ele>
        <time>2020-06-28T18:08:07Z</time>
      </trkpt>
      <trkpt lat="48.72076" lon="7.12853">
        <ele>281.7</ele>
        <time>2020-06-28T18:08:08Z</time>
      </trkpt>
      <trkpt lat="48.72073" lon="7.12847">
        <ele>281.7</ele>
        <time>2020-06-28T18:08:09Z</time>
      </trkpt>
      <trkpt lat="48.7207" lon="7.12841">
        <ele>281.6</ele>
        <time>2020-06-28T18:08:10Z</time>
      </trkpt>
      <trkpt lat="48.72069" lon="7.12833">
        <ele>281.6</ele>
        <time>2020-06-28T18:08:11Z</time>
      </trkpt>
      <trkpt lat="48.72069" lon="7.12827">
        <ele>281.5</ele>
        <time>2020-06-28T18:08:12Z</time>
      </trkpt>
      <trkpt lat="48.72068" lon="7.1282">
        <ele>281.5</ele>
        <time>2020-06-28T18:08:13Z</time>
      </trkpt>
      <trkpt lat="48.72068" lon="7.12815">
        <ele>281.4</ele>
        <time>2020-06-28T18:08:14Z</time>
      </trkpt>
      <trkpt lat="48.72067" lon="7.1281">
        <ele>281.4</ele>
        <time>2020-06-28T18:08:15Z</time>
      </trkpt>
      <trkpt lat="48.72066" lon="7.12806">
        <ele>281.4</ele>
        <time>2020-06-28T18:08:16Z</time>
      </trkpt>
      <trkpt lat="48.72065" lon="7.12801">
        <ele>281.4</ele>
        <time>2020-06-28T18:08:17Z</time>
      </trkpt>
      <trkpt lat="48.72064" lon="7.12794">
        <ele>281.4</ele>
        <time>2020-06-28T18:08:18Z</time>
      </trkpt>
      <trkpt lat="48.72062" lon="7.12787">
        <ele>281.4</ele>
        <time>2020-06-28T18:08:19Z</time>
      </trkpt>
      <trkpt lat="48.7206" lon="7.1278">
        <ele>281.4</ele>
        <time>2020-06-28T18:08:20Z</time>
      </trkpt>
      <trkpt lat="48.72059" lon="7.12773">
        <ele>281.4</ele>
        <time>2020-06-28T18:08:21Z</time>
      </trkpt>
      <trkpt lat="48.72057" lon="7.12767">
        <ele>281.4</ele>
        <time>2020-06-28T18:08:22Z</time>
      </trkpt>
      <trkpt lat="48.72054" lon="7.12761">
        <ele>281.3</ele>
        <time>2020-06-28T18:08:23Z</time>
      </trkpt>
      <trkpt lat="48.72053" lon="7.12754">
        <ele>281.3</ele>
        <time>2020-06-28T18:08:24Z</time>
      </trkpt>
      <trkpt lat="48.72052" lon="7.12746">
        <ele>281.2</ele>
        <time>2020-06-28T18:08:25Z</time>
      </trkpt>
      <trkpt lat="48.72051" lon="7.1274">
        <ele>281.1</ele>
        <time>2020-06-28T18:08:26Z</time>
      </trkpt>
      <trkpt lat="48.72051" lon="7.12733">
        <ele>281</ele>
        <time>2020-06-28T18:08:27Z</time>
      </trkpt>
      <trkpt lat="48.72052" lon="7.12726">
        <ele>280.9</ele>
        <time>2020-06-28T18:08:28Z</time>
      </trkpt>
      <trkpt lat="48.72051" lon="7.12719">
        <ele>280.9</ele>
        <time>2020-06-28T18:08:29Z</time>
      </trkpt>
      <trkpt lat="48.7205" lon="7.12711">
        <ele>280.8</ele>
        <time>2020-06-28T18:08:30Z</time>
      </trkpt>
      <trkpt lat="48.72051" lon="7.12703">
        <ele>280.7</ele>
        <time>2020-06-28T18:08:31Z</time>
      </trkpt>
      <trkpt lat="48.7205" lon="7.12696">
        <ele>280.6</ele>
        <time>2020-06-28T18:08:32Z</time>
      </trkpt>
      <trkpt lat="48.7205" lon="7.12688">
        <ele>280.5</ele>
        <time>2020-06-28T18:08:33Z</time>
      </trkpt>
      <trkpt lat="48.72049" lon="7.12681">
        <ele>280.4</ele>
        <time>2020-06-28T18:08:34Z</time>
      </trkpt>
      <trkpt lat="48.72047" lon="7.12675">
        <ele>280.3</ele>
        <time>2020-06-28T18:08:35Z</time>
      </trkpt>
      <trkpt lat="48.72046" lon="7.12668">
        <ele>280.2</ele>
        <time>2020-06-28T18:08:36Z</time>
      </trkpt>
      <trkpt lat="48.72044" lon="7.12661">
        <ele>280.1</ele>
        <time>2020-06-28T18:08:37Z</time>
      </trkpt>
      <trkpt lat="48.72043" lon="7.12654">
        <ele>280</ele>
        <time>2020-06-28T18:08:38Z</time>
      </trkpt>
      <trkpt lat="48.72041" lon="7.12646">
        <ele>279.9</ele>
        <time>2020-06-28T18:08:39Z</time>
      </trkpt>
      <trkpt lat="48.7204" lon="7.12638">
        <ele>279.8</ele>
        <time>2020-06-28T18:08:40Z</time>
      </trkpt>
      <trkpt lat="48.72039" lon="7.12631">
        <ele>279.7</ele>
        <time>2020-06-28T18:08:41Z</time>
      </trkpt>
      <trkpt lat="48.72037" lon="7.12623">
        <ele>279.6</ele>
        <time>2020-06-28T18:08:42Z</time>
      </trkpt>
      <trkpt lat="48.72036" lon="7.12615">
        <ele>279.4</ele>
        <time>2020-06-28T18:08:43Z</time>
      </trkpt>
      <trkpt lat="48.72036" lon="7.12608">
        <ele>279.3</ele>
        <time>2020-06-28T18:08:44Z</time>
      </trkpt>
      <trkpt lat="48.72034" lon="7.126">
        <ele>279.2</ele>
        <time>2020-06-28T18:08:45Z</time>
      </trkpt>
      <trkpt lat="48.72034" lon="7.12594">
        <ele>279.1</ele>
        <time>2020-06-28T18:08:46Z</time>
      </trkpt>
      <trkpt lat="48.72032" lon="7.12587">
        <ele>279</ele>
        <time>2020-06-28T18:08:47Z</time>
      </trkpt>
      <trkpt lat="48.72031" lon="7.1258">
        <ele>278.8</ele>
        <time>2020-06-28T18:08:48Z</time>
      </trkpt>
      <trkpt lat="48.72031" lon="7.12573">
        <ele>278.7</ele>
        <time>2020-06-28T18:08:49Z</time>
      </trkpt>
      <trkpt lat="48.72029" lon="7.12567">
        <ele>278.5</ele>
        <time>2020-06-28T18:08:50Z</time>
      </trkpt>
      <trkpt lat="48.72028" lon="7.12561">
        <ele>278.4</ele>
        <time>2020-06-28T18:08:51Z</time>
      </trkpt>
      <trkpt lat="48.72026" lon="7.12555">
        <ele>278.2</ele>
        <time>2020-06-28T18:08:52Z</time>
      </trkpt>
      <trkpt lat="48.72022" lon="7.1255">
        <ele>277.9</ele>
        <time>2020-06-28T18:08:53Z</time>
      </trkpt>
      <trkpt lat="48.72016" lon="7.1255">
        <ele>277.8</ele>
        <time>2020-06-28T18:08:54Z</time>
      </trkpt>
      <trkpt lat="48.7201" lon="7.12548">
        <ele>277.2</ele>
        <time>2020-06-28T18:08:55Z</time>
      </trkpt>
      <trkpt lat="48.72005" lon="7.1255">
        <ele>277.1</ele>
        <time>2020-06-28T18:08:56Z</time>
      </trkpt>
      <trkpt lat="48.72001" lon="7.12552">
        <ele>276.8</ele>
        <time>2020-06-28T18:08:57Z</time>
      </trkpt>
      <trkpt lat="48.71997" lon="7.12556">
        <ele>276.8</ele>
        <time>2020-06-28T18:08:58Z</time>
      </trkpt>
      <trkpt lat="48.71994" lon="7.1256">
        <ele>276.7</ele>
        <time>2020-06-28T18:08:59Z</time>
      </trkpt>
      <trkpt lat="48.7199" lon="7.12564">
        <ele>276.7</ele>
        <time>2020-06-28T18:09:00Z</time>
      </trkpt>
      <trkpt lat="48.71987" lon="7.12566">
        <ele>276.7</ele>
        <time>2020-06-28T18:09:01Z</time>
      </trkpt>
      <trkpt lat="48.71983" lon="7.12566">
        <ele>276.8</ele>
        <time>2020-06-28T18:09:02Z</time>
      </trkpt>
      <trkpt lat="48.71979" lon="7.12567">
        <ele>277</ele>
        <time>2020-06-28T18:09:03Z</time>
      </trkpt>
      <trkpt lat="48.71975" lon="7.12565">
        <ele>277.1</ele>
        <time>2020-06-28T18:09:04Z</time>
      </trkpt>
      <trkpt lat="48.71972" lon="7.12561">
        <ele>277.2</ele>
        <time>2020-06-28T18:09:05Z</time>
      </trkpt>
      <trkpt lat="48.7197" lon="7.12555">
        <ele>277.3</ele>
        <time>2020-06-28T18:09:06Z</time>
      </trkpt>
      <trkpt lat="48.71968" lon="7.12545">
        <ele>277.2</ele>
        <time>2020-06-28T18:09:07Z</time>
      </trkpt>
      <trkpt lat="48.71967" lon="7.12536">
        <ele>277.1</ele>
        <time>2020-06-28T18:09:08Z</time>
      </trkpt>
      <trkpt lat="48.71966" lon="7.12528">
        <ele>277.1</ele>
        <time>2020-06-28T18:09:09Z</time>
      </trkpt>
      <trkpt lat="48.71966" lon="7.12519">
        <ele>277</ele>
        <time>2020-06-28T18:09:10Z</time>
      </trkpt>
      <trkpt lat="48.71966" lon="7.12509">
        <ele>276.9</ele>
        <time>2020-06-28T18:09:11Z</time>
      </trkpt>
      <trkpt lat="48.71965" lon="7.125">
        <ele>276.8</ele>
        <time>2020-06-28T18:09:12Z</time>
      </trkpt>
      <trkpt lat="48.71964" lon="7.12489">
        <ele>276.6</ele>
        <time>2020-06-28T18:09:13Z</time>
      </trkpt>
      <trkpt lat="48.71962" lon="7.12477">
        <ele>276.4</ele>
        <time>2020-06-28T18:09:14Z</time>
      </trkpt>
      <trkpt lat="48.71961" lon="7.12468">
        <ele>276.2</ele>
        <time>2020-06-28T18:09:15Z</time>
      </trkpt>
      <trkpt lat="48.71957" lon="7.12455">
        <ele>275.9</ele>
        <time>2020-06-28T18:09:16Z</time>
      </trkpt>
      <trkpt lat="48.71955" lon="7.12443">
        <ele>275.6</ele>
        <time>2020-06-28T18:09:17Z</time>
      </trkpt>
      <trkpt lat="48.71952" lon="7.12432">
        <ele>275.4</ele>
        <time>2020-06-28T18:09:18Z</time>
      </trkpt>
      <trkpt lat="48.7195" lon="7.12422">
        <ele>275.1</ele>
        <time>2020-06-28T18:09:19Z</time>
      </trkpt>
      <trkpt lat="48.71948" lon="7.12412">
        <ele>274.9</ele>
        <time>2020-06-28T18:09:20Z</time>
      </trkpt>
      <trkpt lat="48.71945" lon="7.12397">
        <ele>274.6</ele>
        <time>2020-06-28T18:09:21Z</time>
      </trkpt>
      <trkpt lat="48.71943" lon="7.12387">
        <ele>274.4</ele>
        <time>2020-06-28T18:09:22Z</time>
      </trkpt>
      <trkpt lat="48.71939" lon="7.12372">
        <ele>274.1</ele>
        <time>2020-06-28T18:09:23Z</time>
      </trkpt>
      <trkpt lat="48.71936" lon="7.12359">
        <ele>273.8</ele>
        <time>2020-06-28T18:09:24Z</time>
      </trkpt>
      <trkpt lat="48.71933" lon="7.12349">
        <ele>273.6</ele>
        <time>2020-06-28T18:09:25Z</time>
      </trkpt>
      <trkpt lat="48.71931" lon="7.12339">
        <ele>273.4</ele>
        <time>2020-06-28T18:09:26Z</time>
      </trkpt>
      <trkpt lat="48.7193" lon="7.12328">
        <ele>273.2</ele>
        <time>2020-06-28T18:09:27Z</time>
      </trkpt>
      <trkpt lat="48.71928" lon="7.12318">
        <ele>273</ele>
        <time>2020-06-28T18:09:28Z</time>
      </trkpt>
      <trkpt lat="48.71926" lon="7.12308">
        <ele>272.8</ele>
        <time>2020-06-28T18:09:29Z</time>
      </trkpt>
      <trkpt lat="48.71925" lon="7.12298">
        <ele>272.6</ele>
        <time>2020-06-28T18:09:30Z</time>
      </trkpt>
      <trkpt lat="48.71924" lon="7.12288">
        <ele>272.4</ele>
        <time>2020-06-28T18:09:31Z</time>
      </trkpt>
      <trkpt lat="48.71923" lon="7.12278">
        <ele>272.3</ele>
        <time>2020-06-28T18:09:32Z</time>
      </trkpt>
      <trkpt lat="48.71922" lon="7.12268">
        <ele>272.1</ele>
        <time>2020-06-28T18:09:33Z</time>
      </trkpt>
      <trkpt lat="48.7192" lon="7.12258">
        <ele>272</ele>
        <time>2020-06-28T18:09:34Z</time>
      </trkpt>
      <trkpt lat="48.7192" lon="7.12248">
        <ele>271.8</ele>
        <time>2020-06-28T18:09:35Z</time>
      </trkpt>
      <trkpt lat="48.7192" lon="7.12238">
        <ele>271.7</ele>
        <time>2020-06-28T18:09:36Z</time>
      </trkpt>
      <trkpt lat="48.7192" lon="7.12228">
        <ele>271.5</ele>
        <time>2020-06-28T18:09:37Z</time>
      </trkpt>
      <trkpt lat="48.71921" lon="7.12218">
        <ele>271.3</ele>
        <time>2020-06-28T18:09:38Z</time>
      </trkpt>
      <trkpt lat="48.71921" lon="7.12207">
        <ele>271.2</ele>
        <time>2020-06-28T18:09:39Z</time>
      </trkpt>
      <trkpt lat="48.71922" lon="7.12198">
        <ele>271</ele>
        <time>2020-06-28T18:09:40Z</time>
      </trkpt>
      <trkpt lat="48.71922" lon="7.12188">
        <ele>270.8</ele>
        <time>2020-06-28T18:09:41Z</time>
      </trkpt>
      <trkpt lat="48.71922" lon="7.12178">
        <ele>270.7</ele>
        <time>2020-06-28T18:09:42Z</time>
      </trkpt>
      <trkpt lat="48.71922" lon="7.12168">
        <ele>270.6</ele>
        <time>2020-06-28T18:09:43Z</time>
      </trkpt>
      <trkpt lat="48.71922" lon="7.12158">
        <ele>270.5</ele>
        <time>2020-06-28T18:09:44Z</time>
      </trkpt>
      <trkpt lat="48.71921" lon="7.12148">
        <ele>270.4</ele>
        <time>2020-06-28T18:09:45Z</time>
      </trkpt>
      <trkpt lat="48.7192" lon="7.12138">
        <ele>270.2</ele>
        <time>2020-06-28T18:09:46Z</time>
      </trkpt>
      <trkpt lat="48.71919" lon="7.12128">
        <ele>270.1</ele>
        <time>2020-06-28T18:09:47Z</time>
      </trkpt>
      <trkpt lat="48.71918" lon="7.12118">
        <ele>270</ele>
        <time>2020-06-28T18:09:48Z</time>
      </trkpt>
      <trkpt lat="48.71917" lon="7.12109">
        <ele>269.9</ele>
        <time>2020-06-28T18:09:49Z</time>
      </trkpt>
      <trkpt lat="48.71917" lon="7.121">
        <ele>269.8</ele>
        <time>2020-06-28T18:09:50Z</time>
      </trkpt>
      <trkpt lat="48.71916" lon="7.1209">
        <ele>269.8</ele>
        <time>2020-06-28T18:09:51Z</time>
      </trkpt>
      <trkpt lat="48.71914" lon="7.12081">
        <ele>269.7</ele>
        <time>2020-06-28T18:09:52Z</time>
      </trkpt>
      <trkpt lat="48.71914" lon="7.12072">
        <ele>269.6</ele>
        <time>2020-06-28T18:09:53Z</time>
      </trkpt>
      <trkpt lat="48.71913" lon="7.12063">
        <ele>269.5</ele>
        <time>2020-06-28T18:09:54Z</time>
      </trkpt>
      <trkpt lat="48.71913" lon="7.12054">
        <ele>269.4</ele>
        <time>2020-06-28T18:09:55Z</time>
      </trkpt>
      <trkpt lat="48.71911" lon="7.12045">
        <ele>269.3</ele>
        <time>2020-06-28T18:09:56Z</time>
      </trkpt>
      <trkpt lat="48.71909" lon="7.12037">
        <ele>269.1</ele>
        <time>2020-06-28T18:09:57Z</time>
      </trkpt>
      <trkpt lat="48.71907" lon="7.12029">
        <ele>269</ele>
        <time>2020-06-28T18:09:58Z</time>
      </trkpt>
      <trkpt lat="48.71905" lon="7.12021">
        <ele>268.8</ele>
        <time>2020-06-28T18:09:59Z</time>
      </trkpt>
      <trkpt lat="48.71903" lon="7.12012">
        <ele>268.6</ele>
        <time>2020-06-28T18:10:00Z</time>
      </trkpt>
      <trkpt lat="48.71901" lon="7.12003">
        <ele>268.4</ele>
        <time>2020-06-28T18:10:01Z</time>
      </trkpt>
      <trkpt lat="48.71899" lon="7.11995">
        <ele>268.2</ele>
        <time>2020-06-28T18:10:02Z</time>
      </trkpt>
      <trkpt lat="48.71896" lon="7.11987">
        <ele>267.9</ele>
        <time>2020-06-28T18:10:03Z</time>
      </trkpt>
      <trkpt lat="48.71893" lon="7.11978">
        <ele>267.7</ele>
        <time>2020-06-28T18:10:04Z</time>
      </trkpt>
      <trkpt lat="48.71889" lon="7.11969">
        <ele>267.4</ele>
        <time>2020-06-28T18:10:05Z</time>
      </trkpt>
      <trkpt lat="48.71886" lon="7.1196">
        <ele>267.2</ele>
        <time>2020-06-28T18:10:06Z</time>
      </trkpt>
      <trkpt lat="48.71881" lon="7.11953">
        <ele>267</ele>
        <time>2020-06-28T18:10:07Z</time>
      </trkpt>
      <trkpt lat="48.71876" lon="7.11945">
        <ele>266.7</ele>
        <time>2020-06-28T18:10:08Z</time>
      </trkpt>
      <trkpt lat="48.7187" lon="7.1194">
        <ele>266.6</ele>
        <time>2020-06-28T18:10:09Z</time>
      </trkpt>
      <trkpt lat="48.71864" lon="7.11937">
        <ele>266.4</ele>
        <time>2020-06-28T18:10:10Z</time>
      </trkpt>
      <trkpt lat="48.71858" lon="7.11932">
        <ele>266.3</ele>
        <time>2020-06-28T18:10:11Z</time>
      </trkpt>
      <trkpt lat="48.71852" lon="7.11926">
        <ele>266.2</ele>
        <time>2020-06-28T18:10:12Z</time>
      </trkpt>
      <trkpt lat="48.71847" lon="7.1192">
        <ele>266.1</ele>
        <time>2020-06-28T18:10:13Z</time>
      </trkpt>
      <trkpt lat="48.71843" lon="7.11913">
        <ele>266</ele>
        <time>2020-06-28T18:10:14Z</time>
      </trkpt>
      <trkpt lat="48.7184" lon="7.11905">
        <ele>265.8</ele>
        <time>2020-06-28T18:10:15Z</time>
      </trkpt>
      <trkpt lat="48.71837" lon="7.11897">
        <ele>265.7</ele>
        <time>2020-06-28T18:10:16Z</time>
      </trkpt>
      <trkpt lat="48.71836" lon="7.11889">
        <ele>265.6</ele>
        <time>2020-06-28T18:10:17Z</time>
      </trkpt>
      <trkpt lat="48.71835" lon="7.11879">
        <ele>265.5</ele>
        <time>2020-06-28T18:10:18Z</time>
      </trkpt>
      <trkpt lat="48.71835" lon="7.1187">
        <ele>265.4</ele>
        <time>2020-06-28T18:10:19Z</time>
      </trkpt>
      <trkpt lat="48.71835" lon="7.1186">
        <ele>265.3</ele>
        <time>2020-06-28T18:10:20Z</time>
      </trkpt>
      <trkpt lat="48.71835" lon="7.11851">
        <ele>265.3</ele>
        <time>2020-06-28T18:10:21Z</time>
      </trkpt>
      <trkpt lat="48.71835" lon="7.11842">
        <ele>265.3</ele>
        <time>2020-06-28T18:10:22Z</time>
      </trkpt>
      <trkpt lat="48.71835" lon="7.11833">
        <ele>265.3</ele>
        <time>2020-06-28T18:10:23Z</time>
      </trkpt>
      <trkpt lat="48.71835" lon="7.11824">
        <ele>265.3</ele>
        <time>2020-06-28T18:10:24Z</time>
      </trkpt>
      <trkpt lat="48.71834" lon="7.11815">
        <ele>265.3</ele>
        <time>2020-06-28T18:10:25Z</time>
      </trkpt>
      <trkpt lat="48.71834" lon="7.11807">
        <ele>265.4</ele>
        <time>2020-06-28T18:10:26Z</time>
      </trkpt>
      <trkpt lat="48.71834" lon="7.11799">
        <ele>265.4</ele>
        <time>2020-06-28T18:10:27Z</time>
      </trkpt>
      <trkpt lat="48.71835" lon="7.11792">
        <ele>265.5</ele>
        <time>2020-06-28T18:10:28Z</time>
      </trkpt>
      <trkpt lat="48.71835" lon="7.11784">
        <ele>265.6</ele>
        <time>2020-06-28T18:10:29Z</time>
      </trkpt>
      <trkpt lat="48.71836" lon="7.11777">
        <ele>265.7</ele>
        <time>2020-06-28T18:10:30Z</time>
      </trkpt>
      <trkpt lat="48.71836" lon="7.1177">
        <ele>265.8</ele>
        <time>2020-06-28T18:10:31Z</time>
      </trkpt>
      <trkpt lat="48.71837" lon="7.11763">
        <ele>265.9</ele>
        <time>2020-06-28T18:10:32Z</time>
      </trkpt>
      <trkpt lat="48.71837" lon="7.11756">
        <ele>266.1</ele>
        <time>2020-06-28T18:10:33Z</time>
      </trkpt>
      <trkpt lat="48.71837" lon="7.11749">
        <ele>266.2</ele>
        <time>2020-06-28T18:10:34Z</time>
      </trkpt>
      <trkpt lat="48.71837" lon="7.11743">
        <ele>266.3</ele>
        <time>2020-06-28T18:10:35Z</time>
      </trkpt>
      <trkpt lat="48.71837" lon="7.11738">
        <ele>266.4</ele>
        <time>2020-06-28T18:10:36Z</time>
      </trkpt>
      <trkpt lat="48.71838" lon="7.11734">
        <ele>266.5</ele>
        <time>2020-06-28T18:10:37Z</time>
      </trkpt>
      <trkpt lat="48.71837" lon="7.11729">
        <ele>266.5</ele>
        <time>2020-06-28T18:10:38Z</time>
      </trkpt>
      <trkpt lat="48.71837" lon="7.11728">
        <ele>266.6</ele>
        <time>2020-06-28T18:10:39Z</time>
      </trkpt>
      <trkpt lat="48.71836" lon="7.11727">
        <ele>266.6</ele>
        <time>2020-06-28T18:10:40Z</time>
      </trkpt>
      <trkpt lat="48.71834" lon="7.11726">
        <ele>266.6</ele>
        <time>2020-06-28T18:10:41Z</time>
      </trkpt>
      <trkpt lat="48.7183" lon="7.11725">
        <ele>266.7</ele>
        <time>2020-06-28T18:10:42Z</time>
      </trkpt>
      <trkpt lat="48.71829" lon="7.11725">
        <ele>266.8</ele>
        <time>2020-06-28T18:10:43Z</time>
      </trkpt>
      <trkpt lat="48.71826" lon="7.11724">
        <ele>266.8</ele>
        <time>2020-06-28T18:10:44Z</time>
      </trkpt>
      <trkpt lat="48.71823" lon="7.11724">
        <ele>266.9</ele>
        <time>2020-06-28T18:10:45Z</time>
      </trkpt>
      <trkpt lat="48.71821" lon="7.11723">
        <ele>266.9</ele>
        <time>2020-06-28T18:10:46Z</time>
      </trkpt>
      <trkpt lat="48.71818" lon="7.11722">
        <ele>266.9</ele>
        <time>2020-06-28T18:10:47Z</time>
      </trkpt>
      <trkpt lat="48.71815" lon="7.11722">
        <ele>266.9</ele>
        <time>2020-06-28T18:10:48Z</time>
      </trkpt>
      <trkpt lat="48.71813" lon="7.11721">
        <ele>266.9</ele>
        <time>2020-06-28T18:10:49Z</time>
      </trkpt>
      <trkpt lat="48.7181" lon="7.11719">
        <ele>267</ele>
        <time>2020-06-28T18:10:50Z</time>
      </trkpt>
      <trkpt lat="48.71807" lon="7.11718">
        <ele>267</ele>
        <time>2020-06-28T18:10:51Z</time>
      </trkpt>
      <trkpt lat="48.71803" lon="7.11717">
        <ele>267</ele>
        <time>2020-06-28T18:10:52Z</time>
      </trkpt>
      <trkpt lat="48.718" lon="7.11714">
        <ele>267</ele>
        <time>2020-06-28T18:10:53Z</time>
      </trkpt>
      <trkpt lat="48.71797" lon="7.11712">
        <ele>267.1</ele>
        <time>2020-06-28T18:10:54Z</time>
      </trkpt>
      <trkpt lat="48.71793" lon="7.11711">
        <ele>267.1</ele>
        <time>2020-06-28T18:10:55Z</time>
      </trkpt>
      <trkpt lat="48.7179" lon="7.11708">
        <ele>267.1</ele>
        <time>2020-06-28T18:10:56Z</time>
      </trkpt>
      <trkpt lat="48.71786" lon="7.11704">
        <ele>267.2</ele>
        <time>2020-06-28T18:10:57Z</time>
      </trkpt>
      <trkpt lat="48.71783" lon="7.117">
        <ele>267.2</ele>
        <time>2020-06-28T18:10:58Z</time>
      </trkpt>
      <trkpt lat="48.71779" lon="7.11696">
        <ele>267.2</ele>
        <time>2020-06-28T18:10:59Z</time>
      </trkpt>
      <trkpt lat="48.71776" lon="7.11692">
        <ele>267.3</ele>
        <time>2020-06-28T18:11:00Z</time>
      </trkpt>
      <trkpt lat="48.71772" lon="7.11689">
        <ele>267.3</ele>
        <time>2020-06-28T18:11:01Z</time>
      </trkpt>
      <trkpt lat="48.71768" lon="7.11686">
        <ele>267.4</ele>
        <time>2020-06-28T18:11:02Z</time>
      </trkpt>
      <trkpt lat="48.71765" lon="7.11683">
        <ele>267.4</ele>
        <time>2020-06-28T18:11:03Z</time>
      </trkpt>
      <trkpt lat="48.71761" lon="7.1168">
        <ele>267.4</ele>
        <time>2020-06-28T18:11:04Z</time>
      </trkpt>
      <trkpt lat="48.71757" lon="7.11677">
        <ele>267.4</ele>
        <time>2020-06-28T18:11:05Z</time>
      </trkpt>
      <trkpt lat="48.71752" lon="7.11674">
        <ele>267.4</ele>
        <time>2020-06-28T18:11:06Z</time>
      </trkpt>
      <trkpt lat="48.71748" lon="7.11671">
        <ele>267.4</ele>
        <time>2020-06-28T18:11:07Z</time>
      </trkpt>
      <trkpt lat="48.71743" lon="7.11667">
        <ele>267.5</ele>
        <time>2020-06-28T18:11:08Z</time>
      </trkpt>
      <trkpt lat="48.71739" lon="7.11665">
        <ele>267.5</ele>
        <time>2020-06-28T18:11:09Z</time>
      </trkpt>
      <trkpt lat="48.71735" lon="7.11662">
        <ele>267.5</ele>
        <time>2020-06-28T18:11:10Z</time>
      </trkpt>
      <trkpt lat="48.71731" lon="7.11659">
        <ele>267.6</ele>
        <time>2020-06-28T18:11:11Z</time>
      </trkpt>
      <trkpt lat="48.71726" lon="7.11657">
        <ele>267.6</ele>
        <time>2020-06-28T18:11:12Z</time>
      </trkpt>
      <trkpt lat="48.71721" lon="7.11654">
        <ele>267.7</ele>
        <time>2020-06-28T18:11:13Z</time>
      </trkpt>
      <trkpt lat="48.71718" lon="7.1165">
        <ele>267.7</ele>
        <time>2020-06-28T18:11:14Z</time>
      </trkpt>
      <trkpt lat="48.71714" lon="7.11647">
        <ele>267.7</ele>
        <time>2020-06-28T18:11:15Z</time>
      </trkpt>
      <trkpt lat="48.71709" lon="7.11645">
        <ele>267.8</ele>
        <time>2020-06-28T18:11:16Z</time>
      </trkpt>
      <trkpt lat="48.71704" lon="7.11642">
        <ele>267.8</ele>
        <time>2020-06-28T18:11:17Z</time>
      </trkpt>
      <trkpt lat="48.71699" lon="7.11638">
        <ele>267.9</ele>
        <time>2020-06-28T18:11:18Z</time>
      </trkpt>
      <trkpt lat="48.71694" lon="7.11634">
        <ele>267.9</ele>
        <time>2020-06-28T18:11:19Z</time>
      </trkpt>
      <trkpt lat="48.71689" lon="7.11631">
        <ele>268</ele>
        <time>2020-06-28T18:11:20Z</time>
      </trkpt>
      <trkpt lat="48.71683" lon="7.11628">
        <ele>268</ele>
        <time>2020-06-28T18:11:21Z</time>
      </trkpt>
      <trkpt lat="48.71679" lon="7.11625">
        <ele>268</ele>
        <time>2020-06-28T18:11:22Z</time>
      </trkpt>
      <trkpt lat="48.71676" lon="7.11624">
        <ele>268.1</ele>
        <time>2020-06-28T18:11:23Z</time>
      </trkpt>
      <trkpt lat="48.71673" lon="7.11622">
        <ele>268.1</ele>
        <time>2020-06-28T18:11:24Z</time>
      </trkpt>
      <trkpt lat="48.7167" lon="7.11621">
        <ele>268.1</ele>
        <time>2020-06-28T18:11:25Z</time>
      </trkpt>
      <trkpt lat="48.71665" lon="7.11619">
        <ele>268.1</ele>
        <time>2020-06-28T18:11:26Z</time>
      </trkpt>
      <trkpt lat="48.71661" lon="7.11617">
        <ele>268.1</ele>
        <time>2020-06-28T18:11:27Z</time>
      </trkpt>
      <trkpt lat="48.71656" lon="7.11615">
        <ele>268.1</ele>
        <time>2020-06-28T18:11:28Z</time>
      </trkpt>
      <trkpt lat="48.71652" lon="7.11612">
        <ele>268.2</ele>
        <time>2020-06-28T18:11:29Z</time>
      </trkpt>
      <trkpt lat="48.71647" lon="7.11609">
        <ele>268.2</ele>
        <time>2020-06-28T18:11:30Z</time>
      </trkpt>
      <trkpt lat="48.71642" lon="7.11606">
        <ele>268.3</ele>
        <time>2020-06-28T18:11:31Z</time>
      </trkpt>
      <trkpt lat="48.71637" lon="7.11602">
        <ele>268.4</ele>
        <time>2020-06-28T18:11:32Z</time>
      </trkpt>
      <trkpt lat="48.71634" lon="7.116">
        <ele>268.4</ele>
        <time>2020-06-28T18:11:33Z</time>
      </trkpt>
      <trkpt lat="48.7163" lon="7.11597">
        <ele>268.5</ele>
        <time>2020-06-28T18:11:34Z</time>
      </trkpt>
      <trkpt lat="48.71625" lon="7.11594">
        <ele>268.5</ele>
        <time>2020-06-28T18:11:35Z</time>
      </trkpt>
      <trkpt lat="48.71621" lon="7.11591">
        <ele>268.6</ele>
        <time>2020-06-28T18:11:36Z</time>
      </trkpt>
      <trkpt lat="48.71616" lon="7.11587">
        <ele>268.6</ele>
        <time>2020-06-28T18:11:37Z</time>
      </trkpt>
      <trkpt lat="48.71611" lon="7.11583">
        <ele>268.7</ele>
        <time>2020-06-28T18:11:38Z</time>
      </trkpt>
      <trkpt lat="48.71607" lon="7.11578">
        <ele>268.8</ele>
        <time>2020-06-28T18:11:39Z</time>
      </trkpt>
      <trkpt lat="48.71603" lon="7.11573">
        <ele>268.9</ele>
        <time>2020-06-28T18:11:40Z</time>
      </trkpt>
      <trkpt lat="48.71599" lon="7.11566">
        <ele>269</ele>
        <time>2020-06-28T18:11:41Z</time>
      </trkpt>
      <trkpt lat="48.71596" lon="7.1156">
        <ele>269.1</ele>
        <time>2020-06-28T18:11:42Z</time>
      </trkpt>
      <trkpt lat="48.71593" lon="7.11555">
        <ele>269.2</ele>
        <time>2020-06-28T18:11:43Z</time>
      </trkpt>
      <trkpt lat="48.71591" lon="7.11549">
        <ele>269.3</ele>
        <time>2020-06-28T18:11:44Z</time>
      </trkpt>
      <trkpt lat="48.71587" lon="7.11543">
        <ele>269.4</ele>
        <time>2020-06-28T18:11:45Z</time>
      </trkpt>
      <trkpt lat="48.71584" lon="7.11538">
        <ele>269.5</ele>
        <time>2020-06-28T18:11:46Z</time>
      </trkpt>
      <trkpt lat="48.71581" lon="7.11532">
        <ele>269.6</ele>
        <time>2020-06-28T18:11:47Z</time>
      </trkpt>
      <trkpt lat="48.71579" lon="7.11525">
        <ele>269.7</ele>
        <time>2020-06-28T18:11:48Z</time>
      </trkpt>
      <trkpt lat="48.71577" lon="7.11519">
        <ele>269.8</ele>
        <time>2020-06-28T18:11:49Z</time>
      </trkpt>
      <trkpt lat="48.71575" lon="7.11512">
        <ele>270</ele>
        <time>2020-06-28T18:11:50Z</time>
      </trkpt>
      <trkpt lat="48.71573" lon="7.11504">
        <ele>270.2</ele>
        <time>2020-06-28T18:11:51Z</time>
      </trkpt>
      <trkpt lat="48.7157" lon="7.11497">
        <ele>270.4</ele>
        <time>2020-06-28T18:11:52Z</time>
      </trkpt>
      <trkpt lat="48.71567" lon="7.1149">
        <ele>270.5</ele>
        <time>2020-06-28T18:11:53Z</time>
      </trkpt>
      <trkpt lat="48.71564" lon="7.11485">
        <ele>270.7</ele>
        <time>2020-06-28T18:11:54Z</time>
      </trkpt>
      <trkpt lat="48.71562" lon="7.1148">
        <ele>270.9</ele>
        <time>2020-06-28T18:11:55Z</time>
      </trkpt>
      <trkpt lat="48.7156" lon="7.11474">
        <ele>271</ele>
        <time>2020-06-28T18:11:56Z</time>
      </trkpt>
      <trkpt lat="48.71558" lon="7.11468">
        <ele>271.1</ele>
        <time>2020-06-28T18:11:57Z</time>
      </trkpt>
      <trkpt lat="48.71556" lon="7.11462">
        <ele>271.3</ele>
        <time>2020-06-28T18:11:58Z</time>
      </trkpt>
      <trkpt lat="48.71553" lon="7.11455">
        <ele>271.4</ele>
        <time>2020-06-28T18:11:59Z</time>
      </trkpt>
      <trkpt lat="48.7155" lon="7.11448">
        <ele>271.6</ele>
        <time>2020-06-28T18:12:00Z</time>
      </trkpt>
      <trkpt lat="48.71548" lon="7.11442">
        <ele>271.7</ele>
        <time>2020-06-28T18:12:01Z</time>
      </trkpt>
      <trkpt lat="48.71546" lon="7.11438">
        <ele>271.7</ele>
        <time>2020-06-28T18:12:02Z</time>
      </trkpt>
      <trkpt lat="48.71545" lon="7.11433">
        <ele>271.8</ele>
        <time>2020-06-28T18:12:03Z</time>
      </trkpt>
      <trkpt lat="48.71543" lon="7.11427">
        <ele>271.9</ele>
        <time>2020-06-28T18:12:04Z</time>
      </trkpt>
      <trkpt lat="48.7154" lon="7.1142">
        <ele>271.9</ele>
        <time>2020-06-28T18:12:05Z</time>
      </trkpt>
      <trkpt lat="48.71539" lon="7.11417">
        <ele>272</ele>
        <time>2020-06-28T18:12:06Z</time>
      </trkpt>
      <trkpt lat="48.71537" lon="7.11411">
        <ele>272</ele>
        <time>2020-06-28T18:12:07Z</time>
      </trkpt>
      <trkpt lat="48.71536" lon="7.11406">
        <ele>272.1</ele>
        <time>2020-06-28T18:12:08Z</time>
      </trkpt>
      <trkpt lat="48.71533" lon="7.114">
        <ele>272.1</ele>
        <time>2020-06-28T18:12:09Z</time>
      </trkpt>
      <trkpt lat="48.71531" lon="7.11393">
        <ele>272.2</ele>
        <time>2020-06-28T18:12:10Z</time>
      </trkpt>
      <trkpt lat="48.71529" lon="7.11388">
        <ele>272.3</ele>
        <time>2020-06-28T18:12:11Z</time>
      </trkpt>
      <trkpt lat="48.71526" lon="7.11382">
        <ele>272.3</ele>
        <time>2020-06-28T18:12:12Z</time>
      </trkpt>
      <trkpt lat="48.71524" lon="7.11376">
        <ele>272.3</ele>
        <time>2020-06-28T18:12:13Z</time>
      </trkpt>
      <trkpt lat="48.71522" lon="7.11369">
        <ele>272.3</ele>
        <time>2020-06-28T18:12:14Z</time>
      </trkpt>
      <trkpt lat="48.7152" lon="7.11362">
        <ele>272.3</ele>
        <time>2020-06-28T18:12:15Z</time>
      </trkpt>
      <trkpt lat="48.71518" lon="7.11354">
        <ele>272.3</ele>
        <time>2020-06-28T18:12:16Z</time>
      </trkpt>
      <trkpt lat="48.71515" lon="7.11346">
        <ele>272.2</ele>
        <time>2020-06-28T18:12:17Z</time>
      </trkpt>
      <trkpt lat="48.71512" lon="7.11339">
        <ele>272.2</ele>
        <time>2020-06-28T18:12:18Z</time>
      </trkpt>
      <trkpt lat="48.71509" lon="7.11333">
        <ele>272.2</ele>
        <time>2020-06-28T18:12:19Z</time>
      </trkpt>
      <trkpt lat="48.71507" lon="7.11326">
        <ele>272.2</ele>
        <time>2020-06-28T18:12:20Z</time>
      </trkpt>
      <trkpt lat="48.71505" lon="7.11319">
        <ele>272.1</ele>
        <time>2020-06-28T18:12:21Z</time>
      </trkpt>
      <trkpt lat="48.71504" lon="7.11312">
        <ele>272.1</ele>
        <time>2020-06-28T18:12:22Z</time>
      </trkpt>
      <trkpt lat="48.71503" lon="7.11303">
        <ele>272.1</ele>
        <time>2020-06-28T18:12:23Z</time>
      </trkpt>
      <trkpt lat="48.71502" lon="7.11295">
        <ele>272.1</ele>
        <time>2020-06-28T18:12:24Z</time>
      </trkpt>
      <trkpt lat="48.71501" lon="7.11287">
        <ele>272.1</ele>
        <time>2020-06-28T18:12:25Z</time>
      </trkpt>
      <trkpt lat="48.715" lon="7.11279">
        <ele>272.1</ele>
        <time>2020-06-28T18:12:26Z</time>
      </trkpt>
      <trkpt lat="48.71501" lon="7.11274">
        <ele>272.1</ele>
        <time>2020-06-28T18:12:27Z</time>
      </trkpt>
      <trkpt lat="48.71502" lon="7.11267">
        <ele>272.1</ele>
        <time>2020-06-28T18:12:28Z</time>
      </trkpt>
      <trkpt lat="48.71502" lon="7.11259">
        <ele>272.1</ele>
        <time>2020-06-28T18:12:29Z</time>
      </trkpt>
      <trkpt lat="48.71503" lon="7.11249">
        <ele>272.1</ele>
        <time>2020-06-28T18:12:30Z</time>
      </trkpt>
      <trkpt lat="48.71503" lon="7.11241">
        <ele>272.1</ele>
        <time>2020-06-28T18:12:31Z</time>
      </trkpt>
      <trkpt lat="48.71503" lon="7.11233">
        <ele>272.1</ele>
        <time>2020-06-28T18:12:32Z</time>
      </trkpt>
      <trkpt lat="48.71503" lon="7.11223">
        <ele>272.1</ele>
        <time>2020-06-28T18:12:33Z</time>
      </trkpt>
      <trkpt lat="48.71502" lon="7.11216">
        <ele>272.1</ele>
        <time>2020-06-28T18:12:34Z</time>
      </trkpt>
      <trkpt lat="48.71503" lon="7.11209">
        <ele>272.1</ele>
        <time>2020-06-28T18:12:35Z</time>
      </trkpt>
      <trkpt lat="48.71503" lon="7.11202">
        <ele>272.1</ele>
        <time>2020-06-28T18:12:36Z</time>
      </trkpt>
      <trkpt lat="48.71504" lon="7.11194">
        <ele>272.1</ele>
        <time>2020-06-28T18:12:37Z</time>
      </trkpt>
      <trkpt lat="48.71505" lon="7.11186">
        <ele>272.1</ele>
        <time>2020-06-28T18:12:38Z</time>
      </trkpt>
      <trkpt lat="48.71508" lon="7.1118">
        <ele>272.1</ele>
        <time>2020-06-28T18:12:39Z</time>
      </trkpt>
      <trkpt lat="48.7151" lon="7.11174">
        <ele>272.1</ele>
        <time>2020-06-28T18:12:40Z</time>
      </trkpt>
      <trkpt lat="48.71512" lon="7.11168">
        <ele>272.1</ele>
        <time>2020-06-28T18:12:41Z</time>
      </trkpt>
      <trkpt lat="48.71515" lon="7.1116">
        <ele>272.1</ele>
        <time>2020-06-28T18:12:42Z</time>
      </trkpt>
      <trkpt lat="48.71517" lon="7.11152">
        <ele>272.1</ele>
        <time>2020-06-28T18:12:43Z</time>
      </trkpt>
      <trkpt lat="48.71519" lon="7.11146">
        <ele>272.1</ele>
        <time>2020-06-28T18:12:44Z</time>
      </trkpt>
      <trkpt lat="48.71522" lon="7.1114">
        <ele>272.1</ele>
        <time>2020-06-28T18:12:45Z</time>
      </trkpt>
      <trkpt lat="48.71525" lon="7.11135">
        <ele>272.1</ele>
        <time>2020-06-28T18:12:46Z</time>
      </trkpt>
      <trkpt lat="48.71528" lon="7.11132">
        <ele>272.1</ele>
        <time>2020-06-28T18:12:47Z</time>
      </trkpt>
      <trkpt lat="48.71532" lon="7.11128">
        <ele>272</ele>
        <time>2020-06-28T18:12:48Z</time>
      </trkpt>
      <trkpt lat="48.71534" lon="7.11122">
        <ele>272</ele>
        <time>2020-06-28T18:12:49Z</time>
      </trkpt>
      <trkpt lat="48.71536" lon="7.11117">
        <ele>272</ele>
        <time>2020-06-28T18:12:50Z</time>
      </trkpt>
      <trkpt lat="48.71539" lon="7.1111">
        <ele>271.9</ele>
        <time>2020-06-28T18:12:51Z</time>
      </trkpt>
      <trkpt lat="48.71541" lon="7.11105">
        <ele>271.9</ele>
        <time>2020-06-28T18:12:52Z</time>
      </trkpt>
      <trkpt lat="48.71542" lon="7.11098">
        <ele>271.9</ele>
        <time>2020-06-28T18:12:53Z</time>
      </trkpt>
      <trkpt lat="48.71544" lon="7.11092">
        <ele>271.8</ele>
        <time>2020-06-28T18:12:54Z</time>
      </trkpt>
      <trkpt lat="48.71545" lon="7.11085">
        <ele>271.8</ele>
        <time>2020-06-28T18:12:55Z</time>
      </trkpt>
      <trkpt lat="48.71545" lon="7.11079">
        <ele>271.7</ele>
        <time>2020-06-28T18:12:56Z</time>
      </trkpt>
      <trkpt lat="48.71546" lon="7.11072">
        <ele>271.7</ele>
        <time>2020-06-28T18:12:57Z</time>
      </trkpt>
      <trkpt lat="48.71546" lon="7.11065">
        <ele>271.6</ele>
        <time>2020-06-28T18:12:58Z</time>
      </trkpt>
      <trkpt lat="48.71546" lon="7.11057">
        <ele>271.6</ele>
        <time>2020-06-28T18:12:59Z</time>
      </trkpt>
      <trkpt lat="48.71546" lon="7.11051">
        <ele>271.5</ele>
        <time>2020-06-28T18:13:00Z</time>
      </trkpt>
      <trkpt lat="48.71546" lon="7.11044">
        <ele>271.4</ele>
        <time>2020-06-28T18:13:01Z</time>
      </trkpt>
      <trkpt lat="48.71546" lon="7.11039">
        <ele>271.4</ele>
        <time>2020-06-28T18:13:02Z</time>
      </trkpt>
      <trkpt lat="48.71547" lon="7.11031">
        <ele>271.3</ele>
        <time>2020-06-28T18:13:03Z</time>
      </trkpt>
      <trkpt lat="48.71547" lon="7.11023">
        <ele>271.2</ele>
        <time>2020-06-28T18:13:04Z</time>
      </trkpt>
      <trkpt lat="48.71547" lon="7.11016">
        <ele>271.1</ele>
        <time>2020-06-28T18:13:05Z</time>
      </trkpt>
      <trkpt lat="48.71548" lon="7.11009">
        <ele>271</ele>
        <time>2020-06-28T18:13:06Z</time>
      </trkpt>
      <trkpt lat="48.71548" lon="7.11002">
        <ele>270.9</ele>
        <time>2020-06-28T18:13:07Z</time>
      </trkpt>
      <trkpt lat="48.71548" lon="7.10995">
        <ele>270.8</ele>
        <time>2020-06-28T18:13:08Z</time>
      </trkpt>
      <trkpt lat="48.71548" lon="7.1099">
        <ele>270.7</ele>
        <time>2020-06-28T18:13:09Z</time>
      </trkpt>
      <trkpt lat="48.71548" lon="7.10984">
        <ele>270.6</ele>
        <time>2020-06-28T18:13:10Z</time>
      </trkpt>
      <trkpt lat="48.71549" lon="7.10978">
        <ele>270.6</ele>
        <time>2020-06-28T18:13:11Z</time>
      </trkpt>
      <trkpt lat="48.7155" lon="7.10973">
        <ele>270.5</ele>
        <time>2020-06-28T18:13:12Z</time>
      </trkpt>
      <trkpt lat="48.7155" lon="7.10967">
        <ele>270.4</ele>
        <time>2020-06-28T18:13:13Z</time>
      </trkpt>
      <trkpt lat="48.71551" lon="7.1096">
        <ele>270.2</ele>
        <time>2020-06-28T18:13:14Z</time>
      </trkpt>
      <trkpt lat="48.71552" lon="7.10955">
        <ele>270.1</ele>
        <time>2020-06-28T18:13:15Z</time>
      </trkpt>
      <trkpt lat="48.71553" lon="7.10949">
        <ele>270</ele>
        <time>2020-06-28T18:13:16Z</time>
      </trkpt>
      <trkpt lat="48.71554" lon="7.10944">
        <ele>269.9</ele>
        <time>2020-06-28T18:13:17Z</time>
      </trkpt>
      <trkpt lat="48.71556" lon="7.10937">
        <ele>269.8</ele>
        <time>2020-06-28T18:13:18Z</time>
      </trkpt>
      <trkpt lat="48.71557" lon="7.1093">
        <ele>269.7</ele>
        <time>2020-06-28T18:13:19Z</time>
      </trkpt>
      <trkpt lat="48.71558" lon="7.10922">
        <ele>269.5</ele>
        <time>2020-06-28T18:13:20Z</time>
      </trkpt>
      <trkpt lat="48.71558" lon="7.10915">
        <ele>269.4</ele>
        <time>2020-06-28T18:13:21Z</time>
      </trkpt>
      <trkpt lat="48.71558" lon="7.10908">
        <ele>269.2</ele>
        <time>2020-06-28T18:13:22Z</time>
      </trkpt>
      <trkpt lat="48.71558" lon="7.10901">
        <ele>269</ele>
        <time>2020-06-28T18:13:23Z</time>
      </trkpt>
      <trkpt lat="48.71558" lon="7.10893">
        <ele>268.8</ele>
        <time>2020-06-28T18:13:24Z</time>
      </trkpt>
      <trkpt lat="48.71558" lon="7.10886">
        <ele>268.6</ele>
        <time>2020-06-28T18:13:25Z</time>
      </trkpt>
      <trkpt lat="48.71557" lon="7.1088">
        <ele>268.5</ele>
        <time>2020-06-28T18:13:26Z</time>
      </trkpt>
      <trkpt lat="48.71556" lon="7.10874">
        <ele>268.3</ele>
        <time>2020-06-28T18:13:27Z</time>
      </trkpt>
      <trkpt lat="48.71555" lon="7.10869">
        <ele>268.2</ele>
        <time>2020-06-28T18:13:28Z</time>
      </trkpt>
      <trkpt lat="48.71555" lon="7.10867">
        <ele>268.2</ele>
        <time>2020-06-28T18:13:29Z</time>
      </trkpt>
      <trkpt lat="48.71554" lon="7.10862">
        <ele>268.1</ele>
        <time>2020-06-28T18:13:30Z</time>
      </trkpt>
      <trkpt lat="48.71555" lon="7.10861">
        <ele>268</ele>
        <time>2020-06-28T18:13:31Z</time>
      </trkpt>
      <trkpt lat="48.71553" lon="7.10857">
        <ele>267.9</ele>
        <time>2020-06-28T18:13:32Z</time>
      </trkpt>
      <trkpt lat="48.71553" lon="7.10855">
        <ele>267.9</ele>
        <time>2020-06-28T18:13:33Z</time>
      </trkpt>
      <trkpt lat="48.71552" lon="7.10851">
        <ele>267.7</ele>
        <time>2020-06-28T18:13:34Z</time>
      </trkpt>
      <trkpt lat="48.71552" lon="7.1085">
        <ele>267.7</ele>
        <time>2020-06-28T18:13:35Z</time>
      </trkpt>
      <trkpt lat="48.71552" lon="7.10845">
        <ele>267.6</ele>
        <time>2020-06-28T18:13:36Z</time>
      </trkpt>
      <trkpt lat="48.71551" lon="7.10839">
        <ele>267.4</ele>
        <time>2020-06-28T18:13:37Z</time>
      </trkpt>
      <trkpt lat="48.71551" lon="7.10837">
        <ele>267.4</ele>
        <time>2020-06-28T18:13:38Z</time>
      </trkpt>
      <trkpt lat="48.71551" lon="7.10832">
        <ele>267.2</ele>
        <time>2020-06-28T18:13:39Z</time>
      </trkpt>
      <trkpt lat="48.71549" lon="7.10826">
        <ele>267.1</ele>
        <time>2020-06-28T18:13:40Z</time>
      </trkpt>
      <trkpt lat="48.71548" lon="7.10821">
        <ele>266.9</ele>
        <time>2020-06-28T18:13:41Z</time>
      </trkpt>
      <trkpt lat="48.71546" lon="7.10815">
        <ele>266.7</ele>
        <time>2020-06-28T18:13:42Z</time>
      </trkpt>
      <trkpt lat="48.71545" lon="7.1081">
        <ele>266.6</ele>
        <time>2020-06-28T18:13:43Z</time>
      </trkpt>
      <trkpt lat="48.71543" lon="7.10806">
        <ele>266.5</ele>
        <time>2020-06-28T18:13:44Z</time>
      </trkpt>
      <trkpt lat="48.7154" lon="7.10801">
        <ele>266.3</ele>
        <time>2020-06-28T18:13:45Z</time>
      </trkpt>
      <trkpt lat="48.71538" lon="7.10797">
        <ele>266.2</ele>
        <time>2020-06-28T18:13:46Z</time>
      </trkpt>
      <trkpt lat="48.71538" lon="7.10792">
        <ele>266.1</ele>
        <time>2020-06-28T18:13:47Z</time>
      </trkpt>
      <trkpt lat="48.71538" lon="7.1079">
        <ele>266</ele>
        <time>2020-06-28T18:13:48Z</time>
      </trkpt>
      <trkpt lat="48.71536" lon="7.10786">
        <ele>265.9</ele>
        <time>2020-06-28T18:13:49Z</time>
      </trkpt>
      <trkpt lat="48.71536" lon="7.10781">
        <ele>265.8</ele>
        <time>2020-06-28T18:13:50Z</time>
      </trkpt>
      <trkpt lat="48.71536" lon="7.1078">
        <ele>265.8</ele>
        <time>2020-06-28T18:13:51Z</time>
      </trkpt>
      <trkpt lat="48.71536" lon="7.10778">
        <ele>265.8</ele>
        <time>2020-06-28T18:13:52Z</time>
      </trkpt>
      <trkpt lat="48.71535" lon="7.10777">
        <ele>265.7</ele>
        <time>2020-06-28T18:13:53Z</time>
      </trkpt>
      <trkpt lat="48.71535" lon="7.10776">
        <ele>265.7</ele>
        <time>2020-06-28T18:13:54Z</time>
      </trkpt>
      <trkpt lat="48.71535" lon="7.10775">
        <ele>265.7</ele>
        <time>2020-06-28T18:13:55Z</time>
      </trkpt>
      <trkpt lat="48.71535" lon="7.10774">
        <ele>265.7</ele>
        <time>2020-06-28T18:13:56Z</time>
      </trkpt>
      <trkpt lat="48.71535" lon="7.10773">
        <ele>265.7</ele>
        <time>2020-06-28T18:13:57Z</time>
      </trkpt>
      <trkpt lat="48.71535" lon="7.10772">
        <ele>265.7</ele>
        <time>2020-06-28T18:13:58Z</time>
      </trkpt>
      <trkpt lat="48.71535" lon="7.10771">
        <ele>265.6</ele>
        <time>2020-06-28T18:13:59Z</time>
      </trkpt>
      <trkpt lat="48.71535" lon="7.1077">
        <ele>265.6</ele>
        <time>2020-06-28T18:14:00Z</time>
      </trkpt>
      <trkpt lat="48.71534" lon="7.10769">
        <ele>265.6</ele>
        <time>2020-06-28T18:14:01Z</time>
      </trkpt>
      <trkpt lat="48.71534" lon="7.10768">
        <ele>265.6</ele>
        <time>2020-06-28T18:14:02Z</time>
      </trkpt>
      <trkpt lat="48.71534" lon="7.10767">
        <ele>265.6</ele>
        <time>2020-06-28T18:14:38Z</time>
      </trkpt>
      <trkpt lat="48.71534" lon="7.10766">
        <ele>265.5</ele>
        <time>2020-06-28T18:14:39Z</time>
      </trkpt>
      <trkpt lat="48.71532" lon="7.10761">
        <ele>265.4</ele>
        <time>2020-06-28T18:14:40Z</time>
      </trkpt>
      <trkpt lat="48.7153" lon="7.10757">
        <ele>265.3</ele>
        <time>2020-06-28T18:14:41Z</time>
      </trkpt>
      <trkpt lat="48.71528" lon="7.10753">
        <ele>265.2</ele>
        <time>2020-06-28T18:14:42Z</time>
      </trkpt>
      <trkpt lat="48.71527" lon="7.10747">
        <ele>265.1</ele>
        <time>2020-06-28T18:14:43Z</time>
      </trkpt>
      <trkpt lat="48.71526" lon="7.1074">
        <ele>265</ele>
        <time>2020-06-28T18:14:44Z</time>
      </trkpt>
      <trkpt lat="48.71525" lon="7.10734">
        <ele>264.9</ele>
        <time>2020-06-28T18:14:45Z</time>
      </trkpt>
      <trkpt lat="48.71524" lon="7.10726">
        <ele>264.8</ele>
        <time>2020-06-28T18:14:46Z</time>
      </trkpt>
      <trkpt lat="48.71522" lon="7.10721">
        <ele>264.8</ele>
        <time>2020-06-28T18:14:47Z</time>
      </trkpt>
      <trkpt lat="48.71521" lon="7.10715">
        <ele>264.7</ele>
        <time>2020-06-28T18:14:48Z</time>
      </trkpt>
      <trkpt lat="48.71519" lon="7.10708">
        <ele>264.6</ele>
        <time>2020-06-28T18:14:49Z</time>
      </trkpt>
      <trkpt lat="48.71518" lon="7.10703">
        <ele>264.6</ele>
        <time>2020-06-28T18:14:50Z</time>
      </trkpt>
      <trkpt lat="48.71517" lon="7.10696">
        <ele>264.5</ele>
        <time>2020-06-28T18:14:51Z</time>
      </trkpt>
      <trkpt lat="48.71517" lon="7.10689">
        <ele>264.5</ele>
        <time>2020-06-28T18:14:52Z</time>
      </trkpt>
      <trkpt lat="48.71515" lon="7.10684">
        <ele>264.5</ele>
        <time>2020-06-28T18:14:53Z</time>
      </trkpt>
      <trkpt lat="48.71513" lon="7.10679">
        <ele>264.5</ele>
        <time>2020-06-28T18:14:54Z</time>
      </trkpt>
      <trkpt lat="48.7151" lon="7.10674">
        <ele>264.5</ele>
        <time>2020-06-28T18:14:55Z</time>
      </trkpt>
      <trkpt lat="48.71508" lon="7.10668">
        <ele>264.5</ele>
        <time>2020-06-28T18:14:56Z</time>
      </trkpt>
      <trkpt lat="48.71505" lon="7.10663">
        <ele>264.5</ele>
        <time>2020-06-28T18:14:57Z</time>
      </trkpt>
      <trkpt lat="48.71503" lon="7.1066">
        <ele>264.5</ele>
        <time>2020-06-28T18:14:58Z</time>
      </trkpt>
      <trkpt lat="48.715" lon="7.10659">
        <ele>264.5</ele>
        <time>2020-06-28T18:14:59Z</time>
      </trkpt>
      <trkpt lat="48.71494" lon="7.10661">
        <ele>264.5</ele>
        <time>2020-06-28T18:15:00Z</time>
      </trkpt>
      <trkpt lat="48.7149" lon="7.10661">
        <ele>264.5</ele>
        <time>2020-06-28T18:15:01Z</time>
      </trkpt>
      <trkpt lat="48.71486" lon="7.10661">
        <ele>264.5</ele>
        <time>2020-06-28T18:15:02Z</time>
      </trkpt>
      <trkpt lat="48.71481" lon="7.10662">
        <ele>264.5</ele>
        <time>2020-06-28T18:15:03Z</time>
      </trkpt>
      <trkpt lat="48.71478" lon="7.10662">
        <ele>264.5</ele>
        <time>2020-06-28T18:15:04Z</time>
      </trkpt>
      <trkpt lat="48.71472" lon="7.10663">
        <ele>264.5</ele>
        <time>2020-06-28T18:15:05Z</time>
      </trkpt>
      <trkpt lat="48.71468" lon="7.10665">
        <ele>264.6</ele>
        <time>2020-06-28T18:15:06Z</time>
      </trkpt>
      <trkpt lat="48.71465" lon="7.10667">
        <ele>264.6</ele>
        <time>2020-06-28T18:15:07Z</time>
      </trkpt>
      <trkpt lat="48.71462" lon="7.10669">
        <ele>264.6</ele>
        <time>2020-06-28T18:15:08Z</time>
      </trkpt>
      <trkpt lat="48.71458" lon="7.10671">
        <ele>264.6</ele>
        <time>2020-06-28T18:15:09Z</time>
      </trkpt>
      <trkpt lat="48.71455" lon="7.10673">
        <ele>264.6</ele>
        <time>2020-06-28T18:15:10Z</time>
      </trkpt>
      <trkpt lat="48.7145" lon="7.10675">
        <ele>264.7</ele>
        <time>2020-06-28T18:15:11Z</time>
      </trkpt>
      <trkpt lat="48.71446" lon="7.10678">
        <ele>264.7</ele>
        <time>2020-06-28T18:15:12Z</time>
      </trkpt>
      <trkpt lat="48.71441" lon="7.1068">
        <ele>264.6</ele>
        <time>2020-06-28T18:15:13Z</time>
      </trkpt>
      <trkpt lat="48.71437" lon="7.10682">
        <ele>264.6</ele>
        <time>2020-06-28T18:15:14Z</time>
      </trkpt>
      <trkpt lat="48.71433" lon="7.10685">
        <ele>264.6</ele>
        <time>2020-06-28T18:15:15Z</time>
      </trkpt>
      <trkpt lat="48.71429" lon="7.10687">
        <ele>264.5</ele>
        <time>2020-06-28T18:15:16Z</time>
      </trkpt>
      <trkpt lat="48.71425" lon="7.10689">
        <ele>264.5</ele>
        <time>2020-06-28T18:15:17Z</time>
      </trkpt>
      <trkpt lat="48.71422" lon="7.10692">
        <ele>264.5</ele>
        <time>2020-06-28T18:15:18Z</time>
      </trkpt>
      <trkpt lat="48.71417" lon="7.10694">
        <ele>264.5</ele>
        <time>2020-06-28T18:15:19Z</time>
      </trkpt>
      <trkpt lat="48.71413" lon="7.10697">
        <ele>264.5</ele>
        <time>2020-06-28T18:15:20Z</time>
      </trkpt>
      <trkpt lat="48.71409" lon="7.107">
        <ele>264.4</ele>
        <time>2020-06-28T18:15:21Z</time>
      </trkpt>
      <trkpt lat="48.71404" lon="7.10702">
        <ele>264.4</ele>
        <time>2020-06-28T18:15:22Z</time>
      </trkpt>
      <trkpt lat="48.714" lon="7.10705">
        <ele>264.4</ele>
        <time>2020-06-28T18:15:23Z</time>
      </trkpt>
      <trkpt lat="48.71395" lon="7.10708">
        <ele>264.4</ele>
        <time>2020-06-28T18:15:24Z</time>
      </trkpt>
      <trkpt lat="48.7139" lon="7.10711">
        <ele>264.4</ele>
        <time>2020-06-28T18:15:25Z</time>
      </trkpt>
      <trkpt lat="48.71387" lon="7.10715">
        <ele>264.4</ele>
        <time>2020-06-28T18:15:26Z</time>
      </trkpt>
      <trkpt lat="48.71382" lon="7.10718">
        <ele>264.4</ele>
        <time>2020-06-28T18:15:27Z</time>
      </trkpt>
      <trkpt lat="48.71377" lon="7.1072">
        <ele>264.5</ele>
        <time>2020-06-28T18:15:28Z</time>
      </trkpt>
      <trkpt lat="48.71372" lon="7.10723">
        <ele>264.4</ele>
        <time>2020-06-28T18:15:29Z</time>
      </trkpt>
      <trkpt lat="48.71368" lon="7.10727">
        <ele>264.3</ele>
        <time>2020-06-28T18:15:30Z</time>
      </trkpt>
      <trkpt lat="48.71363" lon="7.1073">
        <ele>264.3</ele>
        <time>2020-06-28T18:15:31Z</time>
      </trkpt>
      <trkpt lat="48.71358" lon="7.10732">
        <ele>264.2</ele>
        <time>2020-06-28T18:15:32Z</time>
      </trkpt>
      <trkpt lat="48.71354" lon="7.10735">
        <ele>264.2</ele>
        <time>2020-06-28T18:15:33Z</time>
      </trkpt>
      <trkpt lat="48.71349" lon="7.10739">
        <ele>264.2</ele>
        <time>2020-06-28T18:15:34Z</time>
      </trkpt>
      <trkpt lat="48.71344" lon="7.10741">
        <ele>264.2</ele>
        <time>2020-06-28T18:15:35Z</time>
      </trkpt>
      <trkpt lat="48.7134" lon="7.10745">
        <ele>264.2</ele>
        <time>2020-06-28T18:15:36Z</time>
      </trkpt>
      <trkpt lat="48.71336" lon="7.10749">
        <ele>264.2</ele>
        <time>2020-06-28T18:15:37Z</time>
      </trkpt>
      <trkpt lat="48.71331" lon="7.10753">
        <ele>264.3</ele>
        <time>2020-06-28T18:15:38Z</time>
      </trkpt>
      <trkpt lat="48.71327" lon="7.10756">
        <ele>264.3</ele>
        <time>2020-06-28T18:15:39Z</time>
      </trkpt>
      <trkpt lat="48.71322" lon="7.10759">
        <ele>264.3</ele>
        <time>2020-06-28T18:15:40Z</time>
      </trkpt>
      <trkpt lat="48.71317" lon="7.10763">
        <ele>264.4</ele>
        <time>2020-06-28T18:15:41Z</time>
      </trkpt>
      <trkpt lat="48.71312" lon="7.10765">
        <ele>264.4</ele>
        <time>2020-06-28T18:15:42Z</time>
      </trkpt>
      <trkpt lat="48.71307" lon="7.10768">
        <ele>264.5</ele>
        <time>2020-06-28T18:15:43Z</time>
      </trkpt>
      <trkpt lat="48.71302" lon="7.10768">
        <ele>264.5</ele>
        <time>2020-06-28T18:15:44Z</time>
      </trkpt>
      <trkpt lat="48.71297" lon="7.1077">
        <ele>264.5</ele>
        <time>2020-06-28T18:15:45Z</time>
      </trkpt>
      <trkpt lat="48.71292" lon="7.10771">
        <ele>264.6</ele>
        <time>2020-06-28T18:15:46Z</time>
      </trkpt>
      <trkpt lat="48.71287" lon="7.10772">
        <ele>264.6</ele>
        <time>2020-06-28T18:15:47Z</time>
      </trkpt>
      <trkpt lat="48.71283" lon="7.10772">
        <ele>264.7</ele>
        <time>2020-06-28T18:15:48Z</time>
      </trkpt>
      <trkpt lat="48.7128" lon="7.10771">
        <ele>264.7</ele>
        <time>2020-06-28T18:15:49Z</time>
      </trkpt>
      <trkpt lat="48.71276" lon="7.10771">
        <ele>264.7</ele>
        <time>2020-06-28T18:15:50Z</time>
      </trkpt>
      <trkpt lat="48.71272" lon="7.10769">
        <ele>264.7</ele>
        <time>2020-06-28T18:15:51Z</time>
      </trkpt>
      <trkpt lat="48.71268" lon="7.10768">
        <ele>264.7</ele>
        <time>2020-06-28T18:15:52Z</time>
      </trkpt>
      <trkpt lat="48.71265" lon="7.10766">
        <ele>264.7</ele>
        <time>2020-06-28T18:15:53Z</time>
      </trkpt>
      <trkpt lat="48.71261" lon="7.10763">
        <ele>264.7</ele>
        <time>2020-06-28T18:15:54Z</time>
      </trkpt>
      <trkpt lat="48.71257" lon="7.10761">
        <ele>264.7</ele>
        <time>2020-06-28T18:15:55Z</time>
      </trkpt>
      <trkpt lat="48.71254" lon="7.10759">
        <ele>264.6</ele>
        <time>2020-06-28T18:15:56Z</time>
      </trkpt>
      <trkpt lat="48.7125" lon="7.10758">
        <ele>264.6</ele>
        <time>2020-06-28T18:15:57Z</time>
      </trkpt>
      <trkpt lat="48.71246" lon="7.10758">
        <ele>264.6</ele>
        <time>2020-06-28T18:15:58Z</time>
      </trkpt>
      <trkpt lat="48.71243" lon="7.10756">
        <ele>264.6</ele>
        <time>2020-06-28T18:15:59Z</time>
      </trkpt>
      <trkpt lat="48.7124" lon="7.10754">
        <ele>264.6</ele>
        <time>2020-06-28T18:16:00Z</time>
      </trkpt>
      <trkpt lat="48.71236" lon="7.10752">
        <ele>264.6</ele>
        <time>2020-06-28T18:16:01Z</time>
      </trkpt>
      <trkpt lat="48.71232" lon="7.10753">
        <ele>264.6</ele>
        <time>2020-06-28T18:16:02Z</time>
      </trkpt>
      <trkpt lat="48.71228" lon="7.10753">
        <ele>264.5</ele>
        <time>2020-06-28T18:16:03Z</time>
      </trkpt>
      <trkpt lat="48.71224" lon="7.10754">
        <ele>264.5</ele>
        <time>2020-06-28T18:16:04Z</time>
      </trkpt>
      <trkpt lat="48.7122" lon="7.10756">
        <ele>264.5</ele>
        <time>2020-06-28T18:16:05Z</time>
      </trkpt>
      <trkpt lat="48.71217" lon="7.10758">
        <ele>264.5</ele>
        <time>2020-06-28T18:16:06Z</time>
      </trkpt>
      <trkpt lat="48.71213" lon="7.1076">
        <ele>264.5</ele>
        <time>2020-06-28T18:16:07Z</time>
      </trkpt>
      <trkpt lat="48.71212" lon="7.1076">
        <ele>264.5</ele>
        <time>2020-06-28T18:16:08Z</time>
      </trkpt>
      <trkpt lat="48.71208" lon="7.1076">
        <ele>264.5</ele>
        <time>2020-06-28T18:16:09Z</time>
      </trkpt>
      <trkpt lat="48.71206" lon="7.10756">
        <ele>264.3</ele>
        <time>2020-06-28T18:16:10Z</time>
      </trkpt>
      <trkpt lat="48.71203" lon="7.10752">
        <ele>264.3</ele>
        <time>2020-06-28T18:16:11Z</time>
      </trkpt>
      <trkpt lat="48.712" lon="7.10747">
        <ele>264.3</ele>
        <time>2020-06-28T18:16:12Z</time>
      </trkpt>
      <trkpt lat="48.71198" lon="7.10741">
        <ele>263.9</ele>
        <time>2020-06-28T18:16:13Z</time>
      </trkpt>
      <trkpt lat="48.71197" lon="7.10733">
        <ele>263.6</ele>
        <time>2020-06-28T18:16:14Z</time>
      </trkpt>
      <trkpt lat="48.71195" lon="7.10724">
        <ele>263.3</ele>
        <time>2020-06-28T18:16:15Z</time>
      </trkpt>
      <trkpt lat="48.71193" lon="7.10717">
        <ele>263.2</ele>
        <time>2020-06-28T18:16:16Z</time>
      </trkpt>
      <trkpt lat="48.7119" lon="7.1071">
        <ele>263.1</ele>
        <time>2020-06-28T18:16:17Z</time>
      </trkpt>
      <trkpt lat="48.71187" lon="7.10704">
        <ele>263.1</ele>
        <time>2020-06-28T18:16:18Z</time>
      </trkpt>
      <trkpt lat="48.71185" lon="7.10698">
        <ele>263</ele>
        <time>2020-06-28T18:16:19Z</time>
      </trkpt>
      <trkpt lat="48.71182" lon="7.10693">
        <ele>262.9</ele>
        <time>2020-06-28T18:16:20Z</time>
      </trkpt>
      <trkpt lat="48.71179" lon="7.10687">
        <ele>262.9</ele>
        <time>2020-06-28T18:16:21Z</time>
      </trkpt>
      <trkpt lat="48.71175" lon="7.10683">
        <ele>262.8</ele>
        <time>2020-06-28T18:16:22Z</time>
      </trkpt>
      <trkpt lat="48.71171" lon="7.10676">
        <ele>262.8</ele>
        <time>2020-06-28T18:16:23Z</time>
      </trkpt>
      <trkpt lat="48.71167" lon="7.10671">
        <ele>262.7</ele>
        <time>2020-06-28T18:16:24Z</time>
      </trkpt>
      <trkpt lat="48.71163" lon="7.10666">
        <ele>262.7</ele>
        <time>2020-06-28T18:16:25Z</time>
      </trkpt>
      <trkpt lat="48.71159" lon="7.10661">
        <ele>262.9</ele>
        <time>2020-06-28T18:16:26Z</time>
      </trkpt>
      <trkpt lat="48.71154" lon="7.10656">
        <ele>263.1</ele>
        <time>2020-06-28T18:16:27Z</time>
      </trkpt>
      <trkpt lat="48.7115" lon="7.10651">
        <ele>263.2</ele>
        <time>2020-06-28T18:16:28Z</time>
      </trkpt>
      <trkpt lat="48.71146" lon="7.10646">
        <ele>263.2</ele>
        <time>2020-06-28T18:16:29Z</time>
      </trkpt>
      <trkpt lat="48.71142" lon="7.10641">
        <ele>263.1</ele>
        <time>2020-06-28T18:16:30Z</time>
      </trkpt>
      <trkpt lat="48.7114" lon="7.10632">
        <ele>263</ele>
        <time>2020-06-28T18:16:31Z</time>
      </trkpt>
      <trkpt lat="48.71136" lon="7.10626">
        <ele>262.9</ele>
        <time>2020-06-28T18:16:32Z</time>
      </trkpt>
      <trkpt lat="48.71132" lon="7.10619">
        <ele>262.8</ele>
        <time>2020-06-28T18:16:33Z</time>
      </trkpt>
      <trkpt lat="48.71129" lon="7.10612">
        <ele>262.8</ele>
        <time>2020-06-28T18:16:34Z</time>
      </trkpt>
      <trkpt lat="48.71126" lon="7.10606">
        <ele>262.7</ele>
        <time>2020-06-28T18:16:35Z</time>
      </trkpt>
      <trkpt lat="48.71123" lon="7.10599">
        <ele>262.7</ele>
        <time>2020-06-28T18:16:36Z</time>
      </trkpt>
      <trkpt lat="48.71121" lon="7.10592">
        <ele>262.7</ele>
        <time>2020-06-28T18:16:37Z</time>
      </trkpt>
      <trkpt lat="48.7112" lon="7.10585">
        <ele>262.7</ele>
        <time>2020-06-28T18:16:38Z</time>
      </trkpt>
      <trkpt lat="48.71117" lon="7.10578">
        <ele>262.7</ele>
        <time>2020-06-28T18:16:39Z</time>
      </trkpt>
      <trkpt lat="48.71114" lon="7.10572">
        <ele>262.7</ele>
        <time>2020-06-28T18:16:40Z</time>
      </trkpt>
      <trkpt lat="48.71111" lon="7.10565">
        <ele>262.7</ele>
        <time>2020-06-28T18:16:41Z</time>
      </trkpt>
      <trkpt lat="48.71109" lon="7.10557">
        <ele>262.7</ele>
        <time>2020-06-28T18:16:42Z</time>
      </trkpt>
      <trkpt lat="48.71107" lon="7.10551">
        <ele>262.7</ele>
        <time>2020-06-28T18:16:43Z</time>
      </trkpt>
      <trkpt lat="48.71104" lon="7.10545">
        <ele>262.7</ele>
        <time>2020-06-28T18:16:44Z</time>
      </trkpt>
      <trkpt lat="48.71101" lon="7.10538">
        <ele>262.7</ele>
        <time>2020-06-28T18:16:45Z</time>
      </trkpt>
      <trkpt lat="48.71098" lon="7.1053">
        <ele>262.7</ele>
        <time>2020-06-28T18:16:46Z</time>
      </trkpt>
      <trkpt lat="48.71095" lon="7.10523">
        <ele>262.8</ele>
        <time>2020-06-28T18:16:47Z</time>
      </trkpt>
      <trkpt lat="48.71092" lon="7.10517">
        <ele>262.8</ele>
        <time>2020-06-28T18:16:48Z</time>
      </trkpt>
      <trkpt lat="48.71088" lon="7.10511">
        <ele>262.9</ele>
        <time>2020-06-28T18:16:49Z</time>
      </trkpt>
      <trkpt lat="48.71085" lon="7.10504">
        <ele>262.9</ele>
        <time>2020-06-28T18:16:50Z</time>
      </trkpt>
      <trkpt lat="48.71082" lon="7.10498">
        <ele>262.9</ele>
        <time>2020-06-28T18:16:51Z</time>
      </trkpt>
      <trkpt lat="48.71078" lon="7.10493">
        <ele>262.9</ele>
        <time>2020-06-28T18:16:52Z</time>
      </trkpt>
      <trkpt lat="48.71075" lon="7.10487">
        <ele>263</ele>
        <time>2020-06-28T18:16:53Z</time>
      </trkpt>
      <trkpt lat="48.71072" lon="7.10481">
        <ele>263</ele>
        <time>2020-06-28T18:16:54Z</time>
      </trkpt>
      <trkpt lat="48.7107" lon="7.10475">
        <ele>263</ele>
        <time>2020-06-28T18:16:55Z</time>
      </trkpt>
      <trkpt lat="48.71067" lon="7.1047">
        <ele>263</ele>
        <time>2020-06-28T18:16:56Z</time>
      </trkpt>
      <trkpt lat="48.71065" lon="7.10464">
        <ele>263.1</ele>
        <time>2020-06-28T18:16:57Z</time>
      </trkpt>
      <trkpt lat="48.71063" lon="7.10458">
        <ele>263.1</ele>
        <time>2020-06-28T18:16:58Z</time>
      </trkpt>
      <trkpt lat="48.71061" lon="7.10452">
        <ele>263.1</ele>
        <time>2020-06-28T18:16:59Z</time>
      </trkpt>
      <trkpt lat="48.71058" lon="7.10446">
        <ele>263.1</ele>
        <time>2020-06-28T18:17:00Z</time>
      </trkpt>
      <trkpt lat="48.71056" lon="7.1044">
        <ele>263</ele>
        <time>2020-06-28T18:17:01Z</time>
      </trkpt>
      <trkpt lat="48.71053" lon="7.10433">
        <ele>263</ele>
        <time>2020-06-28T18:17:02Z</time>
      </trkpt>
      <trkpt lat="48.71051" lon="7.10426">
        <ele>263</ele>
        <time>2020-06-28T18:17:03Z</time>
      </trkpt>
      <trkpt lat="48.71049" lon="7.10419">
        <ele>262.9</ele>
        <time>2020-06-28T18:17:04Z</time>
      </trkpt>
      <trkpt lat="48.71048" lon="7.10412">
        <ele>262.8</ele>
        <time>2020-06-28T18:17:05Z</time>
      </trkpt>
      <trkpt lat="48.71048" lon="7.10403">
        <ele>262.7</ele>
        <time>2020-06-28T18:17:06Z</time>
      </trkpt>
      <trkpt lat="48.71048" lon="7.10395">
        <ele>262.6</ele>
        <time>2020-06-28T18:17:07Z</time>
      </trkpt>
      <trkpt lat="48.71049" lon="7.10387">
        <ele>262.5</ele>
        <time>2020-06-28T18:17:08Z</time>
      </trkpt>
      <trkpt lat="48.71051" lon="7.10379">
        <ele>262.5</ele>
        <time>2020-06-28T18:17:09Z</time>
      </trkpt>
      <trkpt lat="48.71055" lon="7.10371">
        <ele>262.4</ele>
        <time>2020-06-28T18:17:10Z</time>
      </trkpt>
      <trkpt lat="48.71058" lon="7.10363">
        <ele>262.4</ele>
        <time>2020-06-28T18:17:11Z</time>
      </trkpt>
      <trkpt lat="48.7106" lon="7.10356">
        <ele>262.4</ele>
        <time>2020-06-28T18:17:12Z</time>
      </trkpt>
      <trkpt lat="48.71064" lon="7.10348">
        <ele>262.4</ele>
        <time>2020-06-28T18:17:13Z</time>
      </trkpt>
      <trkpt lat="48.71067" lon="7.1034">
        <ele>262.4</ele>
        <time>2020-06-28T18:17:14Z</time>
      </trkpt>
      <trkpt lat="48.7107" lon="7.10331">
        <ele>262.5</ele>
        <time>2020-06-28T18:17:15Z</time>
      </trkpt>
      <trkpt lat="48.71072" lon="7.10323">
        <ele>262.4</ele>
        <time>2020-06-28T18:17:16Z</time>
      </trkpt>
      <trkpt lat="48.71076" lon="7.10316">
        <ele>262.4</ele>
        <time>2020-06-28T18:17:17Z</time>
      </trkpt>
      <trkpt lat="48.71079" lon="7.10308">
        <ele>262.4</ele>
        <time>2020-06-28T18:17:18Z</time>
      </trkpt>
      <trkpt lat="48.71082" lon="7.103">
        <ele>262.4</ele>
        <time>2020-06-28T18:17:19Z</time>
      </trkpt>
      <trkpt lat="48.71086" lon="7.10293">
        <ele>262.5</ele>
        <time>2020-06-28T18:17:20Z</time>
      </trkpt>
      <trkpt lat="48.71089" lon="7.10286">
        <ele>262.5</ele>
        <time>2020-06-28T18:17:21Z</time>
      </trkpt>
      <trkpt lat="48.71092" lon="7.10279">
        <ele>262.6</ele>
        <time>2020-06-28T18:17:22Z</time>
      </trkpt>
      <trkpt lat="48.71095" lon="7.10271">
        <ele>262.6</ele>
        <time>2020-06-28T18:17:23Z</time>
      </trkpt>
      <trkpt lat="48.71097" lon="7.10264">
        <ele>262.7</ele>
        <time>2020-06-28T18:17:24Z</time>
      </trkpt>
      <trkpt lat="48.711" lon="7.10257">
        <ele>262.8</ele>
        <time>2020-06-28T18:17:25Z</time>
      </trkpt>
      <trkpt lat="48.71103" lon="7.10251">
        <ele>262.8</ele>
        <time>2020-06-28T18:17:26Z</time>
      </trkpt>
      <trkpt lat="48.71106" lon="7.10245">
        <ele>262.9</ele>
        <time>2020-06-28T18:17:27Z</time>
      </trkpt>
      <trkpt lat="48.71108" lon="7.10237">
        <ele>263.1</ele>
        <time>2020-06-28T18:17:28Z</time>
      </trkpt>
      <trkpt lat="48.7111" lon="7.1023">
        <ele>263.2</ele>
        <time>2020-06-28T18:17:29Z</time>
      </trkpt>
      <trkpt lat="48.71112" lon="7.10224">
        <ele>263.3</ele>
        <time>2020-06-28T18:17:30Z</time>
      </trkpt>
      <trkpt lat="48.71114" lon="7.10217">
        <ele>263.5</ele>
        <time>2020-06-28T18:17:31Z</time>
      </trkpt>
      <trkpt lat="48.71116" lon="7.10208">
        <ele>263.6</ele>
        <time>2020-06-28T18:17:32Z</time>
      </trkpt>
      <trkpt lat="48.71117" lon="7.10202">
        <ele>263.8</ele>
        <time>2020-06-28T18:17:33Z</time>
      </trkpt>
      <trkpt lat="48.71118" lon="7.10195">
        <ele>263.9</ele>
        <time>2020-06-28T18:17:34Z</time>
      </trkpt>
      <trkpt lat="48.71119" lon="7.10189">
        <ele>264.1</ele>
        <time>2020-06-28T18:17:35Z</time>
      </trkpt>
      <trkpt lat="48.71119" lon="7.10182">
        <ele>264.3</ele>
        <time>2020-06-28T18:17:36Z</time>
      </trkpt>
      <trkpt lat="48.71119" lon="7.10175">
        <ele>264.4</ele>
        <time>2020-06-28T18:17:37Z</time>
      </trkpt>
      <trkpt lat="48.71119" lon="7.10169">
        <ele>264.5</ele>
        <time>2020-06-28T18:17:38Z</time>
      </trkpt>
      <trkpt lat="48.71119" lon="7.10164">
        <ele>264.6</ele>
        <time>2020-06-28T18:17:39Z</time>
      </trkpt>
      <trkpt lat="48.71119" lon="7.10159">
        <ele>264.8</ele>
        <time>2020-06-28T18:17:40Z</time>
      </trkpt>
      <trkpt lat="48.71118" lon="7.10154">
        <ele>264.9</ele>
        <time>2020-06-28T18:17:41Z</time>
      </trkpt>
      <trkpt lat="48.71116" lon="7.10147">
        <ele>265.1</ele>
        <time>2020-06-28T18:17:42Z</time>
      </trkpt>
      <trkpt lat="48.71114" lon="7.10142">
        <ele>265.3</ele>
        <time>2020-06-28T18:17:43Z</time>
      </trkpt>
      <trkpt lat="48.71112" lon="7.10136">
        <ele>265.5</ele>
        <time>2020-06-28T18:17:44Z</time>
      </trkpt>
      <trkpt lat="48.71109" lon="7.1013">
        <ele>265.7</ele>
        <time>2020-06-28T18:17:45Z</time>
      </trkpt>
      <trkpt lat="48.71107" lon="7.10124">
        <ele>265.9</ele>
        <time>2020-06-28T18:17:46Z</time>
      </trkpt>
      <trkpt lat="48.71107" lon="7.10118">
        <ele>266.1</ele>
        <time>2020-06-28T18:17:47Z</time>
      </trkpt>
      <trkpt lat="48.71105" lon="7.10112">
        <ele>266.3</ele>
        <time>2020-06-28T18:17:48Z</time>
      </trkpt>
      <trkpt lat="48.71103" lon="7.10106">
        <ele>266.5</ele>
        <time>2020-06-28T18:17:49Z</time>
      </trkpt>
      <trkpt lat="48.71101" lon="7.101">
        <ele>266.7</ele>
        <time>2020-06-28T18:17:50Z</time>
      </trkpt>
      <trkpt lat="48.71099" lon="7.10095">
        <ele>266.8</ele>
        <time>2020-06-28T18:17:51Z</time>
      </trkpt>
      <trkpt lat="48.71098" lon="7.10091">
        <ele>267</ele>
        <time>2020-06-28T18:17:52Z</time>
      </trkpt>
      <trkpt lat="48.71096" lon="7.10086">
        <ele>267.2</ele>
        <time>2020-06-28T18:17:53Z</time>
      </trkpt>
      <trkpt lat="48.71094" lon="7.10081">
        <ele>267.4</ele>
        <time>2020-06-28T18:17:54Z</time>
      </trkpt>
      <trkpt lat="48.71092" lon="7.10076">
        <ele>267.6</ele>
        <time>2020-06-28T18:17:55Z</time>
      </trkpt>
      <trkpt lat="48.71091" lon="7.10071">
        <ele>267.8</ele>
        <time>2020-06-28T18:17:56Z</time>
      </trkpt>
      <trkpt lat="48.71089" lon="7.10065">
        <ele>268.1</ele>
        <time>2020-06-28T18:17:57Z</time>
      </trkpt>
      <trkpt lat="48.71088" lon="7.10059">
        <ele>268.3</ele>
        <time>2020-06-28T18:17:58Z</time>
      </trkpt>
      <trkpt lat="48.71087" lon="7.10054">
        <ele>268.5</ele>
        <time>2020-06-28T18:17:59Z</time>
      </trkpt>
      <trkpt lat="48.71085" lon="7.10049">
        <ele>268.7</ele>
        <time>2020-06-28T18:18:00Z</time>
      </trkpt>
      <trkpt lat="48.71084" lon="7.10044">
        <ele>269</ele>
        <time>2020-06-28T18:18:01Z</time>
      </trkpt>
      <trkpt lat="48.71082" lon="7.10039">
        <ele>269.1</ele>
        <time>2020-06-28T18:18:02Z</time>
      </trkpt>
      <trkpt lat="48.71082" lon="7.10034">
        <ele>269.4</ele>
        <time>2020-06-28T18:18:03Z</time>
      </trkpt>
      <trkpt lat="48.7108" lon="7.1003">
        <ele>269.6</ele>
        <time>2020-06-28T18:18:04Z</time>
      </trkpt>
      <trkpt lat="48.71079" lon="7.10024">
        <ele>269.8</ele>
        <time>2020-06-28T18:18:05Z</time>
      </trkpt>
      <trkpt lat="48.71078" lon="7.10019">
        <ele>270</ele>
        <time>2020-06-28T18:18:06Z</time>
      </trkpt>
      <trkpt lat="48.71076" lon="7.10015">
        <ele>270.2</ele>
        <time>2020-06-28T18:18:07Z</time>
      </trkpt>
      <trkpt lat="48.71075" lon="7.10011">
        <ele>270.3</ele>
        <time>2020-06-28T18:18:08Z</time>
      </trkpt>
      <trkpt lat="48.71073" lon="7.10006">
        <ele>270.5</ele>
        <time>2020-06-28T18:18:09Z</time>
      </trkpt>
      <trkpt lat="48.71071" lon="7.10001">
        <ele>270.7</ele>
        <time>2020-06-28T18:18:10Z</time>
      </trkpt>
      <trkpt lat="48.7107" lon="7.09995">
        <ele>270.9</ele>
        <time>2020-06-28T18:18:11Z</time>
      </trkpt>
      <trkpt lat="48.71068" lon="7.0999">
        <ele>271.1</ele>
        <time>2020-06-28T18:18:12Z</time>
      </trkpt>
      <trkpt lat="48.71066" lon="7.09985">
        <ele>271.3</ele>
        <time>2020-06-28T18:18:13Z</time>
      </trkpt>
      <trkpt lat="48.71065" lon="7.0998">
        <ele>271.5</ele>
        <time>2020-06-28T18:18:14Z</time>
      </trkpt>
      <trkpt lat="48.71064" lon="7.09976">
        <ele>271.6</ele>
        <time>2020-06-28T18:18:15Z</time>
      </trkpt>
      <trkpt lat="48.71062" lon="7.0997">
        <ele>271.8</ele>
        <time>2020-06-28T18:18:16Z</time>
      </trkpt>
      <trkpt lat="48.7106" lon="7.09965">
        <ele>272</ele>
        <time>2020-06-28T18:18:17Z</time>
      </trkpt>
      <trkpt lat="48.71059" lon="7.0996">
        <ele>272.2</ele>
        <time>2020-06-28T18:18:18Z</time>
      </trkpt>
      <trkpt lat="48.71056" lon="7.09956">
        <ele>272.4</ele>
        <time>2020-06-28T18:18:19Z</time>
      </trkpt>
      <trkpt lat="48.71054" lon="7.09952">
        <ele>272.6</ele>
        <time>2020-06-28T18:18:20Z</time>
      </trkpt>
      <trkpt lat="48.71052" lon="7.09949">
        <ele>272.7</ele>
        <time>2020-06-28T18:18:21Z</time>
      </trkpt>
      <trkpt lat="48.71052" lon="7.09944">
        <ele>272.9</ele>
        <time>2020-06-28T18:18:22Z</time>
      </trkpt>
      <trkpt lat="48.71051" lon="7.09938">
        <ele>273.1</ele>
        <time>2020-06-28T18:18:23Z</time>
      </trkpt>
      <trkpt lat="48.7105" lon="7.09933">
        <ele>273.3</ele>
        <time>2020-06-28T18:18:24Z</time>
      </trkpt>
      <trkpt lat="48.71048" lon="7.09927">
        <ele>273.5</ele>
        <time>2020-06-28T18:18:25Z</time>
      </trkpt>
      <trkpt lat="48.71047" lon="7.09922">
        <ele>273.6</ele>
        <time>2020-06-28T18:18:26Z</time>
      </trkpt>
      <trkpt lat="48.71046" lon="7.09917">
        <ele>273.8</ele>
        <time>2020-06-28T18:18:27Z</time>
      </trkpt>
      <trkpt lat="48.71044" lon="7.09912">
        <ele>273.9</ele>
        <time>2020-06-28T18:18:28Z</time>
      </trkpt>
      <trkpt lat="48.71042" lon="7.09908">
        <ele>274</ele>
        <time>2020-06-28T18:18:29Z</time>
      </trkpt>
      <trkpt lat="48.71041" lon="7.09904">
        <ele>274.2</ele>
        <time>2020-06-28T18:18:30Z</time>
      </trkpt>
      <trkpt lat="48.71039" lon="7.09898">
        <ele>274.3</ele>
        <time>2020-06-28T18:18:31Z</time>
      </trkpt>
      <trkpt lat="48.71038" lon="7.09896">
        <ele>274.4</ele>
        <time>2020-06-28T18:18:32Z</time>
      </trkpt>
      <trkpt lat="48.71037" lon="7.09891">
        <ele>274.5</ele>
        <time>2020-06-28T18:18:33Z</time>
      </trkpt>
      <trkpt lat="48.71037" lon="7.09886">
        <ele>274.6</ele>
        <time>2020-06-28T18:18:34Z</time>
      </trkpt>
      <trkpt lat="48.71035" lon="7.09881">
        <ele>274.7</ele>
        <time>2020-06-28T18:18:35Z</time>
      </trkpt>
      <trkpt lat="48.71034" lon="7.09876">
        <ele>274.8</ele>
        <time>2020-06-28T18:18:36Z</time>
      </trkpt>
      <trkpt lat="48.71033" lon="7.09871">
        <ele>274.9</ele>
        <time>2020-06-28T18:18:37Z</time>
      </trkpt>
      <trkpt lat="48.71032" lon="7.09864">
        <ele>275</ele>
        <time>2020-06-28T18:18:38Z</time>
      </trkpt>
      <trkpt lat="48.71031" lon="7.09856">
        <ele>275.1</ele>
        <time>2020-06-28T18:18:39Z</time>
      </trkpt>
      <trkpt lat="48.7103" lon="7.09851">
        <ele>275.2</ele>
        <time>2020-06-28T18:18:40Z</time>
      </trkpt>
      <trkpt lat="48.71029" lon="7.09846">
        <ele>275.3</ele>
        <time>2020-06-28T18:18:41Z</time>
      </trkpt>
      <trkpt lat="48.71029" lon="7.0984">
        <ele>275.4</ele>
        <time>2020-06-28T18:18:42Z</time>
      </trkpt>
      <trkpt lat="48.71028" lon="7.09834">
        <ele>275.4</ele>
        <time>2020-06-28T18:18:43Z</time>
      </trkpt>
      <trkpt lat="48.71028" lon="7.09829">
        <ele>275.5</ele>
        <time>2020-06-28T18:18:44Z</time>
      </trkpt>
      <trkpt lat="48.71027" lon="7.09823">
        <ele>275.6</ele>
        <time>2020-06-28T18:18:45Z</time>
      </trkpt>
      <trkpt lat="48.71027" lon="7.09817">
        <ele>275.6</ele>
        <time>2020-06-28T18:18:46Z</time>
      </trkpt>
      <trkpt lat="48.71028" lon="7.09812">
        <ele>275.7</ele>
        <time>2020-06-28T18:18:47Z</time>
      </trkpt>
      <trkpt lat="48.7103" lon="7.09807">
        <ele>275.7</ele>
        <time>2020-06-28T18:18:48Z</time>
      </trkpt>
      <trkpt lat="48.71032" lon="7.09802">
        <ele>275.7</ele>
        <time>2020-06-28T18:18:49Z</time>
      </trkpt>
      <trkpt lat="48.71034" lon="7.09797">
        <ele>275.8</ele>
        <time>2020-06-28T18:18:50Z</time>
      </trkpt>
      <trkpt lat="48.71037" lon="7.09792">
        <ele>275.8</ele>
        <time>2020-06-28T18:18:51Z</time>
      </trkpt>
      <trkpt lat="48.71039" lon="7.09788">
        <ele>275.8</ele>
        <time>2020-06-28T18:18:52Z</time>
      </trkpt>
      <trkpt lat="48.71043" lon="7.09784">
        <ele>275.8</ele>
        <time>2020-06-28T18:18:53Z</time>
      </trkpt>
      <trkpt lat="48.71048" lon="7.0978">
        <ele>275.8</ele>
        <time>2020-06-28T18:18:54Z</time>
      </trkpt>
      <trkpt lat="48.71053" lon="7.09775">
        <ele>275.8</ele>
        <time>2020-06-28T18:18:55Z</time>
      </trkpt>
      <trkpt lat="48.71057" lon="7.09771">
        <ele>275.8</ele>
        <time>2020-06-28T18:18:56Z</time>
      </trkpt>
      <trkpt lat="48.7106" lon="7.09767">
        <ele>275.9</ele>
        <time>2020-06-28T18:18:57Z</time>
      </trkpt>
      <trkpt lat="48.71064" lon="7.09762">
        <ele>275.9</ele>
        <time>2020-06-28T18:18:58Z</time>
      </trkpt>
      <trkpt lat="48.71067" lon="7.09758">
        <ele>275.9</ele>
        <time>2020-06-28T18:18:59Z</time>
      </trkpt>
      <trkpt lat="48.71071" lon="7.09754">
        <ele>275.9</ele>
        <time>2020-06-28T18:19:00Z</time>
      </trkpt>
      <trkpt lat="48.71074" lon="7.0975">
        <ele>275.9</ele>
        <time>2020-06-28T18:19:01Z</time>
      </trkpt>
      <trkpt lat="48.71077" lon="7.09745">
        <ele>276</ele>
        <time>2020-06-28T18:19:02Z</time>
      </trkpt>
      <trkpt lat="48.7108" lon="7.0974">
        <ele>276</ele>
        <time>2020-06-28T18:19:03Z</time>
      </trkpt>
      <trkpt lat="48.71084" lon="7.09736">
        <ele>276</ele>
        <time>2020-06-28T18:19:04Z</time>
      </trkpt>
      <trkpt lat="48.71088" lon="7.09732">
        <ele>276</ele>
        <time>2020-06-28T18:19:05Z</time>
      </trkpt>
      <trkpt lat="48.71093" lon="7.09729">
        <ele>276</ele>
        <time>2020-06-28T18:19:06Z</time>
      </trkpt>
      <trkpt lat="48.71096" lon="7.09724">
        <ele>276.1</ele>
        <time>2020-06-28T18:19:07Z</time>
      </trkpt>
      <trkpt lat="48.711" lon="7.0972">
        <ele>276.1</ele>
        <time>2020-06-28T18:19:08Z</time>
      </trkpt>
      <trkpt lat="48.71105" lon="7.09716">
        <ele>276.1</ele>
        <time>2020-06-28T18:19:09Z</time>
      </trkpt>
      <trkpt lat="48.71108" lon="7.09713">
        <ele>276.1</ele>
        <time>2020-06-28T18:19:10Z</time>
      </trkpt>
      <trkpt lat="48.71112" lon="7.09708">
        <ele>276.1</ele>
        <time>2020-06-28T18:19:11Z</time>
      </trkpt>
      <trkpt lat="48.71116" lon="7.09704">
        <ele>276.2</ele>
        <time>2020-06-28T18:19:12Z</time>
      </trkpt>
      <trkpt lat="48.71121" lon="7.097">
        <ele>276.2</ele>
        <time>2020-06-28T18:19:13Z</time>
      </trkpt>
      <trkpt lat="48.71126" lon="7.09695">
        <ele>276.3</ele>
        <time>2020-06-28T18:19:14Z</time>
      </trkpt>
      <trkpt lat="48.71129" lon="7.09689">
        <ele>276.3</ele>
        <time>2020-06-28T18:19:15Z</time>
      </trkpt>
      <trkpt lat="48.71133" lon="7.09685">
        <ele>276.4</ele>
        <time>2020-06-28T18:19:16Z</time>
      </trkpt>
      <trkpt lat="48.71137" lon="7.09679">
        <ele>276.5</ele>
        <time>2020-06-28T18:19:17Z</time>
      </trkpt>
      <trkpt lat="48.71141" lon="7.09673">
        <ele>276.5</ele>
        <time>2020-06-28T18:19:18Z</time>
      </trkpt>
      <trkpt lat="48.71145" lon="7.09668">
        <ele>276.5</ele>
        <time>2020-06-28T18:19:19Z</time>
      </trkpt>
      <trkpt lat="48.7115" lon="7.09663">
        <ele>276.5</ele>
        <time>2020-06-28T18:19:20Z</time>
      </trkpt>
      <trkpt lat="48.71153" lon="7.09657">
        <ele>276.5</ele>
        <time>2020-06-28T18:19:21Z</time>
      </trkpt>
      <trkpt lat="48.71158" lon="7.09651">
        <ele>276.4</ele>
        <time>2020-06-28T18:19:22Z</time>
      </trkpt>
      <trkpt lat="48.71162" lon="7.09645">
        <ele>276.3</ele>
        <time>2020-06-28T18:19:23Z</time>
      </trkpt>
      <trkpt lat="48.71166" lon="7.0964">
        <ele>276.3</ele>
        <time>2020-06-28T18:19:24Z</time>
      </trkpt>
      <trkpt lat="48.71169" lon="7.09634">
        <ele>276.3</ele>
        <time>2020-06-28T18:19:25Z</time>
      </trkpt>
      <trkpt lat="48.71173" lon="7.09628">
        <ele>276.2</ele>
        <time>2020-06-28T18:19:26Z</time>
      </trkpt>
      <trkpt lat="48.71178" lon="7.09622">
        <ele>276.2</ele>
        <time>2020-06-28T18:19:27Z</time>
      </trkpt>
      <trkpt lat="48.71181" lon="7.09616">
        <ele>276.1</ele>
        <time>2020-06-28T18:19:28Z</time>
      </trkpt>
      <trkpt lat="48.71185" lon="7.09609">
        <ele>276.1</ele>
        <time>2020-06-28T18:19:29Z</time>
      </trkpt>
      <trkpt lat="48.71189" lon="7.09603">
        <ele>276</ele>
        <time>2020-06-28T18:19:30Z</time>
      </trkpt>
      <trkpt lat="48.71193" lon="7.09597">
        <ele>276</ele>
        <time>2020-06-28T18:19:31Z</time>
      </trkpt>
      <trkpt lat="48.71196" lon="7.0959">
        <ele>276</ele>
        <time>2020-06-28T18:19:32Z</time>
      </trkpt>
      <trkpt lat="48.712" lon="7.09583">
        <ele>276</ele>
        <time>2020-06-28T18:19:33Z</time>
      </trkpt>
      <trkpt lat="48.71205" lon="7.09576">
        <ele>275.9</ele>
        <time>2020-06-28T18:19:34Z</time>
      </trkpt>
      <trkpt lat="48.71208" lon="7.0957">
        <ele>275.8</ele>
        <time>2020-06-28T18:19:35Z</time>
      </trkpt>
      <trkpt lat="48.71213" lon="7.09564">
        <ele>275.8</ele>
        <time>2020-06-28T18:19:36Z</time>
      </trkpt>
      <trkpt lat="48.71216" lon="7.09559">
        <ele>275.8</ele>
        <time>2020-06-28T18:19:37Z</time>
      </trkpt>
      <trkpt lat="48.7122" lon="7.09554">
        <ele>275.7</ele>
        <time>2020-06-28T18:19:38Z</time>
      </trkpt>
      <trkpt lat="48.71224" lon="7.09548">
        <ele>275.7</ele>
        <time>2020-06-28T18:19:39Z</time>
      </trkpt>
      <trkpt lat="48.71228" lon="7.09543">
        <ele>275.6</ele>
        <time>2020-06-28T18:19:40Z</time>
      </trkpt>
      <trkpt lat="48.71232" lon="7.09537">
        <ele>275.6</ele>
        <time>2020-06-28T18:19:41Z</time>
      </trkpt>
      <trkpt lat="48.71236" lon="7.0953">
        <ele>275.6</ele>
        <time>2020-06-28T18:19:42Z</time>
      </trkpt>
      <trkpt lat="48.7124" lon="7.09524">
        <ele>275.5</ele>
        <time>2020-06-28T18:19:43Z</time>
      </trkpt>
      <trkpt lat="48.71244" lon="7.09517">
        <ele>275.4</ele>
        <time>2020-06-28T18:19:44Z</time>
      </trkpt>
      <trkpt lat="48.71248" lon="7.0951">
        <ele>275.4</ele>
        <time>2020-06-28T18:19:45Z</time>
      </trkpt>
      <trkpt lat="48.71253" lon="7.09504">
        <ele>275.3</ele>
        <time>2020-06-28T18:19:46Z</time>
      </trkpt>
      <trkpt lat="48.71257" lon="7.09499">
        <ele>275.2</ele>
        <time>2020-06-28T18:19:47Z</time>
      </trkpt>
      <trkpt lat="48.71262" lon="7.09493">
        <ele>275.2</ele>
        <time>2020-06-28T18:19:48Z</time>
      </trkpt>
      <trkpt lat="48.71266" lon="7.09487">
        <ele>275.1</ele>
        <time>2020-06-28T18:19:49Z</time>
      </trkpt>
      <trkpt lat="48.71271" lon="7.0948">
        <ele>275.1</ele>
        <time>2020-06-28T18:19:50Z</time>
      </trkpt>
      <trkpt lat="48.71276" lon="7.09474">
        <ele>275.1</ele>
        <time>2020-06-28T18:19:51Z</time>
      </trkpt>
      <trkpt lat="48.71281" lon="7.09468">
        <ele>275</ele>
        <time>2020-06-28T18:19:52Z</time>
      </trkpt>
      <trkpt lat="48.71285" lon="7.09463">
        <ele>275</ele>
        <time>2020-06-28T18:19:53Z</time>
      </trkpt>
      <trkpt lat="48.7129" lon="7.09457">
        <ele>274.9</ele>
        <time>2020-06-28T18:19:54Z</time>
      </trkpt>
      <trkpt lat="48.71296" lon="7.09451">
        <ele>274.9</ele>
        <time>2020-06-28T18:19:55Z</time>
      </trkpt>
      <trkpt lat="48.71301" lon="7.09445">
        <ele>274.8</ele>
        <time>2020-06-28T18:19:56Z</time>
      </trkpt>
      <trkpt lat="48.71306" lon="7.0944">
        <ele>274.8</ele>
        <time>2020-06-28T18:19:57Z</time>
      </trkpt>
      <trkpt lat="48.71312" lon="7.09433">
        <ele>274.7</ele>
        <time>2020-06-28T18:19:58Z</time>
      </trkpt>
      <trkpt lat="48.71316" lon="7.09427">
        <ele>274.6</ele>
        <time>2020-06-28T18:19:59Z</time>
      </trkpt>
      <trkpt lat="48.71321" lon="7.09421">
        <ele>274.5</ele>
        <time>2020-06-28T18:20:00Z</time>
      </trkpt>
      <trkpt lat="48.71326" lon="7.09415">
        <ele>274.4</ele>
        <time>2020-06-28T18:20:01Z</time>
      </trkpt>
      <trkpt lat="48.7133" lon="7.09409">
        <ele>274.3</ele>
        <time>2020-06-28T18:20:02Z</time>
      </trkpt>
      <trkpt lat="48.71335" lon="7.09403">
        <ele>274.2</ele>
        <time>2020-06-28T18:20:03Z</time>
      </trkpt>
      <trkpt lat="48.7134" lon="7.09397">
        <ele>274.2</ele>
        <time>2020-06-28T18:20:04Z</time>
      </trkpt>
      <trkpt lat="48.71344" lon="7.09391">
        <ele>274.1</ele>
        <time>2020-06-28T18:20:05Z</time>
      </trkpt>
      <trkpt lat="48.71349" lon="7.09386">
        <ele>274.1</ele>
        <time>2020-06-28T18:20:06Z</time>
      </trkpt>
      <trkpt lat="48.71354" lon="7.0938">
        <ele>274</ele>
        <time>2020-06-28T18:20:07Z</time>
      </trkpt>
      <trkpt lat="48.71358" lon="7.09374">
        <ele>273.9</ele>
        <time>2020-06-28T18:20:08Z</time>
      </trkpt>
      <trkpt lat="48.71362" lon="7.09368">
        <ele>273.8</ele>
        <time>2020-06-28T18:20:09Z</time>
      </trkpt>
      <trkpt lat="48.71366" lon="7.09361">
        <ele>273.8</ele>
        <time>2020-06-28T18:20:10Z</time>
      </trkpt>
      <trkpt lat="48.7137" lon="7.09355">
        <ele>273.7</ele>
        <time>2020-06-28T18:20:11Z</time>
      </trkpt>
      <trkpt lat="48.71374" lon="7.09348">
        <ele>273.7</ele>
        <time>2020-06-28T18:20:12Z</time>
      </trkpt>
      <trkpt lat="48.71379" lon="7.09342">
        <ele>273.6</ele>
        <time>2020-06-28T18:20:13Z</time>
      </trkpt>
      <trkpt lat="48.71383" lon="7.09335">
        <ele>273.6</ele>
        <time>2020-06-28T18:20:14Z</time>
      </trkpt>
      <trkpt lat="48.71387" lon="7.09329">
        <ele>273.5</ele>
        <time>2020-06-28T18:20:15Z</time>
      </trkpt>
      <trkpt lat="48.71391" lon="7.09322">
        <ele>273.4</ele>
        <time>2020-06-28T18:20:16Z</time>
      </trkpt>
      <trkpt lat="48.71396" lon="7.09316">
        <ele>273.2</ele>
        <time>2020-06-28T18:20:17Z</time>
      </trkpt>
      <trkpt lat="48.714" lon="7.0931">
        <ele>273.1</ele>
        <time>2020-06-28T18:20:18Z</time>
      </trkpt>
      <trkpt lat="48.71404" lon="7.09303">
        <ele>272.9</ele>
        <time>2020-06-28T18:20:19Z</time>
      </trkpt>
      <trkpt lat="48.71408" lon="7.09297">
        <ele>272.8</ele>
        <time>2020-06-28T18:20:20Z</time>
      </trkpt>
      <trkpt lat="48.71413" lon="7.0929">
        <ele>272.7</ele>
        <time>2020-06-28T18:20:21Z</time>
      </trkpt>
      <trkpt lat="48.71417" lon="7.09284">
        <ele>272.7</ele>
        <time>2020-06-28T18:20:22Z</time>
      </trkpt>
      <trkpt lat="48.71422" lon="7.09278">
        <ele>272.6</ele>
        <time>2020-06-28T18:20:23Z</time>
      </trkpt>
      <trkpt lat="48.71426" lon="7.09272">
        <ele>272.5</ele>
        <time>2020-06-28T18:20:24Z</time>
      </trkpt>
      <trkpt lat="48.71431" lon="7.09266">
        <ele>272.4</ele>
        <time>2020-06-28T18:20:25Z</time>
      </trkpt>
      <trkpt lat="48.71435" lon="7.0926">
        <ele>272.3</ele>
        <time>2020-06-28T18:20:26Z</time>
      </trkpt>
      <trkpt lat="48.7144" lon="7.09253">
        <ele>272.2</ele>
        <time>2020-06-28T18:20:27Z</time>
      </trkpt>
      <trkpt lat="48.71445" lon="7.09246">
        <ele>272.1</ele>
        <time>2020-06-28T18:20:28Z</time>
      </trkpt>
      <trkpt lat="48.7145" lon="7.0924">
        <ele>272.1</ele>
        <time>2020-06-28T18:20:29Z</time>
      </trkpt>
      <trkpt lat="48.71455" lon="7.09234">
        <ele>272</ele>
        <time>2020-06-28T18:20:30Z</time>
      </trkpt>
      <trkpt lat="48.71459" lon="7.09228">
        <ele>271.9</ele>
        <time>2020-06-28T18:20:31Z</time>
      </trkpt>
      <trkpt lat="48.71463" lon="7.09222">
        <ele>271.8</ele>
        <time>2020-06-28T18:20:32Z</time>
      </trkpt>
      <trkpt lat="48.71468" lon="7.09216">
        <ele>271.5</ele>
        <time>2020-06-28T18:20:33Z</time>
      </trkpt>
      <trkpt lat="48.71472" lon="7.09211">
        <ele>271.3</ele>
        <time>2020-06-28T18:20:34Z</time>
      </trkpt>
      <trkpt lat="48.71477" lon="7.09205">
        <ele>271.2</ele>
        <time>2020-06-28T18:20:35Z</time>
      </trkpt>
      <trkpt lat="48.71481" lon="7.09201">
        <ele>271.1</ele>
        <time>2020-06-28T18:20:36Z</time>
      </trkpt>
      <trkpt lat="48.71485" lon="7.09196">
        <ele>271</ele>
        <time>2020-06-28T18:20:37Z</time>
      </trkpt>
      <trkpt lat="48.71489" lon="7.0919">
        <ele>270.9</ele>
        <time>2020-06-28T18:20:38Z</time>
      </trkpt>
      <trkpt lat="48.71493" lon="7.09185">
        <ele>270.8</ele>
        <time>2020-06-28T18:20:39Z</time>
      </trkpt>
      <trkpt lat="48.71497" lon="7.09179">
        <ele>270.7</ele>
        <time>2020-06-28T18:20:40Z</time>
      </trkpt>
      <trkpt lat="48.71502" lon="7.09174">
        <ele>270.6</ele>
        <time>2020-06-28T18:20:41Z</time>
      </trkpt>
      <trkpt lat="48.71507" lon="7.09169">
        <ele>270.5</ele>
        <time>2020-06-28T18:20:42Z</time>
      </trkpt>
      <trkpt lat="48.71511" lon="7.09163">
        <ele>270.4</ele>
        <time>2020-06-28T18:20:43Z</time>
      </trkpt>
      <trkpt lat="48.71515" lon="7.09157">
        <ele>270.3</ele>
        <time>2020-06-28T18:20:44Z</time>
      </trkpt>
      <trkpt lat="48.7152" lon="7.09151">
        <ele>270.2</ele>
        <time>2020-06-28T18:20:45Z</time>
      </trkpt>
      <trkpt lat="48.71524" lon="7.09145">
        <ele>270.1</ele>
        <time>2020-06-28T18:20:46Z</time>
      </trkpt>
      <trkpt lat="48.71528" lon="7.0914">
        <ele>270.1</ele>
        <time>2020-06-28T18:20:47Z</time>
      </trkpt>
      <trkpt lat="48.71533" lon="7.09134">
        <ele>270.1</ele>
        <time>2020-06-28T18:20:48Z</time>
      </trkpt>
      <trkpt lat="48.71537" lon="7.09129">
        <ele>270</ele>
        <time>2020-06-28T18:20:49Z</time>
      </trkpt>
      <trkpt lat="48.71541" lon="7.09123">
        <ele>270</ele>
        <time>2020-06-28T18:20:50Z</time>
      </trkpt>
      <trkpt lat="48.71545" lon="7.09118">
        <ele>269.9</ele>
        <time>2020-06-28T18:20:51Z</time>
      </trkpt>
      <trkpt lat="48.7155" lon="7.09113">
        <ele>269.8</ele>
        <time>2020-06-28T18:20:52Z</time>
      </trkpt>
      <trkpt lat="48.71554" lon="7.09107">
        <ele>269.8</ele>
        <time>2020-06-28T18:20:53Z</time>
      </trkpt>
      <trkpt lat="48.71558" lon="7.09101">
        <ele>269.7</ele>
        <time>2020-06-28T18:20:54Z</time>
      </trkpt>
      <trkpt lat="48.71562" lon="7.09096">
        <ele>269.6</ele>
        <time>2020-06-28T18:20:55Z</time>
      </trkpt>
      <trkpt lat="48.71567" lon="7.0909">
        <ele>269.6</ele>
        <time>2020-06-28T18:20:56Z</time>
      </trkpt>
      <trkpt lat="48.71571" lon="7.09085">
        <ele>269.5</ele>
        <time>2020-06-28T18:20:57Z</time>
      </trkpt>
      <trkpt lat="48.71576" lon="7.09079">
        <ele>269.5</ele>
        <time>2020-06-28T18:20:58Z</time>
      </trkpt>
      <trkpt lat="48.7158" lon="7.09074">
        <ele>269.4</ele>
        <time>2020-06-28T18:20:59Z</time>
      </trkpt>
      <trkpt lat="48.71584" lon="7.09068">
        <ele>269.4</ele>
        <time>2020-06-28T18:21:00Z</time>
      </trkpt>
      <trkpt lat="48.71589" lon="7.09063">
        <ele>269.3</ele>
        <time>2020-06-28T18:21:01Z</time>
      </trkpt>
      <trkpt lat="48.71593" lon="7.09058">
        <ele>269.3</ele>
        <time>2020-06-28T18:21:02Z</time>
      </trkpt>
      <trkpt lat="48.71597" lon="7.09054">
        <ele>269.3</ele>
        <time>2020-06-28T18:21:03Z</time>
      </trkpt>
      <trkpt lat="48.71602" lon="7.09049">
        <ele>269.2</ele>
        <time>2020-06-28T18:21:04Z</time>
      </trkpt>
      <trkpt lat="48.71606" lon="7.09044">
        <ele>269.2</ele>
        <time>2020-06-28T18:21:05Z</time>
      </trkpt>
      <trkpt lat="48.7161" lon="7.09038">
        <ele>269.2</ele>
        <time>2020-06-28T18:21:06Z</time>
      </trkpt>
      <trkpt lat="48.71614" lon="7.09032">
        <ele>269.1</ele>
        <time>2020-06-28T18:21:07Z</time>
      </trkpt>
      <trkpt lat="48.71618" lon="7.09027">
        <ele>269.1</ele>
        <time>2020-06-28T18:21:08Z</time>
      </trkpt>
      <trkpt lat="48.71623" lon="7.09021">
        <ele>269</ele>
        <time>2020-06-28T18:21:09Z</time>
      </trkpt>
      <trkpt lat="48.71627" lon="7.09016">
        <ele>269</ele>
        <time>2020-06-28T18:21:10Z</time>
      </trkpt>
      <trkpt lat="48.71631" lon="7.09011">
        <ele>268.9</ele>
        <time>2020-06-28T18:21:11Z</time>
      </trkpt>
      <trkpt lat="48.71635" lon="7.09005">
        <ele>268.9</ele>
        <time>2020-06-28T18:21:12Z</time>
      </trkpt>
      <trkpt lat="48.71639" lon="7.09">
        <ele>268.9</ele>
        <time>2020-06-28T18:21:13Z</time>
      </trkpt>
      <trkpt lat="48.71644" lon="7.08995">
        <ele>268.9</ele>
        <time>2020-06-28T18:21:14Z</time>
      </trkpt>
      <trkpt lat="48.71648" lon="7.0899">
        <ele>268.8</ele>
        <time>2020-06-28T18:21:15Z</time>
      </trkpt>
      <trkpt lat="48.71652" lon="7.08984">
        <ele>268.8</ele>
        <time>2020-06-28T18:21:16Z</time>
      </trkpt>
      <trkpt lat="48.71657" lon="7.08979">
        <ele>268.7</ele>
        <time>2020-06-28T18:21:17Z</time>
      </trkpt>
      <trkpt lat="48.71661" lon="7.08974">
        <ele>268.7</ele>
        <time>2020-06-28T18:21:18Z</time>
      </trkpt>
      <trkpt lat="48.71666" lon="7.08968">
        <ele>268.6</ele>
        <time>2020-06-28T18:21:19Z</time>
      </trkpt>
      <trkpt lat="48.7167" lon="7.08963">
        <ele>268.5</ele>
        <time>2020-06-28T18:21:20Z</time>
      </trkpt>
      <trkpt lat="48.71675" lon="7.08958">
        <ele>268.5</ele>
        <time>2020-06-28T18:21:21Z</time>
      </trkpt>
      <trkpt lat="48.71679" lon="7.08953">
        <ele>268.4</ele>
        <time>2020-06-28T18:21:22Z</time>
      </trkpt>
      <trkpt lat="48.71684" lon="7.08948">
        <ele>268.3</ele>
        <time>2020-06-28T18:21:23Z</time>
      </trkpt>
      <trkpt lat="48.71689" lon="7.08943">
        <ele>268.3</ele>
        <time>2020-06-28T18:21:24Z</time>
      </trkpt>
      <trkpt lat="48.71694" lon="7.08938">
        <ele>268.2</ele>
        <time>2020-06-28T18:21:25Z</time>
      </trkpt>
      <trkpt lat="48.71698" lon="7.08933">
        <ele>268.2</ele>
        <time>2020-06-28T18:21:26Z</time>
      </trkpt>
      <trkpt lat="48.71703" lon="7.08928">
        <ele>268.2</ele>
        <time>2020-06-28T18:21:27Z</time>
      </trkpt>
      <trkpt lat="48.71708" lon="7.08924">
        <ele>268.1</ele>
        <time>2020-06-28T18:21:28Z</time>
      </trkpt>
      <trkpt lat="48.71712" lon="7.08919">
        <ele>268.1</ele>
        <time>2020-06-28T18:21:29Z</time>
      </trkpt>
      <trkpt lat="48.71717" lon="7.08915">
        <ele>268</ele>
        <time>2020-06-28T18:21:30Z</time>
      </trkpt>
      <trkpt lat="48.71721" lon="7.0891">
        <ele>267.8</ele>
        <time>2020-06-28T18:21:31Z</time>
      </trkpt>
      <trkpt lat="48.71726" lon="7.08906">
        <ele>267.7</ele>
        <time>2020-06-28T18:21:32Z</time>
      </trkpt>
      <trkpt lat="48.71731" lon="7.08902">
        <ele>267.5</ele>
        <time>2020-06-28T18:21:33Z</time>
      </trkpt>
      <trkpt lat="48.71736" lon="7.08897">
        <ele>267.4</ele>
        <time>2020-06-28T18:21:34Z</time>
      </trkpt>
      <trkpt lat="48.71741" lon="7.08893">
        <ele>267.3</ele>
        <time>2020-06-28T18:21:35Z</time>
      </trkpt>
      <trkpt lat="48.71746" lon="7.08889">
        <ele>267.1</ele>
        <time>2020-06-28T18:21:36Z</time>
      </trkpt>
      <trkpt lat="48.71751" lon="7.08884">
        <ele>267</ele>
        <time>2020-06-28T18:21:37Z</time>
      </trkpt>
      <trkpt lat="48.71756" lon="7.0888">
        <ele>266.8</ele>
        <time>2020-06-28T18:21:38Z</time>
      </trkpt>
      <trkpt lat="48.71761" lon="7.08875">
        <ele>266.7</ele>
        <time>2020-06-28T18:21:39Z</time>
      </trkpt>
      <trkpt lat="48.71766" lon="7.08871">
        <ele>266.6</ele>
        <time>2020-06-28T18:21:40Z</time>
      </trkpt>
      <trkpt lat="48.71771" lon="7.08867">
        <ele>266.4</ele>
        <time>2020-06-28T18:21:41Z</time>
      </trkpt>
      <trkpt lat="48.71777" lon="7.08863">
        <ele>266.3</ele>
        <time>2020-06-28T18:21:42Z</time>
      </trkpt>
      <trkpt lat="48.71782" lon="7.08859">
        <ele>266.1</ele>
        <time>2020-06-28T18:21:43Z</time>
      </trkpt>
      <trkpt lat="48.71788" lon="7.08855">
        <ele>266</ele>
        <time>2020-06-28T18:21:44Z</time>
      </trkpt>
      <trkpt lat="48.71794" lon="7.08851">
        <ele>265.8</ele>
        <time>2020-06-28T18:21:45Z</time>
      </trkpt>
      <trkpt lat="48.718" lon="7.08847">
        <ele>265.7</ele>
        <time>2020-06-28T18:21:46Z</time>
      </trkpt>
      <trkpt lat="48.71805" lon="7.08841">
        <ele>265.5</ele>
        <time>2020-06-28T18:21:47Z</time>
      </trkpt>
      <trkpt lat="48.7181" lon="7.08836">
        <ele>265.4</ele>
        <time>2020-06-28T18:21:48Z</time>
      </trkpt>
      <trkpt lat="48.71815" lon="7.0883">
        <ele>265.3</ele>
        <time>2020-06-28T18:21:49Z</time>
      </trkpt>
      <trkpt lat="48.71819" lon="7.08823">
        <ele>265.1</ele>
        <time>2020-06-28T18:21:50Z</time>
      </trkpt>
      <trkpt lat="48.71824" lon="7.08816">
        <ele>265</ele>
        <time>2020-06-28T18:21:51Z</time>
      </trkpt>
      <trkpt lat="48.71828" lon="7.08809">
        <ele>264.9</ele>
        <time>2020-06-28T18:21:52Z</time>
      </trkpt>
      <trkpt lat="48.71832" lon="7.08802">
        <ele>264.7</ele>
        <time>2020-06-28T18:21:53Z</time>
      </trkpt>
      <trkpt lat="48.71835" lon="7.08794">
        <ele>264.6</ele>
        <time>2020-06-28T18:21:54Z</time>
      </trkpt>
      <trkpt lat="48.71839" lon="7.08787">
        <ele>264.5</ele>
        <time>2020-06-28T18:21:55Z</time>
      </trkpt>
      <trkpt lat="48.71842" lon="7.08779">
        <ele>264.5</ele>
        <time>2020-06-28T18:21:56Z</time>
      </trkpt>
      <trkpt lat="48.71846" lon="7.08771">
        <ele>264.4</ele>
        <time>2020-06-28T18:21:57Z</time>
      </trkpt>
      <trkpt lat="48.7185" lon="7.08764">
        <ele>264.4</ele>
        <time>2020-06-28T18:21:58Z</time>
      </trkpt>
      <trkpt lat="48.71854" lon="7.08757">
        <ele>264.4</ele>
        <time>2020-06-28T18:21:59Z</time>
      </trkpt>
      <trkpt lat="48.71857" lon="7.0875">
        <ele>264.3</ele>
        <time>2020-06-28T18:22:00Z</time>
      </trkpt>
      <trkpt lat="48.7186" lon="7.08742">
        <ele>264.2</ele>
        <time>2020-06-28T18:22:01Z</time>
      </trkpt>
      <trkpt lat="48.71863" lon="7.08735">
        <ele>264.1</ele>
        <time>2020-06-28T18:22:02Z</time>
      </trkpt>
      <trkpt lat="48.71866" lon="7.08728">
        <ele>264</ele>
        <time>2020-06-28T18:22:03Z</time>
      </trkpt>
      <trkpt lat="48.71868" lon="7.08721">
        <ele>264</ele>
        <time>2020-06-28T18:22:04Z</time>
      </trkpt>
      <trkpt lat="48.71869" lon="7.08714">
        <ele>263.9</ele>
        <time>2020-06-28T18:22:05Z</time>
      </trkpt>
      <trkpt lat="48.7187" lon="7.08708">
        <ele>263.9</ele>
        <time>2020-06-28T18:22:06Z</time>
      </trkpt>
      <trkpt lat="48.71871" lon="7.08703">
        <ele>263.8</ele>
        <time>2020-06-28T18:22:07Z</time>
      </trkpt>
      <trkpt lat="48.71871" lon="7.08697">
        <ele>263.8</ele>
        <time>2020-06-28T18:22:08Z</time>
      </trkpt>
      <trkpt lat="48.71872" lon="7.08691">
        <ele>263.7</ele>
        <time>2020-06-28T18:22:09Z</time>
      </trkpt>
      <trkpt lat="48.71873" lon="7.08685">
        <ele>263.6</ele>
        <time>2020-06-28T18:22:10Z</time>
      </trkpt>
      <trkpt lat="48.71875" lon="7.08679">
        <ele>263.6</ele>
        <time>2020-06-28T18:22:11Z</time>
      </trkpt>
      <trkpt lat="48.71876" lon="7.08672">
        <ele>263.5</ele>
        <time>2020-06-28T18:22:12Z</time>
      </trkpt>
      <trkpt lat="48.71877" lon="7.08665">
        <ele>263.4</ele>
        <time>2020-06-28T18:22:13Z</time>
      </trkpt>
      <trkpt lat="48.71878" lon="7.08658">
        <ele>263.4</ele>
        <time>2020-06-28T18:22:14Z</time>
      </trkpt>
      <trkpt lat="48.71879" lon="7.08651">
        <ele>263.3</ele>
        <time>2020-06-28T18:22:15Z</time>
      </trkpt>
      <trkpt lat="48.7188" lon="7.08645">
        <ele>263.2</ele>
        <time>2020-06-28T18:22:16Z</time>
      </trkpt>
      <trkpt lat="48.71881" lon="7.08638">
        <ele>263.2</ele>
        <time>2020-06-28T18:22:17Z</time>
      </trkpt>
      <trkpt lat="48.71882" lon="7.08631">
        <ele>263.1</ele>
        <time>2020-06-28T18:22:18Z</time>
      </trkpt>
      <trkpt lat="48.71883" lon="7.08624">
        <ele>263</ele>
        <time>2020-06-28T18:22:19Z</time>
      </trkpt>
      <trkpt lat="48.71884" lon="7.08618">
        <ele>262.9</ele>
        <time>2020-06-28T18:22:20Z</time>
      </trkpt>
      <trkpt lat="48.71885" lon="7.08611">
        <ele>262.8</ele>
        <time>2020-06-28T18:22:21Z</time>
      </trkpt>
      <trkpt lat="48.71887" lon="7.08605">
        <ele>262.7</ele>
        <time>2020-06-28T18:22:22Z</time>
      </trkpt>
      <trkpt lat="48.71888" lon="7.08599">
        <ele>262.5</ele>
        <time>2020-06-28T18:22:23Z</time>
      </trkpt>
      <trkpt lat="48.7189" lon="7.08594">
        <ele>262.3</ele>
        <time>2020-06-28T18:22:24Z</time>
      </trkpt>
      <trkpt lat="48.71891" lon="7.08588">
        <ele>262.2</ele>
        <time>2020-06-28T18:22:25Z</time>
      </trkpt>
      <trkpt lat="48.71892" lon="7.08583">
        <ele>262</ele>
        <time>2020-06-28T18:22:26Z</time>
      </trkpt>
      <trkpt lat="48.71893" lon="7.08578">
        <ele>261.8</ele>
        <time>2020-06-28T18:22:27Z</time>
      </trkpt>
      <trkpt lat="48.71894" lon="7.08572">
        <ele>261.7</ele>
        <time>2020-06-28T18:22:28Z</time>
      </trkpt>
      <trkpt lat="48.71895" lon="7.08567">
        <ele>261.5</ele>
        <time>2020-06-28T18:22:29Z</time>
      </trkpt>
      <trkpt lat="48.71897" lon="7.08561">
        <ele>261.2</ele>
        <time>2020-06-28T18:22:30Z</time>
      </trkpt>
      <trkpt lat="48.71898" lon="7.08555">
        <ele>261</ele>
        <time>2020-06-28T18:22:31Z</time>
      </trkpt>
      <trkpt lat="48.71899" lon="7.08549">
        <ele>260.8</ele>
        <time>2020-06-28T18:22:32Z</time>
      </trkpt>
      <trkpt lat="48.719" lon="7.08542">
        <ele>260.5</ele>
        <time>2020-06-28T18:22:33Z</time>
      </trkpt>
      <trkpt lat="48.71901" lon="7.08536">
        <ele>260.3</ele>
        <time>2020-06-28T18:22:34Z</time>
      </trkpt>
      <trkpt lat="48.71903" lon="7.0853">
        <ele>260</ele>
        <time>2020-06-28T18:22:35Z</time>
      </trkpt>
      <trkpt lat="48.71904" lon="7.08524">
        <ele>259.8</ele>
        <time>2020-06-28T18:22:36Z</time>
      </trkpt>
      <trkpt lat="48.71906" lon="7.08519">
        <ele>259.5</ele>
        <time>2020-06-28T18:22:37Z</time>
      </trkpt>
      <trkpt lat="48.71907" lon="7.08514">
        <ele>259.3</ele>
        <time>2020-06-28T18:22:38Z</time>
      </trkpt>
      <trkpt lat="48.71909" lon="7.08508">
        <ele>259.1</ele>
        <time>2020-06-28T18:22:39Z</time>
      </trkpt>
      <trkpt lat="48.7191" lon="7.08502">
        <ele>258.8</ele>
        <time>2020-06-28T18:22:40Z</time>
      </trkpt>
      <trkpt lat="48.71911" lon="7.08495">
        <ele>258.5</ele>
        <time>2020-06-28T18:22:41Z</time>
      </trkpt>
      <trkpt lat="48.71913" lon="7.08488">
        <ele>258.2</ele>
        <time>2020-06-28T18:22:42Z</time>
      </trkpt>
      <trkpt lat="48.71914" lon="7.08481">
        <ele>257.9</ele>
        <time>2020-06-28T18:22:43Z</time>
      </trkpt>
      <trkpt lat="48.71916" lon="7.08475">
        <ele>257.7</ele>
        <time>2020-06-28T18:22:44Z</time>
      </trkpt>
      <trkpt lat="48.71918" lon="7.08468">
        <ele>257.5</ele>
        <time>2020-06-28T18:22:45Z</time>
      </trkpt>
      <trkpt lat="48.7192" lon="7.08461">
        <ele>257.2</ele>
        <time>2020-06-28T18:22:46Z</time>
      </trkpt>
      <trkpt lat="48.71923" lon="7.08455">
        <ele>257</ele>
        <time>2020-06-28T18:22:47Z</time>
      </trkpt>
      <trkpt lat="48.71925" lon="7.08449">
        <ele>256.8</ele>
        <time>2020-06-28T18:22:48Z</time>
      </trkpt>
      <trkpt lat="48.71928" lon="7.08443">
        <ele>256.5</ele>
        <time>2020-06-28T18:22:49Z</time>
      </trkpt>
      <trkpt lat="48.71932" lon="7.08436">
        <ele>256.3</ele>
        <time>2020-06-28T18:22:50Z</time>
      </trkpt>
      <trkpt lat="48.71936" lon="7.0843">
        <ele>256.1</ele>
        <time>2020-06-28T18:22:51Z</time>
      </trkpt>
      <trkpt lat="48.7194" lon="7.08425">
        <ele>255.9</ele>
        <time>2020-06-28T18:22:52Z</time>
      </trkpt>
      <trkpt lat="48.71944" lon="7.0842">
        <ele>255.7</ele>
        <time>2020-06-28T18:22:53Z</time>
      </trkpt>
      <trkpt lat="48.71947" lon="7.08414">
        <ele>255.5</ele>
        <time>2020-06-28T18:22:54Z</time>
      </trkpt>
      <trkpt lat="48.71951" lon="7.08408">
        <ele>255.3</ele>
        <time>2020-06-28T18:22:55Z</time>
      </trkpt>
      <trkpt lat="48.71954" lon="7.08403">
        <ele>255.2</ele>
        <time>2020-06-28T18:22:56Z</time>
      </trkpt>
      <trkpt lat="48.71958" lon="7.08397">
        <ele>255</ele>
        <time>2020-06-28T18:22:57Z</time>
      </trkpt>
      <trkpt lat="48.71961" lon="7.0839">
        <ele>254.9</ele>
        <time>2020-06-28T18:22:58Z</time>
      </trkpt>
      <trkpt lat="48.71965" lon="7.08385">
        <ele>254.8</ele>
        <time>2020-06-28T18:22:59Z</time>
      </trkpt>
      <trkpt lat="48.71969" lon="7.0838">
        <ele>254.7</ele>
        <time>2020-06-28T18:23:00Z</time>
      </trkpt>
      <trkpt lat="48.71974" lon="7.08376">
        <ele>254.6</ele>
        <time>2020-06-28T18:23:01Z</time>
      </trkpt>
      <trkpt lat="48.71978" lon="7.08373">
        <ele>254.6</ele>
        <time>2020-06-28T18:23:02Z</time>
      </trkpt>
      <trkpt lat="48.71982" lon="7.0837">
        <ele>254.5</ele>
        <time>2020-06-28T18:23:03Z</time>
      </trkpt>
      <trkpt lat="48.71985" lon="7.08367">
        <ele>254.5</ele>
        <time>2020-06-28T18:23:04Z</time>
      </trkpt>
      <trkpt lat="48.71987" lon="7.08364">
        <ele>254.5</ele>
        <time>2020-06-28T18:23:05Z</time>
      </trkpt>
      <trkpt lat="48.7199" lon="7.08359">
        <ele>254.4</ele>
        <time>2020-06-28T18:23:06Z</time>
      </trkpt>
      <trkpt lat="48.7199" lon="7.08357">
        <ele>254.4</ele>
        <time>2020-06-28T18:23:07Z</time>
      </trkpt>
      <trkpt lat="48.71991" lon="7.08353">
        <ele>254.4</ele>
        <time>2020-06-28T18:23:08Z</time>
      </trkpt>
      <trkpt lat="48.71992" lon="7.08348">
        <ele>254.4</ele>
        <time>2020-06-28T18:23:09Z</time>
      </trkpt>
      <trkpt lat="48.71993" lon="7.08343">
        <ele>254.3</ele>
        <time>2020-06-28T18:23:10Z</time>
      </trkpt>
      <trkpt lat="48.71993" lon="7.08338">
        <ele>254.3</ele>
        <time>2020-06-28T18:23:11Z</time>
      </trkpt>
      <trkpt lat="48.71993" lon="7.08334">
        <ele>254.3</ele>
        <time>2020-06-28T18:23:12Z</time>
      </trkpt>
      <trkpt lat="48.71993" lon="7.0833">
        <ele>254.3</ele>
        <time>2020-06-28T18:23:13Z</time>
      </trkpt>
      <trkpt lat="48.71993" lon="7.08325">
        <ele>254.2</ele>
        <time>2020-06-28T18:23:14Z</time>
      </trkpt>
      <trkpt lat="48.71993" lon="7.0832">
        <ele>254.2</ele>
        <time>2020-06-28T18:23:15Z</time>
      </trkpt>
      <trkpt lat="48.71993" lon="7.08315">
        <ele>254.2</ele>
        <time>2020-06-28T18:23:16Z</time>
      </trkpt>
      <trkpt lat="48.71993" lon="7.0831">
        <ele>254.2</ele>
        <time>2020-06-28T18:23:17Z</time>
      </trkpt>
      <trkpt lat="48.71993" lon="7.08309">
        <ele>254.2</ele>
        <time>2020-06-28T18:23:18Z</time>
      </trkpt>
      <trkpt lat="48.71994" lon="7.08307">
        <ele>254.2</ele>
        <time>2020-06-28T18:23:19Z</time>
      </trkpt>
      <trkpt lat="48.71994" lon="7.08304">
        <ele>254.2</ele>
        <time>2020-06-28T18:23:20Z</time>
      </trkpt>
      <trkpt lat="48.71995" lon="7.083">
        <ele>254.2</ele>
        <time>2020-06-28T18:23:21Z</time>
      </trkpt>
      <trkpt lat="48.71996" lon="7.08294">
        <ele>254.2</ele>
        <time>2020-06-28T18:23:22Z</time>
      </trkpt>
      <trkpt lat="48.71996" lon="7.08288">
        <ele>254.2</ele>
        <time>2020-06-28T18:23:23Z</time>
      </trkpt>
      <trkpt lat="48.71997" lon="7.08281">
        <ele>254.2</ele>
        <time>2020-06-28T18:23:24Z</time>
      </trkpt>
      <trkpt lat="48.71997" lon="7.08274">
        <ele>254.2</ele>
        <time>2020-06-28T18:23:25Z</time>
      </trkpt>
      <trkpt lat="48.71997" lon="7.08267">
        <ele>254.2</ele>
        <time>2020-06-28T18:23:26Z</time>
      </trkpt>
      <trkpt lat="48.71997" lon="7.08259">
        <ele>254.2</ele>
        <time>2020-06-28T18:23:27Z</time>
      </trkpt>
      <trkpt lat="48.71997" lon="7.08253">
        <ele>254.3</ele>
        <time>2020-06-28T18:23:28Z</time>
      </trkpt>
      <trkpt lat="48.71997" lon="7.08246">
        <ele>254.3</ele>
        <time>2020-06-28T18:23:29Z</time>
      </trkpt>
      <trkpt lat="48.71998" lon="7.0824">
        <ele>254.4</ele>
        <time>2020-06-28T18:23:30Z</time>
      </trkpt>
      <trkpt lat="48.71999" lon="7.08234">
        <ele>254.4</ele>
        <time>2020-06-28T18:23:31Z</time>
      </trkpt>
      <trkpt lat="48.71999" lon="7.08229">
        <ele>254.5</ele>
        <time>2020-06-28T18:23:32Z</time>
      </trkpt>
      <trkpt lat="48.72" lon="7.08223">
        <ele>254.6</ele>
        <time>2020-06-28T18:23:33Z</time>
      </trkpt>
      <trkpt lat="48.72001" lon="7.08216">
        <ele>254.6</ele>
        <time>2020-06-28T18:23:34Z</time>
      </trkpt>
      <trkpt lat="48.72001" lon="7.0821">
        <ele>254.7</ele>
        <time>2020-06-28T18:23:35Z</time>
      </trkpt>
      <trkpt lat="48.72002" lon="7.08204">
        <ele>254.9</ele>
        <time>2020-06-28T18:23:36Z</time>
      </trkpt>
      <trkpt lat="48.72002" lon="7.08198">
        <ele>255</ele>
        <time>2020-06-28T18:23:37Z</time>
      </trkpt>
      <trkpt lat="48.72003" lon="7.08192">
        <ele>255.1</ele>
        <time>2020-06-28T18:23:38Z</time>
      </trkpt>
      <trkpt lat="48.72004" lon="7.08186">
        <ele>255.1</ele>
        <time>2020-06-28T18:23:39Z</time>
      </trkpt>
      <trkpt lat="48.72006" lon="7.0818">
        <ele>255.1</ele>
        <time>2020-06-28T18:23:40Z</time>
      </trkpt>
      <trkpt lat="48.72007" lon="7.08174">
        <ele>255.1</ele>
        <time>2020-06-28T18:23:41Z</time>
      </trkpt>
      <trkpt lat="48.72009" lon="7.08169">
        <ele>255.1</ele>
        <time>2020-06-28T18:23:42Z</time>
      </trkpt>
      <trkpt lat="48.7201" lon="7.08163">
        <ele>255.1</ele>
        <time>2020-06-28T18:23:43Z</time>
      </trkpt>
      <trkpt lat="48.72011" lon="7.08157">
        <ele>255</ele>
        <time>2020-06-28T18:23:44Z</time>
      </trkpt>
      <trkpt lat="48.72014" lon="7.08152">
        <ele>255</ele>
        <time>2020-06-28T18:23:45Z</time>
      </trkpt>
      <trkpt lat="48.72017" lon="7.08145">
        <ele>254.9</ele>
        <time>2020-06-28T18:23:46Z</time>
      </trkpt>
      <trkpt lat="48.7202" lon="7.08139">
        <ele>254.8</ele>
        <time>2020-06-28T18:23:47Z</time>
      </trkpt>
      <trkpt lat="48.72023" lon="7.08133">
        <ele>254.8</ele>
        <time>2020-06-28T18:23:48Z</time>
      </trkpt>
      <trkpt lat="48.72027" lon="7.08128">
        <ele>254.7</ele>
        <time>2020-06-28T18:23:49Z</time>
      </trkpt>
      <trkpt lat="48.7203" lon="7.08122">
        <ele>254.7</ele>
        <time>2020-06-28T18:23:50Z</time>
      </trkpt>
      <trkpt lat="48.72034" lon="7.08117">
        <ele>254.8</ele>
        <time>2020-06-28T18:23:51Z</time>
      </trkpt>
      <trkpt lat="48.72037" lon="7.08112">
        <ele>254.8</ele>
        <time>2020-06-28T18:23:52Z</time>
      </trkpt>
      <trkpt lat="48.72042" lon="7.08108">
        <ele>254.9</ele>
        <time>2020-06-28T18:23:53Z</time>
      </trkpt>
      <trkpt lat="48.72046" lon="7.08105">
        <ele>255</ele>
        <time>2020-06-28T18:23:54Z</time>
      </trkpt>
      <trkpt lat="48.7205" lon="7.081">
        <ele>255</ele>
        <time>2020-06-28T18:23:55Z</time>
      </trkpt>
      <trkpt lat="48.72055" lon="7.08096">
        <ele>255.1</ele>
        <time>2020-06-28T18:23:56Z</time>
      </trkpt>
      <trkpt lat="48.72059" lon="7.08092">
        <ele>255.2</ele>
        <time>2020-06-28T18:23:57Z</time>
      </trkpt>
      <trkpt lat="48.72063" lon="7.08088">
        <ele>255.2</ele>
        <time>2020-06-28T18:23:58Z</time>
      </trkpt>
      <trkpt lat="48.72068" lon="7.08084">
        <ele>255.3</ele>
        <time>2020-06-28T18:23:59Z</time>
      </trkpt>
      <trkpt lat="48.72072" lon="7.0808">
        <ele>255.3</ele>
        <time>2020-06-28T18:24:00Z</time>
      </trkpt>
      <trkpt lat="48.72076" lon="7.08075">
        <ele>255.3</ele>
        <time>2020-06-28T18:24:01Z</time>
      </trkpt>
      <trkpt lat="48.7208" lon="7.0807">
        <ele>255.4</ele>
        <time>2020-06-28T18:24:02Z</time>
      </trkpt>
      <trkpt lat="48.72085" lon="7.08065">
        <ele>255.4</ele>
        <time>2020-06-28T18:24:03Z</time>
      </trkpt>
      <trkpt lat="48.72089" lon="7.08061">
        <ele>255.4</ele>
        <time>2020-06-28T18:24:04Z</time>
      </trkpt>
      <trkpt lat="48.72094" lon="7.08055">
        <ele>255.4</ele>
        <time>2020-06-28T18:24:05Z</time>
      </trkpt>
      <trkpt lat="48.72099" lon="7.08051">
        <ele>255.5</ele>
        <time>2020-06-28T18:24:06Z</time>
      </trkpt>
      <trkpt lat="48.72104" lon="7.08047">
        <ele>255.5</ele>
        <time>2020-06-28T18:24:07Z</time>
      </trkpt>
      <trkpt lat="48.72109" lon="7.08042">
        <ele>255.6</ele>
        <time>2020-06-28T18:24:08Z</time>
      </trkpt>
      <trkpt lat="48.72114" lon="7.08038">
        <ele>255.6</ele>
        <time>2020-06-28T18:24:09Z</time>
      </trkpt>
      <trkpt lat="48.72118" lon="7.08034">
        <ele>255.6</ele>
        <time>2020-06-28T18:24:10Z</time>
      </trkpt>
      <trkpt lat="48.72123" lon="7.08029">
        <ele>255.6</ele>
        <time>2020-06-28T18:24:11Z</time>
      </trkpt>
      <trkpt lat="48.72127" lon="7.08025">
        <ele>255.6</ele>
        <time>2020-06-28T18:24:12Z</time>
      </trkpt>
      <trkpt lat="48.72132" lon="7.08021">
        <ele>255.7</ele>
        <time>2020-06-28T18:24:13Z</time>
      </trkpt>
      <trkpt lat="48.72137" lon="7.08017">
        <ele>255.7</ele>
        <time>2020-06-28T18:24:14Z</time>
      </trkpt>
      <trkpt lat="48.72141" lon="7.08013">
        <ele>255.7</ele>
        <time>2020-06-28T18:24:15Z</time>
      </trkpt>
      <trkpt lat="48.72146" lon="7.08008">
        <ele>255.7</ele>
        <time>2020-06-28T18:24:16Z</time>
      </trkpt>
      <trkpt lat="48.7215" lon="7.08004">
        <ele>255.7</ele>
        <time>2020-06-28T18:24:17Z</time>
      </trkpt>
      <trkpt lat="48.72155" lon="7.08">
        <ele>255.7</ele>
        <time>2020-06-28T18:24:18Z</time>
      </trkpt>
      <trkpt lat="48.7216" lon="7.07995">
        <ele>255.7</ele>
        <time>2020-06-28T18:24:19Z</time>
      </trkpt>
      <trkpt lat="48.72164" lon="7.07991">
        <ele>255.7</ele>
        <time>2020-06-28T18:24:20Z</time>
      </trkpt>
      <trkpt lat="48.72169" lon="7.07987">
        <ele>255.6</ele>
        <time>2020-06-28T18:24:21Z</time>
      </trkpt>
      <trkpt lat="48.72174" lon="7.07983">
        <ele>255.6</ele>
        <time>2020-06-28T18:24:22Z</time>
      </trkpt>
      <trkpt lat="48.72179" lon="7.07978">
        <ele>255.5</ele>
        <time>2020-06-28T18:24:23Z</time>
      </trkpt>
      <trkpt lat="48.72184" lon="7.07973">
        <ele>255.5</ele>
        <time>2020-06-28T18:24:24Z</time>
      </trkpt>
      <trkpt lat="48.72189" lon="7.07968">
        <ele>255.4</ele>
        <time>2020-06-28T18:24:25Z</time>
      </trkpt>
      <trkpt lat="48.72195" lon="7.07962">
        <ele>255.3</ele>
        <time>2020-06-28T18:24:26Z</time>
      </trkpt>
      <trkpt lat="48.722" lon="7.07956">
        <ele>255.2</ele>
        <time>2020-06-28T18:24:27Z</time>
      </trkpt>
      <trkpt lat="48.72204" lon="7.0795">
        <ele>255.1</ele>
        <time>2020-06-28T18:24:28Z</time>
      </trkpt>
      <trkpt lat="48.72209" lon="7.07945">
        <ele>255</ele>
        <time>2020-06-28T18:24:29Z</time>
      </trkpt>
      <trkpt lat="48.72214" lon="7.07939">
        <ele>255</ele>
        <time>2020-06-28T18:24:30Z</time>
      </trkpt>
      <trkpt lat="48.72218" lon="7.07934">
        <ele>254.9</ele>
        <time>2020-06-28T18:24:31Z</time>
      </trkpt>
      <trkpt lat="48.72223" lon="7.07927">
        <ele>254.8</ele>
        <time>2020-06-28T18:24:32Z</time>
      </trkpt>
      <trkpt lat="48.72228" lon="7.0792">
        <ele>254.8</ele>
        <time>2020-06-28T18:24:33Z</time>
      </trkpt>
      <trkpt lat="48.72232" lon="7.07914">
        <ele>254.7</ele>
        <time>2020-06-28T18:24:34Z</time>
      </trkpt>
      <trkpt lat="48.72237" lon="7.07906">
        <ele>254.6</ele>
        <time>2020-06-28T18:24:35Z</time>
      </trkpt>
      <trkpt lat="48.72242" lon="7.07899">
        <ele>254.5</ele>
        <time>2020-06-28T18:24:36Z</time>
      </trkpt>
      <trkpt lat="48.72246" lon="7.07892">
        <ele>254.5</ele>
        <time>2020-06-28T18:24:37Z</time>
      </trkpt>
      <trkpt lat="48.7225" lon="7.07886">
        <ele>254.4</ele>
        <time>2020-06-28T18:24:38Z</time>
      </trkpt>
      <trkpt lat="48.72254" lon="7.07879">
        <ele>254.3</ele>
        <time>2020-06-28T18:24:39Z</time>
      </trkpt>
      <trkpt lat="48.72258" lon="7.0787">
        <ele>254.2</ele>
        <time>2020-06-28T18:24:40Z</time>
      </trkpt>
      <trkpt lat="48.72263" lon="7.0786">
        <ele>254.1</ele>
        <time>2020-06-28T18:24:41Z</time>
      </trkpt>
      <trkpt lat="48.72267" lon="7.07852">
        <ele>254</ele>
        <time>2020-06-28T18:24:42Z</time>
      </trkpt>
      <trkpt lat="48.72271" lon="7.07843">
        <ele>253.9</ele>
        <time>2020-06-28T18:24:43Z</time>
      </trkpt>
      <trkpt lat="48.72274" lon="7.07836">
        <ele>253.9</ele>
        <time>2020-06-28T18:24:44Z</time>
      </trkpt>
      <trkpt lat="48.72278" lon="7.07828">
        <ele>253.9</ele>
        <time>2020-06-28T18:24:45Z</time>
      </trkpt>
      <trkpt lat="48.72281" lon="7.07821">
        <ele>253.9</ele>
        <time>2020-06-28T18:24:46Z</time>
      </trkpt>
      <trkpt lat="48.72285" lon="7.07814">
        <ele>254</ele>
        <time>2020-06-28T18:24:47Z</time>
      </trkpt>
      <trkpt lat="48.72288" lon="7.07806">
        <ele>254</ele>
        <time>2020-06-28T18:24:48Z</time>
      </trkpt>
      <trkpt lat="48.72292" lon="7.07799">
        <ele>254</ele>
        <time>2020-06-28T18:24:49Z</time>
      </trkpt>
      <trkpt lat="48.72295" lon="7.07791">
        <ele>253.9</ele>
        <time>2020-06-28T18:24:50Z</time>
      </trkpt>
      <trkpt lat="48.72298" lon="7.07783">
        <ele>253.8</ele>
        <time>2020-06-28T18:24:51Z</time>
      </trkpt>
      <trkpt lat="48.723" lon="7.07774">
        <ele>253.8</ele>
        <time>2020-06-28T18:24:52Z</time>
      </trkpt>
      <trkpt lat="48.72303" lon="7.07766">
        <ele>253.7</ele>
        <time>2020-06-28T18:24:53Z</time>
      </trkpt>
      <trkpt lat="48.72305" lon="7.07758">
        <ele>253.6</ele>
        <time>2020-06-28T18:24:54Z</time>
      </trkpt>
      <trkpt lat="48.72307" lon="7.0775">
        <ele>253.5</ele>
        <time>2020-06-28T18:24:55Z</time>
      </trkpt>
      <trkpt lat="48.72309" lon="7.07743">
        <ele>253.5</ele>
        <time>2020-06-28T18:24:56Z</time>
      </trkpt>
      <trkpt lat="48.72311" lon="7.07736">
        <ele>253.4</ele>
        <time>2020-06-28T18:24:57Z</time>
      </trkpt>
      <trkpt lat="48.72312" lon="7.07729">
        <ele>253.5</ele>
        <time>2020-06-28T18:24:58Z</time>
      </trkpt>
      <trkpt lat="48.72313" lon="7.07722">
        <ele>253.5</ele>
        <time>2020-06-28T18:24:59Z</time>
      </trkpt>
      <trkpt lat="48.72314" lon="7.07715">
        <ele>253.5</ele>
        <time>2020-06-28T18:25:00Z</time>
      </trkpt>
      <trkpt lat="48.72314" lon="7.07708">
        <ele>253.5</ele>
        <time>2020-06-28T18:25:01Z</time>
      </trkpt>
      <trkpt lat="48.72316" lon="7.07702">
        <ele>253.5</ele>
        <time>2020-06-28T18:25:02Z</time>
      </trkpt>
      <trkpt lat="48.72316" lon="7.07695">
        <ele>253.4</ele>
        <time>2020-06-28T18:25:03Z</time>
      </trkpt>
      <trkpt lat="48.72317" lon="7.07689">
        <ele>253.4</ele>
        <time>2020-06-28T18:25:04Z</time>
      </trkpt>
      <trkpt lat="48.72319" lon="7.07683">
        <ele>253.3</ele>
        <time>2020-06-28T18:25:05Z</time>
      </trkpt>
      <trkpt lat="48.7232" lon="7.07676">
        <ele>253.3</ele>
        <time>2020-06-28T18:25:06Z</time>
      </trkpt>
      <trkpt lat="48.72322" lon="7.07671">
        <ele>253.3</ele>
        <time>2020-06-28T18:25:07Z</time>
      </trkpt>
      <trkpt lat="48.72324" lon="7.07665">
        <ele>253.4</ele>
        <time>2020-06-28T18:25:08Z</time>
      </trkpt>
      <trkpt lat="48.72324" lon="7.07659">
        <ele>253.4</ele>
        <time>2020-06-28T18:25:09Z</time>
      </trkpt>
      <trkpt lat="48.72324" lon="7.07653">
        <ele>253.4</ele>
        <time>2020-06-28T18:25:10Z</time>
      </trkpt>
      <trkpt lat="48.72325" lon="7.07648">
        <ele>253.5</ele>
        <time>2020-06-28T18:25:11Z</time>
      </trkpt>
      <trkpt lat="48.72326" lon="7.07643">
        <ele>253.5</ele>
        <time>2020-06-28T18:25:12Z</time>
      </trkpt>
      <trkpt lat="48.72327" lon="7.07637">
        <ele>253.6</ele>
        <time>2020-06-28T18:25:13Z</time>
      </trkpt>
      <trkpt lat="48.72329" lon="7.07632">
        <ele>253.6</ele>
        <time>2020-06-28T18:25:14Z</time>
      </trkpt>
      <trkpt lat="48.72331" lon="7.07626">
        <ele>253.6</ele>
        <time>2020-06-28T18:25:15Z</time>
      </trkpt>
      <trkpt lat="48.72333" lon="7.07619">
        <ele>253.6</ele>
        <time>2020-06-28T18:25:16Z</time>
      </trkpt>
      <trkpt lat="48.72335" lon="7.07612">
        <ele>253.7</ele>
        <time>2020-06-28T18:25:17Z</time>
      </trkpt>
      <trkpt lat="48.72336" lon="7.07604">
        <ele>253.7</ele>
        <time>2020-06-28T18:25:18Z</time>
      </trkpt>
      <trkpt lat="48.72339" lon="7.07597">
        <ele>253.8</ele>
        <time>2020-06-28T18:25:19Z</time>
      </trkpt>
      <trkpt lat="48.72341" lon="7.0759">
        <ele>253.8</ele>
        <time>2020-06-28T18:25:20Z</time>
      </trkpt>
      <trkpt lat="48.72343" lon="7.07582">
        <ele>253.8</ele>
        <time>2020-06-28T18:25:21Z</time>
      </trkpt>
      <trkpt lat="48.72346" lon="7.07574">
        <ele>253.9</ele>
        <time>2020-06-28T18:25:22Z</time>
      </trkpt>
      <trkpt lat="48.72349" lon="7.07567">
        <ele>253.9</ele>
        <time>2020-06-28T18:25:23Z</time>
      </trkpt>
      <trkpt lat="48.72352" lon="7.07558">
        <ele>254</ele>
        <time>2020-06-28T18:25:24Z</time>
      </trkpt>
      <trkpt lat="48.72355" lon="7.0755">
        <ele>254.1</ele>
        <time>2020-06-28T18:25:25Z</time>
      </trkpt>
      <trkpt lat="48.72358" lon="7.07543">
        <ele>254.1</ele>
        <time>2020-06-28T18:25:26Z</time>
      </trkpt>
      <trkpt lat="48.7236" lon="7.07538">
        <ele>254.2</ele>
        <time>2020-06-28T18:25:27Z</time>
      </trkpt>
      <trkpt lat="48.72363" lon="7.07532">
        <ele>254.3</ele>
        <time>2020-06-28T18:25:28Z</time>
      </trkpt>
      <trkpt lat="48.72366" lon="7.07526">
        <ele>254.3</ele>
        <time>2020-06-28T18:25:29Z</time>
      </trkpt>
      <trkpt lat="48.72368" lon="7.0752">
        <ele>254.4</ele>
        <time>2020-06-28T18:25:30Z</time>
      </trkpt>
      <trkpt lat="48.72371" lon="7.07513">
        <ele>254.5</ele>
        <time>2020-06-28T18:25:31Z</time>
      </trkpt>
      <trkpt lat="48.72374" lon="7.07508">
        <ele>254.6</ele>
        <time>2020-06-28T18:25:32Z</time>
      </trkpt>
      <trkpt lat="48.72377" lon="7.07502">
        <ele>254.6</ele>
        <time>2020-06-28T18:25:33Z</time>
      </trkpt>
      <trkpt lat="48.7238" lon="7.07497">
        <ele>254.6</ele>
        <time>2020-06-28T18:25:34Z</time>
      </trkpt>
      <trkpt lat="48.72382" lon="7.07492">
        <ele>254.7</ele>
        <time>2020-06-28T18:25:35Z</time>
      </trkpt>
      <trkpt lat="48.72384" lon="7.07485">
        <ele>254.7</ele>
        <time>2020-06-28T18:25:36Z</time>
      </trkpt>
      <trkpt lat="48.72387" lon="7.0748">
        <ele>254.8</ele>
        <time>2020-06-28T18:25:37Z</time>
      </trkpt>
      <trkpt lat="48.7239" lon="7.07473">
        <ele>254.8</ele>
        <time>2020-06-28T18:25:38Z</time>
      </trkpt>
      <trkpt lat="48.72393" lon="7.07466">
        <ele>254.8</ele>
        <time>2020-06-28T18:25:39Z</time>
      </trkpt>
      <trkpt lat="48.72396" lon="7.0746">
        <ele>254.9</ele>
        <time>2020-06-28T18:25:40Z</time>
      </trkpt>
      <trkpt lat="48.72398" lon="7.07453">
        <ele>254.9</ele>
        <time>2020-06-28T18:25:41Z</time>
      </trkpt>
      <trkpt lat="48.72401" lon="7.07446">
        <ele>254.9</ele>
        <time>2020-06-28T18:25:42Z</time>
      </trkpt>
      <trkpt lat="48.72403" lon="7.0744">
        <ele>254.9</ele>
        <time>2020-06-28T18:25:43Z</time>
      </trkpt>
      <trkpt lat="48.72406" lon="7.07433">
        <ele>254.9</ele>
        <time>2020-06-28T18:25:44Z</time>
      </trkpt>
      <trkpt lat="48.72409" lon="7.07427">
        <ele>255</ele>
        <time>2020-06-28T18:25:45Z</time>
      </trkpt>
      <trkpt lat="48.72412" lon="7.0742">
        <ele>255</ele>
        <time>2020-06-28T18:25:46Z</time>
      </trkpt>
      <trkpt lat="48.72416" lon="7.07414">
        <ele>255</ele>
        <time>2020-06-28T18:25:47Z</time>
      </trkpt>
      <trkpt lat="48.72419" lon="7.07407">
        <ele>255.1</ele>
        <time>2020-06-28T18:25:48Z</time>
      </trkpt>
      <trkpt lat="48.72422" lon="7.07402">
        <ele>255.1</ele>
        <time>2020-06-28T18:25:49Z</time>
      </trkpt>
      <trkpt lat="48.72425" lon="7.07396">
        <ele>255.1</ele>
        <time>2020-06-28T18:25:50Z</time>
      </trkpt>
      <trkpt lat="48.72428" lon="7.07389">
        <ele>255.2</ele>
        <time>2020-06-28T18:25:51Z</time>
      </trkpt>
      <trkpt lat="48.72431" lon="7.07384">
        <ele>255.2</ele>
        <time>2020-06-28T18:25:52Z</time>
      </trkpt>
      <trkpt lat="48.72433" lon="7.07378">
        <ele>255.2</ele>
        <time>2020-06-28T18:25:53Z</time>
      </trkpt>
      <trkpt lat="48.72435" lon="7.07373">
        <ele>255.2</ele>
        <time>2020-06-28T18:25:54Z</time>
      </trkpt>
      <trkpt lat="48.72439" lon="7.07366">
        <ele>255.2</ele>
        <time>2020-06-28T18:25:55Z</time>
      </trkpt>
      <trkpt lat="48.72442" lon="7.0736">
        <ele>255.2</ele>
        <time>2020-06-28T18:25:56Z</time>
      </trkpt>
      <trkpt lat="48.72446" lon="7.07352">
        <ele>255.2</ele>
        <time>2020-06-28T18:25:57Z</time>
      </trkpt>
      <trkpt lat="48.7245" lon="7.07346">
        <ele>255.3</ele>
        <time>2020-06-28T18:25:58Z</time>
      </trkpt>
      <trkpt lat="48.72453" lon="7.0734">
        <ele>255.3</ele>
        <time>2020-06-28T18:25:59Z</time>
      </trkpt>
      <trkpt lat="48.72456" lon="7.07334">
        <ele>255.3</ele>
        <time>2020-06-28T18:26:00Z</time>
      </trkpt>
      <trkpt lat="48.7246" lon="7.07328">
        <ele>255.3</ele>
        <time>2020-06-28T18:26:01Z</time>
      </trkpt>
      <trkpt lat="48.72463" lon="7.07323">
        <ele>255.4</ele>
        <time>2020-06-28T18:26:02Z</time>
      </trkpt>
      <trkpt lat="48.72467" lon="7.07317">
        <ele>255.4</ele>
        <time>2020-06-28T18:26:03Z</time>
      </trkpt>
      <trkpt lat="48.7247" lon="7.07312">
        <ele>255.4</ele>
        <time>2020-06-28T18:26:04Z</time>
      </trkpt>
      <trkpt lat="48.72474" lon="7.07307">
        <ele>255.4</ele>
        <time>2020-06-28T18:26:05Z</time>
      </trkpt>
      <trkpt lat="48.72477" lon="7.07301">
        <ele>255.5</ele>
        <time>2020-06-28T18:26:06Z</time>
      </trkpt>
      <trkpt lat="48.72482" lon="7.07295">
        <ele>255.5</ele>
        <time>2020-06-28T18:26:07Z</time>
      </trkpt>
      <trkpt lat="48.72485" lon="7.0729">
        <ele>255.5</ele>
        <time>2020-06-28T18:26:08Z</time>
      </trkpt>
      <trkpt lat="48.7249" lon="7.07285">
        <ele>255.6</ele>
        <time>2020-06-28T18:26:09Z</time>
      </trkpt>
      <trkpt lat="48.72494" lon="7.07279">
        <ele>255.6</ele>
        <time>2020-06-28T18:26:10Z</time>
      </trkpt>
      <trkpt lat="48.72498" lon="7.07274">
        <ele>255.7</ele>
        <time>2020-06-28T18:26:11Z</time>
      </trkpt>
      <trkpt lat="48.72503" lon="7.07269">
        <ele>255.7</ele>
        <time>2020-06-28T18:26:12Z</time>
      </trkpt>
      <trkpt lat="48.72507" lon="7.07264">
        <ele>255.7</ele>
        <time>2020-06-28T18:26:13Z</time>
      </trkpt>
      <trkpt lat="48.7251" lon="7.07259">
        <ele>255.8</ele>
        <time>2020-06-28T18:26:14Z</time>
      </trkpt>
      <trkpt lat="48.72515" lon="7.07253">
        <ele>255.8</ele>
        <time>2020-06-28T18:26:15Z</time>
      </trkpt>
      <trkpt lat="48.7252" lon="7.07248">
        <ele>255.8</ele>
        <time>2020-06-28T18:26:16Z</time>
      </trkpt>
      <trkpt lat="48.72523" lon="7.07243">
        <ele>255.8</ele>
        <time>2020-06-28T18:26:17Z</time>
      </trkpt>
      <trkpt lat="48.72527" lon="7.07238">
        <ele>255.9</ele>
        <time>2020-06-28T18:26:18Z</time>
      </trkpt>
      <trkpt lat="48.72532" lon="7.07234">
        <ele>255.9</ele>
        <time>2020-06-28T18:26:19Z</time>
      </trkpt>
      <trkpt lat="48.72536" lon="7.07229">
        <ele>256</ele>
        <time>2020-06-28T18:26:20Z</time>
      </trkpt>
      <trkpt lat="48.72539" lon="7.07225">
        <ele>256</ele>
        <time>2020-06-28T18:26:21Z</time>
      </trkpt>
      <trkpt lat="48.72542" lon="7.07221">
        <ele>256.1</ele>
        <time>2020-06-28T18:26:22Z</time>
      </trkpt>
      <trkpt lat="48.72546" lon="7.07216">
        <ele>256.1</ele>
        <time>2020-06-28T18:26:23Z</time>
      </trkpt>
      <trkpt lat="48.7255" lon="7.07211">
        <ele>256.2</ele>
        <time>2020-06-28T18:26:24Z</time>
      </trkpt>
      <trkpt lat="48.72553" lon="7.07207">
        <ele>256.2</ele>
        <time>2020-06-28T18:26:25Z</time>
      </trkpt>
      <trkpt lat="48.72556" lon="7.07203">
        <ele>256.3</ele>
        <time>2020-06-28T18:26:26Z</time>
      </trkpt>
      <trkpt lat="48.7256" lon="7.07198">
        <ele>256.3</ele>
        <time>2020-06-28T18:26:27Z</time>
      </trkpt>
      <trkpt lat="48.72564" lon="7.07193">
        <ele>256.4</ele>
        <time>2020-06-28T18:26:28Z</time>
      </trkpt>
      <trkpt lat="48.72567" lon="7.07189">
        <ele>256.4</ele>
        <time>2020-06-28T18:26:29Z</time>
      </trkpt>
      <trkpt lat="48.7257" lon="7.07183">
        <ele>256.5</ele>
        <time>2020-06-28T18:26:30Z</time>
      </trkpt>
      <trkpt lat="48.72574" lon="7.07178">
        <ele>256.6</ele>
        <time>2020-06-28T18:26:31Z</time>
      </trkpt>
      <trkpt lat="48.72577" lon="7.07172">
        <ele>256.6</ele>
        <time>2020-06-28T18:26:32Z</time>
      </trkpt>
      <trkpt lat="48.7258" lon="7.07168">
        <ele>256.7</ele>
        <time>2020-06-28T18:26:33Z</time>
      </trkpt>
      <trkpt lat="48.72584" lon="7.07162">
        <ele>256.8</ele>
        <time>2020-06-28T18:26:34Z</time>
      </trkpt>
      <trkpt lat="48.72587" lon="7.07157">
        <ele>256.9</ele>
        <time>2020-06-28T18:26:35Z</time>
      </trkpt>
      <trkpt lat="48.7259" lon="7.07152">
        <ele>257</ele>
        <time>2020-06-28T18:26:36Z</time>
      </trkpt>
      <trkpt lat="48.72593" lon="7.07147">
        <ele>257.2</ele>
        <time>2020-06-28T18:26:37Z</time>
      </trkpt>
      <trkpt lat="48.72597" lon="7.07141">
        <ele>257.3</ele>
        <time>2020-06-28T18:26:38Z</time>
      </trkpt>
      <trkpt lat="48.72601" lon="7.07135">
        <ele>257.5</ele>
        <time>2020-06-28T18:26:39Z</time>
      </trkpt>
      <trkpt lat="48.72604" lon="7.07127">
        <ele>257.8</ele>
        <time>2020-06-28T18:26:40Z</time>
      </trkpt>
      <trkpt lat="48.72608" lon="7.07121">
        <ele>257.9</ele>
        <time>2020-06-28T18:26:41Z</time>
      </trkpt>
      <trkpt lat="48.7261" lon="7.07116">
        <ele>258</ele>
        <time>2020-06-28T18:26:42Z</time>
      </trkpt>
      <trkpt lat="48.72615" lon="7.0711">
        <ele>258.2</ele>
        <time>2020-06-28T18:26:43Z</time>
      </trkpt>
      <trkpt lat="48.72618" lon="7.07107">
        <ele>258.3</ele>
        <time>2020-06-28T18:26:44Z</time>
      </trkpt>
      <trkpt lat="48.72622" lon="7.07101">
        <ele>258.5</ele>
        <time>2020-06-28T18:26:45Z</time>
      </trkpt>
      <trkpt lat="48.72626" lon="7.07096">
        <ele>258.6</ele>
        <time>2020-06-28T18:26:46Z</time>
      </trkpt>
      <trkpt lat="48.72629" lon="7.07091">
        <ele>258.8</ele>
        <time>2020-06-28T18:26:47Z</time>
      </trkpt>
      <trkpt lat="48.72633" lon="7.07085">
        <ele>259.1</ele>
        <time>2020-06-28T18:26:48Z</time>
      </trkpt>
      <trkpt lat="48.72637" lon="7.0708">
        <ele>259.4</ele>
        <time>2020-06-28T18:26:49Z</time>
      </trkpt>
      <trkpt lat="48.72641" lon="7.07074">
        <ele>259.7</ele>
        <time>2020-06-28T18:26:50Z</time>
      </trkpt>
      <trkpt lat="48.72645" lon="7.07068">
        <ele>259.9</ele>
        <time>2020-06-28T18:26:51Z</time>
      </trkpt>
      <trkpt lat="48.72648" lon="7.07064">
        <ele>260.1</ele>
        <time>2020-06-28T18:26:52Z</time>
      </trkpt>
      <trkpt lat="48.72651" lon="7.0706">
        <ele>260.2</ele>
        <time>2020-06-28T18:26:53Z</time>
      </trkpt>
      <trkpt lat="48.72655" lon="7.07054">
        <ele>260.4</ele>
        <time>2020-06-28T18:26:54Z</time>
      </trkpt>
      <trkpt lat="48.72658" lon="7.07049">
        <ele>260.7</ele>
        <time>2020-06-28T18:26:55Z</time>
      </trkpt>
      <trkpt lat="48.72662" lon="7.07044">
        <ele>260.9</ele>
        <time>2020-06-28T18:26:56Z</time>
      </trkpt>
      <trkpt lat="48.72665" lon="7.07038">
        <ele>261.1</ele>
        <time>2020-06-28T18:26:57Z</time>
      </trkpt>
      <trkpt lat="48.72668" lon="7.07034">
        <ele>261.2</ele>
        <time>2020-06-28T18:26:58Z</time>
      </trkpt>
      <trkpt lat="48.72671" lon="7.0703">
        <ele>261.4</ele>
        <time>2020-06-28T18:26:59Z</time>
      </trkpt>
      <trkpt lat="48.72675" lon="7.07026">
        <ele>261.6</ele>
        <time>2020-06-28T18:27:00Z</time>
      </trkpt>
      <trkpt lat="48.72677" lon="7.07023">
        <ele>261.8</ele>
        <time>2020-06-28T18:27:01Z</time>
      </trkpt>
      <trkpt lat="48.72681" lon="7.07018">
        <ele>262</ele>
        <time>2020-06-28T18:27:02Z</time>
      </trkpt>
      <trkpt lat="48.72684" lon="7.07015">
        <ele>262.1</ele>
        <time>2020-06-28T18:27:03Z</time>
      </trkpt>
      <trkpt lat="48.72688" lon="7.0701">
        <ele>262.3</ele>
        <time>2020-06-28T18:27:04Z</time>
      </trkpt>
      <trkpt lat="48.72691" lon="7.07006">
        <ele>262.5</ele>
        <time>2020-06-28T18:27:05Z</time>
      </trkpt>
      <trkpt lat="48.72694" lon="7.07002">
        <ele>262.7</ele>
        <time>2020-06-28T18:27:06Z</time>
      </trkpt>
      <trkpt lat="48.72697" lon="7.06998">
        <ele>262.9</ele>
        <time>2020-06-28T18:27:07Z</time>
      </trkpt>
      <trkpt lat="48.72701" lon="7.06994">
        <ele>263.1</ele>
        <time>2020-06-28T18:27:08Z</time>
      </trkpt>
      <trkpt lat="48.72703" lon="7.0699">
        <ele>263.3</ele>
        <time>2020-06-28T18:27:09Z</time>
      </trkpt>
      <trkpt lat="48.72707" lon="7.06987">
        <ele>263.5</ele>
        <time>2020-06-28T18:27:10Z</time>
      </trkpt>
      <trkpt lat="48.72709" lon="7.06983">
        <ele>263.7</ele>
        <time>2020-06-28T18:27:11Z</time>
      </trkpt>
      <trkpt lat="48.72713" lon="7.06979">
        <ele>263.9</ele>
        <time>2020-06-28T18:27:12Z</time>
      </trkpt>
      <trkpt lat="48.72715" lon="7.06976">
        <ele>264</ele>
        <time>2020-06-28T18:27:13Z</time>
      </trkpt>
      <trkpt lat="48.72718" lon="7.06971">
        <ele>264.2</ele>
        <time>2020-06-28T18:27:14Z</time>
      </trkpt>
      <trkpt lat="48.72721" lon="7.06969">
        <ele>264.4</ele>
        <time>2020-06-28T18:27:15Z</time>
      </trkpt>
      <trkpt lat="48.72724" lon="7.06966">
        <ele>264.6</ele>
        <time>2020-06-28T18:27:16Z</time>
      </trkpt>
      <trkpt lat="48.72727" lon="7.06962">
        <ele>264.8</ele>
        <time>2020-06-28T18:27:17Z</time>
      </trkpt>
      <trkpt lat="48.7273" lon="7.06959">
        <ele>264.9</ele>
        <time>2020-06-28T18:27:18Z</time>
      </trkpt>
      <trkpt lat="48.72733" lon="7.06955">
        <ele>265.1</ele>
        <time>2020-06-28T18:27:19Z</time>
      </trkpt>
      <trkpt lat="48.72735" lon="7.06951">
        <ele>265.3</ele>
        <time>2020-06-28T18:27:20Z</time>
      </trkpt>
      <trkpt lat="48.72739" lon="7.06948">
        <ele>265.5</ele>
        <time>2020-06-28T18:27:21Z</time>
      </trkpt>
      <trkpt lat="48.72743" lon="7.06942">
        <ele>265.7</ele>
        <time>2020-06-28T18:27:22Z</time>
      </trkpt>
      <trkpt lat="48.72746" lon="7.06938">
        <ele>265.9</ele>
        <time>2020-06-28T18:27:23Z</time>
      </trkpt>
      <trkpt lat="48.72748" lon="7.06935">
        <ele>266</ele>
        <time>2020-06-28T18:27:24Z</time>
      </trkpt>
      <trkpt lat="48.72752" lon="7.06931">
        <ele>266.2</ele>
        <time>2020-06-28T18:27:25Z</time>
      </trkpt>
      <trkpt lat="48.72754" lon="7.0693">
        <ele>266.3</ele>
        <time>2020-06-28T18:27:26Z</time>
      </trkpt>
      <trkpt lat="48.72757" lon="7.06927">
        <ele>266.5</ele>
        <time>2020-06-28T18:27:27Z</time>
      </trkpt>
      <trkpt lat="48.7276" lon="7.06923">
        <ele>266.6</ele>
        <time>2020-06-28T18:27:28Z</time>
      </trkpt>
      <trkpt lat="48.72764" lon="7.0692">
        <ele>266.8</ele>
        <time>2020-06-28T18:27:29Z</time>
      </trkpt>
      <trkpt lat="48.72766" lon="7.06916">
        <ele>266.9</ele>
        <time>2020-06-28T18:27:30Z</time>
      </trkpt>
      <trkpt lat="48.72768" lon="7.06912">
        <ele>267</ele>
        <time>2020-06-28T18:27:31Z</time>
      </trkpt>
      <trkpt lat="48.72771" lon="7.06909">
        <ele>267.1</ele>
        <time>2020-06-28T18:27:32Z</time>
      </trkpt>
      <trkpt lat="48.72775" lon="7.06904">
        <ele>267.2</ele>
        <time>2020-06-28T18:27:33Z</time>
      </trkpt>
      <trkpt lat="48.72778" lon="7.06901">
        <ele>267.3</ele>
        <time>2020-06-28T18:27:34Z</time>
      </trkpt>
      <trkpt lat="48.7278" lon="7.06898">
        <ele>267.3</ele>
        <time>2020-06-28T18:27:35Z</time>
      </trkpt>
      <trkpt lat="48.72782" lon="7.06895">
        <ele>267.3</ele>
        <time>2020-06-28T18:27:36Z</time>
      </trkpt>
      <trkpt lat="48.72785" lon="7.06891">
        <ele>267.3</ele>
        <time>2020-06-28T18:27:37Z</time>
      </trkpt>
      <trkpt lat="48.72787" lon="7.06887">
        <ele>267.3</ele>
        <time>2020-06-28T18:27:38Z</time>
      </trkpt>
      <trkpt lat="48.72789" lon="7.06883">
        <ele>267.3</ele>
        <time>2020-06-28T18:27:39Z</time>
      </trkpt>
      <trkpt lat="48.72791" lon="7.06879">
        <ele>267.3</ele>
        <time>2020-06-28T18:27:40Z</time>
      </trkpt>
      <trkpt lat="48.72794" lon="7.06875">
        <ele>267.3</ele>
        <time>2020-06-28T18:27:41Z</time>
      </trkpt>
      <trkpt lat="48.72797" lon="7.06871">
        <ele>267.2</ele>
        <time>2020-06-28T18:27:42Z</time>
      </trkpt>
      <trkpt lat="48.72799" lon="7.06868">
        <ele>267.2</ele>
        <time>2020-06-28T18:27:43Z</time>
      </trkpt>
      <trkpt lat="48.72802" lon="7.06865">
        <ele>267.1</ele>
        <time>2020-06-28T18:27:44Z</time>
      </trkpt>
      <trkpt lat="48.72806" lon="7.06863">
        <ele>267</ele>
        <time>2020-06-28T18:27:45Z</time>
      </trkpt>
      <trkpt lat="48.72809" lon="7.0686">
        <ele>267</ele>
        <time>2020-06-28T18:27:46Z</time>
      </trkpt>
      <trkpt lat="48.72812" lon="7.06855">
        <ele>266.8</ele>
        <time>2020-06-28T18:27:47Z</time>
      </trkpt>
      <trkpt lat="48.72815" lon="7.06851">
        <ele>266.7</ele>
        <time>2020-06-28T18:27:48Z</time>
      </trkpt>
      <trkpt lat="48.72817" lon="7.06847">
        <ele>266.6</ele>
        <time>2020-06-28T18:27:49Z</time>
      </trkpt>
      <trkpt lat="48.7282" lon="7.06844">
        <ele>266.5</ele>
        <time>2020-06-28T18:27:50Z</time>
      </trkpt>
      <trkpt lat="48.72822" lon="7.06842">
        <ele>266.4</ele>
        <time>2020-06-28T18:27:51Z</time>
      </trkpt>
      <trkpt lat="48.72827" lon="7.06837">
        <ele>266.3</ele>
        <time>2020-06-28T18:27:52Z</time>
      </trkpt>
      <trkpt lat="48.72829" lon="7.06834">
        <ele>266.2</ele>
        <time>2020-06-28T18:27:53Z</time>
      </trkpt>
      <trkpt lat="48.72833" lon="7.0683">
        <ele>266</ele>
        <time>2020-06-28T18:27:54Z</time>
      </trkpt>
      <trkpt lat="48.72837" lon="7.06825">
        <ele>265.8</ele>
        <time>2020-06-28T18:27:55Z</time>
      </trkpt>
      <trkpt lat="48.7284" lon="7.06821">
        <ele>265.6</ele>
        <time>2020-06-28T18:27:56Z</time>
      </trkpt>
      <trkpt lat="48.72843" lon="7.06818">
        <ele>265.4</ele>
        <time>2020-06-28T18:27:57Z</time>
      </trkpt>
      <trkpt lat="48.72847" lon="7.06814">
        <ele>265.2</ele>
        <time>2020-06-28T18:27:58Z</time>
      </trkpt>
      <trkpt lat="48.7285" lon="7.0681">
        <ele>265</ele>
        <time>2020-06-28T18:27:59Z</time>
      </trkpt>
      <trkpt lat="48.72854" lon="7.06805">
        <ele>264.7</ele>
        <time>2020-06-28T18:28:00Z</time>
      </trkpt>
      <trkpt lat="48.72857" lon="7.068">
        <ele>264.5</ele>
        <time>2020-06-28T18:28:01Z</time>
      </trkpt>
      <trkpt lat="48.7286" lon="7.06796">
        <ele>264.3</ele>
        <time>2020-06-28T18:28:02Z</time>
      </trkpt>
      <trkpt lat="48.72863" lon="7.06792">
        <ele>264.2</ele>
        <time>2020-06-28T18:28:03Z</time>
      </trkpt>
      <trkpt lat="48.72866" lon="7.06788">
        <ele>264.1</ele>
        <time>2020-06-28T18:28:04Z</time>
      </trkpt>
      <trkpt lat="48.72869" lon="7.06785">
        <ele>263.9</ele>
        <time>2020-06-28T18:28:05Z</time>
      </trkpt>
      <trkpt lat="48.72873" lon="7.0678">
        <ele>263.7</ele>
        <time>2020-06-28T18:28:06Z</time>
      </trkpt>
      <trkpt lat="48.72877" lon="7.06775">
        <ele>263.5</ele>
        <time>2020-06-28T18:28:07Z</time>
      </trkpt>
      <trkpt lat="48.7288" lon="7.0677">
        <ele>263.3</ele>
        <time>2020-06-28T18:28:08Z</time>
      </trkpt>
      <trkpt lat="48.72885" lon="7.06764">
        <ele>263</ele>
        <time>2020-06-28T18:28:09Z</time>
      </trkpt>
      <trkpt lat="48.72889" lon="7.06759">
        <ele>262.8</ele>
        <time>2020-06-28T18:28:10Z</time>
      </trkpt>
      <trkpt lat="48.72894" lon="7.06753">
        <ele>262.5</ele>
        <time>2020-06-28T18:28:11Z</time>
      </trkpt>
      <trkpt lat="48.72897" lon="7.06748">
        <ele>262.4</ele>
        <time>2020-06-28T18:28:12Z</time>
      </trkpt>
      <trkpt lat="48.72901" lon="7.06744">
        <ele>262.4</ele>
        <time>2020-06-28T18:28:13Z</time>
      </trkpt>
      <trkpt lat="48.72904" lon="7.0674">
        <ele>262.4</ele>
        <time>2020-06-28T18:28:14Z</time>
      </trkpt>
      <trkpt lat="48.72908" lon="7.06735">
        <ele>262.4</ele>
        <time>2020-06-28T18:28:15Z</time>
      </trkpt>
      <trkpt lat="48.72912" lon="7.06729">
        <ele>262.2</ele>
        <time>2020-06-28T18:28:16Z</time>
      </trkpt>
      <trkpt lat="48.72916" lon="7.06724">
        <ele>262.1</ele>
        <time>2020-06-28T18:28:17Z</time>
      </trkpt>
      <trkpt lat="48.72921" lon="7.06718">
        <ele>261.9</ele>
        <time>2020-06-28T18:28:18Z</time>
      </trkpt>
      <trkpt lat="48.72926" lon="7.06713">
        <ele>261.8</ele>
        <time>2020-06-28T18:28:19Z</time>
      </trkpt>
      <trkpt lat="48.72931" lon="7.06706">
        <ele>261.6</ele>
        <time>2020-06-28T18:28:20Z</time>
      </trkpt>
      <trkpt lat="48.72935" lon="7.067">
        <ele>261.5</ele>
        <time>2020-06-28T18:28:21Z</time>
      </trkpt>
      <trkpt lat="48.72939" lon="7.06693">
        <ele>261.4</ele>
        <time>2020-06-28T18:28:22Z</time>
      </trkpt>
      <trkpt lat="48.72943" lon="7.06687">
        <ele>261.3</ele>
        <time>2020-06-28T18:28:23Z</time>
      </trkpt>
      <trkpt lat="48.72946" lon="7.06681">
        <ele>261.3</ele>
        <time>2020-06-28T18:28:24Z</time>
      </trkpt>
      <trkpt lat="48.72949" lon="7.06675">
        <ele>261.3</ele>
        <time>2020-06-28T18:28:25Z</time>
      </trkpt>
      <trkpt lat="48.72954" lon="7.06669">
        <ele>261.2</ele>
        <time>2020-06-28T18:28:26Z</time>
      </trkpt>
      <trkpt lat="48.72957" lon="7.06663">
        <ele>261.2</ele>
        <time>2020-06-28T18:28:27Z</time>
      </trkpt>
      <trkpt lat="48.72961" lon="7.06657">
        <ele>261.2</ele>
        <time>2020-06-28T18:28:28Z</time>
      </trkpt>
      <trkpt lat="48.72965" lon="7.0665">
        <ele>261.2</ele>
        <time>2020-06-28T18:28:29Z</time>
      </trkpt>
      <trkpt lat="48.72969" lon="7.06644">
        <ele>261.2</ele>
        <time>2020-06-28T18:28:30Z</time>
      </trkpt>
      <trkpt lat="48.72973" lon="7.06638">
        <ele>261.2</ele>
        <time>2020-06-28T18:28:31Z</time>
      </trkpt>
      <trkpt lat="48.72977" lon="7.06634">
        <ele>261.3</ele>
        <time>2020-06-28T18:28:32Z</time>
      </trkpt>
      <trkpt lat="48.72982" lon="7.0663">
        <ele>261.3</ele>
        <time>2020-06-28T18:28:33Z</time>
      </trkpt>
      <trkpt lat="48.72987" lon="7.06625">
        <ele>261.4</ele>
        <time>2020-06-28T18:28:34Z</time>
      </trkpt>
      <trkpt lat="48.72991" lon="7.06621">
        <ele>261.6</ele>
        <time>2020-06-28T18:28:35Z</time>
      </trkpt>
      <trkpt lat="48.72997" lon="7.06616">
        <ele>261.7</ele>
        <time>2020-06-28T18:28:36Z</time>
      </trkpt>
      <trkpt lat="48.73" lon="7.06611">
        <ele>261.9</ele>
        <time>2020-06-28T18:28:37Z</time>
      </trkpt>
      <trkpt lat="48.73005" lon="7.06607">
        <ele>262</ele>
        <time>2020-06-28T18:28:38Z</time>
      </trkpt>
      <trkpt lat="48.73011" lon="7.06603">
        <ele>262.3</ele>
        <time>2020-06-28T18:28:39Z</time>
      </trkpt>
      <trkpt lat="48.73017" lon="7.06599">
        <ele>262.6</ele>
        <time>2020-06-28T18:28:40Z</time>
      </trkpt>
      <trkpt lat="48.73022" lon="7.06595">
        <ele>262.9</ele>
        <time>2020-06-28T18:28:41Z</time>
      </trkpt>
      <trkpt lat="48.73028" lon="7.06592">
        <ele>263.2</ele>
        <time>2020-06-28T18:28:42Z</time>
      </trkpt>
      <trkpt lat="48.73033" lon="7.06589">
        <ele>263.5</ele>
        <time>2020-06-28T18:28:43Z</time>
      </trkpt>
      <trkpt lat="48.73037" lon="7.06586">
        <ele>263.7</ele>
        <time>2020-06-28T18:28:44Z</time>
      </trkpt>
      <trkpt lat="48.73041" lon="7.06582">
        <ele>264</ele>
        <time>2020-06-28T18:28:45Z</time>
      </trkpt>
      <trkpt lat="48.73044" lon="7.06578">
        <ele>264.2</ele>
        <time>2020-06-28T18:28:46Z</time>
      </trkpt>
      <trkpt lat="48.73047" lon="7.06574">
        <ele>264.5</ele>
        <time>2020-06-28T18:28:47Z</time>
      </trkpt>
      <trkpt lat="48.7305" lon="7.0657">
        <ele>264.7</ele>
        <time>2020-06-28T18:28:48Z</time>
      </trkpt>
      <trkpt lat="48.73052" lon="7.06565">
        <ele>265</ele>
        <time>2020-06-28T18:28:49Z</time>
      </trkpt>
      <trkpt lat="48.73055" lon="7.0656">
        <ele>265.3</ele>
        <time>2020-06-28T18:28:50Z</time>
      </trkpt>
      <trkpt lat="48.73058" lon="7.06555">
        <ele>265.6</ele>
        <time>2020-06-28T18:28:51Z</time>
      </trkpt>
      <trkpt lat="48.7306" lon="7.06551">
        <ele>265.8</ele>
        <time>2020-06-28T18:28:52Z</time>
      </trkpt>
      <trkpt lat="48.73063" lon="7.06547">
        <ele>266.1</ele>
        <time>2020-06-28T18:28:53Z</time>
      </trkpt>
      <trkpt lat="48.73064" lon="7.06545">
        <ele>266.2</ele>
        <time>2020-06-28T18:28:54Z</time>
      </trkpt>
      <trkpt lat="48.73066" lon="7.06542">
        <ele>266.4</ele>
        <time>2020-06-28T18:28:55Z</time>
      </trkpt>
      <trkpt lat="48.73068" lon="7.06537">
        <ele>266.7</ele>
        <time>2020-06-28T18:28:56Z</time>
      </trkpt>
      <trkpt lat="48.7307" lon="7.06532">
        <ele>267</ele>
        <time>2020-06-28T18:28:57Z</time>
      </trkpt>
      <trkpt lat="48.73072" lon="7.06528">
        <ele>267.2</ele>
        <time>2020-06-28T18:28:58Z</time>
      </trkpt>
      <trkpt lat="48.73074" lon="7.06523">
        <ele>267.5</ele>
        <time>2020-06-28T18:28:59Z</time>
      </trkpt>
      <trkpt lat="48.73075" lon="7.06519">
        <ele>267.7</ele>
        <time>2020-06-28T18:29:00Z</time>
      </trkpt>
      <trkpt lat="48.73076" lon="7.06515">
        <ele>268</ele>
        <time>2020-06-28T18:29:01Z</time>
      </trkpt>
      <trkpt lat="48.73077" lon="7.06511">
        <ele>268.2</ele>
        <time>2020-06-28T18:29:02Z</time>
      </trkpt>
      <trkpt lat="48.73078" lon="7.06506">
        <ele>268.4</ele>
        <time>2020-06-28T18:29:03Z</time>
      </trkpt>
      <trkpt lat="48.73079" lon="7.06501">
        <ele>268.7</ele>
        <time>2020-06-28T18:29:04Z</time>
      </trkpt>
      <trkpt lat="48.73081" lon="7.06496">
        <ele>269</ele>
        <time>2020-06-28T18:29:05Z</time>
      </trkpt>
      <trkpt lat="48.73081" lon="7.06494">
        <ele>269.1</ele>
        <time>2020-06-28T18:29:06Z</time>
      </trkpt>
      <trkpt lat="48.73083" lon="7.06491">
        <ele>269.4</ele>
        <time>2020-06-28T18:29:07Z</time>
      </trkpt>
      <trkpt lat="48.73085" lon="7.06486">
        <ele>269.6</ele>
        <time>2020-06-28T18:29:08Z</time>
      </trkpt>
      <trkpt lat="48.73087" lon="7.06482">
        <ele>269.9</ele>
        <time>2020-06-28T18:29:09Z</time>
      </trkpt>
      <trkpt lat="48.73089" lon="7.06477">
        <ele>270.2</ele>
        <time>2020-06-28T18:29:10Z</time>
      </trkpt>
      <trkpt lat="48.73089" lon="7.06475">
        <ele>270.3</ele>
        <time>2020-06-28T18:29:11Z</time>
      </trkpt>
      <trkpt lat="48.73091" lon="7.06471">
        <ele>270.5</ele>
        <time>2020-06-28T18:29:12Z</time>
      </trkpt>
      <trkpt lat="48.73092" lon="7.06467">
        <ele>270.8</ele>
        <time>2020-06-28T18:29:13Z</time>
      </trkpt>
      <trkpt lat="48.73094" lon="7.06464">
        <ele>271</ele>
        <time>2020-06-28T18:29:14Z</time>
      </trkpt>
      <trkpt lat="48.73096" lon="7.0646">
        <ele>271.2</ele>
        <time>2020-06-28T18:29:15Z</time>
      </trkpt>
      <trkpt lat="48.73097" lon="7.06456">
        <ele>271.5</ele>
        <time>2020-06-28T18:29:16Z</time>
      </trkpt>
      <trkpt lat="48.73099" lon="7.06453">
        <ele>271.7</ele>
        <time>2020-06-28T18:29:17Z</time>
      </trkpt>
      <trkpt lat="48.731" lon="7.06446">
        <ele>272.1</ele>
        <time>2020-06-28T18:29:18Z</time>
      </trkpt>
      <trkpt lat="48.73102" lon="7.06442">
        <ele>272.4</ele>
        <time>2020-06-28T18:29:19Z</time>
      </trkpt>
      <trkpt lat="48.73103" lon="7.06437">
        <ele>272.7</ele>
        <time>2020-06-28T18:29:20Z</time>
      </trkpt>
      <trkpt lat="48.73104" lon="7.06435">
        <ele>272.8</ele>
        <time>2020-06-28T18:29:21Z</time>
      </trkpt>
      <trkpt lat="48.73106" lon="7.0643">
        <ele>273.1</ele>
        <time>2020-06-28T18:29:22Z</time>
      </trkpt>
      <trkpt lat="48.73107" lon="7.06429">
        <ele>273.2</ele>
        <time>2020-06-28T18:29:23Z</time>
      </trkpt>
      <trkpt lat="48.73108" lon="7.06425">
        <ele>273.4</ele>
        <time>2020-06-28T18:29:24Z</time>
      </trkpt>
      <trkpt lat="48.73109" lon="7.0642">
        <ele>273.7</ele>
        <time>2020-06-28T18:29:25Z</time>
      </trkpt>
      <trkpt lat="48.73111" lon="7.06416">
        <ele>274</ele>
        <time>2020-06-28T18:29:26Z</time>
      </trkpt>
      <trkpt lat="48.73112" lon="7.06414">
        <ele>274.1</ele>
        <time>2020-06-28T18:29:27Z</time>
      </trkpt>
      <trkpt lat="48.73114" lon="7.06409">
        <ele>274.3</ele>
        <time>2020-06-28T18:29:28Z</time>
      </trkpt>
      <trkpt lat="48.73114" lon="7.06408">
        <ele>274.4</ele>
        <time>2020-06-28T18:29:29Z</time>
      </trkpt>
      <trkpt lat="48.73115" lon="7.06406">
        <ele>274.5</ele>
        <time>2020-06-28T18:29:30Z</time>
      </trkpt>
      <trkpt lat="48.73116" lon="7.06404">
        <ele>274.7</ele>
        <time>2020-06-28T18:29:31Z</time>
      </trkpt>
      <trkpt lat="48.73119" lon="7.064">
        <ele>274.9</ele>
        <time>2020-06-28T18:29:32Z</time>
      </trkpt>
      <trkpt lat="48.73119" lon="7.06398">
        <ele>275</ele>
        <time>2020-06-28T18:29:33Z</time>
      </trkpt>
      <trkpt lat="48.73123" lon="7.06395">
        <ele>275.3</ele>
        <time>2020-06-28T18:29:34Z</time>
      </trkpt>
      <trkpt lat="48.73124" lon="7.06394">
        <ele>275.4</ele>
        <time>2020-06-28T18:29:35Z</time>
      </trkpt>
      <trkpt lat="48.73127" lon="7.06392">
        <ele>275.7</ele>
        <time>2020-06-28T18:29:36Z</time>
      </trkpt>
      <trkpt lat="48.73129" lon="7.06388">
        <ele>275.9</ele>
        <time>2020-06-28T18:29:37Z</time>
      </trkpt>
      <trkpt lat="48.73129" lon="7.06382">
        <ele>276.2</ele>
        <time>2020-06-28T18:29:38Z</time>
      </trkpt>
      <trkpt lat="48.73129" lon="7.06377">
        <ele>276.5</ele>
        <time>2020-06-28T18:29:39Z</time>
      </trkpt>
      <trkpt lat="48.7313" lon="7.06373">
        <ele>276.7</ele>
        <time>2020-06-28T18:29:40Z</time>
      </trkpt>
      <trkpt lat="48.73131" lon="7.06369">
        <ele>277</ele>
        <time>2020-06-28T18:29:41Z</time>
      </trkpt>
      <trkpt lat="48.73132" lon="7.06368">
        <ele>277</ele>
        <time>2020-06-28T18:29:42Z</time>
      </trkpt>
      <trkpt lat="48.73134" lon="7.06364">
        <ele>277.3</ele>
        <time>2020-06-28T18:29:43Z</time>
      </trkpt>
      <trkpt lat="48.73135" lon="7.0636">
        <ele>277.5</ele>
        <time>2020-06-28T18:29:44Z</time>
      </trkpt>
      <trkpt lat="48.73137" lon="7.06356">
        <ele>277.8</ele>
        <time>2020-06-28T18:29:45Z</time>
      </trkpt>
      <trkpt lat="48.73138" lon="7.06352">
        <ele>277.9</ele>
        <time>2020-06-28T18:29:46Z</time>
      </trkpt>
      <trkpt lat="48.7314" lon="7.06347">
        <ele>278.2</ele>
        <time>2020-06-28T18:29:47Z</time>
      </trkpt>
      <trkpt lat="48.73141" lon="7.06345">
        <ele>278.4</ele>
        <time>2020-06-28T18:29:48Z</time>
      </trkpt>
      <trkpt lat="48.73143" lon="7.0634">
        <ele>278.6</ele>
        <time>2020-06-28T18:29:49Z</time>
      </trkpt>
      <trkpt lat="48.73144" lon="7.06338">
        <ele>278.7</ele>
        <time>2020-06-28T18:29:50Z</time>
      </trkpt>
      <trkpt lat="48.73145" lon="7.06335">
        <ele>278.9</ele>
        <time>2020-06-28T18:29:51Z</time>
      </trkpt>
      <trkpt lat="48.73148" lon="7.0633">
        <ele>279.3</ele>
        <time>2020-06-28T18:29:52Z</time>
      </trkpt>
      <trkpt lat="48.73148" lon="7.06328">
        <ele>279.4</ele>
        <time>2020-06-28T18:29:53Z</time>
      </trkpt>
      <trkpt lat="48.7315" lon="7.06324">
        <ele>279.6</ele>
        <time>2020-06-28T18:29:54Z</time>
      </trkpt>
      <trkpt lat="48.73151" lon="7.0632">
        <ele>279.9</ele>
        <time>2020-06-28T18:29:55Z</time>
      </trkpt>
      <trkpt lat="48.73153" lon="7.06315">
        <ele>280.2</ele>
        <time>2020-06-28T18:29:56Z</time>
      </trkpt>
      <trkpt lat="48.73154" lon="7.06313">
        <ele>280.3</ele>
        <time>2020-06-28T18:29:57Z</time>
      </trkpt>
      <trkpt lat="48.73155" lon="7.06307">
        <ele>280.6</ele>
        <time>2020-06-28T18:29:58Z</time>
      </trkpt>
      <trkpt lat="48.73155" lon="7.06305">
        <ele>280.8</ele>
        <time>2020-06-28T18:29:59Z</time>
      </trkpt>
      <trkpt lat="48.73156" lon="7.06301">
        <ele>281</ele>
        <time>2020-06-28T18:30:00Z</time>
      </trkpt>
      <trkpt lat="48.73157" lon="7.06296">
        <ele>281.3</ele>
        <time>2020-06-28T18:30:01Z</time>
      </trkpt>
      <trkpt lat="48.7316" lon="7.0629">
        <ele>281.6</ele>
        <time>2020-06-28T18:30:02Z</time>
      </trkpt>
      <trkpt lat="48.73161" lon="7.06286">
        <ele>281.8</ele>
        <time>2020-06-28T18:30:03Z</time>
      </trkpt>
      <trkpt lat="48.73161" lon="7.06282">
        <ele>282</ele>
        <time>2020-06-28T18:30:04Z</time>
      </trkpt>
      <trkpt lat="48.73164" lon="7.06279">
        <ele>282.2</ele>
        <time>2020-06-28T18:30:05Z</time>
      </trkpt>
      <trkpt lat="48.73165" lon="7.06279">
        <ele>282.2</ele>
        <time>2020-06-28T18:30:06Z</time>
      </trkpt>
      <trkpt lat="48.73165" lon="7.06273">
        <ele>282.5</ele>
        <time>2020-06-28T18:30:07Z</time>
      </trkpt>
      <trkpt lat="48.73165" lon="7.06271">
        <ele>282.6</ele>
        <time>2020-06-28T18:30:08Z</time>
      </trkpt>
      <trkpt lat="48.73167" lon="7.06267">
        <ele>282.7</ele>
        <time>2020-06-28T18:30:09Z</time>
      </trkpt>
      <trkpt lat="48.73167" lon="7.06263">
        <ele>282.8</ele>
        <time>2020-06-28T18:30:10Z</time>
      </trkpt>
      <trkpt lat="48.73168" lon="7.06257">
        <ele>282.9</ele>
        <time>2020-06-28T18:30:11Z</time>
      </trkpt>
      <trkpt lat="48.73169" lon="7.06255">
        <ele>283</ele>
        <time>2020-06-28T18:30:12Z</time>
      </trkpt>
      <trkpt lat="48.73169" lon="7.06251">
        <ele>283</ele>
        <time>2020-06-28T18:30:13Z</time>
      </trkpt>
      <trkpt lat="48.73169" lon="7.06246">
        <ele>283.1</ele>
        <time>2020-06-28T18:30:14Z</time>
      </trkpt>
      <trkpt lat="48.7317" lon="7.06241">
        <ele>283.2</ele>
        <time>2020-06-28T18:30:15Z</time>
      </trkpt>
      <trkpt lat="48.7317" lon="7.06237">
        <ele>283.3</ele>
        <time>2020-06-28T18:30:16Z</time>
      </trkpt>
      <trkpt lat="48.73171" lon="7.06233">
        <ele>283.4</ele>
        <time>2020-06-28T18:30:17Z</time>
      </trkpt>
      <trkpt lat="48.73171" lon="7.06228">
        <ele>283.4</ele>
        <time>2020-06-28T18:30:18Z</time>
      </trkpt>
      <trkpt lat="48.7317" lon="7.06223">
        <ele>283.4</ele>
        <time>2020-06-28T18:30:19Z</time>
      </trkpt>
      <trkpt lat="48.7317" lon="7.06219">
        <ele>283.4</ele>
        <time>2020-06-28T18:30:20Z</time>
      </trkpt>
      <trkpt lat="48.73171" lon="7.06213">
        <ele>283.4</ele>
        <time>2020-06-28T18:30:21Z</time>
      </trkpt>
      <trkpt lat="48.73171" lon="7.0621">
        <ele>283.4</ele>
        <time>2020-06-28T18:30:22Z</time>
      </trkpt>
      <trkpt lat="48.73171" lon="7.06206">
        <ele>283.3</ele>
        <time>2020-06-28T18:30:23Z</time>
      </trkpt>
      <trkpt lat="48.73172" lon="7.06201">
        <ele>283.2</ele>
        <time>2020-06-28T18:30:24Z</time>
      </trkpt>
      <trkpt lat="48.73172" lon="7.06195">
        <ele>283.1</ele>
        <time>2020-06-28T18:30:25Z</time>
      </trkpt>
      <trkpt lat="48.73171" lon="7.06193">
        <ele>283.1</ele>
        <time>2020-06-28T18:30:26Z</time>
      </trkpt>
      <trkpt lat="48.73172" lon="7.06188">
        <ele>283</ele>
        <time>2020-06-28T18:30:27Z</time>
      </trkpt>
      <trkpt lat="48.73172" lon="7.06186">
        <ele>282.9</ele>
        <time>2020-06-28T18:30:28Z</time>
      </trkpt>
      <trkpt lat="48.73172" lon="7.06181">
        <ele>282.8</ele>
        <time>2020-06-28T18:30:29Z</time>
      </trkpt>
      <trkpt lat="48.73171" lon="7.06179">
        <ele>282.7</ele>
        <time>2020-06-28T18:30:30Z</time>
      </trkpt>
      <trkpt lat="48.73171" lon="7.06177">
        <ele>282.7</ele>
        <time>2020-06-28T18:30:31Z</time>
      </trkpt>
      <trkpt lat="48.7317" lon="7.06175">
        <ele>282.6</ele>
        <time>2020-06-28T18:30:32Z</time>
      </trkpt>
      <trkpt lat="48.7317" lon="7.06171">
        <ele>282.5</ele>
        <time>2020-06-28T18:30:33Z</time>
      </trkpt>
      <trkpt lat="48.7317" lon="7.06169">
        <ele>282.4</ele>
        <time>2020-06-28T18:30:34Z</time>
      </trkpt>
      <trkpt lat="48.73169" lon="7.06167">
        <ele>282.3</ele>
        <time>2020-06-28T18:30:35Z</time>
      </trkpt>
      <trkpt lat="48.73169" lon="7.06165">
        <ele>282.3</ele>
        <time>2020-06-28T18:30:36Z</time>
      </trkpt>
      <trkpt lat="48.73169" lon="7.06164">
        <ele>282.2</ele>
        <time>2020-06-28T18:30:37Z</time>
      </trkpt>
      <trkpt lat="48.7317" lon="7.06162">
        <ele>282.2</ele>
        <time>2020-06-28T18:30:38Z</time>
      </trkpt>
      <trkpt lat="48.7317" lon="7.0616">
        <ele>282.1</ele>
        <time>2020-06-28T18:30:39Z</time>
      </trkpt>
      <trkpt lat="48.73171" lon="7.06156">
        <ele>281.9</ele>
        <time>2020-06-28T18:30:40Z</time>
      </trkpt>
      <trkpt lat="48.73171" lon="7.06154">
        <ele>281.9</ele>
        <time>2020-06-28T18:30:41Z</time>
      </trkpt>
      <trkpt lat="48.73172" lon="7.06151">
        <ele>281.7</ele>
        <time>2020-06-28T18:30:42Z</time>
      </trkpt>
      <trkpt lat="48.73173" lon="7.06149">
        <ele>281.7</ele>
        <time>2020-06-28T18:30:43Z</time>
      </trkpt>
      <trkpt lat="48.73173" lon="7.06147">
        <ele>281.6</ele>
        <time>2020-06-28T18:30:44Z</time>
      </trkpt>
      <trkpt lat="48.73173" lon="7.06147">
        <ele>281.6</ele>
        <time>2020-06-28T18:30:45Z</time>
      </trkpt>
      <trkpt lat="48.73174" lon="7.06146">
        <ele>281.5</ele>
        <time>2020-06-28T18:30:46Z</time>
      </trkpt>
      <trkpt lat="48.73174" lon="7.06145">
        <ele>281.5</ele>
        <time>2020-06-28T18:30:47Z</time>
      </trkpt>
      <trkpt lat="48.73174" lon="7.06145">
        <ele>281.5</ele>
        <time>2020-06-28T18:30:48Z</time>
      </trkpt>
      <trkpt lat="48.73174" lon="7.06144">
        <ele>281.4</ele>
        <time>2020-06-28T18:30:49Z</time>
      </trkpt>
      <trkpt lat="48.73174" lon="7.06143">
        <ele>281.4</ele>
        <time>2020-06-28T18:30:50Z</time>
      </trkpt>
      <trkpt lat="48.73174" lon="7.06142">
        <ele>281.4</ele>
        <time>2020-06-28T18:30:51Z</time>
      </trkpt>
      <trkpt lat="48.73175" lon="7.06142">
        <ele>281.3</ele>
        <time>2020-06-28T18:30:52Z</time>
      </trkpt>
      <trkpt lat="48.73175" lon="7.06141">
        <ele>281.3</ele>
        <time>2020-06-28T18:30:53Z</time>
      </trkpt>
      <trkpt lat="48.73175" lon="7.0614">
        <ele>281.3</ele>
        <time>2020-06-28T18:30:54Z</time>
      </trkpt>
      <trkpt lat="48.73175" lon="7.0614">
        <ele>281.3</ele>
        <time>2020-06-28T18:31:18Z</time>
      </trkpt>
      <trkpt lat="48.73175" lon="7.06139">
        <ele>281.2</ele>
        <time>2020-06-28T18:31:19Z</time>
      </trkpt>
      <trkpt lat="48.73177" lon="7.06135">
        <ele>281</ele>
        <time>2020-06-28T18:31:20Z</time>
      </trkpt>
      <trkpt lat="48.73178" lon="7.06129">
        <ele>280.8</ele>
        <time>2020-06-28T18:31:21Z</time>
      </trkpt>
      <trkpt lat="48.73179" lon="7.06124">
        <ele>280.6</ele>
        <time>2020-06-28T18:31:22Z</time>
      </trkpt>
      <trkpt lat="48.73179" lon="7.06118">
        <ele>280.3</ele>
        <time>2020-06-28T18:31:23Z</time>
      </trkpt>
      <trkpt lat="48.7318" lon="7.06112">
        <ele>280</ele>
        <time>2020-06-28T18:31:24Z</time>
      </trkpt>
      <trkpt lat="48.73181" lon="7.06106">
        <ele>279.8</ele>
        <time>2020-06-28T18:31:25Z</time>
      </trkpt>
      <trkpt lat="48.73182" lon="7.061">
        <ele>279.5</ele>
        <time>2020-06-28T18:31:26Z</time>
      </trkpt>
      <trkpt lat="48.73182" lon="7.06093">
        <ele>279.2</ele>
        <time>2020-06-28T18:31:27Z</time>
      </trkpt>
      <trkpt lat="48.73183" lon="7.06088">
        <ele>279</ele>
        <time>2020-06-28T18:31:28Z</time>
      </trkpt>
      <trkpt lat="48.73185" lon="7.06083">
        <ele>278.7</ele>
        <time>2020-06-28T18:31:29Z</time>
      </trkpt>
      <trkpt lat="48.73186" lon="7.06077">
        <ele>278.4</ele>
        <time>2020-06-28T18:31:30Z</time>
      </trkpt>
      <trkpt lat="48.73187" lon="7.0607">
        <ele>278.2</ele>
        <time>2020-06-28T18:31:31Z</time>
      </trkpt>
      <trkpt lat="48.73188" lon="7.06064">
        <ele>277.9</ele>
        <time>2020-06-28T18:31:32Z</time>
      </trkpt>
      <trkpt lat="48.7319" lon="7.06058">
        <ele>277.6</ele>
        <time>2020-06-28T18:31:33Z</time>
      </trkpt>
      <trkpt lat="48.73191" lon="7.06052">
        <ele>277.4</ele>
        <time>2020-06-28T18:31:34Z</time>
      </trkpt>
      <trkpt lat="48.73193" lon="7.06047">
        <ele>277.1</ele>
        <time>2020-06-28T18:31:35Z</time>
      </trkpt>
      <trkpt lat="48.73194" lon="7.06042">
        <ele>276.8</ele>
        <time>2020-06-28T18:31:36Z</time>
      </trkpt>
      <trkpt lat="48.73195" lon="7.06036">
        <ele>276.4</ele>
        <time>2020-06-28T18:31:37Z</time>
      </trkpt>
      <trkpt lat="48.73197" lon="7.0603">
        <ele>276</ele>
        <time>2020-06-28T18:31:38Z</time>
      </trkpt>
      <trkpt lat="48.73198" lon="7.06022">
        <ele>275.6</ele>
        <time>2020-06-28T18:31:39Z</time>
      </trkpt>
      <trkpt lat="48.73199" lon="7.06016">
        <ele>275.2</ele>
        <time>2020-06-28T18:31:40Z</time>
      </trkpt>
      <trkpt lat="48.73201" lon="7.06009">
        <ele>274.7</ele>
        <time>2020-06-28T18:31:41Z</time>
      </trkpt>
      <trkpt lat="48.73203" lon="7.06003">
        <ele>274.3</ele>
        <time>2020-06-28T18:31:42Z</time>
      </trkpt>
      <trkpt lat="48.73205" lon="7.05997">
        <ele>273.9</ele>
        <time>2020-06-28T18:31:43Z</time>
      </trkpt>
      <trkpt lat="48.73208" lon="7.05989">
        <ele>273.7</ele>
        <time>2020-06-28T18:31:44Z</time>
      </trkpt>
      <trkpt lat="48.7321" lon="7.05983">
        <ele>273.5</ele>
        <time>2020-06-28T18:31:45Z</time>
      </trkpt>
      <trkpt lat="48.73213" lon="7.05976">
        <ele>273.3</ele>
        <time>2020-06-28T18:31:46Z</time>
      </trkpt>
      <trkpt lat="48.73216" lon="7.05969">
        <ele>273.1</ele>
        <time>2020-06-28T18:31:47Z</time>
      </trkpt>
      <trkpt lat="48.73218" lon="7.05963">
        <ele>272.9</ele>
        <time>2020-06-28T18:31:48Z</time>
      </trkpt>
      <trkpt lat="48.73221" lon="7.05956">
        <ele>272.7</ele>
        <time>2020-06-28T18:31:49Z</time>
      </trkpt>
      <trkpt lat="48.73223" lon="7.05949">
        <ele>272.5</ele>
        <time>2020-06-28T18:31:50Z</time>
      </trkpt>
      <trkpt lat="48.73226" lon="7.05942">
        <ele>272.4</ele>
        <time>2020-06-28T18:31:51Z</time>
      </trkpt>
      <trkpt lat="48.73229" lon="7.05936">
        <ele>272.2</ele>
        <time>2020-06-28T18:31:52Z</time>
      </trkpt>
      <trkpt lat="48.73232" lon="7.05931">
        <ele>272.1</ele>
        <time>2020-06-28T18:31:53Z</time>
      </trkpt>
      <trkpt lat="48.73237" lon="7.05928">
        <ele>271.9</ele>
        <time>2020-06-28T18:31:54Z</time>
      </trkpt>
      <trkpt lat="48.73241" lon="7.05922">
        <ele>271.7</ele>
        <time>2020-06-28T18:31:55Z</time>
      </trkpt>
      <trkpt lat="48.73245" lon="7.05917">
        <ele>271.4</ele>
        <time>2020-06-28T18:31:56Z</time>
      </trkpt>
      <trkpt lat="48.73249" lon="7.05913">
        <ele>271.2</ele>
        <time>2020-06-28T18:31:57Z</time>
      </trkpt>
      <trkpt lat="48.73251" lon="7.05907">
        <ele>271</ele>
        <time>2020-06-28T18:31:58Z</time>
      </trkpt>
      <trkpt lat="48.73253" lon="7.05903">
        <ele>270.8</ele>
        <time>2020-06-28T18:31:59Z</time>
      </trkpt>
      <trkpt lat="48.73255" lon="7.05898">
        <ele>270.6</ele>
        <time>2020-06-28T18:32:00Z</time>
      </trkpt>
      <trkpt lat="48.73257" lon="7.05894">
        <ele>270.4</ele>
        <time>2020-06-28T18:32:01Z</time>
      </trkpt>
      <trkpt lat="48.73259" lon="7.0589">
        <ele>270.2</ele>
        <time>2020-06-28T18:32:02Z</time>
      </trkpt>
      <trkpt lat="48.7326" lon="7.05885">
        <ele>270.1</ele>
        <time>2020-06-28T18:32:03Z</time>
      </trkpt>
      <trkpt lat="48.73261" lon="7.0588">
        <ele>269.9</ele>
        <time>2020-06-28T18:32:04Z</time>
      </trkpt>
      <trkpt lat="48.73262" lon="7.05876">
        <ele>269.8</ele>
        <time>2020-06-28T18:32:05Z</time>
      </trkpt>
      <trkpt lat="48.73264" lon="7.05871">
        <ele>269.6</ele>
        <time>2020-06-28T18:32:06Z</time>
      </trkpt>
      <trkpt lat="48.73267" lon="7.05866">
        <ele>269.4</ele>
        <time>2020-06-28T18:32:07Z</time>
      </trkpt>
      <trkpt lat="48.73269" lon="7.0586">
        <ele>269.1</ele>
        <time>2020-06-28T18:32:08Z</time>
      </trkpt>
      <trkpt lat="48.73272" lon="7.05852">
        <ele>268.8</ele>
        <time>2020-06-28T18:32:09Z</time>
      </trkpt>
      <trkpt lat="48.73275" lon="7.05845">
        <ele>268.5</ele>
        <time>2020-06-28T18:32:10Z</time>
      </trkpt>
      <trkpt lat="48.73277" lon="7.0584">
        <ele>268.2</ele>
        <time>2020-06-28T18:32:11Z</time>
      </trkpt>
      <trkpt lat="48.7328" lon="7.05835">
        <ele>267.9</ele>
        <time>2020-06-28T18:32:12Z</time>
      </trkpt>
      <trkpt lat="48.73283" lon="7.0583">
        <ele>267.7</ele>
        <time>2020-06-28T18:32:13Z</time>
      </trkpt>
      <trkpt lat="48.73285" lon="7.05825">
        <ele>267.4</ele>
        <time>2020-06-28T18:32:14Z</time>
      </trkpt>
      <trkpt lat="48.73288" lon="7.05818">
        <ele>267</ele>
        <time>2020-06-28T18:32:15Z</time>
      </trkpt>
      <trkpt lat="48.73291" lon="7.05812">
        <ele>266.7</ele>
        <time>2020-06-28T18:32:16Z</time>
      </trkpt>
      <trkpt lat="48.73293" lon="7.05807">
        <ele>266.4</ele>
        <time>2020-06-28T18:32:17Z</time>
      </trkpt>
      <trkpt lat="48.73296" lon="7.05803">
        <ele>266.1</ele>
        <time>2020-06-28T18:32:18Z</time>
      </trkpt>
      <trkpt lat="48.73297" lon="7.05798">
        <ele>265.9</ele>
        <time>2020-06-28T18:32:19Z</time>
      </trkpt>
      <trkpt lat="48.73299" lon="7.05794">
        <ele>265.6</ele>
        <time>2020-06-28T18:32:20Z</time>
      </trkpt>
      <trkpt lat="48.73302" lon="7.05789">
        <ele>265.3</ele>
        <time>2020-06-28T18:32:21Z</time>
      </trkpt>
      <trkpt lat="48.73304" lon="7.05783">
        <ele>265</ele>
        <time>2020-06-28T18:32:22Z</time>
      </trkpt>
      <trkpt lat="48.73306" lon="7.05778">
        <ele>264.7</ele>
        <time>2020-06-28T18:32:23Z</time>
      </trkpt>
      <trkpt lat="48.73309" lon="7.05774">
        <ele>264.5</ele>
        <time>2020-06-28T18:32:24Z</time>
      </trkpt>
      <trkpt lat="48.7331" lon="7.0577">
        <ele>264.3</ele>
        <time>2020-06-28T18:32:25Z</time>
      </trkpt>
      <trkpt lat="48.73313" lon="7.05766">
        <ele>264.1</ele>
        <time>2020-06-28T18:32:26Z</time>
      </trkpt>
      <trkpt lat="48.73314" lon="7.05763">
        <ele>263.9</ele>
        <time>2020-06-28T18:32:27Z</time>
      </trkpt>
      <trkpt lat="48.73316" lon="7.05758">
        <ele>263.7</ele>
        <time>2020-06-28T18:32:28Z</time>
      </trkpt>
      <trkpt lat="48.73317" lon="7.05757">
        <ele>263.6</ele>
        <time>2020-06-28T18:32:29Z</time>
      </trkpt>
      <trkpt lat="48.73318" lon="7.05754">
        <ele>263.5</ele>
        <time>2020-06-28T18:32:30Z</time>
      </trkpt>
      <trkpt lat="48.73319" lon="7.05753">
        <ele>263.4</ele>
        <time>2020-06-28T18:32:31Z</time>
      </trkpt>
      <trkpt lat="48.73319" lon="7.05751">
        <ele>263.1</ele>
        <time>2020-06-28T18:32:32Z</time>
      </trkpt>
      <trkpt lat="48.7332" lon="7.05749">
        <ele>263</ele>
        <time>2020-06-28T18:32:33Z</time>
      </trkpt>
      <trkpt lat="48.7332" lon="7.05747">
        <ele>262.9</ele>
        <time>2020-06-28T18:32:34Z</time>
      </trkpt>
      <trkpt lat="48.73319" lon="7.05744">
        <ele>262.7</ele>
        <time>2020-06-28T18:32:35Z</time>
      </trkpt>
      <trkpt lat="48.73318" lon="7.0574">
        <ele>262.5</ele>
        <time>2020-06-28T18:32:36Z</time>
      </trkpt>
      <trkpt lat="48.73317" lon="7.05736">
        <ele>262.3</ele>
        <time>2020-06-28T18:32:37Z</time>
      </trkpt>
      <trkpt lat="48.73316" lon="7.0573">
        <ele>262.1</ele>
        <time>2020-06-28T18:32:38Z</time>
      </trkpt>
      <trkpt lat="48.73315" lon="7.05724">
        <ele>261.8</ele>
        <time>2020-06-28T18:32:39Z</time>
      </trkpt>
      <trkpt lat="48.73314" lon="7.05718">
        <ele>261.5</ele>
        <time>2020-06-28T18:32:40Z</time>
      </trkpt>
      <trkpt lat="48.73311" lon="7.0571">
        <ele>261.2</ele>
        <time>2020-06-28T18:32:41Z</time>
      </trkpt>
      <trkpt lat="48.73309" lon="7.05703">
        <ele>260.8</ele>
        <time>2020-06-28T18:32:42Z</time>
      </trkpt>
      <trkpt lat="48.73306" lon="7.05695">
        <ele>260.5</ele>
        <time>2020-06-28T18:32:43Z</time>
      </trkpt>
      <trkpt lat="48.73303" lon="7.05687">
        <ele>260.1</ele>
        <time>2020-06-28T18:32:44Z</time>
      </trkpt>
      <trkpt lat="48.733" lon="7.05678">
        <ele>259.8</ele>
        <time>2020-06-28T18:32:45Z</time>
      </trkpt>
      <trkpt lat="48.73297" lon="7.0567">
        <ele>259.4</ele>
        <time>2020-06-28T18:32:46Z</time>
      </trkpt>
      <trkpt lat="48.73294" lon="7.05662">
        <ele>259.1</ele>
        <time>2020-06-28T18:32:47Z</time>
      </trkpt>
      <trkpt lat="48.73292" lon="7.05654">
        <ele>258.8</ele>
        <time>2020-06-28T18:32:48Z</time>
      </trkpt>
      <trkpt lat="48.7329" lon="7.05648">
        <ele>258.5</ele>
        <time>2020-06-28T18:32:49Z</time>
      </trkpt>
      <trkpt lat="48.73289" lon="7.05641">
        <ele>258.3</ele>
        <time>2020-06-28T18:32:50Z</time>
      </trkpt>
      <trkpt lat="48.73287" lon="7.05635">
        <ele>258.1</ele>
        <time>2020-06-28T18:32:51Z</time>
      </trkpt>
      <trkpt lat="48.73286" lon="7.05627">
        <ele>257.8</ele>
        <time>2020-06-28T18:32:52Z</time>
      </trkpt>
      <trkpt lat="48.73286" lon="7.05619">
        <ele>257.5</ele>
        <time>2020-06-28T18:32:53Z</time>
      </trkpt>
      <trkpt lat="48.73285" lon="7.05611">
        <ele>257.2</ele>
        <time>2020-06-28T18:32:54Z</time>
      </trkpt>
      <trkpt lat="48.73285" lon="7.05604">
        <ele>256.9</ele>
        <time>2020-06-28T18:32:55Z</time>
      </trkpt>
      <trkpt lat="48.73284" lon="7.05598">
        <ele>256.6</ele>
        <time>2020-06-28T18:32:56Z</time>
      </trkpt>
      <trkpt lat="48.73284" lon="7.0559">
        <ele>256.4</ele>
        <time>2020-06-28T18:32:57Z</time>
      </trkpt>
      <trkpt lat="48.73284" lon="7.05582">
        <ele>256.2</ele>
        <time>2020-06-28T18:32:58Z</time>
      </trkpt>
      <trkpt lat="48.73285" lon="7.05573">
        <ele>256</ele>
        <time>2020-06-28T18:32:59Z</time>
      </trkpt>
      <trkpt lat="48.73285" lon="7.05565">
        <ele>255.8</ele>
        <time>2020-06-28T18:33:00Z</time>
      </trkpt>
      <trkpt lat="48.73286" lon="7.05556">
        <ele>255.6</ele>
        <time>2020-06-28T18:33:01Z</time>
      </trkpt>
      <trkpt lat="48.73286" lon="7.05548">
        <ele>255.5</ele>
        <time>2020-06-28T18:33:02Z</time>
      </trkpt>
      <trkpt lat="48.73286" lon="7.0554">
        <ele>255.3</ele>
        <time>2020-06-28T18:33:03Z</time>
      </trkpt>
      <trkpt lat="48.73286" lon="7.05533">
        <ele>255.1</ele>
        <time>2020-06-28T18:33:04Z</time>
      </trkpt>
      <trkpt lat="48.73286" lon="7.05525">
        <ele>255</ele>
        <time>2020-06-28T18:33:05Z</time>
      </trkpt>
      <trkpt lat="48.73285" lon="7.05517">
        <ele>254.8</ele>
        <time>2020-06-28T18:33:06Z</time>
      </trkpt>
      <trkpt lat="48.73285" lon="7.05508">
        <ele>254.6</ele>
        <time>2020-06-28T18:33:07Z</time>
      </trkpt>
      <trkpt lat="48.73285" lon="7.055">
        <ele>254.5</ele>
        <time>2020-06-28T18:33:08Z</time>
      </trkpt>
      <trkpt lat="48.73286" lon="7.05491">
        <ele>254.3</ele>
        <time>2020-06-28T18:33:09Z</time>
      </trkpt>
      <trkpt lat="48.73286" lon="7.05483">
        <ele>254.2</ele>
        <time>2020-06-28T18:33:10Z</time>
      </trkpt>
      <trkpt lat="48.73287" lon="7.05474">
        <ele>254.1</ele>
        <time>2020-06-28T18:33:11Z</time>
      </trkpt>
      <trkpt lat="48.73287" lon="7.05466">
        <ele>254</ele>
        <time>2020-06-28T18:33:12Z</time>
      </trkpt>
      <trkpt lat="48.73287" lon="7.05459">
        <ele>253.9</ele>
        <time>2020-06-28T18:33:13Z</time>
      </trkpt>
      <trkpt lat="48.73287" lon="7.05451">
        <ele>253.8</ele>
        <time>2020-06-28T18:33:14Z</time>
      </trkpt>
      <trkpt lat="48.73286" lon="7.05444">
        <ele>253.7</ele>
        <time>2020-06-28T18:33:15Z</time>
      </trkpt>
      <trkpt lat="48.73286" lon="7.05436">
        <ele>253.6</ele>
        <time>2020-06-28T18:33:16Z</time>
      </trkpt>
      <trkpt lat="48.73286" lon="7.0543">
        <ele>253.5</ele>
        <time>2020-06-28T18:33:17Z</time>
      </trkpt>
      <trkpt lat="48.73286" lon="7.05423">
        <ele>253.4</ele>
        <time>2020-06-28T18:33:18Z</time>
      </trkpt>
      <trkpt lat="48.73286" lon="7.05416">
        <ele>253.3</ele>
        <time>2020-06-28T18:33:19Z</time>
      </trkpt>
      <trkpt lat="48.73286" lon="7.0541">
        <ele>253.2</ele>
        <time>2020-06-28T18:33:20Z</time>
      </trkpt>
      <trkpt lat="48.73286" lon="7.05404">
        <ele>253.1</ele>
        <time>2020-06-28T18:33:21Z</time>
      </trkpt>
      <trkpt lat="48.73286" lon="7.05398">
        <ele>253.1</ele>
        <time>2020-06-28T18:33:22Z</time>
      </trkpt>
      <trkpt lat="48.73286" lon="7.05394">
        <ele>253.1</ele>
        <time>2020-06-28T18:33:23Z</time>
      </trkpt>
      <trkpt lat="48.73285" lon="7.05389">
        <ele>253</ele>
        <time>2020-06-28T18:33:24Z</time>
      </trkpt>
      <trkpt lat="48.73283" lon="7.05386">
        <ele>253</ele>
        <time>2020-06-28T18:33:25Z</time>
      </trkpt>
      <trkpt lat="48.73281" lon="7.05383">
        <ele>253</ele>
        <time>2020-06-28T18:33:26Z</time>
      </trkpt>
      <trkpt lat="48.7328" lon="7.05382">
        <ele>253.1</ele>
        <time>2020-06-28T18:33:27Z</time>
      </trkpt>
      <trkpt lat="48.73276" lon="7.05382">
        <ele>253.1</ele>
        <time>2020-06-28T18:33:28Z</time>
      </trkpt>
      <trkpt lat="48.73272" lon="7.05382">
        <ele>253.2</ele>
        <time>2020-06-28T18:33:29Z</time>
      </trkpt>
      <trkpt lat="48.73268" lon="7.05382">
        <ele>253.3</ele>
        <time>2020-06-28T18:33:30Z</time>
      </trkpt>
      <trkpt lat="48.73265" lon="7.0538">
        <ele>253.4</ele>
        <time>2020-06-28T18:33:31Z</time>
      </trkpt>
      <trkpt lat="48.73261" lon="7.05379">
        <ele>253.4</ele>
        <time>2020-06-28T18:33:32Z</time>
      </trkpt>
      <trkpt lat="48.73257" lon="7.05377">
        <ele>253.6</ele>
        <time>2020-06-28T18:33:33Z</time>
      </trkpt>
      <trkpt lat="48.73253" lon="7.05375">
        <ele>253.7</ele>
        <time>2020-06-28T18:33:34Z</time>
      </trkpt>
      <trkpt lat="48.73248" lon="7.05374">
        <ele>253.8</ele>
        <time>2020-06-28T18:33:35Z</time>
      </trkpt>
      <trkpt lat="48.73244" lon="7.05371">
        <ele>253.8</ele>
        <time>2020-06-28T18:33:36Z</time>
      </trkpt>
      <trkpt lat="48.7324" lon="7.05367">
        <ele>253.7</ele>
        <time>2020-06-28T18:33:37Z</time>
      </trkpt>
      <trkpt lat="48.73236" lon="7.05364">
        <ele>253.7</ele>
        <time>2020-06-28T18:33:38Z</time>
      </trkpt>
      <trkpt lat="48.73232" lon="7.05362">
        <ele>253.7</ele>
        <time>2020-06-28T18:33:39Z</time>
      </trkpt>
      <trkpt lat="48.73227" lon="7.05359">
        <ele>253.8</ele>
        <time>2020-06-28T18:33:40Z</time>
      </trkpt>
      <trkpt lat="48.73223" lon="7.05356">
        <ele>253.8</ele>
        <time>2020-06-28T18:33:41Z</time>
      </trkpt>
      <trkpt lat="48.73219" lon="7.05353">
        <ele>253.9</ele>
        <time>2020-06-28T18:33:42Z</time>
      </trkpt>
      <trkpt lat="48.73215" lon="7.05351">
        <ele>253.9</ele>
        <time>2020-06-28T18:33:43Z</time>
      </trkpt>
      <trkpt lat="48.73211" lon="7.05348">
        <ele>254</ele>
        <time>2020-06-28T18:33:44Z</time>
      </trkpt>
      <trkpt lat="48.73207" lon="7.05346">
        <ele>254.1</ele>
        <time>2020-06-28T18:33:45Z</time>
      </trkpt>
      <trkpt lat="48.73203" lon="7.05343">
        <ele>254.1</ele>
        <time>2020-06-28T18:33:46Z</time>
      </trkpt>
      <trkpt lat="48.73199" lon="7.05341">
        <ele>254.2</ele>
        <time>2020-06-28T18:33:47Z</time>
      </trkpt>
      <trkpt lat="48.73196" lon="7.05338">
        <ele>254.2</ele>
        <time>2020-06-28T18:33:48Z</time>
      </trkpt>
      <trkpt lat="48.73192" lon="7.05336">
        <ele>254.3</ele>
        <time>2020-06-28T18:33:49Z</time>
      </trkpt>
      <trkpt lat="48.73188" lon="7.05334">
        <ele>254.4</ele>
        <time>2020-06-28T18:33:50Z</time>
      </trkpt>
      <trkpt lat="48.73185" lon="7.0533">
        <ele>254.5</ele>
        <time>2020-06-28T18:33:51Z</time>
      </trkpt>
      <trkpt lat="48.73182" lon="7.05328">
        <ele>254.5</ele>
        <time>2020-06-28T18:33:52Z</time>
      </trkpt>
      <trkpt lat="48.7318" lon="7.05325">
        <ele>254.6</ele>
        <time>2020-06-28T18:33:53Z</time>
      </trkpt>
      <trkpt lat="48.73178" lon="7.05322">
        <ele>254.6</ele>
        <time>2020-06-28T18:33:54Z</time>
      </trkpt>
      <trkpt lat="48.73175" lon="7.05319">
        <ele>254.6</ele>
        <time>2020-06-28T18:33:55Z</time>
      </trkpt>
      <trkpt lat="48.73173" lon="7.05316">
        <ele>254.7</ele>
        <time>2020-06-28T18:33:56Z</time>
      </trkpt>
      <trkpt lat="48.73172" lon="7.05314">
        <ele>254.7</ele>
        <time>2020-06-28T18:33:57Z</time>
      </trkpt>
      <trkpt lat="48.73171" lon="7.05313">
        <ele>254.7</ele>
        <time>2020-06-28T18:33:58Z</time>
      </trkpt>
      <trkpt lat="48.7317" lon="7.05312">
        <ele>254.7</ele>
        <time>2020-06-28T18:33:59Z</time>
      </trkpt>
      <trkpt lat="48.73168" lon="7.05312">
        <ele>254.7</ele>
        <time>2020-06-28T18:34:00Z</time>
      </trkpt>
      <trkpt lat="48.73167" lon="7.05314">
        <ele>254.7</ele>
        <time>2020-06-28T18:34:01Z</time>
      </trkpt>
      <trkpt lat="48.73166" lon="7.05315">
        <ele>254.7</ele>
        <time>2020-06-28T18:34:02Z</time>
      </trkpt>
      <trkpt lat="48.73167" lon="7.05316">
        <ele>254.7</ele>
        <time>2020-06-28T18:34:03Z</time>
      </trkpt>
      <trkpt lat="48.73168" lon="7.05317">
        <ele>254.7</ele>
        <time>2020-06-28T18:34:04Z</time>
      </trkpt>
      <trkpt lat="48.73168" lon="7.05319">
        <ele>254.7</ele>
        <time>2020-06-28T18:34:05Z</time>
      </trkpt>
      <trkpt lat="48.73169" lon="7.05319">
        <ele>254.7</ele>
        <time>2020-06-28T18:34:06Z</time>
      </trkpt>
      <trkpt lat="48.7317" lon="7.05318">
        <ele>254.7</ele>
        <time>2020-06-28T18:34:07Z</time>
      </trkpt>
      <trkpt lat="48.7317" lon="7.05318">
        <ele>254.7</ele>
        <time>2020-06-28T18:34:08Z</time>
      </trkpt>
      <trkpt lat="48.7317" lon="7.05317">
        <ele>254.7</ele>
        <time>2020-06-28T18:34:09Z</time>
      </trkpt>
      <trkpt lat="48.73171" lon="7.05316">
        <ele>254.8</ele>
        <time>2020-06-28T18:34:10Z</time>
      </trkpt>
      <trkpt lat="48.73171" lon="7.05315">
        <ele>254.8</ele>
        <time>2020-06-28T18:34:11Z</time>
      </trkpt>
      <trkpt lat="48.73171" lon="7.05314">
        <ele>254.8</ele>
        <time>2020-06-28T18:34:12Z</time>
      </trkpt>
      <trkpt lat="48.73171" lon="7.05315">
        <ele>254.8</ele>
        <time>2020-06-28T18:34:13Z</time>
      </trkpt>
      <trkpt lat="48.73171" lon="7.05315">
        <ele>254.8</ele>
        <time>2020-06-28T18:34:14Z</time>
      </trkpt>
      <trkpt lat="48.73171" lon="7.05316">
        <ele>254.8</ele>
        <time>2020-06-28T18:34:15Z</time>
      </trkpt>
      <trkpt lat="48.73171" lon="7.05316">
        <ele>254.8</ele>
        <time>2020-06-28T18:34:16Z</time>
      </trkpt>
      <trkpt lat="48.73172" lon="7.05315">
        <ele>254.8</ele>
        <time>2020-06-28T18:34:17Z</time>
      </trkpt>
      <trkpt lat="48.73172" lon="7.05315">
        <ele>254.8</ele>
        <time>2020-06-28T18:34:18Z</time>
      </trkpt>
      <trkpt lat="48.73171" lon="7.05306">
        <ele>254.8</ele>
        <time>2020-06-28T18:34:33Z</time>
      </trkpt>
      <trkpt lat="48.7317" lon="7.05305">
        <ele>254.8</ele>
        <time>2020-06-28T18:34:34Z</time>
      </trkpt>
      <trkpt lat="48.73169" lon="7.05303">
        <ele>254.7</ele>
        <time>2020-06-28T18:34:35Z</time>
      </trkpt>
      <trkpt lat="48.73169" lon="7.05301">
        <ele>254.7</ele>
        <time>2020-06-28T18:34:36Z</time>
      </trkpt>
      <trkpt lat="48.73169" lon="7.053">
        <ele>254.7</ele>
        <time>2020-06-28T18:34:37Z</time>
      </trkpt>
      <trkpt lat="48.73171" lon="7.05295">
        <ele>254.6</ele>
        <time>2020-06-28T18:34:38Z</time>
      </trkpt>
      <trkpt lat="48.73171" lon="7.05293">
        <ele>254.6</ele>
        <time>2020-06-28T18:34:39Z</time>
      </trkpt>
      <trkpt lat="48.73173" lon="7.05289">
        <ele>254.5</ele>
        <time>2020-06-28T18:34:40Z</time>
      </trkpt>
      <trkpt lat="48.73174" lon="7.05288">
        <ele>254.4</ele>
        <time>2020-06-28T18:34:41Z</time>
      </trkpt>
      <trkpt lat="48.73175" lon="7.05284">
        <ele>254.4</ele>
        <time>2020-06-28T18:34:42Z</time>
      </trkpt>
      <trkpt lat="48.73177" lon="7.0528">
        <ele>254.3</ele>
        <time>2020-06-28T18:34:43Z</time>
      </trkpt>
      <trkpt lat="48.73179" lon="7.05276">
        <ele>254.2</ele>
        <time>2020-06-28T18:34:44Z</time>
      </trkpt>
      <trkpt lat="48.7318" lon="7.05272">
        <ele>254.2</ele>
        <time>2020-06-28T18:34:45Z</time>
      </trkpt>
      <trkpt lat="48.73182" lon="7.05267">
        <ele>254.1</ele>
        <time>2020-06-28T18:34:46Z</time>
      </trkpt>
      <trkpt lat="48.73183" lon="7.05263">
        <ele>254.1</ele>
        <time>2020-06-28T18:34:47Z</time>
      </trkpt>
      <trkpt lat="48.73185" lon="7.05258">
        <ele>254</ele>
        <time>2020-06-28T18:34:48Z</time>
      </trkpt>
      <trkpt lat="48.73186" lon="7.05253">
        <ele>253.9</ele>
        <time>2020-06-28T18:34:49Z</time>
      </trkpt>
      <trkpt lat="48.73188" lon="7.05249">
        <ele>253.8</ele>
        <time>2020-06-28T18:34:50Z</time>
      </trkpt>
      <trkpt lat="48.7319" lon="7.05245">
        <ele>253.7</ele>
        <time>2020-06-28T18:34:51Z</time>
      </trkpt>
      <trkpt lat="48.73192" lon="7.05241">
        <ele>253.6</ele>
        <time>2020-06-28T18:34:52Z</time>
      </trkpt>
      <trkpt lat="48.73194" lon="7.05236">
        <ele>253.5</ele>
        <time>2020-06-28T18:34:53Z</time>
      </trkpt>
      <trkpt lat="48.73195" lon="7.0523">
        <ele>253.4</ele>
        <time>2020-06-28T18:34:54Z</time>
      </trkpt>
      <trkpt lat="48.73196" lon="7.05225">
        <ele>253.3</ele>
        <time>2020-06-28T18:34:55Z</time>
      </trkpt>
      <trkpt lat="48.73197" lon="7.0522">
        <ele>253.2</ele>
        <time>2020-06-28T18:34:56Z</time>
      </trkpt>
      <trkpt lat="48.73199" lon="7.05215">
        <ele>253.1</ele>
        <time>2020-06-28T18:34:57Z</time>
      </trkpt>
      <trkpt lat="48.73201" lon="7.05211">
        <ele>253.1</ele>
        <time>2020-06-28T18:34:58Z</time>
      </trkpt>
      <trkpt lat="48.73202" lon="7.05207">
        <ele>253</ele>
        <time>2020-06-28T18:34:59Z</time>
      </trkpt>
      <trkpt lat="48.73203" lon="7.05203">
        <ele>252.9</ele>
        <time>2020-06-28T18:35:00Z</time>
      </trkpt>
      <trkpt lat="48.73204" lon="7.05199">
        <ele>252.9</ele>
        <time>2020-06-28T18:35:01Z</time>
      </trkpt>
      <trkpt lat="48.73207" lon="7.05196">
        <ele>252.8</ele>
        <time>2020-06-28T18:35:02Z</time>
      </trkpt>
      <trkpt lat="48.73208" lon="7.05192">
        <ele>252.8</ele>
        <time>2020-06-28T18:35:03Z</time>
      </trkpt>
      <trkpt lat="48.73208" lon="7.05186">
        <ele>252.7</ele>
        <time>2020-06-28T18:35:04Z</time>
      </trkpt>
      <trkpt lat="48.73208" lon="7.05185">
        <ele>252.5</ele>
        <time>2020-06-28T18:35:05Z</time>
      </trkpt>
      <trkpt lat="48.73208" lon="7.05183">
        <ele>252.5</ele>
        <time>2020-06-28T18:35:06Z</time>
      </trkpt>
      <trkpt lat="48.73208" lon="7.05182">
        <ele>252.5</ele>
        <time>2020-06-28T18:35:07Z</time>
      </trkpt>
      <trkpt lat="48.73208" lon="7.05181">
        <ele>252.5</ele>
        <time>2020-06-28T18:35:08Z</time>
      </trkpt>
      <trkpt lat="48.73209" lon="7.0518">
        <ele>252.5</ele>
        <time>2020-06-28T18:35:09Z</time>
      </trkpt>
      <trkpt lat="48.73209" lon="7.0518">
        <ele>252.5</ele>
        <time>2020-06-28T18:35:10Z</time>
      </trkpt>
      <trkpt lat="48.73209" lon="7.0518">
        <ele>252.5</ele>
        <time>2020-06-28T18:35:11Z</time>
      </trkpt>
      <trkpt lat="48.73208" lon="7.0518">
        <ele>252.6</ele>
        <time>2020-06-28T18:35:12Z</time>
      </trkpt>
      <trkpt lat="48.73208" lon="7.0518">
        <ele>252.6</ele>
        <time>2020-06-28T18:35:13Z</time>
      </trkpt>
      <trkpt lat="48.73208" lon="7.05179">
        <ele>252.6</ele>
        <time>2020-06-28T18:35:14Z</time>
      </trkpt>
      <trkpt lat="48.73208" lon="7.05179">
        <ele>252.6</ele>
        <time>2020-06-28T18:35:15Z</time>
      </trkpt>
      <trkpt lat="48.73208" lon="7.05178">
        <ele>252.6</ele>
        <time>2020-06-28T18:35:16Z</time>
      </trkpt>
      <trkpt lat="48.73208" lon="7.05178">
        <ele>252.6</ele>
        <time>2020-06-28T18:35:17Z</time>
      </trkpt>
      <trkpt lat="48.73208" lon="7.05177">
        <ele>252.6</ele>
        <time>2020-06-28T18:35:18Z</time>
      </trkpt>
      <trkpt lat="48.73208" lon="7.05173">
        <ele>252.6</ele>
        <time>2020-06-28T18:35:20Z</time>
      </trkpt>
      <trkpt lat="48.73206" lon="7.05171">
        <ele>252.6</ele>
        <time>2020-06-28T18:35:21Z</time>
      </trkpt>
      <trkpt lat="48.73205" lon="7.0517">
        <ele>252.6</ele>
        <time>2020-06-28T18:35:22Z</time>
      </trkpt>
      <trkpt lat="48.73202" lon="7.05167">
        <ele>252.6</ele>
        <time>2020-06-28T18:35:23Z</time>
      </trkpt>
      <trkpt lat="48.73201" lon="7.05166">
        <ele>252.6</ele>
        <time>2020-06-28T18:35:24Z</time>
      </trkpt>
      <trkpt lat="48.73198" lon="7.05165">
        <ele>252.6</ele>
        <time>2020-06-28T18:35:25Z</time>
      </trkpt>
      <trkpt lat="48.73195" lon="7.05162">
        <ele>252.7</ele>
        <time>2020-06-28T18:35:26Z</time>
      </trkpt>
      <trkpt lat="48.73192" lon="7.05161">
        <ele>252.7</ele>
        <time>2020-06-28T18:35:27Z</time>
      </trkpt>
      <trkpt lat="48.73189" lon="7.05158">
        <ele>252.7</ele>
        <time>2020-06-28T18:35:28Z</time>
      </trkpt>
      <trkpt lat="48.73186" lon="7.05156">
        <ele>252.8</ele>
        <time>2020-06-28T18:35:29Z</time>
      </trkpt>
      <trkpt lat="48.73183" lon="7.05154">
        <ele>252.8</ele>
        <time>2020-06-28T18:35:30Z</time>
      </trkpt>
      <trkpt lat="48.73179" lon="7.05151">
        <ele>252.8</ele>
        <time>2020-06-28T18:35:31Z</time>
      </trkpt>
      <trkpt lat="48.73176" lon="7.05149">
        <ele>252.8</ele>
        <time>2020-06-28T18:35:32Z</time>
      </trkpt>
      <trkpt lat="48.73173" lon="7.05148">
        <ele>252.9</ele>
        <time>2020-06-28T18:35:33Z</time>
      </trkpt>
      <trkpt lat="48.7317" lon="7.05148">
        <ele>252.9</ele>
        <time>2020-06-28T18:35:34Z</time>
      </trkpt>
      <trkpt lat="48.73167" lon="7.05145">
        <ele>253</ele>
        <time>2020-06-28T18:35:35Z</time>
      </trkpt>
      <trkpt lat="48.73163" lon="7.05142">
        <ele>253.1</ele>
        <time>2020-06-28T18:35:36Z</time>
      </trkpt>
      <trkpt lat="48.73158" lon="7.05139">
        <ele>253.2</ele>
        <time>2020-06-28T18:35:37Z</time>
      </trkpt>
      <trkpt lat="48.73154" lon="7.05137">
        <ele>253.3</ele>
        <time>2020-06-28T18:35:38Z</time>
      </trkpt>
      <trkpt lat="48.7315" lon="7.05135">
        <ele>253.4</ele>
        <time>2020-06-28T18:35:39Z</time>
      </trkpt>
      <trkpt lat="48.73146" lon="7.05132">
        <ele>253.5</ele>
        <time>2020-06-28T18:35:40Z</time>
      </trkpt>
      <trkpt lat="48.73142" lon="7.05129">
        <ele>253.6</ele>
        <time>2020-06-28T18:35:41Z</time>
      </trkpt>
      <trkpt lat="48.73138" lon="7.05126">
        <ele>253.7</ele>
        <time>2020-06-28T18:35:42Z</time>
      </trkpt>
      <trkpt lat="48.73134" lon="7.05124">
        <ele>253.8</ele>
        <time>2020-06-28T18:35:43Z</time>
      </trkpt>
      <trkpt lat="48.7313" lon="7.0512">
        <ele>253.9</ele>
        <time>2020-06-28T18:35:44Z</time>
      </trkpt>
      <trkpt lat="48.73126" lon="7.05118">
        <ele>254</ele>
        <time>2020-06-28T18:35:45Z</time>
      </trkpt>
      <trkpt lat="48.73122" lon="7.05114">
        <ele>254.2</ele>
        <time>2020-06-28T18:35:46Z</time>
      </trkpt>
      <trkpt lat="48.73118" lon="7.05112">
        <ele>254.4</ele>
        <time>2020-06-28T18:35:47Z</time>
      </trkpt>
      <trkpt lat="48.73115" lon="7.05111">
        <ele>254.5</ele>
        <time>2020-06-28T18:35:48Z</time>
      </trkpt>
      <trkpt lat="48.73113" lon="7.0511">
        <ele>254.5</ele>
        <time>2020-06-28T18:35:49Z</time>
      </trkpt>
      <trkpt lat="48.7311" lon="7.05107">
        <ele>254.6</ele>
        <time>2020-06-28T18:35:50Z</time>
      </trkpt>
      <trkpt lat="48.73107" lon="7.05104">
        <ele>254.7</ele>
        <time>2020-06-28T18:35:51Z</time>
      </trkpt>
      <trkpt lat="48.73104" lon="7.05102">
        <ele>254.8</ele>
        <time>2020-06-28T18:35:52Z</time>
      </trkpt>
      <trkpt lat="48.73101" lon="7.05099">
        <ele>255</ele>
        <time>2020-06-28T18:35:53Z</time>
      </trkpt>
      <trkpt lat="48.73098" lon="7.05097">
        <ele>255.1</ele>
        <time>2020-06-28T18:35:54Z</time>
      </trkpt>
      <trkpt lat="48.73093" lon="7.05094">
        <ele>255.2</ele>
        <time>2020-06-28T18:35:55Z</time>
      </trkpt>
      <trkpt lat="48.7309" lon="7.05092">
        <ele>255.4</ele>
        <time>2020-06-28T18:35:56Z</time>
      </trkpt>
      <trkpt lat="48.73086" lon="7.0509">
        <ele>255.5</ele>
        <time>2020-06-28T18:35:57Z</time>
      </trkpt>
      <trkpt lat="48.73083" lon="7.05088">
        <ele>255.6</ele>
        <time>2020-06-28T18:35:58Z</time>
      </trkpt>
      <trkpt lat="48.7308" lon="7.05086">
        <ele>255.7</ele>
        <time>2020-06-28T18:35:59Z</time>
      </trkpt>
      <trkpt lat="48.73076" lon="7.05083">
        <ele>255.9</ele>
        <time>2020-06-28T18:36:00Z</time>
      </trkpt>
      <trkpt lat="48.73073" lon="7.05081">
        <ele>256</ele>
        <time>2020-06-28T18:36:01Z</time>
      </trkpt>
      <trkpt lat="48.7307" lon="7.05078">
        <ele>256.1</ele>
        <time>2020-06-28T18:36:02Z</time>
      </trkpt>
      <trkpt lat="48.73069" lon="7.05078">
        <ele>256.1</ele>
        <time>2020-06-28T18:36:03Z</time>
      </trkpt>
      <trkpt lat="48.73066" lon="7.05075">
        <ele>256.2</ele>
        <time>2020-06-28T18:36:04Z</time>
      </trkpt>
      <trkpt lat="48.73064" lon="7.05073">
        <ele>256.3</ele>
        <time>2020-06-28T18:36:05Z</time>
      </trkpt>
      <trkpt lat="48.73061" lon="7.05071">
        <ele>256.4</ele>
        <time>2020-06-28T18:36:06Z</time>
      </trkpt>
      <trkpt lat="48.73058" lon="7.05069">
        <ele>256.5</ele>
        <time>2020-06-28T18:36:07Z</time>
      </trkpt>
      <trkpt lat="48.73056" lon="7.05068">
        <ele>256.5</ele>
        <time>2020-06-28T18:36:08Z</time>
      </trkpt>
      <trkpt lat="48.73052" lon="7.05065">
        <ele>256.6</ele>
        <time>2020-06-28T18:36:09Z</time>
      </trkpt>
      <trkpt lat="48.73049" lon="7.05063">
        <ele>256.7</ele>
        <time>2020-06-28T18:36:10Z</time>
      </trkpt>
      <trkpt lat="48.73046" lon="7.05061">
        <ele>256.7</ele>
        <time>2020-06-28T18:36:11Z</time>
      </trkpt>
      <trkpt lat="48.73042" lon="7.05058">
        <ele>256.8</ele>
        <time>2020-06-28T18:36:12Z</time>
      </trkpt>
      <trkpt lat="48.7304" lon="7.05056">
        <ele>256.9</ele>
        <time>2020-06-28T18:36:13Z</time>
      </trkpt>
      <trkpt lat="48.73035" lon="7.05054">
        <ele>256.9</ele>
        <time>2020-06-28T18:36:14Z</time>
      </trkpt>
      <trkpt lat="48.73032" lon="7.05052">
        <ele>256.9</ele>
        <time>2020-06-28T18:36:15Z</time>
      </trkpt>
      <trkpt lat="48.7303" lon="7.05051">
        <ele>257</ele>
        <time>2020-06-28T18:36:16Z</time>
      </trkpt>
      <trkpt lat="48.73027" lon="7.05049">
        <ele>257</ele>
        <time>2020-06-28T18:36:17Z</time>
      </trkpt>
      <trkpt lat="48.73023" lon="7.05046">
        <ele>257</ele>
        <time>2020-06-28T18:36:18Z</time>
      </trkpt>
      <trkpt lat="48.73018" lon="7.05043">
        <ele>257.1</ele>
        <time>2020-06-28T18:36:19Z</time>
      </trkpt>
      <trkpt lat="48.73014" lon="7.0504">
        <ele>257.1</ele>
        <time>2020-06-28T18:36:20Z</time>
      </trkpt>
      <trkpt lat="48.73009" lon="7.05036">
        <ele>257.2</ele>
        <time>2020-06-28T18:36:21Z</time>
      </trkpt>
      <trkpt lat="48.73005" lon="7.05034">
        <ele>257.2</ele>
        <time>2020-06-28T18:36:22Z</time>
      </trkpt>
      <trkpt lat="48.73001" lon="7.05031">
        <ele>257.3</ele>
        <time>2020-06-28T18:36:23Z</time>
      </trkpt>
      <trkpt lat="48.72998" lon="7.05029">
        <ele>257.3</ele>
        <time>2020-06-28T18:36:24Z</time>
      </trkpt>
      <trkpt lat="48.72995" lon="7.05027">
        <ele>257.4</ele>
        <time>2020-06-28T18:36:25Z</time>
      </trkpt>
      <trkpt lat="48.72991" lon="7.05023">
        <ele>257.4</ele>
        <time>2020-06-28T18:36:26Z</time>
      </trkpt>
      <trkpt lat="48.72988" lon="7.05019">
        <ele>257.4</ele>
        <time>2020-06-28T18:36:27Z</time>
      </trkpt>
      <trkpt lat="48.72984" lon="7.05017">
        <ele>257.5</ele>
        <time>2020-06-28T18:36:28Z</time>
      </trkpt>
      <trkpt lat="48.7298" lon="7.05014">
        <ele>257.5</ele>
        <time>2020-06-28T18:36:29Z</time>
      </trkpt>
      <trkpt lat="48.72976" lon="7.05011">
        <ele>257.5</ele>
        <time>2020-06-28T18:36:30Z</time>
      </trkpt>
      <trkpt lat="48.72972" lon="7.05008">
        <ele>257.5</ele>
        <time>2020-06-28T18:36:31Z</time>
      </trkpt>
      <trkpt lat="48.72968" lon="7.05007">
        <ele>257.5</ele>
        <time>2020-06-28T18:36:32Z</time>
      </trkpt>
      <trkpt lat="48.72966" lon="7.05004">
        <ele>257.6</ele>
        <time>2020-06-28T18:36:33Z</time>
      </trkpt>
      <trkpt lat="48.72962" lon="7.05001">
        <ele>257.6</ele>
        <time>2020-06-28T18:36:34Z</time>
      </trkpt>
      <trkpt lat="48.72958" lon="7.04999">
        <ele>257.6</ele>
        <time>2020-06-28T18:36:35Z</time>
      </trkpt>
      <trkpt lat="48.72954" lon="7.04996">
        <ele>257.6</ele>
        <time>2020-06-28T18:36:36Z</time>
      </trkpt>
      <trkpt lat="48.72951" lon="7.04994">
        <ele>257.6</ele>
        <time>2020-06-28T18:36:37Z</time>
      </trkpt>
      <trkpt lat="48.72946" lon="7.04991">
        <ele>257.6</ele>
        <time>2020-06-28T18:36:38Z</time>
      </trkpt>
      <trkpt lat="48.72943" lon="7.04987">
        <ele>257.6</ele>
        <time>2020-06-28T18:36:39Z</time>
      </trkpt>
      <trkpt lat="48.7294" lon="7.04985">
        <ele>257.6</ele>
        <time>2020-06-28T18:36:40Z</time>
      </trkpt>
      <trkpt lat="48.72936" lon="7.04983">
        <ele>257.6</ele>
        <time>2020-06-28T18:36:41Z</time>
      </trkpt>
      <trkpt lat="48.72933" lon="7.04981">
        <ele>257.6</ele>
        <time>2020-06-28T18:36:42Z</time>
      </trkpt>
      <trkpt lat="48.7293" lon="7.04979">
        <ele>257.6</ele>
        <time>2020-06-28T18:36:43Z</time>
      </trkpt>
      <trkpt lat="48.72926" lon="7.04976">
        <ele>257.6</ele>
        <time>2020-06-28T18:36:44Z</time>
      </trkpt>
      <trkpt lat="48.72922" lon="7.04974">
        <ele>257.6</ele>
        <time>2020-06-28T18:36:45Z</time>
      </trkpt>
      <trkpt lat="48.72918" lon="7.04971">
        <ele>257.6</ele>
        <time>2020-06-28T18:36:46Z</time>
      </trkpt>
      <trkpt lat="48.72914" lon="7.04968">
        <ele>257.6</ele>
        <time>2020-06-28T18:36:47Z</time>
      </trkpt>
      <trkpt lat="48.72911" lon="7.04966">
        <ele>257.6</ele>
        <time>2020-06-28T18:36:48Z</time>
      </trkpt>
      <trkpt lat="48.72907" lon="7.04964">
        <ele>257.6</ele>
        <time>2020-06-28T18:36:49Z</time>
      </trkpt>
      <trkpt lat="48.72904" lon="7.04961">
        <ele>257.6</ele>
        <time>2020-06-28T18:36:50Z</time>
      </trkpt>
      <trkpt lat="48.72901" lon="7.04959">
        <ele>257.6</ele>
        <time>2020-06-28T18:36:51Z</time>
      </trkpt>
      <trkpt lat="48.72897" lon="7.04956">
        <ele>257.7</ele>
        <time>2020-06-28T18:36:52Z</time>
      </trkpt>
      <trkpt lat="48.72892" lon="7.04953">
        <ele>257.7</ele>
        <time>2020-06-28T18:36:53Z</time>
      </trkpt>
      <trkpt lat="48.72889" lon="7.04949">
        <ele>257.7</ele>
        <time>2020-06-28T18:36:54Z</time>
      </trkpt>
      <trkpt lat="48.72885" lon="7.04946">
        <ele>257.8</ele>
        <time>2020-06-28T18:36:55Z</time>
      </trkpt>
      <trkpt lat="48.72881" lon="7.04943">
        <ele>257.8</ele>
        <time>2020-06-28T18:36:56Z</time>
      </trkpt>
      <trkpt lat="48.72877" lon="7.04941">
        <ele>257.8</ele>
        <time>2020-06-28T18:36:57Z</time>
      </trkpt>
      <trkpt lat="48.72874" lon="7.04939">
        <ele>257.9</ele>
        <time>2020-06-28T18:36:58Z</time>
      </trkpt>
      <trkpt lat="48.7287" lon="7.04936">
        <ele>257.9</ele>
        <time>2020-06-28T18:36:59Z</time>
      </trkpt>
      <trkpt lat="48.72865" lon="7.04932">
        <ele>258</ele>
        <time>2020-06-28T18:37:00Z</time>
      </trkpt>
      <trkpt lat="48.72861" lon="7.0493">
        <ele>258.1</ele>
        <time>2020-06-28T18:37:01Z</time>
      </trkpt>
      <trkpt lat="48.72857" lon="7.04927">
        <ele>258.1</ele>
        <time>2020-06-28T18:37:02Z</time>
      </trkpt>
      <trkpt lat="48.72852" lon="7.04925">
        <ele>258.2</ele>
        <time>2020-06-28T18:37:03Z</time>
      </trkpt>
      <trkpt lat="48.72848" lon="7.04923">
        <ele>258.2</ele>
        <time>2020-06-28T18:37:04Z</time>
      </trkpt>
      <trkpt lat="48.72844" lon="7.04921">
        <ele>258.3</ele>
        <time>2020-06-28T18:37:05Z</time>
      </trkpt>
      <trkpt lat="48.72839" lon="7.04919">
        <ele>258.3</ele>
        <time>2020-06-28T18:37:06Z</time>
      </trkpt>
      <trkpt lat="48.72835" lon="7.04917">
        <ele>258.4</ele>
        <time>2020-06-28T18:37:07Z</time>
      </trkpt>
      <trkpt lat="48.72831" lon="7.04915">
        <ele>258.4</ele>
        <time>2020-06-28T18:37:08Z</time>
      </trkpt>
      <trkpt lat="48.72827" lon="7.04913">
        <ele>258.4</ele>
        <time>2020-06-28T18:37:09Z</time>
      </trkpt>
      <trkpt lat="48.72823" lon="7.04911">
        <ele>258.5</ele>
        <time>2020-06-28T18:37:10Z</time>
      </trkpt>
      <trkpt lat="48.72818" lon="7.04909">
        <ele>258.5</ele>
        <time>2020-06-28T18:37:11Z</time>
      </trkpt>
      <trkpt lat="48.72814" lon="7.04907">
        <ele>258.6</ele>
        <time>2020-06-28T18:37:12Z</time>
      </trkpt>
      <trkpt lat="48.72809" lon="7.04905">
        <ele>258.6</ele>
        <time>2020-06-28T18:37:13Z</time>
      </trkpt>
      <trkpt lat="48.72805" lon="7.04902">
        <ele>258.7</ele>
        <time>2020-06-28T18:37:14Z</time>
      </trkpt>
      <trkpt lat="48.72801" lon="7.049">
        <ele>258.7</ele>
        <time>2020-06-28T18:37:15Z</time>
      </trkpt>
      <trkpt lat="48.72796" lon="7.04897">
        <ele>258.7</ele>
        <time>2020-06-28T18:37:16Z</time>
      </trkpt>
      <trkpt lat="48.72793" lon="7.04895">
        <ele>258.8</ele>
        <time>2020-06-28T18:37:17Z</time>
      </trkpt>
      <trkpt lat="48.72789" lon="7.04892">
        <ele>258.9</ele>
        <time>2020-06-28T18:37:18Z</time>
      </trkpt>
      <trkpt lat="48.72786" lon="7.0489">
        <ele>258.9</ele>
        <time>2020-06-28T18:37:19Z</time>
      </trkpt>
      <trkpt lat="48.72783" lon="7.04887">
        <ele>259</ele>
        <time>2020-06-28T18:37:20Z</time>
      </trkpt>
      <trkpt lat="48.72779" lon="7.04886">
        <ele>259.1</ele>
        <time>2020-06-28T18:37:21Z</time>
      </trkpt>
      <trkpt lat="48.72775" lon="7.04884">
        <ele>259.1</ele>
        <time>2020-06-28T18:37:22Z</time>
      </trkpt>
      <trkpt lat="48.72771" lon="7.04881">
        <ele>259.2</ele>
        <time>2020-06-28T18:37:23Z</time>
      </trkpt>
      <trkpt lat="48.72768" lon="7.04878">
        <ele>259.3</ele>
        <time>2020-06-28T18:37:24Z</time>
      </trkpt>
      <trkpt lat="48.72764" lon="7.04876">
        <ele>259.3</ele>
        <time>2020-06-28T18:37:25Z</time>
      </trkpt>
      <trkpt lat="48.7276" lon="7.04874">
        <ele>259.4</ele>
        <time>2020-06-28T18:37:26Z</time>
      </trkpt>
      <trkpt lat="48.72756" lon="7.04872">
        <ele>259.4</ele>
        <time>2020-06-28T18:37:27Z</time>
      </trkpt>
      <trkpt lat="48.72752" lon="7.04871">
        <ele>259.5</ele>
        <time>2020-06-28T18:37:28Z</time>
      </trkpt>
      <trkpt lat="48.72748" lon="7.04869">
        <ele>259.5</ele>
        <time>2020-06-28T18:37:29Z</time>
      </trkpt>
      <trkpt lat="48.72744" lon="7.04867">
        <ele>259.6</ele>
        <time>2020-06-28T18:37:30Z</time>
      </trkpt>
      <trkpt lat="48.72741" lon="7.04865">
        <ele>259.6</ele>
        <time>2020-06-28T18:37:31Z</time>
      </trkpt>
      <trkpt lat="48.72737" lon="7.04863">
        <ele>259.7</ele>
        <time>2020-06-28T18:37:32Z</time>
      </trkpt>
      <trkpt lat="48.72734" lon="7.04862">
        <ele>259.8</ele>
        <time>2020-06-28T18:37:33Z</time>
      </trkpt>
      <trkpt lat="48.7273" lon="7.0486">
        <ele>259.8</ele>
        <time>2020-06-28T18:37:34Z</time>
      </trkpt>
      <trkpt lat="48.72727" lon="7.04858">
        <ele>259.8</ele>
        <time>2020-06-28T18:37:35Z</time>
      </trkpt>
      <trkpt lat="48.72723" lon="7.04856">
        <ele>260</ele>
        <time>2020-06-28T18:37:36Z</time>
      </trkpt>
      <trkpt lat="48.7272" lon="7.04854">
        <ele>260.1</ele>
        <time>2020-06-28T18:37:37Z</time>
      </trkpt>
      <trkpt lat="48.72716" lon="7.04851">
        <ele>260.2</ele>
        <time>2020-06-28T18:37:38Z</time>
      </trkpt>
      <trkpt lat="48.72712" lon="7.04849">
        <ele>260.3</ele>
        <time>2020-06-28T18:37:39Z</time>
      </trkpt>
      <trkpt lat="48.72708" lon="7.04848">
        <ele>260.4</ele>
        <time>2020-06-28T18:37:40Z</time>
      </trkpt>
      <trkpt lat="48.72707" lon="7.04847">
        <ele>260.5</ele>
        <time>2020-06-28T18:37:41Z</time>
      </trkpt>
      <trkpt lat="48.72703" lon="7.04846">
        <ele>260.7</ele>
        <time>2020-06-28T18:37:42Z</time>
      </trkpt>
      <trkpt lat="48.72699" lon="7.04844">
        <ele>260.7</ele>
        <time>2020-06-28T18:37:43Z</time>
      </trkpt>
      <trkpt lat="48.72696" lon="7.04842">
        <ele>260.8</ele>
        <time>2020-06-28T18:37:44Z</time>
      </trkpt>
      <trkpt lat="48.72693" lon="7.0484">
        <ele>260.9</ele>
        <time>2020-06-28T18:37:45Z</time>
      </trkpt>
      <trkpt lat="48.7269" lon="7.04839">
        <ele>260.9</ele>
        <time>2020-06-28T18:37:46Z</time>
      </trkpt>
      <trkpt lat="48.72687" lon="7.04837">
        <ele>261</ele>
        <time>2020-06-28T18:37:47Z</time>
      </trkpt>
      <trkpt lat="48.72684" lon="7.04835">
        <ele>261.1</ele>
        <time>2020-06-28T18:37:48Z</time>
      </trkpt>
      <trkpt lat="48.7268" lon="7.04834">
        <ele>261.2</ele>
        <time>2020-06-28T18:37:49Z</time>
      </trkpt>
      <trkpt lat="48.72678" lon="7.04833">
        <ele>261.2</ele>
        <time>2020-06-28T18:37:50Z</time>
      </trkpt>
      <trkpt lat="48.72675" lon="7.04831">
        <ele>261.3</ele>
        <time>2020-06-28T18:37:51Z</time>
      </trkpt>
      <trkpt lat="48.72671" lon="7.04829">
        <ele>261.5</ele>
        <time>2020-06-28T18:37:52Z</time>
      </trkpt>
      <trkpt lat="48.72668" lon="7.04828">
        <ele>261.7</ele>
        <time>2020-06-28T18:37:53Z</time>
      </trkpt>
      <trkpt lat="48.72665" lon="7.04825">
        <ele>262</ele>
        <time>2020-06-28T18:37:54Z</time>
      </trkpt>
      <trkpt lat="48.72662" lon="7.04824">
        <ele>262.2</ele>
        <time>2020-06-28T18:37:55Z</time>
      </trkpt>
      <trkpt lat="48.72659" lon="7.04822">
        <ele>262.5</ele>
        <time>2020-06-28T18:37:56Z</time>
      </trkpt>
      <trkpt lat="48.72659" lon="7.04822">
        <ele>262.5</ele>
        <time>2020-06-28T18:37:57Z</time>
      </trkpt>
      <trkpt lat="48.72656" lon="7.04821">
        <ele>262.7</ele>
        <time>2020-06-28T18:37:58Z</time>
      </trkpt>
      <trkpt lat="48.72653" lon="7.04819">
        <ele>262.9</ele>
        <time>2020-06-28T18:37:59Z</time>
      </trkpt>
      <trkpt lat="48.7265" lon="7.04818">
        <ele>263.1</ele>
        <time>2020-06-28T18:38:00Z</time>
      </trkpt>
      <trkpt lat="48.72646" lon="7.04816">
        <ele>263.4</ele>
        <time>2020-06-28T18:38:01Z</time>
      </trkpt>
      <trkpt lat="48.72643" lon="7.04814">
        <ele>263.7</ele>
        <time>2020-06-28T18:38:02Z</time>
      </trkpt>
      <trkpt lat="48.72639" lon="7.04812">
        <ele>263.9</ele>
        <time>2020-06-28T18:38:03Z</time>
      </trkpt>
      <trkpt lat="48.72638" lon="7.04811">
        <ele>264.1</ele>
        <time>2020-06-28T18:38:04Z</time>
      </trkpt>
      <trkpt lat="48.72635" lon="7.04809">
        <ele>264.3</ele>
        <time>2020-06-28T18:38:05Z</time>
      </trkpt>
      <trkpt lat="48.72632" lon="7.04808">
        <ele>264.5</ele>
        <time>2020-06-28T18:38:06Z</time>
      </trkpt>
      <trkpt lat="48.72631" lon="7.04807">
        <ele>264.6</ele>
        <time>2020-06-28T18:38:07Z</time>
      </trkpt>
      <trkpt lat="48.72628" lon="7.04805">
        <ele>264.8</ele>
        <time>2020-06-28T18:38:08Z</time>
      </trkpt>
      <trkpt lat="48.72624" lon="7.04804">
        <ele>265.1</ele>
        <time>2020-06-28T18:38:09Z</time>
      </trkpt>
      <trkpt lat="48.72621" lon="7.04801">
        <ele>265.4</ele>
        <time>2020-06-28T18:38:10Z</time>
      </trkpt>
      <trkpt lat="48.72618" lon="7.04798">
        <ele>265.6</ele>
        <time>2020-06-28T18:38:11Z</time>
      </trkpt>
      <trkpt lat="48.72614" lon="7.04796">
        <ele>265.9</ele>
        <time>2020-06-28T18:38:12Z</time>
      </trkpt>
      <trkpt lat="48.72612" lon="7.04794">
        <ele>266.1</ele>
        <time>2020-06-28T18:38:13Z</time>
      </trkpt>
      <trkpt lat="48.72608" lon="7.04792">
        <ele>266.4</ele>
        <time>2020-06-28T18:38:14Z</time>
      </trkpt>
      <trkpt lat="48.72605" lon="7.04789">
        <ele>266.7</ele>
        <time>2020-06-28T18:38:15Z</time>
      </trkpt>
      <trkpt lat="48.72604" lon="7.04788">
        <ele>266.8</ele>
        <time>2020-06-28T18:38:16Z</time>
      </trkpt>
      <trkpt lat="48.72602" lon="7.04787">
        <ele>266.9</ele>
        <time>2020-06-28T18:38:17Z</time>
      </trkpt>
      <trkpt lat="48.72601" lon="7.04786">
        <ele>267</ele>
        <time>2020-06-28T18:38:18Z</time>
      </trkpt>
      <trkpt lat="48.72597" lon="7.04782">
        <ele>267.3</ele>
        <time>2020-06-28T18:38:19Z</time>
      </trkpt>
      <trkpt lat="48.72596" lon="7.04781">
        <ele>267.3</ele>
        <time>2020-06-28T18:38:20Z</time>
      </trkpt>
      <trkpt lat="48.72593" lon="7.04778">
        <ele>267.5</ele>
        <time>2020-06-28T18:38:21Z</time>
      </trkpt>
      <trkpt lat="48.72592" lon="7.04777">
        <ele>267.6</ele>
        <time>2020-06-28T18:38:22Z</time>
      </trkpt>
      <trkpt lat="48.72589" lon="7.04775">
        <ele>267.7</ele>
        <time>2020-06-28T18:38:23Z</time>
      </trkpt>
      <trkpt lat="48.72587" lon="7.04772">
        <ele>267.9</ele>
        <time>2020-06-28T18:38:24Z</time>
      </trkpt>
      <trkpt lat="48.72584" lon="7.04769">
        <ele>268.1</ele>
        <time>2020-06-28T18:38:25Z</time>
      </trkpt>
      <trkpt lat="48.72582" lon="7.04767">
        <ele>268.2</ele>
        <time>2020-06-28T18:38:26Z</time>
      </trkpt>
      <trkpt lat="48.7258" lon="7.04763">
        <ele>268.4</ele>
        <time>2020-06-28T18:38:27Z</time>
      </trkpt>
      <trkpt lat="48.72579" lon="7.04761">
        <ele>268.5</ele>
        <time>2020-06-28T18:38:28Z</time>
      </trkpt>
      <trkpt lat="48.72577" lon="7.04757">
        <ele>268.7</ele>
        <time>2020-06-28T18:38:29Z</time>
      </trkpt>
      <trkpt lat="48.72574" lon="7.04754">
        <ele>268.9</ele>
        <time>2020-06-28T18:38:30Z</time>
      </trkpt>
      <trkpt lat="48.72573" lon="7.04752">
        <ele>268.9</ele>
        <time>2020-06-28T18:38:31Z</time>
      </trkpt>
      <trkpt lat="48.7257" lon="7.04749">
        <ele>269.1</ele>
        <time>2020-06-28T18:38:32Z</time>
      </trkpt>
      <trkpt lat="48.72569" lon="7.04747">
        <ele>269.2</ele>
        <time>2020-06-28T18:38:33Z</time>
      </trkpt>
      <trkpt lat="48.72567" lon="7.04743">
        <ele>269.4</ele>
        <time>2020-06-28T18:38:34Z</time>
      </trkpt>
      <trkpt lat="48.72566" lon="7.04741">
        <ele>269.5</ele>
        <time>2020-06-28T18:38:35Z</time>
      </trkpt>
      <trkpt lat="48.72564" lon="7.04738">
        <ele>269.6</ele>
        <time>2020-06-28T18:38:36Z</time>
      </trkpt>
      <trkpt lat="48.72561" lon="7.04734">
        <ele>269.8</ele>
        <time>2020-06-28T18:38:37Z</time>
      </trkpt>
      <trkpt lat="48.72559" lon="7.0473">
        <ele>270</ele>
        <time>2020-06-28T18:38:38Z</time>
      </trkpt>
      <trkpt lat="48.72557" lon="7.04727">
        <ele>270.1</ele>
        <time>2020-06-28T18:38:39Z</time>
      </trkpt>
      <trkpt lat="48.72555" lon="7.04723">
        <ele>270.3</ele>
        <time>2020-06-28T18:38:40Z</time>
      </trkpt>
      <trkpt lat="48.72554" lon="7.04721">
        <ele>270.4</ele>
        <time>2020-06-28T18:38:41Z</time>
      </trkpt>
      <trkpt lat="48.72551" lon="7.04717">
        <ele>270.6</ele>
        <time>2020-06-28T18:38:42Z</time>
      </trkpt>
      <trkpt lat="48.72548" lon="7.04713">
        <ele>270.8</ele>
        <time>2020-06-28T18:38:43Z</time>
      </trkpt>
      <trkpt lat="48.72546" lon="7.0471">
        <ele>271</ele>
        <time>2020-06-28T18:38:44Z</time>
      </trkpt>
      <trkpt lat="48.72543" lon="7.04706">
        <ele>271.2</ele>
        <time>2020-06-28T18:38:45Z</time>
      </trkpt>
      <trkpt lat="48.72541" lon="7.04704">
        <ele>271.3</ele>
        <time>2020-06-28T18:38:46Z</time>
      </trkpt>
      <trkpt lat="48.72539" lon="7.04701">
        <ele>271.5</ele>
        <time>2020-06-28T18:38:47Z</time>
      </trkpt>
      <trkpt lat="48.72537" lon="7.04697">
        <ele>271.7</ele>
        <time>2020-06-28T18:38:48Z</time>
      </trkpt>
      <trkpt lat="48.72535" lon="7.04694">
        <ele>271.8</ele>
        <time>2020-06-28T18:38:49Z</time>
      </trkpt>
      <trkpt lat="48.72532" lon="7.0469">
        <ele>272</ele>
        <time>2020-06-28T18:38:50Z</time>
      </trkpt>
      <trkpt lat="48.72531" lon="7.04688">
        <ele>272.1</ele>
        <time>2020-06-28T18:38:51Z</time>
      </trkpt>
      <trkpt lat="48.72528" lon="7.04684">
        <ele>272.3</ele>
        <time>2020-06-28T18:38:52Z</time>
      </trkpt>
      <trkpt lat="48.72527" lon="7.04682">
        <ele>272.4</ele>
        <time>2020-06-28T18:38:53Z</time>
      </trkpt>
      <trkpt lat="48.72524" lon="7.04678">
        <ele>272.6</ele>
        <time>2020-06-28T18:38:54Z</time>
      </trkpt>
      <trkpt lat="48.72523" lon="7.04677">
        <ele>272.6</ele>
        <time>2020-06-28T18:38:55Z</time>
      </trkpt>
      <trkpt lat="48.7252" lon="7.04674">
        <ele>272.8</ele>
        <time>2020-06-28T18:38:56Z</time>
      </trkpt>
      <trkpt lat="48.72518" lon="7.04671">
        <ele>272.9</ele>
        <time>2020-06-28T18:38:57Z</time>
      </trkpt>
      <trkpt lat="48.72516" lon="7.04668">
        <ele>273.1</ele>
        <time>2020-06-28T18:38:58Z</time>
      </trkpt>
      <trkpt lat="48.72515" lon="7.04667">
        <ele>273.1</ele>
        <time>2020-06-28T18:38:59Z</time>
      </trkpt>
      <trkpt lat="48.72513" lon="7.04663">
        <ele>273.2</ele>
        <time>2020-06-28T18:39:00Z</time>
      </trkpt>
      <trkpt lat="48.72512" lon="7.04661">
        <ele>273.3</ele>
        <time>2020-06-28T18:39:01Z</time>
      </trkpt>
      <trkpt lat="48.7251" lon="7.04658">
        <ele>273.4</ele>
        <time>2020-06-28T18:39:02Z</time>
      </trkpt>
      <trkpt lat="48.72507" lon="7.04655">
        <ele>273.5</ele>
        <time>2020-06-28T18:39:03Z</time>
      </trkpt>
      <trkpt lat="48.72507" lon="7.04654">
        <ele>273.6</ele>
        <time>2020-06-28T18:39:04Z</time>
      </trkpt>
      <trkpt lat="48.72504" lon="7.04651">
        <ele>273.7</ele>
        <time>2020-06-28T18:39:05Z</time>
      </trkpt>
      <trkpt lat="48.72504" lon="7.04649">
        <ele>273.7</ele>
        <time>2020-06-28T18:39:06Z</time>
      </trkpt>
      <trkpt lat="48.72503" lon="7.04649">
        <ele>273.8</ele>
        <time>2020-06-28T18:39:07Z</time>
      </trkpt>
      <trkpt lat="48.72501" lon="7.04646">
        <ele>273.8</ele>
        <time>2020-06-28T18:39:08Z</time>
      </trkpt>
      <trkpt lat="48.725" lon="7.04644">
        <ele>273.9</ele>
        <time>2020-06-28T18:39:09Z</time>
      </trkpt>
      <trkpt lat="48.72499" lon="7.04643">
        <ele>273.9</ele>
        <time>2020-06-28T18:39:10Z</time>
      </trkpt>
      <trkpt lat="48.72498" lon="7.04642">
        <ele>273.9</ele>
        <time>2020-06-28T18:39:11Z</time>
      </trkpt>
      <trkpt lat="48.72497" lon="7.04639">
        <ele>274</ele>
        <time>2020-06-28T18:39:12Z</time>
      </trkpt>
      <trkpt lat="48.72494" lon="7.04635">
        <ele>274.1</ele>
        <time>2020-06-28T18:39:13Z</time>
      </trkpt>
      <trkpt lat="48.72491" lon="7.04631">
        <ele>274.2</ele>
        <time>2020-06-28T18:39:14Z</time>
      </trkpt>
      <trkpt lat="48.72489" lon="7.0463">
        <ele>274.2</ele>
        <time>2020-06-28T18:39:15Z</time>
      </trkpt>
      <trkpt lat="48.72488" lon="7.0463">
        <ele>274.2</ele>
        <time>2020-06-28T18:39:16Z</time>
      </trkpt>
      <trkpt lat="48.72486" lon="7.04632">
        <ele>274.3</ele>
        <time>2020-06-28T18:39:17Z</time>
      </trkpt>
      <trkpt lat="48.72483" lon="7.04633">
        <ele>274.4</ele>
        <time>2020-06-28T18:39:18Z</time>
      </trkpt>
      <trkpt lat="48.72482" lon="7.04633">
        <ele>274.5</ele>
        <time>2020-06-28T18:39:19Z</time>
      </trkpt>
      <trkpt lat="48.72479" lon="7.04632">
        <ele>274.7</ele>
        <time>2020-06-28T18:39:20Z</time>
      </trkpt>
      <trkpt lat="48.72476" lon="7.04632">
        <ele>274.8</ele>
        <time>2020-06-28T18:39:21Z</time>
      </trkpt>
      <trkpt lat="48.72474" lon="7.04632">
        <ele>275</ele>
        <time>2020-06-28T18:39:22Z</time>
      </trkpt>
      <trkpt lat="48.72473" lon="7.04632">
        <ele>275.1</ele>
        <time>2020-06-28T18:39:23Z</time>
      </trkpt>
      <trkpt lat="48.7247" lon="7.04631">
        <ele>275.2</ele>
        <time>2020-06-28T18:39:24Z</time>
      </trkpt>
      <trkpt lat="48.72467" lon="7.04628">
        <ele>275.4</ele>
        <time>2020-06-28T18:39:25Z</time>
      </trkpt>
      <trkpt lat="48.72464" lon="7.04627">
        <ele>275.6</ele>
        <time>2020-06-28T18:39:26Z</time>
      </trkpt>
      <trkpt lat="48.72461" lon="7.04626">
        <ele>275.8</ele>
        <time>2020-06-28T18:39:27Z</time>
      </trkpt>
      <trkpt lat="48.72459" lon="7.04623">
        <ele>276</ele>
        <time>2020-06-28T18:39:28Z</time>
      </trkpt>
      <trkpt lat="48.72456" lon="7.0462">
        <ele>276.2</ele>
        <time>2020-06-28T18:39:29Z</time>
      </trkpt>
      <trkpt lat="48.72455" lon="7.04618">
        <ele>276.3</ele>
        <time>2020-06-28T18:39:30Z</time>
      </trkpt>
      <trkpt lat="48.72451" lon="7.04616">
        <ele>276.5</ele>
        <time>2020-06-28T18:39:31Z</time>
      </trkpt>
      <trkpt lat="48.72448" lon="7.04615">
        <ele>276.7</ele>
        <time>2020-06-28T18:39:32Z</time>
      </trkpt>
      <trkpt lat="48.72444" lon="7.04613">
        <ele>276.9</ele>
        <time>2020-06-28T18:39:33Z</time>
      </trkpt>
      <trkpt lat="48.72442" lon="7.04613">
        <ele>277</ele>
        <time>2020-06-28T18:39:34Z</time>
      </trkpt>
      <trkpt lat="48.72439" lon="7.04612">
        <ele>277.1</ele>
        <time>2020-06-28T18:39:35Z</time>
      </trkpt>
      <trkpt lat="48.72438" lon="7.04612">
        <ele>277.2</ele>
        <time>2020-06-28T18:39:36Z</time>
      </trkpt>
      <trkpt lat="48.72434" lon="7.04609">
        <ele>277.4</ele>
        <time>2020-06-28T18:39:37Z</time>
      </trkpt>
      <trkpt lat="48.72433" lon="7.04608">
        <ele>277.5</ele>
        <time>2020-06-28T18:39:38Z</time>
      </trkpt>
      <trkpt lat="48.7243" lon="7.04607">
        <ele>277.7</ele>
        <time>2020-06-28T18:39:39Z</time>
      </trkpt>
      <trkpt lat="48.72426" lon="7.04606">
        <ele>277.8</ele>
        <time>2020-06-28T18:39:40Z</time>
      </trkpt>
      <trkpt lat="48.72425" lon="7.04605">
        <ele>277.9</ele>
        <time>2020-06-28T18:39:41Z</time>
      </trkpt>
      <trkpt lat="48.72422" lon="7.04604">
        <ele>278.1</ele>
        <time>2020-06-28T18:39:42Z</time>
      </trkpt>
      <trkpt lat="48.72418" lon="7.04603">
        <ele>278.3</ele>
        <time>2020-06-28T18:39:43Z</time>
      </trkpt>
      <trkpt lat="48.72415" lon="7.04601">
        <ele>278.5</ele>
        <time>2020-06-28T18:39:44Z</time>
      </trkpt>
      <trkpt lat="48.72413" lon="7.04599">
        <ele>278.6</ele>
        <time>2020-06-28T18:39:45Z</time>
      </trkpt>
      <trkpt lat="48.7241" lon="7.04598">
        <ele>278.8</ele>
        <time>2020-06-28T18:39:46Z</time>
      </trkpt>
      <trkpt lat="48.72407" lon="7.04597">
        <ele>279</ele>
        <time>2020-06-28T18:39:47Z</time>
      </trkpt>
      <trkpt lat="48.72406" lon="7.04596">
        <ele>279.1</ele>
        <time>2020-06-28T18:39:48Z</time>
      </trkpt>
      <trkpt lat="48.72403" lon="7.04595">
        <ele>279.2</ele>
        <time>2020-06-28T18:39:49Z</time>
      </trkpt>
      <trkpt lat="48.72401" lon="7.04595">
        <ele>279.3</ele>
        <time>2020-06-28T18:39:50Z</time>
      </trkpt>
      <trkpt lat="48.72398" lon="7.04595">
        <ele>279.5</ele>
        <time>2020-06-28T18:39:51Z</time>
      </trkpt>
      <trkpt lat="48.72395" lon="7.04594">
        <ele>279.7</ele>
        <time>2020-06-28T18:39:52Z</time>
      </trkpt>
      <trkpt lat="48.72394" lon="7.04594">
        <ele>279.7</ele>
        <time>2020-06-28T18:39:53Z</time>
      </trkpt>
      <trkpt lat="48.7239" lon="7.04592">
        <ele>279.9</ele>
        <time>2020-06-28T18:39:54Z</time>
      </trkpt>
      <trkpt lat="48.72389" lon="7.04592">
        <ele>280</ele>
        <time>2020-06-28T18:39:55Z</time>
      </trkpt>
      <trkpt lat="48.72383" lon="7.04589">
        <ele>280.4</ele>
        <time>2020-06-28T18:39:56Z</time>
      </trkpt>
      <trkpt lat="48.72379" lon="7.04587">
        <ele>280.6</ele>
        <time>2020-06-28T18:39:57Z</time>
      </trkpt>
      <trkpt lat="48.72376" lon="7.04586">
        <ele>280.8</ele>
        <time>2020-06-28T18:39:58Z</time>
      </trkpt>
      <trkpt lat="48.72373" lon="7.04585">
        <ele>281</ele>
        <time>2020-06-28T18:39:59Z</time>
      </trkpt>
      <trkpt lat="48.7237" lon="7.04584">
        <ele>281.2</ele>
        <time>2020-06-28T18:40:00Z</time>
      </trkpt>
      <trkpt lat="48.72367" lon="7.04583">
        <ele>281.3</ele>
        <time>2020-06-28T18:40:01Z</time>
      </trkpt>
      <trkpt lat="48.72364" lon="7.04581">
        <ele>281.5</ele>
        <time>2020-06-28T18:40:02Z</time>
      </trkpt>
      <trkpt lat="48.72361" lon="7.04578">
        <ele>281.7</ele>
        <time>2020-06-28T18:40:03Z</time>
      </trkpt>
      <trkpt lat="48.72358" lon="7.04575">
        <ele>281.9</ele>
        <time>2020-06-28T18:40:04Z</time>
      </trkpt>
      <trkpt lat="48.72354" lon="7.04574">
        <ele>282.1</ele>
        <time>2020-06-28T18:40:05Z</time>
      </trkpt>
      <trkpt lat="48.72351" lon="7.04573">
        <ele>282.2</ele>
        <time>2020-06-28T18:40:06Z</time>
      </trkpt>
      <trkpt lat="48.72347" lon="7.04571">
        <ele>282.4</ele>
        <time>2020-06-28T18:40:07Z</time>
      </trkpt>
      <trkpt lat="48.72344" lon="7.0457">
        <ele>282.6</ele>
        <time>2020-06-28T18:40:08Z</time>
      </trkpt>
      <trkpt lat="48.72341" lon="7.04568">
        <ele>282.8</ele>
        <time>2020-06-28T18:40:09Z</time>
      </trkpt>
      <trkpt lat="48.72339" lon="7.04566">
        <ele>282.9</ele>
        <time>2020-06-28T18:40:10Z</time>
      </trkpt>
      <trkpt lat="48.72336" lon="7.04564">
        <ele>283.1</ele>
        <time>2020-06-28T18:40:11Z</time>
      </trkpt>
      <trkpt lat="48.72332" lon="7.04563">
        <ele>283.3</ele>
        <time>2020-06-28T18:40:12Z</time>
      </trkpt>
      <trkpt lat="48.72328" lon="7.04561">
        <ele>283.5</ele>
        <time>2020-06-28T18:40:13Z</time>
      </trkpt>
      <trkpt lat="48.72324" lon="7.04561">
        <ele>283.7</ele>
        <time>2020-06-28T18:40:14Z</time>
      </trkpt>
      <trkpt lat="48.72322" lon="7.0456">
        <ele>283.8</ele>
        <time>2020-06-28T18:40:15Z</time>
      </trkpt>
      <trkpt lat="48.72319" lon="7.04559">
        <ele>284</ele>
        <time>2020-06-28T18:40:16Z</time>
      </trkpt>
      <trkpt lat="48.72316" lon="7.04558">
        <ele>284.2</ele>
        <time>2020-06-28T18:40:17Z</time>
      </trkpt>
      <trkpt lat="48.72313" lon="7.04557">
        <ele>284.4</ele>
        <time>2020-06-28T18:40:18Z</time>
      </trkpt>
      <trkpt lat="48.7231" lon="7.04556">
        <ele>284.5</ele>
        <time>2020-06-28T18:40:19Z</time>
      </trkpt>
      <trkpt lat="48.72307" lon="7.04554">
        <ele>284.7</ele>
        <time>2020-06-28T18:40:20Z</time>
      </trkpt>
      <trkpt lat="48.72304" lon="7.04551">
        <ele>284.9</ele>
        <time>2020-06-28T18:40:21Z</time>
      </trkpt>
      <trkpt lat="48.72301" lon="7.04549">
        <ele>285.1</ele>
        <time>2020-06-28T18:40:22Z</time>
      </trkpt>
      <trkpt lat="48.72298" lon="7.04549">
        <ele>285.2</ele>
        <time>2020-06-28T18:40:23Z</time>
      </trkpt>
      <trkpt lat="48.72295" lon="7.04548">
        <ele>285.4</ele>
        <time>2020-06-28T18:40:24Z</time>
      </trkpt>
      <trkpt lat="48.72292" lon="7.04546">
        <ele>285.6</ele>
        <time>2020-06-28T18:40:25Z</time>
      </trkpt>
      <trkpt lat="48.7229" lon="7.04546">
        <ele>285.7</ele>
        <time>2020-06-28T18:40:26Z</time>
      </trkpt>
      <trkpt lat="48.72287" lon="7.04543">
        <ele>285.9</ele>
        <time>2020-06-28T18:40:27Z</time>
      </trkpt>
      <trkpt lat="48.72287" lon="7.04543">
        <ele>285.9</ele>
        <time>2020-06-28T18:40:28Z</time>
      </trkpt>
      <trkpt lat="48.72283" lon="7.04542">
        <ele>286.2</ele>
        <time>2020-06-28T18:40:29Z</time>
      </trkpt>
      <trkpt lat="48.72281" lon="7.04541">
        <ele>286.2</ele>
        <time>2020-06-28T18:40:30Z</time>
      </trkpt>
      <trkpt lat="48.72277" lon="7.04541">
        <ele>286.5</ele>
        <time>2020-06-28T18:40:31Z</time>
      </trkpt>
      <trkpt lat="48.72274" lon="7.04542">
        <ele>286.6</ele>
        <time>2020-06-28T18:40:32Z</time>
      </trkpt>
      <trkpt lat="48.7227" lon="7.04542">
        <ele>286.9</ele>
        <time>2020-06-28T18:40:33Z</time>
      </trkpt>
      <trkpt lat="48.72266" lon="7.04544">
        <ele>287.1</ele>
        <time>2020-06-28T18:40:34Z</time>
      </trkpt>
      <trkpt lat="48.72263" lon="7.04544">
        <ele>287.2</ele>
        <time>2020-06-28T18:40:35Z</time>
      </trkpt>
      <trkpt lat="48.7226" lon="7.04544">
        <ele>287.4</ele>
        <time>2020-06-28T18:40:36Z</time>
      </trkpt>
      <trkpt lat="48.72255" lon="7.04545">
        <ele>287.7</ele>
        <time>2020-06-28T18:40:37Z</time>
      </trkpt>
      <trkpt lat="48.72254" lon="7.04546">
        <ele>287.8</ele>
        <time>2020-06-28T18:40:38Z</time>
      </trkpt>
      <trkpt lat="48.7225" lon="7.04546">
        <ele>288</ele>
        <time>2020-06-28T18:40:39Z</time>
      </trkpt>
      <trkpt lat="48.72247" lon="7.04546">
        <ele>288.1</ele>
        <time>2020-06-28T18:40:40Z</time>
      </trkpt>
      <trkpt lat="48.72245" lon="7.04546">
        <ele>288.2</ele>
        <time>2020-06-28T18:40:41Z</time>
      </trkpt>
      <trkpt lat="48.72241" lon="7.04546">
        <ele>288.4</ele>
        <time>2020-06-28T18:40:42Z</time>
      </trkpt>
      <trkpt lat="48.7224" lon="7.04546">
        <ele>288.5</ele>
        <time>2020-06-28T18:40:43Z</time>
      </trkpt>
      <trkpt lat="48.72237" lon="7.0455">
        <ele>288.7</ele>
        <time>2020-06-28T18:40:44Z</time>
      </trkpt>
      <trkpt lat="48.72236" lon="7.04552">
        <ele>288.8</ele>
        <time>2020-06-28T18:40:45Z</time>
      </trkpt>
      <trkpt lat="48.72234" lon="7.04556">
        <ele>289.6</ele>
        <time>2020-06-28T18:40:46Z</time>
      </trkpt>
      <trkpt lat="48.72233" lon="7.0456">
        <ele>289.9</ele>
        <time>2020-06-28T18:40:47Z</time>
      </trkpt>
      <trkpt lat="48.72232" lon="7.04562">
        <ele>290</ele>
        <time>2020-06-28T18:40:48Z</time>
      </trkpt>
      <trkpt lat="48.72232" lon="7.04566">
        <ele>290.2</ele>
        <time>2020-06-28T18:40:49Z</time>
      </trkpt>
      <trkpt lat="48.7223" lon="7.0457">
        <ele>290.5</ele>
        <time>2020-06-28T18:40:50Z</time>
      </trkpt>
      <trkpt lat="48.72229" lon="7.04575">
        <ele>290.7</ele>
        <time>2020-06-28T18:40:51Z</time>
      </trkpt>
      <trkpt lat="48.72228" lon="7.04577">
        <ele>290.8</ele>
        <time>2020-06-28T18:40:52Z</time>
      </trkpt>
      <trkpt lat="48.72228" lon="7.04582">
        <ele>291</ele>
        <time>2020-06-28T18:40:53Z</time>
      </trkpt>
      <trkpt lat="48.72228" lon="7.04586">
        <ele>291.2</ele>
        <time>2020-06-28T18:40:54Z</time>
      </trkpt>
      <trkpt lat="48.72228" lon="7.04591">
        <ele>291.5</ele>
        <time>2020-06-28T18:40:55Z</time>
      </trkpt>
      <trkpt lat="48.72229" lon="7.04595">
        <ele>291.7</ele>
        <time>2020-06-28T18:40:56Z</time>
      </trkpt>
      <trkpt lat="48.72229" lon="7.04601">
        <ele>292</ele>
        <time>2020-06-28T18:40:57Z</time>
      </trkpt>
      <trkpt lat="48.72229" lon="7.04603">
        <ele>292.1</ele>
        <time>2020-06-28T18:40:58Z</time>
      </trkpt>
      <trkpt lat="48.72229" lon="7.0461">
        <ele>292.4</ele>
        <time>2020-06-28T18:40:59Z</time>
      </trkpt>
      <trkpt lat="48.72229" lon="7.04612">
        <ele>292.6</ele>
        <time>2020-06-28T18:41:00Z</time>
      </trkpt>
      <trkpt lat="48.7223" lon="7.04617">
        <ele>292.9</ele>
        <time>2020-06-28T18:41:01Z</time>
      </trkpt>
      <trkpt lat="48.7223" lon="7.04622">
        <ele>293.2</ele>
        <time>2020-06-28T18:41:02Z</time>
      </trkpt>
      <trkpt lat="48.7223" lon="7.04628">
        <ele>293.5</ele>
        <time>2020-06-28T18:41:03Z</time>
      </trkpt>
      <trkpt lat="48.7223" lon="7.04633">
        <ele>293.8</ele>
        <time>2020-06-28T18:41:04Z</time>
      </trkpt>
      <trkpt lat="48.72231" lon="7.04638">
        <ele>294.3</ele>
        <time>2020-06-28T18:41:05Z</time>
      </trkpt>
      <trkpt lat="48.7223" lon="7.04644">
        <ele>294.7</ele>
        <time>2020-06-28T18:41:06Z</time>
      </trkpt>
      <trkpt lat="48.72229" lon="7.0465">
        <ele>295.1</ele>
        <time>2020-06-28T18:41:07Z</time>
      </trkpt>
      <trkpt lat="48.72228" lon="7.04656">
        <ele>295.4</ele>
        <time>2020-06-28T18:41:08Z</time>
      </trkpt>
      <trkpt lat="48.72226" lon="7.0466">
        <ele>295.7</ele>
        <time>2020-06-28T18:41:09Z</time>
      </trkpt>
      <trkpt lat="48.72224" lon="7.04664">
        <ele>295.8</ele>
        <time>2020-06-28T18:41:10Z</time>
      </trkpt>
      <trkpt lat="48.72221" lon="7.04668">
        <ele>296</ele>
        <time>2020-06-28T18:41:11Z</time>
      </trkpt>
      <trkpt lat="48.72218" lon="7.04672">
        <ele>296.1</ele>
        <time>2020-06-28T18:41:12Z</time>
      </trkpt>
      <trkpt lat="48.72216" lon="7.04676">
        <ele>296.2</ele>
        <time>2020-06-28T18:41:13Z</time>
      </trkpt>
      <trkpt lat="48.72213" lon="7.0468">
        <ele>296.2</ele>
        <time>2020-06-28T18:41:14Z</time>
      </trkpt>
      <trkpt lat="48.72211" lon="7.04683">
        <ele>296.3</ele>
        <time>2020-06-28T18:41:15Z</time>
      </trkpt>
      <trkpt lat="48.72208" lon="7.04685">
        <ele>296.4</ele>
        <time>2020-06-28T18:41:16Z</time>
      </trkpt>
      <trkpt lat="48.72205" lon="7.04687">
        <ele>296.4</ele>
        <time>2020-06-28T18:41:17Z</time>
      </trkpt>
      <trkpt lat="48.72202" lon="7.04688">
        <ele>296.4</ele>
        <time>2020-06-28T18:41:18Z</time>
      </trkpt>
      <trkpt lat="48.72199" lon="7.0469">
        <ele>296.4</ele>
        <time>2020-06-28T18:41:19Z</time>
      </trkpt>
      <trkpt lat="48.72196" lon="7.04694">
        <ele>296.4</ele>
        <time>2020-06-28T18:41:20Z</time>
      </trkpt>
      <trkpt lat="48.72193" lon="7.04697">
        <ele>296.4</ele>
        <time>2020-06-28T18:41:21Z</time>
      </trkpt>
      <trkpt lat="48.7219" lon="7.04699">
        <ele>296.3</ele>
        <time>2020-06-28T18:41:22Z</time>
      </trkpt>
      <trkpt lat="48.72189" lon="7.04701">
        <ele>296.3</ele>
        <time>2020-06-28T18:41:23Z</time>
      </trkpt>
      <trkpt lat="48.72186" lon="7.04703">
        <ele>296.3</ele>
        <time>2020-06-28T18:41:24Z</time>
      </trkpt>
      <trkpt lat="48.72184" lon="7.04706">
        <ele>296.3</ele>
        <time>2020-06-28T18:41:25Z</time>
      </trkpt>
      <trkpt lat="48.72181" lon="7.04709">
        <ele>296.2</ele>
        <time>2020-06-28T18:41:26Z</time>
      </trkpt>
      <trkpt lat="48.72178" lon="7.04712">
        <ele>296.3</ele>
        <time>2020-06-28T18:41:27Z</time>
      </trkpt>
      <trkpt lat="48.72175" lon="7.04715">
        <ele>296.3</ele>
        <time>2020-06-28T18:41:28Z</time>
      </trkpt>
      <trkpt lat="48.72172" lon="7.04719">
        <ele>296.3</ele>
        <time>2020-06-28T18:41:29Z</time>
      </trkpt>
      <trkpt lat="48.72169" lon="7.04721">
        <ele>296.4</ele>
        <time>2020-06-28T18:41:30Z</time>
      </trkpt>
      <trkpt lat="48.72166" lon="7.04722">
        <ele>296.5</ele>
        <time>2020-06-28T18:41:31Z</time>
      </trkpt>
      <trkpt lat="48.72163" lon="7.04725">
        <ele>296.6</ele>
        <time>2020-06-28T18:41:32Z</time>
      </trkpt>
      <trkpt lat="48.7216" lon="7.04728">
        <ele>296.7</ele>
        <time>2020-06-28T18:41:33Z</time>
      </trkpt>
      <trkpt lat="48.72157" lon="7.0473">
        <ele>296.8</ele>
        <time>2020-06-28T18:41:34Z</time>
      </trkpt>
      <trkpt lat="48.72153" lon="7.04733">
        <ele>296.9</ele>
        <time>2020-06-28T18:41:35Z</time>
      </trkpt>
      <trkpt lat="48.72149" lon="7.04736">
        <ele>297</ele>
        <time>2020-06-28T18:41:36Z</time>
      </trkpt>
      <trkpt lat="48.72145" lon="7.04738">
        <ele>297.1</ele>
        <time>2020-06-28T18:41:37Z</time>
      </trkpt>
      <trkpt lat="48.72142" lon="7.04741">
        <ele>297.2</ele>
        <time>2020-06-28T18:41:38Z</time>
      </trkpt>
      <trkpt lat="48.72138" lon="7.04743">
        <ele>297.3</ele>
        <time>2020-06-28T18:41:39Z</time>
      </trkpt>
      <trkpt lat="48.72135" lon="7.04746">
        <ele>297.4</ele>
        <time>2020-06-28T18:41:40Z</time>
      </trkpt>
      <trkpt lat="48.72132" lon="7.04747">
        <ele>297.5</ele>
        <time>2020-06-28T18:41:41Z</time>
      </trkpt>
      <trkpt lat="48.72128" lon="7.04749">
        <ele>297.5</ele>
        <time>2020-06-28T18:41:42Z</time>
      </trkpt>
      <trkpt lat="48.72124" lon="7.04751">
        <ele>297.6</ele>
        <time>2020-06-28T18:41:43Z</time>
      </trkpt>
      <trkpt lat="48.7212" lon="7.04752">
        <ele>297.7</ele>
        <time>2020-06-28T18:41:44Z</time>
      </trkpt>
      <trkpt lat="48.72115" lon="7.04755">
        <ele>297.7</ele>
        <time>2020-06-28T18:41:45Z</time>
      </trkpt>
      <trkpt lat="48.72111" lon="7.04756">
        <ele>297.8</ele>
        <time>2020-06-28T18:41:46Z</time>
      </trkpt>
      <trkpt lat="48.72107" lon="7.04758">
        <ele>297.8</ele>
        <time>2020-06-28T18:41:47Z</time>
      </trkpt>
      <trkpt lat="48.72104" lon="7.0476">
        <ele>297.9</ele>
        <time>2020-06-28T18:41:48Z</time>
      </trkpt>
      <trkpt lat="48.721" lon="7.0476">
        <ele>297.9</ele>
        <time>2020-06-28T18:41:49Z</time>
      </trkpt>
      <trkpt lat="48.72097" lon="7.04761">
        <ele>298</ele>
        <time>2020-06-28T18:41:50Z</time>
      </trkpt>
      <trkpt lat="48.72094" lon="7.04763">
        <ele>298</ele>
        <time>2020-06-28T18:41:51Z</time>
      </trkpt>
      <trkpt lat="48.72091" lon="7.04764">
        <ele>298</ele>
        <time>2020-06-28T18:41:52Z</time>
      </trkpt>
      <trkpt lat="48.72087" lon="7.04765">
        <ele>298</ele>
        <time>2020-06-28T18:41:53Z</time>
      </trkpt>
      <trkpt lat="48.72084" lon="7.04768">
        <ele>298.1</ele>
        <time>2020-06-28T18:41:54Z</time>
      </trkpt>
      <trkpt lat="48.72081" lon="7.0477">
        <ele>298.1</ele>
        <time>2020-06-28T18:41:55Z</time>
      </trkpt>
      <trkpt lat="48.72078" lon="7.04771">
        <ele>298</ele>
        <time>2020-06-28T18:41:56Z</time>
      </trkpt>
      <trkpt lat="48.72074" lon="7.04772">
        <ele>298</ele>
        <time>2020-06-28T18:41:57Z</time>
      </trkpt>
      <trkpt lat="48.7207" lon="7.04773">
        <ele>298</ele>
        <time>2020-06-28T18:41:58Z</time>
      </trkpt>
      <trkpt lat="48.72067" lon="7.04774">
        <ele>297.9</ele>
        <time>2020-06-28T18:41:59Z</time>
      </trkpt>
      <trkpt lat="48.72062" lon="7.04772">
        <ele>297.8</ele>
        <time>2020-06-28T18:42:00Z</time>
      </trkpt>
      <trkpt lat="48.72059" lon="7.04772">
        <ele>297.7</ele>
        <time>2020-06-28T18:42:01Z</time>
      </trkpt>
      <trkpt lat="48.72055" lon="7.04772">
        <ele>297.7</ele>
        <time>2020-06-28T18:42:02Z</time>
      </trkpt>
      <trkpt lat="48.72052" lon="7.04771">
        <ele>297.6</ele>
        <time>2020-06-28T18:42:03Z</time>
      </trkpt>
      <trkpt lat="48.72048" lon="7.04772">
        <ele>297.6</ele>
        <time>2020-06-28T18:42:04Z</time>
      </trkpt>
      <trkpt lat="48.72044" lon="7.04772">
        <ele>297.5</ele>
        <time>2020-06-28T18:42:05Z</time>
      </trkpt>
      <trkpt lat="48.7204" lon="7.04773">
        <ele>297.5</ele>
        <time>2020-06-28T18:42:06Z</time>
      </trkpt>
      <trkpt lat="48.72036" lon="7.04772">
        <ele>297.5</ele>
        <time>2020-06-28T18:42:07Z</time>
      </trkpt>
      <trkpt lat="48.72032" lon="7.04772">
        <ele>297.5</ele>
        <time>2020-06-28T18:42:08Z</time>
      </trkpt>
      <trkpt lat="48.72028" lon="7.0477">
        <ele>297.5</ele>
        <time>2020-06-28T18:42:09Z</time>
      </trkpt>
      <trkpt lat="48.72023" lon="7.04769">
        <ele>297.5</ele>
        <time>2020-06-28T18:42:10Z</time>
      </trkpt>
      <trkpt lat="48.72018" lon="7.04769">
        <ele>297.4</ele>
        <time>2020-06-28T18:42:11Z</time>
      </trkpt>
      <trkpt lat="48.72015" lon="7.04768">
        <ele>297.4</ele>
        <time>2020-06-28T18:42:12Z</time>
      </trkpt>
      <trkpt lat="48.72012" lon="7.04769">
        <ele>297.3</ele>
        <time>2020-06-28T18:42:13Z</time>
      </trkpt>
      <trkpt lat="48.72009" lon="7.04768">
        <ele>297.2</ele>
        <time>2020-06-28T18:42:14Z</time>
      </trkpt>
      <trkpt lat="48.72006" lon="7.04768">
        <ele>297.2</ele>
        <time>2020-06-28T18:42:15Z</time>
      </trkpt>
      <trkpt lat="48.72002" lon="7.04769">
        <ele>297.1</ele>
        <time>2020-06-28T18:42:16Z</time>
      </trkpt>
      <trkpt lat="48.71999" lon="7.0477">
        <ele>297.1</ele>
        <time>2020-06-28T18:42:17Z</time>
      </trkpt>
      <trkpt lat="48.71996" lon="7.04771">
        <ele>297.1</ele>
        <time>2020-06-28T18:42:18Z</time>
      </trkpt>
      <trkpt lat="48.71993" lon="7.04772">
        <ele>297</ele>
        <time>2020-06-28T18:42:19Z</time>
      </trkpt>
      <trkpt lat="48.7199" lon="7.04773">
        <ele>297</ele>
        <time>2020-06-28T18:42:20Z</time>
      </trkpt>
      <trkpt lat="48.71987" lon="7.04775">
        <ele>297</ele>
        <time>2020-06-28T18:42:21Z</time>
      </trkpt>
      <trkpt lat="48.71985" lon="7.04779">
        <ele>297.1</ele>
        <time>2020-06-28T18:42:22Z</time>
      </trkpt>
      <trkpt lat="48.71983" lon="7.04782">
        <ele>297.2</ele>
        <time>2020-06-28T18:42:23Z</time>
      </trkpt>
      <trkpt lat="48.71982" lon="7.04786">
        <ele>297.2</ele>
        <time>2020-06-28T18:42:24Z</time>
      </trkpt>
      <trkpt lat="48.71981" lon="7.04791">
        <ele>297.3</ele>
        <time>2020-06-28T18:42:25Z</time>
      </trkpt>
      <trkpt lat="48.7198" lon="7.04795">
        <ele>297.4</ele>
        <time>2020-06-28T18:42:26Z</time>
      </trkpt>
      <trkpt lat="48.7198" lon="7.04799">
        <ele>297.5</ele>
        <time>2020-06-28T18:42:27Z</time>
      </trkpt>
      <trkpt lat="48.71979" lon="7.04804">
        <ele>297.6</ele>
        <time>2020-06-28T18:42:28Z</time>
      </trkpt>
      <trkpt lat="48.71979" lon="7.04809">
        <ele>297.6</ele>
        <time>2020-06-28T18:42:29Z</time>
      </trkpt>
      <trkpt lat="48.71979" lon="7.04814">
        <ele>297.6</ele>
        <time>2020-06-28T18:42:30Z</time>
      </trkpt>
      <trkpt lat="48.71979" lon="7.0482">
        <ele>297.6</ele>
        <time>2020-06-28T18:42:31Z</time>
      </trkpt>
      <trkpt lat="48.71979" lon="7.04826">
        <ele>297.6</ele>
        <time>2020-06-28T18:42:32Z</time>
      </trkpt>
      <trkpt lat="48.7198" lon="7.04832">
        <ele>297.6</ele>
        <time>2020-06-28T18:42:33Z</time>
      </trkpt>
      <trkpt lat="48.7198" lon="7.04837">
        <ele>297.6</ele>
        <time>2020-06-28T18:42:34Z</time>
      </trkpt>
      <trkpt lat="48.7198" lon="7.04844">
        <ele>297.6</ele>
        <time>2020-06-28T18:42:35Z</time>
      </trkpt>
      <trkpt lat="48.71979" lon="7.0485">
        <ele>297.6</ele>
        <time>2020-06-28T18:42:36Z</time>
      </trkpt>
      <trkpt lat="48.71979" lon="7.04856">
        <ele>297.6</ele>
        <time>2020-06-28T18:42:37Z</time>
      </trkpt>
      <trkpt lat="48.71979" lon="7.04861">
        <ele>297.6</ele>
        <time>2020-06-28T18:42:38Z</time>
      </trkpt>
      <trkpt lat="48.71978" lon="7.04866">
        <ele>297.6</ele>
        <time>2020-06-28T18:42:39Z</time>
      </trkpt>
      <trkpt lat="48.71978" lon="7.04871">
        <ele>297.7</ele>
        <time>2020-06-28T18:42:40Z</time>
      </trkpt>
      <trkpt lat="48.71977" lon="7.04876">
        <ele>297.7</ele>
        <time>2020-06-28T18:42:41Z</time>
      </trkpt>
      <trkpt lat="48.71977" lon="7.04882">
        <ele>297.7</ele>
        <time>2020-06-28T18:42:42Z</time>
      </trkpt>
      <trkpt lat="48.71976" lon="7.04887">
        <ele>297.7</ele>
        <time>2020-06-28T18:42:43Z</time>
      </trkpt>
      <trkpt lat="48.71977" lon="7.04892">
        <ele>297.7</ele>
        <time>2020-06-28T18:42:44Z</time>
      </trkpt>
      <trkpt lat="48.71976" lon="7.04896">
        <ele>297.7</ele>
        <time>2020-06-28T18:42:45Z</time>
      </trkpt>
      <trkpt lat="48.71976" lon="7.04901">
        <ele>297.7</ele>
        <time>2020-06-28T18:42:46Z</time>
      </trkpt>
      <trkpt lat="48.71977" lon="7.04907">
        <ele>297.7</ele>
        <time>2020-06-28T18:42:47Z</time>
      </trkpt>
      <trkpt lat="48.71976" lon="7.04908">
        <ele>297.7</ele>
        <time>2020-06-28T18:42:48Z</time>
      </trkpt>
      <trkpt lat="48.71976" lon="7.04913">
        <ele>297.7</ele>
        <time>2020-06-28T18:42:49Z</time>
      </trkpt>
      <trkpt lat="48.71976" lon="7.04914">
        <ele>297.7</ele>
        <time>2020-06-28T18:42:50Z</time>
      </trkpt>
      <trkpt lat="48.71976" lon="7.04916">
        <ele>297.7</ele>
        <time>2020-06-28T18:42:51Z</time>
      </trkpt>
      <trkpt lat="48.71977" lon="7.04919">
        <ele>297.7</ele>
        <time>2020-06-28T18:42:52Z</time>
      </trkpt>
      <trkpt lat="48.71977" lon="7.04923">
        <ele>297.7</ele>
        <time>2020-06-28T18:42:53Z</time>
      </trkpt>
      <trkpt lat="48.71976" lon="7.04924">
        <ele>297.7</ele>
        <time>2020-06-28T18:42:54Z</time>
      </trkpt>
      <trkpt lat="48.71977" lon="7.0493">
        <ele>297.7</ele>
        <time>2020-06-28T18:42:55Z</time>
      </trkpt>
      <trkpt lat="48.71978" lon="7.04932">
        <ele>297.7</ele>
        <time>2020-06-28T18:42:56Z</time>
      </trkpt>
      <trkpt lat="48.71977" lon="7.04936">
        <ele>297.8</ele>
        <time>2020-06-28T18:42:57Z</time>
      </trkpt>
      <trkpt lat="48.71978" lon="7.0494">
        <ele>297.8</ele>
        <time>2020-06-28T18:42:58Z</time>
      </trkpt>
      <trkpt lat="48.71979" lon="7.04945">
        <ele>297.8</ele>
        <time>2020-06-28T18:42:59Z</time>
      </trkpt>
      <trkpt lat="48.71979" lon="7.04947">
        <ele>297.8</ele>
        <time>2020-06-28T18:43:00Z</time>
      </trkpt>
      <trkpt lat="48.71976" lon="7.04948">
        <ele>297.8</ele>
        <time>2020-06-28T18:43:01Z</time>
      </trkpt>
      <trkpt lat="48.71976" lon="7.0495">
        <ele>297.8</ele>
        <time>2020-06-28T18:43:02Z</time>
      </trkpt>
      <trkpt lat="48.71976" lon="7.04952">
        <ele>297.8</ele>
        <time>2020-06-28T18:43:03Z</time>
      </trkpt>
      <trkpt lat="48.71977" lon="7.04954">
        <ele>297.8</ele>
        <time>2020-06-28T18:43:04Z</time>
      </trkpt>
      <trkpt lat="48.71977" lon="7.04955">
        <ele>297.8</ele>
        <time>2020-06-28T18:43:05Z</time>
      </trkpt>
      <trkpt lat="48.71977" lon="7.04954">
        <ele>297.8</ele>
        <time>2020-06-28T18:43:06Z</time>
      </trkpt>
      <trkpt lat="48.71977" lon="7.04952">
        <ele>297.8</ele>
        <time>2020-06-28T18:43:07Z</time>
      </trkpt>
      <trkpt lat="48.71977" lon="7.0495">
        <ele>297.8</ele>
        <time>2020-06-28T18:43:08Z</time>
      </trkpt>
      <trkpt lat="48.71977" lon="7.04949">
        <ele>297.8</ele>
        <time>2020-06-28T18:43:09Z</time>
      </trkpt>
      <trkpt lat="48.71977" lon="7.04949">
        <ele>297.8</ele>
        <time>2020-06-28T18:43:10Z</time>
      </trkpt>
      <trkpt lat="48.71977" lon="7.04949">
        <ele>297.8</ele>
        <time>2020-06-28T18:43:11Z</time>
      </trkpt>
      <trkpt lat="48.71976" lon="7.0495">
        <ele>297.8</ele>
        <time>2020-06-28T18:43:12Z</time>
      </trkpt>
      <trkpt lat="48.71976" lon="7.04949">
        <ele>297.8</ele>
        <time>2020-06-28T18:43:13Z</time>
      </trkpt>
      <trkpt lat="48.71976" lon="7.04949">
        <ele>297.8</ele>
        <time>2020-06-28T18:43:14Z</time>
      </trkpt>
      <trkpt lat="48.71976" lon="7.04949">
        <ele>297.8</ele>
        <time>2020-06-28T18:43:15Z</time>
      </trkpt>
      <trkpt lat="48.71976" lon="7.0495">
        <ele>297.8</ele>
        <time>2020-06-28T18:43:16Z</time>
      </trkpt>
      <trkpt lat="48.71975" lon="7.0495">
        <ele>297.8</ele>
        <time>2020-06-28T18:43:17Z</time>
      </trkpt>
      <trkpt lat="48.71975" lon="7.04952">
        <ele>297.8</ele>
        <time>2020-06-28T18:43:18Z</time>
      </trkpt>
      <trkpt lat="48.71975" lon="7.0495">
        <ele>297.8</ele>
        <time>2020-06-28T18:43:19Z</time>
      </trkpt>
      <trkpt lat="48.71975" lon="7.04948">
        <ele>297.8</ele>
        <time>2020-06-28T18:43:20Z</time>
      </trkpt>
      <trkpt lat="48.71976" lon="7.04947">
        <ele>297.8</ele>
        <time>2020-06-28T18:43:21Z</time>
      </trkpt>
      <trkpt lat="48.71976" lon="7.04946">
        <ele>297.8</ele>
        <time>2020-06-28T18:43:22Z</time>
      </trkpt>
      <trkpt lat="48.71976" lon="7.04944">
        <ele>297.8</ele>
        <time>2020-06-28T18:43:23Z</time>
      </trkpt>
      <trkpt lat="48.71976" lon="7.04942">
        <ele>297.8</ele>
        <time>2020-06-28T18:43:24Z</time>
      </trkpt>
      <trkpt lat="48.71977" lon="7.04941">
        <ele>297.8</ele>
        <time>2020-06-28T18:43:25Z</time>
      </trkpt>
      <trkpt lat="48.71977" lon="7.04939">
        <ele>297.8</ele>
        <time>2020-06-28T18:43:26Z</time>
      </trkpt>
      <trkpt lat="48.71977" lon="7.04937">
        <ele>297.8</ele>
        <time>2020-06-28T18:43:27Z</time>
      </trkpt>
      <trkpt lat="48.71978" lon="7.04936">
        <ele>297.8</ele>
        <time>2020-06-28T18:43:28Z</time>
      </trkpt>
      <trkpt lat="48.71978" lon="7.04934">
        <ele>297.8</ele>
        <time>2020-06-28T18:43:29Z</time>
      </trkpt>
      <trkpt lat="48.71979" lon="7.04932">
        <ele>297.8</ele>
        <time>2020-06-28T18:44:27Z</time>
      </trkpt>
      <trkpt lat="48.71979" lon="7.04931">
        <ele>297.8</ele>
        <time>2020-06-28T18:44:28Z</time>
      </trkpt>
      <trkpt lat="48.71979" lon="7.04925">
        <ele>297.8</ele>
        <time>2020-06-28T18:44:29Z</time>
      </trkpt>
      <trkpt lat="48.71978" lon="7.04923">
        <ele>297.8</ele>
        <time>2020-06-28T18:44:30Z</time>
      </trkpt>
      <trkpt lat="48.71978" lon="7.04917">
        <ele>297.8</ele>
        <time>2020-06-28T18:44:31Z</time>
      </trkpt>
      <trkpt lat="48.71978" lon="7.04915">
        <ele>297.8</ele>
        <time>2020-06-28T18:44:32Z</time>
      </trkpt>
      <trkpt lat="48.71978" lon="7.0491">
        <ele>297.7</ele>
        <time>2020-06-28T18:44:33Z</time>
      </trkpt>
      <trkpt lat="48.71978" lon="7.04908">
        <ele>297.7</ele>
        <time>2020-06-28T18:44:34Z</time>
      </trkpt>
      <trkpt lat="48.71978" lon="7.04902">
        <ele>297.7</ele>
        <time>2020-06-28T18:44:35Z</time>
      </trkpt>
      <trkpt lat="48.71979" lon="7.049">
        <ele>297.7</ele>
        <time>2020-06-28T18:44:36Z</time>
      </trkpt>
      <trkpt lat="48.71979" lon="7.04895">
        <ele>297.7</ele>
        <time>2020-06-28T18:44:37Z</time>
      </trkpt>
      <trkpt lat="48.71979" lon="7.0489">
        <ele>297.7</ele>
        <time>2020-06-28T18:44:38Z</time>
      </trkpt>
      <trkpt lat="48.7198" lon="7.04885">
        <ele>297.7</ele>
        <time>2020-06-28T18:44:39Z</time>
      </trkpt>
      <trkpt lat="48.71979" lon="7.0488">
        <ele>297.7</ele>
        <time>2020-06-28T18:44:40Z</time>
      </trkpt>
      <trkpt lat="48.71979" lon="7.04875">
        <ele>297.7</ele>
        <time>2020-06-28T18:44:41Z</time>
      </trkpt>
      <trkpt lat="48.71978" lon="7.0487">
        <ele>297.7</ele>
        <time>2020-06-28T18:44:42Z</time>
      </trkpt>
      <trkpt lat="48.71979" lon="7.04865">
        <ele>297.7</ele>
        <time>2020-06-28T18:44:43Z</time>
      </trkpt>
      <trkpt lat="48.71979" lon="7.0486">
        <ele>297.7</ele>
        <time>2020-06-28T18:44:44Z</time>
      </trkpt>
      <trkpt lat="48.71979" lon="7.04854">
        <ele>297.6</ele>
        <time>2020-06-28T18:44:45Z</time>
      </trkpt>
      <trkpt lat="48.71979" lon="7.04849">
        <ele>297.6</ele>
        <time>2020-06-28T18:44:46Z</time>
      </trkpt>
      <trkpt lat="48.7198" lon="7.04843">
        <ele>297.6</ele>
        <time>2020-06-28T18:44:47Z</time>
      </trkpt>
      <trkpt lat="48.7198" lon="7.04838">
        <ele>297.6</ele>
        <time>2020-06-28T18:44:48Z</time>
      </trkpt>
      <trkpt lat="48.71981" lon="7.04832">
        <ele>297.6</ele>
        <time>2020-06-28T18:44:49Z</time>
      </trkpt>
      <trkpt lat="48.71982" lon="7.04827">
        <ele>297.6</ele>
        <time>2020-06-28T18:44:50Z</time>
      </trkpt>
      <trkpt lat="48.71982" lon="7.04821">
        <ele>297.6</ele>
        <time>2020-06-28T18:44:51Z</time>
      </trkpt>
      <trkpt lat="48.71982" lon="7.04815">
        <ele>297.6</ele>
        <time>2020-06-28T18:44:52Z</time>
      </trkpt>
      <trkpt lat="48.71983" lon="7.04809">
        <ele>297.6</ele>
        <time>2020-06-28T18:44:53Z</time>
      </trkpt>
      <trkpt lat="48.71983" lon="7.04803">
        <ele>297.5</ele>
        <time>2020-06-28T18:44:54Z</time>
      </trkpt>
      <trkpt lat="48.71984" lon="7.04798">
        <ele>297.4</ele>
        <time>2020-06-28T18:44:55Z</time>
      </trkpt>
      <trkpt lat="48.71984" lon="7.04793">
        <ele>297.3</ele>
        <time>2020-06-28T18:44:56Z</time>
      </trkpt>
      <trkpt lat="48.71984" lon="7.04788">
        <ele>297.2</ele>
        <time>2020-06-28T18:44:57Z</time>
      </trkpt>
      <trkpt lat="48.71984" lon="7.04783">
        <ele>297.2</ele>
        <time>2020-06-28T18:44:58Z</time>
      </trkpt>
      <trkpt lat="48.71985" lon="7.04779">
        <ele>297.1</ele>
        <time>2020-06-28T18:44:59Z</time>
      </trkpt>
      <trkpt lat="48.71986" lon="7.04774">
        <ele>297</ele>
        <time>2020-06-28T18:45:00Z</time>
      </trkpt>
      <trkpt lat="48.71986" lon="7.04768">
        <ele>296.9</ele>
        <time>2020-06-28T18:45:01Z</time>
      </trkpt>
      <trkpt lat="48.71986" lon="7.04766">
        <ele>296.9</ele>
        <time>2020-06-28T18:45:02Z</time>
      </trkpt>
      <trkpt lat="48.71985" lon="7.04762">
        <ele>296.8</ele>
        <time>2020-06-28T18:45:03Z</time>
      </trkpt>
      <trkpt lat="48.71984" lon="7.04757">
        <ele>296.7</ele>
        <time>2020-06-28T18:45:04Z</time>
      </trkpt>
      <trkpt lat="48.71982" lon="7.04752">
        <ele>296.7</ele>
        <time>2020-06-28T18:45:05Z</time>
      </trkpt>
      <trkpt lat="48.71981" lon="7.04746">
        <ele>296.6</ele>
        <time>2020-06-28T18:45:06Z</time>
      </trkpt>
      <trkpt lat="48.71979" lon="7.0474">
        <ele>296.4</ele>
        <time>2020-06-28T18:45:07Z</time>
      </trkpt>
      <trkpt lat="48.71976" lon="7.04735">
        <ele>296.3</ele>
        <time>2020-06-28T18:45:08Z</time>
      </trkpt>
      <trkpt lat="48.71973" lon="7.04729">
        <ele>296.2</ele>
        <time>2020-06-28T18:45:09Z</time>
      </trkpt>
      <trkpt lat="48.7197" lon="7.04723">
        <ele>296.1</ele>
        <time>2020-06-28T18:45:10Z</time>
      </trkpt>
      <trkpt lat="48.71967" lon="7.04718">
        <ele>296</ele>
        <time>2020-06-28T18:45:11Z</time>
      </trkpt>
      <trkpt lat="48.71965" lon="7.04713">
        <ele>295.9</ele>
        <time>2020-06-28T18:45:12Z</time>
      </trkpt>
      <trkpt lat="48.71963" lon="7.04708">
        <ele>295.9</ele>
        <time>2020-06-28T18:45:13Z</time>
      </trkpt>
      <trkpt lat="48.71962" lon="7.04702">
        <ele>295.8</ele>
        <time>2020-06-28T18:45:14Z</time>
      </trkpt>
      <trkpt lat="48.71963" lon="7.04696">
        <ele>295.8</ele>
        <time>2020-06-28T18:45:15Z</time>
      </trkpt>
      <trkpt lat="48.71964" lon="7.04689">
        <ele>295.8</ele>
        <time>2020-06-28T18:45:16Z</time>
      </trkpt>
      <trkpt lat="48.71964" lon="7.04683">
        <ele>295.8</ele>
        <time>2020-06-28T18:45:17Z</time>
      </trkpt>
      <trkpt lat="48.71966" lon="7.04677">
        <ele>295.7</ele>
        <time>2020-06-28T18:45:18Z</time>
      </trkpt>
      <trkpt lat="48.71964" lon="7.04671">
        <ele>295.3</ele>
        <time>2020-06-28T18:45:19Z</time>
      </trkpt>
      <trkpt lat="48.71964" lon="7.04663">
        <ele>294.8</ele>
        <time>2020-06-28T18:45:20Z</time>
      </trkpt>
      <trkpt lat="48.71962" lon="7.04658">
        <ele>294.4</ele>
        <time>2020-06-28T18:45:21Z</time>
      </trkpt>
      <trkpt lat="48.7196" lon="7.04653">
        <ele>294</ele>
        <time>2020-06-28T18:45:22Z</time>
      </trkpt>
      <trkpt lat="48.71957" lon="7.04649">
        <ele>293.6</ele>
        <time>2020-06-28T18:45:23Z</time>
      </trkpt>
      <trkpt lat="48.71954" lon="7.04645">
        <ele>293.5</ele>
        <time>2020-06-28T18:45:24Z</time>
      </trkpt>
      <trkpt lat="48.7195" lon="7.04644">
        <ele>293.4</ele>
        <time>2020-06-28T18:45:25Z</time>
      </trkpt>
      <trkpt lat="48.71947" lon="7.04642">
        <ele>293.4</ele>
        <time>2020-06-28T18:45:26Z</time>
      </trkpt>
      <trkpt lat="48.71944" lon="7.04641">
        <ele>293.3</ele>
        <time>2020-06-28T18:45:27Z</time>
      </trkpt>
      <trkpt lat="48.71941" lon="7.04641">
        <ele>293.2</ele>
        <time>2020-06-28T18:45:28Z</time>
      </trkpt>
      <trkpt lat="48.71938" lon="7.0464">
        <ele>293.2</ele>
        <time>2020-06-28T18:45:29Z</time>
      </trkpt>
      <trkpt lat="48.71934" lon="7.04638">
        <ele>293.6</ele>
        <time>2020-06-28T18:45:30Z</time>
      </trkpt>
      <trkpt lat="48.71931" lon="7.04635">
        <ele>294.3</ele>
        <time>2020-06-28T18:45:31Z</time>
      </trkpt>
      <trkpt lat="48.71928" lon="7.04633">
        <ele>295</ele>
        <time>2020-06-28T18:45:32Z</time>
      </trkpt>
      <trkpt lat="48.71925" lon="7.04629">
        <ele>296.3</ele>
        <time>2020-06-28T18:45:33Z</time>
      </trkpt>
      <trkpt lat="48.71923" lon="7.04625">
        <ele>296</ele>
        <time>2020-06-28T18:45:34Z</time>
      </trkpt>
      <trkpt lat="48.71919" lon="7.04622">
        <ele>295.8</ele>
        <time>2020-06-28T18:45:35Z</time>
      </trkpt>
      <trkpt lat="48.71917" lon="7.04618">
        <ele>295.3</ele>
        <time>2020-06-28T18:45:36Z</time>
      </trkpt>
      <trkpt lat="48.71914" lon="7.04614">
        <ele>295.1</ele>
        <time>2020-06-28T18:45:37Z</time>
      </trkpt>
      <trkpt lat="48.71911" lon="7.0461">
        <ele>295</ele>
        <time>2020-06-28T18:45:38Z</time>
      </trkpt>
      <trkpt lat="48.71909" lon="7.04604">
        <ele>294.8</ele>
        <time>2020-06-28T18:45:39Z</time>
      </trkpt>
      <trkpt lat="48.71906" lon="7.04599">
        <ele>294.6</ele>
        <time>2020-06-28T18:45:40Z</time>
      </trkpt>
      <trkpt lat="48.71904" lon="7.04593">
        <ele>294.4</ele>
        <time>2020-06-28T18:45:41Z</time>
      </trkpt>
      <trkpt lat="48.71901" lon="7.04589">
        <ele>294</ele>
        <time>2020-06-28T18:45:42Z</time>
      </trkpt>
      <trkpt lat="48.71898" lon="7.04583">
        <ele>293.7</ele>
        <time>2020-06-28T18:45:43Z</time>
      </trkpt>
      <trkpt lat="48.71895" lon="7.04578">
        <ele>293.5</ele>
        <time>2020-06-28T18:45:44Z</time>
      </trkpt>
      <trkpt lat="48.71892" lon="7.04574">
        <ele>293.2</ele>
        <time>2020-06-28T18:45:45Z</time>
      </trkpt>
      <trkpt lat="48.71889" lon="7.04569">
        <ele>293</ele>
        <time>2020-06-28T18:45:46Z</time>
      </trkpt>
      <trkpt lat="48.71886" lon="7.04564">
        <ele>292.7</ele>
        <time>2020-06-28T18:45:47Z</time>
      </trkpt>
      <trkpt lat="48.71883" lon="7.04558">
        <ele>292.5</ele>
        <time>2020-06-28T18:45:48Z</time>
      </trkpt>
      <trkpt lat="48.7188" lon="7.04553">
        <ele>292.2</ele>
        <time>2020-06-28T18:45:49Z</time>
      </trkpt>
      <trkpt lat="48.71878" lon="7.04547">
        <ele>291.9</ele>
        <time>2020-06-28T18:45:50Z</time>
      </trkpt>
      <trkpt lat="48.71875" lon="7.04542">
        <ele>291.6</ele>
        <time>2020-06-28T18:45:51Z</time>
      </trkpt>
      <trkpt lat="48.71872" lon="7.04536">
        <ele>291.3</ele>
        <time>2020-06-28T18:45:52Z</time>
      </trkpt>
      <trkpt lat="48.71871" lon="7.0453">
        <ele>291.1</ele>
        <time>2020-06-28T18:45:53Z</time>
      </trkpt>
      <trkpt lat="48.7187" lon="7.04524">
        <ele>290.9</ele>
        <time>2020-06-28T18:45:54Z</time>
      </trkpt>
      <trkpt lat="48.7187" lon="7.04518">
        <ele>290.6</ele>
        <time>2020-06-28T18:45:55Z</time>
      </trkpt>
      <trkpt lat="48.71871" lon="7.04513">
        <ele>290.4</ele>
        <time>2020-06-28T18:45:56Z</time>
      </trkpt>
      <trkpt lat="48.71872" lon="7.04508">
        <ele>290.2</ele>
        <time>2020-06-28T18:45:57Z</time>
      </trkpt>
      <trkpt lat="48.71874" lon="7.04503">
        <ele>290</ele>
        <time>2020-06-28T18:45:58Z</time>
      </trkpt>
      <trkpt lat="48.71875" lon="7.04498">
        <ele>289.8</ele>
        <time>2020-06-28T18:45:59Z</time>
      </trkpt>
      <trkpt lat="48.71876" lon="7.04494">
        <ele>289.7</ele>
        <time>2020-06-28T18:46:00Z</time>
      </trkpt>
      <trkpt lat="48.71877" lon="7.04489">
        <ele>289.5</ele>
        <time>2020-06-28T18:46:01Z</time>
      </trkpt>
      <trkpt lat="48.71879" lon="7.04484">
        <ele>289.3</ele>
        <time>2020-06-28T18:46:02Z</time>
      </trkpt>
      <trkpt lat="48.7188" lon="7.04481">
        <ele>289.1</ele>
        <time>2020-06-28T18:46:03Z</time>
      </trkpt>
      <trkpt lat="48.71882" lon="7.04477">
        <ele>288.9</ele>
        <time>2020-06-28T18:46:04Z</time>
      </trkpt>
      <trkpt lat="48.71884" lon="7.04474">
        <ele>288.7</ele>
        <time>2020-06-28T18:46:05Z</time>
      </trkpt>
      <trkpt lat="48.71887" lon="7.04471">
        <ele>288.5</ele>
        <time>2020-06-28T18:46:06Z</time>
      </trkpt>
      <trkpt lat="48.71889" lon="7.04468">
        <ele>288.4</ele>
        <time>2020-06-28T18:46:07Z</time>
      </trkpt>
      <trkpt lat="48.71892" lon="7.04466">
        <ele>288.2</ele>
        <time>2020-06-28T18:46:08Z</time>
      </trkpt>
      <trkpt lat="48.71894" lon="7.04462">
        <ele>288</ele>
        <time>2020-06-28T18:46:09Z</time>
      </trkpt>
      <trkpt lat="48.71896" lon="7.04459">
        <ele>287.9</ele>
        <time>2020-06-28T18:46:10Z</time>
      </trkpt>
      <trkpt lat="48.719" lon="7.04457">
        <ele>287.6</ele>
        <time>2020-06-28T18:46:11Z</time>
      </trkpt>
      <trkpt lat="48.71901" lon="7.04457">
        <ele>287.5</ele>
        <time>2020-06-28T18:46:12Z</time>
      </trkpt>
      <trkpt lat="48.71905" lon="7.04457">
        <ele>287.3</ele>
        <time>2020-06-28T18:46:13Z</time>
      </trkpt>
      <trkpt lat="48.71908" lon="7.04458">
        <ele>285.1</ele>
        <time>2020-06-28T18:46:14Z</time>
      </trkpt>
      <trkpt lat="48.71909" lon="7.04461">
        <ele>285.1</ele>
        <time>2020-06-28T18:46:15Z</time>
      </trkpt>
      <trkpt lat="48.7191" lon="7.04462">
        <ele>285.1</ele>
        <time>2020-06-28T18:46:16Z</time>
      </trkpt>
      <trkpt lat="48.71911" lon="7.04465">
        <ele>285.2</ele>
        <time>2020-06-28T18:46:17Z</time>
      </trkpt>
      <trkpt lat="48.71911" lon="7.04466">
        <ele>285.2</ele>
        <time>2020-06-28T18:46:18Z</time>
      </trkpt>
      <trkpt lat="48.7191" lon="7.04466">
        <ele>285.2</ele>
        <time>2020-06-28T18:46:19Z</time>
      </trkpt>
      <trkpt lat="48.71909" lon="7.04467">
        <ele>285.2</ele>
        <time>2020-06-28T18:46:20Z</time>
      </trkpt>
      <trkpt lat="48.71908" lon="7.04467">
        <ele>285.3</ele>
        <time>2020-06-28T18:46:21Z</time>
      </trkpt>
      <trkpt lat="48.71907" lon="7.04468">
        <ele>285.3</ele>
        <time>2020-06-28T18:46:22Z</time>
      </trkpt>
      <trkpt lat="48.71907" lon="7.04469">
        <ele>285.3</ele>
        <time>2020-06-28T18:46:23Z</time>
      </trkpt>
      <trkpt lat="48.71907" lon="7.0447">
        <ele>285.3</ele>
        <time>2020-06-28T18:46:24Z</time>
      </trkpt>
      <trkpt lat="48.71906" lon="7.04471">
        <ele>285.3</ele>
        <time>2020-06-28T18:46:25Z</time>
      </trkpt>
      <trkpt lat="48.71905" lon="7.04472">
        <ele>285.3</ele>
        <time>2020-06-28T18:46:26Z</time>
      </trkpt>
      <trkpt lat="48.71904" lon="7.04474">
        <ele>285.4</ele>
        <time>2020-06-28T18:46:27Z</time>
      </trkpt>
      <trkpt lat="48.71902" lon="7.04477">
        <ele>285.4</ele>
        <time>2020-06-28T18:46:28Z</time>
      </trkpt>
      <trkpt lat="48.71901" lon="7.04478">
        <ele>285.5</ele>
        <time>2020-06-28T18:46:29Z</time>
      </trkpt>
      <trkpt lat="48.719" lon="7.0448">
        <ele>285.5</ele>
        <time>2020-06-28T18:46:30Z</time>
      </trkpt>
      <trkpt lat="48.71899" lon="7.04482">
        <ele>285.5</ele>
        <time>2020-06-28T18:46:31Z</time>
      </trkpt>
      <trkpt lat="48.71897" lon="7.04483">
        <ele>285.6</ele>
        <time>2020-06-28T18:46:32Z</time>
      </trkpt>
      <trkpt lat="48.71897" lon="7.04486">
        <ele>285.6</ele>
        <time>2020-06-28T18:46:33Z</time>
      </trkpt>
      <trkpt lat="48.71897" lon="7.04488">
        <ele>285.6</ele>
        <time>2020-06-28T18:46:34Z</time>
      </trkpt>
      <trkpt lat="48.71896" lon="7.04491">
        <ele>285.7</ele>
        <time>2020-06-28T18:46:35Z</time>
      </trkpt>
      <trkpt lat="48.71895" lon="7.04493">
        <ele>285.7</ele>
        <time>2020-06-28T18:46:36Z</time>
      </trkpt>
      <trkpt lat="48.71897" lon="7.04495">
        <ele>285.8</ele>
        <time>2020-06-28T18:46:37Z</time>
      </trkpt>
      <trkpt lat="48.71898" lon="7.04497">
        <ele>285.8</ele>
        <time>2020-06-28T18:46:38Z</time>
      </trkpt>
      <trkpt lat="48.71899" lon="7.04499">
        <ele>285.8</ele>
        <time>2020-06-28T18:46:39Z</time>
      </trkpt>
      <trkpt lat="48.719" lon="7.04501">
        <ele>285.9</ele>
        <time>2020-06-28T18:46:40Z</time>
      </trkpt>
      <trkpt lat="48.719" lon="7.04502">
        <ele>285.9</ele>
        <time>2020-06-28T18:46:41Z</time>
      </trkpt>
      <trkpt lat="48.71901" lon="7.04503">
        <ele>285.9</ele>
        <time>2020-06-28T18:46:42Z</time>
      </trkpt>
      <trkpt lat="48.71902" lon="7.04505">
        <ele>285.9</ele>
        <time>2020-06-28T18:46:43Z</time>
      </trkpt>
      <trkpt lat="48.71903" lon="7.04507">
        <ele>286</ele>
        <time>2020-06-28T18:46:44Z</time>
      </trkpt>
      <trkpt lat="48.71904" lon="7.04508">
        <ele>286</ele>
        <time>2020-06-28T18:46:45Z</time>
      </trkpt>
      <trkpt lat="48.71905" lon="7.04509">
        <ele>286</ele>
        <time>2020-06-28T18:46:46Z</time>
      </trkpt>
      <trkpt lat="48.71906" lon="7.0451">
        <ele>286</ele>
        <time>2020-06-28T18:46:47Z</time>
      </trkpt>
      <trkpt lat="48.71906" lon="7.04511">
        <ele>286.1</ele>
        <time>2020-06-28T18:46:48Z</time>
      </trkpt>
      <trkpt lat="48.71907" lon="7.04511">
        <ele>286.1</ele>
        <time>2020-06-28T18:46:49Z</time>
      </trkpt>
      <trkpt lat="48.71908" lon="7.04511">
        <ele>286.1</ele>
        <time>2020-06-28T18:46:50Z</time>
      </trkpt>
      <trkpt lat="48.71909" lon="7.04512">
        <ele>286.1</ele>
        <time>2020-06-28T18:46:51Z</time>
      </trkpt>
      <trkpt lat="48.71911" lon="7.04512">
        <ele>286.1</ele>
        <time>2020-06-28T18:46:52Z</time>
      </trkpt>
      <trkpt lat="48.71912" lon="7.04512">
        <ele>286.1</ele>
        <time>2020-06-28T18:46:53Z</time>
      </trkpt>
      <trkpt lat="48.71913" lon="7.04512">
        <ele>286.1</ele>
        <time>2020-06-28T18:46:54Z</time>
      </trkpt>
      <trkpt lat="48.71914" lon="7.04512">
        <ele>286.1</ele>
        <time>2020-06-28T18:46:55Z</time>
      </trkpt>
      <trkpt lat="48.71916" lon="7.04513">
        <ele>286.1</ele>
        <time>2020-06-28T18:46:56Z</time>
      </trkpt>
      <trkpt lat="48.71917" lon="7.04513">
        <ele>286.1</ele>
        <time>2020-06-28T18:46:57Z</time>
      </trkpt>
      <trkpt lat="48.71918" lon="7.04513">
        <ele>286.1</ele>
        <time>2020-06-28T18:46:58Z</time>
      </trkpt>
      <trkpt lat="48.71919" lon="7.04513">
        <ele>286.1</ele>
        <time>2020-06-28T18:46:59Z</time>
      </trkpt>
      <trkpt lat="48.71921" lon="7.04513">
        <ele>286.1</ele>
        <time>2020-06-28T18:47:00Z</time>
      </trkpt>
      <trkpt lat="48.71922" lon="7.04513">
        <ele>286.1</ele>
        <time>2020-06-28T18:47:01Z</time>
      </trkpt>
      <trkpt lat="48.71923" lon="7.04513">
        <ele>286.1</ele>
        <time>2020-06-28T18:47:02Z</time>
      </trkpt>
      <trkpt lat="48.71924" lon="7.04514">
        <ele>286.1</ele>
        <time>2020-06-28T18:47:03Z</time>
      </trkpt>
      <trkpt lat="48.71926" lon="7.04514">
        <ele>286.2</ele>
        <time>2020-06-28T19:03:19Z</time>
      </trkpt>
      <trkpt lat="48.71927" lon="7.04514">
        <ele>286.2</ele>
        <time>2020-06-28T19:03:20Z</time>
      </trkpt>
      <trkpt lat="48.71927" lon="7.04516">
        <ele>286.3</ele>
        <time>2020-06-28T19:03:21Z</time>
      </trkpt>
      <trkpt lat="48.71927" lon="7.04518">
        <ele>286.3</ele>
        <time>2020-06-28T19:03:22Z</time>
      </trkpt>
      <trkpt lat="48.71926" lon="7.0452">
        <ele>286.6</ele>
        <time>2020-06-28T19:03:23Z</time>
      </trkpt>
      <trkpt lat="48.71925" lon="7.04522">
        <ele>286.5</ele>
        <time>2020-06-28T19:03:24Z</time>
      </trkpt>
      <trkpt lat="48.71924" lon="7.04525">
        <ele>286.8</ele>
        <time>2020-06-28T19:03:25Z</time>
      </trkpt>
      <trkpt lat="48.71924" lon="7.04527">
        <ele>286.8</ele>
        <time>2020-06-28T19:03:26Z</time>
      </trkpt>
      <trkpt lat="48.71924" lon="7.0453">
        <ele>287</ele>
        <time>2020-06-28T19:03:27Z</time>
      </trkpt>
      <trkpt lat="48.71924" lon="7.04531">
        <ele>287</ele>
        <time>2020-06-28T19:03:28Z</time>
      </trkpt>
      <trkpt lat="48.71924" lon="7.04534">
        <ele>287.2</ele>
        <time>2020-06-28T19:03:29Z</time>
      </trkpt>
      <trkpt lat="48.71924" lon="7.04536">
        <ele>287.2</ele>
        <time>2020-06-28T19:03:30Z</time>
      </trkpt>
      <trkpt lat="48.71924" lon="7.04541">
        <ele>287.4</ele>
        <time>2020-06-28T19:03:31Z</time>
      </trkpt>
      <trkpt lat="48.71924" lon="7.04542">
        <ele>287.6</ele>
        <time>2020-06-28T19:03:32Z</time>
      </trkpt>
      <trkpt lat="48.71924" lon="7.04544">
        <ele>287.6</ele>
        <time>2020-06-28T19:03:33Z</time>
      </trkpt>
      <trkpt lat="48.71924" lon="7.04545">
        <ele>287.6</ele>
        <time>2020-06-28T19:03:34Z</time>
      </trkpt>
      <trkpt lat="48.71925" lon="7.04547">
        <ele>287.9</ele>
        <time>2020-06-28T19:03:35Z</time>
      </trkpt>
      <trkpt lat="48.71925" lon="7.04548">
        <ele>287.9</ele>
        <time>2020-06-28T19:03:36Z</time>
      </trkpt>
      <trkpt lat="48.71926" lon="7.0455">
        <ele>288.1</ele>
        <time>2020-06-28T19:03:37Z</time>
      </trkpt>
      <trkpt lat="48.71927" lon="7.04551">
        <ele>288.1</ele>
        <time>2020-06-28T19:03:38Z</time>
      </trkpt>
      <trkpt lat="48.71927" lon="7.04552">
        <ele>288.1</ele>
        <time>2020-06-28T19:03:39Z</time>
      </trkpt>
      <trkpt lat="48.71928" lon="7.04552">
        <ele>288.1</ele>
        <time>2020-06-28T19:03:40Z</time>
      </trkpt>
      <trkpt lat="48.71929" lon="7.04552">
        <ele>288.1</ele>
        <time>2020-06-28T19:03:41Z</time>
      </trkpt>
      <trkpt lat="48.7193" lon="7.04552">
        <ele>288.1</ele>
        <time>2020-06-28T19:03:42Z</time>
      </trkpt>
      <trkpt lat="48.71931" lon="7.04552">
        <ele>288.1</ele>
        <time>2020-06-28T19:03:43Z</time>
      </trkpt>
      <trkpt lat="48.71931" lon="7.04552">
        <ele>288.1</ele>
        <time>2020-06-28T19:03:44Z</time>
      </trkpt>
      <trkpt lat="48.71932" lon="7.04552">
        <ele>288.1</ele>
        <time>2020-06-28T19:03:45Z</time>
      </trkpt>
      <trkpt lat="48.71932" lon="7.04552">
        <ele>288.1</ele>
        <time>2020-06-28T19:03:46Z</time>
      </trkpt>
      <trkpt lat="48.71933" lon="7.04551">
        <ele>288.1</ele>
        <time>2020-06-28T19:03:47Z</time>
      </trkpt>
      <trkpt lat="48.71934" lon="7.04551">
        <ele>288.1</ele>
        <time>2020-06-28T19:03:48Z</time>
      </trkpt>
      <trkpt lat="48.71935" lon="7.04551">
        <ele>288.1</ele>
        <time>2020-06-28T19:03:49Z</time>
      </trkpt>
      <trkpt lat="48.71937" lon="7.0455">
        <ele>287.8</ele>
        <time>2020-06-28T19:03:50Z</time>
      </trkpt>
      <trkpt lat="48.71938" lon="7.04549">
        <ele>287.8</ele>
        <time>2020-06-28T19:03:51Z</time>
      </trkpt>
      <trkpt lat="48.7194" lon="7.04547">
        <ele>287.8</ele>
        <time>2020-06-28T19:03:52Z</time>
      </trkpt>
      <trkpt lat="48.7194" lon="7.04546">
        <ele>287.8</ele>
        <time>2020-06-28T19:03:53Z</time>
      </trkpt>
      <trkpt lat="48.71941" lon="7.04545">
        <ele>287.6</ele>
        <time>2020-06-28T19:03:54Z</time>
      </trkpt>
      <trkpt lat="48.71941" lon="7.04543">
        <ele>287.6</ele>
        <time>2020-06-28T19:03:55Z</time>
      </trkpt>
      <trkpt lat="48.71941" lon="7.04542">
        <ele>287.6</ele>
        <time>2020-06-28T19:03:56Z</time>
      </trkpt>
      <trkpt lat="48.7194" lon="7.04541">
        <ele>287.6</ele>
        <time>2020-06-28T19:03:57Z</time>
      </trkpt>
      <trkpt lat="48.7194" lon="7.04541">
        <ele>287.6</ele>
        <time>2020-06-28T19:03:58Z</time>
      </trkpt>
      <trkpt lat="48.7194" lon="7.04541">
        <ele>287.6</ele>
        <time>2020-06-28T19:03:59Z</time>
      </trkpt>
      <trkpt lat="48.7194" lon="7.04541">
        <ele>287.6</ele>
        <time>2020-06-28T19:04:00Z</time>
      </trkpt>
      <trkpt lat="48.7194" lon="7.04541">
        <ele>287.6</ele>
        <time>2020-06-28T19:04:01Z</time>
      </trkpt>
      <trkpt lat="48.7194" lon="7.04541">
        <ele>287.4</ele>
        <time>2020-06-28T19:04:02Z</time>
      </trkpt>
      <trkpt lat="48.7194" lon="7.0454">
        <ele>287.4</ele>
        <time>2020-06-28T19:04:03Z</time>
      </trkpt>
      <trkpt lat="48.71941" lon="7.04538">
        <ele>287.4</ele>
        <time>2020-06-28T19:04:04Z</time>
      </trkpt>
      <trkpt lat="48.71942" lon="7.04536">
        <ele>287.2</ele>
        <time>2020-06-28T19:04:05Z</time>
      </trkpt>
      <trkpt lat="48.71942" lon="7.04535">
        <ele>287.2</ele>
        <time>2020-06-28T19:04:06Z</time>
      </trkpt>
      <trkpt lat="48.71942" lon="7.04534">
        <ele>287.2</ele>
        <time>2020-06-28T19:04:07Z</time>
      </trkpt>
      <trkpt lat="48.71942" lon="7.04534">
        <ele>287.2</ele>
        <time>2020-06-28T19:04:08Z</time>
      </trkpt>
      <trkpt lat="48.71942" lon="7.04534">
        <ele>287.2</ele>
        <time>2020-06-28T19:04:09Z</time>
      </trkpt>
      <trkpt lat="48.71942" lon="7.04533">
        <ele>286.9</ele>
        <time>2020-06-28T19:04:10Z</time>
      </trkpt>
      <trkpt lat="48.71943" lon="7.04531">
        <ele>286.9</ele>
        <time>2020-06-28T19:04:11Z</time>
      </trkpt>
      <trkpt lat="48.71944" lon="7.0453">
        <ele>286.9</ele>
        <time>2020-06-28T19:04:12Z</time>
      </trkpt>
      <trkpt lat="48.71944" lon="7.04529">
        <ele>286.9</ele>
        <time>2020-06-28T19:04:13Z</time>
      </trkpt>
      <trkpt lat="48.71944" lon="7.04528">
        <ele>286.7</ele>
        <time>2020-06-28T19:04:14Z</time>
      </trkpt>
      <trkpt lat="48.71944" lon="7.04527">
        <ele>286.7</ele>
        <time>2020-06-28T19:04:15Z</time>
      </trkpt>
      <trkpt lat="48.71945" lon="7.04524">
        <ele>286.7</ele>
        <time>2020-06-28T19:04:16Z</time>
      </trkpt>
      <trkpt lat="48.71945" lon="7.04523">
        <ele>286.5</ele>
        <time>2020-06-28T19:04:17Z</time>
      </trkpt>
      <trkpt lat="48.71945" lon="7.04522">
        <ele>286.5</ele>
        <time>2020-06-28T19:04:18Z</time>
      </trkpt>
      <trkpt lat="48.71945" lon="7.04522">
        <ele>286.5</ele>
        <time>2020-06-28T19:04:19Z</time>
      </trkpt>
      <trkpt lat="48.71944" lon="7.04522">
        <ele>286.5</ele>
        <time>2020-06-28T19:04:20Z</time>
      </trkpt>
      <trkpt lat="48.71944" lon="7.04522">
        <ele>286.5</ele>
        <time>2020-06-28T19:04:21Z</time>
      </trkpt>
      <trkpt lat="48.71944" lon="7.04521">
        <ele>286.5</ele>
        <time>2020-06-28T19:04:22Z</time>
      </trkpt>
      <trkpt lat="48.71945" lon="7.04521">
        <ele>286.5</ele>
        <time>2020-06-28T19:04:23Z</time>
      </trkpt>
      <trkpt lat="48.71945" lon="7.04521">
        <ele>286.5</ele>
        <time>2020-06-28T19:04:24Z</time>
      </trkpt>
      <trkpt lat="48.71945" lon="7.0452">
        <ele>286.5</ele>
        <time>2020-06-28T19:04:25Z</time>
      </trkpt>
      <trkpt lat="48.71945" lon="7.04519">
        <ele>286.3</ele>
        <time>2020-06-28T19:04:26Z</time>
      </trkpt>
      <trkpt lat="48.71945" lon="7.04519">
        <ele>286.3</ele>
        <time>2020-06-28T19:04:27Z</time>
      </trkpt>
      <trkpt lat="48.71945" lon="7.04519">
        <ele>286.3</ele>
        <time>2020-06-28T19:04:28Z</time>
      </trkpt>
      <trkpt lat="48.71944" lon="7.0452">
        <ele>286.5</ele>
        <time>2020-06-28T19:04:29Z</time>
      </trkpt>
      <trkpt lat="48.71945" lon="7.04519">
        <ele>286.3</ele>
        <time>2020-06-28T19:04:30Z</time>
      </trkpt>
      <trkpt lat="48.71946" lon="7.04519">
        <ele>286.3</ele>
        <time>2020-06-28T19:04:31Z</time>
      </trkpt>
      <trkpt lat="48.71946" lon="7.04518">
        <ele>286.3</ele>
        <time>2020-06-28T19:04:32Z</time>
      </trkpt>
      <trkpt lat="48.71946" lon="7.04518">
        <ele>286.3</ele>
        <time>2020-06-28T19:04:33Z</time>
      </trkpt>
      <trkpt lat="48.71947" lon="7.04518">
        <ele>286.3</ele>
        <time>2020-06-28T19:04:34Z</time>
      </trkpt>
      <trkpt lat="48.71947" lon="7.04518">
        <ele>286.3</ele>
        <time>2020-06-28T19:04:35Z</time>
      </trkpt>
      <trkpt lat="48.71946" lon="7.04518">
        <ele>286.3</ele>
        <time>2020-06-28T19:04:36Z</time>
      </trkpt>
      <trkpt lat="48.71946" lon="7.04518">
        <ele>286.3</ele>
        <time>2020-06-28T19:04:37Z</time>
      </trkpt>
      <trkpt lat="48.71946" lon="7.04518">
        <ele>286.3</ele>
        <time>2020-06-28T19:04:38Z</time>
      </trkpt>
      <trkpt lat="48.71946" lon="7.04518">
        <ele>286.3</ele>
        <time>2020-06-28T19:04:39Z</time>
      </trkpt>
      <trkpt lat="48.71945" lon="7.04517">
        <ele>286.3</ele>
        <time>2020-06-28T19:04:40Z</time>
      </trkpt>
      <trkpt lat="48.71946" lon="7.04517">
        <ele>286.3</ele>
        <time>2020-06-28T19:04:41Z</time>
      </trkpt>
      <trkpt lat="48.71946" lon="7.04517">
        <ele>286.3</ele>
        <time>2020-06-28T19:04:42Z</time>
      </trkpt>
      <trkpt lat="48.71946" lon="7.04517">
        <ele>286.3</ele>
        <time>2020-06-28T19:04:43Z</time>
      </trkpt>
      <trkpt lat="48.71954" lon="7.04492">
        <ele>285</ele>
        <time>2020-06-28T19:07:34Z</time>
      </trkpt>
      <trkpt lat="48.71954" lon="7.04492">
        <ele>285</ele>
        <time>2020-06-28T19:07:35Z</time>
      </trkpt>
      <trkpt lat="48.71954" lon="7.04492">
        <ele>285</ele>
        <time>2020-06-28T19:07:36Z</time>
      </trkpt>
      <trkpt lat="48.71954" lon="7.04492">
        <ele>285</ele>
        <time>2020-06-28T19:07:37Z</time>
      </trkpt>
      <trkpt lat="48.71954" lon="7.04492">
        <ele>285</ele>
        <time>2020-06-28T19:07:38Z</time>
      </trkpt>
      <trkpt lat="48.71954" lon="7.04492">
        <ele>285</ele>
        <time>2020-06-28T19:07:39Z</time>
      </trkpt>
      <trkpt lat="48.71954" lon="7.04492">
        <ele>285</ele>
        <time>2020-06-28T19:07:40Z</time>
      </trkpt>
      <trkpt lat="48.71954" lon="7.04492">
        <ele>285</ele>
        <time>2020-06-28T19:07:41Z</time>
      </trkpt>
      <trkpt lat="48.71954" lon="7.04492">
        <ele>285</ele>
        <time>2020-06-28T19:07:42Z</time>
      </trkpt>
      <trkpt lat="48.71954" lon="7.04492">
        <ele>285</ele>
        <time>2020-06-28T19:07:43Z</time>
      </trkpt>
      <trkpt lat="48.71954" lon="7.04492">
        <ele>285</ele>
        <time>2020-06-28T19:07:44Z</time>
      </trkpt>
      <trkpt lat="48.71954" lon="7.04492">
        <ele>285</ele>
        <time>2020-06-28T19:07:45Z</time>
      </trkpt>
      <trkpt lat="48.71949" lon="7.04485">
        <ele>284.6</ele>
        <time>2020-06-28T19:10:21Z</time>
      </trkpt>
      <trkpt lat="48.7195" lon="7.04484">
        <ele>284.6</ele>
        <time>2020-06-28T19:10:22Z</time>
      </trkpt>
      <trkpt lat="48.7195" lon="7.04484">
        <ele>284.6</ele>
        <time>2020-06-28T19:10:23Z</time>
      </trkpt>
      <trkpt lat="48.71951" lon="7.04484">
        <ele>284.6</ele>
        <time>2020-06-28T19:10:24Z</time>
      </trkpt>
      <trkpt lat="48.7195" lon="7.04485">
        <ele>284.6</ele>
        <time>2020-06-28T19:10:25Z</time>
      </trkpt>
      <trkpt lat="48.7195" lon="7.04484">
        <ele>284.6</ele>
        <time>2020-06-28T19:10:26Z</time>
      </trkpt>
      <trkpt lat="48.7195" lon="7.04484">
        <ele>284.6</ele>
        <time>2020-06-28T19:10:27Z</time>
      </trkpt>
      <trkpt lat="48.71951" lon="7.04483">
        <ele>284.6</ele>
        <time>2020-06-28T19:10:28Z</time>
      </trkpt>
      <trkpt lat="48.71951" lon="7.04483">
        <ele>284.6</ele>
        <time>2020-06-28T19:10:29Z</time>
      </trkpt>
      <trkpt lat="48.71951" lon="7.04483">
        <ele>284.6</ele>
        <time>2020-06-28T19:10:30Z</time>
      </trkpt>
      <trkpt lat="48.71951" lon="7.04483">
        <ele>284.6</ele>
        <time>2020-06-28T19:10:31Z</time>
      </trkpt>
      <trkpt lat="48.71951" lon="7.04483">
        <ele>284.6</ele>
        <time>2020-06-28T19:10:32Z</time>
      </trkpt>
      <trkpt lat="48.71951" lon="7.04483">
        <ele>284.6</ele>
        <time>2020-06-28T19:10:33Z</time>
      </trkpt>
      <trkpt lat="48.71951" lon="7.04483">
        <ele>284.6</ele>
        <time>2020-06-28T19:10:34Z</time>
      </trkpt>
      <trkpt lat="48.71951" lon="7.04483">
        <ele>284.6</ele>
        <time>2020-06-28T19:10:35Z</time>
      </trkpt>
      <trkpt lat="48.71964" lon="7.04465">
        <ele>283.7</ele>
        <time>2020-06-28T19:27:37Z</time>
      </trkpt>
      <trkpt lat="48.71963" lon="7.04467">
        <ele>283.7</ele>
        <time>2020-06-28T19:27:38Z</time>
      </trkpt>
      <trkpt lat="48.71963" lon="7.04469">
        <ele>283.9</ele>
        <time>2020-06-28T19:27:39Z</time>
      </trkpt>
      <trkpt lat="48.71962" lon="7.04467">
        <ele>283.7</ele>
        <time>2020-06-28T19:27:40Z</time>
      </trkpt>
      <trkpt lat="48.71962" lon="7.04466">
        <ele>283.7</ele>
        <time>2020-06-28T19:27:41Z</time>
      </trkpt>
      <trkpt lat="48.71961" lon="7.04466">
        <ele>283.7</ele>
        <time>2020-06-28T19:27:42Z</time>
      </trkpt>
      <trkpt lat="48.71961" lon="7.04465">
        <ele>283.7</ele>
        <time>2020-06-28T19:27:43Z</time>
      </trkpt>
      <trkpt lat="48.71961" lon="7.04464">
        <ele>283.7</ele>
        <time>2020-06-28T19:27:44Z</time>
      </trkpt>
      <trkpt lat="48.7196" lon="7.04463">
        <ele>283.5</ele>
        <time>2020-06-28T19:27:45Z</time>
      </trkpt>
      <trkpt lat="48.7196" lon="7.04463">
        <ele>283.5</ele>
        <time>2020-06-28T19:27:46Z</time>
      </trkpt>
      <trkpt lat="48.7196" lon="7.04462">
        <ele>283.5</ele>
        <time>2020-06-28T19:27:47Z</time>
      </trkpt>
      <trkpt lat="48.71959" lon="7.04461">
        <ele>283.5</ele>
        <time>2020-06-28T19:27:48Z</time>
      </trkpt>
      <trkpt lat="48.71959" lon="7.0446">
        <ele>283.5</ele>
        <time>2020-06-28T19:27:49Z</time>
      </trkpt>
      <trkpt lat="48.71959" lon="7.04458">
        <ele>283.3</ele>
        <time>2020-06-28T19:27:50Z</time>
      </trkpt>
      <trkpt lat="48.71958" lon="7.04458">
        <ele>283.3</ele>
        <time>2020-06-28T19:27:51Z</time>
      </trkpt>
      <trkpt lat="48.71958" lon="7.04458">
        <ele>283.3</ele>
        <time>2020-06-28T19:27:52Z</time>
      </trkpt>
      <trkpt lat="48.71958" lon="7.04455">
        <ele>283.3</ele>
        <time>2020-06-28T19:27:53Z</time>
      </trkpt>
      <trkpt lat="48.71959" lon="7.04453">
        <ele>283.1</ele>
        <time>2020-06-28T19:27:54Z</time>
      </trkpt>
      <trkpt lat="48.71959" lon="7.04451">
        <ele>283.1</ele>
        <time>2020-06-28T19:27:55Z</time>
      </trkpt>
      <trkpt lat="48.7196" lon="7.04449">
        <ele>282.8</ele>
        <time>2020-06-28T19:27:56Z</time>
      </trkpt>
      <trkpt lat="48.71961" lon="7.04447">
        <ele>282.8</ele>
        <time>2020-06-28T19:27:57Z</time>
      </trkpt>
      <trkpt lat="48.71961" lon="7.04445">
        <ele>282.6</ele>
        <time>2020-06-28T19:27:58Z</time>
      </trkpt>
      <trkpt lat="48.7192" lon="7.04511">
        <ele>286.1</ele>
        <time>2020-06-28T20:08:33Z</time>
      </trkpt>
      <trkpt lat="48.7192" lon="7.0451">
        <ele>285.9</ele>
        <time>2020-06-28T20:08:40Z</time>
      </trkpt>
      <trkpt lat="48.7192" lon="7.0451">
        <ele>285.9</ele>
        <time>2020-06-28T20:08:46Z</time>
      </trkpt>
    </trkseg>
  </trk>
</gpx>